<?xml version="1.0" encoding="UTF-8"?>
<gpx version="1.1" creator="https://www.youtrack.es" xsi:schemaLocation="http://www.topografix.com/GPX/1/1 http://www.topografix.com/GPX/1/1/gpx.xsd http://www.garmin.com/xmlschemas/GpxExtensions/v3 http://www.garmin.com/xmlschemas/GpxExtensionsv3.xsd http://www.garmin.com/xmlschemas/TrackPointExtension/v1 http://www.garmin.com/xmlschemas/TrackPointExtensionv1.xsd" xmlns:gpxtpx="http://www.garmin.com/xmlschemas/TrackPointExtension/v1" xmlns:gpxx="http://www.garmin.com/xmlschemas/GpxExtensions/v3" xmlns:xsi="http://www.w3.org/2001/XMLSchema-instance">
  <metadata>
    <link href="https://www.youtrack.es">
      <text>YouTrack.es</text>
    </link>
    <time>2026-05-08T11:03:45Z</time>
  </metadata>
  <trk>
    <src>https://www.youtrack.es</src>
    <link href="https://www.youtrack.es/ruta/14629-transpirenaica-por-francia">
      <text>YouTrack.es</text>
    </link>
    <trkseg>
      <trkpt lat="42.3658860" lon="3.1501440">
        <ele>3.2</ele>
        <time>2020-07-20T07:52:19Z</time>
      </trkpt>
      <trkpt lat="42.3657600" lon="3.1500940">
        <ele>3.0</ele>
        <time>2020-07-20T07:52:24Z</time>
      </trkpt>
      <trkpt lat="42.3654650" lon="3.1499690">
        <ele>2.6</ele>
        <time>2020-07-20T07:52:30Z</time>
      </trkpt>
      <trkpt lat="42.3653530" lon="3.1499150">
        <ele>2.0</ele>
        <time>2020-07-20T07:52:32Z</time>
      </trkpt>
      <trkpt lat="42.3651130" lon="3.1497820">
        <ele>1.0</ele>
        <time>2020-07-20T07:52:36Z</time>
      </trkpt>
      <trkpt lat="42.3650550" lon="3.1497320">
        <ele>0.8</ele>
        <time>2020-07-20T07:52:37Z</time>
      </trkpt>
      <trkpt lat="42.3650010" lon="3.1496720">
        <ele>0.8</ele>
        <time>2020-07-20T07:52:38Z</time>
      </trkpt>
      <trkpt lat="42.3649470" lon="3.1496070">
        <ele>0.8</ele>
        <time>2020-07-20T07:52:39Z</time>
      </trkpt>
      <trkpt lat="42.3648960" lon="3.1495380">
        <ele>0.6</ele>
        <time>2020-07-20T07:52:40Z</time>
      </trkpt>
      <trkpt lat="42.3648490" lon="3.1494620">
        <ele>0.4</ele>
        <time>2020-07-20T07:52:41Z</time>
      </trkpt>
      <trkpt lat="42.3647290" lon="3.1491980">
        <ele>0.0</ele>
        <time>2020-07-20T07:52:44Z</time>
      </trkpt>
      <trkpt lat="42.3646940" lon="3.1491040">
        <ele>-0.2</ele>
        <time>2020-07-20T07:52:45Z</time>
      </trkpt>
      <trkpt lat="42.3646270" lon="3.1489120">
        <ele>-0.4</ele>
        <time>2020-07-20T07:52:47Z</time>
      </trkpt>
      <trkpt lat="42.3645230" lon="3.1486270">
        <ele>-0.4</ele>
        <time>2020-07-20T07:52:50Z</time>
      </trkpt>
      <trkpt lat="42.3644370" lon="3.1484560">
        <ele>-0.2</ele>
        <time>2020-07-20T07:52:52Z</time>
      </trkpt>
      <trkpt lat="42.3643340" lon="3.1483060">
        <ele>-0.4</ele>
        <time>2020-07-20T07:52:54Z</time>
      </trkpt>
      <trkpt lat="42.3642140" lon="3.1481830">
        <ele>-0.4</ele>
        <time>2020-07-20T07:52:56Z</time>
      </trkpt>
      <trkpt lat="42.3640210" lon="3.1480260">
        <ele>-0.4</ele>
        <time>2020-07-20T07:52:59Z</time>
      </trkpt>
      <trkpt lat="42.3637480" lon="3.1478380">
        <ele>-0.4</ele>
        <time>2020-07-20T07:53:03Z</time>
      </trkpt>
      <trkpt lat="42.3633490" lon="3.1475380">
        <ele>-0.4</ele>
        <time>2020-07-20T07:53:09Z</time>
      </trkpt>
      <trkpt lat="42.3632280" lon="3.1474230">
        <ele>-0.4</ele>
        <time>2020-07-20T07:53:11Z</time>
      </trkpt>
      <trkpt lat="42.3629860" lon="3.1470730">
        <ele>0.2</ele>
        <time>2020-07-20T07:53:16Z</time>
      </trkpt>
      <trkpt lat="42.3629090" lon="3.1469170">
        <ele>0.8</ele>
        <time>2020-07-20T07:53:18Z</time>
      </trkpt>
      <trkpt lat="42.3627850" lon="3.1465750">
        <ele>1.2</ele>
        <time>2020-07-20T07:53:22Z</time>
      </trkpt>
      <trkpt lat="42.3626270" lon="3.1460650">
        <ele>1.6</ele>
        <time>2020-07-20T07:53:28Z</time>
      </trkpt>
      <trkpt lat="42.3625450" lon="3.1457990">
        <ele>1.6</ele>
        <time>2020-07-20T07:53:31Z</time>
      </trkpt>
      <trkpt lat="42.3623960" lon="3.1454830">
        <ele>1.6</ele>
        <time>2020-07-20T07:53:35Z</time>
      </trkpt>
      <trkpt lat="42.3623480" lon="3.1454130">
        <ele>1.6</ele>
        <time>2020-07-20T07:53:36Z</time>
      </trkpt>
      <trkpt lat="42.3622440" lon="3.1452860">
        <ele>1.8</ele>
        <time>2020-07-20T07:53:38Z</time>
      </trkpt>
      <trkpt lat="42.3620620" lon="3.1451390">
        <ele>2.2</ele>
        <time>2020-07-20T07:53:41Z</time>
      </trkpt>
      <trkpt lat="42.3616540" lon="3.1449570">
        <ele>2.6</ele>
        <time>2020-07-20T07:53:47Z</time>
      </trkpt>
      <trkpt lat="42.3615200" lon="3.1448950">
        <ele>2.2</ele>
        <time>2020-07-20T07:53:49Z</time>
      </trkpt>
      <trkpt lat="42.3611200" lon="3.1447200">
        <ele>2.6</ele>
        <time>2020-07-20T07:53:55Z</time>
      </trkpt>
      <trkpt lat="42.3610540" lon="3.1446890">
        <ele>2.8</ele>
        <time>2020-07-20T07:53:56Z</time>
      </trkpt>
      <trkpt lat="42.3609870" lon="3.1446560">
        <ele>3.0</ele>
        <time>2020-07-20T07:53:57Z</time>
      </trkpt>
      <trkpt lat="42.3606640" lon="3.1444270">
        <ele>3.6</ele>
        <time>2020-07-20T07:54:02Z</time>
      </trkpt>
      <trkpt lat="42.3605400" lon="3.1443100">
        <ele>4.2</ele>
        <time>2020-07-20T07:54:04Z</time>
      </trkpt>
      <trkpt lat="42.3603110" lon="3.1440540">
        <ele>3.6</ele>
        <time>2020-07-20T07:54:08Z</time>
      </trkpt>
      <trkpt lat="42.3602560" lon="3.1439890">
        <ele>3.6</ele>
        <time>2020-07-20T07:54:09Z</time>
      </trkpt>
      <trkpt lat="42.3600420" lon="3.1437190">
        <ele>3.4</ele>
        <time>2020-07-20T07:54:13Z</time>
      </trkpt>
      <trkpt lat="42.3597240" lon="3.1433020">
        <ele>4.0</ele>
        <time>2020-07-20T07:54:19Z</time>
      </trkpt>
      <trkpt lat="42.3596700" lon="3.1432300">
        <ele>3.8</ele>
        <time>2020-07-20T07:54:20Z</time>
      </trkpt>
      <trkpt lat="42.3593470" lon="3.1427930">
        <ele>4.2</ele>
        <time>2020-07-20T07:54:26Z</time>
      </trkpt>
      <trkpt lat="42.3592030" lon="3.1425540">
        <ele>4.2</ele>
        <time>2020-07-20T07:54:29Z</time>
      </trkpt>
      <trkpt lat="42.3589570" lon="3.1420290">
        <ele>4.6</ele>
        <time>2020-07-20T07:54:35Z</time>
      </trkpt>
      <trkpt lat="42.3588380" lon="3.1417640">
        <ele>4.8</ele>
        <time>2020-07-20T07:54:38Z</time>
      </trkpt>
      <trkpt lat="42.3587980" lon="3.1416770">
        <ele>5.0</ele>
        <time>2020-07-20T07:54:39Z</time>
      </trkpt>
      <trkpt lat="42.3586680" lon="3.1414240">
        <ele>5.2</ele>
        <time>2020-07-20T07:54:42Z</time>
      </trkpt>
      <trkpt lat="42.3585120" lon="3.1411970">
        <ele>5.0</ele>
        <time>2020-07-20T07:54:45Z</time>
      </trkpt>
      <trkpt lat="42.3582000" lon="3.1408990">
        <ele>5.0</ele>
        <time>2020-07-20T07:54:50Z</time>
      </trkpt>
      <trkpt lat="42.3578490" lon="3.1407310">
        <ele>5.2</ele>
        <time>2020-07-20T07:54:55Z</time>
      </trkpt>
      <trkpt lat="42.3575020" lon="3.1406880">
        <ele>6.4</ele>
        <time>2020-07-20T07:55:00Z</time>
      </trkpt>
      <trkpt lat="42.3574340" lon="3.1406850">
        <ele>6.6</ele>
        <time>2020-07-20T07:55:01Z</time>
      </trkpt>
      <trkpt lat="42.3572380" lon="3.1406750">
        <ele>7.4</ele>
        <time>2020-07-20T07:55:04Z</time>
      </trkpt>
      <trkpt lat="42.3569310" lon="3.1406540">
        <ele>8.6</ele>
        <time>2020-07-20T07:55:09Z</time>
      </trkpt>
      <trkpt lat="42.3568700" lon="3.1406500">
        <ele>8.8</ele>
        <time>2020-07-20T07:55:10Z</time>
      </trkpt>
      <trkpt lat="42.3566900" lon="3.1406320">
        <ele>9.8</ele>
        <time>2020-07-20T07:55:13Z</time>
      </trkpt>
      <trkpt lat="42.3565700" lon="3.1406220">
        <ele>10.4</ele>
        <time>2020-07-20T07:55:15Z</time>
      </trkpt>
      <trkpt lat="42.3565100" lon="3.1406150">
        <ele>10.8</ele>
        <time>2020-07-20T07:55:16Z</time>
      </trkpt>
      <trkpt lat="42.3563900" lon="3.1406000">
        <ele>11.2</ele>
        <time>2020-07-20T07:55:18Z</time>
      </trkpt>
      <trkpt lat="42.3560340" lon="3.1405430">
        <ele>11.8</ele>
        <time>2020-07-20T07:55:24Z</time>
      </trkpt>
      <trkpt lat="42.3559760" lon="3.1405340">
        <ele>12.0</ele>
        <time>2020-07-20T07:55:25Z</time>
      </trkpt>
      <trkpt lat="42.3558580" lon="3.1405110">
        <ele>12.2</ele>
        <time>2020-07-20T07:55:27Z</time>
      </trkpt>
      <trkpt lat="42.3556800" lon="3.1404730">
        <ele>13.0</ele>
        <time>2020-07-20T07:55:30Z</time>
      </trkpt>
      <trkpt lat="42.3555590" lon="3.1404420">
        <ele>13.6</ele>
        <time>2020-07-20T07:55:32Z</time>
      </trkpt>
      <trkpt lat="42.3554380" lon="3.1404060">
        <ele>14.2</ele>
        <time>2020-07-20T07:55:34Z</time>
      </trkpt>
      <trkpt lat="42.3553160" lon="3.1403680">
        <ele>14.4</ele>
        <time>2020-07-20T07:55:36Z</time>
      </trkpt>
      <trkpt lat="42.3549650" lon="3.1402330">
        <ele>15.0</ele>
        <time>2020-07-20T07:55:42Z</time>
      </trkpt>
      <trkpt lat="42.3549090" lon="3.1402080">
        <ele>15.2</ele>
        <time>2020-07-20T07:55:43Z</time>
      </trkpt>
      <trkpt lat="42.3548530" lon="3.1401820">
        <ele>15.4</ele>
        <time>2020-07-20T07:55:44Z</time>
      </trkpt>
      <trkpt lat="42.3546860" lon="3.1401070">
        <ele>16.2</ele>
        <time>2020-07-20T07:55:47Z</time>
      </trkpt>
      <trkpt lat="42.3544090" lon="3.1400090">
        <ele>17.2</ele>
        <time>2020-07-20T07:55:52Z</time>
      </trkpt>
      <trkpt lat="42.3540310" lon="3.1400160">
        <ele>17.4</ele>
        <time>2020-07-20T07:55:58Z</time>
      </trkpt>
      <trkpt lat="42.3536180" lon="3.1400790">
        <ele>16.4</ele>
        <time>2020-07-20T07:56:04Z</time>
      </trkpt>
      <trkpt lat="42.3535480" lon="3.1400810">
        <ele>16.2</ele>
        <time>2020-07-20T07:56:05Z</time>
      </trkpt>
      <trkpt lat="42.3534780" lon="3.1400770">
        <ele>16.2</ele>
        <time>2020-07-20T07:56:06Z</time>
      </trkpt>
      <trkpt lat="42.3532700" lon="3.1400120">
        <ele>15.8</ele>
        <time>2020-07-20T07:56:09Z</time>
      </trkpt>
      <trkpt lat="42.3532040" lon="3.1399750">
        <ele>15.8</ele>
        <time>2020-07-20T07:56:10Z</time>
      </trkpt>
      <trkpt lat="42.3530840" lon="3.1398840">
        <ele>16.2</ele>
        <time>2020-07-20T07:56:12Z</time>
      </trkpt>
      <trkpt lat="42.3529310" lon="3.1397190">
        <ele>16.8</ele>
        <time>2020-07-20T07:56:15Z</time>
      </trkpt>
      <trkpt lat="42.3528540" lon="3.1395950">
        <ele>17.2</ele>
        <time>2020-07-20T07:56:17Z</time>
      </trkpt>
      <trkpt lat="42.3527580" lon="3.1394180">
        <ele>18.2</ele>
        <time>2020-07-20T07:56:20Z</time>
      </trkpt>
      <trkpt lat="42.3527290" lon="3.1393640">
        <ele>18.4</ele>
        <time>2020-07-20T07:56:21Z</time>
      </trkpt>
      <trkpt lat="42.3526490" lon="3.1392140">
        <ele>19.8</ele>
        <time>2020-07-20T07:56:24Z</time>
      </trkpt>
      <trkpt lat="42.3525830" lon="3.1390900">
        <ele>20.6</ele>
        <time>2020-07-20T07:56:27Z</time>
      </trkpt>
      <trkpt lat="42.3525610" lon="3.1390530">
        <ele>20.8</ele>
        <time>2020-07-20T07:56:28Z</time>
      </trkpt>
      <trkpt lat="42.3524810" lon="3.1389000">
        <ele>22.2</ele>
        <time>2020-07-20T07:56:32Z</time>
      </trkpt>
      <trkpt lat="42.3524040" lon="3.1387510">
        <ele>23.2</ele>
        <time>2020-07-20T07:56:36Z</time>
      </trkpt>
      <trkpt lat="42.3523300" lon="3.1386070">
        <ele>24.4</ele>
        <time>2020-07-20T07:56:40Z</time>
      </trkpt>
      <trkpt lat="42.3522750" lon="3.1384530">
        <ele>25.4</ele>
        <time>2020-07-20T07:56:44Z</time>
      </trkpt>
      <trkpt lat="42.3522290" lon="3.1382510">
        <ele>26.8</ele>
        <time>2020-07-20T07:56:49Z</time>
      </trkpt>
      <trkpt lat="42.3522130" lon="3.1381290">
        <ele>27.2</ele>
        <time>2020-07-20T07:56:52Z</time>
      </trkpt>
      <trkpt lat="42.3522050" lon="3.1380470">
        <ele>27.8</ele>
        <time>2020-07-20T07:56:54Z</time>
      </trkpt>
      <trkpt lat="42.3522040" lon="3.1378850">
        <ele>28.8</ele>
        <time>2020-07-20T07:56:58Z</time>
      </trkpt>
      <trkpt lat="42.3522060" lon="3.1378060">
        <ele>29.4</ele>
        <time>2020-07-20T07:57:00Z</time>
      </trkpt>
      <trkpt lat="42.3522150" lon="3.1376820">
        <ele>30.0</ele>
        <time>2020-07-20T07:57:03Z</time>
      </trkpt>
      <trkpt lat="42.3522550" lon="3.1374810">
        <ele>31.2</ele>
        <time>2020-07-20T07:57:08Z</time>
      </trkpt>
      <trkpt lat="42.3522910" lon="3.1373690">
        <ele>32.4</ele>
        <time>2020-07-20T07:57:11Z</time>
      </trkpt>
      <trkpt lat="42.3523200" lon="3.1372990">
        <ele>32.6</ele>
        <time>2020-07-20T07:57:13Z</time>
      </trkpt>
      <trkpt lat="42.3523940" lon="3.1371330">
        <ele>33.8</ele>
        <time>2020-07-20T07:57:18Z</time>
      </trkpt>
      <trkpt lat="42.3524080" lon="3.1371000">
        <ele>34.2</ele>
        <time>2020-07-20T07:57:19Z</time>
      </trkpt>
      <trkpt lat="42.3524340" lon="3.1370340">
        <ele>34.8</ele>
        <time>2020-07-20T07:57:21Z</time>
      </trkpt>
      <trkpt lat="42.3524940" lon="3.1368590">
        <ele>36.0</ele>
        <time>2020-07-20T07:57:26Z</time>
      </trkpt>
      <trkpt lat="42.3525150" lon="3.1367870">
        <ele>36.6</ele>
        <time>2020-07-20T07:57:28Z</time>
      </trkpt>
      <trkpt lat="42.3525460" lon="3.1366430">
        <ele>37.2</ele>
        <time>2020-07-20T07:57:32Z</time>
      </trkpt>
      <trkpt lat="42.3525620" lon="3.1365700">
        <ele>37.4</ele>
        <time>2020-07-20T07:57:34Z</time>
      </trkpt>
      <trkpt lat="42.3525790" lon="3.1364590">
        <ele>38.2</ele>
        <time>2020-07-20T07:57:37Z</time>
      </trkpt>
      <trkpt lat="42.3525950" lon="3.1363090">
        <ele>39.2</ele>
        <time>2020-07-20T07:57:41Z</time>
      </trkpt>
      <trkpt lat="42.3525940" lon="3.1362320">
        <ele>39.8</ele>
        <time>2020-07-20T07:57:43Z</time>
      </trkpt>
      <trkpt lat="42.3525850" lon="3.1361150">
        <ele>40.4</ele>
        <time>2020-07-20T07:57:46Z</time>
      </trkpt>
      <trkpt lat="42.3525510" lon="3.1359220">
        <ele>41.4</ele>
        <time>2020-07-20T07:57:51Z</time>
      </trkpt>
      <trkpt lat="42.3525420" lon="3.1358840">
        <ele>41.6</ele>
        <time>2020-07-20T07:57:52Z</time>
      </trkpt>
      <trkpt lat="42.3524630" lon="3.1356900">
        <ele>42.8</ele>
        <time>2020-07-20T07:57:57Z</time>
      </trkpt>
      <trkpt lat="42.3524420" lon="3.1356510">
        <ele>43.0</ele>
        <time>2020-07-20T07:57:58Z</time>
      </trkpt>
      <trkpt lat="42.3523130" lon="3.1354590">
        <ele>43.6</ele>
        <time>2020-07-20T07:58:03Z</time>
      </trkpt>
      <trkpt lat="42.3522530" lon="3.1353880">
        <ele>43.6</ele>
        <time>2020-07-20T07:58:05Z</time>
      </trkpt>
      <trkpt lat="42.3522190" lon="3.1353540">
        <ele>43.8</ele>
        <time>2020-07-20T07:58:06Z</time>
      </trkpt>
      <trkpt lat="42.3519930" lon="3.1351380">
        <ele>44.0</ele>
        <time>2020-07-20T07:58:12Z</time>
      </trkpt>
      <trkpt lat="42.3519540" lon="3.1350950">
        <ele>44.0</ele>
        <time>2020-07-20T07:58:13Z</time>
      </trkpt>
      <trkpt lat="42.3516870" lon="3.1348150">
        <ele>43.8</ele>
        <time>2020-07-20T07:58:19Z</time>
      </trkpt>
      <trkpt lat="42.3515910" lon="3.1347030">
        <ele>43.4</ele>
        <time>2020-07-20T07:58:21Z</time>
      </trkpt>
      <trkpt lat="42.3514910" lon="3.1345790">
        <ele>42.8</ele>
        <time>2020-07-20T07:58:23Z</time>
      </trkpt>
      <trkpt lat="42.3512750" lon="3.1343040">
        <ele>41.6</ele>
        <time>2020-07-20T07:58:27Z</time>
      </trkpt>
      <trkpt lat="42.3511540" lon="3.1341720">
        <ele>40.4</ele>
        <time>2020-07-20T07:58:29Z</time>
      </trkpt>
      <trkpt lat="42.3510210" lon="3.1340430">
        <ele>39.6</ele>
        <time>2020-07-20T07:58:31Z</time>
      </trkpt>
      <trkpt lat="42.3509510" lon="3.1339790">
        <ele>39.2</ele>
        <time>2020-07-20T07:58:32Z</time>
      </trkpt>
      <trkpt lat="42.3508790" lon="3.1339180">
        <ele>39.0</ele>
        <time>2020-07-20T07:58:33Z</time>
      </trkpt>
      <trkpt lat="42.3507300" lon="3.1338020">
        <ele>38.0</ele>
        <time>2020-07-20T07:58:35Z</time>
      </trkpt>
      <trkpt lat="42.3504880" lon="3.1336310">
        <ele>36.2</ele>
        <time>2020-07-20T07:58:38Z</time>
      </trkpt>
      <trkpt lat="42.3503260" lon="3.1335060">
        <ele>34.8</ele>
        <time>2020-07-20T07:58:40Z</time>
      </trkpt>
      <trkpt lat="42.3501100" lon="3.1332760">
        <ele>33.6</ele>
        <time>2020-07-20T07:58:43Z</time>
      </trkpt>
      <trkpt lat="42.3500550" lon="3.1331800">
        <ele>33.4</ele>
        <time>2020-07-20T07:58:44Z</time>
      </trkpt>
      <trkpt lat="42.3500070" lon="3.1330780">
        <ele>33.0</ele>
        <time>2020-07-20T07:58:45Z</time>
      </trkpt>
      <trkpt lat="42.3499660" lon="3.1329710">
        <ele>32.6</ele>
        <time>2020-07-20T07:58:46Z</time>
      </trkpt>
      <trkpt lat="42.3499070" lon="3.1327430">
        <ele>31.8</ele>
        <time>2020-07-20T07:58:48Z</time>
      </trkpt>
      <trkpt lat="42.3498860" lon="3.1326290">
        <ele>31.4</ele>
        <time>2020-07-20T07:58:49Z</time>
      </trkpt>
      <trkpt lat="42.3498520" lon="3.1324050">
        <ele>31.0</ele>
        <time>2020-07-20T07:58:51Z</time>
      </trkpt>
      <trkpt lat="42.3498360" lon="3.1322950">
        <ele>31.0</ele>
        <time>2020-07-20T07:58:52Z</time>
      </trkpt>
      <trkpt lat="42.3498040" lon="3.1320790">
        <ele>30.8</ele>
        <time>2020-07-20T07:58:54Z</time>
      </trkpt>
      <trkpt lat="42.3496980" lon="3.1314200">
        <ele>31.2</ele>
        <time>2020-07-20T07:59:00Z</time>
      </trkpt>
      <trkpt lat="42.3496690" lon="3.1313130">
        <ele>31.2</ele>
        <time>2020-07-20T07:59:01Z</time>
      </trkpt>
      <trkpt lat="42.3494720" lon="3.1307990">
        <ele>30.6</ele>
        <time>2020-07-20T07:59:06Z</time>
      </trkpt>
      <trkpt lat="42.3494310" lon="3.1307020">
        <ele>30.6</ele>
        <time>2020-07-20T07:59:07Z</time>
      </trkpt>
      <trkpt lat="42.3492670" lon="3.1303510">
        <ele>31.2</ele>
        <time>2020-07-20T07:59:11Z</time>
      </trkpt>
      <trkpt lat="42.3491500" lon="3.1301070">
        <ele>31.6</ele>
        <time>2020-07-20T07:59:14Z</time>
      </trkpt>
      <trkpt lat="42.3489600" lon="3.1297090">
        <ele>32.0</ele>
        <time>2020-07-20T07:59:19Z</time>
      </trkpt>
      <trkpt lat="42.3487670" lon="3.1292880">
        <ele>32.2</ele>
        <time>2020-07-20T07:59:24Z</time>
      </trkpt>
      <trkpt lat="42.3485320" lon="3.1287450">
        <ele>31.6</ele>
        <time>2020-07-20T07:59:30Z</time>
      </trkpt>
      <trkpt lat="42.3484660" lon="3.1285440">
        <ele>31.2</ele>
        <time>2020-07-20T07:59:32Z</time>
      </trkpt>
      <trkpt lat="42.3483780" lon="3.1280080">
        <ele>30.6</ele>
        <time>2020-07-20T07:59:37Z</time>
      </trkpt>
      <trkpt lat="42.3483780" lon="3.1273730">
        <ele>31.0</ele>
        <time>2020-07-20T07:59:43Z</time>
      </trkpt>
      <trkpt lat="42.3483860" lon="3.1272760">
        <ele>31.4</ele>
        <time>2020-07-20T07:59:44Z</time>
      </trkpt>
      <trkpt lat="42.3484120" lon="3.1269660">
        <ele>32.0</ele>
        <time>2020-07-20T07:59:47Z</time>
      </trkpt>
      <trkpt lat="42.3484210" lon="3.1267750">
        <ele>32.0</ele>
        <time>2020-07-20T07:59:49Z</time>
      </trkpt>
      <trkpt lat="42.3484350" lon="3.1265990">
        <ele>32.2</ele>
        <time>2020-07-20T07:59:51Z</time>
      </trkpt>
      <trkpt lat="42.3484440" lon="3.1264300">
        <ele>32.6</ele>
        <time>2020-07-20T07:59:53Z</time>
      </trkpt>
      <trkpt lat="42.3484570" lon="3.1261890">
        <ele>33.8</ele>
        <time>2020-07-20T07:59:56Z</time>
      </trkpt>
      <trkpt lat="42.3484660" lon="3.1260320">
        <ele>34.2</ele>
        <time>2020-07-20T07:59:58Z</time>
      </trkpt>
      <trkpt lat="42.3484690" lon="3.1255510">
        <ele>34.6</ele>
        <time>2020-07-20T08:00:04Z</time>
      </trkpt>
      <trkpt lat="42.3484550" lon="3.1253080">
        <ele>34.8</ele>
        <time>2020-07-20T08:00:07Z</time>
      </trkpt>
      <trkpt lat="42.3484540" lon="3.1248050">
        <ele>35.8</ele>
        <time>2020-07-20T08:00:13Z</time>
      </trkpt>
      <trkpt lat="42.3484610" lon="3.1246300">
        <ele>35.8</ele>
        <time>2020-07-20T08:00:15Z</time>
      </trkpt>
      <trkpt lat="42.3484620" lon="3.1241030">
        <ele>35.6</ele>
        <time>2020-07-20T08:00:21Z</time>
      </trkpt>
      <trkpt lat="42.3484390" lon="3.1238440">
        <ele>36.0</ele>
        <time>2020-07-20T08:00:24Z</time>
      </trkpt>
      <trkpt lat="42.3483280" lon="3.1233650">
        <ele>36.6</ele>
        <time>2020-07-20T08:00:30Z</time>
      </trkpt>
      <trkpt lat="42.3481620" lon="3.1229280">
        <ele>37.0</ele>
        <time>2020-07-20T08:00:36Z</time>
      </trkpt>
      <trkpt lat="42.3481080" lon="3.1227850">
        <ele>37.0</ele>
        <time>2020-07-20T08:00:38Z</time>
      </trkpt>
      <trkpt lat="42.3479710" lon="3.1223450">
        <ele>38.2</ele>
        <time>2020-07-20T08:00:44Z</time>
      </trkpt>
      <trkpt lat="42.3479420" lon="3.1221890">
        <ele>38.2</ele>
        <time>2020-07-20T08:00:46Z</time>
      </trkpt>
      <trkpt lat="42.3479220" lon="3.1218560">
        <ele>38.4</ele>
        <time>2020-07-20T08:00:50Z</time>
      </trkpt>
      <trkpt lat="42.3479250" lon="3.1216940">
        <ele>38.6</ele>
        <time>2020-07-20T08:00:52Z</time>
      </trkpt>
      <trkpt lat="42.3479440" lon="3.1213930">
        <ele>39.4</ele>
        <time>2020-07-20T08:00:56Z</time>
      </trkpt>
      <trkpt lat="42.3479800" lon="3.1211820">
        <ele>40.0</ele>
        <time>2020-07-20T08:00:59Z</time>
      </trkpt>
      <trkpt lat="42.3480160" lon="3.1209030">
        <ele>40.4</ele>
        <time>2020-07-20T08:01:03Z</time>
      </trkpt>
      <trkpt lat="42.3480590" lon="3.1206190">
        <ele>41.6</ele>
        <time>2020-07-20T08:01:07Z</time>
      </trkpt>
      <trkpt lat="42.3480690" lon="3.1205460">
        <ele>41.8</ele>
        <time>2020-07-20T08:01:08Z</time>
      </trkpt>
      <trkpt lat="42.3480800" lon="3.1204740">
        <ele>42.0</ele>
        <time>2020-07-20T08:01:09Z</time>
      </trkpt>
      <trkpt lat="42.3480920" lon="3.1204040">
        <ele>42.0</ele>
        <time>2020-07-20T08:01:10Z</time>
      </trkpt>
      <trkpt lat="42.3481540" lon="3.1200520">
        <ele>43.0</ele>
        <time>2020-07-20T08:01:15Z</time>
      </trkpt>
      <trkpt lat="42.3482120" lon="3.1196900">
        <ele>44.0</ele>
        <time>2020-07-20T08:01:20Z</time>
      </trkpt>
      <trkpt lat="42.3482880" lon="3.1192530">
        <ele>44.0</ele>
        <time>2020-07-20T08:01:26Z</time>
      </trkpt>
      <trkpt lat="42.3483660" lon="3.1187910">
        <ele>44.2</ele>
        <time>2020-07-20T08:01:32Z</time>
      </trkpt>
      <trkpt lat="42.3483780" lon="3.1187130">
        <ele>44.4</ele>
        <time>2020-07-20T08:01:33Z</time>
      </trkpt>
      <trkpt lat="42.3484560" lon="3.1182350">
        <ele>44.8</ele>
        <time>2020-07-20T08:01:39Z</time>
      </trkpt>
      <trkpt lat="42.3484820" lon="3.1180720">
        <ele>45.0</ele>
        <time>2020-07-20T08:01:41Z</time>
      </trkpt>
      <trkpt lat="42.3485070" lon="3.1179130">
        <ele>45.0</ele>
        <time>2020-07-20T08:01:43Z</time>
      </trkpt>
      <trkpt lat="42.3485460" lon="3.1176740">
        <ele>45.6</ele>
        <time>2020-07-20T08:01:46Z</time>
      </trkpt>
      <trkpt lat="42.3486240" lon="3.1172010">
        <ele>45.8</ele>
        <time>2020-07-20T08:01:52Z</time>
      </trkpt>
      <trkpt lat="42.3486360" lon="3.1171220">
        <ele>46.0</ele>
        <time>2020-07-20T08:01:53Z</time>
      </trkpt>
      <trkpt lat="42.3486990" lon="3.1167220">
        <ele>46.4</ele>
        <time>2020-07-20T08:01:58Z</time>
      </trkpt>
      <trkpt lat="42.3488140" lon="3.1162460">
        <ele>46.6</ele>
        <time>2020-07-20T08:02:04Z</time>
      </trkpt>
      <trkpt lat="42.3488410" lon="3.1161690">
        <ele>46.6</ele>
        <time>2020-07-20T08:02:05Z</time>
      </trkpt>
      <trkpt lat="42.3489780" lon="3.1158870">
        <ele>47.2</ele>
        <time>2020-07-20T08:02:09Z</time>
      </trkpt>
      <trkpt lat="42.3490610" lon="3.1157610">
        <ele>47.2</ele>
        <time>2020-07-20T08:02:11Z</time>
      </trkpt>
      <trkpt lat="42.3493370" lon="3.1154300">
        <ele>47.2</ele>
        <time>2020-07-20T08:02:17Z</time>
      </trkpt>
      <trkpt lat="42.3493850" lon="3.1153780">
        <ele>47.4</ele>
        <time>2020-07-20T08:02:18Z</time>
      </trkpt>
      <trkpt lat="42.3496680" lon="3.1150780">
        <ele>47.2</ele>
        <time>2020-07-20T08:02:24Z</time>
      </trkpt>
      <trkpt lat="42.3498540" lon="3.1148730">
        <ele>47.8</ele>
        <time>2020-07-20T08:02:28Z</time>
      </trkpt>
      <trkpt lat="42.3499010" lon="3.1148240">
        <ele>48.2</ele>
        <time>2020-07-20T08:02:29Z</time>
      </trkpt>
      <trkpt lat="42.3501840" lon="3.1145300">
        <ele>48.4</ele>
        <time>2020-07-20T08:02:35Z</time>
      </trkpt>
      <trkpt lat="42.3503320" lon="3.1143930">
        <ele>48.4</ele>
        <time>2020-07-20T08:02:38Z</time>
      </trkpt>
      <trkpt lat="42.3504830" lon="3.1142600">
        <ele>49.2</ele>
        <time>2020-07-20T08:02:41Z</time>
      </trkpt>
      <trkpt lat="42.3507880" lon="3.1140030">
        <ele>50.0</ele>
        <time>2020-07-20T08:02:47Z</time>
      </trkpt>
      <trkpt lat="42.3508370" lon="3.1139610">
        <ele>50.0</ele>
        <time>2020-07-20T08:02:48Z</time>
      </trkpt>
      <trkpt lat="42.3509340" lon="3.1138740">
        <ele>50.2</ele>
        <time>2020-07-20T08:02:50Z</time>
      </trkpt>
      <trkpt lat="42.3512110" lon="3.1136010">
        <ele>50.4</ele>
        <time>2020-07-20T08:02:56Z</time>
      </trkpt>
      <trkpt lat="42.3512970" lon="3.1135080">
        <ele>50.0</ele>
        <time>2020-07-20T08:02:58Z</time>
      </trkpt>
      <trkpt lat="42.3515060" lon="3.1132650">
        <ele>51.2</ele>
        <time>2020-07-20T08:03:03Z</time>
      </trkpt>
      <trkpt lat="42.3515470" lon="3.1132160">
        <ele>51.6</ele>
        <time>2020-07-20T08:03:04Z</time>
      </trkpt>
      <trkpt lat="42.3516680" lon="3.1130610">
        <ele>52.0</ele>
        <time>2020-07-20T08:03:07Z</time>
      </trkpt>
      <trkpt lat="42.3517100" lon="3.1130100">
        <ele>52.2</ele>
        <time>2020-07-20T08:03:08Z</time>
      </trkpt>
      <trkpt lat="42.3517890" lon="3.1129030">
        <ele>52.4</ele>
        <time>2020-07-20T08:03:10Z</time>
      </trkpt>
      <trkpt lat="42.3518280" lon="3.1128510">
        <ele>52.6</ele>
        <time>2020-07-20T08:03:11Z</time>
      </trkpt>
      <trkpt lat="42.3518680" lon="3.1127980">
        <ele>53.0</ele>
        <time>2020-07-20T08:03:12Z</time>
      </trkpt>
      <trkpt lat="42.3519890" lon="3.1126420">
        <ele>53.2</ele>
        <time>2020-07-20T08:03:15Z</time>
      </trkpt>
      <trkpt lat="42.3520670" lon="3.1125400">
        <ele>53.4</ele>
        <time>2020-07-20T08:03:17Z</time>
      </trkpt>
      <trkpt lat="42.3521760" lon="3.1123650">
        <ele>53.4</ele>
        <time>2020-07-20T08:03:20Z</time>
      </trkpt>
      <trkpt lat="42.3523480" lon="3.1120450">
        <ele>53.8</ele>
        <time>2020-07-20T08:03:25Z</time>
      </trkpt>
      <trkpt lat="42.3524300" lon="3.1118340">
        <ele>54.0</ele>
        <time>2020-07-20T08:03:28Z</time>
      </trkpt>
      <trkpt lat="42.3524550" lon="3.1117600">
        <ele>53.8</ele>
        <time>2020-07-20T08:03:29Z</time>
      </trkpt>
      <trkpt lat="42.3524970" lon="3.1116110">
        <ele>53.8</ele>
        <time>2020-07-20T08:03:31Z</time>
      </trkpt>
      <trkpt lat="42.3525490" lon="3.1113860">
        <ele>54.4</ele>
        <time>2020-07-20T08:03:34Z</time>
      </trkpt>
      <trkpt lat="42.3526000" lon="3.1110790">
        <ele>55.4</ele>
        <time>2020-07-20T08:03:38Z</time>
      </trkpt>
      <trkpt lat="42.3526110" lon="3.1110030">
        <ele>55.6</ele>
        <time>2020-07-20T08:03:39Z</time>
      </trkpt>
      <trkpt lat="42.3526450" lon="3.1105440">
        <ele>56.4</ele>
        <time>2020-07-20T08:03:45Z</time>
      </trkpt>
      <trkpt lat="42.3526450" lon="3.1104680">
        <ele>56.2</ele>
        <time>2020-07-20T08:03:46Z</time>
      </trkpt>
      <trkpt lat="42.3526240" lon="3.1100160">
        <ele>56.4</ele>
        <time>2020-07-20T08:03:52Z</time>
      </trkpt>
      <trkpt lat="42.3526090" lon="3.1098720">
        <ele>57.6</ele>
        <time>2020-07-20T08:03:54Z</time>
      </trkpt>
      <trkpt lat="42.3526000" lon="3.1098010">
        <ele>57.8</ele>
        <time>2020-07-20T08:03:55Z</time>
      </trkpt>
      <trkpt lat="42.3525230" lon="3.1093810">
        <ele>58.2</ele>
        <time>2020-07-20T08:04:01Z</time>
      </trkpt>
      <trkpt lat="42.3524770" lon="3.1091790">
        <ele>58.2</ele>
        <time>2020-07-20T08:04:04Z</time>
      </trkpt>
      <trkpt lat="42.3524340" lon="3.1089760">
        <ele>58.6</ele>
        <time>2020-07-20T08:04:07Z</time>
      </trkpt>
      <trkpt lat="42.3523430" lon="3.1085660">
        <ele>59.4</ele>
        <time>2020-07-20T08:04:13Z</time>
      </trkpt>
      <trkpt lat="42.3523110" lon="3.1084320">
        <ele>59.4</ele>
        <time>2020-07-20T08:04:15Z</time>
      </trkpt>
      <trkpt lat="42.3522800" lon="3.1082980">
        <ele>60.0</ele>
        <time>2020-07-20T08:04:17Z</time>
      </trkpt>
      <trkpt lat="42.3521870" lon="3.1078970">
        <ele>61.0</ele>
        <time>2020-07-20T08:04:23Z</time>
      </trkpt>
      <trkpt lat="42.3521720" lon="3.1078320">
        <ele>61.2</ele>
        <time>2020-07-20T08:04:24Z</time>
      </trkpt>
      <trkpt lat="42.3521570" lon="3.1077680">
        <ele>61.4</ele>
        <time>2020-07-20T08:04:25Z</time>
      </trkpt>
      <trkpt lat="42.3520740" lon="3.1073910">
        <ele>62.2</ele>
        <time>2020-07-20T08:04:31Z</time>
      </trkpt>
      <trkpt lat="42.3520210" lon="3.1071580">
        <ele>63.4</ele>
        <time>2020-07-20T08:04:35Z</time>
      </trkpt>
      <trkpt lat="42.3520080" lon="3.1071010">
        <ele>63.4</ele>
        <time>2020-07-20T08:04:36Z</time>
      </trkpt>
      <trkpt lat="42.3519320" lon="3.1067680">
        <ele>64.2</ele>
        <time>2020-07-20T08:04:42Z</time>
      </trkpt>
      <trkpt lat="42.3519190" lon="3.1067160">
        <ele>64.4</ele>
        <time>2020-07-20T08:04:43Z</time>
      </trkpt>
      <trkpt lat="42.3518940" lon="3.1066100">
        <ele>65.0</ele>
        <time>2020-07-20T08:04:45Z</time>
      </trkpt>
      <trkpt lat="42.3518690" lon="3.1065080">
        <ele>65.6</ele>
        <time>2020-07-20T08:04:47Z</time>
      </trkpt>
      <trkpt lat="42.3518180" lon="3.1063020">
        <ele>66.8</ele>
        <time>2020-07-20T08:04:51Z</time>
      </trkpt>
      <trkpt lat="42.3517790" lon="3.1061470">
        <ele>67.8</ele>
        <time>2020-07-20T08:04:54Z</time>
      </trkpt>
      <trkpt lat="42.3517660" lon="3.1060960">
        <ele>68.0</ele>
        <time>2020-07-20T08:04:55Z</time>
      </trkpt>
      <trkpt lat="42.3516950" lon="3.1058010">
        <ele>69.2</ele>
        <time>2020-07-20T08:05:01Z</time>
      </trkpt>
      <trkpt lat="42.3516830" lon="3.1057520">
        <ele>69.4</ele>
        <time>2020-07-20T08:05:02Z</time>
      </trkpt>
      <trkpt lat="42.3516210" lon="3.1055010">
        <ele>70.6</ele>
        <time>2020-07-20T08:05:07Z</time>
      </trkpt>
      <trkpt lat="42.3515530" lon="3.1052480">
        <ele>71.6</ele>
        <time>2020-07-20T08:05:12Z</time>
      </trkpt>
      <trkpt lat="42.3515270" lon="3.1051480">
        <ele>72.0</ele>
        <time>2020-07-20T08:05:14Z</time>
      </trkpt>
      <trkpt lat="42.3514880" lon="3.1049970">
        <ele>72.8</ele>
        <time>2020-07-20T08:05:17Z</time>
      </trkpt>
      <trkpt lat="42.3514210" lon="3.1047560">
        <ele>73.8</ele>
        <time>2020-07-20T08:05:22Z</time>
      </trkpt>
      <trkpt lat="42.3513810" lon="3.1046120">
        <ele>74.6</ele>
        <time>2020-07-20T08:05:25Z</time>
      </trkpt>
      <trkpt lat="42.3513670" lon="3.1045640">
        <ele>75.0</ele>
        <time>2020-07-20T08:05:26Z</time>
      </trkpt>
      <trkpt lat="42.3512880" lon="3.1042740">
        <ele>76.2</ele>
        <time>2020-07-20T08:05:32Z</time>
      </trkpt>
      <trkpt lat="42.3512490" lon="3.1041310">
        <ele>77.2</ele>
        <time>2020-07-20T08:05:35Z</time>
      </trkpt>
      <trkpt lat="42.3512380" lon="3.1040830">
        <ele>77.4</ele>
        <time>2020-07-20T08:05:36Z</time>
      </trkpt>
      <trkpt lat="42.3511740" lon="3.1038480">
        <ele>78.4</ele>
        <time>2020-07-20T08:05:41Z</time>
      </trkpt>
      <trkpt lat="42.3511070" lon="3.1036110">
        <ele>79.6</ele>
        <time>2020-07-20T08:05:46Z</time>
      </trkpt>
      <trkpt lat="42.3510570" lon="3.1034260">
        <ele>80.8</ele>
        <time>2020-07-20T08:05:50Z</time>
      </trkpt>
      <trkpt lat="42.3509910" lon="3.1032070">
        <ele>81.8</ele>
        <time>2020-07-20T08:05:55Z</time>
      </trkpt>
      <trkpt lat="42.3509290" lon="3.1029790">
        <ele>83.0</ele>
        <time>2020-07-20T08:06:00Z</time>
      </trkpt>
      <trkpt lat="42.3509040" lon="3.1028890">
        <ele>83.4</ele>
        <time>2020-07-20T08:06:02Z</time>
      </trkpt>
      <trkpt lat="42.3508790" lon="3.1028030">
        <ele>84.0</ele>
        <time>2020-07-20T08:06:04Z</time>
      </trkpt>
      <trkpt lat="42.3508050" lon="3.1025490">
        <ele>85.2</ele>
        <time>2020-07-20T08:06:10Z</time>
      </trkpt>
      <trkpt lat="42.3507440" lon="3.1023890">
        <ele>86.2</ele>
        <time>2020-07-20T08:06:14Z</time>
      </trkpt>
      <trkpt lat="42.3507270" lon="3.1023500">
        <ele>86.4</ele>
        <time>2020-07-20T08:06:15Z</time>
      </trkpt>
      <trkpt lat="42.3506450" lon="3.1021620">
        <ele>87.4</ele>
        <time>2020-07-20T08:06:20Z</time>
      </trkpt>
      <trkpt lat="42.3505630" lon="3.1019690">
        <ele>88.6</ele>
        <time>2020-07-20T08:06:25Z</time>
      </trkpt>
      <trkpt lat="42.3504770" lon="3.1017770">
        <ele>89.8</ele>
        <time>2020-07-20T08:06:30Z</time>
      </trkpt>
      <trkpt lat="42.3504110" lon="3.1016280">
        <ele>90.6</ele>
        <time>2020-07-20T08:06:34Z</time>
      </trkpt>
      <trkpt lat="42.3503730" lon="3.1015540">
        <ele>91.0</ele>
        <time>2020-07-20T08:06:36Z</time>
      </trkpt>
      <trkpt lat="42.3502800" lon="3.1013650">
        <ele>92.2</ele>
        <time>2020-07-20T08:06:41Z</time>
      </trkpt>
      <trkpt lat="42.3502600" lon="3.1013290">
        <ele>92.4</ele>
        <time>2020-07-20T08:06:42Z</time>
      </trkpt>
      <trkpt lat="42.3501640" lon="3.1011420">
        <ele>93.4</ele>
        <time>2020-07-20T08:06:47Z</time>
      </trkpt>
      <trkpt lat="42.3500990" lon="3.1010290">
        <ele>94.4</ele>
        <time>2020-07-20T08:06:50Z</time>
      </trkpt>
      <trkpt lat="42.3500320" lon="3.1009190">
        <ele>95.0</ele>
        <time>2020-07-20T08:06:53Z</time>
      </trkpt>
      <trkpt lat="42.3499650" lon="3.1008080">
        <ele>95.6</ele>
        <time>2020-07-20T08:06:56Z</time>
      </trkpt>
      <trkpt lat="42.3498560" lon="3.1006250">
        <ele>96.8</ele>
        <time>2020-07-20T08:07:01Z</time>
      </trkpt>
      <trkpt lat="42.3497530" lon="3.1004330">
        <ele>98.0</ele>
        <time>2020-07-20T08:07:06Z</time>
      </trkpt>
      <trkpt lat="42.3497310" lon="3.1003950">
        <ele>98.2</ele>
        <time>2020-07-20T08:07:07Z</time>
      </trkpt>
      <trkpt lat="42.3496630" lon="3.1002780">
        <ele>99.2</ele>
        <time>2020-07-20T08:07:10Z</time>
      </trkpt>
      <trkpt lat="42.3495960" lon="3.1001630">
        <ele>99.6</ele>
        <time>2020-07-20T08:07:13Z</time>
      </trkpt>
      <trkpt lat="42.3495300" lon="3.1000470">
        <ele>100.2</ele>
        <time>2020-07-20T08:07:16Z</time>
      </trkpt>
      <trkpt lat="42.3494620" lon="3.0999390">
        <ele>101.0</ele>
        <time>2020-07-20T08:07:19Z</time>
      </trkpt>
      <trkpt lat="42.3494130" lon="3.0998650">
        <ele>101.6</ele>
        <time>2020-07-20T08:07:21Z</time>
      </trkpt>
      <trkpt lat="42.3492580" lon="3.0996270">
        <ele>102.8</ele>
        <time>2020-07-20T08:07:27Z</time>
      </trkpt>
      <trkpt lat="42.3491800" lon="3.0995030">
        <ele>103.2</ele>
        <time>2020-07-20T08:07:30Z</time>
      </trkpt>
      <trkpt lat="42.3490570" lon="3.0993230">
        <ele>103.8</ele>
        <time>2020-07-20T08:07:34Z</time>
      </trkpt>
      <trkpt lat="42.3489520" lon="3.0991810">
        <ele>104.2</ele>
        <time>2020-07-20T08:07:37Z</time>
      </trkpt>
      <trkpt lat="42.3488090" lon="3.0989610">
        <ele>104.4</ele>
        <time>2020-07-20T08:07:41Z</time>
      </trkpt>
      <trkpt lat="42.3486450" lon="3.0987240">
        <ele>104.0</ele>
        <time>2020-07-20T08:07:45Z</time>
      </trkpt>
      <trkpt lat="42.3486030" lon="3.0986620">
        <ele>104.2</ele>
        <time>2020-07-20T08:07:46Z</time>
      </trkpt>
      <trkpt lat="42.3485170" lon="3.0985300">
        <ele>103.8</ele>
        <time>2020-07-20T08:07:48Z</time>
      </trkpt>
      <trkpt lat="42.3484270" lon="3.0983890">
        <ele>103.4</ele>
        <time>2020-07-20T08:07:50Z</time>
      </trkpt>
      <trkpt lat="42.3483290" lon="3.0982430">
        <ele>103.0</ele>
        <time>2020-07-20T08:07:52Z</time>
      </trkpt>
      <trkpt lat="42.3482780" lon="3.0981680">
        <ele>102.6</ele>
        <time>2020-07-20T08:07:53Z</time>
      </trkpt>
      <trkpt lat="42.3480060" lon="3.0977650">
        <ele>101.6</ele>
        <time>2020-07-20T08:07:58Z</time>
      </trkpt>
      <trkpt lat="42.3479490" lon="3.0976830">
        <ele>101.4</ele>
        <time>2020-07-20T08:07:59Z</time>
      </trkpt>
      <trkpt lat="42.3477760" lon="3.0974330">
        <ele>100.4</ele>
        <time>2020-07-20T08:08:02Z</time>
      </trkpt>
      <trkpt lat="42.3476590" lon="3.0972620">
        <ele>100.0</ele>
        <time>2020-07-20T08:08:04Z</time>
      </trkpt>
      <trkpt lat="42.3475380" lon="3.0970920">
        <ele>99.8</ele>
        <time>2020-07-20T08:08:06Z</time>
      </trkpt>
      <trkpt lat="42.3474160" lon="3.0969190">
        <ele>99.4</ele>
        <time>2020-07-20T08:08:08Z</time>
      </trkpt>
      <trkpt lat="42.3471670" lon="3.0965670">
        <ele>98.4</ele>
        <time>2020-07-20T08:08:12Z</time>
      </trkpt>
      <trkpt lat="42.3470400" lon="3.0963870">
        <ele>97.8</ele>
        <time>2020-07-20T08:08:14Z</time>
      </trkpt>
      <trkpt lat="42.3469090" lon="3.0962070">
        <ele>97.2</ele>
        <time>2020-07-20T08:08:16Z</time>
      </trkpt>
      <trkpt lat="42.3468450" lon="3.0961140">
        <ele>96.8</ele>
        <time>2020-07-20T08:08:17Z</time>
      </trkpt>
      <trkpt lat="42.3466520" lon="3.0958380">
        <ele>96.0</ele>
        <time>2020-07-20T08:08:20Z</time>
      </trkpt>
      <trkpt lat="42.3463890" lon="3.0954800">
        <ele>94.8</ele>
        <time>2020-07-20T08:08:24Z</time>
      </trkpt>
      <trkpt lat="42.3462510" lon="3.0953150">
        <ele>94.0</ele>
        <time>2020-07-20T08:08:26Z</time>
      </trkpt>
      <trkpt lat="42.3461110" lon="3.0951660">
        <ele>93.4</ele>
        <time>2020-07-20T08:08:28Z</time>
      </trkpt>
      <trkpt lat="42.3458210" lon="3.0948960">
        <ele>93.0</ele>
        <time>2020-07-20T08:08:32Z</time>
      </trkpt>
      <trkpt lat="42.3457480" lon="3.0948290">
        <ele>93.0</ele>
        <time>2020-07-20T08:08:33Z</time>
      </trkpt>
      <trkpt lat="42.3456050" lon="3.0946950">
        <ele>93.0</ele>
        <time>2020-07-20T08:08:35Z</time>
      </trkpt>
      <trkpt lat="42.3452540" lon="3.0943770">
        <ele>93.8</ele>
        <time>2020-07-20T08:08:40Z</time>
      </trkpt>
      <trkpt lat="42.3451120" lon="3.0942620">
        <ele>93.8</ele>
        <time>2020-07-20T08:08:42Z</time>
      </trkpt>
      <trkpt lat="42.3446720" lon="3.0939860">
        <ele>93.4</ele>
        <time>2020-07-20T08:08:48Z</time>
      </trkpt>
      <trkpt lat="42.3445990" lon="3.0939480">
        <ele>93.0</ele>
        <time>2020-07-20T08:08:49Z</time>
      </trkpt>
      <trkpt lat="42.3441690" lon="3.0937450">
        <ele>93.6</ele>
        <time>2020-07-20T08:08:55Z</time>
      </trkpt>
      <trkpt lat="42.3438950" lon="3.0936170">
        <ele>94.0</ele>
        <time>2020-07-20T08:08:59Z</time>
      </trkpt>
      <trkpt lat="42.3435690" lon="3.0934650">
        <ele>94.6</ele>
        <time>2020-07-20T08:09:04Z</time>
      </trkpt>
      <trkpt lat="42.3432530" lon="3.0933180">
        <ele>94.8</ele>
        <time>2020-07-20T08:09:09Z</time>
      </trkpt>
      <trkpt lat="42.3428820" lon="3.0931090">
        <ele>94.8</ele>
        <time>2020-07-20T08:09:15Z</time>
      </trkpt>
      <trkpt lat="42.3427580" lon="3.0930180">
        <ele>94.8</ele>
        <time>2020-07-20T08:09:17Z</time>
      </trkpt>
      <trkpt lat="42.3425100" lon="3.0928010">
        <ele>94.0</ele>
        <time>2020-07-20T08:09:21Z</time>
      </trkpt>
      <trkpt lat="42.3424500" lon="3.0927400">
        <ele>93.6</ele>
        <time>2020-07-20T08:09:22Z</time>
      </trkpt>
      <trkpt lat="42.3423330" lon="3.0926080">
        <ele>92.6</ele>
        <time>2020-07-20T08:09:24Z</time>
      </trkpt>
      <trkpt lat="42.3421060" lon="3.0923100">
        <ele>91.4</ele>
        <time>2020-07-20T08:09:28Z</time>
      </trkpt>
      <trkpt lat="42.3419960" lon="3.0921390">
        <ele>90.4</ele>
        <time>2020-07-20T08:09:30Z</time>
      </trkpt>
      <trkpt lat="42.3419410" lon="3.0920480">
        <ele>89.8</ele>
        <time>2020-07-20T08:09:31Z</time>
      </trkpt>
      <trkpt lat="42.3418380" lon="3.0918480">
        <ele>88.8</ele>
        <time>2020-07-20T08:09:33Z</time>
      </trkpt>
      <trkpt lat="42.3417420" lon="3.0916330">
        <ele>87.4</ele>
        <time>2020-07-20T08:09:35Z</time>
      </trkpt>
      <trkpt lat="42.3416580" lon="3.0914060">
        <ele>86.6</ele>
        <time>2020-07-20T08:09:37Z</time>
      </trkpt>
      <trkpt lat="42.3416200" lon="3.0912880">
        <ele>86.0</ele>
        <time>2020-07-20T08:09:38Z</time>
      </trkpt>
      <trkpt lat="42.3415510" lon="3.0910430">
        <ele>85.0</ele>
        <time>2020-07-20T08:09:40Z</time>
      </trkpt>
      <trkpt lat="42.3414900" lon="3.0908040">
        <ele>83.6</ele>
        <time>2020-07-20T08:09:42Z</time>
      </trkpt>
      <trkpt lat="42.3414610" lon="3.0906860">
        <ele>83.0</ele>
        <time>2020-07-20T08:09:43Z</time>
      </trkpt>
      <trkpt lat="42.3414320" lon="3.0905640">
        <ele>82.6</ele>
        <time>2020-07-20T08:09:44Z</time>
      </trkpt>
      <trkpt lat="42.3413420" lon="3.0901920">
        <ele>81.4</ele>
        <time>2020-07-20T08:09:47Z</time>
      </trkpt>
      <trkpt lat="42.3412500" lon="3.0898290">
        <ele>80.0</ele>
        <time>2020-07-20T08:09:50Z</time>
      </trkpt>
      <trkpt lat="42.3411850" lon="3.0895890">
        <ele>79.4</ele>
        <time>2020-07-20T08:09:52Z</time>
      </trkpt>
      <trkpt lat="42.3411160" lon="3.0893640">
        <ele>78.6</ele>
        <time>2020-07-20T08:09:54Z</time>
      </trkpt>
      <trkpt lat="42.3410000" lon="3.0890450">
        <ele>77.2</ele>
        <time>2020-07-20T08:09:57Z</time>
      </trkpt>
      <trkpt lat="42.3409570" lon="3.0889440">
        <ele>76.4</ele>
        <time>2020-07-20T08:09:58Z</time>
      </trkpt>
      <trkpt lat="42.3409110" lon="3.0888480">
        <ele>76.0</ele>
        <time>2020-07-20T08:09:59Z</time>
      </trkpt>
      <trkpt lat="42.3407120" lon="3.0885030">
        <ele>74.6</ele>
        <time>2020-07-20T08:10:03Z</time>
      </trkpt>
      <trkpt lat="42.3406580" lon="3.0884250">
        <ele>74.0</ele>
        <time>2020-07-20T08:10:04Z</time>
      </trkpt>
      <trkpt lat="42.3406020" lon="3.0883500">
        <ele>73.6</ele>
        <time>2020-07-20T08:10:05Z</time>
      </trkpt>
      <trkpt lat="42.3402950" lon="3.0880140">
        <ele>72.4</ele>
        <time>2020-07-20T08:10:10Z</time>
      </trkpt>
      <trkpt lat="42.3400930" lon="3.0878400">
        <ele>71.4</ele>
        <time>2020-07-20T08:10:13Z</time>
      </trkpt>
      <trkpt lat="42.3398740" lon="3.0877040">
        <ele>70.6</ele>
        <time>2020-07-20T08:10:16Z</time>
      </trkpt>
      <trkpt lat="42.3397980" lon="3.0876670">
        <ele>70.2</ele>
        <time>2020-07-20T08:10:17Z</time>
      </trkpt>
      <trkpt lat="42.3394920" lon="3.0875280">
        <ele>69.0</ele>
        <time>2020-07-20T08:10:21Z</time>
      </trkpt>
      <trkpt lat="42.3393420" lon="3.0874630">
        <ele>68.4</ele>
        <time>2020-07-20T08:10:23Z</time>
      </trkpt>
      <trkpt lat="42.3391680" lon="3.0873920">
        <ele>68.2</ele>
        <time>2020-07-20T08:10:26Z</time>
      </trkpt>
      <trkpt lat="42.3391130" lon="3.0873730">
        <ele>68.2</ele>
        <time>2020-07-20T08:10:27Z</time>
      </trkpt>
      <trkpt lat="42.3390600" lon="3.0873530">
        <ele>68.2</ele>
        <time>2020-07-20T08:10:28Z</time>
      </trkpt>
      <trkpt lat="42.3388610" lon="3.0872660">
        <ele>67.6</ele>
        <time>2020-07-20T08:10:32Z</time>
      </trkpt>
      <trkpt lat="42.3387580" lon="3.0872190">
        <ele>67.0</ele>
        <time>2020-07-20T08:10:34Z</time>
      </trkpt>
      <trkpt lat="42.3386520" lon="3.0871660">
        <ele>66.6</ele>
        <time>2020-07-20T08:10:36Z</time>
      </trkpt>
      <trkpt lat="42.3385450" lon="3.0871100">
        <ele>65.8</ele>
        <time>2020-07-20T08:10:38Z</time>
      </trkpt>
      <trkpt lat="42.3384990" lon="3.0870800">
        <ele>65.2</ele>
        <time>2020-07-20T08:10:39Z</time>
      </trkpt>
      <trkpt lat="42.3384580" lon="3.0870520">
        <ele>65.0</ele>
        <time>2020-07-20T08:10:40Z</time>
      </trkpt>
      <trkpt lat="42.3384210" lon="3.0870260">
        <ele>64.8</ele>
        <time>2020-07-20T08:10:41Z</time>
      </trkpt>
      <trkpt lat="42.3383530" lon="3.0869720">
        <ele>64.8</ele>
        <time>2020-07-20T08:10:43Z</time>
      </trkpt>
      <trkpt lat="42.3382740" lon="3.0869150">
        <ele>64.4</ele>
        <time>2020-07-20T08:10:46Z</time>
      </trkpt>
      <trkpt lat="42.3382530" lon="3.0868970">
        <ele>64.6</ele>
        <time>2020-07-20T08:10:48Z</time>
      </trkpt>
      <trkpt lat="42.3382520" lon="3.0868980">
        <ele>64.6</ele>
        <time>2020-07-20T08:10:49Z</time>
      </trkpt>
      <trkpt lat="42.3382520" lon="3.0868990">
        <ele>64.6</ele>
        <time>2020-07-20T08:10:50Z</time>
      </trkpt>
      <trkpt lat="42.3382530" lon="3.0869020">
        <ele>64.8</ele>
        <time>2020-07-20T08:10:54Z</time>
      </trkpt>
      <trkpt lat="42.3382460" lon="3.0869130">
        <ele>64.4</ele>
        <time>2020-07-20T08:10:59Z</time>
      </trkpt>
      <trkpt lat="42.3382470" lon="3.0869190">
        <ele>64.2</ele>
        <time>2020-07-20T08:11:01Z</time>
      </trkpt>
      <trkpt lat="42.3382480" lon="3.0869230">
        <ele>64.4</ele>
        <time>2020-07-20T08:11:05Z</time>
      </trkpt>
      <trkpt lat="42.3382490" lon="3.0869240">
        <ele>64.4</ele>
        <time>2020-07-20T08:11:06Z</time>
      </trkpt>
      <trkpt lat="42.3382450" lon="3.0869280">
        <ele>64.4</ele>
        <time>2020-07-20T08:11:12Z</time>
      </trkpt>
      <trkpt lat="42.3382290" lon="3.0869160">
        <ele>64.4</ele>
        <time>2020-07-20T08:11:16Z</time>
      </trkpt>
      <trkpt lat="42.3382140" lon="3.0869070">
        <ele>64.6</ele>
        <time>2020-07-20T08:11:17Z</time>
      </trkpt>
      <trkpt lat="42.3381110" lon="3.0868190">
        <ele>64.0</ele>
        <time>2020-07-20T08:11:21Z</time>
      </trkpt>
      <trkpt lat="42.3379800" lon="3.0866910">
        <ele>63.2</ele>
        <time>2020-07-20T08:11:24Z</time>
      </trkpt>
      <trkpt lat="42.3378750" lon="3.0865850">
        <ele>62.2</ele>
        <time>2020-07-20T08:11:26Z</time>
      </trkpt>
      <trkpt lat="42.3377610" lon="3.0864680">
        <ele>61.0</ele>
        <time>2020-07-20T08:11:28Z</time>
      </trkpt>
      <trkpt lat="42.3375780" lon="3.0862750">
        <ele>59.8</ele>
        <time>2020-07-20T08:11:31Z</time>
      </trkpt>
      <trkpt lat="42.3375170" lon="3.0862110">
        <ele>59.0</ele>
        <time>2020-07-20T08:11:32Z</time>
      </trkpt>
      <trkpt lat="42.3374560" lon="3.0861470">
        <ele>58.4</ele>
        <time>2020-07-20T08:11:33Z</time>
      </trkpt>
      <trkpt lat="42.3372740" lon="3.0859570">
        <ele>57.0</ele>
        <time>2020-07-20T08:11:36Z</time>
      </trkpt>
      <trkpt lat="42.3371490" lon="3.0858290">
        <ele>55.8</ele>
        <time>2020-07-20T08:11:38Z</time>
      </trkpt>
      <trkpt lat="42.3370230" lon="3.0857000">
        <ele>54.6</ele>
        <time>2020-07-20T08:11:40Z</time>
      </trkpt>
      <trkpt lat="42.3368940" lon="3.0855660">
        <ele>53.4</ele>
        <time>2020-07-20T08:11:42Z</time>
      </trkpt>
      <trkpt lat="42.3368290" lon="3.0854980">
        <ele>52.6</ele>
        <time>2020-07-20T08:11:43Z</time>
      </trkpt>
      <trkpt lat="42.3367640" lon="3.0854290">
        <ele>51.8</ele>
        <time>2020-07-20T08:11:44Z</time>
      </trkpt>
      <trkpt lat="42.3366300" lon="3.0852890">
        <ele>50.6</ele>
        <time>2020-07-20T08:11:46Z</time>
      </trkpt>
      <trkpt lat="42.3364940" lon="3.0851480">
        <ele>49.0</ele>
        <time>2020-07-20T08:11:48Z</time>
      </trkpt>
      <trkpt lat="42.3363620" lon="3.0850100">
        <ele>47.6</ele>
        <time>2020-07-20T08:11:50Z</time>
      </trkpt>
      <trkpt lat="42.3362290" lon="3.0848710">
        <ele>46.6</ele>
        <time>2020-07-20T08:11:52Z</time>
      </trkpt>
      <trkpt lat="42.3361620" lon="3.0848020">
        <ele>46.0</ele>
        <time>2020-07-20T08:11:53Z</time>
      </trkpt>
      <trkpt lat="42.3360960" lon="3.0847330">
        <ele>45.4</ele>
        <time>2020-07-20T08:11:54Z</time>
      </trkpt>
      <trkpt lat="42.3359660" lon="3.0845950">
        <ele>44.4</ele>
        <time>2020-07-20T08:11:56Z</time>
      </trkpt>
      <trkpt lat="42.3357030" lon="3.0843190">
        <ele>42.8</ele>
        <time>2020-07-20T08:12:00Z</time>
      </trkpt>
      <trkpt lat="42.3355720" lon="3.0841810">
        <ele>41.8</ele>
        <time>2020-07-20T08:12:02Z</time>
      </trkpt>
      <trkpt lat="42.3354370" lon="3.0840360">
        <ele>40.6</ele>
        <time>2020-07-20T08:12:04Z</time>
      </trkpt>
      <trkpt lat="42.3352970" lon="3.0838870">
        <ele>39.6</ele>
        <time>2020-07-20T08:12:06Z</time>
      </trkpt>
      <trkpt lat="42.3351550" lon="3.0837350">
        <ele>38.2</ele>
        <time>2020-07-20T08:12:08Z</time>
      </trkpt>
      <trkpt lat="42.3350110" lon="3.0835830">
        <ele>37.0</ele>
        <time>2020-07-20T08:12:10Z</time>
      </trkpt>
      <trkpt lat="42.3348670" lon="3.0834320">
        <ele>35.8</ele>
        <time>2020-07-20T08:12:12Z</time>
      </trkpt>
      <trkpt lat="42.3346540" lon="3.0832130">
        <ele>34.8</ele>
        <time>2020-07-20T08:12:15Z</time>
      </trkpt>
      <trkpt lat="42.3345140" lon="3.0830670">
        <ele>34.4</ele>
        <time>2020-07-20T08:12:17Z</time>
      </trkpt>
      <trkpt lat="42.3343760" lon="3.0829220">
        <ele>34.2</ele>
        <time>2020-07-20T08:12:19Z</time>
      </trkpt>
      <trkpt lat="42.3341100" lon="3.0826470">
        <ele>33.8</ele>
        <time>2020-07-20T08:12:23Z</time>
      </trkpt>
      <trkpt lat="42.3339870" lon="3.0825220">
        <ele>33.2</ele>
        <time>2020-07-20T08:12:25Z</time>
      </trkpt>
      <trkpt lat="42.3339270" lon="3.0824620">
        <ele>33.0</ele>
        <time>2020-07-20T08:12:26Z</time>
      </trkpt>
      <trkpt lat="42.3335870" lon="3.0821100">
        <ele>33.2</ele>
        <time>2020-07-20T08:12:32Z</time>
      </trkpt>
      <trkpt lat="42.3334240" lon="3.0819380">
        <ele>33.6</ele>
        <time>2020-07-20T08:12:35Z</time>
      </trkpt>
      <trkpt lat="42.3333710" lon="3.0818800">
        <ele>33.6</ele>
        <time>2020-07-20T08:12:36Z</time>
      </trkpt>
      <trkpt lat="42.3331590" lon="3.0816540">
        <ele>33.8</ele>
        <time>2020-07-20T08:12:40Z</time>
      </trkpt>
      <trkpt lat="42.3331070" lon="3.0815990">
        <ele>33.8</ele>
        <time>2020-07-20T08:12:41Z</time>
      </trkpt>
      <trkpt lat="42.3330040" lon="3.0814920">
        <ele>33.6</ele>
        <time>2020-07-20T08:12:43Z</time>
      </trkpt>
      <trkpt lat="42.3329030" lon="3.0813860">
        <ele>33.4</ele>
        <time>2020-07-20T08:12:45Z</time>
      </trkpt>
      <trkpt lat="42.3326000" lon="3.0810600">
        <ele>32.4</ele>
        <time>2020-07-20T08:12:51Z</time>
      </trkpt>
      <trkpt lat="42.3323920" lon="3.0808380">
        <ele>32.0</ele>
        <time>2020-07-20T08:12:55Z</time>
      </trkpt>
      <trkpt lat="42.3321890" lon="3.0806020">
        <ele>31.8</ele>
        <time>2020-07-20T08:12:59Z</time>
      </trkpt>
      <trkpt lat="42.3321190" lon="3.0804580">
        <ele>31.4</ele>
        <time>2020-07-20T08:13:01Z</time>
      </trkpt>
      <trkpt lat="42.3321000" lon="3.0803770">
        <ele>31.2</ele>
        <time>2020-07-20T08:13:02Z</time>
      </trkpt>
      <trkpt lat="42.3320920" lon="3.0802900">
        <ele>31.0</ele>
        <time>2020-07-20T08:13:03Z</time>
      </trkpt>
      <trkpt lat="42.3320960" lon="3.0801980">
        <ele>30.6</ele>
        <time>2020-07-20T08:13:04Z</time>
      </trkpt>
      <trkpt lat="42.3321140" lon="3.0801060">
        <ele>30.2</ele>
        <time>2020-07-20T08:13:05Z</time>
      </trkpt>
      <trkpt lat="42.3321900" lon="3.0799440">
        <ele>29.6</ele>
        <time>2020-07-20T08:13:07Z</time>
      </trkpt>
      <trkpt lat="42.3322440" lon="3.0798780">
        <ele>29.2</ele>
        <time>2020-07-20T08:13:08Z</time>
      </trkpt>
      <trkpt lat="42.3323080" lon="3.0798280">
        <ele>28.8</ele>
        <time>2020-07-20T08:13:09Z</time>
      </trkpt>
      <trkpt lat="42.3323790" lon="3.0797940">
        <ele>28.8</ele>
        <time>2020-07-20T08:13:10Z</time>
      </trkpt>
      <trkpt lat="42.3324510" lon="3.0797770">
        <ele>28.4</ele>
        <time>2020-07-20T08:13:11Z</time>
      </trkpt>
      <trkpt lat="42.3325910" lon="3.0798020">
        <ele>28.0</ele>
        <time>2020-07-20T08:13:13Z</time>
      </trkpt>
      <trkpt lat="42.3327090" lon="3.0798880">
        <ele>27.8</ele>
        <time>2020-07-20T08:13:15Z</time>
      </trkpt>
      <trkpt lat="42.3327580" lon="3.0799470">
        <ele>27.6</ele>
        <time>2020-07-20T08:13:16Z</time>
      </trkpt>
      <trkpt lat="42.3328050" lon="3.0800010">
        <ele>27.6</ele>
        <time>2020-07-20T08:13:17Z</time>
      </trkpt>
      <trkpt lat="42.3329250" lon="3.0801210">
        <ele>27.6</ele>
        <time>2020-07-20T08:13:20Z</time>
      </trkpt>
      <trkpt lat="42.3329540" lon="3.0801400">
        <ele>28.0</ele>
        <time>2020-07-20T08:13:21Z</time>
      </trkpt>
      <trkpt lat="42.3330720" lon="3.0801280">
        <ele>28.4</ele>
        <time>2020-07-20T08:13:25Z</time>
      </trkpt>
      <trkpt lat="42.3331060" lon="3.0800890">
        <ele>28.6</ele>
        <time>2020-07-20T08:13:26Z</time>
      </trkpt>
      <trkpt lat="42.3331720" lon="3.0799680">
        <ele>28.4</ele>
        <time>2020-07-20T08:13:28Z</time>
      </trkpt>
      <trkpt lat="42.3333120" lon="3.0796650">
        <ele>28.0</ele>
        <time>2020-07-20T08:13:32Z</time>
      </trkpt>
      <trkpt lat="42.3334190" lon="3.0794180">
        <ele>28.0</ele>
        <time>2020-07-20T08:13:35Z</time>
      </trkpt>
      <trkpt lat="42.3336400" lon="3.0789140">
        <ele>27.6</ele>
        <time>2020-07-20T08:13:41Z</time>
      </trkpt>
      <trkpt lat="42.3337510" lon="3.0786630">
        <ele>27.8</ele>
        <time>2020-07-20T08:13:44Z</time>
      </trkpt>
      <trkpt lat="42.3339740" lon="3.0781610">
        <ele>27.8</ele>
        <time>2020-07-20T08:13:50Z</time>
      </trkpt>
      <trkpt lat="42.3340110" lon="3.0780780">
        <ele>27.8</ele>
        <time>2020-07-20T08:13:51Z</time>
      </trkpt>
      <trkpt lat="42.3340860" lon="3.0779070">
        <ele>27.8</ele>
        <time>2020-07-20T08:13:53Z</time>
      </trkpt>
      <trkpt lat="42.3343100" lon="3.0774070">
        <ele>28.0</ele>
        <time>2020-07-20T08:13:59Z</time>
      </trkpt>
      <trkpt lat="42.3344230" lon="3.0771600">
        <ele>28.0</ele>
        <time>2020-07-20T08:14:02Z</time>
      </trkpt>
      <trkpt lat="42.3345320" lon="3.0769200">
        <ele>28.0</ele>
        <time>2020-07-20T08:14:05Z</time>
      </trkpt>
      <trkpt lat="42.3347440" lon="3.0764450">
        <ele>28.4</ele>
        <time>2020-07-20T08:14:11Z</time>
      </trkpt>
      <trkpt lat="42.3349450" lon="3.0759860">
        <ele>28.6</ele>
        <time>2020-07-20T08:14:17Z</time>
      </trkpt>
      <trkpt lat="42.3350370" lon="3.0757800">
        <ele>28.8</ele>
        <time>2020-07-20T08:14:20Z</time>
      </trkpt>
      <trkpt lat="42.3352070" lon="3.0753920">
        <ele>28.8</ele>
        <time>2020-07-20T08:14:26Z</time>
      </trkpt>
      <trkpt lat="42.3352370" lon="3.0753230">
        <ele>28.8</ele>
        <time>2020-07-20T08:14:27Z</time>
      </trkpt>
      <trkpt lat="42.3354320" lon="3.0748790">
        <ele>29.0</ele>
        <time>2020-07-20T08:14:33Z</time>
      </trkpt>
      <trkpt lat="42.3355010" lon="3.0747250">
        <ele>29.0</ele>
        <time>2020-07-20T08:14:35Z</time>
      </trkpt>
      <trkpt lat="42.3355360" lon="3.0746470">
        <ele>29.0</ele>
        <time>2020-07-20T08:14:36Z</time>
      </trkpt>
      <trkpt lat="42.3355710" lon="3.0745700">
        <ele>29.2</ele>
        <time>2020-07-20T08:14:37Z</time>
      </trkpt>
      <trkpt lat="42.3356410" lon="3.0744130">
        <ele>29.4</ele>
        <time>2020-07-20T08:14:39Z</time>
      </trkpt>
      <trkpt lat="42.3357120" lon="3.0742540">
        <ele>30.0</ele>
        <time>2020-07-20T08:14:41Z</time>
      </trkpt>
      <trkpt lat="42.3357830" lon="3.0740930">
        <ele>30.6</ele>
        <time>2020-07-20T08:14:43Z</time>
      </trkpt>
      <trkpt lat="42.3358200" lon="3.0740120">
        <ele>30.6</ele>
        <time>2020-07-20T08:14:44Z</time>
      </trkpt>
      <trkpt lat="42.3358560" lon="3.0739310">
        <ele>30.6</ele>
        <time>2020-07-20T08:14:45Z</time>
      </trkpt>
      <trkpt lat="42.3359650" lon="3.0736910">
        <ele>30.4</ele>
        <time>2020-07-20T08:14:48Z</time>
      </trkpt>
      <trkpt lat="42.3361400" lon="3.0732980">
        <ele>29.8</ele>
        <time>2020-07-20T08:14:53Z</time>
      </trkpt>
      <trkpt lat="42.3363550" lon="3.0728160">
        <ele>29.8</ele>
        <time>2020-07-20T08:14:59Z</time>
      </trkpt>
      <trkpt lat="42.3365700" lon="3.0723260">
        <ele>30.6</ele>
        <time>2020-07-20T08:15:05Z</time>
      </trkpt>
      <trkpt lat="42.3367480" lon="3.0719210">
        <ele>30.2</ele>
        <time>2020-07-20T08:15:10Z</time>
      </trkpt>
      <trkpt lat="42.3369620" lon="3.0714410">
        <ele>30.4</ele>
        <time>2020-07-20T08:15:16Z</time>
      </trkpt>
      <trkpt lat="42.3370340" lon="3.0712830">
        <ele>30.6</ele>
        <time>2020-07-20T08:15:18Z</time>
      </trkpt>
      <trkpt lat="42.3372130" lon="3.0708830">
        <ele>31.2</ele>
        <time>2020-07-20T08:15:23Z</time>
      </trkpt>
      <trkpt lat="42.3374260" lon="3.0704040">
        <ele>31.4</ele>
        <time>2020-07-20T08:15:29Z</time>
      </trkpt>
      <trkpt lat="42.3376010" lon="3.0700050">
        <ele>31.4</ele>
        <time>2020-07-20T08:15:34Z</time>
      </trkpt>
      <trkpt lat="42.3378100" lon="3.0695350">
        <ele>31.6</ele>
        <time>2020-07-20T08:15:40Z</time>
      </trkpt>
      <trkpt lat="42.3380170" lon="3.0690610">
        <ele>32.2</ele>
        <time>2020-07-20T08:15:46Z</time>
      </trkpt>
      <trkpt lat="42.3382290" lon="3.0685840">
        <ele>32.8</ele>
        <time>2020-07-20T08:15:52Z</time>
      </trkpt>
      <trkpt lat="42.3384370" lon="3.0681050">
        <ele>32.8</ele>
        <time>2020-07-20T08:15:58Z</time>
      </trkpt>
      <trkpt lat="42.3385420" lon="3.0678660">
        <ele>32.8</ele>
        <time>2020-07-20T08:16:01Z</time>
      </trkpt>
      <trkpt lat="42.3387500" lon="3.0673900">
        <ele>33.0</ele>
        <time>2020-07-20T08:16:07Z</time>
      </trkpt>
      <trkpt lat="42.3388850" lon="3.0670790">
        <ele>33.4</ele>
        <time>2020-07-20T08:16:11Z</time>
      </trkpt>
      <trkpt lat="42.3389900" lon="3.0668470">
        <ele>33.4</ele>
        <time>2020-07-20T08:16:14Z</time>
      </trkpt>
      <trkpt lat="42.3390260" lon="3.0667690">
        <ele>33.2</ele>
        <time>2020-07-20T08:16:15Z</time>
      </trkpt>
      <trkpt lat="42.3392010" lon="3.0663780">
        <ele>33.0</ele>
        <time>2020-07-20T08:16:20Z</time>
      </trkpt>
      <trkpt lat="42.3393670" lon="3.0660040">
        <ele>33.2</ele>
        <time>2020-07-20T08:16:25Z</time>
      </trkpt>
      <trkpt lat="42.3395500" lon="3.0655680">
        <ele>34.0</ele>
        <time>2020-07-20T08:16:31Z</time>
      </trkpt>
      <trkpt lat="42.3396140" lon="3.0654300">
        <ele>34.0</ele>
        <time>2020-07-20T08:16:33Z</time>
      </trkpt>
      <trkpt lat="42.3396810" lon="3.0652960">
        <ele>34.4</ele>
        <time>2020-07-20T08:16:35Z</time>
      </trkpt>
      <trkpt lat="42.3397070" lon="3.0652240">
        <ele>34.6</ele>
        <time>2020-07-20T08:16:36Z</time>
      </trkpt>
      <trkpt lat="42.3397920" lon="3.0649960">
        <ele>34.8</ele>
        <time>2020-07-20T08:16:39Z</time>
      </trkpt>
      <trkpt lat="42.3399810" lon="3.0646420">
        <ele>34.6</ele>
        <time>2020-07-20T08:16:44Z</time>
      </trkpt>
      <trkpt lat="42.3400620" lon="3.0644990">
        <ele>34.6</ele>
        <time>2020-07-20T08:16:46Z</time>
      </trkpt>
      <trkpt lat="42.3403200" lon="3.0640720">
        <ele>34.4</ele>
        <time>2020-07-20T08:16:52Z</time>
      </trkpt>
      <trkpt lat="42.3404610" lon="3.0638630">
        <ele>34.4</ele>
        <time>2020-07-20T08:16:55Z</time>
      </trkpt>
      <trkpt lat="42.3406030" lon="3.0636460">
        <ele>34.6</ele>
        <time>2020-07-20T08:16:58Z</time>
      </trkpt>
      <trkpt lat="42.3406990" lon="3.0635010">
        <ele>34.4</ele>
        <time>2020-07-20T08:17:00Z</time>
      </trkpt>
      <trkpt lat="42.3409930" lon="3.0630570">
        <ele>34.0</ele>
        <time>2020-07-20T08:17:06Z</time>
      </trkpt>
      <trkpt lat="42.3412420" lon="3.0626810">
        <ele>33.4</ele>
        <time>2020-07-20T08:17:11Z</time>
      </trkpt>
      <trkpt lat="42.3412920" lon="3.0626060">
        <ele>33.4</ele>
        <time>2020-07-20T08:17:12Z</time>
      </trkpt>
      <trkpt lat="42.3413910" lon="3.0624560">
        <ele>33.2</ele>
        <time>2020-07-20T08:17:14Z</time>
      </trkpt>
      <trkpt lat="42.3414410" lon="3.0623800">
        <ele>33.2</ele>
        <time>2020-07-20T08:17:15Z</time>
      </trkpt>
      <trkpt lat="42.3414920" lon="3.0623060">
        <ele>33.2</ele>
        <time>2020-07-20T08:17:16Z</time>
      </trkpt>
      <trkpt lat="42.3417890" lon="3.0618600">
        <ele>33.2</ele>
        <time>2020-07-20T08:17:22Z</time>
      </trkpt>
      <trkpt lat="42.3420750" lon="3.0614290">
        <ele>33.4</ele>
        <time>2020-07-20T08:17:28Z</time>
      </trkpt>
      <trkpt lat="42.3422620" lon="3.0611480">
        <ele>33.6</ele>
        <time>2020-07-20T08:17:32Z</time>
      </trkpt>
      <trkpt lat="42.3424010" lon="3.0609380">
        <ele>33.4</ele>
        <time>2020-07-20T08:17:35Z</time>
      </trkpt>
      <trkpt lat="42.3424920" lon="3.0607990">
        <ele>33.6</ele>
        <time>2020-07-20T08:17:37Z</time>
      </trkpt>
      <trkpt lat="42.3426300" lon="3.0605940">
        <ele>34.0</ele>
        <time>2020-07-20T08:17:40Z</time>
      </trkpt>
      <trkpt lat="42.3426760" lon="3.0605270">
        <ele>34.0</ele>
        <time>2020-07-20T08:17:41Z</time>
      </trkpt>
      <trkpt lat="42.3428110" lon="3.0603270">
        <ele>34.2</ele>
        <time>2020-07-20T08:17:44Z</time>
      </trkpt>
      <trkpt lat="42.3430740" lon="3.0599270">
        <ele>34.4</ele>
        <time>2020-07-20T08:17:50Z</time>
      </trkpt>
      <trkpt lat="42.3432040" lon="3.0597250">
        <ele>34.8</ele>
        <time>2020-07-20T08:17:53Z</time>
      </trkpt>
      <trkpt lat="42.3433700" lon="3.0593670">
        <ele>34.6</ele>
        <time>2020-07-20T08:17:58Z</time>
      </trkpt>
      <trkpt lat="42.3434620" lon="3.0590760">
        <ele>34.6</ele>
        <time>2020-07-20T08:18:02Z</time>
      </trkpt>
      <trkpt lat="42.3434960" lon="3.0590280">
        <ele>34.8</ele>
        <time>2020-07-20T08:18:03Z</time>
      </trkpt>
      <trkpt lat="42.3435360" lon="3.0589990">
        <ele>35.0</ele>
        <time>2020-07-20T08:18:04Z</time>
      </trkpt>
      <trkpt lat="42.3436280" lon="3.0590040">
        <ele>35.4</ele>
        <time>2020-07-20T08:18:06Z</time>
      </trkpt>
      <trkpt lat="42.3436770" lon="3.0590140">
        <ele>35.4</ele>
        <time>2020-07-20T08:18:07Z</time>
      </trkpt>
      <trkpt lat="42.3437280" lon="3.0590130">
        <ele>35.6</ele>
        <time>2020-07-20T08:18:08Z</time>
      </trkpt>
      <trkpt lat="42.3438190" lon="3.0589670">
        <ele>36.0</ele>
        <time>2020-07-20T08:18:10Z</time>
      </trkpt>
      <trkpt lat="42.3439300" lon="3.0588140">
        <ele>36.0</ele>
        <time>2020-07-20T08:18:13Z</time>
      </trkpt>
      <trkpt lat="42.3439690" lon="3.0587570">
        <ele>36.0</ele>
        <time>2020-07-20T08:18:14Z</time>
      </trkpt>
      <trkpt lat="42.3440450" lon="3.0586470">
        <ele>36.0</ele>
        <time>2020-07-20T08:18:16Z</time>
      </trkpt>
      <trkpt lat="42.3442100" lon="3.0583260">
        <ele>36.2</ele>
        <time>2020-07-20T08:18:21Z</time>
      </trkpt>
      <trkpt lat="42.3443670" lon="3.0578850">
        <ele>36.6</ele>
        <time>2020-07-20T08:18:27Z</time>
      </trkpt>
      <trkpt lat="42.3443930" lon="3.0578100">
        <ele>36.6</ele>
        <time>2020-07-20T08:18:28Z</time>
      </trkpt>
      <trkpt lat="42.3444940" lon="3.0575140">
        <ele>36.8</ele>
        <time>2020-07-20T08:18:32Z</time>
      </trkpt>
      <trkpt lat="42.3446150" lon="3.0571490">
        <ele>36.8</ele>
        <time>2020-07-20T08:18:37Z</time>
      </trkpt>
      <trkpt lat="42.3446640" lon="3.0570050">
        <ele>36.8</ele>
        <time>2020-07-20T08:18:39Z</time>
      </trkpt>
      <trkpt lat="42.3446890" lon="3.0569340">
        <ele>36.8</ele>
        <time>2020-07-20T08:18:40Z</time>
      </trkpt>
      <trkpt lat="42.3447150" lon="3.0568610">
        <ele>37.0</ele>
        <time>2020-07-20T08:18:41Z</time>
      </trkpt>
      <trkpt lat="42.3447640" lon="3.0567130">
        <ele>37.0</ele>
        <time>2020-07-20T08:18:43Z</time>
      </trkpt>
      <trkpt lat="42.3448110" lon="3.0565630">
        <ele>36.8</ele>
        <time>2020-07-20T08:18:45Z</time>
      </trkpt>
      <trkpt lat="42.3448890" lon="3.0563460">
        <ele>36.6</ele>
        <time>2020-07-20T08:18:48Z</time>
      </trkpt>
      <trkpt lat="42.3450350" lon="3.0559250">
        <ele>36.8</ele>
        <time>2020-07-20T08:18:54Z</time>
      </trkpt>
      <trkpt lat="42.3451160" lon="3.0557220">
        <ele>37.0</ele>
        <time>2020-07-20T08:18:57Z</time>
      </trkpt>
      <trkpt lat="42.3452640" lon="3.0553050">
        <ele>37.4</ele>
        <time>2020-07-20T08:19:03Z</time>
      </trkpt>
      <trkpt lat="42.3452870" lon="3.0552350">
        <ele>37.6</ele>
        <time>2020-07-20T08:19:04Z</time>
      </trkpt>
      <trkpt lat="42.3453330" lon="3.0550910">
        <ele>38.0</ele>
        <time>2020-07-20T08:19:06Z</time>
      </trkpt>
      <trkpt lat="42.3454600" lon="3.0547380">
        <ele>38.6</ele>
        <time>2020-07-20T08:19:11Z</time>
      </trkpt>
      <trkpt lat="42.3454830" lon="3.0546660">
        <ele>38.6</ele>
        <time>2020-07-20T08:19:12Z</time>
      </trkpt>
      <trkpt lat="42.3455500" lon="3.0544460">
        <ele>38.8</ele>
        <time>2020-07-20T08:19:15Z</time>
      </trkpt>
      <trkpt lat="42.3456640" lon="3.0540080">
        <ele>39.4</ele>
        <time>2020-07-20T08:19:21Z</time>
      </trkpt>
      <trkpt lat="42.3457330" lon="3.0537940">
        <ele>39.6</ele>
        <time>2020-07-20T08:19:24Z</time>
      </trkpt>
      <trkpt lat="42.3457570" lon="3.0537220">
        <ele>39.6</ele>
        <time>2020-07-20T08:19:25Z</time>
      </trkpt>
      <trkpt lat="42.3459030" lon="3.0532980">
        <ele>39.6</ele>
        <time>2020-07-20T08:19:31Z</time>
      </trkpt>
      <trkpt lat="42.3459270" lon="3.0532290">
        <ele>39.8</ele>
        <time>2020-07-20T08:19:32Z</time>
      </trkpt>
      <trkpt lat="42.3459720" lon="3.0530890">
        <ele>39.8</ele>
        <time>2020-07-20T08:19:34Z</time>
      </trkpt>
      <trkpt lat="42.3460910" lon="3.0527350">
        <ele>40.4</ele>
        <time>2020-07-20T08:19:39Z</time>
      </trkpt>
      <trkpt lat="42.3462080" lon="3.0523830">
        <ele>40.6</ele>
        <time>2020-07-20T08:19:44Z</time>
      </trkpt>
      <trkpt lat="42.3462820" lon="3.0521610">
        <ele>40.8</ele>
        <time>2020-07-20T08:19:47Z</time>
      </trkpt>
      <trkpt lat="42.3464450" lon="3.0516890">
        <ele>40.8</ele>
        <time>2020-07-20T08:19:53Z</time>
      </trkpt>
      <trkpt lat="42.3465300" lon="3.0514390">
        <ele>40.6</ele>
        <time>2020-07-20T08:19:56Z</time>
      </trkpt>
      <trkpt lat="42.3466780" lon="3.0510070">
        <ele>40.2</ele>
        <time>2020-07-20T08:20:01Z</time>
      </trkpt>
      <trkpt lat="42.3467370" lon="3.0508310">
        <ele>40.0</ele>
        <time>2020-07-20T08:20:03Z</time>
      </trkpt>
      <trkpt lat="42.3467960" lon="3.0506560">
        <ele>39.8</ele>
        <time>2020-07-20T08:20:05Z</time>
      </trkpt>
      <trkpt lat="42.3468270" lon="3.0505690">
        <ele>39.8</ele>
        <time>2020-07-20T08:20:06Z</time>
      </trkpt>
      <trkpt lat="42.3468870" lon="3.0503920">
        <ele>39.8</ele>
        <time>2020-07-20T08:20:08Z</time>
      </trkpt>
      <trkpt lat="42.3470660" lon="3.0498640">
        <ele>39.8</ele>
        <time>2020-07-20T08:20:14Z</time>
      </trkpt>
      <trkpt lat="42.3471260" lon="3.0496870">
        <ele>39.8</ele>
        <time>2020-07-20T08:20:16Z</time>
      </trkpt>
      <trkpt lat="42.3471870" lon="3.0495120">
        <ele>39.4</ele>
        <time>2020-07-20T08:20:18Z</time>
      </trkpt>
      <trkpt lat="42.3472170" lon="3.0494250">
        <ele>39.4</ele>
        <time>2020-07-20T08:20:19Z</time>
      </trkpt>
      <trkpt lat="42.3473930" lon="3.0489040">
        <ele>39.4</ele>
        <time>2020-07-20T08:20:25Z</time>
      </trkpt>
      <trkpt lat="42.3474810" lon="3.0486430">
        <ele>39.4</ele>
        <time>2020-07-20T08:20:28Z</time>
      </trkpt>
      <trkpt lat="42.3475400" lon="3.0484700">
        <ele>39.4</ele>
        <time>2020-07-20T08:20:30Z</time>
      </trkpt>
      <trkpt lat="42.3477140" lon="3.0479520">
        <ele>38.8</ele>
        <time>2020-07-20T08:20:36Z</time>
      </trkpt>
      <trkpt lat="42.3478860" lon="3.0474380">
        <ele>38.6</ele>
        <time>2020-07-20T08:20:42Z</time>
      </trkpt>
      <trkpt lat="42.3479140" lon="3.0473550">
        <ele>38.6</ele>
        <time>2020-07-20T08:20:43Z</time>
      </trkpt>
      <trkpt lat="42.3481090" lon="3.0469500">
        <ele>37.8</ele>
        <time>2020-07-20T08:20:48Z</time>
      </trkpt>
      <trkpt lat="42.3483790" lon="3.0464940">
        <ele>38.0</ele>
        <time>2020-07-20T08:20:54Z</time>
      </trkpt>
      <trkpt lat="42.3484680" lon="3.0463480">
        <ele>38.0</ele>
        <time>2020-07-20T08:20:56Z</time>
      </trkpt>
      <trkpt lat="42.3485130" lon="3.0462750">
        <ele>38.0</ele>
        <time>2020-07-20T08:20:57Z</time>
      </trkpt>
      <trkpt lat="42.3487810" lon="3.0458410">
        <ele>38.0</ele>
        <time>2020-07-20T08:21:03Z</time>
      </trkpt>
      <trkpt lat="42.3489130" lon="3.0456230">
        <ele>37.8</ele>
        <time>2020-07-20T08:21:06Z</time>
      </trkpt>
      <trkpt lat="42.3490450" lon="3.0454070">
        <ele>37.4</ele>
        <time>2020-07-20T08:21:09Z</time>
      </trkpt>
      <trkpt lat="42.3491740" lon="3.0451900">
        <ele>37.4</ele>
        <time>2020-07-20T08:21:12Z</time>
      </trkpt>
      <trkpt lat="42.3494320" lon="3.0447620">
        <ele>38.2</ele>
        <time>2020-07-20T08:21:18Z</time>
      </trkpt>
      <trkpt lat="42.3495570" lon="3.0445460">
        <ele>38.2</ele>
        <time>2020-07-20T08:21:21Z</time>
      </trkpt>
      <trkpt lat="42.3496440" lon="3.0444030">
        <ele>38.4</ele>
        <time>2020-07-20T08:21:23Z</time>
      </trkpt>
      <trkpt lat="42.3497740" lon="3.0441850">
        <ele>38.2</ele>
        <time>2020-07-20T08:21:26Z</time>
      </trkpt>
      <trkpt lat="42.3499420" lon="3.0439030">
        <ele>38.4</ele>
        <time>2020-07-20T08:21:30Z</time>
      </trkpt>
      <trkpt lat="42.3501040" lon="3.0436360">
        <ele>38.8</ele>
        <time>2020-07-20T08:21:34Z</time>
      </trkpt>
      <trkpt lat="42.3503320" lon="3.0432510">
        <ele>39.4</ele>
        <time>2020-07-20T08:21:40Z</time>
      </trkpt>
      <trkpt lat="42.3504450" lon="3.0430640">
        <ele>39.8</ele>
        <time>2020-07-20T08:21:43Z</time>
      </trkpt>
      <trkpt lat="42.3506650" lon="3.0426940">
        <ele>40.8</ele>
        <time>2020-07-20T08:21:49Z</time>
      </trkpt>
      <trkpt lat="42.3507020" lon="3.0426330">
        <ele>41.0</ele>
        <time>2020-07-20T08:21:50Z</time>
      </trkpt>
      <trkpt lat="42.3507740" lon="3.0425110">
        <ele>41.2</ele>
        <time>2020-07-20T08:21:52Z</time>
      </trkpt>
      <trkpt lat="42.3509900" lon="3.0421490">
        <ele>41.8</ele>
        <time>2020-07-20T08:21:58Z</time>
      </trkpt>
      <trkpt lat="42.3510260" lon="3.0420880">
        <ele>42.0</ele>
        <time>2020-07-20T08:21:59Z</time>
      </trkpt>
      <trkpt lat="42.3512400" lon="3.0417290">
        <ele>43.0</ele>
        <time>2020-07-20T08:22:05Z</time>
      </trkpt>
      <trkpt lat="42.3512750" lon="3.0416700">
        <ele>43.2</ele>
        <time>2020-07-20T08:22:06Z</time>
      </trkpt>
      <trkpt lat="42.3513090" lon="3.0416110">
        <ele>43.2</ele>
        <time>2020-07-20T08:22:07Z</time>
      </trkpt>
      <trkpt lat="42.3515320" lon="3.0412360">
        <ele>43.8</ele>
        <time>2020-07-20T08:22:13Z</time>
      </trkpt>
      <trkpt lat="42.3516960" lon="3.0409610">
        <ele>43.2</ele>
        <time>2020-07-20T08:22:17Z</time>
      </trkpt>
      <trkpt lat="42.3519520" lon="3.0405300">
        <ele>42.8</ele>
        <time>2020-07-20T08:22:23Z</time>
      </trkpt>
      <trkpt lat="42.3520860" lon="3.0403040">
        <ele>42.8</ele>
        <time>2020-07-20T08:22:26Z</time>
      </trkpt>
      <trkpt lat="42.3521760" lon="3.0401510">
        <ele>42.6</ele>
        <time>2020-07-20T08:22:28Z</time>
      </trkpt>
      <trkpt lat="42.3523120" lon="3.0399220">
        <ele>42.4</ele>
        <time>2020-07-20T08:22:31Z</time>
      </trkpt>
      <trkpt lat="42.3525730" lon="3.0394800">
        <ele>42.4</ele>
        <time>2020-07-20T08:22:37Z</time>
      </trkpt>
      <trkpt lat="42.3526140" lon="3.0394080">
        <ele>42.6</ele>
        <time>2020-07-20T08:22:38Z</time>
      </trkpt>
      <trkpt lat="42.3527390" lon="3.0392000">
        <ele>42.4</ele>
        <time>2020-07-20T08:22:41Z</time>
      </trkpt>
      <trkpt lat="42.3529770" lon="3.0387970">
        <ele>42.6</ele>
        <time>2020-07-20T08:22:47Z</time>
      </trkpt>
      <trkpt lat="42.3530530" lon="3.0386680">
        <ele>42.6</ele>
        <time>2020-07-20T08:22:49Z</time>
      </trkpt>
      <trkpt lat="42.3532790" lon="3.0382920">
        <ele>43.0</ele>
        <time>2020-07-20T08:22:55Z</time>
      </trkpt>
      <trkpt lat="42.3534870" lon="3.0380050">
        <ele>43.4</ele>
        <time>2020-07-20T08:23:00Z</time>
      </trkpt>
      <trkpt lat="42.3537820" lon="3.0377510">
        <ele>44.2</ele>
        <time>2020-07-20T08:23:06Z</time>
      </trkpt>
      <trkpt lat="42.3538310" lon="3.0377140">
        <ele>44.4</ele>
        <time>2020-07-20T08:23:07Z</time>
      </trkpt>
      <trkpt lat="42.3540720" lon="3.0375340">
        <ele>45.4</ele>
        <time>2020-07-20T08:23:12Z</time>
      </trkpt>
      <trkpt lat="42.3543040" lon="3.0373580">
        <ele>46.4</ele>
        <time>2020-07-20T08:23:17Z</time>
      </trkpt>
      <trkpt lat="42.3544870" lon="3.0372250">
        <ele>47.2</ele>
        <time>2020-07-20T08:23:21Z</time>
      </trkpt>
      <trkpt lat="42.3545330" lon="3.0371940">
        <ele>47.6</ele>
        <time>2020-07-20T08:23:22Z</time>
      </trkpt>
      <trkpt lat="42.3547520" lon="3.0370360">
        <ele>48.8</ele>
        <time>2020-07-20T08:23:27Z</time>
      </trkpt>
      <trkpt lat="42.3549290" lon="3.0369100">
        <ele>49.0</ele>
        <time>2020-07-20T08:23:31Z</time>
      </trkpt>
      <trkpt lat="42.3549720" lon="3.0368780">
        <ele>49.2</ele>
        <time>2020-07-20T08:23:32Z</time>
      </trkpt>
      <trkpt lat="42.3550160" lon="3.0368450">
        <ele>49.4</ele>
        <time>2020-07-20T08:23:33Z</time>
      </trkpt>
      <trkpt lat="42.3550590" lon="3.0368110">
        <ele>49.4</ele>
        <time>2020-07-20T08:23:34Z</time>
      </trkpt>
      <trkpt lat="42.3551910" lon="3.0367110">
        <ele>49.8</ele>
        <time>2020-07-20T08:23:37Z</time>
      </trkpt>
      <trkpt lat="42.3552340" lon="3.0366790">
        <ele>49.8</ele>
        <time>2020-07-20T08:23:38Z</time>
      </trkpt>
      <trkpt lat="42.3554430" lon="3.0365210">
        <ele>50.6</ele>
        <time>2020-07-20T08:23:43Z</time>
      </trkpt>
      <trkpt lat="42.3555230" lon="3.0364620">
        <ele>51.0</ele>
        <time>2020-07-20T08:23:45Z</time>
      </trkpt>
      <trkpt lat="42.3556720" lon="3.0363490">
        <ele>52.2</ele>
        <time>2020-07-20T08:23:49Z</time>
      </trkpt>
      <trkpt lat="42.3558540" lon="3.0362120">
        <ele>53.0</ele>
        <time>2020-07-20T08:23:54Z</time>
      </trkpt>
      <trkpt lat="42.3559260" lon="3.0361610">
        <ele>53.4</ele>
        <time>2020-07-20T08:23:56Z</time>
      </trkpt>
      <trkpt lat="42.3560690" lon="3.0360550">
        <ele>54.6</ele>
        <time>2020-07-20T08:24:00Z</time>
      </trkpt>
      <trkpt lat="42.3561690" lon="3.0359730">
        <ele>55.0</ele>
        <time>2020-07-20T08:24:03Z</time>
      </trkpt>
      <trkpt lat="42.3562700" lon="3.0358980">
        <ele>55.6</ele>
        <time>2020-07-20T08:24:06Z</time>
      </trkpt>
      <trkpt lat="42.3563350" lon="3.0358450">
        <ele>56.0</ele>
        <time>2020-07-20T08:24:08Z</time>
      </trkpt>
      <trkpt lat="42.3564390" lon="3.0357610">
        <ele>56.6</ele>
        <time>2020-07-20T08:24:11Z</time>
      </trkpt>
      <trkpt lat="42.3566550" lon="3.0356060">
        <ele>57.8</ele>
        <time>2020-07-20T08:24:17Z</time>
      </trkpt>
      <trkpt lat="42.3567260" lon="3.0355510">
        <ele>58.2</ele>
        <time>2020-07-20T08:24:19Z</time>
      </trkpt>
      <trkpt lat="42.3567960" lon="3.0354980">
        <ele>58.6</ele>
        <time>2020-07-20T08:24:21Z</time>
      </trkpt>
      <trkpt lat="42.3568310" lon="3.0354710">
        <ele>58.8</ele>
        <time>2020-07-20T08:24:22Z</time>
      </trkpt>
      <trkpt lat="42.3570380" lon="3.0353130">
        <ele>60.0</ele>
        <time>2020-07-20T08:24:28Z</time>
      </trkpt>
      <trkpt lat="42.3571400" lon="3.0352340">
        <ele>60.6</ele>
        <time>2020-07-20T08:24:31Z</time>
      </trkpt>
      <trkpt lat="42.3572090" lon="3.0351850">
        <ele>61.0</ele>
        <time>2020-07-20T08:24:33Z</time>
      </trkpt>
      <trkpt lat="42.3573830" lon="3.0350550">
        <ele>62.2</ele>
        <time>2020-07-20T08:24:38Z</time>
      </trkpt>
      <trkpt lat="42.3574890" lon="3.0349720">
        <ele>62.6</ele>
        <time>2020-07-20T08:24:41Z</time>
      </trkpt>
      <trkpt lat="42.3575960" lon="3.0348910">
        <ele>63.4</ele>
        <time>2020-07-20T08:24:44Z</time>
      </trkpt>
      <trkpt lat="42.3578060" lon="3.0347330">
        <ele>64.4</ele>
        <time>2020-07-20T08:24:50Z</time>
      </trkpt>
      <trkpt lat="42.3579100" lon="3.0346560">
        <ele>65.0</ele>
        <time>2020-07-20T08:24:53Z</time>
      </trkpt>
      <trkpt lat="42.3580140" lon="3.0345790">
        <ele>65.4</ele>
        <time>2020-07-20T08:24:56Z</time>
      </trkpt>
      <trkpt lat="42.3581520" lon="3.0344710">
        <ele>66.4</ele>
        <time>2020-07-20T08:25:00Z</time>
      </trkpt>
      <trkpt lat="42.3582970" lon="3.0343620">
        <ele>67.2</ele>
        <time>2020-07-20T08:25:04Z</time>
      </trkpt>
      <trkpt lat="42.3584100" lon="3.0342900">
        <ele>67.4</ele>
        <time>2020-07-20T08:25:07Z</time>
      </trkpt>
      <trkpt lat="42.3584520" lon="3.0342720">
        <ele>67.6</ele>
        <time>2020-07-20T08:25:08Z</time>
      </trkpt>
      <trkpt lat="42.3585790" lon="3.0342430">
        <ele>68.2</ele>
        <time>2020-07-20T08:25:11Z</time>
      </trkpt>
      <trkpt lat="42.3586220" lon="3.0342410">
        <ele>68.4</ele>
        <time>2020-07-20T08:25:12Z</time>
      </trkpt>
      <trkpt lat="42.3586670" lon="3.0342430">
        <ele>68.6</ele>
        <time>2020-07-20T08:25:13Z</time>
      </trkpt>
      <trkpt lat="42.3589020" lon="3.0342750">
        <ele>69.0</ele>
        <time>2020-07-20T08:25:18Z</time>
      </trkpt>
      <trkpt lat="42.3589990" lon="3.0342940">
        <ele>69.0</ele>
        <time>2020-07-20T08:25:20Z</time>
      </trkpt>
      <trkpt lat="42.3591960" lon="3.0343270">
        <ele>69.8</ele>
        <time>2020-07-20T08:25:24Z</time>
      </trkpt>
      <trkpt lat="42.3592450" lon="3.0343350">
        <ele>69.8</ele>
        <time>2020-07-20T08:25:25Z</time>
      </trkpt>
      <trkpt lat="42.3593420" lon="3.0343500">
        <ele>70.2</ele>
        <time>2020-07-20T08:25:27Z</time>
      </trkpt>
      <trkpt lat="42.3594870" lon="3.0343690">
        <ele>70.4</ele>
        <time>2020-07-20T08:25:30Z</time>
      </trkpt>
      <trkpt lat="42.3596300" lon="3.0343920">
        <ele>70.6</ele>
        <time>2020-07-20T08:25:33Z</time>
      </trkpt>
      <trkpt lat="42.3596780" lon="3.0344010">
        <ele>70.8</ele>
        <time>2020-07-20T08:25:34Z</time>
      </trkpt>
      <trkpt lat="42.3598200" lon="3.0344270">
        <ele>71.4</ele>
        <time>2020-07-20T08:25:37Z</time>
      </trkpt>
      <trkpt lat="42.3600070" lon="3.0344500">
        <ele>71.8</ele>
        <time>2020-07-20T08:25:41Z</time>
      </trkpt>
      <trkpt lat="42.3601470" lon="3.0344740">
        <ele>72.4</ele>
        <time>2020-07-20T08:25:44Z</time>
      </trkpt>
      <trkpt lat="42.3601930" lon="3.0344810">
        <ele>72.6</ele>
        <time>2020-07-20T08:25:45Z</time>
      </trkpt>
      <trkpt lat="42.3602860" lon="3.0344800">
        <ele>72.8</ele>
        <time>2020-07-20T08:25:47Z</time>
      </trkpt>
      <trkpt lat="42.3603330" lon="3.0344710">
        <ele>73.0</ele>
        <time>2020-07-20T08:25:48Z</time>
      </trkpt>
      <trkpt lat="42.3604190" lon="3.0344240">
        <ele>73.0</ele>
        <time>2020-07-20T08:25:50Z</time>
      </trkpt>
      <trkpt lat="42.3604920" lon="3.0343370">
        <ele>73.0</ele>
        <time>2020-07-20T08:25:52Z</time>
      </trkpt>
      <trkpt lat="42.3605560" lon="3.0342230">
        <ele>73.2</ele>
        <time>2020-07-20T08:25:54Z</time>
      </trkpt>
      <trkpt lat="42.3607360" lon="3.0338220">
        <ele>73.0</ele>
        <time>2020-07-20T08:26:00Z</time>
      </trkpt>
      <trkpt lat="42.3607670" lon="3.0337520">
        <ele>72.8</ele>
        <time>2020-07-20T08:26:01Z</time>
      </trkpt>
      <trkpt lat="42.3609640" lon="3.0333200">
        <ele>72.6</ele>
        <time>2020-07-20T08:26:07Z</time>
      </trkpt>
      <trkpt lat="42.3610570" lon="3.0331050">
        <ele>72.6</ele>
        <time>2020-07-20T08:26:10Z</time>
      </trkpt>
      <trkpt lat="42.3612610" lon="3.0326610">
        <ele>72.2</ele>
        <time>2020-07-20T08:26:16Z</time>
      </trkpt>
      <trkpt lat="42.3612980" lon="3.0325830">
        <ele>72.2</ele>
        <time>2020-07-20T08:26:17Z</time>
      </trkpt>
      <trkpt lat="42.3613730" lon="3.0324230">
        <ele>71.8</ele>
        <time>2020-07-20T08:26:19Z</time>
      </trkpt>
      <trkpt lat="42.3615260" lon="3.0320880">
        <ele>70.4</ele>
        <time>2020-07-20T08:26:23Z</time>
      </trkpt>
      <trkpt lat="42.3616050" lon="3.0319140">
        <ele>69.8</ele>
        <time>2020-07-20T08:26:25Z</time>
      </trkpt>
      <trkpt lat="42.3616460" lon="3.0318260">
        <ele>69.4</ele>
        <time>2020-07-20T08:26:26Z</time>
      </trkpt>
      <trkpt lat="42.3617270" lon="3.0316490">
        <ele>68.4</ele>
        <time>2020-07-20T08:26:28Z</time>
      </trkpt>
      <trkpt lat="42.3617680" lon="3.0315600">
        <ele>68.0</ele>
        <time>2020-07-20T08:26:29Z</time>
      </trkpt>
      <trkpt lat="42.3620160" lon="3.0310250">
        <ele>67.4</ele>
        <time>2020-07-20T08:26:35Z</time>
      </trkpt>
      <trkpt lat="42.3620580" lon="3.0309350">
        <ele>67.2</ele>
        <time>2020-07-20T08:26:36Z</time>
      </trkpt>
      <trkpt lat="42.3621490" lon="3.0307600">
        <ele>67.0</ele>
        <time>2020-07-20T08:26:38Z</time>
      </trkpt>
      <trkpt lat="42.3622030" lon="3.0306820">
        <ele>66.8</ele>
        <time>2020-07-20T08:26:39Z</time>
      </trkpt>
      <trkpt lat="42.3622640" lon="3.0306120">
        <ele>66.4</ele>
        <time>2020-07-20T08:26:40Z</time>
      </trkpt>
      <trkpt lat="42.3623960" lon="3.0304900">
        <ele>65.6</ele>
        <time>2020-07-20T08:26:42Z</time>
      </trkpt>
      <trkpt lat="42.3627450" lon="3.0302110">
        <ele>65.0</ele>
        <time>2020-07-20T08:26:47Z</time>
      </trkpt>
      <trkpt lat="42.3629560" lon="3.0300390">
        <ele>64.4</ele>
        <time>2020-07-20T08:26:50Z</time>
      </trkpt>
      <trkpt lat="42.3633030" lon="3.0297490">
        <ele>63.2</ele>
        <time>2020-07-20T08:26:55Z</time>
      </trkpt>
      <trkpt lat="42.3636580" lon="3.0294550">
        <ele>62.2</ele>
        <time>2020-07-20T08:27:00Z</time>
      </trkpt>
      <trkpt lat="42.3638890" lon="3.0292720">
        <ele>61.0</ele>
        <time>2020-07-20T08:27:03Z</time>
      </trkpt>
      <trkpt lat="42.3640500" lon="3.0291460">
        <ele>60.0</ele>
        <time>2020-07-20T08:27:05Z</time>
      </trkpt>
      <trkpt lat="42.3643000" lon="3.0289460">
        <ele>58.8</ele>
        <time>2020-07-20T08:27:08Z</time>
      </trkpt>
      <trkpt lat="42.3645580" lon="3.0287360">
        <ele>57.6</ele>
        <time>2020-07-20T08:27:11Z</time>
      </trkpt>
      <trkpt lat="42.3647350" lon="3.0285950">
        <ele>56.4</ele>
        <time>2020-07-20T08:27:13Z</time>
      </trkpt>
      <trkpt lat="42.3649080" lon="3.0284570">
        <ele>55.0</ele>
        <time>2020-07-20T08:27:15Z</time>
      </trkpt>
      <trkpt lat="42.3650760" lon="3.0283200">
        <ele>54.2</ele>
        <time>2020-07-20T08:27:17Z</time>
      </trkpt>
      <trkpt lat="42.3652270" lon="3.0281510">
        <ele>53.6</ele>
        <time>2020-07-20T08:27:19Z</time>
      </trkpt>
      <trkpt lat="42.3653490" lon="3.0279310">
        <ele>52.0</ele>
        <time>2020-07-20T08:27:21Z</time>
      </trkpt>
      <trkpt lat="42.3654560" lon="3.0276960">
        <ele>51.0</ele>
        <time>2020-07-20T08:27:23Z</time>
      </trkpt>
      <trkpt lat="42.3655050" lon="3.0275820">
        <ele>50.6</ele>
        <time>2020-07-20T08:27:24Z</time>
      </trkpt>
      <trkpt lat="42.3656530" lon="3.0272670">
        <ele>50.2</ele>
        <time>2020-07-20T08:27:27Z</time>
      </trkpt>
      <trkpt lat="42.3657460" lon="3.0270800">
        <ele>50.2</ele>
        <time>2020-07-20T08:27:29Z</time>
      </trkpt>
      <trkpt lat="42.3658470" lon="3.0269160">
        <ele>50.6</ele>
        <time>2020-07-20T08:27:31Z</time>
      </trkpt>
      <trkpt lat="42.3659680" lon="3.0268000">
        <ele>51.0</ele>
        <time>2020-07-20T08:27:33Z</time>
      </trkpt>
      <trkpt lat="42.3661610" lon="3.0267120">
        <ele>52.2</ele>
        <time>2020-07-20T08:27:36Z</time>
      </trkpt>
      <trkpt lat="42.3662840" lon="3.0266680">
        <ele>53.0</ele>
        <time>2020-07-20T08:27:38Z</time>
      </trkpt>
      <trkpt lat="42.3664020" lon="3.0266260">
        <ele>53.6</ele>
        <time>2020-07-20T08:27:40Z</time>
      </trkpt>
      <trkpt lat="42.3666150" lon="3.0265490">
        <ele>54.6</ele>
        <time>2020-07-20T08:27:44Z</time>
      </trkpt>
      <trkpt lat="42.3667140" lon="3.0265120">
        <ele>55.2</ele>
        <time>2020-07-20T08:27:46Z</time>
      </trkpt>
      <trkpt lat="42.3668080" lon="3.0264770">
        <ele>55.8</ele>
        <time>2020-07-20T08:27:48Z</time>
      </trkpt>
      <trkpt lat="42.3668990" lon="3.0264430">
        <ele>56.4</ele>
        <time>2020-07-20T08:27:50Z</time>
      </trkpt>
      <trkpt lat="42.3670290" lon="3.0263970">
        <ele>57.0</ele>
        <time>2020-07-20T08:27:53Z</time>
      </trkpt>
      <trkpt lat="42.3670710" lon="3.0263840">
        <ele>57.2</ele>
        <time>2020-07-20T08:27:54Z</time>
      </trkpt>
      <trkpt lat="42.3673160" lon="3.0262910">
        <ele>58.0</ele>
        <time>2020-07-20T08:28:00Z</time>
      </trkpt>
      <trkpt lat="42.3673570" lon="3.0262760">
        <ele>58.2</ele>
        <time>2020-07-20T08:28:01Z</time>
      </trkpt>
      <trkpt lat="42.3674820" lon="3.0262490">
        <ele>58.6</ele>
        <time>2020-07-20T08:28:04Z</time>
      </trkpt>
      <trkpt lat="42.3676460" lon="3.0262640">
        <ele>59.2</ele>
        <time>2020-07-20T08:28:08Z</time>
      </trkpt>
      <trkpt lat="42.3677270" lon="3.0262910">
        <ele>59.6</ele>
        <time>2020-07-20T08:28:10Z</time>
      </trkpt>
      <trkpt lat="42.3678420" lon="3.0263420">
        <ele>60.4</ele>
        <time>2020-07-20T08:28:13Z</time>
      </trkpt>
      <trkpt lat="42.3679200" lon="3.0263760">
        <ele>60.6</ele>
        <time>2020-07-20T08:28:15Z</time>
      </trkpt>
      <trkpt lat="42.3679610" lon="3.0263970">
        <ele>60.8</ele>
        <time>2020-07-20T08:28:16Z</time>
      </trkpt>
      <trkpt lat="42.3680030" lon="3.0264170">
        <ele>61.0</ele>
        <time>2020-07-20T08:28:17Z</time>
      </trkpt>
      <trkpt lat="42.3680470" lon="3.0264330">
        <ele>61.0</ele>
        <time>2020-07-20T08:28:18Z</time>
      </trkpt>
      <trkpt lat="42.3680900" lon="3.0264540">
        <ele>61.2</ele>
        <time>2020-07-20T08:28:19Z</time>
      </trkpt>
      <trkpt lat="42.3683670" lon="3.0265890">
        <ele>61.2</ele>
        <time>2020-07-20T08:28:25Z</time>
      </trkpt>
      <trkpt lat="42.3684180" lon="3.0266090">
        <ele>61.2</ele>
        <time>2020-07-20T08:28:26Z</time>
      </trkpt>
      <trkpt lat="42.3685760" lon="3.0266720">
        <ele>61.4</ele>
        <time>2020-07-20T08:28:29Z</time>
      </trkpt>
      <trkpt lat="42.3686290" lon="3.0267000">
        <ele>61.4</ele>
        <time>2020-07-20T08:28:30Z</time>
      </trkpt>
      <trkpt lat="42.3686830" lon="3.0267260">
        <ele>61.6</ele>
        <time>2020-07-20T08:28:31Z</time>
      </trkpt>
      <trkpt lat="42.3687930" lon="3.0267690">
        <ele>61.6</ele>
        <time>2020-07-20T08:28:33Z</time>
      </trkpt>
      <trkpt lat="42.3688490" lon="3.0267880">
        <ele>61.6</ele>
        <time>2020-07-20T08:28:34Z</time>
      </trkpt>
      <trkpt lat="42.3691700" lon="3.0269210">
        <ele>61.6</ele>
        <time>2020-07-20T08:28:40Z</time>
      </trkpt>
      <trkpt lat="42.3693850" lon="3.0270070">
        <ele>62.6</ele>
        <time>2020-07-20T08:28:44Z</time>
      </trkpt>
      <trkpt lat="42.3696020" lon="3.0270880">
        <ele>63.0</ele>
        <time>2020-07-20T08:28:48Z</time>
      </trkpt>
      <trkpt lat="42.3698080" lon="3.0271620">
        <ele>63.6</ele>
        <time>2020-07-20T08:28:52Z</time>
      </trkpt>
      <trkpt lat="42.3699930" lon="3.0272330">
        <ele>64.8</ele>
        <time>2020-07-20T08:28:56Z</time>
      </trkpt>
      <trkpt lat="42.3700750" lon="3.0272710">
        <ele>65.2</ele>
        <time>2020-07-20T08:28:58Z</time>
      </trkpt>
      <trkpt lat="42.3701160" lon="3.0272950">
        <ele>65.6</ele>
        <time>2020-07-20T08:28:59Z</time>
      </trkpt>
      <trkpt lat="42.3701560" lon="3.0273180">
        <ele>66.0</ele>
        <time>2020-07-20T08:29:00Z</time>
      </trkpt>
      <trkpt lat="42.3702350" lon="3.0273630">
        <ele>66.4</ele>
        <time>2020-07-20T08:29:02Z</time>
      </trkpt>
      <trkpt lat="42.3703560" lon="3.0274190">
        <ele>66.8</ele>
        <time>2020-07-20T08:29:05Z</time>
      </trkpt>
      <trkpt lat="42.3703970" lon="3.0274360">
        <ele>67.0</ele>
        <time>2020-07-20T08:29:06Z</time>
      </trkpt>
      <trkpt lat="42.3704790" lon="3.0274750">
        <ele>67.2</ele>
        <time>2020-07-20T08:29:08Z</time>
      </trkpt>
      <trkpt lat="42.3707180" lon="3.0275770">
        <ele>68.2</ele>
        <time>2020-07-20T08:29:14Z</time>
      </trkpt>
      <trkpt lat="42.3708750" lon="3.0276390">
        <ele>69.2</ele>
        <time>2020-07-20T08:29:18Z</time>
      </trkpt>
      <trkpt lat="42.3709150" lon="3.0276540">
        <ele>69.4</ele>
        <time>2020-07-20T08:29:19Z</time>
      </trkpt>
      <trkpt lat="42.3711460" lon="3.0277330">
        <ele>70.4</ele>
        <time>2020-07-20T08:29:25Z</time>
      </trkpt>
      <trkpt lat="42.3713100" lon="3.0277550">
        <ele>71.2</ele>
        <time>2020-07-20T08:29:29Z</time>
      </trkpt>
      <trkpt lat="42.3714360" lon="3.0277740">
        <ele>71.4</ele>
        <time>2020-07-20T08:29:32Z</time>
      </trkpt>
      <trkpt lat="42.3714770" lon="3.0277800">
        <ele>71.6</ele>
        <time>2020-07-20T08:29:33Z</time>
      </trkpt>
      <trkpt lat="42.3715590" lon="3.0277880">
        <ele>72.2</ele>
        <time>2020-07-20T08:29:35Z</time>
      </trkpt>
      <trkpt lat="42.3716820" lon="3.0277990">
        <ele>72.8</ele>
        <time>2020-07-20T08:29:38Z</time>
      </trkpt>
      <trkpt lat="42.3717230" lon="3.0278010">
        <ele>73.2</ele>
        <time>2020-07-20T08:29:39Z</time>
      </trkpt>
      <trkpt lat="42.3718880" lon="3.0278100">
        <ele>73.8</ele>
        <time>2020-07-20T08:29:43Z</time>
      </trkpt>
      <trkpt lat="42.3720210" lon="3.0278170">
        <ele>74.0</ele>
        <time>2020-07-20T08:29:46Z</time>
      </trkpt>
      <trkpt lat="42.3720680" lon="3.0278160">
        <ele>74.0</ele>
        <time>2020-07-20T08:29:47Z</time>
      </trkpt>
      <trkpt lat="42.3722140" lon="3.0278230">
        <ele>74.2</ele>
        <time>2020-07-20T08:29:50Z</time>
      </trkpt>
      <trkpt lat="42.3723160" lon="3.0278290">
        <ele>74.2</ele>
        <time>2020-07-20T08:29:52Z</time>
      </trkpt>
      <trkpt lat="42.3724690" lon="3.0278290">
        <ele>74.2</ele>
        <time>2020-07-20T08:29:55Z</time>
      </trkpt>
      <trkpt lat="42.3727810" lon="3.0278480">
        <ele>74.4</ele>
        <time>2020-07-20T08:30:01Z</time>
      </trkpt>
      <trkpt lat="42.3729390" lon="3.0278520">
        <ele>74.8</ele>
        <time>2020-07-20T08:30:04Z</time>
      </trkpt>
      <trkpt lat="42.3729920" lon="3.0278550">
        <ele>75.0</ele>
        <time>2020-07-20T08:30:05Z</time>
      </trkpt>
      <trkpt lat="42.3731520" lon="3.0278670">
        <ele>75.2</ele>
        <time>2020-07-20T08:30:08Z</time>
      </trkpt>
      <trkpt lat="42.3734790" lon="3.0278720">
        <ele>75.6</ele>
        <time>2020-07-20T08:30:14Z</time>
      </trkpt>
      <trkpt lat="42.3736340" lon="3.0278740">
        <ele>75.8</ele>
        <time>2020-07-20T08:30:17Z</time>
      </trkpt>
      <trkpt lat="42.3738520" lon="3.0278870">
        <ele>76.4</ele>
        <time>2020-07-20T08:30:21Z</time>
      </trkpt>
      <trkpt lat="42.3741840" lon="3.0279160">
        <ele>77.0</ele>
        <time>2020-07-20T08:30:27Z</time>
      </trkpt>
      <trkpt lat="42.3742960" lon="3.0279220">
        <ele>77.0</ele>
        <time>2020-07-20T08:30:29Z</time>
      </trkpt>
      <trkpt lat="42.3743520" lon="3.0279260">
        <ele>77.2</ele>
        <time>2020-07-20T08:30:30Z</time>
      </trkpt>
      <trkpt lat="42.3745700" lon="3.0279390">
        <ele>77.8</ele>
        <time>2020-07-20T08:30:34Z</time>
      </trkpt>
      <trkpt lat="42.3746710" lon="3.0279460">
        <ele>78.2</ele>
        <time>2020-07-20T08:30:36Z</time>
      </trkpt>
      <trkpt lat="42.3747690" lon="3.0279420">
        <ele>78.8</ele>
        <time>2020-07-20T08:30:38Z</time>
      </trkpt>
      <trkpt lat="42.3748660" lon="3.0279310">
        <ele>79.2</ele>
        <time>2020-07-20T08:30:40Z</time>
      </trkpt>
      <trkpt lat="42.3751090" lon="3.0278600">
        <ele>80.0</ele>
        <time>2020-07-20T08:30:45Z</time>
      </trkpt>
      <trkpt lat="42.3752530" lon="3.0278090">
        <ele>80.4</ele>
        <time>2020-07-20T08:30:48Z</time>
      </trkpt>
      <trkpt lat="42.3755410" lon="3.0277170">
        <ele>81.4</ele>
        <time>2020-07-20T08:30:54Z</time>
      </trkpt>
      <trkpt lat="42.3755890" lon="3.0277000">
        <ele>81.6</ele>
        <time>2020-07-20T08:30:55Z</time>
      </trkpt>
      <trkpt lat="42.3757210" lon="3.0276320">
        <ele>82.2</ele>
        <time>2020-07-20T08:30:58Z</time>
      </trkpt>
      <trkpt lat="42.3757610" lon="3.0275960">
        <ele>82.6</ele>
        <time>2020-07-20T08:30:59Z</time>
      </trkpt>
      <trkpt lat="42.3757990" lon="3.0275530">
        <ele>82.8</ele>
        <time>2020-07-20T08:31:00Z</time>
      </trkpt>
      <trkpt lat="42.3759810" lon="3.0272350">
        <ele>83.2</ele>
        <time>2020-07-20T08:31:06Z</time>
      </trkpt>
      <trkpt lat="42.3760580" lon="3.0270670">
        <ele>83.6</ele>
        <time>2020-07-20T08:31:09Z</time>
      </trkpt>
      <trkpt lat="42.3761340" lon="3.0269080">
        <ele>84.8</ele>
        <time>2020-07-20T08:31:12Z</time>
      </trkpt>
      <trkpt lat="42.3761860" lon="3.0267980">
        <ele>85.4</ele>
        <time>2020-07-20T08:31:14Z</time>
      </trkpt>
      <trkpt lat="42.3762340" lon="3.0266800">
        <ele>85.8</ele>
        <time>2020-07-20T08:31:16Z</time>
      </trkpt>
      <trkpt lat="42.3762740" lon="3.0265550">
        <ele>86.0</ele>
        <time>2020-07-20T08:31:18Z</time>
      </trkpt>
      <trkpt lat="42.3762940" lon="3.0264230">
        <ele>86.4</ele>
        <time>2020-07-20T08:31:20Z</time>
      </trkpt>
      <trkpt lat="42.3763110" lon="3.0262940">
        <ele>86.8</ele>
        <time>2020-07-20T08:31:22Z</time>
      </trkpt>
      <trkpt lat="42.3763310" lon="3.0260960">
        <ele>87.2</ele>
        <time>2020-07-20T08:31:25Z</time>
      </trkpt>
      <trkpt lat="42.3763420" lon="3.0260320">
        <ele>87.2</ele>
        <time>2020-07-20T08:31:26Z</time>
      </trkpt>
      <trkpt lat="42.3763560" lon="3.0259710">
        <ele>87.2</ele>
        <time>2020-07-20T08:31:27Z</time>
      </trkpt>
      <trkpt lat="42.3763760" lon="3.0259140">
        <ele>87.4</ele>
        <time>2020-07-20T08:31:28Z</time>
      </trkpt>
      <trkpt lat="42.3764270" lon="3.0258130">
        <ele>88.0</ele>
        <time>2020-07-20T08:31:30Z</time>
      </trkpt>
      <trkpt lat="42.3764590" lon="3.0257680">
        <ele>88.2</ele>
        <time>2020-07-20T08:31:31Z</time>
      </trkpt>
      <trkpt lat="42.3765980" lon="3.0256010">
        <ele>89.0</ele>
        <time>2020-07-20T08:31:35Z</time>
      </trkpt>
      <trkpt lat="42.3767030" lon="3.0254800">
        <ele>89.6</ele>
        <time>2020-07-20T08:31:38Z</time>
      </trkpt>
      <trkpt lat="42.3768870" lon="3.0252740">
        <ele>90.2</ele>
        <time>2020-07-20T08:31:43Z</time>
      </trkpt>
      <trkpt lat="42.3769850" lon="3.0251370">
        <ele>90.8</ele>
        <time>2020-07-20T08:31:46Z</time>
      </trkpt>
      <trkpt lat="42.3770100" lon="3.0250860">
        <ele>90.8</ele>
        <time>2020-07-20T08:31:47Z</time>
      </trkpt>
      <trkpt lat="42.3770680" lon="3.0249070">
        <ele>91.4</ele>
        <time>2020-07-20T08:31:50Z</time>
      </trkpt>
      <trkpt lat="42.3770830" lon="3.0247710">
        <ele>91.6</ele>
        <time>2020-07-20T08:31:52Z</time>
      </trkpt>
      <trkpt lat="42.3770700" lon="3.0246260">
        <ele>91.6</ele>
        <time>2020-07-20T08:31:54Z</time>
      </trkpt>
      <trkpt lat="42.3770350" lon="3.0244830">
        <ele>91.6</ele>
        <time>2020-07-20T08:31:56Z</time>
      </trkpt>
      <trkpt lat="42.3768750" lon="3.0240790">
        <ele>91.4</ele>
        <time>2020-07-20T08:32:02Z</time>
      </trkpt>
      <trkpt lat="42.3768450" lon="3.0240160">
        <ele>91.2</ele>
        <time>2020-07-20T08:32:03Z</time>
      </trkpt>
      <trkpt lat="42.3767530" lon="3.0238350">
        <ele>90.6</ele>
        <time>2020-07-20T08:32:06Z</time>
      </trkpt>
      <trkpt lat="42.3766920" lon="3.0237190">
        <ele>90.6</ele>
        <time>2020-07-20T08:32:08Z</time>
      </trkpt>
      <trkpt lat="42.3766090" lon="3.0235410">
        <ele>90.4</ele>
        <time>2020-07-20T08:32:11Z</time>
      </trkpt>
      <trkpt lat="42.3764300" lon="3.0231950">
        <ele>90.4</ele>
        <time>2020-07-20T08:32:17Z</time>
      </trkpt>
      <trkpt lat="42.3763130" lon="3.0229680">
        <ele>90.0</ele>
        <time>2020-07-20T08:32:21Z</time>
      </trkpt>
      <trkpt lat="42.3762830" lon="3.0229060">
        <ele>89.8</ele>
        <time>2020-07-20T08:32:22Z</time>
      </trkpt>
      <trkpt lat="42.3760710" lon="3.0225250">
        <ele>89.6</ele>
        <time>2020-07-20T08:32:28Z</time>
      </trkpt>
      <trkpt lat="42.3760270" lon="3.0224600">
        <ele>89.6</ele>
        <time>2020-07-20T08:32:29Z</time>
      </trkpt>
      <trkpt lat="42.3759820" lon="3.0223950">
        <ele>89.6</ele>
        <time>2020-07-20T08:32:30Z</time>
      </trkpt>
      <trkpt lat="42.3758080" lon="3.0221200">
        <ele>89.2</ele>
        <time>2020-07-20T08:32:34Z</time>
      </trkpt>
      <trkpt lat="42.3756250" lon="3.0218410">
        <ele>88.4</ele>
        <time>2020-07-20T08:32:38Z</time>
      </trkpt>
      <trkpt lat="42.3755780" lon="3.0217690">
        <ele>88.0</ele>
        <time>2020-07-20T08:32:39Z</time>
      </trkpt>
      <trkpt lat="42.3754310" lon="3.0215500">
        <ele>87.6</ele>
        <time>2020-07-20T08:32:42Z</time>
      </trkpt>
      <trkpt lat="42.3752850" lon="3.0213230">
        <ele>86.8</ele>
        <time>2020-07-20T08:32:45Z</time>
      </trkpt>
      <trkpt lat="42.3751870" lon="3.0211680">
        <ele>86.0</ele>
        <time>2020-07-20T08:32:47Z</time>
      </trkpt>
      <trkpt lat="42.3751370" lon="3.0210900">
        <ele>85.8</ele>
        <time>2020-07-20T08:32:48Z</time>
      </trkpt>
      <trkpt lat="42.3748250" lon="3.0206230">
        <ele>85.4</ele>
        <time>2020-07-20T08:32:54Z</time>
      </trkpt>
      <trkpt lat="42.3746700" lon="3.0203860">
        <ele>84.8</ele>
        <time>2020-07-20T08:32:57Z</time>
      </trkpt>
      <trkpt lat="42.3743610" lon="3.0199140">
        <ele>83.6</ele>
        <time>2020-07-20T08:33:03Z</time>
      </trkpt>
      <trkpt lat="42.3741590" lon="3.0195870">
        <ele>83.2</ele>
        <time>2020-07-20T08:33:07Z</time>
      </trkpt>
      <trkpt lat="42.3741150" lon="3.0194990">
        <ele>83.0</ele>
        <time>2020-07-20T08:33:08Z</time>
      </trkpt>
      <trkpt lat="42.3740530" lon="3.0193010">
        <ele>82.6</ele>
        <time>2020-07-20T08:33:10Z</time>
      </trkpt>
      <trkpt lat="42.3740360" lon="3.0191930">
        <ele>82.4</ele>
        <time>2020-07-20T08:33:11Z</time>
      </trkpt>
      <trkpt lat="42.3740320" lon="3.0190820">
        <ele>82.2</ele>
        <time>2020-07-20T08:33:12Z</time>
      </trkpt>
      <trkpt lat="42.3740710" lon="3.0188600">
        <ele>82.0</ele>
        <time>2020-07-20T08:33:14Z</time>
      </trkpt>
      <trkpt lat="42.3741570" lon="3.0186570">
        <ele>82.0</ele>
        <time>2020-07-20T08:33:16Z</time>
      </trkpt>
      <trkpt lat="42.3742150" lon="3.0185670">
        <ele>81.8</ele>
        <time>2020-07-20T08:33:17Z</time>
      </trkpt>
      <trkpt lat="42.3744140" lon="3.0183300">
        <ele>81.4</ele>
        <time>2020-07-20T08:33:20Z</time>
      </trkpt>
      <trkpt lat="42.3746290" lon="3.0180990">
        <ele>80.2</ele>
        <time>2020-07-20T08:33:23Z</time>
      </trkpt>
      <trkpt lat="42.3748450" lon="3.0178680">
        <ele>78.8</ele>
        <time>2020-07-20T08:33:26Z</time>
      </trkpt>
      <trkpt lat="42.3751300" lon="3.0175610">
        <ele>77.8</ele>
        <time>2020-07-20T08:33:30Z</time>
      </trkpt>
      <trkpt lat="42.3753260" lon="3.0173030">
        <ele>76.8</ele>
        <time>2020-07-20T08:33:33Z</time>
      </trkpt>
      <trkpt lat="42.3753820" lon="3.0172030">
        <ele>76.6</ele>
        <time>2020-07-20T08:33:34Z</time>
      </trkpt>
      <trkpt lat="42.3754360" lon="3.0170980">
        <ele>76.4</ele>
        <time>2020-07-20T08:33:35Z</time>
      </trkpt>
      <trkpt lat="42.3756440" lon="3.0166420">
        <ele>75.4</ele>
        <time>2020-07-20T08:33:39Z</time>
      </trkpt>
      <trkpt lat="42.3757980" lon="3.0163010">
        <ele>74.4</ele>
        <time>2020-07-20T08:33:42Z</time>
      </trkpt>
      <trkpt lat="42.3758470" lon="3.0161910">
        <ele>74.2</ele>
        <time>2020-07-20T08:33:43Z</time>
      </trkpt>
      <trkpt lat="42.3761200" lon="3.0155720">
        <ele>73.6</ele>
        <time>2020-07-20T08:33:49Z</time>
      </trkpt>
      <trkpt lat="42.3763610" lon="3.0150480">
        <ele>73.6</ele>
        <time>2020-07-20T08:33:55Z</time>
      </trkpt>
      <trkpt lat="42.3763990" lon="3.0149650">
        <ele>73.6</ele>
        <time>2020-07-20T08:33:56Z</time>
      </trkpt>
      <trkpt lat="42.3766220" lon="3.0144650">
        <ele>73.4</ele>
        <time>2020-07-20T08:34:02Z</time>
      </trkpt>
      <trkpt lat="42.3767770" lon="3.0141240">
        <ele>73.0</ele>
        <time>2020-07-20T08:34:06Z</time>
      </trkpt>
      <trkpt lat="42.3770170" lon="3.0135990">
        <ele>72.4</ele>
        <time>2020-07-20T08:34:12Z</time>
      </trkpt>
      <trkpt lat="42.3771600" lon="3.0133520">
        <ele>72.0</ele>
        <time>2020-07-20T08:34:15Z</time>
      </trkpt>
      <trkpt lat="42.3772620" lon="3.0131960">
        <ele>71.6</ele>
        <time>2020-07-20T08:34:17Z</time>
      </trkpt>
      <trkpt lat="42.3775750" lon="3.0127370">
        <ele>71.0</ele>
        <time>2020-07-20T08:34:23Z</time>
      </trkpt>
      <trkpt lat="42.3776290" lon="3.0126610">
        <ele>70.8</ele>
        <time>2020-07-20T08:34:24Z</time>
      </trkpt>
      <trkpt lat="42.3776820" lon="3.0125860">
        <ele>70.6</ele>
        <time>2020-07-20T08:34:25Z</time>
      </trkpt>
      <trkpt lat="42.3779960" lon="3.0121300">
        <ele>70.4</ele>
        <time>2020-07-20T08:34:31Z</time>
      </trkpt>
      <trkpt lat="42.3782060" lon="3.0118250">
        <ele>69.8</ele>
        <time>2020-07-20T08:34:35Z</time>
      </trkpt>
      <trkpt lat="42.3784620" lon="3.0114490">
        <ele>69.4</ele>
        <time>2020-07-20T08:34:40Z</time>
      </trkpt>
      <trkpt lat="42.3787720" lon="3.0109990">
        <ele>69.0</ele>
        <time>2020-07-20T08:34:46Z</time>
      </trkpt>
      <trkpt lat="42.3788720" lon="3.0108510">
        <ele>68.8</ele>
        <time>2020-07-20T08:34:48Z</time>
      </trkpt>
      <trkpt lat="42.3791650" lon="3.0104300">
        <ele>68.8</ele>
        <time>2020-07-20T08:34:54Z</time>
      </trkpt>
      <trkpt lat="42.3792600" lon="3.0102900">
        <ele>68.8</ele>
        <time>2020-07-20T08:34:56Z</time>
      </trkpt>
      <trkpt lat="42.3794020" lon="3.0100830">
        <ele>69.0</ele>
        <time>2020-07-20T08:34:59Z</time>
      </trkpt>
      <trkpt lat="42.3796840" lon="3.0096730">
        <ele>69.2</ele>
        <time>2020-07-20T08:35:05Z</time>
      </trkpt>
      <trkpt lat="42.3798210" lon="3.0094680">
        <ele>69.2</ele>
        <time>2020-07-20T08:35:08Z</time>
      </trkpt>
      <trkpt lat="42.3799610" lon="3.0092660">
        <ele>69.4</ele>
        <time>2020-07-20T08:35:11Z</time>
      </trkpt>
      <trkpt lat="42.3802440" lon="3.0088660">
        <ele>69.8</ele>
        <time>2020-07-20T08:35:17Z</time>
      </trkpt>
      <trkpt lat="42.3804630" lon="3.0086630">
        <ele>69.6</ele>
        <time>2020-07-20T08:35:21Z</time>
      </trkpt>
      <trkpt lat="42.3805240" lon="3.0086260">
        <ele>69.6</ele>
        <time>2020-07-20T08:35:22Z</time>
      </trkpt>
      <trkpt lat="42.3809030" lon="3.0084430">
        <ele>70.4</ele>
        <time>2020-07-20T08:35:28Z</time>
      </trkpt>
      <trkpt lat="42.3809640" lon="3.0084160">
        <ele>70.2</ele>
        <time>2020-07-20T08:35:29Z</time>
      </trkpt>
      <trkpt lat="42.3813320" lon="3.0082480">
        <ele>70.2</ele>
        <time>2020-07-20T08:35:35Z</time>
      </trkpt>
      <trkpt lat="42.3816340" lon="3.0080990">
        <ele>70.4</ele>
        <time>2020-07-20T08:35:40Z</time>
      </trkpt>
      <trkpt lat="42.3819830" lon="3.0079200">
        <ele>70.6</ele>
        <time>2020-07-20T08:35:46Z</time>
      </trkpt>
      <trkpt lat="42.3820860" lon="3.0078400">
        <ele>70.8</ele>
        <time>2020-07-20T08:35:48Z</time>
      </trkpt>
      <trkpt lat="42.3823550" lon="3.0075170">
        <ele>72.0</ele>
        <time>2020-07-20T08:35:54Z</time>
      </trkpt>
      <trkpt lat="42.3823980" lon="3.0074600">
        <ele>72.0</ele>
        <time>2020-07-20T08:35:55Z</time>
      </trkpt>
      <trkpt lat="42.3826580" lon="3.0071150">
        <ele>71.4</ele>
        <time>2020-07-20T08:36:01Z</time>
      </trkpt>
      <trkpt lat="42.3829100" lon="3.0067720">
        <ele>72.0</ele>
        <time>2020-07-20T08:36:07Z</time>
      </trkpt>
      <trkpt lat="42.3831650" lon="3.0064290">
        <ele>73.0</ele>
        <time>2020-07-20T08:36:13Z</time>
      </trkpt>
      <trkpt lat="42.3833390" lon="3.0062030">
        <ele>73.2</ele>
        <time>2020-07-20T08:36:17Z</time>
      </trkpt>
      <trkpt lat="42.3835490" lon="3.0059300">
        <ele>73.4</ele>
        <time>2020-07-20T08:36:22Z</time>
      </trkpt>
      <trkpt lat="42.3837110" lon="3.0057140">
        <ele>73.8</ele>
        <time>2020-07-20T08:36:26Z</time>
      </trkpt>
      <trkpt lat="42.3838350" lon="3.0055510">
        <ele>74.0</ele>
        <time>2020-07-20T08:36:29Z</time>
      </trkpt>
      <trkpt lat="42.3840380" lon="3.0052830">
        <ele>74.4</ele>
        <time>2020-07-20T08:36:34Z</time>
      </trkpt>
      <trkpt lat="42.3841600" lon="3.0051280">
        <ele>74.8</ele>
        <time>2020-07-20T08:36:37Z</time>
      </trkpt>
      <trkpt lat="42.3843210" lon="3.0049200">
        <ele>75.2</ele>
        <time>2020-07-20T08:36:41Z</time>
      </trkpt>
      <trkpt lat="42.3845640" lon="3.0046070">
        <ele>75.6</ele>
        <time>2020-07-20T08:36:47Z</time>
      </trkpt>
      <trkpt lat="42.3846050" lon="3.0045550">
        <ele>75.8</ele>
        <time>2020-07-20T08:36:48Z</time>
      </trkpt>
      <trkpt lat="42.3847280" lon="3.0043970">
        <ele>76.2</ele>
        <time>2020-07-20T08:36:51Z</time>
      </trkpt>
      <trkpt lat="42.3849240" lon="3.0041380">
        <ele>77.0</ele>
        <time>2020-07-20T08:36:56Z</time>
      </trkpt>
      <trkpt lat="42.3850000" lon="3.0040400">
        <ele>77.4</ele>
        <time>2020-07-20T08:36:58Z</time>
      </trkpt>
      <trkpt lat="42.3850720" lon="3.0039420">
        <ele>78.0</ele>
        <time>2020-07-20T08:37:00Z</time>
      </trkpt>
      <trkpt lat="42.3851070" lon="3.0038930">
        <ele>78.2</ele>
        <time>2020-07-20T08:37:01Z</time>
      </trkpt>
      <trkpt lat="42.3851800" lon="3.0037970">
        <ele>78.6</ele>
        <time>2020-07-20T08:37:03Z</time>
      </trkpt>
      <trkpt lat="42.3853980" lon="3.0035120">
        <ele>79.8</ele>
        <time>2020-07-20T08:37:09Z</time>
      </trkpt>
      <trkpt lat="42.3854740" lon="3.0034150">
        <ele>80.2</ele>
        <time>2020-07-20T08:37:11Z</time>
      </trkpt>
      <trkpt lat="42.3855980" lon="3.0032810">
        <ele>80.8</ele>
        <time>2020-07-20T08:37:14Z</time>
      </trkpt>
      <trkpt lat="42.3857710" lon="3.0031190">
        <ele>81.4</ele>
        <time>2020-07-20T08:37:18Z</time>
      </trkpt>
      <trkpt lat="42.3859430" lon="3.0029610">
        <ele>82.0</ele>
        <time>2020-07-20T08:37:22Z</time>
      </trkpt>
      <trkpt lat="42.3861890" lon="3.0027270">
        <ele>82.2</ele>
        <time>2020-07-20T08:37:28Z</time>
      </trkpt>
      <trkpt lat="42.3864230" lon="3.0024960">
        <ele>83.0</ele>
        <time>2020-07-20T08:37:34Z</time>
      </trkpt>
      <trkpt lat="42.3864620" lon="3.0024600">
        <ele>83.2</ele>
        <time>2020-07-20T08:37:35Z</time>
      </trkpt>
      <trkpt lat="42.3865440" lon="3.0023830">
        <ele>83.4</ele>
        <time>2020-07-20T08:37:37Z</time>
      </trkpt>
      <trkpt lat="42.3867590" lon="3.0022160">
        <ele>84.0</ele>
        <time>2020-07-20T08:37:42Z</time>
      </trkpt>
      <trkpt lat="42.3868500" lon="3.0021780">
        <ele>84.2</ele>
        <time>2020-07-20T08:37:44Z</time>
      </trkpt>
      <trkpt lat="42.3869420" lon="3.0021870">
        <ele>84.4</ele>
        <time>2020-07-20T08:37:46Z</time>
      </trkpt>
      <trkpt lat="42.3870310" lon="3.0022110">
        <ele>84.8</ele>
        <time>2020-07-20T08:37:48Z</time>
      </trkpt>
      <trkpt lat="42.3870750" lon="3.0022310">
        <ele>85.2</ele>
        <time>2020-07-20T08:37:49Z</time>
      </trkpt>
      <trkpt lat="42.3871170" lon="3.0022580">
        <ele>85.6</ele>
        <time>2020-07-20T08:37:50Z</time>
      </trkpt>
      <trkpt lat="42.3872340" lon="3.0023470">
        <ele>86.2</ele>
        <time>2020-07-20T08:37:53Z</time>
      </trkpt>
      <trkpt lat="42.3873190" lon="3.0023640">
        <ele>86.4</ele>
        <time>2020-07-20T08:37:55Z</time>
      </trkpt>
      <trkpt lat="42.3874000" lon="3.0023320">
        <ele>86.6</ele>
        <time>2020-07-20T08:37:57Z</time>
      </trkpt>
      <trkpt lat="42.3874570" lon="3.0022470">
        <ele>86.8</ele>
        <time>2020-07-20T08:37:59Z</time>
      </trkpt>
      <trkpt lat="42.3874750" lon="3.0021940">
        <ele>87.0</ele>
        <time>2020-07-20T08:38:00Z</time>
      </trkpt>
      <trkpt lat="42.3874890" lon="3.0021370">
        <ele>87.0</ele>
        <time>2020-07-20T08:38:01Z</time>
      </trkpt>
      <trkpt lat="42.3875440" lon="3.0019750">
        <ele>87.6</ele>
        <time>2020-07-20T08:38:04Z</time>
      </trkpt>
      <trkpt lat="42.3875740" lon="3.0019340">
        <ele>87.8</ele>
        <time>2020-07-20T08:38:05Z</time>
      </trkpt>
      <trkpt lat="42.3876090" lon="3.0019050">
        <ele>88.0</ele>
        <time>2020-07-20T08:38:06Z</time>
      </trkpt>
      <trkpt lat="42.3877270" lon="3.0018580">
        <ele>88.8</ele>
        <time>2020-07-20T08:38:09Z</time>
      </trkpt>
      <trkpt lat="42.3877670" lon="3.0018480">
        <ele>89.0</ele>
        <time>2020-07-20T08:38:10Z</time>
      </trkpt>
      <trkpt lat="42.3879670" lon="3.0018040">
        <ele>90.0</ele>
        <time>2020-07-20T08:38:15Z</time>
      </trkpt>
      <trkpt lat="42.3880860" lon="3.0017810">
        <ele>90.4</ele>
        <time>2020-07-20T08:38:18Z</time>
      </trkpt>
      <trkpt lat="42.3882410" lon="3.0017520">
        <ele>91.2</ele>
        <time>2020-07-20T08:38:22Z</time>
      </trkpt>
      <trkpt lat="42.3883930" lon="3.0017360">
        <ele>92.2</ele>
        <time>2020-07-20T08:38:26Z</time>
      </trkpt>
      <trkpt lat="42.3884290" lon="3.0017320">
        <ele>92.2</ele>
        <time>2020-07-20T08:38:27Z</time>
      </trkpt>
      <trkpt lat="42.3885970" lon="3.0017900">
        <ele>93.0</ele>
        <time>2020-07-20T08:38:32Z</time>
      </trkpt>
      <trkpt lat="42.3886270" lon="3.0018040">
        <ele>93.2</ele>
        <time>2020-07-20T08:38:33Z</time>
      </trkpt>
      <trkpt lat="42.3887370" lon="3.0018620">
        <ele>94.4</ele>
        <time>2020-07-20T08:38:37Z</time>
      </trkpt>
      <trkpt lat="42.3887960" lon="3.0018910">
        <ele>95.0</ele>
        <time>2020-07-20T08:38:39Z</time>
      </trkpt>
      <trkpt lat="42.3888560" lon="3.0019260">
        <ele>95.6</ele>
        <time>2020-07-20T08:38:41Z</time>
      </trkpt>
      <trkpt lat="42.3890430" lon="3.0020240">
        <ele>96.4</ele>
        <time>2020-07-20T08:38:47Z</time>
      </trkpt>
      <trkpt lat="42.3890750" lon="3.0020420">
        <ele>96.6</ele>
        <time>2020-07-20T08:38:48Z</time>
      </trkpt>
      <trkpt lat="42.3891750" lon="3.0020990">
        <ele>96.8</ele>
        <time>2020-07-20T08:38:51Z</time>
      </trkpt>
      <trkpt lat="42.3893830" lon="3.0022100">
        <ele>97.0</ele>
        <time>2020-07-20T08:38:57Z</time>
      </trkpt>
      <trkpt lat="42.3895790" lon="3.0023510">
        <ele>97.4</ele>
        <time>2020-07-20T08:39:03Z</time>
      </trkpt>
      <trkpt lat="42.3896090" lon="3.0023710">
        <ele>97.6</ele>
        <time>2020-07-20T08:39:04Z</time>
      </trkpt>
      <trkpt lat="42.3896390" lon="3.0023910">
        <ele>97.6</ele>
        <time>2020-07-20T08:39:05Z</time>
      </trkpt>
      <trkpt lat="42.3898530" lon="3.0024780">
        <ele>97.6</ele>
        <time>2020-07-20T08:39:11Z</time>
      </trkpt>
      <trkpt lat="42.3898930" lon="3.0024830">
        <ele>97.8</ele>
        <time>2020-07-20T08:39:12Z</time>
      </trkpt>
      <trkpt lat="42.3901760" lon="3.0025370">
        <ele>98.2</ele>
        <time>2020-07-20T08:39:18Z</time>
      </trkpt>
      <trkpt lat="42.3904900" lon="3.0025790">
        <ele>98.2</ele>
        <time>2020-07-20T08:39:24Z</time>
      </trkpt>
      <trkpt lat="42.3905970" lon="3.0025780">
        <ele>98.4</ele>
        <time>2020-07-20T08:39:26Z</time>
      </trkpt>
      <trkpt lat="42.3908580" lon="3.0025590">
        <ele>98.2</ele>
        <time>2020-07-20T08:39:32Z</time>
      </trkpt>
      <trkpt lat="42.3910520" lon="3.0025270">
        <ele>98.6</ele>
        <time>2020-07-20T08:39:37Z</time>
      </trkpt>
      <trkpt lat="42.3910910" lon="3.0025150">
        <ele>98.6</ele>
        <time>2020-07-20T08:39:38Z</time>
      </trkpt>
      <trkpt lat="42.3912700" lon="3.0024780">
        <ele>98.2</ele>
        <time>2020-07-20T08:39:42Z</time>
      </trkpt>
      <trkpt lat="42.3913180" lon="3.0024780">
        <ele>98.2</ele>
        <time>2020-07-20T08:39:43Z</time>
      </trkpt>
      <trkpt lat="42.3913660" lon="3.0024820">
        <ele>98.2</ele>
        <time>2020-07-20T08:39:44Z</time>
      </trkpt>
      <trkpt lat="42.3914150" lon="3.0024910">
        <ele>98.2</ele>
        <time>2020-07-20T08:39:45Z</time>
      </trkpt>
      <trkpt lat="42.3916260" lon="3.0025890">
        <ele>97.6</ele>
        <time>2020-07-20T08:39:49Z</time>
      </trkpt>
      <trkpt lat="42.3916850" lon="3.0026100">
        <ele>97.4</ele>
        <time>2020-07-20T08:39:50Z</time>
      </trkpt>
      <trkpt lat="42.3918030" lon="3.0026150">
        <ele>97.0</ele>
        <time>2020-07-20T08:39:52Z</time>
      </trkpt>
      <trkpt lat="42.3918580" lon="3.0026010">
        <ele>97.0</ele>
        <time>2020-07-20T08:39:53Z</time>
      </trkpt>
      <trkpt lat="42.3920350" lon="3.0025230">
        <ele>96.8</ele>
        <time>2020-07-20T08:39:57Z</time>
      </trkpt>
      <trkpt lat="42.3920710" lon="3.0025020">
        <ele>97.0</ele>
        <time>2020-07-20T08:39:58Z</time>
      </trkpt>
      <trkpt lat="42.3921030" lon="3.0024880">
        <ele>97.4</ele>
        <time>2020-07-20T08:39:59Z</time>
      </trkpt>
      <trkpt lat="42.3924500" lon="3.0023000">
        <ele>99.6</ele>
        <time>2020-07-20T08:42:25Z</time>
      </trkpt>
      <trkpt lat="42.3924800" lon="3.0023160">
        <ele>99.6</ele>
        <time>2020-07-20T08:42:26Z</time>
      </trkpt>
      <trkpt lat="42.3925150" lon="3.0023410">
        <ele>99.4</ele>
        <time>2020-07-20T08:42:27Z</time>
      </trkpt>
      <trkpt lat="42.3925590" lon="3.0023750">
        <ele>98.8</ele>
        <time>2020-07-20T08:42:28Z</time>
      </trkpt>
      <trkpt lat="42.3926060" lon="3.0024160">
        <ele>98.0</ele>
        <time>2020-07-20T08:42:29Z</time>
      </trkpt>
      <trkpt lat="42.3927090" lon="3.0025200">
        <ele>96.6</ele>
        <time>2020-07-20T08:42:31Z</time>
      </trkpt>
      <trkpt lat="42.3928240" lon="3.0026320">
        <ele>95.4</ele>
        <time>2020-07-20T08:42:33Z</time>
      </trkpt>
      <trkpt lat="42.3928900" lon="3.0026800">
        <ele>95.0</ele>
        <time>2020-07-20T08:42:34Z</time>
      </trkpt>
      <trkpt lat="42.3930300" lon="3.0027620">
        <ele>94.2</ele>
        <time>2020-07-20T08:42:36Z</time>
      </trkpt>
      <trkpt lat="42.3932190" lon="3.0028890">
        <ele>93.0</ele>
        <time>2020-07-20T08:42:39Z</time>
      </trkpt>
      <trkpt lat="42.3933230" lon="3.0030090">
        <ele>92.6</ele>
        <time>2020-07-20T08:42:41Z</time>
      </trkpt>
      <trkpt lat="42.3934930" lon="3.0032270">
        <ele>93.2</ele>
        <time>2020-07-20T08:42:45Z</time>
      </trkpt>
      <trkpt lat="42.3935750" lon="3.0033130">
        <ele>93.6</ele>
        <time>2020-07-20T08:42:47Z</time>
      </trkpt>
      <trkpt lat="42.3936130" lon="3.0033540">
        <ele>94.0</ele>
        <time>2020-07-20T08:42:48Z</time>
      </trkpt>
      <trkpt lat="42.3937130" lon="3.0034700">
        <ele>95.0</ele>
        <time>2020-07-20T08:42:51Z</time>
      </trkpt>
      <trkpt lat="42.3937700" lon="3.0035310">
        <ele>95.4</ele>
        <time>2020-07-20T08:42:53Z</time>
      </trkpt>
      <trkpt lat="42.3938180" lon="3.0036010">
        <ele>96.2</ele>
        <time>2020-07-20T08:42:55Z</time>
      </trkpt>
      <trkpt lat="42.3938890" lon="3.0037450">
        <ele>97.2</ele>
        <time>2020-07-20T08:42:59Z</time>
      </trkpt>
      <trkpt lat="42.3939430" lon="3.0038730">
        <ele>98.4</ele>
        <time>2020-07-20T08:43:03Z</time>
      </trkpt>
      <trkpt lat="42.3939860" lon="3.0039920">
        <ele>99.6</ele>
        <time>2020-07-20T08:43:07Z</time>
      </trkpt>
      <trkpt lat="42.3940400" lon="3.0041490">
        <ele>100.8</ele>
        <time>2020-07-20T08:43:12Z</time>
      </trkpt>
      <trkpt lat="42.3940530" lon="3.0041830">
        <ele>101.0</ele>
        <time>2020-07-20T08:43:13Z</time>
      </trkpt>
      <trkpt lat="42.3940670" lon="3.0042160">
        <ele>101.2</ele>
        <time>2020-07-20T08:43:14Z</time>
      </trkpt>
      <trkpt lat="42.3941020" lon="3.0043210">
        <ele>101.8</ele>
        <time>2020-07-20T08:43:17Z</time>
      </trkpt>
      <trkpt lat="42.3941530" lon="3.0044890">
        <ele>102.8</ele>
        <time>2020-07-20T08:43:22Z</time>
      </trkpt>
      <trkpt lat="42.3941630" lon="3.0045230">
        <ele>103.0</ele>
        <time>2020-07-20T08:43:23Z</time>
      </trkpt>
      <trkpt lat="42.3942310" lon="3.0046690">
        <ele>104.0</ele>
        <time>2020-07-20T08:43:28Z</time>
      </trkpt>
      <trkpt lat="42.3942460" lon="3.0046940">
        <ele>104.2</ele>
        <time>2020-07-20T08:43:29Z</time>
      </trkpt>
      <trkpt lat="42.3942930" lon="3.0047680">
        <ele>105.4</ele>
        <time>2020-07-20T08:43:32Z</time>
      </trkpt>
      <trkpt lat="42.3943260" lon="3.0048310">
        <ele>105.8</ele>
        <time>2020-07-20T08:43:34Z</time>
      </trkpt>
      <trkpt lat="42.3943420" lon="3.0048610">
        <ele>106.2</ele>
        <time>2020-07-20T08:43:35Z</time>
      </trkpt>
      <trkpt lat="42.3943610" lon="3.0048910">
        <ele>106.4</ele>
        <time>2020-07-20T08:43:36Z</time>
      </trkpt>
      <trkpt lat="42.3943790" lon="3.0049220">
        <ele>106.6</ele>
        <time>2020-07-20T08:43:37Z</time>
      </trkpt>
      <trkpt lat="42.3944370" lon="3.0050140">
        <ele>107.6</ele>
        <time>2020-07-20T08:43:40Z</time>
      </trkpt>
      <trkpt lat="42.3945230" lon="3.0051720">
        <ele>108.0</ele>
        <time>2020-07-20T08:43:45Z</time>
      </trkpt>
      <trkpt lat="42.3945790" lon="3.0052640">
        <ele>108.6</ele>
        <time>2020-07-20T08:43:48Z</time>
      </trkpt>
      <trkpt lat="42.3946400" lon="3.0053870">
        <ele>109.8</ele>
        <time>2020-07-20T08:43:52Z</time>
      </trkpt>
      <trkpt lat="42.3946710" lon="3.0054440">
        <ele>110.2</ele>
        <time>2020-07-20T08:43:54Z</time>
      </trkpt>
      <trkpt lat="42.3947030" lon="3.0054950">
        <ele>110.8</ele>
        <time>2020-07-20T08:43:56Z</time>
      </trkpt>
      <trkpt lat="42.3947540" lon="3.0055580">
        <ele>112.2</ele>
        <time>2020-07-20T08:43:59Z</time>
      </trkpt>
      <trkpt lat="42.3948190" lon="3.0056150">
        <ele>113.4</ele>
        <time>2020-07-20T08:44:02Z</time>
      </trkpt>
      <trkpt lat="42.3948880" lon="3.0056710">
        <ele>114.8</ele>
        <time>2020-07-20T08:44:05Z</time>
      </trkpt>
      <trkpt lat="42.3949750" lon="3.0057200">
        <ele>115.8</ele>
        <time>2020-07-20T08:44:09Z</time>
      </trkpt>
      <trkpt lat="42.3950180" lon="3.0057560">
        <ele>116.8</ele>
        <time>2020-07-20T08:44:11Z</time>
      </trkpt>
      <trkpt lat="42.3951010" lon="3.0058110">
        <ele>118.0</ele>
        <time>2020-07-20T08:44:14Z</time>
      </trkpt>
      <trkpt lat="42.3951620" lon="3.0058490">
        <ele>118.4</ele>
        <time>2020-07-20T08:44:16Z</time>
      </trkpt>
      <trkpt lat="42.3952540" lon="3.0059020">
        <ele>119.2</ele>
        <time>2020-07-20T08:44:19Z</time>
      </trkpt>
      <trkpt lat="42.3954220" lon="3.0059790">
        <ele>120.0</ele>
        <time>2020-07-20T08:44:24Z</time>
      </trkpt>
      <trkpt lat="42.3954570" lon="3.0059950">
        <ele>120.4</ele>
        <time>2020-07-20T08:44:25Z</time>
      </trkpt>
      <trkpt lat="42.3956220" lon="3.0060820">
        <ele>121.4</ele>
        <time>2020-07-20T08:44:30Z</time>
      </trkpt>
      <trkpt lat="42.3956790" lon="3.0061280">
        <ele>121.8</ele>
        <time>2020-07-20T08:44:32Z</time>
      </trkpt>
      <trkpt lat="42.3957490" lon="3.0062180">
        <ele>122.6</ele>
        <time>2020-07-20T08:44:35Z</time>
      </trkpt>
      <trkpt lat="42.3957940" lon="3.0062780">
        <ele>123.0</ele>
        <time>2020-07-20T08:44:37Z</time>
      </trkpt>
      <trkpt lat="42.3958390" lon="3.0063350">
        <ele>123.8</ele>
        <time>2020-07-20T08:44:39Z</time>
      </trkpt>
      <trkpt lat="42.3959870" lon="3.0065050">
        <ele>125.0</ele>
        <time>2020-07-20T08:44:45Z</time>
      </trkpt>
      <trkpt lat="42.3960650" lon="3.0065840">
        <ele>126.4</ele>
        <time>2020-07-20T08:44:48Z</time>
      </trkpt>
      <trkpt lat="42.3962010" lon="3.0067150">
        <ele>126.8</ele>
        <time>2020-07-20T08:44:53Z</time>
      </trkpt>
      <trkpt lat="42.3963120" lon="3.0068150">
        <ele>127.6</ele>
        <time>2020-07-20T08:44:57Z</time>
      </trkpt>
      <trkpt lat="42.3963380" lon="3.0068400">
        <ele>127.8</ele>
        <time>2020-07-20T08:44:58Z</time>
      </trkpt>
      <trkpt lat="42.3964110" lon="3.0069100">
        <ele>128.6</ele>
        <time>2020-07-20T08:45:01Z</time>
      </trkpt>
      <trkpt lat="42.3965140" lon="3.0069710">
        <ele>129.8</ele>
        <time>2020-07-20T08:45:05Z</time>
      </trkpt>
      <trkpt lat="42.3966090" lon="3.0070490">
        <ele>131.2</ele>
        <time>2020-07-20T08:45:09Z</time>
      </trkpt>
      <trkpt lat="42.3966900" lon="3.0071010">
        <ele>131.8</ele>
        <time>2020-07-20T08:45:12Z</time>
      </trkpt>
      <trkpt lat="42.3967440" lon="3.0071340">
        <ele>132.2</ele>
        <time>2020-07-20T08:45:14Z</time>
      </trkpt>
      <trkpt lat="42.3968020" lon="3.0071680">
        <ele>132.8</ele>
        <time>2020-07-20T08:45:16Z</time>
      </trkpt>
      <trkpt lat="42.3968570" lon="3.0072080">
        <ele>133.6</ele>
        <time>2020-07-20T08:45:18Z</time>
      </trkpt>
      <trkpt lat="42.3969460" lon="3.0072600">
        <ele>134.2</ele>
        <time>2020-07-20T08:45:21Z</time>
      </trkpt>
      <trkpt lat="42.3970500" lon="3.0072960">
        <ele>134.6</ele>
        <time>2020-07-20T08:45:24Z</time>
      </trkpt>
      <trkpt lat="42.3971950" lon="3.0073250">
        <ele>135.4</ele>
        <time>2020-07-20T08:45:28Z</time>
      </trkpt>
      <trkpt lat="42.3974780" lon="3.0073670">
        <ele>135.0</ele>
        <time>2020-07-20T08:45:34Z</time>
      </trkpt>
      <trkpt lat="42.3975370" lon="3.0073740">
        <ele>134.6</ele>
        <time>2020-07-20T08:45:35Z</time>
      </trkpt>
      <trkpt lat="42.3977250" lon="3.0074000">
        <ele>134.2</ele>
        <time>2020-07-20T08:45:38Z</time>
      </trkpt>
      <trkpt lat="42.3978600" lon="3.0074290">
        <ele>133.4</ele>
        <time>2020-07-20T08:45:40Z</time>
      </trkpt>
      <trkpt lat="42.3979980" lon="3.0074770">
        <ele>132.4</ele>
        <time>2020-07-20T08:45:42Z</time>
      </trkpt>
      <trkpt lat="42.3980630" lon="3.0075180">
        <ele>132.0</ele>
        <time>2020-07-20T08:45:43Z</time>
      </trkpt>
      <trkpt lat="42.3983230" lon="3.0076810">
        <ele>131.2</ele>
        <time>2020-07-20T08:45:47Z</time>
      </trkpt>
      <trkpt lat="42.3984580" lon="3.0077170">
        <ele>131.2</ele>
        <time>2020-07-20T08:45:49Z</time>
      </trkpt>
      <trkpt lat="42.3986480" lon="3.0077230">
        <ele>131.4</ele>
        <time>2020-07-20T08:45:52Z</time>
      </trkpt>
      <trkpt lat="42.3989240" lon="3.0076390">
        <ele>132.0</ele>
        <time>2020-07-20T08:45:57Z</time>
      </trkpt>
      <trkpt lat="42.3990730" lon="3.0076050">
        <ele>133.2</ele>
        <time>2020-07-20T08:46:00Z</time>
      </trkpt>
      <trkpt lat="42.3991640" lon="3.0075970">
        <ele>133.6</ele>
        <time>2020-07-20T08:46:02Z</time>
      </trkpt>
      <trkpt lat="42.3992080" lon="3.0075990">
        <ele>133.8</ele>
        <time>2020-07-20T08:46:03Z</time>
      </trkpt>
      <trkpt lat="42.3993370" lon="3.0076070">
        <ele>134.4</ele>
        <time>2020-07-20T08:46:06Z</time>
      </trkpt>
      <trkpt lat="42.3994670" lon="3.0076150">
        <ele>135.4</ele>
        <time>2020-07-20T08:46:09Z</time>
      </trkpt>
      <trkpt lat="42.3995520" lon="3.0076250">
        <ele>135.8</ele>
        <time>2020-07-20T08:46:11Z</time>
      </trkpt>
      <trkpt lat="42.3995930" lon="3.0076300">
        <ele>135.8</ele>
        <time>2020-07-20T08:46:12Z</time>
      </trkpt>
      <trkpt lat="42.3997140" lon="3.0076440">
        <ele>136.6</ele>
        <time>2020-07-20T08:46:15Z</time>
      </trkpt>
      <trkpt lat="42.3999550" lon="3.0076710">
        <ele>137.8</ele>
        <time>2020-07-20T08:46:21Z</time>
      </trkpt>
      <trkpt lat="42.4001500" lon="3.0076850">
        <ele>139.0</ele>
        <time>2020-07-20T08:46:26Z</time>
      </trkpt>
      <trkpt lat="42.4002260" lon="3.0076910">
        <ele>139.4</ele>
        <time>2020-07-20T08:46:28Z</time>
      </trkpt>
      <trkpt lat="42.4003010" lon="3.0076930">
        <ele>139.8</ele>
        <time>2020-07-20T08:46:30Z</time>
      </trkpt>
      <trkpt lat="42.4003370" lon="3.0076900">
        <ele>140.0</ele>
        <time>2020-07-20T08:46:31Z</time>
      </trkpt>
      <trkpt lat="42.4003730" lon="3.0076910">
        <ele>140.2</ele>
        <time>2020-07-20T08:46:32Z</time>
      </trkpt>
      <trkpt lat="42.4005470" lon="3.0076880">
        <ele>141.0</ele>
        <time>2020-07-20T08:46:37Z</time>
      </trkpt>
      <trkpt lat="42.4005810" lon="3.0076870">
        <ele>141.4</ele>
        <time>2020-07-20T08:46:38Z</time>
      </trkpt>
      <trkpt lat="42.4007130" lon="3.0076830">
        <ele>142.0</ele>
        <time>2020-07-20T08:46:42Z</time>
      </trkpt>
      <trkpt lat="42.4007450" lon="3.0076820">
        <ele>142.4</ele>
        <time>2020-07-20T08:46:43Z</time>
      </trkpt>
      <trkpt lat="42.4008400" lon="3.0076870">
        <ele>143.4</ele>
        <time>2020-07-20T08:46:46Z</time>
      </trkpt>
      <trkpt lat="42.4009660" lon="3.0076950">
        <ele>144.6</ele>
        <time>2020-07-20T08:46:50Z</time>
      </trkpt>
      <trkpt lat="42.4011490" lon="3.0077150">
        <ele>146.0</ele>
        <time>2020-07-20T08:46:56Z</time>
      </trkpt>
      <trkpt lat="42.4012370" lon="3.0077380">
        <ele>147.0</ele>
        <time>2020-07-20T08:46:59Z</time>
      </trkpt>
      <trkpt lat="42.4013520" lon="3.0077730">
        <ele>148.2</ele>
        <time>2020-07-20T08:47:03Z</time>
      </trkpt>
      <trkpt lat="42.4014370" lon="3.0077970">
        <ele>148.8</ele>
        <time>2020-07-20T08:47:06Z</time>
      </trkpt>
      <trkpt lat="42.4014920" lon="3.0078140">
        <ele>149.4</ele>
        <time>2020-07-20T08:47:08Z</time>
      </trkpt>
      <trkpt lat="42.4016000" lon="3.0078450">
        <ele>150.6</ele>
        <time>2020-07-20T08:47:12Z</time>
      </trkpt>
      <trkpt lat="42.4016540" lon="3.0078610">
        <ele>151.2</ele>
        <time>2020-07-20T08:47:14Z</time>
      </trkpt>
      <trkpt lat="42.4016810" lon="3.0078700">
        <ele>151.6</ele>
        <time>2020-07-20T08:47:15Z</time>
      </trkpt>
      <trkpt lat="42.4018360" lon="3.0079200">
        <ele>153.0</ele>
        <time>2020-07-20T08:47:21Z</time>
      </trkpt>
      <trkpt lat="42.4019390" lon="3.0079480">
        <ele>154.2</ele>
        <time>2020-07-20T08:47:25Z</time>
      </trkpt>
      <trkpt lat="42.4020170" lon="3.0079660">
        <ele>155.4</ele>
        <time>2020-07-20T08:47:28Z</time>
      </trkpt>
      <trkpt lat="42.4020650" lon="3.0079810">
        <ele>156.0</ele>
        <time>2020-07-20T08:47:30Z</time>
      </trkpt>
      <trkpt lat="42.4021430" lon="3.0080010">
        <ele>156.6</ele>
        <time>2020-07-20T08:47:33Z</time>
      </trkpt>
      <trkpt lat="42.4022520" lon="3.0080260">
        <ele>157.6</ele>
        <time>2020-07-20T08:47:37Z</time>
      </trkpt>
      <trkpt lat="42.4023660" lon="3.0080680">
        <ele>158.8</ele>
        <time>2020-07-20T08:47:41Z</time>
      </trkpt>
      <trkpt lat="42.4024520" lon="3.0080940">
        <ele>159.2</ele>
        <time>2020-07-20T08:47:44Z</time>
      </trkpt>
      <trkpt lat="42.4025480" lon="3.0081220">
        <ele>159.6</ele>
        <time>2020-07-20T08:47:47Z</time>
      </trkpt>
      <trkpt lat="42.4026160" lon="3.0081420">
        <ele>159.8</ele>
        <time>2020-07-20T08:47:49Z</time>
      </trkpt>
      <trkpt lat="42.4027970" lon="3.0081950">
        <ele>160.6</ele>
        <time>2020-07-20T08:47:54Z</time>
      </trkpt>
      <trkpt lat="42.4029280" lon="3.0082250">
        <ele>160.4</ele>
        <time>2020-07-20T08:47:57Z</time>
      </trkpt>
      <trkpt lat="42.4032320" lon="3.0082030">
        <ele>158.6</ele>
        <time>2020-07-20T08:48:02Z</time>
      </trkpt>
      <trkpt lat="42.4033940" lon="3.0081490">
        <ele>157.4</ele>
        <time>2020-07-20T08:48:04Z</time>
      </trkpt>
      <trkpt lat="42.4035630" lon="3.0080910">
        <ele>156.0</ele>
        <time>2020-07-20T08:48:06Z</time>
      </trkpt>
      <trkpt lat="42.4037510" lon="3.0080630">
        <ele>154.2</ele>
        <time>2020-07-20T08:48:08Z</time>
      </trkpt>
      <trkpt lat="42.4039430" lon="3.0080860">
        <ele>152.8</ele>
        <time>2020-07-20T08:48:10Z</time>
      </trkpt>
      <trkpt lat="42.4041330" lon="3.0081310">
        <ele>151.6</ele>
        <time>2020-07-20T08:48:12Z</time>
      </trkpt>
      <trkpt lat="42.4044170" lon="3.0082160">
        <ele>150.6</ele>
        <time>2020-07-20T08:48:15Z</time>
      </trkpt>
      <trkpt lat="42.4046040" lon="3.0082960">
        <ele>149.4</ele>
        <time>2020-07-20T08:48:17Z</time>
      </trkpt>
      <trkpt lat="42.4048760" lon="3.0084560">
        <ele>148.2</ele>
        <time>2020-07-20T08:48:20Z</time>
      </trkpt>
      <trkpt lat="42.4050620" lon="3.0085740">
        <ele>147.4</ele>
        <time>2020-07-20T08:48:22Z</time>
      </trkpt>
      <trkpt lat="42.4051560" lon="3.0086290">
        <ele>147.0</ele>
        <time>2020-07-20T08:48:23Z</time>
      </trkpt>
      <trkpt lat="42.4053200" lon="3.0087590">
        <ele>145.8</ele>
        <time>2020-07-20T08:48:25Z</time>
      </trkpt>
      <trkpt lat="42.4053930" lon="3.0088410">
        <ele>145.4</ele>
        <time>2020-07-20T08:48:26Z</time>
      </trkpt>
      <trkpt lat="42.4054650" lon="3.0089300">
        <ele>144.8</ele>
        <time>2020-07-20T08:48:27Z</time>
      </trkpt>
      <trkpt lat="42.4055300" lon="3.0090290">
        <ele>144.4</ele>
        <time>2020-07-20T08:48:28Z</time>
      </trkpt>
      <trkpt lat="42.4056310" lon="3.0092580">
        <ele>143.2</ele>
        <time>2020-07-20T08:48:30Z</time>
      </trkpt>
      <trkpt lat="42.4057710" lon="3.0095730">
        <ele>142.4</ele>
        <time>2020-07-20T08:48:33Z</time>
      </trkpt>
      <trkpt lat="42.4058320" lon="3.0096620">
        <ele>142.2</ele>
        <time>2020-07-20T08:48:34Z</time>
      </trkpt>
      <trkpt lat="42.4059720" lon="3.0098130">
        <ele>141.8</ele>
        <time>2020-07-20T08:48:36Z</time>
      </trkpt>
      <trkpt lat="42.4061350" lon="3.0099120">
        <ele>141.0</ele>
        <time>2020-07-20T08:48:38Z</time>
      </trkpt>
      <trkpt lat="42.4064210" lon="3.0099630">
        <ele>139.4</ele>
        <time>2020-07-20T08:48:41Z</time>
      </trkpt>
      <trkpt lat="42.4066480" lon="3.0099430">
        <ele>137.6</ele>
        <time>2020-07-20T08:48:43Z</time>
      </trkpt>
      <trkpt lat="42.4067650" lon="3.0099410">
        <ele>136.4</ele>
        <time>2020-07-20T08:48:44Z</time>
      </trkpt>
      <trkpt lat="42.4068810" lon="3.0099450">
        <ele>135.0</ele>
        <time>2020-07-20T08:48:45Z</time>
      </trkpt>
      <trkpt lat="42.4069920" lon="3.0099660">
        <ele>134.0</ele>
        <time>2020-07-20T08:48:46Z</time>
      </trkpt>
      <trkpt lat="42.4071870" lon="3.0100480">
        <ele>133.0</ele>
        <time>2020-07-20T08:48:48Z</time>
      </trkpt>
      <trkpt lat="42.4072670" lon="3.0101030">
        <ele>132.8</ele>
        <time>2020-07-20T08:48:49Z</time>
      </trkpt>
      <trkpt lat="42.4073870" lon="3.0102290">
        <ele>133.8</ele>
        <time>2020-07-20T08:48:51Z</time>
      </trkpt>
      <trkpt lat="42.4074340" lon="3.0102960">
        <ele>134.8</ele>
        <time>2020-07-20T08:48:52Z</time>
      </trkpt>
      <trkpt lat="42.4075140" lon="3.0104300">
        <ele>136.4</ele>
        <time>2020-07-20T08:48:54Z</time>
      </trkpt>
      <trkpt lat="42.4075490" lon="3.0104930">
        <ele>137.0</ele>
        <time>2020-07-20T08:48:55Z</time>
      </trkpt>
      <trkpt lat="42.4075840" lon="3.0105460">
        <ele>137.6</ele>
        <time>2020-07-20T08:48:56Z</time>
      </trkpt>
      <trkpt lat="42.4076590" lon="3.0106340">
        <ele>138.8</ele>
        <time>2020-07-20T08:48:58Z</time>
      </trkpt>
      <trkpt lat="42.4077010" lon="3.0106650">
        <ele>139.4</ele>
        <time>2020-07-20T08:48:59Z</time>
      </trkpt>
      <trkpt lat="42.4077430" lon="3.0106900">
        <ele>139.8</ele>
        <time>2020-07-20T08:49:00Z</time>
      </trkpt>
      <trkpt lat="42.4077850" lon="3.0107150">
        <ele>140.2</ele>
        <time>2020-07-20T08:49:01Z</time>
      </trkpt>
      <trkpt lat="42.4078700" lon="3.0107570">
        <ele>140.6</ele>
        <time>2020-07-20T08:49:03Z</time>
      </trkpt>
      <trkpt lat="42.4079970" lon="3.0108110">
        <ele>141.4</ele>
        <time>2020-07-20T08:49:06Z</time>
      </trkpt>
      <trkpt lat="42.4080390" lon="3.0108320">
        <ele>141.8</ele>
        <time>2020-07-20T08:49:07Z</time>
      </trkpt>
      <trkpt lat="42.4081210" lon="3.0108950">
        <ele>142.2</ele>
        <time>2020-07-20T08:49:09Z</time>
      </trkpt>
      <trkpt lat="42.4082400" lon="3.0110390">
        <ele>142.2</ele>
        <time>2020-07-20T08:49:12Z</time>
      </trkpt>
      <trkpt lat="42.4082810" lon="3.0110920">
        <ele>142.0</ele>
        <time>2020-07-20T08:49:13Z</time>
      </trkpt>
      <trkpt lat="42.4083230" lon="3.0111500">
        <ele>141.8</ele>
        <time>2020-07-20T08:49:14Z</time>
      </trkpt>
      <trkpt lat="42.4083680" lon="3.0112130">
        <ele>141.4</ele>
        <time>2020-07-20T08:49:15Z</time>
      </trkpt>
      <trkpt lat="42.4084610" lon="3.0113470">
        <ele>140.8</ele>
        <time>2020-07-20T08:49:17Z</time>
      </trkpt>
      <trkpt lat="42.4085110" lon="3.0114230">
        <ele>140.4</ele>
        <time>2020-07-20T08:49:18Z</time>
      </trkpt>
      <trkpt lat="42.4086100" lon="3.0115900">
        <ele>139.6</ele>
        <time>2020-07-20T08:49:20Z</time>
      </trkpt>
      <trkpt lat="42.4086590" lon="3.0116800">
        <ele>139.0</ele>
        <time>2020-07-20T08:49:21Z</time>
      </trkpt>
      <trkpt lat="42.4087630" lon="3.0118720">
        <ele>137.8</ele>
        <time>2020-07-20T08:49:23Z</time>
      </trkpt>
      <trkpt lat="42.4088670" lon="3.0120840">
        <ele>136.6</ele>
        <time>2020-07-20T08:49:25Z</time>
      </trkpt>
      <trkpt lat="42.4089810" lon="3.0123100">
        <ele>135.4</ele>
        <time>2020-07-20T08:49:27Z</time>
      </trkpt>
      <trkpt lat="42.4090430" lon="3.0124300">
        <ele>134.4</ele>
        <time>2020-07-20T08:49:28Z</time>
      </trkpt>
      <trkpt lat="42.4091120" lon="3.0125430">
        <ele>133.2</ele>
        <time>2020-07-20T08:49:29Z</time>
      </trkpt>
      <trkpt lat="42.4091900" lon="3.0126440">
        <ele>132.2</ele>
        <time>2020-07-20T08:49:30Z</time>
      </trkpt>
      <trkpt lat="42.4092740" lon="3.0127340">
        <ele>131.8</ele>
        <time>2020-07-20T08:49:31Z</time>
      </trkpt>
      <trkpt lat="42.4093590" lon="3.0128120">
        <ele>131.4</ele>
        <time>2020-07-20T08:49:32Z</time>
      </trkpt>
      <trkpt lat="42.4096120" lon="3.0129720">
        <ele>131.6</ele>
        <time>2020-07-20T08:49:35Z</time>
      </trkpt>
      <trkpt lat="42.4096960" lon="3.0129910">
        <ele>131.6</ele>
        <time>2020-07-20T08:49:36Z</time>
      </trkpt>
      <trkpt lat="42.4097810" lon="3.0129870">
        <ele>132.2</ele>
        <time>2020-07-20T08:49:37Z</time>
      </trkpt>
      <trkpt lat="42.4099360" lon="3.0129330">
        <ele>133.0</ele>
        <time>2020-07-20T08:49:39Z</time>
      </trkpt>
      <trkpt lat="42.4103270" lon="3.0126930">
        <ele>133.6</ele>
        <time>2020-07-20T08:49:45Z</time>
      </trkpt>
      <trkpt lat="42.4106700" lon="3.0124600">
        <ele>133.8</ele>
        <time>2020-07-20T08:49:51Z</time>
      </trkpt>
      <trkpt lat="42.4107800" lon="3.0123910">
        <ele>134.0</ele>
        <time>2020-07-20T08:49:53Z</time>
      </trkpt>
      <trkpt lat="42.4110910" lon="3.0121680">
        <ele>134.8</ele>
        <time>2020-07-20T08:49:59Z</time>
      </trkpt>
      <trkpt lat="42.4112420" lon="3.0120370">
        <ele>135.0</ele>
        <time>2020-07-20T08:50:02Z</time>
      </trkpt>
      <trkpt lat="42.4114920" lon="3.0116410">
        <ele>135.0</ele>
        <time>2020-07-20T08:50:08Z</time>
      </trkpt>
      <trkpt lat="42.4115320" lon="3.0115700">
        <ele>134.8</ele>
        <time>2020-07-20T08:50:09Z</time>
      </trkpt>
      <trkpt lat="42.4115710" lon="3.0115000">
        <ele>134.6</ele>
        <time>2020-07-20T08:50:10Z</time>
      </trkpt>
      <trkpt lat="42.4116110" lon="3.0114290">
        <ele>134.6</ele>
        <time>2020-07-20T08:50:11Z</time>
      </trkpt>
      <trkpt lat="42.4117430" lon="3.0112290">
        <ele>134.6</ele>
        <time>2020-07-20T08:50:14Z</time>
      </trkpt>
      <trkpt lat="42.4118360" lon="3.0110960">
        <ele>134.6</ele>
        <time>2020-07-20T08:50:16Z</time>
      </trkpt>
      <trkpt lat="42.4118870" lon="3.0110360">
        <ele>134.6</ele>
        <time>2020-07-20T08:50:17Z</time>
      </trkpt>
      <trkpt lat="42.4120030" lon="3.0109400">
        <ele>134.4</ele>
        <time>2020-07-20T08:50:19Z</time>
      </trkpt>
      <trkpt lat="42.4120660" lon="3.0109040">
        <ele>134.4</ele>
        <time>2020-07-20T08:50:20Z</time>
      </trkpt>
      <trkpt lat="42.4121320" lon="3.0108770">
        <ele>134.4</ele>
        <time>2020-07-20T08:50:21Z</time>
      </trkpt>
      <trkpt lat="42.4123370" lon="3.0108420">
        <ele>134.2</ele>
        <time>2020-07-20T08:50:24Z</time>
      </trkpt>
      <trkpt lat="42.4125370" lon="3.0108750">
        <ele>134.0</ele>
        <time>2020-07-20T08:50:27Z</time>
      </trkpt>
      <trkpt lat="42.4126000" lon="3.0109030">
        <ele>133.8</ele>
        <time>2020-07-20T08:50:28Z</time>
      </trkpt>
      <trkpt lat="42.4128690" lon="3.0110970">
        <ele>134.0</ele>
        <time>2020-07-20T08:50:33Z</time>
      </trkpt>
      <trkpt lat="42.4129370" lon="3.0111600">
        <ele>134.2</ele>
        <time>2020-07-20T08:50:36Z</time>
      </trkpt>
      <trkpt lat="42.4130710" lon="3.0112960">
        <ele>134.0</ele>
        <time>2020-07-20T08:50:41Z</time>
      </trkpt>
      <trkpt lat="42.4132500" lon="3.0115450">
        <ele>134.2</ele>
        <time>2020-07-20T08:50:46Z</time>
      </trkpt>
      <trkpt lat="42.4133090" lon="3.0116770">
        <ele>134.4</ele>
        <time>2020-07-20T08:50:48Z</time>
      </trkpt>
      <trkpt lat="42.4134260" lon="3.0119400">
        <ele>134.6</ele>
        <time>2020-07-20T08:50:52Z</time>
      </trkpt>
      <trkpt lat="42.4135270" lon="3.0122030">
        <ele>135.2</ele>
        <time>2020-07-20T08:50:56Z</time>
      </trkpt>
      <trkpt lat="42.4135800" lon="3.0123140">
        <ele>135.6</ele>
        <time>2020-07-20T08:50:58Z</time>
      </trkpt>
      <trkpt lat="42.4136310" lon="3.0124080">
        <ele>136.2</ele>
        <time>2020-07-20T08:51:00Z</time>
      </trkpt>
      <trkpt lat="42.4137200" lon="3.0125060">
        <ele>137.6</ele>
        <time>2020-07-20T08:51:03Z</time>
      </trkpt>
      <trkpt lat="42.4138250" lon="3.0125380">
        <ele>138.6</ele>
        <time>2020-07-20T08:51:06Z</time>
      </trkpt>
      <trkpt lat="42.4139000" lon="3.0125410">
        <ele>139.2</ele>
        <time>2020-07-20T08:51:08Z</time>
      </trkpt>
      <trkpt lat="42.4140090" lon="3.0125390">
        <ele>139.8</ele>
        <time>2020-07-20T08:51:11Z</time>
      </trkpt>
      <trkpt lat="42.4141510" lon="3.0125450">
        <ele>141.0</ele>
        <time>2020-07-20T08:51:15Z</time>
      </trkpt>
      <trkpt lat="42.4141840" lon="3.0125520">
        <ele>141.2</ele>
        <time>2020-07-20T08:51:16Z</time>
      </trkpt>
      <trkpt lat="42.4142170" lon="3.0125600">
        <ele>141.4</ele>
        <time>2020-07-20T08:51:17Z</time>
      </trkpt>
      <trkpt lat="42.4143320" lon="3.0126370">
        <ele>142.2</ele>
        <time>2020-07-20T08:51:21Z</time>
      </trkpt>
      <trkpt lat="42.4143530" lon="3.0126690">
        <ele>142.4</ele>
        <time>2020-07-20T08:51:22Z</time>
      </trkpt>
      <trkpt lat="42.4144170" lon="3.0127610">
        <ele>143.6</ele>
        <time>2020-07-20T08:51:25Z</time>
      </trkpt>
      <trkpt lat="42.4145380" lon="3.0128660">
        <ele>144.8</ele>
        <time>2020-07-20T08:51:30Z</time>
      </trkpt>
      <trkpt lat="42.4146410" lon="3.0129010">
        <ele>146.0</ele>
        <time>2020-07-20T08:51:34Z</time>
      </trkpt>
      <trkpt lat="42.4147200" lon="3.0129020">
        <ele>146.8</ele>
        <time>2020-07-20T08:51:37Z</time>
      </trkpt>
      <trkpt lat="42.4147470" lon="3.0129000">
        <ele>147.0</ele>
        <time>2020-07-20T08:51:38Z</time>
      </trkpt>
      <trkpt lat="42.4148270" lon="3.0128910">
        <ele>148.2</ele>
        <time>2020-07-20T08:51:41Z</time>
      </trkpt>
      <trkpt lat="42.4149310" lon="3.0128900">
        <ele>149.2</ele>
        <time>2020-07-20T08:51:45Z</time>
      </trkpt>
      <trkpt lat="42.4150340" lon="3.0128940">
        <ele>150.4</ele>
        <time>2020-07-20T08:51:49Z</time>
      </trkpt>
      <trkpt lat="42.4151090" lon="3.0129280">
        <ele>151.2</ele>
        <time>2020-07-20T08:51:52Z</time>
      </trkpt>
      <trkpt lat="42.4151320" lon="3.0129450">
        <ele>151.6</ele>
        <time>2020-07-20T08:51:53Z</time>
      </trkpt>
      <trkpt lat="42.4151880" lon="3.0130240">
        <ele>152.8</ele>
        <time>2020-07-20T08:51:56Z</time>
      </trkpt>
      <trkpt lat="42.4152200" lon="3.0130860">
        <ele>153.2</ele>
        <time>2020-07-20T08:51:58Z</time>
      </trkpt>
      <trkpt lat="42.4152640" lon="3.0132220">
        <ele>154.0</ele>
        <time>2020-07-20T08:52:02Z</time>
      </trkpt>
      <trkpt lat="42.4152910" lon="3.0133280">
        <ele>155.4</ele>
        <time>2020-07-20T08:52:05Z</time>
      </trkpt>
      <trkpt lat="42.4152990" lon="3.0133640">
        <ele>155.6</ele>
        <time>2020-07-20T08:52:06Z</time>
      </trkpt>
      <trkpt lat="42.4153360" lon="3.0134770">
        <ele>156.4</ele>
        <time>2020-07-20T08:52:09Z</time>
      </trkpt>
      <trkpt lat="42.4153980" lon="3.0136330">
        <ele>157.4</ele>
        <time>2020-07-20T08:52:13Z</time>
      </trkpt>
      <trkpt lat="42.4154170" lon="3.0136700">
        <ele>157.6</ele>
        <time>2020-07-20T08:52:14Z</time>
      </trkpt>
      <trkpt lat="42.4155680" lon="3.0139360">
        <ele>158.0</ele>
        <time>2020-07-20T08:52:20Z</time>
      </trkpt>
      <trkpt lat="42.4157360" lon="3.0141850">
        <ele>156.4</ele>
        <time>2020-07-20T08:52:24Z</time>
      </trkpt>
      <trkpt lat="42.4158240" lon="3.0143610">
        <ele>155.0</ele>
        <time>2020-07-20T08:52:26Z</time>
      </trkpt>
      <trkpt lat="42.4158940" lon="3.0145620">
        <ele>153.6</ele>
        <time>2020-07-20T08:52:28Z</time>
      </trkpt>
      <trkpt lat="42.4160090" lon="3.0149340">
        <ele>152.6</ele>
        <time>2020-07-20T08:52:32Z</time>
      </trkpt>
      <trkpt lat="42.4160280" lon="3.0150160">
        <ele>152.6</ele>
        <time>2020-07-20T08:52:33Z</time>
      </trkpt>
      <trkpt lat="42.4160890" lon="3.0153210">
        <ele>154.0</ele>
        <time>2020-07-20T08:52:37Z</time>
      </trkpt>
      <trkpt lat="42.4161360" lon="3.0155330">
        <ele>155.0</ele>
        <time>2020-07-20T08:52:40Z</time>
      </trkpt>
      <trkpt lat="42.4161550" lon="3.0156000">
        <ele>155.2</ele>
        <time>2020-07-20T08:52:41Z</time>
      </trkpt>
      <trkpt lat="42.4162390" lon="3.0158690">
        <ele>155.4</ele>
        <time>2020-07-20T08:52:45Z</time>
      </trkpt>
      <trkpt lat="42.4162590" lon="3.0159450">
        <ele>155.4</ele>
        <time>2020-07-20T08:52:46Z</time>
      </trkpt>
      <trkpt lat="42.4163080" lon="3.0163560">
        <ele>155.0</ele>
        <time>2020-07-20T08:52:51Z</time>
      </trkpt>
      <trkpt lat="42.4163360" lon="3.0166760">
        <ele>156.4</ele>
        <time>2020-07-20T08:52:56Z</time>
      </trkpt>
      <trkpt lat="42.4163370" lon="3.0167280">
        <ele>157.0</ele>
        <time>2020-07-20T08:52:57Z</time>
      </trkpt>
      <trkpt lat="42.4163390" lon="3.0167790">
        <ele>157.4</ele>
        <time>2020-07-20T08:52:58Z</time>
      </trkpt>
      <trkpt lat="42.4163320" lon="3.0169170">
        <ele>158.6</ele>
        <time>2020-07-20T08:53:01Z</time>
      </trkpt>
      <trkpt lat="42.4163070" lon="3.0170350">
        <ele>159.4</ele>
        <time>2020-07-20T08:53:04Z</time>
      </trkpt>
      <trkpt lat="42.4162960" lon="3.0170700">
        <ele>159.6</ele>
        <time>2020-07-20T08:53:05Z</time>
      </trkpt>
      <trkpt lat="42.4162850" lon="3.0171030">
        <ele>159.8</ele>
        <time>2020-07-20T08:53:06Z</time>
      </trkpt>
      <trkpt lat="42.4162290" lon="3.0172630">
        <ele>161.0</ele>
        <time>2020-07-20T08:53:11Z</time>
      </trkpt>
      <trkpt lat="42.4161930" lon="3.0173530">
        <ele>162.2</ele>
        <time>2020-07-20T08:53:14Z</time>
      </trkpt>
      <trkpt lat="42.4161630" lon="3.0174440">
        <ele>163.2</ele>
        <time>2020-07-20T08:53:17Z</time>
      </trkpt>
      <trkpt lat="42.4161420" lon="3.0175040">
        <ele>164.0</ele>
        <time>2020-07-20T08:53:19Z</time>
      </trkpt>
      <trkpt lat="42.4161230" lon="3.0175600">
        <ele>164.4</ele>
        <time>2020-07-20T08:53:21Z</time>
      </trkpt>
      <trkpt lat="42.4160880" lon="3.0176740">
        <ele>165.6</ele>
        <time>2020-07-20T08:53:25Z</time>
      </trkpt>
      <trkpt lat="42.4160690" lon="3.0177230">
        <ele>166.2</ele>
        <time>2020-07-20T08:53:27Z</time>
      </trkpt>
      <trkpt lat="42.4160370" lon="3.0177960">
        <ele>166.8</ele>
        <time>2020-07-20T08:53:30Z</time>
      </trkpt>
      <trkpt lat="42.4160190" lon="3.0178510">
        <ele>167.4</ele>
        <time>2020-07-20T08:53:32Z</time>
      </trkpt>
      <trkpt lat="42.4160060" lon="3.0179050">
        <ele>168.0</ele>
        <time>2020-07-20T08:53:34Z</time>
      </trkpt>
      <trkpt lat="42.4159780" lon="3.0180700">
        <ele>169.2</ele>
        <time>2020-07-20T08:53:40Z</time>
      </trkpt>
      <trkpt lat="42.4159780" lon="3.0181020">
        <ele>169.4</ele>
        <time>2020-07-20T08:53:41Z</time>
      </trkpt>
      <trkpt lat="42.4160010" lon="3.0182410">
        <ele>170.4</ele>
        <time>2020-07-20T08:53:45Z</time>
      </trkpt>
      <trkpt lat="42.4160300" lon="3.0183150">
        <ele>170.8</ele>
        <time>2020-07-20T08:53:47Z</time>
      </trkpt>
      <trkpt lat="42.4161760" lon="3.0184440">
        <ele>171.0</ele>
        <time>2020-07-20T08:53:52Z</time>
      </trkpt>
      <trkpt lat="42.4164160" lon="3.0185630">
        <ele>171.0</ele>
        <time>2020-07-20T08:53:58Z</time>
      </trkpt>
      <trkpt lat="42.4166370" lon="3.0186660">
        <ele>170.0</ele>
        <time>2020-07-20T08:54:02Z</time>
      </trkpt>
      <trkpt lat="42.4167550" lon="3.0187130">
        <ele>169.4</ele>
        <time>2020-07-20T08:54:04Z</time>
      </trkpt>
      <trkpt lat="42.4168170" lon="3.0187390">
        <ele>169.2</ele>
        <time>2020-07-20T08:54:05Z</time>
      </trkpt>
      <trkpt lat="42.4170820" lon="3.0188300">
        <ele>168.2</ele>
        <time>2020-07-20T08:54:09Z</time>
      </trkpt>
      <trkpt lat="42.4171490" lon="3.0188570">
        <ele>168.0</ele>
        <time>2020-07-20T08:54:10Z</time>
      </trkpt>
      <trkpt lat="42.4172130" lon="3.0188950">
        <ele>167.8</ele>
        <time>2020-07-20T08:54:11Z</time>
      </trkpt>
      <trkpt lat="42.4172710" lon="3.0189450">
        <ele>167.8</ele>
        <time>2020-07-20T08:54:12Z</time>
      </trkpt>
      <trkpt lat="42.4174170" lon="3.0191140">
        <ele>167.6</ele>
        <time>2020-07-20T08:54:15Z</time>
      </trkpt>
      <trkpt lat="42.4175090" lon="3.0192160">
        <ele>167.8</ele>
        <time>2020-07-20T08:54:17Z</time>
      </trkpt>
      <trkpt lat="42.4176040" lon="3.0193070">
        <ele>168.0</ele>
        <time>2020-07-20T08:54:19Z</time>
      </trkpt>
      <trkpt lat="42.4176580" lon="3.0193460">
        <ele>168.2</ele>
        <time>2020-07-20T08:54:20Z</time>
      </trkpt>
      <trkpt lat="42.4177140" lon="3.0193740">
        <ele>168.4</ele>
        <time>2020-07-20T08:54:21Z</time>
      </trkpt>
      <trkpt lat="42.4177720" lon="3.0193860">
        <ele>168.4</ele>
        <time>2020-07-20T08:54:22Z</time>
      </trkpt>
      <trkpt lat="42.4178930" lon="3.0193720">
        <ele>168.8</ele>
        <time>2020-07-20T08:54:24Z</time>
      </trkpt>
      <trkpt lat="42.4180060" lon="3.0193120">
        <ele>169.2</ele>
        <time>2020-07-20T08:54:26Z</time>
      </trkpt>
      <trkpt lat="42.4181620" lon="3.0191890">
        <ele>169.8</ele>
        <time>2020-07-20T08:54:29Z</time>
      </trkpt>
      <trkpt lat="42.4182610" lon="3.0191040">
        <ele>170.2</ele>
        <time>2020-07-20T08:54:31Z</time>
      </trkpt>
      <trkpt lat="42.4185030" lon="3.0189180">
        <ele>171.0</ele>
        <time>2020-07-20T08:54:36Z</time>
      </trkpt>
      <trkpt lat="42.4185550" lon="3.0188990">
        <ele>171.2</ele>
        <time>2020-07-20T08:54:37Z</time>
      </trkpt>
      <trkpt lat="42.4186560" lon="3.0189050">
        <ele>171.6</ele>
        <time>2020-07-20T08:54:39Z</time>
      </trkpt>
      <trkpt lat="42.4187000" lon="3.0189270">
        <ele>171.8</ele>
        <time>2020-07-20T08:54:40Z</time>
      </trkpt>
      <trkpt lat="42.4187380" lon="3.0189590">
        <ele>172.0</ele>
        <time>2020-07-20T08:54:41Z</time>
      </trkpt>
      <trkpt lat="42.4188010" lon="3.0190300">
        <ele>172.6</ele>
        <time>2020-07-20T08:54:43Z</time>
      </trkpt>
      <trkpt lat="42.4188220" lon="3.0190660">
        <ele>173.0</ele>
        <time>2020-07-20T08:54:44Z</time>
      </trkpt>
      <trkpt lat="42.4188490" lon="3.0191450">
        <ele>173.6</ele>
        <time>2020-07-20T08:54:46Z</time>
      </trkpt>
      <trkpt lat="42.4188490" lon="3.0192650">
        <ele>174.6</ele>
        <time>2020-07-20T08:54:49Z</time>
      </trkpt>
      <trkpt lat="42.4188410" lon="3.0193030">
        <ele>175.0</ele>
        <time>2020-07-20T08:54:50Z</time>
      </trkpt>
      <trkpt lat="42.4188130" lon="3.0194080">
        <ele>176.0</ele>
        <time>2020-07-20T08:54:53Z</time>
      </trkpt>
      <trkpt lat="42.4188030" lon="3.0194440">
        <ele>176.4</ele>
        <time>2020-07-20T08:54:54Z</time>
      </trkpt>
      <trkpt lat="42.4187920" lon="3.0194790">
        <ele>176.6</ele>
        <time>2020-07-20T08:54:55Z</time>
      </trkpt>
      <trkpt lat="42.4187670" lon="3.0195530">
        <ele>177.0</ele>
        <time>2020-07-20T08:54:57Z</time>
      </trkpt>
      <trkpt lat="42.4187370" lon="3.0196730">
        <ele>177.6</ele>
        <time>2020-07-20T08:55:00Z</time>
      </trkpt>
      <trkpt lat="42.4187260" lon="3.0197140">
        <ele>177.8</ele>
        <time>2020-07-20T08:55:01Z</time>
      </trkpt>
      <trkpt lat="42.4187040" lon="3.0198010">
        <ele>178.2</ele>
        <time>2020-07-20T08:55:03Z</time>
      </trkpt>
      <trkpt lat="42.4186780" lon="3.0200180">
        <ele>178.6</ele>
        <time>2020-07-20T08:55:07Z</time>
      </trkpt>
      <trkpt lat="42.4186810" lon="3.0201340">
        <ele>179.0</ele>
        <time>2020-07-20T08:55:09Z</time>
      </trkpt>
      <trkpt lat="42.4186880" lon="3.0202530">
        <ele>179.2</ele>
        <time>2020-07-20T08:55:11Z</time>
      </trkpt>
      <trkpt lat="42.4186970" lon="3.0203130">
        <ele>179.2</ele>
        <time>2020-07-20T08:55:12Z</time>
      </trkpt>
      <trkpt lat="42.4187420" lon="3.0204870">
        <ele>179.6</ele>
        <time>2020-07-20T08:55:15Z</time>
      </trkpt>
      <trkpt lat="42.4188110" lon="3.0206450">
        <ele>180.0</ele>
        <time>2020-07-20T08:55:18Z</time>
      </trkpt>
      <trkpt lat="42.4188570" lon="3.0207380">
        <ele>180.4</ele>
        <time>2020-07-20T08:55:20Z</time>
      </trkpt>
      <trkpt lat="42.4189000" lon="3.0208210">
        <ele>181.0</ele>
        <time>2020-07-20T08:55:22Z</time>
      </trkpt>
      <trkpt lat="42.4189490" lon="3.0208950">
        <ele>181.6</ele>
        <time>2020-07-20T08:55:24Z</time>
      </trkpt>
      <trkpt lat="42.4190810" lon="3.0210490">
        <ele>182.6</ele>
        <time>2020-07-20T08:55:29Z</time>
      </trkpt>
      <trkpt lat="42.4191110" lon="3.0210750">
        <ele>182.6</ele>
        <time>2020-07-20T08:55:30Z</time>
      </trkpt>
      <trkpt lat="42.4192740" lon="3.0211720">
        <ele>183.0</ele>
        <time>2020-07-20T08:55:35Z</time>
      </trkpt>
      <trkpt lat="42.4193500" lon="3.0212410">
        <ele>183.2</ele>
        <time>2020-07-20T08:55:37Z</time>
      </trkpt>
      <trkpt lat="42.4194090" lon="3.0213460">
        <ele>183.2</ele>
        <time>2020-07-20T08:55:39Z</time>
      </trkpt>
      <trkpt lat="42.4194380" lon="3.0214680">
        <ele>183.2</ele>
        <time>2020-07-20T08:55:41Z</time>
      </trkpt>
      <trkpt lat="42.4194410" lon="3.0215830">
        <ele>183.6</ele>
        <time>2020-07-20T08:55:43Z</time>
      </trkpt>
      <trkpt lat="42.4194380" lon="3.0216340">
        <ele>184.0</ele>
        <time>2020-07-20T08:55:44Z</time>
      </trkpt>
      <trkpt lat="42.4194320" lon="3.0217760">
        <ele>185.2</ele>
        <time>2020-07-20T08:55:47Z</time>
      </trkpt>
      <trkpt lat="42.4194170" lon="3.0219200">
        <ele>185.8</ele>
        <time>2020-07-20T08:55:50Z</time>
      </trkpt>
      <trkpt lat="42.4194120" lon="3.0219700">
        <ele>186.2</ele>
        <time>2020-07-20T08:55:51Z</time>
      </trkpt>
      <trkpt lat="42.4194010" lon="3.0221190">
        <ele>187.4</ele>
        <time>2020-07-20T08:55:54Z</time>
      </trkpt>
      <trkpt lat="42.4193850" lon="3.0223550">
        <ele>188.6</ele>
        <time>2020-07-20T08:55:59Z</time>
      </trkpt>
      <trkpt lat="42.4193820" lon="3.0224020">
        <ele>188.8</ele>
        <time>2020-07-20T08:56:00Z</time>
      </trkpt>
      <trkpt lat="42.4193820" lon="3.0224500">
        <ele>189.0</ele>
        <time>2020-07-20T08:56:01Z</time>
      </trkpt>
      <trkpt lat="42.4193940" lon="3.0225970">
        <ele>189.6</ele>
        <time>2020-07-20T08:56:04Z</time>
      </trkpt>
      <trkpt lat="42.4194040" lon="3.0226410">
        <ele>189.8</ele>
        <time>2020-07-20T08:56:05Z</time>
      </trkpt>
      <trkpt lat="42.4194290" lon="3.0227350">
        <ele>190.2</ele>
        <time>2020-07-20T08:56:07Z</time>
      </trkpt>
      <trkpt lat="42.4194990" lon="3.0229450">
        <ele>190.6</ele>
        <time>2020-07-20T08:56:11Z</time>
      </trkpt>
      <trkpt lat="42.4195230" lon="3.0230060">
        <ele>190.6</ele>
        <time>2020-07-20T08:56:12Z</time>
      </trkpt>
      <trkpt lat="42.4195820" lon="3.0231420">
        <ele>190.2</ele>
        <time>2020-07-20T08:56:14Z</time>
      </trkpt>
      <trkpt lat="42.4196570" lon="3.0232910">
        <ele>189.2</ele>
        <time>2020-07-20T08:56:16Z</time>
      </trkpt>
      <trkpt lat="42.4197000" lon="3.0233690">
        <ele>188.4</ele>
        <time>2020-07-20T08:56:17Z</time>
      </trkpt>
      <trkpt lat="42.4197450" lon="3.0234490">
        <ele>188.0</ele>
        <time>2020-07-20T08:56:18Z</time>
      </trkpt>
      <trkpt lat="42.4200030" lon="3.0237910">
        <ele>187.0</ele>
        <time>2020-07-20T08:56:23Z</time>
      </trkpt>
      <trkpt lat="42.4201160" lon="3.0238670">
        <ele>187.2</ele>
        <time>2020-07-20T08:56:25Z</time>
      </trkpt>
      <trkpt lat="42.4202300" lon="3.0239000">
        <ele>187.4</ele>
        <time>2020-07-20T08:56:27Z</time>
      </trkpt>
      <trkpt lat="42.4203450" lon="3.0239030">
        <ele>187.6</ele>
        <time>2020-07-20T08:56:29Z</time>
      </trkpt>
      <trkpt lat="42.4205120" lon="3.0238690">
        <ele>187.6</ele>
        <time>2020-07-20T08:56:32Z</time>
      </trkpt>
      <trkpt lat="42.4208250" lon="3.0238020">
        <ele>187.8</ele>
        <time>2020-07-20T08:56:38Z</time>
      </trkpt>
      <trkpt lat="42.4209240" lon="3.0237810">
        <ele>188.0</ele>
        <time>2020-07-20T08:56:40Z</time>
      </trkpt>
      <trkpt lat="42.4211640" lon="3.0237230">
        <ele>188.0</ele>
        <time>2020-07-20T08:56:45Z</time>
      </trkpt>
      <trkpt lat="42.4213130" lon="3.0236900">
        <ele>188.0</ele>
        <time>2020-07-20T08:56:48Z</time>
      </trkpt>
      <trkpt lat="42.4213660" lon="3.0236760">
        <ele>188.0</ele>
        <time>2020-07-20T08:56:49Z</time>
      </trkpt>
      <trkpt lat="42.4215330" lon="3.0236140">
        <ele>187.6</ele>
        <time>2020-07-20T08:56:52Z</time>
      </trkpt>
      <trkpt lat="42.4217730" lon="3.0234930">
        <ele>186.8</ele>
        <time>2020-07-20T08:56:56Z</time>
      </trkpt>
      <trkpt lat="42.4220380" lon="3.0233130">
        <ele>185.4</ele>
        <time>2020-07-20T08:57:00Z</time>
      </trkpt>
      <trkpt lat="42.4221090" lon="3.0232540">
        <ele>184.4</ele>
        <time>2020-07-20T08:57:01Z</time>
      </trkpt>
      <trkpt lat="42.4221820" lon="3.0231900">
        <ele>183.4</ele>
        <time>2020-07-20T08:57:02Z</time>
      </trkpt>
      <trkpt lat="42.4223230" lon="3.0230580">
        <ele>182.2</ele>
        <time>2020-07-20T08:57:04Z</time>
      </trkpt>
      <trkpt lat="42.4225340" lon="3.0228310">
        <ele>181.4</ele>
        <time>2020-07-20T08:57:07Z</time>
      </trkpt>
      <trkpt lat="42.4226730" lon="3.0226670">
        <ele>180.8</ele>
        <time>2020-07-20T08:57:09Z</time>
      </trkpt>
      <trkpt lat="42.4228430" lon="3.0224350">
        <ele>179.8</ele>
        <time>2020-07-20T08:57:12Z</time>
      </trkpt>
      <trkpt lat="42.4228890" lon="3.0223750">
        <ele>179.6</ele>
        <time>2020-07-20T08:57:13Z</time>
      </trkpt>
      <trkpt lat="42.4230360" lon="3.0221880">
        <ele>179.0</ele>
        <time>2020-07-20T08:57:17Z</time>
      </trkpt>
      <trkpt lat="42.4231150" lon="3.0220900">
        <ele>178.4</ele>
        <time>2020-07-20T08:57:20Z</time>
      </trkpt>
      <trkpt lat="42.4231930" lon="3.0220130">
        <ele>178.0</ele>
        <time>2020-07-20T08:57:22Z</time>
      </trkpt>
      <trkpt lat="42.4232420" lon="3.0219760">
        <ele>177.6</ele>
        <time>2020-07-20T08:57:23Z</time>
      </trkpt>
      <trkpt lat="42.4232990" lon="3.0219470">
        <ele>177.4</ele>
        <time>2020-07-20T08:57:24Z</time>
      </trkpt>
      <trkpt lat="42.4234230" lon="3.0218980">
        <ele>176.8</ele>
        <time>2020-07-20T08:57:26Z</time>
      </trkpt>
      <trkpt lat="42.4236200" lon="3.0218180">
        <ele>176.0</ele>
        <time>2020-07-20T08:57:29Z</time>
      </trkpt>
      <trkpt lat="42.4237560" lon="3.0217350">
        <ele>175.2</ele>
        <time>2020-07-20T08:57:31Z</time>
      </trkpt>
      <trkpt lat="42.4238280" lon="3.0216920">
        <ele>174.6</ele>
        <time>2020-07-20T08:57:32Z</time>
      </trkpt>
      <trkpt lat="42.4241550" lon="3.0215530">
        <ele>173.4</ele>
        <time>2020-07-20T08:57:36Z</time>
      </trkpt>
      <trkpt lat="42.4243340" lon="3.0215450">
        <ele>172.2</ele>
        <time>2020-07-20T08:57:38Z</time>
      </trkpt>
      <trkpt lat="42.4244200" lon="3.0215860">
        <ele>171.6</ele>
        <time>2020-07-20T08:57:39Z</time>
      </trkpt>
      <trkpt lat="42.4244950" lon="3.0216500">
        <ele>170.8</ele>
        <time>2020-07-20T08:57:40Z</time>
      </trkpt>
      <trkpt lat="42.4246090" lon="3.0218220">
        <ele>170.0</ele>
        <time>2020-07-20T08:57:42Z</time>
      </trkpt>
      <trkpt lat="42.4246550" lon="3.0219170">
        <ele>169.8</ele>
        <time>2020-07-20T08:57:43Z</time>
      </trkpt>
      <trkpt lat="42.4247370" lon="3.0221080">
        <ele>169.6</ele>
        <time>2020-07-20T08:57:45Z</time>
      </trkpt>
      <trkpt lat="42.4248100" lon="3.0222850">
        <ele>169.8</ele>
        <time>2020-07-20T08:57:47Z</time>
      </trkpt>
      <trkpt lat="42.4249340" lon="3.0225930">
        <ele>170.6</ele>
        <time>2020-07-20T08:57:51Z</time>
      </trkpt>
      <trkpt lat="42.4249610" lon="3.0226640">
        <ele>171.0</ele>
        <time>2020-07-20T08:57:52Z</time>
      </trkpt>
      <trkpt lat="42.4249860" lon="3.0227330">
        <ele>171.4</ele>
        <time>2020-07-20T08:57:53Z</time>
      </trkpt>
      <trkpt lat="42.4250100" lon="3.0227980">
        <ele>172.0</ele>
        <time>2020-07-20T08:57:54Z</time>
      </trkpt>
      <trkpt lat="42.4250560" lon="3.0229150">
        <ele>173.2</ele>
        <time>2020-07-20T08:57:56Z</time>
      </trkpt>
      <trkpt lat="42.4250960" lon="3.0230180">
        <ele>174.0</ele>
        <time>2020-07-20T08:57:58Z</time>
      </trkpt>
      <trkpt lat="42.4251120" lon="3.0230650">
        <ele>174.4</ele>
        <time>2020-07-20T08:57:59Z</time>
      </trkpt>
      <trkpt lat="42.4251770" lon="3.0232460">
        <ele>175.4</ele>
        <time>2020-07-20T08:58:03Z</time>
      </trkpt>
      <trkpt lat="42.4252120" lon="3.0233360">
        <ele>176.2</ele>
        <time>2020-07-20T08:58:05Z</time>
      </trkpt>
      <trkpt lat="42.4252320" lon="3.0233820">
        <ele>176.4</ele>
        <time>2020-07-20T08:58:06Z</time>
      </trkpt>
      <trkpt lat="42.4252540" lon="3.0234270">
        <ele>176.4</ele>
        <time>2020-07-20T08:58:07Z</time>
      </trkpt>
      <trkpt lat="42.4253670" lon="3.0236850">
        <ele>176.4</ele>
        <time>2020-07-20T08:58:12Z</time>
      </trkpt>
      <trkpt lat="42.4253960" lon="3.0237420">
        <ele>176.4</ele>
        <time>2020-07-20T08:58:13Z</time>
      </trkpt>
      <trkpt lat="42.4255400" lon="3.0240020">
        <ele>175.2</ele>
        <time>2020-07-20T08:58:17Z</time>
      </trkpt>
      <trkpt lat="42.4256260" lon="3.0241470">
        <ele>174.4</ele>
        <time>2020-07-20T08:58:19Z</time>
      </trkpt>
      <trkpt lat="42.4256720" lon="3.0242220">
        <ele>174.0</ele>
        <time>2020-07-20T08:58:20Z</time>
      </trkpt>
      <trkpt lat="42.4259080" lon="3.0246210">
        <ele>172.8</ele>
        <time>2020-07-20T08:58:25Z</time>
      </trkpt>
      <trkpt lat="42.4260070" lon="3.0247870">
        <ele>172.4</ele>
        <time>2020-07-20T08:58:27Z</time>
      </trkpt>
      <trkpt lat="42.4262860" lon="3.0252680">
        <ele>172.6</ele>
        <time>2020-07-20T08:58:33Z</time>
      </trkpt>
      <trkpt lat="42.4263670" lon="3.0254120">
        <ele>172.8</ele>
        <time>2020-07-20T08:58:35Z</time>
      </trkpt>
      <trkpt lat="42.4265930" lon="3.0258090">
        <ele>173.6</ele>
        <time>2020-07-20T08:58:41Z</time>
      </trkpt>
      <trkpt lat="42.4266610" lon="3.0259320">
        <ele>173.8</ele>
        <time>2020-07-20T08:58:43Z</time>
      </trkpt>
      <trkpt lat="42.4266910" lon="3.0259900">
        <ele>174.0</ele>
        <time>2020-07-20T08:58:44Z</time>
      </trkpt>
      <trkpt lat="42.4267720" lon="3.0261460">
        <ele>175.0</ele>
        <time>2020-07-20T08:58:47Z</time>
      </trkpt>
      <trkpt lat="42.4268420" lon="3.0262760">
        <ele>176.2</ele>
        <time>2020-07-20T08:58:50Z</time>
      </trkpt>
      <trkpt lat="42.4268830" lon="3.0263540">
        <ele>177.4</ele>
        <time>2020-07-20T08:58:52Z</time>
      </trkpt>
      <trkpt lat="42.4269520" lon="3.0264440">
        <ele>178.6</ele>
        <time>2020-07-20T08:58:55Z</time>
      </trkpt>
      <trkpt lat="42.4269800" lon="3.0264720">
        <ele>179.0</ele>
        <time>2020-07-20T08:58:56Z</time>
      </trkpt>
      <trkpt lat="42.4270700" lon="3.0265550">
        <ele>179.8</ele>
        <time>2020-07-20T08:58:59Z</time>
      </trkpt>
      <trkpt lat="42.4272340" lon="3.0266710">
        <ele>180.6</ele>
        <time>2020-07-20T08:59:04Z</time>
      </trkpt>
      <trkpt lat="42.4272710" lon="3.0266950">
        <ele>180.8</ele>
        <time>2020-07-20T08:59:05Z</time>
      </trkpt>
      <trkpt lat="42.4274790" lon="3.0268530">
        <ele>181.2</ele>
        <time>2020-07-20T08:59:11Z</time>
      </trkpt>
      <trkpt lat="42.4275450" lon="3.0269070">
        <ele>181.2</ele>
        <time>2020-07-20T08:59:13Z</time>
      </trkpt>
      <trkpt lat="42.4276330" lon="3.0269970">
        <ele>182.0</ele>
        <time>2020-07-20T08:59:16Z</time>
      </trkpt>
      <trkpt lat="42.4277770" lon="3.0271520">
        <ele>183.0</ele>
        <time>2020-07-20T08:59:21Z</time>
      </trkpt>
      <trkpt lat="42.4278070" lon="3.0271820">
        <ele>183.4</ele>
        <time>2020-07-20T08:59:22Z</time>
      </trkpt>
      <trkpt lat="42.4279270" lon="3.0273000">
        <ele>184.2</ele>
        <time>2020-07-20T08:59:26Z</time>
      </trkpt>
      <trkpt lat="42.4280430" lon="3.0274530">
        <ele>184.4</ele>
        <time>2020-07-20T08:59:30Z</time>
      </trkpt>
      <trkpt lat="42.4280680" lon="3.0274950">
        <ele>184.6</ele>
        <time>2020-07-20T08:59:31Z</time>
      </trkpt>
      <trkpt lat="42.4281350" lon="3.0276340">
        <ele>185.2</ele>
        <time>2020-07-20T08:59:34Z</time>
      </trkpt>
      <trkpt lat="42.4281790" lon="3.0277360">
        <ele>185.4</ele>
        <time>2020-07-20T08:59:36Z</time>
      </trkpt>
      <trkpt lat="42.4283140" lon="3.0279700">
        <ele>186.0</ele>
        <time>2020-07-20T08:59:41Z</time>
      </trkpt>
      <trkpt lat="42.4283750" lon="3.0280460">
        <ele>186.0</ele>
        <time>2020-07-20T08:59:43Z</time>
      </trkpt>
      <trkpt lat="42.4284070" lon="3.0280770">
        <ele>186.2</ele>
        <time>2020-07-20T08:59:44Z</time>
      </trkpt>
      <trkpt lat="42.4285790" lon="3.0281660">
        <ele>186.4</ele>
        <time>2020-07-20T08:59:48Z</time>
      </trkpt>
      <trkpt lat="42.4287230" lon="3.0282200">
        <ele>186.8</ele>
        <time>2020-07-20T08:59:51Z</time>
      </trkpt>
      <trkpt lat="42.4288240" lon="3.0282390">
        <ele>186.8</ele>
        <time>2020-07-20T08:59:53Z</time>
      </trkpt>
      <trkpt lat="42.4289270" lon="3.0282420">
        <ele>186.8</ele>
        <time>2020-07-20T08:59:55Z</time>
      </trkpt>
      <trkpt lat="42.4289790" lon="3.0282370">
        <ele>186.8</ele>
        <time>2020-07-20T08:59:56Z</time>
      </trkpt>
      <trkpt lat="42.4290770" lon="3.0282170">
        <ele>186.8</ele>
        <time>2020-07-20T08:59:58Z</time>
      </trkpt>
      <trkpt lat="42.4291740" lon="3.0281950">
        <ele>187.0</ele>
        <time>2020-07-20T09:00:00Z</time>
      </trkpt>
      <trkpt lat="42.4292250" lon="3.0281840">
        <ele>187.0</ele>
        <time>2020-07-20T09:00:01Z</time>
      </trkpt>
      <trkpt lat="42.4294330" lon="3.0281130">
        <ele>187.2</ele>
        <time>2020-07-20T09:00:05Z</time>
      </trkpt>
      <trkpt lat="42.4296390" lon="3.0280310">
        <ele>187.6</ele>
        <time>2020-07-20T09:00:09Z</time>
      </trkpt>
      <trkpt lat="42.4298790" lon="3.0278960">
        <ele>187.8</ele>
        <time>2020-07-20T09:00:14Z</time>
      </trkpt>
      <trkpt lat="42.4299180" lon="3.0278410">
        <ele>187.8</ele>
        <time>2020-07-20T09:00:15Z</time>
      </trkpt>
      <trkpt lat="42.4299540" lon="3.0277780">
        <ele>187.6</ele>
        <time>2020-07-20T09:00:16Z</time>
      </trkpt>
      <trkpt lat="42.4300240" lon="3.0276320">
        <ele>187.2</ele>
        <time>2020-07-20T09:00:18Z</time>
      </trkpt>
      <trkpt lat="42.4300660" lon="3.0275580">
        <ele>187.0</ele>
        <time>2020-07-20T09:00:19Z</time>
      </trkpt>
      <trkpt lat="42.4301190" lon="3.0274950">
        <ele>186.8</ele>
        <time>2020-07-20T09:00:20Z</time>
      </trkpt>
      <trkpt lat="42.4301850" lon="3.0274470">
        <ele>186.4</ele>
        <time>2020-07-20T09:00:21Z</time>
      </trkpt>
      <trkpt lat="42.4302560" lon="3.0274070">
        <ele>185.8</ele>
        <time>2020-07-20T09:00:22Z</time>
      </trkpt>
      <trkpt lat="42.4303270" lon="3.0273710">
        <ele>185.0</ele>
        <time>2020-07-20T09:00:23Z</time>
      </trkpt>
      <trkpt lat="42.4303970" lon="3.0273400">
        <ele>184.4</ele>
        <time>2020-07-20T09:00:24Z</time>
      </trkpt>
      <trkpt lat="42.4307260" lon="3.0272230">
        <ele>183.8</ele>
        <time>2020-07-20T09:00:29Z</time>
      </trkpt>
      <trkpt lat="42.4311030" lon="3.0272320">
        <ele>184.6</ele>
        <time>2020-07-20T09:00:35Z</time>
      </trkpt>
      <trkpt lat="42.4312620" lon="3.0272840">
        <ele>185.6</ele>
        <time>2020-07-20T09:00:38Z</time>
      </trkpt>
      <trkpt lat="42.4314080" lon="3.0273570">
        <ele>186.8</ele>
        <time>2020-07-20T09:00:41Z</time>
      </trkpt>
      <trkpt lat="42.4315920" lon="3.0274710">
        <ele>188.0</ele>
        <time>2020-07-20T09:00:45Z</time>
      </trkpt>
      <trkpt lat="42.4317240" lon="3.0275700">
        <ele>188.6</ele>
        <time>2020-07-20T09:00:48Z</time>
      </trkpt>
      <trkpt lat="42.4318060" lon="3.0276430">
        <ele>188.8</ele>
        <time>2020-07-20T09:00:50Z</time>
      </trkpt>
      <trkpt lat="42.4318480" lon="3.0276790">
        <ele>189.2</ele>
        <time>2020-07-20T09:00:51Z</time>
      </trkpt>
      <trkpt lat="42.4318910" lon="3.0277150">
        <ele>189.4</ele>
        <time>2020-07-20T09:00:52Z</time>
      </trkpt>
      <trkpt lat="42.4320130" lon="3.0278400">
        <ele>190.2</ele>
        <time>2020-07-20T09:00:55Z</time>
      </trkpt>
      <trkpt lat="42.4320480" lon="3.0278920">
        <ele>190.2</ele>
        <time>2020-07-20T09:00:56Z</time>
      </trkpt>
      <trkpt lat="42.4321920" lon="3.0281970">
        <ele>191.4</ele>
        <time>2020-07-20T09:01:02Z</time>
      </trkpt>
      <trkpt lat="42.4322220" lon="3.0282940">
        <ele>192.0</ele>
        <time>2020-07-20T09:01:04Z</time>
      </trkpt>
      <trkpt lat="42.4322350" lon="3.0283410">
        <ele>192.4</ele>
        <time>2020-07-20T09:01:05Z</time>
      </trkpt>
      <trkpt lat="42.4322690" lon="3.0284720">
        <ele>193.6</ele>
        <time>2020-07-20T09:01:08Z</time>
      </trkpt>
      <trkpt lat="42.4322880" lon="3.0285570">
        <ele>194.4</ele>
        <time>2020-07-20T09:01:10Z</time>
      </trkpt>
      <trkpt lat="42.4322950" lon="3.0285990">
        <ele>194.8</ele>
        <time>2020-07-20T09:01:11Z</time>
      </trkpt>
      <trkpt lat="42.4323150" lon="3.0287610">
        <ele>196.0</ele>
        <time>2020-07-20T09:01:15Z</time>
      </trkpt>
      <trkpt lat="42.4323210" lon="3.0288450">
        <ele>196.6</ele>
        <time>2020-07-20T09:01:17Z</time>
      </trkpt>
      <trkpt lat="42.4323270" lon="3.0288840">
        <ele>196.8</ele>
        <time>2020-07-20T09:01:18Z</time>
      </trkpt>
      <trkpt lat="42.4323320" lon="3.0289240">
        <ele>197.2</ele>
        <time>2020-07-20T09:01:19Z</time>
      </trkpt>
      <trkpt lat="42.4323420" lon="3.0290350">
        <ele>197.8</ele>
        <time>2020-07-20T09:01:22Z</time>
      </trkpt>
      <trkpt lat="42.4323460" lon="3.0291140">
        <ele>198.2</ele>
        <time>2020-07-20T09:01:24Z</time>
      </trkpt>
      <trkpt lat="42.4323490" lon="3.0291570">
        <ele>198.6</ele>
        <time>2020-07-20T09:01:25Z</time>
      </trkpt>
      <trkpt lat="42.4323680" lon="3.0292930">
        <ele>199.4</ele>
        <time>2020-07-20T09:01:28Z</time>
      </trkpt>
      <trkpt lat="42.4324130" lon="3.0295360">
        <ele>199.8</ele>
        <time>2020-07-20T09:01:33Z</time>
      </trkpt>
      <trkpt lat="42.4324650" lon="3.0298780">
        <ele>200.2</ele>
        <time>2020-07-20T09:01:39Z</time>
      </trkpt>
      <trkpt lat="42.4324750" lon="3.0299410">
        <ele>200.4</ele>
        <time>2020-07-20T09:01:40Z</time>
      </trkpt>
      <trkpt lat="42.4324850" lon="3.0300050">
        <ele>200.4</ele>
        <time>2020-07-20T09:01:41Z</time>
      </trkpt>
      <trkpt lat="42.4325500" lon="3.0304390">
        <ele>200.0</ele>
        <time>2020-07-20T09:01:47Z</time>
      </trkpt>
      <trkpt lat="42.4325970" lon="3.0307100">
        <ele>199.0</ele>
        <time>2020-07-20T09:01:50Z</time>
      </trkpt>
      <trkpt lat="42.4326320" lon="3.0309130">
        <ele>197.8</ele>
        <time>2020-07-20T09:01:52Z</time>
      </trkpt>
      <trkpt lat="42.4326850" lon="3.0312450">
        <ele>196.8</ele>
        <time>2020-07-20T09:01:55Z</time>
      </trkpt>
      <trkpt lat="42.4327390" lon="3.0315760">
        <ele>196.2</ele>
        <time>2020-07-20T09:01:58Z</time>
      </trkpt>
      <trkpt lat="42.4328420" lon="3.0322020">
        <ele>196.6</ele>
        <time>2020-07-20T09:02:04Z</time>
      </trkpt>
      <trkpt lat="42.4328800" lon="3.0324040">
        <ele>197.0</ele>
        <time>2020-07-20T09:02:06Z</time>
      </trkpt>
      <trkpt lat="42.4329500" lon="3.0328030">
        <ele>197.8</ele>
        <time>2020-07-20T09:02:10Z</time>
      </trkpt>
      <trkpt lat="42.4330220" lon="3.0332030">
        <ele>198.0</ele>
        <time>2020-07-20T09:02:14Z</time>
      </trkpt>
      <trkpt lat="42.4330550" lon="3.0334050">
        <ele>198.0</ele>
        <time>2020-07-20T09:02:16Z</time>
      </trkpt>
      <trkpt lat="42.4330980" lon="3.0336990">
        <ele>198.2</ele>
        <time>2020-07-20T09:02:19Z</time>
      </trkpt>
      <trkpt lat="42.4331610" lon="3.0341800">
        <ele>198.2</ele>
        <time>2020-07-20T09:02:24Z</time>
      </trkpt>
      <trkpt lat="42.4332570" lon="3.0347880">
        <ele>197.4</ele>
        <time>2020-07-20T09:02:30Z</time>
      </trkpt>
      <trkpt lat="42.4332770" lon="3.0348980">
        <ele>197.0</ele>
        <time>2020-07-20T09:02:31Z</time>
      </trkpt>
      <trkpt lat="42.4332950" lon="3.0350090">
        <ele>196.6</ele>
        <time>2020-07-20T09:02:32Z</time>
      </trkpt>
      <trkpt lat="42.4333530" lon="3.0353470">
        <ele>195.2</ele>
        <time>2020-07-20T09:02:35Z</time>
      </trkpt>
      <trkpt lat="42.4333870" lon="3.0355600">
        <ele>194.6</ele>
        <time>2020-07-20T09:02:37Z</time>
      </trkpt>
      <trkpt lat="42.4334050" lon="3.0356560">
        <ele>194.6</ele>
        <time>2020-07-20T09:02:38Z</time>
      </trkpt>
      <trkpt lat="42.4334200" lon="3.0357440">
        <ele>194.4</ele>
        <time>2020-07-20T09:02:39Z</time>
      </trkpt>
      <trkpt lat="42.4334330" lon="3.0358250">
        <ele>194.4</ele>
        <time>2020-07-20T09:02:40Z</time>
      </trkpt>
      <trkpt lat="42.4334440" lon="3.0358960">
        <ele>194.4</ele>
        <time>2020-07-20T09:02:41Z</time>
      </trkpt>
      <trkpt lat="42.4334520" lon="3.0359600">
        <ele>194.4</ele>
        <time>2020-07-20T09:02:42Z</time>
      </trkpt>
      <trkpt lat="42.4334710" lon="3.0361390">
        <ele>194.8</ele>
        <time>2020-07-20T09:02:45Z</time>
      </trkpt>
      <trkpt lat="42.4335150" lon="3.0364060">
        <ele>195.6</ele>
        <time>2020-07-20T09:02:49Z</time>
      </trkpt>
      <trkpt lat="42.4335660" lon="3.0366830">
        <ele>196.2</ele>
        <time>2020-07-20T09:02:53Z</time>
      </trkpt>
      <trkpt lat="42.4335890" lon="3.0368190">
        <ele>196.6</ele>
        <time>2020-07-20T09:02:55Z</time>
      </trkpt>
      <trkpt lat="42.4336130" lon="3.0369520">
        <ele>197.0</ele>
        <time>2020-07-20T09:02:57Z</time>
      </trkpt>
      <trkpt lat="42.4336560" lon="3.0372100">
        <ele>197.4</ele>
        <time>2020-07-20T09:03:01Z</time>
      </trkpt>
      <trkpt lat="42.4336830" lon="3.0373360">
        <ele>197.6</ele>
        <time>2020-07-20T09:03:03Z</time>
      </trkpt>
      <trkpt lat="42.4337200" lon="3.0374590">
        <ele>198.0</ele>
        <time>2020-07-20T09:03:05Z</time>
      </trkpt>
      <trkpt lat="42.4337450" lon="3.0375180">
        <ele>198.2</ele>
        <time>2020-07-20T09:03:06Z</time>
      </trkpt>
      <trkpt lat="42.4337750" lon="3.0375770">
        <ele>198.4</ele>
        <time>2020-07-20T09:03:07Z</time>
      </trkpt>
      <trkpt lat="42.4338090" lon="3.0376330">
        <ele>198.6</ele>
        <time>2020-07-20T09:03:08Z</time>
      </trkpt>
      <trkpt lat="42.4338500" lon="3.0376860">
        <ele>199.0</ele>
        <time>2020-07-20T09:03:09Z</time>
      </trkpt>
      <trkpt lat="42.4338950" lon="3.0377350">
        <ele>199.2</ele>
        <time>2020-07-20T09:03:10Z</time>
      </trkpt>
      <trkpt lat="42.4339960" lon="3.0378140">
        <ele>199.4</ele>
        <time>2020-07-20T09:03:12Z</time>
      </trkpt>
      <trkpt lat="42.4341510" lon="3.0379010">
        <ele>199.6</ele>
        <time>2020-07-20T09:03:15Z</time>
      </trkpt>
      <trkpt lat="42.4344250" lon="3.0380270">
        <ele>200.6</ele>
        <time>2020-07-20T09:03:20Z</time>
      </trkpt>
      <trkpt lat="42.4344770" lon="3.0380590">
        <ele>200.8</ele>
        <time>2020-07-20T09:03:21Z</time>
      </trkpt>
      <trkpt lat="42.4345720" lon="3.0381450">
        <ele>201.2</ele>
        <time>2020-07-20T09:03:23Z</time>
      </trkpt>
      <trkpt lat="42.4347720" lon="3.0384260">
        <ele>201.6</ele>
        <time>2020-07-20T09:03:28Z</time>
      </trkpt>
      <trkpt lat="42.4348100" lon="3.0384870">
        <ele>201.6</ele>
        <time>2020-07-20T09:03:29Z</time>
      </trkpt>
      <trkpt lat="42.4350250" lon="3.0387440">
        <ele>201.8</ele>
        <time>2020-07-20T09:03:34Z</time>
      </trkpt>
      <trkpt lat="42.4350710" lon="3.0387820">
        <ele>202.0</ele>
        <time>2020-07-20T09:03:35Z</time>
      </trkpt>
      <trkpt lat="42.4351180" lon="3.0388170">
        <ele>202.2</ele>
        <time>2020-07-20T09:03:36Z</time>
      </trkpt>
      <trkpt lat="42.4352160" lon="3.0388810">
        <ele>202.6</ele>
        <time>2020-07-20T09:03:38Z</time>
      </trkpt>
      <trkpt lat="42.4354130" lon="3.0389940">
        <ele>203.4</ele>
        <time>2020-07-20T09:03:42Z</time>
      </trkpt>
      <trkpt lat="42.4355080" lon="3.0390510">
        <ele>203.6</ele>
        <time>2020-07-20T09:03:44Z</time>
      </trkpt>
      <trkpt lat="42.4356970" lon="3.0391590">
        <ele>204.6</ele>
        <time>2020-07-20T09:03:48Z</time>
      </trkpt>
      <trkpt lat="42.4357430" lon="3.0391850">
        <ele>204.8</ele>
        <time>2020-07-20T09:03:49Z</time>
      </trkpt>
      <trkpt lat="42.4358800" lon="3.0392720">
        <ele>205.4</ele>
        <time>2020-07-20T09:03:52Z</time>
      </trkpt>
      <trkpt lat="42.4359690" lon="3.0393390">
        <ele>205.8</ele>
        <time>2020-07-20T09:03:54Z</time>
      </trkpt>
      <trkpt lat="42.4361460" lon="3.0394760">
        <ele>206.8</ele>
        <time>2020-07-20T09:03:58Z</time>
      </trkpt>
      <trkpt lat="42.4361900" lon="3.0395110">
        <ele>207.0</ele>
        <time>2020-07-20T09:03:59Z</time>
      </trkpt>
      <trkpt lat="42.4362770" lon="3.0395840">
        <ele>207.4</ele>
        <time>2020-07-20T09:04:01Z</time>
      </trkpt>
      <trkpt lat="42.4365430" lon="3.0398010">
        <ele>207.8</ele>
        <time>2020-07-20T09:04:07Z</time>
      </trkpt>
      <trkpt lat="42.4365900" lon="3.0398370">
        <ele>208.0</ele>
        <time>2020-07-20T09:04:08Z</time>
      </trkpt>
      <trkpt lat="42.4366830" lon="3.0399060">
        <ele>208.8</ele>
        <time>2020-07-20T09:04:10Z</time>
      </trkpt>
      <trkpt lat="42.4368230" lon="3.0400130">
        <ele>209.2</ele>
        <time>2020-07-20T09:04:13Z</time>
      </trkpt>
      <trkpt lat="42.4370470" lon="3.0401990">
        <ele>209.8</ele>
        <time>2020-07-20T09:04:18Z</time>
      </trkpt>
      <trkpt lat="42.4371390" lon="3.0402670">
        <ele>210.2</ele>
        <time>2020-07-20T09:04:20Z</time>
      </trkpt>
      <trkpt lat="42.4374060" lon="3.0404810">
        <ele>211.0</ele>
        <time>2020-07-20T09:04:26Z</time>
      </trkpt>
      <trkpt lat="42.4374990" lon="3.0405480">
        <ele>211.4</ele>
        <time>2020-07-20T09:04:28Z</time>
      </trkpt>
      <trkpt lat="42.4377660" lon="3.0407590">
        <ele>212.4</ele>
        <time>2020-07-20T09:04:34Z</time>
      </trkpt>
      <trkpt lat="42.4378510" lon="3.0408390">
        <ele>212.8</ele>
        <time>2020-07-20T09:04:36Z</time>
      </trkpt>
      <trkpt lat="42.4378900" lon="3.0408830">
        <ele>212.8</ele>
        <time>2020-07-20T09:04:37Z</time>
      </trkpt>
      <trkpt lat="42.4380100" lon="3.0410840">
        <ele>213.6</ele>
        <time>2020-07-20T09:04:41Z</time>
      </trkpt>
      <trkpt lat="42.4380880" lon="3.0412260">
        <ele>214.8</ele>
        <time>2020-07-20T09:04:44Z</time>
      </trkpt>
      <trkpt lat="42.4381610" lon="3.0413600">
        <ele>215.6</ele>
        <time>2020-07-20T09:04:47Z</time>
      </trkpt>
      <trkpt lat="42.4381790" lon="3.0414110">
        <ele>216.0</ele>
        <time>2020-07-20T09:04:48Z</time>
      </trkpt>
      <trkpt lat="42.4382390" lon="3.0415980">
        <ele>217.2</ele>
        <time>2020-07-20T09:04:52Z</time>
      </trkpt>
      <trkpt lat="42.4382720" lon="3.0416870">
        <ele>217.8</ele>
        <time>2020-07-20T09:04:54Z</time>
      </trkpt>
      <trkpt lat="42.4382900" lon="3.0417300">
        <ele>218.2</ele>
        <time>2020-07-20T09:04:55Z</time>
      </trkpt>
      <trkpt lat="42.4383650" lon="3.0419050">
        <ele>219.2</ele>
        <time>2020-07-20T09:04:59Z</time>
      </trkpt>
      <trkpt lat="42.4384410" lon="3.0420800">
        <ele>220.4</ele>
        <time>2020-07-20T09:05:03Z</time>
      </trkpt>
      <trkpt lat="42.4384800" lon="3.0421650">
        <ele>220.8</ele>
        <time>2020-07-20T09:05:05Z</time>
      </trkpt>
      <trkpt lat="42.4385020" lon="3.0422070">
        <ele>221.0</ele>
        <time>2020-07-20T09:05:06Z</time>
      </trkpt>
      <trkpt lat="42.4385500" lon="3.0422870">
        <ele>221.6</ele>
        <time>2020-07-20T09:05:08Z</time>
      </trkpt>
      <trkpt lat="42.4386590" lon="3.0424480">
        <ele>222.4</ele>
        <time>2020-07-20T09:05:12Z</time>
      </trkpt>
      <trkpt lat="42.4387200" lon="3.0425260">
        <ele>222.6</ele>
        <time>2020-07-20T09:05:14Z</time>
      </trkpt>
      <trkpt lat="42.4389130" lon="3.0427400">
        <ele>222.6</ele>
        <time>2020-07-20T09:05:19Z</time>
      </trkpt>
      <trkpt lat="42.4392020" lon="3.0430270">
        <ele>222.2</ele>
        <time>2020-07-20T09:05:25Z</time>
      </trkpt>
      <trkpt lat="42.4392530" lon="3.0430830">
        <ele>222.0</ele>
        <time>2020-07-20T09:05:26Z</time>
      </trkpt>
      <trkpt lat="42.4393000" lon="3.0431460">
        <ele>222.0</ele>
        <time>2020-07-20T09:05:27Z</time>
      </trkpt>
      <trkpt lat="42.4393750" lon="3.0432930">
        <ele>221.8</ele>
        <time>2020-07-20T09:05:29Z</time>
      </trkpt>
      <trkpt lat="42.4394020" lon="3.0433760">
        <ele>221.6</ele>
        <time>2020-07-20T09:05:30Z</time>
      </trkpt>
      <trkpt lat="42.4394210" lon="3.0434610">
        <ele>221.2</ele>
        <time>2020-07-20T09:05:31Z</time>
      </trkpt>
      <trkpt lat="42.4394360" lon="3.0437200">
        <ele>221.2</ele>
        <time>2020-07-20T09:05:34Z</time>
      </trkpt>
      <trkpt lat="42.4393920" lon="3.0440920">
        <ele>222.4</ele>
        <time>2020-07-20T09:05:39Z</time>
      </trkpt>
      <trkpt lat="42.4393870" lon="3.0441590">
        <ele>222.6</ele>
        <time>2020-07-20T09:05:40Z</time>
      </trkpt>
      <trkpt lat="42.4393890" lon="3.0443520">
        <ele>223.8</ele>
        <time>2020-07-20T09:05:43Z</time>
      </trkpt>
      <trkpt lat="42.4393960" lon="3.0444150">
        <ele>224.2</ele>
        <time>2020-07-20T09:05:44Z</time>
      </trkpt>
      <trkpt lat="42.4394080" lon="3.0444760">
        <ele>224.4</ele>
        <time>2020-07-20T09:05:45Z</time>
      </trkpt>
      <trkpt lat="42.4394330" lon="3.0445950">
        <ele>224.6</ele>
        <time>2020-07-20T09:05:47Z</time>
      </trkpt>
      <trkpt lat="42.4394490" lon="3.0446510">
        <ele>225.0</ele>
        <time>2020-07-20T09:05:48Z</time>
      </trkpt>
      <trkpt lat="42.4395040" lon="3.0448100">
        <ele>226.0</ele>
        <time>2020-07-20T09:05:51Z</time>
      </trkpt>
      <trkpt lat="42.4395280" lon="3.0448570">
        <ele>226.2</ele>
        <time>2020-07-20T09:05:52Z</time>
      </trkpt>
      <trkpt lat="42.4396720" lon="3.0450780">
        <ele>227.0</ele>
        <time>2020-07-20T09:05:57Z</time>
      </trkpt>
      <trkpt lat="42.4397380" lon="3.0451640">
        <ele>227.4</ele>
        <time>2020-07-20T09:05:59Z</time>
      </trkpt>
      <trkpt lat="42.4399660" lon="3.0454360">
        <ele>227.4</ele>
        <time>2020-07-20T09:06:05Z</time>
      </trkpt>
      <trkpt lat="42.4401740" lon="3.0456550">
        <ele>226.4</ele>
        <time>2020-07-20T09:06:09Z</time>
      </trkpt>
      <trkpt lat="42.4402370" lon="3.0457200">
        <ele>225.8</ele>
        <time>2020-07-20T09:06:10Z</time>
      </trkpt>
      <trkpt lat="42.4403060" lon="3.0457910">
        <ele>225.2</ele>
        <time>2020-07-20T09:06:11Z</time>
      </trkpt>
      <trkpt lat="42.4404510" lon="3.0459470">
        <ele>223.6</ele>
        <time>2020-07-20T09:06:13Z</time>
      </trkpt>
      <trkpt lat="42.4406030" lon="3.0461170">
        <ele>222.0</ele>
        <time>2020-07-20T09:06:15Z</time>
      </trkpt>
      <trkpt lat="42.4407350" lon="3.0462700">
        <ele>220.6</ele>
        <time>2020-07-20T09:06:17Z</time>
      </trkpt>
      <trkpt lat="42.4407870" lon="3.0463290">
        <ele>220.2</ele>
        <time>2020-07-20T09:06:18Z</time>
      </trkpt>
      <trkpt lat="42.4409240" lon="3.0464780">
        <ele>219.6</ele>
        <time>2020-07-20T09:06:21Z</time>
      </trkpt>
      <trkpt lat="42.4410640" lon="3.0466010">
        <ele>219.8</ele>
        <time>2020-07-20T09:06:24Z</time>
      </trkpt>
      <trkpt lat="42.4411040" lon="3.0466270">
        <ele>220.0</ele>
        <time>2020-07-20T09:06:25Z</time>
      </trkpt>
      <trkpt lat="42.4412070" lon="3.0466770">
        <ele>221.0</ele>
        <time>2020-07-20T09:06:28Z</time>
      </trkpt>
      <trkpt lat="42.4412360" lon="3.0466920">
        <ele>221.4</ele>
        <time>2020-07-20T09:06:29Z</time>
      </trkpt>
      <trkpt lat="42.4412900" lon="3.0467210">
        <ele>222.2</ele>
        <time>2020-07-20T09:06:31Z</time>
      </trkpt>
      <trkpt lat="42.4413680" lon="3.0467690">
        <ele>223.2</ele>
        <time>2020-07-20T09:06:34Z</time>
      </trkpt>
      <trkpt lat="42.4414450" lon="3.0468050">
        <ele>224.4</ele>
        <time>2020-07-20T09:06:37Z</time>
      </trkpt>
      <trkpt lat="42.4414710" lon="3.0468180">
        <ele>224.8</ele>
        <time>2020-07-20T09:06:38Z</time>
      </trkpt>
      <trkpt lat="42.4415220" lon="3.0468450">
        <ele>225.4</ele>
        <time>2020-07-20T09:06:40Z</time>
      </trkpt>
      <trkpt lat="42.4415940" lon="3.0468800">
        <ele>226.8</ele>
        <time>2020-07-20T09:06:43Z</time>
      </trkpt>
      <trkpt lat="42.4416690" lon="3.0469200">
        <ele>227.8</ele>
        <time>2020-07-20T09:06:46Z</time>
      </trkpt>
      <trkpt lat="42.4416940" lon="3.0469350">
        <ele>228.0</ele>
        <time>2020-07-20T09:06:47Z</time>
      </trkpt>
      <trkpt lat="42.4417170" lon="3.0469520">
        <ele>228.0</ele>
        <time>2020-07-20T09:06:48Z</time>
      </trkpt>
      <trkpt lat="42.4417860" lon="3.0469840">
        <ele>229.0</ele>
        <time>2020-07-20T09:06:51Z</time>
      </trkpt>
      <trkpt lat="42.4418100" lon="3.0469970">
        <ele>229.4</ele>
        <time>2020-07-20T09:06:52Z</time>
      </trkpt>
      <trkpt lat="42.4418320" lon="3.0470100">
        <ele>229.8</ele>
        <time>2020-07-20T09:06:53Z</time>
      </trkpt>
      <trkpt lat="42.4418550" lon="3.0470210">
        <ele>230.0</ele>
        <time>2020-07-20T09:06:54Z</time>
      </trkpt>
      <trkpt lat="42.4418790" lon="3.0470310">
        <ele>230.2</ele>
        <time>2020-07-20T09:06:55Z</time>
      </trkpt>
      <trkpt lat="42.4419480" lon="3.0470670">
        <ele>231.4</ele>
        <time>2020-07-20T09:06:58Z</time>
      </trkpt>
      <trkpt lat="42.4419860" lon="3.0471050">
        <ele>231.8</ele>
        <time>2020-07-20T09:07:00Z</time>
      </trkpt>
      <trkpt lat="42.4420350" lon="3.0471350">
        <ele>232.4</ele>
        <time>2020-07-20T09:07:02Z</time>
      </trkpt>
      <trkpt lat="42.4421090" lon="3.0471700">
        <ele>233.6</ele>
        <time>2020-07-20T09:07:05Z</time>
      </trkpt>
      <trkpt lat="42.4421310" lon="3.0471890">
        <ele>233.8</ele>
        <time>2020-07-20T09:07:06Z</time>
      </trkpt>
      <trkpt lat="42.4422080" lon="3.0472310">
        <ele>234.6</ele>
        <time>2020-07-20T09:07:09Z</time>
      </trkpt>
      <trkpt lat="42.4422840" lon="3.0472760">
        <ele>235.8</ele>
        <time>2020-07-20T09:07:12Z</time>
      </trkpt>
      <trkpt lat="42.4423850" lon="3.0473370">
        <ele>236.8</ele>
        <time>2020-07-20T09:07:16Z</time>
      </trkpt>
      <trkpt lat="42.4424620" lon="3.0473840">
        <ele>237.8</ele>
        <time>2020-07-20T09:07:19Z</time>
      </trkpt>
      <trkpt lat="42.4424870" lon="3.0474050">
        <ele>238.0</ele>
        <time>2020-07-20T09:07:20Z</time>
      </trkpt>
      <trkpt lat="42.4426210" lon="3.0474990">
        <ele>239.2</ele>
        <time>2020-07-20T09:07:25Z</time>
      </trkpt>
      <trkpt lat="42.4426770" lon="3.0475360">
        <ele>239.8</ele>
        <time>2020-07-20T09:07:27Z</time>
      </trkpt>
      <trkpt lat="42.4427310" lon="3.0475690">
        <ele>240.2</ele>
        <time>2020-07-20T09:07:29Z</time>
      </trkpt>
      <trkpt lat="42.4428880" lon="3.0476870">
        <ele>241.2</ele>
        <time>2020-07-20T09:07:35Z</time>
      </trkpt>
      <trkpt lat="42.4429690" lon="3.0477370">
        <ele>241.8</ele>
        <time>2020-07-20T09:07:38Z</time>
      </trkpt>
      <trkpt lat="42.4430240" lon="3.0477720">
        <ele>242.4</ele>
        <time>2020-07-20T09:07:40Z</time>
      </trkpt>
      <trkpt lat="42.4431240" lon="3.0478480">
        <ele>243.6</ele>
        <time>2020-07-20T09:07:44Z</time>
      </trkpt>
      <trkpt lat="42.4431670" lon="3.0478890">
        <ele>244.0</ele>
        <time>2020-07-20T09:07:46Z</time>
      </trkpt>
      <trkpt lat="42.4432150" lon="3.0479260">
        <ele>244.6</ele>
        <time>2020-07-20T09:07:48Z</time>
      </trkpt>
      <trkpt lat="42.4432870" lon="3.0479880">
        <ele>245.6</ele>
        <time>2020-07-20T09:07:51Z</time>
      </trkpt>
      <trkpt lat="42.4433620" lon="3.0480390">
        <ele>246.0</ele>
        <time>2020-07-20T09:07:54Z</time>
      </trkpt>
      <trkpt lat="42.4434410" lon="3.0480840">
        <ele>247.0</ele>
        <time>2020-07-20T09:07:57Z</time>
      </trkpt>
      <trkpt lat="42.4435760" lon="3.0481670">
        <ele>248.0</ele>
        <time>2020-07-20T09:08:02Z</time>
      </trkpt>
      <trkpt lat="42.4436030" lon="3.0481840">
        <ele>248.2</ele>
        <time>2020-07-20T09:08:03Z</time>
      </trkpt>
      <trkpt lat="42.4436570" lon="3.0482180">
        <ele>249.0</ele>
        <time>2020-07-20T09:08:05Z</time>
      </trkpt>
      <trkpt lat="42.4438140" lon="3.0483150">
        <ele>250.0</ele>
        <time>2020-07-20T09:08:11Z</time>
      </trkpt>
      <trkpt lat="42.4438360" lon="3.0483360">
        <ele>250.2</ele>
        <time>2020-07-20T09:08:12Z</time>
      </trkpt>
      <trkpt lat="42.4439310" lon="3.0484150">
        <ele>251.2</ele>
        <time>2020-07-20T09:08:16Z</time>
      </trkpt>
      <trkpt lat="42.4439850" lon="3.0484450">
        <ele>251.6</ele>
        <time>2020-07-20T09:08:18Z</time>
      </trkpt>
      <trkpt lat="42.4440580" lon="3.0484980">
        <ele>252.2</ele>
        <time>2020-07-20T09:08:21Z</time>
      </trkpt>
      <trkpt lat="42.4441610" lon="3.0485800">
        <ele>253.4</ele>
        <time>2020-07-20T09:08:25Z</time>
      </trkpt>
      <trkpt lat="42.4442140" lon="3.0486180">
        <ele>253.8</ele>
        <time>2020-07-20T09:08:27Z</time>
      </trkpt>
      <trkpt lat="42.4443180" lon="3.0486950">
        <ele>254.4</ele>
        <time>2020-07-20T09:08:31Z</time>
      </trkpt>
      <trkpt lat="42.4444170" lon="3.0487730">
        <ele>255.4</ele>
        <time>2020-07-20T09:08:35Z</time>
      </trkpt>
      <trkpt lat="42.4444410" lon="3.0487920">
        <ele>255.8</ele>
        <time>2020-07-20T09:08:36Z</time>
      </trkpt>
      <trkpt lat="42.4445420" lon="3.0488770">
        <ele>257.0</ele>
        <time>2020-07-20T09:08:40Z</time>
      </trkpt>
      <trkpt lat="42.4446710" lon="3.0489870">
        <ele>258.0</ele>
        <time>2020-07-20T09:08:45Z</time>
      </trkpt>
      <trkpt lat="42.4446960" lon="3.0490110">
        <ele>258.0</ele>
        <time>2020-07-20T09:08:46Z</time>
      </trkpt>
      <trkpt lat="42.4448460" lon="3.0491440">
        <ele>259.0</ele>
        <time>2020-07-20T09:08:52Z</time>
      </trkpt>
      <trkpt lat="42.4449210" lon="3.0492180">
        <ele>259.6</ele>
        <time>2020-07-20T09:08:55Z</time>
      </trkpt>
      <trkpt lat="42.4449680" lon="3.0492710">
        <ele>260.2</ele>
        <time>2020-07-20T09:08:57Z</time>
      </trkpt>
      <trkpt lat="42.4450410" lon="3.0493980">
        <ele>261.2</ele>
        <time>2020-07-20T09:09:01Z</time>
      </trkpt>
      <trkpt lat="42.4450570" lon="3.0494310">
        <ele>261.6</ele>
        <time>2020-07-20T09:09:02Z</time>
      </trkpt>
      <trkpt lat="42.4451180" lon="3.0495710">
        <ele>262.4</ele>
        <time>2020-07-20T09:09:06Z</time>
      </trkpt>
      <trkpt lat="42.4451440" lon="3.0496830">
        <ele>263.2</ele>
        <time>2020-07-20T09:09:09Z</time>
      </trkpt>
      <trkpt lat="42.4451520" lon="3.0497200">
        <ele>263.6</ele>
        <time>2020-07-20T09:09:10Z</time>
      </trkpt>
      <trkpt lat="42.4451950" lon="3.0498990">
        <ele>264.8</ele>
        <time>2020-07-20T09:09:15Z</time>
      </trkpt>
      <trkpt lat="42.4452170" lon="3.0500470">
        <ele>266.0</ele>
        <time>2020-07-20T09:09:19Z</time>
      </trkpt>
      <trkpt lat="42.4452280" lon="3.0501590">
        <ele>267.0</ele>
        <time>2020-07-20T09:09:22Z</time>
      </trkpt>
      <trkpt lat="42.4452390" lon="3.0503090">
        <ele>268.2</ele>
        <time>2020-07-20T09:09:26Z</time>
      </trkpt>
      <trkpt lat="42.4452480" lon="3.0504280">
        <ele>268.8</ele>
        <time>2020-07-20T09:09:29Z</time>
      </trkpt>
      <trkpt lat="42.4452480" lon="3.0504690">
        <ele>269.4</ele>
        <time>2020-07-20T09:09:30Z</time>
      </trkpt>
      <trkpt lat="42.4452430" lon="3.0505890">
        <ele>270.4</ele>
        <time>2020-07-20T09:09:33Z</time>
      </trkpt>
      <trkpt lat="42.4452330" lon="3.0507520">
        <ele>271.6</ele>
        <time>2020-07-20T09:09:37Z</time>
      </trkpt>
      <trkpt lat="42.4452310" lon="3.0507920">
        <ele>272.0</ele>
        <time>2020-07-20T09:09:38Z</time>
      </trkpt>
      <trkpt lat="42.4452230" lon="3.0509070">
        <ele>272.8</ele>
        <time>2020-07-20T09:09:41Z</time>
      </trkpt>
      <trkpt lat="42.4452000" lon="3.0511060">
        <ele>273.8</ele>
        <time>2020-07-20T09:09:46Z</time>
      </trkpt>
      <trkpt lat="42.4451920" lon="3.0511460">
        <ele>274.0</ele>
        <time>2020-07-20T09:09:47Z</time>
      </trkpt>
      <trkpt lat="42.4451670" lon="3.0513080">
        <ele>274.8</ele>
        <time>2020-07-20T09:09:51Z</time>
      </trkpt>
      <trkpt lat="42.4451400" lon="3.0514810">
        <ele>275.4</ele>
        <time>2020-07-20T09:09:55Z</time>
      </trkpt>
      <trkpt lat="42.4451310" lon="3.0515920">
        <ele>275.8</ele>
        <time>2020-07-20T09:09:58Z</time>
      </trkpt>
      <trkpt lat="42.4451240" lon="3.0516910">
        <ele>276.4</ele>
        <time>2020-07-20T09:10:01Z</time>
      </trkpt>
      <trkpt lat="42.4451140" lon="3.0517920">
        <ele>276.8</ele>
        <time>2020-07-20T09:10:04Z</time>
      </trkpt>
      <trkpt lat="42.4451050" lon="3.0518570">
        <ele>277.0</ele>
        <time>2020-07-20T09:10:06Z</time>
      </trkpt>
      <trkpt lat="42.4450980" lon="3.0519510">
        <ele>277.2</ele>
        <time>2020-07-20T09:10:09Z</time>
      </trkpt>
      <trkpt lat="42.4450910" lon="3.0520930">
        <ele>278.2</ele>
        <time>2020-07-20T09:10:13Z</time>
      </trkpt>
      <trkpt lat="42.4450980" lon="3.0522470">
        <ele>279.0</ele>
        <time>2020-07-20T09:10:17Z</time>
      </trkpt>
      <trkpt lat="42.4451010" lon="3.0522810">
        <ele>279.4</ele>
        <time>2020-07-20T09:10:18Z</time>
      </trkpt>
      <trkpt lat="42.4450930" lon="3.0524140">
        <ele>280.6</ele>
        <time>2020-07-20T09:10:22Z</time>
      </trkpt>
      <trkpt lat="42.4450910" lon="3.0524490">
        <ele>280.8</ele>
        <time>2020-07-20T09:10:23Z</time>
      </trkpt>
      <trkpt lat="42.4450720" lon="3.0526870">
        <ele>281.6</ele>
        <time>2020-07-20T09:10:29Z</time>
      </trkpt>
      <trkpt lat="42.4450680" lon="3.0527310">
        <ele>281.6</ele>
        <time>2020-07-20T09:10:30Z</time>
      </trkpt>
      <trkpt lat="42.4450640" lon="3.0527750">
        <ele>281.6</ele>
        <time>2020-07-20T09:10:31Z</time>
      </trkpt>
      <trkpt lat="42.4450040" lon="3.0530400">
        <ele>282.2</ele>
        <time>2020-07-20T09:10:37Z</time>
      </trkpt>
      <trkpt lat="42.4449930" lon="3.0530820">
        <ele>282.4</ele>
        <time>2020-07-20T09:10:38Z</time>
      </trkpt>
      <trkpt lat="42.4449700" lon="3.0531620">
        <ele>282.8</ele>
        <time>2020-07-20T09:10:40Z</time>
      </trkpt>
      <trkpt lat="42.4448770" lon="3.0533660">
        <ele>283.6</ele>
        <time>2020-07-20T09:10:46Z</time>
      </trkpt>
      <trkpt lat="42.4448470" lon="3.0534360">
        <ele>283.6</ele>
        <time>2020-07-20T09:10:48Z</time>
      </trkpt>
      <trkpt lat="42.4448270" lon="3.0535530">
        <ele>283.6</ele>
        <time>2020-07-20T09:10:51Z</time>
      </trkpt>
      <trkpt lat="42.4448310" lon="3.0535940">
        <ele>283.8</ele>
        <time>2020-07-20T09:10:52Z</time>
      </trkpt>
      <trkpt lat="42.4448770" lon="3.0537460">
        <ele>284.0</ele>
        <time>2020-07-20T09:10:56Z</time>
      </trkpt>
      <trkpt lat="42.4450260" lon="3.0539060">
        <ele>284.8</ele>
        <time>2020-07-20T09:11:02Z</time>
      </trkpt>
      <trkpt lat="42.4451570" lon="3.0540530">
        <ele>286.0</ele>
        <time>2020-07-20T09:11:08Z</time>
      </trkpt>
      <trkpt lat="42.4451980" lon="3.0540970">
        <ele>286.4</ele>
        <time>2020-07-20T09:11:10Z</time>
      </trkpt>
      <trkpt lat="42.4452600" lon="3.0541530">
        <ele>287.4</ele>
        <time>2020-07-20T09:11:13Z</time>
      </trkpt>
      <trkpt lat="42.4453560" lon="3.0542590">
        <ele>288.4</ele>
        <time>2020-07-20T09:11:18Z</time>
      </trkpt>
      <trkpt lat="42.4454130" lon="3.0543170">
        <ele>289.6</ele>
        <time>2020-07-20T09:11:21Z</time>
      </trkpt>
      <trkpt lat="42.4455170" lon="3.0544140">
        <ele>290.6</ele>
        <time>2020-07-20T09:11:26Z</time>
      </trkpt>
      <trkpt lat="42.4455380" lon="3.0544330">
        <ele>290.8</ele>
        <time>2020-07-20T09:11:27Z</time>
      </trkpt>
      <trkpt lat="42.4455770" lon="3.0544750">
        <ele>291.6</ele>
        <time>2020-07-20T09:11:29Z</time>
      </trkpt>
      <trkpt lat="42.4456680" lon="3.0545840">
        <ele>292.6</ele>
        <time>2020-07-20T09:11:34Z</time>
      </trkpt>
      <trkpt lat="42.4457270" lon="3.0546430">
        <ele>293.0</ele>
        <time>2020-07-20T09:11:37Z</time>
      </trkpt>
      <trkpt lat="42.4457620" lon="3.0546750">
        <ele>293.8</ele>
        <time>2020-07-20T09:11:39Z</time>
      </trkpt>
      <trkpt lat="42.4457800" lon="3.0546910">
        <ele>294.0</ele>
        <time>2020-07-20T09:11:40Z</time>
      </trkpt>
      <trkpt lat="42.4457980" lon="3.0547080">
        <ele>294.2</ele>
        <time>2020-07-20T09:11:41Z</time>
      </trkpt>
      <trkpt lat="42.4458320" lon="3.0547430">
        <ele>295.0</ele>
        <time>2020-07-20T09:11:43Z</time>
      </trkpt>
      <trkpt lat="42.4459080" lon="3.0548110">
        <ele>296.0</ele>
        <time>2020-07-20T09:11:47Z</time>
      </trkpt>
      <trkpt lat="42.4460160" lon="3.0549050">
        <ele>297.0</ele>
        <time>2020-07-20T09:11:52Z</time>
      </trkpt>
      <trkpt lat="42.4461020" lon="3.0549900">
        <ele>297.8</ele>
        <time>2020-07-20T09:11:56Z</time>
      </trkpt>
      <trkpt lat="42.4461230" lon="3.0550080">
        <ele>298.2</ele>
        <time>2020-07-20T09:11:57Z</time>
      </trkpt>
      <trkpt lat="42.4462330" lon="3.0551210">
        <ele>299.2</ele>
        <time>2020-07-20T09:12:02Z</time>
      </trkpt>
      <trkpt lat="42.4462940" lon="3.0552050">
        <ele>299.6</ele>
        <time>2020-07-20T09:12:05Z</time>
      </trkpt>
      <trkpt lat="42.4464240" lon="3.0554300">
        <ele>300.0</ele>
        <time>2020-07-20T09:12:11Z</time>
      </trkpt>
      <trkpt lat="42.4464480" lon="3.0554760">
        <ele>300.0</ele>
        <time>2020-07-20T09:12:12Z</time>
      </trkpt>
      <trkpt lat="42.4466220" lon="3.0557780">
        <ele>299.6</ele>
        <time>2020-07-20T09:12:18Z</time>
      </trkpt>
      <trkpt lat="42.4466800" lon="3.0558800">
        <ele>299.6</ele>
        <time>2020-07-20T09:12:20Z</time>
      </trkpt>
      <trkpt lat="42.4467570" lon="3.0560390">
        <ele>300.0</ele>
        <time>2020-07-20T09:12:23Z</time>
      </trkpt>
      <trkpt lat="42.4467870" lon="3.0560840">
        <ele>300.2</ele>
        <time>2020-07-20T09:12:24Z</time>
      </trkpt>
      <trkpt lat="42.4468620" lon="3.0561240">
        <ele>300.6</ele>
        <time>2020-07-20T09:12:26Z</time>
      </trkpt>
      <trkpt lat="42.4469720" lon="3.0560810">
        <ele>301.4</ele>
        <time>2020-07-20T09:12:29Z</time>
      </trkpt>
      <trkpt lat="42.4470020" lon="3.0560600">
        <ele>301.6</ele>
        <time>2020-07-20T09:12:30Z</time>
      </trkpt>
      <trkpt lat="42.4470800" lon="3.0560010">
        <ele>302.4</ele>
        <time>2020-07-20T09:12:33Z</time>
      </trkpt>
      <trkpt lat="42.4471270" lon="3.0559640">
        <ele>303.0</ele>
        <time>2020-07-20T09:12:35Z</time>
      </trkpt>
      <trkpt lat="42.4471750" lon="3.0559350">
        <ele>303.8</ele>
        <time>2020-07-20T09:12:37Z</time>
      </trkpt>
      <trkpt lat="42.4472540" lon="3.0558810">
        <ele>304.8</ele>
        <time>2020-07-20T09:12:40Z</time>
      </trkpt>
      <trkpt lat="42.4473320" lon="3.0558390">
        <ele>306.0</ele>
        <time>2020-07-20T09:12:43Z</time>
      </trkpt>
      <trkpt lat="42.4474330" lon="3.0557790">
        <ele>306.8</ele>
        <time>2020-07-20T09:12:47Z</time>
      </trkpt>
      <trkpt lat="42.4474590" lon="3.0557640">
        <ele>307.0</ele>
        <time>2020-07-20T09:12:48Z</time>
      </trkpt>
      <trkpt lat="42.4476300" lon="3.0556850">
        <ele>308.2</ele>
        <time>2020-07-20T09:12:54Z</time>
      </trkpt>
      <trkpt lat="42.4477410" lon="3.0556310">
        <ele>308.4</ele>
        <time>2020-07-20T09:12:58Z</time>
      </trkpt>
      <trkpt lat="42.4478420" lon="3.0555760">
        <ele>308.6</ele>
        <time>2020-07-20T09:13:02Z</time>
      </trkpt>
      <trkpt lat="42.4479430" lon="3.0555170">
        <ele>309.0</ele>
        <time>2020-07-20T09:13:06Z</time>
      </trkpt>
      <trkpt lat="42.4479700" lon="3.0555000">
        <ele>309.4</ele>
        <time>2020-07-20T09:13:07Z</time>
      </trkpt>
      <trkpt lat="42.4480990" lon="3.0553940">
        <ele>310.0</ele>
        <time>2020-07-20T09:13:12Z</time>
      </trkpt>
      <trkpt lat="42.4481500" lon="3.0553570">
        <ele>310.4</ele>
        <time>2020-07-20T09:13:14Z</time>
      </trkpt>
      <trkpt lat="42.4482190" lon="3.0552990">
        <ele>311.6</ele>
        <time>2020-07-20T09:13:17Z</time>
      </trkpt>
      <trkpt lat="42.4482600" lon="3.0552580">
        <ele>312.2</ele>
        <time>2020-07-20T09:13:19Z</time>
      </trkpt>
      <trkpt lat="42.4483360" lon="3.0551840">
        <ele>312.8</ele>
        <time>2020-07-20T09:13:23Z</time>
      </trkpt>
      <trkpt lat="42.4483980" lon="3.0551330">
        <ele>313.8</ele>
        <time>2020-07-20T09:13:26Z</time>
      </trkpt>
      <trkpt lat="42.4484180" lon="3.0551180">
        <ele>314.0</ele>
        <time>2020-07-20T09:13:27Z</time>
      </trkpt>
      <trkpt lat="42.4484770" lon="3.0550710">
        <ele>314.6</ele>
        <time>2020-07-20T09:13:30Z</time>
      </trkpt>
      <trkpt lat="42.4485520" lon="3.0550190">
        <ele>314.8</ele>
        <time>2020-07-20T09:13:34Z</time>
      </trkpt>
      <trkpt lat="42.4486620" lon="3.0549160">
        <ele>316.2</ele>
        <time>2020-07-20T09:13:39Z</time>
      </trkpt>
      <trkpt lat="42.4487130" lon="3.0548810">
        <ele>316.8</ele>
        <time>2020-07-20T09:13:41Z</time>
      </trkpt>
      <trkpt lat="42.4487870" lon="3.0548300">
        <ele>317.4</ele>
        <time>2020-07-20T09:13:44Z</time>
      </trkpt>
      <trkpt lat="42.4488850" lon="3.0547650">
        <ele>318.0</ele>
        <time>2020-07-20T09:13:48Z</time>
      </trkpt>
      <trkpt lat="42.4489080" lon="3.0547510">
        <ele>318.6</ele>
        <time>2020-07-20T09:13:49Z</time>
      </trkpt>
      <trkpt lat="42.4489320" lon="3.0547330">
        <ele>319.0</ele>
        <time>2020-07-20T09:13:50Z</time>
      </trkpt>
      <trkpt lat="42.4489890" lon="3.0547070">
        <ele>319.6</ele>
        <time>2020-07-20T09:13:52Z</time>
      </trkpt>
      <trkpt lat="42.4490430" lon="3.0546760">
        <ele>320.2</ele>
        <time>2020-07-20T09:13:54Z</time>
      </trkpt>
      <trkpt lat="42.4491210" lon="3.0546240">
        <ele>320.8</ele>
        <time>2020-07-20T09:13:57Z</time>
      </trkpt>
      <trkpt lat="42.4491710" lon="3.0545910">
        <ele>321.0</ele>
        <time>2020-07-20T09:13:59Z</time>
      </trkpt>
      <trkpt lat="42.4492740" lon="3.0545320">
        <ele>322.0</ele>
        <time>2020-07-20T09:14:03Z</time>
      </trkpt>
      <trkpt lat="42.4493000" lon="3.0545190">
        <ele>322.2</ele>
        <time>2020-07-20T09:14:04Z</time>
      </trkpt>
      <trkpt lat="42.4493260" lon="3.0545040">
        <ele>322.4</ele>
        <time>2020-07-20T09:14:05Z</time>
      </trkpt>
      <trkpt lat="42.4493510" lon="3.0544880">
        <ele>322.8</ele>
        <time>2020-07-20T09:14:06Z</time>
      </trkpt>
      <trkpt lat="42.4493750" lon="3.0544730">
        <ele>323.2</ele>
        <time>2020-07-20T09:14:07Z</time>
      </trkpt>
      <trkpt lat="42.4494730" lon="3.0544090">
        <ele>323.8</ele>
        <time>2020-07-20T09:14:11Z</time>
      </trkpt>
      <trkpt lat="42.4495270" lon="3.0543770">
        <ele>324.2</ele>
        <time>2020-07-20T09:14:13Z</time>
      </trkpt>
      <trkpt lat="42.4496830" lon="3.0542870">
        <ele>325.4</ele>
        <time>2020-07-20T09:14:19Z</time>
      </trkpt>
      <trkpt lat="42.4497080" lon="3.0542720">
        <ele>325.8</ele>
        <time>2020-07-20T09:14:20Z</time>
      </trkpt>
      <trkpt lat="42.4497810" lon="3.0542170">
        <ele>326.6</ele>
        <time>2020-07-20T09:14:23Z</time>
      </trkpt>
      <trkpt lat="42.4498700" lon="3.0541450">
        <ele>327.2</ele>
        <time>2020-07-20T09:14:27Z</time>
      </trkpt>
      <trkpt lat="42.4501630" lon="3.0543120">
        <ele>325.4</ele>
        <time>2020-07-20T09:16:40Z</time>
      </trkpt>
      <trkpt lat="42.4501610" lon="3.0543150">
        <ele>325.4</ele>
        <time>2020-07-20T09:16:41Z</time>
      </trkpt>
      <trkpt lat="42.4501580" lon="3.0543250">
        <ele>325.2</ele>
        <time>2020-07-20T09:16:42Z</time>
      </trkpt>
      <trkpt lat="42.4501440" lon="3.0543550">
        <ele>325.2</ele>
        <time>2020-07-20T09:16:43Z</time>
      </trkpt>
      <trkpt lat="42.4501230" lon="3.0544420">
        <ele>324.8</ele>
        <time>2020-07-20T09:16:45Z</time>
      </trkpt>
      <trkpt lat="42.4501100" lon="3.0545020">
        <ele>324.0</ele>
        <time>2020-07-20T09:16:46Z</time>
      </trkpt>
      <trkpt lat="42.4500790" lon="3.0546440">
        <ele>322.6</ele>
        <time>2020-07-20T09:16:48Z</time>
      </trkpt>
      <trkpt lat="42.4500400" lon="3.0547870">
        <ele>320.6</ele>
        <time>2020-07-20T09:16:50Z</time>
      </trkpt>
      <trkpt lat="42.4499710" lon="3.0549290">
        <ele>318.8</ele>
        <time>2020-07-20T09:16:52Z</time>
      </trkpt>
      <trkpt lat="42.4498930" lon="3.0550660">
        <ele>316.8</ele>
        <time>2020-07-20T09:16:54Z</time>
      </trkpt>
      <trkpt lat="42.4498230" lon="3.0551900">
        <ele>315.0</ele>
        <time>2020-07-20T09:16:56Z</time>
      </trkpt>
      <trkpt lat="42.4497370" lon="3.0553170">
        <ele>313.4</ele>
        <time>2020-07-20T09:16:58Z</time>
      </trkpt>
      <trkpt lat="42.4496870" lon="3.0553820">
        <ele>312.4</ele>
        <time>2020-07-20T09:16:59Z</time>
      </trkpt>
      <trkpt lat="42.4496350" lon="3.0554480">
        <ele>311.8</ele>
        <time>2020-07-20T09:17:00Z</time>
      </trkpt>
      <trkpt lat="42.4495330" lon="3.0555810">
        <ele>310.2</ele>
        <time>2020-07-20T09:17:02Z</time>
      </trkpt>
      <trkpt lat="42.4494880" lon="3.0556500">
        <ele>309.2</ele>
        <time>2020-07-20T09:17:03Z</time>
      </trkpt>
      <trkpt lat="42.4494120" lon="3.0558040">
        <ele>307.4</ele>
        <time>2020-07-20T09:17:05Z</time>
      </trkpt>
      <trkpt lat="42.4493820" lon="3.0558880">
        <ele>306.6</ele>
        <time>2020-07-20T09:17:06Z</time>
      </trkpt>
      <trkpt lat="42.4493570" lon="3.0559790">
        <ele>305.6</ele>
        <time>2020-07-20T09:17:07Z</time>
      </trkpt>
      <trkpt lat="42.4493350" lon="3.0560790">
        <ele>304.6</ele>
        <time>2020-07-20T09:17:08Z</time>
      </trkpt>
      <trkpt lat="42.4493190" lon="3.0561820">
        <ele>303.6</ele>
        <time>2020-07-20T09:17:09Z</time>
      </trkpt>
      <trkpt lat="42.4493040" lon="3.0562860">
        <ele>302.6</ele>
        <time>2020-07-20T09:17:10Z</time>
      </trkpt>
      <trkpt lat="42.4492670" lon="3.0564860">
        <ele>300.8</ele>
        <time>2020-07-20T09:17:12Z</time>
      </trkpt>
      <trkpt lat="42.4492280" lon="3.0566890">
        <ele>299.6</ele>
        <time>2020-07-20T09:17:14Z</time>
      </trkpt>
      <trkpt lat="42.4492100" lon="3.0567870">
        <ele>298.6</ele>
        <time>2020-07-20T09:17:15Z</time>
      </trkpt>
      <trkpt lat="42.4491900" lon="3.0568850">
        <ele>297.6</ele>
        <time>2020-07-20T09:17:16Z</time>
      </trkpt>
      <trkpt lat="42.4491580" lon="3.0570930">
        <ele>295.4</ele>
        <time>2020-07-20T09:17:18Z</time>
      </trkpt>
      <trkpt lat="42.4491440" lon="3.0571930">
        <ele>293.6</ele>
        <time>2020-07-20T09:17:19Z</time>
      </trkpt>
      <trkpt lat="42.4491320" lon="3.0572930">
        <ele>292.0</ele>
        <time>2020-07-20T09:17:20Z</time>
      </trkpt>
      <trkpt lat="42.4491330" lon="3.0573970">
        <ele>290.6</ele>
        <time>2020-07-20T09:17:21Z</time>
      </trkpt>
      <trkpt lat="42.4491420" lon="3.0575010">
        <ele>289.4</ele>
        <time>2020-07-20T09:17:22Z</time>
      </trkpt>
      <trkpt lat="42.4491580" lon="3.0576000">
        <ele>288.2</ele>
        <time>2020-07-20T09:17:23Z</time>
      </trkpt>
      <trkpt lat="42.4491800" lon="3.0576990">
        <ele>287.0</ele>
        <time>2020-07-20T09:17:24Z</time>
      </trkpt>
      <trkpt lat="42.4492050" lon="3.0578010">
        <ele>286.0</ele>
        <time>2020-07-20T09:17:25Z</time>
      </trkpt>
      <trkpt lat="42.4492560" lon="3.0580120">
        <ele>284.2</ele>
        <time>2020-07-20T09:17:27Z</time>
      </trkpt>
      <trkpt lat="42.4492940" lon="3.0582300">
        <ele>282.4</ele>
        <time>2020-07-20T09:17:29Z</time>
      </trkpt>
      <trkpt lat="42.4493050" lon="3.0583410">
        <ele>281.6</ele>
        <time>2020-07-20T09:17:30Z</time>
      </trkpt>
      <trkpt lat="42.4493090" lon="3.0584520">
        <ele>280.6</ele>
        <time>2020-07-20T09:17:31Z</time>
      </trkpt>
      <trkpt lat="42.4493120" lon="3.0585590">
        <ele>279.8</ele>
        <time>2020-07-20T09:17:32Z</time>
      </trkpt>
      <trkpt lat="42.4493120" lon="3.0586610">
        <ele>279.4</ele>
        <time>2020-07-20T09:17:33Z</time>
      </trkpt>
      <trkpt lat="42.4493020" lon="3.0588440">
        <ele>278.2</ele>
        <time>2020-07-20T09:17:35Z</time>
      </trkpt>
      <trkpt lat="42.4492770" lon="3.0589970">
        <ele>276.4</ele>
        <time>2020-07-20T09:17:37Z</time>
      </trkpt>
      <trkpt lat="42.4492250" lon="3.0591190">
        <ele>274.4</ele>
        <time>2020-07-20T09:17:39Z</time>
      </trkpt>
      <trkpt lat="42.4491610" lon="3.0592130">
        <ele>273.2</ele>
        <time>2020-07-20T09:17:41Z</time>
      </trkpt>
      <trkpt lat="42.4491330" lon="3.0593010">
        <ele>272.2</ele>
        <time>2020-07-20T09:17:43Z</time>
      </trkpt>
      <trkpt lat="42.4491720" lon="3.0593790">
        <ele>270.6</ele>
        <time>2020-07-20T09:17:45Z</time>
      </trkpt>
      <trkpt lat="42.4492090" lon="3.0593980">
        <ele>270.0</ele>
        <time>2020-07-20T09:17:46Z</time>
      </trkpt>
      <trkpt lat="42.4492560" lon="3.0593880">
        <ele>269.4</ele>
        <time>2020-07-20T09:17:47Z</time>
      </trkpt>
      <trkpt lat="42.4493520" lon="3.0593230">
        <ele>268.4</ele>
        <time>2020-07-20T09:17:49Z</time>
      </trkpt>
      <trkpt lat="42.4494430" lon="3.0592170">
        <ele>267.8</ele>
        <time>2020-07-20T09:17:51Z</time>
      </trkpt>
      <trkpt lat="42.4494860" lon="3.0591530">
        <ele>267.4</ele>
        <time>2020-07-20T09:17:52Z</time>
      </trkpt>
      <trkpt lat="42.4495290" lon="3.0590780">
        <ele>267.2</ele>
        <time>2020-07-20T09:17:53Z</time>
      </trkpt>
      <trkpt lat="42.4496050" lon="3.0588960">
        <ele>266.0</ele>
        <time>2020-07-20T09:17:55Z</time>
      </trkpt>
      <trkpt lat="42.4496720" lon="3.0587070">
        <ele>264.4</ele>
        <time>2020-07-20T09:17:57Z</time>
      </trkpt>
      <trkpt lat="42.4496970" lon="3.0586080">
        <ele>263.8</ele>
        <time>2020-07-20T09:17:58Z</time>
      </trkpt>
      <trkpt lat="42.4497180" lon="3.0585030">
        <ele>263.4</ele>
        <time>2020-07-20T09:17:59Z</time>
      </trkpt>
      <trkpt lat="42.4497360" lon="3.0583900">
        <ele>262.8</ele>
        <time>2020-07-20T09:18:00Z</time>
      </trkpt>
      <trkpt lat="42.4497520" lon="3.0582740">
        <ele>262.0</ele>
        <time>2020-07-20T09:18:01Z</time>
      </trkpt>
      <trkpt lat="42.4497660" lon="3.0581620">
        <ele>260.6</ele>
        <time>2020-07-20T09:18:02Z</time>
      </trkpt>
      <trkpt lat="42.4497760" lon="3.0580540">
        <ele>259.4</ele>
        <time>2020-07-20T09:18:03Z</time>
      </trkpt>
      <trkpt lat="42.4497820" lon="3.0579490">
        <ele>258.2</ele>
        <time>2020-07-20T09:18:04Z</time>
      </trkpt>
      <trkpt lat="42.4497810" lon="3.0577510">
        <ele>256.6</ele>
        <time>2020-07-20T09:18:06Z</time>
      </trkpt>
      <trkpt lat="42.4497620" lon="3.0575710">
        <ele>254.8</ele>
        <time>2020-07-20T09:18:08Z</time>
      </trkpt>
      <trkpt lat="42.4497620" lon="3.0574140">
        <ele>253.4</ele>
        <time>2020-07-20T09:18:10Z</time>
      </trkpt>
      <trkpt lat="42.4498240" lon="3.0572830">
        <ele>252.4</ele>
        <time>2020-07-20T09:18:12Z</time>
      </trkpt>
      <trkpt lat="42.4498740" lon="3.0572280">
        <ele>251.8</ele>
        <time>2020-07-20T09:18:13Z</time>
      </trkpt>
      <trkpt lat="42.4499270" lon="3.0571730">
        <ele>251.2</ele>
        <time>2020-07-20T09:18:14Z</time>
      </trkpt>
      <trkpt lat="42.4500260" lon="3.0570600">
        <ele>249.6</ele>
        <time>2020-07-20T09:18:16Z</time>
      </trkpt>
      <trkpt lat="42.4501000" lon="3.0569390">
        <ele>248.0</ele>
        <time>2020-07-20T09:18:18Z</time>
      </trkpt>
      <trkpt lat="42.4501350" lon="3.0568350">
        <ele>247.0</ele>
        <time>2020-07-20T09:18:21Z</time>
      </trkpt>
      <trkpt lat="42.4501550" lon="3.0567380">
        <ele>246.0</ele>
        <time>2020-07-20T09:18:25Z</time>
      </trkpt>
      <trkpt lat="42.4501750" lon="3.0567100">
        <ele>246.0</ele>
        <time>2020-07-20T09:18:26Z</time>
      </trkpt>
      <trkpt lat="42.4502110" lon="3.0567330">
        <ele>245.6</ele>
        <time>2020-07-20T09:18:28Z</time>
      </trkpt>
      <trkpt lat="42.4501950" lon="3.0568790">
        <ele>245.2</ele>
        <time>2020-07-20T09:18:31Z</time>
      </trkpt>
      <trkpt lat="42.4501810" lon="3.0569480">
        <ele>245.0</ele>
        <time>2020-07-20T09:18:32Z</time>
      </trkpt>
      <trkpt lat="42.4501380" lon="3.0571100">
        <ele>243.2</ele>
        <time>2020-07-20T09:18:34Z</time>
      </trkpt>
      <trkpt lat="42.4501120" lon="3.0571960">
        <ele>241.6</ele>
        <time>2020-07-20T09:18:35Z</time>
      </trkpt>
      <trkpt lat="42.4500870" lon="3.0572830">
        <ele>240.2</ele>
        <time>2020-07-20T09:18:36Z</time>
      </trkpt>
      <trkpt lat="42.4500660" lon="3.0573670">
        <ele>239.0</ele>
        <time>2020-07-20T09:18:37Z</time>
      </trkpt>
      <trkpt lat="42.4500550" lon="3.0574470">
        <ele>237.8</ele>
        <time>2020-07-20T09:18:38Z</time>
      </trkpt>
      <trkpt lat="42.4500560" lon="3.0575200">
        <ele>236.8</ele>
        <time>2020-07-20T09:18:39Z</time>
      </trkpt>
      <trkpt lat="42.4500720" lon="3.0575880">
        <ele>235.6</ele>
        <time>2020-07-20T09:18:40Z</time>
      </trkpt>
      <trkpt lat="42.4501370" lon="3.0577150">
        <ele>234.0</ele>
        <time>2020-07-20T09:18:42Z</time>
      </trkpt>
      <trkpt lat="42.4502110" lon="3.0578560">
        <ele>232.2</ele>
        <time>2020-07-20T09:18:44Z</time>
      </trkpt>
      <trkpt lat="42.4502500" lon="3.0579320">
        <ele>231.0</ele>
        <time>2020-07-20T09:18:45Z</time>
      </trkpt>
      <trkpt lat="42.4502870" lon="3.0580140">
        <ele>229.8</ele>
        <time>2020-07-20T09:18:46Z</time>
      </trkpt>
      <trkpt lat="42.4503180" lon="3.0580950">
        <ele>228.6</ele>
        <time>2020-07-20T09:18:47Z</time>
      </trkpt>
      <trkpt lat="42.4503780" lon="3.0582580">
        <ele>227.0</ele>
        <time>2020-07-20T09:18:49Z</time>
      </trkpt>
      <trkpt lat="42.4504330" lon="3.0584410">
        <ele>225.0</ele>
        <time>2020-07-20T09:18:51Z</time>
      </trkpt>
      <trkpt lat="42.4504630" lon="3.0585370">
        <ele>223.8</ele>
        <time>2020-07-20T09:18:52Z</time>
      </trkpt>
      <trkpt lat="42.4505140" lon="3.0587350">
        <ele>222.0</ele>
        <time>2020-07-20T09:18:54Z</time>
      </trkpt>
      <trkpt lat="42.4505370" lon="3.0588360">
        <ele>221.0</ele>
        <time>2020-07-20T09:18:55Z</time>
      </trkpt>
      <trkpt lat="42.4505560" lon="3.0589380">
        <ele>220.2</ele>
        <time>2020-07-20T09:18:56Z</time>
      </trkpt>
      <trkpt lat="42.4505990" lon="3.0591560">
        <ele>218.4</ele>
        <time>2020-07-20T09:18:58Z</time>
      </trkpt>
      <trkpt lat="42.4506140" lon="3.0592700">
        <ele>217.4</ele>
        <time>2020-07-20T09:18:59Z</time>
      </trkpt>
      <trkpt lat="42.4506280" lon="3.0593820">
        <ele>216.4</ele>
        <time>2020-07-20T09:19:00Z</time>
      </trkpt>
      <trkpt lat="42.4506390" lon="3.0594910">
        <ele>215.0</ele>
        <time>2020-07-20T09:19:01Z</time>
      </trkpt>
      <trkpt lat="42.4506440" lon="3.0595990">
        <ele>213.6</ele>
        <time>2020-07-20T09:19:02Z</time>
      </trkpt>
      <trkpt lat="42.4506420" lon="3.0597070">
        <ele>212.6</ele>
        <time>2020-07-20T09:19:03Z</time>
      </trkpt>
      <trkpt lat="42.4506330" lon="3.0598150">
        <ele>211.4</ele>
        <time>2020-07-20T09:19:04Z</time>
      </trkpt>
      <trkpt lat="42.4506220" lon="3.0599200">
        <ele>210.4</ele>
        <time>2020-07-20T09:19:05Z</time>
      </trkpt>
      <trkpt lat="42.4506050" lon="3.0600180">
        <ele>209.6</ele>
        <time>2020-07-20T09:19:06Z</time>
      </trkpt>
      <trkpt lat="42.4505850" lon="3.0601100">
        <ele>208.8</ele>
        <time>2020-07-20T09:19:07Z</time>
      </trkpt>
      <trkpt lat="42.4505570" lon="3.0602700">
        <ele>207.4</ele>
        <time>2020-07-20T09:19:09Z</time>
      </trkpt>
      <trkpt lat="42.4505520" lon="3.0603390">
        <ele>206.6</ele>
        <time>2020-07-20T09:19:10Z</time>
      </trkpt>
      <trkpt lat="42.4505530" lon="3.0603960">
        <ele>205.8</ele>
        <time>2020-07-20T09:19:11Z</time>
      </trkpt>
      <trkpt lat="42.4505680" lon="3.0604330">
        <ele>205.2</ele>
        <time>2020-07-20T09:19:12Z</time>
      </trkpt>
      <trkpt lat="42.4505930" lon="3.0604480">
        <ele>205.0</ele>
        <time>2020-07-20T09:19:13Z</time>
      </trkpt>
      <trkpt lat="42.4506230" lon="3.0604370">
        <ele>204.6</ele>
        <time>2020-07-20T09:19:14Z</time>
      </trkpt>
      <trkpt lat="42.4506700" lon="3.0603500">
        <ele>204.2</ele>
        <time>2020-07-20T09:19:16Z</time>
      </trkpt>
      <trkpt lat="42.4506920" lon="3.0602930">
        <ele>204.0</ele>
        <time>2020-07-20T09:19:17Z</time>
      </trkpt>
      <trkpt lat="42.4507680" lon="3.0600720">
        <ele>203.2</ele>
        <time>2020-07-20T09:19:20Z</time>
      </trkpt>
      <trkpt lat="42.4508380" lon="3.0598980">
        <ele>201.6</ele>
        <time>2020-07-20T09:19:22Z</time>
      </trkpt>
      <trkpt lat="42.4509170" lon="3.0597170">
        <ele>200.0</ele>
        <time>2020-07-20T09:19:24Z</time>
      </trkpt>
      <trkpt lat="42.4509910" lon="3.0595320">
        <ele>198.6</ele>
        <time>2020-07-20T09:19:26Z</time>
      </trkpt>
      <trkpt lat="42.4510570" lon="3.0593250">
        <ele>196.8</ele>
        <time>2020-07-20T09:19:28Z</time>
      </trkpt>
      <trkpt lat="42.4510850" lon="3.0592220">
        <ele>195.6</ele>
        <time>2020-07-20T09:19:29Z</time>
      </trkpt>
      <trkpt lat="42.4511140" lon="3.0591200">
        <ele>194.4</ele>
        <time>2020-07-20T09:19:30Z</time>
      </trkpt>
      <trkpt lat="42.4511420" lon="3.0590200">
        <ele>193.4</ele>
        <time>2020-07-20T09:19:31Z</time>
      </trkpt>
      <trkpt lat="42.4511640" lon="3.0589200">
        <ele>192.4</ele>
        <time>2020-07-20T09:19:32Z</time>
      </trkpt>
      <trkpt lat="42.4511770" lon="3.0588280">
        <ele>191.4</ele>
        <time>2020-07-20T09:19:33Z</time>
      </trkpt>
      <trkpt lat="42.4511770" lon="3.0586640">
        <ele>190.2</ele>
        <time>2020-07-20T09:19:35Z</time>
      </trkpt>
      <trkpt lat="42.4511680" lon="3.0585950">
        <ele>189.8</ele>
        <time>2020-07-20T09:19:36Z</time>
      </trkpt>
      <trkpt lat="42.4511640" lon="3.0584810">
        <ele>189.2</ele>
        <time>2020-07-20T09:19:38Z</time>
      </trkpt>
      <trkpt lat="42.4511820" lon="3.0584470">
        <ele>189.0</ele>
        <time>2020-07-20T09:19:39Z</time>
      </trkpt>
      <trkpt lat="42.4512060" lon="3.0584410">
        <ele>188.6</ele>
        <time>2020-07-20T09:19:40Z</time>
      </trkpt>
      <trkpt lat="42.4512360" lon="3.0584730">
        <ele>188.6</ele>
        <time>2020-07-20T09:19:41Z</time>
      </trkpt>
      <trkpt lat="42.4512600" lon="3.0585350">
        <ele>188.2</ele>
        <time>2020-07-20T09:19:42Z</time>
      </trkpt>
      <trkpt lat="42.4512860" lon="3.0586210">
        <ele>187.6</ele>
        <time>2020-07-20T09:19:43Z</time>
      </trkpt>
      <trkpt lat="42.4513470" lon="3.0588180">
        <ele>185.2</ele>
        <time>2020-07-20T09:19:45Z</time>
      </trkpt>
      <trkpt lat="42.4513750" lon="3.0589240">
        <ele>183.2</ele>
        <time>2020-07-20T09:19:46Z</time>
      </trkpt>
      <trkpt lat="42.4513970" lon="3.0590350">
        <ele>181.4</ele>
        <time>2020-07-20T09:19:47Z</time>
      </trkpt>
      <trkpt lat="42.4514160" lon="3.0591490">
        <ele>179.8</ele>
        <time>2020-07-20T09:19:48Z</time>
      </trkpt>
      <trkpt lat="42.4514330" lon="3.0592660">
        <ele>178.4</ele>
        <time>2020-07-20T09:19:49Z</time>
      </trkpt>
      <trkpt lat="42.4514480" lon="3.0593840">
        <ele>176.6</ele>
        <time>2020-07-20T09:19:50Z</time>
      </trkpt>
      <trkpt lat="42.4514610" lon="3.0595000">
        <ele>174.8</ele>
        <time>2020-07-20T09:19:51Z</time>
      </trkpt>
      <trkpt lat="42.4514720" lon="3.0596150">
        <ele>173.2</ele>
        <time>2020-07-20T09:19:52Z</time>
      </trkpt>
      <trkpt lat="42.4514790" lon="3.0597260">
        <ele>171.8</ele>
        <time>2020-07-20T09:19:53Z</time>
      </trkpt>
      <trkpt lat="42.4514850" lon="3.0598320">
        <ele>170.6</ele>
        <time>2020-07-20T09:19:54Z</time>
      </trkpt>
      <trkpt lat="42.4514890" lon="3.0599380">
        <ele>169.6</ele>
        <time>2020-07-20T09:19:55Z</time>
      </trkpt>
      <trkpt lat="42.4514940" lon="3.0600410">
        <ele>168.6</ele>
        <time>2020-07-20T09:19:56Z</time>
      </trkpt>
      <trkpt lat="42.4514930" lon="3.0601430">
        <ele>167.6</ele>
        <time>2020-07-20T09:19:57Z</time>
      </trkpt>
      <trkpt lat="42.4514800" lon="3.0603520">
        <ele>165.8</ele>
        <time>2020-07-20T09:19:59Z</time>
      </trkpt>
      <trkpt lat="42.4514730" lon="3.0604630">
        <ele>164.2</ele>
        <time>2020-07-20T09:20:00Z</time>
      </trkpt>
      <trkpt lat="42.4514650" lon="3.0605740">
        <ele>162.6</ele>
        <time>2020-07-20T09:20:01Z</time>
      </trkpt>
      <trkpt lat="42.4514560" lon="3.0606800">
        <ele>160.8</ele>
        <time>2020-07-20T09:20:02Z</time>
      </trkpt>
      <trkpt lat="42.4514480" lon="3.0607820">
        <ele>159.0</ele>
        <time>2020-07-20T09:20:03Z</time>
      </trkpt>
      <trkpt lat="42.4514380" lon="3.0608770">
        <ele>157.6</ele>
        <time>2020-07-20T09:20:04Z</time>
      </trkpt>
      <trkpt lat="42.4514270" lon="3.0609700">
        <ele>156.6</ele>
        <time>2020-07-20T09:20:05Z</time>
      </trkpt>
      <trkpt lat="42.4514050" lon="3.0611530">
        <ele>154.6</ele>
        <time>2020-07-20T09:20:07Z</time>
      </trkpt>
      <trkpt lat="42.4513980" lon="3.0612490">
        <ele>153.4</ele>
        <time>2020-07-20T09:20:08Z</time>
      </trkpt>
      <trkpt lat="42.4513960" lon="3.0613500">
        <ele>152.2</ele>
        <time>2020-07-20T09:20:09Z</time>
      </trkpt>
      <trkpt lat="42.4514020" lon="3.0614520">
        <ele>151.2</ele>
        <time>2020-07-20T09:20:10Z</time>
      </trkpt>
      <trkpt lat="42.4514130" lon="3.0615490">
        <ele>150.2</ele>
        <time>2020-07-20T09:20:11Z</time>
      </trkpt>
      <trkpt lat="42.4514260" lon="3.0616430">
        <ele>148.8</ele>
        <time>2020-07-20T09:20:12Z</time>
      </trkpt>
      <trkpt lat="42.4514410" lon="3.0617350">
        <ele>147.4</ele>
        <time>2020-07-20T09:20:13Z</time>
      </trkpt>
      <trkpt lat="42.4514550" lon="3.0618240">
        <ele>146.2</ele>
        <time>2020-07-20T09:20:14Z</time>
      </trkpt>
      <trkpt lat="42.4514680" lon="3.0619130">
        <ele>145.2</ele>
        <time>2020-07-20T09:20:15Z</time>
      </trkpt>
      <trkpt lat="42.4514930" lon="3.0620740">
        <ele>143.4</ele>
        <time>2020-07-20T09:20:17Z</time>
      </trkpt>
      <trkpt lat="42.4515210" lon="3.0622040">
        <ele>142.4</ele>
        <time>2020-07-20T09:20:19Z</time>
      </trkpt>
      <trkpt lat="42.4515420" lon="3.0622560">
        <ele>141.8</ele>
        <time>2020-07-20T09:20:20Z</time>
      </trkpt>
      <trkpt lat="42.4515610" lon="3.0622950">
        <ele>141.2</ele>
        <time>2020-07-20T09:20:21Z</time>
      </trkpt>
      <trkpt lat="42.4516470" lon="3.0623910">
        <ele>139.8</ele>
        <time>2020-07-20T09:20:24Z</time>
      </trkpt>
      <trkpt lat="42.4516890" lon="3.0624200">
        <ele>139.4</ele>
        <time>2020-07-20T09:20:25Z</time>
      </trkpt>
      <trkpt lat="42.4517390" lon="3.0624460">
        <ele>138.8</ele>
        <time>2020-07-20T09:20:26Z</time>
      </trkpt>
      <trkpt lat="42.4517980" lon="3.0624730">
        <ele>138.2</ele>
        <time>2020-07-20T09:20:27Z</time>
      </trkpt>
      <trkpt lat="42.4519210" lon="3.0625380">
        <ele>136.6</ele>
        <time>2020-07-20T09:20:29Z</time>
      </trkpt>
      <trkpt lat="42.4519830" lon="3.0625780">
        <ele>135.8</ele>
        <time>2020-07-20T09:20:30Z</time>
      </trkpt>
      <trkpt lat="42.4520400" lon="3.0626240">
        <ele>135.2</ele>
        <time>2020-07-20T09:20:31Z</time>
      </trkpt>
      <trkpt lat="42.4521500" lon="3.0627320">
        <ele>134.0</ele>
        <time>2020-07-20T09:20:33Z</time>
      </trkpt>
      <trkpt lat="42.4522040" lon="3.0627890">
        <ele>133.4</ele>
        <time>2020-07-20T09:20:34Z</time>
      </trkpt>
      <trkpt lat="42.4522590" lon="3.0628460">
        <ele>132.6</ele>
        <time>2020-07-20T09:20:35Z</time>
      </trkpt>
      <trkpt lat="42.4524170" lon="3.0630510">
        <ele>131.6</ele>
        <time>2020-07-20T09:20:38Z</time>
      </trkpt>
      <trkpt lat="42.4525140" lon="3.0632160">
        <ele>131.0</ele>
        <time>2020-07-20T09:20:40Z</time>
      </trkpt>
      <trkpt lat="42.4525630" lon="3.0633050">
        <ele>130.4</ele>
        <time>2020-07-20T09:20:41Z</time>
      </trkpt>
      <trkpt lat="42.4526120" lon="3.0633950">
        <ele>129.4</ele>
        <time>2020-07-20T09:20:42Z</time>
      </trkpt>
      <trkpt lat="42.4526620" lon="3.0634820">
        <ele>128.4</ele>
        <time>2020-07-20T09:20:43Z</time>
      </trkpt>
      <trkpt lat="42.4527640" lon="3.0636430">
        <ele>127.2</ele>
        <time>2020-07-20T09:20:45Z</time>
      </trkpt>
      <trkpt lat="42.4528620" lon="3.0637760">
        <ele>126.8</ele>
        <time>2020-07-20T09:20:47Z</time>
      </trkpt>
      <trkpt lat="42.4529420" lon="3.0639010">
        <ele>126.4</ele>
        <time>2020-07-20T09:20:49Z</time>
      </trkpt>
      <trkpt lat="42.4529640" lon="3.0639770">
        <ele>126.0</ele>
        <time>2020-07-20T09:20:50Z</time>
      </trkpt>
      <trkpt lat="42.4529720" lon="3.0640640">
        <ele>125.6</ele>
        <time>2020-07-20T09:20:51Z</time>
      </trkpt>
      <trkpt lat="42.4529720" lon="3.0641590">
        <ele>125.0</ele>
        <time>2020-07-20T09:20:52Z</time>
      </trkpt>
      <trkpt lat="42.4529760" lon="3.0643480">
        <ele>123.8</ele>
        <time>2020-07-20T09:20:54Z</time>
      </trkpt>
      <trkpt lat="42.4529900" lon="3.0644370">
        <ele>123.4</ele>
        <time>2020-07-20T09:20:55Z</time>
      </trkpt>
      <trkpt lat="42.4530110" lon="3.0645230">
        <ele>122.8</ele>
        <time>2020-07-20T09:20:56Z</time>
      </trkpt>
      <trkpt lat="42.4530370" lon="3.0646060">
        <ele>122.4</ele>
        <time>2020-07-20T09:20:57Z</time>
      </trkpt>
      <trkpt lat="42.4531070" lon="3.0647690">
        <ele>121.6</ele>
        <time>2020-07-20T09:20:59Z</time>
      </trkpt>
      <trkpt lat="42.4531520" lon="3.0648460">
        <ele>121.2</ele>
        <time>2020-07-20T09:21:00Z</time>
      </trkpt>
      <trkpt lat="42.4533070" lon="3.0650780">
        <ele>120.0</ele>
        <time>2020-07-20T09:21:03Z</time>
      </trkpt>
      <trkpt lat="42.4534100" lon="3.0652370">
        <ele>118.6</ele>
        <time>2020-07-20T09:21:05Z</time>
      </trkpt>
      <trkpt lat="42.4534600" lon="3.0653150">
        <ele>118.0</ele>
        <time>2020-07-20T09:21:06Z</time>
      </trkpt>
      <trkpt lat="42.4535630" lon="3.0654590">
        <ele>117.2</ele>
        <time>2020-07-20T09:21:08Z</time>
      </trkpt>
      <trkpt lat="42.4536760" lon="3.0655990">
        <ele>115.8</ele>
        <time>2020-07-20T09:21:10Z</time>
      </trkpt>
      <trkpt lat="42.4537890" lon="3.0657230">
        <ele>114.6</ele>
        <time>2020-07-20T09:21:12Z</time>
      </trkpt>
      <trkpt lat="42.4538840" lon="3.0658560">
        <ele>113.8</ele>
        <time>2020-07-20T09:21:14Z</time>
      </trkpt>
      <trkpt lat="42.4539180" lon="3.0659400">
        <ele>113.4</ele>
        <time>2020-07-20T09:21:15Z</time>
      </trkpt>
      <trkpt lat="42.4539460" lon="3.0660340">
        <ele>113.2</ele>
        <time>2020-07-20T09:21:16Z</time>
      </trkpt>
      <trkpt lat="42.4539840" lon="3.0662510">
        <ele>111.6</ele>
        <time>2020-07-20T09:21:18Z</time>
      </trkpt>
      <trkpt lat="42.4540140" lon="3.0664820">
        <ele>110.4</ele>
        <time>2020-07-20T09:21:20Z</time>
      </trkpt>
      <trkpt lat="42.4540460" lon="3.0667040">
        <ele>109.2</ele>
        <time>2020-07-20T09:21:22Z</time>
      </trkpt>
      <trkpt lat="42.4540820" lon="3.0669110">
        <ele>108.2</ele>
        <time>2020-07-20T09:21:24Z</time>
      </trkpt>
      <trkpt lat="42.4541280" lon="3.0671110">
        <ele>107.4</ele>
        <time>2020-07-20T09:21:26Z</time>
      </trkpt>
      <trkpt lat="42.4541560" lon="3.0672070">
        <ele>107.0</ele>
        <time>2020-07-20T09:21:27Z</time>
      </trkpt>
      <trkpt lat="42.4542680" lon="3.0675920">
        <ele>106.0</ele>
        <time>2020-07-20T09:21:31Z</time>
      </trkpt>
      <trkpt lat="42.4543240" lon="3.0677830">
        <ele>105.4</ele>
        <time>2020-07-20T09:21:33Z</time>
      </trkpt>
      <trkpt lat="42.4544080" lon="3.0680470">
        <ele>105.2</ele>
        <time>2020-07-20T09:21:36Z</time>
      </trkpt>
      <trkpt lat="42.4544740" lon="3.0682150">
        <ele>104.8</ele>
        <time>2020-07-20T09:21:38Z</time>
      </trkpt>
      <trkpt lat="42.4545110" lon="3.0682980">
        <ele>104.6</ele>
        <time>2020-07-20T09:21:39Z</time>
      </trkpt>
      <trkpt lat="42.4545910" lon="3.0684570">
        <ele>103.8</ele>
        <time>2020-07-20T09:21:41Z</time>
      </trkpt>
      <trkpt lat="42.4546770" lon="3.0685940">
        <ele>102.6</ele>
        <time>2020-07-20T09:21:43Z</time>
      </trkpt>
      <trkpt lat="42.4547230" lon="3.0686550">
        <ele>102.0</ele>
        <time>2020-07-20T09:21:44Z</time>
      </trkpt>
      <trkpt lat="42.4547700" lon="3.0687150">
        <ele>101.4</ele>
        <time>2020-07-20T09:21:45Z</time>
      </trkpt>
      <trkpt lat="42.4548670" lon="3.0688330">
        <ele>100.2</ele>
        <time>2020-07-20T09:21:47Z</time>
      </trkpt>
      <trkpt lat="42.4549690" lon="3.0689510">
        <ele>98.8</ele>
        <time>2020-07-20T09:21:49Z</time>
      </trkpt>
      <trkpt lat="42.4551120" lon="3.0691380">
        <ele>97.8</ele>
        <time>2020-07-20T09:21:52Z</time>
      </trkpt>
      <trkpt lat="42.4551500" lon="3.0692070">
        <ele>97.4</ele>
        <time>2020-07-20T09:21:53Z</time>
      </trkpt>
      <trkpt lat="42.4552370" lon="3.0694340">
        <ele>96.4</ele>
        <time>2020-07-20T09:21:56Z</time>
      </trkpt>
      <trkpt lat="42.4552620" lon="3.0695110">
        <ele>96.0</ele>
        <time>2020-07-20T09:21:57Z</time>
      </trkpt>
      <trkpt lat="42.4553450" lon="3.0698070">
        <ele>95.8</ele>
        <time>2020-07-20T09:22:01Z</time>
      </trkpt>
      <trkpt lat="42.4553530" lon="3.0698810">
        <ele>95.8</ele>
        <time>2020-07-20T09:22:02Z</time>
      </trkpt>
      <trkpt lat="42.4553510" lon="3.0701640">
        <ele>96.4</ele>
        <time>2020-07-20T09:22:06Z</time>
      </trkpt>
      <trkpt lat="42.4553470" lon="3.0702990">
        <ele>96.6</ele>
        <time>2020-07-20T09:22:08Z</time>
      </trkpt>
      <trkpt lat="42.4553190" lon="3.0707070">
        <ele>96.0</ele>
        <time>2020-07-20T09:22:13Z</time>
      </trkpt>
      <trkpt lat="42.4552980" lon="3.0708010">
        <ele>95.2</ele>
        <time>2020-07-20T09:22:14Z</time>
      </trkpt>
      <trkpt lat="42.4552770" lon="3.0708970">
        <ele>94.6</ele>
        <time>2020-07-20T09:22:15Z</time>
      </trkpt>
      <trkpt lat="42.4552270" lon="3.0710810">
        <ele>93.6</ele>
        <time>2020-07-20T09:22:17Z</time>
      </trkpt>
      <trkpt lat="42.4551960" lon="3.0711700">
        <ele>93.0</ele>
        <time>2020-07-20T09:22:18Z</time>
      </trkpt>
      <trkpt lat="42.4551590" lon="3.0712540">
        <ele>92.2</ele>
        <time>2020-07-20T09:22:19Z</time>
      </trkpt>
      <trkpt lat="42.4550950" lon="3.0714280">
        <ele>91.0</ele>
        <time>2020-07-20T09:22:21Z</time>
      </trkpt>
      <trkpt lat="42.4550230" lon="3.0716200">
        <ele>89.2</ele>
        <time>2020-07-20T09:22:23Z</time>
      </trkpt>
      <trkpt lat="42.4549600" lon="3.0718260">
        <ele>87.6</ele>
        <time>2020-07-20T09:22:25Z</time>
      </trkpt>
      <trkpt lat="42.4549370" lon="3.0720450">
        <ele>86.4</ele>
        <time>2020-07-20T09:22:27Z</time>
      </trkpt>
      <trkpt lat="42.4549540" lon="3.0722560">
        <ele>85.8</ele>
        <time>2020-07-20T09:22:29Z</time>
      </trkpt>
      <trkpt lat="42.4549790" lon="3.0724560">
        <ele>85.4</ele>
        <time>2020-07-20T09:22:31Z</time>
      </trkpt>
      <trkpt lat="42.4550950" lon="3.0730570">
        <ele>84.6</ele>
        <time>2020-07-20T09:22:37Z</time>
      </trkpt>
      <trkpt lat="42.4551280" lon="3.0731580">
        <ele>84.0</ele>
        <time>2020-07-20T09:22:38Z</time>
      </trkpt>
      <trkpt lat="42.4553010" lon="3.0737430">
        <ele>83.0</ele>
        <time>2020-07-20T09:22:44Z</time>
      </trkpt>
      <trkpt lat="42.4553130" lon="3.0738370">
        <ele>83.0</ele>
        <time>2020-07-20T09:22:45Z</time>
      </trkpt>
      <trkpt lat="42.4553000" lon="3.0740200">
        <ele>83.2</ele>
        <time>2020-07-20T09:22:47Z</time>
      </trkpt>
      <trkpt lat="42.4552840" lon="3.0741070">
        <ele>83.4</ele>
        <time>2020-07-20T09:22:48Z</time>
      </trkpt>
      <trkpt lat="42.4552300" lon="3.0745940">
        <ele>83.6</ele>
        <time>2020-07-20T09:22:54Z</time>
      </trkpt>
      <trkpt lat="42.4552190" lon="3.0746620">
        <ele>84.0</ele>
        <time>2020-07-20T09:22:55Z</time>
      </trkpt>
      <trkpt lat="42.4551850" lon="3.0748630">
        <ele>84.8</ele>
        <time>2020-07-20T09:22:58Z</time>
      </trkpt>
      <trkpt lat="42.4551720" lon="3.0750090">
        <ele>84.6</ele>
        <time>2020-07-20T09:23:00Z</time>
      </trkpt>
      <trkpt lat="42.4551700" lon="3.0751590">
        <ele>84.4</ele>
        <time>2020-07-20T09:23:02Z</time>
      </trkpt>
      <trkpt lat="42.4551680" lon="3.0754780">
        <ele>84.0</ele>
        <time>2020-07-20T09:23:06Z</time>
      </trkpt>
      <trkpt lat="42.4551330" lon="3.0758230">
        <ele>83.0</ele>
        <time>2020-07-20T09:23:10Z</time>
      </trkpt>
      <trkpt lat="42.4551290" lon="3.0759070">
        <ele>82.8</ele>
        <time>2020-07-20T09:23:11Z</time>
      </trkpt>
      <trkpt lat="42.4551210" lon="3.0759910">
        <ele>82.6</ele>
        <time>2020-07-20T09:23:12Z</time>
      </trkpt>
      <trkpt lat="42.4551090" lon="3.0765030">
        <ele>82.8</ele>
        <time>2020-07-20T09:23:18Z</time>
      </trkpt>
      <trkpt lat="42.4551220" lon="3.0765930">
        <ele>82.8</ele>
        <time>2020-07-20T09:23:19Z</time>
      </trkpt>
      <trkpt lat="42.4551460" lon="3.0768710">
        <ele>81.6</ele>
        <time>2020-07-20T09:23:22Z</time>
      </trkpt>
      <trkpt lat="42.4551410" lon="3.0770520">
        <ele>80.6</ele>
        <time>2020-07-20T09:23:24Z</time>
      </trkpt>
      <trkpt lat="42.4551280" lon="3.0771320">
        <ele>80.4</ele>
        <time>2020-07-20T09:23:25Z</time>
      </trkpt>
      <trkpt lat="42.4550760" lon="3.0773320">
        <ele>80.8</ele>
        <time>2020-07-20T09:23:28Z</time>
      </trkpt>
      <trkpt lat="42.4550270" lon="3.0774450">
        <ele>81.6</ele>
        <time>2020-07-20T09:23:30Z</time>
      </trkpt>
      <trkpt lat="42.4550010" lon="3.0775040">
        <ele>81.8</ele>
        <time>2020-07-20T09:23:31Z</time>
      </trkpt>
      <trkpt lat="42.4548490" lon="3.0778840">
        <ele>80.8</ele>
        <time>2020-07-20T09:23:37Z</time>
      </trkpt>
      <trkpt lat="42.4548440" lon="3.0779690">
        <ele>80.4</ele>
        <time>2020-07-20T09:23:38Z</time>
      </trkpt>
      <trkpt lat="42.4548520" lon="3.0780920">
        <ele>80.0</ele>
        <time>2020-07-20T09:23:40Z</time>
      </trkpt>
      <trkpt lat="42.4548670" lon="3.0781490">
        <ele>79.8</ele>
        <time>2020-07-20T09:23:41Z</time>
      </trkpt>
      <trkpt lat="42.4549060" lon="3.0782810">
        <ele>79.0</ele>
        <time>2020-07-20T09:23:43Z</time>
      </trkpt>
      <trkpt lat="42.4549510" lon="3.0784610">
        <ele>78.0</ele>
        <time>2020-07-20T09:23:45Z</time>
      </trkpt>
      <trkpt lat="42.4549980" lon="3.0786440">
        <ele>76.6</ele>
        <time>2020-07-20T09:23:47Z</time>
      </trkpt>
      <trkpt lat="42.4550980" lon="3.0788870">
        <ele>76.0</ele>
        <time>2020-07-20T09:23:50Z</time>
      </trkpt>
      <trkpt lat="42.4552760" lon="3.0792830">
        <ele>75.8</ele>
        <time>2020-07-20T09:23:55Z</time>
      </trkpt>
      <trkpt lat="42.4553360" lon="3.0794440">
        <ele>75.4</ele>
        <time>2020-07-20T09:23:57Z</time>
      </trkpt>
      <trkpt lat="42.4553750" lon="3.0795200">
        <ele>75.2</ele>
        <time>2020-07-20T09:23:58Z</time>
      </trkpt>
      <trkpt lat="42.4554660" lon="3.0796460">
        <ele>75.0</ele>
        <time>2020-07-20T09:24:00Z</time>
      </trkpt>
      <trkpt lat="42.4555760" lon="3.0797470">
        <ele>75.0</ele>
        <time>2020-07-20T09:24:02Z</time>
      </trkpt>
      <trkpt lat="42.4557020" lon="3.0798270">
        <ele>74.8</ele>
        <time>2020-07-20T09:24:04Z</time>
      </trkpt>
      <trkpt lat="42.4558360" lon="3.0798790">
        <ele>74.2</ele>
        <time>2020-07-20T09:24:06Z</time>
      </trkpt>
      <trkpt lat="42.4560700" lon="3.0799260">
        <ele>72.8</ele>
        <time>2020-07-20T09:24:09Z</time>
      </trkpt>
      <trkpt lat="42.4562230" lon="3.0799720">
        <ele>71.6</ele>
        <time>2020-07-20T09:24:11Z</time>
      </trkpt>
      <trkpt lat="42.4563590" lon="3.0800550">
        <ele>71.0</ele>
        <time>2020-07-20T09:24:13Z</time>
      </trkpt>
      <trkpt lat="42.4564690" lon="3.0801860">
        <ele>70.8</ele>
        <time>2020-07-20T09:24:15Z</time>
      </trkpt>
      <trkpt lat="42.4565220" lon="3.0803690">
        <ele>70.8</ele>
        <time>2020-07-20T09:24:17Z</time>
      </trkpt>
      <trkpt lat="42.4565310" lon="3.0804710">
        <ele>70.8</ele>
        <time>2020-07-20T09:24:18Z</time>
      </trkpt>
      <trkpt lat="42.4565310" lon="3.0806810">
        <ele>70.4</ele>
        <time>2020-07-20T09:24:20Z</time>
      </trkpt>
      <trkpt lat="42.4565610" lon="3.0810050">
        <ele>69.0</ele>
        <time>2020-07-20T09:24:23Z</time>
      </trkpt>
      <trkpt lat="42.4565960" lon="3.0813140">
        <ele>67.8</ele>
        <time>2020-07-20T09:24:26Z</time>
      </trkpt>
      <trkpt lat="42.4566170" lon="3.0815930">
        <ele>67.4</ele>
        <time>2020-07-20T09:24:29Z</time>
      </trkpt>
      <trkpt lat="42.4567000" lon="3.0821000">
        <ele>68.6</ele>
        <time>2020-07-20T09:24:35Z</time>
      </trkpt>
      <trkpt lat="42.4567550" lon="3.0823270">
        <ele>68.8</ele>
        <time>2020-07-20T09:24:38Z</time>
      </trkpt>
      <trkpt lat="42.4568040" lon="3.0825480">
        <ele>68.8</ele>
        <time>2020-07-20T09:24:41Z</time>
      </trkpt>
      <trkpt lat="42.4568240" lon="3.0827150">
        <ele>68.6</ele>
        <time>2020-07-20T09:24:43Z</time>
      </trkpt>
      <trkpt lat="42.4568100" lon="3.0829050">
        <ele>68.2</ele>
        <time>2020-07-20T09:24:45Z</time>
      </trkpt>
      <trkpt lat="42.4567880" lon="3.0830030">
        <ele>67.6</ele>
        <time>2020-07-20T09:24:46Z</time>
      </trkpt>
      <trkpt lat="42.4567430" lon="3.0832020">
        <ele>66.4</ele>
        <time>2020-07-20T09:24:48Z</time>
      </trkpt>
      <trkpt lat="42.4567130" lon="3.0835170">
        <ele>65.2</ele>
        <time>2020-07-20T09:24:51Z</time>
      </trkpt>
      <trkpt lat="42.4567110" lon="3.0836230">
        <ele>64.8</ele>
        <time>2020-07-20T09:24:52Z</time>
      </trkpt>
      <trkpt lat="42.4567060" lon="3.0837290">
        <ele>64.6</ele>
        <time>2020-07-20T09:24:53Z</time>
      </trkpt>
      <trkpt lat="42.4566920" lon="3.0839480">
        <ele>64.2</ele>
        <time>2020-07-20T09:24:55Z</time>
      </trkpt>
      <trkpt lat="42.4566850" lon="3.0840590">
        <ele>63.6</ele>
        <time>2020-07-20T09:24:56Z</time>
      </trkpt>
      <trkpt lat="42.4566500" lon="3.0843930">
        <ele>62.6</ele>
        <time>2020-07-20T09:24:59Z</time>
      </trkpt>
      <trkpt lat="42.4565400" lon="3.0848390">
        <ele>61.6</ele>
        <time>2020-07-20T09:25:03Z</time>
      </trkpt>
      <trkpt lat="42.4565110" lon="3.0849490">
        <ele>61.0</ele>
        <time>2020-07-20T09:25:04Z</time>
      </trkpt>
      <trkpt lat="42.4564160" lon="3.0853820">
        <ele>60.6</ele>
        <time>2020-07-20T09:25:08Z</time>
      </trkpt>
      <trkpt lat="42.4564070" lon="3.0854940">
        <ele>60.4</ele>
        <time>2020-07-20T09:25:09Z</time>
      </trkpt>
      <trkpt lat="42.4564090" lon="3.0855970">
        <ele>60.4</ele>
        <time>2020-07-20T09:25:10Z</time>
      </trkpt>
      <trkpt lat="42.4564240" lon="3.0856880">
        <ele>60.4</ele>
        <time>2020-07-20T09:25:11Z</time>
      </trkpt>
      <trkpt lat="42.4565210" lon="3.0858160">
        <ele>60.2</ele>
        <time>2020-07-20T09:25:13Z</time>
      </trkpt>
      <trkpt lat="42.4566660" lon="3.0858890">
        <ele>59.8</ele>
        <time>2020-07-20T09:25:15Z</time>
      </trkpt>
      <trkpt lat="42.4567440" lon="3.0859190">
        <ele>59.2</ele>
        <time>2020-07-20T09:25:16Z</time>
      </trkpt>
      <trkpt lat="42.4568290" lon="3.0859470">
        <ele>58.4</ele>
        <time>2020-07-20T09:25:17Z</time>
      </trkpt>
      <trkpt lat="42.4569050" lon="3.0859770">
        <ele>57.8</ele>
        <time>2020-07-20T09:25:18Z</time>
      </trkpt>
      <trkpt lat="42.4569720" lon="3.0860140">
        <ele>57.2</ele>
        <time>2020-07-20T09:25:19Z</time>
      </trkpt>
      <trkpt lat="42.4570220" lon="3.0860640">
        <ele>56.8</ele>
        <time>2020-07-20T09:25:20Z</time>
      </trkpt>
      <trkpt lat="42.4570590" lon="3.0861230">
        <ele>56.6</ele>
        <time>2020-07-20T09:25:21Z</time>
      </trkpt>
      <trkpt lat="42.4571300" lon="3.0862290">
        <ele>56.4</ele>
        <time>2020-07-20T09:25:23Z</time>
      </trkpt>
      <trkpt lat="42.4571700" lon="3.0862600">
        <ele>56.2</ele>
        <time>2020-07-20T09:25:24Z</time>
      </trkpt>
      <trkpt lat="42.4572200" lon="3.0862520">
        <ele>56.0</ele>
        <time>2020-07-20T09:25:25Z</time>
      </trkpt>
      <trkpt lat="42.4573300" lon="3.0862160">
        <ele>55.8</ele>
        <time>2020-07-20T09:25:27Z</time>
      </trkpt>
      <trkpt lat="42.4573900" lon="3.0862070">
        <ele>55.8</ele>
        <time>2020-07-20T09:25:28Z</time>
      </trkpt>
      <trkpt lat="42.4574500" lon="3.0862130">
        <ele>55.6</ele>
        <time>2020-07-20T09:25:29Z</time>
      </trkpt>
      <trkpt lat="42.4575090" lon="3.0862360">
        <ele>55.4</ele>
        <time>2020-07-20T09:25:30Z</time>
      </trkpt>
      <trkpt lat="42.4575660" lon="3.0862740">
        <ele>55.2</ele>
        <time>2020-07-20T09:25:31Z</time>
      </trkpt>
      <trkpt lat="42.4577760" lon="3.0864930">
        <ele>54.2</ele>
        <time>2020-07-20T09:25:35Z</time>
      </trkpt>
      <trkpt lat="42.4578230" lon="3.0865500">
        <ele>53.6</ele>
        <time>2020-07-20T09:25:36Z</time>
      </trkpt>
      <trkpt lat="42.4579080" lon="3.0866590">
        <ele>53.0</ele>
        <time>2020-07-20T09:25:38Z</time>
      </trkpt>
      <trkpt lat="42.4580560" lon="3.0868680">
        <ele>52.8</ele>
        <time>2020-07-20T09:25:42Z</time>
      </trkpt>
      <trkpt lat="42.4581540" lon="3.0870400">
        <ele>53.2</ele>
        <time>2020-07-20T09:25:45Z</time>
      </trkpt>
      <trkpt lat="42.4581750" lon="3.0871910">
        <ele>53.6</ele>
        <time>2020-07-20T09:25:47Z</time>
      </trkpt>
      <trkpt lat="42.4581500" lon="3.0876260">
        <ele>52.8</ele>
        <time>2020-07-20T09:25:52Z</time>
      </trkpt>
      <trkpt lat="42.4581610" lon="3.0878080">
        <ele>51.8</ele>
        <time>2020-07-20T09:25:54Z</time>
      </trkpt>
      <trkpt lat="42.4581950" lon="3.0879870">
        <ele>51.2</ele>
        <time>2020-07-20T09:25:56Z</time>
      </trkpt>
      <trkpt lat="42.4582460" lon="3.0881570">
        <ele>51.2</ele>
        <time>2020-07-20T09:25:58Z</time>
      </trkpt>
      <trkpt lat="42.4582780" lon="3.0882350">
        <ele>51.0</ele>
        <time>2020-07-20T09:25:59Z</time>
      </trkpt>
      <trkpt lat="42.4583500" lon="3.0883740">
        <ele>51.2</ele>
        <time>2020-07-20T09:26:01Z</time>
      </trkpt>
      <trkpt lat="42.4584760" lon="3.0885630">
        <ele>51.2</ele>
        <time>2020-07-20T09:26:04Z</time>
      </trkpt>
      <trkpt lat="42.4585670" lon="3.0886670">
        <ele>51.0</ele>
        <time>2020-07-20T09:26:06Z</time>
      </trkpt>
      <trkpt lat="42.4586890" lon="3.0887230">
        <ele>50.8</ele>
        <time>2020-07-20T09:26:08Z</time>
      </trkpt>
      <trkpt lat="42.4587570" lon="3.0887370">
        <ele>50.8</ele>
        <time>2020-07-20T09:26:09Z</time>
      </trkpt>
      <trkpt lat="42.4588270" lon="3.0887430">
        <ele>50.6</ele>
        <time>2020-07-20T09:26:10Z</time>
      </trkpt>
      <trkpt lat="42.4590370" lon="3.0887000">
        <ele>49.4</ele>
        <time>2020-07-20T09:26:13Z</time>
      </trkpt>
      <trkpt lat="42.4593230" lon="3.0886360">
        <ele>48.6</ele>
        <time>2020-07-20T09:26:17Z</time>
      </trkpt>
      <trkpt lat="42.4594000" lon="3.0886270">
        <ele>48.4</ele>
        <time>2020-07-20T09:26:18Z</time>
      </trkpt>
      <trkpt lat="42.4594750" lon="3.0886230">
        <ele>48.2</ele>
        <time>2020-07-20T09:26:19Z</time>
      </trkpt>
      <trkpt lat="42.4597150" lon="3.0886280">
        <ele>47.4</ele>
        <time>2020-07-20T09:26:22Z</time>
      </trkpt>
      <trkpt lat="42.4598790" lon="3.0886550">
        <ele>46.0</ele>
        <time>2020-07-20T09:26:24Z</time>
      </trkpt>
      <trkpt lat="42.4601170" lon="3.0887200">
        <ele>44.8</ele>
        <time>2020-07-20T09:26:27Z</time>
      </trkpt>
      <trkpt lat="42.4603560" lon="3.0887580">
        <ele>44.2</ele>
        <time>2020-07-20T09:26:30Z</time>
      </trkpt>
      <trkpt lat="42.4605960" lon="3.0887630">
        <ele>43.4</ele>
        <time>2020-07-20T09:26:33Z</time>
      </trkpt>
      <trkpt lat="42.4607510" lon="3.0887550">
        <ele>43.0</ele>
        <time>2020-07-20T09:26:35Z</time>
      </trkpt>
      <trkpt lat="42.4608230" lon="3.0887590">
        <ele>43.2</ele>
        <time>2020-07-20T09:26:36Z</time>
      </trkpt>
      <trkpt lat="42.4609440" lon="3.0888170">
        <ele>43.6</ele>
        <time>2020-07-20T09:26:38Z</time>
      </trkpt>
      <trkpt lat="42.4609940" lon="3.0888630">
        <ele>43.8</ele>
        <time>2020-07-20T09:26:39Z</time>
      </trkpt>
      <trkpt lat="42.4612830" lon="3.0891670">
        <ele>44.2</ele>
        <time>2020-07-20T09:26:45Z</time>
      </trkpt>
      <trkpt lat="42.4613860" lon="3.0892780">
        <ele>44.0</ele>
        <time>2020-07-20T09:26:47Z</time>
      </trkpt>
      <trkpt lat="42.4615450" lon="3.0894380">
        <ele>42.8</ele>
        <time>2020-07-20T09:26:50Z</time>
      </trkpt>
      <trkpt lat="42.4617220" lon="3.0895820">
        <ele>42.2</ele>
        <time>2020-07-20T09:26:53Z</time>
      </trkpt>
      <trkpt lat="42.4618230" lon="3.0897270">
        <ele>41.6</ele>
        <time>2020-07-20T09:26:55Z</time>
      </trkpt>
      <trkpt lat="42.4619150" lon="3.0898990">
        <ele>41.0</ele>
        <time>2020-07-20T09:26:57Z</time>
      </trkpt>
      <trkpt lat="42.4620630" lon="3.0901650">
        <ele>39.8</ele>
        <time>2020-07-20T09:27:00Z</time>
      </trkpt>
      <trkpt lat="42.4622170" lon="3.0904350">
        <ele>38.8</ele>
        <time>2020-07-20T09:27:03Z</time>
      </trkpt>
      <trkpt lat="42.4623770" lon="3.0906850">
        <ele>38.0</ele>
        <time>2020-07-20T09:27:06Z</time>
      </trkpt>
      <trkpt lat="42.4624810" lon="3.0908460">
        <ele>37.6</ele>
        <time>2020-07-20T09:27:08Z</time>
      </trkpt>
      <trkpt lat="42.4626590" lon="3.0910960">
        <ele>37.8</ele>
        <time>2020-07-20T09:27:12Z</time>
      </trkpt>
      <trkpt lat="42.4627160" lon="3.0911610">
        <ele>39.0</ele>
        <time>2020-07-20T09:27:15Z</time>
      </trkpt>
      <trkpt lat="42.4627420" lon="3.0911970">
        <ele>39.6</ele>
        <time>2020-07-20T09:27:17Z</time>
      </trkpt>
      <trkpt lat="42.4627860" lon="3.0908130">
        <ele>38.0</ele>
        <time>2020-07-20T09:32:33Z</time>
      </trkpt>
      <trkpt lat="42.4627830" lon="3.0907830">
        <ele>38.0</ele>
        <time>2020-07-20T09:32:34Z</time>
      </trkpt>
      <trkpt lat="42.4628130" lon="3.0906190">
        <ele>38.0</ele>
        <time>2020-07-20T09:32:37Z</time>
      </trkpt>
      <trkpt lat="42.4628310" lon="3.0905620">
        <ele>38.0</ele>
        <time>2020-07-20T09:32:38Z</time>
      </trkpt>
      <trkpt lat="42.4628560" lon="3.0905080">
        <ele>38.0</ele>
        <time>2020-07-20T09:32:39Z</time>
      </trkpt>
      <trkpt lat="42.4628810" lon="3.0904530">
        <ele>38.0</ele>
        <time>2020-07-20T09:32:40Z</time>
      </trkpt>
      <trkpt lat="42.4629750" lon="3.0903600">
        <ele>37.8</ele>
        <time>2020-07-20T09:32:43Z</time>
      </trkpt>
      <trkpt lat="42.4630120" lon="3.0903570">
        <ele>37.8</ele>
        <time>2020-07-20T09:32:44Z</time>
      </trkpt>
      <trkpt lat="42.4630930" lon="3.0903790">
        <ele>37.4</ele>
        <time>2020-07-20T09:32:46Z</time>
      </trkpt>
      <trkpt lat="42.4632310" lon="3.0904440">
        <ele>36.8</ele>
        <time>2020-07-20T09:32:49Z</time>
      </trkpt>
      <trkpt lat="42.4634320" lon="3.0905530">
        <ele>36.4</ele>
        <time>2020-07-20T09:32:53Z</time>
      </trkpt>
      <trkpt lat="42.4636940" lon="3.0907060">
        <ele>36.6</ele>
        <time>2020-07-20T09:32:58Z</time>
      </trkpt>
      <trkpt lat="42.4637990" lon="3.0907700">
        <ele>36.8</ele>
        <time>2020-07-20T09:33:00Z</time>
      </trkpt>
      <trkpt lat="42.4638520" lon="3.0908020">
        <ele>36.8</ele>
        <time>2020-07-20T09:33:01Z</time>
      </trkpt>
      <trkpt lat="42.4639590" lon="3.0908560">
        <ele>36.8</ele>
        <time>2020-07-20T09:33:03Z</time>
      </trkpt>
      <trkpt lat="42.4640150" lon="3.0908740">
        <ele>36.8</ele>
        <time>2020-07-20T09:33:04Z</time>
      </trkpt>
      <trkpt lat="42.4641330" lon="3.0908890">
        <ele>36.8</ele>
        <time>2020-07-20T09:33:06Z</time>
      </trkpt>
      <trkpt lat="42.4644290" lon="3.0908670">
        <ele>36.6</ele>
        <time>2020-07-20T09:33:11Z</time>
      </trkpt>
      <trkpt lat="42.4645450" lon="3.0908500">
        <ele>36.6</ele>
        <time>2020-07-20T09:33:13Z</time>
      </trkpt>
      <trkpt lat="42.4647610" lon="3.0908410">
        <ele>36.6</ele>
        <time>2020-07-20T09:33:17Z</time>
      </trkpt>
      <trkpt lat="42.4648190" lon="3.0908400">
        <ele>36.6</ele>
        <time>2020-07-20T09:33:18Z</time>
      </trkpt>
      <trkpt lat="42.4649450" lon="3.0908470">
        <ele>36.6</ele>
        <time>2020-07-20T09:33:20Z</time>
      </trkpt>
      <trkpt lat="42.4653240" lon="3.0909290">
        <ele>35.8</ele>
        <time>2020-07-20T09:33:26Z</time>
      </trkpt>
      <trkpt lat="42.4653880" lon="3.0909470">
        <ele>35.6</ele>
        <time>2020-07-20T09:33:27Z</time>
      </trkpt>
      <trkpt lat="42.4655150" lon="3.0909910">
        <ele>35.4</ele>
        <time>2020-07-20T09:33:29Z</time>
      </trkpt>
      <trkpt lat="42.4656970" lon="3.0910940">
        <ele>35.2</ele>
        <time>2020-07-20T09:33:32Z</time>
      </trkpt>
      <trkpt lat="42.4657500" lon="3.0911490">
        <ele>35.0</ele>
        <time>2020-07-20T09:33:33Z</time>
      </trkpt>
      <trkpt lat="42.4657990" lon="3.0912100">
        <ele>34.6</ele>
        <time>2020-07-20T09:33:34Z</time>
      </trkpt>
      <trkpt lat="42.4658470" lon="3.0912770">
        <ele>34.2</ele>
        <time>2020-07-20T09:33:35Z</time>
      </trkpt>
      <trkpt lat="42.4659440" lon="3.0914130">
        <ele>33.2</ele>
        <time>2020-07-20T09:33:37Z</time>
      </trkpt>
      <trkpt lat="42.4659930" lon="3.0914850">
        <ele>32.6</ele>
        <time>2020-07-20T09:33:38Z</time>
      </trkpt>
      <trkpt lat="42.4660890" lon="3.0916310">
        <ele>32.0</ele>
        <time>2020-07-20T09:33:40Z</time>
      </trkpt>
      <trkpt lat="42.4663140" lon="3.0920400">
        <ele>31.0</ele>
        <time>2020-07-20T09:33:45Z</time>
      </trkpt>
      <trkpt lat="42.4665030" lon="3.0924950">
        <ele>29.4</ele>
        <time>2020-07-20T09:33:50Z</time>
      </trkpt>
      <trkpt lat="42.4665480" lon="3.0925780">
        <ele>29.2</ele>
        <time>2020-07-20T09:33:51Z</time>
      </trkpt>
      <trkpt lat="42.4668050" lon="3.0930660">
        <ele>28.6</ele>
        <time>2020-07-20T09:33:57Z</time>
      </trkpt>
      <trkpt lat="42.4668780" lon="3.0932110">
        <ele>28.6</ele>
        <time>2020-07-20T09:33:59Z</time>
      </trkpt>
      <trkpt lat="42.4669420" lon="3.0933480">
        <ele>29.2</ele>
        <time>2020-07-20T09:34:01Z</time>
      </trkpt>
      <trkpt lat="42.4669790" lon="3.0934950">
        <ele>29.6</ele>
        <time>2020-07-20T09:34:03Z</time>
      </trkpt>
      <trkpt lat="42.4669860" lon="3.0935710">
        <ele>29.4</ele>
        <time>2020-07-20T09:34:04Z</time>
      </trkpt>
      <trkpt lat="42.4669890" lon="3.0937170">
        <ele>29.2</ele>
        <time>2020-07-20T09:34:06Z</time>
      </trkpt>
      <trkpt lat="42.4669680" lon="3.0938570">
        <ele>28.8</ele>
        <time>2020-07-20T09:34:08Z</time>
      </trkpt>
      <trkpt lat="42.4669500" lon="3.0939290">
        <ele>28.8</ele>
        <time>2020-07-20T09:34:09Z</time>
      </trkpt>
      <trkpt lat="42.4669270" lon="3.0940750">
        <ele>28.6</ele>
        <time>2020-07-20T09:34:11Z</time>
      </trkpt>
      <trkpt lat="42.4669420" lon="3.0942140">
        <ele>28.6</ele>
        <time>2020-07-20T09:34:13Z</time>
      </trkpt>
      <trkpt lat="42.4669730" lon="3.0942740">
        <ele>28.6</ele>
        <time>2020-07-20T09:34:14Z</time>
      </trkpt>
      <trkpt lat="42.4670080" lon="3.0943290">
        <ele>28.4</ele>
        <time>2020-07-20T09:34:15Z</time>
      </trkpt>
      <trkpt lat="42.4671440" lon="3.0944680">
        <ele>28.6</ele>
        <time>2020-07-20T09:34:18Z</time>
      </trkpt>
      <trkpt lat="42.4671980" lon="3.0945100">
        <ele>28.6</ele>
        <time>2020-07-20T09:34:19Z</time>
      </trkpt>
      <trkpt lat="42.4673000" lon="3.0945900">
        <ele>28.6</ele>
        <time>2020-07-20T09:34:21Z</time>
      </trkpt>
      <trkpt lat="42.4675790" lon="3.0947500">
        <ele>28.4</ele>
        <time>2020-07-20T09:34:26Z</time>
      </trkpt>
      <trkpt lat="42.4678350" lon="3.0948090">
        <ele>28.2</ele>
        <time>2020-07-20T09:34:30Z</time>
      </trkpt>
      <trkpt lat="42.4679000" lon="3.0948230">
        <ele>28.2</ele>
        <time>2020-07-20T09:34:31Z</time>
      </trkpt>
      <trkpt lat="42.4679640" lon="3.0948410">
        <ele>28.0</ele>
        <time>2020-07-20T09:34:32Z</time>
      </trkpt>
      <trkpt lat="42.4682090" lon="3.0949680">
        <ele>27.8</ele>
        <time>2020-07-20T09:34:36Z</time>
      </trkpt>
      <trkpt lat="42.4683350" lon="3.0950430">
        <ele>27.4</ele>
        <time>2020-07-20T09:34:38Z</time>
      </trkpt>
      <trkpt lat="42.4686480" lon="3.0952390">
        <ele>26.8</ele>
        <time>2020-07-20T09:34:43Z</time>
      </trkpt>
      <trkpt lat="42.4687730" lon="3.0953170">
        <ele>26.8</ele>
        <time>2020-07-20T09:34:45Z</time>
      </trkpt>
      <trkpt lat="42.4688350" lon="3.0953580">
        <ele>26.8</ele>
        <time>2020-07-20T09:34:46Z</time>
      </trkpt>
      <trkpt lat="42.4688920" lon="3.0954050">
        <ele>26.6</ele>
        <time>2020-07-20T09:34:47Z</time>
      </trkpt>
      <trkpt lat="42.4689410" lon="3.0954640">
        <ele>26.6</ele>
        <time>2020-07-20T09:34:48Z</time>
      </trkpt>
      <trkpt lat="42.4689840" lon="3.0955360">
        <ele>26.6</ele>
        <time>2020-07-20T09:34:49Z</time>
      </trkpt>
      <trkpt lat="42.4690220" lon="3.0956140">
        <ele>26.4</ele>
        <time>2020-07-20T09:34:50Z</time>
      </trkpt>
      <trkpt lat="42.4690580" lon="3.0956960">
        <ele>26.2</ele>
        <time>2020-07-20T09:34:51Z</time>
      </trkpt>
      <trkpt lat="42.4691670" lon="3.0959520">
        <ele>25.6</ele>
        <time>2020-07-20T09:34:54Z</time>
      </trkpt>
      <trkpt lat="42.4692030" lon="3.0960390">
        <ele>25.6</ele>
        <time>2020-07-20T09:34:55Z</time>
      </trkpt>
      <trkpt lat="42.4692360" lon="3.0961270">
        <ele>25.4</ele>
        <time>2020-07-20T09:34:56Z</time>
      </trkpt>
      <trkpt lat="42.4693300" lon="3.0964950">
        <ele>24.8</ele>
        <time>2020-07-20T09:35:00Z</time>
      </trkpt>
      <trkpt lat="42.4693560" lon="3.0967900">
        <ele>25.0</ele>
        <time>2020-07-20T09:35:03Z</time>
      </trkpt>
      <trkpt lat="42.4693390" lon="3.0969850">
        <ele>24.8</ele>
        <time>2020-07-20T09:35:05Z</time>
      </trkpt>
      <trkpt lat="42.4693190" lon="3.0970810">
        <ele>24.6</ele>
        <time>2020-07-20T09:35:06Z</time>
      </trkpt>
      <trkpt lat="42.4692370" lon="3.0972380">
        <ele>24.4</ele>
        <time>2020-07-20T09:35:08Z</time>
      </trkpt>
      <trkpt lat="42.4691370" lon="3.0973710">
        <ele>24.2</ele>
        <time>2020-07-20T09:35:09Z</time>
      </trkpt>
      <trkpt lat="42.4690080" lon="3.0975950">
        <ele>23.8</ele>
        <time>2020-07-20T09:35:13Z</time>
      </trkpt>
      <trkpt lat="42.4688970" lon="3.0978340">
        <ele>23.2</ele>
        <time>2020-07-20T09:35:16Z</time>
      </trkpt>
      <trkpt lat="42.4686840" lon="3.0983140">
        <ele>22.4</ele>
        <time>2020-07-20T09:35:22Z</time>
      </trkpt>
      <trkpt lat="42.4686480" lon="3.0983960">
        <ele>22.0</ele>
        <time>2020-07-20T09:35:23Z</time>
      </trkpt>
      <trkpt lat="42.4685580" lon="3.0986540">
        <ele>21.0</ele>
        <time>2020-07-20T09:35:26Z</time>
      </trkpt>
      <trkpt lat="42.4685390" lon="3.0987450">
        <ele>20.8</ele>
        <time>2020-07-20T09:35:27Z</time>
      </trkpt>
      <trkpt lat="42.4685250" lon="3.0988400">
        <ele>20.8</ele>
        <time>2020-07-20T09:35:28Z</time>
      </trkpt>
      <trkpt lat="42.4685170" lon="3.0989380">
        <ele>20.8</ele>
        <time>2020-07-20T09:35:29Z</time>
      </trkpt>
      <trkpt lat="42.4685160" lon="3.0991320">
        <ele>21.2</ele>
        <time>2020-07-20T09:35:31Z</time>
      </trkpt>
      <trkpt lat="42.4685280" lon="3.0992250">
        <ele>21.4</ele>
        <time>2020-07-20T09:35:32Z</time>
      </trkpt>
      <trkpt lat="42.4685450" lon="3.0993130">
        <ele>21.6</ele>
        <time>2020-07-20T09:35:33Z</time>
      </trkpt>
      <trkpt lat="42.4685880" lon="3.0994820">
        <ele>21.6</ele>
        <time>2020-07-20T09:35:35Z</time>
      </trkpt>
      <trkpt lat="42.4686440" lon="3.0996510">
        <ele>21.6</ele>
        <time>2020-07-20T09:35:37Z</time>
      </trkpt>
      <trkpt lat="42.4687680" lon="3.0999820">
        <ele>21.2</ele>
        <time>2020-07-20T09:35:41Z</time>
      </trkpt>
      <trkpt lat="42.4688820" lon="3.1003270">
        <ele>20.8</ele>
        <time>2020-07-20T09:35:45Z</time>
      </trkpt>
      <trkpt lat="42.4690360" lon="3.1008830">
        <ele>21.0</ele>
        <time>2020-07-20T09:35:51Z</time>
      </trkpt>
      <trkpt lat="42.4690600" lon="3.1009760">
        <ele>21.0</ele>
        <time>2020-07-20T09:35:52Z</time>
      </trkpt>
      <trkpt lat="42.4691540" lon="3.1013710">
        <ele>20.0</ele>
        <time>2020-07-20T09:35:57Z</time>
      </trkpt>
      <trkpt lat="42.4691760" lon="3.1015230">
        <ele>19.8</ele>
        <time>2020-07-20T09:35:59Z</time>
      </trkpt>
      <trkpt lat="42.4691520" lon="3.1016670">
        <ele>19.8</ele>
        <time>2020-07-20T09:36:01Z</time>
      </trkpt>
      <trkpt lat="42.4689870" lon="3.1019820">
        <ele>20.0</ele>
        <time>2020-07-20T09:36:06Z</time>
      </trkpt>
      <trkpt lat="42.4688800" lon="3.1021680">
        <ele>19.8</ele>
        <time>2020-07-20T09:36:09Z</time>
      </trkpt>
      <trkpt lat="42.4687270" lon="3.1024050">
        <ele>19.8</ele>
        <time>2020-07-20T09:36:13Z</time>
      </trkpt>
      <trkpt lat="42.4685360" lon="3.1026050">
        <ele>19.4</ele>
        <time>2020-07-20T09:36:17Z</time>
      </trkpt>
      <trkpt lat="42.4684800" lon="3.1026480">
        <ele>19.2</ele>
        <time>2020-07-20T09:36:18Z</time>
      </trkpt>
      <trkpt lat="42.4683580" lon="3.1027150">
        <ele>18.6</ele>
        <time>2020-07-20T09:36:20Z</time>
      </trkpt>
      <trkpt lat="42.4682340" lon="3.1027770">
        <ele>18.4</ele>
        <time>2020-07-20T09:36:22Z</time>
      </trkpt>
      <trkpt lat="42.4681050" lon="3.1028330">
        <ele>18.4</ele>
        <time>2020-07-20T09:36:24Z</time>
      </trkpt>
      <trkpt lat="42.4677070" lon="3.1029590">
        <ele>17.8</ele>
        <time>2020-07-20T09:36:30Z</time>
      </trkpt>
      <trkpt lat="42.4676400" lon="3.1029780">
        <ele>17.6</ele>
        <time>2020-07-20T09:36:31Z</time>
      </trkpt>
      <trkpt lat="42.4672240" lon="3.1030600">
        <ele>17.0</ele>
        <time>2020-07-20T09:36:37Z</time>
      </trkpt>
      <trkpt lat="42.4670820" lon="3.1030520">
        <ele>17.0</ele>
        <time>2020-07-20T09:36:39Z</time>
      </trkpt>
      <trkpt lat="42.4668660" lon="3.1030210">
        <ele>16.6</ele>
        <time>2020-07-20T09:36:42Z</time>
      </trkpt>
      <trkpt lat="42.4665850" lon="3.1030130">
        <ele>15.6</ele>
        <time>2020-07-20T09:36:46Z</time>
      </trkpt>
      <trkpt lat="42.4665230" lon="3.1030360">
        <ele>15.4</ele>
        <time>2020-07-20T09:36:47Z</time>
      </trkpt>
      <trkpt lat="42.4664620" lon="3.1030780">
        <ele>15.4</ele>
        <time>2020-07-20T09:36:48Z</time>
      </trkpt>
      <trkpt lat="42.4664120" lon="3.1031340">
        <ele>15.2</ele>
        <time>2020-07-20T09:36:49Z</time>
      </trkpt>
      <trkpt lat="42.4663750" lon="3.1032110">
        <ele>15.0</ele>
        <time>2020-07-20T09:36:50Z</time>
      </trkpt>
      <trkpt lat="42.4663200" lon="3.1033850">
        <ele>14.8</ele>
        <time>2020-07-20T09:36:52Z</time>
      </trkpt>
      <trkpt lat="42.4662520" lon="3.1036620">
        <ele>14.2</ele>
        <time>2020-07-20T09:36:55Z</time>
      </trkpt>
      <trkpt lat="42.4662110" lon="3.1039690">
        <ele>13.8</ele>
        <time>2020-07-20T09:36:58Z</time>
      </trkpt>
      <trkpt lat="42.4661830" lon="3.1042760">
        <ele>13.4</ele>
        <time>2020-07-20T09:37:01Z</time>
      </trkpt>
      <trkpt lat="42.4661750" lon="3.1043810">
        <ele>13.0</ele>
        <time>2020-07-20T09:37:02Z</time>
      </trkpt>
      <trkpt lat="42.4661480" lon="3.1046910">
        <ele>11.8</ele>
        <time>2020-07-20T09:37:05Z</time>
      </trkpt>
      <trkpt lat="42.4661400" lon="3.1047940">
        <ele>11.8</ele>
        <time>2020-07-20T09:37:06Z</time>
      </trkpt>
      <trkpt lat="42.4661240" lon="3.1054350">
        <ele>11.2</ele>
        <time>2020-07-20T09:37:12Z</time>
      </trkpt>
      <trkpt lat="42.4661320" lon="3.1055430">
        <ele>10.8</ele>
        <time>2020-07-20T09:37:13Z</time>
      </trkpt>
      <trkpt lat="42.4661280" lon="3.1059850">
        <ele>9.6</ele>
        <time>2020-07-20T09:37:17Z</time>
      </trkpt>
      <trkpt lat="42.4661180" lon="3.1060920">
        <ele>9.6</ele>
        <time>2020-07-20T09:37:18Z</time>
      </trkpt>
      <trkpt lat="42.4661140" lon="3.1063020">
        <ele>9.2</ele>
        <time>2020-07-20T09:37:20Z</time>
      </trkpt>
      <trkpt lat="42.4661350" lon="3.1065100">
        <ele>9.0</ele>
        <time>2020-07-20T09:37:22Z</time>
      </trkpt>
      <trkpt lat="42.4662140" lon="3.1069930">
        <ele>8.6</ele>
        <time>2020-07-20T09:37:27Z</time>
      </trkpt>
      <trkpt lat="42.4662310" lon="3.1070830">
        <ele>8.6</ele>
        <time>2020-07-20T09:37:28Z</time>
      </trkpt>
      <trkpt lat="42.4662490" lon="3.1071730">
        <ele>8.6</ele>
        <time>2020-07-20T09:37:29Z</time>
      </trkpt>
      <trkpt lat="42.4663700" lon="3.1076590">
        <ele>8.6</ele>
        <time>2020-07-20T09:37:35Z</time>
      </trkpt>
      <trkpt lat="42.4663900" lon="3.1077260">
        <ele>8.4</ele>
        <time>2020-07-20T09:37:36Z</time>
      </trkpt>
      <trkpt lat="42.4664140" lon="3.1077910">
        <ele>8.2</ele>
        <time>2020-07-20T09:37:37Z</time>
      </trkpt>
      <trkpt lat="42.4665120" lon="3.1079770">
        <ele>8.0</ele>
        <time>2020-07-20T09:37:40Z</time>
      </trkpt>
      <trkpt lat="42.4665530" lon="3.1080320">
        <ele>8.0</ele>
        <time>2020-07-20T09:37:41Z</time>
      </trkpt>
      <trkpt lat="42.4666850" lon="3.1081920">
        <ele>7.8</ele>
        <time>2020-07-20T09:37:44Z</time>
      </trkpt>
      <trkpt lat="42.4667770" lon="3.1083020">
        <ele>7.6</ele>
        <time>2020-07-20T09:37:46Z</time>
      </trkpt>
      <trkpt lat="42.4668660" lon="3.1084110">
        <ele>7.2</ele>
        <time>2020-07-20T09:37:48Z</time>
      </trkpt>
      <trkpt lat="42.4671580" lon="3.1086890">
        <ele>6.6</ele>
        <time>2020-07-20T09:37:53Z</time>
      </trkpt>
      <trkpt lat="42.4672160" lon="3.1087400">
        <ele>6.4</ele>
        <time>2020-07-20T09:37:54Z</time>
      </trkpt>
      <trkpt lat="42.4673820" lon="3.1088900">
        <ele>6.2</ele>
        <time>2020-07-20T09:37:57Z</time>
      </trkpt>
      <trkpt lat="42.4676830" lon="3.1092000">
        <ele>7.4</ele>
        <time>2020-07-20T09:38:03Z</time>
      </trkpt>
      <trkpt lat="42.4677300" lon="3.1092510">
        <ele>7.8</ele>
        <time>2020-07-20T09:38:04Z</time>
      </trkpt>
      <trkpt lat="42.4678550" lon="3.1094120">
        <ele>8.2</ele>
        <time>2020-07-20T09:38:07Z</time>
      </trkpt>
      <trkpt lat="42.4679130" lon="3.1095510">
        <ele>8.0</ele>
        <time>2020-07-20T09:38:09Z</time>
      </trkpt>
      <trkpt lat="42.4680020" lon="3.1100270">
        <ele>7.6</ele>
        <time>2020-07-20T09:38:15Z</time>
      </trkpt>
      <trkpt lat="42.4680050" lon="3.1105270">
        <ele>7.6</ele>
        <time>2020-07-20T09:38:21Z</time>
      </trkpt>
      <trkpt lat="42.4680040" lon="3.1106110">
        <ele>7.4</ele>
        <time>2020-07-20T09:38:22Z</time>
      </trkpt>
      <trkpt lat="42.4679900" lon="3.1107740">
        <ele>7.6</ele>
        <time>2020-07-20T09:38:24Z</time>
      </trkpt>
      <trkpt lat="42.4679510" lon="3.1109240">
        <ele>7.6</ele>
        <time>2020-07-20T09:38:26Z</time>
      </trkpt>
      <trkpt lat="42.4677740" lon="3.1113600">
        <ele>7.2</ele>
        <time>2020-07-20T09:38:32Z</time>
      </trkpt>
      <trkpt lat="42.4676040" lon="3.1117060">
        <ele>6.6</ele>
        <time>2020-07-20T09:38:37Z</time>
      </trkpt>
      <trkpt lat="42.4675130" lon="3.1119140">
        <ele>6.2</ele>
        <time>2020-07-20T09:38:40Z</time>
      </trkpt>
      <trkpt lat="42.4674860" lon="3.1120640">
        <ele>6.2</ele>
        <time>2020-07-20T09:38:42Z</time>
      </trkpt>
      <trkpt lat="42.4675030" lon="3.1122120">
        <ele>6.2</ele>
        <time>2020-07-20T09:38:44Z</time>
      </trkpt>
      <trkpt lat="42.4675620" lon="3.1123470">
        <ele>5.8</ele>
        <time>2020-07-20T09:38:46Z</time>
      </trkpt>
      <trkpt lat="42.4676330" lon="3.1124790">
        <ele>5.6</ele>
        <time>2020-07-20T09:38:48Z</time>
      </trkpt>
      <trkpt lat="42.4677110" lon="3.1126080">
        <ele>5.4</ele>
        <time>2020-07-20T09:38:50Z</time>
      </trkpt>
      <trkpt lat="42.4678740" lon="3.1128490">
        <ele>5.2</ele>
        <time>2020-07-20T09:38:54Z</time>
      </trkpt>
      <trkpt lat="42.4679750" lon="3.1129280">
        <ele>5.6</ele>
        <time>2020-07-20T09:38:56Z</time>
      </trkpt>
      <trkpt lat="42.4680960" lon="3.1129590">
        <ele>5.8</ele>
        <time>2020-07-20T09:38:58Z</time>
      </trkpt>
      <trkpt lat="42.4682220" lon="3.1129340">
        <ele>6.0</ele>
        <time>2020-07-20T09:39:00Z</time>
      </trkpt>
      <trkpt lat="42.4683460" lon="3.1128680">
        <ele>6.0</ele>
        <time>2020-07-20T09:39:02Z</time>
      </trkpt>
      <trkpt lat="42.4686840" lon="3.1126080">
        <ele>5.4</ele>
        <time>2020-07-20T09:39:08Z</time>
      </trkpt>
      <trkpt lat="42.4687350" lon="3.1125600">
        <ele>5.2</ele>
        <time>2020-07-20T09:39:09Z</time>
      </trkpt>
      <trkpt lat="42.4690230" lon="3.1122460">
        <ele>5.6</ele>
        <time>2020-07-20T09:39:15Z</time>
      </trkpt>
      <trkpt lat="42.4690770" lon="3.1122030">
        <ele>5.6</ele>
        <time>2020-07-20T09:39:16Z</time>
      </trkpt>
      <trkpt lat="42.4691950" lon="3.1121590">
        <ele>5.4</ele>
        <time>2020-07-20T09:39:18Z</time>
      </trkpt>
      <trkpt lat="42.4692550" lon="3.1121690">
        <ele>5.4</ele>
        <time>2020-07-20T09:39:19Z</time>
      </trkpt>
      <trkpt lat="42.4693100" lon="3.1122070">
        <ele>5.4</ele>
        <time>2020-07-20T09:39:20Z</time>
      </trkpt>
      <trkpt lat="42.4693970" lon="3.1123280">
        <ele>4.8</ele>
        <time>2020-07-20T09:39:22Z</time>
      </trkpt>
      <trkpt lat="42.4694370" lon="3.1123920">
        <ele>4.4</ele>
        <time>2020-07-20T09:39:23Z</time>
      </trkpt>
      <trkpt lat="42.4696520" lon="3.1126960">
        <ele>4.0</ele>
        <time>2020-07-20T09:39:28Z</time>
      </trkpt>
      <trkpt lat="42.4697520" lon="3.1127870">
        <ele>3.8</ele>
        <time>2020-07-20T09:39:30Z</time>
      </trkpt>
      <trkpt lat="42.4700740" lon="3.1130150">
        <ele>4.6</ele>
        <time>2020-07-20T09:39:36Z</time>
      </trkpt>
      <trkpt lat="42.4701300" lon="3.1130570">
        <ele>4.6</ele>
        <time>2020-07-20T09:39:37Z</time>
      </trkpt>
      <trkpt lat="42.4702200" lon="3.1131790">
        <ele>4.8</ele>
        <time>2020-07-20T09:39:39Z</time>
      </trkpt>
      <trkpt lat="42.4702570" lon="3.1132500">
        <ele>4.8</ele>
        <time>2020-07-20T09:39:40Z</time>
      </trkpt>
      <trkpt lat="42.4704530" lon="3.1136900">
        <ele>4.4</ele>
        <time>2020-07-20T09:39:46Z</time>
      </trkpt>
      <trkpt lat="42.4704780" lon="3.1137690">
        <ele>4.4</ele>
        <time>2020-07-20T09:39:47Z</time>
      </trkpt>
      <trkpt lat="42.4704980" lon="3.1138510">
        <ele>4.2</ele>
        <time>2020-07-20T09:39:48Z</time>
      </trkpt>
      <trkpt lat="42.4705300" lon="3.1141080">
        <ele>5.0</ele>
        <time>2020-07-20T09:39:51Z</time>
      </trkpt>
      <trkpt lat="42.4705310" lon="3.1141960">
        <ele>5.0</ele>
        <time>2020-07-20T09:39:52Z</time>
      </trkpt>
      <trkpt lat="42.4705260" lon="3.1142860">
        <ele>5.0</ele>
        <time>2020-07-20T09:39:53Z</time>
      </trkpt>
      <trkpt lat="42.4704770" lon="3.1145560">
        <ele>4.8</ele>
        <time>2020-07-20T09:39:56Z</time>
      </trkpt>
      <trkpt lat="42.4704270" lon="3.1147340">
        <ele>4.4</ele>
        <time>2020-07-20T09:39:58Z</time>
      </trkpt>
      <trkpt lat="42.4703500" lon="3.1149000">
        <ele>4.4</ele>
        <time>2020-07-20T09:40:00Z</time>
      </trkpt>
      <trkpt lat="42.4703040" lon="3.1149770">
        <ele>4.4</ele>
        <time>2020-07-20T09:40:01Z</time>
      </trkpt>
      <trkpt lat="42.4699950" lon="3.1153950">
        <ele>3.8</ele>
        <time>2020-07-20T09:40:07Z</time>
      </trkpt>
      <trkpt lat="42.4699480" lon="3.1154640">
        <ele>3.8</ele>
        <time>2020-07-20T09:40:08Z</time>
      </trkpt>
      <trkpt lat="42.4699070" lon="3.1155390">
        <ele>4.0</ele>
        <time>2020-07-20T09:40:09Z</time>
      </trkpt>
      <trkpt lat="42.4698410" lon="3.1157040">
        <ele>4.0</ele>
        <time>2020-07-20T09:40:11Z</time>
      </trkpt>
      <trkpt lat="42.4698180" lon="3.1157920">
        <ele>4.0</ele>
        <time>2020-07-20T09:40:12Z</time>
      </trkpt>
      <trkpt lat="42.4697690" lon="3.1160650">
        <ele>3.4</ele>
        <time>2020-07-20T09:40:15Z</time>
      </trkpt>
      <trkpt lat="42.4697610" lon="3.1162500">
        <ele>2.8</ele>
        <time>2020-07-20T09:40:17Z</time>
      </trkpt>
      <trkpt lat="42.4697790" lon="3.1164320">
        <ele>2.4</ele>
        <time>2020-07-20T09:40:19Z</time>
      </trkpt>
      <trkpt lat="42.4698270" lon="3.1166980">
        <ele>2.2</ele>
        <time>2020-07-20T09:40:22Z</time>
      </trkpt>
      <trkpt lat="42.4698770" lon="3.1168650">
        <ele>1.8</ele>
        <time>2020-07-20T09:40:24Z</time>
      </trkpt>
      <trkpt lat="42.4699520" lon="3.1170080">
        <ele>1.6</ele>
        <time>2020-07-20T09:40:26Z</time>
      </trkpt>
      <trkpt lat="42.4700440" lon="3.1171300">
        <ele>1.6</ele>
        <time>2020-07-20T09:40:28Z</time>
      </trkpt>
      <trkpt lat="42.4701000" lon="3.1171750">
        <ele>1.6</ele>
        <time>2020-07-20T09:40:29Z</time>
      </trkpt>
      <trkpt lat="42.4701590" lon="3.1172050">
        <ele>1.8</ele>
        <time>2020-07-20T09:40:30Z</time>
      </trkpt>
      <trkpt lat="42.4702870" lon="3.1172310">
        <ele>2.0</ele>
        <time>2020-07-20T09:40:32Z</time>
      </trkpt>
      <trkpt lat="42.4704150" lon="3.1172340">
        <ele>2.2</ele>
        <time>2020-07-20T09:40:34Z</time>
      </trkpt>
      <trkpt lat="42.4706110" lon="3.1172290">
        <ele>1.2</ele>
        <time>2020-07-20T09:40:37Z</time>
      </trkpt>
      <trkpt lat="42.4708930" lon="3.1172400">
        <ele>0.8</ele>
        <time>2020-07-20T09:40:41Z</time>
      </trkpt>
      <trkpt lat="42.4710410" lon="3.1172650">
        <ele>0.6</ele>
        <time>2020-07-20T09:40:43Z</time>
      </trkpt>
      <trkpt lat="42.4711860" lon="3.1173150">
        <ele>0.4</ele>
        <time>2020-07-20T09:40:45Z</time>
      </trkpt>
      <trkpt lat="42.4712570" lon="3.1173440">
        <ele>0.4</ele>
        <time>2020-07-20T09:40:46Z</time>
      </trkpt>
      <trkpt lat="42.4713270" lon="3.1173720">
        <ele>0.0</ele>
        <time>2020-07-20T09:40:47Z</time>
      </trkpt>
      <trkpt lat="42.4714660" lon="3.1174110">
        <ele>-0.4</ele>
        <time>2020-07-20T09:40:49Z</time>
      </trkpt>
      <trkpt lat="42.4716000" lon="3.1173960">
        <ele>-0.6</ele>
        <time>2020-07-20T09:40:51Z</time>
      </trkpt>
      <trkpt lat="42.4717260" lon="3.1173190">
        <ele>-0.4</ele>
        <time>2020-07-20T09:40:53Z</time>
      </trkpt>
      <trkpt lat="42.4718420" lon="3.1172150">
        <ele>-0.2</ele>
        <time>2020-07-20T09:40:55Z</time>
      </trkpt>
      <trkpt lat="42.4721510" lon="3.1170220">
        <ele>-0.2</ele>
        <time>2020-07-20T09:41:00Z</time>
      </trkpt>
      <trkpt lat="42.4725460" lon="3.1168840">
        <ele>-0.6</ele>
        <time>2020-07-20T09:41:06Z</time>
      </trkpt>
      <trkpt lat="42.4726070" lon="3.1168700">
        <ele>-0.6</ele>
        <time>2020-07-20T09:41:07Z</time>
      </trkpt>
      <trkpt lat="42.4727210" lon="3.1168630">
        <ele>-0.6</ele>
        <time>2020-07-20T09:41:09Z</time>
      </trkpt>
      <trkpt lat="42.4728300" lon="3.1168950">
        <ele>-1.0</ele>
        <time>2020-07-20T09:41:11Z</time>
      </trkpt>
      <trkpt lat="42.4728820" lon="3.1169220">
        <ele>-1.2</ele>
        <time>2020-07-20T09:41:12Z</time>
      </trkpt>
      <trkpt lat="42.4731680" lon="3.1170880">
        <ele>-1.4</ele>
        <time>2020-07-20T09:41:17Z</time>
      </trkpt>
      <trkpt lat="42.4735300" lon="3.1173110">
        <ele>-1.0</ele>
        <time>2020-07-20T09:41:23Z</time>
      </trkpt>
      <trkpt lat="42.4735760" lon="3.1173730">
        <ele>-1.0</ele>
        <time>2020-07-20T09:41:24Z</time>
      </trkpt>
      <trkpt lat="42.4736670" lon="3.1175220">
        <ele>-1.0</ele>
        <time>2020-07-20T09:41:26Z</time>
      </trkpt>
      <trkpt lat="42.4737800" lon="3.1177670">
        <ele>-1.0</ele>
        <time>2020-07-20T09:41:29Z</time>
      </trkpt>
      <trkpt lat="42.4738570" lon="3.1181290">
        <ele>-1.0</ele>
        <time>2020-07-20T09:41:33Z</time>
      </trkpt>
      <trkpt lat="42.4738570" lon="3.1182250">
        <ele>-1.0</ele>
        <time>2020-07-20T09:41:34Z</time>
      </trkpt>
      <trkpt lat="42.4737760" lon="3.1187800">
        <ele>-1.6</ele>
        <time>2020-07-20T09:41:40Z</time>
      </trkpt>
      <trkpt lat="42.4737330" lon="3.1189570">
        <ele>-1.6</ele>
        <time>2020-07-20T09:41:42Z</time>
      </trkpt>
      <trkpt lat="42.4736480" lon="3.1192070">
        <ele>-1.8</ele>
        <time>2020-07-20T09:41:45Z</time>
      </trkpt>
      <trkpt lat="42.4736140" lon="3.1192870">
        <ele>-1.8</ele>
        <time>2020-07-20T09:41:46Z</time>
      </trkpt>
      <trkpt lat="42.4735430" lon="3.1194440">
        <ele>-2.2</ele>
        <time>2020-07-20T09:41:48Z</time>
      </trkpt>
      <trkpt lat="42.4733420" lon="3.1199060">
        <ele>-3.0</ele>
        <time>2020-07-20T09:41:54Z</time>
      </trkpt>
      <trkpt lat="42.4733110" lon="3.1199860">
        <ele>-3.0</ele>
        <time>2020-07-20T09:41:55Z</time>
      </trkpt>
      <trkpt lat="42.4732090" lon="3.1204220">
        <ele>-2.6</ele>
        <time>2020-07-20T09:42:00Z</time>
      </trkpt>
      <trkpt lat="42.4731660" lon="3.1207750">
        <ele>-3.0</ele>
        <time>2020-07-20T09:42:04Z</time>
      </trkpt>
      <trkpt lat="42.4731560" lon="3.1208620">
        <ele>-3.2</ele>
        <time>2020-07-20T09:42:05Z</time>
      </trkpt>
      <trkpt lat="42.4731380" lon="3.1211220">
        <ele>-3.8</ele>
        <time>2020-07-20T09:42:08Z</time>
      </trkpt>
      <trkpt lat="42.4731390" lon="3.1213820">
        <ele>-4.2</ele>
        <time>2020-07-20T09:42:11Z</time>
      </trkpt>
      <trkpt lat="42.4731630" lon="3.1215520">
        <ele>-4.4</ele>
        <time>2020-07-20T09:42:13Z</time>
      </trkpt>
      <trkpt lat="42.4731820" lon="3.1216340">
        <ele>-4.4</ele>
        <time>2020-07-20T09:42:14Z</time>
      </trkpt>
      <trkpt lat="42.4733350" lon="3.1220120">
        <ele>-4.8</ele>
        <time>2020-07-20T09:42:19Z</time>
      </trkpt>
      <trkpt lat="42.4734240" lon="3.1221330">
        <ele>-4.8</ele>
        <time>2020-07-20T09:42:21Z</time>
      </trkpt>
      <trkpt lat="42.4735320" lon="3.1222230">
        <ele>-4.8</ele>
        <time>2020-07-20T09:42:23Z</time>
      </trkpt>
      <trkpt lat="42.4737750" lon="3.1223780">
        <ele>-5.0</ele>
        <time>2020-07-20T09:42:27Z</time>
      </trkpt>
      <trkpt lat="42.4738390" lon="3.1224150">
        <ele>-5.6</ele>
        <time>2020-07-20T09:42:28Z</time>
      </trkpt>
      <trkpt lat="42.4739630" lon="3.1224890">
        <ele>-6.2</ele>
        <time>2020-07-20T09:42:30Z</time>
      </trkpt>
      <trkpt lat="42.4740840" lon="3.1225670">
        <ele>-6.6</ele>
        <time>2020-07-20T09:42:32Z</time>
      </trkpt>
      <trkpt lat="42.4743090" lon="3.1227790">
        <ele>-6.4</ele>
        <time>2020-07-20T09:42:36Z</time>
      </trkpt>
      <trkpt lat="42.4746250" lon="3.1231240">
        <ele>-6.2</ele>
        <time>2020-07-20T09:42:42Z</time>
      </trkpt>
      <trkpt lat="42.4747250" lon="3.1232510">
        <ele>-5.8</ele>
        <time>2020-07-20T09:42:44Z</time>
      </trkpt>
      <trkpt lat="42.4747640" lon="3.1233220">
        <ele>-5.6</ele>
        <time>2020-07-20T09:42:45Z</time>
      </trkpt>
      <trkpt lat="42.4747930" lon="3.1234010">
        <ele>-5.6</ele>
        <time>2020-07-20T09:42:46Z</time>
      </trkpt>
      <trkpt lat="42.4748490" lon="3.1236290">
        <ele>-5.8</ele>
        <time>2020-07-20T09:42:49Z</time>
      </trkpt>
      <trkpt lat="42.4748920" lon="3.1238160">
        <ele>-5.8</ele>
        <time>2020-07-20T09:42:53Z</time>
      </trkpt>
      <trkpt lat="42.4749030" lon="3.1239920">
        <ele>-5.8</ele>
        <time>2020-07-20T09:42:57Z</time>
      </trkpt>
      <trkpt lat="42.4749240" lon="3.1240760">
        <ele>-5.8</ele>
        <time>2020-07-20T09:42:59Z</time>
      </trkpt>
      <trkpt lat="42.4751360" lon="3.1241450">
        <ele>-5.8</ele>
        <time>2020-07-20T09:43:46Z</time>
      </trkpt>
      <trkpt lat="42.4751510" lon="3.1241120">
        <ele>-5.8</ele>
        <time>2020-07-20T09:43:47Z</time>
      </trkpt>
      <trkpt lat="42.4752320" lon="3.1239270">
        <ele>-5.8</ele>
        <time>2020-07-20T09:43:51Z</time>
      </trkpt>
      <trkpt lat="42.4752580" lon="3.1238700">
        <ele>-5.8</ele>
        <time>2020-07-20T09:43:52Z</time>
      </trkpt>
      <trkpt lat="42.4753910" lon="3.1236310">
        <ele>-6.2</ele>
        <time>2020-07-20T09:43:56Z</time>
      </trkpt>
      <trkpt lat="42.4754680" lon="3.1235060">
        <ele>-6.4</ele>
        <time>2020-07-20T09:43:58Z</time>
      </trkpt>
      <trkpt lat="42.4757190" lon="3.1231100">
        <ele>-5.8</ele>
        <time>2020-07-20T09:44:04Z</time>
      </trkpt>
      <trkpt lat="42.4757980" lon="3.1229650">
        <ele>-5.8</ele>
        <time>2020-07-20T09:44:06Z</time>
      </trkpt>
      <trkpt lat="42.4758350" lon="3.1228930">
        <ele>-5.8</ele>
        <time>2020-07-20T09:44:07Z</time>
      </trkpt>
      <trkpt lat="42.4759800" lon="3.1225970">
        <ele>-6.0</ele>
        <time>2020-07-20T09:44:11Z</time>
      </trkpt>
      <trkpt lat="42.4761540" lon="3.1222440">
        <ele>-6.2</ele>
        <time>2020-07-20T09:44:16Z</time>
      </trkpt>
      <trkpt lat="42.4763500" lon="3.1218420">
        <ele>-5.8</ele>
        <time>2020-07-20T09:44:22Z</time>
      </trkpt>
      <trkpt lat="42.4764430" lon="3.1216480">
        <ele>-5.4</ele>
        <time>2020-07-20T09:44:25Z</time>
      </trkpt>
      <trkpt lat="42.4764740" lon="3.1215850">
        <ele>-5.2</ele>
        <time>2020-07-20T09:44:26Z</time>
      </trkpt>
      <trkpt lat="42.4765790" lon="3.1213360">
        <ele>-4.8</ele>
        <time>2020-07-20T09:44:30Z</time>
      </trkpt>
      <trkpt lat="42.4766540" lon="3.1211700">
        <ele>-4.8</ele>
        <time>2020-07-20T09:44:33Z</time>
      </trkpt>
      <trkpt lat="42.4766800" lon="3.1211150">
        <ele>-4.6</ele>
        <time>2020-07-20T09:44:34Z</time>
      </trkpt>
      <trkpt lat="42.4767700" lon="3.1209350">
        <ele>-4.6</ele>
        <time>2020-07-20T09:44:37Z</time>
      </trkpt>
      <trkpt lat="42.4768020" lon="3.1207880">
        <ele>-4.8</ele>
        <time>2020-07-20T09:44:39Z</time>
      </trkpt>
      <trkpt lat="42.4768790" lon="3.1205750">
        <ele>-5.0</ele>
        <time>2020-07-20T09:44:42Z</time>
      </trkpt>
      <trkpt lat="42.4769420" lon="3.1203530">
        <ele>-4.8</ele>
        <time>2020-07-20T09:44:45Z</time>
      </trkpt>
      <trkpt lat="42.4769400" lon="3.1202650">
        <ele>-4.6</ele>
        <time>2020-07-20T09:44:46Z</time>
      </trkpt>
      <trkpt lat="42.4769320" lon="3.1201760">
        <ele>-4.4</ele>
        <time>2020-07-20T09:44:47Z</time>
      </trkpt>
      <trkpt lat="42.4768850" lon="3.1199150">
        <ele>-4.4</ele>
        <time>2020-07-20T09:44:50Z</time>
      </trkpt>
      <trkpt lat="42.4767910" lon="3.1194010">
        <ele>-4.0</ele>
        <time>2020-07-20T09:44:56Z</time>
      </trkpt>
      <trkpt lat="42.4767590" lon="3.1192310">
        <ele>-3.6</ele>
        <time>2020-07-20T09:44:58Z</time>
      </trkpt>
      <trkpt lat="42.4767480" lon="3.1191470">
        <ele>-3.4</ele>
        <time>2020-07-20T09:44:59Z</time>
      </trkpt>
      <trkpt lat="42.4767260" lon="3.1187410">
        <ele>-2.8</ele>
        <time>2020-07-20T09:45:04Z</time>
      </trkpt>
      <trkpt lat="42.4767410" lon="3.1185960">
        <ele>-2.4</ele>
        <time>2020-07-20T09:45:06Z</time>
      </trkpt>
      <trkpt lat="42.4767960" lon="3.1183350">
        <ele>-1.4</ele>
        <time>2020-07-20T09:45:09Z</time>
      </trkpt>
      <trkpt lat="42.4767960" lon="3.1183350">
        <ele>-1.2</ele>
        <time>2020-07-20T09:45:10Z</time>
      </trkpt>
      <trkpt lat="42.4768490" lon="3.1180970">
        <ele>-0.2</ele>
        <time>2020-07-20T09:45:14Z</time>
      </trkpt>
      <trkpt lat="42.4768840" lon="3.1178830">
        <ele>0.8</ele>
        <time>2020-07-20T09:45:18Z</time>
      </trkpt>
      <trkpt lat="42.4769080" lon="3.1176990">
        <ele>2.2</ele>
        <time>2020-07-20T09:45:22Z</time>
      </trkpt>
      <trkpt lat="42.4769140" lon="3.1176570">
        <ele>2.6</ele>
        <time>2020-07-20T09:45:23Z</time>
      </trkpt>
      <trkpt lat="42.4769240" lon="3.1175710">
        <ele>3.0</ele>
        <time>2020-07-20T09:45:25Z</time>
      </trkpt>
      <trkpt lat="42.4769300" lon="3.1175290">
        <ele>3.2</ele>
        <time>2020-07-20T09:45:26Z</time>
      </trkpt>
      <trkpt lat="42.4769600" lon="3.1173580">
        <ele>4.2</ele>
        <time>2020-07-20T09:45:30Z</time>
      </trkpt>
      <trkpt lat="42.4769980" lon="3.1171920">
        <ele>5.6</ele>
        <time>2020-07-20T09:45:34Z</time>
      </trkpt>
      <trkpt lat="42.4770100" lon="3.1171500">
        <ele>5.8</ele>
        <time>2020-07-20T09:45:35Z</time>
      </trkpt>
      <trkpt lat="42.4770530" lon="3.1170310">
        <ele>6.8</ele>
        <time>2020-07-20T09:45:38Z</time>
      </trkpt>
      <trkpt lat="42.4770990" lon="3.1169110">
        <ele>7.6</ele>
        <time>2020-07-20T09:45:41Z</time>
      </trkpt>
      <trkpt lat="42.4771130" lon="3.1168730">
        <ele>7.8</ele>
        <time>2020-07-20T09:45:42Z</time>
      </trkpt>
      <trkpt lat="42.4771280" lon="3.1168360">
        <ele>8.0</ele>
        <time>2020-07-20T09:45:43Z</time>
      </trkpt>
      <trkpt lat="42.4771820" lon="3.1166870">
        <ele>9.0</ele>
        <time>2020-07-20T09:45:47Z</time>
      </trkpt>
      <trkpt lat="42.4772360" lon="3.1165350">
        <ele>10.0</ele>
        <time>2020-07-20T09:45:51Z</time>
      </trkpt>
      <trkpt lat="42.4772760" lon="3.1164140">
        <ele>10.6</ele>
        <time>2020-07-20T09:45:54Z</time>
      </trkpt>
      <trkpt lat="42.4772920" lon="3.1163250">
        <ele>11.2</ele>
        <time>2020-07-20T09:45:56Z</time>
      </trkpt>
      <trkpt lat="42.4773160" lon="3.1161530">
        <ele>12.2</ele>
        <time>2020-07-20T09:46:00Z</time>
      </trkpt>
      <trkpt lat="42.4773230" lon="3.1161140">
        <ele>12.4</ele>
        <time>2020-07-20T09:46:01Z</time>
      </trkpt>
      <trkpt lat="42.4773500" lon="3.1159680">
        <ele>13.2</ele>
        <time>2020-07-20T09:46:05Z</time>
      </trkpt>
      <trkpt lat="42.4773570" lon="3.1158150">
        <ele>14.6</ele>
        <time>2020-07-20T09:46:09Z</time>
      </trkpt>
      <trkpt lat="42.4773580" lon="3.1157760">
        <ele>14.8</ele>
        <time>2020-07-20T09:46:10Z</time>
      </trkpt>
      <trkpt lat="42.4773640" lon="3.1156650">
        <ele>15.8</ele>
        <time>2020-07-20T09:46:13Z</time>
      </trkpt>
      <trkpt lat="42.4773710" lon="3.1155400">
        <ele>16.8</ele>
        <time>2020-07-20T09:46:16Z</time>
      </trkpt>
      <trkpt lat="42.4773760" lon="3.1154980">
        <ele>17.2</ele>
        <time>2020-07-20T09:46:17Z</time>
      </trkpt>
      <trkpt lat="42.4773790" lon="3.1154080">
        <ele>17.8</ele>
        <time>2020-07-20T09:46:19Z</time>
      </trkpt>
      <trkpt lat="42.4773780" lon="3.1152700">
        <ele>18.4</ele>
        <time>2020-07-20T09:46:22Z</time>
      </trkpt>
      <trkpt lat="42.4773800" lon="3.1152270">
        <ele>18.6</ele>
        <time>2020-07-20T09:46:23Z</time>
      </trkpt>
      <trkpt lat="42.4773820" lon="3.1151830">
        <ele>18.8</ele>
        <time>2020-07-20T09:46:24Z</time>
      </trkpt>
      <trkpt lat="42.4773840" lon="3.1151400">
        <ele>19.0</ele>
        <time>2020-07-20T09:46:25Z</time>
      </trkpt>
      <trkpt lat="42.4773880" lon="3.1150990">
        <ele>19.2</ele>
        <time>2020-07-20T09:46:26Z</time>
      </trkpt>
      <trkpt lat="42.4773930" lon="3.1149700">
        <ele>20.2</ele>
        <time>2020-07-20T09:46:29Z</time>
      </trkpt>
      <trkpt lat="42.4774140" lon="3.1148480">
        <ele>21.2</ele>
        <time>2020-07-20T09:46:32Z</time>
      </trkpt>
      <trkpt lat="42.4774270" lon="3.1147740">
        <ele>21.4</ele>
        <time>2020-07-20T09:46:34Z</time>
      </trkpt>
      <trkpt lat="42.4774340" lon="3.1146970">
        <ele>21.8</ele>
        <time>2020-07-20T09:46:36Z</time>
      </trkpt>
      <trkpt lat="42.4774370" lon="3.1146200">
        <ele>22.4</ele>
        <time>2020-07-20T09:46:38Z</time>
      </trkpt>
      <trkpt lat="42.4774410" lon="3.1145020">
        <ele>23.6</ele>
        <time>2020-07-20T09:46:41Z</time>
      </trkpt>
      <trkpt lat="42.4774430" lon="3.1144630">
        <ele>24.0</ele>
        <time>2020-07-20T09:46:42Z</time>
      </trkpt>
      <trkpt lat="42.4774520" lon="3.1143500">
        <ele>24.6</ele>
        <time>2020-07-20T09:46:45Z</time>
      </trkpt>
      <trkpt lat="42.4774680" lon="3.1142370">
        <ele>25.4</ele>
        <time>2020-07-20T09:46:48Z</time>
      </trkpt>
      <trkpt lat="42.4774830" lon="3.1141680">
        <ele>25.8</ele>
        <time>2020-07-20T09:46:50Z</time>
      </trkpt>
      <trkpt lat="42.4775020" lon="3.1141000">
        <ele>26.6</ele>
        <time>2020-07-20T09:46:52Z</time>
      </trkpt>
      <trkpt lat="42.4775130" lon="3.1140670">
        <ele>27.0</ele>
        <time>2020-07-20T09:46:53Z</time>
      </trkpt>
      <trkpt lat="42.4775640" lon="3.1139440">
        <ele>28.2</ele>
        <time>2020-07-20T09:46:57Z</time>
      </trkpt>
      <trkpt lat="42.4775990" lon="3.1138520">
        <ele>29.0</ele>
        <time>2020-07-20T09:47:00Z</time>
      </trkpt>
      <trkpt lat="42.4776070" lon="3.1138200">
        <ele>29.2</ele>
        <time>2020-07-20T09:47:01Z</time>
      </trkpt>
      <trkpt lat="42.4776210" lon="3.1136890">
        <ele>30.4</ele>
        <time>2020-07-20T09:47:05Z</time>
      </trkpt>
      <trkpt lat="42.4776230" lon="3.1136610">
        <ele>30.8</ele>
        <time>2020-07-20T09:47:06Z</time>
      </trkpt>
      <trkpt lat="42.4776170" lon="3.1135770">
        <ele>31.4</ele>
        <time>2020-07-20T09:47:09Z</time>
      </trkpt>
      <trkpt lat="42.4776160" lon="3.1135560">
        <ele>31.4</ele>
        <time>2020-07-20T09:47:10Z</time>
      </trkpt>
      <trkpt lat="42.4776030" lon="3.1135240">
        <ele>31.6</ele>
        <time>2020-07-20T09:47:14Z</time>
      </trkpt>
      <trkpt lat="42.4776020" lon="3.1135360">
        <ele>31.8</ele>
        <time>2020-07-20T09:47:20Z</time>
      </trkpt>
      <trkpt lat="42.4776030" lon="3.1135390">
        <ele>31.8</ele>
        <time>2020-07-20T09:47:21Z</time>
      </trkpt>
      <trkpt lat="42.4776040" lon="3.1135410">
        <ele>31.8</ele>
        <time>2020-07-20T09:47:22Z</time>
      </trkpt>
      <trkpt lat="42.4776040" lon="3.1135410">
        <ele>31.8</ele>
        <time>2020-07-20T09:47:24Z</time>
      </trkpt>
      <trkpt lat="42.4776050" lon="3.1135380">
        <ele>32.0</ele>
        <time>2020-07-20T09:47:30Z</time>
      </trkpt>
      <trkpt lat="42.4776080" lon="3.1135360">
        <ele>32.0</ele>
        <time>2020-07-20T09:47:33Z</time>
      </trkpt>
      <trkpt lat="42.4776110" lon="3.1135300">
        <ele>32.0</ele>
        <time>2020-07-20T09:47:38Z</time>
      </trkpt>
      <trkpt lat="42.4776110" lon="3.1135290">
        <ele>32.0</ele>
        <time>2020-07-20T09:47:41Z</time>
      </trkpt>
      <trkpt lat="42.4776130" lon="3.1135310">
        <ele>32.0</ele>
        <time>2020-07-20T09:47:44Z</time>
      </trkpt>
      <trkpt lat="42.4776160" lon="3.1135340">
        <ele>32.2</ele>
        <time>2020-07-20T09:47:50Z</time>
      </trkpt>
      <trkpt lat="42.4776160" lon="3.1135350">
        <ele>32.2</ele>
        <time>2020-07-20T09:47:51Z</time>
      </trkpt>
      <trkpt lat="42.4776160" lon="3.1135350">
        <ele>32.2</ele>
        <time>2020-07-20T09:47:52Z</time>
      </trkpt>
      <trkpt lat="42.4776160" lon="3.1135360">
        <ele>32.2</ele>
        <time>2020-07-20T09:47:53Z</time>
      </trkpt>
      <trkpt lat="42.4776140" lon="3.1135350">
        <ele>32.0</ele>
        <time>2020-07-20T09:47:55Z</time>
      </trkpt>
      <trkpt lat="42.4776090" lon="3.1135350">
        <ele>31.8</ele>
        <time>2020-07-20T09:47:58Z</time>
      </trkpt>
      <trkpt lat="42.4776190" lon="3.1135420">
        <ele>31.8</ele>
        <time>2020-07-20T09:48:02Z</time>
      </trkpt>
      <trkpt lat="42.4776090" lon="3.1135190">
        <ele>31.6</ele>
        <time>2020-07-20T09:48:08Z</time>
      </trkpt>
      <trkpt lat="42.4776120" lon="3.1135150">
        <ele>31.6</ele>
        <time>2020-07-20T09:48:14Z</time>
      </trkpt>
      <trkpt lat="42.4776140" lon="3.1135170">
        <ele>31.6</ele>
        <time>2020-07-20T09:48:15Z</time>
      </trkpt>
      <trkpt lat="42.4776190" lon="3.1135210">
        <ele>31.8</ele>
        <time>2020-07-20T09:48:21Z</time>
      </trkpt>
      <trkpt lat="42.4776190" lon="3.1135210">
        <ele>31.8</ele>
        <time>2020-07-20T09:48:27Z</time>
      </trkpt>
      <trkpt lat="42.4776150" lon="3.1135260">
        <ele>31.8</ele>
        <time>2020-07-20T09:48:29Z</time>
      </trkpt>
      <trkpt lat="42.4776140" lon="3.1135390">
        <ele>31.8</ele>
        <time>2020-07-20T09:48:35Z</time>
      </trkpt>
      <trkpt lat="42.4776140" lon="3.1135410">
        <ele>31.8</ele>
        <time>2020-07-20T09:48:37Z</time>
      </trkpt>
      <trkpt lat="42.4776130" lon="3.1135460">
        <ele>31.8</ele>
        <time>2020-07-20T09:48:40Z</time>
      </trkpt>
      <trkpt lat="42.4776140" lon="3.1135530">
        <ele>31.8</ele>
        <time>2020-07-20T09:48:43Z</time>
      </trkpt>
      <trkpt lat="42.4776170" lon="3.1135560">
        <ele>31.8</ele>
        <time>2020-07-20T09:48:47Z</time>
      </trkpt>
      <trkpt lat="42.4776180" lon="3.1135570">
        <ele>31.8</ele>
        <time>2020-07-20T09:48:48Z</time>
      </trkpt>
      <trkpt lat="42.4776250" lon="3.1135580">
        <ele>31.8</ele>
        <time>2020-07-20T09:48:54Z</time>
      </trkpt>
      <trkpt lat="42.4776370" lon="3.1135670">
        <ele>31.8</ele>
        <time>2020-07-20T09:49:00Z</time>
      </trkpt>
      <trkpt lat="42.4776440" lon="3.1135780">
        <ele>31.8</ele>
        <time>2020-07-20T09:49:05Z</time>
      </trkpt>
      <trkpt lat="42.4776440" lon="3.1135780">
        <ele>31.8</ele>
        <time>2020-07-20T09:49:06Z</time>
      </trkpt>
      <trkpt lat="42.4776450" lon="3.1135780">
        <ele>31.8</ele>
        <time>2020-07-20T09:49:08Z</time>
      </trkpt>
      <trkpt lat="42.4776350" lon="3.1135540">
        <ele>31.8</ele>
        <time>2020-07-20T09:49:14Z</time>
      </trkpt>
      <trkpt lat="42.4776230" lon="3.1135280">
        <ele>31.8</ele>
        <time>2020-07-20T09:49:20Z</time>
      </trkpt>
      <trkpt lat="42.4776130" lon="3.1135030">
        <ele>31.8</ele>
        <time>2020-07-20T09:49:25Z</time>
      </trkpt>
      <trkpt lat="42.4775880" lon="3.1134780">
        <ele>31.8</ele>
        <time>2020-07-20T09:49:31Z</time>
      </trkpt>
      <trkpt lat="42.4775730" lon="3.1134730">
        <ele>31.8</ele>
        <time>2020-07-20T09:49:35Z</time>
      </trkpt>
      <trkpt lat="42.4775720" lon="3.1134730">
        <ele>31.8</ele>
        <time>2020-07-20T09:49:41Z</time>
      </trkpt>
      <trkpt lat="42.4775760" lon="3.1134790">
        <ele>31.8</ele>
        <time>2020-07-20T09:49:43Z</time>
      </trkpt>
      <trkpt lat="42.4775790" lon="3.1134830">
        <ele>31.8</ele>
        <time>2020-07-20T09:49:48Z</time>
      </trkpt>
      <trkpt lat="42.4775800" lon="3.1134840">
        <ele>31.8</ele>
        <time>2020-07-20T09:49:54Z</time>
      </trkpt>
      <trkpt lat="42.4775800" lon="3.1134850">
        <ele>31.8</ele>
        <time>2020-07-20T09:49:59Z</time>
      </trkpt>
      <trkpt lat="42.4775800" lon="3.1134850">
        <ele>31.8</ele>
        <time>2020-07-20T09:50:01Z</time>
      </trkpt>
      <trkpt lat="42.4775800" lon="3.1134880">
        <ele>31.8</ele>
        <time>2020-07-20T09:50:04Z</time>
      </trkpt>
      <trkpt lat="42.4775800" lon="3.1134940">
        <ele>31.8</ele>
        <time>2020-07-20T09:50:06Z</time>
      </trkpt>
      <trkpt lat="42.4775780" lon="3.1135180">
        <ele>31.8</ele>
        <time>2020-07-20T09:50:12Z</time>
      </trkpt>
      <trkpt lat="42.4775810" lon="3.1135270">
        <ele>31.8</ele>
        <time>2020-07-20T09:50:14Z</time>
      </trkpt>
      <trkpt lat="42.4775960" lon="3.1135530">
        <ele>31.8</ele>
        <time>2020-07-20T09:50:20Z</time>
      </trkpt>
      <trkpt lat="42.4775950" lon="3.1135670">
        <ele>31.8</ele>
        <time>2020-07-20T09:50:23Z</time>
      </trkpt>
      <trkpt lat="42.4775900" lon="3.1136060">
        <ele>31.8</ele>
        <time>2020-07-20T09:50:27Z</time>
      </trkpt>
      <trkpt lat="42.4775840" lon="3.1136150">
        <ele>31.8</ele>
        <time>2020-07-20T09:50:33Z</time>
      </trkpt>
      <trkpt lat="42.4775840" lon="3.1136150">
        <ele>31.8</ele>
        <time>2020-07-20T09:50:34Z</time>
      </trkpt>
      <trkpt lat="42.4775830" lon="3.1136190">
        <ele>31.8</ele>
        <time>2020-07-20T09:50:36Z</time>
      </trkpt>
      <trkpt lat="42.4775810" lon="3.1136190">
        <ele>31.8</ele>
        <time>2020-07-20T09:50:38Z</time>
      </trkpt>
      <trkpt lat="42.4775790" lon="3.1136210">
        <ele>31.8</ele>
        <time>2020-07-20T09:50:41Z</time>
      </trkpt>
      <trkpt lat="42.4775780" lon="3.1136000">
        <ele>31.8</ele>
        <time>2020-07-20T09:50:46Z</time>
      </trkpt>
      <trkpt lat="42.4775720" lon="3.1135520">
        <ele>31.8</ele>
        <time>2020-07-20T09:50:52Z</time>
      </trkpt>
      <trkpt lat="42.4775690" lon="3.1135470">
        <ele>31.8</ele>
        <time>2020-07-20T09:50:56Z</time>
      </trkpt>
      <trkpt lat="42.4775530" lon="3.1134910">
        <ele>31.8</ele>
        <time>2020-07-20T09:52:07Z</time>
      </trkpt>
      <trkpt lat="42.4775370" lon="3.1134920">
        <ele>31.8</ele>
        <time>2020-07-20T09:52:08Z</time>
      </trkpt>
      <trkpt lat="42.4775190" lon="3.1134920">
        <ele>32.0</ele>
        <time>2020-07-20T09:52:09Z</time>
      </trkpt>
      <trkpt lat="42.4774500" lon="3.1134990">
        <ele>32.4</ele>
        <time>2020-07-20T09:52:12Z</time>
      </trkpt>
      <trkpt lat="42.4774220" lon="3.1135090">
        <ele>32.6</ele>
        <time>2020-07-20T09:52:13Z</time>
      </trkpt>
      <trkpt lat="42.4773920" lon="3.1135170">
        <ele>32.6</ele>
        <time>2020-07-20T09:52:14Z</time>
      </trkpt>
      <trkpt lat="42.4773330" lon="3.1135510">
        <ele>33.0</ele>
        <time>2020-07-20T09:52:16Z</time>
      </trkpt>
      <trkpt lat="42.4772820" lon="3.1136070">
        <ele>33.4</ele>
        <time>2020-07-20T09:52:18Z</time>
      </trkpt>
      <trkpt lat="42.4772580" lon="3.1136410">
        <ele>33.6</ele>
        <time>2020-07-20T09:52:19Z</time>
      </trkpt>
      <trkpt lat="42.4771950" lon="3.1138000">
        <ele>34.6</ele>
        <time>2020-07-20T09:52:23Z</time>
      </trkpt>
      <trkpt lat="42.4771830" lon="3.1138410">
        <ele>34.8</ele>
        <time>2020-07-20T09:52:24Z</time>
      </trkpt>
      <trkpt lat="42.4771680" lon="3.1139250">
        <ele>35.0</ele>
        <time>2020-07-20T09:52:26Z</time>
      </trkpt>
      <trkpt lat="42.4771350" lon="3.1140360">
        <ele>36.2</ele>
        <time>2020-07-20T09:52:29Z</time>
      </trkpt>
      <trkpt lat="42.4771110" lon="3.1141080">
        <ele>36.8</ele>
        <time>2020-07-20T09:52:31Z</time>
      </trkpt>
      <trkpt lat="42.4770880" lon="3.1141790">
        <ele>37.2</ele>
        <time>2020-07-20T09:52:33Z</time>
      </trkpt>
      <trkpt lat="42.4770450" lon="3.1142680">
        <ele>38.4</ele>
        <time>2020-07-20T09:52:36Z</time>
      </trkpt>
      <trkpt lat="42.4769830" lon="3.1143410">
        <ele>38.8</ele>
        <time>2020-07-20T09:52:39Z</time>
      </trkpt>
      <trkpt lat="42.4769030" lon="3.1144410">
        <ele>39.4</ele>
        <time>2020-07-20T09:52:43Z</time>
      </trkpt>
      <trkpt lat="42.4768010" lon="3.1145440">
        <ele>40.6</ele>
        <time>2020-07-20T09:52:48Z</time>
      </trkpt>
      <trkpt lat="42.4767250" lon="3.1146260">
        <ele>41.6</ele>
        <time>2020-07-20T09:52:52Z</time>
      </trkpt>
      <trkpt lat="42.4766720" lon="3.1146910">
        <ele>42.8</ele>
        <time>2020-07-20T09:52:55Z</time>
      </trkpt>
      <trkpt lat="42.4766350" lon="3.1147290">
        <ele>43.2</ele>
        <time>2020-07-20T09:52:57Z</time>
      </trkpt>
      <trkpt lat="42.4765950" lon="3.1147670">
        <ele>43.6</ele>
        <time>2020-07-20T09:52:59Z</time>
      </trkpt>
      <trkpt lat="42.4765740" lon="3.1147880">
        <ele>43.8</ele>
        <time>2020-07-20T09:53:00Z</time>
      </trkpt>
      <trkpt lat="42.4764600" lon="3.1148740">
        <ele>44.6</ele>
        <time>2020-07-20T09:53:05Z</time>
      </trkpt>
      <trkpt lat="42.4764360" lon="3.1148970">
        <ele>44.8</ele>
        <time>2020-07-20T09:53:06Z</time>
      </trkpt>
      <trkpt lat="42.4763260" lon="3.1150280">
        <ele>46.0</ele>
        <time>2020-07-20T09:53:11Z</time>
      </trkpt>
      <trkpt lat="42.4763070" lon="3.1150590">
        <ele>46.2</ele>
        <time>2020-07-20T09:53:12Z</time>
      </trkpt>
      <trkpt lat="42.4762720" lon="3.1151110">
        <ele>47.0</ele>
        <time>2020-07-20T09:53:14Z</time>
      </trkpt>
      <trkpt lat="42.4762020" lon="3.1152440">
        <ele>48.0</ele>
        <time>2020-07-20T09:53:19Z</time>
      </trkpt>
      <trkpt lat="42.4761910" lon="3.1152680">
        <ele>48.2</ele>
        <time>2020-07-20T09:53:20Z</time>
      </trkpt>
      <trkpt lat="42.4761360" lon="3.1153730">
        <ele>49.0</ele>
        <time>2020-07-20T09:53:24Z</time>
      </trkpt>
      <trkpt lat="42.4760880" lon="3.1154460">
        <ele>49.4</ele>
        <time>2020-07-20T09:53:27Z</time>
      </trkpt>
      <trkpt lat="42.4760510" lon="3.1154890">
        <ele>50.0</ele>
        <time>2020-07-20T09:53:29Z</time>
      </trkpt>
      <trkpt lat="42.4759870" lon="3.1155560">
        <ele>51.0</ele>
        <time>2020-07-20T09:53:32Z</time>
      </trkpt>
      <trkpt lat="42.4759680" lon="3.1155800">
        <ele>51.2</ele>
        <time>2020-07-20T09:53:33Z</time>
      </trkpt>
      <trkpt lat="42.4759480" lon="3.1156050">
        <ele>51.4</ele>
        <time>2020-07-20T09:53:34Z</time>
      </trkpt>
      <trkpt lat="42.4759150" lon="3.1156600">
        <ele>52.0</ele>
        <time>2020-07-20T09:53:36Z</time>
      </trkpt>
      <trkpt lat="42.4758990" lon="3.1156820">
        <ele>52.4</ele>
        <time>2020-07-20T09:53:37Z</time>
      </trkpt>
      <trkpt lat="42.4758650" lon="3.1157240">
        <ele>52.6</ele>
        <time>2020-07-20T09:53:39Z</time>
      </trkpt>
      <trkpt lat="42.4758040" lon="3.1157800">
        <ele>53.4</ele>
        <time>2020-07-20T09:53:42Z</time>
      </trkpt>
      <trkpt lat="42.4757330" lon="3.1158380">
        <ele>53.8</ele>
        <time>2020-07-20T09:53:45Z</time>
      </trkpt>
      <trkpt lat="42.4756680" lon="3.1158950">
        <ele>54.4</ele>
        <time>2020-07-20T09:53:48Z</time>
      </trkpt>
      <trkpt lat="42.4755890" lon="3.1159790">
        <ele>55.6</ele>
        <time>2020-07-20T09:53:52Z</time>
      </trkpt>
      <trkpt lat="42.4755710" lon="3.1160020">
        <ele>56.0</ele>
        <time>2020-07-20T09:53:53Z</time>
      </trkpt>
      <trkpt lat="42.4755520" lon="3.1160230">
        <ele>56.2</ele>
        <time>2020-07-20T09:53:54Z</time>
      </trkpt>
      <trkpt lat="42.4755320" lon="3.1160440">
        <ele>56.4</ele>
        <time>2020-07-20T09:53:55Z</time>
      </trkpt>
      <trkpt lat="42.4755130" lon="3.1160670">
        <ele>56.8</ele>
        <time>2020-07-20T09:53:56Z</time>
      </trkpt>
      <trkpt lat="42.4754520" lon="3.1161410">
        <ele>57.2</ele>
        <time>2020-07-20T09:53:59Z</time>
      </trkpt>
      <trkpt lat="42.4754000" lon="3.1162210">
        <ele>57.8</ele>
        <time>2020-07-20T09:54:02Z</time>
      </trkpt>
      <trkpt lat="42.4753430" lon="3.1163430">
        <ele>59.0</ele>
        <time>2020-07-20T09:54:06Z</time>
      </trkpt>
      <trkpt lat="42.4752920" lon="3.1164710">
        <ele>59.6</ele>
        <time>2020-07-20T09:54:10Z</time>
      </trkpt>
      <trkpt lat="42.4752610" lon="3.1165260">
        <ele>60.0</ele>
        <time>2020-07-20T09:54:12Z</time>
      </trkpt>
      <trkpt lat="42.4751760" lon="3.1165930">
        <ele>60.6</ele>
        <time>2020-07-20T09:54:16Z</time>
      </trkpt>
      <trkpt lat="42.4750970" lon="3.1166090">
        <ele>61.2</ele>
        <time>2020-07-20T09:54:19Z</time>
      </trkpt>
      <trkpt lat="42.4750320" lon="3.1165900">
        <ele>61.6</ele>
        <time>2020-07-20T09:54:22Z</time>
      </trkpt>
      <trkpt lat="42.4750010" lon="3.1164930">
        <ele>62.4</ele>
        <time>2020-07-20T09:54:26Z</time>
      </trkpt>
      <trkpt lat="42.4750100" lon="3.1164640">
        <ele>62.4</ele>
        <time>2020-07-20T09:54:27Z</time>
      </trkpt>
      <trkpt lat="42.4751180" lon="3.1163090">
        <ele>62.6</ele>
        <time>2020-07-20T09:54:32Z</time>
      </trkpt>
      <trkpt lat="42.4752640" lon="3.1161520">
        <ele>62.6</ele>
        <time>2020-07-20T09:54:38Z</time>
      </trkpt>
      <trkpt lat="42.4753140" lon="3.1161090">
        <ele>62.6</ele>
        <time>2020-07-20T09:54:40Z</time>
      </trkpt>
      <trkpt lat="42.4753560" lon="3.1160790">
        <ele>62.8</ele>
        <time>2020-07-20T09:54:42Z</time>
      </trkpt>
      <trkpt lat="42.4752660" lon="3.1161380">
        <ele>62.8</ele>
        <time>2020-07-20T09:54:43Z</time>
      </trkpt>
      <trkpt lat="42.4751670" lon="3.1162070">
        <ele>61.4</ele>
        <time>2020-07-20T09:59:52Z</time>
      </trkpt>
      <trkpt lat="42.4750690" lon="3.1162760">
        <ele>61.4</ele>
        <time>2020-07-20T09:59:53Z</time>
      </trkpt>
      <trkpt lat="42.4750190" lon="3.1163860">
        <ele>61.2</ele>
        <time>2020-07-20T09:59:55Z</time>
      </trkpt>
      <trkpt lat="42.4749980" lon="3.1164370">
        <ele>61.0</ele>
        <time>2020-07-20T09:59:56Z</time>
      </trkpt>
      <trkpt lat="42.4749650" lon="3.1164770">
        <ele>60.8</ele>
        <time>2020-07-20T09:59:57Z</time>
      </trkpt>
      <trkpt lat="42.4749920" lon="3.1165820">
        <ele>60.4</ele>
        <time>2020-07-20T09:59:59Z</time>
      </trkpt>
      <trkpt lat="42.4750270" lon="3.1166330">
        <ele>60.2</ele>
        <time>2020-07-20T10:00:00Z</time>
      </trkpt>
      <trkpt lat="42.4750680" lon="3.1166680">
        <ele>60.2</ele>
        <time>2020-07-20T10:00:01Z</time>
      </trkpt>
      <trkpt lat="42.4751140" lon="3.1166850">
        <ele>60.4</ele>
        <time>2020-07-20T10:00:02Z</time>
      </trkpt>
      <trkpt lat="42.4751650" lon="3.1166820">
        <ele>60.4</ele>
        <time>2020-07-20T10:00:03Z</time>
      </trkpt>
      <trkpt lat="42.4752210" lon="3.1166600">
        <ele>60.4</ele>
        <time>2020-07-20T10:00:04Z</time>
      </trkpt>
      <trkpt lat="42.4752810" lon="3.1166260">
        <ele>60.4</ele>
        <time>2020-07-20T10:00:05Z</time>
      </trkpt>
      <trkpt lat="42.4753450" lon="3.1165800">
        <ele>60.0</ele>
        <time>2020-07-20T10:00:06Z</time>
      </trkpt>
      <trkpt lat="42.4754050" lon="3.1165160">
        <ele>59.8</ele>
        <time>2020-07-20T10:00:07Z</time>
      </trkpt>
      <trkpt lat="42.4755070" lon="3.1163460">
        <ele>59.0</ele>
        <time>2020-07-20T10:00:09Z</time>
      </trkpt>
      <trkpt lat="42.4755640" lon="3.1162560">
        <ele>58.4</ele>
        <time>2020-07-20T10:00:10Z</time>
      </trkpt>
      <trkpt lat="42.4756260" lon="3.1161690">
        <ele>57.6</ele>
        <time>2020-07-20T10:00:11Z</time>
      </trkpt>
      <trkpt lat="42.4756960" lon="3.1160830">
        <ele>56.6</ele>
        <time>2020-07-20T10:00:12Z</time>
      </trkpt>
      <trkpt lat="42.4758440" lon="3.1159150">
        <ele>54.6</ele>
        <time>2020-07-20T10:00:14Z</time>
      </trkpt>
      <trkpt lat="42.4759150" lon="3.1158330">
        <ele>53.4</ele>
        <time>2020-07-20T10:00:15Z</time>
      </trkpt>
      <trkpt lat="42.4759860" lon="3.1157550">
        <ele>52.2</ele>
        <time>2020-07-20T10:00:16Z</time>
      </trkpt>
      <trkpt lat="42.4761150" lon="3.1155610">
        <ele>50.6</ele>
        <time>2020-07-20T10:00:18Z</time>
      </trkpt>
      <trkpt lat="42.4761690" lon="3.1154470">
        <ele>50.2</ele>
        <time>2020-07-20T10:00:19Z</time>
      </trkpt>
      <trkpt lat="42.4762820" lon="3.1152110">
        <ele>48.8</ele>
        <time>2020-07-20T10:00:21Z</time>
      </trkpt>
      <trkpt lat="42.4763500" lon="3.1151030">
        <ele>47.8</ele>
        <time>2020-07-20T10:00:22Z</time>
      </trkpt>
      <trkpt lat="42.4764950" lon="3.1148980">
        <ele>46.0</ele>
        <time>2020-07-20T10:00:24Z</time>
      </trkpt>
      <trkpt lat="42.4766680" lon="3.1147250">
        <ele>44.4</ele>
        <time>2020-07-20T10:00:26Z</time>
      </trkpt>
      <trkpt lat="42.4768400" lon="3.1145470">
        <ele>43.2</ele>
        <time>2020-07-20T10:00:28Z</time>
      </trkpt>
      <trkpt lat="42.4769180" lon="3.1144560">
        <ele>42.0</ele>
        <time>2020-07-20T10:00:29Z</time>
      </trkpt>
      <trkpt lat="42.4769860" lon="3.1143650">
        <ele>40.8</ele>
        <time>2020-07-20T10:00:30Z</time>
      </trkpt>
      <trkpt lat="42.4770500" lon="3.1142740">
        <ele>39.6</ele>
        <time>2020-07-20T10:00:31Z</time>
      </trkpt>
      <trkpt lat="42.4771070" lon="3.1141740">
        <ele>38.4</ele>
        <time>2020-07-20T10:00:32Z</time>
      </trkpt>
      <trkpt lat="42.4771570" lon="3.1140670">
        <ele>37.6</ele>
        <time>2020-07-20T10:00:33Z</time>
      </trkpt>
      <trkpt lat="42.4771970" lon="3.1139600">
        <ele>36.6</ele>
        <time>2020-07-20T10:00:34Z</time>
      </trkpt>
      <trkpt lat="42.4772680" lon="3.1137600">
        <ele>34.8</ele>
        <time>2020-07-20T10:00:36Z</time>
      </trkpt>
      <trkpt lat="42.4773310" lon="3.1135970">
        <ele>33.8</ele>
        <time>2020-07-20T10:00:38Z</time>
      </trkpt>
      <trkpt lat="42.4773650" lon="3.1135280">
        <ele>33.2</ele>
        <time>2020-07-20T10:00:39Z</time>
      </trkpt>
      <trkpt lat="42.4774090" lon="3.1134820">
        <ele>32.8</ele>
        <time>2020-07-20T10:00:40Z</time>
      </trkpt>
      <trkpt lat="42.4774570" lon="3.1134720">
        <ele>32.6</ele>
        <time>2020-07-20T10:00:41Z</time>
      </trkpt>
      <trkpt lat="42.4775050" lon="3.1134870">
        <ele>32.2</ele>
        <time>2020-07-20T10:00:42Z</time>
      </trkpt>
      <trkpt lat="42.4775640" lon="3.1135810">
        <ele>31.6</ele>
        <time>2020-07-20T10:00:43Z</time>
      </trkpt>
      <trkpt lat="42.4775750" lon="3.1136650">
        <ele>30.6</ele>
        <time>2020-07-20T10:00:44Z</time>
      </trkpt>
      <trkpt lat="42.4775660" lon="3.1137590">
        <ele>29.8</ele>
        <time>2020-07-20T10:00:45Z</time>
      </trkpt>
      <trkpt lat="42.4775450" lon="3.1138460">
        <ele>29.0</ele>
        <time>2020-07-20T10:00:46Z</time>
      </trkpt>
      <trkpt lat="42.4775220" lon="3.1139330">
        <ele>28.0</ele>
        <time>2020-07-20T10:00:47Z</time>
      </trkpt>
      <trkpt lat="42.4775000" lon="3.1140280">
        <ele>27.0</ele>
        <time>2020-07-20T10:00:48Z</time>
      </trkpt>
      <trkpt lat="42.4774750" lon="3.1141270">
        <ele>26.2</ele>
        <time>2020-07-20T10:00:49Z</time>
      </trkpt>
      <trkpt lat="42.4774550" lon="3.1142340">
        <ele>25.4</ele>
        <time>2020-07-20T10:00:50Z</time>
      </trkpt>
      <trkpt lat="42.4774360" lon="3.1143480">
        <ele>24.6</ele>
        <time>2020-07-20T10:00:51Z</time>
      </trkpt>
      <trkpt lat="42.4774210" lon="3.1144700">
        <ele>23.4</ele>
        <time>2020-07-20T10:00:52Z</time>
      </trkpt>
      <trkpt lat="42.4774050" lon="3.1146000">
        <ele>22.4</ele>
        <time>2020-07-20T10:00:53Z</time>
      </trkpt>
      <trkpt lat="42.4773750" lon="3.1148650">
        <ele>20.4</ele>
        <time>2020-07-20T10:00:55Z</time>
      </trkpt>
      <trkpt lat="42.4773580" lon="3.1149940">
        <ele>19.0</ele>
        <time>2020-07-20T10:00:56Z</time>
      </trkpt>
      <trkpt lat="42.4773430" lon="3.1151150">
        <ele>17.8</ele>
        <time>2020-07-20T10:00:57Z</time>
      </trkpt>
      <trkpt lat="42.4773150" lon="3.1153470">
        <ele>16.4</ele>
        <time>2020-07-20T10:00:59Z</time>
      </trkpt>
      <trkpt lat="42.4773020" lon="3.1154670">
        <ele>16.0</ele>
        <time>2020-07-20T10:01:00Z</time>
      </trkpt>
      <trkpt lat="42.4772790" lon="3.1157070">
        <ele>15.2</ele>
        <time>2020-07-20T10:01:02Z</time>
      </trkpt>
      <trkpt lat="42.4772540" lon="3.1159630">
        <ele>13.6</ele>
        <time>2020-07-20T10:01:04Z</time>
      </trkpt>
      <trkpt lat="42.4772170" lon="3.1162410">
        <ele>11.4</ele>
        <time>2020-07-20T10:01:06Z</time>
      </trkpt>
      <trkpt lat="42.4771940" lon="3.1163850">
        <ele>10.0</ele>
        <time>2020-07-20T10:01:07Z</time>
      </trkpt>
      <trkpt lat="42.4771590" lon="3.1165260">
        <ele>8.6</ele>
        <time>2020-07-20T10:01:08Z</time>
      </trkpt>
      <trkpt lat="42.4771180" lon="3.1166650">
        <ele>6.0</ele>
        <time>2020-07-20T10:01:09Z</time>
      </trkpt>
      <trkpt lat="42.4770740" lon="3.1168050">
        <ele>6.0</ele>
        <time>2020-07-20T10:01:10Z</time>
      </trkpt>
      <trkpt lat="42.4770290" lon="3.1169400">
        <ele>5.0</ele>
        <time>2020-07-20T10:01:11Z</time>
      </trkpt>
      <trkpt lat="42.4769850" lon="3.1170760">
        <ele>4.0</ele>
        <time>2020-07-20T10:01:12Z</time>
      </trkpt>
      <trkpt lat="42.4769140" lon="3.1173500">
        <ele>2.4</ele>
        <time>2020-07-20T10:01:14Z</time>
      </trkpt>
      <trkpt lat="42.4768900" lon="3.1174870">
        <ele>1.6</ele>
        <time>2020-07-20T10:01:15Z</time>
      </trkpt>
      <trkpt lat="42.4768670" lon="3.1176200">
        <ele>0.8</ele>
        <time>2020-07-20T10:01:16Z</time>
      </trkpt>
      <trkpt lat="42.4768230" lon="3.1178880">
        <ele>-0.4</ele>
        <time>2020-07-20T10:01:18Z</time>
      </trkpt>
      <trkpt lat="42.4767760" lon="3.1181620">
        <ele>-1.8</ele>
        <time>2020-07-20T10:01:20Z</time>
      </trkpt>
      <trkpt lat="42.4767360" lon="3.1184410">
        <ele>-3.4</ele>
        <time>2020-07-20T10:01:22Z</time>
      </trkpt>
      <trkpt lat="42.4767190" lon="3.1185780">
        <ele>-4.4</ele>
        <time>2020-07-20T10:01:23Z</time>
      </trkpt>
      <trkpt lat="42.4766890" lon="3.1188430">
        <ele>-5.8</ele>
        <time>2020-07-20T10:01:25Z</time>
      </trkpt>
      <trkpt lat="42.4766860" lon="3.1189710">
        <ele>-6.0</ele>
        <time>2020-07-20T10:01:26Z</time>
      </trkpt>
      <trkpt lat="42.4766900" lon="3.1190970">
        <ele>-6.4</ele>
        <time>2020-07-20T10:01:27Z</time>
      </trkpt>
      <trkpt lat="42.4767130" lon="3.1193430">
        <ele>-7.0</ele>
        <time>2020-07-20T10:01:29Z</time>
      </trkpt>
      <trkpt lat="42.4767710" lon="3.1196830">
        <ele>-7.0</ele>
        <time>2020-07-20T10:01:32Z</time>
      </trkpt>
      <trkpt lat="42.4768520" lon="3.1201940">
        <ele>-6.8</ele>
        <time>2020-07-20T10:01:37Z</time>
      </trkpt>
      <trkpt lat="42.4768520" lon="3.1202910">
        <ele>-6.6</ele>
        <time>2020-07-20T10:01:38Z</time>
      </trkpt>
      <trkpt lat="42.4768390" lon="3.1203860">
        <ele>-6.6</ele>
        <time>2020-07-20T10:01:39Z</time>
      </trkpt>
      <trkpt lat="42.4767850" lon="3.1205630">
        <ele>-6.8</ele>
        <time>2020-07-20T10:01:41Z</time>
      </trkpt>
      <trkpt lat="42.4767490" lon="3.1206420">
        <ele>-6.8</ele>
        <time>2020-07-20T10:01:42Z</time>
      </trkpt>
      <trkpt lat="42.4766500" lon="3.1207490">
        <ele>-7.0</ele>
        <time>2020-07-20T10:01:44Z</time>
      </trkpt>
      <trkpt lat="42.4765960" lon="3.1207890">
        <ele>-7.0</ele>
        <time>2020-07-20T10:01:45Z</time>
      </trkpt>
      <trkpt lat="42.4765500" lon="3.1208360">
        <ele>-7.0</ele>
        <time>2020-07-20T10:01:46Z</time>
      </trkpt>
      <trkpt lat="42.4765130" lon="3.1208910">
        <ele>-7.0</ele>
        <time>2020-07-20T10:01:47Z</time>
      </trkpt>
      <trkpt lat="42.4764930" lon="3.1209580">
        <ele>-7.0</ele>
        <time>2020-07-20T10:01:48Z</time>
      </trkpt>
      <trkpt lat="42.4765000" lon="3.1211070">
        <ele>-7.0</ele>
        <time>2020-07-20T10:01:50Z</time>
      </trkpt>
      <trkpt lat="42.4765060" lon="3.1211850">
        <ele>-7.0</ele>
        <time>2020-07-20T10:01:51Z</time>
      </trkpt>
      <trkpt lat="42.4765010" lon="3.1212610">
        <ele>-7.2</ele>
        <time>2020-07-20T10:01:52Z</time>
      </trkpt>
      <trkpt lat="42.4764580" lon="3.1214040">
        <ele>-7.2</ele>
        <time>2020-07-20T10:01:54Z</time>
      </trkpt>
      <trkpt lat="42.4764020" lon="3.1215450">
        <ele>-7.4</ele>
        <time>2020-07-20T10:01:56Z</time>
      </trkpt>
      <trkpt lat="42.4763080" lon="3.1217450">
        <ele>-7.2</ele>
        <time>2020-07-20T10:01:59Z</time>
      </trkpt>
      <trkpt lat="42.4762050" lon="3.1219480">
        <ele>-7.0</ele>
        <time>2020-07-20T10:02:02Z</time>
      </trkpt>
      <trkpt lat="42.4760290" lon="3.1223090">
        <ele>-7.8</ele>
        <time>2020-07-20T10:02:07Z</time>
      </trkpt>
      <trkpt lat="42.4759930" lon="3.1223830">
        <ele>-8.0</ele>
        <time>2020-07-20T10:02:08Z</time>
      </trkpt>
      <trkpt lat="42.4758460" lon="3.1226740">
        <ele>-8.2</ele>
        <time>2020-07-20T10:02:12Z</time>
      </trkpt>
      <trkpt lat="42.4756110" lon="3.1230980">
        <ele>-8.2</ele>
        <time>2020-07-20T10:02:18Z</time>
      </trkpt>
      <trkpt lat="42.4755340" lon="3.1232370">
        <ele>-8.2</ele>
        <time>2020-07-20T10:02:20Z</time>
      </trkpt>
      <trkpt lat="42.4754540" lon="3.1233690">
        <ele>-8.2</ele>
        <time>2020-07-20T10:02:22Z</time>
      </trkpt>
      <trkpt lat="42.4752320" lon="3.1237560">
        <ele>-7.6</ele>
        <time>2020-07-20T10:02:28Z</time>
      </trkpt>
      <trkpt lat="42.4751620" lon="3.1238840">
        <ele>-7.2</ele>
        <time>2020-07-20T10:02:30Z</time>
      </trkpt>
      <trkpt lat="42.4750390" lon="3.1241510">
        <ele>-7.2</ele>
        <time>2020-07-20T10:02:34Z</time>
      </trkpt>
      <trkpt lat="42.4750130" lon="3.1242980">
        <ele>-7.4</ele>
        <time>2020-07-20T10:02:36Z</time>
      </trkpt>
      <trkpt lat="42.4750390" lon="3.1244620">
        <ele>-7.8</ele>
        <time>2020-07-20T10:02:38Z</time>
      </trkpt>
      <trkpt lat="42.4750620" lon="3.1245420">
        <ele>-8.2</ele>
        <time>2020-07-20T10:02:39Z</time>
      </trkpt>
      <trkpt lat="42.4751150" lon="3.1246990">
        <ele>-8.6</ele>
        <time>2020-07-20T10:02:41Z</time>
      </trkpt>
      <trkpt lat="42.4751400" lon="3.1247780">
        <ele>-8.8</ele>
        <time>2020-07-20T10:02:42Z</time>
      </trkpt>
      <trkpt lat="42.4752110" lon="3.1250110">
        <ele>-9.0</ele>
        <time>2020-07-20T10:02:45Z</time>
      </trkpt>
      <trkpt lat="42.4752550" lon="3.1251610">
        <ele>-9.2</ele>
        <time>2020-07-20T10:02:47Z</time>
      </trkpt>
      <trkpt lat="42.4752750" lon="3.1252340">
        <ele>-9.4</ele>
        <time>2020-07-20T10:02:48Z</time>
      </trkpt>
      <trkpt lat="42.4753610" lon="3.1255010">
        <ele>-10.0</ele>
        <time>2020-07-20T10:02:52Z</time>
      </trkpt>
      <trkpt lat="42.4754230" lon="3.1256300">
        <ele>-10.2</ele>
        <time>2020-07-20T10:02:54Z</time>
      </trkpt>
      <trkpt lat="42.4754840" lon="3.1257650">
        <ele>-10.2</ele>
        <time>2020-07-20T10:02:56Z</time>
      </trkpt>
      <trkpt lat="42.4756380" lon="3.1260310">
        <ele>-11.0</ele>
        <time>2020-07-20T10:03:00Z</time>
      </trkpt>
      <trkpt lat="42.4756780" lon="3.1260950">
        <ele>-11.6</ele>
        <time>2020-07-20T10:03:01Z</time>
      </trkpt>
      <trkpt lat="42.4757170" lon="3.1261620">
        <ele>-11.8</ele>
        <time>2020-07-20T10:03:02Z</time>
      </trkpt>
      <trkpt lat="42.4759520" lon="3.1265420">
        <ele>-12.0</ele>
        <time>2020-07-20T10:03:08Z</time>
      </trkpt>
      <trkpt lat="42.4760560" lon="3.1267450">
        <ele>-12.2</ele>
        <time>2020-07-20T10:03:11Z</time>
      </trkpt>
      <trkpt lat="42.4762100" lon="3.1270000">
        <ele>-12.4</ele>
        <time>2020-07-20T10:03:15Z</time>
      </trkpt>
      <trkpt lat="42.4762510" lon="3.1270590">
        <ele>-12.4</ele>
        <time>2020-07-20T10:03:16Z</time>
      </trkpt>
      <trkpt lat="42.4762930" lon="3.1271160">
        <ele>-12.6</ele>
        <time>2020-07-20T10:03:17Z</time>
      </trkpt>
      <trkpt lat="42.4763350" lon="3.1271730">
        <ele>-12.6</ele>
        <time>2020-07-20T10:03:18Z</time>
      </trkpt>
      <trkpt lat="42.4763780" lon="3.1272290">
        <ele>-12.6</ele>
        <time>2020-07-20T10:03:19Z</time>
      </trkpt>
      <trkpt lat="42.4765990" lon="3.1275220">
        <ele>-12.6</ele>
        <time>2020-07-20T10:03:24Z</time>
      </trkpt>
      <trkpt lat="42.4768740" lon="3.1278790">
        <ele>-12.4</ele>
        <time>2020-07-20T10:03:30Z</time>
      </trkpt>
      <trkpt lat="42.4769180" lon="3.1279380">
        <ele>-12.8</ele>
        <time>2020-07-20T10:03:31Z</time>
      </trkpt>
      <trkpt lat="42.4770560" lon="3.1281110">
        <ele>-13.6</ele>
        <time>2020-07-20T10:03:34Z</time>
      </trkpt>
      <trkpt lat="42.4773250" lon="3.1284500">
        <ele>-14.0</ele>
        <time>2020-07-20T10:03:40Z</time>
      </trkpt>
      <trkpt lat="42.4775510" lon="3.1287390">
        <ele>-13.6</ele>
        <time>2020-07-20T10:03:45Z</time>
      </trkpt>
      <trkpt lat="42.4776820" lon="3.1289110">
        <ele>-13.6</ele>
        <time>2020-07-20T10:03:48Z</time>
      </trkpt>
      <trkpt lat="42.4777700" lon="3.1290240">
        <ele>-13.4</ele>
        <time>2020-07-20T10:03:50Z</time>
      </trkpt>
      <trkpt lat="42.4779970" lon="3.1293060">
        <ele>-14.0</ele>
        <time>2020-07-20T10:03:55Z</time>
      </trkpt>
      <trkpt lat="42.4780490" lon="3.1293510">
        <ele>-14.4</ele>
        <time>2020-07-20T10:03:56Z</time>
      </trkpt>
      <trkpt lat="42.4781640" lon="3.1294180">
        <ele>-14.4</ele>
        <time>2020-07-20T10:03:58Z</time>
      </trkpt>
      <trkpt lat="42.4783490" lon="3.1294710">
        <ele>-14.4</ele>
        <time>2020-07-20T10:04:01Z</time>
      </trkpt>
      <trkpt lat="42.4786010" lon="3.1294580">
        <ele>-14.4</ele>
        <time>2020-07-20T10:04:05Z</time>
      </trkpt>
      <trkpt lat="42.4786640" lon="3.1294410">
        <ele>-14.4</ele>
        <time>2020-07-20T10:04:06Z</time>
      </trkpt>
      <trkpt lat="42.4787290" lon="3.1294260">
        <ele>-14.4</ele>
        <time>2020-07-20T10:04:07Z</time>
      </trkpt>
      <trkpt lat="42.4789280" lon="3.1293980">
        <ele>-14.4</ele>
        <time>2020-07-20T10:04:10Z</time>
      </trkpt>
      <trkpt lat="42.4791060" lon="3.1293700">
        <ele>-14.2</ele>
        <time>2020-07-20T10:04:13Z</time>
      </trkpt>
      <trkpt lat="42.4794770" lon="3.1293110">
        <ele>-14.0</ele>
        <time>2020-07-20T10:04:19Z</time>
      </trkpt>
      <trkpt lat="42.4795300" lon="3.1293020">
        <ele>-14.0</ele>
        <time>2020-07-20T10:04:20Z</time>
      </trkpt>
      <trkpt lat="42.4796410" lon="3.1292790">
        <ele>-14.2</ele>
        <time>2020-07-20T10:04:22Z</time>
      </trkpt>
      <trkpt lat="42.4799430" lon="3.1292270">
        <ele>-14.6</ele>
        <time>2020-07-20T10:04:27Z</time>
      </trkpt>
      <trkpt lat="42.4799930" lon="3.1292050">
        <ele>-14.8</ele>
        <time>2020-07-20T10:04:28Z</time>
      </trkpt>
      <trkpt lat="42.4800390" lon="3.1291910">
        <ele>-14.8</ele>
        <time>2020-07-20T10:04:29Z</time>
      </trkpt>
      <trkpt lat="42.4802970" lon="3.1291770">
        <ele>-14.4</ele>
        <time>2020-07-20T10:04:34Z</time>
      </trkpt>
      <trkpt lat="42.4803840" lon="3.1291920">
        <ele>-14.4</ele>
        <time>2020-07-20T10:04:37Z</time>
      </trkpt>
      <trkpt lat="42.4803990" lon="3.1291970">
        <ele>-14.4</ele>
        <time>2020-07-20T10:04:38Z</time>
      </trkpt>
      <trkpt lat="42.4804930" lon="3.1291710">
        <ele>-14.0</ele>
        <time>2020-07-20T10:04:43Z</time>
      </trkpt>
      <trkpt lat="42.4805960" lon="3.1291700">
        <ele>-14.0</ele>
        <time>2020-07-20T10:04:45Z</time>
      </trkpt>
      <trkpt lat="42.4807020" lon="3.1291780">
        <ele>-14.0</ele>
        <time>2020-07-20T10:04:47Z</time>
      </trkpt>
      <trkpt lat="42.4808030" lon="3.1291940">
        <ele>-14.2</ele>
        <time>2020-07-20T10:04:49Z</time>
      </trkpt>
      <trkpt lat="42.4810090" lon="3.1292580">
        <ele>-14.8</ele>
        <time>2020-07-20T10:04:53Z</time>
      </trkpt>
      <trkpt lat="42.4810980" lon="3.1293050">
        <ele>-14.8</ele>
        <time>2020-07-20T10:04:55Z</time>
      </trkpt>
      <trkpt lat="42.4812780" lon="3.1294520">
        <ele>-14.4</ele>
        <time>2020-07-20T10:04:59Z</time>
      </trkpt>
      <trkpt lat="42.4813390" lon="3.1295060">
        <ele>-14.0</ele>
        <time>2020-07-20T10:05:02Z</time>
      </trkpt>
      <trkpt lat="42.4813470" lon="3.1295080">
        <ele>-13.6</ele>
        <time>2020-07-20T10:05:03Z</time>
      </trkpt>
      <trkpt lat="42.4813710" lon="3.1295060">
        <ele>-13.4</ele>
        <time>2020-07-20T10:05:05Z</time>
      </trkpt>
      <trkpt lat="42.4814020" lon="3.1295210">
        <ele>-13.2</ele>
        <time>2020-07-20T10:05:07Z</time>
      </trkpt>
      <trkpt lat="42.4814600" lon="3.1295760">
        <ele>-13.0</ele>
        <time>2020-07-20T10:05:09Z</time>
      </trkpt>
      <trkpt lat="42.4815520" lon="3.1295570">
        <ele>-12.8</ele>
        <time>2020-07-20T10:05:12Z</time>
      </trkpt>
      <trkpt lat="42.4816020" lon="3.1295270">
        <ele>-12.8</ele>
        <time>2020-07-20T10:05:13Z</time>
      </trkpt>
      <trkpt lat="42.4819260" lon="3.1292950">
        <ele>-13.0</ele>
        <time>2020-07-20T10:05:19Z</time>
      </trkpt>
      <trkpt lat="42.4819790" lon="3.1292610">
        <ele>-13.0</ele>
        <time>2020-07-20T10:05:20Z</time>
      </trkpt>
      <trkpt lat="42.4823060" lon="3.1291310">
        <ele>-13.2</ele>
        <time>2020-07-20T10:05:26Z</time>
      </trkpt>
      <trkpt lat="42.4825290" lon="3.1290840">
        <ele>-13.4</ele>
        <time>2020-07-20T10:05:30Z</time>
      </trkpt>
      <trkpt lat="42.4826360" lon="3.1290800">
        <ele>-13.4</ele>
        <time>2020-07-20T10:05:32Z</time>
      </trkpt>
      <trkpt lat="42.4828020" lon="3.1290760">
        <ele>-13.6</ele>
        <time>2020-07-20T10:05:35Z</time>
      </trkpt>
      <trkpt lat="42.4829140" lon="3.1290910">
        <ele>-13.4</ele>
        <time>2020-07-20T10:05:37Z</time>
      </trkpt>
      <trkpt lat="42.4830250" lon="3.1291380">
        <ele>-13.4</ele>
        <time>2020-07-20T10:05:39Z</time>
      </trkpt>
      <trkpt lat="42.4831230" lon="3.1292310">
        <ele>-13.8</ele>
        <time>2020-07-20T10:05:41Z</time>
      </trkpt>
      <trkpt lat="42.4831970" lon="3.1293460">
        <ele>-14.0</ele>
        <time>2020-07-20T10:05:43Z</time>
      </trkpt>
      <trkpt lat="42.4832390" lon="3.1294840">
        <ele>-14.2</ele>
        <time>2020-07-20T10:05:45Z</time>
      </trkpt>
      <trkpt lat="42.4832690" lon="3.1296290">
        <ele>-14.0</ele>
        <time>2020-07-20T10:05:47Z</time>
      </trkpt>
      <trkpt lat="42.4832970" lon="3.1297720">
        <ele>-13.6</ele>
        <time>2020-07-20T10:05:49Z</time>
      </trkpt>
      <trkpt lat="42.4833120" lon="3.1298380">
        <ele>-13.4</ele>
        <time>2020-07-20T10:05:50Z</time>
      </trkpt>
      <trkpt lat="42.4833550" lon="3.1300100">
        <ele>-12.4</ele>
        <time>2020-07-20T10:05:53Z</time>
      </trkpt>
      <trkpt lat="42.4833710" lon="3.1300620">
        <ele>-12.0</ele>
        <time>2020-07-20T10:05:54Z</time>
      </trkpt>
      <trkpt lat="42.4834090" lon="3.1301640">
        <ele>-11.2</ele>
        <time>2020-07-20T10:05:56Z</time>
      </trkpt>
      <trkpt lat="42.4834650" lon="3.1303100">
        <ele>-10.6</ele>
        <time>2020-07-20T10:05:59Z</time>
      </trkpt>
      <trkpt lat="42.4835070" lon="3.1303990">
        <ele>-10.0</ele>
        <time>2020-07-20T10:06:01Z</time>
      </trkpt>
      <trkpt lat="42.4835500" lon="3.1304850">
        <ele>-9.2</ele>
        <time>2020-07-20T10:06:03Z</time>
      </trkpt>
      <trkpt lat="42.4835720" lon="3.1305240">
        <ele>-8.6</ele>
        <time>2020-07-20T10:06:04Z</time>
      </trkpt>
      <trkpt lat="42.4836410" lon="3.1306390">
        <ele>-7.6</ele>
        <time>2020-07-20T10:06:07Z</time>
      </trkpt>
      <trkpt lat="42.4837130" lon="3.1307510">
        <ele>-6.6</ele>
        <time>2020-07-20T10:06:10Z</time>
      </trkpt>
      <trkpt lat="42.4837600" lon="3.1308230">
        <ele>-6.0</ele>
        <time>2020-07-20T10:06:12Z</time>
      </trkpt>
      <trkpt lat="42.4837840" lon="3.1308580">
        <ele>-5.8</ele>
        <time>2020-07-20T10:06:13Z</time>
      </trkpt>
      <trkpt lat="42.4838300" lon="3.1309300">
        <ele>-5.4</ele>
        <time>2020-07-20T10:06:15Z</time>
      </trkpt>
      <trkpt lat="42.4839200" lon="3.1310710">
        <ele>-4.0</ele>
        <time>2020-07-20T10:06:19Z</time>
      </trkpt>
      <trkpt lat="42.4839870" lon="3.1311780">
        <ele>-3.0</ele>
        <time>2020-07-20T10:06:22Z</time>
      </trkpt>
      <trkpt lat="42.4840090" lon="3.1312130">
        <ele>-2.8</ele>
        <time>2020-07-20T10:06:23Z</time>
      </trkpt>
      <trkpt lat="42.4840850" lon="3.1313120">
        <ele>-1.8</ele>
        <time>2020-07-20T10:06:26Z</time>
      </trkpt>
      <trkpt lat="42.4841830" lon="3.1313830">
        <ele>-1.2</ele>
        <time>2020-07-20T10:06:29Z</time>
      </trkpt>
      <trkpt lat="42.4842520" lon="3.1314060">
        <ele>-0.8</ele>
        <time>2020-07-20T10:06:31Z</time>
      </trkpt>
      <trkpt lat="42.4844020" lon="3.1314080">
        <ele>0.2</ele>
        <time>2020-07-20T10:06:35Z</time>
      </trkpt>
      <trkpt lat="42.4844360" lon="3.1313940">
        <ele>0.4</ele>
        <time>2020-07-20T10:06:36Z</time>
      </trkpt>
      <trkpt lat="42.4845360" lon="3.1313380">
        <ele>1.2</ele>
        <time>2020-07-20T10:06:39Z</time>
      </trkpt>
      <trkpt lat="42.4845690" lon="3.1313180">
        <ele>1.6</ele>
        <time>2020-07-20T10:06:40Z</time>
      </trkpt>
      <trkpt lat="42.4846290" lon="3.1312770">
        <ele>2.0</ele>
        <time>2020-07-20T10:06:42Z</time>
      </trkpt>
      <trkpt lat="42.4847510" lon="3.1312040">
        <ele>2.6</ele>
        <time>2020-07-20T10:06:46Z</time>
      </trkpt>
      <trkpt lat="42.4848480" lon="3.1311550">
        <ele>3.6</ele>
        <time>2020-07-20T10:06:49Z</time>
      </trkpt>
      <trkpt lat="42.4849450" lon="3.1311080">
        <ele>5.0</ele>
        <time>2020-07-20T10:06:52Z</time>
      </trkpt>
      <trkpt lat="42.4850380" lon="3.1310540">
        <ele>6.2</ele>
        <time>2020-07-20T10:06:55Z</time>
      </trkpt>
      <trkpt lat="42.4851630" lon="3.1309860">
        <ele>7.2</ele>
        <time>2020-07-20T10:06:59Z</time>
      </trkpt>
      <trkpt lat="42.4851950" lon="3.1309710">
        <ele>7.6</ele>
        <time>2020-07-20T10:07:00Z</time>
      </trkpt>
      <trkpt lat="42.4853100" lon="3.1309030">
        <ele>8.6</ele>
        <time>2020-07-20T10:07:04Z</time>
      </trkpt>
      <trkpt lat="42.4854250" lon="3.1308200">
        <ele>9.6</ele>
        <time>2020-07-20T10:07:08Z</time>
      </trkpt>
      <trkpt lat="42.4855540" lon="3.1307160">
        <ele>10.8</ele>
        <time>2020-07-20T10:07:12Z</time>
      </trkpt>
      <trkpt lat="42.4856440" lon="3.1306170">
        <ele>12.0</ele>
        <time>2020-07-20T10:07:15Z</time>
      </trkpt>
      <trkpt lat="42.4856700" lon="3.1305790">
        <ele>12.2</ele>
        <time>2020-07-20T10:07:16Z</time>
      </trkpt>
      <trkpt lat="42.4857180" lon="3.1304970">
        <ele>12.6</ele>
        <time>2020-07-20T10:07:18Z</time>
      </trkpt>
      <trkpt lat="42.4857680" lon="3.1304140">
        <ele>13.0</ele>
        <time>2020-07-20T10:07:20Z</time>
      </trkpt>
      <trkpt lat="42.4858740" lon="3.1301920">
        <ele>14.0</ele>
        <time>2020-07-20T10:07:25Z</time>
      </trkpt>
      <trkpt lat="42.4858940" lon="3.1301450">
        <ele>14.0</ele>
        <time>2020-07-20T10:07:26Z</time>
      </trkpt>
      <trkpt lat="42.4860120" lon="3.1298080">
        <ele>14.6</ele>
        <time>2020-07-20T10:07:32Z</time>
      </trkpt>
      <trkpt lat="42.4861780" lon="3.1293830">
        <ele>14.0</ele>
        <time>2020-07-20T10:07:38Z</time>
      </trkpt>
      <trkpt lat="42.4863630" lon="3.1290690">
        <ele>13.0</ele>
        <time>2020-07-20T10:07:42Z</time>
      </trkpt>
      <trkpt lat="42.4864720" lon="3.1289020">
        <ele>11.4</ele>
        <time>2020-07-20T10:07:44Z</time>
      </trkpt>
      <trkpt lat="42.4865730" lon="3.1287150">
        <ele>10.2</ele>
        <time>2020-07-20T10:07:46Z</time>
      </trkpt>
      <trkpt lat="42.4866140" lon="3.1286120">
        <ele>9.8</ele>
        <time>2020-07-20T10:07:47Z</time>
      </trkpt>
      <trkpt lat="42.4866610" lon="3.1284060">
        <ele>9.4</ele>
        <time>2020-07-20T10:07:49Z</time>
      </trkpt>
      <trkpt lat="42.4866550" lon="3.1282930">
        <ele>9.0</ele>
        <time>2020-07-20T10:07:50Z</time>
      </trkpt>
      <trkpt lat="42.4866310" lon="3.1281880">
        <ele>8.8</ele>
        <time>2020-07-20T10:07:51Z</time>
      </trkpt>
      <trkpt lat="42.4865920" lon="3.1280870">
        <ele>8.2</ele>
        <time>2020-07-20T10:07:52Z</time>
      </trkpt>
      <trkpt lat="42.4865440" lon="3.1279970">
        <ele>7.6</ele>
        <time>2020-07-20T10:07:53Z</time>
      </trkpt>
      <trkpt lat="42.4864120" lon="3.1278380">
        <ele>6.6</ele>
        <time>2020-07-20T10:07:55Z</time>
      </trkpt>
      <trkpt lat="42.4863370" lon="3.1277660">
        <ele>6.2</ele>
        <time>2020-07-20T10:07:56Z</time>
      </trkpt>
      <trkpt lat="42.4860920" lon="3.1275630">
        <ele>5.0</ele>
        <time>2020-07-20T10:07:59Z</time>
      </trkpt>
      <trkpt lat="42.4860200" lon="3.1274870">
        <ele>4.4</ele>
        <time>2020-07-20T10:08:00Z</time>
      </trkpt>
      <trkpt lat="42.4859070" lon="3.1273010">
        <ele>3.4</ele>
        <time>2020-07-20T10:08:02Z</time>
      </trkpt>
      <trkpt lat="42.4858250" lon="3.1270790">
        <ele>2.2</ele>
        <time>2020-07-20T10:08:04Z</time>
      </trkpt>
      <trkpt lat="42.4857570" lon="3.1268520">
        <ele>1.0</ele>
        <time>2020-07-20T10:08:06Z</time>
      </trkpt>
      <trkpt lat="42.4857090" lon="3.1266400">
        <ele>-0.4</ele>
        <time>2020-07-20T10:08:08Z</time>
      </trkpt>
      <trkpt lat="42.4856960" lon="3.1265450">
        <ele>-1.0</ele>
        <time>2020-07-20T10:08:09Z</time>
      </trkpt>
      <trkpt lat="42.4856900" lon="3.1264610">
        <ele>-1.2</ele>
        <time>2020-07-20T10:08:10Z</time>
      </trkpt>
      <trkpt lat="42.4856910" lon="3.1263870">
        <ele>-1.4</ele>
        <time>2020-07-20T10:08:11Z</time>
      </trkpt>
      <trkpt lat="42.4857200" lon="3.1262540">
        <ele>-1.6</ele>
        <time>2020-07-20T10:08:13Z</time>
      </trkpt>
      <trkpt lat="42.4857520" lon="3.1261940">
        <ele>-1.8</ele>
        <time>2020-07-20T10:08:14Z</time>
      </trkpt>
      <trkpt lat="42.4857980" lon="3.1261430">
        <ele>-1.8</ele>
        <time>2020-07-20T10:08:15Z</time>
      </trkpt>
      <trkpt lat="42.4859210" lon="3.1260770">
        <ele>-2.8</ele>
        <time>2020-07-20T10:08:17Z</time>
      </trkpt>
      <trkpt lat="42.4860700" lon="3.1260580">
        <ele>-4.0</ele>
        <time>2020-07-20T10:08:19Z</time>
      </trkpt>
      <trkpt lat="42.4862290" lon="3.1260600">
        <ele>-5.4</ele>
        <time>2020-07-20T10:08:21Z</time>
      </trkpt>
      <trkpt lat="42.4863800" lon="3.1260730">
        <ele>-6.6</ele>
        <time>2020-07-20T10:08:23Z</time>
      </trkpt>
      <trkpt lat="42.4865140" lon="3.1261020">
        <ele>-7.2</ele>
        <time>2020-07-20T10:08:25Z</time>
      </trkpt>
      <trkpt lat="42.4865780" lon="3.1261240">
        <ele>-7.4</ele>
        <time>2020-07-20T10:08:26Z</time>
      </trkpt>
      <trkpt lat="42.4866400" lon="3.1261550">
        <ele>-7.6</ele>
        <time>2020-07-20T10:08:27Z</time>
      </trkpt>
      <trkpt lat="42.4867640" lon="3.1262370">
        <ele>-8.4</ele>
        <time>2020-07-20T10:08:29Z</time>
      </trkpt>
      <trkpt lat="42.4868280" lon="3.1262830">
        <ele>-9.0</ele>
        <time>2020-07-20T10:08:30Z</time>
      </trkpt>
      <trkpt lat="42.4868900" lon="3.1263330">
        <ele>-9.4</ele>
        <time>2020-07-20T10:08:31Z</time>
      </trkpt>
      <trkpt lat="42.4870050" lon="3.1264380">
        <ele>-10.0</ele>
        <time>2020-07-20T10:08:33Z</time>
      </trkpt>
      <trkpt lat="42.4872300" lon="3.1266310">
        <ele>-10.6</ele>
        <time>2020-07-20T10:08:37Z</time>
      </trkpt>
      <trkpt lat="42.4873940" lon="3.1267700">
        <ele>-10.2</ele>
        <time>2020-07-20T10:08:40Z</time>
      </trkpt>
      <trkpt lat="42.4874450" lon="3.1268130">
        <ele>-10.0</ele>
        <time>2020-07-20T10:08:41Z</time>
      </trkpt>
      <trkpt lat="42.4875900" lon="3.1269380">
        <ele>-10.0</ele>
        <time>2020-07-20T10:08:44Z</time>
      </trkpt>
      <trkpt lat="42.4878610" lon="3.1271140">
        <ele>-8.8</ele>
        <time>2020-07-20T10:08:50Z</time>
      </trkpt>
      <trkpt lat="42.4880620" lon="3.1272300">
        <ele>-7.8</ele>
        <time>2020-07-20T10:08:55Z</time>
      </trkpt>
      <trkpt lat="42.4881010" lon="3.1272520">
        <ele>-7.6</ele>
        <time>2020-07-20T10:08:56Z</time>
      </trkpt>
      <trkpt lat="42.4881770" lon="3.1272960">
        <ele>-7.2</ele>
        <time>2020-07-20T10:08:58Z</time>
      </trkpt>
      <trkpt lat="42.4882530" lon="3.1273370">
        <ele>-6.8</ele>
        <time>2020-07-20T10:09:00Z</time>
      </trkpt>
      <trkpt lat="42.4882910" lon="3.1273570">
        <ele>-6.6</ele>
        <time>2020-07-20T10:09:01Z</time>
      </trkpt>
      <trkpt lat="42.4884060" lon="3.1274060">
        <ele>-6.2</ele>
        <time>2020-07-20T10:09:04Z</time>
      </trkpt>
      <trkpt lat="42.4884430" lon="3.1274050">
        <ele>-6.0</ele>
        <time>2020-07-20T10:09:05Z</time>
      </trkpt>
      <trkpt lat="42.4885150" lon="3.1273900">
        <ele>-5.4</ele>
        <time>2020-07-20T10:09:07Z</time>
      </trkpt>
      <trkpt lat="42.4886140" lon="3.1273320">
        <ele>-4.8</ele>
        <time>2020-07-20T10:09:10Z</time>
      </trkpt>
      <trkpt lat="42.4886720" lon="3.1272760">
        <ele>-4.2</ele>
        <time>2020-07-20T10:09:12Z</time>
      </trkpt>
      <trkpt lat="42.4887650" lon="3.1271280">
        <ele>-3.4</ele>
        <time>2020-07-20T10:09:16Z</time>
      </trkpt>
      <trkpt lat="42.4887790" lon="3.1270830">
        <ele>-3.0</ele>
        <time>2020-07-20T10:09:17Z</time>
      </trkpt>
      <trkpt lat="42.4888010" lon="3.1268970">
        <ele>-2.6</ele>
        <time>2020-07-20T10:09:21Z</time>
      </trkpt>
      <trkpt lat="42.4888010" lon="3.1267990">
        <ele>-1.8</ele>
        <time>2020-07-20T10:09:23Z</time>
      </trkpt>
      <trkpt lat="42.4887970" lon="3.1266990">
        <ele>-1.2</ele>
        <time>2020-07-20T10:09:25Z</time>
      </trkpt>
      <trkpt lat="42.4887910" lon="3.1265490">
        <ele>-1.0</ele>
        <time>2020-07-20T10:09:28Z</time>
      </trkpt>
      <trkpt lat="42.4887870" lon="3.1264960">
        <ele>-0.8</ele>
        <time>2020-07-20T10:09:29Z</time>
      </trkpt>
      <trkpt lat="42.4887820" lon="3.1262470">
        <ele>0.4</ele>
        <time>2020-07-20T10:09:34Z</time>
      </trkpt>
      <trkpt lat="42.4887870" lon="3.1261520">
        <ele>1.0</ele>
        <time>2020-07-20T10:09:36Z</time>
      </trkpt>
      <trkpt lat="42.4887910" lon="3.1260600">
        <ele>1.6</ele>
        <time>2020-07-20T10:09:38Z</time>
      </trkpt>
      <trkpt lat="42.4887970" lon="3.1258320">
        <ele>2.6</ele>
        <time>2020-07-20T10:09:43Z</time>
      </trkpt>
      <trkpt lat="42.4888040" lon="3.1257000">
        <ele>3.4</ele>
        <time>2020-07-20T10:09:46Z</time>
      </trkpt>
      <trkpt lat="42.4888030" lon="3.1256090">
        <ele>3.8</ele>
        <time>2020-07-20T10:09:48Z</time>
      </trkpt>
      <trkpt lat="42.4888070" lon="3.1255200">
        <ele>4.4</ele>
        <time>2020-07-20T10:09:50Z</time>
      </trkpt>
      <trkpt lat="42.4888080" lon="3.1254760">
        <ele>4.8</ele>
        <time>2020-07-20T10:09:51Z</time>
      </trkpt>
      <trkpt lat="42.4888090" lon="3.1254330">
        <ele>5.2</ele>
        <time>2020-07-20T10:09:52Z</time>
      </trkpt>
      <trkpt lat="42.4888120" lon="3.1253470">
        <ele>5.8</ele>
        <time>2020-07-20T10:09:54Z</time>
      </trkpt>
      <trkpt lat="42.4888140" lon="3.1253050">
        <ele>6.0</ele>
        <time>2020-07-20T10:09:55Z</time>
      </trkpt>
      <trkpt lat="42.4888130" lon="3.1251340">
        <ele>7.2</ele>
        <time>2020-07-20T10:09:59Z</time>
      </trkpt>
      <trkpt lat="42.4888070" lon="3.1250050">
        <ele>8.0</ele>
        <time>2020-07-20T10:10:02Z</time>
      </trkpt>
      <trkpt lat="42.4888040" lon="3.1249630">
        <ele>8.2</ele>
        <time>2020-07-20T10:10:03Z</time>
      </trkpt>
      <trkpt lat="42.4887980" lon="3.1249200">
        <ele>8.4</ele>
        <time>2020-07-20T10:10:04Z</time>
      </trkpt>
      <trkpt lat="42.4887660" lon="3.1247480">
        <ele>9.2</ele>
        <time>2020-07-20T10:10:08Z</time>
      </trkpt>
      <trkpt lat="42.4887560" lon="3.1247040">
        <ele>9.4</ele>
        <time>2020-07-20T10:10:09Z</time>
      </trkpt>
      <trkpt lat="42.4887270" lon="3.1245760">
        <ele>10.0</ele>
        <time>2020-07-20T10:10:12Z</time>
      </trkpt>
      <trkpt lat="42.4887190" lon="3.1244890">
        <ele>10.6</ele>
        <time>2020-07-20T10:10:14Z</time>
      </trkpt>
      <trkpt lat="42.4887190" lon="3.1243230">
        <ele>11.6</ele>
        <time>2020-07-20T10:10:18Z</time>
      </trkpt>
      <trkpt lat="42.4887320" lon="3.1241010">
        <ele>12.8</ele>
        <time>2020-07-20T10:10:23Z</time>
      </trkpt>
      <trkpt lat="42.4887440" lon="3.1239680">
        <ele>13.6</ele>
        <time>2020-07-20T10:10:26Z</time>
      </trkpt>
      <trkpt lat="42.4887530" lon="3.1239240">
        <ele>13.8</ele>
        <time>2020-07-20T10:10:27Z</time>
      </trkpt>
      <trkpt lat="42.4888130" lon="3.1237040">
        <ele>15.0</ele>
        <time>2020-07-20T10:10:32Z</time>
      </trkpt>
      <trkpt lat="42.4888470" lon="3.1236190">
        <ele>15.8</ele>
        <time>2020-07-20T10:10:34Z</time>
      </trkpt>
      <trkpt lat="42.4888670" lon="3.1235780">
        <ele>16.0</ele>
        <time>2020-07-20T10:10:35Z</time>
      </trkpt>
      <trkpt lat="42.4889740" lon="3.1233160">
        <ele>17.2</ele>
        <time>2020-07-20T10:10:41Z</time>
      </trkpt>
      <trkpt lat="42.4890510" lon="3.1231530">
        <ele>18.2</ele>
        <time>2020-07-20T10:10:45Z</time>
      </trkpt>
      <trkpt lat="42.4891260" lon="3.1229860">
        <ele>19.4</ele>
        <time>2020-07-20T10:10:49Z</time>
      </trkpt>
      <trkpt lat="42.4891810" lon="3.1228570">
        <ele>19.6</ele>
        <time>2020-07-20T10:10:52Z</time>
      </trkpt>
      <trkpt lat="42.4892570" lon="3.1226870">
        <ele>20.4</ele>
        <time>2020-07-20T10:10:56Z</time>
      </trkpt>
      <trkpt lat="42.4893120" lon="3.1225580">
        <ele>21.0</ele>
        <time>2020-07-20T10:10:59Z</time>
      </trkpt>
      <trkpt lat="42.4893490" lon="3.1224710">
        <ele>21.6</ele>
        <time>2020-07-20T10:11:01Z</time>
      </trkpt>
      <trkpt lat="42.4894360" lon="3.1222520">
        <ele>22.6</ele>
        <time>2020-07-20T10:11:06Z</time>
      </trkpt>
      <trkpt lat="42.4894930" lon="3.1221240">
        <ele>23.6</ele>
        <time>2020-07-20T10:11:09Z</time>
      </trkpt>
      <trkpt lat="42.4895120" lon="3.1220810">
        <ele>23.6</ele>
        <time>2020-07-20T10:11:10Z</time>
      </trkpt>
      <trkpt lat="42.4896200" lon="3.1218230">
        <ele>24.8</ele>
        <time>2020-07-20T10:11:16Z</time>
      </trkpt>
      <trkpt lat="42.4896550" lon="3.1217430">
        <ele>25.4</ele>
        <time>2020-07-20T10:11:18Z</time>
      </trkpt>
      <trkpt lat="42.4896920" lon="3.1216650">
        <ele>26.0</ele>
        <time>2020-07-20T10:11:20Z</time>
      </trkpt>
      <trkpt lat="42.4897800" lon="3.1214730">
        <ele>27.0</ele>
        <time>2020-07-20T10:11:25Z</time>
      </trkpt>
      <trkpt lat="42.4898340" lon="3.1213610">
        <ele>28.0</ele>
        <time>2020-07-20T10:11:28Z</time>
      </trkpt>
      <trkpt lat="42.4899070" lon="3.1212100">
        <ele>29.2</ele>
        <time>2020-07-20T10:11:32Z</time>
      </trkpt>
      <trkpt lat="42.4899600" lon="3.1210950">
        <ele>30.0</ele>
        <time>2020-07-20T10:11:35Z</time>
      </trkpt>
      <trkpt lat="42.4899780" lon="3.1210560">
        <ele>30.2</ele>
        <time>2020-07-20T10:11:36Z</time>
      </trkpt>
      <trkpt lat="42.4900690" lon="3.1208590">
        <ele>31.2</ele>
        <time>2020-07-20T10:11:41Z</time>
      </trkpt>
      <trkpt lat="42.4901270" lon="3.1207390">
        <ele>32.0</ele>
        <time>2020-07-20T10:11:44Z</time>
      </trkpt>
      <trkpt lat="42.4901650" lon="3.1206580">
        <ele>32.6</ele>
        <time>2020-07-20T10:11:46Z</time>
      </trkpt>
      <trkpt lat="42.4902830" lon="3.1204150">
        <ele>33.6</ele>
        <time>2020-07-20T10:11:52Z</time>
      </trkpt>
      <trkpt lat="42.4903220" lon="3.1203360">
        <ele>34.2</ele>
        <time>2020-07-20T10:11:54Z</time>
      </trkpt>
      <trkpt lat="42.4903640" lon="3.1202600">
        <ele>34.8</ele>
        <time>2020-07-20T10:11:56Z</time>
      </trkpt>
      <trkpt lat="42.4904620" lon="3.1200480">
        <ele>36.0</ele>
        <time>2020-07-20T10:12:01Z</time>
      </trkpt>
      <trkpt lat="42.4904810" lon="3.1200060">
        <ele>36.2</ele>
        <time>2020-07-20T10:12:02Z</time>
      </trkpt>
      <trkpt lat="42.4905440" lon="3.1198860">
        <ele>37.0</ele>
        <time>2020-07-20T10:12:05Z</time>
      </trkpt>
      <trkpt lat="42.4906500" lon="3.1196850">
        <ele>38.2</ele>
        <time>2020-07-20T10:12:10Z</time>
      </trkpt>
      <trkpt lat="42.4907680" lon="3.1194980">
        <ele>39.4</ele>
        <time>2020-07-20T10:12:15Z</time>
      </trkpt>
      <trkpt lat="42.4908420" lon="3.1193940">
        <ele>40.0</ele>
        <time>2020-07-20T10:12:18Z</time>
      </trkpt>
      <trkpt lat="42.4908940" lon="3.1193300">
        <ele>40.6</ele>
        <time>2020-07-20T10:12:20Z</time>
      </trkpt>
      <trkpt lat="42.4909800" lon="3.1192490">
        <ele>41.6</ele>
        <time>2020-07-20T10:12:23Z</time>
      </trkpt>
      <trkpt lat="42.4910370" lon="3.1192010">
        <ele>42.0</ele>
        <time>2020-07-20T10:12:25Z</time>
      </trkpt>
      <trkpt lat="42.4910980" lon="3.1191600">
        <ele>42.4</ele>
        <time>2020-07-20T10:12:27Z</time>
      </trkpt>
      <trkpt lat="42.4911300" lon="3.1191420">
        <ele>42.6</ele>
        <time>2020-07-20T10:12:28Z</time>
      </trkpt>
      <trkpt lat="42.4912590" lon="3.1190850">
        <ele>43.8</ele>
        <time>2020-07-20T10:12:32Z</time>
      </trkpt>
      <trkpt lat="42.4914280" lon="3.1190380">
        <ele>45.0</ele>
        <time>2020-07-20T10:12:37Z</time>
      </trkpt>
      <trkpt lat="42.4914990" lon="3.1190300">
        <ele>45.4</ele>
        <time>2020-07-20T10:12:39Z</time>
      </trkpt>
      <trkpt lat="42.4916040" lon="3.1190230">
        <ele>46.2</ele>
        <time>2020-07-20T10:12:42Z</time>
      </trkpt>
      <trkpt lat="42.4917870" lon="3.1190120">
        <ele>47.2</ele>
        <time>2020-07-20T10:12:47Z</time>
      </trkpt>
      <trkpt lat="42.4920070" lon="3.1190370">
        <ele>48.0</ele>
        <time>2020-07-20T10:12:53Z</time>
      </trkpt>
      <trkpt lat="42.4920460" lon="3.1190540">
        <ele>48.0</ele>
        <time>2020-07-20T10:12:54Z</time>
      </trkpt>
      <trkpt lat="42.4921690" lon="3.1191140">
        <ele>48.2</ele>
        <time>2020-07-20T10:12:57Z</time>
      </trkpt>
      <trkpt lat="42.4923130" lon="3.1191370">
        <ele>48.6</ele>
        <time>2020-07-20T10:13:00Z</time>
      </trkpt>
      <trkpt lat="42.4926360" lon="3.1192740">
        <ele>48.2</ele>
        <time>2020-07-20T10:13:06Z</time>
      </trkpt>
      <trkpt lat="42.4929660" lon="3.1193790">
        <ele>47.8</ele>
        <time>2020-07-20T10:13:11Z</time>
      </trkpt>
      <trkpt lat="42.4930420" lon="3.1193910">
        <ele>47.4</ele>
        <time>2020-07-20T10:13:12Z</time>
      </trkpt>
      <trkpt lat="42.4931210" lon="3.1194010">
        <ele>46.6</ele>
        <time>2020-07-20T10:13:13Z</time>
      </trkpt>
      <trkpt lat="42.4932820" lon="3.1194020">
        <ele>45.0</ele>
        <time>2020-07-20T10:13:15Z</time>
      </trkpt>
      <trkpt lat="42.4934600" lon="3.1193690">
        <ele>43.6</ele>
        <time>2020-07-20T10:13:17Z</time>
      </trkpt>
      <trkpt lat="42.4936480" lon="3.1193260">
        <ele>42.2</ele>
        <time>2020-07-20T10:13:19Z</time>
      </trkpt>
      <trkpt lat="42.4938410" lon="3.1192630">
        <ele>41.0</ele>
        <time>2020-07-20T10:13:21Z</time>
      </trkpt>
      <trkpt lat="42.4939380" lon="3.1192200">
        <ele>40.4</ele>
        <time>2020-07-20T10:13:22Z</time>
      </trkpt>
      <trkpt lat="42.4940320" lon="3.1191670">
        <ele>39.8</ele>
        <time>2020-07-20T10:13:23Z</time>
      </trkpt>
      <trkpt lat="42.4943160" lon="3.1189500">
        <ele>38.6</ele>
        <time>2020-07-20T10:13:26Z</time>
      </trkpt>
      <trkpt lat="42.4946010" lon="3.1187080">
        <ele>37.0</ele>
        <time>2020-07-20T10:13:29Z</time>
      </trkpt>
      <trkpt lat="42.4946940" lon="3.1186270">
        <ele>35.4</ele>
        <time>2020-07-20T10:13:30Z</time>
      </trkpt>
      <trkpt lat="42.4947880" lon="3.1185500">
        <ele>34.0</ele>
        <time>2020-07-20T10:13:31Z</time>
      </trkpt>
      <trkpt lat="42.4948830" lon="3.1184800">
        <ele>33.0</ele>
        <time>2020-07-20T10:13:32Z</time>
      </trkpt>
      <trkpt lat="42.4949800" lon="3.1184180">
        <ele>32.2</ele>
        <time>2020-07-20T10:13:33Z</time>
      </trkpt>
      <trkpt lat="42.4951740" lon="3.1183190">
        <ele>30.0</ele>
        <time>2020-07-20T10:13:35Z</time>
      </trkpt>
      <trkpt lat="42.4952720" lon="3.1182840">
        <ele>28.8</ele>
        <time>2020-07-20T10:13:36Z</time>
      </trkpt>
      <trkpt lat="42.4953750" lon="3.1182620">
        <ele>27.8</ele>
        <time>2020-07-20T10:13:37Z</time>
      </trkpt>
      <trkpt lat="42.4955820" lon="3.1182490">
        <ele>26.2</ele>
        <time>2020-07-20T10:13:39Z</time>
      </trkpt>
      <trkpt lat="42.4956780" lon="3.1182590">
        <ele>25.4</ele>
        <time>2020-07-20T10:13:40Z</time>
      </trkpt>
      <trkpt lat="42.4957690" lon="3.1182810">
        <ele>24.8</ele>
        <time>2020-07-20T10:13:41Z</time>
      </trkpt>
      <trkpt lat="42.4959390" lon="3.1183420">
        <ele>23.4</ele>
        <time>2020-07-20T10:13:43Z</time>
      </trkpt>
      <trkpt lat="42.4960210" lon="3.1183880">
        <ele>23.0</ele>
        <time>2020-07-20T10:13:44Z</time>
      </trkpt>
      <trkpt lat="42.4960980" lon="3.1184490">
        <ele>22.4</ele>
        <time>2020-07-20T10:13:45Z</time>
      </trkpt>
      <trkpt lat="42.4961720" lon="3.1185200">
        <ele>21.4</ele>
        <time>2020-07-20T10:13:46Z</time>
      </trkpt>
      <trkpt lat="42.4963160" lon="3.1186780">
        <ele>19.8</ele>
        <time>2020-07-20T10:13:48Z</time>
      </trkpt>
      <trkpt lat="42.4964590" lon="3.1188520">
        <ele>18.2</ele>
        <time>2020-07-20T10:13:50Z</time>
      </trkpt>
      <trkpt lat="42.4966030" lon="3.1190360">
        <ele>16.4</ele>
        <time>2020-07-20T10:13:52Z</time>
      </trkpt>
      <trkpt lat="42.4967420" lon="3.1192370">
        <ele>15.4</ele>
        <time>2020-07-20T10:13:54Z</time>
      </trkpt>
      <trkpt lat="42.4968170" lon="3.1193350">
        <ele>15.0</ele>
        <time>2020-07-20T10:13:55Z</time>
      </trkpt>
      <trkpt lat="42.4969000" lon="3.1194220">
        <ele>14.4</ele>
        <time>2020-07-20T10:13:56Z</time>
      </trkpt>
      <trkpt lat="42.4969910" lon="3.1194940">
        <ele>13.8</ele>
        <time>2020-07-20T10:13:57Z</time>
      </trkpt>
      <trkpt lat="42.4970880" lon="3.1195460">
        <ele>13.2</ele>
        <time>2020-07-20T10:13:58Z</time>
      </trkpt>
      <trkpt lat="42.4971910" lon="3.1195820">
        <ele>12.6</ele>
        <time>2020-07-20T10:13:59Z</time>
      </trkpt>
      <trkpt lat="42.4973000" lon="3.1196040">
        <ele>12.0</ele>
        <time>2020-07-20T10:14:00Z</time>
      </trkpt>
      <trkpt lat="42.4974140" lon="3.1196130">
        <ele>11.4</ele>
        <time>2020-07-20T10:14:01Z</time>
      </trkpt>
      <trkpt lat="42.4976520" lon="3.1196070">
        <ele>9.2</ele>
        <time>2020-07-20T10:14:03Z</time>
      </trkpt>
      <trkpt lat="42.4977720" lon="3.1196010">
        <ele>7.8</ele>
        <time>2020-07-20T10:14:04Z</time>
      </trkpt>
      <trkpt lat="42.4978950" lon="3.1195950">
        <ele>6.6</ele>
        <time>2020-07-20T10:14:05Z</time>
      </trkpt>
      <trkpt lat="42.4981270" lon="3.1195910">
        <ele>4.8</ele>
        <time>2020-07-20T10:14:07Z</time>
      </trkpt>
      <trkpt lat="42.4983440" lon="3.1195950">
        <ele>3.8</ele>
        <time>2020-07-20T10:14:09Z</time>
      </trkpt>
      <trkpt lat="42.4986500" lon="3.1196080">
        <ele>2.8</ele>
        <time>2020-07-20T10:14:12Z</time>
      </trkpt>
      <trkpt lat="42.4987480" lon="3.1196030">
        <ele>2.4</ele>
        <time>2020-07-20T10:14:13Z</time>
      </trkpt>
      <trkpt lat="42.4989500" lon="3.1195710">
        <ele>1.4</ele>
        <time>2020-07-20T10:14:15Z</time>
      </trkpt>
      <trkpt lat="42.4991550" lon="3.1195340">
        <ele>0.2</ele>
        <time>2020-07-20T10:14:17Z</time>
      </trkpt>
      <trkpt lat="42.4992570" lon="3.1195220">
        <ele>-0.6</ele>
        <time>2020-07-20T10:14:18Z</time>
      </trkpt>
      <trkpt lat="42.4993570" lon="3.1195160">
        <ele>-1.4</ele>
        <time>2020-07-20T10:14:19Z</time>
      </trkpt>
      <trkpt lat="42.4996440" lon="3.1195600">
        <ele>-3.0</ele>
        <time>2020-07-20T10:14:22Z</time>
      </trkpt>
      <trkpt lat="42.4998080" lon="3.1196800">
        <ele>-4.8</ele>
        <time>2020-07-20T10:14:24Z</time>
      </trkpt>
      <trkpt lat="42.4998790" lon="3.1197670">
        <ele>-5.6</ele>
        <time>2020-07-20T10:14:25Z</time>
      </trkpt>
      <trkpt lat="42.4999420" lon="3.1198690">
        <ele>-6.6</ele>
        <time>2020-07-20T10:14:26Z</time>
      </trkpt>
      <trkpt lat="42.5000550" lon="3.1200960">
        <ele>-8.0</ele>
        <time>2020-07-20T10:14:28Z</time>
      </trkpt>
      <trkpt lat="42.5001100" lon="3.1202130">
        <ele>-8.8</ele>
        <time>2020-07-20T10:14:29Z</time>
      </trkpt>
      <trkpt lat="42.5001650" lon="3.1203290">
        <ele>-9.4</ele>
        <time>2020-07-20T10:14:30Z</time>
      </trkpt>
      <trkpt lat="42.5003540" lon="3.1206390">
        <ele>-10.4</ele>
        <time>2020-07-20T10:14:33Z</time>
      </trkpt>
      <trkpt lat="42.5004270" lon="3.1207280">
        <ele>-10.8</ele>
        <time>2020-07-20T10:14:34Z</time>
      </trkpt>
      <trkpt lat="42.5005810" lon="3.1208870">
        <ele>-11.6</ele>
        <time>2020-07-20T10:14:36Z</time>
      </trkpt>
      <trkpt lat="42.5007460" lon="3.1210010">
        <ele>-11.8</ele>
        <time>2020-07-20T10:14:38Z</time>
      </trkpt>
      <trkpt lat="42.5009140" lon="3.1210540">
        <ele>-12.2</ele>
        <time>2020-07-20T10:14:40Z</time>
      </trkpt>
      <trkpt lat="42.5009960" lon="3.1210590">
        <ele>-12.2</ele>
        <time>2020-07-20T10:14:41Z</time>
      </trkpt>
      <trkpt lat="42.5010750" lon="3.1210500">
        <ele>-12.0</ele>
        <time>2020-07-20T10:14:42Z</time>
      </trkpt>
      <trkpt lat="42.5012950" lon="3.1209720">
        <ele>-11.0</ele>
        <time>2020-07-20T10:14:45Z</time>
      </trkpt>
      <trkpt lat="42.5017190" lon="3.1207460">
        <ele>-10.8</ele>
        <time>2020-07-20T10:14:51Z</time>
      </trkpt>
      <trkpt lat="42.5017910" lon="3.1207080">
        <ele>-10.8</ele>
        <time>2020-07-20T10:14:52Z</time>
      </trkpt>
      <trkpt lat="42.5019360" lon="3.1206380">
        <ele>-11.0</ele>
        <time>2020-07-20T10:14:54Z</time>
      </trkpt>
      <trkpt lat="42.5020780" lon="3.1205880">
        <ele>-11.0</ele>
        <time>2020-07-20T10:14:56Z</time>
      </trkpt>
      <trkpt lat="42.5021470" lon="3.1205890">
        <ele>-11.0</ele>
        <time>2020-07-20T10:14:57Z</time>
      </trkpt>
      <trkpt lat="42.5022110" lon="3.1206110">
        <ele>-11.0</ele>
        <time>2020-07-20T10:14:58Z</time>
      </trkpt>
      <trkpt lat="42.5023190" lon="3.1207030">
        <ele>-11.0</ele>
        <time>2020-07-20T10:15:00Z</time>
      </trkpt>
      <trkpt lat="42.5025740" lon="3.1210300">
        <ele>-11.6</ele>
        <time>2020-07-20T10:15:05Z</time>
      </trkpt>
      <trkpt lat="42.5027620" lon="3.1211730">
        <ele>-11.6</ele>
        <time>2020-07-20T10:15:08Z</time>
      </trkpt>
      <trkpt lat="42.5028960" lon="3.1212400">
        <ele>-11.6</ele>
        <time>2020-07-20T10:15:09Z</time>
      </trkpt>
      <trkpt lat="42.5032440" lon="3.1213490">
        <ele>-11.8</ele>
        <time>2020-07-20T10:15:15Z</time>
      </trkpt>
      <trkpt lat="42.5033800" lon="3.1213870">
        <ele>-11.8</ele>
        <time>2020-07-20T10:15:17Z</time>
      </trkpt>
      <trkpt lat="42.5035140" lon="3.1214240">
        <ele>-11.8</ele>
        <time>2020-07-20T10:15:19Z</time>
      </trkpt>
      <trkpt lat="42.5037800" lon="3.1214300">
        <ele>-12.2</ele>
        <time>2020-07-20T10:15:23Z</time>
      </trkpt>
      <trkpt lat="42.5041610" lon="3.1213390">
        <ele>-12.0</ele>
        <time>2020-07-20T10:15:29Z</time>
      </trkpt>
      <trkpt lat="42.5042940" lon="3.1213090">
        <ele>-12.0</ele>
        <time>2020-07-20T10:15:31Z</time>
      </trkpt>
      <trkpt lat="42.5047080" lon="3.1211960">
        <ele>-12.4</ele>
        <time>2020-07-20T10:15:37Z</time>
      </trkpt>
      <trkpt lat="42.5048480" lon="3.1211590">
        <ele>-12.6</ele>
        <time>2020-07-20T10:15:39Z</time>
      </trkpt>
      <trkpt lat="42.5049840" lon="3.1211180">
        <ele>-12.6</ele>
        <time>2020-07-20T10:15:41Z</time>
      </trkpt>
      <trkpt lat="42.5052390" lon="3.1210040">
        <ele>-12.6</ele>
        <time>2020-07-20T10:15:45Z</time>
      </trkpt>
      <trkpt lat="42.5053520" lon="3.1209050">
        <ele>-12.6</ele>
        <time>2020-07-20T10:15:47Z</time>
      </trkpt>
      <trkpt lat="42.5055250" lon="3.1206240">
        <ele>-12.8</ele>
        <time>2020-07-20T10:15:51Z</time>
      </trkpt>
      <trkpt lat="42.5055580" lon="3.1205470">
        <ele>-12.8</ele>
        <time>2020-07-20T10:15:52Z</time>
      </trkpt>
      <trkpt lat="42.5056780" lon="3.1202390">
        <ele>-12.8</ele>
        <time>2020-07-20T10:15:56Z</time>
      </trkpt>
      <trkpt lat="42.5057530" lon="3.1200060">
        <ele>-12.0</ele>
        <time>2020-07-20T10:15:59Z</time>
      </trkpt>
      <trkpt lat="42.5058060" lon="3.1198640">
        <ele>-11.4</ele>
        <time>2020-07-20T10:16:01Z</time>
      </trkpt>
      <trkpt lat="42.5058350" lon="3.1198010">
        <ele>-11.2</ele>
        <time>2020-07-20T10:16:02Z</time>
      </trkpt>
      <trkpt lat="42.5058880" lon="3.1196800">
        <ele>-10.2</ele>
        <time>2020-07-20T10:16:04Z</time>
      </trkpt>
      <trkpt lat="42.5059360" lon="3.1195730">
        <ele>-9.2</ele>
        <time>2020-07-20T10:16:06Z</time>
      </trkpt>
      <trkpt lat="42.5059570" lon="3.1195220">
        <ele>-8.8</ele>
        <time>2020-07-20T10:16:07Z</time>
      </trkpt>
      <trkpt lat="42.5059960" lon="3.1194240">
        <ele>-8.2</ele>
        <time>2020-07-20T10:16:09Z</time>
      </trkpt>
      <trkpt lat="42.5060160" lon="3.1193770">
        <ele>-8.0</ele>
        <time>2020-07-20T10:16:10Z</time>
      </trkpt>
      <trkpt lat="42.5061070" lon="3.1191490">
        <ele>-6.8</ele>
        <time>2020-07-20T10:16:15Z</time>
      </trkpt>
      <trkpt lat="42.5061370" lon="3.1190570">
        <ele>-6.2</ele>
        <time>2020-07-20T10:16:17Z</time>
      </trkpt>
      <trkpt lat="42.5061510" lon="3.1190110">
        <ele>-5.8</ele>
        <time>2020-07-20T10:16:18Z</time>
      </trkpt>
      <trkpt lat="42.5061920" lon="3.1187670">
        <ele>-4.6</ele>
        <time>2020-07-20T10:16:23Z</time>
      </trkpt>
      <trkpt lat="42.5061930" lon="3.1187130">
        <ele>-4.4</ele>
        <time>2020-07-20T10:16:24Z</time>
      </trkpt>
      <trkpt lat="42.5061890" lon="3.1186010">
        <ele>-4.0</ele>
        <time>2020-07-20T10:16:26Z</time>
      </trkpt>
      <trkpt lat="42.5061820" lon="3.1184860">
        <ele>-3.6</ele>
        <time>2020-07-20T10:16:28Z</time>
      </trkpt>
      <trkpt lat="42.5061760" lon="3.1183710">
        <ele>-3.2</ele>
        <time>2020-07-20T10:16:30Z</time>
      </trkpt>
      <trkpt lat="42.5061590" lon="3.1180370">
        <ele>-2.6</ele>
        <time>2020-07-20T10:16:36Z</time>
      </trkpt>
      <trkpt lat="42.5061580" lon="3.1179800">
        <ele>-2.4</ele>
        <time>2020-07-20T10:16:37Z</time>
      </trkpt>
      <trkpt lat="42.5061640" lon="3.1176430">
        <ele>-1.4</ele>
        <time>2020-07-20T10:16:43Z</time>
      </trkpt>
      <trkpt lat="42.5061760" lon="3.1172740">
        <ele>-0.4</ele>
        <time>2020-07-20T10:16:49Z</time>
      </trkpt>
      <trkpt lat="42.5061710" lon="3.1170280">
        <ele>0.0</ele>
        <time>2020-07-20T10:16:53Z</time>
      </trkpt>
      <trkpt lat="42.5061700" lon="3.1169080">
        <ele>0.6</ele>
        <time>2020-07-20T10:16:55Z</time>
      </trkpt>
      <trkpt lat="42.5061840" lon="3.1166200">
        <ele>1.2</ele>
        <time>2020-07-20T10:17:00Z</time>
      </trkpt>
      <trkpt lat="42.5061970" lon="3.1165100">
        <ele>1.6</ele>
        <time>2020-07-20T10:17:02Z</time>
      </trkpt>
      <trkpt lat="42.5062290" lon="3.1162950">
        <ele>2.8</ele>
        <time>2020-07-20T10:17:06Z</time>
      </trkpt>
      <trkpt lat="42.5062780" lon="3.1160280">
        <ele>4.0</ele>
        <time>2020-07-20T10:17:11Z</time>
      </trkpt>
      <trkpt lat="42.5063090" lon="3.1158730">
        <ele>4.4</ele>
        <time>2020-07-20T10:17:14Z</time>
      </trkpt>
      <trkpt lat="42.5063510" lon="3.1156270">
        <ele>5.2</ele>
        <time>2020-07-20T10:17:19Z</time>
      </trkpt>
      <trkpt lat="42.5063970" lon="3.1154920">
        <ele>6.0</ele>
        <time>2020-07-20T10:17:22Z</time>
      </trkpt>
      <trkpt lat="42.5064240" lon="3.1154570">
        <ele>6.2</ele>
        <time>2020-07-20T10:17:23Z</time>
      </trkpt>
      <trkpt lat="42.5064950" lon="3.1154350">
        <ele>6.6</ele>
        <time>2020-07-20T10:17:25Z</time>
      </trkpt>
      <trkpt lat="42.5065890" lon="3.1155150">
        <ele>6.8</ele>
        <time>2020-07-20T10:17:28Z</time>
      </trkpt>
      <trkpt lat="42.5066150" lon="3.1156070">
        <ele>7.4</ele>
        <time>2020-07-20T10:17:30Z</time>
      </trkpt>
      <trkpt lat="42.5066100" lon="3.1157050">
        <ele>8.2</ele>
        <time>2020-07-20T10:17:32Z</time>
      </trkpt>
      <trkpt lat="42.5066050" lon="3.1157550">
        <ele>8.6</ele>
        <time>2020-07-20T10:17:33Z</time>
      </trkpt>
      <trkpt lat="42.5065790" lon="3.1160040">
        <ele>9.8</ele>
        <time>2020-07-20T10:17:38Z</time>
      </trkpt>
      <trkpt lat="42.5065730" lon="3.1162020">
        <ele>10.6</ele>
        <time>2020-07-20T10:17:42Z</time>
      </trkpt>
      <trkpt lat="42.5065820" lon="3.1162970">
        <ele>11.0</ele>
        <time>2020-07-20T10:17:44Z</time>
      </trkpt>
      <trkpt lat="42.5066170" lon="3.1165840">
        <ele>11.8</ele>
        <time>2020-07-20T10:17:50Z</time>
      </trkpt>
      <trkpt lat="42.5066240" lon="3.1166320">
        <ele>12.0</ele>
        <time>2020-07-20T10:17:51Z</time>
      </trkpt>
      <trkpt lat="42.5066500" lon="3.1167710">
        <ele>13.2</ele>
        <time>2020-07-20T10:17:54Z</time>
      </trkpt>
      <trkpt lat="42.5066890" lon="3.1169520">
        <ele>14.2</ele>
        <time>2020-07-20T10:17:58Z</time>
      </trkpt>
      <trkpt lat="42.5067090" lon="3.1170400">
        <ele>14.8</ele>
        <time>2020-07-20T10:18:00Z</time>
      </trkpt>
      <trkpt lat="42.5067330" lon="3.1171270">
        <ele>15.4</ele>
        <time>2020-07-20T10:18:02Z</time>
      </trkpt>
      <trkpt lat="42.5068130" lon="3.1172760">
        <ele>15.8</ele>
        <time>2020-07-20T10:18:06Z</time>
      </trkpt>
      <trkpt lat="42.5069270" lon="3.1173790">
        <ele>16.4</ele>
        <time>2020-07-20T10:18:10Z</time>
      </trkpt>
      <trkpt lat="42.5069590" lon="3.1173970">
        <ele>16.6</ele>
        <time>2020-07-20T10:18:11Z</time>
      </trkpt>
      <trkpt lat="42.5070250" lon="3.1174240">
        <ele>17.4</ele>
        <time>2020-07-20T10:18:13Z</time>
      </trkpt>
      <trkpt lat="42.5071920" lon="3.1174360">
        <ele>18.4</ele>
        <time>2020-07-20T10:18:18Z</time>
      </trkpt>
      <trkpt lat="42.5073350" lon="3.1174210">
        <ele>19.6</ele>
        <time>2020-07-20T10:18:22Z</time>
      </trkpt>
      <trkpt lat="42.5074700" lon="3.1173800">
        <ele>20.6</ele>
        <time>2020-07-20T10:18:26Z</time>
      </trkpt>
      <trkpt lat="42.5075670" lon="3.1173230">
        <ele>21.8</ele>
        <time>2020-07-20T10:18:29Z</time>
      </trkpt>
      <trkpt lat="42.5076870" lon="3.1172050">
        <ele>22.6</ele>
        <time>2020-07-20T10:18:33Z</time>
      </trkpt>
      <trkpt lat="42.5077130" lon="3.1171710">
        <ele>22.8</ele>
        <time>2020-07-20T10:18:34Z</time>
      </trkpt>
      <trkpt lat="42.5078070" lon="3.1170180">
        <ele>23.6</ele>
        <time>2020-07-20T10:18:38Z</time>
      </trkpt>
      <trkpt lat="42.5078530" lon="3.1169450">
        <ele>24.0</ele>
        <time>2020-07-20T10:18:40Z</time>
      </trkpt>
      <trkpt lat="42.5079430" lon="3.1168070">
        <ele>25.4</ele>
        <time>2020-07-20T10:18:44Z</time>
      </trkpt>
      <trkpt lat="42.5080520" lon="3.1166950">
        <ele>26.4</ele>
        <time>2020-07-20T10:18:48Z</time>
      </trkpt>
      <trkpt lat="42.5081860" lon="3.1166400">
        <ele>27.4</ele>
        <time>2020-07-20T10:18:52Z</time>
      </trkpt>
      <trkpt lat="42.5082880" lon="3.1166090">
        <ele>28.2</ele>
        <time>2020-07-20T10:18:55Z</time>
      </trkpt>
      <trkpt lat="42.5083880" lon="3.1165770">
        <ele>28.6</ele>
        <time>2020-07-20T10:18:58Z</time>
      </trkpt>
      <trkpt lat="42.5085470" lon="3.1165090">
        <ele>29.8</ele>
        <time>2020-07-20T10:19:03Z</time>
      </trkpt>
      <trkpt lat="42.5085780" lon="3.1164890">
        <ele>30.0</ele>
        <time>2020-07-20T10:19:04Z</time>
      </trkpt>
      <trkpt lat="42.5086580" lon="3.1164090">
        <ele>30.6</ele>
        <time>2020-07-20T10:19:07Z</time>
      </trkpt>
      <trkpt lat="42.5086800" lon="3.1163770">
        <ele>30.8</ele>
        <time>2020-07-20T10:19:08Z</time>
      </trkpt>
      <trkpt lat="42.5087020" lon="3.1163430">
        <ele>31.2</ele>
        <time>2020-07-20T10:19:09Z</time>
      </trkpt>
      <trkpt lat="42.5087230" lon="3.1163080">
        <ele>31.2</ele>
        <time>2020-07-20T10:19:10Z</time>
      </trkpt>
      <trkpt lat="42.5087960" lon="3.1161660">
        <ele>32.0</ele>
        <time>2020-07-20T10:19:14Z</time>
      </trkpt>
      <trkpt lat="42.5088520" lon="3.1160540">
        <ele>33.2</ele>
        <time>2020-07-20T10:19:17Z</time>
      </trkpt>
      <trkpt lat="42.5088710" lon="3.1160160">
        <ele>33.2</ele>
        <time>2020-07-20T10:19:18Z</time>
      </trkpt>
      <trkpt lat="42.5089420" lon="3.1158690">
        <ele>34.4</ele>
        <time>2020-07-20T10:19:22Z</time>
      </trkpt>
      <trkpt lat="42.5090200" lon="3.1156760">
        <ele>35.0</ele>
        <time>2020-07-20T10:19:27Z</time>
      </trkpt>
      <trkpt lat="42.5090580" lon="3.1156060">
        <ele>35.4</ele>
        <time>2020-07-20T10:19:29Z</time>
      </trkpt>
      <trkpt lat="42.5091580" lon="3.1155040">
        <ele>36.6</ele>
        <time>2020-07-20T10:19:33Z</time>
      </trkpt>
      <trkpt lat="42.5092420" lon="3.1154430">
        <ele>37.0</ele>
        <time>2020-07-20T10:19:36Z</time>
      </trkpt>
      <trkpt lat="42.5093290" lon="3.1153910">
        <ele>37.6</ele>
        <time>2020-07-20T10:19:39Z</time>
      </trkpt>
      <trkpt lat="42.5094200" lon="3.1153700">
        <ele>38.4</ele>
        <time>2020-07-20T10:19:42Z</time>
      </trkpt>
      <trkpt lat="42.5094810" lon="3.1153650">
        <ele>38.6</ele>
        <time>2020-07-20T10:19:44Z</time>
      </trkpt>
      <trkpt lat="42.5096650" lon="3.1153940">
        <ele>39.8</ele>
        <time>2020-07-20T10:19:50Z</time>
      </trkpt>
      <trkpt lat="42.5096960" lon="3.1154020">
        <ele>40.2</ele>
        <time>2020-07-20T10:19:51Z</time>
      </trkpt>
      <trkpt lat="42.5097870" lon="3.1154230">
        <ele>41.0</ele>
        <time>2020-07-20T10:19:54Z</time>
      </trkpt>
      <trkpt lat="42.5099060" lon="3.1154510">
        <ele>42.0</ele>
        <time>2020-07-20T10:19:58Z</time>
      </trkpt>
      <trkpt lat="42.5099600" lon="3.1154940">
        <ele>42.4</ele>
        <time>2020-07-20T10:20:00Z</time>
      </trkpt>
      <trkpt lat="42.5100360" lon="3.1156600">
        <ele>43.0</ele>
        <time>2020-07-20T10:20:04Z</time>
      </trkpt>
      <trkpt lat="42.5100820" lon="3.1158840">
        <ele>44.4</ele>
        <time>2020-07-20T10:20:09Z</time>
      </trkpt>
      <trkpt lat="42.5101190" lon="3.1160080">
        <ele>45.2</ele>
        <time>2020-07-20T10:20:12Z</time>
      </trkpt>
      <trkpt lat="42.5101490" lon="3.1160890">
        <ele>45.6</ele>
        <time>2020-07-20T10:20:14Z</time>
      </trkpt>
      <trkpt lat="42.5102390" lon="3.1162170">
        <ele>46.8</ele>
        <time>2020-07-20T10:20:18Z</time>
      </trkpt>
      <trkpt lat="42.5103890" lon="3.1163220">
        <ele>48.0</ele>
        <time>2020-07-20T10:20:23Z</time>
      </trkpt>
      <trkpt lat="42.5104490" lon="3.1163500">
        <ele>48.2</ele>
        <time>2020-07-20T10:20:25Z</time>
      </trkpt>
      <trkpt lat="42.5106050" lon="3.1164190">
        <ele>49.0</ele>
        <time>2020-07-20T10:20:30Z</time>
      </trkpt>
      <trkpt lat="42.5106980" lon="3.1164460">
        <ele>49.8</ele>
        <time>2020-07-20T10:20:33Z</time>
      </trkpt>
      <trkpt lat="42.5107290" lon="3.1164550">
        <ele>50.2</ele>
        <time>2020-07-20T10:20:34Z</time>
      </trkpt>
      <trkpt lat="42.5108920" lon="3.1164720">
        <ele>51.2</ele>
        <time>2020-07-20T10:20:39Z</time>
      </trkpt>
      <trkpt lat="42.5109590" lon="3.1164670">
        <ele>51.8</ele>
        <time>2020-07-20T10:20:41Z</time>
      </trkpt>
      <trkpt lat="42.5110280" lon="3.1164660">
        <ele>52.4</ele>
        <time>2020-07-20T10:20:43Z</time>
      </trkpt>
      <trkpt lat="42.5111560" lon="3.1164840">
        <ele>53.4</ele>
        <time>2020-07-20T10:20:47Z</time>
      </trkpt>
      <trkpt lat="42.5111870" lon="3.1164950">
        <ele>53.6</ele>
        <time>2020-07-20T10:20:48Z</time>
      </trkpt>
      <trkpt lat="42.5113660" lon="3.1165960">
        <ele>54.6</ele>
        <time>2020-07-20T10:20:54Z</time>
      </trkpt>
      <trkpt lat="42.5114260" lon="3.1166270">
        <ele>55.2</ele>
        <time>2020-07-20T10:20:56Z</time>
      </trkpt>
      <trkpt lat="42.5114890" lon="3.1166470">
        <ele>56.0</ele>
        <time>2020-07-20T10:20:58Z</time>
      </trkpt>
      <trkpt lat="42.5116240" lon="3.1166390">
        <ele>56.4</ele>
        <time>2020-07-20T10:21:02Z</time>
      </trkpt>
      <trkpt lat="42.5117550" lon="3.1165310">
        <ele>56.0</ele>
        <time>2020-07-20T10:21:06Z</time>
      </trkpt>
      <trkpt lat="42.5118130" lon="3.1164250">
        <ele>55.8</ele>
        <time>2020-07-20T10:21:08Z</time>
      </trkpt>
      <trkpt lat="42.5118350" lon="3.1163620">
        <ele>55.0</ele>
        <time>2020-07-20T10:21:09Z</time>
      </trkpt>
      <trkpt lat="42.5118500" lon="3.1162900">
        <ele>55.0</ele>
        <time>2020-07-20T10:21:10Z</time>
      </trkpt>
      <trkpt lat="42.5118880" lon="3.1160290">
        <ele>53.4</ele>
        <time>2020-07-20T10:21:13Z</time>
      </trkpt>
      <trkpt lat="42.5119280" lon="3.1158330">
        <ele>52.2</ele>
        <time>2020-07-20T10:21:15Z</time>
      </trkpt>
      <trkpt lat="42.5119740" lon="3.1156290">
        <ele>51.0</ele>
        <time>2020-07-20T10:21:17Z</time>
      </trkpt>
      <trkpt lat="42.5120250" lon="3.1154270">
        <ele>49.8</ele>
        <time>2020-07-20T10:21:19Z</time>
      </trkpt>
      <trkpt lat="42.5121100" lon="3.1151120">
        <ele>48.6</ele>
        <time>2020-07-20T10:21:22Z</time>
      </trkpt>
      <trkpt lat="42.5121410" lon="3.1150040">
        <ele>48.4</ele>
        <time>2020-07-20T10:21:23Z</time>
      </trkpt>
      <trkpt lat="42.5122000" lon="3.1147790">
        <ele>47.4</ele>
        <time>2020-07-20T10:21:25Z</time>
      </trkpt>
      <trkpt lat="42.5122610" lon="3.1145530">
        <ele>46.0</ele>
        <time>2020-07-20T10:21:27Z</time>
      </trkpt>
      <trkpt lat="42.5123190" lon="3.1143240">
        <ele>45.0</ele>
        <time>2020-07-20T10:21:29Z</time>
      </trkpt>
      <trkpt lat="42.5123430" lon="3.1142080">
        <ele>44.6</ele>
        <time>2020-07-20T10:21:30Z</time>
      </trkpt>
      <trkpt lat="42.5123600" lon="3.1140870">
        <ele>44.4</ele>
        <time>2020-07-20T10:21:31Z</time>
      </trkpt>
      <trkpt lat="42.5123680" lon="3.1139620">
        <ele>44.0</ele>
        <time>2020-07-20T10:21:32Z</time>
      </trkpt>
      <trkpt lat="42.5123670" lon="3.1138340">
        <ele>43.6</ele>
        <time>2020-07-20T10:21:33Z</time>
      </trkpt>
      <trkpt lat="42.5123780" lon="3.1137050">
        <ele>43.0</ele>
        <time>2020-07-20T10:21:34Z</time>
      </trkpt>
      <trkpt lat="42.5124060" lon="3.1135790">
        <ele>42.4</ele>
        <time>2020-07-20T10:21:35Z</time>
      </trkpt>
      <trkpt lat="42.5124410" lon="3.1134510">
        <ele>41.8</ele>
        <time>2020-07-20T10:21:36Z</time>
      </trkpt>
      <trkpt lat="42.5124790" lon="3.1133230">
        <ele>41.2</ele>
        <time>2020-07-20T10:21:37Z</time>
      </trkpt>
      <trkpt lat="42.5125510" lon="3.1130770">
        <ele>39.6</ele>
        <time>2020-07-20T10:21:39Z</time>
      </trkpt>
      <trkpt lat="42.5125950" lon="3.1128420">
        <ele>38.2</ele>
        <time>2020-07-20T10:21:41Z</time>
      </trkpt>
      <trkpt lat="42.5125850" lon="3.1125960">
        <ele>37.6</ele>
        <time>2020-07-20T10:21:43Z</time>
      </trkpt>
      <trkpt lat="42.5125330" lon="3.1123490">
        <ele>36.4</ele>
        <time>2020-07-20T10:21:45Z</time>
      </trkpt>
      <trkpt lat="42.5124790" lon="3.1121120">
        <ele>35.2</ele>
        <time>2020-07-20T10:21:47Z</time>
      </trkpt>
      <trkpt lat="42.5124580" lon="3.1119040">
        <ele>34.4</ele>
        <time>2020-07-20T10:21:49Z</time>
      </trkpt>
      <trkpt lat="42.5124740" lon="3.1118070">
        <ele>34.0</ele>
        <time>2020-07-20T10:21:50Z</time>
      </trkpt>
      <trkpt lat="42.5125270" lon="3.1117350">
        <ele>33.6</ele>
        <time>2020-07-20T10:21:51Z</time>
      </trkpt>
      <trkpt lat="42.5125910" lon="3.1116800">
        <ele>33.4</ele>
        <time>2020-07-20T10:21:52Z</time>
      </trkpt>
      <trkpt lat="42.5126620" lon="3.1116380">
        <ele>32.8</ele>
        <time>2020-07-20T10:21:53Z</time>
      </trkpt>
      <trkpt lat="42.5127970" lon="3.1115340">
        <ele>31.4</ele>
        <time>2020-07-20T10:21:55Z</time>
      </trkpt>
      <trkpt lat="42.5130470" lon="3.1112460">
        <ele>30.0</ele>
        <time>2020-07-20T10:21:59Z</time>
      </trkpt>
      <trkpt lat="42.5130890" lon="3.1111590">
        <ele>30.0</ele>
        <time>2020-07-20T10:22:00Z</time>
      </trkpt>
      <trkpt lat="42.5131160" lon="3.1110620">
        <ele>29.6</ele>
        <time>2020-07-20T10:22:01Z</time>
      </trkpt>
      <trkpt lat="42.5131140" lon="3.1108620">
        <ele>28.8</ele>
        <time>2020-07-20T10:22:03Z</time>
      </trkpt>
      <trkpt lat="42.5130110" lon="3.1106550">
        <ele>28.0</ele>
        <time>2020-07-20T10:22:05Z</time>
      </trkpt>
      <trkpt lat="42.5129420" lon="3.1105590">
        <ele>27.4</ele>
        <time>2020-07-20T10:22:06Z</time>
      </trkpt>
      <trkpt lat="42.5128190" lon="3.1103800">
        <ele>26.6</ele>
        <time>2020-07-20T10:22:08Z</time>
      </trkpt>
      <trkpt lat="42.5127750" lon="3.1102810">
        <ele>26.2</ele>
        <time>2020-07-20T10:22:09Z</time>
      </trkpt>
      <trkpt lat="42.5127470" lon="3.1101680">
        <ele>25.8</ele>
        <time>2020-07-20T10:22:10Z</time>
      </trkpt>
      <trkpt lat="42.5127380" lon="3.1100500">
        <ele>25.2</ele>
        <time>2020-07-20T10:22:11Z</time>
      </trkpt>
      <trkpt lat="42.5127420" lon="3.1099320">
        <ele>24.4</ele>
        <time>2020-07-20T10:22:12Z</time>
      </trkpt>
      <trkpt lat="42.5127670" lon="3.1098210">
        <ele>23.6</ele>
        <time>2020-07-20T10:22:13Z</time>
      </trkpt>
      <trkpt lat="42.5128080" lon="3.1097280">
        <ele>23.0</ele>
        <time>2020-07-20T10:22:14Z</time>
      </trkpt>
      <trkpt lat="42.5128590" lon="3.1096460">
        <ele>22.6</ele>
        <time>2020-07-20T10:22:15Z</time>
      </trkpt>
      <trkpt lat="42.5129150" lon="3.1095760">
        <ele>22.2</ele>
        <time>2020-07-20T10:22:16Z</time>
      </trkpt>
      <trkpt lat="42.5129720" lon="3.1095140">
        <ele>21.6</ele>
        <time>2020-07-20T10:22:17Z</time>
      </trkpt>
      <trkpt lat="42.5130250" lon="3.1094470">
        <ele>21.2</ele>
        <time>2020-07-20T10:22:18Z</time>
      </trkpt>
      <trkpt lat="42.5130680" lon="3.1093670">
        <ele>20.8</ele>
        <time>2020-07-20T10:22:19Z</time>
      </trkpt>
      <trkpt lat="42.5130960" lon="3.1092780">
        <ele>20.6</ele>
        <time>2020-07-20T10:22:20Z</time>
      </trkpt>
      <trkpt lat="42.5131130" lon="3.1091830">
        <ele>20.6</ele>
        <time>2020-07-20T10:22:21Z</time>
      </trkpt>
      <trkpt lat="42.5131230" lon="3.1090850">
        <ele>20.4</ele>
        <time>2020-07-20T10:22:22Z</time>
      </trkpt>
      <trkpt lat="42.5131290" lon="3.1089810">
        <ele>20.0</ele>
        <time>2020-07-20T10:22:23Z</time>
      </trkpt>
      <trkpt lat="42.5131310" lon="3.1087630">
        <ele>19.4</ele>
        <time>2020-07-20T10:22:25Z</time>
      </trkpt>
      <trkpt lat="42.5131280" lon="3.1085170">
        <ele>18.4</ele>
        <time>2020-07-20T10:22:27Z</time>
      </trkpt>
      <trkpt lat="42.5131280" lon="3.1082570">
        <ele>16.8</ele>
        <time>2020-07-20T10:22:29Z</time>
      </trkpt>
      <trkpt lat="42.5131230" lon="3.1079840">
        <ele>15.0</ele>
        <time>2020-07-20T10:22:31Z</time>
      </trkpt>
      <trkpt lat="42.5131150" lon="3.1078390">
        <ele>13.8</ele>
        <time>2020-07-20T10:22:32Z</time>
      </trkpt>
      <trkpt lat="42.5131010" lon="3.1076890">
        <ele>13.0</ele>
        <time>2020-07-20T10:22:33Z</time>
      </trkpt>
      <trkpt lat="42.5130860" lon="3.1075340">
        <ele>12.2</ele>
        <time>2020-07-20T10:22:34Z</time>
      </trkpt>
      <trkpt lat="42.5130520" lon="3.1072190">
        <ele>10.2</ele>
        <time>2020-07-20T10:22:36Z</time>
      </trkpt>
      <trkpt lat="42.5130340" lon="3.1070610">
        <ele>9.0</ele>
        <time>2020-07-20T10:22:37Z</time>
      </trkpt>
      <trkpt lat="42.5130010" lon="3.1067470">
        <ele>7.6</ele>
        <time>2020-07-20T10:22:39Z</time>
      </trkpt>
      <trkpt lat="42.5129850" lon="3.1065930">
        <ele>7.2</ele>
        <time>2020-07-20T10:22:40Z</time>
      </trkpt>
      <trkpt lat="42.5129540" lon="3.1062910">
        <ele>6.4</ele>
        <time>2020-07-20T10:22:42Z</time>
      </trkpt>
      <trkpt lat="42.5129320" lon="3.1060040">
        <ele>6.0</ele>
        <time>2020-07-20T10:22:44Z</time>
      </trkpt>
      <trkpt lat="42.5129190" lon="3.1057390">
        <ele>5.8</ele>
        <time>2020-07-20T10:22:46Z</time>
      </trkpt>
      <trkpt lat="42.5129000" lon="3.1052700">
        <ele>7.0</ele>
        <time>2020-07-20T10:22:50Z</time>
      </trkpt>
      <trkpt lat="42.5128780" lon="3.1051670">
        <ele>7.4</ele>
        <time>2020-07-20T10:22:51Z</time>
      </trkpt>
      <trkpt lat="42.5128420" lon="3.1050760">
        <ele>7.8</ele>
        <time>2020-07-20T10:22:52Z</time>
      </trkpt>
      <trkpt lat="42.5127410" lon="3.1049370">
        <ele>8.4</ele>
        <time>2020-07-20T10:22:54Z</time>
      </trkpt>
      <trkpt lat="42.5126880" lon="3.1048730">
        <ele>8.8</ele>
        <time>2020-07-20T10:22:55Z</time>
      </trkpt>
      <trkpt lat="42.5126440" lon="3.1048000">
        <ele>9.2</ele>
        <time>2020-07-20T10:22:56Z</time>
      </trkpt>
      <trkpt lat="42.5126120" lon="3.1047200">
        <ele>9.4</ele>
        <time>2020-07-20T10:22:57Z</time>
      </trkpt>
      <trkpt lat="42.5125610" lon="3.1045550">
        <ele>9.8</ele>
        <time>2020-07-20T10:22:59Z</time>
      </trkpt>
      <trkpt lat="42.5125430" lon="3.1044710">
        <ele>10.2</ele>
        <time>2020-07-20T10:23:00Z</time>
      </trkpt>
      <trkpt lat="42.5125310" lon="3.1043020">
        <ele>10.6</ele>
        <time>2020-07-20T10:23:02Z</time>
      </trkpt>
      <trkpt lat="42.5125350" lon="3.1040790">
        <ele>11.0</ele>
        <time>2020-07-20T10:23:05Z</time>
      </trkpt>
      <trkpt lat="42.5125350" lon="3.1039520">
        <ele>12.0</ele>
        <time>2020-07-20T10:23:07Z</time>
      </trkpt>
      <trkpt lat="42.5125340" lon="3.1038360">
        <ele>13.4</ele>
        <time>2020-07-20T10:23:09Z</time>
      </trkpt>
      <trkpt lat="42.5125280" lon="3.1036290">
        <ele>14.4</ele>
        <time>2020-07-20T10:23:13Z</time>
      </trkpt>
      <trkpt lat="42.5125270" lon="3.1035330">
        <ele>15.0</ele>
        <time>2020-07-20T10:23:15Z</time>
      </trkpt>
      <trkpt lat="42.5125270" lon="3.1034360">
        <ele>15.6</ele>
        <time>2020-07-20T10:23:17Z</time>
      </trkpt>
      <trkpt lat="42.5125300" lon="3.1032910">
        <ele>16.6</ele>
        <time>2020-07-20T10:23:20Z</time>
      </trkpt>
      <trkpt lat="42.5125290" lon="3.1032460">
        <ele>16.8</ele>
        <time>2020-07-20T10:23:21Z</time>
      </trkpt>
      <trkpt lat="42.5125270" lon="3.1031120">
        <ele>17.6</ele>
        <time>2020-07-20T10:23:24Z</time>
      </trkpt>
      <trkpt lat="42.5125250" lon="3.1030200">
        <ele>18.0</ele>
        <time>2020-07-20T10:23:26Z</time>
      </trkpt>
      <trkpt lat="42.5125250" lon="3.1029290">
        <ele>18.6</ele>
        <time>2020-07-20T10:23:28Z</time>
      </trkpt>
      <trkpt lat="42.5125250" lon="3.1028840">
        <ele>18.8</ele>
        <time>2020-07-20T10:23:29Z</time>
      </trkpt>
      <trkpt lat="42.5125260" lon="3.1028380">
        <ele>19.2</ele>
        <time>2020-07-20T10:23:30Z</time>
      </trkpt>
      <trkpt lat="42.5125260" lon="3.1027440">
        <ele>19.6</ele>
        <time>2020-07-20T10:23:32Z</time>
      </trkpt>
      <trkpt lat="42.5125240" lon="3.1026480">
        <ele>20.2</ele>
        <time>2020-07-20T10:23:34Z</time>
      </trkpt>
      <trkpt lat="42.5125200" lon="3.1024180">
        <ele>21.2</ele>
        <time>2020-07-20T10:23:39Z</time>
      </trkpt>
      <trkpt lat="42.5125210" lon="3.1022280">
        <ele>22.2</ele>
        <time>2020-07-20T10:23:43Z</time>
      </trkpt>
      <trkpt lat="42.5125180" lon="3.1019810">
        <ele>23.2</ele>
        <time>2020-07-20T10:23:48Z</time>
      </trkpt>
      <trkpt lat="42.5125300" lon="3.1016850">
        <ele>24.4</ele>
        <time>2020-07-20T10:23:54Z</time>
      </trkpt>
      <trkpt lat="42.5125350" lon="3.1015180">
        <ele>24.8</ele>
        <time>2020-07-20T10:23:57Z</time>
      </trkpt>
      <trkpt lat="42.5125360" lon="3.1012140">
        <ele>25.6</ele>
        <time>2020-07-20T10:24:02Z</time>
      </trkpt>
      <trkpt lat="42.5125470" lon="3.1009650">
        <ele>26.4</ele>
        <time>2020-07-20T10:24:06Z</time>
      </trkpt>
      <trkpt lat="42.5125600" lon="3.1008430">
        <ele>26.6</ele>
        <time>2020-07-20T10:24:08Z</time>
      </trkpt>
      <trkpt lat="42.5125800" lon="3.1005270">
        <ele>27.6</ele>
        <time>2020-07-20T10:24:13Z</time>
      </trkpt>
      <trkpt lat="42.5125820" lon="3.1004610">
        <ele>27.6</ele>
        <time>2020-07-20T10:24:14Z</time>
      </trkpt>
      <trkpt lat="42.5125850" lon="3.1003950">
        <ele>27.8</ele>
        <time>2020-07-20T10:24:15Z</time>
      </trkpt>
      <trkpt lat="42.5125910" lon="3.0999950">
        <ele>28.8</ele>
        <time>2020-07-20T10:24:21Z</time>
      </trkpt>
      <trkpt lat="42.5125930" lon="3.0997270">
        <ele>29.6</ele>
        <time>2020-07-20T10:24:25Z</time>
      </trkpt>
      <trkpt lat="42.5125990" lon="3.0995950">
        <ele>30.0</ele>
        <time>2020-07-20T10:24:27Z</time>
      </trkpt>
      <trkpt lat="42.5126210" lon="3.0991960">
        <ele>30.8</ele>
        <time>2020-07-20T10:24:33Z</time>
      </trkpt>
      <trkpt lat="42.5126250" lon="3.0991300">
        <ele>31.2</ele>
        <time>2020-07-20T10:24:34Z</time>
      </trkpt>
      <trkpt lat="42.5126400" lon="3.0988630">
        <ele>32.2</ele>
        <time>2020-07-20T10:24:38Z</time>
      </trkpt>
      <trkpt lat="42.5126430" lon="3.0987970">
        <ele>32.2</ele>
        <time>2020-07-20T10:24:39Z</time>
      </trkpt>
      <trkpt lat="42.5126450" lon="3.0984630">
        <ele>33.4</ele>
        <time>2020-07-20T10:24:44Z</time>
      </trkpt>
      <trkpt lat="42.5126340" lon="3.0981930">
        <ele>34.6</ele>
        <time>2020-07-20T10:24:48Z</time>
      </trkpt>
      <trkpt lat="42.5126210" lon="3.0979860">
        <ele>35.2</ele>
        <time>2020-07-20T10:24:51Z</time>
      </trkpt>
      <trkpt lat="42.5125910" lon="3.0976480">
        <ele>35.6</ele>
        <time>2020-07-20T10:24:56Z</time>
      </trkpt>
      <trkpt lat="42.5125740" lon="3.0975140">
        <ele>36.2</ele>
        <time>2020-07-20T10:24:58Z</time>
      </trkpt>
      <trkpt lat="42.5125650" lon="3.0974490">
        <ele>36.8</ele>
        <time>2020-07-20T10:24:59Z</time>
      </trkpt>
      <trkpt lat="42.5124820" lon="3.0970470">
        <ele>37.4</ele>
        <time>2020-07-20T10:25:05Z</time>
      </trkpt>
      <trkpt lat="42.5124440" lon="3.0969130">
        <ele>37.6</ele>
        <time>2020-07-20T10:25:07Z</time>
      </trkpt>
      <trkpt lat="42.5124250" lon="3.0968480">
        <ele>38.0</ele>
        <time>2020-07-20T10:25:08Z</time>
      </trkpt>
      <trkpt lat="42.5123030" lon="3.0964740">
        <ele>39.2</ele>
        <time>2020-07-20T10:25:14Z</time>
      </trkpt>
      <trkpt lat="42.5122600" lon="3.0963470">
        <ele>39.8</ele>
        <time>2020-07-20T10:25:16Z</time>
      </trkpt>
      <trkpt lat="42.5122090" lon="3.0962260">
        <ele>40.4</ele>
        <time>2020-07-20T10:25:18Z</time>
      </trkpt>
      <trkpt lat="42.5121100" lon="3.0959990">
        <ele>41.6</ele>
        <time>2020-07-20T10:25:22Z</time>
      </trkpt>
      <trkpt lat="42.5120810" lon="3.0959420">
        <ele>41.8</ele>
        <time>2020-07-20T10:25:23Z</time>
      </trkpt>
      <trkpt lat="42.5119960" lon="3.0957750">
        <ele>42.8</ele>
        <time>2020-07-20T10:25:26Z</time>
      </trkpt>
      <trkpt lat="42.5119670" lon="3.0957230">
        <ele>43.0</ele>
        <time>2020-07-20T10:25:27Z</time>
      </trkpt>
      <trkpt lat="42.5118480" lon="3.0955120">
        <ele>43.8</ele>
        <time>2020-07-20T10:25:31Z</time>
      </trkpt>
      <trkpt lat="42.5118170" lon="3.0954580">
        <ele>44.0</ele>
        <time>2020-07-20T10:25:32Z</time>
      </trkpt>
      <trkpt lat="42.5116970" lon="3.0952480">
        <ele>45.0</ele>
        <time>2020-07-20T10:25:36Z</time>
      </trkpt>
      <trkpt lat="42.5115450" lon="3.0949860">
        <ele>46.2</ele>
        <time>2020-07-20T10:25:41Z</time>
      </trkpt>
      <trkpt lat="42.5114560" lon="3.0948350">
        <ele>47.4</ele>
        <time>2020-07-20T10:25:44Z</time>
      </trkpt>
      <trkpt lat="42.5113120" lon="3.0945890">
        <ele>48.6</ele>
        <time>2020-07-20T10:25:49Z</time>
      </trkpt>
      <trkpt lat="42.5112260" lon="3.0944440">
        <ele>49.6</ele>
        <time>2020-07-20T10:25:52Z</time>
      </trkpt>
      <trkpt lat="42.5111960" lon="3.0943940">
        <ele>49.8</ele>
        <time>2020-07-20T10:25:53Z</time>
      </trkpt>
      <trkpt lat="42.5110540" lon="3.0941600">
        <ele>50.8</ele>
        <time>2020-07-20T10:25:58Z</time>
      </trkpt>
      <trkpt lat="42.5109240" lon="3.0939270">
        <ele>52.0</ele>
        <time>2020-07-20T10:26:03Z</time>
      </trkpt>
      <trkpt lat="42.5108220" lon="3.0937460">
        <ele>52.6</ele>
        <time>2020-07-20T10:26:07Z</time>
      </trkpt>
      <trkpt lat="42.5107700" lon="3.0936530">
        <ele>53.0</ele>
        <time>2020-07-20T10:26:09Z</time>
      </trkpt>
      <trkpt lat="42.5106880" lon="3.0935160">
        <ele>53.6</ele>
        <time>2020-07-20T10:26:12Z</time>
      </trkpt>
      <trkpt lat="42.5106360" lon="3.0934210">
        <ele>54.2</ele>
        <time>2020-07-20T10:26:14Z</time>
      </trkpt>
      <trkpt lat="42.5106100" lon="3.0933760">
        <ele>54.4</ele>
        <time>2020-07-20T10:26:15Z</time>
      </trkpt>
      <trkpt lat="42.5105840" lon="3.0933300">
        <ele>54.8</ele>
        <time>2020-07-20T10:26:16Z</time>
      </trkpt>
      <trkpt lat="42.5105330" lon="3.0932380">
        <ele>55.4</ele>
        <time>2020-07-20T10:26:18Z</time>
      </trkpt>
      <trkpt lat="42.5104830" lon="3.0931410">
        <ele>55.8</ele>
        <time>2020-07-20T10:26:20Z</time>
      </trkpt>
      <trkpt lat="42.5104090" lon="3.0929930">
        <ele>56.6</ele>
        <time>2020-07-20T10:26:23Z</time>
      </trkpt>
      <trkpt lat="42.5102990" lon="3.0927390">
        <ele>57.8</ele>
        <time>2020-07-20T10:26:28Z</time>
      </trkpt>
      <trkpt lat="42.5102780" lon="3.0926880">
        <ele>58.0</ele>
        <time>2020-07-20T10:26:29Z</time>
      </trkpt>
      <trkpt lat="42.5102580" lon="3.0926390">
        <ele>58.2</ele>
        <time>2020-07-20T10:26:30Z</time>
      </trkpt>
      <trkpt lat="42.5102190" lon="3.0925360">
        <ele>59.0</ele>
        <time>2020-07-20T10:26:32Z</time>
      </trkpt>
      <trkpt lat="42.5101270" lon="3.0922770">
        <ele>60.0</ele>
        <time>2020-07-20T10:26:37Z</time>
      </trkpt>
      <trkpt lat="42.5100920" lon="3.0921690">
        <ele>60.6</ele>
        <time>2020-07-20T10:26:39Z</time>
      </trkpt>
      <trkpt lat="42.5100580" lon="3.0920600">
        <ele>61.2</ele>
        <time>2020-07-20T10:26:41Z</time>
      </trkpt>
      <trkpt lat="42.5100430" lon="3.0920050">
        <ele>61.6</ele>
        <time>2020-07-20T10:26:42Z</time>
      </trkpt>
      <trkpt lat="42.5100000" lon="3.0918370">
        <ele>62.4</ele>
        <time>2020-07-20T10:26:45Z</time>
      </trkpt>
      <trkpt lat="42.5099460" lon="3.0916170">
        <ele>63.4</ele>
        <time>2020-07-20T10:26:49Z</time>
      </trkpt>
      <trkpt lat="42.5098890" lon="3.0913520">
        <ele>64.6</ele>
        <time>2020-07-20T10:26:54Z</time>
      </trkpt>
      <trkpt lat="42.5098440" lon="3.0911480">
        <ele>65.8</ele>
        <time>2020-07-20T10:26:58Z</time>
      </trkpt>
      <trkpt lat="42.5098230" lon="3.0910480">
        <ele>66.2</ele>
        <time>2020-07-20T10:27:00Z</time>
      </trkpt>
      <trkpt lat="42.5097920" lon="3.0908960">
        <ele>66.8</ele>
        <time>2020-07-20T10:27:03Z</time>
      </trkpt>
      <trkpt lat="42.5097410" lon="3.0906330">
        <ele>67.8</ele>
        <time>2020-07-20T10:27:08Z</time>
      </trkpt>
      <trkpt lat="42.5097290" lon="3.0905790">
        <ele>68.2</ele>
        <time>2020-07-20T10:27:09Z</time>
      </trkpt>
      <trkpt lat="42.5096610" lon="3.0902640">
        <ele>69.4</ele>
        <time>2020-07-20T10:27:15Z</time>
      </trkpt>
      <trkpt lat="42.5096510" lon="3.0902120">
        <ele>69.6</ele>
        <time>2020-07-20T10:27:16Z</time>
      </trkpt>
      <trkpt lat="42.5095970" lon="3.0899480">
        <ele>70.6</ele>
        <time>2020-07-20T10:27:21Z</time>
      </trkpt>
      <trkpt lat="42.5095510" lon="3.0896870">
        <ele>71.8</ele>
        <time>2020-07-20T10:27:26Z</time>
      </trkpt>
      <trkpt lat="42.5095060" lon="3.0894660">
        <ele>73.0</ele>
        <time>2020-07-20T10:27:30Z</time>
      </trkpt>
      <trkpt lat="42.5094690" lon="3.0891980">
        <ele>74.0</ele>
        <time>2020-07-20T10:27:35Z</time>
      </trkpt>
      <trkpt lat="42.5094670" lon="3.0891440">
        <ele>74.2</ele>
        <time>2020-07-20T10:27:36Z</time>
      </trkpt>
      <trkpt lat="42.5094550" lon="3.0889770">
        <ele>75.2</ele>
        <time>2020-07-20T10:27:39Z</time>
      </trkpt>
      <trkpt lat="42.5094430" lon="3.0886490">
        <ele>76.2</ele>
        <time>2020-07-20T10:27:45Z</time>
      </trkpt>
      <trkpt lat="42.5094410" lon="3.0885940">
        <ele>76.4</ele>
        <time>2020-07-20T10:27:46Z</time>
      </trkpt>
      <trkpt lat="42.5094430" lon="3.0884290">
        <ele>77.4</ele>
        <time>2020-07-20T10:27:49Z</time>
      </trkpt>
      <trkpt lat="42.5094490" lon="3.0881450">
        <ele>78.6</ele>
        <time>2020-07-20T10:27:54Z</time>
      </trkpt>
      <trkpt lat="42.5094530" lon="3.0880890">
        <ele>78.8</ele>
        <time>2020-07-20T10:27:55Z</time>
      </trkpt>
      <trkpt lat="42.5094610" lon="3.0879200">
        <ele>79.6</ele>
        <time>2020-07-20T10:27:58Z</time>
      </trkpt>
      <trkpt lat="42.5094740" lon="3.0877560">
        <ele>80.0</ele>
        <time>2020-07-20T10:28:01Z</time>
      </trkpt>
      <trkpt lat="42.5094910" lon="3.0875950">
        <ele>80.8</ele>
        <time>2020-07-20T10:28:04Z</time>
      </trkpt>
      <trkpt lat="42.5094970" lon="3.0875420">
        <ele>81.2</ele>
        <time>2020-07-20T10:28:05Z</time>
      </trkpt>
      <trkpt lat="42.5095390" lon="3.0872780">
        <ele>82.0</ele>
        <time>2020-07-20T10:28:10Z</time>
      </trkpt>
      <trkpt lat="42.5095660" lon="3.0871770">
        <ele>82.6</ele>
        <time>2020-07-20T10:28:12Z</time>
      </trkpt>
      <trkpt lat="42.5095890" lon="3.0870720">
        <ele>83.2</ele>
        <time>2020-07-20T10:28:14Z</time>
      </trkpt>
      <trkpt lat="42.5096480" lon="3.0868690">
        <ele>84.4</ele>
        <time>2020-07-20T10:28:18Z</time>
      </trkpt>
      <trkpt lat="42.5096760" lon="3.0867620">
        <ele>84.8</ele>
        <time>2020-07-20T10:28:20Z</time>
      </trkpt>
      <trkpt lat="42.5097080" lon="3.0866560">
        <ele>85.2</ele>
        <time>2020-07-20T10:28:22Z</time>
      </trkpt>
      <trkpt lat="42.5097900" lon="3.0864240">
        <ele>85.6</ele>
        <time>2020-07-20T10:28:26Z</time>
      </trkpt>
      <trkpt lat="42.5098140" lon="3.0863640">
        <ele>85.8</ele>
        <time>2020-07-20T10:28:27Z</time>
      </trkpt>
      <trkpt lat="42.5099050" lon="3.0861210">
        <ele>86.6</ele>
        <time>2020-07-20T10:28:31Z</time>
      </trkpt>
      <trkpt lat="42.5100330" lon="3.0858220">
        <ele>87.6</ele>
        <time>2020-07-20T10:28:36Z</time>
      </trkpt>
      <trkpt lat="42.5100590" lon="3.0857640">
        <ele>87.8</ele>
        <time>2020-07-20T10:28:37Z</time>
      </trkpt>
      <trkpt lat="42.5101890" lon="3.0854760">
        <ele>89.0</ele>
        <time>2020-07-20T10:28:42Z</time>
      </trkpt>
      <trkpt lat="42.5102390" lon="3.0853540">
        <ele>89.4</ele>
        <time>2020-07-20T10:28:44Z</time>
      </trkpt>
      <trkpt lat="42.5104200" lon="3.0849850">
        <ele>89.8</ele>
        <time>2020-07-20T10:28:50Z</time>
      </trkpt>
      <trkpt lat="42.5104500" lon="3.0849240">
        <ele>90.0</ele>
        <time>2020-07-20T10:28:51Z</time>
      </trkpt>
      <trkpt lat="42.5104780" lon="3.0848550">
        <ele>90.0</ele>
        <time>2020-07-20T10:28:52Z</time>
      </trkpt>
      <trkpt lat="42.5105960" lon="3.0845170">
        <ele>90.4</ele>
        <time>2020-07-20T10:28:57Z</time>
      </trkpt>
      <trkpt lat="42.5106540" lon="3.0843780">
        <ele>91.0</ele>
        <time>2020-07-20T10:29:01Z</time>
      </trkpt>
      <trkpt lat="42.5107120" lon="3.0842390">
        <ele>91.2</ele>
        <time>2020-07-20T10:29:02Z</time>
      </trkpt>
      <trkpt lat="42.5107700" lon="3.0841000">
        <ele>91.6</ele>
        <time>2020-07-20T10:29:05Z</time>
      </trkpt>
      <trkpt lat="42.5108280" lon="3.0839610">
        <ele>91.6</ele>
        <time>2020-07-20T10:29:06Z</time>
      </trkpt>
      <trkpt lat="42.5108860" lon="3.0838220">
        <ele>91.6</ele>
        <time>2020-07-20T10:29:07Z</time>
      </trkpt>
      <trkpt lat="42.5109440" lon="3.0836830">
        <ele>91.0</ele>
        <time>2020-07-20T10:29:13Z</time>
      </trkpt>
      <trkpt lat="42.5110020" lon="3.0835440">
        <ele>90.8</ele>
        <time>2020-07-20T10:29:19Z</time>
      </trkpt>
      <trkpt lat="42.5110600" lon="3.0834050">
        <ele>91.4</ele>
        <time>2020-07-20T10:29:25Z</time>
      </trkpt>
      <trkpt lat="42.5111180" lon="3.0832660">
        <ele>90.4</ele>
        <time>2020-07-20T10:29:29Z</time>
      </trkpt>
      <trkpt lat="42.5111760" lon="3.0831270">
        <ele>89.8</ele>
        <time>2020-07-20T10:29:30Z</time>
      </trkpt>
      <trkpt lat="42.5112340" lon="3.0829890">
        <ele>89.0</ele>
        <time>2020-07-20T10:29:33Z</time>
      </trkpt>
      <trkpt lat="42.5112920" lon="3.0828500">
        <ele>88.6</ele>
        <time>2020-07-20T10:29:34Z</time>
      </trkpt>
      <trkpt lat="42.5113500" lon="3.0827110">
        <ele>88.4</ele>
        <time>2020-07-20T10:29:36Z</time>
      </trkpt>
      <trkpt lat="42.5114080" lon="3.0825720">
        <ele>87.6</ele>
        <time>2020-07-20T10:29:37Z</time>
      </trkpt>
      <trkpt lat="42.5114660" lon="3.0824330">
        <ele>86.0</ele>
        <time>2020-07-20T10:29:40Z</time>
      </trkpt>
      <trkpt lat="42.5115240" lon="3.0822940">
        <ele>85.0</ele>
        <time>2020-07-20T10:29:43Z</time>
      </trkpt>
      <trkpt lat="42.5115820" lon="3.0821550">
        <ele>83.8</ele>
        <time>2020-07-20T10:29:49Z</time>
      </trkpt>
      <trkpt lat="42.5116400" lon="3.0820160">
        <ele>82.4</ele>
        <time>2020-07-20T10:29:51Z</time>
      </trkpt>
      <trkpt lat="42.5116980" lon="3.0818770">
        <ele>81.2</ele>
        <time>2020-07-20T10:29:53Z</time>
      </trkpt>
      <trkpt lat="42.5117560" lon="3.0817380">
        <ele>80.0</ele>
        <time>2020-07-20T10:29:55Z</time>
      </trkpt>
      <trkpt lat="42.5118140" lon="3.0815990">
        <ele>79.6</ele>
        <time>2020-07-20T10:29:56Z</time>
      </trkpt>
      <trkpt lat="42.5130320" lon="3.0786810">
        <ele>79.0</ele>
        <time>2020-07-20T10:29:57Z</time>
      </trkpt>
      <trkpt lat="42.5131030" lon="3.0785670">
        <ele>78.4</ele>
        <time>2020-07-20T10:29:58Z</time>
      </trkpt>
      <trkpt lat="42.5131820" lon="3.0783160">
        <ele>77.0</ele>
        <time>2020-07-20T10:30:00Z</time>
      </trkpt>
      <trkpt lat="42.5132340" lon="3.0781940">
        <ele>76.2</ele>
        <time>2020-07-20T10:30:01Z</time>
      </trkpt>
      <trkpt lat="42.5132820" lon="3.0780670">
        <ele>75.8</ele>
        <time>2020-07-20T10:30:02Z</time>
      </trkpt>
      <trkpt lat="42.5133790" lon="3.0778270">
        <ele>74.4</ele>
        <time>2020-07-20T10:30:04Z</time>
      </trkpt>
      <trkpt lat="42.5134170" lon="3.0776990">
        <ele>73.6</ele>
        <time>2020-07-20T10:30:05Z</time>
      </trkpt>
      <trkpt lat="42.5134510" lon="3.0775690">
        <ele>73.2</ele>
        <time>2020-07-20T10:30:06Z</time>
      </trkpt>
      <trkpt lat="42.5134910" lon="3.0774430">
        <ele>72.6</ele>
        <time>2020-07-20T10:30:07Z</time>
      </trkpt>
      <trkpt lat="42.5135700" lon="3.0771890">
        <ele>72.0</ele>
        <time>2020-07-20T10:30:09Z</time>
      </trkpt>
      <trkpt lat="42.5137070" lon="3.0768120">
        <ele>70.6</ele>
        <time>2020-07-20T10:30:12Z</time>
      </trkpt>
      <trkpt lat="42.5137930" lon="3.0765460">
        <ele>69.8</ele>
        <time>2020-07-20T10:30:14Z</time>
      </trkpt>
      <trkpt lat="42.5138370" lon="3.0764100">
        <ele>69.4</ele>
        <time>2020-07-20T10:30:15Z</time>
      </trkpt>
      <trkpt lat="42.5139450" lon="3.0761440">
        <ele>69.2</ele>
        <time>2020-07-20T10:30:17Z</time>
      </trkpt>
      <trkpt lat="42.5140600" lon="3.0758690">
        <ele>68.2</ele>
        <time>2020-07-20T10:30:19Z</time>
      </trkpt>
      <trkpt lat="42.5141840" lon="3.0755880">
        <ele>66.4</ele>
        <time>2020-07-20T10:30:21Z</time>
      </trkpt>
      <trkpt lat="42.5143090" lon="3.0753180">
        <ele>64.8</ele>
        <time>2020-07-20T10:30:23Z</time>
      </trkpt>
      <trkpt lat="42.5144300" lon="3.0750700">
        <ele>63.8</ele>
        <time>2020-07-20T10:30:25Z</time>
      </trkpt>
      <trkpt lat="42.5146170" lon="3.0746950">
        <ele>62.8</ele>
        <time>2020-07-20T10:30:28Z</time>
      </trkpt>
      <trkpt lat="42.5148630" lon="3.0742050">
        <ele>61.4</ele>
        <time>2020-07-20T10:30:32Z</time>
      </trkpt>
      <trkpt lat="42.5149230" lon="3.0740830">
        <ele>61.2</ele>
        <time>2020-07-20T10:30:33Z</time>
      </trkpt>
      <trkpt lat="42.5150400" lon="3.0738460">
        <ele>60.4</ele>
        <time>2020-07-20T10:30:35Z</time>
      </trkpt>
      <trkpt lat="42.5151510" lon="3.0736220">
        <ele>59.2</ele>
        <time>2020-07-20T10:30:37Z</time>
      </trkpt>
      <trkpt lat="42.5152050" lon="3.0735160">
        <ele>59.0</ele>
        <time>2020-07-20T10:30:38Z</time>
      </trkpt>
      <trkpt lat="42.5152560" lon="3.0734120">
        <ele>59.0</ele>
        <time>2020-07-20T10:30:39Z</time>
      </trkpt>
      <trkpt lat="42.5154070" lon="3.0731160">
        <ele>59.4</ele>
        <time>2020-07-20T10:30:42Z</time>
      </trkpt>
      <trkpt lat="42.5154550" lon="3.0730240">
        <ele>59.6</ele>
        <time>2020-07-20T10:30:43Z</time>
      </trkpt>
      <trkpt lat="42.5155460" lon="3.0728520">
        <ele>60.6</ele>
        <time>2020-07-20T10:30:45Z</time>
      </trkpt>
      <trkpt lat="42.5155890" lon="3.0727690">
        <ele>61.0</ele>
        <time>2020-07-20T10:30:46Z</time>
      </trkpt>
      <trkpt lat="42.5156690" lon="3.0726120">
        <ele>61.6</ele>
        <time>2020-07-20T10:30:48Z</time>
      </trkpt>
      <trkpt lat="42.5157060" lon="3.0725380">
        <ele>61.8</ele>
        <time>2020-07-20T10:30:49Z</time>
      </trkpt>
      <trkpt lat="42.5157750" lon="3.0723970">
        <ele>62.6</ele>
        <time>2020-07-20T10:30:51Z</time>
      </trkpt>
      <trkpt lat="42.5158060" lon="3.0723310">
        <ele>62.8</ele>
        <time>2020-07-20T10:30:52Z</time>
      </trkpt>
      <trkpt lat="42.5159230" lon="3.0721000">
        <ele>63.6</ele>
        <time>2020-07-20T10:30:56Z</time>
      </trkpt>
      <trkpt lat="42.5159750" lon="3.0720030">
        <ele>64.4</ele>
        <time>2020-07-20T10:30:58Z</time>
      </trkpt>
      <trkpt lat="42.5160220" lon="3.0719120">
        <ele>65.0</ele>
        <time>2020-07-20T10:31:00Z</time>
      </trkpt>
      <trkpt lat="42.5160890" lon="3.0717820">
        <ele>66.4</ele>
        <time>2020-07-20T10:31:03Z</time>
      </trkpt>
      <trkpt lat="42.5161360" lon="3.0716990">
        <ele>67.4</ele>
        <time>2020-07-20T10:31:05Z</time>
      </trkpt>
      <trkpt lat="42.5161620" lon="3.0716600">
        <ele>67.8</ele>
        <time>2020-07-20T10:31:06Z</time>
      </trkpt>
      <trkpt lat="42.5162390" lon="3.0715420">
        <ele>69.0</ele>
        <time>2020-07-20T10:31:09Z</time>
      </trkpt>
      <trkpt lat="42.5162640" lon="3.0715040">
        <ele>69.0</ele>
        <time>2020-07-20T10:31:10Z</time>
      </trkpt>
      <trkpt lat="42.5164010" lon="3.0713360">
        <ele>70.0</ele>
        <time>2020-07-20T10:31:15Z</time>
      </trkpt>
      <trkpt lat="42.5164300" lon="3.0713020">
        <ele>70.4</ele>
        <time>2020-07-20T10:31:16Z</time>
      </trkpt>
      <trkpt lat="42.5165170" lon="3.0712070">
        <ele>71.4</ele>
        <time>2020-07-20T10:31:19Z</time>
      </trkpt>
      <trkpt lat="42.5166950" lon="3.0710450">
        <ele>72.6</ele>
        <time>2020-07-20T10:31:25Z</time>
      </trkpt>
      <trkpt lat="42.5168540" lon="3.0709320">
        <ele>73.8</ele>
        <time>2020-07-20T10:31:30Z</time>
      </trkpt>
      <trkpt lat="42.5169190" lon="3.0708900">
        <ele>74.2</ele>
        <time>2020-07-20T10:31:32Z</time>
      </trkpt>
      <trkpt lat="42.5170200" lon="3.0708360">
        <ele>75.0</ele>
        <time>2020-07-20T10:31:35Z</time>
      </trkpt>
      <trkpt lat="42.5171840" lon="3.0707650">
        <ele>75.8</ele>
        <time>2020-07-20T10:31:40Z</time>
      </trkpt>
      <trkpt lat="42.5172630" lon="3.0707460">
        <ele>76.0</ele>
        <time>2020-07-20T10:31:42Z</time>
      </trkpt>
      <trkpt lat="42.5174050" lon="3.0707020">
        <ele>77.0</ele>
        <time>2020-07-20T10:31:46Z</time>
      </trkpt>
      <trkpt lat="42.5174390" lon="3.0706890">
        <ele>77.4</ele>
        <time>2020-07-20T10:31:47Z</time>
      </trkpt>
      <trkpt lat="42.5175400" lon="3.0706440">
        <ele>78.0</ele>
        <time>2020-07-20T10:31:50Z</time>
      </trkpt>
      <trkpt lat="42.5176720" lon="3.0705700">
        <ele>79.2</ele>
        <time>2020-07-20T10:31:54Z</time>
      </trkpt>
      <trkpt lat="42.5177000" lon="3.0705470">
        <ele>79.2</ele>
        <time>2020-07-20T10:31:55Z</time>
      </trkpt>
      <trkpt lat="42.5178260" lon="3.0704620">
        <ele>80.2</ele>
        <time>2020-07-20T10:31:59Z</time>
      </trkpt>
      <trkpt lat="42.5179000" lon="3.0703750">
        <ele>80.6</ele>
        <time>2020-07-20T10:32:02Z</time>
      </trkpt>
      <trkpt lat="42.5180020" lon="3.0703130">
        <ele>81.2</ele>
        <time>2020-07-20T10:32:05Z</time>
      </trkpt>
      <trkpt lat="42.5181920" lon="3.0701970">
        <ele>82.2</ele>
        <time>2020-07-20T10:32:10Z</time>
      </trkpt>
      <trkpt lat="42.5182330" lon="3.0701740">
        <ele>82.4</ele>
        <time>2020-07-20T10:32:11Z</time>
      </trkpt>
      <trkpt lat="42.5183850" lon="3.0700670">
        <ele>83.4</ele>
        <time>2020-07-20T10:32:15Z</time>
      </trkpt>
      <trkpt lat="42.5185360" lon="3.0699410">
        <ele>84.2</ele>
        <time>2020-07-20T10:32:19Z</time>
      </trkpt>
      <trkpt lat="42.5185720" lon="3.0699080">
        <ele>84.6</ele>
        <time>2020-07-20T10:32:20Z</time>
      </trkpt>
      <trkpt lat="42.5187060" lon="3.0697700">
        <ele>85.8</ele>
        <time>2020-07-20T10:32:24Z</time>
      </trkpt>
      <trkpt lat="42.5188020" lon="3.0696590">
        <ele>86.0</ele>
        <time>2020-07-20T10:32:27Z</time>
      </trkpt>
      <trkpt lat="42.5188640" lon="3.0695790">
        <ele>86.2</ele>
        <time>2020-07-20T10:32:29Z</time>
      </trkpt>
      <trkpt lat="42.5190700" lon="3.0693270">
        <ele>86.6</ele>
        <time>2020-07-20T10:32:35Z</time>
      </trkpt>
      <trkpt lat="42.5191060" lon="3.0692850">
        <ele>86.8</ele>
        <time>2020-07-20T10:32:36Z</time>
      </trkpt>
      <trkpt lat="42.5192830" lon="3.0690710">
        <ele>87.2</ele>
        <time>2020-07-20T10:32:41Z</time>
      </trkpt>
      <trkpt lat="42.5193980" lon="3.0689450">
        <ele>87.8</ele>
        <time>2020-07-20T10:32:44Z</time>
      </trkpt>
      <trkpt lat="42.5195530" lon="3.0687740">
        <ele>88.0</ele>
        <time>2020-07-20T10:32:48Z</time>
      </trkpt>
      <trkpt lat="42.5198070" lon="3.0685190">
        <ele>88.8</ele>
        <time>2020-07-20T10:32:54Z</time>
      </trkpt>
      <trkpt lat="42.5200750" lon="3.0682600">
        <ele>89.2</ele>
        <time>2020-07-20T10:33:00Z</time>
      </trkpt>
      <trkpt lat="42.5202130" lon="3.0681310">
        <ele>89.2</ele>
        <time>2020-07-20T10:33:03Z</time>
      </trkpt>
      <trkpt lat="42.5204530" lon="3.0679290">
        <ele>89.0</ele>
        <time>2020-07-20T10:33:08Z</time>
      </trkpt>
      <trkpt lat="42.5205610" lon="3.0678480">
        <ele>88.8</ele>
        <time>2020-07-20T10:33:10Z</time>
      </trkpt>
      <trkpt lat="42.5209010" lon="3.0675860">
        <ele>89.0</ele>
        <time>2020-07-20T10:33:16Z</time>
      </trkpt>
      <trkpt lat="42.5209620" lon="3.0675450">
        <ele>88.8</ele>
        <time>2020-07-20T10:33:17Z</time>
      </trkpt>
      <trkpt lat="42.5210220" lon="3.0675020">
        <ele>88.8</ele>
        <time>2020-07-20T10:33:18Z</time>
      </trkpt>
      <trkpt lat="42.5211460" lon="3.0674160">
        <ele>88.4</ele>
        <time>2020-07-20T10:33:20Z</time>
      </trkpt>
      <trkpt lat="42.5213870" lon="3.0672260">
        <ele>87.6</ele>
        <time>2020-07-20T10:33:24Z</time>
      </trkpt>
      <trkpt lat="42.5215110" lon="3.0671340">
        <ele>87.2</ele>
        <time>2020-07-20T10:33:26Z</time>
      </trkpt>
      <trkpt lat="42.5217040" lon="3.0669930">
        <ele>86.4</ele>
        <time>2020-07-20T10:33:29Z</time>
      </trkpt>
      <trkpt lat="42.5219010" lon="3.0668490">
        <ele>85.4</ele>
        <time>2020-07-20T10:33:32Z</time>
      </trkpt>
      <trkpt lat="42.5220960" lon="3.0666790">
        <ele>84.4</ele>
        <time>2020-07-20T10:33:35Z</time>
      </trkpt>
      <trkpt lat="42.5221610" lon="3.0666230">
        <ele>84.2</ele>
        <time>2020-07-20T10:33:36Z</time>
      </trkpt>
      <trkpt lat="42.5222910" lon="3.0665090">
        <ele>82.8</ele>
        <time>2020-07-20T10:33:38Z</time>
      </trkpt>
      <trkpt lat="42.5224260" lon="3.0663990">
        <ele>81.8</ele>
        <time>2020-07-20T10:33:40Z</time>
      </trkpt>
      <trkpt lat="42.5226220" lon="3.0662110">
        <ele>80.4</ele>
        <time>2020-07-20T10:33:43Z</time>
      </trkpt>
      <trkpt lat="42.5226910" lon="3.0661470">
        <ele>80.0</ele>
        <time>2020-07-20T10:33:44Z</time>
      </trkpt>
      <trkpt lat="42.5229760" lon="3.0658720">
        <ele>79.2</ele>
        <time>2020-07-20T10:33:48Z</time>
      </trkpt>
      <trkpt lat="42.5231280" lon="3.0657260">
        <ele>78.4</ele>
        <time>2020-07-20T10:33:50Z</time>
      </trkpt>
      <trkpt lat="42.5232050" lon="3.0656480">
        <ele>78.0</ele>
        <time>2020-07-20T10:33:51Z</time>
      </trkpt>
      <trkpt lat="42.5233650" lon="3.0654880">
        <ele>76.8</ele>
        <time>2020-07-20T10:33:53Z</time>
      </trkpt>
      <trkpt lat="42.5236070" lon="3.0652450">
        <ele>75.6</ele>
        <time>2020-07-20T10:33:56Z</time>
      </trkpt>
      <trkpt lat="42.5237740" lon="3.0650930">
        <ele>74.4</ele>
        <time>2020-07-20T10:33:58Z</time>
      </trkpt>
      <trkpt lat="42.5239530" lon="3.0649470">
        <ele>73.0</ele>
        <time>2020-07-20T10:34:00Z</time>
      </trkpt>
      <trkpt lat="42.5240450" lon="3.0648730">
        <ele>71.8</ele>
        <time>2020-07-20T10:34:01Z</time>
      </trkpt>
      <trkpt lat="42.5241400" lon="3.0647960">
        <ele>70.4</ele>
        <time>2020-07-20T10:34:02Z</time>
      </trkpt>
      <trkpt lat="42.5243390" lon="3.0646380">
        <ele>68.8</ele>
        <time>2020-07-20T10:34:04Z</time>
      </trkpt>
      <trkpt lat="42.5244410" lon="3.0645620">
        <ele>67.6</ele>
        <time>2020-07-20T10:34:05Z</time>
      </trkpt>
      <trkpt lat="42.5245360" lon="3.0644870">
        <ele>65.6</ele>
        <time>2020-07-20T10:34:06Z</time>
      </trkpt>
      <trkpt lat="42.5246260" lon="3.0644140">
        <ele>63.6</ele>
        <time>2020-07-20T10:34:07Z</time>
      </trkpt>
      <trkpt lat="42.5247160" lon="3.0643400">
        <ele>62.4</ele>
        <time>2020-07-20T10:34:08Z</time>
      </trkpt>
      <trkpt lat="42.5248060" lon="3.0642650">
        <ele>61.2</ele>
        <time>2020-07-20T10:34:09Z</time>
      </trkpt>
      <trkpt lat="42.5249960" lon="3.0641140">
        <ele>60.0</ele>
        <time>2020-07-20T10:34:11Z</time>
      </trkpt>
      <trkpt lat="42.5251800" lon="3.0639600">
        <ele>58.8</ele>
        <time>2020-07-20T10:34:13Z</time>
      </trkpt>
      <trkpt lat="42.5253480" lon="3.0637950">
        <ele>57.4</ele>
        <time>2020-07-20T10:34:15Z</time>
      </trkpt>
      <trkpt lat="42.5254290" lon="3.0637120">
        <ele>56.8</ele>
        <time>2020-07-20T10:34:16Z</time>
      </trkpt>
      <trkpt lat="42.5255090" lon="3.0636260">
        <ele>56.2</ele>
        <time>2020-07-20T10:34:17Z</time>
      </trkpt>
      <trkpt lat="42.5256640" lon="3.0634430">
        <ele>54.6</ele>
        <time>2020-07-20T10:34:19Z</time>
      </trkpt>
      <trkpt lat="42.5258100" lon="3.0632480">
        <ele>52.8</ele>
        <time>2020-07-20T10:34:21Z</time>
      </trkpt>
      <trkpt lat="42.5258810" lon="3.0631470">
        <ele>52.0</ele>
        <time>2020-07-20T10:34:22Z</time>
      </trkpt>
      <trkpt lat="42.5259490" lon="3.0630410">
        <ele>51.2</ele>
        <time>2020-07-20T10:34:23Z</time>
      </trkpt>
      <trkpt lat="42.5260770" lon="3.0628180">
        <ele>49.4</ele>
        <time>2020-07-20T10:34:25Z</time>
      </trkpt>
      <trkpt lat="42.5261940" lon="3.0625800">
        <ele>48.0</ele>
        <time>2020-07-20T10:34:27Z</time>
      </trkpt>
      <trkpt lat="42.5262990" lon="3.0623280">
        <ele>46.8</ele>
        <time>2020-07-20T10:34:29Z</time>
      </trkpt>
      <trkpt lat="42.5263910" lon="3.0620610">
        <ele>45.2</ele>
        <time>2020-07-20T10:34:31Z</time>
      </trkpt>
      <trkpt lat="42.5264340" lon="3.0619220">
        <ele>44.2</ele>
        <time>2020-07-20T10:34:32Z</time>
      </trkpt>
      <trkpt lat="42.5264770" lon="3.0617810">
        <ele>42.8</ele>
        <time>2020-07-20T10:34:33Z</time>
      </trkpt>
      <trkpt lat="42.5265200" lon="3.0616370">
        <ele>41.4</ele>
        <time>2020-07-20T10:34:34Z</time>
      </trkpt>
      <trkpt lat="42.5265630" lon="3.0614920">
        <ele>40.2</ele>
        <time>2020-07-20T10:34:35Z</time>
      </trkpt>
      <trkpt lat="42.5266050" lon="3.0613470">
        <ele>39.0</ele>
        <time>2020-07-20T10:34:36Z</time>
      </trkpt>
      <trkpt lat="42.5266460" lon="3.0612030">
        <ele>37.8</ele>
        <time>2020-07-20T10:34:37Z</time>
      </trkpt>
      <trkpt lat="42.5266880" lon="3.0610620">
        <ele>36.2</ele>
        <time>2020-07-20T10:34:38Z</time>
      </trkpt>
      <trkpt lat="42.5267290" lon="3.0609220">
        <ele>34.8</ele>
        <time>2020-07-20T10:34:39Z</time>
      </trkpt>
      <trkpt lat="42.5267680" lon="3.0607840">
        <ele>33.8</ele>
        <time>2020-07-20T10:34:40Z</time>
      </trkpt>
      <trkpt lat="42.5268460" lon="3.0605110">
        <ele>32.4</ele>
        <time>2020-07-20T10:34:42Z</time>
      </trkpt>
      <trkpt lat="42.5269240" lon="3.0602350">
        <ele>31.0</ele>
        <time>2020-07-20T10:34:44Z</time>
      </trkpt>
      <trkpt lat="42.5270050" lon="3.0599600">
        <ele>29.4</ele>
        <time>2020-07-20T10:34:46Z</time>
      </trkpt>
      <trkpt lat="42.5270880" lon="3.0596890">
        <ele>27.6</ele>
        <time>2020-07-20T10:34:48Z</time>
      </trkpt>
      <trkpt lat="42.5271350" lon="3.0595530">
        <ele>26.8</ele>
        <time>2020-07-20T10:34:49Z</time>
      </trkpt>
      <trkpt lat="42.5271860" lon="3.0594160">
        <ele>26.2</ele>
        <time>2020-07-20T10:34:50Z</time>
      </trkpt>
      <trkpt lat="42.5272430" lon="3.0592820">
        <ele>25.4</ele>
        <time>2020-07-20T10:34:51Z</time>
      </trkpt>
      <trkpt lat="42.5273040" lon="3.0591530">
        <ele>24.8</ele>
        <time>2020-07-20T10:34:52Z</time>
      </trkpt>
      <trkpt lat="42.5274400" lon="3.0589070">
        <ele>22.6</ele>
        <time>2020-07-20T10:34:54Z</time>
      </trkpt>
      <trkpt lat="42.5275970" lon="3.0586830">
        <ele>21.0</ele>
        <time>2020-07-20T10:34:56Z</time>
      </trkpt>
      <trkpt lat="42.5277710" lon="3.0584890">
        <ele>20.2</ele>
        <time>2020-07-20T10:34:58Z</time>
      </trkpt>
      <trkpt lat="42.5278620" lon="3.0584010">
        <ele>19.8</ele>
        <time>2020-07-20T10:34:59Z</time>
      </trkpt>
      <trkpt lat="42.5281510" lon="3.0581870">
        <ele>18.4</ele>
        <time>2020-07-20T10:35:02Z</time>
      </trkpt>
      <trkpt lat="42.5283490" lon="3.0580720">
        <ele>16.8</ele>
        <time>2020-07-20T10:35:04Z</time>
      </trkpt>
      <trkpt lat="42.5285440" lon="3.0579740">
        <ele>16.2</ele>
        <time>2020-07-20T10:35:06Z</time>
      </trkpt>
      <trkpt lat="42.5287360" lon="3.0578890">
        <ele>16.0</ele>
        <time>2020-07-20T10:35:08Z</time>
      </trkpt>
      <trkpt lat="42.5291900" lon="3.0576650">
        <ele>15.8</ele>
        <time>2020-07-20T10:35:13Z</time>
      </trkpt>
      <trkpt lat="42.5294490" lon="3.0575150">
        <ele>15.4</ele>
        <time>2020-07-20T10:35:16Z</time>
      </trkpt>
      <trkpt lat="42.5299200" lon="3.0571590">
        <ele>14.8</ele>
        <time>2020-07-20T10:35:22Z</time>
      </trkpt>
      <trkpt lat="42.5299930" lon="3.0570930">
        <ele>14.8</ele>
        <time>2020-07-20T10:35:23Z</time>
      </trkpt>
      <trkpt lat="42.5300620" lon="3.0570210">
        <ele>14.6</ele>
        <time>2020-07-20T10:35:24Z</time>
      </trkpt>
      <trkpt lat="42.5303220" lon="3.0567070">
        <ele>13.6</ele>
        <time>2020-07-20T10:35:28Z</time>
      </trkpt>
      <trkpt lat="42.5303840" lon="3.0566270">
        <ele>13.2</ele>
        <time>2020-07-20T10:35:29Z</time>
      </trkpt>
      <trkpt lat="42.5305570" lon="3.0563800">
        <ele>12.6</ele>
        <time>2020-07-20T10:35:32Z</time>
      </trkpt>
      <trkpt lat="42.5307580" lon="3.0560290">
        <ele>12.4</ele>
        <time>2020-07-20T10:35:36Z</time>
      </trkpt>
      <trkpt lat="42.5308510" lon="3.0558460">
        <ele>12.2</ele>
        <time>2020-07-20T10:35:38Z</time>
      </trkpt>
      <trkpt lat="42.5309350" lon="3.0556600">
        <ele>12.0</ele>
        <time>2020-07-20T10:35:40Z</time>
      </trkpt>
      <trkpt lat="42.5309730" lon="3.0555720">
        <ele>11.8</ele>
        <time>2020-07-20T10:35:41Z</time>
      </trkpt>
      <trkpt lat="42.5310060" lon="3.0554880">
        <ele>11.8</ele>
        <time>2020-07-20T10:35:42Z</time>
      </trkpt>
      <trkpt lat="42.5311510" lon="3.0550500">
        <ele>11.6</ele>
        <time>2020-07-20T10:35:47Z</time>
      </trkpt>
      <trkpt lat="42.5312220" lon="3.0547750">
        <ele>11.4</ele>
        <time>2020-07-20T10:35:50Z</time>
      </trkpt>
      <trkpt lat="42.5313180" lon="3.0542050">
        <ele>11.4</ele>
        <time>2020-07-20T10:35:56Z</time>
      </trkpt>
      <trkpt lat="42.5313300" lon="3.0541070">
        <ele>11.4</ele>
        <time>2020-07-20T10:35:57Z</time>
      </trkpt>
      <trkpt lat="42.5313740" lon="3.0535150">
        <ele>10.8</ele>
        <time>2020-07-20T10:36:03Z</time>
      </trkpt>
      <trkpt lat="42.5313880" lon="3.0532340">
        <ele>11.0</ele>
        <time>2020-07-20T10:36:06Z</time>
      </trkpt>
      <trkpt lat="42.5314140" lon="3.0529840">
        <ele>11.4</ele>
        <time>2020-07-20T10:36:09Z</time>
      </trkpt>
      <trkpt lat="42.5314590" lon="3.0527340">
        <ele>11.4</ele>
        <time>2020-07-20T10:36:12Z</time>
      </trkpt>
      <trkpt lat="42.5315110" lon="3.0521820">
        <ele>10.8</ele>
        <time>2020-07-20T10:36:18Z</time>
      </trkpt>
      <trkpt lat="42.5315210" lon="3.0520860">
        <ele>10.8</ele>
        <time>2020-07-20T10:36:19Z</time>
      </trkpt>
      <trkpt lat="42.5315450" lon="3.0518900">
        <ele>10.4</ele>
        <time>2020-07-20T10:36:21Z</time>
      </trkpt>
      <trkpt lat="42.5315880" lon="3.0515910">
        <ele>9.8</ele>
        <time>2020-07-20T10:36:24Z</time>
      </trkpt>
      <trkpt lat="42.5316240" lon="3.0513880">
        <ele>9.4</ele>
        <time>2020-07-20T10:36:26Z</time>
      </trkpt>
      <trkpt lat="42.5316440" lon="3.0512840">
        <ele>9.0</ele>
        <time>2020-07-20T10:36:27Z</time>
      </trkpt>
      <trkpt lat="42.5316900" lon="3.0510760">
        <ele>8.8</ele>
        <time>2020-07-20T10:36:29Z</time>
      </trkpt>
      <trkpt lat="42.5317490" lon="3.0508690">
        <ele>8.2</ele>
        <time>2020-07-20T10:36:31Z</time>
      </trkpt>
      <trkpt lat="42.5318460" lon="3.0505520">
        <ele>7.0</ele>
        <time>2020-07-20T10:36:34Z</time>
      </trkpt>
      <trkpt lat="42.5319900" lon="3.0501280">
        <ele>5.8</ele>
        <time>2020-07-20T10:36:38Z</time>
      </trkpt>
      <trkpt lat="42.5321010" lon="3.0498060">
        <ele>4.6</ele>
        <time>2020-07-20T10:36:41Z</time>
      </trkpt>
      <trkpt lat="42.5321790" lon="3.0495940">
        <ele>4.0</ele>
        <time>2020-07-20T10:36:43Z</time>
      </trkpt>
      <trkpt lat="42.5322600" lon="3.0493860">
        <ele>3.8</ele>
        <time>2020-07-20T10:36:45Z</time>
      </trkpt>
      <trkpt lat="42.5323500" lon="3.0491670">
        <ele>3.6</ele>
        <time>2020-07-20T10:36:47Z</time>
      </trkpt>
      <trkpt lat="42.5324450" lon="3.0489360">
        <ele>3.2</ele>
        <time>2020-07-20T10:36:49Z</time>
      </trkpt>
      <trkpt lat="42.5325900" lon="3.0485810">
        <ele>3.4</ele>
        <time>2020-07-20T10:36:52Z</time>
      </trkpt>
      <trkpt lat="42.5326860" lon="3.0483460">
        <ele>3.2</ele>
        <time>2020-07-20T10:36:54Z</time>
      </trkpt>
      <trkpt lat="42.5327810" lon="3.0481090">
        <ele>2.8</ele>
        <time>2020-07-20T10:36:56Z</time>
      </trkpt>
      <trkpt lat="42.5328730" lon="3.0478710">
        <ele>2.4</ele>
        <time>2020-07-20T10:36:58Z</time>
      </trkpt>
      <trkpt lat="42.5329200" lon="3.0477540">
        <ele>2.4</ele>
        <time>2020-07-20T10:36:59Z</time>
      </trkpt>
      <trkpt lat="42.5329680" lon="3.0476390">
        <ele>2.6</ele>
        <time>2020-07-20T10:37:00Z</time>
      </trkpt>
      <trkpt lat="42.5330150" lon="3.0475240">
        <ele>2.6</ele>
        <time>2020-07-20T10:37:01Z</time>
      </trkpt>
      <trkpt lat="42.5330630" lon="3.0474090">
        <ele>2.6</ele>
        <time>2020-07-20T10:37:02Z</time>
      </trkpt>
      <trkpt lat="42.5331100" lon="3.0472920">
        <ele>2.6</ele>
        <time>2020-07-20T10:37:03Z</time>
      </trkpt>
      <trkpt lat="42.5331540" lon="3.0471750">
        <ele>2.6</ele>
        <time>2020-07-20T10:37:04Z</time>
      </trkpt>
      <trkpt lat="42.5332010" lon="3.0470610">
        <ele>2.6</ele>
        <time>2020-07-20T10:37:05Z</time>
      </trkpt>
      <trkpt lat="42.5332470" lon="3.0469480">
        <ele>2.6</ele>
        <time>2020-07-20T10:37:06Z</time>
      </trkpt>
      <trkpt lat="42.5333360" lon="3.0467220">
        <ele>2.6</ele>
        <time>2020-07-20T10:37:08Z</time>
      </trkpt>
      <trkpt lat="42.5335950" lon="3.0460920">
        <ele>3.8</ele>
        <time>2020-07-20T10:37:14Z</time>
      </trkpt>
      <trkpt lat="42.5336360" lon="3.0459870">
        <ele>4.0</ele>
        <time>2020-07-20T10:37:15Z</time>
      </trkpt>
      <trkpt lat="42.5338860" lon="3.0453710">
        <ele>3.8</ele>
        <time>2020-07-20T10:37:21Z</time>
      </trkpt>
      <trkpt lat="42.5340160" lon="3.0450630">
        <ele>4.0</ele>
        <time>2020-07-20T10:37:24Z</time>
      </trkpt>
      <trkpt lat="42.5342720" lon="3.0444370">
        <ele>4.6</ele>
        <time>2020-07-20T10:37:30Z</time>
      </trkpt>
      <trkpt lat="42.5343960" lon="3.0441220">
        <ele>4.8</ele>
        <time>2020-07-20T10:37:33Z</time>
      </trkpt>
      <trkpt lat="42.5344340" lon="3.0440170">
        <ele>4.8</ele>
        <time>2020-07-20T10:37:34Z</time>
      </trkpt>
      <trkpt lat="42.5345820" lon="3.0436000">
        <ele>5.4</ele>
        <time>2020-07-20T10:37:38Z</time>
      </trkpt>
      <trkpt lat="42.5346560" lon="3.0433990">
        <ele>5.6</ele>
        <time>2020-07-20T10:37:40Z</time>
      </trkpt>
      <trkpt lat="42.5346920" lon="3.0433000">
        <ele>5.8</ele>
        <time>2020-07-20T10:37:41Z</time>
      </trkpt>
      <trkpt lat="42.5347850" lon="3.0429940">
        <ele>6.0</ele>
        <time>2020-07-20T10:37:44Z</time>
      </trkpt>
      <trkpt lat="42.5349000" lon="3.0425780">
        <ele>6.0</ele>
        <time>2020-07-20T10:37:48Z</time>
      </trkpt>
      <trkpt lat="42.5349600" lon="3.0423700">
        <ele>6.0</ele>
        <time>2020-07-20T10:37:50Z</time>
      </trkpt>
      <trkpt lat="42.5349870" lon="3.0422650">
        <ele>6.0</ele>
        <time>2020-07-20T10:37:51Z</time>
      </trkpt>
      <trkpt lat="42.5350760" lon="3.0418370">
        <ele>6.4</ele>
        <time>2020-07-20T10:37:55Z</time>
      </trkpt>
      <trkpt lat="42.5351860" lon="3.0411740">
        <ele>6.6</ele>
        <time>2020-07-20T10:38:01Z</time>
      </trkpt>
      <trkpt lat="42.5352170" lon="3.0409510">
        <ele>6.8</ele>
        <time>2020-07-20T10:38:03Z</time>
      </trkpt>
      <trkpt lat="42.5352310" lon="3.0408390">
        <ele>7.0</ele>
        <time>2020-07-20T10:38:04Z</time>
      </trkpt>
      <trkpt lat="42.5352950" lon="3.0401550">
        <ele>7.2</ele>
        <time>2020-07-20T10:38:10Z</time>
      </trkpt>
      <trkpt lat="42.5353080" lon="3.0399150">
        <ele>7.0</ele>
        <time>2020-07-20T10:38:12Z</time>
      </trkpt>
      <trkpt lat="42.5353270" lon="3.0391810">
        <ele>6.8</ele>
        <time>2020-07-20T10:38:18Z</time>
      </trkpt>
      <trkpt lat="42.5353340" lon="3.0389320">
        <ele>6.8</ele>
        <time>2020-07-20T10:38:20Z</time>
      </trkpt>
      <trkpt lat="42.5353340" lon="3.0384410">
        <ele>6.0</ele>
        <time>2020-07-20T10:38:24Z</time>
      </trkpt>
      <trkpt lat="42.5353390" lon="3.0382010">
        <ele>5.8</ele>
        <time>2020-07-20T10:38:26Z</time>
      </trkpt>
      <trkpt lat="42.5353480" lon="3.0378460">
        <ele>6.0</ele>
        <time>2020-07-20T10:38:29Z</time>
      </trkpt>
      <trkpt lat="42.5353770" lon="3.0371500">
        <ele>6.6</ele>
        <time>2020-07-20T10:38:35Z</time>
      </trkpt>
      <trkpt lat="42.5354060" lon="3.0368130">
        <ele>6.8</ele>
        <time>2020-07-20T10:38:38Z</time>
      </trkpt>
      <trkpt lat="42.5354780" lon="3.0361410">
        <ele>7.0</ele>
        <time>2020-07-20T10:38:44Z</time>
      </trkpt>
      <trkpt lat="42.5355210" lon="3.0358080">
        <ele>6.8</ele>
        <time>2020-07-20T10:38:47Z</time>
      </trkpt>
      <trkpt lat="42.5356420" lon="3.0351650">
        <ele>6.8</ele>
        <time>2020-07-20T10:38:53Z</time>
      </trkpt>
      <trkpt lat="42.5357130" lon="3.0348440">
        <ele>6.8</ele>
        <time>2020-07-20T10:38:56Z</time>
      </trkpt>
      <trkpt lat="42.5358830" lon="3.0342140">
        <ele>6.8</ele>
        <time>2020-07-20T10:39:02Z</time>
      </trkpt>
      <trkpt lat="42.5359860" lon="3.0339060">
        <ele>7.0</ele>
        <time>2020-07-20T10:39:05Z</time>
      </trkpt>
      <trkpt lat="42.5361170" lon="3.0336200">
        <ele>7.2</ele>
        <time>2020-07-20T10:39:08Z</time>
      </trkpt>
      <trkpt lat="42.5362150" lon="3.0334540">
        <ele>7.6</ele>
        <time>2020-07-20T10:39:10Z</time>
      </trkpt>
      <trkpt lat="42.5362670" lon="3.0333830">
        <ele>7.8</ele>
        <time>2020-07-20T10:39:11Z</time>
      </trkpt>
      <trkpt lat="42.5363220" lon="3.0333280">
        <ele>8.2</ele>
        <time>2020-07-20T10:39:12Z</time>
      </trkpt>
      <trkpt lat="42.5364360" lon="3.0332580">
        <ele>9.0</ele>
        <time>2020-07-20T10:39:14Z</time>
      </trkpt>
      <trkpt lat="42.5365890" lon="3.0331980">
        <ele>10.2</ele>
        <time>2020-07-20T10:39:17Z</time>
      </trkpt>
      <trkpt lat="42.5366790" lon="3.0331910">
        <ele>10.8</ele>
        <time>2020-07-20T10:39:19Z</time>
      </trkpt>
      <trkpt lat="42.5367210" lon="3.0332150">
        <ele>11.4</ele>
        <time>2020-07-20T10:39:20Z</time>
      </trkpt>
      <trkpt lat="42.5367620" lon="3.0332470">
        <ele>11.6</ele>
        <time>2020-07-20T10:39:21Z</time>
      </trkpt>
      <trkpt lat="42.5368370" lon="3.0333290">
        <ele>12.0</ele>
        <time>2020-07-20T10:39:23Z</time>
      </trkpt>
      <trkpt lat="42.5369040" lon="3.0334220">
        <ele>12.4</ele>
        <time>2020-07-20T10:39:25Z</time>
      </trkpt>
      <trkpt lat="42.5369380" lon="3.0334720">
        <ele>12.2</ele>
        <time>2020-07-20T10:39:26Z</time>
      </trkpt>
      <trkpt lat="42.5370950" lon="3.0336810">
        <ele>12.0</ele>
        <time>2020-07-20T10:39:30Z</time>
      </trkpt>
      <trkpt lat="42.5371870" lon="3.0337880">
        <ele>11.2</ele>
        <time>2020-07-20T10:39:32Z</time>
      </trkpt>
      <trkpt lat="42.5373340" lon="3.0339510">
        <ele>10.6</ele>
        <time>2020-07-20T10:39:35Z</time>
      </trkpt>
      <trkpt lat="42.5374980" lon="3.0341100">
        <ele>10.2</ele>
        <time>2020-07-20T10:39:38Z</time>
      </trkpt>
      <trkpt lat="42.5375550" lon="3.0341640">
        <ele>10.0</ele>
        <time>2020-07-20T10:39:39Z</time>
      </trkpt>
      <trkpt lat="42.5377360" lon="3.0343210">
        <ele>8.8</ele>
        <time>2020-07-20T10:39:42Z</time>
      </trkpt>
      <trkpt lat="42.5379100" lon="3.0344670">
        <ele>8.2</ele>
        <time>2020-07-20T10:39:45Z</time>
      </trkpt>
      <trkpt lat="42.5380250" lon="3.0345710">
        <ele>7.6</ele>
        <time>2020-07-20T10:39:47Z</time>
      </trkpt>
      <trkpt lat="42.5382560" lon="3.0347770">
        <ele>6.2</ele>
        <time>2020-07-20T10:39:51Z</time>
      </trkpt>
      <trkpt lat="42.5384390" lon="3.0349390">
        <ele>5.2</ele>
        <time>2020-07-20T10:39:54Z</time>
      </trkpt>
      <trkpt lat="42.5385550" lon="3.0350480">
        <ele>4.0</ele>
        <time>2020-07-20T10:39:56Z</time>
      </trkpt>
      <trkpt lat="42.5386710" lon="3.0351580">
        <ele>3.0</ele>
        <time>2020-07-20T10:39:58Z</time>
      </trkpt>
      <trkpt lat="42.5387840" lon="3.0352570">
        <ele>1.8</ele>
        <time>2020-07-20T10:40:00Z</time>
      </trkpt>
      <trkpt lat="42.5389330" lon="3.0354090">
        <ele>0.6</ele>
        <time>2020-07-20T10:40:03Z</time>
      </trkpt>
      <trkpt lat="42.5390340" lon="3.0355080">
        <ele>0.2</ele>
        <time>2020-07-20T10:40:05Z</time>
      </trkpt>
      <trkpt lat="42.5391750" lon="3.0356740">
        <ele>-0.6</ele>
        <time>2020-07-20T10:40:08Z</time>
      </trkpt>
      <trkpt lat="42.5392200" lon="3.0357350">
        <ele>-1.0</ele>
        <time>2020-07-20T10:40:09Z</time>
      </trkpt>
      <trkpt lat="42.5392660" lon="3.0357960">
        <ele>-1.6</ele>
        <time>2020-07-20T10:40:10Z</time>
      </trkpt>
      <trkpt lat="42.5393150" lon="3.0358550">
        <ele>-2.4</ele>
        <time>2020-07-20T10:40:11Z</time>
      </trkpt>
      <trkpt lat="42.5393610" lon="3.0359110">
        <ele>-3.0</ele>
        <time>2020-07-20T10:40:12Z</time>
      </trkpt>
      <trkpt lat="42.5394490" lon="3.0360200">
        <ele>-3.4</ele>
        <time>2020-07-20T10:40:14Z</time>
      </trkpt>
      <trkpt lat="42.5395930" lon="3.0361670">
        <ele>-3.6</ele>
        <time>2020-07-20T10:40:17Z</time>
      </trkpt>
      <trkpt lat="42.5396620" lon="3.0363050">
        <ele>-3.8</ele>
        <time>2020-07-20T10:40:20Z</time>
      </trkpt>
      <trkpt lat="42.5396770" lon="3.0364990">
        <ele>-3.6</ele>
        <time>2020-07-20T10:40:24Z</time>
      </trkpt>
      <trkpt lat="42.5396210" lon="3.0366290">
        <ele>-3.4</ele>
        <time>2020-07-20T10:40:29Z</time>
      </trkpt>
      <trkpt lat="42.5395990" lon="3.0366570">
        <ele>-3.2</ele>
        <time>2020-07-20T10:40:34Z</time>
      </trkpt>
      <trkpt lat="42.5395970" lon="3.0366470">
        <ele>-3.4</ele>
        <time>2020-07-20T10:40:40Z</time>
      </trkpt>
      <trkpt lat="42.5395930" lon="3.0366390">
        <ele>-3.4</ele>
        <time>2020-07-20T10:40:46Z</time>
      </trkpt>
      <trkpt lat="42.5395970" lon="3.0366400">
        <ele>-3.6</ele>
        <time>2020-07-20T10:40:52Z</time>
      </trkpt>
      <trkpt lat="42.5396010" lon="3.0366390">
        <ele>-3.6</ele>
        <time>2020-07-20T10:40:54Z</time>
      </trkpt>
      <trkpt lat="42.5395950" lon="3.0366370">
        <ele>-3.4</ele>
        <time>2020-07-20T10:40:57Z</time>
      </trkpt>
      <trkpt lat="42.5395970" lon="3.0366390">
        <ele>-3.4</ele>
        <time>2020-07-20T10:40:58Z</time>
      </trkpt>
      <trkpt lat="42.5395980" lon="3.0366390">
        <ele>-3.4</ele>
        <time>2020-07-20T10:40:59Z</time>
      </trkpt>
      <trkpt lat="42.5395970" lon="3.0366390">
        <ele>-3.6</ele>
        <time>2020-07-20T10:41:00Z</time>
      </trkpt>
      <trkpt lat="42.5395990" lon="3.0366410">
        <ele>-3.6</ele>
        <time>2020-07-20T10:41:02Z</time>
      </trkpt>
      <trkpt lat="42.5396210" lon="3.0366290">
        <ele>-3.4</ele>
        <time>2020-07-20T10:41:06Z</time>
      </trkpt>
      <trkpt lat="42.5396570" lon="3.0366250">
        <ele>-3.4</ele>
        <time>2020-07-20T10:41:08Z</time>
      </trkpt>
      <trkpt lat="42.5396880" lon="3.0366410">
        <ele>-3.4</ele>
        <time>2020-07-20T10:41:10Z</time>
      </trkpt>
      <trkpt lat="42.5397200" lon="3.0366890">
        <ele>-3.4</ele>
        <time>2020-07-20T10:41:12Z</time>
      </trkpt>
      <trkpt lat="42.5397860" lon="3.0368070">
        <ele>-3.6</ele>
        <time>2020-07-20T10:41:15Z</time>
      </trkpt>
      <trkpt lat="42.5398190" lon="3.0368420">
        <ele>-3.6</ele>
        <time>2020-07-20T10:41:16Z</time>
      </trkpt>
      <trkpt lat="42.5398600" lon="3.0368690">
        <ele>-3.8</ele>
        <time>2020-07-20T10:41:17Z</time>
      </trkpt>
      <trkpt lat="42.5399570" lon="3.0368960">
        <ele>-4.0</ele>
        <time>2020-07-20T10:41:19Z</time>
      </trkpt>
      <trkpt lat="42.5400110" lon="3.0368980">
        <ele>-4.0</ele>
        <time>2020-07-20T10:41:20Z</time>
      </trkpt>
      <trkpt lat="42.5402190" lon="3.0369370">
        <ele>-5.0</ele>
        <time>2020-07-20T10:41:24Z</time>
      </trkpt>
      <trkpt lat="42.5402760" lon="3.0369550">
        <ele>-5.4</ele>
        <time>2020-07-20T10:41:25Z</time>
      </trkpt>
      <trkpt lat="42.5403340" lon="3.0369780">
        <ele>-5.8</ele>
        <time>2020-07-20T10:41:26Z</time>
      </trkpt>
      <trkpt lat="42.5404490" lon="3.0370420">
        <ele>-6.0</ele>
        <time>2020-07-20T10:41:28Z</time>
      </trkpt>
      <trkpt lat="42.5406160" lon="3.0371710">
        <ele>-6.4</ele>
        <time>2020-07-20T10:41:31Z</time>
      </trkpt>
      <trkpt lat="42.5407810" lon="3.0373330">
        <ele>-7.2</ele>
        <time>2020-07-20T10:41:34Z</time>
      </trkpt>
      <trkpt lat="42.5409360" lon="3.0375300">
        <ele>-8.6</ele>
        <time>2020-07-20T10:41:37Z</time>
      </trkpt>
      <trkpt lat="42.5410300" lon="3.0376800">
        <ele>-9.0</ele>
        <time>2020-07-20T10:41:39Z</time>
      </trkpt>
      <trkpt lat="42.5411050" lon="3.0378400">
        <ele>-9.2</ele>
        <time>2020-07-20T10:41:41Z</time>
      </trkpt>
      <trkpt lat="42.5411380" lon="3.0379230">
        <ele>-9.2</ele>
        <time>2020-07-20T10:41:42Z</time>
      </trkpt>
      <trkpt lat="42.5411930" lon="3.0380890">
        <ele>-9.6</ele>
        <time>2020-07-20T10:41:44Z</time>
      </trkpt>
      <trkpt lat="42.5412370" lon="3.0383600">
        <ele>-10.4</ele>
        <time>2020-07-20T10:41:47Z</time>
      </trkpt>
      <trkpt lat="42.5412480" lon="3.0385470">
        <ele>-10.8</ele>
        <time>2020-07-20T10:41:49Z</time>
      </trkpt>
      <trkpt lat="42.5412280" lon="3.0389340">
        <ele>-11.4</ele>
        <time>2020-07-20T10:41:53Z</time>
      </trkpt>
      <trkpt lat="42.5411690" lon="3.0395160">
        <ele>-11.0</ele>
        <time>2020-07-20T10:41:59Z</time>
      </trkpt>
      <trkpt lat="42.5411340" lon="3.0397960">
        <ele>-11.6</ele>
        <time>2020-07-20T10:42:02Z</time>
      </trkpt>
      <trkpt lat="42.5411210" lon="3.0398880">
        <ele>-12.0</ele>
        <time>2020-07-20T10:42:03Z</time>
      </trkpt>
      <trkpt lat="42.5410590" lon="3.0403300">
        <ele>-13.0</ele>
        <time>2020-07-20T10:42:08Z</time>
      </trkpt>
      <trkpt lat="42.5410340" lon="3.0406860">
        <ele>-12.6</ele>
        <time>2020-07-20T10:42:13Z</time>
      </trkpt>
      <trkpt lat="42.5410100" lon="3.0411400">
        <ele>-12.4</ele>
        <time>2020-07-20T10:42:19Z</time>
      </trkpt>
      <trkpt lat="42.5409990" lon="3.0413780">
        <ele>-13.0</ele>
        <time>2020-07-20T10:42:22Z</time>
      </trkpt>
      <trkpt lat="42.5410000" lon="3.0417600">
        <ele>-13.2</ele>
        <time>2020-07-20T10:42:27Z</time>
      </trkpt>
      <trkpt lat="42.5410290" lon="3.0421130">
        <ele>-12.6</ele>
        <time>2020-07-20T10:42:32Z</time>
      </trkpt>
      <trkpt lat="42.5410080" lon="3.0422520">
        <ele>-12.4</ele>
        <time>2020-07-20T10:42:34Z</time>
      </trkpt>
      <trkpt lat="42.5409670" lon="3.0424000">
        <ele>-12.4</ele>
        <time>2020-07-20T10:42:36Z</time>
      </trkpt>
      <trkpt lat="42.5408430" lon="3.0428610">
        <ele>-12.2</ele>
        <time>2020-07-20T10:42:42Z</time>
      </trkpt>
      <trkpt lat="42.5408230" lon="3.0429370">
        <ele>-12.2</ele>
        <time>2020-07-20T10:42:43Z</time>
      </trkpt>
      <trkpt lat="42.5408030" lon="3.0430140">
        <ele>-12.2</ele>
        <time>2020-07-20T10:42:44Z</time>
      </trkpt>
      <trkpt lat="42.5407840" lon="3.0430900">
        <ele>-12.0</ele>
        <time>2020-07-20T10:42:45Z</time>
      </trkpt>
      <trkpt lat="42.5406780" lon="3.0435380">
        <ele>-12.2</ele>
        <time>2020-07-20T10:42:51Z</time>
      </trkpt>
      <trkpt lat="42.5406460" lon="3.0436800">
        <ele>-12.4</ele>
        <time>2020-07-20T10:42:53Z</time>
      </trkpt>
      <trkpt lat="42.5405740" lon="3.0439610">
        <ele>-12.8</ele>
        <time>2020-07-20T10:42:57Z</time>
      </trkpt>
      <trkpt lat="42.5405290" lon="3.0441710">
        <ele>-13.0</ele>
        <time>2020-07-20T10:43:00Z</time>
      </trkpt>
      <trkpt lat="42.5405220" lon="3.0442450">
        <ele>-13.2</ele>
        <time>2020-07-20T10:43:01Z</time>
      </trkpt>
      <trkpt lat="42.5405200" lon="3.0443190">
        <ele>-13.2</ele>
        <time>2020-07-20T10:43:02Z</time>
      </trkpt>
      <trkpt lat="42.5405530" lon="3.0446960">
        <ele>-13.4</ele>
        <time>2020-07-20T10:43:07Z</time>
      </trkpt>
      <trkpt lat="42.5406900" lon="3.0451310">
        <ele>-13.8</ele>
        <time>2020-07-20T10:43:13Z</time>
      </trkpt>
      <trkpt lat="42.5407980" lon="3.0453220">
        <ele>-14.2</ele>
        <time>2020-07-20T10:43:16Z</time>
      </trkpt>
      <trkpt lat="42.5409270" lon="3.0455090">
        <ele>-14.4</ele>
        <time>2020-07-20T10:43:19Z</time>
      </trkpt>
      <trkpt lat="42.5410450" lon="3.0457130">
        <ele>-14.6</ele>
        <time>2020-07-20T10:43:22Z</time>
      </trkpt>
      <trkpt lat="42.5410940" lon="3.0458650">
        <ele>-14.6</ele>
        <time>2020-07-20T10:43:24Z</time>
      </trkpt>
      <trkpt lat="42.5411380" lon="3.0460700">
        <ele>-14.8</ele>
        <time>2020-07-20T10:43:27Z</time>
      </trkpt>
      <trkpt lat="42.5411350" lon="3.0461840">
        <ele>-14.8</ele>
        <time>2020-07-20T10:43:29Z</time>
      </trkpt>
      <trkpt lat="42.5411170" lon="3.0463010">
        <ele>-14.8</ele>
        <time>2020-07-20T10:43:31Z</time>
      </trkpt>
      <trkpt lat="42.5411240" lon="3.0464210">
        <ele>-14.6</ele>
        <time>2020-07-20T10:43:33Z</time>
      </trkpt>
      <trkpt lat="42.5411850" lon="3.0464940">
        <ele>-14.6</ele>
        <time>2020-07-20T10:43:35Z</time>
      </trkpt>
      <trkpt lat="42.5412290" lon="3.0465090">
        <ele>-14.2</ele>
        <time>2020-07-20T10:43:36Z</time>
      </trkpt>
      <trkpt lat="42.5412750" lon="3.0465140">
        <ele>-14.0</ele>
        <time>2020-07-20T10:43:37Z</time>
      </trkpt>
      <trkpt lat="42.5414190" lon="3.0465070">
        <ele>-13.6</ele>
        <time>2020-07-20T10:43:40Z</time>
      </trkpt>
      <trkpt lat="42.5414730" lon="3.0465180">
        <ele>-13.6</ele>
        <time>2020-07-20T10:43:41Z</time>
      </trkpt>
      <trkpt lat="42.5416360" lon="3.0465880">
        <ele>-14.0</ele>
        <time>2020-07-20T10:43:44Z</time>
      </trkpt>
      <trkpt lat="42.5418060" lon="3.0466750">
        <ele>-14.2</ele>
        <time>2020-07-20T10:43:47Z</time>
      </trkpt>
      <trkpt lat="42.5421360" lon="3.0468450">
        <ele>-15.2</ele>
        <time>2020-07-20T10:43:53Z</time>
      </trkpt>
      <trkpt lat="42.5421860" lon="3.0468770">
        <ele>-15.2</ele>
        <time>2020-07-20T10:43:54Z</time>
      </trkpt>
      <trkpt lat="42.5422350" lon="3.0469070">
        <ele>-15.2</ele>
        <time>2020-07-20T10:43:55Z</time>
      </trkpt>
      <trkpt lat="42.5424340" lon="3.0470230">
        <ele>-14.8</ele>
        <time>2020-07-20T10:43:59Z</time>
      </trkpt>
      <trkpt lat="42.5425120" lon="3.0471210">
        <ele>-14.6</ele>
        <time>2020-07-20T10:44:01Z</time>
      </trkpt>
      <trkpt lat="42.5425910" lon="3.0473140">
        <ele>-14.4</ele>
        <time>2020-07-20T10:44:04Z</time>
      </trkpt>
      <trkpt lat="42.5426350" lon="3.0474550">
        <ele>-14.4</ele>
        <time>2020-07-20T10:44:06Z</time>
      </trkpt>
      <trkpt lat="42.5427720" lon="3.0478610">
        <ele>-15.0</ele>
        <time>2020-07-20T10:44:12Z</time>
      </trkpt>
      <trkpt lat="42.5427900" lon="3.0479240">
        <ele>-15.0</ele>
        <time>2020-07-20T10:44:13Z</time>
      </trkpt>
      <trkpt lat="42.5428240" lon="3.0480470">
        <ele>-14.8</ele>
        <time>2020-07-20T10:44:15Z</time>
      </trkpt>
      <trkpt lat="42.5429320" lon="3.0484030">
        <ele>-15.0</ele>
        <time>2020-07-20T10:44:21Z</time>
      </trkpt>
      <trkpt lat="42.5430180" lon="3.0486540">
        <ele>-14.8</ele>
        <time>2020-07-20T10:44:25Z</time>
      </trkpt>
      <trkpt lat="42.5431030" lon="3.0489170">
        <ele>-14.8</ele>
        <time>2020-07-20T10:44:29Z</time>
      </trkpt>
      <trkpt lat="42.5431740" lon="3.0491180">
        <ele>-14.4</ele>
        <time>2020-07-20T10:44:32Z</time>
      </trkpt>
      <trkpt lat="42.5431980" lon="3.0491780">
        <ele>-14.2</ele>
        <time>2020-07-20T10:44:33Z</time>
      </trkpt>
      <trkpt lat="42.5432720" lon="3.0493510">
        <ele>-14.0</ele>
        <time>2020-07-20T10:44:36Z</time>
      </trkpt>
      <trkpt lat="42.5433180" lon="3.0494730">
        <ele>-13.8</ele>
        <time>2020-07-20T10:44:38Z</time>
      </trkpt>
      <trkpt lat="42.5433900" lon="3.0495560">
        <ele>-13.8</ele>
        <time>2020-07-20T10:44:40Z</time>
      </trkpt>
      <trkpt lat="42.5434360" lon="3.0495760">
        <ele>-13.6</ele>
        <time>2020-07-20T10:44:41Z</time>
      </trkpt>
      <trkpt lat="42.5434860" lon="3.0495850">
        <ele>-13.6</ele>
        <time>2020-07-20T10:44:42Z</time>
      </trkpt>
      <trkpt lat="42.5435900" lon="3.0496140">
        <ele>-13.4</ele>
        <time>2020-07-20T10:44:44Z</time>
      </trkpt>
      <trkpt lat="42.5436920" lon="3.0496370">
        <ele>-13.2</ele>
        <time>2020-07-20T10:44:46Z</time>
      </trkpt>
      <trkpt lat="42.5438530" lon="3.0496510">
        <ele>-12.8</ele>
        <time>2020-07-20T10:44:49Z</time>
      </trkpt>
      <trkpt lat="42.5439110" lon="3.0496560">
        <ele>-12.8</ele>
        <time>2020-07-20T10:44:50Z</time>
      </trkpt>
      <trkpt lat="42.5442920" lon="3.0496430">
        <ele>-13.4</ele>
        <time>2020-07-20T10:44:56Z</time>
      </trkpt>
      <trkpt lat="42.5446880" lon="3.0494780">
        <ele>-14.0</ele>
        <time>2020-07-20T10:45:02Z</time>
      </trkpt>
      <trkpt lat="42.5450020" lon="3.0492410">
        <ele>-14.2</ele>
        <time>2020-07-20T10:45:08Z</time>
      </trkpt>
      <trkpt lat="42.5451000" lon="3.0491430">
        <ele>-14.0</ele>
        <time>2020-07-20T10:45:10Z</time>
      </trkpt>
      <trkpt lat="42.5453100" lon="3.0489520">
        <ele>-14.2</ele>
        <time>2020-07-20T10:45:14Z</time>
      </trkpt>
      <trkpt lat="42.5453620" lon="3.0489040">
        <ele>-14.0</ele>
        <time>2020-07-20T10:45:15Z</time>
      </trkpt>
      <trkpt lat="42.5454110" lon="3.0488500">
        <ele>-14.0</ele>
        <time>2020-07-20T10:45:16Z</time>
      </trkpt>
      <trkpt lat="42.5454580" lon="3.0487950">
        <ele>-14.0</ele>
        <time>2020-07-20T10:45:17Z</time>
      </trkpt>
      <trkpt lat="42.5455020" lon="3.0487360">
        <ele>-14.2</ele>
        <time>2020-07-20T10:45:18Z</time>
      </trkpt>
      <trkpt lat="42.5455950" lon="3.0486190">
        <ele>-14.4</ele>
        <time>2020-07-20T10:45:20Z</time>
      </trkpt>
      <trkpt lat="42.5459290" lon="3.0483100">
        <ele>-14.8</ele>
        <time>2020-07-20T10:45:26Z</time>
      </trkpt>
      <trkpt lat="42.5459890" lon="3.0482600">
        <ele>-14.6</ele>
        <time>2020-07-20T10:45:27Z</time>
      </trkpt>
      <trkpt lat="42.5462450" lon="3.0480840">
        <ele>-14.2</ele>
        <time>2020-07-20T10:45:31Z</time>
      </trkpt>
      <trkpt lat="42.5464360" lon="3.0479630">
        <ele>-14.4</ele>
        <time>2020-07-20T10:45:34Z</time>
      </trkpt>
      <trkpt lat="42.5468280" lon="3.0477760">
        <ele>-14.8</ele>
        <time>2020-07-20T10:45:40Z</time>
      </trkpt>
      <trkpt lat="42.5468900" lon="3.0477490">
        <ele>-15.0</ele>
        <time>2020-07-20T10:45:41Z</time>
      </trkpt>
      <trkpt lat="42.5471500" lon="3.0476570">
        <ele>-15.4</ele>
        <time>2020-07-20T10:45:45Z</time>
      </trkpt>
      <trkpt lat="42.5472110" lon="3.0476350">
        <ele>-15.4</ele>
        <time>2020-07-20T10:45:46Z</time>
      </trkpt>
      <trkpt lat="42.5472730" lon="3.0476170">
        <ele>-15.4</ele>
        <time>2020-07-20T10:45:47Z</time>
      </trkpt>
      <trkpt lat="42.5473870" lon="3.0475850">
        <ele>-15.0</ele>
        <time>2020-07-20T10:45:49Z</time>
      </trkpt>
      <trkpt lat="42.5474430" lon="3.0475810">
        <ele>-14.8</ele>
        <time>2020-07-20T10:45:50Z</time>
      </trkpt>
      <trkpt lat="42.5476000" lon="3.0476130">
        <ele>-14.6</ele>
        <time>2020-07-20T10:45:53Z</time>
      </trkpt>
      <trkpt lat="42.5476870" lon="3.0475830">
        <ele>-14.4</ele>
        <time>2020-07-20T10:45:55Z</time>
      </trkpt>
      <trkpt lat="42.5477190" lon="3.0475560">
        <ele>-14.2</ele>
        <time>2020-07-20T10:45:56Z</time>
      </trkpt>
      <trkpt lat="42.5477910" lon="3.0475050">
        <ele>-14.0</ele>
        <time>2020-07-20T10:45:58Z</time>
      </trkpt>
      <trkpt lat="42.5479260" lon="3.0474580">
        <ele>-14.0</ele>
        <time>2020-07-20T10:46:01Z</time>
      </trkpt>
      <trkpt lat="42.5481380" lon="3.0474120">
        <ele>-14.2</ele>
        <time>2020-07-20T10:46:05Z</time>
      </trkpt>
      <trkpt lat="42.5483600" lon="3.0473570">
        <ele>-13.8</ele>
        <time>2020-07-20T10:46:09Z</time>
      </trkpt>
      <trkpt lat="42.5485370" lon="3.0473420">
        <ele>-13.4</ele>
        <time>2020-07-20T10:46:12Z</time>
      </trkpt>
      <trkpt lat="42.5488310" lon="3.0472910">
        <ele>-13.6</ele>
        <time>2020-07-20T10:46:17Z</time>
      </trkpt>
      <trkpt lat="42.5490070" lon="3.0472590">
        <ele>-13.2</ele>
        <time>2020-07-20T10:46:20Z</time>
      </trkpt>
      <trkpt lat="42.5492360" lon="3.0472060">
        <ele>-13.0</ele>
        <time>2020-07-20T10:46:24Z</time>
      </trkpt>
      <trkpt lat="42.5494130" lon="3.0471850">
        <ele>-13.0</ele>
        <time>2020-07-20T10:46:27Z</time>
      </trkpt>
      <trkpt lat="42.5496460" lon="3.0471580">
        <ele>-12.6</ele>
        <time>2020-07-20T10:46:31Z</time>
      </trkpt>
      <trkpt lat="42.5497630" lon="3.0471520">
        <ele>-12.6</ele>
        <time>2020-07-20T10:46:33Z</time>
      </trkpt>
      <trkpt lat="42.5500480" lon="3.0471150">
        <ele>-12.6</ele>
        <time>2020-07-20T10:46:38Z</time>
      </trkpt>
      <trkpt lat="42.5503780" lon="3.0470380">
        <ele>-12.4</ele>
        <time>2020-07-20T10:46:44Z</time>
      </trkpt>
      <trkpt lat="42.5505390" lon="3.0469860">
        <ele>-12.4</ele>
        <time>2020-07-20T10:46:47Z</time>
      </trkpt>
      <trkpt lat="42.5507290" lon="3.0468980">
        <ele>-12.4</ele>
        <time>2020-07-20T10:46:51Z</time>
      </trkpt>
      <trkpt lat="42.5508300" lon="3.0468720">
        <ele>-12.4</ele>
        <time>2020-07-20T10:46:53Z</time>
      </trkpt>
      <trkpt lat="42.5509620" lon="3.0468690">
        <ele>-12.8</ele>
        <time>2020-07-20T10:46:56Z</time>
      </trkpt>
      <trkpt lat="42.5510000" lon="3.0468580">
        <ele>-12.8</ele>
        <time>2020-07-20T10:46:57Z</time>
      </trkpt>
      <trkpt lat="42.5511250" lon="3.0467550">
        <ele>-12.4</ele>
        <time>2020-07-20T10:47:01Z</time>
      </trkpt>
      <trkpt lat="42.5511530" lon="3.0467370">
        <ele>-12.4</ele>
        <time>2020-07-20T10:47:02Z</time>
      </trkpt>
      <trkpt lat="42.5512940" lon="3.0466720">
        <ele>-13.0</ele>
        <time>2020-07-20T10:47:06Z</time>
      </trkpt>
      <trkpt lat="42.5514030" lon="3.0466000">
        <ele>-13.4</ele>
        <time>2020-07-20T10:47:10Z</time>
      </trkpt>
      <trkpt lat="42.5514220" lon="3.0465970">
        <ele>-13.4</ele>
        <time>2020-07-20T10:47:11Z</time>
      </trkpt>
      <trkpt lat="42.5514430" lon="3.0465930">
        <ele>-13.4</ele>
        <time>2020-07-20T10:47:12Z</time>
      </trkpt>
      <trkpt lat="42.5514710" lon="3.0465830">
        <ele>-13.4</ele>
        <time>2020-07-20T10:47:13Z</time>
      </trkpt>
      <trkpt lat="42.5515040" lon="3.0465650">
        <ele>-13.4</ele>
        <time>2020-07-20T10:47:14Z</time>
      </trkpt>
      <trkpt lat="42.5515380" lon="3.0465310">
        <ele>-13.6</ele>
        <time>2020-07-20T10:47:15Z</time>
      </trkpt>
      <trkpt lat="42.5516950" lon="3.0463800">
        <ele>-13.6</ele>
        <time>2020-07-20T10:47:19Z</time>
      </trkpt>
      <trkpt lat="42.5517360" lon="3.0463460">
        <ele>-13.6</ele>
        <time>2020-07-20T10:47:20Z</time>
      </trkpt>
      <trkpt lat="42.5518230" lon="3.0462680">
        <ele>-13.6</ele>
        <time>2020-07-20T10:47:22Z</time>
      </trkpt>
      <trkpt lat="42.5519470" lon="3.0461430">
        <ele>-14.4</ele>
        <time>2020-07-20T10:47:25Z</time>
      </trkpt>
      <trkpt lat="42.5522190" lon="3.0458900">
        <ele>-14.8</ele>
        <time>2020-07-20T10:47:31Z</time>
      </trkpt>
      <trkpt lat="42.5522650" lon="3.0458530">
        <ele>-14.8</ele>
        <time>2020-07-20T10:47:32Z</time>
      </trkpt>
      <trkpt lat="42.5524690" lon="3.0456490">
        <ele>-14.6</ele>
        <time>2020-07-20T10:47:37Z</time>
      </trkpt>
      <trkpt lat="42.5525900" lon="3.0455580">
        <ele>-14.0</ele>
        <time>2020-07-20T10:47:40Z</time>
      </trkpt>
      <trkpt lat="42.5527950" lon="3.0453670">
        <ele>-13.6</ele>
        <time>2020-07-20T10:47:45Z</time>
      </trkpt>
      <trkpt lat="42.5528700" lon="3.0452880">
        <ele>-13.4</ele>
        <time>2020-07-20T10:47:47Z</time>
      </trkpt>
      <trkpt lat="42.5529090" lon="3.0452550">
        <ele>-13.4</ele>
        <time>2020-07-20T10:47:48Z</time>
      </trkpt>
      <trkpt lat="42.5530840" lon="3.0451230">
        <ele>-13.2</ele>
        <time>2020-07-20T10:47:53Z</time>
      </trkpt>
      <trkpt lat="42.5531130" lon="3.0451280">
        <ele>-13.2</ele>
        <time>2020-07-20T10:47:54Z</time>
      </trkpt>
      <trkpt lat="42.5531580" lon="3.0451230">
        <ele>-13.0</ele>
        <time>2020-07-20T10:47:56Z</time>
      </trkpt>
      <trkpt lat="42.5531790" lon="3.0450720">
        <ele>-12.6</ele>
        <time>2020-07-20T10:47:58Z</time>
      </trkpt>
      <trkpt lat="42.5531790" lon="3.0450350">
        <ele>-12.4</ele>
        <time>2020-07-20T10:47:59Z</time>
      </trkpt>
      <trkpt lat="42.5531590" lon="3.0449190">
        <ele>-12.2</ele>
        <time>2020-07-20T10:48:02Z</time>
      </trkpt>
      <trkpt lat="42.5531680" lon="3.0448800">
        <ele>-12.2</ele>
        <time>2020-07-20T10:48:03Z</time>
      </trkpt>
      <trkpt lat="42.5532200" lon="3.0447620">
        <ele>-12.0</ele>
        <time>2020-07-20T10:48:06Z</time>
      </trkpt>
      <trkpt lat="42.5532770" lon="3.0446940">
        <ele>-12.0</ele>
        <time>2020-07-20T10:48:09Z</time>
      </trkpt>
      <trkpt lat="42.5532740" lon="3.0446710">
        <ele>-12.0</ele>
        <time>2020-07-20T10:48:10Z</time>
      </trkpt>
      <trkpt lat="42.5532030" lon="3.0445890">
        <ele>-12.2</ele>
        <time>2020-07-20T10:48:14Z</time>
      </trkpt>
      <trkpt lat="42.5531960" lon="3.0443600">
        <ele>-12.2</ele>
        <time>2020-07-20T10:48:16Z</time>
      </trkpt>
      <trkpt lat="42.5532110" lon="3.0441630">
        <ele>-12.8</ele>
        <time>2020-07-20T10:49:20Z</time>
      </trkpt>
      <trkpt lat="42.5532270" lon="3.0439660">
        <ele>-12.6</ele>
        <time>2020-07-20T10:49:21Z</time>
      </trkpt>
      <trkpt lat="42.5532460" lon="3.0439070">
        <ele>-12.6</ele>
        <time>2020-07-20T10:49:22Z</time>
      </trkpt>
      <trkpt lat="42.5533820" lon="3.0436340">
        <ele>-12.2</ele>
        <time>2020-07-20T10:49:27Z</time>
      </trkpt>
      <trkpt lat="42.5534520" lon="3.0435330">
        <ele>-12.4</ele>
        <time>2020-07-20T10:49:29Z</time>
      </trkpt>
      <trkpt lat="42.5534910" lon="3.0434840">
        <ele>-12.6</ele>
        <time>2020-07-20T10:49:30Z</time>
      </trkpt>
      <trkpt lat="42.5535710" lon="3.0433940">
        <ele>-12.6</ele>
        <time>2020-07-20T10:49:32Z</time>
      </trkpt>
      <trkpt lat="42.5536130" lon="3.0433540">
        <ele>-12.6</ele>
        <time>2020-07-20T10:49:33Z</time>
      </trkpt>
      <trkpt lat="42.5537550" lon="3.0432500">
        <ele>-12.8</ele>
        <time>2020-07-20T10:49:36Z</time>
      </trkpt>
      <trkpt lat="42.5539120" lon="3.0431740">
        <ele>-12.8</ele>
        <time>2020-07-20T10:49:39Z</time>
      </trkpt>
      <trkpt lat="42.5541660" lon="3.0430760">
        <ele>-13.4</ele>
        <time>2020-07-20T10:49:44Z</time>
      </trkpt>
      <trkpt lat="42.5542720" lon="3.0430380">
        <ele>-13.6</ele>
        <time>2020-07-20T10:49:46Z</time>
      </trkpt>
      <trkpt lat="42.5545960" lon="3.0429160">
        <ele>-13.4</ele>
        <time>2020-07-20T10:49:52Z</time>
      </trkpt>
      <trkpt lat="42.5547000" lon="3.0428750">
        <ele>-13.4</ele>
        <time>2020-07-20T10:49:54Z</time>
      </trkpt>
      <trkpt lat="42.5547460" lon="3.0428620">
        <ele>-13.4</ele>
        <time>2020-07-20T10:49:55Z</time>
      </trkpt>
      <trkpt lat="42.5548240" lon="3.0428560">
        <ele>-13.4</ele>
        <time>2020-07-20T10:49:57Z</time>
      </trkpt>
      <trkpt lat="42.5556480" lon="3.0425540">
        <ele>-13.0</ele>
        <time>2020-07-20T11:13:03Z</time>
      </trkpt>
      <trkpt lat="42.5558800" lon="3.0425060">
        <ele>-12.0</ele>
        <time>2020-07-20T11:13:08Z</time>
      </trkpt>
      <trkpt lat="42.5559300" lon="3.0424880">
        <ele>-11.8</ele>
        <time>2020-07-20T11:13:09Z</time>
      </trkpt>
      <trkpt lat="42.5560300" lon="3.0424400">
        <ele>-11.6</ele>
        <time>2020-07-20T11:13:11Z</time>
      </trkpt>
      <trkpt lat="42.5563260" lon="3.0422910">
        <ele>-11.6</ele>
        <time>2020-07-20T11:13:17Z</time>
      </trkpt>
      <trkpt lat="42.5565760" lon="3.0421690">
        <ele>-12.0</ele>
        <time>2020-07-20T11:13:22Z</time>
      </trkpt>
      <trkpt lat="42.5566770" lon="3.0421140">
        <ele>-12.0</ele>
        <time>2020-07-20T11:13:24Z</time>
      </trkpt>
      <trkpt lat="42.5568760" lon="3.0420100">
        <ele>-11.8</ele>
        <time>2020-07-20T11:13:28Z</time>
      </trkpt>
      <trkpt lat="42.5570200" lon="3.0419460">
        <ele>-11.8</ele>
        <time>2020-07-20T11:13:31Z</time>
      </trkpt>
      <trkpt lat="42.5573100" lon="3.0418520">
        <ele>-11.8</ele>
        <time>2020-07-20T11:13:37Z</time>
      </trkpt>
      <trkpt lat="42.5574080" lon="3.0418240">
        <ele>-11.8</ele>
        <time>2020-07-20T11:13:39Z</time>
      </trkpt>
      <trkpt lat="42.5575080" lon="3.0417960">
        <ele>-11.6</ele>
        <time>2020-07-20T11:13:41Z</time>
      </trkpt>
      <trkpt lat="42.5575600" lon="3.0417830">
        <ele>-11.4</ele>
        <time>2020-07-20T11:13:42Z</time>
      </trkpt>
      <trkpt lat="42.5577150" lon="3.0417380">
        <ele>-11.4</ele>
        <time>2020-07-20T11:13:45Z</time>
      </trkpt>
      <trkpt lat="42.5578170" lon="3.0417050">
        <ele>-11.4</ele>
        <time>2020-07-20T11:13:47Z</time>
      </trkpt>
      <trkpt lat="42.5578670" lon="3.0416870">
        <ele>-11.4</ele>
        <time>2020-07-20T11:13:48Z</time>
      </trkpt>
      <trkpt lat="42.5580130" lon="3.0416360">
        <ele>-11.2</ele>
        <time>2020-07-20T11:13:51Z</time>
      </trkpt>
      <trkpt lat="42.5582120" lon="3.0415910">
        <ele>-11.4</ele>
        <time>2020-07-20T11:13:55Z</time>
      </trkpt>
      <trkpt lat="42.5583310" lon="3.0415770">
        <ele>-10.8</ele>
        <time>2020-07-20T11:13:59Z</time>
      </trkpt>
      <trkpt lat="42.5584560" lon="3.0415520">
        <ele>-10.8</ele>
        <time>2020-07-20T11:14:04Z</time>
      </trkpt>
      <trkpt lat="42.5587070" lon="3.0414860">
        <ele>-11.0</ele>
        <time>2020-07-20T11:14:10Z</time>
      </trkpt>
      <trkpt lat="42.5587510" lon="3.0414770">
        <ele>-11.0</ele>
        <time>2020-07-20T11:14:11Z</time>
      </trkpt>
      <trkpt lat="42.5589870" lon="3.0414300">
        <ele>-11.0</ele>
        <time>2020-07-20T11:14:17Z</time>
      </trkpt>
      <trkpt lat="42.5590640" lon="3.0414140">
        <ele>-10.8</ele>
        <time>2020-07-20T11:14:19Z</time>
      </trkpt>
      <trkpt lat="42.5591400" lon="3.0414010">
        <ele>-10.8</ele>
        <time>2020-07-20T11:14:21Z</time>
      </trkpt>
      <trkpt lat="42.5592240" lon="3.0413870">
        <ele>-10.8</ele>
        <time>2020-07-20T11:14:23Z</time>
      </trkpt>
      <trkpt lat="42.5593550" lon="3.0413650">
        <ele>-11.2</ele>
        <time>2020-07-20T11:14:26Z</time>
      </trkpt>
      <trkpt lat="42.5594030" lon="3.0413670">
        <ele>-11.2</ele>
        <time>2020-07-20T11:14:27Z</time>
      </trkpt>
      <trkpt lat="42.5594500" lon="3.0413730">
        <ele>-11.4</ele>
        <time>2020-07-20T11:14:28Z</time>
      </trkpt>
      <trkpt lat="42.5594970" lon="3.0413740">
        <ele>-11.4</ele>
        <time>2020-07-20T11:14:29Z</time>
      </trkpt>
      <trkpt lat="42.5595850" lon="3.0413480">
        <ele>-11.4</ele>
        <time>2020-07-20T11:14:31Z</time>
      </trkpt>
      <trkpt lat="42.5596870" lon="3.0413270">
        <ele>-10.8</ele>
        <time>2020-07-20T11:14:35Z</time>
      </trkpt>
      <trkpt lat="42.5596260" lon="3.0413060">
        <ele>-10.4</ele>
        <time>2020-07-20T11:14:38Z</time>
      </trkpt>
      <trkpt lat="42.5595550" lon="3.0412830">
        <ele>-11.0</ele>
        <time>2020-07-20T11:15:53Z</time>
      </trkpt>
      <trkpt lat="42.5594850" lon="3.0412600">
        <ele>-10.8</ele>
        <time>2020-07-20T11:15:54Z</time>
      </trkpt>
      <trkpt lat="42.5594440" lon="3.0412650">
        <ele>-10.8</ele>
        <time>2020-07-20T11:15:55Z</time>
      </trkpt>
      <trkpt lat="42.5593490" lon="3.0412590">
        <ele>-11.0</ele>
        <time>2020-07-20T11:15:57Z</time>
      </trkpt>
      <trkpt lat="42.5590360" lon="3.0413030">
        <ele>-11.2</ele>
        <time>2020-07-20T11:16:03Z</time>
      </trkpt>
      <trkpt lat="42.5588760" lon="3.0413340">
        <ele>-11.2</ele>
        <time>2020-07-20T11:16:06Z</time>
      </trkpt>
      <trkpt lat="42.5585660" lon="3.0414110">
        <ele>-11.8</ele>
        <time>2020-07-20T11:16:12Z</time>
      </trkpt>
      <trkpt lat="42.5585150" lon="3.0414240">
        <ele>-11.8</ele>
        <time>2020-07-20T11:16:13Z</time>
      </trkpt>
      <trkpt lat="42.5584130" lon="3.0414520">
        <ele>-11.6</ele>
        <time>2020-07-20T11:16:15Z</time>
      </trkpt>
      <trkpt lat="42.5583100" lon="3.0414770">
        <ele>-11.4</ele>
        <time>2020-07-20T11:16:17Z</time>
      </trkpt>
      <trkpt lat="42.5581520" lon="3.0415210">
        <ele>-11.4</ele>
        <time>2020-07-20T11:16:20Z</time>
      </trkpt>
      <trkpt lat="42.5580480" lon="3.0415490">
        <ele>-11.6</ele>
        <time>2020-07-20T11:16:22Z</time>
      </trkpt>
      <trkpt lat="42.5577510" lon="3.0416420">
        <ele>-11.4</ele>
        <time>2020-07-20T11:16:28Z</time>
      </trkpt>
      <trkpt lat="42.5574940" lon="3.0417080">
        <ele>-11.6</ele>
        <time>2020-07-20T11:16:34Z</time>
      </trkpt>
      <trkpt lat="42.5574600" lon="3.0417090">
        <ele>-11.6</ele>
        <time>2020-07-20T11:16:35Z</time>
      </trkpt>
      <trkpt lat="42.5572420" lon="3.0417350">
        <ele>-11.2</ele>
        <time>2020-07-20T11:16:41Z</time>
      </trkpt>
      <trkpt lat="42.5570600" lon="3.0417760">
        <ele>-11.0</ele>
        <time>2020-07-20T11:16:47Z</time>
      </trkpt>
      <trkpt lat="42.5570290" lon="3.0417890">
        <ele>-11.0</ele>
        <time>2020-07-20T11:16:49Z</time>
      </trkpt>
      <trkpt lat="42.5570070" lon="3.0417690">
        <ele>-10.8</ele>
        <time>2020-07-20T11:16:51Z</time>
      </trkpt>
      <trkpt lat="42.5569980" lon="3.0417380">
        <ele>-10.8</ele>
        <time>2020-07-20T11:16:52Z</time>
      </trkpt>
      <trkpt lat="42.5569850" lon="3.0415880">
        <ele>-10.8</ele>
        <time>2020-07-20T11:16:55Z</time>
      </trkpt>
      <trkpt lat="42.5569750" lon="3.0413490">
        <ele>-11.0</ele>
        <time>2020-07-20T11:16:59Z</time>
      </trkpt>
      <trkpt lat="42.5569710" lon="3.0412200">
        <ele>-11.4</ele>
        <time>2020-07-20T11:17:01Z</time>
      </trkpt>
      <trkpt lat="42.5569670" lon="3.0411560">
        <ele>-11.4</ele>
        <time>2020-07-20T11:17:02Z</time>
      </trkpt>
      <trkpt lat="42.5569230" lon="3.0409040">
        <ele>-11.4</ele>
        <time>2020-07-20T11:17:07Z</time>
      </trkpt>
      <trkpt lat="42.5569090" lon="3.0408970">
        <ele>-11.4</ele>
        <time>2020-07-20T11:17:08Z</time>
      </trkpt>
      <trkpt lat="42.5568830" lon="3.0408810">
        <ele>-11.2</ele>
        <time>2020-07-20T11:17:11Z</time>
      </trkpt>
      <trkpt lat="42.5568760" lon="3.0408920">
        <ele>-11.2</ele>
        <time>2020-07-20T11:17:12Z</time>
      </trkpt>
      <trkpt lat="42.5568780" lon="3.0409030">
        <ele>-11.0</ele>
        <time>2020-07-20T11:17:15Z</time>
      </trkpt>
      <trkpt lat="42.5568880" lon="3.0408900">
        <ele>-11.0</ele>
        <time>2020-07-20T11:17:19Z</time>
      </trkpt>
      <trkpt lat="42.5568890" lon="3.0408880">
        <ele>-11.0</ele>
        <time>2020-07-20T11:17:20Z</time>
      </trkpt>
      <trkpt lat="42.5568950" lon="3.0408790">
        <ele>-11.0</ele>
        <time>2020-07-20T11:17:24Z</time>
      </trkpt>
      <trkpt lat="42.5569200" lon="3.0408860">
        <ele>-11.0</ele>
        <time>2020-07-20T11:17:28Z</time>
      </trkpt>
      <trkpt lat="42.5569320" lon="3.0409240">
        <ele>-11.0</ele>
        <time>2020-07-20T11:17:30Z</time>
      </trkpt>
      <trkpt lat="42.5569360" lon="3.0409480">
        <ele>-11.0</ele>
        <time>2020-07-20T11:17:31Z</time>
      </trkpt>
      <trkpt lat="42.5569400" lon="3.0410560">
        <ele>-11.4</ele>
        <time>2020-07-20T11:17:34Z</time>
      </trkpt>
      <trkpt lat="42.5569360" lon="3.0411350">
        <ele>-11.4</ele>
        <time>2020-07-20T11:17:36Z</time>
      </trkpt>
      <trkpt lat="42.5569510" lon="3.0413650">
        <ele>-11.6</ele>
        <time>2020-07-20T11:17:41Z</time>
      </trkpt>
      <trkpt lat="42.5569520" lon="3.0414150">
        <ele>-11.6</ele>
        <time>2020-07-20T11:17:42Z</time>
      </trkpt>
      <trkpt lat="42.5569690" lon="3.0417040">
        <ele>-11.4</ele>
        <time>2020-07-20T11:17:48Z</time>
      </trkpt>
      <trkpt lat="42.5569680" lon="3.0417470">
        <ele>-11.4</ele>
        <time>2020-07-20T11:17:49Z</time>
      </trkpt>
      <trkpt lat="42.5569470" lon="3.0419380">
        <ele>-11.0</ele>
        <time>2020-07-20T11:17:55Z</time>
      </trkpt>
      <trkpt lat="42.5568420" lon="3.0420200">
        <ele>-11.2</ele>
        <time>2020-07-20T11:17:59Z</time>
      </trkpt>
      <trkpt lat="42.5566010" lon="3.0421210">
        <ele>-11.4</ele>
        <time>2020-07-20T11:18:05Z</time>
      </trkpt>
      <trkpt lat="42.5565570" lon="3.0421390">
        <ele>-11.4</ele>
        <time>2020-07-20T11:18:06Z</time>
      </trkpt>
      <trkpt lat="42.5562920" lon="3.0422750">
        <ele>-11.4</ele>
        <time>2020-07-20T11:18:12Z</time>
      </trkpt>
      <trkpt lat="42.5561990" lon="3.0423250">
        <ele>-11.4</ele>
        <time>2020-07-20T11:18:14Z</time>
      </trkpt>
      <trkpt lat="42.5559050" lon="3.0424490">
        <ele>-11.2</ele>
        <time>2020-07-20T11:18:20Z</time>
      </trkpt>
      <trkpt lat="42.5558550" lon="3.0424660">
        <ele>-11.2</ele>
        <time>2020-07-20T11:18:21Z</time>
      </trkpt>
      <trkpt lat="42.5555510" lon="3.0425610">
        <ele>-11.2</ele>
        <time>2020-07-20T11:18:27Z</time>
      </trkpt>
      <trkpt lat="42.5553520" lon="3.0426080">
        <ele>-11.2</ele>
        <time>2020-07-20T11:18:31Z</time>
      </trkpt>
      <trkpt lat="42.5553020" lon="3.0426140">
        <ele>-11.2</ele>
        <time>2020-07-20T11:18:32Z</time>
      </trkpt>
      <trkpt lat="42.5552520" lon="3.0426160">
        <ele>-11.2</ele>
        <time>2020-07-20T11:18:33Z</time>
      </trkpt>
      <trkpt lat="42.5552010" lon="3.0426220">
        <ele>-11.2</ele>
        <time>2020-07-20T11:18:34Z</time>
      </trkpt>
      <trkpt lat="42.5551010" lon="3.0426420">
        <ele>-11.4</ele>
        <time>2020-07-20T11:18:36Z</time>
      </trkpt>
      <trkpt lat="42.5550030" lon="3.0426640">
        <ele>-11.6</ele>
        <time>2020-07-20T11:18:38Z</time>
      </trkpt>
      <trkpt lat="42.5549060" lon="3.0426760">
        <ele>-11.6</ele>
        <time>2020-07-20T11:18:40Z</time>
      </trkpt>
      <trkpt lat="42.5546590" lon="3.0427360">
        <ele>-11.0</ele>
        <time>2020-07-20T11:18:45Z</time>
      </trkpt>
      <trkpt lat="42.5543610" lon="3.0428440">
        <ele>-11.4</ele>
        <time>2020-07-20T11:18:51Z</time>
      </trkpt>
      <trkpt lat="42.5542590" lon="3.0428850">
        <ele>-11.4</ele>
        <time>2020-07-20T11:18:53Z</time>
      </trkpt>
      <trkpt lat="42.5539460" lon="3.0430060">
        <ele>-11.2</ele>
        <time>2020-07-20T11:18:59Z</time>
      </trkpt>
      <trkpt lat="42.5538690" lon="3.0430420">
        <ele>-11.0</ele>
        <time>2020-07-20T11:19:01Z</time>
      </trkpt>
      <trkpt lat="42.5537360" lon="3.0430680">
        <ele>-10.8</ele>
        <time>2020-07-20T11:19:06Z</time>
      </trkpt>
      <trkpt lat="42.5537010" lon="3.0430870">
        <ele>-10.8</ele>
        <time>2020-07-20T11:19:09Z</time>
      </trkpt>
      <trkpt lat="42.5537000" lon="3.0430900">
        <ele>-10.8</ele>
        <time>2020-07-20T11:19:10Z</time>
      </trkpt>
      <trkpt lat="42.5537040" lon="3.0430950">
        <ele>-10.8</ele>
        <time>2020-07-20T11:19:16Z</time>
      </trkpt>
      <trkpt lat="42.5537050" lon="3.0430990">
        <ele>-11.0</ele>
        <time>2020-07-20T11:19:21Z</time>
      </trkpt>
      <trkpt lat="42.5537050" lon="3.0431000">
        <ele>-11.0</ele>
        <time>2020-07-20T11:19:22Z</time>
      </trkpt>
      <trkpt lat="42.5537080" lon="3.0431010">
        <ele>-11.0</ele>
        <time>2020-07-20T11:19:25Z</time>
      </trkpt>
      <trkpt lat="42.5537150" lon="3.0431100">
        <ele>-11.2</ele>
        <time>2020-07-20T11:19:29Z</time>
      </trkpt>
      <trkpt lat="42.5537170" lon="3.0431090">
        <ele>-11.2</ele>
        <time>2020-07-20T11:19:31Z</time>
      </trkpt>
      <trkpt lat="42.5537210" lon="3.0431120">
        <ele>-11.2</ele>
        <time>2020-07-20T11:19:32Z</time>
      </trkpt>
      <trkpt lat="42.5537270" lon="3.0431250">
        <ele>-11.2</ele>
        <time>2020-07-20T11:19:34Z</time>
      </trkpt>
      <trkpt lat="42.5537050" lon="3.0431760">
        <ele>-11.2</ele>
        <time>2020-07-20T11:19:37Z</time>
      </trkpt>
      <trkpt lat="42.5536610" lon="3.0432450">
        <ele>-10.8</ele>
        <time>2020-07-20T11:19:42Z</time>
      </trkpt>
      <trkpt lat="42.5535390" lon="3.0433470">
        <ele>-10.6</ele>
        <time>2020-07-20T11:19:48Z</time>
      </trkpt>
      <trkpt lat="42.5534030" lon="3.0434720">
        <ele>-11.2</ele>
        <time>2020-07-20T11:19:52Z</time>
      </trkpt>
      <trkpt lat="42.5533660" lon="3.0435210">
        <ele>-11.2</ele>
        <time>2020-07-20T11:19:53Z</time>
      </trkpt>
      <trkpt lat="42.5532060" lon="3.0438150">
        <ele>-11.8</ele>
        <time>2020-07-20T11:19:58Z</time>
      </trkpt>
      <trkpt lat="42.5531820" lon="3.0438820">
        <ele>-11.8</ele>
        <time>2020-07-20T11:19:59Z</time>
      </trkpt>
      <trkpt lat="42.5531600" lon="3.0439500">
        <ele>-12.0</ele>
        <time>2020-07-20T11:20:00Z</time>
      </trkpt>
      <trkpt lat="42.5530660" lon="3.0443610">
        <ele>-12.2</ele>
        <time>2020-07-20T11:20:06Z</time>
      </trkpt>
      <trkpt lat="42.5530140" lon="3.0446320">
        <ele>-11.6</ele>
        <time>2020-07-20T11:20:10Z</time>
      </trkpt>
      <trkpt lat="42.5529640" lon="3.0448060">
        <ele>-11.6</ele>
        <time>2020-07-20T11:20:13Z</time>
      </trkpt>
      <trkpt lat="42.5529350" lon="3.0449220">
        <ele>-11.6</ele>
        <time>2020-07-20T11:20:15Z</time>
      </trkpt>
      <trkpt lat="42.5529080" lon="3.0450250">
        <ele>-11.6</ele>
        <time>2020-07-20T11:20:17Z</time>
      </trkpt>
      <trkpt lat="42.5528870" lon="3.0450760">
        <ele>-11.4</ele>
        <time>2020-07-20T11:20:18Z</time>
      </trkpt>
      <trkpt lat="42.5528570" lon="3.0451200">
        <ele>-11.4</ele>
        <time>2020-07-20T11:20:19Z</time>
      </trkpt>
      <trkpt lat="42.5526650" lon="3.0453760">
        <ele>-11.4</ele>
        <time>2020-07-20T11:20:24Z</time>
      </trkpt>
      <trkpt lat="42.5523700" lon="3.0456500">
        <ele>-12.6</ele>
        <time>2020-07-20T11:20:30Z</time>
      </trkpt>
      <trkpt lat="42.5520810" lon="3.0459080">
        <ele>-12.4</ele>
        <time>2020-07-20T11:20:36Z</time>
      </trkpt>
      <trkpt lat="42.5519370" lon="3.0460330">
        <ele>-12.4</ele>
        <time>2020-07-20T11:20:39Z</time>
      </trkpt>
      <trkpt lat="42.5518510" lon="3.0461010">
        <ele>-12.6</ele>
        <time>2020-07-20T11:20:41Z</time>
      </trkpt>
      <trkpt lat="42.5516300" lon="3.0462950">
        <ele>-12.0</ele>
        <time>2020-07-20T11:20:46Z</time>
      </trkpt>
      <trkpt lat="42.5514580" lon="3.0464460">
        <ele>-11.6</ele>
        <time>2020-07-20T11:20:50Z</time>
      </trkpt>
      <trkpt lat="42.5513740" lon="3.0465080">
        <ele>-11.0</ele>
        <time>2020-07-20T11:20:52Z</time>
      </trkpt>
      <trkpt lat="42.5513300" lon="3.0465310">
        <ele>-10.8</ele>
        <time>2020-07-20T11:20:53Z</time>
      </trkpt>
      <trkpt lat="42.5511880" lon="3.0465770">
        <ele>-10.6</ele>
        <time>2020-07-20T11:20:56Z</time>
      </trkpt>
      <trkpt lat="42.5511390" lon="3.0465750">
        <ele>-10.4</ele>
        <time>2020-07-20T11:20:57Z</time>
      </trkpt>
      <trkpt lat="42.5510890" lon="3.0465630">
        <ele>-10.6</ele>
        <time>2020-07-20T11:20:58Z</time>
      </trkpt>
      <trkpt lat="42.5509890" lon="3.0465210">
        <ele>-10.6</ele>
        <time>2020-07-20T11:21:00Z</time>
      </trkpt>
      <trkpt lat="42.5509430" lon="3.0464910">
        <ele>-10.6</ele>
        <time>2020-07-20T11:21:01Z</time>
      </trkpt>
      <trkpt lat="42.5509060" lon="3.0464480">
        <ele>-10.4</ele>
        <time>2020-07-20T11:21:02Z</time>
      </trkpt>
      <trkpt lat="42.5508680" lon="3.0463240">
        <ele>-10.2</ele>
        <time>2020-07-20T11:21:04Z</time>
      </trkpt>
      <trkpt lat="42.5508030" lon="3.0459590">
        <ele>-9.8</ele>
        <time>2020-07-20T11:21:09Z</time>
      </trkpt>
      <trkpt lat="42.5507760" lon="3.0458080">
        <ele>-9.6</ele>
        <time>2020-07-20T11:21:11Z</time>
      </trkpt>
      <trkpt lat="42.5507600" lon="3.0457350">
        <ele>-9.6</ele>
        <time>2020-07-20T11:21:12Z</time>
      </trkpt>
      <trkpt lat="42.5506740" lon="3.0452970">
        <ele>-9.6</ele>
        <time>2020-07-20T11:21:18Z</time>
      </trkpt>
      <trkpt lat="42.5506450" lon="3.0451490">
        <ele>-9.4</ele>
        <time>2020-07-20T11:21:20Z</time>
      </trkpt>
      <trkpt lat="42.5505700" lon="3.0447810">
        <ele>-9.0</ele>
        <time>2020-07-20T11:21:25Z</time>
      </trkpt>
      <trkpt lat="42.5505060" lon="3.0444680">
        <ele>-9.0</ele>
        <time>2020-07-20T11:21:29Z</time>
      </trkpt>
      <trkpt lat="42.5504090" lon="3.0440630">
        <ele>-9.2</ele>
        <time>2020-07-20T11:21:34Z</time>
      </trkpt>
      <trkpt lat="42.5503060" lon="3.0435030">
        <ele>-10.2</ele>
        <time>2020-07-20T11:21:40Z</time>
      </trkpt>
      <trkpt lat="42.5501710" lon="3.0429010">
        <ele>-10.8</ele>
        <time>2020-07-20T11:21:46Z</time>
      </trkpt>
      <trkpt lat="42.5501540" lon="3.0427970">
        <ele>-10.8</ele>
        <time>2020-07-20T11:21:47Z</time>
      </trkpt>
      <trkpt lat="42.5500370" lon="3.0422070">
        <ele>-10.8</ele>
        <time>2020-07-20T11:21:53Z</time>
      </trkpt>
      <trkpt lat="42.5499990" lon="3.0420240">
        <ele>-11.0</ele>
        <time>2020-07-20T11:21:55Z</time>
      </trkpt>
      <trkpt lat="42.5499000" lon="3.0415130">
        <ele>-11.2</ele>
        <time>2020-07-20T11:22:01Z</time>
      </trkpt>
      <trkpt lat="42.5498830" lon="3.0413700">
        <ele>-11.0</ele>
        <time>2020-07-20T11:22:03Z</time>
      </trkpt>
      <trkpt lat="42.5498800" lon="3.0412990">
        <ele>-11.0</ele>
        <time>2020-07-20T11:22:04Z</time>
      </trkpt>
      <trkpt lat="42.5498660" lon="3.0411690">
        <ele>-10.8</ele>
        <time>2020-07-20T11:22:06Z</time>
      </trkpt>
      <trkpt lat="42.5498430" lon="3.0411150">
        <ele>-10.6</ele>
        <time>2020-07-20T11:22:07Z</time>
      </trkpt>
      <trkpt lat="42.5498090" lon="3.0410700">
        <ele>-10.6</ele>
        <time>2020-07-20T11:22:08Z</time>
      </trkpt>
      <trkpt lat="42.5497370" lon="3.0409650">
        <ele>-10.4</ele>
        <time>2020-07-20T11:22:10Z</time>
      </trkpt>
      <trkpt lat="42.5497080" lon="3.0409030">
        <ele>-10.4</ele>
        <time>2020-07-20T11:22:11Z</time>
      </trkpt>
      <trkpt lat="42.5496380" lon="3.0407020">
        <ele>-10.4</ele>
        <time>2020-07-20T11:22:14Z</time>
      </trkpt>
      <trkpt lat="42.5495460" lon="3.0404320">
        <ele>-10.4</ele>
        <time>2020-07-20T11:22:18Z</time>
      </trkpt>
      <trkpt lat="42.5493890" lon="3.0400140">
        <ele>-10.4</ele>
        <time>2020-07-20T11:22:24Z</time>
      </trkpt>
      <trkpt lat="42.5492690" lon="3.0396810">
        <ele>-10.4</ele>
        <time>2020-07-20T11:22:29Z</time>
      </trkpt>
      <trkpt lat="42.5492470" lon="3.0396190">
        <ele>-10.4</ele>
        <time>2020-07-20T11:22:30Z</time>
      </trkpt>
      <trkpt lat="42.5492160" lon="3.0395030">
        <ele>-10.4</ele>
        <time>2020-07-20T11:22:32Z</time>
      </trkpt>
      <trkpt lat="42.5492190" lon="3.0394420">
        <ele>-10.4</ele>
        <time>2020-07-20T11:22:33Z</time>
      </trkpt>
      <trkpt lat="42.5492380" lon="3.0392180">
        <ele>-10.4</ele>
        <time>2020-07-20T11:22:37Z</time>
      </trkpt>
      <trkpt lat="42.5492180" lon="3.0391750">
        <ele>-10.6</ele>
        <time>2020-07-20T11:22:38Z</time>
      </trkpt>
      <trkpt lat="42.5491860" lon="3.0391430">
        <ele>-10.6</ele>
        <time>2020-07-20T11:22:39Z</time>
      </trkpt>
      <trkpt lat="42.5491090" lon="3.0390920">
        <ele>-10.6</ele>
        <time>2020-07-20T11:22:41Z</time>
      </trkpt>
      <trkpt lat="42.5490390" lon="3.0390080">
        <ele>-10.4</ele>
        <time>2020-07-20T11:22:43Z</time>
      </trkpt>
      <trkpt lat="42.5489880" lon="3.0388910">
        <ele>-10.4</ele>
        <time>2020-07-20T11:22:45Z</time>
      </trkpt>
      <trkpt lat="42.5488870" lon="3.0386160">
        <ele>-10.4</ele>
        <time>2020-07-20T11:22:49Z</time>
      </trkpt>
      <trkpt lat="42.5487760" lon="3.0383320">
        <ele>-10.4</ele>
        <time>2020-07-20T11:22:53Z</time>
      </trkpt>
      <trkpt lat="42.5486220" lon="3.0379080">
        <ele>-10.0</ele>
        <time>2020-07-20T11:22:59Z</time>
      </trkpt>
      <trkpt lat="42.5485520" lon="3.0376850">
        <ele>-10.0</ele>
        <time>2020-07-20T11:23:02Z</time>
      </trkpt>
      <trkpt lat="42.5483930" lon="3.0372370">
        <ele>-9.8</ele>
        <time>2020-07-20T11:23:08Z</time>
      </trkpt>
      <trkpt lat="42.5483150" lon="3.0370080">
        <ele>-9.8</ele>
        <time>2020-07-20T11:23:11Z</time>
      </trkpt>
      <trkpt lat="42.5482880" lon="3.0369320">
        <ele>-9.8</ele>
        <time>2020-07-20T11:23:12Z</time>
      </trkpt>
      <trkpt lat="42.5482610" lon="3.0368560">
        <ele>-9.8</ele>
        <time>2020-07-20T11:23:13Z</time>
      </trkpt>
      <trkpt lat="42.5480890" lon="3.0363810">
        <ele>-9.6</ele>
        <time>2020-07-20T11:23:19Z</time>
      </trkpt>
      <trkpt lat="42.5480600" lon="3.0363030">
        <ele>-9.6</ele>
        <time>2020-07-20T11:23:20Z</time>
      </trkpt>
      <trkpt lat="42.5479530" lon="3.0359900">
        <ele>-9.6</ele>
        <time>2020-07-20T11:23:24Z</time>
      </trkpt>
      <trkpt lat="42.5478440" lon="3.0356860">
        <ele>-9.4</ele>
        <time>2020-07-20T11:23:28Z</time>
      </trkpt>
      <trkpt lat="42.5476850" lon="3.0352470">
        <ele>-9.2</ele>
        <time>2020-07-20T11:23:34Z</time>
      </trkpt>
      <trkpt lat="42.5476050" lon="3.0350220">
        <ele>-9.2</ele>
        <time>2020-07-20T11:23:37Z</time>
      </trkpt>
      <trkpt lat="42.5474800" lon="3.0346690">
        <ele>-8.6</ele>
        <time>2020-07-20T11:23:42Z</time>
      </trkpt>
      <trkpt lat="42.5474080" lon="3.0344750">
        <ele>-8.2</ele>
        <time>2020-07-20T11:23:45Z</time>
      </trkpt>
      <trkpt lat="42.5472550" lon="3.0341130">
        <ele>-8.2</ele>
        <time>2020-07-20T11:23:51Z</time>
      </trkpt>
      <trkpt lat="42.5472370" lon="3.0340710">
        <ele>-8.0</ele>
        <time>2020-07-20T11:23:52Z</time>
      </trkpt>
      <trkpt lat="42.5472090" lon="3.0340140">
        <ele>-8.0</ele>
        <time>2020-07-20T11:23:54Z</time>
      </trkpt>
      <trkpt lat="42.5471820" lon="3.0339010">
        <ele>-7.8</ele>
        <time>2020-07-20T11:23:57Z</time>
      </trkpt>
      <trkpt lat="42.5471540" lon="3.0337240">
        <ele>-7.8</ele>
        <time>2020-07-20T11:24:01Z</time>
      </trkpt>
      <trkpt lat="42.5470360" lon="3.0335010">
        <ele>-7.8</ele>
        <time>2020-07-20T11:24:06Z</time>
      </trkpt>
      <trkpt lat="42.5470240" lon="3.0334650">
        <ele>-7.8</ele>
        <time>2020-07-20T11:24:07Z</time>
      </trkpt>
      <trkpt lat="42.5470190" lon="3.0334350">
        <ele>-7.8</ele>
        <time>2020-07-20T11:24:11Z</time>
      </trkpt>
      <trkpt lat="42.5470230" lon="3.0334380">
        <ele>-8.0</ele>
        <time>2020-07-20T11:24:17Z</time>
      </trkpt>
      <trkpt lat="42.5470310" lon="3.0334440">
        <ele>-7.8</ele>
        <time>2020-07-20T11:24:20Z</time>
      </trkpt>
      <trkpt lat="42.5470360" lon="3.0334490">
        <ele>-7.8</ele>
        <time>2020-07-20T11:24:23Z</time>
      </trkpt>
      <trkpt lat="42.5470350" lon="3.0334520">
        <ele>-8.0</ele>
        <time>2020-07-20T11:24:27Z</time>
      </trkpt>
      <trkpt lat="42.5470340" lon="3.0334560">
        <ele>-8.0</ele>
        <time>2020-07-20T11:24:32Z</time>
      </trkpt>
      <trkpt lat="42.5470340" lon="3.0334550">
        <ele>-8.2</ele>
        <time>2020-07-20T11:24:34Z</time>
      </trkpt>
      <trkpt lat="42.5470330" lon="3.0334550">
        <ele>-8.0</ele>
        <time>2020-07-20T11:24:35Z</time>
      </trkpt>
      <trkpt lat="42.5470330" lon="3.0334540">
        <ele>-8.0</ele>
        <time>2020-07-20T11:24:36Z</time>
      </trkpt>
      <trkpt lat="42.5470260" lon="3.0334490">
        <ele>-8.0</ele>
        <time>2020-07-20T11:24:41Z</time>
      </trkpt>
      <trkpt lat="42.5470260" lon="3.0334490">
        <ele>-8.2</ele>
        <time>2020-07-20T11:24:42Z</time>
      </trkpt>
      <trkpt lat="42.5470250" lon="3.0334450">
        <ele>-8.2</ele>
        <time>2020-07-20T11:24:44Z</time>
      </trkpt>
      <trkpt lat="42.5470110" lon="3.0334170">
        <ele>-8.2</ele>
        <time>2020-07-20T11:24:46Z</time>
      </trkpt>
      <trkpt lat="42.5469940" lon="3.0333690">
        <ele>-8.2</ele>
        <time>2020-07-20T11:24:48Z</time>
      </trkpt>
      <trkpt lat="42.5469610" lon="3.0332880">
        <ele>-8.2</ele>
        <time>2020-07-20T11:24:50Z</time>
      </trkpt>
      <trkpt lat="42.5469150" lon="3.0331670">
        <ele>-8.0</ele>
        <time>2020-07-20T11:24:52Z</time>
      </trkpt>
      <trkpt lat="42.5467530" lon="3.0326970">
        <ele>-8.2</ele>
        <time>2020-07-20T11:24:58Z</time>
      </trkpt>
      <trkpt lat="42.5466690" lon="3.0324480">
        <ele>-8.0</ele>
        <time>2020-07-20T11:25:01Z</time>
      </trkpt>
      <trkpt lat="42.5466110" lon="3.0322800">
        <ele>-7.8</ele>
        <time>2020-07-20T11:25:03Z</time>
      </trkpt>
      <trkpt lat="42.5465540" lon="3.0321140">
        <ele>-7.6</ele>
        <time>2020-07-20T11:25:05Z</time>
      </trkpt>
      <trkpt lat="42.5464950" lon="3.0319480">
        <ele>-7.4</ele>
        <time>2020-07-20T11:25:07Z</time>
      </trkpt>
      <trkpt lat="42.5464650" lon="3.0318650">
        <ele>-7.4</ele>
        <time>2020-07-20T11:25:08Z</time>
      </trkpt>
      <trkpt lat="42.5464420" lon="3.0317830">
        <ele>-7.2</ele>
        <time>2020-07-20T11:25:09Z</time>
      </trkpt>
      <trkpt lat="42.5464050" lon="3.0316230">
        <ele>-7.2</ele>
        <time>2020-07-20T11:25:11Z</time>
      </trkpt>
      <trkpt lat="42.5463820" lon="3.0315440">
        <ele>-7.2</ele>
        <time>2020-07-20T11:25:12Z</time>
      </trkpt>
      <trkpt lat="42.5463360" lon="3.0313890">
        <ele>-7.2</ele>
        <time>2020-07-20T11:25:14Z</time>
      </trkpt>
      <trkpt lat="42.5463190" lon="3.0313120">
        <ele>-7.2</ele>
        <time>2020-07-20T11:25:15Z</time>
      </trkpt>
      <trkpt lat="42.5462510" lon="3.0310940">
        <ele>-6.8</ele>
        <time>2020-07-20T11:25:18Z</time>
      </trkpt>
      <trkpt lat="42.5461000" lon="3.0306620">
        <ele>-7.0</ele>
        <time>2020-07-20T11:25:24Z</time>
      </trkpt>
      <trkpt lat="42.5460250" lon="3.0304570">
        <ele>-7.0</ele>
        <time>2020-07-20T11:25:27Z</time>
      </trkpt>
      <trkpt lat="42.5458940" lon="3.0300840">
        <ele>-6.4</ele>
        <time>2020-07-20T11:25:33Z</time>
      </trkpt>
      <trkpt lat="42.5458200" lon="3.0298830">
        <ele>-5.8</ele>
        <time>2020-07-20T11:25:38Z</time>
      </trkpt>
      <trkpt lat="42.5457790" lon="3.0297170">
        <ele>-5.6</ele>
        <time>2020-07-20T11:25:44Z</time>
      </trkpt>
      <trkpt lat="42.5457870" lon="3.0296750">
        <ele>-5.6</ele>
        <time>2020-07-20T11:25:45Z</time>
      </trkpt>
      <trkpt lat="42.5458290" lon="3.0295790">
        <ele>-5.6</ele>
        <time>2020-07-20T11:25:47Z</time>
      </trkpt>
      <trkpt lat="42.5459040" lon="3.0294790">
        <ele>-6.0</ele>
        <time>2020-07-20T11:25:49Z</time>
      </trkpt>
      <trkpt lat="42.5461450" lon="3.0291260">
        <ele>-6.6</ele>
        <time>2020-07-20T11:25:55Z</time>
      </trkpt>
      <trkpt lat="42.5463530" lon="3.0287590">
        <ele>-6.4</ele>
        <time>2020-07-20T11:26:01Z</time>
      </trkpt>
      <trkpt lat="42.5464230" lon="3.0286530">
        <ele>-6.2</ele>
        <time>2020-07-20T11:26:03Z</time>
      </trkpt>
      <trkpt lat="42.5464590" lon="3.0286090">
        <ele>-6.2</ele>
        <time>2020-07-20T11:26:04Z</time>
      </trkpt>
      <trkpt lat="42.5465360" lon="3.0285480">
        <ele>-6.2</ele>
        <time>2020-07-20T11:26:06Z</time>
      </trkpt>
      <trkpt lat="42.5466240" lon="3.0284950">
        <ele>-6.2</ele>
        <time>2020-07-20T11:26:08Z</time>
      </trkpt>
      <trkpt lat="42.5467680" lon="3.0283950">
        <ele>-6.4</ele>
        <time>2020-07-20T11:26:11Z</time>
      </trkpt>
      <trkpt lat="42.5468690" lon="3.0283180">
        <ele>-6.6</ele>
        <time>2020-07-20T11:26:13Z</time>
      </trkpt>
      <trkpt lat="42.5469660" lon="3.0282380">
        <ele>-6.4</ele>
        <time>2020-07-20T11:26:15Z</time>
      </trkpt>
      <trkpt lat="42.5470130" lon="3.0282000">
        <ele>-6.4</ele>
        <time>2020-07-20T11:26:16Z</time>
      </trkpt>
      <trkpt lat="42.5471050" lon="3.0281270">
        <ele>-6.2</ele>
        <time>2020-07-20T11:26:18Z</time>
      </trkpt>
      <trkpt lat="42.5471500" lon="3.0280890">
        <ele>-6.2</ele>
        <time>2020-07-20T11:26:19Z</time>
      </trkpt>
      <trkpt lat="42.5471940" lon="3.0280500">
        <ele>-6.0</ele>
        <time>2020-07-20T11:26:20Z</time>
      </trkpt>
      <trkpt lat="42.5472390" lon="3.0280120">
        <ele>-6.0</ele>
        <time>2020-07-20T11:26:21Z</time>
      </trkpt>
      <trkpt lat="42.5473260" lon="3.0279410">
        <ele>-6.0</ele>
        <time>2020-07-20T11:26:23Z</time>
      </trkpt>
      <trkpt lat="42.5474090" lon="3.0278720">
        <ele>-6.0</ele>
        <time>2020-07-20T11:26:25Z</time>
      </trkpt>
      <trkpt lat="42.5475100" lon="3.0277890">
        <ele>-5.4</ele>
        <time>2020-07-20T11:26:28Z</time>
      </trkpt>
      <trkpt lat="42.5475340" lon="3.0277670">
        <ele>-5.0</ele>
        <time>2020-07-20T11:26:29Z</time>
      </trkpt>
      <trkpt lat="42.5475710" lon="3.0276970">
        <ele>-4.4</ele>
        <time>2020-07-20T11:26:32Z</time>
      </trkpt>
      <trkpt lat="42.5475720" lon="3.0276630">
        <ele>-4.4</ele>
        <time>2020-07-20T11:26:33Z</time>
      </trkpt>
      <trkpt lat="42.5475680" lon="3.0276320">
        <ele>-4.4</ele>
        <time>2020-07-20T11:26:34Z</time>
      </trkpt>
      <trkpt lat="42.5475030" lon="3.0275050">
        <ele>-4.2</ele>
        <time>2020-07-20T11:26:37Z</time>
      </trkpt>
      <trkpt lat="42.5474470" lon="3.0274180">
        <ele>-4.4</ele>
        <time>2020-07-20T11:26:39Z</time>
      </trkpt>
      <trkpt lat="42.5473420" lon="3.0272350">
        <ele>-4.0</ele>
        <time>2020-07-20T11:26:43Z</time>
      </trkpt>
      <trkpt lat="42.5471850" lon="3.0269040">
        <ele>-3.4</ele>
        <time>2020-07-20T11:26:49Z</time>
      </trkpt>
      <trkpt lat="42.5471150" lon="3.0267310">
        <ele>-3.6</ele>
        <time>2020-07-20T11:26:52Z</time>
      </trkpt>
      <trkpt lat="42.5470520" lon="3.0265450">
        <ele>-3.6</ele>
        <time>2020-07-20T11:26:55Z</time>
      </trkpt>
      <trkpt lat="42.5470360" lon="3.0264780">
        <ele>-3.6</ele>
        <time>2020-07-20T11:26:56Z</time>
      </trkpt>
      <trkpt lat="42.5470120" lon="3.0263310">
        <ele>-3.4</ele>
        <time>2020-07-20T11:26:58Z</time>
      </trkpt>
      <trkpt lat="42.5470190" lon="3.0260410">
        <ele>-3.4</ele>
        <time>2020-07-20T11:27:02Z</time>
      </trkpt>
      <trkpt lat="42.5470340" lon="3.0259970">
        <ele>-3.2</ele>
        <time>2020-07-20T11:27:03Z</time>
      </trkpt>
      <trkpt lat="42.5470960" lon="3.0259620">
        <ele>-3.0</ele>
        <time>2020-07-20T11:27:05Z</time>
      </trkpt>
      <trkpt lat="42.5472810" lon="3.0259080">
        <ele>-2.6</ele>
        <time>2020-07-20T11:27:10Z</time>
      </trkpt>
      <trkpt lat="42.5473520" lon="3.0258760">
        <ele>-2.0</ele>
        <time>2020-07-20T11:27:12Z</time>
      </trkpt>
      <trkpt lat="42.5475590" lon="3.0257520">
        <ele>-1.2</ele>
        <time>2020-07-20T11:27:18Z</time>
      </trkpt>
      <trkpt lat="42.5476290" lon="3.0257020">
        <ele>-1.0</ele>
        <time>2020-07-20T11:27:20Z</time>
      </trkpt>
      <trkpt lat="42.5477270" lon="3.0255990">
        <ele>-0.8</ele>
        <time>2020-07-20T11:27:23Z</time>
      </trkpt>
      <trkpt lat="42.5477420" lon="3.0255390">
        <ele>-0.8</ele>
        <time>2020-07-20T11:27:24Z</time>
      </trkpt>
      <trkpt lat="42.5477490" lon="3.0254780">
        <ele>-0.8</ele>
        <time>2020-07-20T11:27:25Z</time>
      </trkpt>
      <trkpt lat="42.5477460" lon="3.0252940">
        <ele>-1.0</ele>
        <time>2020-07-20T11:27:28Z</time>
      </trkpt>
      <trkpt lat="42.5477190" lon="3.0249420">
        <ele>-0.8</ele>
        <time>2020-07-20T11:27:34Z</time>
      </trkpt>
      <trkpt lat="42.5477170" lon="3.0246890">
        <ele>-0.8</ele>
        <time>2020-07-20T11:27:38Z</time>
      </trkpt>
      <trkpt lat="42.5477110" lon="3.0244260">
        <ele>-1.4</ele>
        <time>2020-07-20T11:27:42Z</time>
      </trkpt>
      <trkpt lat="42.5476890" lon="3.0241220">
        <ele>-1.4</ele>
        <time>2020-07-20T11:27:46Z</time>
      </trkpt>
      <trkpt lat="42.5477010" lon="3.0239910">
        <ele>-1.4</ele>
        <time>2020-07-20T11:27:48Z</time>
      </trkpt>
      <trkpt lat="42.5477360" lon="3.0237510">
        <ele>-1.4</ele>
        <time>2020-07-20T11:27:52Z</time>
      </trkpt>
      <trkpt lat="42.5477880" lon="3.0234920">
        <ele>-1.2</ele>
        <time>2020-07-20T11:27:56Z</time>
      </trkpt>
      <trkpt lat="42.5478140" lon="3.0233510">
        <ele>-1.2</ele>
        <time>2020-07-20T11:27:58Z</time>
      </trkpt>
      <trkpt lat="42.5478780" lon="3.0230140">
        <ele>-1.6</ele>
        <time>2020-07-20T11:28:03Z</time>
      </trkpt>
      <trkpt lat="42.5478920" lon="3.0229470">
        <ele>-1.8</ele>
        <time>2020-07-20T11:28:04Z</time>
      </trkpt>
      <trkpt lat="42.5479150" lon="3.0228130">
        <ele>-1.4</ele>
        <time>2020-07-20T11:28:06Z</time>
      </trkpt>
      <trkpt lat="42.5479330" lon="3.0225270">
        <ele>-1.2</ele>
        <time>2020-07-20T11:28:10Z</time>
      </trkpt>
      <trkpt lat="42.5479330" lon="3.0222490">
        <ele>-1.4</ele>
        <time>2020-07-20T11:28:14Z</time>
      </trkpt>
      <trkpt lat="42.5479110" lon="3.0221300">
        <ele>-1.4</ele>
        <time>2020-07-20T11:28:16Z</time>
      </trkpt>
      <trkpt lat="42.5478580" lon="3.0219930">
        <ele>-1.0</ele>
        <time>2020-07-20T11:28:19Z</time>
      </trkpt>
      <trkpt lat="42.5478290" lon="3.0219020">
        <ele>-1.0</ele>
        <time>2020-07-20T11:28:21Z</time>
      </trkpt>
      <trkpt lat="42.5477920" lon="3.0218180">
        <ele>-0.8</ele>
        <time>2020-07-20T11:28:23Z</time>
      </trkpt>
      <trkpt lat="42.5477260" lon="3.0216900">
        <ele>-1.2</ele>
        <time>2020-07-20T11:28:26Z</time>
      </trkpt>
      <trkpt lat="42.5476840" lon="3.0216000">
        <ele>-1.8</ele>
        <time>2020-07-20T11:28:28Z</time>
      </trkpt>
      <trkpt lat="42.5476600" lon="3.0215540">
        <ele>-2.2</ele>
        <time>2020-07-20T11:28:29Z</time>
      </trkpt>
      <trkpt lat="42.5476150" lon="3.0214640">
        <ele>-2.8</ele>
        <time>2020-07-20T11:28:31Z</time>
      </trkpt>
      <trkpt lat="42.5475480" lon="3.0213150">
        <ele>-3.0</ele>
        <time>2020-07-20T11:28:34Z</time>
      </trkpt>
      <trkpt lat="42.5474900" lon="3.0211570">
        <ele>-3.0</ele>
        <time>2020-07-20T11:28:37Z</time>
      </trkpt>
      <trkpt lat="42.5474720" lon="3.0210010">
        <ele>-2.4</ele>
        <time>2020-07-20T11:28:40Z</time>
      </trkpt>
      <trkpt lat="42.5474730" lon="3.0209220">
        <ele>-1.6</ele>
        <time>2020-07-20T11:28:42Z</time>
      </trkpt>
      <trkpt lat="42.5474730" lon="3.0208670">
        <ele>-1.2</ele>
        <time>2020-07-20T11:28:44Z</time>
      </trkpt>
      <trkpt lat="42.5474710" lon="3.0207750">
        <ele>-0.4</ele>
        <time>2020-07-20T11:28:47Z</time>
      </trkpt>
      <trkpt lat="42.5474760" lon="3.0207440">
        <ele>0.0</ele>
        <time>2020-07-20T11:28:48Z</time>
      </trkpt>
      <trkpt lat="42.5474950" lon="3.0206830">
        <ele>0.6</ele>
        <time>2020-07-20T11:28:50Z</time>
      </trkpt>
      <trkpt lat="42.5475410" lon="3.0206290">
        <ele>1.2</ele>
        <time>2020-07-20T11:28:52Z</time>
      </trkpt>
      <trkpt lat="42.5475670" lon="3.0206030">
        <ele>1.4</ele>
        <time>2020-07-20T11:28:53Z</time>
      </trkpt>
      <trkpt lat="42.5477340" lon="3.0204460">
        <ele>2.0</ele>
        <time>2020-07-20T11:28:59Z</time>
      </trkpt>
      <trkpt lat="42.5477940" lon="3.0203920">
        <ele>2.2</ele>
        <time>2020-07-20T11:29:01Z</time>
      </trkpt>
      <trkpt lat="42.5478510" lon="3.0203430">
        <ele>2.2</ele>
        <time>2020-07-20T11:29:03Z</time>
      </trkpt>
      <trkpt lat="42.5479360" lon="3.0202690">
        <ele>2.0</ele>
        <time>2020-07-20T11:29:06Z</time>
      </trkpt>
      <trkpt lat="42.5480150" lon="3.0202050">
        <ele>2.0</ele>
        <time>2020-07-20T11:29:09Z</time>
      </trkpt>
      <trkpt lat="42.5480690" lon="3.0201700">
        <ele>2.0</ele>
        <time>2020-07-20T11:29:12Z</time>
      </trkpt>
      <trkpt lat="42.5481080" lon="3.0201760">
        <ele>2.0</ele>
        <time>2020-07-20T11:29:14Z</time>
      </trkpt>
      <trkpt lat="42.5481380" lon="3.0201660">
        <ele>1.8</ele>
        <time>2020-07-20T11:29:15Z</time>
      </trkpt>
      <trkpt lat="42.5481990" lon="3.0201000">
        <ele>1.8</ele>
        <time>2020-07-20T11:29:17Z</time>
      </trkpt>
      <trkpt lat="42.5482910" lon="3.0199860">
        <ele>1.6</ele>
        <time>2020-07-20T11:29:20Z</time>
      </trkpt>
      <trkpt lat="42.5484080" lon="3.0198620">
        <ele>1.2</ele>
        <time>2020-07-20T11:29:23Z</time>
      </trkpt>
      <trkpt lat="42.5486810" lon="3.0196240">
        <ele>0.4</ele>
        <time>2020-07-20T11:29:29Z</time>
      </trkpt>
      <trkpt lat="42.5487740" lon="3.0195460">
        <ele>0.6</ele>
        <time>2020-07-20T11:29:31Z</time>
      </trkpt>
      <trkpt lat="42.5489520" lon="3.0193880">
        <ele>1.0</ele>
        <time>2020-07-20T11:29:35Z</time>
      </trkpt>
      <trkpt lat="42.5491320" lon="3.0192400">
        <ele>0.6</ele>
        <time>2020-07-20T11:29:39Z</time>
      </trkpt>
      <trkpt lat="42.5491780" lon="3.0192020">
        <ele>0.4</ele>
        <time>2020-07-20T11:29:40Z</time>
      </trkpt>
      <trkpt lat="42.5492210" lon="3.0191650">
        <ele>0.2</ele>
        <time>2020-07-20T11:29:41Z</time>
      </trkpt>
      <trkpt lat="42.5495050" lon="3.0189080">
        <ele>-0.6</ele>
        <time>2020-07-20T11:29:47Z</time>
      </trkpt>
      <trkpt lat="42.5497650" lon="3.0187070">
        <ele>-0.4</ele>
        <time>2020-07-20T11:29:53Z</time>
      </trkpt>
      <trkpt lat="42.5498550" lon="3.0186390">
        <ele>-0.2</ele>
        <time>2020-07-20T11:29:57Z</time>
      </trkpt>
      <trkpt lat="42.5498680" lon="3.0182400">
        <ele>0.0</ele>
        <time>2020-07-20T11:30:40Z</time>
      </trkpt>
      <trkpt lat="42.5498650" lon="3.0182030">
        <ele>0.4</ele>
        <time>2020-07-20T11:30:41Z</time>
      </trkpt>
      <trkpt lat="42.5498660" lon="3.0181270">
        <ele>0.6</ele>
        <time>2020-07-20T11:30:42Z</time>
      </trkpt>
      <trkpt lat="42.5498880" lon="3.0177380">
        <ele>0.6</ele>
        <time>2020-07-20T11:30:47Z</time>
      </trkpt>
      <trkpt lat="42.5498950" lon="3.0175750">
        <ele>0.6</ele>
        <time>2020-07-20T11:30:49Z</time>
      </trkpt>
      <trkpt lat="42.5499180" lon="3.0172400">
        <ele>0.8</ele>
        <time>2020-07-20T11:30:53Z</time>
      </trkpt>
      <trkpt lat="42.5499260" lon="3.0171530">
        <ele>0.8</ele>
        <time>2020-07-20T11:30:54Z</time>
      </trkpt>
      <trkpt lat="42.5499330" lon="3.0170670">
        <ele>0.8</ele>
        <time>2020-07-20T11:30:55Z</time>
      </trkpt>
      <trkpt lat="42.5499420" lon="3.0169820">
        <ele>0.8</ele>
        <time>2020-07-20T11:30:56Z</time>
      </trkpt>
      <trkpt lat="42.5499640" lon="3.0167260">
        <ele>1.4</ele>
        <time>2020-07-20T11:30:59Z</time>
      </trkpt>
      <trkpt lat="42.5499710" lon="3.0165540">
        <ele>1.8</ele>
        <time>2020-07-20T11:31:01Z</time>
      </trkpt>
      <trkpt lat="42.5499790" lon="3.0162910">
        <ele>2.2</ele>
        <time>2020-07-20T11:31:04Z</time>
      </trkpt>
      <trkpt lat="42.5499830" lon="3.0162060">
        <ele>2.2</ele>
        <time>2020-07-20T11:31:05Z</time>
      </trkpt>
      <trkpt lat="42.5499880" lon="3.0160400">
        <ele>2.6</ele>
        <time>2020-07-20T11:31:07Z</time>
      </trkpt>
      <trkpt lat="42.5500060" lon="3.0155380">
        <ele>2.8</ele>
        <time>2020-07-20T11:31:13Z</time>
      </trkpt>
      <trkpt lat="42.5500090" lon="3.0154510">
        <ele>3.0</ele>
        <time>2020-07-20T11:31:14Z</time>
      </trkpt>
      <trkpt lat="42.5500190" lon="3.0151010">
        <ele>3.6</ele>
        <time>2020-07-20T11:31:18Z</time>
      </trkpt>
      <trkpt lat="42.5500370" lon="3.0147460">
        <ele>3.8</ele>
        <time>2020-07-20T11:31:22Z</time>
      </trkpt>
      <trkpt lat="42.5500640" lon="3.0144810">
        <ele>4.0</ele>
        <time>2020-07-20T11:31:25Z</time>
      </trkpt>
      <trkpt lat="42.5501110" lon="3.0140420">
        <ele>4.4</ele>
        <time>2020-07-20T11:31:30Z</time>
      </trkpt>
      <trkpt lat="42.5501270" lon="3.0138700">
        <ele>4.4</ele>
        <time>2020-07-20T11:31:32Z</time>
      </trkpt>
      <trkpt lat="42.5501400" lon="3.0136970">
        <ele>4.6</ele>
        <time>2020-07-20T11:31:34Z</time>
      </trkpt>
      <trkpt lat="42.5501540" lon="3.0133460">
        <ele>5.2</ele>
        <time>2020-07-20T11:31:38Z</time>
      </trkpt>
      <trkpt lat="42.5501570" lon="3.0132590">
        <ele>5.2</ele>
        <time>2020-07-20T11:31:39Z</time>
      </trkpt>
      <trkpt lat="42.5501600" lon="3.0129170">
        <ele>5.6</ele>
        <time>2020-07-20T11:31:43Z</time>
      </trkpt>
      <trkpt lat="42.5501730" lon="3.0125020">
        <ele>6.4</ele>
        <time>2020-07-20T11:31:48Z</time>
      </trkpt>
      <trkpt lat="42.5501970" lon="3.0123360">
        <ele>6.6</ele>
        <time>2020-07-20T11:31:50Z</time>
      </trkpt>
      <trkpt lat="42.5502450" lon="3.0121800">
        <ele>6.6</ele>
        <time>2020-07-20T11:31:52Z</time>
      </trkpt>
      <trkpt lat="42.5502760" lon="3.0121060">
        <ele>6.6</ele>
        <time>2020-07-20T11:31:53Z</time>
      </trkpt>
      <trkpt lat="42.5503430" lon="3.0119650">
        <ele>6.8</ele>
        <time>2020-07-20T11:31:55Z</time>
      </trkpt>
      <trkpt lat="42.5504790" lon="3.0117220">
        <ele>7.2</ele>
        <time>2020-07-20T11:31:59Z</time>
      </trkpt>
      <trkpt lat="42.5506420" lon="3.0114570">
        <ele>7.8</ele>
        <time>2020-07-20T11:32:04Z</time>
      </trkpt>
      <trkpt lat="42.5506780" lon="3.0114000">
        <ele>8.0</ele>
        <time>2020-07-20T11:32:05Z</time>
      </trkpt>
      <trkpt lat="42.5509020" lon="3.0110490">
        <ele>8.8</ele>
        <time>2020-07-20T11:32:11Z</time>
      </trkpt>
      <trkpt lat="42.5509390" lon="3.0109890">
        <ele>9.0</ele>
        <time>2020-07-20T11:32:12Z</time>
      </trkpt>
      <trkpt lat="42.5510140" lon="3.0108700">
        <ele>9.4</ele>
        <time>2020-07-20T11:32:14Z</time>
      </trkpt>
      <trkpt lat="42.5512030" lon="3.0105760">
        <ele>9.6</ele>
        <time>2020-07-20T11:32:19Z</time>
      </trkpt>
      <trkpt lat="42.5512810" lon="3.0104610">
        <ele>9.6</ele>
        <time>2020-07-20T11:32:21Z</time>
      </trkpt>
      <trkpt lat="42.5513680" lon="3.0103620">
        <ele>9.8</ele>
        <time>2020-07-20T11:32:23Z</time>
      </trkpt>
      <trkpt lat="42.5514230" lon="3.0103200">
        <ele>9.8</ele>
        <time>2020-07-20T11:32:24Z</time>
      </trkpt>
      <trkpt lat="42.5515410" lon="3.0102460">
        <ele>10.2</ele>
        <time>2020-07-20T11:32:26Z</time>
      </trkpt>
      <trkpt lat="42.5516160" lon="3.0101250">
        <ele>10.2</ele>
        <time>2020-07-20T11:32:28Z</time>
      </trkpt>
      <trkpt lat="42.5516100" lon="3.0099720">
        <ele>10.2</ele>
        <time>2020-07-20T11:32:30Z</time>
      </trkpt>
      <trkpt lat="42.5515810" lon="3.0099020">
        <ele>10.4</ele>
        <time>2020-07-20T11:32:31Z</time>
      </trkpt>
      <trkpt lat="42.5514700" lon="3.0097000">
        <ele>10.6</ele>
        <time>2020-07-20T11:32:34Z</time>
      </trkpt>
      <trkpt lat="42.5514170" lon="3.0095410">
        <ele>11.0</ele>
        <time>2020-07-20T11:32:36Z</time>
      </trkpt>
      <trkpt lat="42.5513990" lon="3.0094590">
        <ele>11.2</ele>
        <time>2020-07-20T11:32:37Z</time>
      </trkpt>
      <trkpt lat="42.5513000" lon="3.0089940">
        <ele>12.0</ele>
        <time>2020-07-20T11:32:43Z</time>
      </trkpt>
      <trkpt lat="42.5512860" lon="3.0089230">
        <ele>12.2</ele>
        <time>2020-07-20T11:32:44Z</time>
      </trkpt>
      <trkpt lat="42.5512340" lon="3.0086550">
        <ele>13.4</ele>
        <time>2020-07-20T11:32:48Z</time>
      </trkpt>
      <trkpt lat="42.5511990" lon="3.0084600">
        <ele>14.6</ele>
        <time>2020-07-20T11:32:51Z</time>
      </trkpt>
      <trkpt lat="42.5511870" lon="3.0083950">
        <ele>14.8</ele>
        <time>2020-07-20T11:32:52Z</time>
      </trkpt>
      <trkpt lat="42.5511330" lon="3.0080610">
        <ele>15.6</ele>
        <time>2020-07-20T11:32:57Z</time>
      </trkpt>
      <trkpt lat="42.5511210" lon="3.0079260">
        <ele>16.0</ele>
        <time>2020-07-20T11:32:59Z</time>
      </trkpt>
      <trkpt lat="42.5511140" lon="3.0077900">
        <ele>16.4</ele>
        <time>2020-07-20T11:33:01Z</time>
      </trkpt>
      <trkpt lat="42.5511300" lon="3.0076570">
        <ele>16.8</ele>
        <time>2020-07-20T11:33:03Z</time>
      </trkpt>
      <trkpt lat="42.5511620" lon="3.0075310">
        <ele>17.2</ele>
        <time>2020-07-20T11:33:05Z</time>
      </trkpt>
      <trkpt lat="42.5511550" lon="3.0073980">
        <ele>17.4</ele>
        <time>2020-07-20T11:33:07Z</time>
      </trkpt>
      <trkpt lat="42.5511340" lon="3.0073350">
        <ele>17.6</ele>
        <time>2020-07-20T11:33:08Z</time>
      </trkpt>
      <trkpt lat="42.5510800" lon="3.0072100">
        <ele>17.6</ele>
        <time>2020-07-20T11:33:10Z</time>
      </trkpt>
      <trkpt lat="42.5510560" lon="3.0071440">
        <ele>17.6</ele>
        <time>2020-07-20T11:33:11Z</time>
      </trkpt>
      <trkpt lat="42.5510310" lon="3.0069990">
        <ele>17.8</ele>
        <time>2020-07-20T11:33:13Z</time>
      </trkpt>
      <trkpt lat="42.5510280" lon="3.0069220">
        <ele>17.8</ele>
        <time>2020-07-20T11:33:14Z</time>
      </trkpt>
      <trkpt lat="42.5509960" lon="3.0064180">
        <ele>18.6</ele>
        <time>2020-07-20T11:33:20Z</time>
      </trkpt>
      <trkpt lat="42.5509670" lon="3.0059880">
        <ele>18.8</ele>
        <time>2020-07-20T11:33:25Z</time>
      </trkpt>
      <trkpt lat="42.5509630" lon="3.0059020">
        <ele>18.8</ele>
        <time>2020-07-20T11:33:26Z</time>
      </trkpt>
      <trkpt lat="42.5509430" lon="3.0055350">
        <ele>18.8</ele>
        <time>2020-07-20T11:33:30Z</time>
      </trkpt>
      <trkpt lat="42.5509360" lon="3.0054380">
        <ele>18.8</ele>
        <time>2020-07-20T11:33:31Z</time>
      </trkpt>
      <trkpt lat="42.5509240" lon="3.0052390">
        <ele>18.6</ele>
        <time>2020-07-20T11:33:33Z</time>
      </trkpt>
      <trkpt lat="42.5509150" lon="3.0051360">
        <ele>18.4</ele>
        <time>2020-07-20T11:33:34Z</time>
      </trkpt>
      <trkpt lat="42.5508820" lon="3.0048180">
        <ele>17.8</ele>
        <time>2020-07-20T11:33:37Z</time>
      </trkpt>
      <trkpt lat="42.5508260" lon="3.0043660">
        <ele>17.0</ele>
        <time>2020-07-20T11:33:41Z</time>
      </trkpt>
      <trkpt lat="42.5508110" lon="3.0042480">
        <ele>16.8</ele>
        <time>2020-07-20T11:33:42Z</time>
      </trkpt>
      <trkpt lat="42.5507460" lon="3.0036430">
        <ele>15.8</ele>
        <time>2020-07-20T11:33:47Z</time>
      </trkpt>
      <trkpt lat="42.5507240" lon="3.0034000">
        <ele>15.6</ele>
        <time>2020-07-20T11:33:49Z</time>
      </trkpt>
      <trkpt lat="42.5507100" lon="3.0031620">
        <ele>15.4</ele>
        <time>2020-07-20T11:33:51Z</time>
      </trkpt>
      <trkpt lat="42.5507060" lon="3.0028270">
        <ele>15.4</ele>
        <time>2020-07-20T11:33:54Z</time>
      </trkpt>
      <trkpt lat="42.5507140" lon="3.0026490">
        <ele>15.6</ele>
        <time>2020-07-20T11:33:56Z</time>
      </trkpt>
      <trkpt lat="42.5507610" lon="3.0022960">
        <ele>16.0</ele>
        <time>2020-07-20T11:34:00Z</time>
      </trkpt>
      <trkpt lat="42.5507680" lon="3.0021980">
        <ele>16.2</ele>
        <time>2020-07-20T11:34:01Z</time>
      </trkpt>
      <trkpt lat="42.5507820" lon="3.0015860">
        <ele>16.4</ele>
        <time>2020-07-20T11:34:07Z</time>
      </trkpt>
      <trkpt lat="42.5508000" lon="3.0012860">
        <ele>16.8</ele>
        <time>2020-07-20T11:34:10Z</time>
      </trkpt>
      <trkpt lat="42.5508240" lon="3.0007960">
        <ele>17.0</ele>
        <time>2020-07-20T11:34:15Z</time>
      </trkpt>
      <trkpt lat="42.5508390" lon="3.0005120">
        <ele>17.2</ele>
        <time>2020-07-20T11:34:18Z</time>
      </trkpt>
      <trkpt lat="42.5508440" lon="3.0004200">
        <ele>17.2</ele>
        <time>2020-07-20T11:34:19Z</time>
      </trkpt>
      <trkpt lat="42.5508710" lon="2.9998770">
        <ele>17.6</ele>
        <time>2020-07-20T11:34:25Z</time>
      </trkpt>
      <trkpt lat="42.5508750" lon="2.9997870">
        <ele>17.8</ele>
        <time>2020-07-20T11:34:26Z</time>
      </trkpt>
      <trkpt lat="42.5508810" lon="2.9996060">
        <ele>18.0</ele>
        <time>2020-07-20T11:34:28Z</time>
      </trkpt>
      <trkpt lat="42.5509110" lon="2.9990600">
        <ele>18.0</ele>
        <time>2020-07-20T11:34:34Z</time>
      </trkpt>
      <trkpt lat="42.5509330" lon="2.9987900">
        <ele>17.8</ele>
        <time>2020-07-20T11:34:37Z</time>
      </trkpt>
      <trkpt lat="42.5509740" lon="2.9984400">
        <ele>17.8</ele>
        <time>2020-07-20T11:34:41Z</time>
      </trkpt>
      <trkpt lat="42.5510280" lon="2.9981010">
        <ele>18.0</ele>
        <time>2020-07-20T11:34:45Z</time>
      </trkpt>
      <trkpt lat="42.5511020" lon="2.9977780">
        <ele>18.4</ele>
        <time>2020-07-20T11:34:49Z</time>
      </trkpt>
      <trkpt lat="42.5511740" lon="2.9976530">
        <ele>18.8</ele>
        <time>2020-07-20T11:34:51Z</time>
      </trkpt>
      <trkpt lat="42.5512760" lon="2.9975640">
        <ele>18.8</ele>
        <time>2020-07-20T11:34:53Z</time>
      </trkpt>
      <trkpt lat="42.5513250" lon="2.9975150">
        <ele>18.8</ele>
        <time>2020-07-20T11:34:54Z</time>
      </trkpt>
      <trkpt lat="42.5513640" lon="2.9974540">
        <ele>19.0</ele>
        <time>2020-07-20T11:34:55Z</time>
      </trkpt>
      <trkpt lat="42.5513890" lon="2.9973820">
        <ele>18.8</ele>
        <time>2020-07-20T11:34:56Z</time>
      </trkpt>
      <trkpt lat="42.5513910" lon="2.9972300">
        <ele>18.8</ele>
        <time>2020-07-20T11:34:58Z</time>
      </trkpt>
      <trkpt lat="42.5513260" lon="2.9970960">
        <ele>18.8</ele>
        <time>2020-07-20T11:35:00Z</time>
      </trkpt>
      <trkpt lat="42.5512790" lon="2.9970390">
        <ele>18.8</ele>
        <time>2020-07-20T11:35:01Z</time>
      </trkpt>
      <trkpt lat="42.5512330" lon="2.9969790">
        <ele>18.8</ele>
        <time>2020-07-20T11:35:02Z</time>
      </trkpt>
      <trkpt lat="42.5511640" lon="2.9968300">
        <ele>18.8</ele>
        <time>2020-07-20T11:35:04Z</time>
      </trkpt>
      <trkpt lat="42.5511450" lon="2.9967470">
        <ele>18.8</ele>
        <time>2020-07-20T11:35:05Z</time>
      </trkpt>
      <trkpt lat="42.5510830" lon="2.9962130">
        <ele>19.0</ele>
        <time>2020-07-20T11:35:11Z</time>
      </trkpt>
      <trkpt lat="42.5510780" lon="2.9961210">
        <ele>19.0</ele>
        <time>2020-07-20T11:35:12Z</time>
      </trkpt>
      <trkpt lat="42.5510670" lon="2.9955640">
        <ele>19.6</ele>
        <time>2020-07-20T11:35:18Z</time>
      </trkpt>
      <trkpt lat="42.5510740" lon="2.9953790">
        <ele>19.8</ele>
        <time>2020-07-20T11:35:20Z</time>
      </trkpt>
      <trkpt lat="42.5510980" lon="2.9948340">
        <ele>19.6</ele>
        <time>2020-07-20T11:35:26Z</time>
      </trkpt>
      <trkpt lat="42.5511090" lon="2.9946510">
        <ele>19.6</ele>
        <time>2020-07-20T11:35:28Z</time>
      </trkpt>
      <trkpt lat="42.5511130" lon="2.9945580">
        <ele>19.8</ele>
        <time>2020-07-20T11:35:29Z</time>
      </trkpt>
      <trkpt lat="42.5511370" lon="2.9940890">
        <ele>20.4</ele>
        <time>2020-07-20T11:35:34Z</time>
      </trkpt>
      <trkpt lat="42.5511700" lon="2.9935230">
        <ele>20.8</ele>
        <time>2020-07-20T11:35:40Z</time>
      </trkpt>
      <trkpt lat="42.5511850" lon="2.9933300">
        <ele>20.8</ele>
        <time>2020-07-20T11:35:42Z</time>
      </trkpt>
      <trkpt lat="42.5512130" lon="2.9929390">
        <ele>20.8</ele>
        <time>2020-07-20T11:35:46Z</time>
      </trkpt>
      <trkpt lat="42.5512510" lon="2.9923590">
        <ele>20.8</ele>
        <time>2020-07-20T11:35:52Z</time>
      </trkpt>
      <trkpt lat="42.5512630" lon="2.9921700">
        <ele>21.0</ele>
        <time>2020-07-20T11:35:54Z</time>
      </trkpt>
      <trkpt lat="42.5512930" lon="2.9916070">
        <ele>21.2</ele>
        <time>2020-07-20T11:36:00Z</time>
      </trkpt>
      <trkpt lat="42.5513120" lon="2.9910260">
        <ele>21.4</ele>
        <time>2020-07-20T11:36:06Z</time>
      </trkpt>
      <trkpt lat="42.5513170" lon="2.9907330">
        <ele>21.4</ele>
        <time>2020-07-20T11:36:09Z</time>
      </trkpt>
      <trkpt lat="42.5513180" lon="2.9905440">
        <ele>21.4</ele>
        <time>2020-07-20T11:36:11Z</time>
      </trkpt>
      <trkpt lat="42.5513220" lon="2.9901600">
        <ele>21.6</ele>
        <time>2020-07-20T11:36:15Z</time>
      </trkpt>
      <trkpt lat="42.5513300" lon="2.9898710">
        <ele>21.6</ele>
        <time>2020-07-20T11:36:18Z</time>
      </trkpt>
      <trkpt lat="42.5513480" lon="2.9893820">
        <ele>21.8</ele>
        <time>2020-07-20T11:36:23Z</time>
      </trkpt>
      <trkpt lat="42.5513520" lon="2.9892840">
        <ele>21.8</ele>
        <time>2020-07-20T11:36:24Z</time>
      </trkpt>
      <trkpt lat="42.5513730" lon="2.9887860">
        <ele>22.0</ele>
        <time>2020-07-20T11:36:29Z</time>
      </trkpt>
      <trkpt lat="42.5513850" lon="2.9884900">
        <ele>22.2</ele>
        <time>2020-07-20T11:36:32Z</time>
      </trkpt>
      <trkpt lat="42.5513890" lon="2.9883920">
        <ele>22.2</ele>
        <time>2020-07-20T11:36:33Z</time>
      </trkpt>
      <trkpt lat="42.5514120" lon="2.9877900">
        <ele>22.4</ele>
        <time>2020-07-20T11:36:39Z</time>
      </trkpt>
      <trkpt lat="42.5514220" lon="2.9875870">
        <ele>22.4</ele>
        <time>2020-07-20T11:36:41Z</time>
      </trkpt>
      <trkpt lat="42.5514260" lon="2.9874860">
        <ele>22.6</ele>
        <time>2020-07-20T11:36:42Z</time>
      </trkpt>
      <trkpt lat="42.5514680" lon="2.9868860">
        <ele>22.6</ele>
        <time>2020-07-20T11:36:48Z</time>
      </trkpt>
      <trkpt lat="42.5515070" lon="2.9865920">
        <ele>22.8</ele>
        <time>2020-07-20T11:36:51Z</time>
      </trkpt>
      <trkpt lat="42.5515460" lon="2.9859750">
        <ele>22.6</ele>
        <time>2020-07-20T11:36:57Z</time>
      </trkpt>
      <trkpt lat="42.5515510" lon="2.9858700">
        <ele>22.4</ele>
        <time>2020-07-20T11:36:58Z</time>
      </trkpt>
      <trkpt lat="42.5515820" lon="2.9852390">
        <ele>22.0</ele>
        <time>2020-07-20T11:37:04Z</time>
      </trkpt>
      <trkpt lat="42.5516180" lon="2.9846060">
        <ele>22.4</ele>
        <time>2020-07-20T11:37:10Z</time>
      </trkpt>
      <trkpt lat="42.5516530" lon="2.9839870">
        <ele>22.0</ele>
        <time>2020-07-20T11:37:16Z</time>
      </trkpt>
      <trkpt lat="42.5516680" lon="2.9836820">
        <ele>21.6</ele>
        <time>2020-07-20T11:37:19Z</time>
      </trkpt>
      <trkpt lat="42.5516950" lon="2.9830950">
        <ele>22.2</ele>
        <time>2020-07-20T11:37:25Z</time>
      </trkpt>
      <trkpt lat="42.5517090" lon="2.9827280">
        <ele>23.0</ele>
        <time>2020-07-20T11:37:29Z</time>
      </trkpt>
      <trkpt lat="42.5517170" lon="2.9826440">
        <ele>23.2</ele>
        <time>2020-07-20T11:37:30Z</time>
      </trkpt>
      <trkpt lat="42.5517520" lon="2.9824950">
        <ele>23.2</ele>
        <time>2020-07-20T11:37:32Z</time>
      </trkpt>
      <trkpt lat="42.5517750" lon="2.9824340">
        <ele>23.2</ele>
        <time>2020-07-20T11:37:33Z</time>
      </trkpt>
      <trkpt lat="42.5517970" lon="2.9823780">
        <ele>23.2</ele>
        <time>2020-07-20T11:37:34Z</time>
      </trkpt>
      <trkpt lat="42.5518180" lon="2.9822670">
        <ele>23.4</ele>
        <time>2020-07-20T11:37:36Z</time>
      </trkpt>
      <trkpt lat="42.5518120" lon="2.9822110">
        <ele>23.6</ele>
        <time>2020-07-20T11:37:37Z</time>
      </trkpt>
      <trkpt lat="42.5517970" lon="2.9821530">
        <ele>23.6</ele>
        <time>2020-07-20T11:37:38Z</time>
      </trkpt>
      <trkpt lat="42.5517530" lon="2.9819410">
        <ele>23.6</ele>
        <time>2020-07-20T11:37:41Z</time>
      </trkpt>
      <trkpt lat="42.5517680" lon="2.9814470">
        <ele>23.2</ele>
        <time>2020-07-20T11:37:47Z</time>
      </trkpt>
      <trkpt lat="42.5517610" lon="2.9812880">
        <ele>23.2</ele>
        <time>2020-07-20T11:37:49Z</time>
      </trkpt>
      <trkpt lat="42.5517360" lon="2.9811310">
        <ele>23.4</ele>
        <time>2020-07-20T11:37:51Z</time>
      </trkpt>
      <trkpt lat="42.5517530" lon="2.9808000">
        <ele>23.4</ele>
        <time>2020-07-20T11:37:55Z</time>
      </trkpt>
      <trkpt lat="42.5517580" lon="2.9807110">
        <ele>23.4</ele>
        <time>2020-07-20T11:37:56Z</time>
      </trkpt>
      <trkpt lat="42.5517880" lon="2.9801710">
        <ele>23.2</ele>
        <time>2020-07-20T11:38:02Z</time>
      </trkpt>
      <trkpt lat="42.5518010" lon="2.9799030">
        <ele>23.0</ele>
        <time>2020-07-20T11:38:05Z</time>
      </trkpt>
      <trkpt lat="42.5518230" lon="2.9793580">
        <ele>22.6</ele>
        <time>2020-07-20T11:38:11Z</time>
      </trkpt>
      <trkpt lat="42.5518410" lon="2.9788990">
        <ele>22.8</ele>
        <time>2020-07-20T11:38:16Z</time>
      </trkpt>
      <trkpt lat="42.5518660" lon="2.9783410">
        <ele>23.2</ele>
        <time>2020-07-20T11:38:22Z</time>
      </trkpt>
      <trkpt lat="42.5518660" lon="2.9779760">
        <ele>23.4</ele>
        <time>2020-07-20T11:38:26Z</time>
      </trkpt>
      <trkpt lat="42.5518720" lon="2.9778270">
        <ele>23.4</ele>
        <time>2020-07-20T11:38:28Z</time>
      </trkpt>
      <trkpt lat="42.5518830" lon="2.9777580">
        <ele>23.6</ele>
        <time>2020-07-20T11:38:29Z</time>
      </trkpt>
      <trkpt lat="42.5519120" lon="2.9776090">
        <ele>23.6</ele>
        <time>2020-07-20T11:38:31Z</time>
      </trkpt>
      <trkpt lat="42.5519160" lon="2.9774470">
        <ele>23.4</ele>
        <time>2020-07-20T11:38:33Z</time>
      </trkpt>
      <trkpt lat="42.5519010" lon="2.9772760">
        <ele>23.0</ele>
        <time>2020-07-20T11:38:35Z</time>
      </trkpt>
      <trkpt lat="42.5519050" lon="2.9771010">
        <ele>23.0</ele>
        <time>2020-07-20T11:38:37Z</time>
      </trkpt>
      <trkpt lat="42.5519360" lon="2.9765660">
        <ele>22.8</ele>
        <time>2020-07-20T11:38:43Z</time>
      </trkpt>
      <trkpt lat="42.5519530" lon="2.9762940">
        <ele>23.0</ele>
        <time>2020-07-20T11:38:46Z</time>
      </trkpt>
      <trkpt lat="42.5519730" lon="2.9757470">
        <ele>22.8</ele>
        <time>2020-07-20T11:38:52Z</time>
      </trkpt>
      <trkpt lat="42.5519860" lon="2.9755630">
        <ele>22.8</ele>
        <time>2020-07-20T11:38:54Z</time>
      </trkpt>
      <trkpt lat="42.5520070" lon="2.9751850">
        <ele>23.2</ele>
        <time>2020-07-20T11:38:58Z</time>
      </trkpt>
      <trkpt lat="42.5520190" lon="2.9749920">
        <ele>23.2</ele>
        <time>2020-07-20T11:39:00Z</time>
      </trkpt>
      <trkpt lat="42.5520220" lon="2.9749000">
        <ele>23.0</ele>
        <time>2020-07-20T11:39:01Z</time>
      </trkpt>
      <trkpt lat="42.5520220" lon="2.9747210">
        <ele>22.6</ele>
        <time>2020-07-20T11:39:03Z</time>
      </trkpt>
      <trkpt lat="42.5520460" lon="2.9742800">
        <ele>22.6</ele>
        <time>2020-07-20T11:39:08Z</time>
      </trkpt>
      <trkpt lat="42.5520820" lon="2.9737440">
        <ele>22.4</ele>
        <time>2020-07-20T11:39:14Z</time>
      </trkpt>
      <trkpt lat="42.5520950" lon="2.9734900">
        <ele>22.0</ele>
        <time>2020-07-20T11:39:17Z</time>
      </trkpt>
      <trkpt lat="42.5521000" lon="2.9734050">
        <ele>22.0</ele>
        <time>2020-07-20T11:39:18Z</time>
      </trkpt>
      <trkpt lat="42.5521050" lon="2.9733200">
        <ele>22.0</ele>
        <time>2020-07-20T11:39:19Z</time>
      </trkpt>
      <trkpt lat="42.5521040" lon="2.9728330">
        <ele>23.0</ele>
        <time>2020-07-20T11:39:25Z</time>
      </trkpt>
      <trkpt lat="42.5520620" lon="2.9726810">
        <ele>22.8</ele>
        <time>2020-07-20T11:39:27Z</time>
      </trkpt>
      <trkpt lat="42.5520020" lon="2.9725440">
        <ele>22.6</ele>
        <time>2020-07-20T11:39:29Z</time>
      </trkpt>
      <trkpt lat="42.5517930" lon="2.9721530">
        <ele>23.0</ele>
        <time>2020-07-20T11:39:35Z</time>
      </trkpt>
      <trkpt lat="42.5517580" lon="2.9720870">
        <ele>23.0</ele>
        <time>2020-07-20T11:39:36Z</time>
      </trkpt>
      <trkpt lat="42.5515510" lon="2.9716700">
        <ele>23.8</ele>
        <time>2020-07-20T11:39:42Z</time>
      </trkpt>
      <trkpt lat="42.5514430" lon="2.9714770">
        <ele>24.0</ele>
        <time>2020-07-20T11:39:45Z</time>
      </trkpt>
      <trkpt lat="42.5514050" lon="2.9714160">
        <ele>24.0</ele>
        <time>2020-07-20T11:39:46Z</time>
      </trkpt>
      <trkpt lat="42.5512100" lon="2.9710030">
        <ele>23.8</ele>
        <time>2020-07-20T11:39:52Z</time>
      </trkpt>
      <trkpt lat="42.5511740" lon="2.9708440">
        <ele>23.8</ele>
        <time>2020-07-20T11:39:54Z</time>
      </trkpt>
      <trkpt lat="42.5511410" lon="2.9706030">
        <ele>24.2</ele>
        <time>2020-07-20T11:39:57Z</time>
      </trkpt>
      <trkpt lat="42.5511090" lon="2.9703560">
        <ele>24.4</ele>
        <time>2020-07-20T11:40:00Z</time>
      </trkpt>
      <trkpt lat="42.5510560" lon="2.9700270">
        <ele>24.2</ele>
        <time>2020-07-20T11:40:04Z</time>
      </trkpt>
      <trkpt lat="42.5510190" lon="2.9698040">
        <ele>23.8</ele>
        <time>2020-07-20T11:40:08Z</time>
      </trkpt>
      <trkpt lat="42.5509770" lon="2.9695450">
        <ele>23.8</ele>
        <time>2020-07-20T11:40:14Z</time>
      </trkpt>
      <trkpt lat="42.5509740" lon="2.9694980">
        <ele>23.8</ele>
        <time>2020-07-20T11:40:15Z</time>
      </trkpt>
      <trkpt lat="42.5509610" lon="2.9692360">
        <ele>23.4</ele>
        <time>2020-07-20T11:40:20Z</time>
      </trkpt>
      <trkpt lat="42.5509350" lon="2.9689920">
        <ele>23.6</ele>
        <time>2020-07-20T11:40:26Z</time>
      </trkpt>
      <trkpt lat="42.5509280" lon="2.9689490">
        <ele>23.8</ele>
        <time>2020-07-20T11:40:27Z</time>
      </trkpt>
      <trkpt lat="42.5509150" lon="2.9687480">
        <ele>23.4</ele>
        <time>2020-07-20T11:40:31Z</time>
      </trkpt>
      <trkpt lat="42.5509080" lon="2.9686870">
        <ele>23.4</ele>
        <time>2020-07-20T11:40:32Z</time>
      </trkpt>
      <trkpt lat="42.5508980" lon="2.9685620">
        <ele>23.2</ele>
        <time>2020-07-20T11:40:34Z</time>
      </trkpt>
      <trkpt lat="42.5508680" lon="2.9682650">
        <ele>23.2</ele>
        <time>2020-07-20T11:40:38Z</time>
      </trkpt>
      <trkpt lat="42.5508310" lon="2.9680240">
        <ele>23.0</ele>
        <time>2020-07-20T11:40:41Z</time>
      </trkpt>
      <trkpt lat="42.5507820" lon="2.9677200">
        <ele>23.4</ele>
        <time>2020-07-20T11:40:45Z</time>
      </trkpt>
      <trkpt lat="42.5507570" lon="2.9675720">
        <ele>23.4</ele>
        <time>2020-07-20T11:40:47Z</time>
      </trkpt>
      <trkpt lat="42.5507030" lon="2.9672350">
        <ele>23.6</ele>
        <time>2020-07-20T11:40:51Z</time>
      </trkpt>
      <trkpt lat="42.5506880" lon="2.9671470">
        <ele>23.6</ele>
        <time>2020-07-20T11:40:52Z</time>
      </trkpt>
      <trkpt lat="42.5506560" lon="2.9669760">
        <ele>23.8</ele>
        <time>2020-07-20T11:40:54Z</time>
      </trkpt>
      <trkpt lat="42.5506230" lon="2.9667280">
        <ele>24.2</ele>
        <time>2020-07-20T11:40:57Z</time>
      </trkpt>
      <trkpt lat="42.5505900" lon="2.9664750">
        <ele>24.4</ele>
        <time>2020-07-20T11:41:00Z</time>
      </trkpt>
      <trkpt lat="42.5505090" lon="2.9659680">
        <ele>24.2</ele>
        <time>2020-07-20T11:41:06Z</time>
      </trkpt>
      <trkpt lat="42.5504310" lon="2.9655020">
        <ele>24.2</ele>
        <time>2020-07-20T11:41:12Z</time>
      </trkpt>
      <trkpt lat="42.5504260" lon="2.9654210">
        <ele>24.2</ele>
        <time>2020-07-20T11:41:13Z</time>
      </trkpt>
      <trkpt lat="42.5504180" lon="2.9653400">
        <ele>24.2</ele>
        <time>2020-07-20T11:41:14Z</time>
      </trkpt>
      <trkpt lat="42.5504000" lon="2.9651830">
        <ele>24.2</ele>
        <time>2020-07-20T11:41:16Z</time>
      </trkpt>
      <trkpt lat="42.5503910" lon="2.9651050">
        <ele>24.0</ele>
        <time>2020-07-20T11:41:17Z</time>
      </trkpt>
      <trkpt lat="42.5503580" lon="2.9648720">
        <ele>24.4</ele>
        <time>2020-07-20T11:41:20Z</time>
      </trkpt>
      <trkpt lat="42.5503210" lon="2.9646300">
        <ele>24.6</ele>
        <time>2020-07-20T11:41:23Z</time>
      </trkpt>
      <trkpt lat="42.5502750" lon="2.9642010">
        <ele>24.6</ele>
        <time>2020-07-20T11:41:28Z</time>
      </trkpt>
      <trkpt lat="42.5502210" lon="2.9637840">
        <ele>25.2</ele>
        <time>2020-07-20T11:41:33Z</time>
      </trkpt>
      <trkpt lat="42.5501920" lon="2.9635460">
        <ele>25.8</ele>
        <time>2020-07-20T11:41:36Z</time>
      </trkpt>
      <trkpt lat="42.5501630" lon="2.9632570">
        <ele>26.4</ele>
        <time>2020-07-20T11:41:40Z</time>
      </trkpt>
      <trkpt lat="42.5501650" lon="2.9631870">
        <ele>26.6</ele>
        <time>2020-07-20T11:41:41Z</time>
      </trkpt>
      <trkpt lat="42.5501760" lon="2.9631190">
        <ele>26.8</ele>
        <time>2020-07-20T11:41:42Z</time>
      </trkpt>
      <trkpt lat="42.5502050" lon="2.9629830">
        <ele>27.2</ele>
        <time>2020-07-20T11:41:44Z</time>
      </trkpt>
      <trkpt lat="42.5502070" lon="2.9628440">
        <ele>27.2</ele>
        <time>2020-07-20T11:41:46Z</time>
      </trkpt>
      <trkpt lat="42.5501970" lon="2.9627740">
        <ele>27.2</ele>
        <time>2020-07-20T11:41:47Z</time>
      </trkpt>
      <trkpt lat="42.5501710" lon="2.9627080">
        <ele>27.4</ele>
        <time>2020-07-20T11:41:48Z</time>
      </trkpt>
      <trkpt lat="42.5501080" lon="2.9625770">
        <ele>27.4</ele>
        <time>2020-07-20T11:41:50Z</time>
      </trkpt>
      <trkpt lat="42.5500810" lon="2.9625070">
        <ele>27.4</ele>
        <time>2020-07-20T11:41:51Z</time>
      </trkpt>
      <trkpt lat="42.5500390" lon="2.9623560">
        <ele>27.6</ele>
        <time>2020-07-20T11:41:53Z</time>
      </trkpt>
      <trkpt lat="42.5500040" lon="2.9621980">
        <ele>27.6</ele>
        <time>2020-07-20T11:41:55Z</time>
      </trkpt>
      <trkpt lat="42.5499040" lon="2.9616830">
        <ele>27.8</ele>
        <time>2020-07-20T11:42:01Z</time>
      </trkpt>
      <trkpt lat="42.5498530" lon="2.9614270">
        <ele>28.6</ele>
        <time>2020-07-20T11:42:04Z</time>
      </trkpt>
      <trkpt lat="42.5497640" lon="2.9609090">
        <ele>29.0</ele>
        <time>2020-07-20T11:42:10Z</time>
      </trkpt>
      <trkpt lat="42.5497500" lon="2.9608240">
        <ele>29.0</ele>
        <time>2020-07-20T11:42:11Z</time>
      </trkpt>
      <trkpt lat="42.5497350" lon="2.9607410">
        <ele>29.2</ele>
        <time>2020-07-20T11:42:12Z</time>
      </trkpt>
      <trkpt lat="42.5497100" lon="2.9605700">
        <ele>29.6</ele>
        <time>2020-07-20T11:42:14Z</time>
      </trkpt>
      <trkpt lat="42.5496370" lon="2.9600590">
        <ele>30.6</ele>
        <time>2020-07-20T11:42:20Z</time>
      </trkpt>
      <trkpt lat="42.5496230" lon="2.9599740">
        <ele>30.6</ele>
        <time>2020-07-20T11:42:21Z</time>
      </trkpt>
      <trkpt lat="42.5495950" lon="2.9598030">
        <ele>30.6</ele>
        <time>2020-07-20T11:42:23Z</time>
      </trkpt>
      <trkpt lat="42.5495160" lon="2.9592950">
        <ele>31.8</ele>
        <time>2020-07-20T11:42:29Z</time>
      </trkpt>
      <trkpt lat="42.5495050" lon="2.9592130">
        <ele>32.0</ele>
        <time>2020-07-20T11:42:30Z</time>
      </trkpt>
      <trkpt lat="42.5494520" lon="2.9588700">
        <ele>32.2</ele>
        <time>2020-07-20T11:42:34Z</time>
      </trkpt>
      <trkpt lat="42.5493990" lon="2.9585330">
        <ele>32.8</ele>
        <time>2020-07-20T11:42:38Z</time>
      </trkpt>
      <trkpt lat="42.5493740" lon="2.9583610">
        <ele>33.0</ele>
        <time>2020-07-20T11:42:40Z</time>
      </trkpt>
      <trkpt lat="42.5493390" lon="2.9580990">
        <ele>33.4</ele>
        <time>2020-07-20T11:42:43Z</time>
      </trkpt>
      <trkpt lat="42.5492610" lon="2.9575430">
        <ele>33.0</ele>
        <time>2020-07-20T11:42:49Z</time>
      </trkpt>
      <trkpt lat="42.5491810" lon="2.9569860">
        <ele>33.2</ele>
        <time>2020-07-20T11:42:55Z</time>
      </trkpt>
      <trkpt lat="42.5491420" lon="2.9567030">
        <ele>33.2</ele>
        <time>2020-07-20T11:42:58Z</time>
      </trkpt>
      <trkpt lat="42.5490550" lon="2.9561130">
        <ele>33.0</ele>
        <time>2020-07-20T11:43:04Z</time>
      </trkpt>
      <trkpt lat="42.5490090" lon="2.9558150">
        <ele>33.0</ele>
        <time>2020-07-20T11:43:07Z</time>
      </trkpt>
      <trkpt lat="42.5489200" lon="2.9552270">
        <ele>33.6</ele>
        <time>2020-07-20T11:43:13Z</time>
      </trkpt>
      <trkpt lat="42.5488890" lon="2.9550280">
        <ele>33.8</ele>
        <time>2020-07-20T11:43:15Z</time>
      </trkpt>
      <trkpt lat="42.5488280" lon="2.9546260">
        <ele>34.0</ele>
        <time>2020-07-20T11:43:19Z</time>
      </trkpt>
      <trkpt lat="42.5487400" lon="2.9539980">
        <ele>33.4</ele>
        <time>2020-07-20T11:43:25Z</time>
      </trkpt>
      <trkpt lat="42.5486930" lon="2.9536780">
        <ele>33.2</ele>
        <time>2020-07-20T11:43:28Z</time>
      </trkpt>
      <trkpt lat="42.5486620" lon="2.9534640">
        <ele>33.2</ele>
        <time>2020-07-20T11:43:30Z</time>
      </trkpt>
      <trkpt lat="42.5486130" lon="2.9531410">
        <ele>33.6</ele>
        <time>2020-07-20T11:43:33Z</time>
      </trkpt>
      <trkpt lat="42.5485100" lon="2.9524890">
        <ele>34.0</ele>
        <time>2020-07-20T11:43:39Z</time>
      </trkpt>
      <trkpt lat="42.5484930" lon="2.9523820">
        <ele>34.2</ele>
        <time>2020-07-20T11:43:40Z</time>
      </trkpt>
      <trkpt lat="42.5484320" lon="2.9519520">
        <ele>34.6</ele>
        <time>2020-07-20T11:43:44Z</time>
      </trkpt>
      <trkpt lat="42.5483990" lon="2.9517400">
        <ele>34.2</ele>
        <time>2020-07-20T11:43:46Z</time>
      </trkpt>
      <trkpt lat="42.5483700" lon="2.9515270">
        <ele>33.8</ele>
        <time>2020-07-20T11:43:48Z</time>
      </trkpt>
      <trkpt lat="42.5483550" lon="2.9514200">
        <ele>33.6</ele>
        <time>2020-07-20T11:43:49Z</time>
      </trkpt>
      <trkpt lat="42.5483400" lon="2.9513130">
        <ele>33.4</ele>
        <time>2020-07-20T11:43:50Z</time>
      </trkpt>
      <trkpt lat="42.5482800" lon="2.9508850">
        <ele>33.6</ele>
        <time>2020-07-20T11:43:54Z</time>
      </trkpt>
      <trkpt lat="42.5481850" lon="2.9502520">
        <ele>33.6</ele>
        <time>2020-07-20T11:44:00Z</time>
      </trkpt>
      <trkpt lat="42.5481370" lon="2.9499370">
        <ele>33.6</ele>
        <time>2020-07-20T11:44:03Z</time>
      </trkpt>
      <trkpt lat="42.5480750" lon="2.9495190">
        <ele>33.4</ele>
        <time>2020-07-20T11:44:07Z</time>
      </trkpt>
      <trkpt lat="42.5480290" lon="2.9492040">
        <ele>33.8</ele>
        <time>2020-07-20T11:44:10Z</time>
      </trkpt>
      <trkpt lat="42.5479640" lon="2.9487830">
        <ele>34.0</ele>
        <time>2020-07-20T11:44:14Z</time>
      </trkpt>
      <trkpt lat="42.5478680" lon="2.9481540">
        <ele>34.2</ele>
        <time>2020-07-20T11:44:20Z</time>
      </trkpt>
      <trkpt lat="42.5477900" lon="2.9476430">
        <ele>34.2</ele>
        <time>2020-07-20T11:44:25Z</time>
      </trkpt>
      <trkpt lat="42.5476870" lon="2.9470400">
        <ele>34.0</ele>
        <time>2020-07-20T11:44:31Z</time>
      </trkpt>
      <trkpt lat="42.5476710" lon="2.9469390">
        <ele>33.8</ele>
        <time>2020-07-20T11:44:32Z</time>
      </trkpt>
      <trkpt lat="42.5475940" lon="2.9464290">
        <ele>33.4</ele>
        <time>2020-07-20T11:44:37Z</time>
      </trkpt>
      <trkpt lat="42.5475800" lon="2.9463270">
        <ele>33.2</ele>
        <time>2020-07-20T11:44:38Z</time>
      </trkpt>
      <trkpt lat="42.5475490" lon="2.9461240">
        <ele>32.8</ele>
        <time>2020-07-20T11:44:40Z</time>
      </trkpt>
      <trkpt lat="42.5475350" lon="2.9460250">
        <ele>33.0</ele>
        <time>2020-07-20T11:44:41Z</time>
      </trkpt>
      <trkpt lat="42.5474880" lon="2.9457310">
        <ele>33.8</ele>
        <time>2020-07-20T11:44:44Z</time>
      </trkpt>
      <trkpt lat="42.5473980" lon="2.9451430">
        <ele>33.6</ele>
        <time>2020-07-20T11:44:50Z</time>
      </trkpt>
      <trkpt lat="42.5473140" lon="2.9445490">
        <ele>33.6</ele>
        <time>2020-07-20T11:44:56Z</time>
      </trkpt>
      <trkpt lat="42.5473030" lon="2.9444510">
        <ele>33.6</ele>
        <time>2020-07-20T11:44:57Z</time>
      </trkpt>
      <trkpt lat="42.5472650" lon="2.9441560">
        <ele>33.8</ele>
        <time>2020-07-20T11:45:00Z</time>
      </trkpt>
      <trkpt lat="42.5472140" lon="2.9436750">
        <ele>34.2</ele>
        <time>2020-07-20T11:45:05Z</time>
      </trkpt>
      <trkpt lat="42.5471770" lon="2.9431050">
        <ele>33.6</ele>
        <time>2020-07-20T11:45:11Z</time>
      </trkpt>
      <trkpt lat="42.5471690" lon="2.9430080">
        <ele>33.6</ele>
        <time>2020-07-20T11:45:12Z</time>
      </trkpt>
      <trkpt lat="42.5471190" lon="2.9425580">
        <ele>33.4</ele>
        <time>2020-07-20T11:45:17Z</time>
      </trkpt>
      <trkpt lat="42.5470960" lon="2.9423900">
        <ele>33.6</ele>
        <time>2020-07-20T11:45:19Z</time>
      </trkpt>
      <trkpt lat="42.5470550" lon="2.9420010">
        <ele>34.0</ele>
        <time>2020-07-20T11:45:25Z</time>
      </trkpt>
      <trkpt lat="42.5470710" lon="2.9419260">
        <ele>34.2</ele>
        <time>2020-07-20T11:45:28Z</time>
      </trkpt>
      <trkpt lat="42.5470770" lon="2.9418810">
        <ele>34.2</ele>
        <time>2020-07-20T11:45:29Z</time>
      </trkpt>
      <trkpt lat="42.5470780" lon="2.9418240">
        <ele>34.2</ele>
        <time>2020-07-20T11:45:30Z</time>
      </trkpt>
      <trkpt lat="42.5470710" lon="2.9417600">
        <ele>34.2</ele>
        <time>2020-07-20T11:45:31Z</time>
      </trkpt>
      <trkpt lat="42.5469990" lon="2.9415540">
        <ele>34.0</ele>
        <time>2020-07-20T11:45:34Z</time>
      </trkpt>
      <trkpt lat="42.5468980" lon="2.9410130">
        <ele>34.0</ele>
        <time>2020-07-20T11:45:40Z</time>
      </trkpt>
      <trkpt lat="42.5467830" lon="2.9404220">
        <ele>33.8</ele>
        <time>2020-07-20T11:45:46Z</time>
      </trkpt>
      <trkpt lat="42.5467620" lon="2.9403230">
        <ele>33.6</ele>
        <time>2020-07-20T11:45:47Z</time>
      </trkpt>
      <trkpt lat="42.5466270" lon="2.9397220">
        <ele>34.0</ele>
        <time>2020-07-20T11:45:53Z</time>
      </trkpt>
      <trkpt lat="42.5465700" lon="2.9394260">
        <ele>34.4</ele>
        <time>2020-07-20T11:45:56Z</time>
      </trkpt>
      <trkpt lat="42.5465520" lon="2.9393290">
        <ele>34.8</ele>
        <time>2020-07-20T11:45:57Z</time>
      </trkpt>
      <trkpt lat="42.5465350" lon="2.9392330">
        <ele>34.8</ele>
        <time>2020-07-20T11:45:58Z</time>
      </trkpt>
      <trkpt lat="42.5464840" lon="2.9389490">
        <ele>35.2</ele>
        <time>2020-07-20T11:46:01Z</time>
      </trkpt>
      <trkpt lat="42.5464110" lon="2.9384640">
        <ele>35.2</ele>
        <time>2020-07-20T11:46:06Z</time>
      </trkpt>
      <trkpt lat="42.5463170" lon="2.9378390">
        <ele>34.2</ele>
        <time>2020-07-20T11:46:12Z</time>
      </trkpt>
      <trkpt lat="42.5462850" lon="2.9376170">
        <ele>34.0</ele>
        <time>2020-07-20T11:46:14Z</time>
      </trkpt>
      <trkpt lat="42.5462330" lon="2.9372800">
        <ele>34.0</ele>
        <time>2020-07-20T11:46:17Z</time>
      </trkpt>
      <trkpt lat="42.5461350" lon="2.9366070">
        <ele>34.0</ele>
        <time>2020-07-20T11:46:23Z</time>
      </trkpt>
      <trkpt lat="42.5461200" lon="2.9364930">
        <ele>33.8</ele>
        <time>2020-07-20T11:46:24Z</time>
      </trkpt>
      <trkpt lat="42.5460150" lon="2.9358160">
        <ele>34.8</ele>
        <time>2020-07-20T11:46:30Z</time>
      </trkpt>
      <trkpt lat="42.5459960" lon="2.9356990">
        <ele>35.0</ele>
        <time>2020-07-20T11:46:31Z</time>
      </trkpt>
      <trkpt lat="42.5459780" lon="2.9355830">
        <ele>35.4</ele>
        <time>2020-07-20T11:46:32Z</time>
      </trkpt>
      <trkpt lat="42.5458730" lon="2.9348830">
        <ele>35.4</ele>
        <time>2020-07-20T11:46:38Z</time>
      </trkpt>
      <trkpt lat="42.5458110" lon="2.9344210">
        <ele>35.2</ele>
        <time>2020-07-20T11:46:42Z</time>
      </trkpt>
      <trkpt lat="42.5457960" lon="2.9343060">
        <ele>35.2</ele>
        <time>2020-07-20T11:46:43Z</time>
      </trkpt>
      <trkpt lat="42.5457020" lon="2.9336310">
        <ele>34.8</ele>
        <time>2020-07-20T11:46:49Z</time>
      </trkpt>
      <trkpt lat="42.5456530" lon="2.9332990">
        <ele>34.8</ele>
        <time>2020-07-20T11:46:52Z</time>
      </trkpt>
      <trkpt lat="42.5455510" lon="2.9326300">
        <ele>35.0</ele>
        <time>2020-07-20T11:46:58Z</time>
      </trkpt>
      <trkpt lat="42.5454970" lon="2.9323000">
        <ele>34.8</ele>
        <time>2020-07-20T11:47:01Z</time>
      </trkpt>
      <trkpt lat="42.5453940" lon="2.9316550">
        <ele>34.8</ele>
        <time>2020-07-20T11:47:07Z</time>
      </trkpt>
      <trkpt lat="42.5453400" lon="2.9313280">
        <ele>35.0</ele>
        <time>2020-07-20T11:47:10Z</time>
      </trkpt>
      <trkpt lat="42.5453240" lon="2.9312190">
        <ele>35.0</ele>
        <time>2020-07-20T11:47:11Z</time>
      </trkpt>
      <trkpt lat="42.5452860" lon="2.9310030">
        <ele>35.2</ele>
        <time>2020-07-20T11:47:13Z</time>
      </trkpt>
      <trkpt lat="42.5452220" lon="2.9305720">
        <ele>35.2</ele>
        <time>2020-07-20T11:47:17Z</time>
      </trkpt>
      <trkpt lat="42.5451350" lon="2.9300280">
        <ele>36.0</ele>
        <time>2020-07-20T11:47:22Z</time>
      </trkpt>
      <trkpt lat="42.5451170" lon="2.9299170">
        <ele>36.2</ele>
        <time>2020-07-20T11:47:23Z</time>
      </trkpt>
      <trkpt lat="42.5450650" lon="2.9295940">
        <ele>36.2</ele>
        <time>2020-07-20T11:47:26Z</time>
      </trkpt>
      <trkpt lat="42.5450510" lon="2.9294880">
        <ele>36.4</ele>
        <time>2020-07-20T11:47:27Z</time>
      </trkpt>
      <trkpt lat="42.5450240" lon="2.9292760">
        <ele>36.4</ele>
        <time>2020-07-20T11:47:29Z</time>
      </trkpt>
      <trkpt lat="42.5449220" lon="2.9286350">
        <ele>36.0</ele>
        <time>2020-07-20T11:47:35Z</time>
      </trkpt>
      <trkpt lat="42.5449080" lon="2.9285270">
        <ele>36.0</ele>
        <time>2020-07-20T11:47:36Z</time>
      </trkpt>
      <trkpt lat="42.5448960" lon="2.9284200">
        <ele>36.0</ele>
        <time>2020-07-20T11:47:37Z</time>
      </trkpt>
      <trkpt lat="42.5448210" lon="2.9279030">
        <ele>36.6</ele>
        <time>2020-07-20T11:47:42Z</time>
      </trkpt>
      <trkpt lat="42.5447290" lon="2.9273600">
        <ele>36.8</ele>
        <time>2020-07-20T11:47:48Z</time>
      </trkpt>
      <trkpt lat="42.5447160" lon="2.9272740">
        <ele>37.0</ele>
        <time>2020-07-20T11:47:49Z</time>
      </trkpt>
      <trkpt lat="42.5446920" lon="2.9270950">
        <ele>37.2</ele>
        <time>2020-07-20T11:47:51Z</time>
      </trkpt>
      <trkpt lat="42.5446080" lon="2.9266360">
        <ele>36.8</ele>
        <time>2020-07-20T11:47:56Z</time>
      </trkpt>
      <trkpt lat="42.5445310" lon="2.9261600">
        <ele>36.6</ele>
        <time>2020-07-20T11:48:01Z</time>
      </trkpt>
      <trkpt lat="42.5445160" lon="2.9259640">
        <ele>36.4</ele>
        <time>2020-07-20T11:48:03Z</time>
      </trkpt>
      <trkpt lat="42.5444820" lon="2.9256750">
        <ele>36.0</ele>
        <time>2020-07-20T11:48:06Z</time>
      </trkpt>
      <trkpt lat="42.5444400" lon="2.9253880">
        <ele>36.0</ele>
        <time>2020-07-20T11:48:09Z</time>
      </trkpt>
      <trkpt lat="42.5444090" lon="2.9252020">
        <ele>36.2</ele>
        <time>2020-07-20T11:48:11Z</time>
      </trkpt>
      <trkpt lat="42.5443960" lon="2.9251060">
        <ele>36.4</ele>
        <time>2020-07-20T11:48:12Z</time>
      </trkpt>
      <trkpt lat="42.5443130" lon="2.9245460">
        <ele>37.0</ele>
        <time>2020-07-20T11:48:18Z</time>
      </trkpt>
      <trkpt lat="42.5443000" lon="2.9244550">
        <ele>37.2</ele>
        <time>2020-07-20T11:48:19Z</time>
      </trkpt>
      <trkpt lat="42.5442640" lon="2.9241790">
        <ele>37.4</ele>
        <time>2020-07-20T11:48:22Z</time>
      </trkpt>
      <trkpt lat="42.5442270" lon="2.9239040">
        <ele>37.6</ele>
        <time>2020-07-20T11:48:25Z</time>
      </trkpt>
      <trkpt lat="42.5442150" lon="2.9238120">
        <ele>37.8</ele>
        <time>2020-07-20T11:48:26Z</time>
      </trkpt>
      <trkpt lat="42.5441290" lon="2.9232610">
        <ele>38.0</ele>
        <time>2020-07-20T11:48:32Z</time>
      </trkpt>
      <trkpt lat="42.5441150" lon="2.9231710">
        <ele>37.8</ele>
        <time>2020-07-20T11:48:33Z</time>
      </trkpt>
      <trkpt lat="42.5440890" lon="2.9229900">
        <ele>37.8</ele>
        <time>2020-07-20T11:48:35Z</time>
      </trkpt>
      <trkpt lat="42.5440630" lon="2.9228100">
        <ele>38.2</ele>
        <time>2020-07-20T11:48:37Z</time>
      </trkpt>
      <trkpt lat="42.5439970" lon="2.9223690">
        <ele>39.4</ele>
        <time>2020-07-20T11:48:42Z</time>
      </trkpt>
      <trkpt lat="42.5438970" lon="2.9218450">
        <ele>39.8</ele>
        <time>2020-07-20T11:48:48Z</time>
      </trkpt>
      <trkpt lat="42.5438660" lon="2.9216870">
        <ele>40.2</ele>
        <time>2020-07-20T11:48:50Z</time>
      </trkpt>
      <trkpt lat="42.5438570" lon="2.9216180">
        <ele>40.4</ele>
        <time>2020-07-20T11:48:51Z</time>
      </trkpt>
      <trkpt lat="42.5438240" lon="2.9214260">
        <ele>40.8</ele>
        <time>2020-07-20T11:48:54Z</time>
      </trkpt>
      <trkpt lat="42.5438060" lon="2.9213620">
        <ele>40.8</ele>
        <time>2020-07-20T11:48:55Z</time>
      </trkpt>
      <trkpt lat="42.5437220" lon="2.9209170">
        <ele>40.2</ele>
        <time>2020-07-20T11:49:01Z</time>
      </trkpt>
      <trkpt lat="42.5437070" lon="2.9208390">
        <ele>40.2</ele>
        <time>2020-07-20T11:49:02Z</time>
      </trkpt>
      <trkpt lat="42.5436730" lon="2.9206840">
        <ele>40.4</ele>
        <time>2020-07-20T11:49:04Z</time>
      </trkpt>
      <trkpt lat="42.5435710" lon="2.9202320">
        <ele>41.0</ele>
        <time>2020-07-20T11:49:10Z</time>
      </trkpt>
      <trkpt lat="42.5435560" lon="2.9201590">
        <ele>41.0</ele>
        <time>2020-07-20T11:49:11Z</time>
      </trkpt>
      <trkpt lat="42.5434400" lon="2.9197620">
        <ele>41.6</ele>
        <time>2020-07-20T11:49:17Z</time>
      </trkpt>
      <trkpt lat="42.5434230" lon="2.9196940">
        <ele>41.6</ele>
        <time>2020-07-20T11:49:18Z</time>
      </trkpt>
      <trkpt lat="42.5433670" lon="2.9194750">
        <ele>41.6</ele>
        <time>2020-07-20T11:49:21Z</time>
      </trkpt>
      <trkpt lat="42.5433210" lon="2.9191540">
        <ele>41.2</ele>
        <time>2020-07-20T11:49:25Z</time>
      </trkpt>
      <trkpt lat="42.5433240" lon="2.9189830">
        <ele>40.8</ele>
        <time>2020-07-20T11:49:27Z</time>
      </trkpt>
      <trkpt lat="42.5433250" lon="2.9188940">
        <ele>40.8</ele>
        <time>2020-07-20T11:49:28Z</time>
      </trkpt>
      <trkpt lat="42.5433230" lon="2.9187110">
        <ele>40.6</ele>
        <time>2020-07-20T11:49:30Z</time>
      </trkpt>
      <trkpt lat="42.5433200" lon="2.9186180">
        <ele>40.4</ele>
        <time>2020-07-20T11:49:31Z</time>
      </trkpt>
      <trkpt lat="42.5433160" lon="2.9182520">
        <ele>40.6</ele>
        <time>2020-07-20T11:49:35Z</time>
      </trkpt>
      <trkpt lat="42.5432890" lon="2.9177920">
        <ele>40.8</ele>
        <time>2020-07-20T11:49:40Z</time>
      </trkpt>
      <trkpt lat="42.5432820" lon="2.9176170">
        <ele>40.8</ele>
        <time>2020-07-20T11:49:42Z</time>
      </trkpt>
      <trkpt lat="42.5432760" lon="2.9175300">
        <ele>41.0</ele>
        <time>2020-07-20T11:49:43Z</time>
      </trkpt>
      <trkpt lat="42.5432680" lon="2.9174420">
        <ele>41.0</ele>
        <time>2020-07-20T11:49:44Z</time>
      </trkpt>
      <trkpt lat="42.5432590" lon="2.9173540">
        <ele>41.0</ele>
        <time>2020-07-20T11:49:45Z</time>
      </trkpt>
      <trkpt lat="42.5432420" lon="2.9171800">
        <ele>41.2</ele>
        <time>2020-07-20T11:49:47Z</time>
      </trkpt>
      <trkpt lat="42.5432270" lon="2.9169140">
        <ele>41.4</ele>
        <time>2020-07-20T11:49:50Z</time>
      </trkpt>
      <trkpt lat="42.5432140" lon="2.9166530">
        <ele>41.6</ele>
        <time>2020-07-20T11:49:53Z</time>
      </trkpt>
      <trkpt lat="42.5432060" lon="2.9165670">
        <ele>41.6</ele>
        <time>2020-07-20T11:49:54Z</time>
      </trkpt>
      <trkpt lat="42.5431980" lon="2.9164850">
        <ele>41.8</ele>
        <time>2020-07-20T11:49:55Z</time>
      </trkpt>
      <trkpt lat="42.5431800" lon="2.9161350">
        <ele>42.0</ele>
        <time>2020-07-20T11:49:59Z</time>
      </trkpt>
      <trkpt lat="42.5431680" lon="2.9157270">
        <ele>42.2</ele>
        <time>2020-07-20T11:50:04Z</time>
      </trkpt>
      <trkpt lat="42.5431470" lon="2.9152880">
        <ele>42.8</ele>
        <time>2020-07-20T11:50:10Z</time>
      </trkpt>
      <trkpt lat="42.5431430" lon="2.9152300">
        <ele>42.8</ele>
        <time>2020-07-20T11:50:11Z</time>
      </trkpt>
      <trkpt lat="42.5431410" lon="2.9151750">
        <ele>42.8</ele>
        <time>2020-07-20T11:50:12Z</time>
      </trkpt>
      <trkpt lat="42.5431370" lon="2.9151200">
        <ele>42.6</ele>
        <time>2020-07-20T11:50:13Z</time>
      </trkpt>
      <trkpt lat="42.5431330" lon="2.9150610">
        <ele>42.6</ele>
        <time>2020-07-20T11:50:14Z</time>
      </trkpt>
      <trkpt lat="42.5431290" lon="2.9149350">
        <ele>42.0</ele>
        <time>2020-07-20T11:50:16Z</time>
      </trkpt>
      <trkpt lat="42.5431380" lon="2.9148720">
        <ele>41.6</ele>
        <time>2020-07-20T11:50:17Z</time>
      </trkpt>
      <trkpt lat="42.5431530" lon="2.9148100">
        <ele>41.6</ele>
        <time>2020-07-20T11:50:18Z</time>
      </trkpt>
      <trkpt lat="42.5431870" lon="2.9146900">
        <ele>41.2</ele>
        <time>2020-07-20T11:50:20Z</time>
      </trkpt>
      <trkpt lat="42.5431910" lon="2.9146310">
        <ele>41.0</ele>
        <time>2020-07-20T11:50:21Z</time>
      </trkpt>
      <trkpt lat="42.5431790" lon="2.9145720">
        <ele>41.2</ele>
        <time>2020-07-20T11:50:22Z</time>
      </trkpt>
      <trkpt lat="42.5431370" lon="2.9144590">
        <ele>41.2</ele>
        <time>2020-07-20T11:50:24Z</time>
      </trkpt>
      <trkpt lat="42.5430960" lon="2.9143350">
        <ele>41.0</ele>
        <time>2020-07-20T11:50:26Z</time>
      </trkpt>
      <trkpt lat="42.5430780" lon="2.9141890">
        <ele>40.8</ele>
        <time>2020-07-20T11:50:28Z</time>
      </trkpt>
      <trkpt lat="42.5430750" lon="2.9141100">
        <ele>40.8</ele>
        <time>2020-07-20T11:50:29Z</time>
      </trkpt>
      <trkpt lat="42.5430640" lon="2.9139330">
        <ele>40.6</ele>
        <time>2020-07-20T11:50:31Z</time>
      </trkpt>
      <trkpt lat="42.5430420" lon="2.9135580">
        <ele>40.0</ele>
        <time>2020-07-20T11:50:35Z</time>
      </trkpt>
      <trkpt lat="42.5430330" lon="2.9133680">
        <ele>39.6</ele>
        <time>2020-07-20T11:50:37Z</time>
      </trkpt>
      <trkpt lat="42.5430060" lon="2.9128060">
        <ele>39.2</ele>
        <time>2020-07-20T11:50:43Z</time>
      </trkpt>
      <trkpt lat="42.5429990" lon="2.9127110">
        <ele>39.4</ele>
        <time>2020-07-20T11:50:44Z</time>
      </trkpt>
      <trkpt lat="42.5429730" lon="2.9121350">
        <ele>39.8</ele>
        <time>2020-07-20T11:50:50Z</time>
      </trkpt>
      <trkpt lat="42.5429680" lon="2.9120380">
        <ele>39.6</ele>
        <time>2020-07-20T11:50:51Z</time>
      </trkpt>
      <trkpt lat="42.5429520" lon="2.9117480">
        <ele>39.8</ele>
        <time>2020-07-20T11:50:54Z</time>
      </trkpt>
      <trkpt lat="42.5429200" lon="2.9111620">
        <ele>39.8</ele>
        <time>2020-07-20T11:51:00Z</time>
      </trkpt>
      <trkpt lat="42.5429160" lon="2.9110670">
        <ele>39.6</ele>
        <time>2020-07-20T11:51:01Z</time>
      </trkpt>
      <trkpt lat="42.5428950" lon="2.9105830">
        <ele>39.6</ele>
        <time>2020-07-20T11:51:06Z</time>
      </trkpt>
      <trkpt lat="42.5428720" lon="2.9100940">
        <ele>40.4</ele>
        <time>2020-07-20T11:51:11Z</time>
      </trkpt>
      <trkpt lat="42.5428610" lon="2.9098980">
        <ele>40.8</ele>
        <time>2020-07-20T11:51:13Z</time>
      </trkpt>
      <trkpt lat="42.5428450" lon="2.9095970">
        <ele>41.0</ele>
        <time>2020-07-20T11:51:16Z</time>
      </trkpt>
      <trkpt lat="42.5428370" lon="2.9093950">
        <ele>40.4</ele>
        <time>2020-07-20T11:51:18Z</time>
      </trkpt>
      <trkpt lat="42.5428280" lon="2.9091930">
        <ele>39.6</ele>
        <time>2020-07-20T11:51:20Z</time>
      </trkpt>
      <trkpt lat="42.5428040" lon="2.9088890">
        <ele>39.2</ele>
        <time>2020-07-20T11:51:23Z</time>
      </trkpt>
      <trkpt lat="42.5427750" lon="2.9085850">
        <ele>39.6</ele>
        <time>2020-07-20T11:51:26Z</time>
      </trkpt>
      <trkpt lat="42.5427580" lon="2.9083830">
        <ele>39.8</ele>
        <time>2020-07-20T11:51:28Z</time>
      </trkpt>
      <trkpt lat="42.5427530" lon="2.9082810">
        <ele>40.0</ele>
        <time>2020-07-20T11:51:29Z</time>
      </trkpt>
      <trkpt lat="42.5427480" lon="2.9081800">
        <ele>40.0</ele>
        <time>2020-07-20T11:51:30Z</time>
      </trkpt>
      <trkpt lat="42.5427240" lon="2.9077830">
        <ele>40.0</ele>
        <time>2020-07-20T11:51:34Z</time>
      </trkpt>
      <trkpt lat="42.5426970" lon="2.9071850">
        <ele>39.0</ele>
        <time>2020-07-20T11:51:40Z</time>
      </trkpt>
      <trkpt lat="42.5426880" lon="2.9069910">
        <ele>38.8</ele>
        <time>2020-07-20T11:51:42Z</time>
      </trkpt>
      <trkpt lat="42.5426710" lon="2.9065240">
        <ele>40.4</ele>
        <time>2020-07-20T11:51:47Z</time>
      </trkpt>
      <trkpt lat="42.5426680" lon="2.9064350">
        <ele>41.0</ele>
        <time>2020-07-20T11:51:48Z</time>
      </trkpt>
      <trkpt lat="42.5426620" lon="2.9062610">
        <ele>41.0</ele>
        <time>2020-07-20T11:51:50Z</time>
      </trkpt>
      <trkpt lat="42.5426330" lon="2.9057360">
        <ele>41.2</ele>
        <time>2020-07-20T11:51:56Z</time>
      </trkpt>
      <trkpt lat="42.5426150" lon="2.9054690">
        <ele>41.2</ele>
        <time>2020-07-20T11:51:59Z</time>
      </trkpt>
      <trkpt lat="42.5425930" lon="2.9051020">
        <ele>41.0</ele>
        <time>2020-07-20T11:52:03Z</time>
      </trkpt>
      <trkpt lat="42.5425650" lon="2.9046450">
        <ele>41.2</ele>
        <time>2020-07-20T11:52:08Z</time>
      </trkpt>
      <trkpt lat="42.5425520" lon="2.9044660">
        <ele>41.2</ele>
        <time>2020-07-20T11:52:10Z</time>
      </trkpt>
      <trkpt lat="42.5425410" lon="2.9042890">
        <ele>41.2</ele>
        <time>2020-07-20T11:52:12Z</time>
      </trkpt>
      <trkpt lat="42.5425230" lon="2.9040220">
        <ele>41.4</ele>
        <time>2020-07-20T11:52:15Z</time>
      </trkpt>
      <trkpt lat="42.5425160" lon="2.9039350">
        <ele>41.6</ele>
        <time>2020-07-20T11:52:16Z</time>
      </trkpt>
      <trkpt lat="42.5424960" lon="2.9036020">
        <ele>41.8</ele>
        <time>2020-07-20T11:52:20Z</time>
      </trkpt>
      <trkpt lat="42.5424870" lon="2.9035210">
        <ele>42.0</ele>
        <time>2020-07-20T11:52:21Z</time>
      </trkpt>
      <trkpt lat="42.5424630" lon="2.9032810">
        <ele>43.0</ele>
        <time>2020-07-20T11:52:24Z</time>
      </trkpt>
      <trkpt lat="42.5424560" lon="2.9032020">
        <ele>43.2</ele>
        <time>2020-07-20T11:52:25Z</time>
      </trkpt>
      <trkpt lat="42.5424280" lon="2.9029000">
        <ele>43.8</ele>
        <time>2020-07-20T11:52:29Z</time>
      </trkpt>
      <trkpt lat="42.5424130" lon="2.9027070">
        <ele>43.8</ele>
        <time>2020-07-20T11:52:32Z</time>
      </trkpt>
      <trkpt lat="42.5423920" lon="2.9023790">
        <ele>44.0</ele>
        <time>2020-07-20T11:52:37Z</time>
      </trkpt>
      <trkpt lat="42.5423790" lon="2.9022290">
        <ele>44.2</ele>
        <time>2020-07-20T11:52:39Z</time>
      </trkpt>
      <trkpt lat="42.5423470" lon="2.9017800">
        <ele>44.0</ele>
        <time>2020-07-20T11:52:45Z</time>
      </trkpt>
      <trkpt lat="42.5423370" lon="2.9016390">
        <ele>43.8</ele>
        <time>2020-07-20T11:52:47Z</time>
      </trkpt>
      <trkpt lat="42.5423190" lon="2.9012960">
        <ele>43.6</ele>
        <time>2020-07-20T11:52:52Z</time>
      </trkpt>
      <trkpt lat="42.5423140" lon="2.9012210">
        <ele>43.6</ele>
        <time>2020-07-20T11:52:53Z</time>
      </trkpt>
      <trkpt lat="42.5423020" lon="2.9009950">
        <ele>43.6</ele>
        <time>2020-07-20T11:52:56Z</time>
      </trkpt>
      <trkpt lat="42.5422880" lon="2.9005620">
        <ele>44.0</ele>
        <time>2020-07-20T11:53:02Z</time>
      </trkpt>
      <trkpt lat="42.5422650" lon="2.9001730">
        <ele>44.4</ele>
        <time>2020-07-20T11:53:08Z</time>
      </trkpt>
      <trkpt lat="42.5422730" lon="2.9001180">
        <ele>44.6</ele>
        <time>2020-07-20T11:53:09Z</time>
      </trkpt>
      <trkpt lat="42.5422890" lon="2.9000620">
        <ele>44.6</ele>
        <time>2020-07-20T11:53:10Z</time>
      </trkpt>
      <trkpt lat="42.5423300" lon="2.8999530">
        <ele>45.0</ele>
        <time>2020-07-20T11:53:12Z</time>
      </trkpt>
      <trkpt lat="42.5423440" lon="2.8998980">
        <ele>45.0</ele>
        <time>2020-07-20T11:53:13Z</time>
      </trkpt>
      <trkpt lat="42.5423530" lon="2.8998400">
        <ele>45.2</ele>
        <time>2020-07-20T11:53:14Z</time>
      </trkpt>
      <trkpt lat="42.5423540" lon="2.8997840">
        <ele>45.2</ele>
        <time>2020-07-20T11:53:15Z</time>
      </trkpt>
      <trkpt lat="42.5423450" lon="2.8997260">
        <ele>45.2</ele>
        <time>2020-07-20T11:53:16Z</time>
      </trkpt>
      <trkpt lat="42.5423290" lon="2.8996700">
        <ele>45.2</ele>
        <time>2020-07-20T11:53:17Z</time>
      </trkpt>
      <trkpt lat="42.5422790" lon="2.8995110">
        <ele>45.0</ele>
        <time>2020-07-20T11:53:20Z</time>
      </trkpt>
      <trkpt lat="42.5422380" lon="2.8993010">
        <ele>45.0</ele>
        <time>2020-07-20T11:53:24Z</time>
      </trkpt>
      <trkpt lat="42.5421950" lon="2.8989980">
        <ele>45.0</ele>
        <time>2020-07-20T11:53:30Z</time>
      </trkpt>
      <trkpt lat="42.5421910" lon="2.8988910">
        <ele>45.0</ele>
        <time>2020-07-20T11:53:32Z</time>
      </trkpt>
      <trkpt lat="42.5421770" lon="2.8985410">
        <ele>45.0</ele>
        <time>2020-07-20T11:53:37Z</time>
      </trkpt>
      <trkpt lat="42.5421370" lon="2.8980870">
        <ele>45.4</ele>
        <time>2020-07-20T11:53:43Z</time>
      </trkpt>
      <trkpt lat="42.5421370" lon="2.8979310">
        <ele>45.4</ele>
        <time>2020-07-20T11:53:45Z</time>
      </trkpt>
      <trkpt lat="42.5421090" lon="2.8974640">
        <ele>45.4</ele>
        <time>2020-07-20T11:53:51Z</time>
      </trkpt>
      <trkpt lat="42.5420690" lon="2.8970030">
        <ele>45.4</ele>
        <time>2020-07-20T11:53:57Z</time>
      </trkpt>
      <trkpt lat="42.5420640" lon="2.8968410">
        <ele>45.0</ele>
        <time>2020-07-20T11:53:59Z</time>
      </trkpt>
      <trkpt lat="42.5420450" lon="2.8963380">
        <ele>45.2</ele>
        <time>2020-07-20T11:54:05Z</time>
      </trkpt>
      <trkpt lat="42.5420340" lon="2.8961700">
        <ele>45.4</ele>
        <time>2020-07-20T11:54:07Z</time>
      </trkpt>
      <trkpt lat="42.5420220" lon="2.8959190">
        <ele>45.6</ele>
        <time>2020-07-20T11:54:10Z</time>
      </trkpt>
      <trkpt lat="42.5419900" lon="2.8955050">
        <ele>45.8</ele>
        <time>2020-07-20T11:54:15Z</time>
      </trkpt>
      <trkpt lat="42.5419750" lon="2.8952540">
        <ele>45.8</ele>
        <time>2020-07-20T11:54:18Z</time>
      </trkpt>
      <trkpt lat="42.5419700" lon="2.8951700">
        <ele>46.0</ele>
        <time>2020-07-20T11:54:19Z</time>
      </trkpt>
      <trkpt lat="42.5419580" lon="2.8949270">
        <ele>45.8</ele>
        <time>2020-07-20T11:54:22Z</time>
      </trkpt>
      <trkpt lat="42.5419230" lon="2.8946010">
        <ele>46.0</ele>
        <time>2020-07-20T11:54:26Z</time>
      </trkpt>
      <trkpt lat="42.5418920" lon="2.8944470">
        <ele>45.8</ele>
        <time>2020-07-20T11:54:28Z</time>
      </trkpt>
      <trkpt lat="42.5418680" lon="2.8943750">
        <ele>45.8</ele>
        <time>2020-07-20T11:54:29Z</time>
      </trkpt>
      <trkpt lat="42.5416850" lon="2.8939920">
        <ele>45.8</ele>
        <time>2020-07-20T11:54:35Z</time>
      </trkpt>
      <trkpt lat="42.5416750" lon="2.8938760">
        <ele>46.2</ele>
        <time>2020-07-20T11:54:37Z</time>
      </trkpt>
      <trkpt lat="42.5416940" lon="2.8938290">
        <ele>46.2</ele>
        <time>2020-07-20T11:54:38Z</time>
      </trkpt>
      <trkpt lat="42.5417990" lon="2.8937570">
        <ele>46.2</ele>
        <time>2020-07-20T11:54:41Z</time>
      </trkpt>
      <trkpt lat="42.5418390" lon="2.8937380">
        <ele>46.2</ele>
        <time>2020-07-20T11:54:42Z</time>
      </trkpt>
      <trkpt lat="42.5418780" lon="2.8937110">
        <ele>46.2</ele>
        <time>2020-07-20T11:54:43Z</time>
      </trkpt>
      <trkpt lat="42.5419210" lon="2.8936790">
        <ele>45.8</ele>
        <time>2020-07-20T11:54:44Z</time>
      </trkpt>
      <trkpt lat="42.5420190" lon="2.8936080">
        <ele>45.4</ele>
        <time>2020-07-20T11:54:46Z</time>
      </trkpt>
      <trkpt lat="42.5421200" lon="2.8935650">
        <ele>45.0</ele>
        <time>2020-07-20T11:54:48Z</time>
      </trkpt>
      <trkpt lat="42.5421740" lon="2.8935830">
        <ele>44.8</ele>
        <time>2020-07-20T11:54:49Z</time>
      </trkpt>
      <trkpt lat="42.5422240" lon="2.8936070">
        <ele>44.4</ele>
        <time>2020-07-20T11:54:50Z</time>
      </trkpt>
      <trkpt lat="42.5422740" lon="2.8936440">
        <ele>44.2</ele>
        <time>2020-07-20T11:54:51Z</time>
      </trkpt>
      <trkpt lat="42.5423680" lon="2.8937220">
        <ele>44.2</ele>
        <time>2020-07-20T11:54:53Z</time>
      </trkpt>
      <trkpt lat="42.5424180" lon="2.8937440">
        <ele>44.4</ele>
        <time>2020-07-20T11:54:54Z</time>
      </trkpt>
      <trkpt lat="42.5424680" lon="2.8937480">
        <ele>44.6</ele>
        <time>2020-07-20T11:54:55Z</time>
      </trkpt>
      <trkpt lat="42.5425640" lon="2.8936950">
        <ele>45.0</ele>
        <time>2020-07-20T11:54:57Z</time>
      </trkpt>
      <trkpt lat="42.5426380" lon="2.8935880">
        <ele>45.4</ele>
        <time>2020-07-20T11:54:59Z</time>
      </trkpt>
      <trkpt lat="42.5426530" lon="2.8935190">
        <ele>45.4</ele>
        <time>2020-07-20T11:55:00Z</time>
      </trkpt>
      <trkpt lat="42.5426520" lon="2.8934390">
        <ele>45.4</ele>
        <time>2020-07-20T11:55:01Z</time>
      </trkpt>
      <trkpt lat="42.5426220" lon="2.8932710">
        <ele>45.2</ele>
        <time>2020-07-20T11:55:03Z</time>
      </trkpt>
      <trkpt lat="42.5425930" lon="2.8929910">
        <ele>45.0</ele>
        <time>2020-07-20T11:55:06Z</time>
      </trkpt>
      <trkpt lat="42.5425710" lon="2.8928980">
        <ele>45.0</ele>
        <time>2020-07-20T11:55:07Z</time>
      </trkpt>
      <trkpt lat="42.5424280" lon="2.8923550">
        <ele>45.0</ele>
        <time>2020-07-20T11:55:13Z</time>
      </trkpt>
      <trkpt lat="42.5424030" lon="2.8922670">
        <ele>45.2</ele>
        <time>2020-07-20T11:55:14Z</time>
      </trkpt>
      <trkpt lat="42.5423800" lon="2.8921760">
        <ele>45.0</ele>
        <time>2020-07-20T11:55:15Z</time>
      </trkpt>
      <trkpt lat="42.5422630" lon="2.8916280">
        <ele>45.2</ele>
        <time>2020-07-20T11:55:21Z</time>
      </trkpt>
      <trkpt lat="42.5422250" lon="2.8914420">
        <ele>45.0</ele>
        <time>2020-07-20T11:55:23Z</time>
      </trkpt>
      <trkpt lat="42.5421670" lon="2.8911570">
        <ele>44.8</ele>
        <time>2020-07-20T11:55:26Z</time>
      </trkpt>
      <trkpt lat="42.5420460" lon="2.8906800">
        <ele>44.8</ele>
        <time>2020-07-20T11:55:31Z</time>
      </trkpt>
      <trkpt lat="42.5418900" lon="2.8902210">
        <ele>44.8</ele>
        <time>2020-07-20T11:55:36Z</time>
      </trkpt>
      <trkpt lat="42.5418170" lon="2.8900580">
        <ele>45.0</ele>
        <time>2020-07-20T11:55:38Z</time>
      </trkpt>
      <trkpt lat="42.5417070" lon="2.8898180">
        <ele>45.0</ele>
        <time>2020-07-20T11:55:41Z</time>
      </trkpt>
      <trkpt lat="42.5416430" lon="2.8896480">
        <ele>45.0</ele>
        <time>2020-07-20T11:55:43Z</time>
      </trkpt>
      <trkpt lat="42.5416150" lon="2.8895590">
        <ele>45.0</ele>
        <time>2020-07-20T11:55:44Z</time>
      </trkpt>
      <trkpt lat="42.5415890" lon="2.8894670">
        <ele>45.0</ele>
        <time>2020-07-20T11:55:45Z</time>
      </trkpt>
      <trkpt lat="42.5415650" lon="2.8893730">
        <ele>45.0</ele>
        <time>2020-07-20T11:55:46Z</time>
      </trkpt>
      <trkpt lat="42.5415000" lon="2.8890790">
        <ele>44.8</ele>
        <time>2020-07-20T11:55:49Z</time>
      </trkpt>
      <trkpt lat="42.5414560" lon="2.8887750">
        <ele>44.6</ele>
        <time>2020-07-20T11:55:52Z</time>
      </trkpt>
      <trkpt lat="42.5414120" lon="2.8881800">
        <ele>45.0</ele>
        <time>2020-07-20T11:55:58Z</time>
      </trkpt>
      <trkpt lat="42.5413990" lon="2.8879850">
        <ele>45.2</ele>
        <time>2020-07-20T11:56:00Z</time>
      </trkpt>
      <trkpt lat="42.5413710" lon="2.8875820">
        <ele>45.4</ele>
        <time>2020-07-20T11:56:04Z</time>
      </trkpt>
      <trkpt lat="42.5413430" lon="2.8871780">
        <ele>45.2</ele>
        <time>2020-07-20T11:56:08Z</time>
      </trkpt>
      <trkpt lat="42.5412940" lon="2.8866730">
        <ele>44.0</ele>
        <time>2020-07-20T11:56:13Z</time>
      </trkpt>
      <trkpt lat="42.5412770" lon="2.8863970">
        <ele>44.4</ele>
        <time>2020-07-20T11:56:16Z</time>
      </trkpt>
      <trkpt lat="42.5412700" lon="2.8862230">
        <ele>45.2</ele>
        <time>2020-07-20T11:56:18Z</time>
      </trkpt>
      <trkpt lat="42.5412530" lon="2.8858890">
        <ele>46.2</ele>
        <time>2020-07-20T11:56:22Z</time>
      </trkpt>
      <trkpt lat="42.5412310" lon="2.8856360">
        <ele>47.2</ele>
        <time>2020-07-20T11:56:25Z</time>
      </trkpt>
      <trkpt lat="42.5412230" lon="2.8855510">
        <ele>47.4</ele>
        <time>2020-07-20T11:56:26Z</time>
      </trkpt>
      <trkpt lat="42.5411880" lon="2.8852040">
        <ele>48.2</ele>
        <time>2020-07-20T11:56:30Z</time>
      </trkpt>
      <trkpt lat="42.5411400" lon="2.8847620">
        <ele>48.2</ele>
        <time>2020-07-20T11:56:35Z</time>
      </trkpt>
      <trkpt lat="42.5411070" lon="2.8844040">
        <ele>48.4</ele>
        <time>2020-07-20T11:56:39Z</time>
      </trkpt>
      <trkpt lat="42.5410760" lon="2.8841340">
        <ele>48.6</ele>
        <time>2020-07-20T11:56:42Z</time>
      </trkpt>
      <trkpt lat="42.5410570" lon="2.8839600">
        <ele>48.6</ele>
        <time>2020-07-20T11:56:44Z</time>
      </trkpt>
      <trkpt lat="42.5410420" lon="2.8837870">
        <ele>48.8</ele>
        <time>2020-07-20T11:56:46Z</time>
      </trkpt>
      <trkpt lat="42.5410340" lon="2.8836990">
        <ele>48.8</ele>
        <time>2020-07-20T11:56:47Z</time>
      </trkpt>
      <trkpt lat="42.5410250" lon="2.8836120">
        <ele>48.8</ele>
        <time>2020-07-20T11:56:48Z</time>
      </trkpt>
      <trkpt lat="42.5410110" lon="2.8834340">
        <ele>49.0</ele>
        <time>2020-07-20T11:56:50Z</time>
      </trkpt>
      <trkpt lat="42.5410020" lon="2.8833450">
        <ele>49.0</ele>
        <time>2020-07-20T11:56:51Z</time>
      </trkpt>
      <trkpt lat="42.5409610" lon="2.8828150">
        <ele>49.2</ele>
        <time>2020-07-20T11:56:57Z</time>
      </trkpt>
      <trkpt lat="42.5409500" lon="2.8826340">
        <ele>49.2</ele>
        <time>2020-07-20T11:56:59Z</time>
      </trkpt>
      <trkpt lat="42.5409220" lon="2.8821740">
        <ele>49.6</ele>
        <time>2020-07-20T11:57:04Z</time>
      </trkpt>
      <trkpt lat="42.5409070" lon="2.8819890">
        <ele>49.6</ele>
        <time>2020-07-20T11:57:06Z</time>
      </trkpt>
      <trkpt lat="42.5408650" lon="2.8814560">
        <ele>49.6</ele>
        <time>2020-07-20T11:57:12Z</time>
      </trkpt>
      <trkpt lat="42.5408470" lon="2.8812030">
        <ele>50.0</ele>
        <time>2020-07-20T11:57:15Z</time>
      </trkpt>
      <trkpt lat="42.5408210" lon="2.8808770">
        <ele>50.4</ele>
        <time>2020-07-20T11:57:19Z</time>
      </trkpt>
      <trkpt lat="42.5408160" lon="2.8807980">
        <ele>50.6</ele>
        <time>2020-07-20T11:57:20Z</time>
      </trkpt>
      <trkpt lat="42.5408100" lon="2.8805640">
        <ele>50.6</ele>
        <time>2020-07-20T11:57:23Z</time>
      </trkpt>
      <trkpt lat="42.5408080" lon="2.8804820">
        <ele>50.6</ele>
        <time>2020-07-20T11:57:24Z</time>
      </trkpt>
      <trkpt lat="42.5407930" lon="2.8800670">
        <ele>50.4</ele>
        <time>2020-07-20T11:57:29Z</time>
      </trkpt>
      <trkpt lat="42.5407740" lon="2.8798240">
        <ele>50.8</ele>
        <time>2020-07-20T11:57:32Z</time>
      </trkpt>
      <trkpt lat="42.5406840" lon="2.8793510">
        <ele>51.0</ele>
        <time>2020-07-20T11:57:38Z</time>
      </trkpt>
      <trkpt lat="42.5406650" lon="2.8792790">
        <ele>51.0</ele>
        <time>2020-07-20T11:57:39Z</time>
      </trkpt>
      <trkpt lat="42.5406200" lon="2.8791460">
        <ele>51.0</ele>
        <time>2020-07-20T11:57:41Z</time>
      </trkpt>
      <trkpt lat="42.5405230" lon="2.8789620">
        <ele>51.2</ele>
        <time>2020-07-20T11:57:44Z</time>
      </trkpt>
      <trkpt lat="42.5404660" lon="2.8788420">
        <ele>51.2</ele>
        <time>2020-07-20T11:57:46Z</time>
      </trkpt>
      <trkpt lat="42.5404370" lon="2.8787770">
        <ele>51.2</ele>
        <time>2020-07-20T11:57:47Z</time>
      </trkpt>
      <trkpt lat="42.5404060" lon="2.8787070">
        <ele>51.2</ele>
        <time>2020-07-20T11:57:48Z</time>
      </trkpt>
      <trkpt lat="42.5403720" lon="2.8786330">
        <ele>51.2</ele>
        <time>2020-07-20T11:57:49Z</time>
      </trkpt>
      <trkpt lat="42.5403370" lon="2.8785580">
        <ele>51.2</ele>
        <time>2020-07-20T11:57:50Z</time>
      </trkpt>
      <trkpt lat="42.5403020" lon="2.8784800">
        <ele>51.2</ele>
        <time>2020-07-20T11:57:51Z</time>
      </trkpt>
      <trkpt lat="42.5400760" lon="2.8780030">
        <ele>51.4</ele>
        <time>2020-07-20T11:57:57Z</time>
      </trkpt>
      <trkpt lat="42.5399670" lon="2.8777620">
        <ele>51.2</ele>
        <time>2020-07-20T11:58:00Z</time>
      </trkpt>
      <trkpt lat="42.5397500" lon="2.8773010">
        <ele>51.4</ele>
        <time>2020-07-20T11:58:06Z</time>
      </trkpt>
      <trkpt lat="42.5397150" lon="2.8772220">
        <ele>51.6</ele>
        <time>2020-07-20T11:58:07Z</time>
      </trkpt>
      <trkpt lat="42.5396790" lon="2.8771400">
        <ele>51.6</ele>
        <time>2020-07-20T11:58:08Z</time>
      </trkpt>
      <trkpt lat="42.5396430" lon="2.8770580">
        <ele>51.6</ele>
        <time>2020-07-20T11:58:09Z</time>
      </trkpt>
      <trkpt lat="42.5394290" lon="2.8765810">
        <ele>52.2</ele>
        <time>2020-07-20T11:58:15Z</time>
      </trkpt>
      <trkpt lat="42.5393630" lon="2.8764220">
        <ele>52.4</ele>
        <time>2020-07-20T11:58:17Z</time>
      </trkpt>
      <trkpt lat="42.5392530" lon="2.8761870">
        <ele>52.8</ele>
        <time>2020-07-20T11:58:20Z</time>
      </trkpt>
      <trkpt lat="42.5390740" lon="2.8758000">
        <ele>53.0</ele>
        <time>2020-07-20T11:58:25Z</time>
      </trkpt>
      <trkpt lat="42.5390040" lon="2.8756490">
        <ele>53.2</ele>
        <time>2020-07-20T11:58:27Z</time>
      </trkpt>
      <trkpt lat="42.5388020" lon="2.8751960">
        <ele>53.6</ele>
        <time>2020-07-20T11:58:33Z</time>
      </trkpt>
      <trkpt lat="42.5387660" lon="2.8751190">
        <ele>53.6</ele>
        <time>2020-07-20T11:58:34Z</time>
      </trkpt>
      <trkpt lat="42.5387320" lon="2.8750440">
        <ele>53.8</ele>
        <time>2020-07-20T11:58:35Z</time>
      </trkpt>
      <trkpt lat="42.5385360" lon="2.8746060">
        <ele>54.0</ele>
        <time>2020-07-20T11:58:41Z</time>
      </trkpt>
      <trkpt lat="42.5385030" lon="2.8745300">
        <ele>54.0</ele>
        <time>2020-07-20T11:58:42Z</time>
      </trkpt>
      <trkpt lat="42.5383000" lon="2.8740810">
        <ele>53.8</ele>
        <time>2020-07-20T11:58:48Z</time>
      </trkpt>
      <trkpt lat="42.5381920" lon="2.8738570">
        <ele>54.0</ele>
        <time>2020-07-20T11:58:51Z</time>
      </trkpt>
      <trkpt lat="42.5379870" lon="2.8734170">
        <ele>54.4</ele>
        <time>2020-07-20T11:58:57Z</time>
      </trkpt>
      <trkpt lat="42.5378870" lon="2.8732070">
        <ele>54.6</ele>
        <time>2020-07-20T11:59:00Z</time>
      </trkpt>
      <trkpt lat="42.5378560" lon="2.8731320">
        <ele>54.8</ele>
        <time>2020-07-20T11:59:01Z</time>
      </trkpt>
      <trkpt lat="42.5376570" lon="2.8726930">
        <ele>55.0</ele>
        <time>2020-07-20T11:59:07Z</time>
      </trkpt>
      <trkpt lat="42.5375930" lon="2.8725450">
        <ele>54.6</ele>
        <time>2020-07-20T11:59:09Z</time>
      </trkpt>
      <trkpt lat="42.5375590" lon="2.8724690">
        <ele>54.6</ele>
        <time>2020-07-20T11:59:10Z</time>
      </trkpt>
      <trkpt lat="42.5373510" lon="2.8720240">
        <ele>55.2</ele>
        <time>2020-07-20T11:59:16Z</time>
      </trkpt>
      <trkpt lat="42.5372500" lon="2.8717990">
        <ele>55.4</ele>
        <time>2020-07-20T11:59:19Z</time>
      </trkpt>
      <trkpt lat="42.5370480" lon="2.8713700">
        <ele>55.8</ele>
        <time>2020-07-20T11:59:25Z</time>
      </trkpt>
      <trkpt lat="42.5370150" lon="2.8713060">
        <ele>56.0</ele>
        <time>2020-07-20T11:59:26Z</time>
      </trkpt>
      <trkpt lat="42.5369770" lon="2.8712510">
        <ele>56.0</ele>
        <time>2020-07-20T11:59:27Z</time>
      </trkpt>
      <trkpt lat="42.5368880" lon="2.8711810">
        <ele>56.0</ele>
        <time>2020-07-20T11:59:29Z</time>
      </trkpt>
      <trkpt lat="42.5368440" lon="2.8711600">
        <ele>56.2</ele>
        <time>2020-07-20T11:59:30Z</time>
      </trkpt>
      <trkpt lat="42.5367590" lon="2.8711120">
        <ele>56.2</ele>
        <time>2020-07-20T11:59:32Z</time>
      </trkpt>
      <trkpt lat="42.5367050" lon="2.8710240">
        <ele>56.4</ele>
        <time>2020-07-20T11:59:34Z</time>
      </trkpt>
      <trkpt lat="42.5366990" lon="2.8709680">
        <ele>56.4</ele>
        <time>2020-07-20T11:59:35Z</time>
      </trkpt>
      <trkpt lat="42.5367080" lon="2.8709140">
        <ele>56.4</ele>
        <time>2020-07-20T11:59:36Z</time>
      </trkpt>
      <trkpt lat="42.5367220" lon="2.8708600">
        <ele>56.6</ele>
        <time>2020-07-20T11:59:37Z</time>
      </trkpt>
      <trkpt lat="42.5367360" lon="2.8707560">
        <ele>56.8</ele>
        <time>2020-07-20T11:59:39Z</time>
      </trkpt>
      <trkpt lat="42.5367270" lon="2.8706470">
        <ele>56.6</ele>
        <time>2020-07-20T11:59:41Z</time>
      </trkpt>
      <trkpt lat="42.5365960" lon="2.8703600">
        <ele>56.8</ele>
        <time>2020-07-20T11:59:46Z</time>
      </trkpt>
      <trkpt lat="42.5365460" lon="2.8702460">
        <ele>57.0</ele>
        <time>2020-07-20T11:59:48Z</time>
      </trkpt>
      <trkpt lat="42.5364010" lon="2.8699160">
        <ele>57.6</ele>
        <time>2020-07-20T11:59:54Z</time>
      </trkpt>
      <trkpt lat="42.5363810" lon="2.8698600">
        <ele>57.8</ele>
        <time>2020-07-20T11:59:55Z</time>
      </trkpt>
      <trkpt lat="42.5363430" lon="2.8697390">
        <ele>57.8</ele>
        <time>2020-07-20T11:59:57Z</time>
      </trkpt>
      <trkpt lat="42.5362850" lon="2.8695530">
        <ele>58.2</ele>
        <time>2020-07-20T12:00:00Z</time>
      </trkpt>
      <trkpt lat="42.5362230" lon="2.8693680">
        <ele>58.4</ele>
        <time>2020-07-20T12:00:03Z</time>
      </trkpt>
      <trkpt lat="42.5361470" lon="2.8691250">
        <ele>59.0</ele>
        <time>2020-07-20T12:00:07Z</time>
      </trkpt>
      <trkpt lat="42.5361270" lon="2.8690660">
        <ele>59.2</ele>
        <time>2020-07-20T12:00:08Z</time>
      </trkpt>
      <trkpt lat="42.5361040" lon="2.8690040">
        <ele>59.4</ele>
        <time>2020-07-20T12:00:09Z</time>
      </trkpt>
      <trkpt lat="42.5360550" lon="2.8688740">
        <ele>60.0</ele>
        <time>2020-07-20T12:00:11Z</time>
      </trkpt>
      <trkpt lat="42.5360050" lon="2.8687360">
        <ele>60.2</ele>
        <time>2020-07-20T12:00:13Z</time>
      </trkpt>
      <trkpt lat="42.5359260" lon="2.8685250">
        <ele>60.4</ele>
        <time>2020-07-20T12:00:16Z</time>
      </trkpt>
      <trkpt lat="42.5358010" lon="2.8682450">
        <ele>60.0</ele>
        <time>2020-07-20T12:00:20Z</time>
      </trkpt>
      <trkpt lat="42.5355780" lon="2.8678010">
        <ele>59.2</ele>
        <time>2020-07-20T12:00:26Z</time>
      </trkpt>
      <trkpt lat="42.5353690" lon="2.8672880">
        <ele>59.2</ele>
        <time>2020-07-20T12:00:32Z</time>
      </trkpt>
      <trkpt lat="42.5352970" lon="2.8671280">
        <ele>59.2</ele>
        <time>2020-07-20T12:00:34Z</time>
      </trkpt>
      <trkpt lat="42.5351850" lon="2.8668920">
        <ele>58.8</ele>
        <time>2020-07-20T12:00:37Z</time>
      </trkpt>
      <trkpt lat="42.5349680" lon="2.8664310">
        <ele>58.6</ele>
        <time>2020-07-20T12:00:43Z</time>
      </trkpt>
      <trkpt lat="42.5348700" lon="2.8662160">
        <ele>58.8</ele>
        <time>2020-07-20T12:00:46Z</time>
      </trkpt>
      <trkpt lat="42.5347780" lon="2.8660180">
        <ele>59.2</ele>
        <time>2020-07-20T12:00:49Z</time>
      </trkpt>
      <trkpt lat="42.5347470" lon="2.8659590">
        <ele>59.2</ele>
        <time>2020-07-20T12:00:50Z</time>
      </trkpt>
      <trkpt lat="42.5345910" lon="2.8655840">
        <ele>59.4</ele>
        <time>2020-07-20T12:00:56Z</time>
      </trkpt>
      <trkpt lat="42.5345690" lon="2.8655170">
        <ele>59.4</ele>
        <time>2020-07-20T12:00:57Z</time>
      </trkpt>
      <trkpt lat="42.5343990" lon="2.8650510">
        <ele>59.0</ele>
        <time>2020-07-20T12:01:03Z</time>
      </trkpt>
      <trkpt lat="42.5342960" lon="2.8648110">
        <ele>59.4</ele>
        <time>2020-07-20T12:01:06Z</time>
      </trkpt>
      <trkpt lat="42.5341510" lon="2.8644960">
        <ele>59.6</ele>
        <time>2020-07-20T12:01:10Z</time>
      </trkpt>
      <trkpt lat="42.5341150" lon="2.8644170">
        <ele>59.6</ele>
        <time>2020-07-20T12:01:11Z</time>
      </trkpt>
      <trkpt lat="42.5338930" lon="2.8639240">
        <ele>60.0</ele>
        <time>2020-07-20T12:01:17Z</time>
      </trkpt>
      <trkpt lat="42.5338200" lon="2.8637610">
        <ele>60.0</ele>
        <time>2020-07-20T12:01:19Z</time>
      </trkpt>
      <trkpt lat="42.5335990" lon="2.8632750">
        <ele>59.6</ele>
        <time>2020-07-20T12:01:25Z</time>
      </trkpt>
      <trkpt lat="42.5333790" lon="2.8627910">
        <ele>59.6</ele>
        <time>2020-07-20T12:01:31Z</time>
      </trkpt>
      <trkpt lat="42.5331530" lon="2.8623110">
        <ele>59.8</ele>
        <time>2020-07-20T12:01:37Z</time>
      </trkpt>
      <trkpt lat="42.5329930" lon="2.8619950">
        <ele>60.0</ele>
        <time>2020-07-20T12:01:41Z</time>
      </trkpt>
      <trkpt lat="42.5327360" lon="2.8615460">
        <ele>60.0</ele>
        <time>2020-07-20T12:01:47Z</time>
      </trkpt>
      <trkpt lat="42.5326280" lon="2.8614270">
        <ele>60.2</ele>
        <time>2020-07-20T12:01:49Z</time>
      </trkpt>
      <trkpt lat="42.5325230" lon="2.8613170">
        <ele>60.4</ele>
        <time>2020-07-20T12:01:51Z</time>
      </trkpt>
      <trkpt lat="42.5324750" lon="2.8612550">
        <ele>60.4</ele>
        <time>2020-07-20T12:01:52Z</time>
      </trkpt>
      <trkpt lat="42.5323460" lon="2.8610420">
        <ele>60.8</ele>
        <time>2020-07-20T12:01:55Z</time>
      </trkpt>
      <trkpt lat="42.5320800" lon="2.8605970">
        <ele>60.6</ele>
        <time>2020-07-20T12:02:01Z</time>
      </trkpt>
      <trkpt lat="42.5318910" lon="2.8602930">
        <ele>60.0</ele>
        <time>2020-07-20T12:02:05Z</time>
      </trkpt>
      <trkpt lat="42.5315870" lon="2.8598140">
        <ele>59.2</ele>
        <time>2020-07-20T12:02:11Z</time>
      </trkpt>
      <trkpt lat="42.5315330" lon="2.8597300">
        <ele>58.8</ele>
        <time>2020-07-20T12:02:12Z</time>
      </trkpt>
      <trkpt lat="42.5314210" lon="2.8595640">
        <ele>57.8</ele>
        <time>2020-07-20T12:02:14Z</time>
      </trkpt>
      <trkpt lat="42.5313100" lon="2.8594020">
        <ele>57.2</ele>
        <time>2020-07-20T12:02:16Z</time>
      </trkpt>
      <trkpt lat="42.5312040" lon="2.8592510">
        <ele>57.0</ele>
        <time>2020-07-20T12:02:18Z</time>
      </trkpt>
      <trkpt lat="42.5311540" lon="2.8591780">
        <ele>57.2</ele>
        <time>2020-07-20T12:02:19Z</time>
      </trkpt>
      <trkpt lat="42.5308780" lon="2.8587820">
        <ele>58.4</ele>
        <time>2020-07-20T12:02:25Z</time>
      </trkpt>
      <trkpt lat="42.5307890" lon="2.8586550">
        <ele>58.8</ele>
        <time>2020-07-20T12:02:27Z</time>
      </trkpt>
      <trkpt lat="42.5305460" lon="2.8583360">
        <ele>59.4</ele>
        <time>2020-07-20T12:02:32Z</time>
      </trkpt>
      <trkpt lat="42.5304460" lon="2.8582100">
        <ele>59.8</ele>
        <time>2020-07-20T12:02:34Z</time>
      </trkpt>
      <trkpt lat="42.5303970" lon="2.8581460">
        <ele>60.0</ele>
        <time>2020-07-20T12:02:35Z</time>
      </trkpt>
      <trkpt lat="42.5301590" lon="2.8578480">
        <ele>60.8</ele>
        <time>2020-07-20T12:02:40Z</time>
      </trkpt>
      <trkpt lat="42.5301120" lon="2.8577930">
        <ele>61.2</ele>
        <time>2020-07-20T12:02:41Z</time>
      </trkpt>
      <trkpt lat="42.5299250" lon="2.8575690">
        <ele>62.4</ele>
        <time>2020-07-20T12:02:45Z</time>
      </trkpt>
      <trkpt lat="42.5299250" lon="2.8575690">
        <ele>63.4</ele>
        <time>2020-07-20T12:02:48Z</time>
      </trkpt>
      <trkpt lat="42.5298980" lon="2.8575280">
        <ele>63.6</ele>
        <time>2020-07-20T12:02:49Z</time>
      </trkpt>
      <trkpt lat="42.5298720" lon="2.8574880">
        <ele>64.0</ele>
        <time>2020-07-20T12:02:51Z</time>
      </trkpt>
      <trkpt lat="42.5298450" lon="2.8574470">
        <ele>64.0</ele>
        <time>2020-07-20T12:02:52Z</time>
      </trkpt>
      <trkpt lat="42.5293640" lon="2.8567130">
        <ele>63.6</ele>
        <time>2020-07-20T12:02:58Z</time>
      </trkpt>
      <trkpt lat="42.5290990" lon="2.8563030">
        <ele>63.8</ele>
        <time>2020-07-20T12:03:04Z</time>
      </trkpt>
      <trkpt lat="42.5290530" lon="2.8562380">
        <ele>63.8</ele>
        <time>2020-07-20T12:03:05Z</time>
      </trkpt>
      <trkpt lat="42.5287920" lon="2.8558710">
        <ele>64.4</ele>
        <time>2020-07-20T12:03:11Z</time>
      </trkpt>
      <trkpt lat="42.5287070" lon="2.8557570">
        <ele>64.6</ele>
        <time>2020-07-20T12:03:13Z</time>
      </trkpt>
      <trkpt lat="42.5284640" lon="2.8554060">
        <ele>65.0</ele>
        <time>2020-07-20T12:03:19Z</time>
      </trkpt>
      <trkpt lat="42.5283440" lon="2.8552330">
        <ele>64.8</ele>
        <time>2020-07-20T12:03:22Z</time>
      </trkpt>
      <trkpt lat="42.5281370" lon="2.8548480">
        <ele>65.0</ele>
        <time>2020-07-20T12:03:28Z</time>
      </trkpt>
      <trkpt lat="42.5281070" lon="2.8547800">
        <ele>65.0</ele>
        <time>2020-07-20T12:03:29Z</time>
      </trkpt>
      <trkpt lat="42.5280220" lon="2.8544980">
        <ele>65.2</ele>
        <time>2020-07-20T12:03:33Z</time>
      </trkpt>
      <trkpt lat="42.5280140" lon="2.8544270">
        <ele>65.4</ele>
        <time>2020-07-20T12:03:34Z</time>
      </trkpt>
      <trkpt lat="42.5280000" lon="2.8542880">
        <ele>65.4</ele>
        <time>2020-07-20T12:03:36Z</time>
      </trkpt>
      <trkpt lat="42.5279560" lon="2.8541780">
        <ele>65.4</ele>
        <time>2020-07-20T12:03:38Z</time>
      </trkpt>
      <trkpt lat="42.5278630" lon="2.8541270">
        <ele>65.4</ele>
        <time>2020-07-20T12:03:40Z</time>
      </trkpt>
      <trkpt lat="42.5278070" lon="2.8541090">
        <ele>65.4</ele>
        <time>2020-07-20T12:03:41Z</time>
      </trkpt>
      <trkpt lat="42.5275830" lon="2.8539890">
        <ele>65.8</ele>
        <time>2020-07-20T12:03:45Z</time>
      </trkpt>
      <trkpt lat="42.5275320" lon="2.8539490">
        <ele>66.0</ele>
        <time>2020-07-20T12:03:46Z</time>
      </trkpt>
      <trkpt lat="42.5273820" lon="2.8538260">
        <ele>66.4</ele>
        <time>2020-07-20T12:03:49Z</time>
      </trkpt>
      <trkpt lat="42.5272930" lon="2.8537240">
        <ele>66.8</ele>
        <time>2020-07-20T12:03:51Z</time>
      </trkpt>
      <trkpt lat="42.5272510" lon="2.8536680">
        <ele>67.0</ele>
        <time>2020-07-20T12:03:52Z</time>
      </trkpt>
      <trkpt lat="42.5270060" lon="2.8533340">
        <ele>66.8</ele>
        <time>2020-07-20T12:03:58Z</time>
      </trkpt>
      <trkpt lat="42.5269650" lon="2.8532740">
        <ele>66.6</ele>
        <time>2020-07-20T12:03:59Z</time>
      </trkpt>
      <trkpt lat="42.5267110" lon="2.8529150">
        <ele>67.0</ele>
        <time>2020-07-20T12:04:05Z</time>
      </trkpt>
      <trkpt lat="42.5266280" lon="2.8527950">
        <ele>67.4</ele>
        <time>2020-07-20T12:04:07Z</time>
      </trkpt>
      <trkpt lat="42.5265880" lon="2.8527300">
        <ele>67.4</ele>
        <time>2020-07-20T12:04:08Z</time>
      </trkpt>
      <trkpt lat="42.5264270" lon="2.8524710">
        <ele>66.6</ele>
        <time>2020-07-20T12:04:12Z</time>
      </trkpt>
      <trkpt lat="42.5262600" lon="2.8521920">
        <ele>66.2</ele>
        <time>2020-07-20T12:04:16Z</time>
      </trkpt>
      <trkpt lat="42.5259990" lon="2.8517740">
        <ele>66.0</ele>
        <time>2020-07-20T12:04:22Z</time>
      </trkpt>
      <trkpt lat="42.5259140" lon="2.8516390">
        <ele>66.0</ele>
        <time>2020-07-20T12:04:24Z</time>
      </trkpt>
      <trkpt lat="42.5258720" lon="2.8515740">
        <ele>66.0</ele>
        <time>2020-07-20T12:04:25Z</time>
      </trkpt>
      <trkpt lat="42.5256120" lon="2.8511590">
        <ele>66.8</ele>
        <time>2020-07-20T12:04:31Z</time>
      </trkpt>
      <trkpt lat="42.5255680" lon="2.8510880">
        <ele>66.8</ele>
        <time>2020-07-20T12:04:32Z</time>
      </trkpt>
      <trkpt lat="42.5252780" lon="2.8506750">
        <ele>66.4</ele>
        <time>2020-07-20T12:04:38Z</time>
      </trkpt>
      <trkpt lat="42.5249960" lon="2.8502220">
        <ele>66.8</ele>
        <time>2020-07-20T12:04:44Z</time>
      </trkpt>
      <trkpt lat="42.5249510" lon="2.8501460">
        <ele>67.0</ele>
        <time>2020-07-20T12:04:45Z</time>
      </trkpt>
      <trkpt lat="42.5248620" lon="2.8499970">
        <ele>67.2</ele>
        <time>2020-07-20T12:04:47Z</time>
      </trkpt>
      <trkpt lat="42.5245980" lon="2.8495700">
        <ele>68.0</ele>
        <time>2020-07-20T12:04:53Z</time>
      </trkpt>
      <trkpt lat="42.5244210" lon="2.8493020">
        <ele>67.8</ele>
        <time>2020-07-20T12:04:57Z</time>
      </trkpt>
      <trkpt lat="42.5243330" lon="2.8491730">
        <ele>68.4</ele>
        <time>2020-07-20T12:04:59Z</time>
      </trkpt>
      <trkpt lat="42.5241690" lon="2.8489170">
        <ele>69.4</ele>
        <time>2020-07-20T12:05:03Z</time>
      </trkpt>
      <trkpt lat="42.5240530" lon="2.8487230">
        <ele>69.8</ele>
        <time>2020-07-20T12:05:06Z</time>
      </trkpt>
      <trkpt lat="42.5238590" lon="2.8484050">
        <ele>70.2</ele>
        <time>2020-07-20T12:05:11Z</time>
      </trkpt>
      <trkpt lat="42.5237790" lon="2.8482810">
        <ele>70.4</ele>
        <time>2020-07-20T12:05:13Z</time>
      </trkpt>
      <trkpt lat="42.5237390" lon="2.8482190">
        <ele>70.6</ele>
        <time>2020-07-20T12:05:14Z</time>
      </trkpt>
      <trkpt lat="42.5235040" lon="2.8478500">
        <ele>71.0</ele>
        <time>2020-07-20T12:05:20Z</time>
      </trkpt>
      <trkpt lat="42.5233880" lon="2.8476600">
        <ele>71.0</ele>
        <time>2020-07-20T12:05:23Z</time>
      </trkpt>
      <trkpt lat="42.5231590" lon="2.8473220">
        <ele>70.6</ele>
        <time>2020-07-20T12:05:29Z</time>
      </trkpt>
      <trkpt lat="42.5231240" lon="2.8472660">
        <ele>70.6</ele>
        <time>2020-07-20T12:05:30Z</time>
      </trkpt>
      <trkpt lat="42.5230900" lon="2.8472090">
        <ele>70.8</ele>
        <time>2020-07-20T12:05:31Z</time>
      </trkpt>
      <trkpt lat="42.5228950" lon="2.8468650">
        <ele>71.0</ele>
        <time>2020-07-20T12:05:37Z</time>
      </trkpt>
      <trkpt lat="42.5228690" lon="2.8467990">
        <ele>70.8</ele>
        <time>2020-07-20T12:05:38Z</time>
      </trkpt>
      <trkpt lat="42.5227910" lon="2.8465090">
        <ele>70.4</ele>
        <time>2020-07-20T12:05:42Z</time>
      </trkpt>
      <trkpt lat="42.5227820" lon="2.8464310">
        <ele>70.2</ele>
        <time>2020-07-20T12:05:43Z</time>
      </trkpt>
      <trkpt lat="42.5227810" lon="2.8463580">
        <ele>70.0</ele>
        <time>2020-07-20T12:05:44Z</time>
      </trkpt>
      <trkpt lat="42.5228000" lon="2.8461780">
        <ele>69.6</ele>
        <time>2020-07-20T12:05:47Z</time>
      </trkpt>
      <trkpt lat="42.5227870" lon="2.8460610">
        <ele>69.6</ele>
        <time>2020-07-20T12:05:50Z</time>
      </trkpt>
      <trkpt lat="42.5227830" lon="2.8460360">
        <ele>69.6</ele>
        <time>2020-07-20T12:05:51Z</time>
      </trkpt>
      <trkpt lat="42.5228100" lon="2.8459500">
        <ele>69.8</ele>
        <time>2020-07-20T12:05:55Z</time>
      </trkpt>
      <trkpt lat="42.5228310" lon="2.8459190">
        <ele>69.6</ele>
        <time>2020-07-20T12:05:56Z</time>
      </trkpt>
      <trkpt lat="42.5228830" lon="2.8458510">
        <ele>69.4</ele>
        <time>2020-07-20T12:05:58Z</time>
      </trkpt>
      <trkpt lat="42.5229080" lon="2.8458070">
        <ele>69.4</ele>
        <time>2020-07-20T12:05:59Z</time>
      </trkpt>
      <trkpt lat="42.5229280" lon="2.8456810">
        <ele>69.4</ele>
        <time>2020-07-20T12:06:01Z</time>
      </trkpt>
      <trkpt lat="42.5228850" lon="2.8455320">
        <ele>69.4</ele>
        <time>2020-07-20T12:06:03Z</time>
      </trkpt>
      <trkpt lat="42.5228500" lon="2.8454610">
        <ele>69.6</ele>
        <time>2020-07-20T12:06:04Z</time>
      </trkpt>
      <trkpt lat="42.5226460" lon="2.8450730">
        <ele>69.4</ele>
        <time>2020-07-20T12:06:10Z</time>
      </trkpt>
      <trkpt lat="42.5226170" lon="2.8450150">
        <ele>69.4</ele>
        <time>2020-07-20T12:06:11Z</time>
      </trkpt>
      <trkpt lat="42.5225560" lon="2.8448970">
        <ele>70.0</ele>
        <time>2020-07-20T12:06:13Z</time>
      </trkpt>
      <trkpt lat="42.5224880" lon="2.8447670">
        <ele>70.4</ele>
        <time>2020-07-20T12:06:15Z</time>
      </trkpt>
      <trkpt lat="42.5224520" lon="2.8446990">
        <ele>70.6</ele>
        <time>2020-07-20T12:06:16Z</time>
      </trkpt>
      <trkpt lat="42.5222240" lon="2.8442690">
        <ele>70.4</ele>
        <time>2020-07-20T12:06:22Z</time>
      </trkpt>
      <trkpt lat="42.5221860" lon="2.8441970">
        <ele>70.4</ele>
        <time>2020-07-20T12:06:23Z</time>
      </trkpt>
      <trkpt lat="42.5221120" lon="2.8440550">
        <ele>70.8</ele>
        <time>2020-07-20T12:06:25Z</time>
      </trkpt>
      <trkpt lat="42.5219560" lon="2.8437800">
        <ele>71.2</ele>
        <time>2020-07-20T12:06:29Z</time>
      </trkpt>
      <trkpt lat="42.5219040" lon="2.8437280">
        <ele>71.2</ele>
        <time>2020-07-20T12:06:30Z</time>
      </trkpt>
      <trkpt lat="42.5218460" lon="2.8436880">
        <ele>71.2</ele>
        <time>2020-07-20T12:06:31Z</time>
      </trkpt>
      <trkpt lat="42.5217210" lon="2.8436370">
        <ele>71.2</ele>
        <time>2020-07-20T12:06:33Z</time>
      </trkpt>
      <trkpt lat="42.5216570" lon="2.8436210">
        <ele>71.2</ele>
        <time>2020-07-20T12:06:34Z</time>
      </trkpt>
      <trkpt lat="42.5215920" lon="2.8436080">
        <ele>71.4</ele>
        <time>2020-07-20T12:06:35Z</time>
      </trkpt>
      <trkpt lat="42.5212100" lon="2.8435490">
        <ele>72.2</ele>
        <time>2020-07-20T12:06:41Z</time>
      </trkpt>
      <trkpt lat="42.5211480" lon="2.8435410">
        <ele>72.2</ele>
        <time>2020-07-20T12:06:42Z</time>
      </trkpt>
      <trkpt lat="42.5210260" lon="2.8435190">
        <ele>72.6</ele>
        <time>2020-07-20T12:06:44Z</time>
      </trkpt>
      <trkpt lat="42.5209660" lon="2.8434990">
        <ele>72.6</ele>
        <time>2020-07-20T12:06:45Z</time>
      </trkpt>
      <trkpt lat="42.5208550" lon="2.8434220">
        <ele>72.8</ele>
        <time>2020-07-20T12:06:47Z</time>
      </trkpt>
      <trkpt lat="42.5206310" lon="2.8431010">
        <ele>72.8</ele>
        <time>2020-07-20T12:06:52Z</time>
      </trkpt>
      <trkpt lat="42.5203850" lon="2.8427150">
        <ele>73.2</ele>
        <time>2020-07-20T12:06:58Z</time>
      </trkpt>
      <trkpt lat="42.5203010" lon="2.8425900">
        <ele>73.4</ele>
        <time>2020-07-20T12:07:00Z</time>
      </trkpt>
      <trkpt lat="42.5200600" lon="2.8422240">
        <ele>73.2</ele>
        <time>2020-07-20T12:07:06Z</time>
      </trkpt>
      <trkpt lat="42.5199860" lon="2.8421100">
        <ele>73.0</ele>
        <time>2020-07-20T12:07:08Z</time>
      </trkpt>
      <trkpt lat="42.5197580" lon="2.8417690">
        <ele>73.4</ele>
        <time>2020-07-20T12:07:14Z</time>
      </trkpt>
      <trkpt lat="42.5196790" lon="2.8416300">
        <ele>73.6</ele>
        <time>2020-07-20T12:07:16Z</time>
      </trkpt>
      <trkpt lat="42.5194390" lon="2.8412240">
        <ele>74.4</ele>
        <time>2020-07-20T12:07:22Z</time>
      </trkpt>
      <trkpt lat="42.5193980" lon="2.8411570">
        <ele>74.2</ele>
        <time>2020-07-20T12:07:23Z</time>
      </trkpt>
      <trkpt lat="42.5191410" lon="2.8407320">
        <ele>72.8</ele>
        <time>2020-07-20T12:07:29Z</time>
      </trkpt>
      <trkpt lat="42.5191060" lon="2.8406620">
        <ele>72.4</ele>
        <time>2020-07-20T12:07:30Z</time>
      </trkpt>
      <trkpt lat="42.5190700" lon="2.8405090">
        <ele>71.0</ele>
        <time>2020-07-20T12:07:32Z</time>
      </trkpt>
      <trkpt lat="42.5191060" lon="2.8403440">
        <ele>69.8</ele>
        <time>2020-07-20T12:07:34Z</time>
      </trkpt>
      <trkpt lat="42.5191460" lon="2.8402600">
        <ele>69.0</ele>
        <time>2020-07-20T12:07:35Z</time>
      </trkpt>
      <trkpt lat="42.5191930" lon="2.8401750">
        <ele>68.2</ele>
        <time>2020-07-20T12:07:36Z</time>
      </trkpt>
      <trkpt lat="42.5192870" lon="2.8400090">
        <ele>66.8</ele>
        <time>2020-07-20T12:07:38Z</time>
      </trkpt>
      <trkpt lat="42.5193610" lon="2.8398590">
        <ele>65.4</ele>
        <time>2020-07-20T12:07:40Z</time>
      </trkpt>
      <trkpt lat="42.5193840" lon="2.8397930">
        <ele>64.8</ele>
        <time>2020-07-20T12:07:41Z</time>
      </trkpt>
      <trkpt lat="42.5193880" lon="2.8397310">
        <ele>64.0</ele>
        <time>2020-07-20T12:07:42Z</time>
      </trkpt>
      <trkpt lat="42.5193760" lon="2.8396670">
        <ele>63.0</ele>
        <time>2020-07-20T12:07:43Z</time>
      </trkpt>
      <trkpt lat="42.5193520" lon="2.8396100">
        <ele>62.4</ele>
        <time>2020-07-20T12:07:44Z</time>
      </trkpt>
      <trkpt lat="42.5193210" lon="2.8395610">
        <ele>62.0</ele>
        <time>2020-07-20T12:07:45Z</time>
      </trkpt>
      <trkpt lat="42.5192810" lon="2.8395180">
        <ele>62.0</ele>
        <time>2020-07-20T12:07:46Z</time>
      </trkpt>
      <trkpt lat="42.5192330" lon="2.8394750">
        <ele>61.8</ele>
        <time>2020-07-20T12:07:47Z</time>
      </trkpt>
      <trkpt lat="42.5190550" lon="2.8393090">
        <ele>62.2</ele>
        <time>2020-07-20T12:07:51Z</time>
      </trkpt>
      <trkpt lat="42.5189520" lon="2.8392580">
        <ele>62.6</ele>
        <time>2020-07-20T12:07:53Z</time>
      </trkpt>
      <trkpt lat="42.5188490" lon="2.8392300">
        <ele>62.8</ele>
        <time>2020-07-20T12:07:55Z</time>
      </trkpt>
      <trkpt lat="42.5187470" lon="2.8391890">
        <ele>63.0</ele>
        <time>2020-07-20T12:07:57Z</time>
      </trkpt>
      <trkpt lat="42.5186610" lon="2.8390970">
        <ele>63.2</ele>
        <time>2020-07-20T12:07:59Z</time>
      </trkpt>
      <trkpt lat="42.5185950" lon="2.8389780">
        <ele>63.2</ele>
        <time>2020-07-20T12:08:01Z</time>
      </trkpt>
      <trkpt lat="42.5185450" lon="2.8388440">
        <ele>63.6</ele>
        <time>2020-07-20T12:08:03Z</time>
      </trkpt>
      <trkpt lat="42.5183880" lon="2.8384480">
        <ele>63.4</ele>
        <time>2020-07-20T12:08:09Z</time>
      </trkpt>
      <trkpt lat="42.5183390" lon="2.8383340">
        <ele>63.4</ele>
        <time>2020-07-20T12:08:11Z</time>
      </trkpt>
      <trkpt lat="42.5182950" lon="2.8382370">
        <ele>63.4</ele>
        <time>2020-07-20T12:08:13Z</time>
      </trkpt>
      <trkpt lat="42.5182120" lon="2.8380350">
        <ele>64.0</ele>
        <time>2020-07-20T12:08:17Z</time>
      </trkpt>
      <trkpt lat="42.5181550" lon="2.8378320">
        <ele>64.0</ele>
        <time>2020-07-20T12:08:21Z</time>
      </trkpt>
      <trkpt lat="42.5181440" lon="2.8377140">
        <ele>64.0</ele>
        <time>2020-07-20T12:08:23Z</time>
      </trkpt>
      <trkpt lat="42.5181050" lon="2.8373170">
        <ele>64.0</ele>
        <time>2020-07-20T12:08:29Z</time>
      </trkpt>
      <trkpt lat="42.5180780" lon="2.8371060">
        <ele>63.6</ele>
        <time>2020-07-20T12:08:32Z</time>
      </trkpt>
      <trkpt lat="42.5180390" lon="2.8367370">
        <ele>64.0</ele>
        <time>2020-07-20T12:08:37Z</time>
      </trkpt>
      <trkpt lat="42.5180290" lon="2.8365820">
        <ele>64.2</ele>
        <time>2020-07-20T12:08:39Z</time>
      </trkpt>
      <trkpt lat="42.5180270" lon="2.8365030">
        <ele>64.0</ele>
        <time>2020-07-20T12:08:40Z</time>
      </trkpt>
      <trkpt lat="42.5180370" lon="2.8362600">
        <ele>63.8</ele>
        <time>2020-07-20T12:08:43Z</time>
      </trkpt>
      <trkpt lat="42.5180720" lon="2.8360240">
        <ele>63.2</ele>
        <time>2020-07-20T12:08:46Z</time>
      </trkpt>
      <trkpt lat="42.5181160" lon="2.8356370">
        <ele>62.8</ele>
        <time>2020-07-20T12:08:51Z</time>
      </trkpt>
      <trkpt lat="42.5181140" lon="2.8354750">
        <ele>63.2</ele>
        <time>2020-07-20T12:08:53Z</time>
      </trkpt>
      <trkpt lat="42.5180740" lon="2.8350920">
        <ele>63.2</ele>
        <time>2020-07-20T12:08:58Z</time>
      </trkpt>
      <trkpt lat="42.5180630" lon="2.8350170">
        <ele>63.2</ele>
        <time>2020-07-20T12:08:59Z</time>
      </trkpt>
      <trkpt lat="42.5180010" lon="2.8345640">
        <ele>63.2</ele>
        <time>2020-07-20T12:09:05Z</time>
      </trkpt>
      <trkpt lat="42.5179900" lon="2.8344120">
        <ele>62.8</ele>
        <time>2020-07-20T12:09:07Z</time>
      </trkpt>
      <trkpt lat="42.5179890" lon="2.8339610">
        <ele>63.6</ele>
        <time>2020-07-20T12:09:13Z</time>
      </trkpt>
      <trkpt lat="42.5180500" lon="2.8335140">
        <ele>64.0</ele>
        <time>2020-07-20T12:09:19Z</time>
      </trkpt>
      <trkpt lat="42.5180920" lon="2.8331410">
        <ele>64.6</ele>
        <time>2020-07-20T12:09:24Z</time>
      </trkpt>
      <trkpt lat="42.5180930" lon="2.8329980">
        <ele>64.6</ele>
        <time>2020-07-20T12:09:26Z</time>
      </trkpt>
      <trkpt lat="42.5180460" lon="2.8326250">
        <ele>65.4</ele>
        <time>2020-07-20T12:09:32Z</time>
      </trkpt>
      <trkpt lat="42.5180370" lon="2.8325720">
        <ele>65.8</ele>
        <time>2020-07-20T12:09:33Z</time>
      </trkpt>
      <trkpt lat="42.5179860" lon="2.8323310">
        <ele>67.0</ele>
        <time>2020-07-20T12:09:38Z</time>
      </trkpt>
      <trkpt lat="42.5179650" lon="2.8322470">
        <ele>67.6</ele>
        <time>2020-07-20T12:09:40Z</time>
      </trkpt>
      <trkpt lat="42.5179520" lon="2.8321660">
        <ele>68.2</ele>
        <time>2020-07-20T12:09:42Z</time>
      </trkpt>
      <trkpt lat="42.5179510" lon="2.8321150">
        <ele>68.8</ele>
        <time>2020-07-20T12:09:44Z</time>
      </trkpt>
      <trkpt lat="42.5203600" lon="2.8316540">
        <ele>69.8</ele>
        <time>2020-07-20T12:11:33Z</time>
      </trkpt>
      <trkpt lat="42.5203740" lon="2.8316620">
        <ele>69.8</ele>
        <time>2020-07-20T12:11:34Z</time>
      </trkpt>
      <trkpt lat="42.5204060" lon="2.8316660">
        <ele>69.2</ele>
        <time>2020-07-20T12:11:39Z</time>
      </trkpt>
      <trkpt lat="42.5204090" lon="2.8316600">
        <ele>68.8</ele>
        <time>2020-07-20T12:11:42Z</time>
      </trkpt>
      <trkpt lat="42.5204040" lon="2.8316530">
        <ele>69.0</ele>
        <time>2020-07-20T12:11:48Z</time>
      </trkpt>
      <trkpt lat="42.5203940" lon="2.8316460">
        <ele>68.6</ele>
        <time>2020-07-20T12:11:54Z</time>
      </trkpt>
      <trkpt lat="42.5203760" lon="2.8316320">
        <ele>68.4</ele>
        <time>2020-07-20T12:12:00Z</time>
      </trkpt>
      <trkpt lat="42.5203670" lon="2.8316220">
        <ele>68.6</ele>
        <time>2020-07-20T12:12:06Z</time>
      </trkpt>
      <trkpt lat="42.5203670" lon="2.8316210">
        <ele>68.6</ele>
        <time>2020-07-20T12:12:12Z</time>
      </trkpt>
      <trkpt lat="42.5203670" lon="2.8316220">
        <ele>68.6</ele>
        <time>2020-07-20T12:12:13Z</time>
      </trkpt>
      <trkpt lat="42.5203640" lon="2.8316200">
        <ele>68.6</ele>
        <time>2020-07-20T12:12:17Z</time>
      </trkpt>
      <trkpt lat="42.5203610" lon="2.8316230">
        <ele>68.6</ele>
        <time>2020-07-20T12:12:18Z</time>
      </trkpt>
      <trkpt lat="42.5203600" lon="2.8316180">
        <ele>68.8</ele>
        <time>2020-07-20T12:12:24Z</time>
      </trkpt>
      <trkpt lat="42.5203550" lon="2.8316130">
        <ele>68.6</ele>
        <time>2020-07-20T12:12:29Z</time>
      </trkpt>
      <trkpt lat="42.5203550" lon="2.8316090">
        <ele>68.6</ele>
        <time>2020-07-20T12:12:32Z</time>
      </trkpt>
      <trkpt lat="42.5203530" lon="2.8316010">
        <ele>68.6</ele>
        <time>2020-07-20T12:12:38Z</time>
      </trkpt>
      <trkpt lat="42.5203520" lon="2.8316010">
        <ele>68.2</ele>
        <time>2020-07-20T12:12:42Z</time>
      </trkpt>
      <trkpt lat="42.5203510" lon="2.8316000">
        <ele>68.2</ele>
        <time>2020-07-20T12:12:44Z</time>
      </trkpt>
      <trkpt lat="42.5203500" lon="2.8315990">
        <ele>68.2</ele>
        <time>2020-07-20T12:12:45Z</time>
      </trkpt>
      <trkpt lat="42.5203470" lon="2.8315940">
        <ele>68.2</ele>
        <time>2020-07-20T12:12:51Z</time>
      </trkpt>
      <trkpt lat="42.5203480" lon="2.8315910">
        <ele>68.2</ele>
        <time>2020-07-20T12:12:57Z</time>
      </trkpt>
      <trkpt lat="42.5203470" lon="2.8315910">
        <ele>68.2</ele>
        <time>2020-07-20T12:13:01Z</time>
      </trkpt>
      <trkpt lat="42.5203480" lon="2.8315910">
        <ele>68.2</ele>
        <time>2020-07-20T12:13:04Z</time>
      </trkpt>
      <trkpt lat="42.5203480" lon="2.8315910">
        <ele>68.2</ele>
        <time>2020-07-20T12:13:07Z</time>
      </trkpt>
      <trkpt lat="42.5203500" lon="2.8315910">
        <ele>68.2</ele>
        <time>2020-07-20T12:13:13Z</time>
      </trkpt>
      <trkpt lat="42.5203490" lon="2.8315920">
        <ele>68.2</ele>
        <time>2020-07-20T12:13:19Z</time>
      </trkpt>
      <trkpt lat="42.5203480" lon="2.8315920">
        <ele>68.2</ele>
        <time>2020-07-20T12:13:21Z</time>
      </trkpt>
      <trkpt lat="42.5203520" lon="2.8315920">
        <ele>68.2</ele>
        <time>2020-07-20T12:13:25Z</time>
      </trkpt>
      <trkpt lat="42.5203520" lon="2.8315910">
        <ele>68.2</ele>
        <time>2020-07-20T12:13:27Z</time>
      </trkpt>
      <trkpt lat="42.5203530" lon="2.8315930">
        <ele>68.2</ele>
        <time>2020-07-20T12:13:33Z</time>
      </trkpt>
      <trkpt lat="42.5203470" lon="2.8315920">
        <ele>68.2</ele>
        <time>2020-07-20T12:13:37Z</time>
      </trkpt>
      <trkpt lat="42.5203470" lon="2.8315970">
        <ele>68.2</ele>
        <time>2020-07-20T12:13:43Z</time>
      </trkpt>
      <trkpt lat="42.5203510" lon="2.8316020">
        <ele>68.2</ele>
        <time>2020-07-20T12:13:49Z</time>
      </trkpt>
      <trkpt lat="42.5203570" lon="2.8316030">
        <ele>68.2</ele>
        <time>2020-07-20T12:13:51Z</time>
      </trkpt>
      <trkpt lat="42.5203730" lon="2.8316050">
        <ele>68.2</ele>
        <time>2020-07-20T12:13:57Z</time>
      </trkpt>
      <trkpt lat="42.5203830" lon="2.8316000">
        <ele>68.2</ele>
        <time>2020-07-20T12:14:01Z</time>
      </trkpt>
      <trkpt lat="42.5203800" lon="2.8315960">
        <ele>68.2</ele>
        <time>2020-07-20T12:14:07Z</time>
      </trkpt>
      <trkpt lat="42.5203650" lon="2.8315810">
        <ele>68.2</ele>
        <time>2020-07-20T12:14:13Z</time>
      </trkpt>
      <trkpt lat="42.5203590" lon="2.8315610">
        <ele>68.2</ele>
        <time>2020-07-20T12:14:19Z</time>
      </trkpt>
      <trkpt lat="42.5203660" lon="2.8315570">
        <ele>68.2</ele>
        <time>2020-07-20T12:14:23Z</time>
      </trkpt>
      <trkpt lat="42.5203690" lon="2.8315590">
        <ele>68.2</ele>
        <time>2020-07-20T12:14:25Z</time>
      </trkpt>
      <trkpt lat="42.5203570" lon="2.8315630">
        <ele>68.2</ele>
        <time>2020-07-20T12:14:26Z</time>
      </trkpt>
      <trkpt lat="42.5203570" lon="2.8315710">
        <ele>68.2</ele>
        <time>2020-07-20T12:14:28Z</time>
      </trkpt>
      <trkpt lat="42.5203920" lon="2.8315750">
        <ele>68.2</ele>
        <time>2020-07-20T12:14:34Z</time>
      </trkpt>
      <trkpt lat="42.5204240" lon="2.8315760">
        <ele>68.2</ele>
        <time>2020-07-20T12:14:36Z</time>
      </trkpt>
      <trkpt lat="42.5204990" lon="2.8316230">
        <ele>68.2</ele>
        <time>2020-07-20T12:14:38Z</time>
      </trkpt>
      <trkpt lat="42.5205840" lon="2.8316730">
        <ele>68.4</ele>
        <time>2020-07-20T12:14:40Z</time>
      </trkpt>
      <trkpt lat="42.5208510" lon="2.8318000">
        <ele>68.6</ele>
        <time>2020-07-20T12:14:46Z</time>
      </trkpt>
      <trkpt lat="42.5209410" lon="2.8318390">
        <ele>68.6</ele>
        <time>2020-07-20T12:14:48Z</time>
      </trkpt>
      <trkpt lat="42.5212040" lon="2.8319570">
        <ele>69.2</ele>
        <time>2020-07-20T12:14:54Z</time>
      </trkpt>
      <trkpt lat="42.5214310" lon="2.8320510">
        <ele>69.0</ele>
        <time>2020-07-20T12:14:59Z</time>
      </trkpt>
      <trkpt lat="42.5215110" lon="2.8320830">
        <ele>69.2</ele>
        <time>2020-07-20T12:15:01Z</time>
      </trkpt>
      <trkpt lat="42.5217720" lon="2.8321870">
        <ele>69.6</ele>
        <time>2020-07-20T12:15:07Z</time>
      </trkpt>
      <trkpt lat="42.5218140" lon="2.8322070">
        <ele>69.6</ele>
        <time>2020-07-20T12:15:08Z</time>
      </trkpt>
      <trkpt lat="42.5219970" lon="2.8322880">
        <ele>70.0</ele>
        <time>2020-07-20T12:15:12Z</time>
      </trkpt>
      <trkpt lat="42.5220910" lon="2.8323310">
        <ele>71.2</ele>
        <time>2020-07-20T12:15:14Z</time>
      </trkpt>
      <trkpt lat="42.5221320" lon="2.8323450">
        <ele>71.6</ele>
        <time>2020-07-20T12:15:15Z</time>
      </trkpt>
      <trkpt lat="42.5221720" lon="2.8323520">
        <ele>72.0</ele>
        <time>2020-07-20T12:15:16Z</time>
      </trkpt>
      <trkpt lat="42.5222400" lon="2.8323350">
        <ele>72.4</ele>
        <time>2020-07-20T12:15:18Z</time>
      </trkpt>
      <trkpt lat="42.5222690" lon="2.8323050">
        <ele>72.4</ele>
        <time>2020-07-20T12:15:19Z</time>
      </trkpt>
      <trkpt lat="42.5222900" lon="2.8322590">
        <ele>72.6</ele>
        <time>2020-07-20T12:15:20Z</time>
      </trkpt>
      <trkpt lat="42.5223060" lon="2.8322060">
        <ele>72.8</ele>
        <time>2020-07-20T12:15:21Z</time>
      </trkpt>
      <trkpt lat="42.5223210" lon="2.8321560">
        <ele>73.2</ele>
        <time>2020-07-20T12:15:22Z</time>
      </trkpt>
      <trkpt lat="42.5223360" lon="2.8321090">
        <ele>73.4</ele>
        <time>2020-07-20T12:15:23Z</time>
      </trkpt>
      <trkpt lat="42.5223520" lon="2.8320630">
        <ele>73.6</ele>
        <time>2020-07-20T12:15:24Z</time>
      </trkpt>
      <trkpt lat="42.5223700" lon="2.8320180">
        <ele>73.8</ele>
        <time>2020-07-20T12:15:25Z</time>
      </trkpt>
      <trkpt lat="42.5224380" lon="2.8318380">
        <ele>74.6</ele>
        <time>2020-07-20T12:15:29Z</time>
      </trkpt>
      <trkpt lat="42.5224950" lon="2.8316950">
        <ele>75.0</ele>
        <time>2020-07-20T12:15:32Z</time>
      </trkpt>
      <trkpt lat="42.5225370" lon="2.8315860">
        <ele>75.2</ele>
        <time>2020-07-20T12:15:34Z</time>
      </trkpt>
      <trkpt lat="42.5225810" lon="2.8314690">
        <ele>75.2</ele>
        <time>2020-07-20T12:15:36Z</time>
      </trkpt>
      <trkpt lat="42.5226390" lon="2.8312880">
        <ele>75.4</ele>
        <time>2020-07-20T12:15:39Z</time>
      </trkpt>
      <trkpt lat="42.5227240" lon="2.8308750">
        <ele>75.6</ele>
        <time>2020-07-20T12:15:45Z</time>
      </trkpt>
      <trkpt lat="42.5227380" lon="2.8308020">
        <ele>75.6</ele>
        <time>2020-07-20T12:15:46Z</time>
      </trkpt>
      <trkpt lat="42.5227940" lon="2.8305190">
        <ele>76.2</ele>
        <time>2020-07-20T12:15:50Z</time>
      </trkpt>
      <trkpt lat="42.5228090" lon="2.8303770">
        <ele>76.4</ele>
        <time>2020-07-20T12:15:52Z</time>
      </trkpt>
      <trkpt lat="42.5228410" lon="2.8301880">
        <ele>76.6</ele>
        <time>2020-07-20T12:15:55Z</time>
      </trkpt>
      <trkpt lat="42.5228610" lon="2.8300760">
        <ele>77.0</ele>
        <time>2020-07-20T12:15:57Z</time>
      </trkpt>
      <trkpt lat="42.5228870" lon="2.8300290">
        <ele>77.0</ele>
        <time>2020-07-20T12:15:58Z</time>
      </trkpt>
      <trkpt lat="42.5229190" lon="2.8299930">
        <ele>77.2</ele>
        <time>2020-07-20T12:15:59Z</time>
      </trkpt>
      <trkpt lat="42.5230040" lon="2.8298980">
        <ele>77.4</ele>
        <time>2020-07-20T12:16:02Z</time>
      </trkpt>
      <trkpt lat="42.5230270" lon="2.8297530">
        <ele>77.6</ele>
        <time>2020-07-20T12:16:05Z</time>
      </trkpt>
      <trkpt lat="42.5230180" lon="2.8296940">
        <ele>77.8</ele>
        <time>2020-07-20T12:16:06Z</time>
      </trkpt>
      <trkpt lat="42.5229860" lon="2.8295660">
        <ele>77.8</ele>
        <time>2020-07-20T12:16:08Z</time>
      </trkpt>
      <trkpt lat="42.5228980" lon="2.8292110">
        <ele>78.0</ele>
        <time>2020-07-20T12:16:13Z</time>
      </trkpt>
      <trkpt lat="42.5227920" lon="2.8287360">
        <ele>78.2</ele>
        <time>2020-07-20T12:16:19Z</time>
      </trkpt>
      <trkpt lat="42.5227560" lon="2.8285760">
        <ele>78.2</ele>
        <time>2020-07-20T12:16:21Z</time>
      </trkpt>
      <trkpt lat="42.5226570" lon="2.8280990">
        <ele>78.4</ele>
        <time>2020-07-20T12:16:27Z</time>
      </trkpt>
      <trkpt lat="42.5226180" lon="2.8278700">
        <ele>78.6</ele>
        <time>2020-07-20T12:16:30Z</time>
      </trkpt>
      <trkpt lat="42.5225180" lon="2.8274080">
        <ele>78.8</ele>
        <time>2020-07-20T12:16:36Z</time>
      </trkpt>
      <trkpt lat="42.5225020" lon="2.8273280">
        <ele>78.8</ele>
        <time>2020-07-20T12:16:37Z</time>
      </trkpt>
      <trkpt lat="42.5224550" lon="2.8270860">
        <ele>79.0</ele>
        <time>2020-07-20T12:16:40Z</time>
      </trkpt>
      <trkpt lat="42.5223670" lon="2.8266120">
        <ele>79.4</ele>
        <time>2020-07-20T12:16:46Z</time>
      </trkpt>
      <trkpt lat="42.5223380" lon="2.8262860">
        <ele>80.0</ele>
        <time>2020-07-20T12:16:50Z</time>
      </trkpt>
      <trkpt lat="42.5223240" lon="2.8261250">
        <ele>80.2</ele>
        <time>2020-07-20T12:16:52Z</time>
      </trkpt>
      <trkpt lat="42.5222740" lon="2.8256110">
        <ele>80.6</ele>
        <time>2020-07-20T12:16:58Z</time>
      </trkpt>
      <trkpt lat="42.5222590" lon="2.8254400">
        <ele>80.8</ele>
        <time>2020-07-20T12:17:00Z</time>
      </trkpt>
      <trkpt lat="42.5222510" lon="2.8253560">
        <ele>81.0</ele>
        <time>2020-07-20T12:17:01Z</time>
      </trkpt>
      <trkpt lat="42.5221960" lon="2.8248760">
        <ele>81.4</ele>
        <time>2020-07-20T12:17:07Z</time>
      </trkpt>
      <trkpt lat="42.5221770" lon="2.8248030">
        <ele>81.4</ele>
        <time>2020-07-20T12:17:08Z</time>
      </trkpt>
      <trkpt lat="42.5221330" lon="2.8246560">
        <ele>81.6</ele>
        <time>2020-07-20T12:17:10Z</time>
      </trkpt>
      <trkpt lat="42.5220900" lon="2.8245060">
        <ele>81.6</ele>
        <time>2020-07-20T12:17:12Z</time>
      </trkpt>
      <trkpt lat="42.5220020" lon="2.8242160">
        <ele>81.8</ele>
        <time>2020-07-20T12:17:16Z</time>
      </trkpt>
      <trkpt lat="42.5219520" lon="2.8240710">
        <ele>81.6</ele>
        <time>2020-07-20T12:17:18Z</time>
      </trkpt>
      <trkpt lat="42.5218050" lon="2.8236510">
        <ele>82.0</ele>
        <time>2020-07-20T12:17:24Z</time>
      </trkpt>
      <trkpt lat="42.5217640" lon="2.8235190">
        <ele>82.2</ele>
        <time>2020-07-20T12:17:26Z</time>
      </trkpt>
      <trkpt lat="42.5217260" lon="2.8233960">
        <ele>82.2</ele>
        <time>2020-07-20T12:17:28Z</time>
      </trkpt>
      <trkpt lat="42.5216430" lon="2.8231630">
        <ele>82.2</ele>
        <time>2020-07-20T12:17:32Z</time>
      </trkpt>
      <trkpt lat="42.5216220" lon="2.8231080">
        <ele>82.2</ele>
        <time>2020-07-20T12:17:33Z</time>
      </trkpt>
      <trkpt lat="42.5216010" lon="2.8230540">
        <ele>82.0</ele>
        <time>2020-07-20T12:17:34Z</time>
      </trkpt>
      <trkpt lat="42.5215770" lon="2.8230010">
        <ele>82.0</ele>
        <time>2020-07-20T12:17:35Z</time>
      </trkpt>
      <trkpt lat="42.5215070" lon="2.8229120">
        <ele>82.2</ele>
        <time>2020-07-20T12:17:37Z</time>
      </trkpt>
      <trkpt lat="42.5214660" lon="2.8228790">
        <ele>82.0</ele>
        <time>2020-07-20T12:17:38Z</time>
      </trkpt>
      <trkpt lat="42.5214220" lon="2.8228520">
        <ele>82.0</ele>
        <time>2020-07-20T12:17:39Z</time>
      </trkpt>
      <trkpt lat="42.5213770" lon="2.8228330">
        <ele>82.0</ele>
        <time>2020-07-20T12:17:40Z</time>
      </trkpt>
      <trkpt lat="42.5212860" lon="2.8228010">
        <ele>82.0</ele>
        <time>2020-07-20T12:17:42Z</time>
      </trkpt>
      <trkpt lat="42.5212430" lon="2.8227820">
        <ele>82.0</ele>
        <time>2020-07-20T12:17:43Z</time>
      </trkpt>
      <trkpt lat="42.5212030" lon="2.8227550">
        <ele>82.0</ele>
        <time>2020-07-20T12:17:44Z</time>
      </trkpt>
      <trkpt lat="42.5211540" lon="2.8226640">
        <ele>82.2</ele>
        <time>2020-07-20T12:17:46Z</time>
      </trkpt>
      <trkpt lat="42.5211800" lon="2.8225050">
        <ele>82.6</ele>
        <time>2020-07-20T12:17:49Z</time>
      </trkpt>
      <trkpt lat="42.5212330" lon="2.8223440">
        <ele>83.0</ele>
        <time>2020-07-20T12:17:52Z</time>
      </trkpt>
      <trkpt lat="42.5212420" lon="2.8222870">
        <ele>83.2</ele>
        <time>2020-07-20T12:17:53Z</time>
      </trkpt>
      <trkpt lat="42.5212430" lon="2.8222290">
        <ele>83.4</ele>
        <time>2020-07-20T12:17:54Z</time>
      </trkpt>
      <trkpt lat="42.5212300" lon="2.8221170">
        <ele>83.6</ele>
        <time>2020-07-20T12:17:56Z</time>
      </trkpt>
      <trkpt lat="42.5212140" lon="2.8220640">
        <ele>83.6</ele>
        <time>2020-07-20T12:17:57Z</time>
      </trkpt>
      <trkpt lat="42.5211900" lon="2.8220130">
        <ele>83.8</ele>
        <time>2020-07-20T12:17:58Z</time>
      </trkpt>
      <trkpt lat="42.5211180" lon="2.8219240">
        <ele>83.8</ele>
        <time>2020-07-20T12:18:00Z</time>
      </trkpt>
      <trkpt lat="42.5210290" lon="2.8218570">
        <ele>83.8</ele>
        <time>2020-07-20T12:18:02Z</time>
      </trkpt>
      <trkpt lat="42.5209390" lon="2.8217840">
        <ele>83.6</ele>
        <time>2020-07-20T12:18:04Z</time>
      </trkpt>
      <trkpt lat="42.5208630" lon="2.8216860">
        <ele>83.4</ele>
        <time>2020-07-20T12:18:06Z</time>
      </trkpt>
      <trkpt lat="42.5208300" lon="2.8216290">
        <ele>83.4</ele>
        <time>2020-07-20T12:18:07Z</time>
      </trkpt>
      <trkpt lat="42.5207370" lon="2.8214520">
        <ele>84.2</ele>
        <time>2020-07-20T12:18:10Z</time>
      </trkpt>
      <trkpt lat="42.5207100" lon="2.8213920">
        <ele>84.4</ele>
        <time>2020-07-20T12:18:11Z</time>
      </trkpt>
      <trkpt lat="42.5206420" lon="2.8211990">
        <ele>85.0</ele>
        <time>2020-07-20T12:18:14Z</time>
      </trkpt>
      <trkpt lat="42.5206250" lon="2.8211290">
        <ele>85.2</ele>
        <time>2020-07-20T12:18:15Z</time>
      </trkpt>
      <trkpt lat="42.5205970" lon="2.8209060">
        <ele>85.6</ele>
        <time>2020-07-20T12:18:18Z</time>
      </trkpt>
      <trkpt lat="42.5205930" lon="2.8208280">
        <ele>85.8</ele>
        <time>2020-07-20T12:18:19Z</time>
      </trkpt>
      <trkpt lat="42.5206090" lon="2.8205190">
        <ele>86.6</ele>
        <time>2020-07-20T12:18:23Z</time>
      </trkpt>
      <trkpt lat="42.5206310" lon="2.8203740">
        <ele>87.2</ele>
        <time>2020-07-20T12:18:25Z</time>
      </trkpt>
      <trkpt lat="42.5206700" lon="2.8200920">
        <ele>87.8</ele>
        <time>2020-07-20T12:18:29Z</time>
      </trkpt>
      <trkpt lat="42.5207060" lon="2.8198800">
        <ele>88.6</ele>
        <time>2020-07-20T12:18:32Z</time>
      </trkpt>
      <trkpt lat="42.5207400" lon="2.8197420">
        <ele>88.8</ele>
        <time>2020-07-20T12:18:34Z</time>
      </trkpt>
      <trkpt lat="42.5208580" lon="2.8193060">
        <ele>89.6</ele>
        <time>2020-07-20T12:18:40Z</time>
      </trkpt>
      <trkpt lat="42.5209220" lon="2.8190780">
        <ele>89.8</ele>
        <time>2020-07-20T12:18:43Z</time>
      </trkpt>
      <trkpt lat="42.5209670" lon="2.8189270">
        <ele>90.0</ele>
        <time>2020-07-20T12:18:45Z</time>
      </trkpt>
      <trkpt lat="42.5210580" lon="2.8186030">
        <ele>90.6</ele>
        <time>2020-07-20T12:18:49Z</time>
      </trkpt>
      <trkpt lat="42.5212030" lon="2.8180930">
        <ele>89.0</ele>
        <time>2020-07-20T12:18:55Z</time>
      </trkpt>
      <trkpt lat="42.5212280" lon="2.8180060">
        <ele>88.8</ele>
        <time>2020-07-20T12:18:56Z</time>
      </trkpt>
      <trkpt lat="42.5212750" lon="2.8178400">
        <ele>88.4</ele>
        <time>2020-07-20T12:18:58Z</time>
      </trkpt>
      <trkpt lat="42.5213410" lon="2.8176260">
        <ele>87.8</ele>
        <time>2020-07-20T12:19:01Z</time>
      </trkpt>
      <trkpt lat="42.5213640" lon="2.8175770">
        <ele>87.8</ele>
        <time>2020-07-20T12:19:02Z</time>
      </trkpt>
      <trkpt lat="42.5213910" lon="2.8175380">
        <ele>87.8</ele>
        <time>2020-07-20T12:19:03Z</time>
      </trkpt>
      <trkpt lat="42.5214700" lon="2.8174790">
        <ele>87.8</ele>
        <time>2020-07-20T12:19:05Z</time>
      </trkpt>
      <trkpt lat="42.5215630" lon="2.8174270">
        <ele>87.8</ele>
        <time>2020-07-20T12:19:07Z</time>
      </trkpt>
      <trkpt lat="42.5216460" lon="2.8173330">
        <ele>87.8</ele>
        <time>2020-07-20T12:19:09Z</time>
      </trkpt>
      <trkpt lat="42.5216990" lon="2.8172010">
        <ele>87.6</ele>
        <time>2020-07-20T12:19:11Z</time>
      </trkpt>
      <trkpt lat="42.5217060" lon="2.8171240">
        <ele>87.4</ele>
        <time>2020-07-20T12:19:12Z</time>
      </trkpt>
      <trkpt lat="42.5217000" lon="2.8170430">
        <ele>87.2</ele>
        <time>2020-07-20T12:19:13Z</time>
      </trkpt>
      <trkpt lat="42.5216840" lon="2.8169610">
        <ele>86.8</ele>
        <time>2020-07-20T12:19:14Z</time>
      </trkpt>
      <trkpt lat="42.5216620" lon="2.8168770">
        <ele>86.6</ele>
        <time>2020-07-20T12:19:15Z</time>
      </trkpt>
      <trkpt lat="42.5216450" lon="2.8167880">
        <ele>86.4</ele>
        <time>2020-07-20T12:19:16Z</time>
      </trkpt>
      <trkpt lat="42.5216490" lon="2.8165940">
        <ele>86.0</ele>
        <time>2020-07-20T12:19:18Z</time>
      </trkpt>
      <trkpt lat="42.5216690" lon="2.8164950">
        <ele>85.6</ele>
        <time>2020-07-20T12:19:19Z</time>
      </trkpt>
      <trkpt lat="42.5217510" lon="2.8162020">
        <ele>84.4</ele>
        <time>2020-07-20T12:19:22Z</time>
      </trkpt>
      <trkpt lat="42.5217780" lon="2.8161030">
        <ele>84.2</ele>
        <time>2020-07-20T12:19:23Z</time>
      </trkpt>
      <trkpt lat="42.5218840" lon="2.8156990">
        <ele>83.4</ele>
        <time>2020-07-20T12:19:27Z</time>
      </trkpt>
      <trkpt lat="42.5219640" lon="2.8153880">
        <ele>82.8</ele>
        <time>2020-07-20T12:19:30Z</time>
      </trkpt>
      <trkpt lat="42.5220180" lon="2.8151790">
        <ele>82.2</ele>
        <time>2020-07-20T12:19:32Z</time>
      </trkpt>
      <trkpt lat="42.5221250" lon="2.8147540">
        <ele>81.0</ele>
        <time>2020-07-20T12:19:36Z</time>
      </trkpt>
      <trkpt lat="42.5222020" lon="2.8144350">
        <ele>80.4</ele>
        <time>2020-07-20T12:19:39Z</time>
      </trkpt>
      <trkpt lat="42.5222750" lon="2.8141150">
        <ele>80.0</ele>
        <time>2020-07-20T12:19:42Z</time>
      </trkpt>
      <trkpt lat="42.5223800" lon="2.8135780">
        <ele>79.0</ele>
        <time>2020-07-20T12:19:47Z</time>
      </trkpt>
      <trkpt lat="42.5224170" lon="2.8133650">
        <ele>78.6</ele>
        <time>2020-07-20T12:19:49Z</time>
      </trkpt>
      <trkpt lat="42.5224960" lon="2.8127360">
        <ele>77.6</ele>
        <time>2020-07-20T12:19:55Z</time>
      </trkpt>
      <trkpt lat="42.5225030" lon="2.8126300">
        <ele>77.4</ele>
        <time>2020-07-20T12:19:56Z</time>
      </trkpt>
      <trkpt lat="42.5225190" lon="2.8119730">
        <ele>76.8</ele>
        <time>2020-07-20T12:20:02Z</time>
      </trkpt>
      <trkpt lat="42.5225080" lon="2.8117520">
        <ele>77.0</ele>
        <time>2020-07-20T12:20:04Z</time>
      </trkpt>
      <trkpt lat="42.5224340" lon="2.8110940">
        <ele>76.8</ele>
        <time>2020-07-20T12:20:10Z</time>
      </trkpt>
      <trkpt lat="42.5224180" lon="2.8109880">
        <ele>76.8</ele>
        <time>2020-07-20T12:20:11Z</time>
      </trkpt>
      <trkpt lat="42.5223040" lon="2.8103540">
        <ele>76.4</ele>
        <time>2020-07-20T12:20:17Z</time>
      </trkpt>
      <trkpt lat="42.5222560" lon="2.8101390">
        <ele>76.2</ele>
        <time>2020-07-20T12:20:19Z</time>
      </trkpt>
      <trkpt lat="42.5221240" lon="2.8096400">
        <ele>76.6</ele>
        <time>2020-07-20T12:20:24Z</time>
      </trkpt>
      <trkpt lat="42.5220310" lon="2.8093660">
        <ele>76.8</ele>
        <time>2020-07-20T12:20:27Z</time>
      </trkpt>
      <trkpt lat="42.5218980" lon="2.8090110">
        <ele>77.4</ele>
        <time>2020-07-20T12:20:31Z</time>
      </trkpt>
      <trkpt lat="42.5217570" lon="2.8086790">
        <ele>78.4</ele>
        <time>2020-07-20T12:20:35Z</time>
      </trkpt>
      <trkpt lat="42.5216890" lon="2.8085200">
        <ele>79.0</ele>
        <time>2020-07-20T12:20:37Z</time>
      </trkpt>
      <trkpt lat="42.5216220" lon="2.8083680">
        <ele>79.6</ele>
        <time>2020-07-20T12:20:39Z</time>
      </trkpt>
      <trkpt lat="42.5214310" lon="2.8079280">
        <ele>81.0</ele>
        <time>2020-07-20T12:20:45Z</time>
      </trkpt>
      <trkpt lat="42.5214000" lon="2.8078550">
        <ele>81.2</ele>
        <time>2020-07-20T12:20:46Z</time>
      </trkpt>
      <trkpt lat="42.5213370" lon="2.8077080">
        <ele>82.0</ele>
        <time>2020-07-20T12:20:48Z</time>
      </trkpt>
      <trkpt lat="42.5211590" lon="2.8072720">
        <ele>83.0</ele>
        <time>2020-07-20T12:20:54Z</time>
      </trkpt>
      <trkpt lat="42.5210710" lon="2.8070610">
        <ele>83.4</ele>
        <time>2020-07-20T12:20:57Z</time>
      </trkpt>
      <trkpt lat="42.5210440" lon="2.8069890">
        <ele>83.6</ele>
        <time>2020-07-20T12:20:58Z</time>
      </trkpt>
      <trkpt lat="42.5210160" lon="2.8069200">
        <ele>83.8</ele>
        <time>2020-07-20T12:20:59Z</time>
      </trkpt>
      <trkpt lat="42.5209620" lon="2.8067810">
        <ele>84.0</ele>
        <time>2020-07-20T12:21:01Z</time>
      </trkpt>
      <trkpt lat="42.5209380" lon="2.8067120">
        <ele>84.2</ele>
        <time>2020-07-20T12:21:02Z</time>
      </trkpt>
      <trkpt lat="42.5208920" lon="2.8065800">
        <ele>84.6</ele>
        <time>2020-07-20T12:21:04Z</time>
      </trkpt>
      <trkpt lat="42.5208610" lon="2.8064460">
        <ele>85.0</ele>
        <time>2020-07-20T12:21:06Z</time>
      </trkpt>
      <trkpt lat="42.5208650" lon="2.8063760">
        <ele>85.2</ele>
        <time>2020-07-20T12:21:07Z</time>
      </trkpt>
      <trkpt lat="42.5208800" lon="2.8063070">
        <ele>85.4</ele>
        <time>2020-07-20T12:21:08Z</time>
      </trkpt>
      <trkpt lat="42.5208930" lon="2.8062380">
        <ele>85.4</ele>
        <time>2020-07-20T12:21:09Z</time>
      </trkpt>
      <trkpt lat="42.5208960" lon="2.8060920">
        <ele>85.8</ele>
        <time>2020-07-20T12:21:11Z</time>
      </trkpt>
      <trkpt lat="42.5208820" lon="2.8060200">
        <ele>85.6</ele>
        <time>2020-07-20T12:21:12Z</time>
      </trkpt>
      <trkpt lat="42.5208570" lon="2.8059520">
        <ele>85.6</ele>
        <time>2020-07-20T12:21:13Z</time>
      </trkpt>
      <trkpt lat="42.5207590" lon="2.8057420">
        <ele>85.4</ele>
        <time>2020-07-20T12:21:16Z</time>
      </trkpt>
      <trkpt lat="42.5207380" lon="2.8055650">
        <ele>85.4</ele>
        <time>2020-07-20T12:21:18Z</time>
      </trkpt>
      <trkpt lat="42.5207430" lon="2.8054690">
        <ele>85.2</ele>
        <time>2020-07-20T12:21:19Z</time>
      </trkpt>
      <trkpt lat="42.5207510" lon="2.8048580">
        <ele>84.2</ele>
        <time>2020-07-20T12:21:25Z</time>
      </trkpt>
      <trkpt lat="42.5207410" lon="2.8047520">
        <ele>83.8</ele>
        <time>2020-07-20T12:21:26Z</time>
      </trkpt>
      <trkpt lat="42.5207090" lon="2.8045410">
        <ele>83.0</ele>
        <time>2020-07-20T12:21:28Z</time>
      </trkpt>
      <trkpt lat="42.5206360" lon="2.8042190">
        <ele>82.4</ele>
        <time>2020-07-20T12:21:31Z</time>
      </trkpt>
      <trkpt lat="42.5205790" lon="2.8040030">
        <ele>81.8</ele>
        <time>2020-07-20T12:21:33Z</time>
      </trkpt>
      <trkpt lat="42.5204370" lon="2.8034810">
        <ele>80.6</ele>
        <time>2020-07-20T12:21:38Z</time>
      </trkpt>
      <trkpt lat="42.5203840" lon="2.8032820">
        <ele>80.6</ele>
        <time>2020-07-20T12:21:40Z</time>
      </trkpt>
      <trkpt lat="42.5202310" lon="2.8027100">
        <ele>81.0</ele>
        <time>2020-07-20T12:21:46Z</time>
      </trkpt>
      <trkpt lat="42.5201290" lon="2.8023290">
        <ele>81.4</ele>
        <time>2020-07-20T12:21:50Z</time>
      </trkpt>
      <trkpt lat="42.5200790" lon="2.8021350">
        <ele>81.4</ele>
        <time>2020-07-20T12:21:52Z</time>
      </trkpt>
      <trkpt lat="42.5200540" lon="2.8020370">
        <ele>81.4</ele>
        <time>2020-07-20T12:21:53Z</time>
      </trkpt>
      <trkpt lat="42.5200270" lon="2.8019380">
        <ele>81.4</ele>
        <time>2020-07-20T12:21:54Z</time>
      </trkpt>
      <trkpt lat="42.5199710" lon="2.8017420">
        <ele>81.2</ele>
        <time>2020-07-20T12:21:56Z</time>
      </trkpt>
      <trkpt lat="42.5198870" lon="2.8014420">
        <ele>81.4</ele>
        <time>2020-07-20T12:21:59Z</time>
      </trkpt>
      <trkpt lat="42.5198590" lon="2.8013450">
        <ele>81.4</ele>
        <time>2020-07-20T12:22:00Z</time>
      </trkpt>
      <trkpt lat="42.5198050" lon="2.8011510">
        <ele>81.6</ele>
        <time>2020-07-20T12:22:02Z</time>
      </trkpt>
      <trkpt lat="42.5197250" lon="2.8008560">
        <ele>82.0</ele>
        <time>2020-07-20T12:22:05Z</time>
      </trkpt>
      <trkpt lat="42.5196230" lon="2.8004690">
        <ele>82.2</ele>
        <time>2020-07-20T12:22:09Z</time>
      </trkpt>
      <trkpt lat="42.5195460" lon="2.8001920">
        <ele>82.4</ele>
        <time>2020-07-20T12:22:12Z</time>
      </trkpt>
      <trkpt lat="42.5195200" lon="2.8000990">
        <ele>82.6</ele>
        <time>2020-07-20T12:22:13Z</time>
      </trkpt>
      <trkpt lat="42.5193650" lon="2.7995400">
        <ele>82.6</ele>
        <time>2020-07-20T12:22:19Z</time>
      </trkpt>
      <trkpt lat="42.5192690" lon="2.7991700">
        <ele>82.4</ele>
        <time>2020-07-20T12:22:23Z</time>
      </trkpt>
      <trkpt lat="42.5191210" lon="2.7986160">
        <ele>83.6</ele>
        <time>2020-07-20T12:22:29Z</time>
      </trkpt>
      <trkpt lat="42.5190690" lon="2.7984300">
        <ele>83.8</ele>
        <time>2020-07-20T12:22:31Z</time>
      </trkpt>
      <trkpt lat="42.5190420" lon="2.7983380">
        <ele>83.8</ele>
        <time>2020-07-20T12:22:32Z</time>
      </trkpt>
      <trkpt lat="42.5188820" lon="2.7977840">
        <ele>83.6</ele>
        <time>2020-07-20T12:22:38Z</time>
      </trkpt>
      <trkpt lat="42.5188000" lon="2.7975040">
        <ele>83.8</ele>
        <time>2020-07-20T12:22:41Z</time>
      </trkpt>
      <trkpt lat="42.5186460" lon="2.7969450">
        <ele>84.0</ele>
        <time>2020-07-20T12:22:47Z</time>
      </trkpt>
      <trkpt lat="42.5186190" lon="2.7968530">
        <ele>84.0</ele>
        <time>2020-07-20T12:22:48Z</time>
      </trkpt>
      <trkpt lat="42.5184570" lon="2.7963130">
        <ele>84.4</ele>
        <time>2020-07-20T12:22:54Z</time>
      </trkpt>
      <trkpt lat="42.5183840" lon="2.7960520">
        <ele>84.4</ele>
        <time>2020-07-20T12:22:57Z</time>
      </trkpt>
      <trkpt lat="42.5182600" lon="2.7956190">
        <ele>84.4</ele>
        <time>2020-07-20T12:23:02Z</time>
      </trkpt>
      <trkpt lat="42.5182100" lon="2.7954470">
        <ele>85.2</ele>
        <time>2020-07-20T12:23:04Z</time>
      </trkpt>
      <trkpt lat="42.5181620" lon="2.7952750">
        <ele>85.8</ele>
        <time>2020-07-20T12:23:06Z</time>
      </trkpt>
      <trkpt lat="42.5181140" lon="2.7951030">
        <ele>86.0</ele>
        <time>2020-07-20T12:23:08Z</time>
      </trkpt>
      <trkpt lat="42.5179770" lon="2.7945900">
        <ele>86.2</ele>
        <time>2020-07-20T12:23:14Z</time>
      </trkpt>
      <trkpt lat="42.5178850" lon="2.7942550">
        <ele>87.2</ele>
        <time>2020-07-20T12:23:18Z</time>
      </trkpt>
      <trkpt lat="42.5177470" lon="2.7937600">
        <ele>88.2</ele>
        <time>2020-07-20T12:23:24Z</time>
      </trkpt>
      <trkpt lat="42.5176990" lon="2.7936030">
        <ele>88.2</ele>
        <time>2020-07-20T12:23:26Z</time>
      </trkpt>
      <trkpt lat="42.5176330" lon="2.7933770">
        <ele>88.6</ele>
        <time>2020-07-20T12:23:29Z</time>
      </trkpt>
      <trkpt lat="42.5175730" lon="2.7931560">
        <ele>89.6</ele>
        <time>2020-07-20T12:23:32Z</time>
      </trkpt>
      <trkpt lat="42.5175100" lon="2.7929360">
        <ele>90.8</ele>
        <time>2020-07-20T12:23:35Z</time>
      </trkpt>
      <trkpt lat="42.5174040" lon="2.7925590">
        <ele>91.8</ele>
        <time>2020-07-20T12:23:40Z</time>
      </trkpt>
      <trkpt lat="42.5173820" lon="2.7924830">
        <ele>91.8</ele>
        <time>2020-07-20T12:23:41Z</time>
      </trkpt>
      <trkpt lat="42.5172540" lon="2.7920320">
        <ele>92.8</ele>
        <time>2020-07-20T12:23:47Z</time>
      </trkpt>
      <trkpt lat="42.5172300" lon="2.7919550">
        <ele>93.0</ele>
        <time>2020-07-20T12:23:48Z</time>
      </trkpt>
      <trkpt lat="42.5172090" lon="2.7918760">
        <ele>93.2</ele>
        <time>2020-07-20T12:23:49Z</time>
      </trkpt>
      <trkpt lat="42.5170790" lon="2.7914170">
        <ele>94.0</ele>
        <time>2020-07-20T12:23:55Z</time>
      </trkpt>
      <trkpt lat="42.5170580" lon="2.7913430">
        <ele>94.2</ele>
        <time>2020-07-20T12:23:56Z</time>
      </trkpt>
      <trkpt lat="42.5170100" lon="2.7911970">
        <ele>94.8</ele>
        <time>2020-07-20T12:23:58Z</time>
      </trkpt>
      <trkpt lat="42.5169520" lon="2.7910550">
        <ele>95.4</ele>
        <time>2020-07-20T12:24:00Z</time>
      </trkpt>
      <trkpt lat="42.5167950" lon="2.7907240">
        <ele>96.0</ele>
        <time>2020-07-20T12:24:05Z</time>
      </trkpt>
      <trkpt lat="42.5166840" lon="2.7905410">
        <ele>96.4</ele>
        <time>2020-07-20T12:24:08Z</time>
      </trkpt>
      <trkpt lat="42.5164540" lon="2.7902020">
        <ele>97.2</ele>
        <time>2020-07-20T12:24:14Z</time>
      </trkpt>
      <trkpt lat="42.5163790" lon="2.7900930">
        <ele>97.8</ele>
        <time>2020-07-20T12:24:16Z</time>
      </trkpt>
      <trkpt lat="42.5161950" lon="2.7898010">
        <ele>99.0</ele>
        <time>2020-07-20T12:24:21Z</time>
      </trkpt>
      <trkpt lat="42.5161330" lon="2.7896760">
        <ele>99.4</ele>
        <time>2020-07-20T12:24:23Z</time>
      </trkpt>
      <trkpt lat="42.5160180" lon="2.7894180">
        <ele>100.0</ele>
        <time>2020-07-20T12:24:27Z</time>
      </trkpt>
      <trkpt lat="42.5158770" lon="2.7891000">
        <ele>101.0</ele>
        <time>2020-07-20T12:24:32Z</time>
      </trkpt>
      <trkpt lat="42.5158500" lon="2.7890360">
        <ele>101.0</ele>
        <time>2020-07-20T12:24:33Z</time>
      </trkpt>
      <trkpt lat="42.5156950" lon="2.7886590">
        <ele>101.4</ele>
        <time>2020-07-20T12:24:39Z</time>
      </trkpt>
      <trkpt lat="42.5156680" lon="2.7885990">
        <ele>101.6</ele>
        <time>2020-07-20T12:24:40Z</time>
      </trkpt>
      <trkpt lat="42.5155480" lon="2.7883440">
        <ele>102.2</ele>
        <time>2020-07-20T12:24:44Z</time>
      </trkpt>
      <trkpt lat="42.5154260" lon="2.7880750">
        <ele>102.4</ele>
        <time>2020-07-20T12:24:48Z</time>
      </trkpt>
      <trkpt lat="42.5153090" lon="2.7878070">
        <ele>103.4</ele>
        <time>2020-07-20T12:24:52Z</time>
      </trkpt>
      <trkpt lat="42.5151710" lon="2.7874810">
        <ele>104.2</ele>
        <time>2020-07-20T12:24:57Z</time>
      </trkpt>
      <trkpt lat="42.5150710" lon="2.7872980">
        <ele>104.2</ele>
        <time>2020-07-20T12:25:00Z</time>
      </trkpt>
      <trkpt lat="42.5150340" lon="2.7872470">
        <ele>104.2</ele>
        <time>2020-07-20T12:25:01Z</time>
      </trkpt>
      <trkpt lat="42.5149600" lon="2.7871630">
        <ele>104.2</ele>
        <time>2020-07-20T12:25:03Z</time>
      </trkpt>
      <trkpt lat="42.5148910" lon="2.7870750">
        <ele>104.4</ele>
        <time>2020-07-20T12:25:05Z</time>
      </trkpt>
      <trkpt lat="42.5148630" lon="2.7870190">
        <ele>104.4</ele>
        <time>2020-07-20T12:25:06Z</time>
      </trkpt>
      <trkpt lat="42.5148390" lon="2.7869580">
        <ele>104.4</ele>
        <time>2020-07-20T12:25:07Z</time>
      </trkpt>
      <trkpt lat="42.5147840" lon="2.7868430">
        <ele>104.6</ele>
        <time>2020-07-20T12:25:09Z</time>
      </trkpt>
      <trkpt lat="42.5147140" lon="2.7867550">
        <ele>104.8</ele>
        <time>2020-07-20T12:25:11Z</time>
      </trkpt>
      <trkpt lat="42.5146770" lon="2.7867100">
        <ele>104.8</ele>
        <time>2020-07-20T12:25:12Z</time>
      </trkpt>
      <trkpt lat="42.5146500" lon="2.7866490">
        <ele>104.6</ele>
        <time>2020-07-20T12:25:13Z</time>
      </trkpt>
      <trkpt lat="42.5145580" lon="2.7864430">
        <ele>104.4</ele>
        <time>2020-07-20T12:25:16Z</time>
      </trkpt>
      <trkpt lat="42.5142880" lon="2.7860790">
        <ele>104.6</ele>
        <time>2020-07-20T12:25:22Z</time>
      </trkpt>
      <trkpt lat="42.5140020" lon="2.7856890">
        <ele>104.4</ele>
        <time>2020-07-20T12:25:28Z</time>
      </trkpt>
      <trkpt lat="42.5139130" lon="2.7855410">
        <ele>104.4</ele>
        <time>2020-07-20T12:25:30Z</time>
      </trkpt>
      <trkpt lat="42.5137530" lon="2.7852190">
        <ele>104.2</ele>
        <time>2020-07-20T12:25:34Z</time>
      </trkpt>
      <trkpt lat="42.5136090" lon="2.7848900">
        <ele>104.2</ele>
        <time>2020-07-20T12:25:38Z</time>
      </trkpt>
      <trkpt lat="42.5134010" lon="2.7844080">
        <ele>104.6</ele>
        <time>2020-07-20T12:25:44Z</time>
      </trkpt>
      <trkpt lat="42.5133270" lon="2.7842480">
        <ele>104.6</ele>
        <time>2020-07-20T12:25:46Z</time>
      </trkpt>
      <trkpt lat="42.5132900" lon="2.7841690">
        <ele>104.6</ele>
        <time>2020-07-20T12:25:47Z</time>
      </trkpt>
      <trkpt lat="42.5130680" lon="2.7836930">
        <ele>105.0</ele>
        <time>2020-07-20T12:25:53Z</time>
      </trkpt>
      <trkpt lat="42.5129980" lon="2.7835290">
        <ele>104.8</ele>
        <time>2020-07-20T12:25:55Z</time>
      </trkpt>
      <trkpt lat="42.5129370" lon="2.7833630">
        <ele>104.8</ele>
        <time>2020-07-20T12:25:57Z</time>
      </trkpt>
      <trkpt lat="42.5128880" lon="2.7831890">
        <ele>105.6</ele>
        <time>2020-07-20T12:25:59Z</time>
      </trkpt>
      <trkpt lat="42.5128510" lon="2.7830050">
        <ele>106.0</ele>
        <time>2020-07-20T12:26:01Z</time>
      </trkpt>
      <trkpt lat="42.5127990" lon="2.7827210">
        <ele>106.2</ele>
        <time>2020-07-20T12:26:04Z</time>
      </trkpt>
      <trkpt lat="42.5127690" lon="2.7825330">
        <ele>106.2</ele>
        <time>2020-07-20T12:26:06Z</time>
      </trkpt>
      <trkpt lat="42.5127540" lon="2.7824400">
        <ele>106.4</ele>
        <time>2020-07-20T12:26:07Z</time>
      </trkpt>
      <trkpt lat="42.5127180" lon="2.7822550">
        <ele>106.6</ele>
        <time>2020-07-20T12:26:09Z</time>
      </trkpt>
      <trkpt lat="42.5126760" lon="2.7820760">
        <ele>107.0</ele>
        <time>2020-07-20T12:26:11Z</time>
      </trkpt>
      <trkpt lat="42.5124990" lon="2.7815580">
        <ele>107.2</ele>
        <time>2020-07-20T12:26:17Z</time>
      </trkpt>
      <trkpt lat="42.5124290" lon="2.7813930">
        <ele>107.2</ele>
        <time>2020-07-20T12:26:19Z</time>
      </trkpt>
      <trkpt lat="42.5122070" lon="2.7808840">
        <ele>107.6</ele>
        <time>2020-07-20T12:26:25Z</time>
      </trkpt>
      <trkpt lat="42.5121700" lon="2.7807990">
        <ele>107.8</ele>
        <time>2020-07-20T12:26:26Z</time>
      </trkpt>
      <trkpt lat="42.5121320" lon="2.7807150">
        <ele>107.8</ele>
        <time>2020-07-20T12:26:27Z</time>
      </trkpt>
      <trkpt lat="42.5119850" lon="2.7803790">
        <ele>108.0</ele>
        <time>2020-07-20T12:26:31Z</time>
      </trkpt>
      <trkpt lat="42.5119480" lon="2.7802970">
        <ele>108.0</ele>
        <time>2020-07-20T12:26:32Z</time>
      </trkpt>
      <trkpt lat="42.5118750" lon="2.7801350">
        <ele>108.4</ele>
        <time>2020-07-20T12:26:34Z</time>
      </trkpt>
      <trkpt lat="42.5116930" lon="2.7797320">
        <ele>108.8</ele>
        <time>2020-07-20T12:26:39Z</time>
      </trkpt>
      <trkpt lat="42.5114750" lon="2.7792480">
        <ele>108.8</ele>
        <time>2020-07-20T12:26:45Z</time>
      </trkpt>
      <trkpt lat="42.5112500" lon="2.7787450">
        <ele>108.8</ele>
        <time>2020-07-20T12:26:51Z</time>
      </trkpt>
      <trkpt lat="42.5112100" lon="2.7786540">
        <ele>108.8</ele>
        <time>2020-07-20T12:26:52Z</time>
      </trkpt>
      <trkpt lat="42.5110850" lon="2.7783720">
        <ele>107.4</ele>
        <time>2020-07-20T12:26:55Z</time>
      </trkpt>
      <trkpt lat="42.5109940" lon="2.7781690">
        <ele>106.4</ele>
        <time>2020-07-20T12:26:57Z</time>
      </trkpt>
      <trkpt lat="42.5108990" lon="2.7779530">
        <ele>105.6</ele>
        <time>2020-07-20T12:26:59Z</time>
      </trkpt>
      <trkpt lat="42.5107990" lon="2.7777260">
        <ele>105.2</ele>
        <time>2020-07-20T12:27:01Z</time>
      </trkpt>
      <trkpt lat="42.5105070" lon="2.7770750">
        <ele>104.8</ele>
        <time>2020-07-20T12:27:07Z</time>
      </trkpt>
      <trkpt lat="42.5102460" lon="2.7765100">
        <ele>106.0</ele>
        <time>2020-07-20T12:27:13Z</time>
      </trkpt>
      <trkpt lat="42.5102060" lon="2.7764240">
        <ele>106.0</ele>
        <time>2020-07-20T12:27:14Z</time>
      </trkpt>
      <trkpt lat="42.5101690" lon="2.7763400">
        <ele>106.4</ele>
        <time>2020-07-20T12:27:15Z</time>
      </trkpt>
      <trkpt lat="42.5100620" lon="2.7760970">
        <ele>107.6</ele>
        <time>2020-07-20T12:27:18Z</time>
      </trkpt>
      <trkpt lat="42.5099590" lon="2.7758690">
        <ele>108.6</ele>
        <time>2020-07-20T12:27:21Z</time>
      </trkpt>
      <trkpt lat="42.5099270" lon="2.7757940">
        <ele>109.0</ele>
        <time>2020-07-20T12:27:22Z</time>
      </trkpt>
      <trkpt lat="42.5098630" lon="2.7756490">
        <ele>109.6</ele>
        <time>2020-07-20T12:27:24Z</time>
      </trkpt>
      <trkpt lat="42.5097340" lon="2.7753620">
        <ele>110.6</ele>
        <time>2020-07-20T12:27:28Z</time>
      </trkpt>
      <trkpt lat="42.5096690" lon="2.7752210">
        <ele>110.8</ele>
        <time>2020-07-20T12:27:30Z</time>
      </trkpt>
      <trkpt lat="42.5096370" lon="2.7751490">
        <ele>111.0</ele>
        <time>2020-07-20T12:27:31Z</time>
      </trkpt>
      <trkpt lat="42.5094330" lon="2.7746910">
        <ele>111.4</ele>
        <time>2020-07-20T12:27:37Z</time>
      </trkpt>
      <trkpt lat="42.5093250" lon="2.7744520">
        <ele>111.2</ele>
        <time>2020-07-20T12:27:40Z</time>
      </trkpt>
      <trkpt lat="42.5090890" lon="2.7739340">
        <ele>111.4</ele>
        <time>2020-07-20T12:27:46Z</time>
      </trkpt>
      <trkpt lat="42.5090470" lon="2.7738430">
        <ele>111.4</ele>
        <time>2020-07-20T12:27:47Z</time>
      </trkpt>
      <trkpt lat="42.5090050" lon="2.7737520">
        <ele>111.4</ele>
        <time>2020-07-20T12:27:48Z</time>
      </trkpt>
      <trkpt lat="42.5088820" lon="2.7734780">
        <ele>111.4</ele>
        <time>2020-07-20T12:27:51Z</time>
      </trkpt>
      <trkpt lat="42.5088010" lon="2.7733000">
        <ele>111.2</ele>
        <time>2020-07-20T12:27:53Z</time>
      </trkpt>
      <trkpt lat="42.5086850" lon="2.7730410">
        <ele>111.6</ele>
        <time>2020-07-20T12:27:56Z</time>
      </trkpt>
      <trkpt lat="42.5086480" lon="2.7729550">
        <ele>111.8</ele>
        <time>2020-07-20T12:27:57Z</time>
      </trkpt>
      <trkpt lat="42.5086110" lon="2.7728720">
        <ele>112.0</ele>
        <time>2020-07-20T12:27:58Z</time>
      </trkpt>
      <trkpt lat="42.5085720" lon="2.7727890">
        <ele>112.2</ele>
        <time>2020-07-20T12:27:59Z</time>
      </trkpt>
      <trkpt lat="42.5084580" lon="2.7725340">
        <ele>112.4</ele>
        <time>2020-07-20T12:28:02Z</time>
      </trkpt>
      <trkpt lat="42.5083440" lon="2.7722750">
        <ele>112.6</ele>
        <time>2020-07-20T12:28:05Z</time>
      </trkpt>
      <trkpt lat="42.5081890" lon="2.7719290">
        <ele>113.2</ele>
        <time>2020-07-20T12:28:09Z</time>
      </trkpt>
      <trkpt lat="42.5079550" lon="2.7714050">
        <ele>113.8</ele>
        <time>2020-07-20T12:28:15Z</time>
      </trkpt>
      <trkpt lat="42.5077150" lon="2.7708690">
        <ele>114.0</ele>
        <time>2020-07-20T12:28:21Z</time>
      </trkpt>
      <trkpt lat="42.5075130" lon="2.7704190">
        <ele>114.0</ele>
        <time>2020-07-20T12:28:26Z</time>
      </trkpt>
      <trkpt lat="42.5072660" lon="2.7698650">
        <ele>114.2</ele>
        <time>2020-07-20T12:28:32Z</time>
      </trkpt>
      <trkpt lat="42.5070120" lon="2.7693030">
        <ele>115.4</ele>
        <time>2020-07-20T12:28:38Z</time>
      </trkpt>
      <trkpt lat="42.5069690" lon="2.7692100">
        <ele>115.4</ele>
        <time>2020-07-20T12:28:39Z</time>
      </trkpt>
      <trkpt lat="42.5067250" lon="2.7686530">
        <ele>115.4</ele>
        <time>2020-07-20T12:28:45Z</time>
      </trkpt>
      <trkpt lat="42.5066440" lon="2.7684730">
        <ele>115.6</ele>
        <time>2020-07-20T12:28:47Z</time>
      </trkpt>
      <trkpt lat="42.5064010" lon="2.7679260">
        <ele>116.0</ele>
        <time>2020-07-20T12:28:53Z</time>
      </trkpt>
      <trkpt lat="42.5062380" lon="2.7675630">
        <ele>116.2</ele>
        <time>2020-07-20T12:28:57Z</time>
      </trkpt>
      <trkpt lat="42.5061970" lon="2.7674710">
        <ele>116.4</ele>
        <time>2020-07-20T12:28:58Z</time>
      </trkpt>
      <trkpt lat="42.5059460" lon="2.7669100">
        <ele>116.6</ele>
        <time>2020-07-20T12:29:04Z</time>
      </trkpt>
      <trkpt lat="42.5057340" lon="2.7664390">
        <ele>116.8</ele>
        <time>2020-07-20T12:29:09Z</time>
      </trkpt>
      <trkpt lat="42.5054880" lon="2.7658880">
        <ele>117.4</ele>
        <time>2020-07-20T12:29:15Z</time>
      </trkpt>
      <trkpt lat="42.5054070" lon="2.7657060">
        <ele>117.6</ele>
        <time>2020-07-20T12:29:17Z</time>
      </trkpt>
      <trkpt lat="42.5051650" lon="2.7651690">
        <ele>117.8</ele>
        <time>2020-07-20T12:29:23Z</time>
      </trkpt>
      <trkpt lat="42.5049690" lon="2.7647330">
        <ele>118.0</ele>
        <time>2020-07-20T12:29:28Z</time>
      </trkpt>
      <trkpt lat="42.5049300" lon="2.7646430">
        <ele>118.0</ele>
        <time>2020-07-20T12:29:29Z</time>
      </trkpt>
      <trkpt lat="42.5046870" lon="2.7641140">
        <ele>118.0</ele>
        <time>2020-07-20T12:29:35Z</time>
      </trkpt>
      <trkpt lat="42.5046080" lon="2.7639340">
        <ele>117.8</ele>
        <time>2020-07-20T12:29:37Z</time>
      </trkpt>
      <trkpt lat="42.5043720" lon="2.7634220">
        <ele>117.0</ele>
        <time>2020-07-20T12:29:43Z</time>
      </trkpt>
      <trkpt lat="42.5043330" lon="2.7633380">
        <ele>117.2</ele>
        <time>2020-07-20T12:29:44Z</time>
      </trkpt>
      <trkpt lat="42.5040900" lon="2.7628260">
        <ele>117.6</ele>
        <time>2020-07-20T12:29:50Z</time>
      </trkpt>
      <trkpt lat="42.5039400" lon="2.7624850">
        <ele>117.6</ele>
        <time>2020-07-20T12:29:54Z</time>
      </trkpt>
      <trkpt lat="42.5037160" lon="2.7619880">
        <ele>118.0</ele>
        <time>2020-07-20T12:30:00Z</time>
      </trkpt>
      <trkpt lat="42.5036030" lon="2.7617410">
        <ele>118.4</ele>
        <time>2020-07-20T12:30:03Z</time>
      </trkpt>
      <trkpt lat="42.5035670" lon="2.7616610">
        <ele>118.6</ele>
        <time>2020-07-20T12:30:04Z</time>
      </trkpt>
      <trkpt lat="42.5033530" lon="2.7611690">
        <ele>119.2</ele>
        <time>2020-07-20T12:30:10Z</time>
      </trkpt>
      <trkpt lat="42.5031690" lon="2.7607680">
        <ele>119.4</ele>
        <time>2020-07-20T12:30:15Z</time>
      </trkpt>
      <trkpt lat="42.5029950" lon="2.7603750">
        <ele>119.8</ele>
        <time>2020-07-20T12:30:20Z</time>
      </trkpt>
      <trkpt lat="42.5027830" lon="2.7599180">
        <ele>120.8</ele>
        <time>2020-07-20T12:30:26Z</time>
      </trkpt>
      <trkpt lat="42.5027130" lon="2.7597720">
        <ele>120.8</ele>
        <time>2020-07-20T12:30:28Z</time>
      </trkpt>
      <trkpt lat="42.5026010" lon="2.7595640">
        <ele>120.8</ele>
        <time>2020-07-20T12:30:31Z</time>
      </trkpt>
      <trkpt lat="42.5024760" lon="2.7593940">
        <ele>121.2</ele>
        <time>2020-07-20T12:30:34Z</time>
      </trkpt>
      <trkpt lat="42.5023660" lon="2.7592660">
        <ele>122.0</ele>
        <time>2020-07-20T12:30:37Z</time>
      </trkpt>
      <trkpt lat="42.5023240" lon="2.7591670">
        <ele>122.4</ele>
        <time>2020-07-20T12:30:39Z</time>
      </trkpt>
      <trkpt lat="42.5022850" lon="2.7589760">
        <ele>122.6</ele>
        <time>2020-07-20T12:30:42Z</time>
      </trkpt>
      <trkpt lat="42.5022630" lon="2.7589130">
        <ele>122.6</ele>
        <time>2020-07-20T12:30:43Z</time>
      </trkpt>
      <trkpt lat="42.5022330" lon="2.7588530">
        <ele>122.8</ele>
        <time>2020-07-20T12:30:44Z</time>
      </trkpt>
      <trkpt lat="42.5021350" lon="2.7586780">
        <ele>123.0</ele>
        <time>2020-07-20T12:30:47Z</time>
      </trkpt>
      <trkpt lat="42.5020890" lon="2.7585170">
        <ele>123.0</ele>
        <time>2020-07-20T12:30:49Z</time>
      </trkpt>
      <trkpt lat="42.5019460" lon="2.7580350">
        <ele>122.8</ele>
        <time>2020-07-20T12:30:55Z</time>
      </trkpt>
      <trkpt lat="42.5018810" lon="2.7578810">
        <ele>123.0</ele>
        <time>2020-07-20T12:30:57Z</time>
      </trkpt>
      <trkpt lat="42.5016790" lon="2.7574300">
        <ele>123.6</ele>
        <time>2020-07-20T12:31:03Z</time>
      </trkpt>
      <trkpt lat="42.5015770" lon="2.7572040">
        <ele>124.2</ele>
        <time>2020-07-20T12:31:06Z</time>
      </trkpt>
      <trkpt lat="42.5015430" lon="2.7571280">
        <ele>124.2</ele>
        <time>2020-07-20T12:31:07Z</time>
      </trkpt>
      <trkpt lat="42.5013330" lon="2.7566640">
        <ele>124.8</ele>
        <time>2020-07-20T12:31:13Z</time>
      </trkpt>
      <trkpt lat="42.5012290" lon="2.7564290">
        <ele>125.2</ele>
        <time>2020-07-20T12:31:16Z</time>
      </trkpt>
      <trkpt lat="42.5011570" lon="2.7562760">
        <ele>125.4</ele>
        <time>2020-07-20T12:31:18Z</time>
      </trkpt>
      <trkpt lat="42.5010870" lon="2.7561240">
        <ele>125.6</ele>
        <time>2020-07-20T12:31:20Z</time>
      </trkpt>
      <trkpt lat="42.5008770" lon="2.7556630">
        <ele>125.8</ele>
        <time>2020-07-20T12:31:26Z</time>
      </trkpt>
      <trkpt lat="42.5006520" lon="2.7551630">
        <ele>125.4</ele>
        <time>2020-07-20T12:31:32Z</time>
      </trkpt>
      <trkpt lat="42.5005420" lon="2.7549100">
        <ele>125.6</ele>
        <time>2020-07-20T12:31:35Z</time>
      </trkpt>
      <trkpt lat="42.5003570" lon="2.7544880">
        <ele>126.2</ele>
        <time>2020-07-20T12:31:40Z</time>
      </trkpt>
      <trkpt lat="42.5001380" lon="2.7539810">
        <ele>126.6</ele>
        <time>2020-07-20T12:31:46Z</time>
      </trkpt>
      <trkpt lat="42.5001030" lon="2.7538960">
        <ele>126.6</ele>
        <time>2020-07-20T12:31:47Z</time>
      </trkpt>
      <trkpt lat="42.4998840" lon="2.7533900">
        <ele>126.6</ele>
        <time>2020-07-20T12:31:53Z</time>
      </trkpt>
      <trkpt lat="42.4997360" lon="2.7530510">
        <ele>126.8</ele>
        <time>2020-07-20T12:31:57Z</time>
      </trkpt>
      <trkpt lat="42.4995430" lon="2.7525740">
        <ele>127.0</ele>
        <time>2020-07-20T12:32:03Z</time>
      </trkpt>
      <trkpt lat="42.4995170" lon="2.7524930">
        <ele>127.0</ele>
        <time>2020-07-20T12:32:04Z</time>
      </trkpt>
      <trkpt lat="42.4994990" lon="2.7524070">
        <ele>127.0</ele>
        <time>2020-07-20T12:32:05Z</time>
      </trkpt>
      <trkpt lat="42.4994890" lon="2.7523180">
        <ele>127.0</ele>
        <time>2020-07-20T12:32:06Z</time>
      </trkpt>
      <trkpt lat="42.4994730" lon="2.7521410">
        <ele>127.2</ele>
        <time>2020-07-20T12:32:08Z</time>
      </trkpt>
      <trkpt lat="42.4994260" lon="2.7519770">
        <ele>127.4</ele>
        <time>2020-07-20T12:32:10Z</time>
      </trkpt>
      <trkpt lat="42.4993200" lon="2.7517530">
        <ele>127.8</ele>
        <time>2020-07-20T12:32:13Z</time>
      </trkpt>
      <trkpt lat="42.4992920" lon="2.7516720">
        <ele>127.8</ele>
        <time>2020-07-20T12:32:14Z</time>
      </trkpt>
      <trkpt lat="42.4992220" lon="2.7514250">
        <ele>127.8</ele>
        <time>2020-07-20T12:32:17Z</time>
      </trkpt>
      <trkpt lat="42.4991030" lon="2.7511080">
        <ele>128.0</ele>
        <time>2020-07-20T12:32:21Z</time>
      </trkpt>
      <trkpt lat="42.4989550" lon="2.7508050">
        <ele>128.0</ele>
        <time>2020-07-20T12:32:25Z</time>
      </trkpt>
      <trkpt lat="42.4988260" lon="2.7505870">
        <ele>127.8</ele>
        <time>2020-07-20T12:32:28Z</time>
      </trkpt>
      <trkpt lat="42.4985620" lon="2.7501540">
        <ele>128.2</ele>
        <time>2020-07-20T12:32:34Z</time>
      </trkpt>
      <trkpt lat="42.4984260" lon="2.7499430">
        <ele>128.4</ele>
        <time>2020-07-20T12:32:37Z</time>
      </trkpt>
      <trkpt lat="42.4982470" lon="2.7496580">
        <ele>128.4</ele>
        <time>2020-07-20T12:32:41Z</time>
      </trkpt>
      <trkpt lat="42.4981290" lon="2.7494360">
        <ele>128.2</ele>
        <time>2020-07-20T12:32:44Z</time>
      </trkpt>
      <trkpt lat="42.4980660" lon="2.7492710">
        <ele>128.8</ele>
        <time>2020-07-20T12:32:46Z</time>
      </trkpt>
      <trkpt lat="42.4978600" lon="2.7488660">
        <ele>129.4</ele>
        <time>2020-07-20T12:32:51Z</time>
      </trkpt>
      <trkpt lat="42.4977030" lon="2.7485340">
        <ele>129.4</ele>
        <time>2020-07-20T12:32:55Z</time>
      </trkpt>
      <trkpt lat="42.4975180" lon="2.7481220">
        <ele>129.6</ele>
        <time>2020-07-20T12:33:00Z</time>
      </trkpt>
      <trkpt lat="42.4974810" lon="2.7480390">
        <ele>129.8</ele>
        <time>2020-07-20T12:33:01Z</time>
      </trkpt>
      <trkpt lat="42.4974440" lon="2.7479570">
        <ele>129.8</ele>
        <time>2020-07-20T12:33:02Z</time>
      </trkpt>
      <trkpt lat="42.4972220" lon="2.7474760">
        <ele>130.0</ele>
        <time>2020-07-20T12:33:08Z</time>
      </trkpt>
      <trkpt lat="42.4971140" lon="2.7472410">
        <ele>130.4</ele>
        <time>2020-07-20T12:33:11Z</time>
      </trkpt>
      <trkpt lat="42.4970420" lon="2.7470860">
        <ele>130.8</ele>
        <time>2020-07-20T12:33:13Z</time>
      </trkpt>
      <trkpt lat="42.4968370" lon="2.7466130">
        <ele>131.2</ele>
        <time>2020-07-20T12:33:19Z</time>
      </trkpt>
      <trkpt lat="42.4967320" lon="2.7463790">
        <ele>131.4</ele>
        <time>2020-07-20T12:33:22Z</time>
      </trkpt>
      <trkpt lat="42.4966600" lon="2.7462210">
        <ele>131.6</ele>
        <time>2020-07-20T12:33:24Z</time>
      </trkpt>
      <trkpt lat="42.4964380" lon="2.7457260">
        <ele>131.6</ele>
        <time>2020-07-20T12:33:30Z</time>
      </trkpt>
      <trkpt lat="42.4962830" lon="2.7453870">
        <ele>131.0</ele>
        <time>2020-07-20T12:33:34Z</time>
      </trkpt>
      <trkpt lat="42.4961290" lon="2.7450430">
        <ele>130.8</ele>
        <time>2020-07-20T12:33:38Z</time>
      </trkpt>
      <trkpt lat="42.4959380" lon="2.7446110">
        <ele>130.6</ele>
        <time>2020-07-20T12:33:43Z</time>
      </trkpt>
      <trkpt lat="42.4959010" lon="2.7445260">
        <ele>130.6</ele>
        <time>2020-07-20T12:33:44Z</time>
      </trkpt>
      <trkpt lat="42.4957780" lon="2.7442800">
        <ele>130.4</ele>
        <time>2020-07-20T12:33:47Z</time>
      </trkpt>
      <trkpt lat="42.4956930" lon="2.7441230">
        <ele>130.4</ele>
        <time>2020-07-20T12:33:49Z</time>
      </trkpt>
      <trkpt lat="42.4956520" lon="2.7440460">
        <ele>130.6</ele>
        <time>2020-07-20T12:33:50Z</time>
      </trkpt>
      <trkpt lat="42.4954080" lon="2.7436010">
        <ele>131.0</ele>
        <time>2020-07-20T12:33:56Z</time>
      </trkpt>
      <trkpt lat="42.4953200" lon="2.7434500">
        <ele>131.0</ele>
        <time>2020-07-20T12:33:58Z</time>
      </trkpt>
      <trkpt lat="42.4950960" lon="2.7430950">
        <ele>131.2</ele>
        <time>2020-07-20T12:34:03Z</time>
      </trkpt>
      <trkpt lat="42.4950220" lon="2.7429530">
        <ele>131.4</ele>
        <time>2020-07-20T12:34:05Z</time>
      </trkpt>
      <trkpt lat="42.4949890" lon="2.7428820">
        <ele>131.6</ele>
        <time>2020-07-20T12:34:06Z</time>
      </trkpt>
      <trkpt lat="42.4948860" lon="2.7426790">
        <ele>132.2</ele>
        <time>2020-07-20T12:34:09Z</time>
      </trkpt>
      <trkpt lat="42.4948060" lon="2.7425610">
        <ele>132.2</ele>
        <time>2020-07-20T12:34:11Z</time>
      </trkpt>
      <trkpt lat="42.4946660" lon="2.7423960">
        <ele>132.8</ele>
        <time>2020-07-20T12:34:14Z</time>
      </trkpt>
      <trkpt lat="42.4945870" lon="2.7422920">
        <ele>132.8</ele>
        <time>2020-07-20T12:34:16Z</time>
      </trkpt>
      <trkpt lat="42.4945580" lon="2.7422290">
        <ele>132.8</ele>
        <time>2020-07-20T12:34:17Z</time>
      </trkpt>
      <trkpt lat="42.4945410" lon="2.7421560">
        <ele>133.0</ele>
        <time>2020-07-20T12:34:18Z</time>
      </trkpt>
      <trkpt lat="42.4945390" lon="2.7419960">
        <ele>132.6</ele>
        <time>2020-07-20T12:34:20Z</time>
      </trkpt>
      <trkpt lat="42.4945490" lon="2.7419140">
        <ele>132.6</ele>
        <time>2020-07-20T12:34:21Z</time>
      </trkpt>
      <trkpt lat="42.4946130" lon="2.7415860">
        <ele>132.8</ele>
        <time>2020-07-20T12:34:25Z</time>
      </trkpt>
      <trkpt lat="42.4946330" lon="2.7415060">
        <ele>133.0</ele>
        <time>2020-07-20T12:34:26Z</time>
      </trkpt>
      <trkpt lat="42.4946880" lon="2.7411790">
        <ele>133.8</ele>
        <time>2020-07-20T12:34:30Z</time>
      </trkpt>
      <trkpt lat="42.4947240" lon="2.7409270">
        <ele>134.0</ele>
        <time>2020-07-20T12:34:33Z</time>
      </trkpt>
      <trkpt lat="42.4947580" lon="2.7405070">
        <ele>133.8</ele>
        <time>2020-07-20T12:34:38Z</time>
      </trkpt>
      <trkpt lat="42.4947590" lon="2.7402650">
        <ele>133.8</ele>
        <time>2020-07-20T12:34:41Z</time>
      </trkpt>
      <trkpt lat="42.4947600" lon="2.7397650">
        <ele>135.0</ele>
        <time>2020-07-20T12:34:47Z</time>
      </trkpt>
      <trkpt lat="42.4947600" lon="2.7396850">
        <ele>135.2</ele>
        <time>2020-07-20T12:34:48Z</time>
      </trkpt>
      <trkpt lat="42.4947630" lon="2.7392000">
        <ele>135.8</ele>
        <time>2020-07-20T12:34:54Z</time>
      </trkpt>
      <trkpt lat="42.4947650" lon="2.7390410">
        <ele>135.8</ele>
        <time>2020-07-20T12:34:56Z</time>
      </trkpt>
      <trkpt lat="42.4947660" lon="2.7389640">
        <ele>136.0</ele>
        <time>2020-07-20T12:34:57Z</time>
      </trkpt>
      <trkpt lat="42.4947660" lon="2.7388100">
        <ele>136.4</ele>
        <time>2020-07-20T12:34:59Z</time>
      </trkpt>
      <trkpt lat="42.4947650" lon="2.7386510">
        <ele>137.0</ele>
        <time>2020-07-20T12:35:01Z</time>
      </trkpt>
      <trkpt lat="42.4947700" lon="2.7384100">
        <ele>137.4</ele>
        <time>2020-07-20T12:35:04Z</time>
      </trkpt>
      <trkpt lat="42.4947730" lon="2.7381950">
        <ele>138.0</ele>
        <time>2020-07-20T12:35:07Z</time>
      </trkpt>
      <trkpt lat="42.4947730" lon="2.7381200">
        <ele>138.2</ele>
        <time>2020-07-20T12:35:08Z</time>
      </trkpt>
      <trkpt lat="42.4947710" lon="2.7378800">
        <ele>138.6</ele>
        <time>2020-07-20T12:35:11Z</time>
      </trkpt>
      <trkpt lat="42.4947570" lon="2.7374650">
        <ele>139.2</ele>
        <time>2020-07-20T12:35:16Z</time>
      </trkpt>
      <trkpt lat="42.4947470" lon="2.7371460">
        <ele>139.6</ele>
        <time>2020-07-20T12:35:20Z</time>
      </trkpt>
      <trkpt lat="42.4947400" lon="2.7367180">
        <ele>139.6</ele>
        <time>2020-07-20T12:35:25Z</time>
      </trkpt>
      <trkpt lat="42.4947220" lon="2.7361990">
        <ele>139.8</ele>
        <time>2020-07-20T12:35:31Z</time>
      </trkpt>
      <trkpt lat="42.4947190" lon="2.7361100">
        <ele>140.0</ele>
        <time>2020-07-20T12:35:32Z</time>
      </trkpt>
      <trkpt lat="42.4947040" lon="2.7355650">
        <ele>139.6</ele>
        <time>2020-07-20T12:35:38Z</time>
      </trkpt>
      <trkpt lat="42.4947030" lon="2.7354720">
        <ele>139.4</ele>
        <time>2020-07-20T12:35:39Z</time>
      </trkpt>
      <trkpt lat="42.4947290" lon="2.7349200">
        <ele>140.0</ele>
        <time>2020-07-20T12:35:45Z</time>
      </trkpt>
      <trkpt lat="42.4947410" lon="2.7348340">
        <ele>140.4</ele>
        <time>2020-07-20T12:35:46Z</time>
      </trkpt>
      <trkpt lat="42.4947520" lon="2.7347490">
        <ele>140.6</ele>
        <time>2020-07-20T12:35:47Z</time>
      </trkpt>
      <trkpt lat="42.4948000" lon="2.7344110">
        <ele>141.6</ele>
        <time>2020-07-20T12:35:51Z</time>
      </trkpt>
      <trkpt lat="42.4948270" lon="2.7341420">
        <ele>142.0</ele>
        <time>2020-07-20T12:35:54Z</time>
      </trkpt>
      <trkpt lat="42.4948970" lon="2.7336070">
        <ele>141.4</ele>
        <time>2020-07-20T12:36:00Z</time>
      </trkpt>
      <trkpt lat="42.4949000" lon="2.7335210">
        <ele>141.4</ele>
        <time>2020-07-20T12:36:01Z</time>
      </trkpt>
      <trkpt lat="42.4949100" lon="2.7334360">
        <ele>141.4</ele>
        <time>2020-07-20T12:36:02Z</time>
      </trkpt>
      <trkpt lat="42.4949730" lon="2.7329930">
        <ele>141.6</ele>
        <time>2020-07-20T12:36:07Z</time>
      </trkpt>
      <trkpt lat="42.4950090" lon="2.7327100">
        <ele>141.6</ele>
        <time>2020-07-20T12:36:10Z</time>
      </trkpt>
      <trkpt lat="42.4950410" lon="2.7324350">
        <ele>141.4</ele>
        <time>2020-07-20T12:36:13Z</time>
      </trkpt>
      <trkpt lat="42.4951080" lon="2.7319060">
        <ele>141.2</ele>
        <time>2020-07-20T12:36:19Z</time>
      </trkpt>
      <trkpt lat="42.4951730" lon="2.7313540">
        <ele>141.4</ele>
        <time>2020-07-20T12:36:25Z</time>
      </trkpt>
      <trkpt lat="42.4951880" lon="2.7312590">
        <ele>141.2</ele>
        <time>2020-07-20T12:36:26Z</time>
      </trkpt>
      <trkpt lat="42.4952180" lon="2.7310680">
        <ele>141.0</ele>
        <time>2020-07-20T12:36:28Z</time>
      </trkpt>
      <trkpt lat="42.4952860" lon="2.7306860">
        <ele>140.8</ele>
        <time>2020-07-20T12:36:32Z</time>
      </trkpt>
      <trkpt lat="42.4953180" lon="2.7304930">
        <ele>140.8</ele>
        <time>2020-07-20T12:36:34Z</time>
      </trkpt>
      <trkpt lat="42.4953340" lon="2.7303960">
        <ele>140.8</ele>
        <time>2020-07-20T12:36:35Z</time>
      </trkpt>
      <trkpt lat="42.4953470" lon="2.7302980">
        <ele>141.0</ele>
        <time>2020-07-20T12:36:36Z</time>
      </trkpt>
      <trkpt lat="42.4953630" lon="2.7300980">
        <ele>141.2</ele>
        <time>2020-07-20T12:36:38Z</time>
      </trkpt>
      <trkpt lat="42.4953670" lon="2.7299970">
        <ele>141.2</ele>
        <time>2020-07-20T12:36:39Z</time>
      </trkpt>
      <trkpt lat="42.4953610" lon="2.7296940">
        <ele>141.4</ele>
        <time>2020-07-20T12:36:42Z</time>
      </trkpt>
      <trkpt lat="42.4953040" lon="2.7291000">
        <ele>141.6</ele>
        <time>2020-07-20T12:36:48Z</time>
      </trkpt>
      <trkpt lat="42.4952820" lon="2.7289070">
        <ele>141.8</ele>
        <time>2020-07-20T12:36:50Z</time>
      </trkpt>
      <trkpt lat="42.4952150" lon="2.7283460">
        <ele>142.2</ele>
        <time>2020-07-20T12:36:56Z</time>
      </trkpt>
      <trkpt lat="42.4951690" lon="2.7279740">
        <ele>142.6</ele>
        <time>2020-07-20T12:37:00Z</time>
      </trkpt>
      <trkpt lat="42.4951580" lon="2.7278810">
        <ele>142.8</ele>
        <time>2020-07-20T12:37:01Z</time>
      </trkpt>
      <trkpt lat="42.4951110" lon="2.7273200">
        <ele>143.4</ele>
        <time>2020-07-20T12:37:07Z</time>
      </trkpt>
      <trkpt lat="42.4951010" lon="2.7270410">
        <ele>143.4</ele>
        <time>2020-07-20T12:37:10Z</time>
      </trkpt>
      <trkpt lat="42.4950850" lon="2.7268600">
        <ele>143.8</ele>
        <time>2020-07-20T12:37:12Z</time>
      </trkpt>
      <trkpt lat="42.4950340" lon="2.7265960">
        <ele>143.8</ele>
        <time>2020-07-20T12:37:15Z</time>
      </trkpt>
      <trkpt lat="42.4948820" lon="2.7262130">
        <ele>144.6</ele>
        <time>2020-07-20T12:37:20Z</time>
      </trkpt>
      <trkpt lat="42.4948490" lon="2.7261470">
        <ele>144.8</ele>
        <time>2020-07-20T12:37:21Z</time>
      </trkpt>
      <trkpt lat="42.4946510" lon="2.7257950">
        <ele>145.2</ele>
        <time>2020-07-20T12:37:27Z</time>
      </trkpt>
      <trkpt lat="42.4945370" lon="2.7254900">
        <ele>145.4</ele>
        <time>2020-07-20T12:37:32Z</time>
      </trkpt>
      <trkpt lat="42.4945290" lon="2.7254270">
        <ele>145.4</ele>
        <time>2020-07-20T12:37:33Z</time>
      </trkpt>
      <trkpt lat="42.4945280" lon="2.7253640">
        <ele>145.4</ele>
        <time>2020-07-20T12:37:34Z</time>
      </trkpt>
      <trkpt lat="42.4945130" lon="2.7252320">
        <ele>145.4</ele>
        <time>2020-07-20T12:37:36Z</time>
      </trkpt>
      <trkpt lat="42.4944890" lon="2.7251690">
        <ele>145.4</ele>
        <time>2020-07-20T12:37:37Z</time>
      </trkpt>
      <trkpt lat="42.4944520" lon="2.7251070">
        <ele>145.6</ele>
        <time>2020-07-20T12:37:38Z</time>
      </trkpt>
      <trkpt lat="42.4943830" lon="2.7249700">
        <ele>145.6</ele>
        <time>2020-07-20T12:37:40Z</time>
      </trkpt>
      <trkpt lat="42.4943640" lon="2.7248870">
        <ele>145.6</ele>
        <time>2020-07-20T12:37:41Z</time>
      </trkpt>
      <trkpt lat="42.4943550" lon="2.7248000">
        <ele>145.4</ele>
        <time>2020-07-20T12:37:42Z</time>
      </trkpt>
      <trkpt lat="42.4943410" lon="2.7244450">
        <ele>144.8</ele>
        <time>2020-07-20T12:37:46Z</time>
      </trkpt>
      <trkpt lat="42.4943040" lon="2.7240070">
        <ele>144.8</ele>
        <time>2020-07-20T12:37:51Z</time>
      </trkpt>
      <trkpt lat="42.4942680" lon="2.7238370">
        <ele>145.2</ele>
        <time>2020-07-20T12:37:53Z</time>
      </trkpt>
      <trkpt lat="42.4941210" lon="2.7233380">
        <ele>145.6</ele>
        <time>2020-07-20T12:37:59Z</time>
      </trkpt>
      <trkpt lat="42.4940960" lon="2.7232550">
        <ele>145.6</ele>
        <time>2020-07-20T12:38:00Z</time>
      </trkpt>
      <trkpt lat="42.4939970" lon="2.7228170">
        <ele>144.8</ele>
        <time>2020-07-20T12:38:05Z</time>
      </trkpt>
      <trkpt lat="42.4939830" lon="2.7226240">
        <ele>144.6</ele>
        <time>2020-07-20T12:38:07Z</time>
      </trkpt>
      <trkpt lat="42.4939980" lon="2.7224350">
        <ele>144.2</ele>
        <time>2020-07-20T12:38:09Z</time>
      </trkpt>
      <trkpt lat="42.4940180" lon="2.7222530">
        <ele>143.6</ele>
        <time>2020-07-20T12:38:11Z</time>
      </trkpt>
      <trkpt lat="42.4940270" lon="2.7219800">
        <ele>143.2</ele>
        <time>2020-07-20T12:38:14Z</time>
      </trkpt>
      <trkpt lat="42.4940060" lon="2.7217110">
        <ele>143.0</ele>
        <time>2020-07-20T12:38:17Z</time>
      </trkpt>
      <trkpt lat="42.4939330" lon="2.7211850">
        <ele>143.2</ele>
        <time>2020-07-20T12:38:23Z</time>
      </trkpt>
      <trkpt lat="42.4939290" lon="2.7210970">
        <ele>143.4</ele>
        <time>2020-07-20T12:38:24Z</time>
      </trkpt>
      <trkpt lat="42.4939520" lon="2.7205800">
        <ele>144.4</ele>
        <time>2020-07-20T12:38:30Z</time>
      </trkpt>
      <trkpt lat="42.4939700" lon="2.7204210">
        <ele>144.8</ele>
        <time>2020-07-20T12:38:32Z</time>
      </trkpt>
      <trkpt lat="42.4940210" lon="2.7201200">
        <ele>146.0</ele>
        <time>2020-07-20T12:38:36Z</time>
      </trkpt>
      <trkpt lat="42.4940720" lon="2.7198990">
        <ele>146.8</ele>
        <time>2020-07-20T12:38:39Z</time>
      </trkpt>
      <trkpt lat="42.4940890" lon="2.7198260">
        <ele>147.0</ele>
        <time>2020-07-20T12:38:40Z</time>
      </trkpt>
      <trkpt lat="42.4941690" lon="2.7195320">
        <ele>147.6</ele>
        <time>2020-07-20T12:38:44Z</time>
      </trkpt>
      <trkpt lat="42.4942100" lon="2.7193800">
        <ele>147.6</ele>
        <time>2020-07-20T12:38:46Z</time>
      </trkpt>
      <trkpt lat="42.4943060" lon="2.7190690">
        <ele>147.4</ele>
        <time>2020-07-20T12:38:50Z</time>
      </trkpt>
      <trkpt lat="42.4943560" lon="2.7189180">
        <ele>147.4</ele>
        <time>2020-07-20T12:38:52Z</time>
      </trkpt>
      <trkpt lat="42.4945000" lon="2.7184670">
        <ele>147.4</ele>
        <time>2020-07-20T12:38:58Z</time>
      </trkpt>
      <trkpt lat="42.4945490" lon="2.7182280">
        <ele>148.0</ele>
        <time>2020-07-20T12:39:01Z</time>
      </trkpt>
      <trkpt lat="42.4945580" lon="2.7178960">
        <ele>148.4</ele>
        <time>2020-07-20T12:39:05Z</time>
      </trkpt>
      <trkpt lat="42.4945400" lon="2.7178110">
        <ele>148.4</ele>
        <time>2020-07-20T12:39:06Z</time>
      </trkpt>
      <trkpt lat="42.4944710" lon="2.7176500">
        <ele>148.4</ele>
        <time>2020-07-20T12:39:08Z</time>
      </trkpt>
      <trkpt lat="42.4943830" lon="2.7174990">
        <ele>148.6</ele>
        <time>2020-07-20T12:39:10Z</time>
      </trkpt>
      <trkpt lat="42.4943450" lon="2.7174200">
        <ele>148.6</ele>
        <time>2020-07-20T12:39:11Z</time>
      </trkpt>
      <trkpt lat="42.4943220" lon="2.7172410">
        <ele>148.6</ele>
        <time>2020-07-20T12:39:13Z</time>
      </trkpt>
      <trkpt lat="42.4943560" lon="2.7170640">
        <ele>148.4</ele>
        <time>2020-07-20T12:39:15Z</time>
      </trkpt>
      <trkpt lat="42.4944040" lon="2.7169100">
        <ele>147.8</ele>
        <time>2020-07-20T12:39:17Z</time>
      </trkpt>
      <trkpt lat="42.4945390" lon="2.7165110">
        <ele>147.8</ele>
        <time>2020-07-20T12:39:23Z</time>
      </trkpt>
      <trkpt lat="42.4946070" lon="2.7161660">
        <ele>149.2</ele>
        <time>2020-07-20T12:39:28Z</time>
      </trkpt>
      <trkpt lat="42.4946190" lon="2.7161030">
        <ele>149.4</ele>
        <time>2020-07-20T12:39:29Z</time>
      </trkpt>
      <trkpt lat="42.4947250" lon="2.7157210">
        <ele>150.4</ele>
        <time>2020-07-20T12:39:35Z</time>
      </trkpt>
      <trkpt lat="42.4947790" lon="2.7155270">
        <ele>151.4</ele>
        <time>2020-07-20T12:39:38Z</time>
      </trkpt>
      <trkpt lat="42.4947910" lon="2.7154600">
        <ele>151.6</ele>
        <time>2020-07-20T12:39:39Z</time>
      </trkpt>
      <trkpt lat="42.4948700" lon="2.7150700">
        <ele>152.6</ele>
        <time>2020-07-20T12:39:45Z</time>
      </trkpt>
      <trkpt lat="42.4948870" lon="2.7150070">
        <ele>152.8</ele>
        <time>2020-07-20T12:39:46Z</time>
      </trkpt>
      <trkpt lat="42.4949900" lon="2.7146330">
        <ele>153.6</ele>
        <time>2020-07-20T12:39:52Z</time>
      </trkpt>
      <trkpt lat="42.4950050" lon="2.7145680">
        <ele>153.6</ele>
        <time>2020-07-20T12:39:53Z</time>
      </trkpt>
      <trkpt lat="42.4950250" lon="2.7145060">
        <ele>153.8</ele>
        <time>2020-07-20T12:39:54Z</time>
      </trkpt>
      <trkpt lat="42.4950860" lon="2.7142300">
        <ele>153.8</ele>
        <time>2020-07-20T12:39:58Z</time>
      </trkpt>
      <trkpt lat="42.4950920" lon="2.7141520">
        <ele>153.8</ele>
        <time>2020-07-20T12:39:59Z</time>
      </trkpt>
      <trkpt lat="42.4950760" lon="2.7139150">
        <ele>153.2</ele>
        <time>2020-07-20T12:40:02Z</time>
      </trkpt>
      <trkpt lat="42.4950520" lon="2.7137630">
        <ele>153.4</ele>
        <time>2020-07-20T12:40:04Z</time>
      </trkpt>
      <trkpt lat="42.4949840" lon="2.7132780">
        <ele>153.2</ele>
        <time>2020-07-20T12:40:10Z</time>
      </trkpt>
      <trkpt lat="42.4949730" lon="2.7132010">
        <ele>153.2</ele>
        <time>2020-07-20T12:40:11Z</time>
      </trkpt>
      <trkpt lat="42.4949090" lon="2.7127140">
        <ele>153.2</ele>
        <time>2020-07-20T12:40:17Z</time>
      </trkpt>
      <trkpt lat="42.4948890" lon="2.7125510">
        <ele>153.6</ele>
        <time>2020-07-20T12:40:19Z</time>
      </trkpt>
      <trkpt lat="42.4948620" lon="2.7122190">
        <ele>153.8</ele>
        <time>2020-07-20T12:40:23Z</time>
      </trkpt>
      <trkpt lat="42.4948610" lon="2.7121390">
        <ele>153.8</ele>
        <time>2020-07-20T12:40:24Z</time>
      </trkpt>
      <trkpt lat="42.4948610" lon="2.7120590">
        <ele>153.8</ele>
        <time>2020-07-20T12:40:25Z</time>
      </trkpt>
      <trkpt lat="42.4948630" lon="2.7119790">
        <ele>153.8</ele>
        <time>2020-07-20T12:40:26Z</time>
      </trkpt>
      <trkpt lat="42.4948660" lon="2.7119000">
        <ele>154.0</ele>
        <time>2020-07-20T12:40:27Z</time>
      </trkpt>
      <trkpt lat="42.4948960" lon="2.7116660">
        <ele>155.0</ele>
        <time>2020-07-20T12:40:30Z</time>
      </trkpt>
      <trkpt lat="42.4949080" lon="2.7115890">
        <ele>155.4</ele>
        <time>2020-07-20T12:40:31Z</time>
      </trkpt>
      <trkpt lat="42.4949360" lon="2.7114360">
        <ele>155.6</ele>
        <time>2020-07-20T12:40:33Z</time>
      </trkpt>
      <trkpt lat="42.4949520" lon="2.7113610">
        <ele>155.4</ele>
        <time>2020-07-20T12:40:34Z</time>
      </trkpt>
      <trkpt lat="42.4950820" lon="2.7109200">
        <ele>155.8</ele>
        <time>2020-07-20T12:40:40Z</time>
      </trkpt>
      <trkpt lat="42.4951340" lon="2.7107730">
        <ele>156.0</ele>
        <time>2020-07-20T12:40:42Z</time>
      </trkpt>
      <trkpt lat="42.4952940" lon="2.7103210">
        <ele>155.2</ele>
        <time>2020-07-20T12:40:48Z</time>
      </trkpt>
      <trkpt lat="42.4953210" lon="2.7102400">
        <ele>155.0</ele>
        <time>2020-07-20T12:40:49Z</time>
      </trkpt>
      <trkpt lat="42.4953480" lon="2.7101580">
        <ele>155.0</ele>
        <time>2020-07-20T12:40:50Z</time>
      </trkpt>
      <trkpt lat="42.4954850" lon="2.7097400">
        <ele>155.0</ele>
        <time>2020-07-20T12:40:55Z</time>
      </trkpt>
      <trkpt lat="42.4955160" lon="2.7096620">
        <ele>155.4</ele>
        <time>2020-07-20T12:40:56Z</time>
      </trkpt>
      <trkpt lat="42.4955630" lon="2.7094980">
        <ele>156.0</ele>
        <time>2020-07-20T12:40:58Z</time>
      </trkpt>
      <trkpt lat="42.4955840" lon="2.7094160">
        <ele>156.0</ele>
        <time>2020-07-20T12:40:59Z</time>
      </trkpt>
      <trkpt lat="42.4957170" lon="2.7089330">
        <ele>156.8</ele>
        <time>2020-07-20T12:41:05Z</time>
      </trkpt>
      <trkpt lat="42.4957430" lon="2.7088530">
        <ele>157.0</ele>
        <time>2020-07-20T12:41:06Z</time>
      </trkpt>
      <trkpt lat="42.4957740" lon="2.7087770">
        <ele>157.2</ele>
        <time>2020-07-20T12:41:07Z</time>
      </trkpt>
      <trkpt lat="42.4959390" lon="2.7083530">
        <ele>157.8</ele>
        <time>2020-07-20T12:41:13Z</time>
      </trkpt>
      <trkpt lat="42.4960020" lon="2.7081600">
        <ele>158.6</ele>
        <time>2020-07-20T12:41:16Z</time>
      </trkpt>
      <trkpt lat="42.4960320" lon="2.7080320">
        <ele>159.6</ele>
        <time>2020-07-20T12:41:18Z</time>
      </trkpt>
      <trkpt lat="42.4960680" lon="2.7079050">
        <ele>160.4</ele>
        <time>2020-07-20T12:41:20Z</time>
      </trkpt>
      <trkpt lat="42.4960800" lon="2.7078380">
        <ele>160.4</ele>
        <time>2020-07-20T12:41:21Z</time>
      </trkpt>
      <trkpt lat="42.4960980" lon="2.7077740">
        <ele>160.4</ele>
        <time>2020-07-20T12:41:22Z</time>
      </trkpt>
      <trkpt lat="42.4961200" lon="2.7077130">
        <ele>160.6</ele>
        <time>2020-07-20T12:41:23Z</time>
      </trkpt>
      <trkpt lat="42.4961440" lon="2.7076510">
        <ele>160.8</ele>
        <time>2020-07-20T12:41:24Z</time>
      </trkpt>
      <trkpt lat="42.4961810" lon="2.7075250">
        <ele>161.2</ele>
        <time>2020-07-20T12:41:26Z</time>
      </trkpt>
      <trkpt lat="42.4962100" lon="2.7073970">
        <ele>161.8</ele>
        <time>2020-07-20T12:41:28Z</time>
      </trkpt>
      <trkpt lat="42.4962240" lon="2.7072060">
        <ele>162.2</ele>
        <time>2020-07-20T12:41:31Z</time>
      </trkpt>
      <trkpt lat="42.4962200" lon="2.7070760">
        <ele>162.6</ele>
        <time>2020-07-20T12:41:33Z</time>
      </trkpt>
      <trkpt lat="42.4962140" lon="2.7070100">
        <ele>163.0</ele>
        <time>2020-07-20T12:41:34Z</time>
      </trkpt>
      <trkpt lat="42.4961220" lon="2.7065990">
        <ele>164.2</ele>
        <time>2020-07-20T12:41:40Z</time>
      </trkpt>
      <trkpt lat="42.4959360" lon="2.7061840">
        <ele>164.2</ele>
        <time>2020-07-20T12:41:46Z</time>
      </trkpt>
      <trkpt lat="42.4958990" lon="2.7061180">
        <ele>164.0</ele>
        <time>2020-07-20T12:41:47Z</time>
      </trkpt>
      <trkpt lat="42.4957760" lon="2.7059310">
        <ele>163.8</ele>
        <time>2020-07-20T12:41:50Z</time>
      </trkpt>
      <trkpt lat="42.4956810" lon="2.7058190">
        <ele>163.4</ele>
        <time>2020-07-20T12:41:52Z</time>
      </trkpt>
      <trkpt lat="42.4956310" lon="2.7057660">
        <ele>163.2</ele>
        <time>2020-07-20T12:41:53Z</time>
      </trkpt>
      <trkpt lat="42.4955810" lon="2.7057150">
        <ele>163.0</ele>
        <time>2020-07-20T12:41:54Z</time>
      </trkpt>
      <trkpt lat="42.4952540" lon="2.7054460">
        <ele>162.2</ele>
        <time>2020-07-20T12:42:00Z</time>
      </trkpt>
      <trkpt lat="42.4950110" lon="2.7053190">
        <ele>162.0</ele>
        <time>2020-07-20T12:42:04Z</time>
      </trkpt>
      <trkpt lat="42.4947530" lon="2.7052150">
        <ele>160.8</ele>
        <time>2020-07-20T12:42:08Z</time>
      </trkpt>
      <trkpt lat="42.4943390" lon="2.7051080">
        <ele>160.2</ele>
        <time>2020-07-20T12:42:14Z</time>
      </trkpt>
      <trkpt lat="42.4942690" lon="2.7051110">
        <ele>160.0</ele>
        <time>2020-07-20T12:42:15Z</time>
      </trkpt>
      <trkpt lat="42.4939980" lon="2.7051590">
        <ele>159.8</ele>
        <time>2020-07-20T12:42:19Z</time>
      </trkpt>
      <trkpt lat="42.4938690" lon="2.7051910">
        <ele>160.0</ele>
        <time>2020-07-20T12:42:21Z</time>
      </trkpt>
      <trkpt lat="42.4934970" lon="2.7052870">
        <ele>160.0</ele>
        <time>2020-07-20T12:42:27Z</time>
      </trkpt>
      <trkpt lat="42.4933770" lon="2.7053180">
        <ele>159.8</ele>
        <time>2020-07-20T12:42:29Z</time>
      </trkpt>
      <trkpt lat="42.4931330" lon="2.7053640">
        <ele>161.0</ele>
        <time>2020-07-20T12:42:33Z</time>
      </trkpt>
      <trkpt lat="42.4929100" lon="2.7054210">
        <ele>161.4</ele>
        <time>2020-07-20T12:42:37Z</time>
      </trkpt>
      <trkpt lat="42.4927530" lon="2.7054630">
        <ele>162.0</ele>
        <time>2020-07-20T12:42:40Z</time>
      </trkpt>
      <trkpt lat="42.4924890" lon="2.7055060">
        <ele>162.6</ele>
        <time>2020-07-20T12:42:45Z</time>
      </trkpt>
      <trkpt lat="42.4924310" lon="2.7055090">
        <ele>162.4</ele>
        <time>2020-07-20T12:42:46Z</time>
      </trkpt>
      <trkpt lat="42.4923700" lon="2.7055040">
        <ele>162.6</ele>
        <time>2020-07-20T12:42:47Z</time>
      </trkpt>
      <trkpt lat="42.4923120" lon="2.7054850">
        <ele>162.4</ele>
        <time>2020-07-20T12:42:48Z</time>
      </trkpt>
      <trkpt lat="42.4922530" lon="2.7054570">
        <ele>162.4</ele>
        <time>2020-07-20T12:42:49Z</time>
      </trkpt>
      <trkpt lat="42.4921940" lon="2.7054260">
        <ele>162.6</ele>
        <time>2020-07-20T12:42:50Z</time>
      </trkpt>
      <trkpt lat="42.4919230" lon="2.7052470">
        <ele>163.2</ele>
        <time>2020-07-20T12:42:55Z</time>
      </trkpt>
      <trkpt lat="42.4918240" lon="2.7051580">
        <ele>163.6</ele>
        <time>2020-07-20T12:42:57Z</time>
      </trkpt>
      <trkpt lat="42.4917390" lon="2.7050420">
        <ele>163.8</ele>
        <time>2020-07-20T12:42:59Z</time>
      </trkpt>
      <trkpt lat="42.4917010" lon="2.7049800">
        <ele>163.8</ele>
        <time>2020-07-20T12:43:00Z</time>
      </trkpt>
      <trkpt lat="42.4916640" lon="2.7049160">
        <ele>164.0</ele>
        <time>2020-07-20T12:43:01Z</time>
      </trkpt>
      <trkpt lat="42.4916270" lon="2.7048530">
        <ele>164.0</ele>
        <time>2020-07-20T12:43:02Z</time>
      </trkpt>
      <trkpt lat="42.4915500" lon="2.7047390">
        <ele>164.0</ele>
        <time>2020-07-20T12:43:04Z</time>
      </trkpt>
      <trkpt lat="42.4915090" lon="2.7046920">
        <ele>164.2</ele>
        <time>2020-07-20T12:43:05Z</time>
      </trkpt>
      <trkpt lat="42.4914660" lon="2.7046500">
        <ele>164.4</ele>
        <time>2020-07-20T12:43:06Z</time>
      </trkpt>
      <trkpt lat="42.4914210" lon="2.7046120">
        <ele>164.6</ele>
        <time>2020-07-20T12:43:07Z</time>
      </trkpt>
      <trkpt lat="42.4912790" lon="2.7045010">
        <ele>165.2</ele>
        <time>2020-07-20T12:43:10Z</time>
      </trkpt>
      <trkpt lat="42.4910600" lon="2.7042960">
        <ele>165.8</ele>
        <time>2020-07-20T12:43:15Z</time>
      </trkpt>
      <trkpt lat="42.4909110" lon="2.7041190">
        <ele>166.2</ele>
        <time>2020-07-20T12:43:19Z</time>
      </trkpt>
      <trkpt lat="42.4908710" lon="2.7040770">
        <ele>166.6</ele>
        <time>2020-07-20T12:43:20Z</time>
      </trkpt>
      <trkpt lat="42.4907870" lon="2.7039990">
        <ele>167.0</ele>
        <time>2020-07-20T12:43:22Z</time>
      </trkpt>
      <trkpt lat="42.4907450" lon="2.7039600">
        <ele>167.2</ele>
        <time>2020-07-20T12:43:23Z</time>
      </trkpt>
      <trkpt lat="42.4907040" lon="2.7039190">
        <ele>167.2</ele>
        <time>2020-07-20T12:43:24Z</time>
      </trkpt>
      <trkpt lat="42.4905230" lon="2.7037570">
        <ele>167.4</ele>
        <time>2020-07-20T12:43:28Z</time>
      </trkpt>
      <trkpt lat="42.4903640" lon="2.7036100">
        <ele>167.4</ele>
        <time>2020-07-20T12:43:31Z</time>
      </trkpt>
      <trkpt lat="42.4900670" lon="2.7033290">
        <ele>166.0</ele>
        <time>2020-07-20T12:43:36Z</time>
      </trkpt>
      <trkpt lat="42.4899420" lon="2.7032060">
        <ele>165.4</ele>
        <time>2020-07-20T12:43:38Z</time>
      </trkpt>
      <trkpt lat="42.4898160" lon="2.7030730">
        <ele>164.8</ele>
        <time>2020-07-20T12:43:40Z</time>
      </trkpt>
      <trkpt lat="42.4896890" lon="2.7029360">
        <ele>164.2</ele>
        <time>2020-07-20T12:43:42Z</time>
      </trkpt>
      <trkpt lat="42.4895000" lon="2.7027200">
        <ele>163.8</ele>
        <time>2020-07-20T12:43:45Z</time>
      </trkpt>
      <trkpt lat="42.4894360" lon="2.7026500">
        <ele>163.6</ele>
        <time>2020-07-20T12:43:46Z</time>
      </trkpt>
      <trkpt lat="42.4893720" lon="2.7025780">
        <ele>163.6</ele>
        <time>2020-07-20T12:43:47Z</time>
      </trkpt>
      <trkpt lat="42.4890460" lon="2.7022190">
        <ele>162.4</ele>
        <time>2020-07-20T12:43:52Z</time>
      </trkpt>
      <trkpt lat="42.4888560" lon="2.7020000">
        <ele>161.6</ele>
        <time>2020-07-20T12:43:55Z</time>
      </trkpt>
      <trkpt lat="42.4887930" lon="2.7019310">
        <ele>161.4</ele>
        <time>2020-07-20T12:43:56Z</time>
      </trkpt>
      <trkpt lat="42.4884380" lon="2.7015340">
        <ele>160.8</ele>
        <time>2020-07-20T12:44:02Z</time>
      </trkpt>
      <trkpt lat="42.4883820" lon="2.7014700">
        <ele>160.8</ele>
        <time>2020-07-20T12:44:03Z</time>
      </trkpt>
      <trkpt lat="42.4881130" lon="2.7011690">
        <ele>161.0</ele>
        <time>2020-07-20T12:44:08Z</time>
      </trkpt>
      <trkpt lat="42.4880070" lon="2.7010530">
        <ele>161.2</ele>
        <time>2020-07-20T12:44:10Z</time>
      </trkpt>
      <trkpt lat="42.4879550" lon="2.7009950">
        <ele>161.4</ele>
        <time>2020-07-20T12:44:11Z</time>
      </trkpt>
      <trkpt lat="42.4876440" lon="2.7006700">
        <ele>162.0</ele>
        <time>2020-07-20T12:44:17Z</time>
      </trkpt>
      <trkpt lat="42.4875440" lon="2.7005650">
        <ele>162.2</ele>
        <time>2020-07-20T12:44:19Z</time>
      </trkpt>
      <trkpt lat="42.4874920" lon="2.7005140">
        <ele>162.2</ele>
        <time>2020-07-20T12:44:20Z</time>
      </trkpt>
      <trkpt lat="42.4871840" lon="2.7001890">
        <ele>162.2</ele>
        <time>2020-07-20T12:44:26Z</time>
      </trkpt>
      <trkpt lat="42.4871340" lon="2.7001320">
        <ele>162.4</ele>
        <time>2020-07-20T12:44:27Z</time>
      </trkpt>
      <trkpt lat="42.4870840" lon="2.7000750">
        <ele>162.4</ele>
        <time>2020-07-20T12:44:28Z</time>
      </trkpt>
      <trkpt lat="42.4868750" lon="2.6998590">
        <ele>162.8</ele>
        <time>2020-07-20T12:44:32Z</time>
      </trkpt>
      <trkpt lat="42.4866580" lon="2.6996650">
        <ele>163.2</ele>
        <time>2020-07-20T12:44:36Z</time>
      </trkpt>
      <trkpt lat="42.4863000" lon="2.6993830">
        <ele>163.0</ele>
        <time>2020-07-20T12:44:42Z</time>
      </trkpt>
      <trkpt lat="42.4861770" lon="2.6992860">
        <ele>162.6</ele>
        <time>2020-07-20T12:44:44Z</time>
      </trkpt>
      <trkpt lat="42.4860040" lon="2.6991140">
        <ele>162.6</ele>
        <time>2020-07-20T12:44:47Z</time>
      </trkpt>
      <trkpt lat="42.4858510" lon="2.6989240">
        <ele>163.2</ele>
        <time>2020-07-20T12:44:50Z</time>
      </trkpt>
      <trkpt lat="42.4855670" lon="2.6985490">
        <ele>163.4</ele>
        <time>2020-07-20T12:44:56Z</time>
      </trkpt>
      <trkpt lat="42.4855180" lon="2.6984910">
        <ele>163.4</ele>
        <time>2020-07-20T12:44:57Z</time>
      </trkpt>
      <trkpt lat="42.4854700" lon="2.6984340">
        <ele>163.4</ele>
        <time>2020-07-20T12:44:58Z</time>
      </trkpt>
      <trkpt lat="42.4854220" lon="2.6983770">
        <ele>163.4</ele>
        <time>2020-07-20T12:44:59Z</time>
      </trkpt>
      <trkpt lat="42.4853760" lon="2.6983190">
        <ele>163.4</ele>
        <time>2020-07-20T12:45:00Z</time>
      </trkpt>
      <trkpt lat="42.4852870" lon="2.6981980">
        <ele>164.0</ele>
        <time>2020-07-20T12:45:02Z</time>
      </trkpt>
      <trkpt lat="42.4851940" lon="2.6980770">
        <ele>164.6</ele>
        <time>2020-07-20T12:45:04Z</time>
      </trkpt>
      <trkpt lat="42.4849650" lon="2.6977700">
        <ele>165.2</ele>
        <time>2020-07-20T12:45:09Z</time>
      </trkpt>
      <trkpt lat="42.4846990" lon="2.6973670">
        <ele>165.4</ele>
        <time>2020-07-20T12:45:15Z</time>
      </trkpt>
      <trkpt lat="42.4845250" lon="2.6970800">
        <ele>165.2</ele>
        <time>2020-07-20T12:45:19Z</time>
      </trkpt>
      <trkpt lat="42.4844410" lon="2.6969280">
        <ele>165.4</ele>
        <time>2020-07-20T12:45:21Z</time>
      </trkpt>
      <trkpt lat="42.4843530" lon="2.6966700">
        <ele>165.8</ele>
        <time>2020-07-20T12:45:24Z</time>
      </trkpt>
      <trkpt lat="42.4843110" lon="2.6963090">
        <ele>166.6</ele>
        <time>2020-07-20T12:45:28Z</time>
      </trkpt>
      <trkpt lat="42.4843060" lon="2.6962240">
        <ele>166.8</ele>
        <time>2020-07-20T12:45:29Z</time>
      </trkpt>
      <trkpt lat="42.4842980" lon="2.6960660">
        <ele>167.2</ele>
        <time>2020-07-20T12:45:31Z</time>
      </trkpt>
      <trkpt lat="42.4842950" lon="2.6959100">
        <ele>167.8</ele>
        <time>2020-07-20T12:45:33Z</time>
      </trkpt>
      <trkpt lat="42.4842990" lon="2.6958350">
        <ele>168.2</ele>
        <time>2020-07-20T12:45:34Z</time>
      </trkpt>
      <trkpt lat="42.4842720" lon="2.6953380">
        <ele>168.8</ele>
        <time>2020-07-20T12:45:40Z</time>
      </trkpt>
      <trkpt lat="42.4842670" lon="2.6952520">
        <ele>168.8</ele>
        <time>2020-07-20T12:45:41Z</time>
      </trkpt>
      <trkpt lat="42.4842650" lon="2.6951670">
        <ele>169.0</ele>
        <time>2020-07-20T12:45:42Z</time>
      </trkpt>
      <trkpt lat="42.4842310" lon="2.6946330">
        <ele>169.4</ele>
        <time>2020-07-20T12:45:48Z</time>
      </trkpt>
      <trkpt lat="42.4842260" lon="2.6945460">
        <ele>169.4</ele>
        <time>2020-07-20T12:45:49Z</time>
      </trkpt>
      <trkpt lat="42.4841930" lon="2.6940090">
        <ele>170.0</ele>
        <time>2020-07-20T12:45:55Z</time>
      </trkpt>
      <trkpt lat="42.4841900" lon="2.6938330">
        <ele>170.0</ele>
        <time>2020-07-20T12:45:57Z</time>
      </trkpt>
      <trkpt lat="42.4841870" lon="2.6937440">
        <ele>170.0</ele>
        <time>2020-07-20T12:45:58Z</time>
      </trkpt>
      <trkpt lat="42.4841700" lon="2.6933850">
        <ele>170.4</ele>
        <time>2020-07-20T12:46:02Z</time>
      </trkpt>
      <trkpt lat="42.4841420" lon="2.6929300">
        <ele>170.6</ele>
        <time>2020-07-20T12:46:07Z</time>
      </trkpt>
      <trkpt lat="42.4840980" lon="2.6924740">
        <ele>171.0</ele>
        <time>2020-07-20T12:46:12Z</time>
      </trkpt>
      <trkpt lat="42.4840600" lon="2.6922000">
        <ele>171.0</ele>
        <time>2020-07-20T12:46:15Z</time>
      </trkpt>
      <trkpt lat="42.4840470" lon="2.6921090">
        <ele>171.0</ele>
        <time>2020-07-20T12:46:16Z</time>
      </trkpt>
      <trkpt lat="42.4839610" lon="2.6915640">
        <ele>172.0</ele>
        <time>2020-07-20T12:46:22Z</time>
      </trkpt>
      <trkpt lat="42.4839470" lon="2.6914720">
        <ele>172.2</ele>
        <time>2020-07-20T12:46:23Z</time>
      </trkpt>
      <trkpt lat="42.4839160" lon="2.6912890">
        <ele>172.2</ele>
        <time>2020-07-20T12:46:25Z</time>
      </trkpt>
      <trkpt lat="42.4838280" lon="2.6907410">
        <ele>173.0</ele>
        <time>2020-07-20T12:46:31Z</time>
      </trkpt>
      <trkpt lat="42.4837990" lon="2.6905700">
        <ele>173.2</ele>
        <time>2020-07-20T12:46:33Z</time>
      </trkpt>
      <trkpt lat="42.4837200" lon="2.6900590">
        <ele>173.4</ele>
        <time>2020-07-20T12:46:39Z</time>
      </trkpt>
      <trkpt lat="42.4836890" lon="2.6898930">
        <ele>173.8</ele>
        <time>2020-07-20T12:46:41Z</time>
      </trkpt>
      <trkpt lat="42.4836000" lon="2.6894140">
        <ele>174.4</ele>
        <time>2020-07-20T12:46:47Z</time>
      </trkpt>
      <trkpt lat="42.4835880" lon="2.6893340">
        <ele>174.4</ele>
        <time>2020-07-20T12:46:48Z</time>
      </trkpt>
      <trkpt lat="42.4835770" lon="2.6892550">
        <ele>174.6</ele>
        <time>2020-07-20T12:46:49Z</time>
      </trkpt>
      <trkpt lat="42.4835530" lon="2.6891070">
        <ele>175.4</ele>
        <time>2020-07-20T12:46:51Z</time>
      </trkpt>
      <trkpt lat="42.4835260" lon="2.6887490">
        <ele>176.4</ele>
        <time>2020-07-20T12:46:56Z</time>
      </trkpt>
      <trkpt lat="42.4835080" lon="2.6886760">
        <ele>176.6</ele>
        <time>2020-07-20T12:46:57Z</time>
      </trkpt>
      <trkpt lat="42.4834030" lon="2.6883820">
        <ele>177.4</ele>
        <time>2020-07-20T12:47:01Z</time>
      </trkpt>
      <trkpt lat="42.4833690" lon="2.6883090">
        <ele>177.6</ele>
        <time>2020-07-20T12:47:02Z</time>
      </trkpt>
      <trkpt lat="42.4832530" lon="2.6881130">
        <ele>178.0</ele>
        <time>2020-07-20T12:47:05Z</time>
      </trkpt>
      <trkpt lat="42.4832130" lon="2.6880510">
        <ele>178.0</ele>
        <time>2020-07-20T12:47:06Z</time>
      </trkpt>
      <trkpt lat="42.4830120" lon="2.6877540">
        <ele>178.6</ele>
        <time>2020-07-20T12:47:11Z</time>
      </trkpt>
      <trkpt lat="42.4828510" lon="2.6875310">
        <ele>179.0</ele>
        <time>2020-07-20T12:47:15Z</time>
      </trkpt>
      <trkpt lat="42.4828140" lon="2.6874760">
        <ele>179.0</ele>
        <time>2020-07-20T12:47:16Z</time>
      </trkpt>
      <trkpt lat="42.4826120" lon="2.6871370">
        <ele>179.4</ele>
        <time>2020-07-20T12:47:22Z</time>
      </trkpt>
      <trkpt lat="42.4825890" lon="2.6870690">
        <ele>179.4</ele>
        <time>2020-07-20T12:47:23Z</time>
      </trkpt>
      <trkpt lat="42.4824830" lon="2.6866000">
        <ele>179.6</ele>
        <time>2020-07-20T12:47:29Z</time>
      </trkpt>
      <trkpt lat="42.4823580" lon="2.6861170">
        <ele>180.0</ele>
        <time>2020-07-20T12:47:35Z</time>
      </trkpt>
      <trkpt lat="42.4823360" lon="2.6860390">
        <ele>180.2</ele>
        <time>2020-07-20T12:47:36Z</time>
      </trkpt>
      <trkpt lat="42.4822540" lon="2.6857300">
        <ele>180.8</ele>
        <time>2020-07-20T12:47:40Z</time>
      </trkpt>
      <trkpt lat="42.4822150" lon="2.6855830">
        <ele>181.2</ele>
        <time>2020-07-20T12:47:42Z</time>
      </trkpt>
      <trkpt lat="42.4821350" lon="2.6853010">
        <ele>181.6</ele>
        <time>2020-07-20T12:47:46Z</time>
      </trkpt>
      <trkpt lat="42.4821170" lon="2.6852330">
        <ele>181.8</ele>
        <time>2020-07-20T12:47:47Z</time>
      </trkpt>
      <trkpt lat="42.4820630" lon="2.6850320">
        <ele>182.8</ele>
        <time>2020-07-20T12:47:50Z</time>
      </trkpt>
      <trkpt lat="42.4819690" lon="2.6847060">
        <ele>184.0</ele>
        <time>2020-07-20T12:47:55Z</time>
      </trkpt>
      <trkpt lat="42.4819520" lon="2.6846400">
        <ele>184.2</ele>
        <time>2020-07-20T12:47:56Z</time>
      </trkpt>
      <trkpt lat="42.4819250" lon="2.6845080">
        <ele>184.6</ele>
        <time>2020-07-20T12:47:58Z</time>
      </trkpt>
      <trkpt lat="42.4819180" lon="2.6843720">
        <ele>185.2</ele>
        <time>2020-07-20T12:48:00Z</time>
      </trkpt>
      <trkpt lat="42.4819200" lon="2.6843040">
        <ele>185.4</ele>
        <time>2020-07-20T12:48:01Z</time>
      </trkpt>
      <trkpt lat="42.4819320" lon="2.6841740">
        <ele>185.8</ele>
        <time>2020-07-20T12:48:03Z</time>
      </trkpt>
      <trkpt lat="42.4819460" lon="2.6840400">
        <ele>186.2</ele>
        <time>2020-07-20T12:48:05Z</time>
      </trkpt>
      <trkpt lat="42.4819730" lon="2.6838440">
        <ele>187.0</ele>
        <time>2020-07-20T12:48:08Z</time>
      </trkpt>
      <trkpt lat="42.4819940" lon="2.6837100">
        <ele>187.4</ele>
        <time>2020-07-20T12:48:10Z</time>
      </trkpt>
      <trkpt lat="42.4820430" lon="2.6833720">
        <ele>188.4</ele>
        <time>2020-07-20T12:48:15Z</time>
      </trkpt>
      <trkpt lat="42.4820750" lon="2.6831690">
        <ele>188.6</ele>
        <time>2020-07-20T12:48:18Z</time>
      </trkpt>
      <trkpt lat="42.4821320" lon="2.6827560">
        <ele>189.0</ele>
        <time>2020-07-20T12:48:24Z</time>
      </trkpt>
      <trkpt lat="42.4821390" lon="2.6826850">
        <ele>189.0</ele>
        <time>2020-07-20T12:48:25Z</time>
      </trkpt>
      <trkpt lat="42.4821990" lon="2.6822550">
        <ele>188.8</ele>
        <time>2020-07-20T12:48:31Z</time>
      </trkpt>
      <trkpt lat="42.4822200" lon="2.6821100">
        <ele>189.0</ele>
        <time>2020-07-20T12:48:33Z</time>
      </trkpt>
      <trkpt lat="42.4822340" lon="2.6818240">
        <ele>189.6</ele>
        <time>2020-07-20T12:48:37Z</time>
      </trkpt>
      <trkpt lat="42.4822580" lon="2.6816380">
        <ele>190.0</ele>
        <time>2020-07-20T12:48:40Z</time>
      </trkpt>
      <trkpt lat="42.4822570" lon="2.6815730">
        <ele>190.2</ele>
        <time>2020-07-20T12:48:41Z</time>
      </trkpt>
      <trkpt lat="42.4822560" lon="2.6814410">
        <ele>190.8</ele>
        <time>2020-07-20T12:48:43Z</time>
      </trkpt>
      <trkpt lat="42.4822070" lon="2.6811680">
        <ele>191.2</ele>
        <time>2020-07-20T12:48:47Z</time>
      </trkpt>
      <trkpt lat="42.4820880" lon="2.6807630">
        <ele>191.6</ele>
        <time>2020-07-20T12:48:53Z</time>
      </trkpt>
      <trkpt lat="42.4820630" lon="2.6806980">
        <ele>191.6</ele>
        <time>2020-07-20T12:48:54Z</time>
      </trkpt>
      <trkpt lat="42.4819840" lon="2.6804360">
        <ele>191.8</ele>
        <time>2020-07-20T12:48:58Z</time>
      </trkpt>
      <trkpt lat="42.4819270" lon="2.6802430">
        <ele>192.6</ele>
        <time>2020-07-20T12:49:01Z</time>
      </trkpt>
      <trkpt lat="42.4819090" lon="2.6801780">
        <ele>192.8</ele>
        <time>2020-07-20T12:49:02Z</time>
      </trkpt>
      <trkpt lat="42.4818080" lon="2.6797880">
        <ele>193.4</ele>
        <time>2020-07-20T12:49:08Z</time>
      </trkpt>
      <trkpt lat="42.4817860" lon="2.6796620">
        <ele>193.6</ele>
        <time>2020-07-20T12:49:10Z</time>
      </trkpt>
      <trkpt lat="42.4817340" lon="2.6793460">
        <ele>194.0</ele>
        <time>2020-07-20T12:49:15Z</time>
      </trkpt>
      <trkpt lat="42.4817120" lon="2.6792300">
        <ele>194.2</ele>
        <time>2020-07-20T12:49:17Z</time>
      </trkpt>
      <trkpt lat="42.4816910" lon="2.6790660">
        <ele>194.4</ele>
        <time>2020-07-20T12:49:20Z</time>
      </trkpt>
      <trkpt lat="42.4816440" lon="2.6788970">
        <ele>194.6</ele>
        <time>2020-07-20T12:49:23Z</time>
      </trkpt>
      <trkpt lat="42.4815040" lon="2.6785450">
        <ele>194.6</ele>
        <time>2020-07-20T12:49:29Z</time>
      </trkpt>
      <trkpt lat="42.4813640" lon="2.6781220">
        <ele>194.4</ele>
        <time>2020-07-20T12:51:45Z</time>
      </trkpt>
      <trkpt lat="42.4813510" lon="2.6780840">
        <ele>194.4</ele>
        <time>2020-07-20T12:51:46Z</time>
      </trkpt>
      <trkpt lat="42.4813350" lon="2.6780400">
        <ele>194.4</ele>
        <time>2020-07-20T12:51:47Z</time>
      </trkpt>
      <trkpt lat="42.4813080" lon="2.6779370">
        <ele>194.8</ele>
        <time>2020-07-20T12:51:49Z</time>
      </trkpt>
      <trkpt lat="42.4812760" lon="2.6778170">
        <ele>195.0</ele>
        <time>2020-07-20T12:51:51Z</time>
      </trkpt>
      <trkpt lat="42.4811850" lon="2.6775400">
        <ele>195.2</ele>
        <time>2020-07-20T12:51:55Z</time>
      </trkpt>
      <trkpt lat="42.4811230" lon="2.6773260">
        <ele>195.4</ele>
        <time>2020-07-20T12:51:58Z</time>
      </trkpt>
      <trkpt lat="42.4810020" lon="2.6769770">
        <ele>195.8</ele>
        <time>2020-07-20T12:52:03Z</time>
      </trkpt>
      <trkpt lat="42.4809790" lon="2.6769070">
        <ele>196.0</ele>
        <time>2020-07-20T12:52:04Z</time>
      </trkpt>
      <trkpt lat="42.4809110" lon="2.6766890">
        <ele>196.6</ele>
        <time>2020-07-20T12:52:07Z</time>
      </trkpt>
      <trkpt lat="42.4808810" lon="2.6766170">
        <ele>196.6</ele>
        <time>2020-07-20T12:52:08Z</time>
      </trkpt>
      <trkpt lat="42.4808100" lon="2.6764780">
        <ele>196.4</ele>
        <time>2020-07-20T12:52:10Z</time>
      </trkpt>
      <trkpt lat="42.4806450" lon="2.6762000">
        <ele>196.0</ele>
        <time>2020-07-20T12:52:14Z</time>
      </trkpt>
      <trkpt lat="42.4805160" lon="2.6759890">
        <ele>196.0</ele>
        <time>2020-07-20T12:52:17Z</time>
      </trkpt>
      <trkpt lat="42.4802550" lon="2.6755620">
        <ele>195.8</ele>
        <time>2020-07-20T12:52:23Z</time>
      </trkpt>
      <trkpt lat="42.4801740" lon="2.6754250">
        <ele>195.8</ele>
        <time>2020-07-20T12:52:25Z</time>
      </trkpt>
      <trkpt lat="42.4799250" lon="2.6750460">
        <ele>197.2</ele>
        <time>2020-07-20T12:52:31Z</time>
      </trkpt>
      <trkpt lat="42.4798750" lon="2.6749960">
        <ele>197.4</ele>
        <time>2020-07-20T12:52:32Z</time>
      </trkpt>
      <trkpt lat="42.4795420" lon="2.6747430">
        <ele>197.8</ele>
        <time>2020-07-20T12:52:38Z</time>
      </trkpt>
      <trkpt lat="42.4794830" lon="2.6747010">
        <ele>197.8</ele>
        <time>2020-07-20T12:52:39Z</time>
      </trkpt>
      <trkpt lat="42.4791300" lon="2.6744410">
        <ele>197.6</ele>
        <time>2020-07-20T12:52:45Z</time>
      </trkpt>
      <trkpt lat="42.4789500" lon="2.6743150">
        <ele>197.2</ele>
        <time>2020-07-20T12:52:48Z</time>
      </trkpt>
      <trkpt lat="42.4788900" lon="2.6742730">
        <ele>197.0</ele>
        <time>2020-07-20T12:52:49Z</time>
      </trkpt>
      <trkpt lat="42.4785330" lon="2.6740150">
        <ele>196.6</ele>
        <time>2020-07-20T12:52:55Z</time>
      </trkpt>
      <trkpt lat="42.4783550" lon="2.6738830">
        <ele>196.8</ele>
        <time>2020-07-20T12:52:58Z</time>
      </trkpt>
      <trkpt lat="42.4780400" lon="2.6736960">
        <ele>196.2</ele>
        <time>2020-07-20T12:53:03Z</time>
      </trkpt>
      <trkpt lat="42.4779720" lon="2.6736780">
        <ele>195.8</ele>
        <time>2020-07-20T12:53:04Z</time>
      </trkpt>
      <trkpt lat="42.4778340" lon="2.6736770">
        <ele>195.2</ele>
        <time>2020-07-20T12:53:06Z</time>
      </trkpt>
      <trkpt lat="42.4777650" lon="2.6736930">
        <ele>195.0</ele>
        <time>2020-07-20T12:53:07Z</time>
      </trkpt>
      <trkpt lat="42.4776960" lon="2.6737190">
        <ele>195.0</ele>
        <time>2020-07-20T12:53:08Z</time>
      </trkpt>
      <trkpt lat="42.4773690" lon="2.6738930">
        <ele>195.4</ele>
        <time>2020-07-20T12:53:13Z</time>
      </trkpt>
      <trkpt lat="42.4772430" lon="2.6739640">
        <ele>195.6</ele>
        <time>2020-07-20T12:53:15Z</time>
      </trkpt>
      <trkpt lat="42.4770080" lon="2.6740870">
        <ele>196.0</ele>
        <time>2020-07-20T12:53:19Z</time>
      </trkpt>
      <trkpt lat="42.4768870" lon="2.6741420">
        <ele>196.8</ele>
        <time>2020-07-20T12:53:21Z</time>
      </trkpt>
      <trkpt lat="42.4767730" lon="2.6742140">
        <ele>197.2</ele>
        <time>2020-07-20T12:53:23Z</time>
      </trkpt>
      <trkpt lat="42.4765700" lon="2.6743830">
        <ele>197.4</ele>
        <time>2020-07-20T12:53:27Z</time>
      </trkpt>
      <trkpt lat="42.4762310" lon="2.6746190">
        <ele>197.8</ele>
        <time>2020-07-20T12:53:33Z</time>
      </trkpt>
      <trkpt lat="42.4761710" lon="2.6746520">
        <ele>198.0</ele>
        <time>2020-07-20T12:53:34Z</time>
      </trkpt>
      <trkpt lat="42.4761140" lon="2.6746820">
        <ele>198.2</ele>
        <time>2020-07-20T12:53:35Z</time>
      </trkpt>
      <trkpt lat="42.4758150" lon="2.6748460">
        <ele>199.2</ele>
        <time>2020-07-20T12:53:40Z</time>
      </trkpt>
      <trkpt lat="42.4756960" lon="2.6749070">
        <ele>199.2</ele>
        <time>2020-07-20T12:53:42Z</time>
      </trkpt>
      <trkpt lat="42.4753590" lon="2.6750810">
        <ele>199.8</ele>
        <time>2020-07-20T12:53:48Z</time>
      </trkpt>
      <trkpt lat="42.4752480" lon="2.6751480">
        <ele>199.6</ele>
        <time>2020-07-20T12:53:50Z</time>
      </trkpt>
      <trkpt lat="42.4750810" lon="2.6752440">
        <ele>199.0</ele>
        <time>2020-07-20T12:53:53Z</time>
      </trkpt>
      <trkpt lat="42.4749720" lon="2.6753100">
        <ele>199.2</ele>
        <time>2020-07-20T12:53:55Z</time>
      </trkpt>
      <trkpt lat="42.4748600" lon="2.6753650">
        <ele>199.6</ele>
        <time>2020-07-20T12:53:57Z</time>
      </trkpt>
      <trkpt lat="42.4747530" lon="2.6753810">
        <ele>200.0</ele>
        <time>2020-07-20T12:53:59Z</time>
      </trkpt>
      <trkpt lat="42.4746510" lon="2.6753830">
        <ele>200.2</ele>
        <time>2020-07-20T12:54:01Z</time>
      </trkpt>
      <trkpt lat="42.4744920" lon="2.6753840">
        <ele>200.4</ele>
        <time>2020-07-20T12:54:04Z</time>
      </trkpt>
      <trkpt lat="42.4742730" lon="2.6753300">
        <ele>200.6</ele>
        <time>2020-07-20T12:54:08Z</time>
      </trkpt>
      <trkpt lat="42.4741650" lon="2.6752490">
        <ele>200.4</ele>
        <time>2020-07-20T12:54:10Z</time>
      </trkpt>
      <trkpt lat="42.4740700" lon="2.6751580">
        <ele>200.6</ele>
        <time>2020-07-20T12:54:12Z</time>
      </trkpt>
      <trkpt lat="42.4739870" lon="2.6750530">
        <ele>201.0</ele>
        <time>2020-07-20T12:54:14Z</time>
      </trkpt>
      <trkpt lat="42.4738740" lon="2.6748780">
        <ele>201.4</ele>
        <time>2020-07-20T12:54:17Z</time>
      </trkpt>
      <trkpt lat="42.4737620" lon="2.6746970">
        <ele>201.4</ele>
        <time>2020-07-20T12:54:20Z</time>
      </trkpt>
      <trkpt lat="42.4737260" lon="2.6746350">
        <ele>201.4</ele>
        <time>2020-07-20T12:54:21Z</time>
      </trkpt>
      <trkpt lat="42.4736160" lon="2.6744530">
        <ele>201.4</ele>
        <time>2020-07-20T12:54:24Z</time>
      </trkpt>
      <trkpt lat="42.4734710" lon="2.6742050">
        <ele>201.4</ele>
        <time>2020-07-20T12:54:28Z</time>
      </trkpt>
      <trkpt lat="42.4733720" lon="2.6740210">
        <ele>201.8</ele>
        <time>2020-07-20T12:54:31Z</time>
      </trkpt>
      <trkpt lat="42.4733150" lon="2.6738910">
        <ele>202.6</ele>
        <time>2020-07-20T12:54:33Z</time>
      </trkpt>
      <trkpt lat="42.4732210" lon="2.6736190">
        <ele>203.4</ele>
        <time>2020-07-20T12:54:37Z</time>
      </trkpt>
      <trkpt lat="42.4732080" lon="2.6735440">
        <ele>203.4</ele>
        <time>2020-07-20T12:54:38Z</time>
      </trkpt>
      <trkpt lat="42.4732020" lon="2.6734670">
        <ele>203.4</ele>
        <time>2020-07-20T12:54:39Z</time>
      </trkpt>
      <trkpt lat="42.4732070" lon="2.6733100">
        <ele>203.4</ele>
        <time>2020-07-20T12:54:41Z</time>
      </trkpt>
      <trkpt lat="42.4732200" lon="2.6731550">
        <ele>203.6</ele>
        <time>2020-07-20T12:54:43Z</time>
      </trkpt>
      <trkpt lat="42.4732330" lon="2.6729990">
        <ele>203.4</ele>
        <time>2020-07-20T12:54:45Z</time>
      </trkpt>
      <trkpt lat="42.4732640" lon="2.6725000">
        <ele>201.2</ele>
        <time>2020-07-20T12:54:51Z</time>
      </trkpt>
      <trkpt lat="42.4732620" lon="2.6724120">
        <ele>201.0</ele>
        <time>2020-07-20T12:54:52Z</time>
      </trkpt>
      <trkpt lat="42.4732420" lon="2.6721470">
        <ele>200.2</ele>
        <time>2020-07-20T12:54:55Z</time>
      </trkpt>
      <trkpt lat="42.4732270" lon="2.6717200">
        <ele>200.0</ele>
        <time>2020-07-20T12:55:00Z</time>
      </trkpt>
      <trkpt lat="42.4732750" lon="2.6713550">
        <ele>200.0</ele>
        <time>2020-07-20T12:55:05Z</time>
      </trkpt>
      <trkpt lat="42.4732890" lon="2.6712900">
        <ele>200.2</ele>
        <time>2020-07-20T12:55:06Z</time>
      </trkpt>
      <trkpt lat="42.4733420" lon="2.6710870">
        <ele>200.8</ele>
        <time>2020-07-20T12:55:09Z</time>
      </trkpt>
      <trkpt lat="42.4733830" lon="2.6709420">
        <ele>201.2</ele>
        <time>2020-07-20T12:55:11Z</time>
      </trkpt>
      <trkpt lat="42.4733990" lon="2.6708710">
        <ele>201.4</ele>
        <time>2020-07-20T12:55:12Z</time>
      </trkpt>
      <trkpt lat="42.4734660" lon="2.6705950">
        <ele>202.0</ele>
        <time>2020-07-20T12:55:17Z</time>
      </trkpt>
      <trkpt lat="42.4734970" lon="2.6705010">
        <ele>202.6</ele>
        <time>2020-07-20T12:55:19Z</time>
      </trkpt>
      <trkpt lat="42.4735570" lon="2.6703220">
        <ele>204.0</ele>
        <time>2020-07-20T12:55:23Z</time>
      </trkpt>
      <trkpt lat="42.4735660" lon="2.6702800">
        <ele>204.4</ele>
        <time>2020-07-20T12:55:24Z</time>
      </trkpt>
      <trkpt lat="42.4735830" lon="2.6701940">
        <ele>205.2</ele>
        <time>2020-07-20T12:55:26Z</time>
      </trkpt>
      <trkpt lat="42.4735870" lon="2.6700600">
        <ele>205.8</ele>
        <time>2020-07-20T12:55:30Z</time>
      </trkpt>
      <trkpt lat="42.4735760" lon="2.6700480">
        <ele>206.0</ele>
        <time>2020-07-20T12:55:31Z</time>
      </trkpt>
      <trkpt lat="42.4735340" lon="2.6700250">
        <ele>206.0</ele>
        <time>2020-07-20T12:55:33Z</time>
      </trkpt>
      <trkpt lat="42.4738470" lon="2.6701770">
        <ele>213.4</ele>
        <time>2020-07-21T06:43:54Z</time>
      </trkpt>
      <trkpt lat="42.4739680" lon="2.6702270">
        <ele>213.4</ele>
        <time>2020-07-21T06:43:58Z</time>
      </trkpt>
      <trkpt lat="42.4740000" lon="2.6702430">
        <ele>213.2</ele>
        <time>2020-07-21T06:43:59Z</time>
      </trkpt>
      <trkpt lat="42.4740350" lon="2.6702580">
        <ele>213.0</ele>
        <time>2020-07-21T06:44:00Z</time>
      </trkpt>
      <trkpt lat="42.4740700" lon="2.6702700">
        <ele>212.8</ele>
        <time>2020-07-21T06:44:01Z</time>
      </trkpt>
      <trkpt lat="42.4741060" lon="2.6702840">
        <ele>212.6</ele>
        <time>2020-07-21T06:44:02Z</time>
      </trkpt>
      <trkpt lat="42.4741730" lon="2.6703120">
        <ele>212.4</ele>
        <time>2020-07-21T06:44:04Z</time>
      </trkpt>
      <trkpt lat="42.4742060" lon="2.6703270">
        <ele>212.4</ele>
        <time>2020-07-21T06:44:05Z</time>
      </trkpt>
      <trkpt lat="42.4742350" lon="2.6703400">
        <ele>212.4</ele>
        <time>2020-07-21T06:44:06Z</time>
      </trkpt>
      <trkpt lat="42.4742540" lon="2.6703520">
        <ele>212.2</ele>
        <time>2020-07-21T06:44:07Z</time>
      </trkpt>
      <trkpt lat="42.4742870" lon="2.6703710">
        <ele>212.4</ele>
        <time>2020-07-21T06:44:09Z</time>
      </trkpt>
      <trkpt lat="42.4743390" lon="2.6704030">
        <ele>212.4</ele>
        <time>2020-07-21T06:44:12Z</time>
      </trkpt>
      <trkpt lat="42.4743560" lon="2.6704170">
        <ele>212.4</ele>
        <time>2020-07-21T06:44:13Z</time>
      </trkpt>
      <trkpt lat="42.4744000" lon="2.6704980">
        <ele>212.8</ele>
        <time>2020-07-21T06:44:16Z</time>
      </trkpt>
      <trkpt lat="42.4744080" lon="2.6706140">
        <ele>213.2</ele>
        <time>2020-07-21T06:44:19Z</time>
      </trkpt>
      <trkpt lat="42.4744110" lon="2.6706940">
        <ele>213.4</ele>
        <time>2020-07-21T06:44:21Z</time>
      </trkpt>
      <trkpt lat="42.4744140" lon="2.6707330">
        <ele>213.6</ele>
        <time>2020-07-21T06:44:22Z</time>
      </trkpt>
      <trkpt lat="42.4744690" lon="2.6709380">
        <ele>214.6</ele>
        <time>2020-07-21T06:44:27Z</time>
      </trkpt>
      <trkpt lat="42.4744850" lon="2.6709780">
        <ele>214.8</ele>
        <time>2020-07-21T06:44:28Z</time>
      </trkpt>
      <trkpt lat="42.4745130" lon="2.6710600">
        <ele>215.4</ele>
        <time>2020-07-21T06:44:30Z</time>
      </trkpt>
      <trkpt lat="42.4745260" lon="2.6710980">
        <ele>215.8</ele>
        <time>2020-07-21T06:44:31Z</time>
      </trkpt>
      <trkpt lat="42.4745560" lon="2.6712820">
        <ele>216.8</ele>
        <time>2020-07-21T06:44:36Z</time>
      </trkpt>
      <trkpt lat="42.4745670" lon="2.6713560">
        <ele>217.0</ele>
        <time>2020-07-21T06:44:38Z</time>
      </trkpt>
      <trkpt lat="42.4745730" lon="2.6714280">
        <ele>217.2</ele>
        <time>2020-07-21T06:44:40Z</time>
      </trkpt>
      <trkpt lat="42.4745980" lon="2.6716250">
        <ele>217.8</ele>
        <time>2020-07-21T06:44:46Z</time>
      </trkpt>
      <trkpt lat="42.4746350" lon="2.6716690">
        <ele>217.8</ele>
        <time>2020-07-21T06:44:47Z</time>
      </trkpt>
      <trkpt lat="42.4746880" lon="2.6717570">
        <ele>217.8</ele>
        <time>2020-07-21T06:44:49Z</time>
      </trkpt>
      <trkpt lat="42.4747550" lon="2.6719860">
        <ele>218.4</ele>
        <time>2020-07-21T06:44:54Z</time>
      </trkpt>
      <trkpt lat="42.4748370" lon="2.6722870">
        <ele>218.8</ele>
        <time>2020-07-21T06:45:00Z</time>
      </trkpt>
      <trkpt lat="42.4748470" lon="2.6723380">
        <ele>218.8</ele>
        <time>2020-07-21T06:45:01Z</time>
      </trkpt>
      <trkpt lat="42.4748580" lon="2.6723880">
        <ele>219.0</ele>
        <time>2020-07-21T06:45:02Z</time>
      </trkpt>
      <trkpt lat="42.4749270" lon="2.6726900">
        <ele>219.6</ele>
        <time>2020-07-21T06:45:08Z</time>
      </trkpt>
      <trkpt lat="42.4749440" lon="2.6727390">
        <ele>219.8</ele>
        <time>2020-07-21T06:45:09Z</time>
      </trkpt>
      <trkpt lat="42.4749860" lon="2.6728180">
        <ele>219.8</ele>
        <time>2020-07-21T06:45:11Z</time>
      </trkpt>
      <trkpt lat="42.4750470" lon="2.6728640">
        <ele>220.0</ele>
        <time>2020-07-21T06:45:13Z</time>
      </trkpt>
      <trkpt lat="42.4752260" lon="2.6728800">
        <ele>220.2</ele>
        <time>2020-07-21T06:45:18Z</time>
      </trkpt>
      <trkpt lat="42.4753500" lon="2.6728360">
        <ele>220.0</ele>
        <time>2020-07-21T06:45:21Z</time>
      </trkpt>
      <trkpt lat="42.4754390" lon="2.6727830">
        <ele>220.0</ele>
        <time>2020-07-21T06:45:23Z</time>
      </trkpt>
      <trkpt lat="42.4756810" lon="2.6726240">
        <ele>218.6</ele>
        <time>2020-07-21T06:45:28Z</time>
      </trkpt>
      <trkpt lat="42.4757710" lon="2.6725640">
        <ele>217.6</ele>
        <time>2020-07-21T06:45:30Z</time>
      </trkpt>
      <trkpt lat="42.4758150" lon="2.6725380">
        <ele>217.4</ele>
        <time>2020-07-21T06:45:31Z</time>
      </trkpt>
      <trkpt lat="42.4760550" lon="2.6723960">
        <ele>216.8</ele>
        <time>2020-07-21T06:45:37Z</time>
      </trkpt>
      <trkpt lat="42.4762930" lon="2.6722390">
        <ele>216.2</ele>
        <time>2020-07-21T06:45:42Z</time>
      </trkpt>
      <trkpt lat="42.4763990" lon="2.6721750">
        <ele>215.6</ele>
        <time>2020-07-21T06:45:44Z</time>
      </trkpt>
      <trkpt lat="42.4764530" lon="2.6721430">
        <ele>215.2</ele>
        <time>2020-07-21T06:45:45Z</time>
      </trkpt>
      <trkpt lat="42.4765600" lon="2.6720700">
        <ele>214.2</ele>
        <time>2020-07-21T06:45:47Z</time>
      </trkpt>
      <trkpt lat="42.4766120" lon="2.6720340">
        <ele>213.8</ele>
        <time>2020-07-21T06:45:48Z</time>
      </trkpt>
      <trkpt lat="42.4767640" lon="2.6719130">
        <ele>213.0</ele>
        <time>2020-07-21T06:45:51Z</time>
      </trkpt>
      <trkpt lat="42.4768170" lon="2.6718740">
        <ele>212.6</ele>
        <time>2020-07-21T06:45:52Z</time>
      </trkpt>
      <trkpt lat="42.4768700" lon="2.6718350">
        <ele>212.2</ele>
        <time>2020-07-21T06:45:53Z</time>
      </trkpt>
      <trkpt lat="42.4769720" lon="2.6717470">
        <ele>211.2</ele>
        <time>2020-07-21T06:45:55Z</time>
      </trkpt>
      <trkpt lat="42.4770680" lon="2.6716370">
        <ele>210.2</ele>
        <time>2020-07-21T06:45:57Z</time>
      </trkpt>
      <trkpt lat="42.4771110" lon="2.6715710">
        <ele>209.8</ele>
        <time>2020-07-21T06:45:58Z</time>
      </trkpt>
      <trkpt lat="42.4771500" lon="2.6714990">
        <ele>209.6</ele>
        <time>2020-07-21T06:45:59Z</time>
      </trkpt>
      <trkpt lat="42.4772740" lon="2.6712960">
        <ele>209.4</ele>
        <time>2020-07-21T06:46:02Z</time>
      </trkpt>
      <trkpt lat="42.4773970" lon="2.6710870">
        <ele>209.2</ele>
        <time>2020-07-21T06:46:05Z</time>
      </trkpt>
      <trkpt lat="42.4774680" lon="2.6709510">
        <ele>209.0</ele>
        <time>2020-07-21T06:46:07Z</time>
      </trkpt>
      <trkpt lat="42.4776220" lon="2.6706960">
        <ele>209.0</ele>
        <time>2020-07-21T06:46:11Z</time>
      </trkpt>
      <trkpt lat="42.4778460" lon="2.6703380">
        <ele>208.8</ele>
        <time>2020-07-21T06:46:17Z</time>
      </trkpt>
      <trkpt lat="42.4778840" lon="2.6702820">
        <ele>208.6</ele>
        <time>2020-07-21T06:46:18Z</time>
      </trkpt>
      <trkpt lat="42.4779280" lon="2.6702310">
        <ele>208.4</ele>
        <time>2020-07-21T06:46:19Z</time>
      </trkpt>
      <trkpt lat="42.4780900" lon="2.6701110">
        <ele>208.4</ele>
        <time>2020-07-21T06:46:22Z</time>
      </trkpt>
      <trkpt lat="42.4782160" lon="2.6700570">
        <ele>208.4</ele>
        <time>2020-07-21T06:46:24Z</time>
      </trkpt>
      <trkpt lat="42.4783400" lon="2.6700270">
        <ele>208.2</ele>
        <time>2020-07-21T06:46:26Z</time>
      </trkpt>
      <trkpt lat="42.4784610" lon="2.6700120">
        <ele>207.8</ele>
        <time>2020-07-21T06:46:28Z</time>
      </trkpt>
      <trkpt lat="42.4787610" lon="2.6699810">
        <ele>207.2</ele>
        <time>2020-07-21T06:46:33Z</time>
      </trkpt>
      <trkpt lat="42.4790960" lon="2.6699600">
        <ele>207.4</ele>
        <time>2020-07-21T06:46:39Z</time>
      </trkpt>
      <trkpt lat="42.4794130" lon="2.6699030">
        <ele>207.6</ele>
        <time>2020-07-21T06:46:45Z</time>
      </trkpt>
      <trkpt lat="42.4794680" lon="2.6698930">
        <ele>207.6</ele>
        <time>2020-07-21T06:46:46Z</time>
      </trkpt>
      <trkpt lat="42.4796330" lon="2.6698550">
        <ele>208.0</ele>
        <time>2020-07-21T06:46:49Z</time>
      </trkpt>
      <trkpt lat="42.4796870" lon="2.6698420">
        <ele>208.0</ele>
        <time>2020-07-21T06:46:50Z</time>
      </trkpt>
      <trkpt lat="42.4797430" lon="2.6698270">
        <ele>208.2</ele>
        <time>2020-07-21T06:46:51Z</time>
      </trkpt>
      <trkpt lat="42.4798520" lon="2.6697920">
        <ele>208.6</ele>
        <time>2020-07-21T06:46:53Z</time>
      </trkpt>
      <trkpt lat="42.4799620" lon="2.6697550">
        <ele>209.2</ele>
        <time>2020-07-21T06:46:55Z</time>
      </trkpt>
      <trkpt lat="42.4801410" lon="2.6697380">
        <ele>210.4</ele>
        <time>2020-07-21T06:46:59Z</time>
      </trkpt>
      <trkpt lat="42.4801840" lon="2.6697320">
        <ele>210.6</ele>
        <time>2020-07-21T06:47:00Z</time>
      </trkpt>
      <trkpt lat="42.4803990" lon="2.6696820">
        <ele>211.4</ele>
        <time>2020-07-21T06:47:05Z</time>
      </trkpt>
      <trkpt lat="42.4804760" lon="2.6696510">
        <ele>211.8</ele>
        <time>2020-07-21T06:47:07Z</time>
      </trkpt>
      <trkpt lat="42.4806200" lon="2.6695930">
        <ele>212.6</ele>
        <time>2020-07-21T06:47:11Z</time>
      </trkpt>
      <trkpt lat="42.4807880" lon="2.6695130">
        <ele>213.4</ele>
        <time>2020-07-21T06:47:16Z</time>
      </trkpt>
      <trkpt lat="42.4808500" lon="2.6694720">
        <ele>213.6</ele>
        <time>2020-07-21T06:47:18Z</time>
      </trkpt>
      <trkpt lat="42.4809950" lon="2.6693900">
        <ele>214.6</ele>
        <time>2020-07-21T06:47:23Z</time>
      </trkpt>
      <trkpt lat="42.4810240" lon="2.6693760">
        <ele>214.8</ele>
        <time>2020-07-21T06:47:24Z</time>
      </trkpt>
      <trkpt lat="42.4811300" lon="2.6693440">
        <ele>215.8</ele>
        <time>2020-07-21T06:47:28Z</time>
      </trkpt>
      <trkpt lat="42.4811780" lon="2.6693460">
        <ele>216.2</ele>
        <time>2020-07-21T06:47:30Z</time>
      </trkpt>
      <trkpt lat="42.4812700" lon="2.6693990">
        <ele>217.0</ele>
        <time>2020-07-21T06:47:34Z</time>
      </trkpt>
      <trkpt lat="42.4812990" lon="2.6694210">
        <ele>217.2</ele>
        <time>2020-07-21T06:47:35Z</time>
      </trkpt>
      <trkpt lat="42.4815060" lon="2.6695710">
        <ele>218.2</ele>
        <time>2020-07-21T06:47:41Z</time>
      </trkpt>
      <trkpt lat="42.4816280" lon="2.6696670">
        <ele>219.2</ele>
        <time>2020-07-21T06:47:45Z</time>
      </trkpt>
      <trkpt lat="42.4817570" lon="2.6697430">
        <ele>220.2</ele>
        <time>2020-07-21T06:47:49Z</time>
      </trkpt>
      <trkpt lat="42.4819070" lon="2.6698450">
        <ele>220.8</ele>
        <time>2020-07-21T06:47:54Z</time>
      </trkpt>
      <trkpt lat="42.4820340" lon="2.6698970">
        <ele>221.4</ele>
        <time>2020-07-21T06:47:58Z</time>
      </trkpt>
      <trkpt lat="42.4821290" lon="2.6698940">
        <ele>222.2</ele>
        <time>2020-07-21T06:48:01Z</time>
      </trkpt>
      <trkpt lat="42.4821970" lon="2.6698710">
        <ele>222.6</ele>
        <time>2020-07-21T06:48:03Z</time>
      </trkpt>
      <trkpt lat="42.4823300" lon="2.6697880">
        <ele>223.2</ele>
        <time>2020-07-21T06:48:07Z</time>
      </trkpt>
      <trkpt lat="42.4824130" lon="2.6697200">
        <ele>223.8</ele>
        <time>2020-07-21T06:48:10Z</time>
      </trkpt>
      <trkpt lat="42.4824710" lon="2.6696790">
        <ele>224.2</ele>
        <time>2020-07-21T06:48:12Z</time>
      </trkpt>
      <trkpt lat="42.4825510" lon="2.6696050">
        <ele>224.8</ele>
        <time>2020-07-21T06:48:15Z</time>
      </trkpt>
      <trkpt lat="42.4826350" lon="2.6695280">
        <ele>225.4</ele>
        <time>2020-07-21T06:48:18Z</time>
      </trkpt>
      <trkpt lat="42.4827300" lon="2.6694610">
        <ele>226.0</ele>
        <time>2020-07-21T06:48:21Z</time>
      </trkpt>
      <trkpt lat="42.4828020" lon="2.6694420">
        <ele>226.2</ele>
        <time>2020-07-21T06:48:23Z</time>
      </trkpt>
      <trkpt lat="42.4829700" lon="2.6694230">
        <ele>227.0</ele>
        <time>2020-07-21T06:48:28Z</time>
      </trkpt>
      <trkpt lat="42.4830560" lon="2.6694050">
        <ele>228.0</ele>
        <time>2020-07-21T06:48:31Z</time>
      </trkpt>
      <trkpt lat="42.4830850" lon="2.6693970">
        <ele>228.2</ele>
        <time>2020-07-21T06:48:32Z</time>
      </trkpt>
      <trkpt lat="42.4832510" lon="2.6693870">
        <ele>228.6</ele>
        <time>2020-07-21T06:48:37Z</time>
      </trkpt>
      <trkpt lat="42.4833290" lon="2.6695130">
        <ele>229.0</ele>
        <time>2020-07-21T06:48:41Z</time>
      </trkpt>
      <trkpt lat="42.4833590" lon="2.6696600">
        <ele>229.4</ele>
        <time>2020-07-21T06:48:44Z</time>
      </trkpt>
      <trkpt lat="42.4833630" lon="2.6697620">
        <ele>229.6</ele>
        <time>2020-07-21T06:48:46Z</time>
      </trkpt>
      <trkpt lat="42.4833570" lon="2.6700610">
        <ele>230.6</ele>
        <time>2020-07-21T06:48:52Z</time>
      </trkpt>
      <trkpt lat="42.4833600" lon="2.6701060">
        <ele>230.8</ele>
        <time>2020-07-21T06:48:53Z</time>
      </trkpt>
      <trkpt lat="42.4833780" lon="2.6701980">
        <ele>231.6</ele>
        <time>2020-07-21T06:48:55Z</time>
      </trkpt>
      <trkpt lat="42.4833880" lon="2.6702400">
        <ele>231.8</ele>
        <time>2020-07-21T06:48:56Z</time>
      </trkpt>
      <trkpt lat="42.4834380" lon="2.6704030">
        <ele>232.2</ele>
        <time>2020-07-21T06:49:00Z</time>
      </trkpt>
      <trkpt lat="42.4835140" lon="2.6706590">
        <ele>232.8</ele>
        <time>2020-07-21T06:49:06Z</time>
      </trkpt>
      <trkpt lat="42.4835300" lon="2.6706960">
        <ele>233.0</ele>
        <time>2020-07-21T06:49:07Z</time>
      </trkpt>
      <trkpt lat="42.4835430" lon="2.6707310">
        <ele>233.2</ele>
        <time>2020-07-21T06:49:08Z</time>
      </trkpt>
      <trkpt lat="42.4836060" lon="2.6709280">
        <ele>234.0</ele>
        <time>2020-07-21T06:49:13Z</time>
      </trkpt>
      <trkpt lat="42.4836330" lon="2.6710500">
        <ele>235.0</ele>
        <time>2020-07-21T06:49:16Z</time>
      </trkpt>
      <trkpt lat="42.4836720" lon="2.6711680">
        <ele>235.8</ele>
        <time>2020-07-21T06:49:19Z</time>
      </trkpt>
      <trkpt lat="42.4836880" lon="2.6712080">
        <ele>236.2</ele>
        <time>2020-07-21T06:49:20Z</time>
      </trkpt>
      <trkpt lat="42.4837290" lon="2.6713170">
        <ele>236.6</ele>
        <time>2020-07-21T06:49:23Z</time>
      </trkpt>
      <trkpt lat="42.4838520" lon="2.6715290">
        <ele>237.2</ele>
        <time>2020-07-21T06:49:29Z</time>
      </trkpt>
      <trkpt lat="42.4838790" lon="2.6715640">
        <ele>237.2</ele>
        <time>2020-07-21T06:49:30Z</time>
      </trkpt>
      <trkpt lat="42.4840100" lon="2.6717650">
        <ele>238.2</ele>
        <time>2020-07-21T06:49:36Z</time>
      </trkpt>
      <trkpt lat="42.4840280" lon="2.6718270">
        <ele>238.8</ele>
        <time>2020-07-21T06:49:38Z</time>
      </trkpt>
      <trkpt lat="42.4840830" lon="2.6719180">
        <ele>239.2</ele>
        <time>2020-07-21T06:49:41Z</time>
      </trkpt>
      <trkpt lat="42.4841750" lon="2.6720330">
        <ele>239.6</ele>
        <time>2020-07-21T06:49:44Z</time>
      </trkpt>
      <trkpt lat="42.4842510" lon="2.6721480">
        <ele>240.4</ele>
        <time>2020-07-21T06:49:47Z</time>
      </trkpt>
      <trkpt lat="42.4843340" lon="2.6723400">
        <ele>241.4</ele>
        <time>2020-07-21T06:49:52Z</time>
      </trkpt>
      <trkpt lat="42.4843480" lon="2.6723830">
        <ele>241.6</ele>
        <time>2020-07-21T06:49:53Z</time>
      </trkpt>
      <trkpt lat="42.4844550" lon="2.6726020">
        <ele>242.4</ele>
        <time>2020-07-21T06:49:59Z</time>
      </trkpt>
      <trkpt lat="42.4844800" lon="2.6726390">
        <ele>242.6</ele>
        <time>2020-07-21T06:50:00Z</time>
      </trkpt>
      <trkpt lat="42.4845000" lon="2.6726770">
        <ele>242.8</ele>
        <time>2020-07-21T06:50:01Z</time>
      </trkpt>
      <trkpt lat="42.4845200" lon="2.6727130">
        <ele>243.0</ele>
        <time>2020-07-21T06:50:02Z</time>
      </trkpt>
      <trkpt lat="42.4845390" lon="2.6727490">
        <ele>243.2</ele>
        <time>2020-07-21T06:50:03Z</time>
      </trkpt>
      <trkpt lat="42.4845800" lon="2.6728510">
        <ele>244.0</ele>
        <time>2020-07-21T06:50:06Z</time>
      </trkpt>
      <trkpt lat="42.4845770" lon="2.6729610">
        <ele>244.4</ele>
        <time>2020-07-21T06:50:09Z</time>
      </trkpt>
      <trkpt lat="42.4845850" lon="2.6730330">
        <ele>244.4</ele>
        <time>2020-07-21T06:50:11Z</time>
      </trkpt>
      <trkpt lat="42.4846290" lon="2.6732410">
        <ele>245.0</ele>
        <time>2020-07-21T06:50:16Z</time>
      </trkpt>
      <trkpt lat="42.4846430" lon="2.6732860">
        <ele>245.2</ele>
        <time>2020-07-21T06:50:17Z</time>
      </trkpt>
      <trkpt lat="42.4846530" lon="2.6733320">
        <ele>245.4</ele>
        <time>2020-07-21T06:50:18Z</time>
      </trkpt>
      <trkpt lat="42.4846790" lon="2.6734510">
        <ele>246.2</ele>
        <time>2020-07-21T06:50:21Z</time>
      </trkpt>
      <trkpt lat="42.4846960" lon="2.6735310">
        <ele>246.8</ele>
        <time>2020-07-21T06:50:23Z</time>
      </trkpt>
      <trkpt lat="42.4847060" lon="2.6736160">
        <ele>246.6</ele>
        <time>2020-07-21T06:50:25Z</time>
      </trkpt>
      <trkpt lat="42.4847540" lon="2.6738440">
        <ele>246.8</ele>
        <time>2020-07-21T06:50:30Z</time>
      </trkpt>
      <trkpt lat="42.4847840" lon="2.6739290">
        <ele>247.2</ele>
        <time>2020-07-21T06:50:32Z</time>
      </trkpt>
      <trkpt lat="42.4848680" lon="2.6740710">
        <ele>248.2</ele>
        <time>2020-07-21T06:50:36Z</time>
      </trkpt>
      <trkpt lat="42.4848920" lon="2.6741060">
        <ele>248.4</ele>
        <time>2020-07-21T06:50:37Z</time>
      </trkpt>
      <trkpt lat="42.4850330" lon="2.6743030">
        <ele>248.8</ele>
        <time>2020-07-21T06:50:43Z</time>
      </trkpt>
      <trkpt lat="42.4850600" lon="2.6743270">
        <ele>248.8</ele>
        <time>2020-07-21T06:50:44Z</time>
      </trkpt>
      <trkpt lat="42.4850880" lon="2.6743510">
        <ele>248.8</ele>
        <time>2020-07-21T06:50:45Z</time>
      </trkpt>
      <trkpt lat="42.4852170" lon="2.6744140">
        <ele>249.4</ele>
        <time>2020-07-21T06:50:49Z</time>
      </trkpt>
      <trkpt lat="42.4852890" lon="2.6744250">
        <ele>250.0</ele>
        <time>2020-07-21T06:50:51Z</time>
      </trkpt>
      <trkpt lat="42.4853900" lon="2.6744290">
        <ele>250.4</ele>
        <time>2020-07-21T06:50:54Z</time>
      </trkpt>
      <trkpt lat="42.4855220" lon="2.6744280">
        <ele>250.6</ele>
        <time>2020-07-21T06:50:58Z</time>
      </trkpt>
      <trkpt lat="42.4855880" lon="2.6744270">
        <ele>251.0</ele>
        <time>2020-07-21T06:51:00Z</time>
      </trkpt>
      <trkpt lat="42.4856790" lon="2.6744160">
        <ele>251.8</ele>
        <time>2020-07-21T06:51:03Z</time>
      </trkpt>
      <trkpt lat="42.4858070" lon="2.6744150">
        <ele>252.4</ele>
        <time>2020-07-21T06:51:07Z</time>
      </trkpt>
      <trkpt lat="42.4859070" lon="2.6744200">
        <ele>252.8</ele>
        <time>2020-07-21T06:51:10Z</time>
      </trkpt>
      <trkpt lat="42.4860780" lon="2.6744170">
        <ele>253.6</ele>
        <time>2020-07-21T06:51:15Z</time>
      </trkpt>
      <trkpt lat="42.4861440" lon="2.6744040">
        <ele>254.0</ele>
        <time>2020-07-21T06:51:17Z</time>
      </trkpt>
      <trkpt lat="42.4862620" lon="2.6743490">
        <ele>254.6</ele>
        <time>2020-07-21T06:51:21Z</time>
      </trkpt>
      <trkpt lat="42.4863230" lon="2.6743100">
        <ele>255.2</ele>
        <time>2020-07-21T06:51:23Z</time>
      </trkpt>
      <trkpt lat="42.4864630" lon="2.6741920">
        <ele>256.0</ele>
        <time>2020-07-21T06:51:28Z</time>
      </trkpt>
      <trkpt lat="42.4864800" lon="2.6741660">
        <ele>256.2</ele>
        <time>2020-07-21T06:51:29Z</time>
      </trkpt>
      <trkpt lat="42.4865800" lon="2.6739750">
        <ele>257.2</ele>
        <time>2020-07-21T06:51:35Z</time>
      </trkpt>
      <trkpt lat="42.4867030" lon="2.6738860">
        <ele>258.4</ele>
        <time>2020-07-21T06:51:40Z</time>
      </trkpt>
      <trkpt lat="42.4868000" lon="2.6739680">
        <ele>259.0</ele>
        <time>2020-07-21T06:51:44Z</time>
      </trkpt>
      <trkpt lat="42.4868510" lon="2.6740680">
        <ele>259.4</ele>
        <time>2020-07-21T06:51:47Z</time>
      </trkpt>
      <trkpt lat="42.4868850" lon="2.6741780">
        <ele>259.8</ele>
        <time>2020-07-21T06:51:50Z</time>
      </trkpt>
      <trkpt lat="42.4868980" lon="2.6743100">
        <ele>260.8</ele>
        <time>2020-07-21T06:51:53Z</time>
      </trkpt>
      <trkpt lat="42.4869020" lon="2.6744010">
        <ele>261.2</ele>
        <time>2020-07-21T06:51:55Z</time>
      </trkpt>
      <trkpt lat="42.4869050" lon="2.6745390">
        <ele>261.8</ele>
        <time>2020-07-21T06:51:58Z</time>
      </trkpt>
      <trkpt lat="42.4869380" lon="2.6748080">
        <ele>262.4</ele>
        <time>2020-07-21T06:52:04Z</time>
      </trkpt>
      <trkpt lat="42.4869550" lon="2.6748470">
        <ele>262.4</ele>
        <time>2020-07-21T06:52:05Z</time>
      </trkpt>
      <trkpt lat="42.4869910" lon="2.6749120">
        <ele>262.8</ele>
        <time>2020-07-21T06:52:07Z</time>
      </trkpt>
      <trkpt lat="42.4870840" lon="2.6749900">
        <ele>263.6</ele>
        <time>2020-07-21T06:52:11Z</time>
      </trkpt>
      <trkpt lat="42.4871310" lon="2.6750050">
        <ele>264.0</ele>
        <time>2020-07-21T06:52:13Z</time>
      </trkpt>
      <trkpt lat="42.4872330" lon="2.6750080">
        <ele>264.8</ele>
        <time>2020-07-21T06:52:17Z</time>
      </trkpt>
      <trkpt lat="42.4873290" lon="2.6750170">
        <ele>265.2</ele>
        <time>2020-07-21T06:52:20Z</time>
      </trkpt>
      <trkpt lat="42.4874420" lon="2.6750730">
        <ele>266.0</ele>
        <time>2020-07-21T06:52:24Z</time>
      </trkpt>
      <trkpt lat="42.4874670" lon="2.6750890">
        <ele>266.4</ele>
        <time>2020-07-21T06:52:25Z</time>
      </trkpt>
      <trkpt lat="42.4875340" lon="2.6751360">
        <ele>267.4</ele>
        <time>2020-07-21T06:52:28Z</time>
      </trkpt>
      <trkpt lat="42.4875500" lon="2.6751480">
        <ele>267.6</ele>
        <time>2020-07-21T06:52:29Z</time>
      </trkpt>
      <trkpt lat="42.4875900" lon="2.6752010">
        <ele>267.8</ele>
        <time>2020-07-21T06:52:31Z</time>
      </trkpt>
      <trkpt lat="42.4877160" lon="2.6753370">
        <ele>268.4</ele>
        <time>2020-07-21T06:52:37Z</time>
      </trkpt>
      <trkpt lat="42.4877320" lon="2.6753570">
        <ele>268.6</ele>
        <time>2020-07-21T06:52:38Z</time>
      </trkpt>
      <trkpt lat="42.4877520" lon="2.6753710">
        <ele>268.8</ele>
        <time>2020-07-21T06:52:39Z</time>
      </trkpt>
      <trkpt lat="42.4878480" lon="2.6754110">
        <ele>269.8</ele>
        <time>2020-07-21T06:52:43Z</time>
      </trkpt>
      <trkpt lat="42.4878790" lon="2.6754170">
        <ele>270.0</ele>
        <time>2020-07-21T06:52:44Z</time>
      </trkpt>
      <trkpt lat="42.4880510" lon="2.6754320">
        <ele>270.8</ele>
        <time>2020-07-21T06:52:50Z</time>
      </trkpt>
      <trkpt lat="42.4880820" lon="2.6754330">
        <ele>271.0</ele>
        <time>2020-07-21T06:52:51Z</time>
      </trkpt>
      <trkpt lat="42.4881060" lon="2.6754350">
        <ele>271.2</ele>
        <time>2020-07-21T06:52:52Z</time>
      </trkpt>
      <trkpt lat="42.4882710" lon="2.6755540">
        <ele>271.8</ele>
        <time>2020-07-21T06:52:57Z</time>
      </trkpt>
      <trkpt lat="42.4883830" lon="2.6757140">
        <ele>272.2</ele>
        <time>2020-07-21T06:53:01Z</time>
      </trkpt>
      <trkpt lat="42.4884320" lon="2.6758030">
        <ele>272.8</ele>
        <time>2020-07-21T06:53:03Z</time>
      </trkpt>
      <trkpt lat="42.4884520" lon="2.6758950">
        <ele>273.2</ele>
        <time>2020-07-21T06:53:05Z</time>
      </trkpt>
      <trkpt lat="42.4884300" lon="2.6760630">
        <ele>274.0</ele>
        <time>2020-07-21T06:53:09Z</time>
      </trkpt>
      <trkpt lat="42.4883990" lon="2.6761750">
        <ele>274.4</ele>
        <time>2020-07-21T06:53:12Z</time>
      </trkpt>
      <trkpt lat="42.4883310" lon="2.6763850">
        <ele>275.0</ele>
        <time>2020-07-21T06:53:17Z</time>
      </trkpt>
      <trkpt lat="42.4882960" lon="2.6765170">
        <ele>275.6</ele>
        <time>2020-07-21T06:53:20Z</time>
      </trkpt>
      <trkpt lat="42.4882310" lon="2.6767180">
        <ele>276.6</ele>
        <time>2020-07-21T06:53:25Z</time>
      </trkpt>
      <trkpt lat="42.4882180" lon="2.6767540">
        <ele>277.0</ele>
        <time>2020-07-21T06:53:26Z</time>
      </trkpt>
      <trkpt lat="42.4881900" lon="2.6768230">
        <ele>277.4</ele>
        <time>2020-07-21T06:53:28Z</time>
      </trkpt>
      <trkpt lat="42.4881550" lon="2.6768870">
        <ele>278.0</ele>
        <time>2020-07-21T06:53:30Z</time>
      </trkpt>
      <trkpt lat="42.4881200" lon="2.6769430">
        <ele>278.4</ele>
        <time>2020-07-21T06:53:32Z</time>
      </trkpt>
      <trkpt lat="42.4880700" lon="2.6770530">
        <ele>279.0</ele>
        <time>2020-07-21T06:53:36Z</time>
      </trkpt>
      <trkpt lat="42.4880200" lon="2.6771780">
        <ele>279.6</ele>
        <time>2020-07-21T06:53:40Z</time>
      </trkpt>
      <trkpt lat="42.4879910" lon="2.6772590">
        <ele>280.2</ele>
        <time>2020-07-21T06:53:42Z</time>
      </trkpt>
      <trkpt lat="42.4879350" lon="2.6774650">
        <ele>281.2</ele>
        <time>2020-07-21T06:53:46Z</time>
      </trkpt>
      <trkpt lat="42.4879390" lon="2.6775100">
        <ele>281.2</ele>
        <time>2020-07-21T06:53:47Z</time>
      </trkpt>
      <trkpt lat="42.4879900" lon="2.6776800">
        <ele>282.0</ele>
        <time>2020-07-21T06:53:51Z</time>
      </trkpt>
      <trkpt lat="42.4881290" lon="2.6777920">
        <ele>282.2</ele>
        <time>2020-07-21T06:53:56Z</time>
      </trkpt>
      <trkpt lat="42.4881930" lon="2.6778240">
        <ele>282.4</ele>
        <time>2020-07-21T06:53:58Z</time>
      </trkpt>
      <trkpt lat="42.4883080" lon="2.6779070">
        <ele>283.6</ele>
        <time>2020-07-21T06:54:02Z</time>
      </trkpt>
      <trkpt lat="42.4883320" lon="2.6779330">
        <ele>284.0</ele>
        <time>2020-07-21T06:54:03Z</time>
      </trkpt>
      <trkpt lat="42.4883870" lon="2.6780250">
        <ele>285.0</ele>
        <time>2020-07-21T06:54:06Z</time>
      </trkpt>
      <trkpt lat="42.4884240" lon="2.6781450">
        <ele>285.8</ele>
        <time>2020-07-21T06:54:09Z</time>
      </trkpt>
      <trkpt lat="42.4884860" lon="2.6783110">
        <ele>286.2</ele>
        <time>2020-07-21T06:54:13Z</time>
      </trkpt>
      <trkpt lat="42.4885320" lon="2.6784570">
        <ele>286.4</ele>
        <time>2020-07-21T06:54:16Z</time>
      </trkpt>
      <trkpt lat="42.4885670" lon="2.6787570">
        <ele>286.4</ele>
        <time>2020-07-21T06:54:22Z</time>
      </trkpt>
      <trkpt lat="42.4885810" lon="2.6788530">
        <ele>287.2</ele>
        <time>2020-07-21T06:54:24Z</time>
      </trkpt>
      <trkpt lat="42.4885960" lon="2.6791110">
        <ele>288.2</ele>
        <time>2020-07-21T06:54:29Z</time>
      </trkpt>
      <trkpt lat="42.4885920" lon="2.6791600">
        <ele>288.4</ele>
        <time>2020-07-21T06:54:30Z</time>
      </trkpt>
      <trkpt lat="42.4885670" lon="2.6794460">
        <ele>289.6</ele>
        <time>2020-07-21T06:54:36Z</time>
      </trkpt>
      <trkpt lat="42.4885670" lon="2.6794920">
        <ele>289.8</ele>
        <time>2020-07-21T06:54:37Z</time>
      </trkpt>
      <trkpt lat="42.4885840" lon="2.6796740">
        <ele>290.4</ele>
        <time>2020-07-21T06:54:41Z</time>
      </trkpt>
      <trkpt lat="42.4885890" lon="2.6797650">
        <ele>290.8</ele>
        <time>2020-07-21T06:54:43Z</time>
      </trkpt>
      <trkpt lat="42.4885940" lon="2.6798090">
        <ele>291.0</ele>
        <time>2020-07-21T06:54:44Z</time>
      </trkpt>
      <trkpt lat="42.4886610" lon="2.6800570">
        <ele>291.8</ele>
        <time>2020-07-21T06:54:50Z</time>
      </trkpt>
      <trkpt lat="42.4886820" lon="2.6800890">
        <ele>292.2</ele>
        <time>2020-07-21T06:54:51Z</time>
      </trkpt>
      <trkpt lat="42.4887570" lon="2.6801480">
        <ele>293.0</ele>
        <time>2020-07-21T06:54:54Z</time>
      </trkpt>
      <trkpt lat="42.4888150" lon="2.6801530">
        <ele>293.4</ele>
        <time>2020-07-21T06:54:56Z</time>
      </trkpt>
      <trkpt lat="42.4888690" lon="2.6801460">
        <ele>293.8</ele>
        <time>2020-07-21T06:54:58Z</time>
      </trkpt>
      <trkpt lat="42.4889390" lon="2.6801250">
        <ele>294.2</ele>
        <time>2020-07-21T06:55:00Z</time>
      </trkpt>
      <trkpt lat="42.4890030" lon="2.6800890">
        <ele>294.8</ele>
        <time>2020-07-21T06:55:02Z</time>
      </trkpt>
      <trkpt lat="42.4891260" lon="2.6799990">
        <ele>295.4</ele>
        <time>2020-07-21T06:55:06Z</time>
      </trkpt>
      <trkpt lat="42.4892760" lon="2.6798710">
        <ele>296.2</ele>
        <time>2020-07-21T06:55:11Z</time>
      </trkpt>
      <trkpt lat="42.4893230" lon="2.6798200">
        <ele>296.6</ele>
        <time>2020-07-21T06:55:13Z</time>
      </trkpt>
      <trkpt lat="42.4893990" lon="2.6796750">
        <ele>297.8</ele>
        <time>2020-07-21T06:55:17Z</time>
      </trkpt>
      <trkpt lat="42.4894110" lon="2.6796390">
        <ele>298.0</ele>
        <time>2020-07-21T06:55:18Z</time>
      </trkpt>
      <trkpt lat="42.4894970" lon="2.6794420">
        <ele>298.6</ele>
        <time>2020-07-21T06:55:24Z</time>
      </trkpt>
      <trkpt lat="42.4895180" lon="2.6793680">
        <ele>298.8</ele>
        <time>2020-07-21T06:55:26Z</time>
      </trkpt>
      <trkpt lat="42.4896110" lon="2.6792150">
        <ele>299.4</ele>
        <time>2020-07-21T06:55:31Z</time>
      </trkpt>
      <trkpt lat="42.4897250" lon="2.6792310">
        <ele>299.8</ele>
        <time>2020-07-21T06:55:35Z</time>
      </trkpt>
      <trkpt lat="42.4897500" lon="2.6792570">
        <ele>299.8</ele>
        <time>2020-07-21T06:55:36Z</time>
      </trkpt>
      <trkpt lat="42.4898540" lon="2.6793860">
        <ele>301.0</ele>
        <time>2020-07-21T06:55:40Z</time>
      </trkpt>
      <trkpt lat="42.4899110" lon="2.6794450">
        <ele>301.4</ele>
        <time>2020-07-21T06:55:42Z</time>
      </trkpt>
      <trkpt lat="42.4900050" lon="2.6795560">
        <ele>302.2</ele>
        <time>2020-07-21T06:55:46Z</time>
      </trkpt>
      <trkpt lat="42.4900790" lon="2.6796430">
        <ele>302.8</ele>
        <time>2020-07-21T06:55:49Z</time>
      </trkpt>
      <trkpt lat="42.4901440" lon="2.6797250">
        <ele>303.2</ele>
        <time>2020-07-21T06:55:52Z</time>
      </trkpt>
      <trkpt lat="42.4901870" lon="2.6797730">
        <ele>303.8</ele>
        <time>2020-07-21T06:55:54Z</time>
      </trkpt>
      <trkpt lat="42.4902210" lon="2.6798200">
        <ele>304.2</ele>
        <time>2020-07-21T06:55:56Z</time>
      </trkpt>
      <trkpt lat="42.4902390" lon="2.6798420">
        <ele>304.4</ele>
        <time>2020-07-21T06:55:57Z</time>
      </trkpt>
      <trkpt lat="42.4902620" lon="2.6798660">
        <ele>304.6</ele>
        <time>2020-07-21T06:55:58Z</time>
      </trkpt>
      <trkpt lat="42.4903870" lon="2.6800710">
        <ele>305.0</ele>
        <time>2020-07-21T06:56:04Z</time>
      </trkpt>
      <trkpt lat="42.4903980" lon="2.6801140">
        <ele>305.0</ele>
        <time>2020-07-21T06:56:05Z</time>
      </trkpt>
      <trkpt lat="42.4904180" lon="2.6801990">
        <ele>305.2</ele>
        <time>2020-07-21T06:56:07Z</time>
      </trkpt>
      <trkpt lat="42.4904260" lon="2.6802810">
        <ele>305.4</ele>
        <time>2020-07-21T06:56:09Z</time>
      </trkpt>
      <trkpt lat="42.4904220" lon="2.6803650">
        <ele>305.8</ele>
        <time>2020-07-21T06:56:11Z</time>
      </trkpt>
      <trkpt lat="42.4904110" lon="2.6804880">
        <ele>306.6</ele>
        <time>2020-07-21T06:56:14Z</time>
      </trkpt>
      <trkpt lat="42.4904010" lon="2.6806160">
        <ele>307.4</ele>
        <time>2020-07-21T06:56:17Z</time>
      </trkpt>
      <trkpt lat="42.4903900" lon="2.6807150">
        <ele>307.6</ele>
        <time>2020-07-21T06:56:19Z</time>
      </trkpt>
      <trkpt lat="42.4903890" lon="2.6807630">
        <ele>307.6</ele>
        <time>2020-07-21T06:56:20Z</time>
      </trkpt>
      <trkpt lat="42.4903900" lon="2.6808110">
        <ele>307.6</ele>
        <time>2020-07-21T06:56:21Z</time>
      </trkpt>
      <trkpt lat="42.4903960" lon="2.6808550">
        <ele>307.8</ele>
        <time>2020-07-21T06:56:22Z</time>
      </trkpt>
      <trkpt lat="42.4904070" lon="2.6808930">
        <ele>307.8</ele>
        <time>2020-07-21T06:56:23Z</time>
      </trkpt>
      <trkpt lat="42.4904440" lon="2.6809660">
        <ele>308.4</ele>
        <time>2020-07-21T06:56:25Z</time>
      </trkpt>
      <trkpt lat="42.4904650" lon="2.6810000">
        <ele>308.6</ele>
        <time>2020-07-21T06:56:26Z</time>
      </trkpt>
      <trkpt lat="42.4905060" lon="2.6810660">
        <ele>309.2</ele>
        <time>2020-07-21T06:56:28Z</time>
      </trkpt>
      <trkpt lat="42.4905260" lon="2.6810920">
        <ele>309.2</ele>
        <time>2020-07-21T06:56:29Z</time>
      </trkpt>
      <trkpt lat="42.4905680" lon="2.6811380">
        <ele>309.6</ele>
        <time>2020-07-21T06:56:31Z</time>
      </trkpt>
      <trkpt lat="42.4905900" lon="2.6811610">
        <ele>309.8</ele>
        <time>2020-07-21T06:56:32Z</time>
      </trkpt>
      <trkpt lat="42.4906130" lon="2.6811850">
        <ele>309.8</ele>
        <time>2020-07-21T06:56:33Z</time>
      </trkpt>
      <trkpt lat="42.4906940" lon="2.6813160">
        <ele>310.6</ele>
        <time>2020-07-21T06:56:37Z</time>
      </trkpt>
      <trkpt lat="42.4907060" lon="2.6813560">
        <ele>310.8</ele>
        <time>2020-07-21T06:56:38Z</time>
      </trkpt>
      <trkpt lat="42.4907100" lon="2.6813990">
        <ele>311.0</ele>
        <time>2020-07-21T06:56:39Z</time>
      </trkpt>
      <trkpt lat="42.4906530" lon="2.6815960">
        <ele>311.6</ele>
        <time>2020-07-21T06:56:44Z</time>
      </trkpt>
      <trkpt lat="42.4906280" lon="2.6816700">
        <ele>311.8</ele>
        <time>2020-07-21T06:56:46Z</time>
      </trkpt>
      <trkpt lat="42.4906010" lon="2.6819020">
        <ele>312.8</ele>
        <time>2020-07-21T06:56:51Z</time>
      </trkpt>
      <trkpt lat="42.4906040" lon="2.6819470">
        <ele>313.0</ele>
        <time>2020-07-21T06:56:52Z</time>
      </trkpt>
      <trkpt lat="42.4906300" lon="2.6821640">
        <ele>313.6</ele>
        <time>2020-07-21T06:56:57Z</time>
      </trkpt>
      <trkpt lat="42.4906420" lon="2.6823920">
        <ele>314.0</ele>
        <time>2020-07-21T06:57:02Z</time>
      </trkpt>
      <trkpt lat="42.4906400" lon="2.6824320">
        <ele>314.0</ele>
        <time>2020-07-21T06:57:03Z</time>
      </trkpt>
      <trkpt lat="42.4906380" lon="2.6824700">
        <ele>314.4</ele>
        <time>2020-07-21T06:57:04Z</time>
      </trkpt>
      <trkpt lat="42.4906260" lon="2.6825660">
        <ele>315.2</ele>
        <time>2020-07-21T06:57:07Z</time>
      </trkpt>
      <trkpt lat="42.4906000" lon="2.6826960">
        <ele>315.8</ele>
        <time>2020-07-21T06:57:11Z</time>
      </trkpt>
      <trkpt lat="42.4905630" lon="2.6827920">
        <ele>316.2</ele>
        <time>2020-07-21T06:57:14Z</time>
      </trkpt>
      <trkpt lat="42.4905450" lon="2.6828510">
        <ele>316.6</ele>
        <time>2020-07-21T06:57:16Z</time>
      </trkpt>
      <trkpt lat="42.4905320" lon="2.6829110">
        <ele>316.8</ele>
        <time>2020-07-21T06:57:18Z</time>
      </trkpt>
      <trkpt lat="42.4905040" lon="2.6830070">
        <ele>317.4</ele>
        <time>2020-07-21T06:57:21Z</time>
      </trkpt>
      <trkpt lat="42.4904890" lon="2.6831010">
        <ele>317.8</ele>
        <time>2020-07-21T06:57:24Z</time>
      </trkpt>
      <trkpt lat="42.4905040" lon="2.6831830">
        <ele>318.2</ele>
        <time>2020-07-21T06:57:27Z</time>
      </trkpt>
      <trkpt lat="42.4905180" lon="2.6832310">
        <ele>318.4</ele>
        <time>2020-07-21T06:57:29Z</time>
      </trkpt>
      <trkpt lat="42.4905730" lon="2.6833320">
        <ele>319.2</ele>
        <time>2020-07-21T06:57:34Z</time>
      </trkpt>
      <trkpt lat="42.4905880" lon="2.6833490">
        <ele>319.2</ele>
        <time>2020-07-21T06:57:35Z</time>
      </trkpt>
      <trkpt lat="42.4906030" lon="2.6833690">
        <ele>319.2</ele>
        <time>2020-07-21T06:57:36Z</time>
      </trkpt>
      <trkpt lat="42.4906400" lon="2.6834340">
        <ele>319.4</ele>
        <time>2020-07-21T06:57:39Z</time>
      </trkpt>
      <trkpt lat="42.4906540" lon="2.6834580">
        <ele>319.4</ele>
        <time>2020-07-21T06:57:40Z</time>
      </trkpt>
      <trkpt lat="42.4906790" lon="2.6835140">
        <ele>319.8</ele>
        <time>2020-07-21T06:57:42Z</time>
      </trkpt>
      <trkpt lat="42.4906850" lon="2.6836970">
        <ele>320.6</ele>
        <time>2020-07-21T06:57:47Z</time>
      </trkpt>
      <trkpt lat="42.4906840" lon="2.6837310">
        <ele>320.6</ele>
        <time>2020-07-21T06:57:48Z</time>
      </trkpt>
      <trkpt lat="42.4906690" lon="2.6838690">
        <ele>321.2</ele>
        <time>2020-07-21T06:57:52Z</time>
      </trkpt>
      <trkpt lat="42.4906630" lon="2.6839350">
        <ele>321.6</ele>
        <time>2020-07-21T06:57:54Z</time>
      </trkpt>
      <trkpt lat="42.4906460" lon="2.6840000">
        <ele>321.8</ele>
        <time>2020-07-21T06:57:56Z</time>
      </trkpt>
      <trkpt lat="42.4906170" lon="2.6841450">
        <ele>322.2</ele>
        <time>2020-07-21T06:58:00Z</time>
      </trkpt>
      <trkpt lat="42.4906090" lon="2.6842230">
        <ele>322.6</ele>
        <time>2020-07-21T06:58:02Z</time>
      </trkpt>
      <trkpt lat="42.4905940" lon="2.6843040">
        <ele>322.8</ele>
        <time>2020-07-21T06:58:04Z</time>
      </trkpt>
      <trkpt lat="42.4905800" lon="2.6843960">
        <ele>323.4</ele>
        <time>2020-07-21T06:58:06Z</time>
      </trkpt>
      <trkpt lat="42.4905750" lon="2.6844860">
        <ele>323.6</ele>
        <time>2020-07-21T06:58:08Z</time>
      </trkpt>
      <trkpt lat="42.4905660" lon="2.6846600">
        <ele>324.0</ele>
        <time>2020-07-21T06:58:12Z</time>
      </trkpt>
      <trkpt lat="42.4905810" lon="2.6848220">
        <ele>324.8</ele>
        <time>2020-07-21T06:58:16Z</time>
      </trkpt>
      <trkpt lat="42.4906000" lon="2.6849350">
        <ele>325.0</ele>
        <time>2020-07-21T06:58:19Z</time>
      </trkpt>
      <trkpt lat="42.4906040" lon="2.6849720">
        <ele>325.2</ele>
        <time>2020-07-21T06:58:20Z</time>
      </trkpt>
      <trkpt lat="42.4906100" lon="2.6850070">
        <ele>325.2</ele>
        <time>2020-07-21T06:58:21Z</time>
      </trkpt>
      <trkpt lat="42.4906450" lon="2.6851070">
        <ele>325.8</ele>
        <time>2020-07-21T06:58:24Z</time>
      </trkpt>
      <trkpt lat="42.4907070" lon="2.6852040">
        <ele>326.4</ele>
        <time>2020-07-21T06:58:27Z</time>
      </trkpt>
      <trkpt lat="42.4907550" lon="2.6852650">
        <ele>327.0</ele>
        <time>2020-07-21T06:58:29Z</time>
      </trkpt>
      <trkpt lat="42.4908800" lon="2.6854380">
        <ele>327.6</ele>
        <time>2020-07-21T06:58:35Z</time>
      </trkpt>
      <trkpt lat="42.4909050" lon="2.6854550">
        <ele>327.6</ele>
        <time>2020-07-21T06:58:36Z</time>
      </trkpt>
      <trkpt lat="42.4909620" lon="2.6854810">
        <ele>328.0</ele>
        <time>2020-07-21T06:58:38Z</time>
      </trkpt>
      <trkpt lat="42.4910850" lon="2.6854760">
        <ele>329.0</ele>
        <time>2020-07-21T06:58:42Z</time>
      </trkpt>
      <trkpt lat="42.4912240" lon="2.6853340">
        <ele>330.0</ele>
        <time>2020-07-21T06:58:48Z</time>
      </trkpt>
      <trkpt lat="42.4913040" lon="2.6851540">
        <ele>331.0</ele>
        <time>2020-07-21T06:58:53Z</time>
      </trkpt>
      <trkpt lat="42.4913190" lon="2.6851160">
        <ele>331.2</ele>
        <time>2020-07-21T06:58:54Z</time>
      </trkpt>
      <trkpt lat="42.4913640" lon="2.6850000">
        <ele>332.0</ele>
        <time>2020-07-21T06:58:57Z</time>
      </trkpt>
      <trkpt lat="42.4914080" lon="2.6848840">
        <ele>332.4</ele>
        <time>2020-07-21T06:59:00Z</time>
      </trkpt>
      <trkpt lat="42.4914850" lon="2.6846450">
        <ele>333.4</ele>
        <time>2020-07-21T06:59:06Z</time>
      </trkpt>
      <trkpt lat="42.4915600" lon="2.6843960">
        <ele>334.4</ele>
        <time>2020-07-21T06:59:12Z</time>
      </trkpt>
      <trkpt lat="42.4915750" lon="2.6843600">
        <ele>334.6</ele>
        <time>2020-07-21T06:59:13Z</time>
      </trkpt>
      <trkpt lat="42.4915870" lon="2.6843240">
        <ele>334.8</ele>
        <time>2020-07-21T06:59:14Z</time>
      </trkpt>
      <trkpt lat="42.4916350" lon="2.6841700">
        <ele>335.8</ele>
        <time>2020-07-21T06:59:18Z</time>
      </trkpt>
      <trkpt lat="42.4916660" lon="2.6840630">
        <ele>336.2</ele>
        <time>2020-07-21T06:59:21Z</time>
      </trkpt>
      <trkpt lat="42.4917330" lon="2.6838750">
        <ele>337.0</ele>
        <time>2020-07-21T06:59:27Z</time>
      </trkpt>
      <trkpt lat="42.4917520" lon="2.6838110">
        <ele>337.2</ele>
        <time>2020-07-21T06:59:29Z</time>
      </trkpt>
      <trkpt lat="42.4917810" lon="2.6836900">
        <ele>338.0</ele>
        <time>2020-07-21T06:59:33Z</time>
      </trkpt>
      <trkpt lat="42.4918100" lon="2.6835950">
        <ele>338.4</ele>
        <time>2020-07-21T06:59:36Z</time>
      </trkpt>
      <trkpt lat="42.4918790" lon="2.6833680">
        <ele>339.0</ele>
        <time>2020-07-21T06:59:42Z</time>
      </trkpt>
      <trkpt lat="42.4919060" lon="2.6832890">
        <ele>339.4</ele>
        <time>2020-07-21T06:59:44Z</time>
      </trkpt>
      <trkpt lat="42.4919200" lon="2.6832500">
        <ele>339.4</ele>
        <time>2020-07-21T06:59:45Z</time>
      </trkpt>
      <trkpt lat="42.4919770" lon="2.6831170">
        <ele>339.8</ele>
        <time>2020-07-21T06:59:49Z</time>
      </trkpt>
      <trkpt lat="42.4919890" lon="2.6830790">
        <ele>340.0</ele>
        <time>2020-07-21T06:59:50Z</time>
      </trkpt>
      <trkpt lat="42.4920160" lon="2.6830030">
        <ele>340.4</ele>
        <time>2020-07-21T06:59:52Z</time>
      </trkpt>
      <trkpt lat="42.4920770" lon="2.6829060">
        <ele>341.4</ele>
        <time>2020-07-21T06:59:55Z</time>
      </trkpt>
      <trkpt lat="42.4921460" lon="2.6828110">
        <ele>341.8</ele>
        <time>2020-07-21T06:59:58Z</time>
      </trkpt>
      <trkpt lat="42.4922150" lon="2.6827170">
        <ele>341.8</ele>
        <time>2020-07-21T07:00:01Z</time>
      </trkpt>
      <trkpt lat="42.4923120" lon="2.6825990">
        <ele>342.4</ele>
        <time>2020-07-21T07:00:05Z</time>
      </trkpt>
      <trkpt lat="42.4923580" lon="2.6825420">
        <ele>342.8</ele>
        <time>2020-07-21T07:00:07Z</time>
      </trkpt>
      <trkpt lat="42.4924220" lon="2.6824530">
        <ele>343.6</ele>
        <time>2020-07-21T07:00:10Z</time>
      </trkpt>
      <trkpt lat="42.4924400" lon="2.6824190">
        <ele>343.8</ele>
        <time>2020-07-21T07:00:11Z</time>
      </trkpt>
      <trkpt lat="42.4925010" lon="2.6822700">
        <ele>344.2</ele>
        <time>2020-07-21T07:00:15Z</time>
      </trkpt>
      <trkpt lat="42.4925290" lon="2.6821530">
        <ele>344.8</ele>
        <time>2020-07-21T07:00:18Z</time>
      </trkpt>
      <trkpt lat="42.4925310" lon="2.6820700">
        <ele>345.2</ele>
        <time>2020-07-21T07:00:20Z</time>
      </trkpt>
      <trkpt lat="42.4925280" lon="2.6820270">
        <ele>345.6</ele>
        <time>2020-07-21T07:00:21Z</time>
      </trkpt>
      <trkpt lat="42.4925170" lon="2.6819400">
        <ele>346.0</ele>
        <time>2020-07-21T07:00:23Z</time>
      </trkpt>
      <trkpt lat="42.4924660" lon="2.6817360">
        <ele>346.8</ele>
        <time>2020-07-21T07:00:28Z</time>
      </trkpt>
      <trkpt lat="42.4924310" lon="2.6816650">
        <ele>347.2</ele>
        <time>2020-07-21T07:00:30Z</time>
      </trkpt>
      <trkpt lat="42.4923510" lon="2.6815330">
        <ele>347.8</ele>
        <time>2020-07-21T07:00:34Z</time>
      </trkpt>
      <trkpt lat="42.4923110" lon="2.6814720">
        <ele>348.4</ele>
        <time>2020-07-21T07:00:36Z</time>
      </trkpt>
      <trkpt lat="42.4922450" lon="2.6813830">
        <ele>348.8</ele>
        <time>2020-07-21T07:00:39Z</time>
      </trkpt>
      <trkpt lat="42.4922040" lon="2.6813140">
        <ele>349.0</ele>
        <time>2020-07-21T07:00:41Z</time>
      </trkpt>
      <trkpt lat="42.4921640" lon="2.6812470">
        <ele>349.2</ele>
        <time>2020-07-21T07:00:43Z</time>
      </trkpt>
      <trkpt lat="42.4921440" lon="2.6812120">
        <ele>349.4</ele>
        <time>2020-07-21T07:00:44Z</time>
      </trkpt>
      <trkpt lat="42.4920860" lon="2.6810620">
        <ele>350.0</ele>
        <time>2020-07-21T07:00:48Z</time>
      </trkpt>
      <trkpt lat="42.4920650" lon="2.6808800">
        <ele>350.4</ele>
        <time>2020-07-21T07:00:52Z</time>
      </trkpt>
      <trkpt lat="42.4920620" lon="2.6807900">
        <ele>350.6</ele>
        <time>2020-07-21T07:00:54Z</time>
      </trkpt>
      <trkpt lat="42.4920500" lon="2.6807120">
        <ele>351.2</ele>
        <time>2020-07-21T07:00:56Z</time>
      </trkpt>
      <trkpt lat="42.4920450" lon="2.6806710">
        <ele>351.4</ele>
        <time>2020-07-21T07:00:57Z</time>
      </trkpt>
      <trkpt lat="42.4920350" lon="2.6805460">
        <ele>351.8</ele>
        <time>2020-07-21T07:01:00Z</time>
      </trkpt>
      <trkpt lat="42.4920310" lon="2.6805010">
        <ele>352.0</ele>
        <time>2020-07-21T07:01:01Z</time>
      </trkpt>
      <trkpt lat="42.4920230" lon="2.6803750">
        <ele>352.6</ele>
        <time>2020-07-21T07:01:04Z</time>
      </trkpt>
      <trkpt lat="42.4920330" lon="2.6802550">
        <ele>353.6</ele>
        <time>2020-07-21T07:01:07Z</time>
      </trkpt>
      <trkpt lat="42.4920380" lon="2.6802150">
        <ele>353.8</ele>
        <time>2020-07-21T07:01:08Z</time>
      </trkpt>
      <trkpt lat="42.4920860" lon="2.6799890">
        <ele>354.8</ele>
        <time>2020-07-21T07:01:14Z</time>
      </trkpt>
      <trkpt lat="42.4920920" lon="2.6799530">
        <ele>355.0</ele>
        <time>2020-07-21T07:01:15Z</time>
      </trkpt>
      <trkpt lat="42.4921170" lon="2.6797090">
        <ele>355.8</ele>
        <time>2020-07-21T07:01:21Z</time>
      </trkpt>
      <trkpt lat="42.4921230" lon="2.6796700">
        <ele>356.0</ele>
        <time>2020-07-21T07:01:22Z</time>
      </trkpt>
      <trkpt lat="42.4921310" lon="2.6795860">
        <ele>356.2</ele>
        <time>2020-07-21T07:01:24Z</time>
      </trkpt>
      <trkpt lat="42.4921220" lon="2.6794080">
        <ele>357.2</ele>
        <time>2020-07-21T07:01:28Z</time>
      </trkpt>
      <trkpt lat="42.4920970" lon="2.6792820">
        <ele>357.4</ele>
        <time>2020-07-21T07:01:31Z</time>
      </trkpt>
      <trkpt lat="42.4920320" lon="2.6790620">
        <ele>358.2</ele>
        <time>2020-07-21T07:01:37Z</time>
      </trkpt>
      <trkpt lat="42.4920070" lon="2.6789770">
        <ele>358.6</ele>
        <time>2020-07-21T07:01:39Z</time>
      </trkpt>
      <trkpt lat="42.4919790" lon="2.6788380">
        <ele>359.2</ele>
        <time>2020-07-21T07:01:42Z</time>
      </trkpt>
      <trkpt lat="42.4919720" lon="2.6787940">
        <ele>359.4</ele>
        <time>2020-07-21T07:01:43Z</time>
      </trkpt>
      <trkpt lat="42.4919300" lon="2.6785870">
        <ele>360.0</ele>
        <time>2020-07-21T07:01:48Z</time>
      </trkpt>
      <trkpt lat="42.4918990" lon="2.6784580">
        <ele>360.4</ele>
        <time>2020-07-21T07:01:51Z</time>
      </trkpt>
      <trkpt lat="42.4918340" lon="2.6782640">
        <ele>361.4</ele>
        <time>2020-07-21T07:01:56Z</time>
      </trkpt>
      <trkpt lat="42.4918220" lon="2.6782280">
        <ele>361.6</ele>
        <time>2020-07-21T07:01:57Z</time>
      </trkpt>
      <trkpt lat="42.4917480" lon="2.6780350">
        <ele>362.4</ele>
        <time>2020-07-21T07:02:02Z</time>
      </trkpt>
      <trkpt lat="42.4917330" lon="2.6779970">
        <ele>362.8</ele>
        <time>2020-07-21T07:02:03Z</time>
      </trkpt>
      <trkpt lat="42.4916800" lon="2.6778440">
        <ele>363.4</ele>
        <time>2020-07-21T07:02:07Z</time>
      </trkpt>
      <trkpt lat="42.4916470" lon="2.6777690">
        <ele>363.6</ele>
        <time>2020-07-21T07:02:09Z</time>
      </trkpt>
      <trkpt lat="42.4915970" lon="2.6775920">
        <ele>364.4</ele>
        <time>2020-07-21T07:02:14Z</time>
      </trkpt>
      <trkpt lat="42.4915760" lon="2.6774600">
        <ele>365.0</ele>
        <time>2020-07-21T07:02:17Z</time>
      </trkpt>
      <trkpt lat="42.4915470" lon="2.6772850">
        <ele>365.8</ele>
        <time>2020-07-21T07:02:21Z</time>
      </trkpt>
      <trkpt lat="42.4915430" lon="2.6772390">
        <ele>366.0</ele>
        <time>2020-07-21T07:02:22Z</time>
      </trkpt>
      <trkpt lat="42.4915370" lon="2.6771930">
        <ele>366.2</ele>
        <time>2020-07-21T07:02:23Z</time>
      </trkpt>
      <trkpt lat="42.4914980" lon="2.6769330">
        <ele>367.0</ele>
        <time>2020-07-21T07:02:29Z</time>
      </trkpt>
      <trkpt lat="42.4914780" lon="2.6767150">
        <ele>368.2</ele>
        <time>2020-07-21T07:02:34Z</time>
      </trkpt>
      <trkpt lat="42.4914720" lon="2.6766320">
        <ele>368.4</ele>
        <time>2020-07-21T07:02:36Z</time>
      </trkpt>
      <trkpt lat="42.4914520" lon="2.6764450">
        <ele>369.2</ele>
        <time>2020-07-21T07:02:41Z</time>
      </trkpt>
      <trkpt lat="42.4914430" lon="2.6763940">
        <ele>369.6</ele>
        <time>2020-07-21T07:02:43Z</time>
      </trkpt>
      <trkpt lat="42.4914400" lon="2.6762920">
        <ele>369.8</ele>
        <time>2020-07-21T07:02:46Z</time>
      </trkpt>
      <trkpt lat="42.4914250" lon="2.6761950">
        <ele>370.2</ele>
        <time>2020-07-21T07:02:48Z</time>
      </trkpt>
      <trkpt lat="42.4914190" lon="2.6761470">
        <ele>370.6</ele>
        <time>2020-07-21T07:02:49Z</time>
      </trkpt>
      <trkpt lat="42.4914100" lon="2.6761050">
        <ele>371.0</ele>
        <time>2020-07-21T07:02:50Z</time>
      </trkpt>
      <trkpt lat="42.4913920" lon="2.6759770">
        <ele>371.6</ele>
        <time>2020-07-21T07:02:53Z</time>
      </trkpt>
      <trkpt lat="42.4913910" lon="2.6759360">
        <ele>371.8</ele>
        <time>2020-07-21T07:02:54Z</time>
      </trkpt>
      <trkpt lat="42.4913870" lon="2.6758930">
        <ele>371.8</ele>
        <time>2020-07-21T07:02:55Z</time>
      </trkpt>
      <trkpt lat="42.4913640" lon="2.6756760">
        <ele>372.8</ele>
        <time>2020-07-21T07:03:00Z</time>
      </trkpt>
      <trkpt lat="42.4913730" lon="2.6755590">
        <ele>373.2</ele>
        <time>2020-07-21T07:03:03Z</time>
      </trkpt>
      <trkpt lat="42.4914100" lon="2.6754080">
        <ele>373.2</ele>
        <time>2020-07-21T07:03:07Z</time>
      </trkpt>
      <trkpt lat="42.4914310" lon="2.6753270">
        <ele>373.4</ele>
        <time>2020-07-21T07:03:09Z</time>
      </trkpt>
      <trkpt lat="42.4914540" lon="2.6752490">
        <ele>374.0</ele>
        <time>2020-07-21T07:03:11Z</time>
      </trkpt>
      <trkpt lat="42.4914870" lon="2.6751260">
        <ele>374.6</ele>
        <time>2020-07-21T07:03:14Z</time>
      </trkpt>
      <trkpt lat="42.4915320" lon="2.6749630">
        <ele>375.0</ele>
        <time>2020-07-21T07:03:18Z</time>
      </trkpt>
      <trkpt lat="42.4915440" lon="2.6749270">
        <ele>375.2</ele>
        <time>2020-07-21T07:03:19Z</time>
      </trkpt>
      <trkpt lat="42.4915690" lon="2.6748550">
        <ele>375.6</ele>
        <time>2020-07-21T07:03:21Z</time>
      </trkpt>
      <trkpt lat="42.4915940" lon="2.6747750">
        <ele>376.2</ele>
        <time>2020-07-21T07:03:23Z</time>
      </trkpt>
      <trkpt lat="42.4916280" lon="2.6747010">
        <ele>376.4</ele>
        <time>2020-07-21T07:03:25Z</time>
      </trkpt>
      <trkpt lat="42.4916990" lon="2.6745500">
        <ele>377.2</ele>
        <time>2020-07-21T07:03:29Z</time>
      </trkpt>
      <trkpt lat="42.4917940" lon="2.6743820">
        <ele>378.0</ele>
        <time>2020-07-21T07:03:34Z</time>
      </trkpt>
      <trkpt lat="42.4918120" lon="2.6743500">
        <ele>378.4</ele>
        <time>2020-07-21T07:03:35Z</time>
      </trkpt>
      <trkpt lat="42.4918660" lon="2.6742500">
        <ele>379.0</ele>
        <time>2020-07-21T07:03:38Z</time>
      </trkpt>
      <trkpt lat="42.4919090" lon="2.6741230">
        <ele>379.6</ele>
        <time>2020-07-21T07:03:41Z</time>
      </trkpt>
      <trkpt lat="42.4919210" lon="2.6740800">
        <ele>379.6</ele>
        <time>2020-07-21T07:03:42Z</time>
      </trkpt>
      <trkpt lat="42.4920000" lon="2.6738330">
        <ele>380.4</ele>
        <time>2020-07-21T07:03:48Z</time>
      </trkpt>
      <trkpt lat="42.4920130" lon="2.6737930">
        <ele>380.8</ele>
        <time>2020-07-21T07:03:49Z</time>
      </trkpt>
      <trkpt lat="42.4920380" lon="2.6737180">
        <ele>381.2</ele>
        <time>2020-07-21T07:03:51Z</time>
      </trkpt>
      <trkpt lat="42.4921050" lon="2.6735350">
        <ele>382.0</ele>
        <time>2020-07-21T07:03:56Z</time>
      </trkpt>
      <trkpt lat="42.4921380" lon="2.6734140">
        <ele>382.4</ele>
        <time>2020-07-21T07:03:59Z</time>
      </trkpt>
      <trkpt lat="42.4921720" lon="2.6733080">
        <ele>383.2</ele>
        <time>2020-07-21T07:04:02Z</time>
      </trkpt>
      <trkpt lat="42.4922530" lon="2.6731190">
        <ele>384.0</ele>
        <time>2020-07-21T07:04:07Z</time>
      </trkpt>
      <trkpt lat="42.4922820" lon="2.6730400">
        <ele>384.2</ele>
        <time>2020-07-21T07:04:09Z</time>
      </trkpt>
      <trkpt lat="42.4923460" lon="2.6728040">
        <ele>385.4</ele>
        <time>2020-07-21T07:04:15Z</time>
      </trkpt>
      <trkpt lat="42.4923580" lon="2.6727690">
        <ele>385.6</ele>
        <time>2020-07-21T07:04:16Z</time>
      </trkpt>
      <trkpt lat="42.4924130" lon="2.6725870">
        <ele>386.4</ele>
        <time>2020-07-21T07:04:21Z</time>
      </trkpt>
      <trkpt lat="42.4924630" lon="2.6724510">
        <ele>387.4</ele>
        <time>2020-07-21T07:04:25Z</time>
      </trkpt>
      <trkpt lat="42.4925020" lon="2.6723380">
        <ele>388.2</ele>
        <time>2020-07-21T07:04:28Z</time>
      </trkpt>
      <trkpt lat="42.4925270" lon="2.6722670">
        <ele>388.6</ele>
        <time>2020-07-21T07:04:30Z</time>
      </trkpt>
      <trkpt lat="42.4925580" lon="2.6721640">
        <ele>389.2</ele>
        <time>2020-07-21T07:04:33Z</time>
      </trkpt>
      <trkpt lat="42.4925800" lon="2.6721010">
        <ele>389.6</ele>
        <time>2020-07-21T07:04:35Z</time>
      </trkpt>
      <trkpt lat="42.4926290" lon="2.6719360">
        <ele>390.8</ele>
        <time>2020-07-21T07:04:40Z</time>
      </trkpt>
      <trkpt lat="42.4926660" lon="2.6718330">
        <ele>391.8</ele>
        <time>2020-07-21T07:04:43Z</time>
      </trkpt>
      <trkpt lat="42.4926760" lon="2.6717990">
        <ele>392.0</ele>
        <time>2020-07-21T07:04:44Z</time>
      </trkpt>
      <trkpt lat="42.4927170" lon="2.6716590">
        <ele>392.8</ele>
        <time>2020-07-21T07:04:48Z</time>
      </trkpt>
      <trkpt lat="42.4927260" lon="2.6716220">
        <ele>393.2</ele>
        <time>2020-07-21T07:04:49Z</time>
      </trkpt>
      <trkpt lat="42.4927690" lon="2.6715200">
        <ele>393.6</ele>
        <time>2020-07-21T07:04:52Z</time>
      </trkpt>
      <trkpt lat="42.4928430" lon="2.6714030">
        <ele>394.4</ele>
        <time>2020-07-21T07:04:56Z</time>
      </trkpt>
      <trkpt lat="42.4929100" lon="2.6713320">
        <ele>394.6</ele>
        <time>2020-07-21T07:04:59Z</time>
      </trkpt>
      <trkpt lat="42.4929930" lon="2.6712450">
        <ele>395.4</ele>
        <time>2020-07-21T07:05:03Z</time>
      </trkpt>
      <trkpt lat="42.4931010" lon="2.6711040">
        <ele>396.6</ele>
        <time>2020-07-21T07:05:09Z</time>
      </trkpt>
      <trkpt lat="42.4931180" lon="2.6710760">
        <ele>397.0</ele>
        <time>2020-07-21T07:05:10Z</time>
      </trkpt>
      <trkpt lat="42.4931760" lon="2.6709490">
        <ele>397.8</ele>
        <time>2020-07-21T07:05:14Z</time>
      </trkpt>
      <trkpt lat="42.4932390" lon="2.6707830">
        <ele>398.4</ele>
        <time>2020-07-21T07:05:19Z</time>
      </trkpt>
      <trkpt lat="42.4932740" lon="2.6706330">
        <ele>399.0</ele>
        <time>2020-07-21T07:05:23Z</time>
      </trkpt>
      <trkpt lat="42.4932760" lon="2.6705460">
        <ele>399.2</ele>
        <time>2020-07-21T07:05:25Z</time>
      </trkpt>
      <trkpt lat="42.4932860" lon="2.6703410">
        <ele>400.0</ele>
        <time>2020-07-21T07:05:30Z</time>
      </trkpt>
      <trkpt lat="42.4933470" lon="2.6702400">
        <ele>400.4</ele>
        <time>2020-07-21T07:05:33Z</time>
      </trkpt>
      <trkpt lat="42.4934050" lon="2.6702060">
        <ele>400.6</ele>
        <time>2020-07-21T07:05:35Z</time>
      </trkpt>
      <trkpt lat="42.4934660" lon="2.6702140">
        <ele>400.6</ele>
        <time>2020-07-21T07:05:37Z</time>
      </trkpt>
      <trkpt lat="42.4935640" lon="2.6703050">
        <ele>401.2</ele>
        <time>2020-07-21T07:05:41Z</time>
      </trkpt>
      <trkpt lat="42.4935840" lon="2.6703350">
        <ele>401.6</ele>
        <time>2020-07-21T07:05:42Z</time>
      </trkpt>
      <trkpt lat="42.4936580" lon="2.6704810">
        <ele>402.2</ele>
        <time>2020-07-21T07:05:46Z</time>
      </trkpt>
      <trkpt lat="42.4937120" lon="2.6706010">
        <ele>402.2</ele>
        <time>2020-07-21T07:05:49Z</time>
      </trkpt>
      <trkpt lat="42.4938050" lon="2.6708240">
        <ele>403.2</ele>
        <time>2020-07-21T07:05:55Z</time>
      </trkpt>
      <trkpt lat="42.4938610" lon="2.6709770">
        <ele>404.0</ele>
        <time>2020-07-21T07:05:59Z</time>
      </trkpt>
      <trkpt lat="42.4938720" lon="2.6710140">
        <ele>404.4</ele>
        <time>2020-07-21T07:06:00Z</time>
      </trkpt>
      <trkpt lat="42.4939040" lon="2.6711290">
        <ele>405.2</ele>
        <time>2020-07-21T07:06:03Z</time>
      </trkpt>
      <trkpt lat="42.4939180" lon="2.6711660">
        <ele>405.4</ele>
        <time>2020-07-21T07:06:04Z</time>
      </trkpt>
      <trkpt lat="42.4939640" lon="2.6712650">
        <ele>405.8</ele>
        <time>2020-07-21T07:06:07Z</time>
      </trkpt>
      <trkpt lat="42.4940370" lon="2.6714370">
        <ele>406.6</ele>
        <time>2020-07-21T07:06:12Z</time>
      </trkpt>
      <trkpt lat="42.4940740" lon="2.6714990">
        <ele>407.0</ele>
        <time>2020-07-21T07:06:14Z</time>
      </trkpt>
      <trkpt lat="42.4941470" lon="2.6716160">
        <ele>407.6</ele>
        <time>2020-07-21T07:06:18Z</time>
      </trkpt>
      <trkpt lat="42.4942270" lon="2.6717290">
        <ele>408.4</ele>
        <time>2020-07-21T07:06:22Z</time>
      </trkpt>
      <trkpt lat="42.4942880" lon="2.6718040">
        <ele>408.8</ele>
        <time>2020-07-21T07:06:25Z</time>
      </trkpt>
      <trkpt lat="42.4943730" lon="2.6718910">
        <ele>410.0</ele>
        <time>2020-07-21T07:06:29Z</time>
      </trkpt>
      <trkpt lat="42.4943910" lon="2.6719070">
        <ele>410.2</ele>
        <time>2020-07-21T07:06:30Z</time>
      </trkpt>
      <trkpt lat="42.4945350" lon="2.6720020">
        <ele>411.0</ele>
        <time>2020-07-21T07:06:36Z</time>
      </trkpt>
      <trkpt lat="42.4945580" lon="2.6720050">
        <ele>411.0</ele>
        <time>2020-07-21T07:06:37Z</time>
      </trkpt>
      <trkpt lat="42.4946060" lon="2.6720030">
        <ele>411.0</ele>
        <time>2020-07-21T07:06:39Z</time>
      </trkpt>
      <trkpt lat="42.4946900" lon="2.6719550">
        <ele>411.2</ele>
        <time>2020-07-21T07:06:43Z</time>
      </trkpt>
      <trkpt lat="42.4947670" lon="2.6718520">
        <ele>412.2</ele>
        <time>2020-07-21T07:06:47Z</time>
      </trkpt>
      <trkpt lat="42.4948140" lon="2.6717860">
        <ele>412.2</ele>
        <time>2020-07-21T07:06:49Z</time>
      </trkpt>
      <trkpt lat="42.4949210" lon="2.6715420">
        <ele>413.0</ele>
        <time>2020-07-21T07:06:55Z</time>
      </trkpt>
      <trkpt lat="42.4949410" lon="2.6714570">
        <ele>413.4</ele>
        <time>2020-07-21T07:06:57Z</time>
      </trkpt>
      <trkpt lat="42.4949500" lon="2.6713180">
        <ele>413.8</ele>
        <time>2020-07-21T07:07:00Z</time>
      </trkpt>
      <trkpt lat="42.4949560" lon="2.6712720">
        <ele>413.8</ele>
        <time>2020-07-21T07:07:01Z</time>
      </trkpt>
      <trkpt lat="42.4949660" lon="2.6711420">
        <ele>414.4</ele>
        <time>2020-07-21T07:07:04Z</time>
      </trkpt>
      <trkpt lat="42.4950040" lon="2.6709470">
        <ele>415.2</ele>
        <time>2020-07-21T07:07:09Z</time>
      </trkpt>
      <trkpt lat="42.4950260" lon="2.6708830">
        <ele>415.4</ele>
        <time>2020-07-21T07:07:11Z</time>
      </trkpt>
      <trkpt lat="42.4950660" lon="2.6707810">
        <ele>416.2</ele>
        <time>2020-07-21T07:07:14Z</time>
      </trkpt>
      <trkpt lat="42.4950780" lon="2.6707500">
        <ele>416.6</ele>
        <time>2020-07-21T07:07:15Z</time>
      </trkpt>
      <trkpt lat="42.4951170" lon="2.6706880">
        <ele>416.8</ele>
        <time>2020-07-21T07:07:17Z</time>
      </trkpt>
      <trkpt lat="42.4951750" lon="2.6705910">
        <ele>417.0</ele>
        <time>2020-07-21T07:07:20Z</time>
      </trkpt>
      <trkpt lat="42.4951890" lon="2.6705570">
        <ele>417.2</ele>
        <time>2020-07-21T07:07:21Z</time>
      </trkpt>
      <trkpt lat="42.4952220" lon="2.6704920">
        <ele>417.4</ele>
        <time>2020-07-21T07:07:23Z</time>
      </trkpt>
      <trkpt lat="42.4953140" lon="2.6703410">
        <ele>417.6</ele>
        <time>2020-07-21T07:07:27Z</time>
      </trkpt>
      <trkpt lat="42.4953580" lon="2.6702590">
        <ele>417.6</ele>
        <time>2020-07-21T07:07:29Z</time>
      </trkpt>
      <trkpt lat="42.4954830" lon="2.6699740">
        <ele>417.4</ele>
        <time>2020-07-21T07:07:35Z</time>
      </trkpt>
      <trkpt lat="42.4955160" lon="2.6698660">
        <ele>417.4</ele>
        <time>2020-07-21T07:07:37Z</time>
      </trkpt>
      <trkpt lat="42.4955450" lon="2.6697480">
        <ele>417.0</ele>
        <time>2020-07-21T07:07:39Z</time>
      </trkpt>
      <trkpt lat="42.4955580" lon="2.6696860">
        <ele>417.0</ele>
        <time>2020-07-21T07:07:40Z</time>
      </trkpt>
      <trkpt lat="42.4955930" lon="2.6695550">
        <ele>416.6</ele>
        <time>2020-07-21T07:07:42Z</time>
      </trkpt>
      <trkpt lat="42.4956120" lon="2.6694830">
        <ele>416.4</ele>
        <time>2020-07-21T07:07:43Z</time>
      </trkpt>
      <trkpt lat="42.4956360" lon="2.6694170">
        <ele>416.4</ele>
        <time>2020-07-21T07:07:44Z</time>
      </trkpt>
      <trkpt lat="42.4958190" lon="2.6690670">
        <ele>415.2</ele>
        <time>2020-07-21T07:07:49Z</time>
      </trkpt>
      <trkpt lat="42.4959020" lon="2.6688490">
        <ele>414.6</ele>
        <time>2020-07-21T07:07:52Z</time>
      </trkpt>
      <trkpt lat="42.4959580" lon="2.6686280">
        <ele>414.4</ele>
        <time>2020-07-21T07:07:55Z</time>
      </trkpt>
      <trkpt lat="42.4960190" lon="2.6684760">
        <ele>414.2</ele>
        <time>2020-07-21T07:07:57Z</time>
      </trkpt>
      <trkpt lat="42.4960640" lon="2.6684060">
        <ele>414.0</ele>
        <time>2020-07-21T07:07:58Z</time>
      </trkpt>
      <trkpt lat="42.4961160" lon="2.6683430">
        <ele>413.8</ele>
        <time>2020-07-21T07:07:59Z</time>
      </trkpt>
      <trkpt lat="42.4962360" lon="2.6682330">
        <ele>413.4</ele>
        <time>2020-07-21T07:08:01Z</time>
      </trkpt>
      <trkpt lat="42.4963570" lon="2.6681390">
        <ele>412.8</ele>
        <time>2020-07-21T07:08:03Z</time>
      </trkpt>
      <trkpt lat="42.4964180" lon="2.6680960">
        <ele>412.6</ele>
        <time>2020-07-21T07:08:04Z</time>
      </trkpt>
      <trkpt lat="42.4965370" lon="2.6679940">
        <ele>412.2</ele>
        <time>2020-07-21T07:08:06Z</time>
      </trkpt>
      <trkpt lat="42.4965910" lon="2.6679340">
        <ele>412.0</ele>
        <time>2020-07-21T07:08:07Z</time>
      </trkpt>
      <trkpt lat="42.4966370" lon="2.6678680">
        <ele>411.8</ele>
        <time>2020-07-21T07:08:08Z</time>
      </trkpt>
      <trkpt lat="42.4966680" lon="2.6677860">
        <ele>411.6</ele>
        <time>2020-07-21T07:08:09Z</time>
      </trkpt>
      <trkpt lat="42.4966900" lon="2.6676940">
        <ele>411.4</ele>
        <time>2020-07-21T07:08:10Z</time>
      </trkpt>
      <trkpt lat="42.4967020" lon="2.6675930">
        <ele>411.2</ele>
        <time>2020-07-21T07:08:11Z</time>
      </trkpt>
      <trkpt lat="42.4967450" lon="2.6672790">
        <ele>410.6</ele>
        <time>2020-07-21T07:08:14Z</time>
      </trkpt>
      <trkpt lat="42.4968170" lon="2.6670890">
        <ele>410.2</ele>
        <time>2020-07-21T07:08:16Z</time>
      </trkpt>
      <trkpt lat="42.4969480" lon="2.6668640">
        <ele>409.6</ele>
        <time>2020-07-21T07:08:19Z</time>
      </trkpt>
      <trkpt lat="42.4969840" lon="2.6667850">
        <ele>409.4</ele>
        <time>2020-07-21T07:08:20Z</time>
      </trkpt>
      <trkpt lat="42.4970240" lon="2.6666120">
        <ele>409.4</ele>
        <time>2020-07-21T07:08:22Z</time>
      </trkpt>
      <trkpt lat="42.4970270" lon="2.6664240">
        <ele>409.2</ele>
        <time>2020-07-21T07:08:24Z</time>
      </trkpt>
      <trkpt lat="42.4970200" lon="2.6663340">
        <ele>409.0</ele>
        <time>2020-07-21T07:08:25Z</time>
      </trkpt>
      <trkpt lat="42.4969700" lon="2.6660840">
        <ele>409.0</ele>
        <time>2020-07-21T07:08:28Z</time>
      </trkpt>
      <trkpt lat="42.4969460" lon="2.6660120">
        <ele>409.0</ele>
        <time>2020-07-21T07:08:29Z</time>
      </trkpt>
      <trkpt lat="42.4969220" lon="2.6659420">
        <ele>409.2</ele>
        <time>2020-07-21T07:08:30Z</time>
      </trkpt>
      <trkpt lat="42.4968620" lon="2.6658140">
        <ele>409.6</ele>
        <time>2020-07-21T07:08:32Z</time>
      </trkpt>
      <trkpt lat="42.4968280" lon="2.6657610">
        <ele>410.0</ele>
        <time>2020-07-21T07:08:33Z</time>
      </trkpt>
      <trkpt lat="42.4967810" lon="2.6656460">
        <ele>410.2</ele>
        <time>2020-07-21T07:08:35Z</time>
      </trkpt>
      <trkpt lat="42.4967730" lon="2.6655850">
        <ele>410.4</ele>
        <time>2020-07-21T07:08:36Z</time>
      </trkpt>
      <trkpt lat="42.4967750" lon="2.6655270">
        <ele>410.6</ele>
        <time>2020-07-21T07:08:37Z</time>
      </trkpt>
      <trkpt lat="42.4968040" lon="2.6654190">
        <ele>411.2</ele>
        <time>2020-07-21T07:08:39Z</time>
      </trkpt>
      <trkpt lat="42.4968280" lon="2.6653740">
        <ele>411.8</ele>
        <time>2020-07-21T07:08:40Z</time>
      </trkpt>
      <trkpt lat="42.4968560" lon="2.6653360">
        <ele>412.2</ele>
        <time>2020-07-21T07:08:41Z</time>
      </trkpt>
      <trkpt lat="42.4969920" lon="2.6651680">
        <ele>412.8</ele>
        <time>2020-07-21T07:08:46Z</time>
      </trkpt>
      <trkpt lat="42.4970190" lon="2.6651360">
        <ele>412.8</ele>
        <time>2020-07-21T07:08:47Z</time>
      </trkpt>
      <trkpt lat="42.4970470" lon="2.6651030">
        <ele>413.0</ele>
        <time>2020-07-21T07:08:48Z</time>
      </trkpt>
      <trkpt lat="42.4971690" lon="2.6648750">
        <ele>413.8</ele>
        <time>2020-07-21T07:08:54Z</time>
      </trkpt>
      <trkpt lat="42.4971870" lon="2.6648360">
        <ele>414.0</ele>
        <time>2020-07-21T07:08:55Z</time>
      </trkpt>
      <trkpt lat="42.4972960" lon="2.6645480">
        <ele>415.0</ele>
        <time>2020-07-21T07:09:01Z</time>
      </trkpt>
      <trkpt lat="42.4973180" lon="2.6644960">
        <ele>415.0</ele>
        <time>2020-07-21T07:09:02Z</time>
      </trkpt>
      <trkpt lat="42.4973660" lon="2.6642580">
        <ele>415.2</ele>
        <time>2020-07-21T07:09:06Z</time>
      </trkpt>
      <trkpt lat="42.4973590" lon="2.6641270">
        <ele>415.2</ele>
        <time>2020-07-21T07:09:08Z</time>
      </trkpt>
      <trkpt lat="42.4973230" lon="2.6638360">
        <ele>416.0</ele>
        <time>2020-07-21T07:09:13Z</time>
      </trkpt>
      <trkpt lat="42.4973080" lon="2.6637310">
        <ele>416.2</ele>
        <time>2020-07-21T07:09:15Z</time>
      </trkpt>
      <trkpt lat="42.4973090" lon="2.6636220">
        <ele>416.2</ele>
        <time>2020-07-21T07:09:17Z</time>
      </trkpt>
      <trkpt lat="42.4973420" lon="2.6635090">
        <ele>416.4</ele>
        <time>2020-07-21T07:09:19Z</time>
      </trkpt>
      <trkpt lat="42.4973670" lon="2.6634610">
        <ele>416.4</ele>
        <time>2020-07-21T07:09:20Z</time>
      </trkpt>
      <trkpt lat="42.4974230" lon="2.6633730">
        <ele>417.0</ele>
        <time>2020-07-21T07:09:22Z</time>
      </trkpt>
      <trkpt lat="42.4974530" lon="2.6633330">
        <ele>417.2</ele>
        <time>2020-07-21T07:09:23Z</time>
      </trkpt>
      <trkpt lat="42.4975490" lon="2.6632180">
        <ele>417.8</ele>
        <time>2020-07-21T07:09:26Z</time>
      </trkpt>
      <trkpt lat="42.4976970" lon="2.6630880">
        <ele>418.4</ele>
        <time>2020-07-21T07:09:30Z</time>
      </trkpt>
      <trkpt lat="42.4977360" lon="2.6630630">
        <ele>418.4</ele>
        <time>2020-07-21T07:09:31Z</time>
      </trkpt>
      <trkpt lat="42.4978160" lon="2.6630160">
        <ele>418.6</ele>
        <time>2020-07-21T07:09:33Z</time>
      </trkpt>
      <trkpt lat="42.4980490" lon="2.6628750">
        <ele>419.4</ele>
        <time>2020-07-21T07:09:39Z</time>
      </trkpt>
      <trkpt lat="42.4980900" lon="2.6628520">
        <ele>419.6</ele>
        <time>2020-07-21T07:09:40Z</time>
      </trkpt>
      <trkpt lat="42.4983340" lon="2.6627410">
        <ele>420.0</ele>
        <time>2020-07-21T07:09:46Z</time>
      </trkpt>
      <trkpt lat="42.4984140" lon="2.6627080">
        <ele>420.4</ele>
        <time>2020-07-21T07:09:48Z</time>
      </trkpt>
      <trkpt lat="42.4984510" lon="2.6626940">
        <ele>420.6</ele>
        <time>2020-07-21T07:09:49Z</time>
      </trkpt>
      <trkpt lat="42.4985250" lon="2.6626540">
        <ele>421.0</ele>
        <time>2020-07-21T07:09:51Z</time>
      </trkpt>
      <trkpt lat="42.4986350" lon="2.6625820">
        <ele>421.2</ele>
        <time>2020-07-21T07:09:54Z</time>
      </trkpt>
      <trkpt lat="42.4986690" lon="2.6625550">
        <ele>421.4</ele>
        <time>2020-07-21T07:09:55Z</time>
      </trkpt>
      <trkpt lat="42.4987020" lon="2.6625240">
        <ele>421.8</ele>
        <time>2020-07-21T07:09:56Z</time>
      </trkpt>
      <trkpt lat="42.4988920" lon="2.6623260">
        <ele>422.8</ele>
        <time>2020-07-21T07:10:02Z</time>
      </trkpt>
      <trkpt lat="42.4989210" lon="2.6622850">
        <ele>422.8</ele>
        <time>2020-07-21T07:10:03Z</time>
      </trkpt>
      <trkpt lat="42.4989490" lon="2.6622410">
        <ele>423.0</ele>
        <time>2020-07-21T07:10:04Z</time>
      </trkpt>
      <trkpt lat="42.4990400" lon="2.6620050">
        <ele>423.2</ele>
        <time>2020-07-21T07:10:09Z</time>
      </trkpt>
      <trkpt lat="42.4990820" lon="2.6616860">
        <ele>424.0</ele>
        <time>2020-07-21T07:10:15Z</time>
      </trkpt>
      <trkpt lat="42.4991030" lon="2.6615760">
        <ele>424.4</ele>
        <time>2020-07-21T07:10:17Z</time>
      </trkpt>
      <trkpt lat="42.4991410" lon="2.6614750">
        <ele>424.4</ele>
        <time>2020-07-21T07:10:19Z</time>
      </trkpt>
      <trkpt lat="42.4991640" lon="2.6614280">
        <ele>424.6</ele>
        <time>2020-07-21T07:10:20Z</time>
      </trkpt>
      <trkpt lat="42.4992490" lon="2.6612490">
        <ele>425.2</ele>
        <time>2020-07-21T07:10:24Z</time>
      </trkpt>
      <trkpt lat="42.4993770" lon="2.6610360">
        <ele>426.2</ele>
        <time>2020-07-21T07:10:29Z</time>
      </trkpt>
      <trkpt lat="42.4994040" lon="2.6609940">
        <ele>426.4</ele>
        <time>2020-07-21T07:10:30Z</time>
      </trkpt>
      <trkpt lat="42.4994740" lon="2.6607490">
        <ele>427.0</ele>
        <time>2020-07-21T07:10:35Z</time>
      </trkpt>
      <trkpt lat="42.4994690" lon="2.6605760">
        <ele>427.6</ele>
        <time>2020-07-21T07:10:38Z</time>
      </trkpt>
      <trkpt lat="42.4994710" lon="2.6603400">
        <ele>428.4</ele>
        <time>2020-07-21T07:10:42Z</time>
      </trkpt>
      <trkpt lat="42.4995730" lon="2.6599900">
        <ele>428.6</ele>
        <time>2020-07-21T07:10:48Z</time>
      </trkpt>
      <trkpt lat="42.4996090" lon="2.6598610">
        <ele>428.6</ele>
        <time>2020-07-21T07:10:50Z</time>
      </trkpt>
      <trkpt lat="42.4996810" lon="2.6595510">
        <ele>429.6</ele>
        <time>2020-07-21T07:10:55Z</time>
      </trkpt>
      <trkpt lat="42.4996820" lon="2.6594800">
        <ele>429.6</ele>
        <time>2020-07-21T07:10:56Z</time>
      </trkpt>
      <trkpt lat="42.4996750" lon="2.6594080">
        <ele>430.0</ele>
        <time>2020-07-21T07:10:57Z</time>
      </trkpt>
      <trkpt lat="42.4996440" lon="2.6592710">
        <ele>430.2</ele>
        <time>2020-07-21T07:10:59Z</time>
      </trkpt>
      <trkpt lat="42.4996280" lon="2.6592040">
        <ele>430.2</ele>
        <time>2020-07-21T07:11:00Z</time>
      </trkpt>
      <trkpt lat="42.4995790" lon="2.6587990">
        <ele>430.2</ele>
        <time>2020-07-21T07:11:06Z</time>
      </trkpt>
      <trkpt lat="42.4995580" lon="2.6586640">
        <ele>430.2</ele>
        <time>2020-07-21T07:11:08Z</time>
      </trkpt>
      <trkpt lat="42.4995150" lon="2.6585360">
        <ele>430.0</ele>
        <time>2020-07-21T07:11:10Z</time>
      </trkpt>
      <trkpt lat="42.4994870" lon="2.6584810">
        <ele>430.0</ele>
        <time>2020-07-21T07:11:11Z</time>
      </trkpt>
      <trkpt lat="42.4994500" lon="2.6584320">
        <ele>430.0</ele>
        <time>2020-07-21T07:11:12Z</time>
      </trkpt>
      <trkpt lat="42.4992780" lon="2.6582580">
        <ele>430.0</ele>
        <time>2020-07-21T07:11:16Z</time>
      </trkpt>
      <trkpt lat="42.4992390" lon="2.6581980">
        <ele>430.0</ele>
        <time>2020-07-21T07:11:17Z</time>
      </trkpt>
      <trkpt lat="42.4991860" lon="2.6580500">
        <ele>430.0</ele>
        <time>2020-07-21T07:11:19Z</time>
      </trkpt>
      <trkpt lat="42.4991710" lon="2.6579760">
        <ele>429.8</ele>
        <time>2020-07-21T07:11:20Z</time>
      </trkpt>
      <trkpt lat="42.4991670" lon="2.6579020">
        <ele>429.8</ele>
        <time>2020-07-21T07:11:21Z</time>
      </trkpt>
      <trkpt lat="42.4991530" lon="2.6577610">
        <ele>429.6</ele>
        <time>2020-07-21T07:11:23Z</time>
      </trkpt>
      <trkpt lat="42.4991420" lon="2.6576880">
        <ele>429.6</ele>
        <time>2020-07-21T07:11:24Z</time>
      </trkpt>
      <trkpt lat="42.4990790" lon="2.6574910">
        <ele>429.8</ele>
        <time>2020-07-21T07:11:27Z</time>
      </trkpt>
      <trkpt lat="42.4990050" lon="2.6573800">
        <ele>430.0</ele>
        <time>2020-07-21T07:11:29Z</time>
      </trkpt>
      <trkpt lat="42.4988740" lon="2.6572540">
        <ele>430.4</ele>
        <time>2020-07-21T07:11:32Z</time>
      </trkpt>
      <trkpt lat="42.4987760" lon="2.6571980">
        <ele>430.6</ele>
        <time>2020-07-21T07:11:34Z</time>
      </trkpt>
      <trkpt lat="42.4986740" lon="2.6571520">
        <ele>430.8</ele>
        <time>2020-07-21T07:11:36Z</time>
      </trkpt>
      <trkpt lat="42.4985710" lon="2.6570850">
        <ele>430.8</ele>
        <time>2020-07-21T07:11:38Z</time>
      </trkpt>
      <trkpt lat="42.4985400" lon="2.6570330">
        <ele>431.0</ele>
        <time>2020-07-21T07:11:39Z</time>
      </trkpt>
      <trkpt lat="42.4985320" lon="2.6569650">
        <ele>431.0</ele>
        <time>2020-07-21T07:11:40Z</time>
      </trkpt>
      <trkpt lat="42.4985430" lon="2.6568160">
        <ele>431.0</ele>
        <time>2020-07-21T07:11:42Z</time>
      </trkpt>
      <trkpt lat="42.4986030" lon="2.6566940">
        <ele>430.8</ele>
        <time>2020-07-21T07:11:44Z</time>
      </trkpt>
      <trkpt lat="42.4986400" lon="2.6566440">
        <ele>430.8</ele>
        <time>2020-07-21T07:11:45Z</time>
      </trkpt>
      <trkpt lat="42.4988110" lon="2.6564320">
        <ele>431.2</ele>
        <time>2020-07-21T07:11:50Z</time>
      </trkpt>
      <trkpt lat="42.4988460" lon="2.6563990">
        <ele>431.2</ele>
        <time>2020-07-21T07:11:51Z</time>
      </trkpt>
      <trkpt lat="42.4990100" lon="2.6563310">
        <ele>431.4</ele>
        <time>2020-07-21T07:11:55Z</time>
      </trkpt>
      <trkpt lat="42.4992660" lon="2.6562070">
        <ele>431.6</ele>
        <time>2020-07-21T07:12:01Z</time>
      </trkpt>
      <trkpt lat="42.4993070" lon="2.6561840">
        <ele>431.8</ele>
        <time>2020-07-21T07:12:02Z</time>
      </trkpt>
      <trkpt lat="42.4993460" lon="2.6561590">
        <ele>431.8</ele>
        <time>2020-07-21T07:12:03Z</time>
      </trkpt>
      <trkpt lat="42.4995430" lon="2.6560840">
        <ele>432.0</ele>
        <time>2020-07-21T07:12:07Z</time>
      </trkpt>
      <trkpt lat="42.4995940" lon="2.6560760">
        <ele>432.0</ele>
        <time>2020-07-21T07:12:08Z</time>
      </trkpt>
      <trkpt lat="42.4998220" lon="2.6560930">
        <ele>432.2</ele>
        <time>2020-07-21T07:12:12Z</time>
      </trkpt>
      <trkpt lat="42.4998740" lon="2.6561220">
        <ele>432.4</ele>
        <time>2020-07-21T07:12:13Z</time>
      </trkpt>
      <trkpt lat="42.5000200" lon="2.6562100">
        <ele>432.8</ele>
        <time>2020-07-21T07:12:16Z</time>
      </trkpt>
      <trkpt lat="42.5001130" lon="2.6562670">
        <ele>432.8</ele>
        <time>2020-07-21T07:12:18Z</time>
      </trkpt>
      <trkpt lat="42.5001590" lon="2.6562910">
        <ele>432.8</ele>
        <time>2020-07-21T07:12:19Z</time>
      </trkpt>
      <trkpt lat="42.5004200" lon="2.6563910">
        <ele>432.8</ele>
        <time>2020-07-21T07:12:25Z</time>
      </trkpt>
      <trkpt lat="42.5005010" lon="2.6564000">
        <ele>433.0</ele>
        <time>2020-07-21T07:12:27Z</time>
      </trkpt>
      <trkpt lat="42.5006520" lon="2.6564070">
        <ele>433.0</ele>
        <time>2020-07-21T07:12:30Z</time>
      </trkpt>
      <trkpt lat="42.5007540" lon="2.6564260">
        <ele>433.0</ele>
        <time>2020-07-21T07:12:32Z</time>
      </trkpt>
      <trkpt lat="42.5008600" lon="2.6564440">
        <ele>432.8</ele>
        <time>2020-07-21T07:12:34Z</time>
      </trkpt>
      <trkpt lat="42.5010700" lon="2.6564300">
        <ele>432.6</ele>
        <time>2020-07-21T07:12:38Z</time>
      </trkpt>
      <trkpt lat="42.5011250" lon="2.6564260">
        <ele>432.6</ele>
        <time>2020-07-21T07:12:39Z</time>
      </trkpt>
      <trkpt lat="42.5013350" lon="2.6563950">
        <ele>432.8</ele>
        <time>2020-07-21T07:12:43Z</time>
      </trkpt>
      <trkpt lat="42.5014880" lon="2.6563740">
        <ele>432.6</ele>
        <time>2020-07-21T07:12:46Z</time>
      </trkpt>
      <trkpt lat="42.5016820" lon="2.6563490">
        <ele>432.6</ele>
        <time>2020-07-21T07:12:50Z</time>
      </trkpt>
      <trkpt lat="42.5017650" lon="2.6563010">
        <ele>432.8</ele>
        <time>2020-07-21T07:12:52Z</time>
      </trkpt>
      <trkpt lat="42.5018400" lon="2.6562150">
        <ele>432.8</ele>
        <time>2020-07-21T07:12:54Z</time>
      </trkpt>
      <trkpt lat="42.5019070" lon="2.6561060">
        <ele>432.8</ele>
        <time>2020-07-21T07:12:56Z</time>
      </trkpt>
      <trkpt lat="42.5020340" lon="2.6557920">
        <ele>432.4</ele>
        <time>2020-07-21T07:13:01Z</time>
      </trkpt>
      <trkpt lat="42.5020800" lon="2.6556670">
        <ele>432.2</ele>
        <time>2020-07-21T07:13:03Z</time>
      </trkpt>
      <trkpt lat="42.5021480" lon="2.6553960">
        <ele>432.2</ele>
        <time>2020-07-21T07:13:07Z</time>
      </trkpt>
      <trkpt lat="42.5021610" lon="2.6552460">
        <ele>432.4</ele>
        <time>2020-07-21T07:13:09Z</time>
      </trkpt>
      <trkpt lat="42.5021620" lon="2.6551680">
        <ele>432.4</ele>
        <time>2020-07-21T07:13:10Z</time>
      </trkpt>
      <trkpt lat="42.5021050" lon="2.6549500">
        <ele>432.4</ele>
        <time>2020-07-21T07:13:13Z</time>
      </trkpt>
      <trkpt lat="42.5019320" lon="2.6546810">
        <ele>432.2</ele>
        <time>2020-07-21T07:13:18Z</time>
      </trkpt>
      <trkpt lat="42.5018790" lon="2.6545670">
        <ele>432.0</ele>
        <time>2020-07-21T07:13:20Z</time>
      </trkpt>
      <trkpt lat="42.5018560" lon="2.6544370">
        <ele>431.8</ele>
        <time>2020-07-21T07:13:22Z</time>
      </trkpt>
      <trkpt lat="42.5018730" lon="2.6543080">
        <ele>431.8</ele>
        <time>2020-07-21T07:13:24Z</time>
      </trkpt>
      <trkpt lat="42.5019140" lon="2.6541920">
        <ele>432.0</ele>
        <time>2020-07-21T07:13:26Z</time>
      </trkpt>
      <trkpt lat="42.5020830" lon="2.6539810">
        <ele>432.2</ele>
        <time>2020-07-21T07:13:31Z</time>
      </trkpt>
      <trkpt lat="42.5023130" lon="2.6537940">
        <ele>432.0</ele>
        <time>2020-07-21T07:13:37Z</time>
      </trkpt>
      <trkpt lat="42.5023650" lon="2.6537480">
        <ele>432.0</ele>
        <time>2020-07-21T07:13:38Z</time>
      </trkpt>
      <trkpt lat="42.5024040" lon="2.6537000">
        <ele>432.0</ele>
        <time>2020-07-21T07:13:39Z</time>
      </trkpt>
      <trkpt lat="42.5024670" lon="2.6535780">
        <ele>432.0</ele>
        <time>2020-07-21T07:13:41Z</time>
      </trkpt>
      <trkpt lat="42.5024950" lon="2.6535050">
        <ele>432.0</ele>
        <time>2020-07-21T07:13:42Z</time>
      </trkpt>
      <trkpt lat="42.5025150" lon="2.6534280">
        <ele>432.0</ele>
        <time>2020-07-21T07:13:43Z</time>
      </trkpt>
      <trkpt lat="42.5025500" lon="2.6531830">
        <ele>431.8</ele>
        <time>2020-07-21T07:13:46Z</time>
      </trkpt>
      <trkpt lat="42.5025550" lon="2.6531050">
        <ele>431.6</ele>
        <time>2020-07-21T07:13:47Z</time>
      </trkpt>
      <trkpt lat="42.5025620" lon="2.6527070">
        <ele>432.4</ele>
        <time>2020-07-21T07:13:53Z</time>
      </trkpt>
      <trkpt lat="42.5025580" lon="2.6524450">
        <ele>432.4</ele>
        <time>2020-07-21T07:13:57Z</time>
      </trkpt>
      <trkpt lat="42.5025730" lon="2.6522540">
        <ele>432.6</ele>
        <time>2020-07-21T07:14:00Z</time>
      </trkpt>
      <trkpt lat="42.5025780" lon="2.6521840">
        <ele>432.8</ele>
        <time>2020-07-21T07:14:01Z</time>
      </trkpt>
      <trkpt lat="42.5025840" lon="2.6519800">
        <ele>432.8</ele>
        <time>2020-07-21T07:14:04Z</time>
      </trkpt>
      <trkpt lat="42.5025720" lon="2.6518490">
        <ele>432.8</ele>
        <time>2020-07-21T07:14:06Z</time>
      </trkpt>
      <trkpt lat="42.5024860" lon="2.6515900">
        <ele>433.0</ele>
        <time>2020-07-21T07:14:10Z</time>
      </trkpt>
      <trkpt lat="42.5024550" lon="2.6515280">
        <ele>433.0</ele>
        <time>2020-07-21T07:14:11Z</time>
      </trkpt>
      <trkpt lat="42.5023630" lon="2.6513300">
        <ele>432.6</ele>
        <time>2020-07-21T07:14:14Z</time>
      </trkpt>
      <trkpt lat="42.5022760" lon="2.6510490">
        <ele>432.0</ele>
        <time>2020-07-21T07:14:18Z</time>
      </trkpt>
      <trkpt lat="42.5021690" lon="2.6506940">
        <ele>432.4</ele>
        <time>2020-07-21T07:14:23Z</time>
      </trkpt>
      <trkpt lat="42.5021350" lon="2.6506420">
        <ele>432.4</ele>
        <time>2020-07-21T07:14:24Z</time>
      </trkpt>
      <trkpt lat="42.5020980" lon="2.6505960">
        <ele>432.4</ele>
        <time>2020-07-21T07:14:25Z</time>
      </trkpt>
      <trkpt lat="42.5019200" lon="2.6504530">
        <ele>432.2</ele>
        <time>2020-07-21T07:14:29Z</time>
      </trkpt>
      <trkpt lat="42.5018290" lon="2.6503790">
        <ele>432.2</ele>
        <time>2020-07-21T07:14:31Z</time>
      </trkpt>
      <trkpt lat="42.5017830" lon="2.6502700">
        <ele>432.4</ele>
        <time>2020-07-21T07:14:33Z</time>
      </trkpt>
      <trkpt lat="42.5018110" lon="2.6501450">
        <ele>432.6</ele>
        <time>2020-07-21T07:14:35Z</time>
      </trkpt>
      <trkpt lat="42.5018450" lon="2.6500950">
        <ele>432.8</ele>
        <time>2020-07-21T07:14:36Z</time>
      </trkpt>
      <trkpt lat="42.5019590" lon="2.6500150">
        <ele>433.2</ele>
        <time>2020-07-21T07:14:39Z</time>
      </trkpt>
      <trkpt lat="42.5019960" lon="2.6500040">
        <ele>433.4</ele>
        <time>2020-07-21T07:14:40Z</time>
      </trkpt>
      <trkpt lat="42.5020660" lon="2.6499850">
        <ele>434.0</ele>
        <time>2020-07-21T07:14:42Z</time>
      </trkpt>
      <trkpt lat="42.5021740" lon="2.6499900">
        <ele>435.2</ele>
        <time>2020-07-21T07:14:46Z</time>
      </trkpt>
      <trkpt lat="42.5022770" lon="2.6499920">
        <ele>435.6</ele>
        <time>2020-07-21T07:14:51Z</time>
      </trkpt>
      <trkpt lat="42.5023430" lon="2.6500040">
        <ele>435.8</ele>
        <time>2020-07-21T07:14:54Z</time>
      </trkpt>
      <trkpt lat="42.5024050" lon="2.6500200">
        <ele>436.2</ele>
        <time>2020-07-21T07:14:57Z</time>
      </trkpt>
      <trkpt lat="42.5024260" lon="2.6500250">
        <ele>436.4</ele>
        <time>2020-07-21T07:14:58Z</time>
      </trkpt>
      <trkpt lat="42.5025020" lon="2.6500340">
        <ele>437.0</ele>
        <time>2020-07-21T07:15:02Z</time>
      </trkpt>
      <trkpt lat="42.5025200" lon="2.6500370">
        <ele>437.2</ele>
        <time>2020-07-21T07:15:03Z</time>
      </trkpt>
      <trkpt lat="42.5025860" lon="2.6500600">
        <ele>437.4</ele>
        <time>2020-07-21T07:15:06Z</time>
      </trkpt>
      <trkpt lat="42.5026860" lon="2.6501340">
        <ele>438.0</ele>
        <time>2020-07-21T07:15:10Z</time>
      </trkpt>
      <trkpt lat="42.5027530" lon="2.6502360">
        <ele>438.2</ele>
        <time>2020-07-21T07:15:14Z</time>
      </trkpt>
      <trkpt lat="42.5027660" lon="2.6502690">
        <ele>438.4</ele>
        <time>2020-07-21T07:15:15Z</time>
      </trkpt>
      <trkpt lat="42.5027790" lon="2.6503040">
        <ele>438.6</ele>
        <time>2020-07-21T07:15:16Z</time>
      </trkpt>
      <trkpt lat="42.5028570" lon="2.6505080">
        <ele>439.6</ele>
        <time>2020-07-21T07:15:22Z</time>
      </trkpt>
      <trkpt lat="42.5028700" lon="2.6505390">
        <ele>439.8</ele>
        <time>2020-07-21T07:15:23Z</time>
      </trkpt>
      <trkpt lat="42.5029630" lon="2.6507090">
        <ele>441.0</ele>
        <time>2020-07-21T07:15:29Z</time>
      </trkpt>
      <trkpt lat="42.5030040" lon="2.6507480">
        <ele>441.4</ele>
        <time>2020-07-21T07:15:31Z</time>
      </trkpt>
      <trkpt lat="42.5030810" lon="2.6507920">
        <ele>441.8</ele>
        <time>2020-07-21T07:15:34Z</time>
      </trkpt>
      <trkpt lat="42.5031090" lon="2.6508040">
        <ele>442.0</ele>
        <time>2020-07-21T07:15:35Z</time>
      </trkpt>
      <trkpt lat="42.5031700" lon="2.6508240">
        <ele>442.4</ele>
        <time>2020-07-21T07:15:37Z</time>
      </trkpt>
      <trkpt lat="42.5032570" lon="2.6508420">
        <ele>443.0</ele>
        <time>2020-07-21T07:15:40Z</time>
      </trkpt>
      <trkpt lat="42.5033970" lon="2.6508760">
        <ele>444.4</ele>
        <time>2020-07-21T07:15:45Z</time>
      </trkpt>
      <trkpt lat="42.5035030" lon="2.6509640">
        <ele>445.0</ele>
        <time>2020-07-21T07:15:49Z</time>
      </trkpt>
      <trkpt lat="42.5035410" lon="2.6510230">
        <ele>445.2</ele>
        <time>2020-07-21T07:15:51Z</time>
      </trkpt>
      <trkpt lat="42.5035550" lon="2.6510580">
        <ele>445.4</ele>
        <time>2020-07-21T07:15:52Z</time>
      </trkpt>
      <trkpt lat="42.5036010" lon="2.6512510">
        <ele>446.2</ele>
        <time>2020-07-21T07:15:57Z</time>
      </trkpt>
      <trkpt lat="42.5036200" lon="2.6513210">
        <ele>446.6</ele>
        <time>2020-07-21T07:15:59Z</time>
      </trkpt>
      <trkpt lat="42.5036890" lon="2.6514780">
        <ele>447.4</ele>
        <time>2020-07-21T07:16:04Z</time>
      </trkpt>
      <trkpt lat="42.5037170" lon="2.6515360">
        <ele>447.6</ele>
        <time>2020-07-21T07:16:06Z</time>
      </trkpt>
      <trkpt lat="42.5038060" lon="2.6516830">
        <ele>448.8</ele>
        <time>2020-07-21T07:16:11Z</time>
      </trkpt>
      <trkpt lat="42.5038430" lon="2.6517280">
        <ele>449.0</ele>
        <time>2020-07-21T07:16:13Z</time>
      </trkpt>
      <trkpt lat="42.5039390" lon="2.6518670">
        <ele>450.0</ele>
        <time>2020-07-21T07:16:18Z</time>
      </trkpt>
      <trkpt lat="42.5039740" lon="2.6519200">
        <ele>450.4</ele>
        <time>2020-07-21T07:16:20Z</time>
      </trkpt>
      <trkpt lat="42.5040740" lon="2.6520600">
        <ele>451.2</ele>
        <time>2020-07-21T07:16:25Z</time>
      </trkpt>
      <trkpt lat="42.5041380" lon="2.6521380">
        <ele>451.6</ele>
        <time>2020-07-21T07:16:28Z</time>
      </trkpt>
      <trkpt lat="42.5041760" lon="2.6521920">
        <ele>452.2</ele>
        <time>2020-07-21T07:16:30Z</time>
      </trkpt>
      <trkpt lat="42.5042880" lon="2.6523500">
        <ele>453.2</ele>
        <time>2020-07-21T07:16:36Z</time>
      </trkpt>
      <trkpt lat="42.5043530" lon="2.6525610">
        <ele>454.0</ele>
        <time>2020-07-21T07:16:42Z</time>
      </trkpt>
      <trkpt lat="42.5043610" lon="2.6526520">
        <ele>454.4</ele>
        <time>2020-07-21T07:16:44Z</time>
      </trkpt>
      <trkpt lat="42.5043650" lon="2.6526980">
        <ele>454.6</ele>
        <time>2020-07-21T07:16:45Z</time>
      </trkpt>
      <trkpt lat="42.5043720" lon="2.6527360">
        <ele>454.6</ele>
        <time>2020-07-21T07:16:46Z</time>
      </trkpt>
      <trkpt lat="42.5043800" lon="2.6527740">
        <ele>454.8</ele>
        <time>2020-07-21T07:16:47Z</time>
      </trkpt>
      <trkpt lat="42.5043890" lon="2.6528130">
        <ele>455.0</ele>
        <time>2020-07-21T07:16:48Z</time>
      </trkpt>
      <trkpt lat="42.5044050" lon="2.6528960">
        <ele>455.4</ele>
        <time>2020-07-21T07:16:50Z</time>
      </trkpt>
      <trkpt lat="42.5044430" lon="2.6530440">
        <ele>455.8</ele>
        <time>2020-07-21T07:16:54Z</time>
      </trkpt>
      <trkpt lat="42.5045090" lon="2.6531610">
        <ele>456.6</ele>
        <time>2020-07-21T07:16:58Z</time>
      </trkpt>
      <trkpt lat="42.5045530" lon="2.6532030">
        <ele>457.0</ele>
        <time>2020-07-21T07:17:00Z</time>
      </trkpt>
      <trkpt lat="42.5046030" lon="2.6532300">
        <ele>457.2</ele>
        <time>2020-07-21T07:17:02Z</time>
      </trkpt>
      <trkpt lat="42.5046300" lon="2.6532390">
        <ele>457.4</ele>
        <time>2020-07-21T07:17:03Z</time>
      </trkpt>
      <trkpt lat="42.5046850" lon="2.6532520">
        <ele>457.8</ele>
        <time>2020-07-21T07:17:05Z</time>
      </trkpt>
      <trkpt lat="42.5047420" lon="2.6532670">
        <ele>458.0</ele>
        <time>2020-07-21T07:17:07Z</time>
      </trkpt>
      <trkpt lat="42.5048460" lon="2.6533190">
        <ele>458.8</ele>
        <time>2020-07-21T07:17:11Z</time>
      </trkpt>
      <trkpt lat="42.5049370" lon="2.6533960">
        <ele>459.2</ele>
        <time>2020-07-21T07:17:15Z</time>
      </trkpt>
      <trkpt lat="42.5050120" lon="2.6534880">
        <ele>460.0</ele>
        <time>2020-07-21T07:17:19Z</time>
      </trkpt>
      <trkpt lat="42.5050740" lon="2.6535460">
        <ele>461.0</ele>
        <time>2020-07-21T07:17:22Z</time>
      </trkpt>
      <trkpt lat="42.5052100" lon="2.6535450">
        <ele>461.6</ele>
        <time>2020-07-21T07:17:27Z</time>
      </trkpt>
      <trkpt lat="42.5053100" lon="2.6534890">
        <ele>462.0</ele>
        <time>2020-07-21T07:17:31Z</time>
      </trkpt>
      <trkpt lat="42.5053700" lon="2.6534160">
        <ele>462.6</ele>
        <time>2020-07-21T07:17:34Z</time>
      </trkpt>
      <trkpt lat="42.5054580" lon="2.6533090">
        <ele>463.2</ele>
        <time>2020-07-21T07:17:38Z</time>
      </trkpt>
      <trkpt lat="42.5055240" lon="2.6532220">
        <ele>463.8</ele>
        <time>2020-07-21T07:17:41Z</time>
      </trkpt>
      <trkpt lat="42.5055700" lon="2.6531180">
        <ele>464.2</ele>
        <time>2020-07-21T07:17:44Z</time>
      </trkpt>
      <trkpt lat="42.5056020" lon="2.6530570">
        <ele>464.4</ele>
        <time>2020-07-21T07:17:46Z</time>
      </trkpt>
      <trkpt lat="42.5056330" lon="2.6529930">
        <ele>464.8</ele>
        <time>2020-07-21T07:17:48Z</time>
      </trkpt>
      <trkpt lat="42.5056830" lon="2.6528670">
        <ele>465.4</ele>
        <time>2020-07-21T07:17:52Z</time>
      </trkpt>
      <trkpt lat="42.5057200" lon="2.6528160">
        <ele>465.8</ele>
        <time>2020-07-21T07:17:54Z</time>
      </trkpt>
      <trkpt lat="42.5057460" lon="2.6527450">
        <ele>466.4</ele>
        <time>2020-07-21T07:17:56Z</time>
      </trkpt>
      <trkpt lat="42.5058220" lon="2.6525700">
        <ele>467.4</ele>
        <time>2020-07-21T07:18:01Z</time>
      </trkpt>
      <trkpt lat="42.5058400" lon="2.6525390">
        <ele>467.4</ele>
        <time>2020-07-21T07:18:02Z</time>
      </trkpt>
      <trkpt lat="42.5059400" lon="2.6523360">
        <ele>468.2</ele>
        <time>2020-07-21T07:18:08Z</time>
      </trkpt>
      <trkpt lat="42.5059600" lon="2.6523150">
        <ele>468.6</ele>
        <time>2020-07-21T07:18:09Z</time>
      </trkpt>
      <trkpt lat="42.5060840" lon="2.6521610">
        <ele>469.4</ele>
        <time>2020-07-21T07:18:15Z</time>
      </trkpt>
      <trkpt lat="42.5061340" lon="2.6521110">
        <ele>469.6</ele>
        <time>2020-07-21T07:18:17Z</time>
      </trkpt>
      <trkpt lat="42.5061870" lon="2.6520760">
        <ele>470.2</ele>
        <time>2020-07-21T07:18:19Z</time>
      </trkpt>
      <trkpt lat="42.5062130" lon="2.6520600">
        <ele>470.4</ele>
        <time>2020-07-21T07:18:20Z</time>
      </trkpt>
      <trkpt lat="42.5062360" lon="2.6520370">
        <ele>470.6</ele>
        <time>2020-07-21T07:18:21Z</time>
      </trkpt>
      <trkpt lat="42.5062820" lon="2.6519910">
        <ele>471.0</ele>
        <time>2020-07-21T07:18:23Z</time>
      </trkpt>
      <trkpt lat="42.5063040" lon="2.6519650">
        <ele>471.2</ele>
        <time>2020-07-21T07:18:24Z</time>
      </trkpt>
      <trkpt lat="42.5063260" lon="2.6519360">
        <ele>471.4</ele>
        <time>2020-07-21T07:18:25Z</time>
      </trkpt>
      <trkpt lat="42.5063760" lon="2.6518830">
        <ele>471.8</ele>
        <time>2020-07-21T07:18:27Z</time>
      </trkpt>
      <trkpt lat="42.5064710" lon="2.6517250">
        <ele>472.6</ele>
        <time>2020-07-21T07:18:32Z</time>
      </trkpt>
      <trkpt lat="42.5065350" lon="2.6515850">
        <ele>473.0</ele>
        <time>2020-07-21T07:18:36Z</time>
      </trkpt>
      <trkpt lat="42.5065940" lon="2.6514110">
        <ele>473.8</ele>
        <time>2020-07-21T07:18:41Z</time>
      </trkpt>
      <trkpt lat="42.5066050" lon="2.6513350">
        <ele>474.2</ele>
        <time>2020-07-21T07:18:43Z</time>
      </trkpt>
      <trkpt lat="42.5066210" lon="2.6511620">
        <ele>475.2</ele>
        <time>2020-07-21T07:18:47Z</time>
      </trkpt>
      <trkpt lat="42.5065930" lon="2.6508770">
        <ele>476.2</ele>
        <time>2020-07-21T07:18:53Z</time>
      </trkpt>
      <trkpt lat="42.5065870" lon="2.6508360">
        <ele>476.4</ele>
        <time>2020-07-21T07:18:54Z</time>
      </trkpt>
      <trkpt lat="42.5065580" lon="2.6505820">
        <ele>477.2</ele>
        <time>2020-07-21T07:19:00Z</time>
      </trkpt>
      <trkpt lat="42.5065540" lon="2.6505470">
        <ele>477.4</ele>
        <time>2020-07-21T07:19:01Z</time>
      </trkpt>
      <trkpt lat="42.5066240" lon="2.6503760">
        <ele>478.4</ele>
        <time>2020-07-21T07:19:06Z</time>
      </trkpt>
      <trkpt lat="42.5067270" lon="2.6501540">
        <ele>479.4</ele>
        <time>2020-07-21T07:19:12Z</time>
      </trkpt>
      <trkpt lat="42.5067810" lon="2.6500380">
        <ele>480.0</ele>
        <time>2020-07-21T07:19:15Z</time>
      </trkpt>
      <trkpt lat="42.5068310" lon="2.6499720">
        <ele>480.4</ele>
        <time>2020-07-21T07:19:17Z</time>
      </trkpt>
      <trkpt lat="42.5068580" lon="2.6499490">
        <ele>480.6</ele>
        <time>2020-07-21T07:19:18Z</time>
      </trkpt>
      <trkpt lat="42.5069470" lon="2.6499140">
        <ele>481.4</ele>
        <time>2020-07-21T07:19:21Z</time>
      </trkpt>
      <trkpt lat="42.5070350" lon="2.6498950">
        <ele>481.6</ele>
        <time>2020-07-21T07:19:24Z</time>
      </trkpt>
      <trkpt lat="42.5071560" lon="2.6498540">
        <ele>482.4</ele>
        <time>2020-07-21T07:19:28Z</time>
      </trkpt>
      <trkpt lat="42.5072100" lon="2.6498130">
        <ele>482.8</ele>
        <time>2020-07-21T07:19:30Z</time>
      </trkpt>
      <trkpt lat="42.5073430" lon="2.6497090">
        <ele>483.6</ele>
        <time>2020-07-21T07:19:35Z</time>
      </trkpt>
      <trkpt lat="42.5073980" lon="2.6496830">
        <ele>483.8</ele>
        <time>2020-07-21T07:19:37Z</time>
      </trkpt>
      <trkpt lat="42.5074240" lon="2.6496660">
        <ele>484.0</ele>
        <time>2020-07-21T07:19:38Z</time>
      </trkpt>
      <trkpt lat="42.5075630" lon="2.6496070">
        <ele>485.0</ele>
        <time>2020-07-21T07:19:43Z</time>
      </trkpt>
      <trkpt lat="42.5076520" lon="2.6495880">
        <ele>485.8</ele>
        <time>2020-07-21T07:19:46Z</time>
      </trkpt>
      <trkpt lat="42.5077450" lon="2.6495860">
        <ele>486.2</ele>
        <time>2020-07-21T07:19:49Z</time>
      </trkpt>
      <trkpt lat="42.5078420" lon="2.6495860">
        <ele>486.8</ele>
        <time>2020-07-21T07:19:52Z</time>
      </trkpt>
      <trkpt lat="42.5079050" lon="2.6495820">
        <ele>487.2</ele>
        <time>2020-07-21T07:19:54Z</time>
      </trkpt>
      <trkpt lat="42.5080970" lon="2.6495150">
        <ele>488.0</ele>
        <time>2020-07-21T07:20:00Z</time>
      </trkpt>
      <trkpt lat="42.5081580" lon="2.6494750">
        <ele>488.4</ele>
        <time>2020-07-21T07:20:02Z</time>
      </trkpt>
      <trkpt lat="42.5083250" lon="2.6493550">
        <ele>489.2</ele>
        <time>2020-07-21T07:20:08Z</time>
      </trkpt>
      <trkpt lat="42.5084120" lon="2.6492850">
        <ele>489.4</ele>
        <time>2020-07-21T07:20:11Z</time>
      </trkpt>
      <trkpt lat="42.5085340" lon="2.6491860">
        <ele>490.4</ele>
        <time>2020-07-21T07:20:15Z</time>
      </trkpt>
      <trkpt lat="42.5085640" lon="2.6491590">
        <ele>490.4</ele>
        <time>2020-07-21T07:20:16Z</time>
      </trkpt>
      <trkpt lat="42.5086140" lon="2.6490930">
        <ele>490.8</ele>
        <time>2020-07-21T07:20:18Z</time>
      </trkpt>
      <trkpt lat="42.5086860" lon="2.6489910">
        <ele>491.2</ele>
        <time>2020-07-21T07:20:21Z</time>
      </trkpt>
      <trkpt lat="42.5087070" lon="2.6489550">
        <ele>491.2</ele>
        <time>2020-07-21T07:20:22Z</time>
      </trkpt>
      <trkpt lat="42.5087760" lon="2.6488430">
        <ele>491.6</ele>
        <time>2020-07-21T07:20:25Z</time>
      </trkpt>
      <trkpt lat="42.5089130" lon="2.6486210">
        <ele>492.6</ele>
        <time>2020-07-21T07:20:31Z</time>
      </trkpt>
      <trkpt lat="42.5089350" lon="2.6485840">
        <ele>492.6</ele>
        <time>2020-07-21T07:20:32Z</time>
      </trkpt>
      <trkpt lat="42.5089540" lon="2.6485440">
        <ele>492.6</ele>
        <time>2020-07-21T07:20:33Z</time>
      </trkpt>
      <trkpt lat="42.5090740" lon="2.6482990">
        <ele>493.6</ele>
        <time>2020-07-21T07:20:39Z</time>
      </trkpt>
      <trkpt lat="42.5091120" lon="2.6482230">
        <ele>494.0</ele>
        <time>2020-07-21T07:20:41Z</time>
      </trkpt>
      <trkpt lat="42.5091960" lon="2.6480700">
        <ele>494.8</ele>
        <time>2020-07-21T07:20:45Z</time>
      </trkpt>
      <trkpt lat="42.5092570" lon="2.6479590">
        <ele>495.0</ele>
        <time>2020-07-21T07:20:48Z</time>
      </trkpt>
      <trkpt lat="42.5093390" lon="2.6477620">
        <ele>496.0</ele>
        <time>2020-07-21T07:20:53Z</time>
      </trkpt>
      <trkpt lat="42.5093580" lon="2.6476750">
        <ele>496.2</ele>
        <time>2020-07-21T07:20:55Z</time>
      </trkpt>
      <trkpt lat="42.5094290" lon="2.6474100">
        <ele>497.0</ele>
        <time>2020-07-21T07:21:01Z</time>
      </trkpt>
      <trkpt lat="42.5094390" lon="2.6473670">
        <ele>497.2</ele>
        <time>2020-07-21T07:21:02Z</time>
      </trkpt>
      <trkpt lat="42.5094500" lon="2.6472610">
        <ele>497.4</ele>
        <time>2020-07-21T07:21:04Z</time>
      </trkpt>
      <trkpt lat="42.5094620" lon="2.6469450">
        <ele>498.0</ele>
        <time>2020-07-21T07:21:10Z</time>
      </trkpt>
      <trkpt lat="42.5094570" lon="2.6468400">
        <ele>498.2</ele>
        <time>2020-07-21T07:21:12Z</time>
      </trkpt>
      <trkpt lat="42.5094430" lon="2.6465110">
        <ele>499.0</ele>
        <time>2020-07-21T07:21:18Z</time>
      </trkpt>
      <trkpt lat="42.5094430" lon="2.6464580">
        <ele>499.2</ele>
        <time>2020-07-21T07:21:19Z</time>
      </trkpt>
      <trkpt lat="42.5094410" lon="2.6463470">
        <ele>499.4</ele>
        <time>2020-07-21T07:21:21Z</time>
      </trkpt>
      <trkpt lat="42.5094280" lon="2.6459910">
        <ele>499.8</ele>
        <time>2020-07-21T07:21:27Z</time>
      </trkpt>
      <trkpt lat="42.5094280" lon="2.6459270">
        <ele>500.0</ele>
        <time>2020-07-21T07:21:28Z</time>
      </trkpt>
      <trkpt lat="42.5094210" lon="2.6457990">
        <ele>500.6</ele>
        <time>2020-07-21T07:21:30Z</time>
      </trkpt>
      <trkpt lat="42.5094200" lon="2.6456820">
        <ele>500.8</ele>
        <time>2020-07-21T07:21:32Z</time>
      </trkpt>
      <trkpt lat="42.5094240" lon="2.6455100">
        <ele>501.4</ele>
        <time>2020-07-21T07:21:35Z</time>
      </trkpt>
      <trkpt lat="42.5094260" lon="2.6454520">
        <ele>501.4</ele>
        <time>2020-07-21T07:21:36Z</time>
      </trkpt>
      <trkpt lat="42.5094250" lon="2.6453940">
        <ele>501.6</ele>
        <time>2020-07-21T07:21:37Z</time>
      </trkpt>
      <trkpt lat="42.5094240" lon="2.6452780">
        <ele>501.8</ele>
        <time>2020-07-21T07:21:39Z</time>
      </trkpt>
      <trkpt lat="42.5094160" lon="2.6450420">
        <ele>502.0</ele>
        <time>2020-07-21T07:21:43Z</time>
      </trkpt>
      <trkpt lat="42.5094120" lon="2.6448010">
        <ele>502.2</ele>
        <time>2020-07-21T07:21:47Z</time>
      </trkpt>
      <trkpt lat="42.5094100" lon="2.6446140">
        <ele>502.6</ele>
        <time>2020-07-21T07:21:50Z</time>
      </trkpt>
      <trkpt lat="42.5094090" lon="2.6445530">
        <ele>502.8</ele>
        <time>2020-07-21T07:21:51Z</time>
      </trkpt>
      <trkpt lat="42.5094090" lon="2.6444280">
        <ele>502.8</ele>
        <time>2020-07-21T07:21:53Z</time>
      </trkpt>
      <trkpt lat="42.5094100" lon="2.6441770">
        <ele>503.2</ele>
        <time>2020-07-21T07:21:57Z</time>
      </trkpt>
      <trkpt lat="42.5094030" lon="2.6439940">
        <ele>503.4</ele>
        <time>2020-07-21T07:22:00Z</time>
      </trkpt>
      <trkpt lat="42.5093800" lon="2.6437510">
        <ele>503.6</ele>
        <time>2020-07-21T07:22:04Z</time>
      </trkpt>
      <trkpt lat="42.5093600" lon="2.6435800">
        <ele>504.4</ele>
        <time>2020-07-21T07:22:07Z</time>
      </trkpt>
      <trkpt lat="42.5093350" lon="2.6434720">
        <ele>504.8</ele>
        <time>2020-07-21T07:22:09Z</time>
      </trkpt>
      <trkpt lat="42.5093130" lon="2.6434140">
        <ele>505.0</ele>
        <time>2020-07-21T07:22:10Z</time>
      </trkpt>
      <trkpt lat="42.5092650" lon="2.6433040">
        <ele>505.2</ele>
        <time>2020-07-21T07:22:12Z</time>
      </trkpt>
      <trkpt lat="42.5091050" lon="2.6430150">
        <ele>505.8</ele>
        <time>2020-07-21T07:22:18Z</time>
      </trkpt>
      <trkpt lat="42.5090760" lon="2.6429730">
        <ele>505.8</ele>
        <time>2020-07-21T07:22:19Z</time>
      </trkpt>
      <trkpt lat="42.5089020" lon="2.6427180">
        <ele>506.6</ele>
        <time>2020-07-21T07:22:25Z</time>
      </trkpt>
      <trkpt lat="42.5088480" lon="2.6426310">
        <ele>506.8</ele>
        <time>2020-07-21T07:22:27Z</time>
      </trkpt>
      <trkpt lat="42.5088180" lon="2.6425910">
        <ele>507.0</ele>
        <time>2020-07-21T07:22:28Z</time>
      </trkpt>
      <trkpt lat="42.5087840" lon="2.6425570">
        <ele>507.0</ele>
        <time>2020-07-21T07:22:29Z</time>
      </trkpt>
      <trkpt lat="42.5086290" lon="2.6424570">
        <ele>507.6</ele>
        <time>2020-07-21T07:22:33Z</time>
      </trkpt>
      <trkpt lat="42.5085520" lon="2.6424110">
        <ele>508.0</ele>
        <time>2020-07-21T07:22:35Z</time>
      </trkpt>
      <trkpt lat="42.5083860" lon="2.6423270">
        <ele>508.4</ele>
        <time>2020-07-21T07:22:39Z</time>
      </trkpt>
      <trkpt lat="42.5081580" lon="2.6421490">
        <ele>508.8</ele>
        <time>2020-07-21T07:22:45Z</time>
      </trkpt>
      <trkpt lat="42.5080830" lon="2.6420900">
        <ele>509.2</ele>
        <time>2020-07-21T07:22:47Z</time>
      </trkpt>
      <trkpt lat="42.5080440" lon="2.6420660">
        <ele>509.4</ele>
        <time>2020-07-21T07:22:48Z</time>
      </trkpt>
      <trkpt lat="42.5078050" lon="2.6419130">
        <ele>510.2</ele>
        <time>2020-07-21T07:22:54Z</time>
      </trkpt>
      <trkpt lat="42.5077690" lon="2.6418780">
        <ele>510.2</ele>
        <time>2020-07-21T07:22:55Z</time>
      </trkpt>
      <trkpt lat="42.5077180" lon="2.6417870">
        <ele>510.4</ele>
        <time>2020-07-21T07:22:57Z</time>
      </trkpt>
      <trkpt lat="42.5076310" lon="2.6415050">
        <ele>510.6</ele>
        <time>2020-07-21T07:23:02Z</time>
      </trkpt>
      <trkpt lat="42.5076060" lon="2.6414570">
        <ele>510.6</ele>
        <time>2020-07-21T07:23:03Z</time>
      </trkpt>
      <trkpt lat="42.5075770" lon="2.6414170">
        <ele>510.8</ele>
        <time>2020-07-21T07:23:04Z</time>
      </trkpt>
      <trkpt lat="42.5075090" lon="2.6413530">
        <ele>511.2</ele>
        <time>2020-07-21T07:23:06Z</time>
      </trkpt>
      <trkpt lat="42.5074710" lon="2.6413260">
        <ele>511.2</ele>
        <time>2020-07-21T07:23:07Z</time>
      </trkpt>
      <trkpt lat="42.5074330" lon="2.6413020">
        <ele>511.4</ele>
        <time>2020-07-21T07:23:08Z</time>
      </trkpt>
      <trkpt lat="42.5072440" lon="2.6411860">
        <ele>512.2</ele>
        <time>2020-07-21T07:23:13Z</time>
      </trkpt>
      <trkpt lat="42.5071870" lon="2.6411070">
        <ele>512.4</ele>
        <time>2020-07-21T07:23:15Z</time>
      </trkpt>
      <trkpt lat="42.5071690" lon="2.6409970">
        <ele>512.8</ele>
        <time>2020-07-21T07:23:17Z</time>
      </trkpt>
      <trkpt lat="42.5071810" lon="2.6409430">
        <ele>513.0</ele>
        <time>2020-07-21T07:23:18Z</time>
      </trkpt>
      <trkpt lat="42.5072010" lon="2.6408940">
        <ele>513.0</ele>
        <time>2020-07-21T07:23:19Z</time>
      </trkpt>
      <trkpt lat="42.5072540" lon="2.6408000">
        <ele>513.4</ele>
        <time>2020-07-21T07:23:21Z</time>
      </trkpt>
      <trkpt lat="42.5073130" lon="2.6407060">
        <ele>513.8</ele>
        <time>2020-07-21T07:23:23Z</time>
      </trkpt>
      <trkpt lat="42.5074550" lon="2.6404590">
        <ele>514.4</ele>
        <time>2020-07-21T07:23:28Z</time>
      </trkpt>
      <trkpt lat="42.5074700" lon="2.6404000">
        <ele>514.4</ele>
        <time>2020-07-21T07:23:29Z</time>
      </trkpt>
      <trkpt lat="42.5074790" lon="2.6402790">
        <ele>514.4</ele>
        <time>2020-07-21T07:23:31Z</time>
      </trkpt>
      <trkpt lat="42.5074720" lon="2.6401540">
        <ele>514.4</ele>
        <time>2020-07-21T07:23:33Z</time>
      </trkpt>
      <trkpt lat="42.5074620" lon="2.6400920">
        <ele>514.6</ele>
        <time>2020-07-21T07:23:34Z</time>
      </trkpt>
      <trkpt lat="42.5074390" lon="2.6399720">
        <ele>514.6</ele>
        <time>2020-07-21T07:23:36Z</time>
      </trkpt>
      <trkpt lat="42.5073650" lon="2.6397560">
        <ele>515.4</ele>
        <time>2020-07-21T07:23:40Z</time>
      </trkpt>
      <trkpt lat="42.5072340" lon="2.6394500">
        <ele>516.4</ele>
        <time>2020-07-21T07:23:46Z</time>
      </trkpt>
      <trkpt lat="42.5071940" lon="2.6393470">
        <ele>516.4</ele>
        <time>2020-07-21T07:23:48Z</time>
      </trkpt>
      <trkpt lat="42.5070830" lon="2.6390320">
        <ele>517.6</ele>
        <time>2020-07-21T07:23:54Z</time>
      </trkpt>
      <trkpt lat="42.5070670" lon="2.6389780">
        <ele>517.6</ele>
        <time>2020-07-21T07:23:55Z</time>
      </trkpt>
      <trkpt lat="42.5069800" lon="2.6386580">
        <ele>518.4</ele>
        <time>2020-07-21T07:24:01Z</time>
      </trkpt>
      <trkpt lat="42.5069680" lon="2.6386020">
        <ele>518.6</ele>
        <time>2020-07-21T07:24:02Z</time>
      </trkpt>
      <trkpt lat="42.5069530" lon="2.6385430">
        <ele>518.6</ele>
        <time>2020-07-21T07:24:03Z</time>
      </trkpt>
      <trkpt lat="42.5069240" lon="2.6384320">
        <ele>518.6</ele>
        <time>2020-07-21T07:24:05Z</time>
      </trkpt>
      <trkpt lat="42.5068600" lon="2.6381460">
        <ele>519.2</ele>
        <time>2020-07-21T07:24:10Z</time>
      </trkpt>
      <trkpt lat="42.5068060" lon="2.6379980">
        <ele>519.4</ele>
        <time>2020-07-21T07:24:13Z</time>
      </trkpt>
      <trkpt lat="42.5067820" lon="2.6379510">
        <ele>519.6</ele>
        <time>2020-07-21T07:24:14Z</time>
      </trkpt>
      <trkpt lat="42.5067540" lon="2.6379050">
        <ele>519.8</ele>
        <time>2020-07-21T07:24:15Z</time>
      </trkpt>
      <trkpt lat="42.5067230" lon="2.6378620">
        <ele>520.0</ele>
        <time>2020-07-21T07:24:16Z</time>
      </trkpt>
      <trkpt lat="42.5065420" lon="2.6376660">
        <ele>520.6</ele>
        <time>2020-07-21T07:24:21Z</time>
      </trkpt>
      <trkpt lat="42.5064290" lon="2.6375590">
        <ele>520.8</ele>
        <time>2020-07-21T07:24:24Z</time>
      </trkpt>
      <trkpt lat="42.5062690" lon="2.6374170">
        <ele>521.4</ele>
        <time>2020-07-21T07:24:28Z</time>
      </trkpt>
      <trkpt lat="42.5061580" lon="2.6372770">
        <ele>521.6</ele>
        <time>2020-07-21T07:24:31Z</time>
      </trkpt>
      <trkpt lat="42.5060850" lon="2.6371320">
        <ele>521.4</ele>
        <time>2020-07-21T07:24:34Z</time>
      </trkpt>
      <trkpt lat="42.5060470" lon="2.6370280">
        <ele>521.6</ele>
        <time>2020-07-21T07:24:36Z</time>
      </trkpt>
      <trkpt lat="42.5059310" lon="2.6367690">
        <ele>522.8</ele>
        <time>2020-07-21T07:24:41Z</time>
      </trkpt>
      <trkpt lat="42.5059060" lon="2.6367200">
        <ele>522.8</ele>
        <time>2020-07-21T07:24:42Z</time>
      </trkpt>
      <trkpt lat="42.5057640" lon="2.6364100">
        <ele>523.6</ele>
        <time>2020-07-21T07:24:48Z</time>
      </trkpt>
      <trkpt lat="42.5057470" lon="2.6363560">
        <ele>523.6</ele>
        <time>2020-07-21T07:24:49Z</time>
      </trkpt>
      <trkpt lat="42.5057170" lon="2.6362520">
        <ele>523.8</ele>
        <time>2020-07-21T07:24:51Z</time>
      </trkpt>
      <trkpt lat="42.5056670" lon="2.6359100">
        <ele>524.8</ele>
        <time>2020-07-21T07:24:57Z</time>
      </trkpt>
      <trkpt lat="42.5056650" lon="2.6358550">
        <ele>525.2</ele>
        <time>2020-07-21T07:24:58Z</time>
      </trkpt>
      <trkpt lat="42.5057010" lon="2.6357110">
        <ele>525.6</ele>
        <time>2020-07-21T07:25:01Z</time>
      </trkpt>
      <trkpt lat="42.5057570" lon="2.6356800">
        <ele>525.8</ele>
        <time>2020-07-21T07:25:02Z</time>
      </trkpt>
      <trkpt lat="42.5058550" lon="2.6356480">
        <ele>526.0</ele>
        <time>2020-07-21T07:25:04Z</time>
      </trkpt>
      <trkpt lat="42.5060010" lon="2.6356710">
        <ele>526.4</ele>
        <time>2020-07-21T07:25:07Z</time>
      </trkpt>
      <trkpt lat="42.5060440" lon="2.6356910">
        <ele>526.4</ele>
        <time>2020-07-21T07:25:08Z</time>
      </trkpt>
      <trkpt lat="42.5061200" lon="2.6357370">
        <ele>526.4</ele>
        <time>2020-07-21T07:25:10Z</time>
      </trkpt>
      <trkpt lat="42.5062180" lon="2.6358560">
        <ele>526.4</ele>
        <time>2020-07-21T07:25:13Z</time>
      </trkpt>
      <trkpt lat="42.5063290" lon="2.6359690">
        <ele>526.6</ele>
        <time>2020-07-21T07:25:16Z</time>
      </trkpt>
      <trkpt lat="42.5065330" lon="2.6361180">
        <ele>526.6</ele>
        <time>2020-07-21T07:25:21Z</time>
      </trkpt>
      <trkpt lat="42.5068120" lon="2.6361690">
        <ele>526.2</ele>
        <time>2020-07-21T07:25:27Z</time>
      </trkpt>
      <trkpt lat="42.5071290" lon="2.6361340">
        <ele>525.6</ele>
        <time>2020-07-21T07:25:33Z</time>
      </trkpt>
      <trkpt lat="42.5073140" lon="2.6361010">
        <ele>525.0</ele>
        <time>2020-07-21T07:25:36Z</time>
      </trkpt>
      <trkpt lat="42.5073780" lon="2.6360900">
        <ele>524.6</ele>
        <time>2020-07-21T07:25:37Z</time>
      </trkpt>
      <trkpt lat="42.5075660" lon="2.6360560">
        <ele>524.2</ele>
        <time>2020-07-21T07:25:40Z</time>
      </trkpt>
      <trkpt lat="42.5076270" lon="2.6360460">
        <ele>524.2</ele>
        <time>2020-07-21T07:25:41Z</time>
      </trkpt>
      <trkpt lat="42.5077510" lon="2.6360150">
        <ele>523.8</ele>
        <time>2020-07-21T07:25:43Z</time>
      </trkpt>
      <trkpt lat="42.5079260" lon="2.6359310">
        <ele>523.6</ele>
        <time>2020-07-21T07:25:46Z</time>
      </trkpt>
      <trkpt lat="42.5080520" lon="2.6358740">
        <ele>523.4</ele>
        <time>2020-07-21T07:25:48Z</time>
      </trkpt>
      <trkpt lat="42.5081890" lon="2.6358690">
        <ele>523.4</ele>
        <time>2020-07-21T07:25:50Z</time>
      </trkpt>
      <trkpt lat="42.5083200" lon="2.6359270">
        <ele>523.4</ele>
        <time>2020-07-21T07:25:52Z</time>
      </trkpt>
      <trkpt lat="42.5083760" lon="2.6359700">
        <ele>523.2</ele>
        <time>2020-07-21T07:25:53Z</time>
      </trkpt>
      <trkpt lat="42.5084280" lon="2.6360250">
        <ele>523.2</ele>
        <time>2020-07-21T07:25:54Z</time>
      </trkpt>
      <trkpt lat="42.5085740" lon="2.6362030">
        <ele>522.8</ele>
        <time>2020-07-21T07:25:57Z</time>
      </trkpt>
      <trkpt lat="42.5087110" lon="2.6363780">
        <ele>521.6</ele>
        <time>2020-07-21T07:26:00Z</time>
      </trkpt>
      <trkpt lat="42.5088610" lon="2.6365190">
        <ele>521.2</ele>
        <time>2020-07-21T07:26:03Z</time>
      </trkpt>
      <trkpt lat="42.5089080" lon="2.6365590">
        <ele>521.2</ele>
        <time>2020-07-21T07:26:04Z</time>
      </trkpt>
      <trkpt lat="42.5090090" lon="2.6366170">
        <ele>521.4</ele>
        <time>2020-07-21T07:26:06Z</time>
      </trkpt>
      <trkpt lat="42.5090610" lon="2.6366340">
        <ele>521.4</ele>
        <time>2020-07-21T07:26:07Z</time>
      </trkpt>
      <trkpt lat="42.5091160" lon="2.6366480">
        <ele>521.4</ele>
        <time>2020-07-21T07:26:08Z</time>
      </trkpt>
      <trkpt lat="42.5091730" lon="2.6366550">
        <ele>521.4</ele>
        <time>2020-07-21T07:26:09Z</time>
      </trkpt>
      <trkpt lat="42.5092310" lon="2.6366600">
        <ele>521.6</ele>
        <time>2020-07-21T07:26:10Z</time>
      </trkpt>
      <trkpt lat="42.5092880" lon="2.6366650">
        <ele>521.6</ele>
        <time>2020-07-21T07:26:11Z</time>
      </trkpt>
      <trkpt lat="42.5093440" lon="2.6366680">
        <ele>521.6</ele>
        <time>2020-07-21T07:26:12Z</time>
      </trkpt>
      <trkpt lat="42.5094630" lon="2.6366710">
        <ele>521.4</ele>
        <time>2020-07-21T07:26:14Z</time>
      </trkpt>
      <trkpt lat="42.5095720" lon="2.6366820">
        <ele>521.4</ele>
        <time>2020-07-21T07:26:16Z</time>
      </trkpt>
      <trkpt lat="42.5097460" lon="2.6367160">
        <ele>521.2</ele>
        <time>2020-07-21T07:26:19Z</time>
      </trkpt>
      <trkpt lat="42.5099350" lon="2.6367580">
        <ele>521.0</ele>
        <time>2020-07-21T07:26:22Z</time>
      </trkpt>
      <trkpt lat="42.5101150" lon="2.6367830">
        <ele>521.0</ele>
        <time>2020-07-21T07:26:25Z</time>
      </trkpt>
      <trkpt lat="42.5102950" lon="2.6368140">
        <ele>520.6</ele>
        <time>2020-07-21T07:26:28Z</time>
      </trkpt>
      <trkpt lat="42.5104150" lon="2.6368630">
        <ele>520.2</ele>
        <time>2020-07-21T07:26:30Z</time>
      </trkpt>
      <trkpt lat="42.5104750" lon="2.6368940">
        <ele>520.0</ele>
        <time>2020-07-21T07:26:31Z</time>
      </trkpt>
      <trkpt lat="42.5105850" lon="2.6369690">
        <ele>519.6</ele>
        <time>2020-07-21T07:26:33Z</time>
      </trkpt>
      <trkpt lat="42.5106940" lon="2.6370540">
        <ele>519.4</ele>
        <time>2020-07-21T07:26:35Z</time>
      </trkpt>
      <trkpt lat="42.5107490" lon="2.6370950">
        <ele>519.2</ele>
        <time>2020-07-21T07:26:36Z</time>
      </trkpt>
      <trkpt lat="42.5109630" lon="2.6372850">
        <ele>519.0</ele>
        <time>2020-07-21T07:26:40Z</time>
      </trkpt>
      <trkpt lat="42.5111600" lon="2.6374820">
        <ele>518.8</ele>
        <time>2020-07-21T07:26:44Z</time>
      </trkpt>
      <trkpt lat="42.5113560" lon="2.6376650">
        <ele>518.2</ele>
        <time>2020-07-21T07:26:48Z</time>
      </trkpt>
      <trkpt lat="42.5115130" lon="2.6377750">
        <ele>518.4</ele>
        <time>2020-07-21T07:26:51Z</time>
      </trkpt>
      <trkpt lat="42.5116850" lon="2.6378510">
        <ele>518.4</ele>
        <time>2020-07-21T07:26:54Z</time>
      </trkpt>
      <trkpt lat="42.5118190" lon="2.6378510">
        <ele>518.2</ele>
        <time>2020-07-21T07:26:56Z</time>
      </trkpt>
      <trkpt lat="42.5119490" lon="2.6378170">
        <ele>518.0</ele>
        <time>2020-07-21T07:26:58Z</time>
      </trkpt>
      <trkpt lat="42.5120710" lon="2.6377560">
        <ele>517.6</ele>
        <time>2020-07-21T07:27:00Z</time>
      </trkpt>
      <trkpt lat="42.5122910" lon="2.6375830">
        <ele>517.2</ele>
        <time>2020-07-21T07:27:04Z</time>
      </trkpt>
      <trkpt lat="42.5123860" lon="2.6374740">
        <ele>516.8</ele>
        <time>2020-07-21T07:27:06Z</time>
      </trkpt>
      <trkpt lat="42.5124310" lon="2.6374180">
        <ele>516.8</ele>
        <time>2020-07-21T07:27:07Z</time>
      </trkpt>
      <trkpt lat="42.5125570" lon="2.6372380">
        <ele>516.2</ele>
        <time>2020-07-21T07:27:10Z</time>
      </trkpt>
      <trkpt lat="42.5126280" lon="2.6371150">
        <ele>516.2</ele>
        <time>2020-07-21T07:27:12Z</time>
      </trkpt>
      <trkpt lat="42.5126610" lon="2.6370540">
        <ele>516.2</ele>
        <time>2020-07-21T07:27:13Z</time>
      </trkpt>
      <trkpt lat="42.5127370" lon="2.6368710">
        <ele>516.2</ele>
        <time>2020-07-21T07:27:16Z</time>
      </trkpt>
      <trkpt lat="42.5127480" lon="2.6368070">
        <ele>516.2</ele>
        <time>2020-07-21T07:27:17Z</time>
      </trkpt>
      <trkpt lat="42.5127440" lon="2.6367240">
        <ele>516.2</ele>
        <time>2020-07-21T07:27:18Z</time>
      </trkpt>
      <trkpt lat="42.5127070" lon="2.6365550">
        <ele>516.2</ele>
        <time>2020-07-21T07:27:20Z</time>
      </trkpt>
      <trkpt lat="42.5126770" lon="2.6364720">
        <ele>516.2</ele>
        <time>2020-07-21T07:27:21Z</time>
      </trkpt>
      <trkpt lat="42.5126060" lon="2.6363160">
        <ele>516.2</ele>
        <time>2020-07-21T07:27:23Z</time>
      </trkpt>
      <trkpt lat="42.5124680" lon="2.6360130">
        <ele>516.0</ele>
        <time>2020-07-21T07:27:27Z</time>
      </trkpt>
      <trkpt lat="42.5124450" lon="2.6359330">
        <ele>515.8</ele>
        <time>2020-07-21T07:27:28Z</time>
      </trkpt>
      <trkpt lat="42.5123800" lon="2.6356110">
        <ele>516.0</ele>
        <time>2020-07-21T07:27:32Z</time>
      </trkpt>
      <trkpt lat="42.5123620" lon="2.6352030">
        <ele>515.2</ele>
        <time>2020-07-21T07:27:37Z</time>
      </trkpt>
      <trkpt lat="42.5123640" lon="2.6351200">
        <ele>515.2</ele>
        <time>2020-07-21T07:27:38Z</time>
      </trkpt>
      <trkpt lat="42.5124170" lon="2.6346210">
        <ele>514.6</ele>
        <time>2020-07-21T07:27:44Z</time>
      </trkpt>
      <trkpt lat="42.5124440" lon="2.6344500">
        <ele>514.8</ele>
        <time>2020-07-21T07:27:46Z</time>
      </trkpt>
      <trkpt lat="42.5124480" lon="2.6339290">
        <ele>514.2</ele>
        <time>2020-07-21T07:27:52Z</time>
      </trkpt>
      <trkpt lat="42.5124190" lon="2.6337470">
        <ele>514.0</ele>
        <time>2020-07-21T07:27:54Z</time>
      </trkpt>
      <trkpt lat="42.5123450" lon="2.6333860">
        <ele>514.2</ele>
        <time>2020-07-21T07:27:58Z</time>
      </trkpt>
      <trkpt lat="42.5122410" lon="2.6329620">
        <ele>513.8</ele>
        <time>2020-07-21T07:28:03Z</time>
      </trkpt>
      <trkpt lat="42.5122100" lon="2.6328890">
        <ele>513.8</ele>
        <time>2020-07-21T07:28:04Z</time>
      </trkpt>
      <trkpt lat="42.5121750" lon="2.6328210">
        <ele>513.6</ele>
        <time>2020-07-21T07:28:05Z</time>
      </trkpt>
      <trkpt lat="42.5120020" lon="2.6325930">
        <ele>513.2</ele>
        <time>2020-07-21T07:28:09Z</time>
      </trkpt>
      <trkpt lat="42.5119560" lon="2.6325440">
        <ele>513.0</ele>
        <time>2020-07-21T07:28:10Z</time>
      </trkpt>
      <trkpt lat="42.5118130" lon="2.6323970">
        <ele>512.8</ele>
        <time>2020-07-21T07:28:13Z</time>
      </trkpt>
      <trkpt lat="42.5116570" lon="2.6322630">
        <ele>512.6</ele>
        <time>2020-07-21T07:28:16Z</time>
      </trkpt>
      <trkpt lat="42.5116050" lon="2.6322110">
        <ele>512.4</ele>
        <time>2020-07-21T07:28:17Z</time>
      </trkpt>
      <trkpt lat="42.5115060" lon="2.6320970">
        <ele>512.0</ele>
        <time>2020-07-21T07:28:19Z</time>
      </trkpt>
      <trkpt lat="42.5114090" lon="2.6319570">
        <ele>511.0</ele>
        <time>2020-07-21T07:28:21Z</time>
      </trkpt>
      <trkpt lat="42.5113620" lon="2.6318770">
        <ele>510.4</ele>
        <time>2020-07-21T07:28:22Z</time>
      </trkpt>
      <trkpt lat="42.5112490" lon="2.6316070">
        <ele>509.2</ele>
        <time>2020-07-21T07:28:25Z</time>
      </trkpt>
      <trkpt lat="42.5112220" lon="2.6315070">
        <ele>509.0</ele>
        <time>2020-07-21T07:28:26Z</time>
      </trkpt>
      <trkpt lat="42.5111700" lon="2.6311720">
        <ele>507.8</ele>
        <time>2020-07-21T07:28:29Z</time>
      </trkpt>
      <trkpt lat="42.5111410" lon="2.6309340">
        <ele>507.0</ele>
        <time>2020-07-21T07:28:31Z</time>
      </trkpt>
      <trkpt lat="42.5111310" lon="2.6308200">
        <ele>506.6</ele>
        <time>2020-07-21T07:28:32Z</time>
      </trkpt>
      <trkpt lat="42.5111120" lon="2.6305200">
        <ele>505.8</ele>
        <time>2020-07-21T07:28:35Z</time>
      </trkpt>
      <trkpt lat="42.5111080" lon="2.6304360">
        <ele>505.6</ele>
        <time>2020-07-21T07:28:36Z</time>
      </trkpt>
      <trkpt lat="42.5111120" lon="2.6303580">
        <ele>505.4</ele>
        <time>2020-07-21T07:28:37Z</time>
      </trkpt>
      <trkpt lat="42.5111750" lon="2.6302360">
        <ele>505.0</ele>
        <time>2020-07-21T07:28:39Z</time>
      </trkpt>
      <trkpt lat="42.5112880" lon="2.6301840">
        <ele>504.8</ele>
        <time>2020-07-21T07:28:41Z</time>
      </trkpt>
      <trkpt lat="42.5113560" lon="2.6301900">
        <ele>504.6</ele>
        <time>2020-07-21T07:28:42Z</time>
      </trkpt>
      <trkpt lat="42.5114140" lon="2.6302200">
        <ele>504.6</ele>
        <time>2020-07-21T07:28:43Z</time>
      </trkpt>
      <trkpt lat="42.5115020" lon="2.6303380">
        <ele>504.6</ele>
        <time>2020-07-21T07:28:45Z</time>
      </trkpt>
      <trkpt lat="42.5115360" lon="2.6304070">
        <ele>504.4</ele>
        <time>2020-07-21T07:28:46Z</time>
      </trkpt>
      <trkpt lat="42.5116980" lon="2.6306670">
        <ele>503.6</ele>
        <time>2020-07-21T07:28:50Z</time>
      </trkpt>
      <trkpt lat="42.5117450" lon="2.6307210">
        <ele>503.2</ele>
        <time>2020-07-21T07:28:51Z</time>
      </trkpt>
      <trkpt lat="42.5117960" lon="2.6307660">
        <ele>503.0</ele>
        <time>2020-07-21T07:28:52Z</time>
      </trkpt>
      <trkpt lat="42.5119160" lon="2.6307990">
        <ele>502.8</ele>
        <time>2020-07-21T07:28:54Z</time>
      </trkpt>
      <trkpt lat="42.5119760" lon="2.6307940">
        <ele>502.8</ele>
        <time>2020-07-21T07:28:55Z</time>
      </trkpt>
      <trkpt lat="42.5120310" lon="2.6307780">
        <ele>502.8</ele>
        <time>2020-07-21T07:28:56Z</time>
      </trkpt>
      <trkpt lat="42.5121350" lon="2.6307280">
        <ele>502.6</ele>
        <time>2020-07-21T07:28:58Z</time>
      </trkpt>
      <trkpt lat="42.5121860" lon="2.6307020">
        <ele>502.8</ele>
        <time>2020-07-21T07:28:59Z</time>
      </trkpt>
      <trkpt lat="42.5123290" lon="2.6306370">
        <ele>503.0</ele>
        <time>2020-07-21T07:29:02Z</time>
      </trkpt>
      <trkpt lat="42.5123760" lon="2.6306180">
        <ele>503.2</ele>
        <time>2020-07-21T07:29:03Z</time>
      </trkpt>
      <trkpt lat="42.5124200" lon="2.6306030">
        <ele>503.6</ele>
        <time>2020-07-21T07:29:04Z</time>
      </trkpt>
      <trkpt lat="42.5124640" lon="2.6305910">
        <ele>503.8</ele>
        <time>2020-07-21T07:29:05Z</time>
      </trkpt>
      <trkpt lat="42.5125100" lon="2.6305790">
        <ele>504.0</ele>
        <time>2020-07-21T07:29:06Z</time>
      </trkpt>
      <trkpt lat="42.5125540" lon="2.6305720">
        <ele>504.4</ele>
        <time>2020-07-21T07:29:07Z</time>
      </trkpt>
      <trkpt lat="42.5127280" lon="2.6305380">
        <ele>505.4</ele>
        <time>2020-07-21T07:29:11Z</time>
      </trkpt>
      <trkpt lat="42.5128120" lon="2.6305180">
        <ele>505.8</ele>
        <time>2020-07-21T07:29:13Z</time>
      </trkpt>
      <trkpt lat="42.5129370" lon="2.6304910">
        <ele>506.2</ele>
        <time>2020-07-21T07:29:16Z</time>
      </trkpt>
      <trkpt lat="42.5130200" lon="2.6304810">
        <ele>506.6</ele>
        <time>2020-07-21T07:29:18Z</time>
      </trkpt>
      <trkpt lat="42.5130650" lon="2.6304840">
        <ele>506.8</ele>
        <time>2020-07-21T07:29:19Z</time>
      </trkpt>
      <trkpt lat="42.5131120" lon="2.6304950">
        <ele>506.8</ele>
        <time>2020-07-21T07:29:20Z</time>
      </trkpt>
      <trkpt lat="42.5131560" lon="2.6305180">
        <ele>506.8</ele>
        <time>2020-07-21T07:29:21Z</time>
      </trkpt>
      <trkpt lat="42.5133390" lon="2.6306180">
        <ele>507.0</ele>
        <time>2020-07-21T07:29:25Z</time>
      </trkpt>
      <trkpt lat="42.5136200" lon="2.6306990">
        <ele>507.0</ele>
        <time>2020-07-21T07:29:31Z</time>
      </trkpt>
      <trkpt lat="42.5136670" lon="2.6307260">
        <ele>507.0</ele>
        <time>2020-07-21T07:29:32Z</time>
      </trkpt>
      <trkpt lat="42.5137540" lon="2.6308080">
        <ele>507.2</ele>
        <time>2020-07-21T07:29:34Z</time>
      </trkpt>
      <trkpt lat="42.5138050" lon="2.6309280">
        <ele>507.2</ele>
        <time>2020-07-21T07:29:36Z</time>
      </trkpt>
      <trkpt lat="42.5139380" lon="2.6313070">
        <ele>506.4</ele>
        <time>2020-07-21T07:29:42Z</time>
      </trkpt>
      <trkpt lat="42.5139970" lon="2.6314280">
        <ele>506.2</ele>
        <time>2020-07-21T07:29:44Z</time>
      </trkpt>
      <trkpt lat="42.5140790" lon="2.6315120">
        <ele>506.2</ele>
        <time>2020-07-21T07:29:46Z</time>
      </trkpt>
      <trkpt lat="42.5141310" lon="2.6315330">
        <ele>506.2</ele>
        <time>2020-07-21T07:29:47Z</time>
      </trkpt>
      <trkpt lat="42.5141860" lon="2.6315430">
        <ele>506.2</ele>
        <time>2020-07-21T07:29:48Z</time>
      </trkpt>
      <trkpt lat="42.5142960" lon="2.6315380">
        <ele>506.4</ele>
        <time>2020-07-21T07:29:50Z</time>
      </trkpt>
      <trkpt lat="42.5143530" lon="2.6315300">
        <ele>506.4</ele>
        <time>2020-07-21T07:29:51Z</time>
      </trkpt>
      <trkpt lat="42.5144080" lon="2.6315210">
        <ele>506.6</ele>
        <time>2020-07-21T07:29:52Z</time>
      </trkpt>
      <trkpt lat="42.5145760" lon="2.6315260">
        <ele>506.6</ele>
        <time>2020-07-21T07:29:55Z</time>
      </trkpt>
      <trkpt lat="42.5146780" lon="2.6315900">
        <ele>506.6</ele>
        <time>2020-07-21T07:29:57Z</time>
      </trkpt>
      <trkpt lat="42.5148880" lon="2.6317040">
        <ele>506.4</ele>
        <time>2020-07-21T07:30:01Z</time>
      </trkpt>
      <trkpt lat="42.5150010" lon="2.6317150">
        <ele>506.2</ele>
        <time>2020-07-21T07:30:03Z</time>
      </trkpt>
      <trkpt lat="42.5151110" lon="2.6316840">
        <ele>506.2</ele>
        <time>2020-07-21T07:30:05Z</time>
      </trkpt>
      <trkpt lat="42.5152170" lon="2.6316260">
        <ele>506.2</ele>
        <time>2020-07-21T07:30:07Z</time>
      </trkpt>
      <trkpt lat="42.5153660" lon="2.6315020">
        <ele>506.2</ele>
        <time>2020-07-21T07:30:10Z</time>
      </trkpt>
      <trkpt lat="42.5154520" lon="2.6313870">
        <ele>506.0</ele>
        <time>2020-07-21T07:30:12Z</time>
      </trkpt>
      <trkpt lat="42.5156910" lon="2.6309910">
        <ele>506.0</ele>
        <time>2020-07-21T07:30:18Z</time>
      </trkpt>
      <trkpt lat="42.5157610" lon="2.6308750">
        <ele>506.0</ele>
        <time>2020-07-21T07:30:20Z</time>
      </trkpt>
      <trkpt lat="42.5159200" lon="2.6306880">
        <ele>506.4</ele>
        <time>2020-07-21T07:30:24Z</time>
      </trkpt>
      <trkpt lat="42.5160240" lon="2.6306270">
        <ele>507.0</ele>
        <time>2020-07-21T07:30:26Z</time>
      </trkpt>
      <trkpt lat="42.5161330" lon="2.6305860">
        <ele>507.8</ele>
        <time>2020-07-21T07:30:28Z</time>
      </trkpt>
      <trkpt lat="42.5161890" lon="2.6305750">
        <ele>508.0</ele>
        <time>2020-07-21T07:30:29Z</time>
      </trkpt>
      <trkpt lat="42.5163020" lon="2.6305850">
        <ele>508.2</ele>
        <time>2020-07-21T07:30:31Z</time>
      </trkpt>
      <trkpt lat="42.5164030" lon="2.6306410">
        <ele>508.6</ele>
        <time>2020-07-21T07:30:33Z</time>
      </trkpt>
      <trkpt lat="42.5164350" lon="2.6306990">
        <ele>508.6</ele>
        <time>2020-07-21T07:30:34Z</time>
      </trkpt>
      <trkpt lat="42.5164610" lon="2.6307600">
        <ele>508.6</ele>
        <time>2020-07-21T07:30:35Z</time>
      </trkpt>
      <trkpt lat="42.5165030" lon="2.6308810">
        <ele>508.8</ele>
        <time>2020-07-21T07:30:37Z</time>
      </trkpt>
      <trkpt lat="42.5165210" lon="2.6309460">
        <ele>509.0</ele>
        <time>2020-07-21T07:30:38Z</time>
      </trkpt>
      <trkpt lat="42.5165910" lon="2.6311360">
        <ele>509.0</ele>
        <time>2020-07-21T07:30:41Z</time>
      </trkpt>
      <trkpt lat="42.5166580" lon="2.6312480">
        <ele>509.2</ele>
        <time>2020-07-21T07:30:43Z</time>
      </trkpt>
      <trkpt lat="42.5168390" lon="2.6314930">
        <ele>510.0</ele>
        <time>2020-07-21T07:30:48Z</time>
      </trkpt>
      <trkpt lat="42.5169700" lon="2.6316850">
        <ele>511.0</ele>
        <time>2020-07-21T07:30:52Z</time>
      </trkpt>
      <trkpt lat="42.5171530" lon="2.6319670">
        <ele>511.4</ele>
        <time>2020-07-21T07:30:58Z</time>
      </trkpt>
      <trkpt lat="42.5172140" lon="2.6320670">
        <ele>511.8</ele>
        <time>2020-07-21T07:31:00Z</time>
      </trkpt>
      <trkpt lat="42.5172390" lon="2.6321210">
        <ele>512.0</ele>
        <time>2020-07-21T07:31:01Z</time>
      </trkpt>
      <trkpt lat="42.5172930" lon="2.6322910">
        <ele>512.2</ele>
        <time>2020-07-21T07:31:04Z</time>
      </trkpt>
      <trkpt lat="42.5173030" lon="2.6323470">
        <ele>512.2</ele>
        <time>2020-07-21T07:31:05Z</time>
      </trkpt>
      <trkpt lat="42.5173570" lon="2.6325670">
        <ele>512.8</ele>
        <time>2020-07-21T07:31:09Z</time>
      </trkpt>
      <trkpt lat="42.5173910" lon="2.6326830">
        <ele>513.2</ele>
        <time>2020-07-21T07:31:11Z</time>
      </trkpt>
      <trkpt lat="42.5174100" lon="2.6328690">
        <ele>513.6</ele>
        <time>2020-07-21T07:31:14Z</time>
      </trkpt>
      <trkpt lat="42.5173970" lon="2.6330000">
        <ele>514.0</ele>
        <time>2020-07-21T07:31:16Z</time>
      </trkpt>
      <trkpt lat="42.5173830" lon="2.6330680">
        <ele>514.2</ele>
        <time>2020-07-21T07:31:17Z</time>
      </trkpt>
      <trkpt lat="42.5173730" lon="2.6332480">
        <ele>514.4</ele>
        <time>2020-07-21T07:31:20Z</time>
      </trkpt>
      <trkpt lat="42.5173960" lon="2.6333690">
        <ele>514.6</ele>
        <time>2020-07-21T07:31:22Z</time>
      </trkpt>
      <trkpt lat="42.5174280" lon="2.6334840">
        <ele>515.0</ele>
        <time>2020-07-21T07:31:24Z</time>
      </trkpt>
      <trkpt lat="42.5174720" lon="2.6335960">
        <ele>515.4</ele>
        <time>2020-07-21T07:31:26Z</time>
      </trkpt>
      <trkpt lat="42.5175580" lon="2.6338270">
        <ele>515.8</ele>
        <time>2020-07-21T07:31:30Z</time>
      </trkpt>
      <trkpt lat="42.5176400" lon="2.6341080">
        <ele>516.4</ele>
        <time>2020-07-21T07:31:35Z</time>
      </trkpt>
      <trkpt lat="42.5176700" lon="2.6342210">
        <ele>516.4</ele>
        <time>2020-07-21T07:31:37Z</time>
      </trkpt>
      <trkpt lat="42.5176830" lon="2.6342800">
        <ele>516.6</ele>
        <time>2020-07-21T07:31:38Z</time>
      </trkpt>
      <trkpt lat="42.5177200" lon="2.6344580">
        <ele>517.4</ele>
        <time>2020-07-21T07:31:41Z</time>
      </trkpt>
      <trkpt lat="42.5177860" lon="2.6346740">
        <ele>517.8</ele>
        <time>2020-07-21T07:31:45Z</time>
      </trkpt>
      <trkpt lat="42.5178070" lon="2.6347290">
        <ele>518.0</ele>
        <time>2020-07-21T07:31:46Z</time>
      </trkpt>
      <trkpt lat="42.5178510" lon="2.6348350">
        <ele>518.4</ele>
        <time>2020-07-21T07:31:48Z</time>
      </trkpt>
      <trkpt lat="42.5179910" lon="2.6351010">
        <ele>519.2</ele>
        <time>2020-07-21T07:31:53Z</time>
      </trkpt>
      <trkpt lat="42.5181810" lon="2.6353740">
        <ele>519.2</ele>
        <time>2020-07-21T07:31:59Z</time>
      </trkpt>
      <trkpt lat="42.5182190" lon="2.6354110">
        <ele>519.4</ele>
        <time>2020-07-21T07:32:00Z</time>
      </trkpt>
      <trkpt lat="42.5182540" lon="2.6354500">
        <ele>519.6</ele>
        <time>2020-07-21T07:32:01Z</time>
      </trkpt>
      <trkpt lat="42.5184460" lon="2.6356240">
        <ele>520.4</ele>
        <time>2020-07-21T07:32:06Z</time>
      </trkpt>
      <trkpt lat="42.5185320" lon="2.6356800">
        <ele>520.8</ele>
        <time>2020-07-21T07:32:08Z</time>
      </trkpt>
      <trkpt lat="42.5187170" lon="2.6357570">
        <ele>521.2</ele>
        <time>2020-07-21T07:32:12Z</time>
      </trkpt>
      <trkpt lat="42.5187700" lon="2.6357610">
        <ele>521.4</ele>
        <time>2020-07-21T07:32:13Z</time>
      </trkpt>
      <trkpt lat="42.5189160" lon="2.6357600">
        <ele>521.4</ele>
        <time>2020-07-21T07:32:16Z</time>
      </trkpt>
      <trkpt lat="42.5190100" lon="2.6357520">
        <ele>522.0</ele>
        <time>2020-07-21T07:32:18Z</time>
      </trkpt>
      <trkpt lat="42.5191080" lon="2.6357460">
        <ele>522.4</ele>
        <time>2020-07-21T07:32:20Z</time>
      </trkpt>
      <trkpt lat="42.5191570" lon="2.6357430">
        <ele>522.6</ele>
        <time>2020-07-21T07:32:21Z</time>
      </trkpt>
      <trkpt lat="42.5193980" lon="2.6357130">
        <ele>523.4</ele>
        <time>2020-07-21T07:32:26Z</time>
      </trkpt>
      <trkpt lat="42.5194950" lon="2.6357150">
        <ele>523.6</ele>
        <time>2020-07-21T07:32:28Z</time>
      </trkpt>
      <trkpt lat="42.5196350" lon="2.6357080">
        <ele>524.0</ele>
        <time>2020-07-21T07:32:31Z</time>
      </trkpt>
      <trkpt lat="42.5197750" lon="2.6357010">
        <ele>524.8</ele>
        <time>2020-07-21T07:32:34Z</time>
      </trkpt>
      <trkpt lat="42.5198650" lon="2.6356930">
        <ele>525.0</ele>
        <time>2020-07-21T07:32:36Z</time>
      </trkpt>
      <trkpt lat="42.5201350" lon="2.6356620">
        <ele>525.6</ele>
        <time>2020-07-21T07:32:42Z</time>
      </trkpt>
      <trkpt lat="42.5202240" lon="2.6356510">
        <ele>525.8</ele>
        <time>2020-07-21T07:32:44Z</time>
      </trkpt>
      <trkpt lat="42.5202690" lon="2.6356500">
        <ele>526.0</ele>
        <time>2020-07-21T07:32:45Z</time>
      </trkpt>
      <trkpt lat="42.5204990" lon="2.6356330">
        <ele>526.8</ele>
        <time>2020-07-21T07:32:50Z</time>
      </trkpt>
      <trkpt lat="42.5205450" lon="2.6356200">
        <ele>527.0</ele>
        <time>2020-07-21T07:32:51Z</time>
      </trkpt>
      <trkpt lat="42.5206330" lon="2.6355700">
        <ele>527.2</ele>
        <time>2020-07-21T07:32:53Z</time>
      </trkpt>
      <trkpt lat="42.5206740" lon="2.6355350">
        <ele>527.2</ele>
        <time>2020-07-21T07:32:54Z</time>
      </trkpt>
      <trkpt lat="42.5207100" lon="2.6354890">
        <ele>527.2</ele>
        <time>2020-07-21T07:32:55Z</time>
      </trkpt>
      <trkpt lat="42.5207660" lon="2.6353820">
        <ele>527.2</ele>
        <time>2020-07-21T07:32:57Z</time>
      </trkpt>
      <trkpt lat="42.5207940" lon="2.6352470">
        <ele>527.2</ele>
        <time>2020-07-21T07:32:59Z</time>
      </trkpt>
      <trkpt lat="42.5208360" lon="2.6350590">
        <ele>527.4</ele>
        <time>2020-07-21T07:33:02Z</time>
      </trkpt>
      <trkpt lat="42.5208750" lon="2.6348230">
        <ele>527.8</ele>
        <time>2020-07-21T07:33:06Z</time>
      </trkpt>
      <trkpt lat="42.5208940" lon="2.6346370">
        <ele>528.0</ele>
        <time>2020-07-21T07:33:09Z</time>
      </trkpt>
      <trkpt lat="42.5209220" lon="2.6345110">
        <ele>528.2</ele>
        <time>2020-07-21T07:33:11Z</time>
      </trkpt>
      <trkpt lat="42.5209810" lon="2.6343810">
        <ele>528.2</ele>
        <time>2020-07-21T07:33:13Z</time>
      </trkpt>
      <trkpt lat="42.5210300" lon="2.6343380">
        <ele>528.4</ele>
        <time>2020-07-21T07:33:14Z</time>
      </trkpt>
      <trkpt lat="42.5210850" lon="2.6343120">
        <ele>528.4</ele>
        <time>2020-07-21T07:33:15Z</time>
      </trkpt>
      <trkpt lat="42.5212440" lon="2.6342590">
        <ele>528.2</ele>
        <time>2020-07-21T07:33:18Z</time>
      </trkpt>
      <trkpt lat="42.5213400" lon="2.6342060">
        <ele>528.4</ele>
        <time>2020-07-21T07:33:20Z</time>
      </trkpt>
      <trkpt lat="42.5214350" lon="2.6341440">
        <ele>528.6</ele>
        <time>2020-07-21T07:33:22Z</time>
      </trkpt>
      <trkpt lat="42.5215250" lon="2.6340710">
        <ele>528.8</ele>
        <time>2020-07-21T07:33:24Z</time>
      </trkpt>
      <trkpt lat="42.5216790" lon="2.6339890">
        <ele>528.6</ele>
        <time>2020-07-21T07:33:27Z</time>
      </trkpt>
      <trkpt lat="42.5217850" lon="2.6339910">
        <ele>528.4</ele>
        <time>2020-07-21T07:33:29Z</time>
      </trkpt>
      <trkpt lat="42.5219810" lon="2.6340760">
        <ele>528.6</ele>
        <time>2020-07-21T07:33:33Z</time>
      </trkpt>
      <trkpt lat="42.5220850" lon="2.6340790">
        <ele>529.0</ele>
        <time>2020-07-21T07:33:35Z</time>
      </trkpt>
      <trkpt lat="42.5221820" lon="2.6340420">
        <ele>529.0</ele>
        <time>2020-07-21T07:33:37Z</time>
      </trkpt>
      <trkpt lat="42.5222650" lon="2.6339630">
        <ele>529.0</ele>
        <time>2020-07-21T07:33:39Z</time>
      </trkpt>
      <trkpt lat="42.5223300" lon="2.6338530">
        <ele>529.0</ele>
        <time>2020-07-21T07:33:41Z</time>
      </trkpt>
      <trkpt lat="42.5223860" lon="2.6337320">
        <ele>529.0</ele>
        <time>2020-07-21T07:33:43Z</time>
      </trkpt>
      <trkpt lat="42.5225130" lon="2.6334270">
        <ele>529.4</ele>
        <time>2020-07-21T07:33:48Z</time>
      </trkpt>
      <trkpt lat="42.5226350" lon="2.6331720">
        <ele>530.0</ele>
        <time>2020-07-21T07:33:53Z</time>
      </trkpt>
      <trkpt lat="42.5226860" lon="2.6330950">
        <ele>530.2</ele>
        <time>2020-07-21T07:33:55Z</time>
      </trkpt>
      <trkpt lat="42.5228730" lon="2.6328680">
        <ele>531.0</ele>
        <time>2020-07-21T07:34:01Z</time>
      </trkpt>
      <trkpt lat="42.5229080" lon="2.6328330">
        <ele>531.2</ele>
        <time>2020-07-21T07:34:02Z</time>
      </trkpt>
      <trkpt lat="42.5230470" lon="2.6326990">
        <ele>531.6</ele>
        <time>2020-07-21T07:34:06Z</time>
      </trkpt>
      <trkpt lat="42.5231810" lon="2.6325720">
        <ele>532.2</ele>
        <time>2020-07-21T07:34:10Z</time>
      </trkpt>
      <trkpt lat="42.5232480" lon="2.6325120">
        <ele>532.4</ele>
        <time>2020-07-21T07:34:12Z</time>
      </trkpt>
      <trkpt lat="42.5233110" lon="2.6324550">
        <ele>533.2</ele>
        <time>2020-07-21T07:34:14Z</time>
      </trkpt>
      <trkpt lat="42.5233400" lon="2.6324250">
        <ele>533.6</ele>
        <time>2020-07-21T07:34:15Z</time>
      </trkpt>
      <trkpt lat="42.5233950" lon="2.6323640">
        <ele>534.0</ele>
        <time>2020-07-21T07:34:17Z</time>
      </trkpt>
      <trkpt lat="42.5234800" lon="2.6322900">
        <ele>534.2</ele>
        <time>2020-07-21T07:34:20Z</time>
      </trkpt>
      <trkpt lat="42.5235310" lon="2.6322360">
        <ele>534.6</ele>
        <time>2020-07-21T07:34:22Z</time>
      </trkpt>
      <trkpt lat="42.5235580" lon="2.6322090">
        <ele>534.8</ele>
        <time>2020-07-21T07:34:23Z</time>
      </trkpt>
      <trkpt lat="42.5236120" lon="2.6321520">
        <ele>535.4</ele>
        <time>2020-07-21T07:34:25Z</time>
      </trkpt>
      <trkpt lat="42.5236710" lon="2.6321020">
        <ele>535.8</ele>
        <time>2020-07-21T07:34:27Z</time>
      </trkpt>
      <trkpt lat="42.5237230" lon="2.6320630">
        <ele>536.4</ele>
        <time>2020-07-21T07:34:29Z</time>
      </trkpt>
      <trkpt lat="42.5238410" lon="2.6320120">
        <ele>537.2</ele>
        <time>2020-07-21T07:34:33Z</time>
      </trkpt>
      <trkpt lat="42.5238740" lon="2.6319980">
        <ele>537.6</ele>
        <time>2020-07-21T07:34:34Z</time>
      </trkpt>
      <trkpt lat="42.5239560" lon="2.6319530">
        <ele>538.0</ele>
        <time>2020-07-21T07:34:37Z</time>
      </trkpt>
      <trkpt lat="42.5240150" lon="2.6319130">
        <ele>538.2</ele>
        <time>2020-07-21T07:34:39Z</time>
      </trkpt>
      <trkpt lat="42.5240420" lon="2.6318850">
        <ele>538.4</ele>
        <time>2020-07-21T07:34:40Z</time>
      </trkpt>
      <trkpt lat="42.5240830" lon="2.6318090">
        <ele>538.6</ele>
        <time>2020-07-21T07:34:42Z</time>
      </trkpt>
      <trkpt lat="42.5241340" lon="2.6316970">
        <ele>539.4</ele>
        <time>2020-07-21T07:34:45Z</time>
      </trkpt>
      <trkpt lat="42.5241630" lon="2.6316190">
        <ele>539.8</ele>
        <time>2020-07-21T07:34:47Z</time>
      </trkpt>
      <trkpt lat="42.5242080" lon="2.6314960">
        <ele>540.4</ele>
        <time>2020-07-21T07:34:50Z</time>
      </trkpt>
      <trkpt lat="42.5242490" lon="2.6314250">
        <ele>540.6</ele>
        <time>2020-07-21T07:34:52Z</time>
      </trkpt>
      <trkpt lat="42.5243020" lon="2.6313780">
        <ele>541.0</ele>
        <time>2020-07-21T07:34:54Z</time>
      </trkpt>
      <trkpt lat="42.5244590" lon="2.6312310">
        <ele>541.6</ele>
        <time>2020-07-21T07:35:00Z</time>
      </trkpt>
      <trkpt lat="42.5244840" lon="2.6312040">
        <ele>541.6</ele>
        <time>2020-07-21T07:35:01Z</time>
      </trkpt>
      <trkpt lat="42.5246480" lon="2.6310220">
        <ele>541.6</ele>
        <time>2020-07-21T07:35:07Z</time>
      </trkpt>
      <trkpt lat="42.5247650" lon="2.6308530">
        <ele>541.4</ele>
        <time>2020-07-21T07:35:11Z</time>
      </trkpt>
      <trkpt lat="42.5248200" lon="2.6307540">
        <ele>541.4</ele>
        <time>2020-07-21T07:35:13Z</time>
      </trkpt>
      <trkpt lat="42.5249480" lon="2.6305690">
        <ele>540.8</ele>
        <time>2020-07-21T07:35:17Z</time>
      </trkpt>
      <trkpt lat="42.5250230" lon="2.6304830">
        <ele>540.2</ele>
        <time>2020-07-21T07:35:19Z</time>
      </trkpt>
      <trkpt lat="42.5250650" lon="2.6304410">
        <ele>540.0</ele>
        <time>2020-07-21T07:35:20Z</time>
      </trkpt>
      <trkpt lat="42.5251950" lon="2.6303340">
        <ele>539.8</ele>
        <time>2020-07-21T07:35:23Z</time>
      </trkpt>
      <trkpt lat="42.5253170" lon="2.6302450">
        <ele>540.0</ele>
        <time>2020-07-21T07:35:26Z</time>
      </trkpt>
      <trkpt lat="42.5255450" lon="2.6299940">
        <ele>539.6</ele>
        <time>2020-07-21T07:35:32Z</time>
      </trkpt>
      <trkpt lat="42.5255820" lon="2.6299470">
        <ele>539.6</ele>
        <time>2020-07-21T07:35:33Z</time>
      </trkpt>
      <trkpt lat="42.5257340" lon="2.6297090">
        <ele>539.8</ele>
        <time>2020-07-21T07:35:38Z</time>
      </trkpt>
      <trkpt lat="42.5257540" lon="2.6296520">
        <ele>539.8</ele>
        <time>2020-07-21T07:35:39Z</time>
      </trkpt>
      <trkpt lat="42.5257700" lon="2.6295840">
        <ele>539.6</ele>
        <time>2020-07-21T07:35:40Z</time>
      </trkpt>
      <trkpt lat="42.5257990" lon="2.6293750">
        <ele>539.4</ele>
        <time>2020-07-21T07:35:43Z</time>
      </trkpt>
      <trkpt lat="42.5257880" lon="2.6292330">
        <ele>539.2</ele>
        <time>2020-07-21T07:35:45Z</time>
      </trkpt>
      <trkpt lat="42.5257710" lon="2.6291530">
        <ele>539.0</ele>
        <time>2020-07-21T07:35:46Z</time>
      </trkpt>
      <trkpt lat="42.5257360" lon="2.6289980">
        <ele>538.8</ele>
        <time>2020-07-21T07:35:48Z</time>
      </trkpt>
      <trkpt lat="42.5256750" lon="2.6287600">
        <ele>538.2</ele>
        <time>2020-07-21T07:35:51Z</time>
      </trkpt>
      <trkpt lat="42.5256550" lon="2.6286710">
        <ele>538.0</ele>
        <time>2020-07-21T07:35:52Z</time>
      </trkpt>
      <trkpt lat="42.5256250" lon="2.6285030">
        <ele>537.8</ele>
        <time>2020-07-21T07:35:54Z</time>
      </trkpt>
      <trkpt lat="42.5255210" lon="2.6280090">
        <ele>536.8</ele>
        <time>2020-07-21T07:36:00Z</time>
      </trkpt>
      <trkpt lat="42.5254980" lon="2.6277440">
        <ele>536.8</ele>
        <time>2020-07-21T07:36:03Z</time>
      </trkpt>
      <trkpt lat="42.5255020" lon="2.6276560">
        <ele>536.6</ele>
        <time>2020-07-21T07:36:04Z</time>
      </trkpt>
      <trkpt lat="42.5255150" lon="2.6275700">
        <ele>536.4</ele>
        <time>2020-07-21T07:36:05Z</time>
      </trkpt>
      <trkpt lat="42.5255590" lon="2.6273960">
        <ele>536.2</ele>
        <time>2020-07-21T07:36:07Z</time>
      </trkpt>
      <trkpt lat="42.5256440" lon="2.6271520">
        <ele>536.0</ele>
        <time>2020-07-21T07:36:10Z</time>
      </trkpt>
      <trkpt lat="42.5257170" lon="2.6269980">
        <ele>535.6</ele>
        <time>2020-07-21T07:36:12Z</time>
      </trkpt>
      <trkpt lat="42.5258410" lon="2.6266570">
        <ele>535.6</ele>
        <time>2020-07-21T07:36:16Z</time>
      </trkpt>
      <trkpt lat="42.5258930" lon="2.6264790">
        <ele>535.4</ele>
        <time>2020-07-21T07:36:18Z</time>
      </trkpt>
      <trkpt lat="42.5259220" lon="2.6263900">
        <ele>535.4</ele>
        <time>2020-07-21T07:36:19Z</time>
      </trkpt>
      <trkpt lat="42.5260900" lon="2.6259700">
        <ele>535.0</ele>
        <time>2020-07-21T07:36:24Z</time>
      </trkpt>
      <trkpt lat="42.5261500" lon="2.6258060">
        <ele>534.8</ele>
        <time>2020-07-21T07:36:26Z</time>
      </trkpt>
      <trkpt lat="42.5262010" lon="2.6256230">
        <ele>534.6</ele>
        <time>2020-07-21T07:36:28Z</time>
      </trkpt>
      <trkpt lat="42.5262250" lon="2.6255240">
        <ele>534.4</ele>
        <time>2020-07-21T07:36:29Z</time>
      </trkpt>
      <trkpt lat="42.5262650" lon="2.6252250">
        <ele>534.0</ele>
        <time>2020-07-21T07:36:32Z</time>
      </trkpt>
      <trkpt lat="42.5262840" lon="2.6249320">
        <ele>533.6</ele>
        <time>2020-07-21T07:36:35Z</time>
      </trkpt>
      <trkpt lat="42.5262930" lon="2.6247400">
        <ele>533.4</ele>
        <time>2020-07-21T07:36:37Z</time>
      </trkpt>
      <trkpt lat="42.5263070" lon="2.6246570">
        <ele>533.2</ele>
        <time>2020-07-21T07:36:38Z</time>
      </trkpt>
      <trkpt lat="42.5263710" lon="2.6245150">
        <ele>533.0</ele>
        <time>2020-07-21T07:36:40Z</time>
      </trkpt>
      <trkpt lat="42.5264880" lon="2.6244530">
        <ele>532.8</ele>
        <time>2020-07-21T07:36:42Z</time>
      </trkpt>
      <trkpt lat="42.5265480" lon="2.6244360">
        <ele>532.8</ele>
        <time>2020-07-21T07:36:43Z</time>
      </trkpt>
      <trkpt lat="42.5267260" lon="2.6243540">
        <ele>532.6</ele>
        <time>2020-07-21T07:36:46Z</time>
      </trkpt>
      <trkpt lat="42.5267700" lon="2.6242980">
        <ele>532.4</ele>
        <time>2020-07-21T07:36:47Z</time>
      </trkpt>
      <trkpt lat="42.5268450" lon="2.6241630">
        <ele>532.0</ele>
        <time>2020-07-21T07:36:49Z</time>
      </trkpt>
      <trkpt lat="42.5269450" lon="2.6239260">
        <ele>531.8</ele>
        <time>2020-07-21T07:36:52Z</time>
      </trkpt>
      <trkpt lat="42.5269690" lon="2.6238290">
        <ele>531.8</ele>
        <time>2020-07-21T07:36:53Z</time>
      </trkpt>
      <trkpt lat="42.5270260" lon="2.6235620">
        <ele>531.6</ele>
        <time>2020-07-21T07:36:56Z</time>
      </trkpt>
      <trkpt lat="42.5270720" lon="2.6231940">
        <ele>531.4</ele>
        <time>2020-07-21T07:37:00Z</time>
      </trkpt>
      <trkpt lat="42.5270830" lon="2.6231050">
        <ele>531.2</ele>
        <time>2020-07-21T07:37:01Z</time>
      </trkpt>
      <trkpt lat="42.5270920" lon="2.6230150">
        <ele>531.2</ele>
        <time>2020-07-21T07:37:02Z</time>
      </trkpt>
      <trkpt lat="42.5270800" lon="2.6226670">
        <ele>531.0</ele>
        <time>2020-07-21T07:37:06Z</time>
      </trkpt>
      <trkpt lat="42.5270610" lon="2.6225820">
        <ele>531.0</ele>
        <time>2020-07-21T07:37:07Z</time>
      </trkpt>
      <trkpt lat="42.5269140" lon="2.6221690">
        <ele>530.4</ele>
        <time>2020-07-21T07:37:12Z</time>
      </trkpt>
      <trkpt lat="42.5268780" lon="2.6220910">
        <ele>530.4</ele>
        <time>2020-07-21T07:37:13Z</time>
      </trkpt>
      <trkpt lat="42.5268430" lon="2.6220150">
        <ele>530.2</ele>
        <time>2020-07-21T07:37:14Z</time>
      </trkpt>
      <trkpt lat="42.5267070" lon="2.6216940">
        <ele>530.0</ele>
        <time>2020-07-21T07:37:18Z</time>
      </trkpt>
      <trkpt lat="42.5266870" lon="2.6216060">
        <ele>529.8</ele>
        <time>2020-07-21T07:37:19Z</time>
      </trkpt>
      <trkpt lat="42.5266700" lon="2.6215210">
        <ele>529.6</ele>
        <time>2020-07-21T07:37:20Z</time>
      </trkpt>
      <trkpt lat="42.5266000" lon="2.6210070">
        <ele>529.4</ele>
        <time>2020-07-21T07:37:26Z</time>
      </trkpt>
      <trkpt lat="42.5265720" lon="2.6208340">
        <ele>529.2</ele>
        <time>2020-07-21T07:37:28Z</time>
      </trkpt>
      <trkpt lat="42.5265040" lon="2.6205870">
        <ele>529.2</ele>
        <time>2020-07-21T07:37:31Z</time>
      </trkpt>
      <trkpt lat="42.5264710" lon="2.6205160">
        <ele>529.2</ele>
        <time>2020-07-21T07:37:32Z</time>
      </trkpt>
      <trkpt lat="42.5264250" lon="2.6204490">
        <ele>529.2</ele>
        <time>2020-07-21T07:37:33Z</time>
      </trkpt>
      <trkpt lat="42.5263180" lon="2.6203420">
        <ele>529.2</ele>
        <time>2020-07-21T07:37:35Z</time>
      </trkpt>
      <trkpt lat="42.5262580" lon="2.6203150">
        <ele>529.2</ele>
        <time>2020-07-21T07:37:36Z</time>
      </trkpt>
      <trkpt lat="42.5261980" lon="2.6202940">
        <ele>529.2</ele>
        <time>2020-07-21T07:37:37Z</time>
      </trkpt>
      <trkpt lat="42.5260730" lon="2.6202810">
        <ele>529.2</ele>
        <time>2020-07-21T07:37:39Z</time>
      </trkpt>
      <trkpt lat="42.5260140" lon="2.6202920">
        <ele>529.0</ele>
        <time>2020-07-21T07:37:40Z</time>
      </trkpt>
      <trkpt lat="42.5258880" lon="2.6202990">
        <ele>528.6</ele>
        <time>2020-07-21T07:37:42Z</time>
      </trkpt>
      <trkpt lat="42.5257610" lon="2.6202520">
        <ele>528.2</ele>
        <time>2020-07-21T07:37:44Z</time>
      </trkpt>
      <trkpt lat="42.5257000" lon="2.6202090">
        <ele>528.0</ele>
        <time>2020-07-21T07:37:45Z</time>
      </trkpt>
      <trkpt lat="42.5255980" lon="2.6201050">
        <ele>528.0</ele>
        <time>2020-07-21T07:37:47Z</time>
      </trkpt>
      <trkpt lat="42.5255480" lon="2.6200480">
        <ele>528.0</ele>
        <time>2020-07-21T07:37:48Z</time>
      </trkpt>
      <trkpt lat="42.5254500" lon="2.6199380">
        <ele>528.0</ele>
        <time>2020-07-21T07:37:50Z</time>
      </trkpt>
      <trkpt lat="42.5253440" lon="2.6198580">
        <ele>527.8</ele>
        <time>2020-07-21T07:37:52Z</time>
      </trkpt>
      <trkpt lat="42.5252270" lon="2.6198030">
        <ele>527.8</ele>
        <time>2020-07-21T07:37:54Z</time>
      </trkpt>
      <trkpt lat="42.5251060" lon="2.6197280">
        <ele>527.8</ele>
        <time>2020-07-21T07:37:56Z</time>
      </trkpt>
      <trkpt lat="42.5249390" lon="2.6195880">
        <ele>527.6</ele>
        <time>2020-07-21T07:37:59Z</time>
      </trkpt>
      <trkpt lat="42.5248290" lon="2.6195230">
        <ele>527.2</ele>
        <time>2020-07-21T07:38:01Z</time>
      </trkpt>
      <trkpt lat="42.5247730" lon="2.6195090">
        <ele>527.0</ele>
        <time>2020-07-21T07:38:02Z</time>
      </trkpt>
      <trkpt lat="42.5247130" lon="2.6195120">
        <ele>527.0</ele>
        <time>2020-07-21T07:38:03Z</time>
      </trkpt>
      <trkpt lat="42.5246530" lon="2.6195210">
        <ele>527.0</ele>
        <time>2020-07-21T07:38:04Z</time>
      </trkpt>
      <trkpt lat="42.5245880" lon="2.6195310">
        <ele>527.0</ele>
        <time>2020-07-21T07:38:05Z</time>
      </trkpt>
      <trkpt lat="42.5245240" lon="2.6195280">
        <ele>527.0</ele>
        <time>2020-07-21T07:38:06Z</time>
      </trkpt>
      <trkpt lat="42.5244700" lon="2.6195030">
        <ele>527.0</ele>
        <time>2020-07-21T07:38:07Z</time>
      </trkpt>
      <trkpt lat="42.5244170" lon="2.6194630">
        <ele>527.0</ele>
        <time>2020-07-21T07:38:08Z</time>
      </trkpt>
      <trkpt lat="42.5243300" lon="2.6192910">
        <ele>527.0</ele>
        <time>2020-07-21T07:38:11Z</time>
      </trkpt>
      <trkpt lat="42.5243100" lon="2.6191730">
        <ele>527.0</ele>
        <time>2020-07-21T07:38:13Z</time>
      </trkpt>
      <trkpt lat="42.5242930" lon="2.6190590">
        <ele>527.0</ele>
        <time>2020-07-21T07:38:15Z</time>
      </trkpt>
      <trkpt lat="42.5242550" lon="2.6189170">
        <ele>526.6</ele>
        <time>2020-07-21T07:38:17Z</time>
      </trkpt>
      <trkpt lat="42.5241710" lon="2.6187780">
        <ele>526.4</ele>
        <time>2020-07-21T07:38:19Z</time>
      </trkpt>
      <trkpt lat="42.5240740" lon="2.6186510">
        <ele>526.0</ele>
        <time>2020-07-21T07:38:21Z</time>
      </trkpt>
      <trkpt lat="42.5239720" lon="2.6185520">
        <ele>525.6</ele>
        <time>2020-07-21T07:38:23Z</time>
      </trkpt>
      <trkpt lat="42.5239200" lon="2.6185160">
        <ele>525.6</ele>
        <time>2020-07-21T07:38:24Z</time>
      </trkpt>
      <trkpt lat="42.5238050" lon="2.6184940">
        <ele>525.2</ele>
        <time>2020-07-21T07:38:26Z</time>
      </trkpt>
      <trkpt lat="42.5237400" lon="2.6185010">
        <ele>525.0</ele>
        <time>2020-07-21T07:38:27Z</time>
      </trkpt>
      <trkpt lat="42.5236760" lon="2.6185250">
        <ele>524.6</ele>
        <time>2020-07-21T07:38:28Z</time>
      </trkpt>
      <trkpt lat="42.5235460" lon="2.6186240">
        <ele>524.2</ele>
        <time>2020-07-21T07:38:30Z</time>
      </trkpt>
      <trkpt lat="42.5234870" lon="2.6186920">
        <ele>523.8</ele>
        <time>2020-07-21T07:38:31Z</time>
      </trkpt>
      <trkpt lat="42.5233760" lon="2.6188420">
        <ele>522.2</ele>
        <time>2020-07-21T07:38:33Z</time>
      </trkpt>
      <trkpt lat="42.5233190" lon="2.6189140">
        <ele>521.8</ele>
        <time>2020-07-21T07:38:34Z</time>
      </trkpt>
      <trkpt lat="42.5231510" lon="2.6190640">
        <ele>521.2</ele>
        <time>2020-07-21T07:38:37Z</time>
      </trkpt>
      <trkpt lat="42.5230960" lon="2.6190980">
        <ele>520.8</ele>
        <time>2020-07-21T07:38:38Z</time>
      </trkpt>
      <trkpt lat="42.5229860" lon="2.6191400">
        <ele>520.4</ele>
        <time>2020-07-21T07:38:40Z</time>
      </trkpt>
      <trkpt lat="42.5228670" lon="2.6191400">
        <ele>519.8</ele>
        <time>2020-07-21T07:38:42Z</time>
      </trkpt>
      <trkpt lat="42.5227460" lon="2.6191470">
        <ele>518.6</ele>
        <time>2020-07-21T07:38:44Z</time>
      </trkpt>
      <trkpt lat="42.5226800" lon="2.6191580">
        <ele>518.2</ele>
        <time>2020-07-21T07:38:45Z</time>
      </trkpt>
      <trkpt lat="42.5226030" lon="2.6191740">
        <ele>517.8</ele>
        <time>2020-07-21T07:38:46Z</time>
      </trkpt>
      <trkpt lat="42.5225290" lon="2.6191900">
        <ele>517.6</ele>
        <time>2020-07-21T07:38:47Z</time>
      </trkpt>
      <trkpt lat="42.5224530" lon="2.6191970">
        <ele>517.2</ele>
        <time>2020-07-21T07:38:48Z</time>
      </trkpt>
      <trkpt lat="42.5223740" lon="2.6191830">
        <ele>516.8</ele>
        <time>2020-07-21T07:38:49Z</time>
      </trkpt>
      <trkpt lat="42.5222950" lon="2.6191500">
        <ele>516.4</ele>
        <time>2020-07-21T07:38:50Z</time>
      </trkpt>
      <trkpt lat="42.5222280" lon="2.6190980">
        <ele>516.2</ele>
        <time>2020-07-21T07:38:51Z</time>
      </trkpt>
      <trkpt lat="42.5221450" lon="2.6189490">
        <ele>516.0</ele>
        <time>2020-07-21T07:38:53Z</time>
      </trkpt>
      <trkpt lat="42.5220990" lon="2.6188630">
        <ele>515.8</ele>
        <time>2020-07-21T07:38:54Z</time>
      </trkpt>
      <trkpt lat="42.5220490" lon="2.6187710">
        <ele>515.4</ele>
        <time>2020-07-21T07:38:55Z</time>
      </trkpt>
      <trkpt lat="42.5219940" lon="2.6186890">
        <ele>515.2</ele>
        <time>2020-07-21T07:38:56Z</time>
      </trkpt>
      <trkpt lat="42.5218690" lon="2.6185480">
        <ele>514.0</ele>
        <time>2020-07-21T07:38:58Z</time>
      </trkpt>
      <trkpt lat="42.5218030" lon="2.6184920">
        <ele>513.6</ele>
        <time>2020-07-21T07:38:59Z</time>
      </trkpt>
      <trkpt lat="42.5216570" lon="2.6183880">
        <ele>512.8</ele>
        <time>2020-07-21T07:39:00Z</time>
      </trkpt>
      <trkpt lat="42.5215820" lon="2.6183490">
        <ele>512.4</ele>
        <time>2020-07-21T07:39:02Z</time>
      </trkpt>
      <trkpt lat="42.5215070" lon="2.6183190">
        <ele>511.6</ele>
        <time>2020-07-21T07:39:03Z</time>
      </trkpt>
      <trkpt lat="42.5213520" lon="2.6182750">
        <ele>510.4</ele>
        <time>2020-07-21T07:39:05Z</time>
      </trkpt>
      <trkpt lat="42.5211920" lon="2.6182490">
        <ele>509.4</ele>
        <time>2020-07-21T07:39:07Z</time>
      </trkpt>
      <trkpt lat="42.5211110" lon="2.6182460">
        <ele>508.6</ele>
        <time>2020-07-21T07:39:08Z</time>
      </trkpt>
      <trkpt lat="42.5210310" lon="2.6182470">
        <ele>508.2</ele>
        <time>2020-07-21T07:39:09Z</time>
      </trkpt>
      <trkpt lat="42.5208000" lon="2.6182880">
        <ele>507.0</ele>
        <time>2020-07-21T07:39:12Z</time>
      </trkpt>
      <trkpt lat="42.5207280" lon="2.6183110">
        <ele>506.4</ele>
        <time>2020-07-21T07:39:13Z</time>
      </trkpt>
      <trkpt lat="42.5206170" lon="2.6183350">
        <ele>506.2</ele>
        <time>2020-07-21T07:39:15Z</time>
      </trkpt>
      <trkpt lat="42.5205800" lon="2.6183260">
        <ele>506.2</ele>
        <time>2020-07-21T07:39:16Z</time>
      </trkpt>
      <trkpt lat="42.5205470" lon="2.6182740">
        <ele>506.2</ele>
        <time>2020-07-21T07:39:17Z</time>
      </trkpt>
      <trkpt lat="42.5205380" lon="2.6182080">
        <ele>506.2</ele>
        <time>2020-07-21T07:39:18Z</time>
      </trkpt>
      <trkpt lat="42.5205470" lon="2.6181340">
        <ele>506.2</ele>
        <time>2020-07-21T07:39:19Z</time>
      </trkpt>
      <trkpt lat="42.5206140" lon="2.6180050">
        <ele>506.2</ele>
        <time>2020-07-21T07:39:21Z</time>
      </trkpt>
      <trkpt lat="42.5207020" lon="2.6179090">
        <ele>506.4</ele>
        <time>2020-07-21T07:39:23Z</time>
      </trkpt>
      <trkpt lat="42.5207800" lon="2.6178460">
        <ele>507.0</ele>
        <time>2020-07-21T07:39:25Z</time>
      </trkpt>
      <trkpt lat="42.5208830" lon="2.6177650">
        <ele>508.0</ele>
        <time>2020-07-21T07:39:28Z</time>
      </trkpt>
      <trkpt lat="42.5209780" lon="2.6176970">
        <ele>508.4</ele>
        <time>2020-07-21T07:39:31Z</time>
      </trkpt>
      <trkpt lat="42.5210720" lon="2.6176160">
        <ele>509.2</ele>
        <time>2020-07-21T07:39:34Z</time>
      </trkpt>
      <trkpt lat="42.5211920" lon="2.6175360">
        <ele>509.6</ele>
        <time>2020-07-21T07:39:38Z</time>
      </trkpt>
      <trkpt lat="42.5212700" lon="2.6174840">
        <ele>510.2</ele>
        <time>2020-07-21T07:39:41Z</time>
      </trkpt>
      <trkpt lat="42.5213620" lon="2.6174440">
        <ele>511.2</ele>
        <time>2020-07-21T07:39:44Z</time>
      </trkpt>
      <trkpt lat="42.5213920" lon="2.6174260">
        <ele>511.4</ele>
        <time>2020-07-21T07:39:45Z</time>
      </trkpt>
      <trkpt lat="42.5215680" lon="2.6173690">
        <ele>512.0</ele>
        <time>2020-07-21T07:39:51Z</time>
      </trkpt>
      <trkpt lat="42.5215980" lon="2.6173590">
        <ele>512.2</ele>
        <time>2020-07-21T07:39:52Z</time>
      </trkpt>
      <trkpt lat="42.5216550" lon="2.6173580">
        <ele>512.4</ele>
        <time>2020-07-21T07:39:54Z</time>
      </trkpt>
      <trkpt lat="42.5217370" lon="2.6173610">
        <ele>513.6</ele>
        <time>2020-07-21T07:39:57Z</time>
      </trkpt>
      <trkpt lat="42.5217690" lon="2.6173630">
        <ele>514.0</ele>
        <time>2020-07-21T07:39:58Z</time>
      </trkpt>
      <trkpt lat="42.5217990" lon="2.6173670">
        <ele>514.2</ele>
        <time>2020-07-21T07:39:59Z</time>
      </trkpt>
      <trkpt lat="42.5218650" lon="2.6173800">
        <ele>514.6</ele>
        <time>2020-07-21T07:40:01Z</time>
      </trkpt>
      <trkpt lat="42.5219280" lon="2.6173880">
        <ele>514.6</ele>
        <time>2020-07-21T07:40:03Z</time>
      </trkpt>
      <trkpt lat="42.5220320" lon="2.6173800">
        <ele>515.4</ele>
        <time>2020-07-21T07:40:06Z</time>
      </trkpt>
      <trkpt lat="42.5220650" lon="2.6173670">
        <ele>515.8</ele>
        <time>2020-07-21T07:40:07Z</time>
      </trkpt>
      <trkpt lat="42.5222510" lon="2.6172850">
        <ele>517.0</ele>
        <time>2020-07-21T07:40:13Z</time>
      </trkpt>
      <trkpt lat="42.5224300" lon="2.6171860">
        <ele>518.0</ele>
        <time>2020-07-21T07:40:19Z</time>
      </trkpt>
      <trkpt lat="42.5224880" lon="2.6171470">
        <ele>518.6</ele>
        <time>2020-07-21T07:40:21Z</time>
      </trkpt>
      <trkpt lat="42.5225980" lon="2.6170660">
        <ele>519.2</ele>
        <time>2020-07-21T07:40:25Z</time>
      </trkpt>
      <trkpt lat="42.5226490" lon="2.6170190">
        <ele>519.6</ele>
        <time>2020-07-21T07:40:27Z</time>
      </trkpt>
      <trkpt lat="42.5227240" lon="2.6169350">
        <ele>520.2</ele>
        <time>2020-07-21T07:40:30Z</time>
      </trkpt>
      <trkpt lat="42.5227880" lon="2.6168330">
        <ele>520.8</ele>
        <time>2020-07-21T07:40:33Z</time>
      </trkpt>
      <trkpt lat="42.5228200" lon="2.6167620">
        <ele>521.4</ele>
        <time>2020-07-21T07:40:35Z</time>
      </trkpt>
      <trkpt lat="42.5228470" lon="2.6166910">
        <ele>521.6</ele>
        <time>2020-07-21T07:40:37Z</time>
      </trkpt>
      <trkpt lat="42.5229170" lon="2.6165200">
        <ele>522.6</ele>
        <time>2020-07-21T07:40:42Z</time>
      </trkpt>
      <trkpt lat="42.5229460" lon="2.6164460">
        <ele>523.0</ele>
        <time>2020-07-21T07:40:44Z</time>
      </trkpt>
      <trkpt lat="42.5229810" lon="2.6162800">
        <ele>523.8</ele>
        <time>2020-07-21T07:40:48Z</time>
      </trkpt>
      <trkpt lat="42.5229920" lon="2.6161980">
        <ele>524.6</ele>
        <time>2020-07-21T07:40:50Z</time>
      </trkpt>
      <trkpt lat="42.5229960" lon="2.6161550">
        <ele>524.8</ele>
        <time>2020-07-21T07:40:51Z</time>
      </trkpt>
      <trkpt lat="42.5230000" lon="2.6161150">
        <ele>525.0</ele>
        <time>2020-07-21T07:40:52Z</time>
      </trkpt>
      <trkpt lat="42.5229970" lon="2.6159000">
        <ele>525.6</ele>
        <time>2020-07-21T07:40:57Z</time>
      </trkpt>
      <trkpt lat="42.5229800" lon="2.6157700">
        <ele>526.0</ele>
        <time>2020-07-21T07:41:00Z</time>
      </trkpt>
      <trkpt lat="42.5229480" lon="2.6155950">
        <ele>527.2</ele>
        <time>2020-07-21T07:41:04Z</time>
      </trkpt>
      <trkpt lat="42.5229370" lon="2.6155460">
        <ele>527.4</ele>
        <time>2020-07-21T07:41:05Z</time>
      </trkpt>
      <trkpt lat="42.5229020" lon="2.6153840">
        <ele>528.4</ele>
        <time>2020-07-21T07:41:09Z</time>
      </trkpt>
      <trkpt lat="42.5228840" lon="2.6153020">
        <ele>528.8</ele>
        <time>2020-07-21T07:41:11Z</time>
      </trkpt>
      <trkpt lat="42.5228400" lon="2.6150240">
        <ele>529.4</ele>
        <time>2020-07-21T07:41:17Z</time>
      </trkpt>
      <trkpt lat="42.5228270" lon="2.6149850">
        <ele>529.8</ele>
        <time>2020-07-21T07:41:18Z</time>
      </trkpt>
      <trkpt lat="42.5227820" lon="2.6148110">
        <ele>530.6</ele>
        <time>2020-07-21T07:41:22Z</time>
      </trkpt>
      <trkpt lat="42.5227390" lon="2.6147000">
        <ele>531.2</ele>
        <time>2020-07-21T07:41:25Z</time>
      </trkpt>
      <trkpt lat="42.5227230" lon="2.6146570">
        <ele>531.2</ele>
        <time>2020-07-21T07:41:26Z</time>
      </trkpt>
      <trkpt lat="42.5226940" lon="2.6145860">
        <ele>531.6</ele>
        <time>2020-07-21T07:41:28Z</time>
      </trkpt>
      <trkpt lat="42.5226050" lon="2.6143640">
        <ele>532.0</ele>
        <time>2020-07-21T07:41:33Z</time>
      </trkpt>
      <trkpt lat="42.5225920" lon="2.6141940">
        <ele>533.0</ele>
        <time>2020-07-21T07:41:37Z</time>
      </trkpt>
      <trkpt lat="42.5226050" lon="2.6141450">
        <ele>533.6</ele>
        <time>2020-07-21T07:41:38Z</time>
      </trkpt>
      <trkpt lat="42.5226200" lon="2.6140630">
        <ele>534.2</ele>
        <time>2020-07-21T07:41:40Z</time>
      </trkpt>
      <trkpt lat="42.5226940" lon="2.6138090">
        <ele>534.8</ele>
        <time>2020-07-21T07:41:45Z</time>
      </trkpt>
      <trkpt lat="42.5227390" lon="2.6136680">
        <ele>535.0</ele>
        <time>2020-07-21T07:41:48Z</time>
      </trkpt>
      <trkpt lat="42.5227770" lon="2.6135650">
        <ele>535.2</ele>
        <time>2020-07-21T07:41:50Z</time>
      </trkpt>
      <trkpt lat="42.5228360" lon="2.6134330">
        <ele>535.4</ele>
        <time>2020-07-21T07:41:53Z</time>
      </trkpt>
      <trkpt lat="42.5229060" lon="2.6133210">
        <ele>535.8</ele>
        <time>2020-07-21T07:41:56Z</time>
      </trkpt>
      <trkpt lat="42.5229580" lon="2.6132450">
        <ele>536.4</ele>
        <time>2020-07-21T07:41:58Z</time>
      </trkpt>
      <trkpt lat="42.5230150" lon="2.6131740">
        <ele>536.8</ele>
        <time>2020-07-21T07:42:00Z</time>
      </trkpt>
      <trkpt lat="42.5230940" lon="2.6130720">
        <ele>537.6</ele>
        <time>2020-07-21T07:42:03Z</time>
      </trkpt>
      <trkpt lat="42.5231730" lon="2.6129250">
        <ele>538.4</ele>
        <time>2020-07-21T07:42:07Z</time>
      </trkpt>
      <trkpt lat="42.5231980" lon="2.6128850">
        <ele>538.6</ele>
        <time>2020-07-21T07:42:08Z</time>
      </trkpt>
      <trkpt lat="42.5232350" lon="2.6128070">
        <ele>539.2</ele>
        <time>2020-07-21T07:42:10Z</time>
      </trkpt>
      <trkpt lat="42.5232910" lon="2.6126450">
        <ele>539.6</ele>
        <time>2020-07-21T07:42:14Z</time>
      </trkpt>
      <trkpt lat="42.5233100" lon="2.6125900">
        <ele>539.8</ele>
        <time>2020-07-21T07:42:15Z</time>
      </trkpt>
      <trkpt lat="42.5233610" lon="2.6122860">
        <ele>540.4</ele>
        <time>2020-07-21T07:42:21Z</time>
      </trkpt>
      <trkpt lat="42.5233640" lon="2.6121960">
        <ele>541.0</ele>
        <time>2020-07-21T07:42:23Z</time>
      </trkpt>
      <trkpt lat="42.5233840" lon="2.6119720">
        <ele>541.6</ele>
        <time>2020-07-21T07:42:28Z</time>
      </trkpt>
      <trkpt lat="42.5234300" lon="2.6118420">
        <ele>542.0</ele>
        <time>2020-07-21T07:42:31Z</time>
      </trkpt>
      <trkpt lat="42.5234710" lon="2.6117490">
        <ele>542.2</ele>
        <time>2020-07-21T07:42:33Z</time>
      </trkpt>
      <trkpt lat="42.5235990" lon="2.6116470">
        <ele>543.0</ele>
        <time>2020-07-21T07:42:37Z</time>
      </trkpt>
      <trkpt lat="42.5236360" lon="2.6116350">
        <ele>543.0</ele>
        <time>2020-07-21T07:42:38Z</time>
      </trkpt>
      <trkpt lat="42.5237870" lon="2.6116440">
        <ele>544.0</ele>
        <time>2020-07-21T07:42:42Z</time>
      </trkpt>
      <trkpt lat="42.5238280" lon="2.6116540">
        <ele>544.2</ele>
        <time>2020-07-21T07:42:43Z</time>
      </trkpt>
      <trkpt lat="42.5240250" lon="2.6117850">
        <ele>545.4</ele>
        <time>2020-07-21T07:42:49Z</time>
      </trkpt>
      <trkpt lat="42.5241540" lon="2.6120020">
        <ele>546.4</ele>
        <time>2020-07-21T07:42:55Z</time>
      </trkpt>
      <trkpt lat="42.5241640" lon="2.6120380">
        <ele>546.6</ele>
        <time>2020-07-21T07:42:56Z</time>
      </trkpt>
      <trkpt lat="42.5241910" lon="2.6121980">
        <ele>547.8</ele>
        <time>2020-07-21T07:43:00Z</time>
      </trkpt>
      <trkpt lat="42.5241980" lon="2.6123590">
        <ele>549.2</ele>
        <time>2020-07-21T07:43:04Z</time>
      </trkpt>
      <trkpt lat="42.5241940" lon="2.6125690">
        <ele>550.2</ele>
        <time>2020-07-21T07:43:09Z</time>
      </trkpt>
      <trkpt lat="42.5241800" lon="2.6126890">
        <ele>550.6</ele>
        <time>2020-07-21T07:43:12Z</time>
      </trkpt>
      <trkpt lat="42.5241630" lon="2.6128490">
        <ele>551.6</ele>
        <time>2020-07-21T07:43:16Z</time>
      </trkpt>
      <trkpt lat="42.5241560" lon="2.6129690">
        <ele>552.4</ele>
        <time>2020-07-21T07:43:19Z</time>
      </trkpt>
      <trkpt lat="42.5241550" lon="2.6130070">
        <ele>552.6</ele>
        <time>2020-07-21T07:43:20Z</time>
      </trkpt>
      <trkpt lat="42.5241520" lon="2.6130480">
        <ele>552.8</ele>
        <time>2020-07-21T07:43:21Z</time>
      </trkpt>
      <trkpt lat="42.5241440" lon="2.6132590">
        <ele>554.0</ele>
        <time>2020-07-21T07:43:26Z</time>
      </trkpt>
      <trkpt lat="42.5241470" lon="2.6133020">
        <ele>554.2</ele>
        <time>2020-07-21T07:43:27Z</time>
      </trkpt>
      <trkpt lat="42.5241730" lon="2.6134620">
        <ele>555.0</ele>
        <time>2020-07-21T07:43:31Z</time>
      </trkpt>
      <trkpt lat="42.5242110" lon="2.6135830">
        <ele>555.6</ele>
        <time>2020-07-21T07:43:34Z</time>
      </trkpt>
      <trkpt lat="42.5242400" lon="2.6136550">
        <ele>556.2</ele>
        <time>2020-07-21T07:43:36Z</time>
      </trkpt>
      <trkpt lat="42.5243430" lon="2.6138120">
        <ele>557.4</ele>
        <time>2020-07-21T07:43:41Z</time>
      </trkpt>
      <trkpt lat="42.5244830" lon="2.6139650">
        <ele>558.4</ele>
        <time>2020-07-21T07:43:47Z</time>
      </trkpt>
      <trkpt lat="42.5245370" lon="2.6140150">
        <ele>559.0</ele>
        <time>2020-07-21T07:43:49Z</time>
      </trkpt>
      <trkpt lat="42.5246100" lon="2.6140960">
        <ele>559.8</ele>
        <time>2020-07-21T07:43:52Z</time>
      </trkpt>
      <trkpt lat="42.5246990" lon="2.6142100">
        <ele>560.8</ele>
        <time>2020-07-21T07:43:56Z</time>
      </trkpt>
      <trkpt lat="42.5247220" lon="2.6142390">
        <ele>561.0</ele>
        <time>2020-07-21T07:43:57Z</time>
      </trkpt>
      <trkpt lat="42.5248380" lon="2.6143710">
        <ele>561.8</ele>
        <time>2020-07-21T07:44:02Z</time>
      </trkpt>
      <trkpt lat="42.5248960" lon="2.6144950">
        <ele>562.4</ele>
        <time>2020-07-21T07:44:05Z</time>
      </trkpt>
      <trkpt lat="42.5249370" lon="2.6145680">
        <ele>563.0</ele>
        <time>2020-07-21T07:44:07Z</time>
      </trkpt>
      <trkpt lat="42.5250620" lon="2.6146800">
        <ele>563.8</ele>
        <time>2020-07-21T07:44:12Z</time>
      </trkpt>
      <trkpt lat="42.5250930" lon="2.6146910">
        <ele>564.0</ele>
        <time>2020-07-21T07:44:13Z</time>
      </trkpt>
      <trkpt lat="42.5252070" lon="2.6147260">
        <ele>565.2</ele>
        <time>2020-07-21T07:44:17Z</time>
      </trkpt>
      <trkpt lat="42.5252630" lon="2.6147350">
        <ele>565.8</ele>
        <time>2020-07-21T07:44:19Z</time>
      </trkpt>
      <trkpt lat="42.5253190" lon="2.6147430">
        <ele>566.4</ele>
        <time>2020-07-21T07:44:21Z</time>
      </trkpt>
      <trkpt lat="42.5254280" lon="2.6147510">
        <ele>567.6</ele>
        <time>2020-07-21T07:44:25Z</time>
      </trkpt>
      <trkpt lat="42.5254740" lon="2.6147650">
        <ele>568.0</ele>
        <time>2020-07-21T07:44:27Z</time>
      </trkpt>
      <trkpt lat="42.5255550" lon="2.6147940">
        <ele>568.6</ele>
        <time>2020-07-21T07:44:30Z</time>
      </trkpt>
      <trkpt lat="42.5256700" lon="2.6148390">
        <ele>569.4</ele>
        <time>2020-07-21T07:44:34Z</time>
      </trkpt>
      <trkpt lat="42.5257260" lon="2.6148740">
        <ele>569.8</ele>
        <time>2020-07-21T07:44:36Z</time>
      </trkpt>
      <trkpt lat="42.5258070" lon="2.6149280">
        <ele>570.4</ele>
        <time>2020-07-21T07:44:39Z</time>
      </trkpt>
      <trkpt lat="42.5258630" lon="2.6149610">
        <ele>571.0</ele>
        <time>2020-07-21T07:44:41Z</time>
      </trkpt>
      <trkpt lat="42.5258870" lon="2.6149810">
        <ele>571.2</ele>
        <time>2020-07-21T07:44:42Z</time>
      </trkpt>
      <trkpt lat="42.5260180" lon="2.6150530">
        <ele>572.0</ele>
        <time>2020-07-21T07:44:47Z</time>
      </trkpt>
      <trkpt lat="42.5260470" lon="2.6150500">
        <ele>572.2</ele>
        <time>2020-07-21T07:44:48Z</time>
      </trkpt>
      <trkpt lat="42.5261610" lon="2.6150570">
        <ele>573.2</ele>
        <time>2020-07-21T07:44:52Z</time>
      </trkpt>
      <trkpt lat="42.5262420" lon="2.6150380">
        <ele>574.0</ele>
        <time>2020-07-21T07:44:55Z</time>
      </trkpt>
      <trkpt lat="42.5262990" lon="2.6150150">
        <ele>574.4</ele>
        <time>2020-07-21T07:44:57Z</time>
      </trkpt>
      <trkpt lat="42.5264140" lon="2.6149440">
        <ele>575.6</ele>
        <time>2020-07-21T07:45:01Z</time>
      </trkpt>
      <trkpt lat="42.5264400" lon="2.6149270">
        <ele>575.8</ele>
        <time>2020-07-21T07:45:02Z</time>
      </trkpt>
      <trkpt lat="42.5265610" lon="2.6148320">
        <ele>576.6</ele>
        <time>2020-07-21T07:45:07Z</time>
      </trkpt>
      <trkpt lat="42.5266500" lon="2.6147750">
        <ele>577.6</ele>
        <time>2020-07-21T07:45:10Z</time>
      </trkpt>
      <trkpt lat="42.5266840" lon="2.6147590">
        <ele>577.8</ele>
        <time>2020-07-21T07:45:11Z</time>
      </trkpt>
      <trkpt lat="42.5268960" lon="2.6146960">
        <ele>578.6</ele>
        <time>2020-07-21T07:45:17Z</time>
      </trkpt>
      <trkpt lat="42.5269300" lon="2.6146940">
        <ele>578.6</ele>
        <time>2020-07-21T07:45:18Z</time>
      </trkpt>
      <trkpt lat="42.5269650" lon="2.6146960">
        <ele>578.8</ele>
        <time>2020-07-21T07:45:19Z</time>
      </trkpt>
      <trkpt lat="42.5270810" lon="2.6147100">
        <ele>579.8</ele>
        <time>2020-07-21T07:45:23Z</time>
      </trkpt>
      <trkpt lat="42.5271600" lon="2.6147210">
        <ele>580.6</ele>
        <time>2020-07-21T07:45:26Z</time>
      </trkpt>
      <trkpt lat="42.5271890" lon="2.6147240">
        <ele>580.8</ele>
        <time>2020-07-21T07:45:27Z</time>
      </trkpt>
      <trkpt lat="42.5273360" lon="2.6147420">
        <ele>581.6</ele>
        <time>2020-07-21T07:45:32Z</time>
      </trkpt>
      <trkpt lat="42.5273920" lon="2.6147520">
        <ele>582.0</ele>
        <time>2020-07-21T07:45:34Z</time>
      </trkpt>
      <trkpt lat="42.5274190" lon="2.6147570">
        <ele>582.0</ele>
        <time>2020-07-21T07:45:35Z</time>
      </trkpt>
      <trkpt lat="42.5275230" lon="2.6147900">
        <ele>582.8</ele>
        <time>2020-07-21T07:45:39Z</time>
      </trkpt>
      <trkpt lat="42.5275450" lon="2.6147920">
        <ele>583.0</ele>
        <time>2020-07-21T07:45:40Z</time>
      </trkpt>
      <trkpt lat="42.5276250" lon="2.6147890">
        <ele>583.6</ele>
        <time>2020-07-21T07:45:43Z</time>
      </trkpt>
      <trkpt lat="42.5277230" lon="2.6147900">
        <ele>584.2</ele>
        <time>2020-07-21T07:45:46Z</time>
      </trkpt>
      <trkpt lat="42.5278890" lon="2.6147710">
        <ele>585.2</ele>
        <time>2020-07-21T07:45:51Z</time>
      </trkpt>
      <trkpt lat="42.5280250" lon="2.6147440">
        <ele>586.4</ele>
        <time>2020-07-21T07:45:55Z</time>
      </trkpt>
      <trkpt lat="42.5281610" lon="2.6147280">
        <ele>587.2</ele>
        <time>2020-07-21T07:45:59Z</time>
      </trkpt>
      <trkpt lat="42.5282260" lon="2.6147130">
        <ele>587.4</ele>
        <time>2020-07-21T07:46:01Z</time>
      </trkpt>
      <trkpt lat="42.5283470" lon="2.6146670">
        <ele>588.4</ele>
        <time>2020-07-21T07:46:05Z</time>
      </trkpt>
      <trkpt lat="42.5283730" lon="2.6146530">
        <ele>588.8</ele>
        <time>2020-07-21T07:46:06Z</time>
      </trkpt>
      <trkpt lat="42.5284940" lon="2.6146000">
        <ele>589.6</ele>
        <time>2020-07-21T07:46:11Z</time>
      </trkpt>
      <trkpt lat="42.5285500" lon="2.6145790">
        <ele>589.8</ele>
        <time>2020-07-21T07:46:13Z</time>
      </trkpt>
      <trkpt lat="42.5287100" lon="2.6144800">
        <ele>590.2</ele>
        <time>2020-07-21T07:46:19Z</time>
      </trkpt>
      <trkpt lat="42.5287370" lon="2.6144580">
        <ele>590.4</ele>
        <time>2020-07-21T07:46:20Z</time>
      </trkpt>
      <trkpt lat="42.5287890" lon="2.6144100">
        <ele>590.6</ele>
        <time>2020-07-21T07:46:22Z</time>
      </trkpt>
      <trkpt lat="42.5289460" lon="2.6142630">
        <ele>591.8</ele>
        <time>2020-07-21T07:46:28Z</time>
      </trkpt>
      <trkpt lat="42.5289700" lon="2.6142350">
        <ele>592.0</ele>
        <time>2020-07-21T07:46:29Z</time>
      </trkpt>
      <trkpt lat="42.5290660" lon="2.6141170">
        <ele>593.0</ele>
        <time>2020-07-21T07:46:33Z</time>
      </trkpt>
      <trkpt lat="42.5291150" lon="2.6140550">
        <ele>593.4</ele>
        <time>2020-07-21T07:46:35Z</time>
      </trkpt>
      <trkpt lat="42.5291820" lon="2.6139590">
        <ele>593.6</ele>
        <time>2020-07-21T07:46:38Z</time>
      </trkpt>
      <trkpt lat="42.5292450" lon="2.6138120">
        <ele>594.2</ele>
        <time>2020-07-21T07:46:42Z</time>
      </trkpt>
      <trkpt lat="42.5292800" lon="2.6136920">
        <ele>594.8</ele>
        <time>2020-07-21T07:46:45Z</time>
      </trkpt>
      <trkpt lat="42.5293030" lon="2.6136140">
        <ele>595.4</ele>
        <time>2020-07-21T07:46:47Z</time>
      </trkpt>
      <trkpt lat="42.5293390" lon="2.6134470">
        <ele>596.4</ele>
        <time>2020-07-21T07:46:51Z</time>
      </trkpt>
      <trkpt lat="42.5293460" lon="2.6134030">
        <ele>596.8</ele>
        <time>2020-07-21T07:46:52Z</time>
      </trkpt>
      <trkpt lat="42.5293720" lon="2.6132760">
        <ele>597.4</ele>
        <time>2020-07-21T07:46:55Z</time>
      </trkpt>
      <trkpt lat="42.5294160" lon="2.6130570">
        <ele>597.8</ele>
        <time>2020-07-21T07:47:00Z</time>
      </trkpt>
      <trkpt lat="42.5294410" lon="2.6128890">
        <ele>598.6</ele>
        <time>2020-07-21T07:47:04Z</time>
      </trkpt>
      <trkpt lat="42.5294460" lon="2.6127210">
        <ele>599.2</ele>
        <time>2020-07-21T07:47:08Z</time>
      </trkpt>
      <trkpt lat="42.5294360" lon="2.6125840">
        <ele>599.6</ele>
        <time>2020-07-21T07:47:11Z</time>
      </trkpt>
      <trkpt lat="42.5294220" lon="2.6123960">
        <ele>600.0</ele>
        <time>2020-07-21T07:47:15Z</time>
      </trkpt>
      <trkpt lat="42.5294090" lon="2.6122020">
        <ele>600.8</ele>
        <time>2020-07-21T07:47:20Z</time>
      </trkpt>
      <trkpt lat="42.5293780" lon="2.6119610">
        <ele>601.8</ele>
        <time>2020-07-21T07:47:25Z</time>
      </trkpt>
      <trkpt lat="42.5293680" lon="2.6119150">
        <ele>602.0</ele>
        <time>2020-07-21T07:47:26Z</time>
      </trkpt>
      <trkpt lat="42.5293470" lon="2.6118220">
        <ele>602.6</ele>
        <time>2020-07-21T07:47:28Z</time>
      </trkpt>
      <trkpt lat="42.5293160" lon="2.6116780">
        <ele>603.0</ele>
        <time>2020-07-21T07:47:31Z</time>
      </trkpt>
      <trkpt lat="42.5292960" lon="2.6115320">
        <ele>603.6</ele>
        <time>2020-07-21T07:47:34Z</time>
      </trkpt>
      <trkpt lat="42.5292900" lon="2.6114790">
        <ele>603.8</ele>
        <time>2020-07-21T07:47:35Z</time>
      </trkpt>
      <trkpt lat="42.5292730" lon="2.6113840">
        <ele>604.0</ele>
        <time>2020-07-21T07:47:37Z</time>
      </trkpt>
      <trkpt lat="42.5292690" lon="2.6111980">
        <ele>604.4</ele>
        <time>2020-07-21T07:47:41Z</time>
      </trkpt>
      <trkpt lat="42.5293160" lon="2.6111280">
        <ele>604.6</ele>
        <time>2020-07-21T07:47:43Z</time>
      </trkpt>
      <trkpt lat="42.5293440" lon="2.6111110">
        <ele>604.8</ele>
        <time>2020-07-21T07:47:44Z</time>
      </trkpt>
      <trkpt lat="42.5294690" lon="2.6111400">
        <ele>605.2</ele>
        <time>2020-07-21T07:47:48Z</time>
      </trkpt>
      <trkpt lat="42.5294940" lon="2.6111600">
        <ele>605.4</ele>
        <time>2020-07-21T07:47:49Z</time>
      </trkpt>
      <trkpt lat="42.5295670" lon="2.6112320">
        <ele>606.2</ele>
        <time>2020-07-21T07:47:52Z</time>
      </trkpt>
      <trkpt lat="42.5296600" lon="2.6113310">
        <ele>607.2</ele>
        <time>2020-07-21T07:47:56Z</time>
      </trkpt>
      <trkpt lat="42.5296850" lon="2.6113540">
        <ele>607.4</ele>
        <time>2020-07-21T07:47:57Z</time>
      </trkpt>
      <trkpt lat="42.5298970" lon="2.6113660">
        <ele>608.4</ele>
        <time>2020-07-21T07:48:02Z</time>
      </trkpt>
      <trkpt lat="42.5301000" lon="2.6114280">
        <ele>609.4</ele>
        <time>2020-07-21T07:48:08Z</time>
      </trkpt>
      <trkpt lat="42.5302220" lon="2.6114540">
        <ele>610.0</ele>
        <time>2020-07-21T07:48:12Z</time>
      </trkpt>
      <trkpt lat="42.5303040" lon="2.6114770">
        <ele>610.4</ele>
        <time>2020-07-21T07:48:15Z</time>
      </trkpt>
      <trkpt lat="42.5303590" lon="2.6114940">
        <ele>610.6</ele>
        <time>2020-07-21T07:48:17Z</time>
      </trkpt>
      <trkpt lat="42.5304180" lon="2.6115110">
        <ele>611.0</ele>
        <time>2020-07-21T07:48:19Z</time>
      </trkpt>
      <trkpt lat="42.5304760" lon="2.6115350">
        <ele>611.6</ele>
        <time>2020-07-21T07:48:21Z</time>
      </trkpt>
      <trkpt lat="42.5305860" lon="2.6115650">
        <ele>612.0</ele>
        <time>2020-07-21T07:48:25Z</time>
      </trkpt>
      <trkpt lat="42.5306770" lon="2.6115670">
        <ele>612.8</ele>
        <time>2020-07-21T07:48:28Z</time>
      </trkpt>
      <trkpt lat="42.5308340" lon="2.6115110">
        <ele>613.6</ele>
        <time>2020-07-21T07:48:33Z</time>
      </trkpt>
      <trkpt lat="42.5308960" lon="2.6114780">
        <ele>614.0</ele>
        <time>2020-07-21T07:48:35Z</time>
      </trkpt>
      <trkpt lat="42.5310670" lon="2.6113820">
        <ele>615.2</ele>
        <time>2020-07-21T07:48:41Z</time>
      </trkpt>
      <trkpt lat="42.5310960" lon="2.6113660">
        <ele>615.4</ele>
        <time>2020-07-21T07:48:42Z</time>
      </trkpt>
      <trkpt lat="42.5312160" lon="2.6112900">
        <ele>616.2</ele>
        <time>2020-07-21T07:48:46Z</time>
      </trkpt>
      <trkpt lat="42.5313190" lon="2.6111840">
        <ele>616.8</ele>
        <time>2020-07-21T07:48:50Z</time>
      </trkpt>
      <trkpt lat="42.5313890" lon="2.6110330">
        <ele>617.2</ele>
        <time>2020-07-21T07:48:54Z</time>
      </trkpt>
      <trkpt lat="42.5314100" lon="2.6109440">
        <ele>617.4</ele>
        <time>2020-07-21T07:48:56Z</time>
      </trkpt>
      <trkpt lat="42.5314170" lon="2.6107650">
        <ele>618.6</ele>
        <time>2020-07-21T07:49:00Z</time>
      </trkpt>
      <trkpt lat="42.5314200" lon="2.6106990">
        <ele>619.2</ele>
        <time>2020-07-21T07:49:02Z</time>
      </trkpt>
      <trkpt lat="42.5314480" lon="2.6106390">
        <ele>619.4</ele>
        <time>2020-07-21T07:49:04Z</time>
      </trkpt>
      <trkpt lat="42.5315020" lon="2.6105820">
        <ele>619.6</ele>
        <time>2020-07-21T07:49:06Z</time>
      </trkpt>
      <trkpt lat="42.5315570" lon="2.6105330">
        <ele>619.6</ele>
        <time>2020-07-21T07:49:08Z</time>
      </trkpt>
      <trkpt lat="42.5316610" lon="2.6104540">
        <ele>620.4</ele>
        <time>2020-07-21T07:49:12Z</time>
      </trkpt>
      <trkpt lat="42.5317050" lon="2.6104190">
        <ele>620.8</ele>
        <time>2020-07-21T07:49:14Z</time>
      </trkpt>
      <trkpt lat="42.5318620" lon="2.6103310">
        <ele>621.2</ele>
        <time>2020-07-21T07:49:19Z</time>
      </trkpt>
      <trkpt lat="42.5319780" lon="2.6104330">
        <ele>621.8</ele>
        <time>2020-07-21T07:49:23Z</time>
      </trkpt>
      <trkpt lat="42.5319950" lon="2.6104710">
        <ele>621.8</ele>
        <time>2020-07-21T07:49:24Z</time>
      </trkpt>
      <trkpt lat="42.5320420" lon="2.6106070">
        <ele>622.4</ele>
        <time>2020-07-21T07:49:28Z</time>
      </trkpt>
      <trkpt lat="42.5320950" lon="2.6107670">
        <ele>623.0</ele>
        <time>2020-07-21T07:49:32Z</time>
      </trkpt>
      <trkpt lat="42.5321470" lon="2.6108980">
        <ele>623.4</ele>
        <time>2020-07-21T07:49:35Z</time>
      </trkpt>
      <trkpt lat="42.5322040" lon="2.6110180">
        <ele>624.0</ele>
        <time>2020-07-21T07:49:38Z</time>
      </trkpt>
      <trkpt lat="42.5322460" lon="2.6110910">
        <ele>624.2</ele>
        <time>2020-07-21T07:49:40Z</time>
      </trkpt>
      <trkpt lat="42.5322920" lon="2.6111520">
        <ele>624.8</ele>
        <time>2020-07-21T07:49:42Z</time>
      </trkpt>
      <trkpt lat="42.5323600" lon="2.6112410">
        <ele>625.0</ele>
        <time>2020-07-21T07:49:45Z</time>
      </trkpt>
      <trkpt lat="42.5323690" lon="2.6113370">
        <ele>625.2</ele>
        <time>2020-07-21T07:49:47Z</time>
      </trkpt>
      <trkpt lat="42.5323660" lon="2.6113870">
        <ele>625.2</ele>
        <time>2020-07-21T07:49:48Z</time>
      </trkpt>
      <trkpt lat="42.5323550" lon="2.6114390">
        <ele>625.4</ele>
        <time>2020-07-21T07:49:49Z</time>
      </trkpt>
      <trkpt lat="42.5323300" lon="2.6115200">
        <ele>626.2</ele>
        <time>2020-07-21T07:49:51Z</time>
      </trkpt>
      <trkpt lat="42.5322680" lon="2.6116880">
        <ele>627.0</ele>
        <time>2020-07-21T07:49:55Z</time>
      </trkpt>
      <trkpt lat="42.5322400" lon="2.6117710">
        <ele>627.2</ele>
        <time>2020-07-21T07:49:57Z</time>
      </trkpt>
      <trkpt lat="42.5321670" lon="2.6120180">
        <ele>628.4</ele>
        <time>2020-07-21T07:50:03Z</time>
      </trkpt>
      <trkpt lat="42.5320810" lon="2.6122320">
        <ele>629.6</ele>
        <time>2020-07-21T07:50:09Z</time>
      </trkpt>
      <trkpt lat="42.5320670" lon="2.6122760">
        <ele>629.8</ele>
        <time>2020-07-21T07:50:10Z</time>
      </trkpt>
      <trkpt lat="42.5319860" lon="2.6125120">
        <ele>630.4</ele>
        <time>2020-07-21T07:50:15Z</time>
      </trkpt>
      <trkpt lat="42.5319740" lon="2.6125600">
        <ele>630.6</ele>
        <time>2020-07-21T07:50:16Z</time>
      </trkpt>
      <trkpt lat="42.5319600" lon="2.6126040">
        <ele>630.8</ele>
        <time>2020-07-21T07:50:17Z</time>
      </trkpt>
      <trkpt lat="42.5319290" lon="2.6127390">
        <ele>631.2</ele>
        <time>2020-07-21T07:50:20Z</time>
      </trkpt>
      <trkpt lat="42.5319050" lon="2.6128770">
        <ele>631.6</ele>
        <time>2020-07-21T07:50:23Z</time>
      </trkpt>
      <trkpt lat="42.5318970" lon="2.6129220">
        <ele>631.8</ele>
        <time>2020-07-21T07:50:24Z</time>
      </trkpt>
      <trkpt lat="42.5318890" lon="2.6129670">
        <ele>632.0</ele>
        <time>2020-07-21T07:50:25Z</time>
      </trkpt>
      <trkpt lat="42.5318660" lon="2.6131060">
        <ele>632.8</ele>
        <time>2020-07-21T07:50:28Z</time>
      </trkpt>
      <trkpt lat="42.5318570" lon="2.6131970">
        <ele>633.2</ele>
        <time>2020-07-21T07:50:30Z</time>
      </trkpt>
      <trkpt lat="42.5318370" lon="2.6133270">
        <ele>633.4</ele>
        <time>2020-07-21T07:50:33Z</time>
      </trkpt>
      <trkpt lat="42.5318290" lon="2.6134140">
        <ele>633.8</ele>
        <time>2020-07-21T07:50:35Z</time>
      </trkpt>
      <trkpt lat="42.5318430" lon="2.6135870">
        <ele>634.4</ele>
        <time>2020-07-21T07:50:39Z</time>
      </trkpt>
      <trkpt lat="42.5318670" lon="2.6136760">
        <ele>635.0</ele>
        <time>2020-07-21T07:50:41Z</time>
      </trkpt>
      <trkpt lat="42.5318910" lon="2.6137730">
        <ele>635.4</ele>
        <time>2020-07-21T07:50:43Z</time>
      </trkpt>
      <trkpt lat="42.5319330" lon="2.6139110">
        <ele>635.6</ele>
        <time>2020-07-21T07:50:46Z</time>
      </trkpt>
      <trkpt lat="42.5319850" lon="2.6140370">
        <ele>636.4</ele>
        <time>2020-07-21T07:50:49Z</time>
      </trkpt>
      <trkpt lat="42.5320580" lon="2.6141410">
        <ele>637.2</ele>
        <time>2020-07-21T07:50:52Z</time>
      </trkpt>
      <trkpt lat="42.5320820" lon="2.6141760">
        <ele>637.6</ele>
        <time>2020-07-21T07:50:53Z</time>
      </trkpt>
      <trkpt lat="42.5322230" lon="2.6143750">
        <ele>638.2</ele>
        <time>2020-07-21T07:50:59Z</time>
      </trkpt>
      <trkpt lat="42.5322640" lon="2.6144380">
        <ele>638.4</ele>
        <time>2020-07-21T07:51:01Z</time>
      </trkpt>
      <trkpt lat="42.5322830" lon="2.6144690">
        <ele>638.8</ele>
        <time>2020-07-21T07:51:02Z</time>
      </trkpt>
      <trkpt lat="42.5323270" lon="2.6145260">
        <ele>639.2</ele>
        <time>2020-07-21T07:51:04Z</time>
      </trkpt>
      <trkpt lat="42.5324150" lon="2.6146220">
        <ele>639.8</ele>
        <time>2020-07-21T07:51:08Z</time>
      </trkpt>
      <trkpt lat="42.5325260" lon="2.6146980">
        <ele>640.6</ele>
        <time>2020-07-21T07:51:12Z</time>
      </trkpt>
      <trkpt lat="42.5325800" lon="2.6147300">
        <ele>641.0</ele>
        <time>2020-07-21T07:51:14Z</time>
      </trkpt>
      <trkpt lat="42.5326040" lon="2.6147520">
        <ele>641.0</ele>
        <time>2020-07-21T07:51:15Z</time>
      </trkpt>
      <trkpt lat="42.5327800" lon="2.6148450">
        <ele>642.2</ele>
        <time>2020-07-21T07:51:21Z</time>
      </trkpt>
      <trkpt lat="42.5328580" lon="2.6148850">
        <ele>642.8</ele>
        <time>2020-07-21T07:51:24Z</time>
      </trkpt>
      <trkpt lat="42.5329130" lon="2.6149150">
        <ele>643.2</ele>
        <time>2020-07-21T07:51:26Z</time>
      </trkpt>
      <trkpt lat="42.5330240" lon="2.6149980">
        <ele>643.8</ele>
        <time>2020-07-21T07:51:30Z</time>
      </trkpt>
      <trkpt lat="42.5330480" lon="2.6150180">
        <ele>644.0</ele>
        <time>2020-07-21T07:51:31Z</time>
      </trkpt>
      <trkpt lat="42.5330720" lon="2.6150380">
        <ele>644.2</ele>
        <time>2020-07-21T07:51:32Z</time>
      </trkpt>
      <trkpt lat="42.5330940" lon="2.6150590">
        <ele>644.6</ele>
        <time>2020-07-21T07:51:33Z</time>
      </trkpt>
      <trkpt lat="42.5331610" lon="2.6151250">
        <ele>645.6</ele>
        <time>2020-07-21T07:51:36Z</time>
      </trkpt>
      <trkpt lat="42.5332680" lon="2.6152090">
        <ele>646.2</ele>
        <time>2020-07-21T07:51:40Z</time>
      </trkpt>
      <trkpt lat="42.5333880" lon="2.6153490">
        <ele>646.6</ele>
        <time>2020-07-21T07:51:45Z</time>
      </trkpt>
      <trkpt lat="42.5334510" lon="2.6154420">
        <ele>647.2</ele>
        <time>2020-07-21T07:51:48Z</time>
      </trkpt>
      <trkpt lat="42.5334870" lon="2.6155070">
        <ele>647.6</ele>
        <time>2020-07-21T07:51:50Z</time>
      </trkpt>
      <trkpt lat="42.5336000" lon="2.6156400">
        <ele>648.8</ele>
        <time>2020-07-21T07:51:55Z</time>
      </trkpt>
      <trkpt lat="42.5336930" lon="2.6156960">
        <ele>649.8</ele>
        <time>2020-07-21T07:51:58Z</time>
      </trkpt>
      <trkpt lat="42.5337490" lon="2.6157080">
        <ele>650.4</ele>
        <time>2020-07-21T07:52:00Z</time>
      </trkpt>
      <trkpt lat="42.5339000" lon="2.6156850">
        <ele>650.8</ele>
        <time>2020-07-21T07:52:05Z</time>
      </trkpt>
      <trkpt lat="42.5339340" lon="2.6156690">
        <ele>651.0</ele>
        <time>2020-07-21T07:52:06Z</time>
      </trkpt>
      <trkpt lat="42.5340540" lon="2.6156110">
        <ele>652.0</ele>
        <time>2020-07-21T07:52:10Z</time>
      </trkpt>
      <trkpt lat="42.5341460" lon="2.6155710">
        <ele>652.4</ele>
        <time>2020-07-21T07:52:13Z</time>
      </trkpt>
      <trkpt lat="42.5342860" lon="2.6156170">
        <ele>652.8</ele>
        <time>2020-07-21T07:52:17Z</time>
      </trkpt>
      <trkpt lat="42.5343050" lon="2.6157030">
        <ele>653.2</ele>
        <time>2020-07-21T07:52:19Z</time>
      </trkpt>
      <trkpt lat="42.5343030" lon="2.6157520">
        <ele>653.4</ele>
        <time>2020-07-21T07:52:20Z</time>
      </trkpt>
      <trkpt lat="42.5342500" lon="2.6160210">
        <ele>654.0</ele>
        <time>2020-07-21T07:52:25Z</time>
      </trkpt>
      <trkpt lat="42.5342430" lon="2.6160760">
        <ele>654.2</ele>
        <time>2020-07-21T07:52:26Z</time>
      </trkpt>
      <trkpt lat="42.5342050" lon="2.6164360">
        <ele>655.0</ele>
        <time>2020-07-21T07:52:32Z</time>
      </trkpt>
      <trkpt lat="42.5341950" lon="2.6164930">
        <ele>655.2</ele>
        <time>2020-07-21T07:52:33Z</time>
      </trkpt>
      <trkpt lat="42.5341570" lon="2.6168280">
        <ele>655.8</ele>
        <time>2020-07-21T07:52:39Z</time>
      </trkpt>
      <trkpt lat="42.5341510" lon="2.6168840">
        <ele>656.0</ele>
        <time>2020-07-21T07:52:40Z</time>
      </trkpt>
      <trkpt lat="42.5341210" lon="2.6171120">
        <ele>656.4</ele>
        <time>2020-07-21T07:52:44Z</time>
      </trkpt>
      <trkpt lat="42.5340780" lon="2.6173840">
        <ele>657.2</ele>
        <time>2020-07-21T07:52:49Z</time>
      </trkpt>
      <trkpt lat="42.5340750" lon="2.6174970">
        <ele>657.4</ele>
        <time>2020-07-21T07:52:51Z</time>
      </trkpt>
      <trkpt lat="42.5340910" lon="2.6176100">
        <ele>657.6</ele>
        <time>2020-07-21T07:52:53Z</time>
      </trkpt>
      <trkpt lat="42.5341070" lon="2.6176630">
        <ele>657.8</ele>
        <time>2020-07-21T07:52:54Z</time>
      </trkpt>
      <trkpt lat="42.5342000" lon="2.6179090">
        <ele>658.8</ele>
        <time>2020-07-21T07:52:59Z</time>
      </trkpt>
      <trkpt lat="42.5342520" lon="2.6180490">
        <ele>659.0</ele>
        <time>2020-07-21T07:53:02Z</time>
      </trkpt>
      <trkpt lat="42.5342980" lon="2.6181740">
        <ele>660.0</ele>
        <time>2020-07-21T07:53:05Z</time>
      </trkpt>
      <trkpt lat="42.5343340" lon="2.6183570">
        <ele>660.8</ele>
        <time>2020-07-21T07:53:09Z</time>
      </trkpt>
      <trkpt lat="42.5343440" lon="2.6184500">
        <ele>661.0</ele>
        <time>2020-07-21T07:53:11Z</time>
      </trkpt>
      <trkpt lat="42.5343590" lon="2.6186410">
        <ele>662.4</ele>
        <time>2020-07-21T07:53:15Z</time>
      </trkpt>
      <trkpt lat="42.5343610" lon="2.6187300">
        <ele>662.8</ele>
        <time>2020-07-21T07:53:17Z</time>
      </trkpt>
      <trkpt lat="42.5343340" lon="2.6189240">
        <ele>663.6</ele>
        <time>2020-07-21T07:53:21Z</time>
      </trkpt>
      <trkpt lat="42.5343230" lon="2.6189680">
        <ele>663.8</ele>
        <time>2020-07-21T07:53:22Z</time>
      </trkpt>
      <trkpt lat="42.5342830" lon="2.6191840">
        <ele>664.6</ele>
        <time>2020-07-21T07:53:27Z</time>
      </trkpt>
      <trkpt lat="42.5342670" lon="2.6193250">
        <ele>665.2</ele>
        <time>2020-07-21T07:53:30Z</time>
      </trkpt>
      <trkpt lat="42.5342710" lon="2.6195940">
        <ele>665.6</ele>
        <time>2020-07-21T07:53:36Z</time>
      </trkpt>
      <trkpt lat="42.5342740" lon="2.6196360">
        <ele>665.8</ele>
        <time>2020-07-21T07:53:37Z</time>
      </trkpt>
      <trkpt lat="42.5342780" lon="2.6196820">
        <ele>666.0</ele>
        <time>2020-07-21T07:53:38Z</time>
      </trkpt>
      <trkpt lat="42.5343230" lon="2.6198690">
        <ele>667.0</ele>
        <time>2020-07-21T07:53:42Z</time>
      </trkpt>
      <trkpt lat="42.5343690" lon="2.6199430">
        <ele>667.2</ele>
        <time>2020-07-21T07:53:44Z</time>
      </trkpt>
      <trkpt lat="42.5344740" lon="2.6200700">
        <ele>668.0</ele>
        <time>2020-07-21T07:53:48Z</time>
      </trkpt>
      <trkpt lat="42.5345600" lon="2.6201560">
        <ele>668.4</ele>
        <time>2020-07-21T07:53:51Z</time>
      </trkpt>
      <trkpt lat="42.5346140" lon="2.6202060">
        <ele>669.0</ele>
        <time>2020-07-21T07:53:53Z</time>
      </trkpt>
      <trkpt lat="42.5346360" lon="2.6202240">
        <ele>669.4</ele>
        <time>2020-07-21T07:53:54Z</time>
      </trkpt>
      <trkpt lat="42.5347110" lon="2.6202880">
        <ele>670.2</ele>
        <time>2020-07-21T07:53:58Z</time>
      </trkpt>
      <trkpt lat="42.5347490" lon="2.6203370">
        <ele>670.4</ele>
        <time>2020-07-21T07:54:00Z</time>
      </trkpt>
      <trkpt lat="42.5348770" lon="2.6204330">
        <ele>670.6</ele>
        <time>2020-07-21T07:54:05Z</time>
      </trkpt>
      <trkpt lat="42.5350390" lon="2.6204850">
        <ele>671.6</ele>
        <time>2020-07-21T07:54:10Z</time>
      </trkpt>
      <trkpt lat="42.5351430" lon="2.6205020">
        <ele>672.2</ele>
        <time>2020-07-21T07:54:13Z</time>
      </trkpt>
      <trkpt lat="42.5352830" lon="2.6205060">
        <ele>672.8</ele>
        <time>2020-07-21T07:54:17Z</time>
      </trkpt>
      <trkpt lat="42.5354220" lon="2.6205070">
        <ele>674.0</ele>
        <time>2020-07-21T07:54:21Z</time>
      </trkpt>
      <trkpt lat="42.5355230" lon="2.6205090">
        <ele>674.6</ele>
        <time>2020-07-21T07:54:24Z</time>
      </trkpt>
      <trkpt lat="42.5355910" lon="2.6205120">
        <ele>675.0</ele>
        <time>2020-07-21T07:54:26Z</time>
      </trkpt>
      <trkpt lat="42.5357940" lon="2.6205180">
        <ele>676.0</ele>
        <time>2020-07-21T07:54:32Z</time>
      </trkpt>
      <trkpt lat="42.5358290" lon="2.6205170">
        <ele>676.2</ele>
        <time>2020-07-21T07:54:33Z</time>
      </trkpt>
      <trkpt lat="42.5359960" lon="2.6205220">
        <ele>677.2</ele>
        <time>2020-07-21T07:54:38Z</time>
      </trkpt>
      <trkpt lat="42.5361300" lon="2.6205240">
        <ele>677.8</ele>
        <time>2020-07-21T07:54:42Z</time>
      </trkpt>
      <trkpt lat="42.5361960" lon="2.6205280">
        <ele>678.2</ele>
        <time>2020-07-21T07:54:44Z</time>
      </trkpt>
      <trkpt lat="42.5363270" lon="2.6205480">
        <ele>679.4</ele>
        <time>2020-07-21T07:54:48Z</time>
      </trkpt>
      <trkpt lat="42.5365110" lon="2.6206640">
        <ele>680.2</ele>
        <time>2020-07-21T07:54:54Z</time>
      </trkpt>
      <trkpt lat="42.5365400" lon="2.6206930">
        <ele>680.4</ele>
        <time>2020-07-21T07:54:55Z</time>
      </trkpt>
      <trkpt lat="42.5365700" lon="2.6207230">
        <ele>680.4</ele>
        <time>2020-07-21T07:54:56Z</time>
      </trkpt>
      <trkpt lat="42.5366560" lon="2.6208220">
        <ele>680.8</ele>
        <time>2020-07-21T07:54:59Z</time>
      </trkpt>
      <trkpt lat="42.5367710" lon="2.6209480">
        <ele>681.6</ele>
        <time>2020-07-21T07:55:03Z</time>
      </trkpt>
      <trkpt lat="42.5369590" lon="2.6211400">
        <ele>682.2</ele>
        <time>2020-07-21T07:55:09Z</time>
      </trkpt>
      <trkpt lat="42.5370220" lon="2.6211980">
        <ele>682.4</ele>
        <time>2020-07-21T07:55:11Z</time>
      </trkpt>
      <trkpt lat="42.5370540" lon="2.6212270">
        <ele>682.6</ele>
        <time>2020-07-21T07:55:12Z</time>
      </trkpt>
      <trkpt lat="42.5371950" lon="2.6213980">
        <ele>683.8</ele>
        <time>2020-07-21T07:55:17Z</time>
      </trkpt>
      <trkpt lat="42.5372200" lon="2.6214390">
        <ele>683.8</ele>
        <time>2020-07-21T07:55:18Z</time>
      </trkpt>
      <trkpt lat="42.5373100" lon="2.6217100">
        <ele>684.4</ele>
        <time>2020-07-21T07:55:24Z</time>
      </trkpt>
      <trkpt lat="42.5373420" lon="2.6219000">
        <ele>684.8</ele>
        <time>2020-07-21T07:55:28Z</time>
      </trkpt>
      <trkpt lat="42.5373670" lon="2.6220610">
        <ele>685.8</ele>
        <time>2020-07-21T07:55:32Z</time>
      </trkpt>
      <trkpt lat="42.5373760" lon="2.6221010">
        <ele>685.8</ele>
        <time>2020-07-21T07:55:33Z</time>
      </trkpt>
      <trkpt lat="42.5374590" lon="2.6222730">
        <ele>686.8</ele>
        <time>2020-07-21T07:55:38Z</time>
      </trkpt>
      <trkpt lat="42.5374880" lon="2.6222860">
        <ele>687.0</ele>
        <time>2020-07-21T07:55:39Z</time>
      </trkpt>
      <trkpt lat="42.5375480" lon="2.6222840">
        <ele>687.4</ele>
        <time>2020-07-21T07:55:41Z</time>
      </trkpt>
      <trkpt lat="42.5375790" lon="2.6222720">
        <ele>687.4</ele>
        <time>2020-07-21T07:55:42Z</time>
      </trkpt>
      <trkpt lat="42.5376620" lon="2.6221990">
        <ele>688.2</ele>
        <time>2020-07-21T07:55:45Z</time>
      </trkpt>
      <trkpt lat="42.5377130" lon="2.6221410">
        <ele>688.8</ele>
        <time>2020-07-21T07:55:47Z</time>
      </trkpt>
      <trkpt lat="42.5377920" lon="2.6220660">
        <ele>689.4</ele>
        <time>2020-07-21T07:55:50Z</time>
      </trkpt>
      <trkpt lat="42.5378710" lon="2.6220180">
        <ele>689.6</ele>
        <time>2020-07-21T07:55:54Z</time>
      </trkpt>
      <trkpt lat="42.5379340" lon="2.6218700">
        <ele>689.2</ele>
        <time>2020-07-21T07:58:52Z</time>
      </trkpt>
      <trkpt lat="42.5379750" lon="2.6217950">
        <ele>689.4</ele>
        <time>2020-07-21T07:58:55Z</time>
      </trkpt>
      <trkpt lat="42.5380700" lon="2.6215420">
        <ele>690.0</ele>
        <time>2020-07-21T07:59:01Z</time>
      </trkpt>
      <trkpt lat="42.5380870" lon="2.6214990">
        <ele>690.2</ele>
        <time>2020-07-21T07:59:02Z</time>
      </trkpt>
      <trkpt lat="42.5381030" lon="2.6214540">
        <ele>690.4</ele>
        <time>2020-07-21T07:59:03Z</time>
      </trkpt>
      <trkpt lat="42.5381230" lon="2.6214110">
        <ele>690.6</ele>
        <time>2020-07-21T07:59:04Z</time>
      </trkpt>
      <trkpt lat="42.5381430" lon="2.6213660">
        <ele>690.6</ele>
        <time>2020-07-21T07:59:05Z</time>
      </trkpt>
      <trkpt lat="42.5381630" lon="2.6213190">
        <ele>690.8</ele>
        <time>2020-07-21T07:59:06Z</time>
      </trkpt>
      <trkpt lat="42.5381810" lon="2.6212710">
        <ele>690.8</ele>
        <time>2020-07-21T07:59:07Z</time>
      </trkpt>
      <trkpt lat="42.5382220" lon="2.6211770">
        <ele>690.8</ele>
        <time>2020-07-21T07:59:09Z</time>
      </trkpt>
      <trkpt lat="42.5382620" lon="2.6210800">
        <ele>690.6</ele>
        <time>2020-07-21T07:59:11Z</time>
      </trkpt>
      <trkpt lat="42.5383130" lon="2.6209380">
        <ele>690.8</ele>
        <time>2020-07-21T07:59:14Z</time>
      </trkpt>
      <trkpt lat="42.5383700" lon="2.6207870">
        <ele>691.0</ele>
        <time>2020-07-21T07:59:17Z</time>
      </trkpt>
      <trkpt lat="42.5384120" lon="2.6206870">
        <ele>691.2</ele>
        <time>2020-07-21T07:59:19Z</time>
      </trkpt>
      <trkpt lat="42.5384580" lon="2.6205940">
        <ele>691.6</ele>
        <time>2020-07-21T07:59:21Z</time>
      </trkpt>
      <trkpt lat="42.5385230" lon="2.6204490">
        <ele>692.0</ele>
        <time>2020-07-21T07:59:24Z</time>
      </trkpt>
      <trkpt lat="42.5386460" lon="2.6202250">
        <ele>692.6</ele>
        <time>2020-07-21T07:59:29Z</time>
      </trkpt>
      <trkpt lat="42.5387410" lon="2.6200470">
        <ele>693.6</ele>
        <time>2020-07-21T07:59:33Z</time>
      </trkpt>
      <trkpt lat="42.5387900" lon="2.6199510">
        <ele>693.8</ele>
        <time>2020-07-21T07:59:35Z</time>
      </trkpt>
      <trkpt lat="42.5389630" lon="2.6197050">
        <ele>694.8</ele>
        <time>2020-07-21T07:59:41Z</time>
      </trkpt>
      <trkpt lat="42.5389950" lon="2.6196710">
        <ele>695.0</ele>
        <time>2020-07-21T07:59:42Z</time>
      </trkpt>
      <trkpt lat="42.5391290" lon="2.6195480">
        <ele>695.8</ele>
        <time>2020-07-21T07:59:46Z</time>
      </trkpt>
      <trkpt lat="42.5392020" lon="2.6194940">
        <ele>696.0</ele>
        <time>2020-07-21T07:59:48Z</time>
      </trkpt>
      <trkpt lat="42.5392380" lon="2.6194660">
        <ele>696.0</ele>
        <time>2020-07-21T07:59:49Z</time>
      </trkpt>
      <trkpt lat="42.5394240" lon="2.6192550">
        <ele>696.4</ele>
        <time>2020-07-21T07:59:55Z</time>
      </trkpt>
      <trkpt lat="42.5394430" lon="2.6192100">
        <ele>696.8</ele>
        <time>2020-07-21T07:59:56Z</time>
      </trkpt>
      <trkpt lat="42.5394550" lon="2.6191620">
        <ele>697.0</ele>
        <time>2020-07-21T07:59:57Z</time>
      </trkpt>
      <trkpt lat="42.5394590" lon="2.6190110">
        <ele>697.8</ele>
        <time>2020-07-21T08:00:00Z</time>
      </trkpt>
      <trkpt lat="42.5393720" lon="2.6187770">
        <ele>698.0</ele>
        <time>2020-07-21T08:00:05Z</time>
      </trkpt>
      <trkpt lat="42.5393210" lon="2.6186860">
        <ele>698.0</ele>
        <time>2020-07-21T08:00:07Z</time>
      </trkpt>
      <trkpt lat="42.5392640" lon="2.6185380">
        <ele>698.4</ele>
        <time>2020-07-21T08:00:10Z</time>
      </trkpt>
      <trkpt lat="42.5392490" lon="2.6184210">
        <ele>698.8</ele>
        <time>2020-07-21T08:00:12Z</time>
      </trkpt>
      <trkpt lat="42.5392750" lon="2.6183140">
        <ele>699.2</ele>
        <time>2020-07-21T08:00:14Z</time>
      </trkpt>
      <trkpt lat="42.5393010" lon="2.6182730">
        <ele>699.6</ele>
        <time>2020-07-21T08:00:15Z</time>
      </trkpt>
      <trkpt lat="42.5393340" lon="2.6182370">
        <ele>699.8</ele>
        <time>2020-07-21T08:00:16Z</time>
      </trkpt>
      <trkpt lat="42.5394090" lon="2.6181860">
        <ele>700.2</ele>
        <time>2020-07-21T08:00:18Z</time>
      </trkpt>
      <trkpt lat="42.5394500" lon="2.6181710">
        <ele>700.4</ele>
        <time>2020-07-21T08:00:19Z</time>
      </trkpt>
      <trkpt lat="42.5394940" lon="2.6181630">
        <ele>700.4</ele>
        <time>2020-07-21T08:00:20Z</time>
      </trkpt>
      <trkpt lat="42.5396300" lon="2.6181720">
        <ele>700.6</ele>
        <time>2020-07-21T08:00:23Z</time>
      </trkpt>
      <trkpt lat="42.5396760" lon="2.6181810">
        <ele>700.8</ele>
        <time>2020-07-21T08:00:24Z</time>
      </trkpt>
      <trkpt lat="42.5398060" lon="2.6181920">
        <ele>701.2</ele>
        <time>2020-07-21T08:00:27Z</time>
      </trkpt>
      <trkpt lat="42.5398820" lon="2.6181560">
        <ele>701.4</ele>
        <time>2020-07-21T08:00:29Z</time>
      </trkpt>
      <trkpt lat="42.5399220" lon="2.6181140">
        <ele>701.6</ele>
        <time>2020-07-21T08:00:30Z</time>
      </trkpt>
      <trkpt lat="42.5400160" lon="2.6179760">
        <ele>701.8</ele>
        <time>2020-07-21T08:00:33Z</time>
      </trkpt>
      <trkpt lat="42.5400680" lon="2.6178750">
        <ele>702.4</ele>
        <time>2020-07-21T08:00:35Z</time>
      </trkpt>
      <trkpt lat="42.5401630" lon="2.6176830">
        <ele>703.6</ele>
        <time>2020-07-21T08:00:39Z</time>
      </trkpt>
      <trkpt lat="42.5401980" lon="2.6176470">
        <ele>703.6</ele>
        <time>2020-07-21T08:00:40Z</time>
      </trkpt>
      <trkpt lat="42.5403340" lon="2.6175700">
        <ele>704.6</ele>
        <time>2020-07-21T08:00:44Z</time>
      </trkpt>
      <trkpt lat="42.5403690" lon="2.6175680">
        <ele>704.8</ele>
        <time>2020-07-21T08:00:45Z</time>
      </trkpt>
      <trkpt lat="42.5404440" lon="2.6175700">
        <ele>705.2</ele>
        <time>2020-07-21T08:00:47Z</time>
      </trkpt>
      <trkpt lat="42.5405520" lon="2.6175650">
        <ele>705.8</ele>
        <time>2020-07-21T08:00:50Z</time>
      </trkpt>
      <trkpt lat="42.5406590" lon="2.6175240">
        <ele>706.8</ele>
        <time>2020-07-21T08:00:53Z</time>
      </trkpt>
      <trkpt lat="42.5406940" lon="2.6175070">
        <ele>707.0</ele>
        <time>2020-07-21T08:00:54Z</time>
      </trkpt>
      <trkpt lat="42.5409010" lon="2.6173680">
        <ele>708.0</ele>
        <time>2020-07-21T08:01:00Z</time>
      </trkpt>
      <trkpt lat="42.5409380" lon="2.6173480">
        <ele>708.0</ele>
        <time>2020-07-21T08:01:01Z</time>
      </trkpt>
      <trkpt lat="42.5410530" lon="2.6173040">
        <ele>708.2</ele>
        <time>2020-07-21T08:01:04Z</time>
      </trkpt>
      <trkpt lat="42.5411340" lon="2.6173120">
        <ele>708.4</ele>
        <time>2020-07-21T08:01:06Z</time>
      </trkpt>
      <trkpt lat="42.5411740" lon="2.6173270">
        <ele>708.4</ele>
        <time>2020-07-21T08:01:07Z</time>
      </trkpt>
      <trkpt lat="42.5412120" lon="2.6173490">
        <ele>708.6</ele>
        <time>2020-07-21T08:01:08Z</time>
      </trkpt>
      <trkpt lat="42.5413050" lon="2.6174390">
        <ele>709.2</ele>
        <time>2020-07-21T08:01:11Z</time>
      </trkpt>
      <trkpt lat="42.5414030" lon="2.6175180">
        <ele>710.0</ele>
        <time>2020-07-21T08:01:14Z</time>
      </trkpt>
      <trkpt lat="42.5414360" lon="2.6175470">
        <ele>710.2</ele>
        <time>2020-07-21T08:01:15Z</time>
      </trkpt>
      <trkpt lat="42.5415430" lon="2.6176200">
        <ele>710.8</ele>
        <time>2020-07-21T08:01:18Z</time>
      </trkpt>
      <trkpt lat="42.5415820" lon="2.6176440">
        <ele>710.8</ele>
        <time>2020-07-21T08:01:19Z</time>
      </trkpt>
      <trkpt lat="42.5417850" lon="2.6177300">
        <ele>711.4</ele>
        <time>2020-07-21T08:01:24Z</time>
      </trkpt>
      <trkpt lat="42.5418670" lon="2.6177530">
        <ele>711.8</ele>
        <time>2020-07-21T08:01:26Z</time>
      </trkpt>
      <trkpt lat="42.5420780" lon="2.6177630">
        <ele>712.6</ele>
        <time>2020-07-21T08:01:31Z</time>
      </trkpt>
      <trkpt lat="42.5421200" lon="2.6177490">
        <ele>712.6</ele>
        <time>2020-07-21T08:01:32Z</time>
      </trkpt>
      <trkpt lat="42.5422400" lon="2.6176720">
        <ele>713.0</ele>
        <time>2020-07-21T08:01:35Z</time>
      </trkpt>
      <trkpt lat="42.5423080" lon="2.6176050">
        <ele>713.4</ele>
        <time>2020-07-21T08:01:37Z</time>
      </trkpt>
      <trkpt lat="42.5423410" lon="2.6175670">
        <ele>713.6</ele>
        <time>2020-07-21T08:01:38Z</time>
      </trkpt>
      <trkpt lat="42.5425380" lon="2.6173630">
        <ele>714.6</ele>
        <time>2020-07-21T08:01:44Z</time>
      </trkpt>
      <trkpt lat="42.5427610" lon="2.6172520">
        <ele>715.4</ele>
        <time>2020-07-21T08:01:50Z</time>
      </trkpt>
      <trkpt lat="42.5428350" lon="2.6172260">
        <ele>715.6</ele>
        <time>2020-07-21T08:01:52Z</time>
      </trkpt>
      <trkpt lat="42.5428720" lon="2.6172140">
        <ele>716.0</ele>
        <time>2020-07-21T08:01:53Z</time>
      </trkpt>
      <trkpt lat="42.5429760" lon="2.6171570">
        <ele>716.8</ele>
        <time>2020-07-21T08:01:56Z</time>
      </trkpt>
      <trkpt lat="42.5430050" lon="2.6171270">
        <ele>717.0</ele>
        <time>2020-07-21T08:01:57Z</time>
      </trkpt>
      <trkpt lat="42.5430520" lon="2.6170370">
        <ele>717.4</ele>
        <time>2020-07-21T08:01:59Z</time>
      </trkpt>
      <trkpt lat="42.5430820" lon="2.6169330">
        <ele>717.8</ele>
        <time>2020-07-21T08:02:01Z</time>
      </trkpt>
      <trkpt lat="42.5431400" lon="2.6165980">
        <ele>718.6</ele>
        <time>2020-07-21T08:02:07Z</time>
      </trkpt>
      <trkpt lat="42.5431540" lon="2.6165450">
        <ele>718.8</ele>
        <time>2020-07-21T08:02:08Z</time>
      </trkpt>
      <trkpt lat="42.5431960" lon="2.6164520">
        <ele>718.8</ele>
        <time>2020-07-21T08:02:10Z</time>
      </trkpt>
      <trkpt lat="42.5432810" lon="2.6163760">
        <ele>719.2</ele>
        <time>2020-07-21T08:02:13Z</time>
      </trkpt>
      <trkpt lat="42.5433730" lon="2.6163830">
        <ele>720.2</ele>
        <time>2020-07-21T08:02:16Z</time>
      </trkpt>
      <trkpt lat="42.5434000" lon="2.6163960">
        <ele>720.6</ele>
        <time>2020-07-21T08:02:17Z</time>
      </trkpt>
      <trkpt lat="42.5434940" lon="2.6164680">
        <ele>721.4</ele>
        <time>2020-07-21T08:02:20Z</time>
      </trkpt>
      <trkpt lat="42.5435840" lon="2.6165590">
        <ele>721.8</ele>
        <time>2020-07-21T08:02:23Z</time>
      </trkpt>
      <trkpt lat="42.5437160" lon="2.6167180">
        <ele>722.6</ele>
        <time>2020-07-21T08:02:28Z</time>
      </trkpt>
      <trkpt lat="42.5438070" lon="2.6167960">
        <ele>723.2</ele>
        <time>2020-07-21T08:02:31Z</time>
      </trkpt>
      <trkpt lat="42.5438760" lon="2.6168190">
        <ele>723.6</ele>
        <time>2020-07-21T08:02:33Z</time>
      </trkpt>
      <trkpt lat="42.5439830" lon="2.6168100">
        <ele>724.0</ele>
        <time>2020-07-21T08:02:36Z</time>
      </trkpt>
      <trkpt lat="42.5440920" lon="2.6167820">
        <ele>724.2</ele>
        <time>2020-07-21T08:02:39Z</time>
      </trkpt>
      <trkpt lat="42.5442010" lon="2.6167430">
        <ele>724.6</ele>
        <time>2020-07-21T08:02:42Z</time>
      </trkpt>
      <trkpt lat="42.5442390" lon="2.6167360">
        <ele>724.6</ele>
        <time>2020-07-21T08:02:43Z</time>
      </trkpt>
      <trkpt lat="42.5443930" lon="2.6167610">
        <ele>725.0</ele>
        <time>2020-07-21T08:02:47Z</time>
      </trkpt>
      <trkpt lat="42.5445060" lon="2.6168010">
        <ele>725.8</ele>
        <time>2020-07-21T08:02:50Z</time>
      </trkpt>
      <trkpt lat="42.5445820" lon="2.6168350">
        <ele>726.2</ele>
        <time>2020-07-21T08:02:52Z</time>
      </trkpt>
      <trkpt lat="42.5446940" lon="2.6168960">
        <ele>726.8</ele>
        <time>2020-07-21T08:02:55Z</time>
      </trkpt>
      <trkpt lat="42.5447350" lon="2.6169190">
        <ele>727.0</ele>
        <time>2020-07-21T08:02:56Z</time>
      </trkpt>
      <trkpt lat="42.5449660" lon="2.6170580">
        <ele>727.4</ele>
        <time>2020-07-21T08:03:02Z</time>
      </trkpt>
      <trkpt lat="42.5450070" lon="2.6170820">
        <ele>727.6</ele>
        <time>2020-07-21T08:03:03Z</time>
      </trkpt>
      <trkpt lat="42.5450910" lon="2.6171340">
        <ele>728.2</ele>
        <time>2020-07-21T08:03:05Z</time>
      </trkpt>
      <trkpt lat="42.5452690" lon="2.6172140">
        <ele>728.8</ele>
        <time>2020-07-21T08:03:09Z</time>
      </trkpt>
      <trkpt lat="42.5453140" lon="2.6172210">
        <ele>728.8</ele>
        <time>2020-07-21T08:03:10Z</time>
      </trkpt>
      <trkpt lat="42.5453610" lon="2.6172210">
        <ele>729.0</ele>
        <time>2020-07-21T08:03:11Z</time>
      </trkpt>
      <trkpt lat="42.5454540" lon="2.6171960">
        <ele>729.2</ele>
        <time>2020-07-21T08:03:13Z</time>
      </trkpt>
      <trkpt lat="42.5455400" lon="2.6171520">
        <ele>729.6</ele>
        <time>2020-07-21T08:03:15Z</time>
      </trkpt>
      <trkpt lat="42.5456640" lon="2.6170670">
        <ele>730.2</ele>
        <time>2020-07-21T08:03:18Z</time>
      </trkpt>
      <trkpt lat="42.5457040" lon="2.6170360">
        <ele>730.2</ele>
        <time>2020-07-21T08:03:19Z</time>
      </trkpt>
      <trkpt lat="42.5457820" lon="2.6169630">
        <ele>730.4</ele>
        <time>2020-07-21T08:03:21Z</time>
      </trkpt>
      <trkpt lat="42.5458210" lon="2.6169200">
        <ele>730.6</ele>
        <time>2020-07-21T08:03:22Z</time>
      </trkpt>
      <trkpt lat="42.5458910" lon="2.6168300">
        <ele>731.2</ele>
        <time>2020-07-21T08:03:24Z</time>
      </trkpt>
      <trkpt lat="42.5459240" lon="2.6167850">
        <ele>731.6</ele>
        <time>2020-07-21T08:03:25Z</time>
      </trkpt>
      <trkpt lat="42.5459560" lon="2.6167420">
        <ele>731.8</ele>
        <time>2020-07-21T08:03:26Z</time>
      </trkpt>
      <trkpt lat="42.5459870" lon="2.6166980">
        <ele>732.0</ele>
        <time>2020-07-21T08:03:27Z</time>
      </trkpt>
      <trkpt lat="42.5460780" lon="2.6165580">
        <ele>732.4</ele>
        <time>2020-07-21T08:03:30Z</time>
      </trkpt>
      <trkpt lat="42.5461440" lon="2.6164590">
        <ele>732.8</ele>
        <time>2020-07-21T08:03:32Z</time>
      </trkpt>
      <trkpt lat="42.5462400" lon="2.6163190">
        <ele>733.4</ele>
        <time>2020-07-21T08:03:35Z</time>
      </trkpt>
      <trkpt lat="42.5463430" lon="2.6161960">
        <ele>734.0</ele>
        <time>2020-07-21T08:03:38Z</time>
      </trkpt>
      <trkpt lat="42.5464480" lon="2.6161260">
        <ele>734.6</ele>
        <time>2020-07-21T08:03:41Z</time>
      </trkpt>
      <trkpt lat="42.5464910" lon="2.6161210">
        <ele>734.6</ele>
        <time>2020-07-21T08:03:42Z</time>
      </trkpt>
      <trkpt lat="42.5465310" lon="2.6161310">
        <ele>734.8</ele>
        <time>2020-07-21T08:03:43Z</time>
      </trkpt>
      <trkpt lat="42.5465710" lon="2.6161460">
        <ele>735.0</ele>
        <time>2020-07-21T08:03:44Z</time>
      </trkpt>
      <trkpt lat="42.5466080" lon="2.6161760">
        <ele>735.2</ele>
        <time>2020-07-21T08:03:45Z</time>
      </trkpt>
      <trkpt lat="42.5466430" lon="2.6162160">
        <ele>735.4</ele>
        <time>2020-07-21T08:03:46Z</time>
      </trkpt>
      <trkpt lat="42.5467910" lon="2.6164340">
        <ele>736.2</ele>
        <time>2020-07-21T08:03:51Z</time>
      </trkpt>
      <trkpt lat="42.5468240" lon="2.6164720">
        <ele>736.2</ele>
        <time>2020-07-21T08:03:52Z</time>
      </trkpt>
      <trkpt lat="42.5468600" lon="2.6165060">
        <ele>736.4</ele>
        <time>2020-07-21T08:03:53Z</time>
      </trkpt>
      <trkpt lat="42.5469480" lon="2.6165550">
        <ele>736.4</ele>
        <time>2020-07-21T08:03:55Z</time>
      </trkpt>
      <trkpt lat="42.5470440" lon="2.6165890">
        <ele>736.6</ele>
        <time>2020-07-21T08:03:57Z</time>
      </trkpt>
      <trkpt lat="42.5470910" lon="2.6166000">
        <ele>736.4</ele>
        <time>2020-07-21T08:03:58Z</time>
      </trkpt>
      <trkpt lat="42.5473210" lon="2.6166430">
        <ele>736.2</ele>
        <time>2020-07-21T08:04:03Z</time>
      </trkpt>
      <trkpt lat="42.5476440" lon="2.6167150">
        <ele>736.0</ele>
        <time>2020-07-21T08:04:09Z</time>
      </trkpt>
      <trkpt lat="42.5477600" lon="2.6167340">
        <ele>736.0</ele>
        <time>2020-07-21T08:04:11Z</time>
      </trkpt>
      <trkpt lat="42.5481110" lon="2.6167560">
        <ele>735.2</ele>
        <time>2020-07-21T08:04:17Z</time>
      </trkpt>
      <trkpt lat="42.5481690" lon="2.6167540">
        <ele>735.2</ele>
        <time>2020-07-21T08:04:18Z</time>
      </trkpt>
      <trkpt lat="42.5484750" lon="2.6166910">
        <ele>734.2</ele>
        <time>2020-07-21T08:04:23Z</time>
      </trkpt>
      <trkpt lat="42.5485360" lon="2.6166740">
        <ele>733.8</ele>
        <time>2020-07-21T08:04:24Z</time>
      </trkpt>
      <trkpt lat="42.5487280" lon="2.6166100">
        <ele>732.8</ele>
        <time>2020-07-21T08:04:27Z</time>
      </trkpt>
      <trkpt lat="42.5489190" lon="2.6165160">
        <ele>732.4</ele>
        <time>2020-07-21T08:04:30Z</time>
      </trkpt>
      <trkpt lat="42.5492230" lon="2.6163320">
        <ele>731.6</ele>
        <time>2020-07-21T08:04:35Z</time>
      </trkpt>
      <trkpt lat="42.5493910" lon="2.6162030">
        <ele>731.4</ele>
        <time>2020-07-21T08:04:38Z</time>
      </trkpt>
      <trkpt lat="42.5495610" lon="2.6160880">
        <ele>731.4</ele>
        <time>2020-07-21T08:04:41Z</time>
      </trkpt>
      <trkpt lat="42.5497140" lon="2.6160030">
        <ele>731.4</ele>
        <time>2020-07-21T08:04:44Z</time>
      </trkpt>
      <trkpt lat="42.5499860" lon="2.6158750">
        <ele>731.2</ele>
        <time>2020-07-21T08:04:50Z</time>
      </trkpt>
      <trkpt lat="42.5500380" lon="2.6158520">
        <ele>731.2</ele>
        <time>2020-07-21T08:04:51Z</time>
      </trkpt>
      <trkpt lat="42.5500920" lon="2.6158360">
        <ele>731.0</ele>
        <time>2020-07-21T08:04:52Z</time>
      </trkpt>
      <trkpt lat="42.5503050" lon="2.6157610">
        <ele>730.6</ele>
        <time>2020-07-21T08:04:56Z</time>
      </trkpt>
      <trkpt lat="42.5503630" lon="2.6157330">
        <ele>730.4</ele>
        <time>2020-07-21T08:04:57Z</time>
      </trkpt>
      <trkpt lat="42.5506760" lon="2.6156150">
        <ele>729.6</ele>
        <time>2020-07-21T08:05:02Z</time>
      </trkpt>
      <trkpt lat="42.5508070" lon="2.6155580">
        <ele>729.0</ele>
        <time>2020-07-21T08:05:04Z</time>
      </trkpt>
      <trkpt lat="42.5510900" lon="2.6154440">
        <ele>728.4</ele>
        <time>2020-07-21T08:05:08Z</time>
      </trkpt>
      <trkpt lat="42.5513340" lon="2.6153830">
        <ele>727.8</ele>
        <time>2020-07-21T08:05:11Z</time>
      </trkpt>
      <trkpt lat="42.5515870" lon="2.6153710">
        <ele>727.2</ele>
        <time>2020-07-21T08:05:14Z</time>
      </trkpt>
      <trkpt lat="42.5516730" lon="2.6153760">
        <ele>727.2</ele>
        <time>2020-07-21T08:05:15Z</time>
      </trkpt>
      <trkpt lat="42.5517590" lon="2.6153820">
        <ele>727.2</ele>
        <time>2020-07-21T08:05:16Z</time>
      </trkpt>
      <trkpt lat="42.5518450" lon="2.6153910">
        <ele>727.2</ele>
        <time>2020-07-21T08:05:17Z</time>
      </trkpt>
      <trkpt lat="42.5522840" lon="2.6154200">
        <ele>726.0</ele>
        <time>2020-07-21T08:05:22Z</time>
      </trkpt>
      <trkpt lat="42.5525450" lon="2.6154000">
        <ele>725.0</ele>
        <time>2020-07-21T08:05:25Z</time>
      </trkpt>
      <trkpt lat="42.5526210" lon="2.6153870">
        <ele>724.6</ele>
        <time>2020-07-21T08:05:26Z</time>
      </trkpt>
      <trkpt lat="42.5527440" lon="2.6153630">
        <ele>724.2</ele>
        <time>2020-07-21T08:05:28Z</time>
      </trkpt>
      <trkpt lat="42.5531350" lon="2.6153720">
        <ele>723.0</ele>
        <time>2020-07-21T08:06:15Z</time>
      </trkpt>
      <trkpt lat="42.5531940" lon="2.6154610">
        <ele>723.0</ele>
        <time>2020-07-21T08:06:17Z</time>
      </trkpt>
      <trkpt lat="42.5532390" lon="2.6155950">
        <ele>722.8</ele>
        <time>2020-07-21T08:06:19Z</time>
      </trkpt>
      <trkpt lat="42.5532670" lon="2.6157570">
        <ele>722.0</ele>
        <time>2020-07-21T08:06:21Z</time>
      </trkpt>
      <trkpt lat="42.5532680" lon="2.6159300">
        <ele>721.4</ele>
        <time>2020-07-21T08:06:23Z</time>
      </trkpt>
      <trkpt lat="42.5532580" lon="2.6160200">
        <ele>721.0</ele>
        <time>2020-07-21T08:06:24Z</time>
      </trkpt>
      <trkpt lat="42.5532260" lon="2.6162030">
        <ele>720.2</ele>
        <time>2020-07-21T08:06:26Z</time>
      </trkpt>
      <trkpt lat="42.5532100" lon="2.6163900">
        <ele>719.8</ele>
        <time>2020-07-21T08:06:28Z</time>
      </trkpt>
      <trkpt lat="42.5532590" lon="2.6165740">
        <ele>719.6</ele>
        <time>2020-07-21T08:06:30Z</time>
      </trkpt>
      <trkpt lat="42.5533010" lon="2.6166590">
        <ele>719.6</ele>
        <time>2020-07-21T08:06:31Z</time>
      </trkpt>
      <trkpt lat="42.5535540" lon="2.6170570">
        <ele>719.4</ele>
        <time>2020-07-21T08:06:36Z</time>
      </trkpt>
      <trkpt lat="42.5536070" lon="2.6171420">
        <ele>718.8</ele>
        <time>2020-07-21T08:06:37Z</time>
      </trkpt>
      <trkpt lat="42.5536550" lon="2.6172300">
        <ele>718.0</ele>
        <time>2020-07-21T08:06:38Z</time>
      </trkpt>
      <trkpt lat="42.5537470" lon="2.6174220">
        <ele>716.6</ele>
        <time>2020-07-21T08:06:40Z</time>
      </trkpt>
      <trkpt lat="42.5538290" lon="2.6176270">
        <ele>716.0</ele>
        <time>2020-07-21T08:06:42Z</time>
      </trkpt>
      <trkpt lat="42.5539110" lon="2.6178360">
        <ele>715.6</ele>
        <time>2020-07-21T08:06:44Z</time>
      </trkpt>
      <trkpt lat="42.5540090" lon="2.6180330">
        <ele>714.6</ele>
        <time>2020-07-21T08:06:46Z</time>
      </trkpt>
      <trkpt lat="42.5540710" lon="2.6181180">
        <ele>714.4</ele>
        <time>2020-07-21T08:06:47Z</time>
      </trkpt>
      <trkpt lat="42.5543400" lon="2.6184520">
        <ele>713.8</ele>
        <time>2020-07-21T08:06:51Z</time>
      </trkpt>
      <trkpt lat="42.5543880" lon="2.6185390">
        <ele>713.4</ele>
        <time>2020-07-21T08:06:52Z</time>
      </trkpt>
      <trkpt lat="42.5544200" lon="2.6186360">
        <ele>713.2</ele>
        <time>2020-07-21T08:06:53Z</time>
      </trkpt>
      <trkpt lat="42.5544360" lon="2.6188500">
        <ele>712.8</ele>
        <time>2020-07-21T08:06:55Z</time>
      </trkpt>
      <trkpt lat="42.5544180" lon="2.6191660">
        <ele>712.0</ele>
        <time>2020-07-21T08:06:58Z</time>
      </trkpt>
      <trkpt lat="42.5544270" lon="2.6192690">
        <ele>711.8</ele>
        <time>2020-07-21T08:06:59Z</time>
      </trkpt>
      <trkpt lat="42.5544450" lon="2.6193740">
        <ele>711.6</ele>
        <time>2020-07-21T08:07:00Z</time>
      </trkpt>
      <trkpt lat="42.5544960" lon="2.6195790">
        <ele>711.0</ele>
        <time>2020-07-21T08:07:02Z</time>
      </trkpt>
      <trkpt lat="42.5545990" lon="2.6198840">
        <ele>709.8</ele>
        <time>2020-07-21T08:07:05Z</time>
      </trkpt>
      <trkpt lat="42.5547500" lon="2.6201860">
        <ele>708.6</ele>
        <time>2020-07-21T08:07:08Z</time>
      </trkpt>
      <trkpt lat="42.5548720" lon="2.6203770">
        <ele>707.0</ele>
        <time>2020-07-21T08:07:10Z</time>
      </trkpt>
      <trkpt lat="42.5550010" lon="2.6205540">
        <ele>705.8</ele>
        <time>2020-07-21T08:07:12Z</time>
      </trkpt>
      <trkpt lat="42.5551940" lon="2.6207920">
        <ele>704.6</ele>
        <time>2020-07-21T08:07:15Z</time>
      </trkpt>
      <trkpt lat="42.5553690" lon="2.6210110">
        <ele>703.6</ele>
        <time>2020-07-21T08:07:18Z</time>
      </trkpt>
      <trkpt lat="42.5554380" lon="2.6210590">
        <ele>703.4</ele>
        <time>2020-07-21T08:07:19Z</time>
      </trkpt>
      <trkpt lat="42.5555190" lon="2.6210740">
        <ele>703.2</ele>
        <time>2020-07-21T08:07:20Z</time>
      </trkpt>
      <trkpt lat="42.5555990" lon="2.6210600">
        <ele>703.0</ele>
        <time>2020-07-21T08:07:21Z</time>
      </trkpt>
      <trkpt lat="42.5556780" lon="2.6210200">
        <ele>703.0</ele>
        <time>2020-07-21T08:07:22Z</time>
      </trkpt>
      <trkpt lat="42.5557560" lon="2.6209690">
        <ele>702.8</ele>
        <time>2020-07-21T08:07:23Z</time>
      </trkpt>
      <trkpt lat="42.5559010" lon="2.6208400">
        <ele>702.4</ele>
        <time>2020-07-21T08:07:25Z</time>
      </trkpt>
      <trkpt lat="42.5559710" lon="2.6207710">
        <ele>702.2</ele>
        <time>2020-07-21T08:07:26Z</time>
      </trkpt>
      <trkpt lat="42.5561850" lon="2.6205580">
        <ele>701.0</ele>
        <time>2020-07-21T08:07:29Z</time>
      </trkpt>
      <trkpt lat="42.5564080" lon="2.6203520">
        <ele>700.0</ele>
        <time>2020-07-21T08:07:32Z</time>
      </trkpt>
      <trkpt lat="42.5565590" lon="2.6202220">
        <ele>699.4</ele>
        <time>2020-07-21T08:07:34Z</time>
      </trkpt>
      <trkpt lat="42.5567990" lon="2.6200480">
        <ele>698.8</ele>
        <time>2020-07-21T08:07:37Z</time>
      </trkpt>
      <trkpt lat="42.5568840" lon="2.6200070">
        <ele>698.6</ele>
        <time>2020-07-21T08:07:38Z</time>
      </trkpt>
      <trkpt lat="42.5569750" lon="2.6199830">
        <ele>698.0</ele>
        <time>2020-07-21T08:07:39Z</time>
      </trkpt>
      <trkpt lat="42.5570660" lon="2.6199720">
        <ele>697.6</ele>
        <time>2020-07-21T08:07:40Z</time>
      </trkpt>
      <trkpt lat="42.5573590" lon="2.6199640">
        <ele>696.2</ele>
        <time>2020-07-21T08:07:43Z</time>
      </trkpt>
      <trkpt lat="42.5575630" lon="2.6199660">
        <ele>695.0</ele>
        <time>2020-07-21T08:07:45Z</time>
      </trkpt>
      <trkpt lat="42.5577670" lon="2.6199670">
        <ele>693.0</ele>
        <time>2020-07-21T08:07:47Z</time>
      </trkpt>
      <trkpt lat="42.5579800" lon="2.6199730">
        <ele>691.8</ele>
        <time>2020-07-21T08:07:49Z</time>
      </trkpt>
      <trkpt lat="42.5581890" lon="2.6199680">
        <ele>691.0</ele>
        <time>2020-07-21T08:07:51Z</time>
      </trkpt>
      <trkpt lat="42.5583980" lon="2.6199580">
        <ele>690.4</ele>
        <time>2020-07-21T08:07:53Z</time>
      </trkpt>
      <trkpt lat="42.5586100" lon="2.6199390">
        <ele>688.8</ele>
        <time>2020-07-21T08:07:55Z</time>
      </trkpt>
      <trkpt lat="42.5587150" lon="2.6199310">
        <ele>688.2</ele>
        <time>2020-07-21T08:07:56Z</time>
      </trkpt>
      <trkpt lat="42.5588220" lon="2.6199250">
        <ele>687.4</ele>
        <time>2020-07-21T08:07:57Z</time>
      </trkpt>
      <trkpt lat="42.5590500" lon="2.6199070">
        <ele>686.8</ele>
        <time>2020-07-21T08:07:59Z</time>
      </trkpt>
      <trkpt lat="42.5591640" lon="2.6199080">
        <ele>686.4</ele>
        <time>2020-07-21T08:08:00Z</time>
      </trkpt>
      <trkpt lat="42.5594700" lon="2.6199250">
        <ele>684.6</ele>
        <time>2020-07-21T08:08:03Z</time>
      </trkpt>
      <trkpt lat="42.5595490" lon="2.6199440">
        <ele>684.0</ele>
        <time>2020-07-21T08:08:04Z</time>
      </trkpt>
      <trkpt lat="42.5596170" lon="2.6199790">
        <ele>683.4</ele>
        <time>2020-07-21T08:08:05Z</time>
      </trkpt>
      <trkpt lat="42.5596750" lon="2.6200330">
        <ele>682.8</ele>
        <time>2020-07-21T08:08:06Z</time>
      </trkpt>
      <trkpt lat="42.5597270" lon="2.6201000">
        <ele>682.6</ele>
        <time>2020-07-21T08:08:07Z</time>
      </trkpt>
      <trkpt lat="42.5597710" lon="2.6201760">
        <ele>682.2</ele>
        <time>2020-07-21T08:08:08Z</time>
      </trkpt>
      <trkpt lat="42.5598660" lon="2.6204310">
        <ele>681.6</ele>
        <time>2020-07-21T08:08:11Z</time>
      </trkpt>
      <trkpt lat="42.5599250" lon="2.6206260">
        <ele>681.2</ele>
        <time>2020-07-21T08:08:13Z</time>
      </trkpt>
      <trkpt lat="42.5599690" lon="2.6207180">
        <ele>681.0</ele>
        <time>2020-07-21T08:08:14Z</time>
      </trkpt>
      <trkpt lat="42.5600240" lon="2.6208070">
        <ele>680.6</ele>
        <time>2020-07-21T08:08:15Z</time>
      </trkpt>
      <trkpt lat="42.5600870" lon="2.6208880">
        <ele>680.2</ele>
        <time>2020-07-21T08:08:16Z</time>
      </trkpt>
      <trkpt lat="42.5601530" lon="2.6209670">
        <ele>679.6</ele>
        <time>2020-07-21T08:08:17Z</time>
      </trkpt>
      <trkpt lat="42.5602870" lon="2.6211230">
        <ele>678.4</ele>
        <time>2020-07-21T08:08:19Z</time>
      </trkpt>
      <trkpt lat="42.5604600" lon="2.6213740">
        <ele>677.0</ele>
        <time>2020-07-21T08:08:22Z</time>
      </trkpt>
      <trkpt lat="42.5605000" lon="2.6214730">
        <ele>676.8</ele>
        <time>2020-07-21T08:08:23Z</time>
      </trkpt>
      <trkpt lat="42.5605350" lon="2.6215690">
        <ele>676.2</ele>
        <time>2020-07-21T08:08:24Z</time>
      </trkpt>
      <trkpt lat="42.5605570" lon="2.6216670">
        <ele>675.8</ele>
        <time>2020-07-21T08:08:25Z</time>
      </trkpt>
      <trkpt lat="42.5605840" lon="2.6218670">
        <ele>675.2</ele>
        <time>2020-07-21T08:08:27Z</time>
      </trkpt>
      <trkpt lat="42.5605890" lon="2.6219690">
        <ele>674.8</ele>
        <time>2020-07-21T08:08:28Z</time>
      </trkpt>
      <trkpt lat="42.5605860" lon="2.6220790">
        <ele>674.6</ele>
        <time>2020-07-21T08:08:29Z</time>
      </trkpt>
      <trkpt lat="42.5605410" lon="2.6224000">
        <ele>674.2</ele>
        <time>2020-07-21T08:08:32Z</time>
      </trkpt>
      <trkpt lat="42.5604830" lon="2.6226240">
        <ele>673.8</ele>
        <time>2020-07-21T08:08:34Z</time>
      </trkpt>
      <trkpt lat="42.5604170" lon="2.6228670">
        <ele>672.4</ele>
        <time>2020-07-21T08:08:36Z</time>
      </trkpt>
      <trkpt lat="42.5603830" lon="2.6229850">
        <ele>671.6</ele>
        <time>2020-07-21T08:08:37Z</time>
      </trkpt>
      <trkpt lat="42.5603510" lon="2.6230970">
        <ele>670.4</ele>
        <time>2020-07-21T08:08:38Z</time>
      </trkpt>
      <trkpt lat="42.5603160" lon="2.6232060">
        <ele>669.4</ele>
        <time>2020-07-21T08:08:39Z</time>
      </trkpt>
      <trkpt lat="42.5602220" lon="2.6234180">
        <ele>667.8</ele>
        <time>2020-07-21T08:08:41Z</time>
      </trkpt>
      <trkpt lat="42.5601600" lon="2.6235080">
        <ele>667.4</ele>
        <time>2020-07-21T08:08:42Z</time>
      </trkpt>
      <trkpt lat="42.5600230" lon="2.6236620">
        <ele>666.6</ele>
        <time>2020-07-21T08:08:44Z</time>
      </trkpt>
      <trkpt lat="42.5598830" lon="2.6238180">
        <ele>665.4</ele>
        <time>2020-07-21T08:08:46Z</time>
      </trkpt>
      <trkpt lat="42.5598210" lon="2.6239050">
        <ele>665.2</ele>
        <time>2020-07-21T08:08:47Z</time>
      </trkpt>
      <trkpt lat="42.5596710" lon="2.6242100">
        <ele>664.4</ele>
        <time>2020-07-21T08:08:50Z</time>
      </trkpt>
      <trkpt lat="42.5596300" lon="2.6243240">
        <ele>664.2</ele>
        <time>2020-07-21T08:08:51Z</time>
      </trkpt>
      <trkpt lat="42.5595530" lon="2.6245520">
        <ele>663.0</ele>
        <time>2020-07-21T08:08:53Z</time>
      </trkpt>
      <trkpt lat="42.5595270" lon="2.6246650">
        <ele>662.4</ele>
        <time>2020-07-21T08:08:54Z</time>
      </trkpt>
      <trkpt lat="42.5595170" lon="2.6247790">
        <ele>661.8</ele>
        <time>2020-07-21T08:08:55Z</time>
      </trkpt>
      <trkpt lat="42.5595190" lon="2.6248940">
        <ele>661.2</ele>
        <time>2020-07-21T08:08:56Z</time>
      </trkpt>
      <trkpt lat="42.5595390" lon="2.6250040">
        <ele>660.6</ele>
        <time>2020-07-21T08:08:57Z</time>
      </trkpt>
      <trkpt lat="42.5595750" lon="2.6251050">
        <ele>660.2</ele>
        <time>2020-07-21T08:08:58Z</time>
      </trkpt>
      <trkpt lat="42.5596200" lon="2.6251990">
        <ele>659.8</ele>
        <time>2020-07-21T08:08:59Z</time>
      </trkpt>
      <trkpt lat="42.5596770" lon="2.6252830">
        <ele>659.4</ele>
        <time>2020-07-21T08:09:00Z</time>
      </trkpt>
      <trkpt lat="42.5598480" lon="2.6253910">
        <ele>658.6</ele>
        <time>2020-07-21T08:09:02Z</time>
      </trkpt>
      <trkpt lat="42.5599430" lon="2.6254310">
        <ele>658.4</ele>
        <time>2020-07-21T08:09:03Z</time>
      </trkpt>
      <trkpt lat="42.5602410" lon="2.6255220">
        <ele>657.8</ele>
        <time>2020-07-21T08:09:06Z</time>
      </trkpt>
      <trkpt lat="42.5604340" lon="2.6255830">
        <ele>657.0</ele>
        <time>2020-07-21T08:09:08Z</time>
      </trkpt>
      <trkpt lat="42.5607160" lon="2.6256660">
        <ele>655.6</ele>
        <time>2020-07-21T08:09:11Z</time>
      </trkpt>
      <trkpt lat="42.5608000" lon="2.6256730">
        <ele>654.8</ele>
        <time>2020-07-21T08:09:12Z</time>
      </trkpt>
      <trkpt lat="42.5608760" lon="2.6256690">
        <ele>654.2</ele>
        <time>2020-07-21T08:09:13Z</time>
      </trkpt>
      <trkpt lat="42.5610780" lon="2.6256220">
        <ele>653.6</ele>
        <time>2020-07-21T08:09:16Z</time>
      </trkpt>
      <trkpt lat="42.5612360" lon="2.6255610">
        <ele>653.4</ele>
        <time>2020-07-21T08:09:19Z</time>
      </trkpt>
      <trkpt lat="42.5612860" lon="2.6255410">
        <ele>653.2</ele>
        <time>2020-07-21T08:09:20Z</time>
      </trkpt>
      <trkpt lat="42.5613890" lon="2.6255110">
        <ele>653.0</ele>
        <time>2020-07-21T08:09:22Z</time>
      </trkpt>
      <trkpt lat="42.5616470" lon="2.6254490">
        <ele>652.0</ele>
        <time>2020-07-21T08:09:28Z</time>
      </trkpt>
      <trkpt lat="42.5616900" lon="2.6254430">
        <ele>651.8</ele>
        <time>2020-07-21T08:09:29Z</time>
      </trkpt>
      <trkpt lat="42.5618960" lon="2.6254650">
        <ele>651.0</ele>
        <time>2020-07-21T08:09:34Z</time>
      </trkpt>
      <trkpt lat="42.5619420" lon="2.6254920">
        <ele>650.8</ele>
        <time>2020-07-21T08:09:35Z</time>
      </trkpt>
      <trkpt lat="42.5619920" lon="2.6255300">
        <ele>650.4</ele>
        <time>2020-07-21T08:09:36Z</time>
      </trkpt>
      <trkpt lat="42.5621020" lon="2.6256160">
        <ele>649.6</ele>
        <time>2020-07-21T08:09:38Z</time>
      </trkpt>
      <trkpt lat="42.5622090" lon="2.6257090">
        <ele>649.2</ele>
        <time>2020-07-21T08:09:40Z</time>
      </trkpt>
      <trkpt lat="42.5623080" lon="2.6258180">
        <ele>648.6</ele>
        <time>2020-07-21T08:09:42Z</time>
      </trkpt>
      <trkpt lat="42.5624260" lon="2.6258710">
        <ele>648.4</ele>
        <time>2020-07-21T08:09:44Z</time>
      </trkpt>
      <trkpt lat="42.5625540" lon="2.6258220">
        <ele>648.2</ele>
        <time>2020-07-21T08:09:46Z</time>
      </trkpt>
      <trkpt lat="42.5626210" lon="2.6257790">
        <ele>648.2</ele>
        <time>2020-07-21T08:09:47Z</time>
      </trkpt>
      <trkpt lat="42.5626800" lon="2.6257330">
        <ele>648.2</ele>
        <time>2020-07-21T08:09:48Z</time>
      </trkpt>
      <trkpt lat="42.5628980" lon="2.6255530">
        <ele>648.2</ele>
        <time>2020-07-21T08:09:52Z</time>
      </trkpt>
      <trkpt lat="42.5631170" lon="2.6253470">
        <ele>647.6</ele>
        <time>2020-07-21T08:09:56Z</time>
      </trkpt>
      <trkpt lat="42.5632980" lon="2.6252040">
        <ele>647.2</ele>
        <time>2020-07-21T08:09:59Z</time>
      </trkpt>
      <trkpt lat="42.5633650" lon="2.6251720">
        <ele>647.0</ele>
        <time>2020-07-21T08:10:00Z</time>
      </trkpt>
      <trkpt lat="42.5634350" lon="2.6251580">
        <ele>646.6</ele>
        <time>2020-07-21T08:10:01Z</time>
      </trkpt>
      <trkpt lat="42.5635060" lon="2.6251740">
        <ele>646.2</ele>
        <time>2020-07-21T08:10:02Z</time>
      </trkpt>
      <trkpt lat="42.5637670" lon="2.6253410">
        <ele>645.4</ele>
        <time>2020-07-21T08:10:06Z</time>
      </trkpt>
      <trkpt lat="42.5642000" lon="2.6255440">
        <ele>644.6</ele>
        <time>2020-07-21T08:10:12Z</time>
      </trkpt>
      <trkpt lat="42.5642730" lon="2.6255800">
        <ele>644.2</ele>
        <time>2020-07-21T08:10:13Z</time>
      </trkpt>
      <trkpt lat="42.5643420" lon="2.6256250">
        <ele>644.0</ele>
        <time>2020-07-21T08:10:14Z</time>
      </trkpt>
      <trkpt lat="42.5644620" lon="2.6257610">
        <ele>643.8</ele>
        <time>2020-07-21T08:10:16Z</time>
      </trkpt>
      <trkpt lat="42.5645150" lon="2.6259520">
        <ele>643.4</ele>
        <time>2020-07-21T08:10:18Z</time>
      </trkpt>
      <trkpt lat="42.5645110" lon="2.6260550">
        <ele>643.2</ele>
        <time>2020-07-21T08:10:19Z</time>
      </trkpt>
      <trkpt lat="42.5644960" lon="2.6261510">
        <ele>643.0</ele>
        <time>2020-07-21T08:10:20Z</time>
      </trkpt>
      <trkpt lat="42.5644490" lon="2.6264150">
        <ele>643.0</ele>
        <time>2020-07-21T08:10:23Z</time>
      </trkpt>
      <trkpt lat="42.5644480" lon="2.6265900">
        <ele>643.2</ele>
        <time>2020-07-21T08:10:25Z</time>
      </trkpt>
      <trkpt lat="42.5644700" lon="2.6267620">
        <ele>643.2</ele>
        <time>2020-07-21T08:10:27Z</time>
      </trkpt>
      <trkpt lat="42.5645010" lon="2.6269350">
        <ele>643.4</ele>
        <time>2020-07-21T08:10:29Z</time>
      </trkpt>
      <trkpt lat="42.5645250" lon="2.6271090">
        <ele>643.4</ele>
        <time>2020-07-21T08:10:31Z</time>
      </trkpt>
      <trkpt lat="42.5645340" lon="2.6272870">
        <ele>643.4</ele>
        <time>2020-07-21T08:10:33Z</time>
      </trkpt>
      <trkpt lat="42.5645280" lon="2.6273780">
        <ele>643.4</ele>
        <time>2020-07-21T08:10:34Z</time>
      </trkpt>
      <trkpt lat="42.5645090" lon="2.6274650">
        <ele>643.4</ele>
        <time>2020-07-21T08:10:35Z</time>
      </trkpt>
      <trkpt lat="42.5644820" lon="2.6275480">
        <ele>643.4</ele>
        <time>2020-07-21T08:10:36Z</time>
      </trkpt>
      <trkpt lat="42.5644480" lon="2.6276250">
        <ele>643.4</ele>
        <time>2020-07-21T08:10:37Z</time>
      </trkpt>
      <trkpt lat="42.5644070" lon="2.6276960">
        <ele>643.4</ele>
        <time>2020-07-21T08:10:38Z</time>
      </trkpt>
      <trkpt lat="42.5642350" lon="2.6279720">
        <ele>643.0</ele>
        <time>2020-07-21T08:10:42Z</time>
      </trkpt>
      <trkpt lat="42.5640860" lon="2.6282810">
        <ele>643.6</ele>
        <time>2020-07-21T08:10:46Z</time>
      </trkpt>
      <trkpt lat="42.5640620" lon="2.6283620">
        <ele>643.6</ele>
        <time>2020-07-21T08:10:47Z</time>
      </trkpt>
      <trkpt lat="42.5640480" lon="2.6284440">
        <ele>643.6</ele>
        <time>2020-07-21T08:10:48Z</time>
      </trkpt>
      <trkpt lat="42.5640580" lon="2.6286140">
        <ele>643.6</ele>
        <time>2020-07-21T08:10:50Z</time>
      </trkpt>
      <trkpt lat="42.5641030" lon="2.6287910">
        <ele>643.4</ele>
        <time>2020-07-21T08:10:52Z</time>
      </trkpt>
      <trkpt lat="42.5641820" lon="2.6290580">
        <ele>643.4</ele>
        <time>2020-07-21T08:10:55Z</time>
      </trkpt>
      <trkpt lat="42.5642420" lon="2.6293310">
        <ele>644.2</ele>
        <time>2020-07-21T08:10:58Z</time>
      </trkpt>
      <trkpt lat="42.5642850" lon="2.6296980">
        <ele>644.0</ele>
        <time>2020-07-21T08:11:02Z</time>
      </trkpt>
      <trkpt lat="42.5642650" lon="2.6298870">
        <ele>643.6</ele>
        <time>2020-07-21T08:11:04Z</time>
      </trkpt>
      <trkpt lat="42.5642320" lon="2.6299720">
        <ele>643.4</ele>
        <time>2020-07-21T08:11:05Z</time>
      </trkpt>
      <trkpt lat="42.5641890" lon="2.6300470">
        <ele>643.4</ele>
        <time>2020-07-21T08:11:06Z</time>
      </trkpt>
      <trkpt lat="42.5640330" lon="2.6302330">
        <ele>643.4</ele>
        <time>2020-07-21T08:11:09Z</time>
      </trkpt>
      <trkpt lat="42.5637520" lon="2.6306300">
        <ele>644.2</ele>
        <time>2020-07-21T08:11:15Z</time>
      </trkpt>
      <trkpt lat="42.5636650" lon="2.6307650">
        <ele>643.8</ele>
        <time>2020-07-21T08:11:17Z</time>
      </trkpt>
      <trkpt lat="42.5635230" lon="2.6310580">
        <ele>643.4</ele>
        <time>2020-07-21T08:11:21Z</time>
      </trkpt>
      <trkpt lat="42.5635040" lon="2.6311420">
        <ele>643.4</ele>
        <time>2020-07-21T08:11:22Z</time>
      </trkpt>
      <trkpt lat="42.5634770" lon="2.6315910">
        <ele>643.4</ele>
        <time>2020-07-21T08:11:27Z</time>
      </trkpt>
      <trkpt lat="42.5634750" lon="2.6318670">
        <ele>643.8</ele>
        <time>2020-07-21T08:11:30Z</time>
      </trkpt>
      <trkpt lat="42.5634710" lon="2.6319600">
        <ele>643.8</ele>
        <time>2020-07-21T08:11:31Z</time>
      </trkpt>
      <trkpt lat="42.5634610" lon="2.6320510">
        <ele>643.8</ele>
        <time>2020-07-21T08:11:32Z</time>
      </trkpt>
      <trkpt lat="42.5634190" lon="2.6322260">
        <ele>643.6</ele>
        <time>2020-07-21T08:11:34Z</time>
      </trkpt>
      <trkpt lat="42.5633360" lon="2.6323770">
        <ele>643.4</ele>
        <time>2020-07-21T08:11:36Z</time>
      </trkpt>
      <trkpt lat="42.5632840" lon="2.6324400">
        <ele>643.6</ele>
        <time>2020-07-21T08:11:37Z</time>
      </trkpt>
      <trkpt lat="42.5629810" lon="2.6328120">
        <ele>644.0</ele>
        <time>2020-07-21T08:11:43Z</time>
      </trkpt>
      <trkpt lat="42.5629400" lon="2.6328870">
        <ele>644.0</ele>
        <time>2020-07-21T08:11:44Z</time>
      </trkpt>
      <trkpt lat="42.5627910" lon="2.6332000">
        <ele>643.6</ele>
        <time>2020-07-21T08:11:48Z</time>
      </trkpt>
      <trkpt lat="42.5626910" lon="2.6334450">
        <ele>643.0</ele>
        <time>2020-07-21T08:11:51Z</time>
      </trkpt>
      <trkpt lat="42.5626560" lon="2.6335270">
        <ele>643.0</ele>
        <time>2020-07-21T08:11:52Z</time>
      </trkpt>
      <trkpt lat="42.5625860" lon="2.6336880">
        <ele>642.2</ele>
        <time>2020-07-21T08:11:54Z</time>
      </trkpt>
      <trkpt lat="42.5625070" lon="2.6338420">
        <ele>642.0</ele>
        <time>2020-07-21T08:11:56Z</time>
      </trkpt>
      <trkpt lat="42.5623750" lon="2.6340440">
        <ele>642.0</ele>
        <time>2020-07-21T08:11:59Z</time>
      </trkpt>
      <trkpt lat="42.5621150" lon="2.6343080">
        <ele>642.0</ele>
        <time>2020-07-21T08:12:04Z</time>
      </trkpt>
      <trkpt lat="42.5618120" lon="2.6346050">
        <ele>642.8</ele>
        <time>2020-07-21T08:12:10Z</time>
      </trkpt>
      <trkpt lat="42.5617700" lon="2.6346670">
        <ele>643.0</ele>
        <time>2020-07-21T08:12:11Z</time>
      </trkpt>
      <trkpt lat="42.5616680" lon="2.6348880">
        <ele>643.0</ele>
        <time>2020-07-21T08:12:14Z</time>
      </trkpt>
      <trkpt lat="42.5616450" lon="2.6349700">
        <ele>643.0</ele>
        <time>2020-07-21T08:12:15Z</time>
      </trkpt>
      <trkpt lat="42.5616270" lon="2.6350560">
        <ele>643.2</ele>
        <time>2020-07-21T08:12:16Z</time>
      </trkpt>
      <trkpt lat="42.5616220" lon="2.6352330">
        <ele>643.2</ele>
        <time>2020-07-21T08:12:18Z</time>
      </trkpt>
      <trkpt lat="42.5616410" lon="2.6353220">
        <ele>643.0</ele>
        <time>2020-07-21T08:12:19Z</time>
      </trkpt>
      <trkpt lat="42.5616740" lon="2.6354040">
        <ele>643.0</ele>
        <time>2020-07-21T08:12:20Z</time>
      </trkpt>
      <trkpt lat="42.5617230" lon="2.6354700">
        <ele>642.8</ele>
        <time>2020-07-21T08:12:21Z</time>
      </trkpt>
      <trkpt lat="42.5617800" lon="2.6355220">
        <ele>642.8</ele>
        <time>2020-07-21T08:12:22Z</time>
      </trkpt>
      <trkpt lat="42.5619230" lon="2.6355810">
        <ele>642.4</ele>
        <time>2020-07-21T08:12:24Z</time>
      </trkpt>
      <trkpt lat="42.5619980" lon="2.6355930">
        <ele>642.4</ele>
        <time>2020-07-21T08:12:25Z</time>
      </trkpt>
      <trkpt lat="42.5622240" lon="2.6356090">
        <ele>641.8</ele>
        <time>2020-07-21T08:12:28Z</time>
      </trkpt>
      <trkpt lat="42.5625330" lon="2.6356200">
        <ele>641.4</ele>
        <time>2020-07-21T08:12:32Z</time>
      </trkpt>
      <trkpt lat="42.5629120" lon="2.6355940">
        <ele>641.4</ele>
        <time>2020-07-21T08:12:37Z</time>
      </trkpt>
      <trkpt lat="42.5629860" lon="2.6355650">
        <ele>641.4</ele>
        <time>2020-07-21T08:12:38Z</time>
      </trkpt>
      <trkpt lat="42.5634440" lon="2.6353880">
        <ele>640.8</ele>
        <time>2020-07-21T08:12:44Z</time>
      </trkpt>
      <trkpt lat="42.5635220" lon="2.6353680">
        <ele>640.6</ele>
        <time>2020-07-21T08:12:45Z</time>
      </trkpt>
      <trkpt lat="42.5636010" lon="2.6353480">
        <ele>640.0</ele>
        <time>2020-07-21T08:12:46Z</time>
      </trkpt>
      <trkpt lat="42.5637590" lon="2.6353070">
        <ele>639.4</ele>
        <time>2020-07-21T08:12:48Z</time>
      </trkpt>
      <trkpt lat="42.5640760" lon="2.6352610">
        <ele>639.2</ele>
        <time>2020-07-21T08:12:52Z</time>
      </trkpt>
      <trkpt lat="42.5641550" lon="2.6352620">
        <ele>639.0</ele>
        <time>2020-07-21T08:12:53Z</time>
      </trkpt>
      <trkpt lat="42.5645320" lon="2.6352740">
        <ele>638.4</ele>
        <time>2020-07-21T08:12:58Z</time>
      </trkpt>
      <trkpt lat="42.5646790" lon="2.6352640">
        <ele>638.2</ele>
        <time>2020-07-21T08:13:00Z</time>
      </trkpt>
      <trkpt lat="42.5648310" lon="2.6352440">
        <ele>637.8</ele>
        <time>2020-07-21T08:13:02Z</time>
      </trkpt>
      <trkpt lat="42.5650570" lon="2.6352130">
        <ele>637.4</ele>
        <time>2020-07-21T08:13:05Z</time>
      </trkpt>
      <trkpt lat="42.5651310" lon="2.6352180">
        <ele>637.0</ele>
        <time>2020-07-21T08:13:06Z</time>
      </trkpt>
      <trkpt lat="42.5652840" lon="2.6352790">
        <ele>636.8</ele>
        <time>2020-07-21T08:13:08Z</time>
      </trkpt>
      <trkpt lat="42.5653570" lon="2.6353370">
        <ele>636.4</ele>
        <time>2020-07-21T08:13:09Z</time>
      </trkpt>
      <trkpt lat="42.5654200" lon="2.6354140">
        <ele>636.0</ele>
        <time>2020-07-21T08:13:10Z</time>
      </trkpt>
      <trkpt lat="42.5654770" lon="2.6354960">
        <ele>635.6</ele>
        <time>2020-07-21T08:13:11Z</time>
      </trkpt>
      <trkpt lat="42.5655350" lon="2.6355780">
        <ele>635.4</ele>
        <time>2020-07-21T08:13:12Z</time>
      </trkpt>
      <trkpt lat="42.5655960" lon="2.6356530">
        <ele>634.8</ele>
        <time>2020-07-21T08:13:13Z</time>
      </trkpt>
      <trkpt lat="42.5656640" lon="2.6357200">
        <ele>634.2</ele>
        <time>2020-07-21T08:13:14Z</time>
      </trkpt>
      <trkpt lat="42.5657380" lon="2.6357810">
        <ele>633.6</ele>
        <time>2020-07-21T08:13:15Z</time>
      </trkpt>
      <trkpt lat="42.5658160" lon="2.6358430">
        <ele>633.2</ele>
        <time>2020-07-21T08:13:16Z</time>
      </trkpt>
      <trkpt lat="42.5659650" lon="2.6359830">
        <ele>632.6</ele>
        <time>2020-07-21T08:13:18Z</time>
      </trkpt>
      <trkpt lat="42.5660770" lon="2.6361560">
        <ele>632.0</ele>
        <time>2020-07-21T08:13:20Z</time>
      </trkpt>
      <trkpt lat="42.5661560" lon="2.6363570">
        <ele>631.4</ele>
        <time>2020-07-21T08:13:22Z</time>
      </trkpt>
      <trkpt lat="42.5662190" lon="2.6365720">
        <ele>630.2</ele>
        <time>2020-07-21T08:13:24Z</time>
      </trkpt>
      <trkpt lat="42.5662430" lon="2.6366880">
        <ele>629.6</ele>
        <time>2020-07-21T08:13:25Z</time>
      </trkpt>
      <trkpt lat="42.5662590" lon="2.6368030">
        <ele>629.0</ele>
        <time>2020-07-21T08:13:26Z</time>
      </trkpt>
      <trkpt lat="42.5662690" lon="2.6370250">
        <ele>628.2</ele>
        <time>2020-07-21T08:13:28Z</time>
      </trkpt>
      <trkpt lat="42.5662590" lon="2.6371320">
        <ele>627.8</ele>
        <time>2020-07-21T08:13:29Z</time>
      </trkpt>
      <trkpt lat="42.5662390" lon="2.6372370">
        <ele>627.8</ele>
        <time>2020-07-21T08:13:30Z</time>
      </trkpt>
      <trkpt lat="42.5662100" lon="2.6373360">
        <ele>627.8</ele>
        <time>2020-07-21T08:13:31Z</time>
      </trkpt>
      <trkpt lat="42.5661730" lon="2.6374270">
        <ele>628.0</ele>
        <time>2020-07-21T08:13:32Z</time>
      </trkpt>
      <trkpt lat="42.5660370" lon="2.6376640">
        <ele>628.4</ele>
        <time>2020-07-21T08:13:35Z</time>
      </trkpt>
      <trkpt lat="42.5659220" lon="2.6378920">
        <ele>628.6</ele>
        <time>2020-07-21T08:13:38Z</time>
      </trkpt>
      <trkpt lat="42.5658820" lon="2.6380570">
        <ele>629.0</ele>
        <time>2020-07-21T08:13:40Z</time>
      </trkpt>
      <trkpt lat="42.5658430" lon="2.6383130">
        <ele>629.0</ele>
        <time>2020-07-21T08:13:43Z</time>
      </trkpt>
      <trkpt lat="42.5658200" lon="2.6383950">
        <ele>628.8</ele>
        <time>2020-07-21T08:13:44Z</time>
      </trkpt>
      <trkpt lat="42.5657880" lon="2.6384730">
        <ele>628.4</ele>
        <time>2020-07-21T08:13:45Z</time>
      </trkpt>
      <trkpt lat="42.5657450" lon="2.6385410">
        <ele>628.2</ele>
        <time>2020-07-21T08:13:46Z</time>
      </trkpt>
      <trkpt lat="42.5656450" lon="2.6386440">
        <ele>628.2</ele>
        <time>2020-07-21T08:13:48Z</time>
      </trkpt>
      <trkpt lat="42.5653220" lon="2.6388520">
        <ele>628.2</ele>
        <time>2020-07-21T08:13:54Z</time>
      </trkpt>
      <trkpt lat="42.5652730" lon="2.6388950">
        <ele>628.0</ele>
        <time>2020-07-21T08:13:55Z</time>
      </trkpt>
      <trkpt lat="42.5652270" lon="2.6389450">
        <ele>627.8</ele>
        <time>2020-07-21T08:13:56Z</time>
      </trkpt>
      <trkpt lat="42.5651570" lon="2.6390720">
        <ele>628.0</ele>
        <time>2020-07-21T08:13:58Z</time>
      </trkpt>
      <trkpt lat="42.5651330" lon="2.6392230">
        <ele>628.4</ele>
        <time>2020-07-21T08:14:00Z</time>
      </trkpt>
      <trkpt lat="42.5651460" lon="2.6393010">
        <ele>628.8</ele>
        <time>2020-07-21T08:14:01Z</time>
      </trkpt>
      <trkpt lat="42.5651740" lon="2.6393720">
        <ele>629.0</ele>
        <time>2020-07-21T08:14:02Z</time>
      </trkpt>
      <trkpt lat="42.5652560" lon="2.6394910">
        <ele>629.2</ele>
        <time>2020-07-21T08:14:04Z</time>
      </trkpt>
      <trkpt lat="42.5653960" lon="2.6396790">
        <ele>629.0</ele>
        <time>2020-07-21T08:14:07Z</time>
      </trkpt>
      <trkpt lat="42.5654550" lon="2.6398330">
        <ele>628.8</ele>
        <time>2020-07-21T08:14:09Z</time>
      </trkpt>
      <trkpt lat="42.5654410" lon="2.6400020">
        <ele>629.0</ele>
        <time>2020-07-21T08:14:11Z</time>
      </trkpt>
      <trkpt lat="42.5654180" lon="2.6400830">
        <ele>629.0</ele>
        <time>2020-07-21T08:14:12Z</time>
      </trkpt>
      <trkpt lat="42.5652720" lon="2.6404600">
        <ele>629.4</ele>
        <time>2020-07-21T08:14:17Z</time>
      </trkpt>
      <trkpt lat="42.5651940" lon="2.6406840">
        <ele>629.4</ele>
        <time>2020-07-21T08:14:20Z</time>
      </trkpt>
      <trkpt lat="42.5651760" lon="2.6407630">
        <ele>629.4</ele>
        <time>2020-07-21T08:14:21Z</time>
      </trkpt>
      <trkpt lat="42.5651530" lon="2.6409300">
        <ele>629.0</ele>
        <time>2020-07-21T08:14:23Z</time>
      </trkpt>
      <trkpt lat="42.5651480" lon="2.6411040">
        <ele>628.6</ele>
        <time>2020-07-21T08:14:25Z</time>
      </trkpt>
      <trkpt lat="42.5651780" lon="2.6414510">
        <ele>629.4</ele>
        <time>2020-07-21T08:14:29Z</time>
      </trkpt>
      <trkpt lat="42.5652020" lon="2.6416210">
        <ele>630.0</ele>
        <time>2020-07-21T08:14:31Z</time>
      </trkpt>
      <trkpt lat="42.5652800" lon="2.6421280">
        <ele>630.0</ele>
        <time>2020-07-21T08:14:37Z</time>
      </trkpt>
      <trkpt lat="42.5652860" lon="2.6422140">
        <ele>630.0</ele>
        <time>2020-07-21T08:14:38Z</time>
      </trkpt>
      <trkpt lat="42.5652830" lon="2.6423010">
        <ele>630.0</ele>
        <time>2020-07-21T08:14:39Z</time>
      </trkpt>
      <trkpt lat="42.5652490" lon="2.6424760">
        <ele>630.2</ele>
        <time>2020-07-21T08:14:41Z</time>
      </trkpt>
      <trkpt lat="42.5652210" lon="2.6425580">
        <ele>630.0</ele>
        <time>2020-07-21T08:14:42Z</time>
      </trkpt>
      <trkpt lat="42.5651880" lon="2.6426330">
        <ele>630.0</ele>
        <time>2020-07-21T08:14:43Z</time>
      </trkpt>
      <trkpt lat="42.5650280" lon="2.6428960">
        <ele>629.4</ele>
        <time>2020-07-21T08:14:47Z</time>
      </trkpt>
      <trkpt lat="42.5648510" lon="2.6431380">
        <ele>629.6</ele>
        <time>2020-07-21T08:14:51Z</time>
      </trkpt>
      <trkpt lat="42.5647430" lon="2.6432380">
        <ele>630.2</ele>
        <time>2020-07-21T08:14:53Z</time>
      </trkpt>
      <trkpt lat="42.5646240" lon="2.6433140">
        <ele>630.6</ele>
        <time>2020-07-21T08:14:55Z</time>
      </trkpt>
      <trkpt lat="42.5644410" lon="2.6434010">
        <ele>630.4</ele>
        <time>2020-07-21T08:14:58Z</time>
      </trkpt>
      <trkpt lat="42.5643260" lon="2.6434770">
        <ele>630.0</ele>
        <time>2020-07-21T08:15:00Z</time>
      </trkpt>
      <trkpt lat="42.5642270" lon="2.6435850">
        <ele>629.8</ele>
        <time>2020-07-21T08:15:02Z</time>
      </trkpt>
      <trkpt lat="42.5641540" lon="2.6437320">
        <ele>629.8</ele>
        <time>2020-07-21T08:15:04Z</time>
      </trkpt>
      <trkpt lat="42.5641110" lon="2.6439060">
        <ele>630.0</ele>
        <time>2020-07-21T08:15:06Z</time>
      </trkpt>
      <trkpt lat="42.5641090" lon="2.6440950">
        <ele>630.2</ele>
        <time>2020-07-21T08:15:08Z</time>
      </trkpt>
      <trkpt lat="42.5641580" lon="2.6442730">
        <ele>630.2</ele>
        <time>2020-07-21T08:15:10Z</time>
      </trkpt>
      <trkpt lat="42.5642630" lon="2.6444150">
        <ele>629.6</ele>
        <time>2020-07-21T08:15:12Z</time>
      </trkpt>
      <trkpt lat="42.5643300" lon="2.6444810">
        <ele>629.2</ele>
        <time>2020-07-21T08:15:13Z</time>
      </trkpt>
      <trkpt lat="42.5644020" lon="2.6445470">
        <ele>629.0</ele>
        <time>2020-07-21T08:15:14Z</time>
      </trkpt>
      <trkpt lat="42.5645440" lon="2.6446850">
        <ele>628.2</ele>
        <time>2020-07-21T08:15:16Z</time>
      </trkpt>
      <trkpt lat="42.5646070" lon="2.6447610">
        <ele>627.4</ele>
        <time>2020-07-21T08:15:17Z</time>
      </trkpt>
      <trkpt lat="42.5646570" lon="2.6448450">
        <ele>626.8</ele>
        <time>2020-07-21T08:15:18Z</time>
      </trkpt>
      <trkpt lat="42.5646960" lon="2.6449370">
        <ele>626.4</ele>
        <time>2020-07-21T08:15:19Z</time>
      </trkpt>
      <trkpt lat="42.5647190" lon="2.6450370">
        <ele>626.4</ele>
        <time>2020-07-21T08:15:20Z</time>
      </trkpt>
      <trkpt lat="42.5647270" lon="2.6451350">
        <ele>626.0</ele>
        <time>2020-07-21T08:15:21Z</time>
      </trkpt>
      <trkpt lat="42.5646980" lon="2.6453440">
        <ele>626.0</ele>
        <time>2020-07-21T08:15:23Z</time>
      </trkpt>
      <trkpt lat="42.5646740" lon="2.6454420">
        <ele>625.8</ele>
        <time>2020-07-21T08:15:24Z</time>
      </trkpt>
      <trkpt lat="42.5646420" lon="2.6456410">
        <ele>624.8</ele>
        <time>2020-07-21T08:15:26Z</time>
      </trkpt>
      <trkpt lat="42.5646650" lon="2.6458240">
        <ele>623.2</ele>
        <time>2020-07-21T08:15:28Z</time>
      </trkpt>
      <trkpt lat="42.5647200" lon="2.6459680">
        <ele>622.0</ele>
        <time>2020-07-21T08:15:30Z</time>
      </trkpt>
      <trkpt lat="42.5647460" lon="2.6460200">
        <ele>621.8</ele>
        <time>2020-07-21T08:15:31Z</time>
      </trkpt>
      <trkpt lat="42.5647690" lon="2.6460610">
        <ele>621.6</ele>
        <time>2020-07-21T08:15:32Z</time>
      </trkpt>
      <trkpt lat="42.5648900" lon="2.6461580">
        <ele>621.4</ele>
        <time>2020-07-21T08:15:37Z</time>
      </trkpt>
      <trkpt lat="42.5649600" lon="2.6461070">
        <ele>621.0</ele>
        <time>2020-07-21T08:15:39Z</time>
      </trkpt>
      <trkpt lat="42.5649910" lon="2.6460590">
        <ele>621.0</ele>
        <time>2020-07-21T08:15:40Z</time>
      </trkpt>
      <trkpt lat="42.5651200" lon="2.6457730">
        <ele>620.0</ele>
        <time>2020-07-21T08:15:45Z</time>
      </trkpt>
      <trkpt lat="42.5651480" lon="2.6457240">
        <ele>619.8</ele>
        <time>2020-07-21T08:15:46Z</time>
      </trkpt>
      <trkpt lat="42.5653380" lon="2.6453990">
        <ele>618.6</ele>
        <time>2020-07-21T08:15:52Z</time>
      </trkpt>
      <trkpt lat="42.5653750" lon="2.6453320">
        <ele>618.2</ele>
        <time>2020-07-21T08:15:53Z</time>
      </trkpt>
      <trkpt lat="42.5654670" lon="2.6451900">
        <ele>617.2</ele>
        <time>2020-07-21T08:15:55Z</time>
      </trkpt>
      <trkpt lat="42.5656510" lon="2.6449960">
        <ele>616.0</ele>
        <time>2020-07-21T08:15:58Z</time>
      </trkpt>
      <trkpt lat="42.5657980" lon="2.6449210">
        <ele>615.2</ele>
        <time>2020-07-21T08:16:00Z</time>
      </trkpt>
      <trkpt lat="42.5658800" lon="2.6448950">
        <ele>614.8</ele>
        <time>2020-07-21T08:16:01Z</time>
      </trkpt>
      <trkpt lat="42.5659670" lon="2.6448700">
        <ele>614.6</ele>
        <time>2020-07-21T08:16:02Z</time>
      </trkpt>
      <trkpt lat="42.5662550" lon="2.6448200">
        <ele>613.6</ele>
        <time>2020-07-21T08:16:05Z</time>
      </trkpt>
      <trkpt lat="42.5664320" lon="2.6447510">
        <ele>612.6</ele>
        <time>2020-07-21T08:16:07Z</time>
      </trkpt>
      <trkpt lat="42.5665200" lon="2.6446990">
        <ele>612.0</ele>
        <time>2020-07-21T08:16:08Z</time>
      </trkpt>
      <trkpt lat="42.5666100" lon="2.6446280">
        <ele>611.4</ele>
        <time>2020-07-21T08:16:09Z</time>
      </trkpt>
      <trkpt lat="42.5666970" lon="2.6445490">
        <ele>610.6</ele>
        <time>2020-07-21T08:16:10Z</time>
      </trkpt>
      <trkpt lat="42.5667830" lon="2.6444620">
        <ele>610.0</ele>
        <time>2020-07-21T08:16:11Z</time>
      </trkpt>
      <trkpt lat="42.5668650" lon="2.6443710">
        <ele>609.4</ele>
        <time>2020-07-21T08:16:12Z</time>
      </trkpt>
      <trkpt lat="42.5670220" lon="2.6441700">
        <ele>608.0</ele>
        <time>2020-07-21T08:16:14Z</time>
      </trkpt>
      <trkpt lat="42.5671590" lon="2.6439420">
        <ele>606.4</ele>
        <time>2020-07-21T08:16:16Z</time>
      </trkpt>
      <trkpt lat="42.5672830" lon="2.6436860">
        <ele>605.2</ele>
        <time>2020-07-21T08:16:18Z</time>
      </trkpt>
      <trkpt lat="42.5673630" lon="2.6434550">
        <ele>604.2</ele>
        <time>2020-07-21T08:16:20Z</time>
      </trkpt>
      <trkpt lat="42.5673700" lon="2.6433350">
        <ele>603.6</ele>
        <time>2020-07-21T08:16:21Z</time>
      </trkpt>
      <trkpt lat="42.5673570" lon="2.6432090">
        <ele>603.0</ele>
        <time>2020-07-21T08:16:22Z</time>
      </trkpt>
      <trkpt lat="42.5673390" lon="2.6430860">
        <ele>602.4</ele>
        <time>2020-07-21T08:16:23Z</time>
      </trkpt>
      <trkpt lat="42.5673390" lon="2.6429730">
        <ele>602.2</ele>
        <time>2020-07-21T08:16:24Z</time>
      </trkpt>
      <trkpt lat="42.5673600" lon="2.6428750">
        <ele>602.0</ele>
        <time>2020-07-21T08:16:25Z</time>
      </trkpt>
      <trkpt lat="42.5674670" lon="2.6427390">
        <ele>601.4</ele>
        <time>2020-07-21T08:16:27Z</time>
      </trkpt>
      <trkpt lat="42.5676210" lon="2.6426860">
        <ele>600.4</ele>
        <time>2020-07-21T08:16:29Z</time>
      </trkpt>
      <trkpt lat="42.5677000" lon="2.6426580">
        <ele>600.0</ele>
        <time>2020-07-21T08:16:30Z</time>
      </trkpt>
      <trkpt lat="42.5677800" lon="2.6426260">
        <ele>599.8</ele>
        <time>2020-07-21T08:16:31Z</time>
      </trkpt>
      <trkpt lat="42.5678610" lon="2.6425870">
        <ele>599.2</ele>
        <time>2020-07-21T08:16:32Z</time>
      </trkpt>
      <trkpt lat="42.5679380" lon="2.6425390">
        <ele>598.4</ele>
        <time>2020-07-21T08:16:33Z</time>
      </trkpt>
      <trkpt lat="42.5680140" lon="2.6424780">
        <ele>598.0</ele>
        <time>2020-07-21T08:16:34Z</time>
      </trkpt>
      <trkpt lat="42.5680810" lon="2.6424000">
        <ele>597.4</ele>
        <time>2020-07-21T08:16:35Z</time>
      </trkpt>
      <trkpt lat="42.5681420" lon="2.6423050">
        <ele>596.6</ele>
        <time>2020-07-21T08:16:36Z</time>
      </trkpt>
      <trkpt lat="42.5682530" lon="2.6420970">
        <ele>595.4</ele>
        <time>2020-07-21T08:16:38Z</time>
      </trkpt>
      <trkpt lat="42.5683060" lon="2.6419900">
        <ele>595.0</ele>
        <time>2020-07-21T08:16:39Z</time>
      </trkpt>
      <trkpt lat="42.5684070" lon="2.6417740">
        <ele>594.2</ele>
        <time>2020-07-21T08:16:41Z</time>
      </trkpt>
      <trkpt lat="42.5684490" lon="2.6416430">
        <ele>594.0</ele>
        <time>2020-07-21T08:16:42Z</time>
      </trkpt>
      <trkpt lat="42.5684990" lon="2.6413970">
        <ele>593.4</ele>
        <time>2020-07-21T08:16:44Z</time>
      </trkpt>
      <trkpt lat="42.5685120" lon="2.6412670">
        <ele>593.0</ele>
        <time>2020-07-21T08:16:45Z</time>
      </trkpt>
      <trkpt lat="42.5685370" lon="2.6409930">
        <ele>591.8</ele>
        <time>2020-07-21T08:16:47Z</time>
      </trkpt>
      <trkpt lat="42.5685480" lon="2.6408660">
        <ele>591.0</ele>
        <time>2020-07-21T08:16:48Z</time>
      </trkpt>
      <trkpt lat="42.5685560" lon="2.6407380">
        <ele>590.2</ele>
        <time>2020-07-21T08:16:49Z</time>
      </trkpt>
      <trkpt lat="42.5685490" lon="2.6404740">
        <ele>589.0</ele>
        <time>2020-07-21T08:16:51Z</time>
      </trkpt>
      <trkpt lat="42.5685330" lon="2.6403390">
        <ele>588.4</ele>
        <time>2020-07-21T08:16:52Z</time>
      </trkpt>
      <trkpt lat="42.5685080" lon="2.6401980">
        <ele>587.8</ele>
        <time>2020-07-21T08:16:53Z</time>
      </trkpt>
      <trkpt lat="42.5684280" lon="2.6397860">
        <ele>586.8</ele>
        <time>2020-07-21T08:16:56Z</time>
      </trkpt>
      <trkpt lat="42.5684020" lon="2.6396530">
        <ele>586.4</ele>
        <time>2020-07-21T08:16:57Z</time>
      </trkpt>
      <trkpt lat="42.5683540" lon="2.6393940">
        <ele>585.8</ele>
        <time>2020-07-21T08:16:59Z</time>
      </trkpt>
      <trkpt lat="42.5683150" lon="2.6391540">
        <ele>585.2</ele>
        <time>2020-07-21T08:17:01Z</time>
      </trkpt>
      <trkpt lat="42.5683120" lon="2.6390430">
        <ele>585.0</ele>
        <time>2020-07-21T08:17:02Z</time>
      </trkpt>
      <trkpt lat="42.5683240" lon="2.6389340">
        <ele>584.8</ele>
        <time>2020-07-21T08:17:03Z</time>
      </trkpt>
      <trkpt lat="42.5683520" lon="2.6388290">
        <ele>584.4</ele>
        <time>2020-07-21T08:17:04Z</time>
      </trkpt>
      <trkpt lat="42.5683820" lon="2.6387200">
        <ele>583.8</ele>
        <time>2020-07-21T08:17:05Z</time>
      </trkpt>
      <trkpt lat="42.5684170" lon="2.6386120">
        <ele>583.2</ele>
        <time>2020-07-21T08:17:06Z</time>
      </trkpt>
      <trkpt lat="42.5685190" lon="2.6382830">
        <ele>582.0</ele>
        <time>2020-07-21T08:17:09Z</time>
      </trkpt>
      <trkpt lat="42.5686170" lon="2.6379400">
        <ele>580.8</ele>
        <time>2020-07-21T08:17:12Z</time>
      </trkpt>
      <trkpt lat="42.5686990" lon="2.6377220">
        <ele>579.6</ele>
        <time>2020-07-21T08:17:14Z</time>
      </trkpt>
      <trkpt lat="42.5687520" lon="2.6376170">
        <ele>578.8</ele>
        <time>2020-07-21T08:17:15Z</time>
      </trkpt>
      <trkpt lat="42.5688120" lon="2.6375240">
        <ele>578.2</ele>
        <time>2020-07-21T08:17:16Z</time>
      </trkpt>
      <trkpt lat="42.5690130" lon="2.6372030">
        <ele>577.0</ele>
        <time>2020-07-21T08:17:20Z</time>
      </trkpt>
      <trkpt lat="42.5690350" lon="2.6370230">
        <ele>576.4</ele>
        <time>2020-07-21T08:17:22Z</time>
      </trkpt>
      <trkpt lat="42.5690150" lon="2.6369410">
        <ele>576.2</ele>
        <time>2020-07-21T08:17:23Z</time>
      </trkpt>
      <trkpt lat="42.5689770" lon="2.6368660">
        <ele>575.8</ele>
        <time>2020-07-21T08:17:24Z</time>
      </trkpt>
      <trkpt lat="42.5688730" lon="2.6367920">
        <ele>574.8</ele>
        <time>2020-07-21T08:17:26Z</time>
      </trkpt>
      <trkpt lat="42.5687360" lon="2.6368120">
        <ele>573.8</ele>
        <time>2020-07-21T08:17:28Z</time>
      </trkpt>
      <trkpt lat="42.5686660" lon="2.6368300">
        <ele>573.6</ele>
        <time>2020-07-21T08:17:29Z</time>
      </trkpt>
      <trkpt lat="42.5686000" lon="2.6368330">
        <ele>573.4</ele>
        <time>2020-07-21T08:17:30Z</time>
      </trkpt>
      <trkpt lat="42.5684860" lon="2.6367490">
        <ele>573.2</ele>
        <time>2020-07-21T08:17:32Z</time>
      </trkpt>
      <trkpt lat="42.5684270" lon="2.6366030">
        <ele>573.2</ele>
        <time>2020-07-21T08:17:34Z</time>
      </trkpt>
      <trkpt lat="42.5684320" lon="2.6365130">
        <ele>573.0</ele>
        <time>2020-07-21T08:17:35Z</time>
      </trkpt>
      <trkpt lat="42.5684490" lon="2.6364270">
        <ele>572.8</ele>
        <time>2020-07-21T08:17:36Z</time>
      </trkpt>
      <trkpt lat="42.5684740" lon="2.6363410">
        <ele>572.6</ele>
        <time>2020-07-21T08:17:37Z</time>
      </trkpt>
      <trkpt lat="42.5685170" lon="2.6361510">
        <ele>571.6</ele>
        <time>2020-07-21T08:17:39Z</time>
      </trkpt>
      <trkpt lat="42.5685430" lon="2.6360490">
        <ele>571.2</ele>
        <time>2020-07-21T08:17:40Z</time>
      </trkpt>
      <trkpt lat="42.5686140" lon="2.6358340">
        <ele>569.6</ele>
        <time>2020-07-21T08:17:42Z</time>
      </trkpt>
      <trkpt lat="42.5686610" lon="2.6357250">
        <ele>568.6</ele>
        <time>2020-07-21T08:17:43Z</time>
      </trkpt>
      <trkpt lat="42.5687120" lon="2.6356200">
        <ele>568.0</ele>
        <time>2020-07-21T08:17:44Z</time>
      </trkpt>
      <trkpt lat="42.5688140" lon="2.6354020">
        <ele>566.8</ele>
        <time>2020-07-21T08:17:46Z</time>
      </trkpt>
      <trkpt lat="42.5689100" lon="2.6351750">
        <ele>565.6</ele>
        <time>2020-07-21T08:17:48Z</time>
      </trkpt>
      <trkpt lat="42.5689500" lon="2.6350700">
        <ele>565.4</ele>
        <time>2020-07-21T08:17:49Z</time>
      </trkpt>
      <trkpt lat="42.5690320" lon="2.6348730">
        <ele>564.8</ele>
        <time>2020-07-21T08:17:51Z</time>
      </trkpt>
      <trkpt lat="42.5690820" lon="2.6347840">
        <ele>564.6</ele>
        <time>2020-07-21T08:17:52Z</time>
      </trkpt>
      <trkpt lat="42.5692010" lon="2.6346310">
        <ele>563.8</ele>
        <time>2020-07-21T08:17:54Z</time>
      </trkpt>
      <trkpt lat="42.5692560" lon="2.6345570">
        <ele>563.2</ele>
        <time>2020-07-21T08:17:55Z</time>
      </trkpt>
      <trkpt lat="42.5693850" lon="2.6343050">
        <ele>562.0</ele>
        <time>2020-07-21T08:17:58Z</time>
      </trkpt>
      <trkpt lat="42.5694030" lon="2.6342060">
        <ele>561.6</ele>
        <time>2020-07-21T08:17:59Z</time>
      </trkpt>
      <trkpt lat="42.5694410" lon="2.6340020">
        <ele>560.4</ele>
        <time>2020-07-21T08:18:01Z</time>
      </trkpt>
      <trkpt lat="42.5694670" lon="2.6337870">
        <ele>559.4</ele>
        <time>2020-07-21T08:18:03Z</time>
      </trkpt>
      <trkpt lat="42.5694680" lon="2.6336780">
        <ele>558.8</ele>
        <time>2020-07-21T08:18:04Z</time>
      </trkpt>
      <trkpt lat="42.5694580" lon="2.6335610">
        <ele>558.4</ele>
        <time>2020-07-21T08:18:05Z</time>
      </trkpt>
      <trkpt lat="42.5694460" lon="2.6334400">
        <ele>558.0</ele>
        <time>2020-07-21T08:18:06Z</time>
      </trkpt>
      <trkpt lat="42.5694190" lon="2.6331920">
        <ele>556.6</ele>
        <time>2020-07-21T08:18:08Z</time>
      </trkpt>
      <trkpt lat="42.5694070" lon="2.6330670">
        <ele>555.8</ele>
        <time>2020-07-21T08:18:09Z</time>
      </trkpt>
      <trkpt lat="42.5693960" lon="2.6329410">
        <ele>555.2</ele>
        <time>2020-07-21T08:18:10Z</time>
      </trkpt>
      <trkpt lat="42.5693780" lon="2.6324710">
        <ele>553.8</ele>
        <time>2020-07-21T08:18:14Z</time>
      </trkpt>
      <trkpt lat="42.5693990" lon="2.6323680">
        <ele>553.4</ele>
        <time>2020-07-21T08:18:15Z</time>
      </trkpt>
      <trkpt lat="42.5694560" lon="2.6321900">
        <ele>552.6</ele>
        <time>2020-07-21T08:18:17Z</time>
      </trkpt>
      <trkpt lat="42.5694740" lon="2.6321000">
        <ele>552.4</ele>
        <time>2020-07-21T08:18:18Z</time>
      </trkpt>
      <trkpt lat="42.5694740" lon="2.6320110">
        <ele>552.2</ele>
        <time>2020-07-21T08:18:19Z</time>
      </trkpt>
      <trkpt lat="42.5694570" lon="2.6319270">
        <ele>551.8</ele>
        <time>2020-07-21T08:18:20Z</time>
      </trkpt>
      <trkpt lat="42.5694220" lon="2.6318460">
        <ele>551.6</ele>
        <time>2020-07-21T08:18:21Z</time>
      </trkpt>
      <trkpt lat="42.5693760" lon="2.6317730">
        <ele>551.0</ele>
        <time>2020-07-21T08:18:22Z</time>
      </trkpt>
      <trkpt lat="42.5692510" lon="2.6316740">
        <ele>550.0</ele>
        <time>2020-07-21T08:18:24Z</time>
      </trkpt>
      <trkpt lat="42.5691770" lon="2.6316610">
        <ele>549.4</ele>
        <time>2020-07-21T08:18:25Z</time>
      </trkpt>
      <trkpt lat="42.5691010" lon="2.6316640">
        <ele>548.8</ele>
        <time>2020-07-21T08:18:26Z</time>
      </trkpt>
      <trkpt lat="42.5689440" lon="2.6316990">
        <ele>547.8</ele>
        <time>2020-07-21T08:18:28Z</time>
      </trkpt>
      <trkpt lat="42.5688680" lon="2.6317210">
        <ele>547.6</ele>
        <time>2020-07-21T08:18:29Z</time>
      </trkpt>
      <trkpt lat="42.5685520" lon="2.6318580">
        <ele>546.6</ele>
        <time>2020-07-21T08:18:33Z</time>
      </trkpt>
      <trkpt lat="42.5684080" lon="2.6319640">
        <ele>546.2</ele>
        <time>2020-07-21T08:18:35Z</time>
      </trkpt>
      <trkpt lat="42.5682190" lon="2.6321070">
        <ele>545.6</ele>
        <time>2020-07-21T08:18:38Z</time>
      </trkpt>
      <trkpt lat="42.5681570" lon="2.6321120">
        <ele>545.4</ele>
        <time>2020-07-21T08:18:39Z</time>
      </trkpt>
      <trkpt lat="42.5680910" lon="2.6320940">
        <ele>544.8</ele>
        <time>2020-07-21T08:18:40Z</time>
      </trkpt>
      <trkpt lat="42.5680200" lon="2.6319740">
        <ele>544.0</ele>
        <time>2020-07-21T08:18:42Z</time>
      </trkpt>
      <trkpt lat="42.5680290" lon="2.6318010">
        <ele>543.6</ele>
        <time>2020-07-21T08:18:44Z</time>
      </trkpt>
      <trkpt lat="42.5680390" lon="2.6317100">
        <ele>543.4</ele>
        <time>2020-07-21T08:18:45Z</time>
      </trkpt>
      <trkpt lat="42.5680340" lon="2.6316030">
        <ele>543.0</ele>
        <time>2020-07-21T08:18:46Z</time>
      </trkpt>
      <trkpt lat="42.5679760" lon="2.6313920">
        <ele>541.8</ele>
        <time>2020-07-21T08:18:48Z</time>
      </trkpt>
      <trkpt lat="42.5678640" lon="2.6312010">
        <ele>541.0</ele>
        <time>2020-07-21T08:18:50Z</time>
      </trkpt>
      <trkpt lat="42.5677980" lon="2.6311240">
        <ele>540.4</ele>
        <time>2020-07-21T08:18:51Z</time>
      </trkpt>
      <trkpt lat="42.5677250" lon="2.6310590">
        <ele>540.0</ele>
        <time>2020-07-21T08:18:52Z</time>
      </trkpt>
      <trkpt lat="42.5676490" lon="2.6310060">
        <ele>539.4</ele>
        <time>2020-07-21T08:18:53Z</time>
      </trkpt>
      <trkpt lat="42.5675660" lon="2.6309700">
        <ele>538.8</ele>
        <time>2020-07-21T08:18:54Z</time>
      </trkpt>
      <trkpt lat="42.5674870" lon="2.6309480">
        <ele>538.4</ele>
        <time>2020-07-21T08:18:55Z</time>
      </trkpt>
      <trkpt lat="42.5674160" lon="2.6309230">
        <ele>538.0</ele>
        <time>2020-07-21T08:18:56Z</time>
      </trkpt>
      <trkpt lat="42.5673540" lon="2.6308830">
        <ele>537.6</ele>
        <time>2020-07-21T08:18:57Z</time>
      </trkpt>
      <trkpt lat="42.5673150" lon="2.6308250">
        <ele>537.6</ele>
        <time>2020-07-21T08:18:58Z</time>
      </trkpt>
      <trkpt lat="42.5672910" lon="2.6307550">
        <ele>537.2</ele>
        <time>2020-07-21T08:18:59Z</time>
      </trkpt>
      <trkpt lat="42.5672900" lon="2.6306660">
        <ele>537.0</ele>
        <time>2020-07-21T08:19:00Z</time>
      </trkpt>
      <trkpt lat="42.5673000" lon="2.6305790">
        <ele>536.8</ele>
        <time>2020-07-21T08:19:01Z</time>
      </trkpt>
      <trkpt lat="42.5673550" lon="2.6304700">
        <ele>535.8</ele>
        <time>2020-07-21T08:19:03Z</time>
      </trkpt>
      <trkpt lat="42.5673890" lon="2.6304180">
        <ele>534.8</ele>
        <time>2020-07-21T08:19:04Z</time>
      </trkpt>
      <trkpt lat="42.5674370" lon="2.6303700">
        <ele>534.0</ele>
        <time>2020-07-21T08:19:05Z</time>
      </trkpt>
      <trkpt lat="42.5675850" lon="2.6302960">
        <ele>532.8</ele>
        <time>2020-07-21T08:19:07Z</time>
      </trkpt>
      <trkpt lat="42.5677750" lon="2.6302390">
        <ele>532.0</ele>
        <time>2020-07-21T08:19:09Z</time>
      </trkpt>
      <trkpt lat="42.5678550" lon="2.6301890">
        <ele>531.2</ele>
        <time>2020-07-21T08:19:10Z</time>
      </trkpt>
      <trkpt lat="42.5679370" lon="2.6301380">
        <ele>530.8</ele>
        <time>2020-07-21T08:19:11Z</time>
      </trkpt>
      <trkpt lat="42.5680180" lon="2.6300820">
        <ele>530.2</ele>
        <time>2020-07-21T08:19:12Z</time>
      </trkpt>
      <trkpt lat="42.5682710" lon="2.6299280">
        <ele>529.2</ele>
        <time>2020-07-21T08:19:15Z</time>
      </trkpt>
      <trkpt lat="42.5685090" lon="2.6297440">
        <ele>527.6</ele>
        <time>2020-07-21T08:19:18Z</time>
      </trkpt>
      <trkpt lat="42.5687700" lon="2.6294900">
        <ele>526.6</ele>
        <time>2020-07-21T08:19:21Z</time>
      </trkpt>
      <trkpt lat="42.5688690" lon="2.6293820">
        <ele>526.4</ele>
        <time>2020-07-21T08:19:22Z</time>
      </trkpt>
      <trkpt lat="42.5690550" lon="2.6290110">
        <ele>524.8</ele>
        <time>2020-07-21T08:19:25Z</time>
      </trkpt>
      <trkpt lat="42.5691080" lon="2.6288890">
        <ele>524.2</ele>
        <time>2020-07-21T08:19:26Z</time>
      </trkpt>
      <trkpt lat="42.5691580" lon="2.6287670">
        <ele>523.6</ele>
        <time>2020-07-21T08:19:27Z</time>
      </trkpt>
      <trkpt lat="42.5692400" lon="2.6285130">
        <ele>522.4</ele>
        <time>2020-07-21T08:19:29Z</time>
      </trkpt>
      <trkpt lat="42.5692710" lon="2.6283790">
        <ele>522.0</ele>
        <time>2020-07-21T08:19:30Z</time>
      </trkpt>
      <trkpt lat="42.5693230" lon="2.6281090">
        <ele>521.0</ele>
        <time>2020-07-21T08:19:32Z</time>
      </trkpt>
      <trkpt lat="42.5693490" lon="2.6279760">
        <ele>520.4</ele>
        <time>2020-07-21T08:19:33Z</time>
      </trkpt>
      <trkpt lat="42.5693740" lon="2.6278500">
        <ele>519.6</ele>
        <time>2020-07-21T08:19:34Z</time>
      </trkpt>
      <trkpt lat="42.5694300" lon="2.6276120">
        <ele>518.6</ele>
        <time>2020-07-21T08:19:36Z</time>
      </trkpt>
      <trkpt lat="42.5694540" lon="2.6274980">
        <ele>518.0</ele>
        <time>2020-07-21T08:19:37Z</time>
      </trkpt>
      <trkpt lat="42.5694740" lon="2.6273870">
        <ele>517.4</ele>
        <time>2020-07-21T08:19:38Z</time>
      </trkpt>
      <trkpt lat="42.5694950" lon="2.6271670">
        <ele>516.4</ele>
        <time>2020-07-21T08:19:40Z</time>
      </trkpt>
      <trkpt lat="42.5694800" lon="2.6270470">
        <ele>515.8</ele>
        <time>2020-07-21T08:19:41Z</time>
      </trkpt>
      <trkpt lat="42.5694490" lon="2.6269340">
        <ele>515.6</ele>
        <time>2020-07-21T08:19:42Z</time>
      </trkpt>
      <trkpt lat="42.5694060" lon="2.6268210">
        <ele>515.4</ele>
        <time>2020-07-21T08:19:43Z</time>
      </trkpt>
      <trkpt lat="42.5693540" lon="2.6267110">
        <ele>515.0</ele>
        <time>2020-07-21T08:19:44Z</time>
      </trkpt>
      <trkpt lat="42.5691670" lon="2.6264360">
        <ele>513.8</ele>
        <time>2020-07-21T08:19:47Z</time>
      </trkpt>
      <trkpt lat="42.5690970" lon="2.6263650">
        <ele>513.2</ele>
        <time>2020-07-21T08:19:48Z</time>
      </trkpt>
      <trkpt lat="42.5690190" lon="2.6263020">
        <ele>512.6</ele>
        <time>2020-07-21T08:19:49Z</time>
      </trkpt>
      <trkpt lat="42.5689370" lon="2.6262570">
        <ele>512.4</ele>
        <time>2020-07-21T08:19:50Z</time>
      </trkpt>
      <trkpt lat="42.5688470" lon="2.6262230">
        <ele>512.0</ele>
        <time>2020-07-21T08:19:51Z</time>
      </trkpt>
      <trkpt lat="42.5687620" lon="2.6261910">
        <ele>511.6</ele>
        <time>2020-07-21T08:19:52Z</time>
      </trkpt>
      <trkpt lat="42.5686150" lon="2.6261290">
        <ele>510.2</ele>
        <time>2020-07-21T08:19:54Z</time>
      </trkpt>
      <trkpt lat="42.5685520" lon="2.6260890">
        <ele>510.0</ele>
        <time>2020-07-21T08:19:55Z</time>
      </trkpt>
      <trkpt lat="42.5685200" lon="2.6260270">
        <ele>509.8</ele>
        <time>2020-07-21T08:19:56Z</time>
      </trkpt>
      <trkpt lat="42.5684990" lon="2.6259000">
        <ele>509.6</ele>
        <time>2020-07-21T08:19:58Z</time>
      </trkpt>
      <trkpt lat="42.5685080" lon="2.6258470">
        <ele>509.6</ele>
        <time>2020-07-21T08:19:59Z</time>
      </trkpt>
      <trkpt lat="42.5685340" lon="2.6257470">
        <ele>509.2</ele>
        <time>2020-07-21T08:20:01Z</time>
      </trkpt>
      <trkpt lat="42.5685600" lon="2.6256820">
        <ele>508.8</ele>
        <time>2020-07-21T08:20:02Z</time>
      </trkpt>
      <trkpt lat="42.5686520" lon="2.6256520">
        <ele>508.0</ele>
        <time>2020-07-21T08:20:03Z</time>
      </trkpt>
      <trkpt lat="42.5687070" lon="2.6255900">
        <ele>507.4</ele>
        <time>2020-07-21T08:20:04Z</time>
      </trkpt>
      <trkpt lat="42.5688090" lon="2.6254710">
        <ele>505.6</ele>
        <time>2020-07-21T08:20:06Z</time>
      </trkpt>
      <trkpt lat="42.5688300" lon="2.6254040">
        <ele>505.0</ele>
        <time>2020-07-21T08:20:07Z</time>
      </trkpt>
      <trkpt lat="42.5688320" lon="2.6253360">
        <ele>504.6</ele>
        <time>2020-07-21T08:20:08Z</time>
      </trkpt>
      <trkpt lat="42.5688150" lon="2.6252580">
        <ele>504.2</ele>
        <time>2020-07-21T08:20:09Z</time>
      </trkpt>
      <trkpt lat="42.5687770" lon="2.6251760">
        <ele>503.8</ele>
        <time>2020-07-21T08:20:10Z</time>
      </trkpt>
      <trkpt lat="42.5687620" lon="2.6251060">
        <ele>503.4</ele>
        <time>2020-07-21T08:20:11Z</time>
      </trkpt>
      <trkpt lat="42.5687640" lon="2.6250340">
        <ele>503.2</ele>
        <time>2020-07-21T08:20:12Z</time>
      </trkpt>
      <trkpt lat="42.5687870" lon="2.6249740">
        <ele>503.0</ele>
        <time>2020-07-21T08:20:13Z</time>
      </trkpt>
      <trkpt lat="42.5688550" lon="2.6248950">
        <ele>502.6</ele>
        <time>2020-07-21T08:20:15Z</time>
      </trkpt>
      <trkpt lat="42.5689980" lon="2.6248940">
        <ele>502.2</ele>
        <time>2020-07-21T08:20:17Z</time>
      </trkpt>
      <trkpt lat="42.5691240" lon="2.6248240">
        <ele>501.0</ele>
        <time>2020-07-21T08:20:19Z</time>
      </trkpt>
      <trkpt lat="42.5691740" lon="2.6247710">
        <ele>500.6</ele>
        <time>2020-07-21T08:20:20Z</time>
      </trkpt>
      <trkpt lat="42.5692110" lon="2.6247110">
        <ele>500.0</ele>
        <time>2020-07-21T08:20:21Z</time>
      </trkpt>
      <trkpt lat="42.5692350" lon="2.6245790">
        <ele>499.2</ele>
        <time>2020-07-21T08:20:23Z</time>
      </trkpt>
      <trkpt lat="42.5692530" lon="2.6245200">
        <ele>498.8</ele>
        <time>2020-07-21T08:20:24Z</time>
      </trkpt>
      <trkpt lat="42.5693450" lon="2.6244520">
        <ele>498.0</ele>
        <time>2020-07-21T08:20:26Z</time>
      </trkpt>
      <trkpt lat="42.5694010" lon="2.6244250">
        <ele>497.6</ele>
        <time>2020-07-21T08:20:27Z</time>
      </trkpt>
      <trkpt lat="42.5695890" lon="2.6243560">
        <ele>496.8</ele>
        <time>2020-07-21T08:20:30Z</time>
      </trkpt>
      <trkpt lat="42.5696560" lon="2.6243350">
        <ele>496.4</ele>
        <time>2020-07-21T08:20:31Z</time>
      </trkpt>
      <trkpt lat="42.5697960" lon="2.6243120">
        <ele>495.0</ele>
        <time>2020-07-21T08:20:33Z</time>
      </trkpt>
      <trkpt lat="42.5699600" lon="2.6243650">
        <ele>494.0</ele>
        <time>2020-07-21T08:20:35Z</time>
      </trkpt>
      <trkpt lat="42.5700380" lon="2.6244190">
        <ele>493.8</ele>
        <time>2020-07-21T08:20:36Z</time>
      </trkpt>
      <trkpt lat="42.5701970" lon="2.6245250">
        <ele>492.2</ele>
        <time>2020-07-21T08:20:38Z</time>
      </trkpt>
      <trkpt lat="42.5702860" lon="2.6245710">
        <ele>491.4</ele>
        <time>2020-07-21T08:20:39Z</time>
      </trkpt>
      <trkpt lat="42.5703750" lon="2.6246100">
        <ele>491.0</ele>
        <time>2020-07-21T08:20:40Z</time>
      </trkpt>
      <trkpt lat="42.5705570" lon="2.6247100">
        <ele>489.8</ele>
        <time>2020-07-21T08:20:42Z</time>
      </trkpt>
      <trkpt lat="42.5707470" lon="2.6248050">
        <ele>488.6</ele>
        <time>2020-07-21T08:20:44Z</time>
      </trkpt>
      <trkpt lat="42.5710370" lon="2.6249130">
        <ele>487.2</ele>
        <time>2020-07-21T08:20:47Z</time>
      </trkpt>
      <trkpt lat="42.5712020" lon="2.6249590">
        <ele>486.2</ele>
        <time>2020-07-21T08:20:49Z</time>
      </trkpt>
      <trkpt lat="42.5712820" lon="2.6249670">
        <ele>485.8</ele>
        <time>2020-07-21T08:20:50Z</time>
      </trkpt>
      <trkpt lat="42.5714400" lon="2.6249080">
        <ele>484.8</ele>
        <time>2020-07-21T08:20:52Z</time>
      </trkpt>
      <trkpt lat="42.5715090" lon="2.6248400">
        <ele>484.4</ele>
        <time>2020-07-21T08:20:53Z</time>
      </trkpt>
      <trkpt lat="42.5715700" lon="2.6247490">
        <ele>484.0</ele>
        <time>2020-07-21T08:20:54Z</time>
      </trkpt>
      <trkpt lat="42.5716270" lon="2.6246470">
        <ele>483.6</ele>
        <time>2020-07-21T08:20:55Z</time>
      </trkpt>
      <trkpt lat="42.5716810" lon="2.6245420">
        <ele>483.2</ele>
        <time>2020-07-21T08:20:56Z</time>
      </trkpt>
      <trkpt lat="42.5717830" lon="2.6243210">
        <ele>481.8</ele>
        <time>2020-07-21T08:20:58Z</time>
      </trkpt>
      <trkpt lat="42.5718600" lon="2.6241000">
        <ele>480.6</ele>
        <time>2020-07-21T08:21:00Z</time>
      </trkpt>
      <trkpt lat="42.5718720" lon="2.6238660">
        <ele>479.8</ele>
        <time>2020-07-21T08:21:02Z</time>
      </trkpt>
      <trkpt lat="42.5718630" lon="2.6237460">
        <ele>479.6</ele>
        <time>2020-07-21T08:21:03Z</time>
      </trkpt>
      <trkpt lat="42.5718320" lon="2.6234920">
        <ele>478.2</ele>
        <time>2020-07-21T08:21:05Z</time>
      </trkpt>
      <trkpt lat="42.5718010" lon="2.6232490">
        <ele>477.0</ele>
        <time>2020-07-21T08:21:07Z</time>
      </trkpt>
      <trkpt lat="42.5717780" lon="2.6231360">
        <ele>476.4</ele>
        <time>2020-07-21T08:21:08Z</time>
      </trkpt>
      <trkpt lat="42.5717580" lon="2.6230330">
        <ele>475.6</ele>
        <time>2020-07-21T08:21:09Z</time>
      </trkpt>
      <trkpt lat="42.5717520" lon="2.6229340">
        <ele>475.0</ele>
        <time>2020-07-21T08:21:10Z</time>
      </trkpt>
      <trkpt lat="42.5717610" lon="2.6228370">
        <ele>474.4</ele>
        <time>2020-07-21T08:21:11Z</time>
      </trkpt>
      <trkpt lat="42.5718430" lon="2.6227180">
        <ele>473.6</ele>
        <time>2020-07-21T08:21:13Z</time>
      </trkpt>
      <trkpt lat="42.5719040" lon="2.6227450">
        <ele>473.0</ele>
        <time>2020-07-21T08:21:14Z</time>
      </trkpt>
      <trkpt lat="42.5720180" lon="2.6228440">
        <ele>472.2</ele>
        <time>2020-07-21T08:21:16Z</time>
      </trkpt>
      <trkpt lat="42.5720760" lon="2.6229070">
        <ele>471.4</ele>
        <time>2020-07-21T08:21:17Z</time>
      </trkpt>
      <trkpt lat="42.5721380" lon="2.6229730">
        <ele>470.8</ele>
        <time>2020-07-21T08:21:18Z</time>
      </trkpt>
      <trkpt lat="42.5722020" lon="2.6230410">
        <ele>470.2</ele>
        <time>2020-07-21T08:21:19Z</time>
      </trkpt>
      <trkpt lat="42.5723350" lon="2.6231840">
        <ele>469.6</ele>
        <time>2020-07-21T08:21:21Z</time>
      </trkpt>
      <trkpt lat="42.5724660" lon="2.6233500">
        <ele>468.4</ele>
        <time>2020-07-21T08:21:23Z</time>
      </trkpt>
      <trkpt lat="42.5725320" lon="2.6234390">
        <ele>467.4</ele>
        <time>2020-07-21T08:21:24Z</time>
      </trkpt>
      <trkpt lat="42.5726710" lon="2.6236110">
        <ele>465.6</ele>
        <time>2020-07-21T08:21:26Z</time>
      </trkpt>
      <trkpt lat="42.5728140" lon="2.6237490">
        <ele>464.2</ele>
        <time>2020-07-21T08:21:28Z</time>
      </trkpt>
      <trkpt lat="42.5729560" lon="2.6238320">
        <ele>463.4</ele>
        <time>2020-07-21T08:21:30Z</time>
      </trkpt>
      <trkpt lat="42.5730320" lon="2.6238030">
        <ele>463.2</ele>
        <time>2020-07-21T08:21:31Z</time>
      </trkpt>
      <trkpt lat="42.5731010" lon="2.6237630">
        <ele>463.0</ele>
        <time>2020-07-21T08:21:32Z</time>
      </trkpt>
      <trkpt lat="42.5732260" lon="2.6236150">
        <ele>462.6</ele>
        <time>2020-07-21T08:21:34Z</time>
      </trkpt>
      <trkpt lat="42.5733380" lon="2.6234050">
        <ele>461.8</ele>
        <time>2020-07-21T08:21:36Z</time>
      </trkpt>
      <trkpt lat="42.5733910" lon="2.6232870">
        <ele>461.2</ele>
        <time>2020-07-21T08:21:37Z</time>
      </trkpt>
      <trkpt lat="42.5734430" lon="2.6231640">
        <ele>460.4</ele>
        <time>2020-07-21T08:21:38Z</time>
      </trkpt>
      <trkpt lat="42.5734770" lon="2.6230310">
        <ele>459.6</ele>
        <time>2020-07-21T08:21:39Z</time>
      </trkpt>
      <trkpt lat="42.5735190" lon="2.6229020">
        <ele>459.0</ele>
        <time>2020-07-21T08:21:40Z</time>
      </trkpt>
      <trkpt lat="42.5736200" lon="2.6226590">
        <ele>457.8</ele>
        <time>2020-07-21T08:21:42Z</time>
      </trkpt>
      <trkpt lat="42.5736820" lon="2.6225470">
        <ele>457.4</ele>
        <time>2020-07-21T08:21:43Z</time>
      </trkpt>
      <trkpt lat="42.5737520" lon="2.6224440">
        <ele>457.0</ele>
        <time>2020-07-21T08:21:44Z</time>
      </trkpt>
      <trkpt lat="42.5738320" lon="2.6223490">
        <ele>456.4</ele>
        <time>2020-07-21T08:21:45Z</time>
      </trkpt>
      <trkpt lat="42.5739200" lon="2.6222630">
        <ele>455.6</ele>
        <time>2020-07-21T08:21:46Z</time>
      </trkpt>
      <trkpt lat="42.5740160" lon="2.6221960">
        <ele>454.8</ele>
        <time>2020-07-21T08:21:47Z</time>
      </trkpt>
      <trkpt lat="42.5741210" lon="2.6221540">
        <ele>454.2</ele>
        <time>2020-07-21T08:21:48Z</time>
      </trkpt>
      <trkpt lat="42.5742210" lon="2.6221170">
        <ele>453.4</ele>
        <time>2020-07-21T08:21:49Z</time>
      </trkpt>
      <trkpt lat="42.5744140" lon="2.6220360">
        <ele>452.2</ele>
        <time>2020-07-21T08:21:51Z</time>
      </trkpt>
      <trkpt lat="42.5745870" lon="2.6219250">
        <ele>451.4</ele>
        <time>2020-07-21T08:21:53Z</time>
      </trkpt>
      <trkpt lat="42.5746680" lon="2.6218640">
        <ele>450.6</ele>
        <time>2020-07-21T08:21:54Z</time>
      </trkpt>
      <trkpt lat="42.5748140" lon="2.6217140">
        <ele>449.2</ele>
        <time>2020-07-21T08:21:56Z</time>
      </trkpt>
      <trkpt lat="42.5749300" lon="2.6215080">
        <ele>447.8</ele>
        <time>2020-07-21T08:21:58Z</time>
      </trkpt>
      <trkpt lat="42.5750310" lon="2.6212900">
        <ele>446.8</ele>
        <time>2020-07-21T08:22:00Z</time>
      </trkpt>
      <trkpt lat="42.5751000" lon="2.6210880">
        <ele>446.0</ele>
        <time>2020-07-21T08:22:02Z</time>
      </trkpt>
      <trkpt lat="42.5751130" lon="2.6209920">
        <ele>445.6</ele>
        <time>2020-07-21T08:22:03Z</time>
      </trkpt>
      <trkpt lat="42.5750970" lon="2.6207910">
        <ele>444.6</ele>
        <time>2020-07-21T08:22:05Z</time>
      </trkpt>
      <trkpt lat="42.5750720" lon="2.6205580">
        <ele>443.2</ele>
        <time>2020-07-21T08:22:07Z</time>
      </trkpt>
      <trkpt lat="42.5750540" lon="2.6203510">
        <ele>442.4</ele>
        <time>2020-07-21T08:22:09Z</time>
      </trkpt>
      <trkpt lat="42.5750540" lon="2.6202580">
        <ele>442.2</ele>
        <time>2020-07-21T08:22:10Z</time>
      </trkpt>
      <trkpt lat="42.5750890" lon="2.6200410">
        <ele>441.4</ele>
        <time>2020-07-21T08:22:13Z</time>
      </trkpt>
      <trkpt lat="42.5751900" lon="2.6200170">
        <ele>440.8</ele>
        <time>2020-07-21T08:22:15Z</time>
      </trkpt>
      <trkpt lat="42.5752950" lon="2.6200770">
        <ele>440.2</ele>
        <time>2020-07-21T08:22:16Z</time>
      </trkpt>
      <trkpt lat="42.5753660" lon="2.6201070">
        <ele>439.4</ele>
        <time>2020-07-21T08:22:17Z</time>
      </trkpt>
      <trkpt lat="42.5754450" lon="2.6201540">
        <ele>439.0</ele>
        <time>2020-07-21T08:22:18Z</time>
      </trkpt>
      <trkpt lat="42.5756210" lon="2.6202260">
        <ele>438.2</ele>
        <time>2020-07-21T08:22:20Z</time>
      </trkpt>
      <trkpt lat="42.5757750" lon="2.6202530">
        <ele>437.6</ele>
        <time>2020-07-21T08:22:22Z</time>
      </trkpt>
      <trkpt lat="42.5758520" lon="2.6202150">
        <ele>437.0</ele>
        <time>2020-07-21T08:22:23Z</time>
      </trkpt>
      <trkpt lat="42.5759370" lon="2.6201720">
        <ele>436.4</ele>
        <time>2020-07-21T08:22:24Z</time>
      </trkpt>
      <trkpt lat="42.5760190" lon="2.6201240">
        <ele>435.8</ele>
        <time>2020-07-21T08:22:25Z</time>
      </trkpt>
      <trkpt lat="42.5761950" lon="2.6200350">
        <ele>434.4</ele>
        <time>2020-07-21T08:22:27Z</time>
      </trkpt>
      <trkpt lat="42.5763760" lon="2.6199430">
        <ele>433.4</ele>
        <time>2020-07-21T08:22:29Z</time>
      </trkpt>
      <trkpt lat="42.5764660" lon="2.6198980">
        <ele>433.2</ele>
        <time>2020-07-21T08:22:30Z</time>
      </trkpt>
      <trkpt lat="42.5766570" lon="2.6198050">
        <ele>432.2</ele>
        <time>2020-07-21T08:22:32Z</time>
      </trkpt>
      <trkpt lat="42.5768520" lon="2.6197080">
        <ele>430.4</ele>
        <time>2020-07-21T08:22:34Z</time>
      </trkpt>
      <trkpt lat="42.5770350" lon="2.6195670">
        <ele>428.8</ele>
        <time>2020-07-21T08:22:36Z</time>
      </trkpt>
      <trkpt lat="42.5771120" lon="2.6194640">
        <ele>428.2</ele>
        <time>2020-07-21T08:22:37Z</time>
      </trkpt>
      <trkpt lat="42.5771830" lon="2.6193520">
        <ele>427.8</ele>
        <time>2020-07-21T08:22:38Z</time>
      </trkpt>
      <trkpt lat="42.5772450" lon="2.6192180">
        <ele>427.4</ele>
        <time>2020-07-21T08:22:39Z</time>
      </trkpt>
      <trkpt lat="42.5773520" lon="2.6189500">
        <ele>426.4</ele>
        <time>2020-07-21T08:22:41Z</time>
      </trkpt>
      <trkpt lat="42.5774360" lon="2.6186820">
        <ele>424.8</ele>
        <time>2020-07-21T08:22:43Z</time>
      </trkpt>
      <trkpt lat="42.5775430" lon="2.6184380">
        <ele>424.0</ele>
        <time>2020-07-21T08:22:45Z</time>
      </trkpt>
      <trkpt lat="42.5776020" lon="2.6183190">
        <ele>423.4</ele>
        <time>2020-07-21T08:22:46Z</time>
      </trkpt>
      <trkpt lat="42.5776650" lon="2.6182000">
        <ele>422.6</ele>
        <time>2020-07-21T08:22:47Z</time>
      </trkpt>
      <trkpt lat="42.5777290" lon="2.6180820">
        <ele>421.8</ele>
        <time>2020-07-21T08:22:48Z</time>
      </trkpt>
      <trkpt lat="42.5778470" lon="2.6178490">
        <ele>420.2</ele>
        <time>2020-07-21T08:22:50Z</time>
      </trkpt>
      <trkpt lat="42.5778970" lon="2.6177410">
        <ele>419.2</ele>
        <time>2020-07-21T08:22:51Z</time>
      </trkpt>
      <trkpt lat="42.5779410" lon="2.6176430">
        <ele>418.4</ele>
        <time>2020-07-21T08:22:52Z</time>
      </trkpt>
      <trkpt lat="42.5779860" lon="2.6175590">
        <ele>417.8</ele>
        <time>2020-07-21T08:22:53Z</time>
      </trkpt>
      <trkpt lat="42.5781210" lon="2.6173550">
        <ele>417.0</ele>
        <time>2020-07-21T08:22:56Z</time>
      </trkpt>
      <trkpt lat="42.5781990" lon="2.6173100">
        <ele>416.6</ele>
        <time>2020-07-21T08:22:57Z</time>
      </trkpt>
      <trkpt lat="42.5783690" lon="2.6172480">
        <ele>416.0</ele>
        <time>2020-07-21T08:22:59Z</time>
      </trkpt>
      <trkpt lat="42.5784640" lon="2.6172300">
        <ele>415.6</ele>
        <time>2020-07-21T08:23:00Z</time>
      </trkpt>
      <trkpt lat="42.5786830" lon="2.6171840">
        <ele>413.6</ele>
        <time>2020-07-21T08:23:02Z</time>
      </trkpt>
      <trkpt lat="42.5787800" lon="2.6171490">
        <ele>413.0</ele>
        <time>2020-07-21T08:23:03Z</time>
      </trkpt>
      <trkpt lat="42.5788730" lon="2.6171040">
        <ele>412.6</ele>
        <time>2020-07-21T08:23:04Z</time>
      </trkpt>
      <trkpt lat="42.5789550" lon="2.6170460">
        <ele>412.2</ele>
        <time>2020-07-21T08:23:05Z</time>
      </trkpt>
      <trkpt lat="42.5790330" lon="2.6169720">
        <ele>412.0</ele>
        <time>2020-07-21T08:23:06Z</time>
      </trkpt>
      <trkpt lat="42.5791080" lon="2.6168820">
        <ele>411.6</ele>
        <time>2020-07-21T08:23:07Z</time>
      </trkpt>
      <trkpt lat="42.5791770" lon="2.6167850">
        <ele>411.4</ele>
        <time>2020-07-21T08:23:08Z</time>
      </trkpt>
      <trkpt lat="42.5793010" lon="2.6165640">
        <ele>410.2</ele>
        <time>2020-07-21T08:23:10Z</time>
      </trkpt>
      <trkpt lat="42.5793520" lon="2.6164490">
        <ele>409.8</ele>
        <time>2020-07-21T08:23:11Z</time>
      </trkpt>
      <trkpt lat="42.5794020" lon="2.6163370">
        <ele>409.2</ele>
        <time>2020-07-21T08:23:12Z</time>
      </trkpt>
      <trkpt lat="42.5795320" lon="2.6159820">
        <ele>407.6</ele>
        <time>2020-07-21T08:23:15Z</time>
      </trkpt>
      <trkpt lat="42.5795790" lon="2.6158600">
        <ele>407.0</ele>
        <time>2020-07-21T08:23:16Z</time>
      </trkpt>
      <trkpt lat="42.5796270" lon="2.6157410">
        <ele>406.2</ele>
        <time>2020-07-21T08:23:17Z</time>
      </trkpt>
      <trkpt lat="42.5797240" lon="2.6155110">
        <ele>405.0</ele>
        <time>2020-07-21T08:23:19Z</time>
      </trkpt>
      <trkpt lat="42.5798020" lon="2.6153220">
        <ele>404.2</ele>
        <time>2020-07-21T08:23:21Z</time>
      </trkpt>
      <trkpt lat="42.5798310" lon="2.6152440">
        <ele>403.8</ele>
        <time>2020-07-21T08:23:22Z</time>
      </trkpt>
      <trkpt lat="42.5798470" lon="2.6151680">
        <ele>403.6</ele>
        <time>2020-07-21T08:23:23Z</time>
      </trkpt>
      <trkpt lat="42.5798170" lon="2.6150340">
        <ele>403.2</ele>
        <time>2020-07-21T08:23:25Z</time>
      </trkpt>
      <trkpt lat="42.5797470" lon="2.6149490">
        <ele>402.6</ele>
        <time>2020-07-21T08:23:27Z</time>
      </trkpt>
      <trkpt lat="42.5797040" lon="2.6149330">
        <ele>402.4</ele>
        <time>2020-07-21T08:23:28Z</time>
      </trkpt>
      <trkpt lat="42.5796510" lon="2.6149360">
        <ele>402.0</ele>
        <time>2020-07-21T08:23:29Z</time>
      </trkpt>
      <trkpt lat="42.5795340" lon="2.6149170">
        <ele>401.6</ele>
        <time>2020-07-21T08:23:31Z</time>
      </trkpt>
      <trkpt lat="42.5794240" lon="2.6148620">
        <ele>401.0</ele>
        <time>2020-07-21T08:23:33Z</time>
      </trkpt>
      <trkpt lat="42.5793320" lon="2.6147790">
        <ele>400.8</ele>
        <time>2020-07-21T08:23:35Z</time>
      </trkpt>
      <trkpt lat="42.5792610" lon="2.6146940">
        <ele>400.4</ele>
        <time>2020-07-21T08:23:37Z</time>
      </trkpt>
      <trkpt lat="42.5792190" lon="2.6145990">
        <ele>400.4</ele>
        <time>2020-07-21T08:23:39Z</time>
      </trkpt>
      <trkpt lat="42.5792030" lon="2.6144440">
        <ele>400.8</ele>
        <time>2020-07-21T08:23:43Z</time>
      </trkpt>
      <trkpt lat="42.5792550" lon="2.6143540">
        <ele>401.2</ele>
        <time>2020-07-21T08:23:47Z</time>
      </trkpt>
      <trkpt lat="42.5792900" lon="2.6143140">
        <ele>401.4</ele>
        <time>2020-07-21T08:23:49Z</time>
      </trkpt>
      <trkpt lat="42.5793290" lon="2.6142630">
        <ele>401.8</ele>
        <time>2020-07-21T08:23:51Z</time>
      </trkpt>
      <trkpt lat="42.5794200" lon="2.6141860">
        <ele>401.8</ele>
        <time>2020-07-21T08:23:54Z</time>
      </trkpt>
      <trkpt lat="42.5796270" lon="2.6140810">
        <ele>401.4</ele>
        <time>2020-07-21T08:23:58Z</time>
      </trkpt>
      <trkpt lat="42.5796880" lon="2.6140700">
        <ele>401.4</ele>
        <time>2020-07-21T08:23:59Z</time>
      </trkpt>
      <trkpt lat="42.5799340" lon="2.6140560">
        <ele>401.0</ele>
        <time>2020-07-21T08:24:03Z</time>
      </trkpt>
      <trkpt lat="42.5801240" lon="2.6140830">
        <ele>400.4</ele>
        <time>2020-07-21T08:24:06Z</time>
      </trkpt>
      <trkpt lat="42.5801870" lon="2.6141080">
        <ele>400.2</ele>
        <time>2020-07-21T08:24:07Z</time>
      </trkpt>
      <trkpt lat="42.5802500" lon="2.6141460">
        <ele>400.0</ele>
        <time>2020-07-21T08:24:08Z</time>
      </trkpt>
      <trkpt lat="42.5803140" lon="2.6141910">
        <ele>399.6</ele>
        <time>2020-07-21T08:24:09Z</time>
      </trkpt>
      <trkpt lat="42.5803770" lon="2.6142400">
        <ele>399.0</ele>
        <time>2020-07-21T08:24:10Z</time>
      </trkpt>
      <trkpt lat="42.5805580" lon="2.6144380">
        <ele>397.8</ele>
        <time>2020-07-21T08:24:13Z</time>
      </trkpt>
      <trkpt lat="42.5806060" lon="2.6145190">
        <ele>397.6</ele>
        <time>2020-07-21T08:24:14Z</time>
      </trkpt>
      <trkpt lat="42.5807120" lon="2.6147520">
        <ele>396.6</ele>
        <time>2020-07-21T08:24:17Z</time>
      </trkpt>
      <trkpt lat="42.5807080" lon="2.6149440">
        <ele>396.4</ele>
        <time>2020-07-21T08:24:19Z</time>
      </trkpt>
      <trkpt lat="42.5807050" lon="2.6150280">
        <ele>396.4</ele>
        <time>2020-07-21T08:24:20Z</time>
      </trkpt>
      <trkpt lat="42.5807030" lon="2.6151130">
        <ele>396.4</ele>
        <time>2020-07-21T08:24:21Z</time>
      </trkpt>
      <trkpt lat="42.5806620" lon="2.6153950">
        <ele>395.4</ele>
        <time>2020-07-21T08:24:24Z</time>
      </trkpt>
      <trkpt lat="42.5806250" lon="2.6155860">
        <ele>395.2</ele>
        <time>2020-07-21T08:24:26Z</time>
      </trkpt>
      <trkpt lat="42.5805510" lon="2.6161970">
        <ele>394.6</ele>
        <time>2020-07-21T08:24:32Z</time>
      </trkpt>
      <trkpt lat="42.5805230" lon="2.6162960">
        <ele>394.4</ele>
        <time>2020-07-21T08:24:33Z</time>
      </trkpt>
      <trkpt lat="42.5804620" lon="2.6169110">
        <ele>393.2</ele>
        <time>2020-07-21T08:24:39Z</time>
      </trkpt>
      <trkpt lat="42.5804760" lon="2.6170160">
        <ele>393.0</ele>
        <time>2020-07-21T08:24:40Z</time>
      </trkpt>
      <trkpt lat="42.5805330" lon="2.6171810">
        <ele>392.8</ele>
        <time>2020-07-21T08:24:42Z</time>
      </trkpt>
      <trkpt lat="42.5806380" lon="2.6173070">
        <ele>392.8</ele>
        <time>2020-07-21T08:24:44Z</time>
      </trkpt>
      <trkpt lat="42.5807760" lon="2.6174060">
        <ele>392.6</ele>
        <time>2020-07-21T08:24:46Z</time>
      </trkpt>
      <trkpt lat="42.5809200" lon="2.6174600">
        <ele>392.6</ele>
        <time>2020-07-21T08:24:48Z</time>
      </trkpt>
      <trkpt lat="42.5810790" lon="2.6174210">
        <ele>392.4</ele>
        <time>2020-07-21T08:24:50Z</time>
      </trkpt>
      <trkpt lat="42.5813670" lon="2.6172700">
        <ele>392.2</ele>
        <time>2020-07-21T08:24:54Z</time>
      </trkpt>
      <trkpt lat="42.5814470" lon="2.6172510">
        <ele>392.0</ele>
        <time>2020-07-21T08:24:55Z</time>
      </trkpt>
      <trkpt lat="42.5815300" lon="2.6172330">
        <ele>391.8</ele>
        <time>2020-07-21T08:24:56Z</time>
      </trkpt>
      <trkpt lat="42.5816860" lon="2.6172270">
        <ele>391.2</ele>
        <time>2020-07-21T08:24:58Z</time>
      </trkpt>
      <trkpt lat="42.5818480" lon="2.6171880">
        <ele>390.8</ele>
        <time>2020-07-21T08:25:00Z</time>
      </trkpt>
      <trkpt lat="42.5820840" lon="2.6170830">
        <ele>389.8</ele>
        <time>2020-07-21T08:25:03Z</time>
      </trkpt>
      <trkpt lat="42.5823150" lon="2.6169840">
        <ele>389.0</ele>
        <time>2020-07-21T08:25:06Z</time>
      </trkpt>
      <trkpt lat="42.5824660" lon="2.6169270">
        <ele>388.8</ele>
        <time>2020-07-21T08:25:08Z</time>
      </trkpt>
      <trkpt lat="42.5827050" lon="2.6168500">
        <ele>388.6</ele>
        <time>2020-07-21T08:25:11Z</time>
      </trkpt>
      <trkpt lat="42.5827880" lon="2.6168310">
        <ele>388.6</ele>
        <time>2020-07-21T08:25:12Z</time>
      </trkpt>
      <trkpt lat="42.5831250" lon="2.6167840">
        <ele>388.2</ele>
        <time>2020-07-21T08:25:16Z</time>
      </trkpt>
      <trkpt lat="42.5832120" lon="2.6167940">
        <ele>388.0</ele>
        <time>2020-07-21T08:25:17Z</time>
      </trkpt>
      <trkpt lat="42.5835380" lon="2.6168720">
        <ele>387.8</ele>
        <time>2020-07-21T08:25:21Z</time>
      </trkpt>
      <trkpt lat="42.5836210" lon="2.6168800">
        <ele>387.4</ele>
        <time>2020-07-21T08:25:22Z</time>
      </trkpt>
      <trkpt lat="42.5837880" lon="2.6169010">
        <ele>387.2</ele>
        <time>2020-07-21T08:25:24Z</time>
      </trkpt>
      <trkpt lat="42.5839070" lon="2.6170200">
        <ele>387.0</ele>
        <time>2020-07-21T08:25:26Z</time>
      </trkpt>
      <trkpt lat="42.5839500" lon="2.6172110">
        <ele>386.8</ele>
        <time>2020-07-21T08:25:28Z</time>
      </trkpt>
      <trkpt lat="42.5839580" lon="2.6173120">
        <ele>386.8</ele>
        <time>2020-07-21T08:25:29Z</time>
      </trkpt>
      <trkpt lat="42.5839610" lon="2.6175150">
        <ele>386.6</ele>
        <time>2020-07-21T08:25:31Z</time>
      </trkpt>
      <trkpt lat="42.5839780" lon="2.6177020">
        <ele>386.6</ele>
        <time>2020-07-21T08:25:33Z</time>
      </trkpt>
      <trkpt lat="42.5840000" lon="2.6177890">
        <ele>386.6</ele>
        <time>2020-07-21T08:25:34Z</time>
      </trkpt>
      <trkpt lat="42.5840310" lon="2.6178700">
        <ele>386.6</ele>
        <time>2020-07-21T08:25:35Z</time>
      </trkpt>
      <trkpt lat="42.5841210" lon="2.6180100">
        <ele>386.4</ele>
        <time>2020-07-21T08:25:37Z</time>
      </trkpt>
      <trkpt lat="42.5841730" lon="2.6180760">
        <ele>386.4</ele>
        <time>2020-07-21T08:25:38Z</time>
      </trkpt>
      <trkpt lat="42.5843820" lon="2.6183350">
        <ele>385.8</ele>
        <time>2020-07-21T08:25:42Z</time>
      </trkpt>
      <trkpt lat="42.5844340" lon="2.6183960">
        <ele>385.6</ele>
        <time>2020-07-21T08:25:43Z</time>
      </trkpt>
      <trkpt lat="42.5845000" lon="2.6184440">
        <ele>385.2</ele>
        <time>2020-07-21T08:25:44Z</time>
      </trkpt>
      <trkpt lat="42.5845700" lon="2.6184780">
        <ele>385.2</ele>
        <time>2020-07-21T08:25:45Z</time>
      </trkpt>
      <trkpt lat="42.5846410" lon="2.6184900">
        <ele>385.2</ele>
        <time>2020-07-21T08:25:46Z</time>
      </trkpt>
      <trkpt lat="42.5847840" lon="2.6184930">
        <ele>385.4</ele>
        <time>2020-07-21T08:25:48Z</time>
      </trkpt>
      <trkpt lat="42.5848540" lon="2.6185220">
        <ele>385.4</ele>
        <time>2020-07-21T08:25:49Z</time>
      </trkpt>
      <trkpt lat="42.5849930" lon="2.6186120">
        <ele>385.6</ele>
        <time>2020-07-21T08:25:51Z</time>
      </trkpt>
      <trkpt lat="42.5850670" lon="2.6186490">
        <ele>385.4</ele>
        <time>2020-07-21T08:25:52Z</time>
      </trkpt>
      <trkpt lat="42.5852290" lon="2.6186590">
        <ele>385.4</ele>
        <time>2020-07-21T08:25:54Z</time>
      </trkpt>
      <trkpt lat="42.5853810" lon="2.6185750">
        <ele>385.4</ele>
        <time>2020-07-21T08:25:56Z</time>
      </trkpt>
      <trkpt lat="42.5854510" lon="2.6185180">
        <ele>385.4</ele>
        <time>2020-07-21T08:25:57Z</time>
      </trkpt>
      <trkpt lat="42.5858190" lon="2.6182530">
        <ele>385.0</ele>
        <time>2020-07-21T08:26:02Z</time>
      </trkpt>
      <trkpt lat="42.5861350" lon="2.6180940">
        <ele>384.4</ele>
        <time>2020-07-21T08:26:06Z</time>
      </trkpt>
      <trkpt lat="42.5864590" lon="2.6179570">
        <ele>384.0</ele>
        <time>2020-07-21T08:26:10Z</time>
      </trkpt>
      <trkpt lat="42.5867890" lon="2.6178640">
        <ele>383.2</ele>
        <time>2020-07-21T08:26:14Z</time>
      </trkpt>
      <trkpt lat="42.5869440" lon="2.6178060">
        <ele>382.8</ele>
        <time>2020-07-21T08:26:16Z</time>
      </trkpt>
      <trkpt lat="42.5873950" lon="2.6176620">
        <ele>384.2</ele>
        <time>2020-07-21T08:26:22Z</time>
      </trkpt>
      <trkpt lat="42.5877040" lon="2.6176280">
        <ele>384.4</ele>
        <time>2020-07-21T08:26:26Z</time>
      </trkpt>
      <trkpt lat="42.5877760" lon="2.6175940">
        <ele>384.4</ele>
        <time>2020-07-21T08:26:27Z</time>
      </trkpt>
      <trkpt lat="42.5878440" lon="2.6175470">
        <ele>384.4</ele>
        <time>2020-07-21T08:26:28Z</time>
      </trkpt>
      <trkpt lat="42.5879650" lon="2.6174220">
        <ele>384.2</ele>
        <time>2020-07-21T08:26:30Z</time>
      </trkpt>
      <trkpt lat="42.5880170" lon="2.6173450">
        <ele>383.8</ele>
        <time>2020-07-21T08:26:31Z</time>
      </trkpt>
      <trkpt lat="42.5880640" lon="2.6172610">
        <ele>383.6</ele>
        <time>2020-07-21T08:26:32Z</time>
      </trkpt>
      <trkpt lat="42.5881080" lon="2.6171660">
        <ele>383.2</ele>
        <time>2020-07-21T08:26:33Z</time>
      </trkpt>
      <trkpt lat="42.5881800" lon="2.6169610">
        <ele>382.6</ele>
        <time>2020-07-21T08:26:35Z</time>
      </trkpt>
      <trkpt lat="42.5882350" lon="2.6167460">
        <ele>382.0</ele>
        <time>2020-07-21T08:26:37Z</time>
      </trkpt>
      <trkpt lat="42.5883150" lon="2.6162890">
        <ele>381.6</ele>
        <time>2020-07-21T08:26:41Z</time>
      </trkpt>
      <trkpt lat="42.5883540" lon="2.6157030">
        <ele>381.0</ele>
        <time>2020-07-21T08:26:46Z</time>
      </trkpt>
      <trkpt lat="42.5883590" lon="2.6155830">
        <ele>381.0</ele>
        <time>2020-07-21T08:26:47Z</time>
      </trkpt>
      <trkpt lat="42.5883630" lon="2.6154650">
        <ele>380.8</ele>
        <time>2020-07-21T08:26:48Z</time>
      </trkpt>
      <trkpt lat="42.5883900" lon="2.6147610">
        <ele>381.6</ele>
        <time>2020-07-21T08:26:54Z</time>
      </trkpt>
      <trkpt lat="42.5884000" lon="2.6145240">
        <ele>382.0</ele>
        <time>2020-07-21T08:26:56Z</time>
      </trkpt>
      <trkpt lat="42.5884060" lon="2.6142970">
        <ele>381.6</ele>
        <time>2020-07-21T08:26:58Z</time>
      </trkpt>
      <trkpt lat="42.5884190" lon="2.6139510">
        <ele>380.6</ele>
        <time>2020-07-21T08:27:01Z</time>
      </trkpt>
      <trkpt lat="42.5884380" lon="2.6137170">
        <ele>379.0</ele>
        <time>2020-07-21T08:27:03Z</time>
      </trkpt>
      <trkpt lat="42.5884580" lon="2.6136050">
        <ele>378.0</ele>
        <time>2020-07-21T08:27:04Z</time>
      </trkpt>
      <trkpt lat="42.5885060" lon="2.6133890">
        <ele>376.8</ele>
        <time>2020-07-21T08:27:06Z</time>
      </trkpt>
      <trkpt lat="42.5885690" lon="2.6131960">
        <ele>376.4</ele>
        <time>2020-07-21T08:27:08Z</time>
      </trkpt>
      <trkpt lat="42.5886090" lon="2.6131220">
        <ele>376.4</ele>
        <time>2020-07-21T08:27:09Z</time>
      </trkpt>
      <trkpt lat="42.5887430" lon="2.6130660">
        <ele>376.4</ele>
        <time>2020-07-21T08:27:11Z</time>
      </trkpt>
      <trkpt lat="42.5889240" lon="2.6130850">
        <ele>376.2</ele>
        <time>2020-07-21T08:27:13Z</time>
      </trkpt>
      <trkpt lat="42.5890490" lon="2.6131190">
        <ele>376.2</ele>
        <time>2020-07-21T08:27:14Z</time>
      </trkpt>
      <trkpt lat="42.5891380" lon="2.6131410">
        <ele>376.2</ele>
        <time>2020-07-21T08:27:15Z</time>
      </trkpt>
      <trkpt lat="42.5892940" lon="2.6132780">
        <ele>375.8</ele>
        <time>2020-07-21T08:27:17Z</time>
      </trkpt>
      <trkpt lat="42.5894970" lon="2.6135170">
        <ele>375.8</ele>
        <time>2020-07-21T08:27:20Z</time>
      </trkpt>
      <trkpt lat="42.5895650" lon="2.6135830">
        <ele>375.6</ele>
        <time>2020-07-21T08:27:21Z</time>
      </trkpt>
      <trkpt lat="42.5896400" lon="2.6136210">
        <ele>375.6</ele>
        <time>2020-07-21T08:27:22Z</time>
      </trkpt>
      <trkpt lat="42.5897250" lon="2.6136290">
        <ele>375.4</ele>
        <time>2020-07-21T08:27:23Z</time>
      </trkpt>
      <trkpt lat="42.5897960" lon="2.6135990">
        <ele>375.6</ele>
        <time>2020-07-21T08:27:24Z</time>
      </trkpt>
      <trkpt lat="42.5898530" lon="2.6135380">
        <ele>375.4</ele>
        <time>2020-07-21T08:27:25Z</time>
      </trkpt>
      <trkpt lat="42.5898980" lon="2.6134650">
        <ele>375.2</ele>
        <time>2020-07-21T08:27:26Z</time>
      </trkpt>
      <trkpt lat="42.5899300" lon="2.6133780">
        <ele>375.2</ele>
        <time>2020-07-21T08:27:27Z</time>
      </trkpt>
      <trkpt lat="42.5899560" lon="2.6131740">
        <ele>375.0</ele>
        <time>2020-07-21T08:27:29Z</time>
      </trkpt>
      <trkpt lat="42.5899590" lon="2.6126910">
        <ele>374.8</ele>
        <time>2020-07-21T08:27:34Z</time>
      </trkpt>
      <trkpt lat="42.5899320" lon="2.6123440">
        <ele>375.6</ele>
        <time>2020-07-21T08:27:39Z</time>
      </trkpt>
      <trkpt lat="42.5899440" lon="2.6122150">
        <ele>375.8</ele>
        <time>2020-07-21T08:27:41Z</time>
      </trkpt>
      <trkpt lat="42.5899880" lon="2.6120930">
        <ele>375.8</ele>
        <time>2020-07-21T08:27:43Z</time>
      </trkpt>
      <trkpt lat="42.5900200" lon="2.6120400">
        <ele>375.6</ele>
        <time>2020-07-21T08:27:44Z</time>
      </trkpt>
      <trkpt lat="42.5900590" lon="2.6119960">
        <ele>375.6</ele>
        <time>2020-07-21T08:27:45Z</time>
      </trkpt>
      <trkpt lat="42.5901610" lon="2.6119410">
        <ele>375.4</ele>
        <time>2020-07-21T08:27:47Z</time>
      </trkpt>
      <trkpt lat="42.5902200" lon="2.6119270">
        <ele>375.4</ele>
        <time>2020-07-21T08:27:48Z</time>
      </trkpt>
      <trkpt lat="42.5902810" lon="2.6119300">
        <ele>375.4</ele>
        <time>2020-07-21T08:27:49Z</time>
      </trkpt>
      <trkpt lat="42.5903960" lon="2.6119960">
        <ele>375.4</ele>
        <time>2020-07-21T08:27:51Z</time>
      </trkpt>
      <trkpt lat="42.5905000" lon="2.6120930">
        <ele>375.2</ele>
        <time>2020-07-21T08:27:53Z</time>
      </trkpt>
      <trkpt lat="42.5906140" lon="2.6121710">
        <ele>375.0</ele>
        <time>2020-07-21T08:27:55Z</time>
      </trkpt>
      <trkpt lat="42.5906790" lon="2.6121980">
        <ele>374.8</ele>
        <time>2020-07-21T08:27:56Z</time>
      </trkpt>
      <trkpt lat="42.5907450" lon="2.6122130">
        <ele>374.8</ele>
        <time>2020-07-21T08:27:57Z</time>
      </trkpt>
      <trkpt lat="42.5909990" lon="2.6122770">
        <ele>375.2</ele>
        <time>2020-07-21T08:28:01Z</time>
      </trkpt>
      <trkpt lat="42.5913720" lon="2.6124360">
        <ele>376.0</ele>
        <time>2020-07-21T08:28:07Z</time>
      </trkpt>
      <trkpt lat="42.5914350" lon="2.6124750">
        <ele>376.2</ele>
        <time>2020-07-21T08:28:08Z</time>
      </trkpt>
      <trkpt lat="42.5915960" lon="2.6126570">
        <ele>375.8</ele>
        <time>2020-07-21T08:28:11Z</time>
      </trkpt>
      <trkpt lat="42.5917520" lon="2.6128660">
        <ele>375.4</ele>
        <time>2020-07-21T08:28:14Z</time>
      </trkpt>
      <trkpt lat="42.5920030" lon="2.6132320">
        <ele>374.8</ele>
        <time>2020-07-21T08:28:19Z</time>
      </trkpt>
      <trkpt lat="42.5920550" lon="2.6133030">
        <ele>374.4</ele>
        <time>2020-07-21T08:28:20Z</time>
      </trkpt>
      <trkpt lat="42.5922210" lon="2.6136350">
        <ele>374.2</ele>
        <time>2020-07-21T08:28:24Z</time>
      </trkpt>
      <trkpt lat="42.5922550" lon="2.6137250">
        <ele>374.2</ele>
        <time>2020-07-21T08:28:25Z</time>
      </trkpt>
      <trkpt lat="42.5924340" lon="2.6142730">
        <ele>373.6</ele>
        <time>2020-07-21T08:28:31Z</time>
      </trkpt>
      <trkpt lat="42.5925680" lon="2.6144880">
        <ele>373.4</ele>
        <time>2020-07-21T08:28:34Z</time>
      </trkpt>
      <trkpt lat="42.5926790" lon="2.6146120">
        <ele>373.6</ele>
        <time>2020-07-21T08:28:36Z</time>
      </trkpt>
      <trkpt lat="42.5929280" lon="2.6148060">
        <ele>372.8</ele>
        <time>2020-07-21T08:28:40Z</time>
      </trkpt>
      <trkpt lat="42.5929900" lon="2.6148560">
        <ele>373.0</ele>
        <time>2020-07-21T08:28:41Z</time>
      </trkpt>
      <trkpt lat="42.5933480" lon="2.6151930">
        <ele>372.8</ele>
        <time>2020-07-21T08:28:47Z</time>
      </trkpt>
      <trkpt lat="42.5933920" lon="2.6152670">
        <ele>372.6</ele>
        <time>2020-07-21T08:28:48Z</time>
      </trkpt>
      <trkpt lat="42.5934330" lon="2.6153420">
        <ele>372.6</ele>
        <time>2020-07-21T08:28:49Z</time>
      </trkpt>
      <trkpt lat="42.5935280" lon="2.6154700">
        <ele>372.6</ele>
        <time>2020-07-21T08:28:51Z</time>
      </trkpt>
      <trkpt lat="42.5935940" lon="2.6155010">
        <ele>372.8</ele>
        <time>2020-07-21T08:28:52Z</time>
      </trkpt>
      <trkpt lat="42.5936660" lon="2.6155190">
        <ele>372.6</ele>
        <time>2020-07-21T08:28:53Z</time>
      </trkpt>
      <trkpt lat="42.5938160" lon="2.6154900">
        <ele>372.6</ele>
        <time>2020-07-21T08:28:55Z</time>
      </trkpt>
      <trkpt lat="42.5939520" lon="2.6154570">
        <ele>372.8</ele>
        <time>2020-07-21T08:28:57Z</time>
      </trkpt>
      <trkpt lat="42.5940870" lon="2.6154930">
        <ele>372.8</ele>
        <time>2020-07-21T08:28:59Z</time>
      </trkpt>
      <trkpt lat="42.5941840" lon="2.6156170">
        <ele>373.0</ele>
        <time>2020-07-21T08:29:01Z</time>
      </trkpt>
      <trkpt lat="42.5942140" lon="2.6157020">
        <ele>373.0</ele>
        <time>2020-07-21T08:29:02Z</time>
      </trkpt>
      <trkpt lat="42.5942490" lon="2.6157870">
        <ele>372.8</ele>
        <time>2020-07-21T08:29:03Z</time>
      </trkpt>
      <trkpt lat="42.5943410" lon="2.6159310">
        <ele>372.4</ele>
        <time>2020-07-21T08:29:05Z</time>
      </trkpt>
      <trkpt lat="42.5943970" lon="2.6159940">
        <ele>372.4</ele>
        <time>2020-07-21T08:29:06Z</time>
      </trkpt>
      <trkpt lat="42.5945780" lon="2.6161770">
        <ele>372.2</ele>
        <time>2020-07-21T08:29:09Z</time>
      </trkpt>
      <trkpt lat="42.5948080" lon="2.6164460">
        <ele>372.0</ele>
        <time>2020-07-21T08:29:13Z</time>
      </trkpt>
      <trkpt lat="42.5949140" lon="2.6165700">
        <ele>371.8</ele>
        <time>2020-07-21T08:29:15Z</time>
      </trkpt>
      <trkpt lat="42.5949830" lon="2.6165870">
        <ele>371.8</ele>
        <time>2020-07-21T08:29:16Z</time>
      </trkpt>
      <trkpt lat="42.5950480" lon="2.6165750">
        <ele>371.8</ele>
        <time>2020-07-21T08:29:17Z</time>
      </trkpt>
      <trkpt lat="42.5951030" lon="2.6165150">
        <ele>371.6</ele>
        <time>2020-07-21T08:29:18Z</time>
      </trkpt>
      <trkpt lat="42.5951550" lon="2.6164390">
        <ele>371.2</ele>
        <time>2020-07-21T08:29:19Z</time>
      </trkpt>
      <trkpt lat="42.5952620" lon="2.6162650">
        <ele>370.6</ele>
        <time>2020-07-21T08:29:21Z</time>
      </trkpt>
      <trkpt lat="42.5954540" lon="2.6160060">
        <ele>369.4</ele>
        <time>2020-07-21T08:29:24Z</time>
      </trkpt>
      <trkpt lat="42.5955970" lon="2.6158520">
        <ele>368.8</ele>
        <time>2020-07-21T08:29:26Z</time>
      </trkpt>
      <trkpt lat="42.5957480" lon="2.6157210">
        <ele>368.2</ele>
        <time>2020-07-21T08:29:28Z</time>
      </trkpt>
      <trkpt lat="42.5959890" lon="2.6155680">
        <ele>366.6</ele>
        <time>2020-07-21T08:29:31Z</time>
      </trkpt>
      <trkpt lat="42.5961670" lon="2.6155300">
        <ele>366.0</ele>
        <time>2020-07-21T08:29:33Z</time>
      </trkpt>
      <trkpt lat="42.5962550" lon="2.6155320">
        <ele>365.8</ele>
        <time>2020-07-21T08:29:34Z</time>
      </trkpt>
      <trkpt lat="42.5963420" lon="2.6155520">
        <ele>365.8</ele>
        <time>2020-07-21T08:29:35Z</time>
      </trkpt>
      <trkpt lat="42.5965130" lon="2.6156060">
        <ele>365.4</ele>
        <time>2020-07-21T08:29:37Z</time>
      </trkpt>
      <trkpt lat="42.5965970" lon="2.6156420">
        <ele>365.6</ele>
        <time>2020-07-21T08:29:38Z</time>
      </trkpt>
      <trkpt lat="42.5969340" lon="2.6158060">
        <ele>364.6</ele>
        <time>2020-07-21T08:29:42Z</time>
      </trkpt>
      <trkpt lat="42.5970190" lon="2.6158250">
        <ele>364.2</ele>
        <time>2020-07-21T08:29:43Z</time>
      </trkpt>
      <trkpt lat="42.5971050" lon="2.6158170">
        <ele>363.8</ele>
        <time>2020-07-21T08:29:44Z</time>
      </trkpt>
      <trkpt lat="42.5972750" lon="2.6157060">
        <ele>363.2</ele>
        <time>2020-07-21T08:29:46Z</time>
      </trkpt>
      <trkpt lat="42.5976820" lon="2.6153780">
        <ele>361.6</ele>
        <time>2020-07-21T08:29:51Z</time>
      </trkpt>
      <trkpt lat="42.5979290" lon="2.6151980">
        <ele>360.4</ele>
        <time>2020-07-21T08:29:54Z</time>
      </trkpt>
      <trkpt lat="42.5980170" lon="2.6151570">
        <ele>359.8</ele>
        <time>2020-07-21T08:29:55Z</time>
      </trkpt>
      <trkpt lat="42.5981100" lon="2.6151280">
        <ele>359.4</ele>
        <time>2020-07-21T08:29:56Z</time>
      </trkpt>
      <trkpt lat="42.5982060" lon="2.6151000">
        <ele>359.2</ele>
        <time>2020-07-21T08:29:57Z</time>
      </trkpt>
      <trkpt lat="42.5985770" lon="2.6149630">
        <ele>358.0</ele>
        <time>2020-07-21T08:30:01Z</time>
      </trkpt>
      <trkpt lat="42.5986520" lon="2.6149080">
        <ele>357.4</ele>
        <time>2020-07-21T08:30:02Z</time>
      </trkpt>
      <trkpt lat="42.5987120" lon="2.6148360">
        <ele>357.0</ele>
        <time>2020-07-21T08:30:03Z</time>
      </trkpt>
      <trkpt lat="42.5987630" lon="2.6147470">
        <ele>356.6</ele>
        <time>2020-07-21T08:30:04Z</time>
      </trkpt>
      <trkpt lat="42.5987930" lon="2.6146570">
        <ele>356.4</ele>
        <time>2020-07-21T08:30:05Z</time>
      </trkpt>
      <trkpt lat="42.5988090" lon="2.6145640">
        <ele>356.0</ele>
        <time>2020-07-21T08:30:06Z</time>
      </trkpt>
      <trkpt lat="42.5988060" lon="2.6144530">
        <ele>355.8</ele>
        <time>2020-07-21T08:30:07Z</time>
      </trkpt>
      <trkpt lat="42.5987950" lon="2.6143280">
        <ele>355.2</ele>
        <time>2020-07-21T08:30:08Z</time>
      </trkpt>
      <trkpt lat="42.5988010" lon="2.6142090">
        <ele>354.6</ele>
        <time>2020-07-21T08:30:09Z</time>
      </trkpt>
      <trkpt lat="42.5988190" lon="2.6139690">
        <ele>353.4</ele>
        <time>2020-07-21T08:30:11Z</time>
      </trkpt>
      <trkpt lat="42.5988750" lon="2.6136220">
        <ele>352.2</ele>
        <time>2020-07-21T08:30:14Z</time>
      </trkpt>
      <trkpt lat="42.5988940" lon="2.6135110">
        <ele>351.6</ele>
        <time>2020-07-21T08:30:15Z</time>
      </trkpt>
      <trkpt lat="42.5989570" lon="2.6133270">
        <ele>351.0</ele>
        <time>2020-07-21T08:30:17Z</time>
      </trkpt>
      <trkpt lat="42.5990110" lon="2.6132750">
        <ele>350.8</ele>
        <time>2020-07-21T08:30:18Z</time>
      </trkpt>
      <trkpt lat="42.5990780" lon="2.6132540">
        <ele>350.6</ele>
        <time>2020-07-21T08:30:19Z</time>
      </trkpt>
      <trkpt lat="42.5991460" lon="2.6132670">
        <ele>350.6</ele>
        <time>2020-07-21T08:30:20Z</time>
      </trkpt>
      <trkpt lat="42.5992020" lon="2.6133100">
        <ele>350.8</ele>
        <time>2020-07-21T08:30:21Z</time>
      </trkpt>
      <trkpt lat="42.5992380" lon="2.6133770">
        <ele>351.0</ele>
        <time>2020-07-21T08:30:22Z</time>
      </trkpt>
      <trkpt lat="42.5992620" lon="2.6134620">
        <ele>351.2</ele>
        <time>2020-07-21T08:30:23Z</time>
      </trkpt>
      <trkpt lat="42.5992880" lon="2.6136440">
        <ele>351.2</ele>
        <time>2020-07-21T08:30:25Z</time>
      </trkpt>
      <trkpt lat="42.5993590" lon="2.6141710">
        <ele>351.2</ele>
        <time>2020-07-21T08:30:31Z</time>
      </trkpt>
      <trkpt lat="42.5994380" lon="2.6144890">
        <ele>351.6</ele>
        <time>2020-07-21T08:30:35Z</time>
      </trkpt>
      <trkpt lat="42.5994890" lon="2.6146310">
        <ele>352.8</ele>
        <time>2020-07-21T08:30:37Z</time>
      </trkpt>
      <trkpt lat="42.5995580" lon="2.6147410">
        <ele>353.8</ele>
        <time>2020-07-21T08:30:39Z</time>
      </trkpt>
      <trkpt lat="42.5996480" lon="2.6148130">
        <ele>354.2</ele>
        <time>2020-07-21T08:30:41Z</time>
      </trkpt>
      <trkpt lat="42.5997520" lon="2.6148500">
        <ele>354.6</ele>
        <time>2020-07-21T08:30:43Z</time>
      </trkpt>
      <trkpt lat="42.5998620" lon="2.6148500">
        <ele>354.8</ele>
        <time>2020-07-21T08:30:45Z</time>
      </trkpt>
      <trkpt lat="42.5999700" lon="2.6148160">
        <ele>355.4</ele>
        <time>2020-07-21T08:30:47Z</time>
      </trkpt>
      <trkpt lat="42.6000650" lon="2.6147310">
        <ele>356.0</ele>
        <time>2020-07-21T08:30:49Z</time>
      </trkpt>
      <trkpt lat="42.6003120" lon="2.6144240">
        <ele>357.2</ele>
        <time>2020-07-21T08:30:55Z</time>
      </trkpt>
      <trkpt lat="42.6003550" lon="2.6143700">
        <ele>357.2</ele>
        <time>2020-07-21T08:30:56Z</time>
      </trkpt>
      <trkpt lat="42.6006120" lon="2.6140180">
        <ele>358.0</ele>
        <time>2020-07-21T08:31:02Z</time>
      </trkpt>
      <trkpt lat="42.6006420" lon="2.6139450">
        <ele>358.2</ele>
        <time>2020-07-21T08:31:03Z</time>
      </trkpt>
      <trkpt lat="42.6006680" lon="2.6138680">
        <ele>358.4</ele>
        <time>2020-07-21T08:31:04Z</time>
      </trkpt>
      <trkpt lat="42.6007290" lon="2.6135370">
        <ele>358.6</ele>
        <time>2020-07-21T08:31:08Z</time>
      </trkpt>
      <trkpt lat="42.6007540" lon="2.6133580">
        <ele>358.4</ele>
        <time>2020-07-21T08:31:10Z</time>
      </trkpt>
      <trkpt lat="42.6007870" lon="2.6131820">
        <ele>358.2</ele>
        <time>2020-07-21T08:31:12Z</time>
      </trkpt>
      <trkpt lat="42.6008080" lon="2.6130950">
        <ele>358.0</ele>
        <time>2020-07-21T08:31:13Z</time>
      </trkpt>
      <trkpt lat="42.6008570" lon="2.6129250">
        <ele>357.8</ele>
        <time>2020-07-21T08:31:15Z</time>
      </trkpt>
      <trkpt lat="42.6009440" lon="2.6126730">
        <ele>357.4</ele>
        <time>2020-07-21T08:31:18Z</time>
      </trkpt>
      <trkpt lat="42.6009750" lon="2.6125910">
        <ele>357.4</ele>
        <time>2020-07-21T08:31:19Z</time>
      </trkpt>
      <trkpt lat="42.6010720" lon="2.6122500">
        <ele>357.6</ele>
        <time>2020-07-21T08:31:23Z</time>
      </trkpt>
      <trkpt lat="42.6012170" lon="2.6117170">
        <ele>357.8</ele>
        <time>2020-07-21T08:31:29Z</time>
      </trkpt>
      <trkpt lat="42.6012550" lon="2.6116260">
        <ele>357.8</ele>
        <time>2020-07-21T08:31:30Z</time>
      </trkpt>
      <trkpt lat="42.6013500" lon="2.6112550">
        <ele>357.8</ele>
        <time>2020-07-21T08:31:35Z</time>
      </trkpt>
      <trkpt lat="42.6013750" lon="2.6111950">
        <ele>357.8</ele>
        <time>2020-07-21T08:31:36Z</time>
      </trkpt>
      <trkpt lat="42.6015430" lon="2.6111770">
        <ele>357.4</ele>
        <time>2020-07-21T08:31:39Z</time>
      </trkpt>
      <trkpt lat="42.6016190" lon="2.6112110">
        <ele>357.2</ele>
        <time>2020-07-21T08:31:40Z</time>
      </trkpt>
      <trkpt lat="42.6018250" lon="2.6112880">
        <ele>356.4</ele>
        <time>2020-07-21T08:31:43Z</time>
      </trkpt>
      <trkpt lat="42.6018970" lon="2.6113120">
        <ele>356.0</ele>
        <time>2020-07-21T08:31:44Z</time>
      </trkpt>
      <trkpt lat="42.6020410" lon="2.6113810">
        <ele>355.6</ele>
        <time>2020-07-21T08:31:46Z</time>
      </trkpt>
      <trkpt lat="42.6021070" lon="2.6114340">
        <ele>355.4</ele>
        <time>2020-07-21T08:31:47Z</time>
      </trkpt>
      <trkpt lat="42.6022950" lon="2.6115780">
        <ele>355.6</ele>
        <time>2020-07-21T08:31:50Z</time>
      </trkpt>
      <trkpt lat="42.6023620" lon="2.6116080">
        <ele>355.8</ele>
        <time>2020-07-21T08:31:51Z</time>
      </trkpt>
      <trkpt lat="42.6024910" lon="2.6116660">
        <ele>356.0</ele>
        <time>2020-07-21T08:31:53Z</time>
      </trkpt>
      <trkpt lat="42.6026100" lon="2.6117550">
        <ele>356.2</ele>
        <time>2020-07-21T08:31:55Z</time>
      </trkpt>
      <trkpt lat="42.6026620" lon="2.6118080">
        <ele>356.2</ele>
        <time>2020-07-21T08:31:56Z</time>
      </trkpt>
      <trkpt lat="42.6027650" lon="2.6119100">
        <ele>356.2</ele>
        <time>2020-07-21T08:31:58Z</time>
      </trkpt>
      <trkpt lat="42.6028980" lon="2.6120960">
        <ele>356.0</ele>
        <time>2020-07-21T08:32:01Z</time>
      </trkpt>
      <trkpt lat="42.6031190" lon="2.6124290">
        <ele>356.4</ele>
        <time>2020-07-21T08:32:06Z</time>
      </trkpt>
      <trkpt lat="42.6032780" lon="2.6126110">
        <ele>356.6</ele>
        <time>2020-07-21T08:32:09Z</time>
      </trkpt>
      <trkpt lat="42.6035880" lon="2.6130010">
        <ele>356.4</ele>
        <time>2020-07-21T08:32:15Z</time>
      </trkpt>
      <trkpt lat="42.6036330" lon="2.6130740">
        <ele>356.4</ele>
        <time>2020-07-21T08:32:16Z</time>
      </trkpt>
      <trkpt lat="42.6037720" lon="2.6132660">
        <ele>356.4</ele>
        <time>2020-07-21T08:32:19Z</time>
      </trkpt>
      <trkpt lat="42.6039170" lon="2.6132770">
        <ele>356.4</ele>
        <time>2020-07-21T08:32:21Z</time>
      </trkpt>
      <trkpt lat="42.6040490" lon="2.6131450">
        <ele>355.6</ele>
        <time>2020-07-21T08:32:23Z</time>
      </trkpt>
      <trkpt lat="42.6041160" lon="2.6129630">
        <ele>355.2</ele>
        <time>2020-07-21T08:32:25Z</time>
      </trkpt>
      <trkpt lat="42.6041340" lon="2.6128640">
        <ele>355.0</ele>
        <time>2020-07-21T08:32:26Z</time>
      </trkpt>
      <trkpt lat="42.6041480" lon="2.6127660">
        <ele>355.0</ele>
        <time>2020-07-21T08:32:27Z</time>
      </trkpt>
      <trkpt lat="42.6042110" lon="2.6122620">
        <ele>354.2</ele>
        <time>2020-07-21T08:32:32Z</time>
      </trkpt>
      <trkpt lat="42.6042640" lon="2.6120660">
        <ele>354.0</ele>
        <time>2020-07-21T08:32:34Z</time>
      </trkpt>
      <trkpt lat="42.6043560" lon="2.6118980">
        <ele>353.8</ele>
        <time>2020-07-21T08:32:36Z</time>
      </trkpt>
      <trkpt lat="42.6045450" lon="2.6115510">
        <ele>353.2</ele>
        <time>2020-07-21T08:32:40Z</time>
      </trkpt>
      <trkpt lat="42.6046030" lon="2.6114920">
        <ele>352.8</ele>
        <time>2020-07-21T08:32:41Z</time>
      </trkpt>
      <trkpt lat="42.6046770" lon="2.6114580">
        <ele>352.4</ele>
        <time>2020-07-21T08:32:42Z</time>
      </trkpt>
      <trkpt lat="42.6048330" lon="2.6114210">
        <ele>351.4</ele>
        <time>2020-07-21T08:32:44Z</time>
      </trkpt>
      <trkpt lat="42.6050590" lon="2.6113220">
        <ele>350.0</ele>
        <time>2020-07-21T08:32:47Z</time>
      </trkpt>
      <trkpt lat="42.6052180" lon="2.6112380">
        <ele>349.4</ele>
        <time>2020-07-21T08:32:49Z</time>
      </trkpt>
      <trkpt lat="42.6053920" lon="2.6111660">
        <ele>348.4</ele>
        <time>2020-07-21T08:32:51Z</time>
      </trkpt>
      <trkpt lat="42.6055870" lon="2.6111200">
        <ele>346.8</ele>
        <time>2020-07-21T08:32:53Z</time>
      </trkpt>
      <trkpt lat="42.6056820" lon="2.6110990">
        <ele>346.2</ele>
        <time>2020-07-21T08:32:54Z</time>
      </trkpt>
      <trkpt lat="42.6057720" lon="2.6110660">
        <ele>345.6</ele>
        <time>2020-07-21T08:32:55Z</time>
      </trkpt>
      <trkpt lat="42.6059530" lon="2.6109500">
        <ele>344.6</ele>
        <time>2020-07-21T08:32:57Z</time>
      </trkpt>
      <trkpt lat="42.6060370" lon="2.6108680">
        <ele>343.8</ele>
        <time>2020-07-21T08:32:58Z</time>
      </trkpt>
      <trkpt lat="42.6061150" lon="2.6107750">
        <ele>343.0</ele>
        <time>2020-07-21T08:32:59Z</time>
      </trkpt>
      <trkpt lat="42.6062200" lon="2.6105490">
        <ele>341.8</ele>
        <time>2020-07-21T08:33:01Z</time>
      </trkpt>
      <trkpt lat="42.6062490" lon="2.6104340">
        <ele>341.2</ele>
        <time>2020-07-21T08:33:02Z</time>
      </trkpt>
      <trkpt lat="42.6062530" lon="2.6102160">
        <ele>340.2</ele>
        <time>2020-07-21T08:33:04Z</time>
      </trkpt>
      <trkpt lat="42.6061780" lon="2.6099740">
        <ele>339.0</ele>
        <time>2020-07-21T08:33:06Z</time>
      </trkpt>
      <trkpt lat="42.6061180" lon="2.6098620">
        <ele>338.4</ele>
        <time>2020-07-21T08:33:07Z</time>
      </trkpt>
      <trkpt lat="42.6060530" lon="2.6097600">
        <ele>337.8</ele>
        <time>2020-07-21T08:33:08Z</time>
      </trkpt>
      <trkpt lat="42.6058750" lon="2.6094800">
        <ele>336.4</ele>
        <time>2020-07-21T08:33:11Z</time>
      </trkpt>
      <trkpt lat="42.6058360" lon="2.6093930">
        <ele>336.2</ele>
        <time>2020-07-21T08:33:12Z</time>
      </trkpt>
      <trkpt lat="42.6058140" lon="2.6093090">
        <ele>335.8</ele>
        <time>2020-07-21T08:33:13Z</time>
      </trkpt>
      <trkpt lat="42.6058240" lon="2.6091320">
        <ele>335.4</ele>
        <time>2020-07-21T08:33:15Z</time>
      </trkpt>
      <trkpt lat="42.6058510" lon="2.6090550">
        <ele>335.0</ele>
        <time>2020-07-21T08:33:16Z</time>
      </trkpt>
      <trkpt lat="42.6059690" lon="2.6089810">
        <ele>334.4</ele>
        <time>2020-07-21T08:33:18Z</time>
      </trkpt>
      <trkpt lat="42.6060680" lon="2.6089910">
        <ele>334.2</ele>
        <time>2020-07-21T08:33:19Z</time>
      </trkpt>
      <trkpt lat="42.6061850" lon="2.6090250">
        <ele>334.0</ele>
        <time>2020-07-21T08:33:20Z</time>
      </trkpt>
      <trkpt lat="42.6063650" lon="2.6090740">
        <ele>333.0</ele>
        <time>2020-07-21T08:33:22Z</time>
      </trkpt>
      <trkpt lat="42.6064530" lon="2.6090970">
        <ele>332.0</ele>
        <time>2020-07-21T08:33:23Z</time>
      </trkpt>
      <trkpt lat="42.6065420" lon="2.6091110">
        <ele>331.2</ele>
        <time>2020-07-21T08:33:24Z</time>
      </trkpt>
      <trkpt lat="42.6066260" lon="2.6091130">
        <ele>330.6</ele>
        <time>2020-07-21T08:33:25Z</time>
      </trkpt>
      <trkpt lat="42.6067200" lon="2.6090780">
        <ele>330.0</ele>
        <time>2020-07-21T08:33:26Z</time>
      </trkpt>
      <trkpt lat="42.6068840" lon="2.6089570">
        <ele>328.8</ele>
        <time>2020-07-21T08:33:28Z</time>
      </trkpt>
      <trkpt lat="42.6072150" lon="2.6086840">
        <ele>327.6</ele>
        <time>2020-07-21T08:33:32Z</time>
      </trkpt>
      <trkpt lat="42.6073880" lon="2.6085260">
        <ele>326.4</ele>
        <time>2020-07-21T08:33:34Z</time>
      </trkpt>
      <trkpt lat="42.6076380" lon="2.6082320">
        <ele>325.0</ele>
        <time>2020-07-21T08:33:37Z</time>
      </trkpt>
      <trkpt lat="42.6078080" lon="2.6080460">
        <ele>324.2</ele>
        <time>2020-07-21T08:33:39Z</time>
      </trkpt>
      <trkpt lat="42.6078730" lon="2.6079510">
        <ele>323.8</ele>
        <time>2020-07-21T08:33:40Z</time>
      </trkpt>
      <trkpt lat="42.6079490" lon="2.6077380">
        <ele>322.8</ele>
        <time>2020-07-21T08:33:42Z</time>
      </trkpt>
      <trkpt lat="42.6079510" lon="2.6076310">
        <ele>322.2</ele>
        <time>2020-07-21T08:33:43Z</time>
      </trkpt>
      <trkpt lat="42.6079250" lon="2.6075290">
        <ele>321.6</ele>
        <time>2020-07-21T08:33:44Z</time>
      </trkpt>
      <trkpt lat="42.6078760" lon="2.6074380">
        <ele>321.0</ele>
        <time>2020-07-21T08:33:45Z</time>
      </trkpt>
      <trkpt lat="42.6078130" lon="2.6073590">
        <ele>320.6</ele>
        <time>2020-07-21T08:33:46Z</time>
      </trkpt>
      <trkpt lat="42.6077430" lon="2.6072910">
        <ele>320.2</ele>
        <time>2020-07-21T08:33:47Z</time>
      </trkpt>
      <trkpt lat="42.6076650" lon="2.6072310">
        <ele>320.0</ele>
        <time>2020-07-21T08:33:48Z</time>
      </trkpt>
      <trkpt lat="42.6074360" lon="2.6070460">
        <ele>318.8</ele>
        <time>2020-07-21T08:33:51Z</time>
      </trkpt>
      <trkpt lat="42.6073800" lon="2.6069740">
        <ele>318.2</ele>
        <time>2020-07-21T08:33:52Z</time>
      </trkpt>
      <trkpt lat="42.6073320" lon="2.6068070">
        <ele>317.4</ele>
        <time>2020-07-21T08:33:54Z</time>
      </trkpt>
      <trkpt lat="42.6073730" lon="2.6066380">
        <ele>316.8</ele>
        <time>2020-07-21T08:33:56Z</time>
      </trkpt>
      <trkpt lat="42.6074320" lon="2.6065840">
        <ele>316.4</ele>
        <time>2020-07-21T08:33:57Z</time>
      </trkpt>
      <trkpt lat="42.6075020" lon="2.6065680">
        <ele>316.4</ele>
        <time>2020-07-21T08:33:58Z</time>
      </trkpt>
      <trkpt lat="42.6075710" lon="2.6065830">
        <ele>316.0</ele>
        <time>2020-07-21T08:33:59Z</time>
      </trkpt>
      <trkpt lat="42.6076400" lon="2.6066140">
        <ele>315.8</ele>
        <time>2020-07-21T08:34:00Z</time>
      </trkpt>
      <trkpt lat="42.6077930" lon="2.6066600">
        <ele>315.2</ele>
        <time>2020-07-21T08:34:02Z</time>
      </trkpt>
      <trkpt lat="42.6078760" lon="2.6066590">
        <ele>315.0</ele>
        <time>2020-07-21T08:34:03Z</time>
      </trkpt>
      <trkpt lat="42.6080340" lon="2.6066360">
        <ele>314.4</ele>
        <time>2020-07-21T08:34:05Z</time>
      </trkpt>
      <trkpt lat="42.6081890" lon="2.6065970">
        <ele>314.0</ele>
        <time>2020-07-21T08:34:07Z</time>
      </trkpt>
      <trkpt lat="42.6082670" lon="2.6065710">
        <ele>314.0</ele>
        <time>2020-07-21T08:34:08Z</time>
      </trkpt>
      <trkpt lat="42.6083380" lon="2.6065260">
        <ele>314.0</ele>
        <time>2020-07-21T08:34:09Z</time>
      </trkpt>
      <trkpt lat="42.6084130" lon="2.6063830">
        <ele>314.0</ele>
        <time>2020-07-21T08:34:11Z</time>
      </trkpt>
      <trkpt lat="42.6084110" lon="2.6062020">
        <ele>314.0</ele>
        <time>2020-07-21T08:34:13Z</time>
      </trkpt>
      <trkpt lat="42.6084010" lon="2.6061080">
        <ele>314.0</ele>
        <time>2020-07-21T08:34:14Z</time>
      </trkpt>
      <trkpt lat="42.6083880" lon="2.6057120">
        <ele>313.6</ele>
        <time>2020-07-21T08:34:18Z</time>
      </trkpt>
      <trkpt lat="42.6084220" lon="2.6055110">
        <ele>313.4</ele>
        <time>2020-07-21T08:34:20Z</time>
      </trkpt>
      <trkpt lat="42.6085090" lon="2.6053460">
        <ele>313.4</ele>
        <time>2020-07-21T08:34:22Z</time>
      </trkpt>
      <trkpt lat="42.6085620" lon="2.6052730">
        <ele>313.4</ele>
        <time>2020-07-21T08:34:23Z</time>
      </trkpt>
      <trkpt lat="42.6088590" lon="2.6049310">
        <ele>313.2</ele>
        <time>2020-07-21T08:34:28Z</time>
      </trkpt>
      <trkpt lat="42.6089120" lon="2.6048540">
        <ele>313.0</ele>
        <time>2020-07-21T08:34:29Z</time>
      </trkpt>
      <trkpt lat="42.6090450" lon="2.6046050">
        <ele>312.4</ele>
        <time>2020-07-21T08:34:32Z</time>
      </trkpt>
      <trkpt lat="42.6091370" lon="2.6044310">
        <ele>312.0</ele>
        <time>2020-07-21T08:34:34Z</time>
      </trkpt>
      <trkpt lat="42.6093570" lon="2.6041090">
        <ele>310.8</ele>
        <time>2020-07-21T08:34:38Z</time>
      </trkpt>
      <trkpt lat="42.6094230" lon="2.6040430">
        <ele>310.4</ele>
        <time>2020-07-21T08:34:39Z</time>
      </trkpt>
      <trkpt lat="42.6095570" lon="2.6039190">
        <ele>309.6</ele>
        <time>2020-07-21T08:34:41Z</time>
      </trkpt>
      <trkpt lat="42.6096260" lon="2.6038650">
        <ele>309.4</ele>
        <time>2020-07-21T08:34:42Z</time>
      </trkpt>
      <trkpt lat="42.6096970" lon="2.6038220">
        <ele>309.4</ele>
        <time>2020-07-21T08:34:43Z</time>
      </trkpt>
      <trkpt lat="42.6099140" lon="2.6037280">
        <ele>309.2</ele>
        <time>2020-07-21T08:34:46Z</time>
      </trkpt>
      <trkpt lat="42.6102060" lon="2.6036540">
        <ele>308.4</ele>
        <time>2020-07-21T08:34:50Z</time>
      </trkpt>
      <trkpt lat="42.6103450" lon="2.6036520">
        <ele>307.8</ele>
        <time>2020-07-21T08:34:52Z</time>
      </trkpt>
      <trkpt lat="42.6106170" lon="2.6037590">
        <ele>307.6</ele>
        <time>2020-07-21T08:34:56Z</time>
      </trkpt>
      <trkpt lat="42.6108880" lon="2.6039460">
        <ele>307.4</ele>
        <time>2020-07-21T08:35:00Z</time>
      </trkpt>
      <trkpt lat="42.6110150" lon="2.6040620">
        <ele>306.8</ele>
        <time>2020-07-21T08:35:02Z</time>
      </trkpt>
      <trkpt lat="42.6111420" lon="2.6041700">
        <ele>306.4</ele>
        <time>2020-07-21T08:35:04Z</time>
      </trkpt>
      <trkpt lat="42.6113410" lon="2.6043050">
        <ele>306.4</ele>
        <time>2020-07-21T08:35:07Z</time>
      </trkpt>
      <trkpt lat="42.6114810" lon="2.6043720">
        <ele>306.2</ele>
        <time>2020-07-21T08:35:09Z</time>
      </trkpt>
      <trkpt lat="42.6115590" lon="2.6043840">
        <ele>306.2</ele>
        <time>2020-07-21T08:35:10Z</time>
      </trkpt>
      <trkpt lat="42.6117080" lon="2.6043170">
        <ele>305.8</ele>
        <time>2020-07-21T08:35:12Z</time>
      </trkpt>
      <trkpt lat="42.6117590" lon="2.6042310">
        <ele>305.8</ele>
        <time>2020-07-21T08:35:13Z</time>
      </trkpt>
      <trkpt lat="42.6117820" lon="2.6041370">
        <ele>305.8</ele>
        <time>2020-07-21T08:35:14Z</time>
      </trkpt>
      <trkpt lat="42.6117770" lon="2.6039330">
        <ele>305.8</ele>
        <time>2020-07-21T08:35:16Z</time>
      </trkpt>
      <trkpt lat="42.6117620" lon="2.6038260">
        <ele>305.8</ele>
        <time>2020-07-21T08:35:17Z</time>
      </trkpt>
      <trkpt lat="42.6117140" lon="2.6036110">
        <ele>305.8</ele>
        <time>2020-07-21T08:35:19Z</time>
      </trkpt>
      <trkpt lat="42.6116260" lon="2.6034140">
        <ele>305.6</ele>
        <time>2020-07-21T08:35:21Z</time>
      </trkpt>
      <trkpt lat="42.6115680" lon="2.6033190">
        <ele>305.4</ele>
        <time>2020-07-21T08:35:22Z</time>
      </trkpt>
      <trkpt lat="42.6114480" lon="2.6031280">
        <ele>304.2</ele>
        <time>2020-07-21T08:35:24Z</time>
      </trkpt>
      <trkpt lat="42.6113400" lon="2.6029240">
        <ele>303.4</ele>
        <time>2020-07-21T08:35:26Z</time>
      </trkpt>
      <trkpt lat="42.6112510" lon="2.6027110">
        <ele>303.0</ele>
        <time>2020-07-21T08:35:28Z</time>
      </trkpt>
      <trkpt lat="42.6112060" lon="2.6024740">
        <ele>301.6</ele>
        <time>2020-07-21T08:35:30Z</time>
      </trkpt>
      <trkpt lat="42.6112040" lon="2.6022200">
        <ele>300.4</ele>
        <time>2020-07-21T08:35:32Z</time>
      </trkpt>
      <trkpt lat="42.6112420" lon="2.6019620">
        <ele>299.8</ele>
        <time>2020-07-21T08:35:34Z</time>
      </trkpt>
      <trkpt lat="42.6112770" lon="2.6018370">
        <ele>299.4</ele>
        <time>2020-07-21T08:35:35Z</time>
      </trkpt>
      <trkpt lat="42.6113200" lon="2.6017200">
        <ele>299.0</ele>
        <time>2020-07-21T08:35:36Z</time>
      </trkpt>
      <trkpt lat="42.6113770" lon="2.6016170">
        <ele>298.6</ele>
        <time>2020-07-21T08:35:37Z</time>
      </trkpt>
      <trkpt lat="42.6114530" lon="2.6015330">
        <ele>298.0</ele>
        <time>2020-07-21T08:35:38Z</time>
      </trkpt>
      <trkpt lat="42.6115470" lon="2.6014770">
        <ele>297.4</ele>
        <time>2020-07-21T08:35:39Z</time>
      </trkpt>
      <trkpt lat="42.6117720" lon="2.6014390">
        <ele>296.6</ele>
        <time>2020-07-21T08:35:41Z</time>
      </trkpt>
      <trkpt lat="42.6119930" lon="2.6015110">
        <ele>295.6</ele>
        <time>2020-07-21T08:35:43Z</time>
      </trkpt>
      <trkpt lat="42.6120850" lon="2.6015690">
        <ele>295.4</ele>
        <time>2020-07-21T08:35:44Z</time>
      </trkpt>
      <trkpt lat="42.6121700" lon="2.6016470">
        <ele>295.2</ele>
        <time>2020-07-21T08:35:45Z</time>
      </trkpt>
      <trkpt lat="42.6122510" lon="2.6017260">
        <ele>294.8</ele>
        <time>2020-07-21T08:35:46Z</time>
      </trkpt>
      <trkpt lat="42.6123290" lon="2.6018040">
        <ele>294.2</ele>
        <time>2020-07-21T08:35:47Z</time>
      </trkpt>
      <trkpt lat="42.6124840" lon="2.6019640">
        <ele>292.6</ele>
        <time>2020-07-21T08:35:49Z</time>
      </trkpt>
      <trkpt lat="42.6126340" lon="2.6021300">
        <ele>291.2</ele>
        <time>2020-07-21T08:35:51Z</time>
      </trkpt>
      <trkpt lat="42.6127890" lon="2.6022620">
        <ele>290.4</ele>
        <time>2020-07-21T08:35:53Z</time>
      </trkpt>
      <trkpt lat="42.6128750" lon="2.6023150">
        <ele>289.8</ele>
        <time>2020-07-21T08:35:54Z</time>
      </trkpt>
      <trkpt lat="42.6130680" lon="2.6023790">
        <ele>289.2</ele>
        <time>2020-07-21T08:35:56Z</time>
      </trkpt>
      <trkpt lat="42.6131640" lon="2.6023630">
        <ele>288.8</ele>
        <time>2020-07-21T08:35:57Z</time>
      </trkpt>
      <trkpt lat="42.6135400" lon="2.6023530">
        <ele>287.6</ele>
        <time>2020-07-21T08:36:01Z</time>
      </trkpt>
      <trkpt lat="42.6138200" lon="2.6024010">
        <ele>286.4</ele>
        <time>2020-07-21T08:36:04Z</time>
      </trkpt>
      <trkpt lat="42.6140990" lon="2.6023870">
        <ele>285.0</ele>
        <time>2020-07-21T08:36:07Z</time>
      </trkpt>
      <trkpt lat="42.6144460" lon="2.6023310">
        <ele>283.8</ele>
        <time>2020-07-21T08:36:11Z</time>
      </trkpt>
      <trkpt lat="42.6145250" lon="2.6023160">
        <ele>283.6</ele>
        <time>2020-07-21T08:36:12Z</time>
      </trkpt>
      <trkpt lat="42.6148610" lon="2.6022900">
        <ele>282.8</ele>
        <time>2020-07-21T08:36:16Z</time>
      </trkpt>
      <trkpt lat="42.6149460" lon="2.6022970">
        <ele>282.6</ele>
        <time>2020-07-21T08:36:17Z</time>
      </trkpt>
      <trkpt lat="42.6151070" lon="2.6023240">
        <ele>282.2</ele>
        <time>2020-07-21T08:36:19Z</time>
      </trkpt>
      <trkpt lat="42.6152590" lon="2.6023550">
        <ele>282.0</ele>
        <time>2020-07-21T08:36:21Z</time>
      </trkpt>
      <trkpt lat="42.6153330" lon="2.6023740">
        <ele>282.0</ele>
        <time>2020-07-21T08:36:22Z</time>
      </trkpt>
      <trkpt lat="42.6157510" lon="2.6025090">
        <ele>282.2</ele>
        <time>2020-07-21T08:36:28Z</time>
      </trkpt>
      <trkpt lat="42.6158250" lon="2.6025220">
        <ele>282.2</ele>
        <time>2020-07-21T08:36:29Z</time>
      </trkpt>
      <trkpt lat="42.6159750" lon="2.6025330">
        <ele>281.8</ele>
        <time>2020-07-21T08:36:31Z</time>
      </trkpt>
      <trkpt lat="42.6160590" lon="2.6025190">
        <ele>281.6</ele>
        <time>2020-07-21T08:36:32Z</time>
      </trkpt>
      <trkpt lat="42.6163020" lon="2.6024510">
        <ele>280.8</ele>
        <time>2020-07-21T08:36:35Z</time>
      </trkpt>
      <trkpt lat="42.6164430" lon="2.6023310">
        <ele>280.6</ele>
        <time>2020-07-21T08:36:37Z</time>
      </trkpt>
      <trkpt lat="42.6164990" lon="2.6022580">
        <ele>280.4</ele>
        <time>2020-07-21T08:36:38Z</time>
      </trkpt>
      <trkpt lat="42.6165490" lon="2.6021830">
        <ele>280.2</ele>
        <time>2020-07-21T08:36:39Z</time>
      </trkpt>
      <trkpt lat="42.6165700" lon="2.6020840">
        <ele>280.2</ele>
        <time>2020-07-21T08:36:40Z</time>
      </trkpt>
      <trkpt lat="42.6165880" lon="2.6019850">
        <ele>280.0</ele>
        <time>2020-07-21T08:36:41Z</time>
      </trkpt>
      <trkpt lat="42.6165970" lon="2.6018820">
        <ele>279.8</ele>
        <time>2020-07-21T08:36:42Z</time>
      </trkpt>
      <trkpt lat="42.6165970" lon="2.6017790">
        <ele>279.4</ele>
        <time>2020-07-21T08:36:43Z</time>
      </trkpt>
      <trkpt lat="42.6165880" lon="2.6015750">
        <ele>278.6</ele>
        <time>2020-07-21T08:36:45Z</time>
      </trkpt>
      <trkpt lat="42.6165740" lon="2.6014670">
        <ele>278.2</ele>
        <time>2020-07-21T08:36:46Z</time>
      </trkpt>
      <trkpt lat="42.6165410" lon="2.6010320">
        <ele>277.6</ele>
        <time>2020-07-21T08:36:50Z</time>
      </trkpt>
      <trkpt lat="42.6165410" lon="2.6008200">
        <ele>277.4</ele>
        <time>2020-07-21T08:36:52Z</time>
      </trkpt>
      <trkpt lat="42.6165480" lon="2.6007150">
        <ele>277.2</ele>
        <time>2020-07-21T08:36:53Z</time>
      </trkpt>
      <trkpt lat="42.6166220" lon="2.6002740">
        <ele>277.0</ele>
        <time>2020-07-21T08:36:57Z</time>
      </trkpt>
      <trkpt lat="42.6167410" lon="2.5998850">
        <ele>276.6</ele>
        <time>2020-07-21T08:37:01Z</time>
      </trkpt>
      <trkpt lat="42.6167620" lon="2.5998150">
        <ele>276.2</ele>
        <time>2020-07-21T08:37:02Z</time>
      </trkpt>
      <trkpt lat="42.6169270" lon="2.5998360">
        <ele>275.2</ele>
        <time>2020-07-21T08:37:04Z</time>
      </trkpt>
      <trkpt lat="42.6171870" lon="2.5999100">
        <ele>274.6</ele>
        <time>2020-07-21T08:37:06Z</time>
      </trkpt>
      <trkpt lat="42.6172650" lon="2.5999140">
        <ele>274.4</ele>
        <time>2020-07-21T08:37:07Z</time>
      </trkpt>
      <trkpt lat="42.6173340" lon="2.5999050">
        <ele>274.4</ele>
        <time>2020-07-21T08:37:08Z</time>
      </trkpt>
      <trkpt lat="42.6174520" lon="2.5998400">
        <ele>274.4</ele>
        <time>2020-07-21T08:37:10Z</time>
      </trkpt>
      <trkpt lat="42.6174860" lon="2.5997840">
        <ele>274.4</ele>
        <time>2020-07-21T08:37:11Z</time>
      </trkpt>
      <trkpt lat="42.6174590" lon="2.5996870">
        <ele>274.4</ele>
        <time>2020-07-21T08:37:12Z</time>
      </trkpt>
      <trkpt lat="42.6174040" lon="2.5996230">
        <ele>274.4</ele>
        <time>2020-07-21T08:37:13Z</time>
      </trkpt>
      <trkpt lat="42.6172880" lon="2.5995260">
        <ele>274.4</ele>
        <time>2020-07-21T08:37:15Z</time>
      </trkpt>
      <trkpt lat="42.6172260" lon="2.5994870">
        <ele>274.4</ele>
        <time>2020-07-21T08:37:16Z</time>
      </trkpt>
      <trkpt lat="42.6171600" lon="2.5994490">
        <ele>274.2</ele>
        <time>2020-07-21T08:37:17Z</time>
      </trkpt>
      <trkpt lat="42.6170340" lon="2.5993660">
        <ele>274.0</ele>
        <time>2020-07-21T08:37:19Z</time>
      </trkpt>
      <trkpt lat="42.6169180" lon="2.5992650">
        <ele>274.0</ele>
        <time>2020-07-21T08:37:21Z</time>
      </trkpt>
      <trkpt lat="42.6168700" lon="2.5992000">
        <ele>274.0</ele>
        <time>2020-07-21T08:37:22Z</time>
      </trkpt>
      <trkpt lat="42.6168280" lon="2.5991290">
        <ele>274.0</ele>
        <time>2020-07-21T08:37:23Z</time>
      </trkpt>
      <trkpt lat="42.6167530" lon="2.5989730">
        <ele>273.8</ele>
        <time>2020-07-21T08:37:25Z</time>
      </trkpt>
      <trkpt lat="42.6166830" lon="2.5988170">
        <ele>273.8</ele>
        <time>2020-07-21T08:37:27Z</time>
      </trkpt>
      <trkpt lat="42.6166000" lon="2.5985590">
        <ele>273.8</ele>
        <time>2020-07-21T08:37:30Z</time>
      </trkpt>
      <trkpt lat="42.6165670" lon="2.5983700">
        <ele>273.8</ele>
        <time>2020-07-21T08:37:32Z</time>
      </trkpt>
      <trkpt lat="42.6165650" lon="2.5982780">
        <ele>273.8</ele>
        <time>2020-07-21T08:37:33Z</time>
      </trkpt>
      <trkpt lat="42.6165650" lon="2.5982780">
        <ele>274.2</ele>
        <time>2020-07-21T08:37:39Z</time>
      </trkpt>
      <trkpt lat="42.6170270" lon="2.5976020">
        <ele>275.0</ele>
        <time>2020-07-21T08:37:44Z</time>
      </trkpt>
      <trkpt lat="42.6171500" lon="2.5976180">
        <ele>275.4</ele>
        <time>2020-07-21T08:37:45Z</time>
      </trkpt>
      <trkpt lat="42.6174720" lon="2.5976420">
        <ele>275.8</ele>
        <time>2020-07-21T08:37:49Z</time>
      </trkpt>
      <trkpt lat="42.6178980" lon="2.5977540">
        <ele>275.4</ele>
        <time>2020-07-21T08:37:55Z</time>
      </trkpt>
      <trkpt lat="42.6181900" lon="2.5978230">
        <ele>274.6</ele>
        <time>2020-07-21T08:37:59Z</time>
      </trkpt>
      <trkpt lat="42.6182590" lon="2.5978310">
        <ele>274.2</ele>
        <time>2020-07-21T08:38:00Z</time>
      </trkpt>
      <trkpt lat="42.6183270" lon="2.5978360">
        <ele>274.0</ele>
        <time>2020-07-21T08:38:01Z</time>
      </trkpt>
      <trkpt lat="42.6184580" lon="2.5978220">
        <ele>273.6</ele>
        <time>2020-07-21T08:38:03Z</time>
      </trkpt>
      <trkpt lat="42.6185870" lon="2.5977640">
        <ele>273.6</ele>
        <time>2020-07-21T08:38:05Z</time>
      </trkpt>
      <trkpt lat="42.6186520" lon="2.5977190">
        <ele>273.4</ele>
        <time>2020-07-21T08:38:06Z</time>
      </trkpt>
      <trkpt lat="42.6187180" lon="2.5976660">
        <ele>273.4</ele>
        <time>2020-07-21T08:38:07Z</time>
      </trkpt>
      <trkpt lat="42.6187820" lon="2.5976030">
        <ele>273.4</ele>
        <time>2020-07-21T08:38:08Z</time>
      </trkpt>
      <trkpt lat="42.6188390" lon="2.5975350">
        <ele>273.2</ele>
        <time>2020-07-21T08:38:09Z</time>
      </trkpt>
      <trkpt lat="42.6188910" lon="2.5974610">
        <ele>273.2</ele>
        <time>2020-07-21T08:38:10Z</time>
      </trkpt>
      <trkpt lat="42.6189810" lon="2.5973010">
        <ele>273.0</ele>
        <time>2020-07-21T08:38:12Z</time>
      </trkpt>
      <trkpt lat="42.6190580" lon="2.5971320">
        <ele>273.0</ele>
        <time>2020-07-21T08:38:14Z</time>
      </trkpt>
      <trkpt lat="42.6191920" lon="2.5969000">
        <ele>272.4</ele>
        <time>2020-07-21T08:38:17Z</time>
      </trkpt>
      <trkpt lat="42.6193060" lon="2.5967670">
        <ele>272.2</ele>
        <time>2020-07-21T08:38:19Z</time>
      </trkpt>
      <trkpt lat="42.6193670" lon="2.5967080">
        <ele>272.2</ele>
        <time>2020-07-21T08:38:20Z</time>
      </trkpt>
      <trkpt lat="42.6196250" lon="2.5964960">
        <ele>271.4</ele>
        <time>2020-07-21T08:38:24Z</time>
      </trkpt>
      <trkpt lat="42.6197730" lon="2.5963950">
        <ele>271.0</ele>
        <time>2020-07-21T08:38:26Z</time>
      </trkpt>
      <trkpt lat="42.6200540" lon="2.5961630">
        <ele>270.4</ele>
        <time>2020-07-21T08:38:30Z</time>
      </trkpt>
      <trkpt lat="42.6201230" lon="2.5961030">
        <ele>270.0</ele>
        <time>2020-07-21T08:38:31Z</time>
      </trkpt>
      <trkpt lat="42.6201890" lon="2.5960460">
        <ele>269.8</ele>
        <time>2020-07-21T08:38:32Z</time>
      </trkpt>
      <trkpt lat="42.6203860" lon="2.5958930">
        <ele>269.4</ele>
        <time>2020-07-21T08:38:35Z</time>
      </trkpt>
      <trkpt lat="42.6204550" lon="2.5957320">
        <ele>269.0</ele>
        <time>2020-07-21T08:38:37Z</time>
      </trkpt>
      <trkpt lat="42.6204120" lon="2.5955570">
        <ele>269.0</ele>
        <time>2020-07-21T08:38:39Z</time>
      </trkpt>
      <trkpt lat="42.6203650" lon="2.5954770">
        <ele>268.6</ele>
        <time>2020-07-21T08:38:40Z</time>
      </trkpt>
      <trkpt lat="42.6202060" lon="2.5952480">
        <ele>268.2</ele>
        <time>2020-07-21T08:38:43Z</time>
      </trkpt>
      <trkpt lat="42.6199100" lon="2.5947680">
        <ele>268.0</ele>
        <time>2020-07-21T08:38:49Z</time>
      </trkpt>
      <trkpt lat="42.6198670" lon="2.5946840">
        <ele>268.0</ele>
        <time>2020-07-21T08:38:50Z</time>
      </trkpt>
      <trkpt lat="42.6197200" lon="2.5943180">
        <ele>267.8</ele>
        <time>2020-07-21T08:38:54Z</time>
      </trkpt>
      <trkpt lat="42.6196940" lon="2.5942220">
        <ele>267.6</ele>
        <time>2020-07-21T08:38:55Z</time>
      </trkpt>
      <trkpt lat="42.6196760" lon="2.5941220">
        <ele>267.6</ele>
        <time>2020-07-21T08:38:56Z</time>
      </trkpt>
      <trkpt lat="42.6197990" lon="2.5937220">
        <ele>267.6</ele>
        <time>2020-07-21T08:39:02Z</time>
      </trkpt>
      <trkpt lat="42.6199220" lon="2.5933210">
        <ele>266.8</ele>
        <time>2020-07-21T08:39:05Z</time>
      </trkpt>
      <trkpt lat="42.6200200" lon="2.5932960">
        <ele>266.6</ele>
        <time>2020-07-21T08:39:06Z</time>
      </trkpt>
      <trkpt lat="42.6201740" lon="2.5932050">
        <ele>266.2</ele>
        <time>2020-07-21T08:39:08Z</time>
      </trkpt>
      <trkpt lat="42.6203550" lon="2.5931360">
        <ele>265.8</ele>
        <time>2020-07-21T08:39:10Z</time>
      </trkpt>
      <trkpt lat="42.6204390" lon="2.5931060">
        <ele>265.6</ele>
        <time>2020-07-21T08:39:11Z</time>
      </trkpt>
      <trkpt lat="42.6205310" lon="2.5930800">
        <ele>265.6</ele>
        <time>2020-07-21T08:39:12Z</time>
      </trkpt>
      <trkpt lat="42.6206040" lon="2.5930380">
        <ele>265.4</ele>
        <time>2020-07-21T08:39:13Z</time>
      </trkpt>
      <trkpt lat="42.6207670" lon="2.5929480">
        <ele>265.2</ele>
        <time>2020-07-21T08:39:15Z</time>
      </trkpt>
      <trkpt lat="42.6208520" lon="2.5929150">
        <ele>265.0</ele>
        <time>2020-07-21T08:39:16Z</time>
      </trkpt>
      <trkpt lat="42.6210120" lon="2.5929220">
        <ele>264.6</ele>
        <time>2020-07-21T08:39:18Z</time>
      </trkpt>
      <trkpt lat="42.6210700" lon="2.5929730">
        <ele>264.4</ele>
        <time>2020-07-21T08:39:19Z</time>
      </trkpt>
      <trkpt lat="42.6211200" lon="2.5930370">
        <ele>264.4</ele>
        <time>2020-07-21T08:39:20Z</time>
      </trkpt>
      <trkpt lat="42.6211550" lon="2.5931190">
        <ele>264.2</ele>
        <time>2020-07-21T08:39:21Z</time>
      </trkpt>
      <trkpt lat="42.6212380" lon="2.5932650">
        <ele>263.6</ele>
        <time>2020-07-21T08:39:23Z</time>
      </trkpt>
      <trkpt lat="42.6213100" lon="2.5933160">
        <ele>262.8</ele>
        <time>2020-07-21T08:39:24Z</time>
      </trkpt>
      <trkpt lat="42.6213860" lon="2.5933590">
        <ele>262.2</ele>
        <time>2020-07-21T08:39:25Z</time>
      </trkpt>
      <trkpt lat="42.6214690" lon="2.5933930">
        <ele>261.4</ele>
        <time>2020-07-21T08:39:26Z</time>
      </trkpt>
      <trkpt lat="42.6215570" lon="2.5934120">
        <ele>261.0</ele>
        <time>2020-07-21T08:39:27Z</time>
      </trkpt>
      <trkpt lat="42.6216480" lon="2.5934220">
        <ele>260.8</ele>
        <time>2020-07-21T08:39:28Z</time>
      </trkpt>
      <trkpt lat="42.6217340" lon="2.5934230">
        <ele>260.2</ele>
        <time>2020-07-21T08:39:29Z</time>
      </trkpt>
      <trkpt lat="42.6219250" lon="2.5934140">
        <ele>258.4</ele>
        <time>2020-07-21T08:39:31Z</time>
      </trkpt>
      <trkpt lat="42.6220190" lon="2.5934130">
        <ele>257.2</ele>
        <time>2020-07-21T08:39:32Z</time>
      </trkpt>
      <trkpt lat="42.6221320" lon="2.5933680">
        <ele>256.2</ele>
        <time>2020-07-21T08:39:33Z</time>
      </trkpt>
      <trkpt lat="42.6223250" lon="2.5932720">
        <ele>254.4</ele>
        <time>2020-07-21T08:39:35Z</time>
      </trkpt>
      <trkpt lat="42.6224110" lon="2.5932210">
        <ele>253.4</ele>
        <time>2020-07-21T08:39:36Z</time>
      </trkpt>
      <trkpt lat="42.6224860" lon="2.5931620">
        <ele>252.8</ele>
        <time>2020-07-21T08:39:37Z</time>
      </trkpt>
      <trkpt lat="42.6225490" lon="2.5930890">
        <ele>252.2</ele>
        <time>2020-07-21T08:39:38Z</time>
      </trkpt>
      <trkpt lat="42.6225990" lon="2.5930010">
        <ele>251.2</ele>
        <time>2020-07-21T08:39:39Z</time>
      </trkpt>
      <trkpt lat="42.6226430" lon="2.5929100">
        <ele>250.4</ele>
        <time>2020-07-21T08:39:40Z</time>
      </trkpt>
      <trkpt lat="42.6226770" lon="2.5928180">
        <ele>249.8</ele>
        <time>2020-07-21T08:39:41Z</time>
      </trkpt>
      <trkpt lat="42.6227270" lon="2.5926480">
        <ele>249.4</ele>
        <time>2020-07-21T08:39:43Z</time>
      </trkpt>
      <trkpt lat="42.6227790" lon="2.5926140">
        <ele>249.4</ele>
        <time>2020-07-21T08:39:44Z</time>
      </trkpt>
      <trkpt lat="42.6228340" lon="2.5926100">
        <ele>249.2</ele>
        <time>2020-07-21T08:39:45Z</time>
      </trkpt>
      <trkpt lat="42.6229310" lon="2.5925810">
        <ele>249.2</ele>
        <time>2020-07-21T08:39:47Z</time>
      </trkpt>
      <trkpt lat="42.6230020" lon="2.5924560">
        <ele>249.2</ele>
        <time>2020-07-21T08:39:49Z</time>
      </trkpt>
      <trkpt lat="42.6230150" lon="2.5923710">
        <ele>249.2</ele>
        <time>2020-07-21T08:39:50Z</time>
      </trkpt>
      <trkpt lat="42.6230250" lon="2.5922870">
        <ele>249.2</ele>
        <time>2020-07-21T08:39:51Z</time>
      </trkpt>
      <trkpt lat="42.6230560" lon="2.5919500">
        <ele>250.0</ele>
        <time>2020-07-21T08:39:55Z</time>
      </trkpt>
      <trkpt lat="42.6230870" lon="2.5917950">
        <ele>250.4</ele>
        <time>2020-07-21T08:39:57Z</time>
      </trkpt>
      <trkpt lat="42.6231530" lon="2.5915800">
        <ele>251.0</ele>
        <time>2020-07-21T08:40:00Z</time>
      </trkpt>
      <trkpt lat="42.6231780" lon="2.5915140">
        <ele>251.2</ele>
        <time>2020-07-21T08:40:01Z</time>
      </trkpt>
      <trkpt lat="42.6232560" lon="2.5913230">
        <ele>252.2</ele>
        <time>2020-07-21T08:40:04Z</time>
      </trkpt>
      <trkpt lat="42.6232860" lon="2.5912620">
        <ele>252.6</ele>
        <time>2020-07-21T08:40:05Z</time>
      </trkpt>
      <trkpt lat="42.6233190" lon="2.5912060">
        <ele>253.0</ele>
        <time>2020-07-21T08:40:06Z</time>
      </trkpt>
      <trkpt lat="42.6233550" lon="2.5911560">
        <ele>253.4</ele>
        <time>2020-07-21T08:40:07Z</time>
      </trkpt>
      <trkpt lat="42.6234360" lon="2.5910710">
        <ele>254.0</ele>
        <time>2020-07-21T08:40:09Z</time>
      </trkpt>
      <trkpt lat="42.6235750" lon="2.5909650">
        <ele>254.4</ele>
        <time>2020-07-21T08:40:12Z</time>
      </trkpt>
      <trkpt lat="42.6238270" lon="2.5908450">
        <ele>254.2</ele>
        <time>2020-07-21T08:40:17Z</time>
      </trkpt>
      <trkpt lat="42.6239470" lon="2.5908400">
        <ele>254.0</ele>
        <time>2020-07-21T08:40:19Z</time>
      </trkpt>
      <trkpt lat="42.6240680" lon="2.5908980">
        <ele>253.2</ele>
        <time>2020-07-21T08:40:21Z</time>
      </trkpt>
      <trkpt lat="42.6241290" lon="2.5909600">
        <ele>252.6</ele>
        <time>2020-07-21T08:40:22Z</time>
      </trkpt>
      <trkpt lat="42.6241830" lon="2.5910240">
        <ele>252.2</ele>
        <time>2020-07-21T08:40:23Z</time>
      </trkpt>
      <trkpt lat="42.6243940" lon="2.5912740">
        <ele>251.2</ele>
        <time>2020-07-21T08:40:27Z</time>
      </trkpt>
      <trkpt lat="42.6244510" lon="2.5913310">
        <ele>251.0</ele>
        <time>2020-07-21T08:40:28Z</time>
      </trkpt>
      <trkpt lat="42.6246290" lon="2.5915000">
        <ele>250.0</ele>
        <time>2020-07-21T08:40:31Z</time>
      </trkpt>
      <trkpt lat="42.6246930" lon="2.5915540">
        <ele>249.6</ele>
        <time>2020-07-21T08:40:32Z</time>
      </trkpt>
      <trkpt lat="42.6248270" lon="2.5916460">
        <ele>248.6</ele>
        <time>2020-07-21T08:40:34Z</time>
      </trkpt>
      <trkpt lat="42.6249740" lon="2.5917280">
        <ele>247.8</ele>
        <time>2020-07-21T08:40:36Z</time>
      </trkpt>
      <trkpt lat="42.6250500" lon="2.5917610">
        <ele>247.4</ele>
        <time>2020-07-21T08:40:37Z</time>
      </trkpt>
      <trkpt lat="42.6251280" lon="2.5917850">
        <ele>247.0</ele>
        <time>2020-07-21T08:40:38Z</time>
      </trkpt>
      <trkpt lat="42.6252110" lon="2.5918070">
        <ele>246.8</ele>
        <time>2020-07-21T08:40:39Z</time>
      </trkpt>
      <trkpt lat="42.6253830" lon="2.5918070">
        <ele>246.2</ele>
        <time>2020-07-21T08:40:41Z</time>
      </trkpt>
      <trkpt lat="42.6254690" lon="2.5917750">
        <ele>246.2</ele>
        <time>2020-07-21T08:40:42Z</time>
      </trkpt>
      <trkpt lat="42.6255490" lon="2.5917130">
        <ele>246.0</ele>
        <time>2020-07-21T08:40:43Z</time>
      </trkpt>
      <trkpt lat="42.6256880" lon="2.5915900">
        <ele>245.2</ele>
        <time>2020-07-21T08:40:45Z</time>
      </trkpt>
      <trkpt lat="42.6257520" lon="2.5915470">
        <ele>244.8</ele>
        <time>2020-07-21T08:40:46Z</time>
      </trkpt>
      <trkpt lat="42.6258170" lon="2.5915310">
        <ele>244.0</ele>
        <time>2020-07-21T08:40:47Z</time>
      </trkpt>
      <trkpt lat="42.6258770" lon="2.5915270">
        <ele>243.0</ele>
        <time>2020-07-21T08:40:48Z</time>
      </trkpt>
      <trkpt lat="42.6259350" lon="2.5915560">
        <ele>242.2</ele>
        <time>2020-07-21T08:40:49Z</time>
      </trkpt>
      <trkpt lat="42.6259870" lon="2.5916130">
        <ele>241.2</ele>
        <time>2020-07-21T08:40:50Z</time>
      </trkpt>
      <trkpt lat="42.6260370" lon="2.5916880">
        <ele>240.4</ele>
        <time>2020-07-21T08:40:51Z</time>
      </trkpt>
      <trkpt lat="42.6260780" lon="2.5917710">
        <ele>239.6</ele>
        <time>2020-07-21T08:40:52Z</time>
      </trkpt>
      <trkpt lat="42.6261150" lon="2.5918590">
        <ele>238.8</ele>
        <time>2020-07-21T08:40:53Z</time>
      </trkpt>
      <trkpt lat="42.6261790" lon="2.5920200">
        <ele>238.2</ele>
        <time>2020-07-21T08:40:55Z</time>
      </trkpt>
      <trkpt lat="42.6262310" lon="2.5920740">
        <ele>238.0</ele>
        <time>2020-07-21T08:40:56Z</time>
      </trkpt>
      <trkpt lat="42.6263780" lon="2.5921170">
        <ele>238.0</ele>
        <time>2020-07-21T08:40:58Z</time>
      </trkpt>
      <trkpt lat="42.6265830" lon="2.5921760">
        <ele>238.0</ele>
        <time>2020-07-21T08:41:01Z</time>
      </trkpt>
      <trkpt lat="42.6266410" lon="2.5922110">
        <ele>237.8</ele>
        <time>2020-07-21T08:41:02Z</time>
      </trkpt>
      <trkpt lat="42.6266890" lon="2.5922610">
        <ele>237.8</ele>
        <time>2020-07-21T08:41:03Z</time>
      </trkpt>
      <trkpt lat="42.6268040" lon="2.5924340">
        <ele>237.2</ele>
        <time>2020-07-21T08:41:06Z</time>
      </trkpt>
      <trkpt lat="42.6268380" lon="2.5924970">
        <ele>237.4</ele>
        <time>2020-07-21T08:41:07Z</time>
      </trkpt>
      <trkpt lat="42.6268700" lon="2.5925620">
        <ele>237.8</ele>
        <time>2020-07-21T08:41:08Z</time>
      </trkpt>
      <trkpt lat="42.6269350" lon="2.5926910">
        <ele>239.0</ele>
        <time>2020-07-21T08:41:10Z</time>
      </trkpt>
      <trkpt lat="42.6270290" lon="2.5928590">
        <ele>240.2</ele>
        <time>2020-07-21T08:41:13Z</time>
      </trkpt>
      <trkpt lat="42.6270950" lon="2.5929700">
        <ele>240.6</ele>
        <time>2020-07-21T08:41:15Z</time>
      </trkpt>
      <trkpt lat="42.6271280" lon="2.5930240">
        <ele>240.6</ele>
        <time>2020-07-21T08:41:16Z</time>
      </trkpt>
      <trkpt lat="42.6271650" lon="2.5930720">
        <ele>240.6</ele>
        <time>2020-07-21T08:41:17Z</time>
      </trkpt>
      <trkpt lat="42.6272540" lon="2.5931380">
        <ele>240.8</ele>
        <time>2020-07-21T08:41:19Z</time>
      </trkpt>
      <trkpt lat="42.6273040" lon="2.5931570">
        <ele>240.8</ele>
        <time>2020-07-21T08:41:20Z</time>
      </trkpt>
      <trkpt lat="42.6273550" lon="2.5931640">
        <ele>241.0</ele>
        <time>2020-07-21T08:41:21Z</time>
      </trkpt>
      <trkpt lat="42.6274530" lon="2.5931480">
        <ele>241.2</ele>
        <time>2020-07-21T08:41:23Z</time>
      </trkpt>
      <trkpt lat="42.6275000" lon="2.5931310">
        <ele>241.4</ele>
        <time>2020-07-21T08:41:24Z</time>
      </trkpt>
      <trkpt lat="42.6275830" lon="2.5930570">
        <ele>241.6</ele>
        <time>2020-07-21T08:41:26Z</time>
      </trkpt>
      <trkpt lat="42.6276500" lon="2.5929480">
        <ele>241.8</ele>
        <time>2020-07-21T08:41:28Z</time>
      </trkpt>
      <trkpt lat="42.6277420" lon="2.5926050">
        <ele>242.2</ele>
        <time>2020-07-21T08:41:33Z</time>
      </trkpt>
      <trkpt lat="42.6277530" lon="2.5925330">
        <ele>242.4</ele>
        <time>2020-07-21T08:41:34Z</time>
      </trkpt>
      <trkpt lat="42.6278290" lon="2.5921120">
        <ele>242.8</ele>
        <time>2020-07-21T08:41:40Z</time>
      </trkpt>
      <trkpt lat="42.6278740" lon="2.5917070">
        <ele>243.2</ele>
        <time>2020-07-21T08:41:46Z</time>
      </trkpt>
      <trkpt lat="42.6278760" lon="2.5916370">
        <ele>243.4</ele>
        <time>2020-07-21T08:41:47Z</time>
      </trkpt>
      <trkpt lat="42.6278750" lon="2.5915660">
        <ele>243.6</ele>
        <time>2020-07-21T08:41:48Z</time>
      </trkpt>
      <trkpt lat="42.6278680" lon="2.5914240">
        <ele>244.0</ele>
        <time>2020-07-21T08:41:50Z</time>
      </trkpt>
      <trkpt lat="42.6278310" lon="2.5910620">
        <ele>244.6</ele>
        <time>2020-07-21T08:41:55Z</time>
      </trkpt>
      <trkpt lat="42.6277530" lon="2.5906520">
        <ele>245.4</ele>
        <time>2020-07-21T08:42:01Z</time>
      </trkpt>
      <trkpt lat="42.6277370" lon="2.5905860">
        <ele>245.4</ele>
        <time>2020-07-21T08:42:02Z</time>
      </trkpt>
      <trkpt lat="42.6276490" lon="2.5901750">
        <ele>244.6</ele>
        <time>2020-07-21T08:42:08Z</time>
      </trkpt>
      <trkpt lat="42.6276270" lon="2.5901100">
        <ele>244.8</ele>
        <time>2020-07-21T08:42:09Z</time>
      </trkpt>
      <trkpt lat="42.6275240" lon="2.5898610">
        <ele>246.0</ele>
        <time>2020-07-21T08:42:13Z</time>
      </trkpt>
      <trkpt lat="42.6274420" lon="2.5896780">
        <ele>247.4</ele>
        <time>2020-07-21T08:42:16Z</time>
      </trkpt>
      <trkpt lat="42.6274010" lon="2.5895520">
        <ele>247.8</ele>
        <time>2020-07-21T08:42:18Z</time>
      </trkpt>
      <trkpt lat="42.6273310" lon="2.5891660">
        <ele>248.2</ele>
        <time>2020-07-21T08:42:24Z</time>
      </trkpt>
      <trkpt lat="42.6273420" lon="2.5891020">
        <ele>248.2</ele>
        <time>2020-07-21T08:42:25Z</time>
      </trkpt>
      <trkpt lat="42.6273680" lon="2.5890450">
        <ele>248.4</ele>
        <time>2020-07-21T08:42:26Z</time>
      </trkpt>
      <trkpt lat="42.6274570" lon="2.5889760">
        <ele>248.8</ele>
        <time>2020-07-21T08:42:28Z</time>
      </trkpt>
      <trkpt lat="42.6275640" lon="2.5889740">
        <ele>248.8</ele>
        <time>2020-07-21T08:42:30Z</time>
      </trkpt>
      <trkpt lat="42.6276110" lon="2.5890070">
        <ele>249.0</ele>
        <time>2020-07-21T08:42:31Z</time>
      </trkpt>
      <trkpt lat="42.6276520" lon="2.5890450">
        <ele>249.2</ele>
        <time>2020-07-21T08:42:32Z</time>
      </trkpt>
      <trkpt lat="42.6276840" lon="2.5890910">
        <ele>249.6</ele>
        <time>2020-07-21T08:42:33Z</time>
      </trkpt>
      <trkpt lat="42.6277120" lon="2.5891410">
        <ele>250.0</ele>
        <time>2020-07-21T08:42:34Z</time>
      </trkpt>
      <trkpt lat="42.6277370" lon="2.5891920">
        <ele>250.4</ele>
        <time>2020-07-21T08:42:35Z</time>
      </trkpt>
      <trkpt lat="42.6277590" lon="2.5892460">
        <ele>250.6</ele>
        <time>2020-07-21T08:42:36Z</time>
      </trkpt>
      <trkpt lat="42.6278870" lon="2.5894850">
        <ele>251.6</ele>
        <time>2020-07-21T08:42:41Z</time>
      </trkpt>
      <trkpt lat="42.6279180" lon="2.5895270">
        <ele>251.8</ele>
        <time>2020-07-21T08:42:42Z</time>
      </trkpt>
      <trkpt lat="42.6280680" lon="2.5897130">
        <ele>253.0</ele>
        <time>2020-07-21T08:42:47Z</time>
      </trkpt>
      <trkpt lat="42.6281010" lon="2.5897390">
        <ele>253.0</ele>
        <time>2020-07-21T08:42:48Z</time>
      </trkpt>
      <trkpt lat="42.6281970" lon="2.5898140">
        <ele>254.0</ele>
        <time>2020-07-21T08:42:51Z</time>
      </trkpt>
      <trkpt lat="42.6283200" lon="2.5899000">
        <ele>254.8</ele>
        <time>2020-07-21T08:42:55Z</time>
      </trkpt>
      <trkpt lat="42.6283810" lon="2.5899260">
        <ele>255.4</ele>
        <time>2020-07-21T08:42:57Z</time>
      </trkpt>
      <trkpt lat="42.6284730" lon="2.5899220">
        <ele>256.4</ele>
        <time>2020-07-21T08:43:00Z</time>
      </trkpt>
      <trkpt lat="42.6284970" lon="2.5898970">
        <ele>256.6</ele>
        <time>2020-07-21T08:43:01Z</time>
      </trkpt>
      <trkpt lat="42.6285390" lon="2.5897830">
        <ele>257.2</ele>
        <time>2020-07-21T08:43:04Z</time>
      </trkpt>
      <trkpt lat="42.6285440" lon="2.5897400">
        <ele>257.4</ele>
        <time>2020-07-21T08:43:05Z</time>
      </trkpt>
      <trkpt lat="42.6285320" lon="2.5895180">
        <ele>258.0</ele>
        <time>2020-07-21T08:43:10Z</time>
      </trkpt>
      <trkpt lat="42.6285240" lon="2.5894220">
        <ele>258.6</ele>
        <time>2020-07-21T08:43:12Z</time>
      </trkpt>
      <trkpt lat="42.6285000" lon="2.5891900">
        <ele>259.8</ele>
        <time>2020-07-21T08:43:17Z</time>
      </trkpt>
      <trkpt lat="42.6284910" lon="2.5890970">
        <ele>260.2</ele>
        <time>2020-07-21T08:43:19Z</time>
      </trkpt>
      <trkpt lat="42.6284850" lon="2.5890530">
        <ele>260.2</ele>
        <time>2020-07-21T08:43:20Z</time>
      </trkpt>
      <trkpt lat="42.6284790" lon="2.5890080">
        <ele>260.4</ele>
        <time>2020-07-21T08:43:21Z</time>
      </trkpt>
      <trkpt lat="42.6284700" lon="2.5889650">
        <ele>260.6</ele>
        <time>2020-07-21T08:43:22Z</time>
      </trkpt>
      <trkpt lat="42.6284230" lon="2.5888050">
        <ele>260.8</ele>
        <time>2020-07-21T08:43:26Z</time>
      </trkpt>
      <trkpt lat="42.6284090" lon="2.5887650">
        <ele>260.8</ele>
        <time>2020-07-21T08:43:27Z</time>
      </trkpt>
      <trkpt lat="42.6283500" lon="2.5885500">
        <ele>262.0</ele>
        <time>2020-07-21T08:43:32Z</time>
      </trkpt>
      <trkpt lat="42.6283500" lon="2.5884580">
        <ele>262.4</ele>
        <time>2020-07-21T08:43:34Z</time>
      </trkpt>
      <trkpt lat="42.6283710" lon="2.5883230">
        <ele>263.4</ele>
        <time>2020-07-21T08:43:37Z</time>
      </trkpt>
      <trkpt lat="42.6284100" lon="2.5881540">
        <ele>264.2</ele>
        <time>2020-07-21T08:43:41Z</time>
      </trkpt>
      <trkpt lat="42.6284170" lon="2.5881110">
        <ele>264.4</ele>
        <time>2020-07-21T08:43:42Z</time>
      </trkpt>
      <trkpt lat="42.6284320" lon="2.5879420">
        <ele>265.4</ele>
        <time>2020-07-21T08:43:46Z</time>
      </trkpt>
      <trkpt lat="42.6284420" lon="2.5878510">
        <ele>266.0</ele>
        <time>2020-07-21T08:43:48Z</time>
      </trkpt>
      <trkpt lat="42.6284540" lon="2.5877580">
        <ele>266.2</ele>
        <time>2020-07-21T08:43:50Z</time>
      </trkpt>
      <trkpt lat="42.6284730" lon="2.5876650">
        <ele>266.4</ele>
        <time>2020-07-21T08:43:52Z</time>
      </trkpt>
      <trkpt lat="42.6284850" lon="2.5876130">
        <ele>266.6</ele>
        <time>2020-07-21T08:43:53Z</time>
      </trkpt>
      <trkpt lat="42.6285010" lon="2.5875640">
        <ele>266.6</ele>
        <time>2020-07-21T08:43:54Z</time>
      </trkpt>
      <trkpt lat="42.6285190" lon="2.5875230">
        <ele>266.8</ele>
        <time>2020-07-21T08:43:55Z</time>
      </trkpt>
      <trkpt lat="42.6286490" lon="2.5873410">
        <ele>267.8</ele>
        <time>2020-07-21T08:44:00Z</time>
      </trkpt>
      <trkpt lat="42.6287140" lon="2.5872830">
        <ele>268.2</ele>
        <time>2020-07-21T08:44:02Z</time>
      </trkpt>
      <trkpt lat="42.6288150" lon="2.5872030">
        <ele>269.0</ele>
        <time>2020-07-21T08:44:05Z</time>
      </trkpt>
      <trkpt lat="42.6289700" lon="2.5871570">
        <ele>269.6</ele>
        <time>2020-07-21T08:44:09Z</time>
      </trkpt>
      <trkpt lat="42.6290170" lon="2.5871620">
        <ele>269.6</ele>
        <time>2020-07-21T08:44:10Z</time>
      </trkpt>
      <trkpt lat="42.6291750" lon="2.5871820">
        <ele>269.4</ele>
        <time>2020-07-21T08:44:13Z</time>
      </trkpt>
      <trkpt lat="42.6292770" lon="2.5872260">
        <ele>269.2</ele>
        <time>2020-07-21T08:44:15Z</time>
      </trkpt>
      <trkpt lat="42.6294250" lon="2.5872940">
        <ele>269.2</ele>
        <time>2020-07-21T08:44:18Z</time>
      </trkpt>
      <trkpt lat="42.6295210" lon="2.5872820">
        <ele>269.2</ele>
        <time>2020-07-21T08:44:20Z</time>
      </trkpt>
      <trkpt lat="42.6295930" lon="2.5871980">
        <ele>269.2</ele>
        <time>2020-07-21T08:44:22Z</time>
      </trkpt>
      <trkpt lat="42.6296200" lon="2.5871440">
        <ele>269.2</ele>
        <time>2020-07-21T08:44:23Z</time>
      </trkpt>
      <trkpt lat="42.6296430" lon="2.5870840">
        <ele>269.2</ele>
        <time>2020-07-21T08:44:24Z</time>
      </trkpt>
      <trkpt lat="42.6296880" lon="2.5869530">
        <ele>269.6</ele>
        <time>2020-07-21T08:44:26Z</time>
      </trkpt>
      <trkpt lat="42.6297190" lon="2.5868950">
        <ele>270.0</ele>
        <time>2020-07-21T08:44:27Z</time>
      </trkpt>
      <trkpt lat="42.6297570" lon="2.5868480">
        <ele>270.4</ele>
        <time>2020-07-21T08:44:28Z</time>
      </trkpt>
      <trkpt lat="42.6299380" lon="2.5867330">
        <ele>271.0</ele>
        <time>2020-07-21T08:44:32Z</time>
      </trkpt>
      <trkpt lat="42.6299800" lon="2.5867010">
        <ele>271.2</ele>
        <time>2020-07-21T08:44:33Z</time>
      </trkpt>
      <trkpt lat="42.6302030" lon="2.5865610">
        <ele>272.0</ele>
        <time>2020-07-21T08:44:38Z</time>
      </trkpt>
      <trkpt lat="42.6302480" lon="2.5865330">
        <ele>272.2</ele>
        <time>2020-07-21T08:44:39Z</time>
      </trkpt>
      <trkpt lat="42.6303470" lon="2.5864880">
        <ele>272.4</ele>
        <time>2020-07-21T08:44:41Z</time>
      </trkpt>
      <trkpt lat="42.6304540" lon="2.5864950">
        <ele>272.4</ele>
        <time>2020-07-21T08:44:43Z</time>
      </trkpt>
      <trkpt lat="42.6306650" lon="2.5865720">
        <ele>272.6</ele>
        <time>2020-07-21T08:44:47Z</time>
      </trkpt>
      <trkpt lat="42.6307190" lon="2.5865800">
        <ele>272.8</ele>
        <time>2020-07-21T08:44:48Z</time>
      </trkpt>
      <trkpt lat="42.6307690" lon="2.5865810">
        <ele>273.0</ele>
        <time>2020-07-21T08:44:49Z</time>
      </trkpt>
      <trkpt lat="42.6309210" lon="2.5865690">
        <ele>273.2</ele>
        <time>2020-07-21T08:44:52Z</time>
      </trkpt>
      <trkpt lat="42.6309770" lon="2.5865810">
        <ele>273.2</ele>
        <time>2020-07-21T08:44:53Z</time>
      </trkpt>
      <trkpt lat="42.6310330" lon="2.5866110">
        <ele>273.0</ele>
        <time>2020-07-21T08:44:54Z</time>
      </trkpt>
      <trkpt lat="42.6311460" lon="2.5866920">
        <ele>272.6</ele>
        <time>2020-07-21T08:44:56Z</time>
      </trkpt>
      <trkpt lat="42.6312070" lon="2.5867100">
        <ele>272.0</ele>
        <time>2020-07-21T08:44:57Z</time>
      </trkpt>
      <trkpt lat="42.6313300" lon="2.5866830">
        <ele>270.2</ele>
        <time>2020-07-21T08:44:59Z</time>
      </trkpt>
      <trkpt lat="42.6313670" lon="2.5865350">
        <ele>269.2</ele>
        <time>2020-07-21T08:45:01Z</time>
      </trkpt>
      <trkpt lat="42.6313680" lon="2.5864490">
        <ele>269.0</ele>
        <time>2020-07-21T08:45:02Z</time>
      </trkpt>
      <trkpt lat="42.6313540" lon="2.5861870">
        <ele>268.6</ele>
        <time>2020-07-21T08:45:05Z</time>
      </trkpt>
      <trkpt lat="42.6313600" lon="2.5860990">
        <ele>268.4</ele>
        <time>2020-07-21T08:45:06Z</time>
      </trkpt>
      <trkpt lat="42.6313750" lon="2.5860200">
        <ele>268.0</ele>
        <time>2020-07-21T08:45:07Z</time>
      </trkpt>
      <trkpt lat="42.6314040" lon="2.5859530">
        <ele>267.6</ele>
        <time>2020-07-21T08:45:08Z</time>
      </trkpt>
      <trkpt lat="42.6314450" lon="2.5858950">
        <ele>267.0</ele>
        <time>2020-07-21T08:45:09Z</time>
      </trkpt>
      <trkpt lat="42.6315020" lon="2.5858490">
        <ele>266.4</ele>
        <time>2020-07-21T08:45:10Z</time>
      </trkpt>
      <trkpt lat="42.6316380" lon="2.5857480">
        <ele>265.2</ele>
        <time>2020-07-21T08:45:12Z</time>
      </trkpt>
      <trkpt lat="42.6317670" lon="2.5856210">
        <ele>263.4</ele>
        <time>2020-07-21T08:45:14Z</time>
      </trkpt>
      <trkpt lat="42.6319930" lon="2.5853090">
        <ele>262.2</ele>
        <time>2020-07-21T08:45:18Z</time>
      </trkpt>
      <trkpt lat="42.6320510" lon="2.5852500">
        <ele>262.2</ele>
        <time>2020-07-21T08:45:19Z</time>
      </trkpt>
      <trkpt lat="42.6321980" lon="2.5852680">
        <ele>261.8</ele>
        <time>2020-07-21T08:45:21Z</time>
      </trkpt>
      <trkpt lat="42.6323050" lon="2.5853990">
        <ele>261.2</ele>
        <time>2020-07-21T08:45:23Z</time>
      </trkpt>
      <trkpt lat="42.6323590" lon="2.5854680">
        <ele>261.0</ele>
        <time>2020-07-21T08:45:24Z</time>
      </trkpt>
      <trkpt lat="42.6324230" lon="2.5855250">
        <ele>260.8</ele>
        <time>2020-07-21T08:45:25Z</time>
      </trkpt>
      <trkpt lat="42.6325860" lon="2.5855890">
        <ele>260.2</ele>
        <time>2020-07-21T08:45:27Z</time>
      </trkpt>
      <trkpt lat="42.6327510" lon="2.5856620">
        <ele>259.2</ele>
        <time>2020-07-21T08:45:29Z</time>
      </trkpt>
      <trkpt lat="42.6328240" lon="2.5857300">
        <ele>258.8</ele>
        <time>2020-07-21T08:45:30Z</time>
      </trkpt>
      <trkpt lat="42.6329800" lon="2.5858450">
        <ele>258.0</ele>
        <time>2020-07-21T08:45:32Z</time>
      </trkpt>
      <trkpt lat="42.6330700" lon="2.5858770">
        <ele>257.0</ele>
        <time>2020-07-21T08:45:33Z</time>
      </trkpt>
      <trkpt lat="42.6331610" lon="2.5859020">
        <ele>256.4</ele>
        <time>2020-07-21T08:45:34Z</time>
      </trkpt>
      <trkpt lat="42.6332530" lon="2.5859400">
        <ele>256.0</ele>
        <time>2020-07-21T08:45:35Z</time>
      </trkpt>
      <trkpt lat="42.6334280" lon="2.5860660">
        <ele>255.2</ele>
        <time>2020-07-21T08:45:37Z</time>
      </trkpt>
      <trkpt lat="42.6335930" lon="2.5861940">
        <ele>254.8</ele>
        <time>2020-07-21T08:45:39Z</time>
      </trkpt>
      <trkpt lat="42.6337610" lon="2.5862890">
        <ele>252.6</ele>
        <time>2020-07-21T08:45:41Z</time>
      </trkpt>
      <trkpt lat="42.6338440" lon="2.5863290">
        <ele>251.4</ele>
        <time>2020-07-21T08:45:42Z</time>
      </trkpt>
      <trkpt lat="42.6339330" lon="2.5863560">
        <ele>250.6</ele>
        <time>2020-07-21T08:45:43Z</time>
      </trkpt>
      <trkpt lat="42.6340190" lon="2.5863740">
        <ele>250.0</ele>
        <time>2020-07-21T08:45:44Z</time>
      </trkpt>
      <trkpt lat="42.6341050" lon="2.5863770">
        <ele>249.4</ele>
        <time>2020-07-21T08:45:45Z</time>
      </trkpt>
      <trkpt lat="42.6342010" lon="2.5863520">
        <ele>248.8</ele>
        <time>2020-07-21T08:45:46Z</time>
      </trkpt>
      <trkpt lat="42.6342860" lon="2.5863150">
        <ele>248.2</ele>
        <time>2020-07-21T08:45:47Z</time>
      </trkpt>
      <trkpt lat="42.6344280" lon="2.5861860">
        <ele>247.4</ele>
        <time>2020-07-21T08:45:49Z</time>
      </trkpt>
      <trkpt lat="42.6345390" lon="2.5860080">
        <ele>246.2</ele>
        <time>2020-07-21T08:45:51Z</time>
      </trkpt>
      <trkpt lat="42.6346290" lon="2.5857970">
        <ele>246.0</ele>
        <time>2020-07-21T08:45:53Z</time>
      </trkpt>
      <trkpt lat="42.6348030" lon="2.5853430">
        <ele>245.0</ele>
        <time>2020-07-21T08:45:57Z</time>
      </trkpt>
      <trkpt lat="42.6349070" lon="2.5851150">
        <ele>243.6</ele>
        <time>2020-07-21T08:45:59Z</time>
      </trkpt>
      <trkpt lat="42.6349650" lon="2.5850080">
        <ele>242.8</ele>
        <time>2020-07-21T08:46:00Z</time>
      </trkpt>
      <trkpt lat="42.6350340" lon="2.5849150">
        <ele>242.2</ele>
        <time>2020-07-21T08:46:01Z</time>
      </trkpt>
      <trkpt lat="42.6351830" lon="2.5847450">
        <ele>241.4</ele>
        <time>2020-07-21T08:46:03Z</time>
      </trkpt>
      <trkpt lat="42.6352630" lon="2.5846820">
        <ele>241.2</ele>
        <time>2020-07-21T08:46:04Z</time>
      </trkpt>
      <trkpt lat="42.6354430" lon="2.5846360">
        <ele>241.0</ele>
        <time>2020-07-21T08:46:06Z</time>
      </trkpt>
      <trkpt lat="42.6356230" lon="2.5846900">
        <ele>240.8</ele>
        <time>2020-07-21T08:46:08Z</time>
      </trkpt>
      <trkpt lat="42.6357100" lon="2.5847420">
        <ele>240.2</ele>
        <time>2020-07-21T08:46:09Z</time>
      </trkpt>
      <trkpt lat="42.6357960" lon="2.5848030">
        <ele>239.2</ele>
        <time>2020-07-21T08:46:10Z</time>
      </trkpt>
      <trkpt lat="42.6358770" lon="2.5848670">
        <ele>238.0</ele>
        <time>2020-07-21T08:46:11Z</time>
      </trkpt>
      <trkpt lat="42.6359560" lon="2.5849320">
        <ele>236.8</ele>
        <time>2020-07-21T08:46:12Z</time>
      </trkpt>
      <trkpt lat="42.6360330" lon="2.5849970">
        <ele>235.8</ele>
        <time>2020-07-21T08:46:13Z</time>
      </trkpt>
      <trkpt lat="42.6361040" lon="2.5850580">
        <ele>234.8</ele>
        <time>2020-07-21T08:46:14Z</time>
      </trkpt>
      <trkpt lat="42.6361650" lon="2.5851150">
        <ele>234.2</ele>
        <time>2020-07-21T08:46:15Z</time>
      </trkpt>
      <trkpt lat="42.6362210" lon="2.5851510">
        <ele>233.8</ele>
        <time>2020-07-21T08:46:16Z</time>
      </trkpt>
      <trkpt lat="42.6362770" lon="2.5851620">
        <ele>233.6</ele>
        <time>2020-07-21T08:46:17Z</time>
      </trkpt>
      <trkpt lat="42.6363270" lon="2.5851570">
        <ele>233.2</ele>
        <time>2020-07-21T08:46:18Z</time>
      </trkpt>
      <trkpt lat="42.6364280" lon="2.5850670">
        <ele>232.2</ele>
        <time>2020-07-21T08:46:20Z</time>
      </trkpt>
      <trkpt lat="42.6365580" lon="2.5848310">
        <ele>231.2</ele>
        <time>2020-07-21T08:46:23Z</time>
      </trkpt>
      <trkpt lat="42.6366020" lon="2.5847490">
        <ele>230.6</ele>
        <time>2020-07-21T08:46:24Z</time>
      </trkpt>
      <trkpt lat="42.6367490" lon="2.5844890">
        <ele>229.8</ele>
        <time>2020-07-21T08:46:27Z</time>
      </trkpt>
      <trkpt lat="42.6368120" lon="2.5844170">
        <ele>229.4</ele>
        <time>2020-07-21T08:46:28Z</time>
      </trkpt>
      <trkpt lat="42.6368840" lon="2.5843540">
        <ele>228.8</ele>
        <time>2020-07-21T08:46:29Z</time>
      </trkpt>
      <trkpt lat="42.6370390" lon="2.5842500">
        <ele>227.4</ele>
        <time>2020-07-21T08:46:31Z</time>
      </trkpt>
      <trkpt lat="42.6371170" lon="2.5842010">
        <ele>226.6</ele>
        <time>2020-07-21T08:46:32Z</time>
      </trkpt>
      <trkpt lat="42.6371990" lon="2.5841530">
        <ele>226.2</ele>
        <time>2020-07-21T08:46:33Z</time>
      </trkpt>
      <trkpt lat="42.6374190" lon="2.5839820">
        <ele>225.2</ele>
        <time>2020-07-21T08:46:36Z</time>
      </trkpt>
      <trkpt lat="42.6374610" lon="2.5838840">
        <ele>224.8</ele>
        <time>2020-07-21T08:46:37Z</time>
      </trkpt>
      <trkpt lat="42.6374880" lon="2.5837730">
        <ele>224.4</ele>
        <time>2020-07-21T08:46:38Z</time>
      </trkpt>
      <trkpt lat="42.6374950" lon="2.5835300">
        <ele>223.2</ele>
        <time>2020-07-21T08:46:40Z</time>
      </trkpt>
      <trkpt lat="42.6374980" lon="2.5832720">
        <ele>222.2</ele>
        <time>2020-07-21T08:46:42Z</time>
      </trkpt>
      <trkpt lat="42.6375110" lon="2.5831420">
        <ele>221.6</ele>
        <time>2020-07-21T08:46:43Z</time>
      </trkpt>
      <trkpt lat="42.6375290" lon="2.5830100">
        <ele>221.0</ele>
        <time>2020-07-21T08:46:44Z</time>
      </trkpt>
      <trkpt lat="42.6375480" lon="2.5828760">
        <ele>220.6</ele>
        <time>2020-07-21T08:46:45Z</time>
      </trkpt>
      <trkpt lat="42.6375830" lon="2.5824440">
        <ele>219.8</ele>
        <time>2020-07-21T08:46:48Z</time>
      </trkpt>
      <trkpt lat="42.6375930" lon="2.5822940">
        <ele>219.0</ele>
        <time>2020-07-21T08:46:49Z</time>
      </trkpt>
      <trkpt lat="42.6376050" lon="2.5821500">
        <ele>218.4</ele>
        <time>2020-07-21T08:46:50Z</time>
      </trkpt>
      <trkpt lat="42.6376280" lon="2.5818950">
        <ele>217.4</ele>
        <time>2020-07-21T08:46:52Z</time>
      </trkpt>
      <trkpt lat="42.6376120" lon="2.5816530">
        <ele>216.4</ele>
        <time>2020-07-21T08:46:54Z</time>
      </trkpt>
      <trkpt lat="42.6375810" lon="2.5815300">
        <ele>216.0</ele>
        <time>2020-07-21T08:46:55Z</time>
      </trkpt>
      <trkpt lat="42.6375180" lon="2.5813150">
        <ele>215.4</ele>
        <time>2020-07-21T08:46:57Z</time>
      </trkpt>
      <trkpt lat="42.6375050" lon="2.5812230">
        <ele>215.4</ele>
        <time>2020-07-21T08:46:58Z</time>
      </trkpt>
      <trkpt lat="42.6375450" lon="2.5810640">
        <ele>215.0</ele>
        <time>2020-07-21T08:47:00Z</time>
      </trkpt>
      <trkpt lat="42.6376670" lon="2.5810160">
        <ele>215.0</ele>
        <time>2020-07-21T08:47:02Z</time>
      </trkpt>
      <trkpt lat="42.6377360" lon="2.5810340">
        <ele>215.0</ele>
        <time>2020-07-21T08:47:03Z</time>
      </trkpt>
      <trkpt lat="42.6378030" lon="2.5810780">
        <ele>214.8</ele>
        <time>2020-07-21T08:47:04Z</time>
      </trkpt>
      <trkpt lat="42.6378640" lon="2.5811380">
        <ele>214.8</ele>
        <time>2020-07-21T08:47:05Z</time>
      </trkpt>
      <trkpt lat="42.6379190" lon="2.5812080">
        <ele>214.8</ele>
        <time>2020-07-21T08:47:06Z</time>
      </trkpt>
      <trkpt lat="42.6381140" lon="2.5815230">
        <ele>214.2</ele>
        <time>2020-07-21T08:47:10Z</time>
      </trkpt>
      <trkpt lat="42.6381590" lon="2.5816070">
        <ele>213.8</ele>
        <time>2020-07-21T08:47:11Z</time>
      </trkpt>
      <trkpt lat="42.6382030" lon="2.5816960">
        <ele>213.8</ele>
        <time>2020-07-21T08:47:12Z</time>
      </trkpt>
      <trkpt lat="42.6383720" lon="2.5820480">
        <ele>213.0</ele>
        <time>2020-07-21T08:47:16Z</time>
      </trkpt>
      <trkpt lat="42.6384160" lon="2.5821290">
        <ele>212.8</ele>
        <time>2020-07-21T08:47:17Z</time>
      </trkpt>
      <trkpt lat="42.6385140" lon="2.5822700">
        <ele>212.6</ele>
        <time>2020-07-21T08:47:19Z</time>
      </trkpt>
      <trkpt lat="42.6386350" lon="2.5823740">
        <ele>212.8</ele>
        <time>2020-07-21T08:47:21Z</time>
      </trkpt>
      <trkpt lat="42.6387830" lon="2.5824210">
        <ele>212.8</ele>
        <time>2020-07-21T08:47:23Z</time>
      </trkpt>
      <trkpt lat="42.6388650" lon="2.5824150">
        <ele>212.8</ele>
        <time>2020-07-21T08:47:24Z</time>
      </trkpt>
      <trkpt lat="42.6389440" lon="2.5824050">
        <ele>213.0</ele>
        <time>2020-07-21T08:47:25Z</time>
      </trkpt>
      <trkpt lat="42.6390990" lon="2.5823800">
        <ele>213.0</ele>
        <time>2020-07-21T08:47:27Z</time>
      </trkpt>
      <trkpt lat="42.6391750" lon="2.5823750">
        <ele>213.0</ele>
        <time>2020-07-21T08:47:28Z</time>
      </trkpt>
      <trkpt lat="42.6392510" lon="2.5823720">
        <ele>213.0</ele>
        <time>2020-07-21T08:47:29Z</time>
      </trkpt>
      <trkpt lat="42.6396240" lon="2.5824320">
        <ele>213.0</ele>
        <time>2020-07-21T08:47:34Z</time>
      </trkpt>
      <trkpt lat="42.6399000" lon="2.5825970">
        <ele>212.4</ele>
        <time>2020-07-21T08:47:38Z</time>
      </trkpt>
      <trkpt lat="42.6399590" lon="2.5826620">
        <ele>212.0</ele>
        <time>2020-07-21T08:47:39Z</time>
      </trkpt>
      <trkpt lat="42.6400140" lon="2.5827330">
        <ele>211.8</ele>
        <time>2020-07-21T08:47:40Z</time>
      </trkpt>
      <trkpt lat="42.6401650" lon="2.5829710">
        <ele>212.0</ele>
        <time>2020-07-21T08:47:43Z</time>
      </trkpt>
      <trkpt lat="42.6403500" lon="2.5832980">
        <ele>212.8</ele>
        <time>2020-07-21T08:47:47Z</time>
      </trkpt>
      <trkpt lat="42.6404210" lon="2.5834890">
        <ele>212.8</ele>
        <time>2020-07-21T08:47:49Z</time>
      </trkpt>
      <trkpt lat="42.6404410" lon="2.5835980">
        <ele>213.0</ele>
        <time>2020-07-21T08:47:50Z</time>
      </trkpt>
      <trkpt lat="42.6405060" lon="2.5841130">
        <ele>213.0</ele>
        <time>2020-07-21T08:47:55Z</time>
      </trkpt>
      <trkpt lat="42.6406170" lon="2.5844900">
        <ele>212.4</ele>
        <time>2020-07-21T08:47:59Z</time>
      </trkpt>
      <trkpt lat="42.6406500" lon="2.5845840">
        <ele>212.4</ele>
        <time>2020-07-21T08:48:00Z</time>
      </trkpt>
      <trkpt lat="42.6408710" lon="2.5851440">
        <ele>212.2</ele>
        <time>2020-07-21T08:48:06Z</time>
      </trkpt>
      <trkpt lat="42.6409040" lon="2.5852400">
        <ele>212.2</ele>
        <time>2020-07-21T08:48:07Z</time>
      </trkpt>
      <trkpt lat="42.6409480" lon="2.5854300">
        <ele>211.8</ele>
        <time>2020-07-21T08:48:09Z</time>
      </trkpt>
      <trkpt lat="42.6409920" lon="2.5857100">
        <ele>211.2</ele>
        <time>2020-07-21T08:48:12Z</time>
      </trkpt>
      <trkpt lat="42.6409950" lon="2.5858060">
        <ele>211.2</ele>
        <time>2020-07-21T08:48:13Z</time>
      </trkpt>
      <trkpt lat="42.6409820" lon="2.5859960">
        <ele>210.6</ele>
        <time>2020-07-21T08:48:15Z</time>
      </trkpt>
      <trkpt lat="42.6409710" lon="2.5860890">
        <ele>210.6</ele>
        <time>2020-07-21T08:48:16Z</time>
      </trkpt>
      <trkpt lat="42.6409600" lon="2.5866480">
        <ele>210.4</ele>
        <time>2020-07-21T08:48:22Z</time>
      </trkpt>
      <trkpt lat="42.6409660" lon="2.5867440">
        <ele>210.4</ele>
        <time>2020-07-21T08:48:23Z</time>
      </trkpt>
      <trkpt lat="42.6409850" lon="2.5869350">
        <ele>209.6</ele>
        <time>2020-07-21T08:48:25Z</time>
      </trkpt>
      <trkpt lat="42.6410450" lon="2.5872080">
        <ele>209.6</ele>
        <time>2020-07-21T08:48:28Z</time>
      </trkpt>
      <trkpt lat="42.6411740" lon="2.5877160">
        <ele>209.8</ele>
        <time>2020-07-21T08:48:34Z</time>
      </trkpt>
      <trkpt lat="42.6411820" lon="2.5878020">
        <ele>209.6</ele>
        <time>2020-07-21T08:48:35Z</time>
      </trkpt>
      <trkpt lat="42.6411830" lon="2.5879770">
        <ele>209.2</ele>
        <time>2020-07-21T08:48:37Z</time>
      </trkpt>
      <trkpt lat="42.6411780" lon="2.5881520">
        <ele>208.4</ele>
        <time>2020-07-21T08:48:39Z</time>
      </trkpt>
      <trkpt lat="42.6411860" lon="2.5882370">
        <ele>208.2</ele>
        <time>2020-07-21T08:48:40Z</time>
      </trkpt>
      <trkpt lat="42.6412390" lon="2.5883820">
        <ele>207.6</ele>
        <time>2020-07-21T08:48:42Z</time>
      </trkpt>
      <trkpt lat="42.6412830" lon="2.5884330">
        <ele>207.6</ele>
        <time>2020-07-21T08:48:43Z</time>
      </trkpt>
      <trkpt lat="42.6413370" lon="2.5884740">
        <ele>207.4</ele>
        <time>2020-07-21T08:48:44Z</time>
      </trkpt>
      <trkpt lat="42.6415170" lon="2.5885760">
        <ele>207.0</ele>
        <time>2020-07-21T08:48:47Z</time>
      </trkpt>
      <trkpt lat="42.6418210" lon="2.5887700">
        <ele>206.6</ele>
        <time>2020-07-21T08:48:52Z</time>
      </trkpt>
      <trkpt lat="42.6418890" lon="2.5887940">
        <ele>206.2</ele>
        <time>2020-07-21T08:48:53Z</time>
      </trkpt>
      <trkpt lat="42.6419570" lon="2.5888070">
        <ele>206.4</ele>
        <time>2020-07-21T08:48:54Z</time>
      </trkpt>
      <trkpt lat="42.6420260" lon="2.5888050">
        <ele>207.0</ele>
        <time>2020-07-21T08:48:55Z</time>
      </trkpt>
      <trkpt lat="42.6420910" lon="2.5887820">
        <ele>207.2</ele>
        <time>2020-07-21T08:48:56Z</time>
      </trkpt>
      <trkpt lat="42.6422080" lon="2.5886780">
        <ele>207.0</ele>
        <time>2020-07-21T08:48:58Z</time>
      </trkpt>
      <trkpt lat="42.6422520" lon="2.5885980">
        <ele>206.6</ele>
        <time>2020-07-21T08:48:59Z</time>
      </trkpt>
      <trkpt lat="42.6422840" lon="2.5885080">
        <ele>206.8</ele>
        <time>2020-07-21T08:49:00Z</time>
      </trkpt>
      <trkpt lat="42.6423060" lon="2.5884180">
        <ele>206.6</ele>
        <time>2020-07-21T08:49:01Z</time>
      </trkpt>
      <trkpt lat="42.6423210" lon="2.5883270">
        <ele>206.4</ele>
        <time>2020-07-21T08:49:02Z</time>
      </trkpt>
      <trkpt lat="42.6423400" lon="2.5882330">
        <ele>206.4</ele>
        <time>2020-07-21T08:49:03Z</time>
      </trkpt>
      <trkpt lat="42.6424000" lon="2.5880480">
        <ele>206.2</ele>
        <time>2020-07-21T08:49:05Z</time>
      </trkpt>
      <trkpt lat="42.6424440" lon="2.5879680">
        <ele>206.0</ele>
        <time>2020-07-21T08:49:06Z</time>
      </trkpt>
      <trkpt lat="42.6424960" lon="2.5879020">
        <ele>205.8</ele>
        <time>2020-07-21T08:49:07Z</time>
      </trkpt>
      <trkpt lat="42.6426230" lon="2.5877900">
        <ele>204.6</ele>
        <time>2020-07-21T08:49:09Z</time>
      </trkpt>
      <trkpt lat="42.6427610" lon="2.5876730">
        <ele>203.2</ele>
        <time>2020-07-21T08:49:11Z</time>
      </trkpt>
      <trkpt lat="42.6429890" lon="2.5875250">
        <ele>202.0</ele>
        <time>2020-07-21T08:49:14Z</time>
      </trkpt>
      <trkpt lat="42.6431560" lon="2.5874270">
        <ele>200.2</ele>
        <time>2020-07-21T08:49:16Z</time>
      </trkpt>
      <trkpt lat="42.6433390" lon="2.5873440">
        <ele>199.2</ele>
        <time>2020-07-21T08:49:18Z</time>
      </trkpt>
      <trkpt lat="42.6434340" lon="2.5873200">
        <ele>198.8</ele>
        <time>2020-07-21T08:49:19Z</time>
      </trkpt>
      <trkpt lat="42.6437360" lon="2.5872660">
        <ele>198.2</ele>
        <time>2020-07-21T08:49:22Z</time>
      </trkpt>
      <trkpt lat="42.6439390" lon="2.5872290">
        <ele>196.4</ele>
        <time>2020-07-21T08:49:24Z</time>
      </trkpt>
      <trkpt lat="42.6440410" lon="2.5872100">
        <ele>195.6</ele>
        <time>2020-07-21T08:49:25Z</time>
      </trkpt>
      <trkpt lat="42.6441420" lon="2.5871850">
        <ele>194.8</ele>
        <time>2020-07-21T08:49:26Z</time>
      </trkpt>
      <trkpt lat="42.6444300" lon="2.5871170">
        <ele>193.6</ele>
        <time>2020-07-21T08:49:29Z</time>
      </trkpt>
      <trkpt lat="42.6447920" lon="2.5871790">
        <ele>192.4</ele>
        <time>2020-07-21T08:49:33Z</time>
      </trkpt>
      <trkpt lat="42.6450510" lon="2.5872490">
        <ele>191.2</ele>
        <time>2020-07-21T08:49:36Z</time>
      </trkpt>
      <trkpt lat="42.6453120" lon="2.5873120">
        <ele>189.6</ele>
        <time>2020-07-21T08:49:39Z</time>
      </trkpt>
      <trkpt lat="42.6454880" lon="2.5873430">
        <ele>188.4</ele>
        <time>2020-07-21T08:49:41Z</time>
      </trkpt>
      <trkpt lat="42.6458300" lon="2.5873590">
        <ele>187.8</ele>
        <time>2020-07-21T08:49:45Z</time>
      </trkpt>
      <trkpt lat="42.6459820" lon="2.5874290">
        <ele>187.4</ele>
        <time>2020-07-21T08:49:47Z</time>
      </trkpt>
      <trkpt lat="42.6460510" lon="2.5874750">
        <ele>187.2</ele>
        <time>2020-07-21T08:49:48Z</time>
      </trkpt>
      <trkpt lat="42.6461180" lon="2.5875110">
        <ele>186.6</ele>
        <time>2020-07-21T08:49:49Z</time>
      </trkpt>
      <trkpt lat="42.6461880" lon="2.5875300">
        <ele>185.8</ele>
        <time>2020-07-21T08:49:50Z</time>
      </trkpt>
      <trkpt lat="42.6462630" lon="2.5875210">
        <ele>185.2</ele>
        <time>2020-07-21T08:49:51Z</time>
      </trkpt>
      <trkpt lat="42.6463360" lon="2.5874990">
        <ele>184.6</ele>
        <time>2020-07-21T08:49:52Z</time>
      </trkpt>
      <trkpt lat="42.6464800" lon="2.5874540">
        <ele>184.2</ele>
        <time>2020-07-21T08:49:54Z</time>
      </trkpt>
      <trkpt lat="42.6465540" lon="2.5874530">
        <ele>184.0</ele>
        <time>2020-07-21T08:49:55Z</time>
      </trkpt>
      <trkpt lat="42.6466290" lon="2.5874780">
        <ele>183.6</ele>
        <time>2020-07-21T08:49:56Z</time>
      </trkpt>
      <trkpt lat="42.6467040" lon="2.5875080">
        <ele>183.0</ele>
        <time>2020-07-21T08:49:57Z</time>
      </trkpt>
      <trkpt lat="42.6467790" lon="2.5875340">
        <ele>182.2</ele>
        <time>2020-07-21T08:49:58Z</time>
      </trkpt>
      <trkpt lat="42.6468540" lon="2.5875510">
        <ele>181.6</ele>
        <time>2020-07-21T08:49:59Z</time>
      </trkpt>
      <trkpt lat="42.6470120" lon="2.5875580">
        <ele>180.6</ele>
        <time>2020-07-21T08:50:01Z</time>
      </trkpt>
      <trkpt lat="42.6470910" lon="2.5875610">
        <ele>179.8</ele>
        <time>2020-07-21T08:50:02Z</time>
      </trkpt>
      <trkpt lat="42.6471670" lon="2.5875570">
        <ele>179.2</ele>
        <time>2020-07-21T08:50:03Z</time>
      </trkpt>
      <trkpt lat="42.6473840" lon="2.5875600">
        <ele>178.0</ele>
        <time>2020-07-21T08:50:06Z</time>
      </trkpt>
      <trkpt lat="42.6474560" lon="2.5875460">
        <ele>178.0</ele>
        <time>2020-07-21T08:50:07Z</time>
      </trkpt>
      <trkpt lat="42.6475840" lon="2.5875100">
        <ele>178.0</ele>
        <time>2020-07-21T08:50:09Z</time>
      </trkpt>
      <trkpt lat="42.6476990" lon="2.5874830">
        <ele>178.0</ele>
        <time>2020-07-21T08:50:11Z</time>
      </trkpt>
      <trkpt lat="42.6478180" lon="2.5874990">
        <ele>178.0</ele>
        <time>2020-07-21T08:50:13Z</time>
      </trkpt>
      <trkpt lat="42.6478760" lon="2.5875200">
        <ele>177.8</ele>
        <time>2020-07-21T08:50:14Z</time>
      </trkpt>
      <trkpt lat="42.6482310" lon="2.5876450">
        <ele>177.2</ele>
        <time>2020-07-21T08:50:20Z</time>
      </trkpt>
      <trkpt lat="42.6483410" lon="2.5876870">
        <ele>177.2</ele>
        <time>2020-07-21T08:50:22Z</time>
      </trkpt>
      <trkpt lat="42.6484440" lon="2.5877220">
        <ele>177.0</ele>
        <time>2020-07-21T08:50:24Z</time>
      </trkpt>
      <trkpt lat="42.6485790" lon="2.5877480">
        <ele>177.4</ele>
        <time>2020-07-21T08:50:27Z</time>
      </trkpt>
      <trkpt lat="42.6486580" lon="2.5877320">
        <ele>177.6</ele>
        <time>2020-07-21T08:50:29Z</time>
      </trkpt>
      <trkpt lat="42.6487440" lon="2.5876950">
        <ele>177.8</ele>
        <time>2020-07-21T08:50:31Z</time>
      </trkpt>
      <trkpt lat="42.6488920" lon="2.5876310">
        <ele>177.8</ele>
        <time>2020-07-21T08:50:34Z</time>
      </trkpt>
      <trkpt lat="42.6490140" lon="2.5875830">
        <ele>177.8</ele>
        <time>2020-07-21T08:50:37Z</time>
      </trkpt>
      <trkpt lat="42.6490760" lon="2.5875470">
        <ele>178.0</ele>
        <time>2020-07-21T08:50:40Z</time>
      </trkpt>
      <trkpt lat="42.6492570" lon="2.5868920">
        <ele>179.6</ele>
        <time>2020-07-21T09:13:35Z</time>
      </trkpt>
      <trkpt lat="42.6492650" lon="2.5869410">
        <ele>179.6</ele>
        <time>2020-07-21T09:13:36Z</time>
      </trkpt>
      <trkpt lat="42.6492490" lon="2.5871610">
        <ele>179.2</ele>
        <time>2020-07-21T09:13:40Z</time>
      </trkpt>
      <trkpt lat="42.6491550" lon="2.5873270">
        <ele>179.0</ele>
        <time>2020-07-21T09:13:44Z</time>
      </trkpt>
      <trkpt lat="42.6491370" lon="2.5873690">
        <ele>179.0</ele>
        <time>2020-07-21T09:13:45Z</time>
      </trkpt>
      <trkpt lat="42.6490970" lon="2.5875530">
        <ele>178.6</ele>
        <time>2020-07-21T09:13:49Z</time>
      </trkpt>
      <trkpt lat="42.6491020" lon="2.5876540">
        <ele>178.4</ele>
        <time>2020-07-21T09:13:51Z</time>
      </trkpt>
      <trkpt lat="42.6491240" lon="2.5877090">
        <ele>178.2</ele>
        <time>2020-07-21T09:13:53Z</time>
      </trkpt>
      <trkpt lat="42.6491650" lon="2.5877370">
        <ele>178.2</ele>
        <time>2020-07-21T09:13:55Z</time>
      </trkpt>
      <trkpt lat="42.6492480" lon="2.5877250">
        <ele>178.2</ele>
        <time>2020-07-21T09:13:58Z</time>
      </trkpt>
      <trkpt lat="42.6492840" lon="2.5877000">
        <ele>178.0</ele>
        <time>2020-07-21T09:13:59Z</time>
      </trkpt>
      <trkpt lat="42.6493150" lon="2.5876650">
        <ele>177.8</ele>
        <time>2020-07-21T09:14:00Z</time>
      </trkpt>
      <trkpt lat="42.6493810" lon="2.5875960">
        <ele>177.4</ele>
        <time>2020-07-21T09:14:02Z</time>
      </trkpt>
      <trkpt lat="42.6494500" lon="2.5875240">
        <ele>177.2</ele>
        <time>2020-07-21T09:14:04Z</time>
      </trkpt>
      <trkpt lat="42.6495240" lon="2.5874420">
        <ele>177.2</ele>
        <time>2020-07-21T09:14:06Z</time>
      </trkpt>
      <trkpt lat="42.6496300" lon="2.5873010">
        <ele>176.6</ele>
        <time>2020-07-21T09:14:09Z</time>
      </trkpt>
      <trkpt lat="42.6496700" lon="2.5872600">
        <ele>176.4</ele>
        <time>2020-07-21T09:14:10Z</time>
      </trkpt>
      <trkpt lat="42.6499050" lon="2.5870200">
        <ele>176.2</ele>
        <time>2020-07-21T09:14:16Z</time>
      </trkpt>
      <trkpt lat="42.6499450" lon="2.5869770">
        <ele>176.2</ele>
        <time>2020-07-21T09:14:17Z</time>
      </trkpt>
      <trkpt lat="42.6499850" lon="2.5869310">
        <ele>176.2</ele>
        <time>2020-07-21T09:14:18Z</time>
      </trkpt>
      <trkpt lat="42.6501290" lon="2.5867730">
        <ele>176.2</ele>
        <time>2020-07-21T09:14:22Z</time>
      </trkpt>
      <trkpt lat="42.6501910" lon="2.5867120">
        <ele>176.0</ele>
        <time>2020-07-21T09:14:24Z</time>
      </trkpt>
      <trkpt lat="42.6502260" lon="2.5866950">
        <ele>175.8</ele>
        <time>2020-07-21T09:14:25Z</time>
      </trkpt>
      <trkpt lat="42.6502630" lon="2.5866860">
        <ele>176.0</ele>
        <time>2020-07-21T09:14:26Z</time>
      </trkpt>
      <trkpt lat="42.6503350" lon="2.5866890">
        <ele>176.0</ele>
        <time>2020-07-21T09:14:28Z</time>
      </trkpt>
      <trkpt lat="42.6504650" lon="2.5868190">
        <ele>176.4</ele>
        <time>2020-07-21T09:14:32Z</time>
      </trkpt>
      <trkpt lat="42.6505770" lon="2.5869200">
        <ele>176.6</ele>
        <time>2020-07-21T09:14:35Z</time>
      </trkpt>
      <trkpt lat="42.6506640" lon="2.5869730">
        <ele>176.4</ele>
        <time>2020-07-21T09:14:37Z</time>
      </trkpt>
      <trkpt lat="42.6507100" lon="2.5869960">
        <ele>176.4</ele>
        <time>2020-07-21T09:14:38Z</time>
      </trkpt>
      <trkpt lat="42.6508590" lon="2.5870390">
        <ele>176.0</ele>
        <time>2020-07-21T09:14:41Z</time>
      </trkpt>
      <trkpt lat="42.6509100" lon="2.5870450">
        <ele>175.8</ele>
        <time>2020-07-21T09:14:42Z</time>
      </trkpt>
      <trkpt lat="42.6510100" lon="2.5870340">
        <ele>175.6</ele>
        <time>2020-07-21T09:14:44Z</time>
      </trkpt>
      <trkpt lat="42.6512800" lon="2.5869750">
        <ele>175.6</ele>
        <time>2020-07-21T09:14:49Z</time>
      </trkpt>
      <trkpt lat="42.6513960" lon="2.5869660">
        <ele>175.4</ele>
        <time>2020-07-21T09:14:51Z</time>
      </trkpt>
      <trkpt lat="42.6515690" lon="2.5869340">
        <ele>175.0</ele>
        <time>2020-07-21T09:14:54Z</time>
      </trkpt>
      <trkpt lat="42.6517380" lon="2.5868980">
        <ele>174.6</ele>
        <time>2020-07-21T09:14:57Z</time>
      </trkpt>
      <trkpt lat="42.6517930" lon="2.5868880">
        <ele>174.8</ele>
        <time>2020-07-21T09:14:58Z</time>
      </trkpt>
      <trkpt lat="42.6521220" lon="2.5868440">
        <ele>176.0</ele>
        <time>2020-07-21T09:15:04Z</time>
      </trkpt>
      <trkpt lat="42.6521750" lon="2.5868390">
        <ele>176.0</ele>
        <time>2020-07-21T09:15:05Z</time>
      </trkpt>
      <trkpt lat="42.6524180" lon="2.5868060">
        <ele>175.6</ele>
        <time>2020-07-21T09:15:10Z</time>
      </trkpt>
      <trkpt lat="42.6524640" lon="2.5868010">
        <ele>175.6</ele>
        <time>2020-07-21T09:15:11Z</time>
      </trkpt>
      <trkpt lat="42.6527400" lon="2.5867600">
        <ele>175.6</ele>
        <time>2020-07-21T09:15:17Z</time>
      </trkpt>
      <trkpt lat="42.6528890" lon="2.5867640">
        <ele>175.6</ele>
        <time>2020-07-21T09:15:20Z</time>
      </trkpt>
      <trkpt lat="42.6531840" lon="2.5867770">
        <ele>176.0</ele>
        <time>2020-07-21T09:15:26Z</time>
      </trkpt>
      <trkpt lat="42.6533170" lon="2.5867760">
        <ele>176.8</ele>
        <time>2020-07-21T09:15:29Z</time>
      </trkpt>
      <trkpt lat="42.6533630" lon="2.5867730">
        <ele>177.2</ele>
        <time>2020-07-21T09:15:30Z</time>
      </trkpt>
      <trkpt lat="42.6534650" lon="2.5867600">
        <ele>177.8</ele>
        <time>2020-07-21T09:15:32Z</time>
      </trkpt>
      <trkpt lat="42.6536950" lon="2.5867150">
        <ele>178.0</ele>
        <time>2020-07-21T09:15:36Z</time>
      </trkpt>
      <trkpt lat="42.6540160" lon="2.5866420">
        <ele>176.6</ele>
        <time>2020-07-21T09:15:41Z</time>
      </trkpt>
      <trkpt lat="42.6542150" lon="2.5865920">
        <ele>176.0</ele>
        <time>2020-07-21T09:15:44Z</time>
      </trkpt>
      <trkpt lat="42.6543440" lon="2.5865600">
        <ele>175.6</ele>
        <time>2020-07-21T09:15:46Z</time>
      </trkpt>
      <trkpt lat="42.6546620" lon="2.5864880">
        <ele>174.6</ele>
        <time>2020-07-21T09:15:51Z</time>
      </trkpt>
      <trkpt lat="42.6547250" lon="2.5864740">
        <ele>174.6</ele>
        <time>2020-07-21T09:15:52Z</time>
      </trkpt>
      <trkpt lat="42.6548500" lon="2.5864470">
        <ele>174.6</ele>
        <time>2020-07-21T09:15:54Z</time>
      </trkpt>
      <trkpt lat="42.6552070" lon="2.5863580">
        <ele>175.2</ele>
        <time>2020-07-21T09:16:00Z</time>
      </trkpt>
      <trkpt lat="42.6553710" lon="2.5863130">
        <ele>175.4</ele>
        <time>2020-07-21T09:16:03Z</time>
      </trkpt>
      <trkpt lat="42.6556340" lon="2.5862480">
        <ele>175.0</ele>
        <time>2020-07-21T09:16:08Z</time>
      </trkpt>
      <trkpt lat="42.6559160" lon="2.5861760">
        <ele>174.8</ele>
        <time>2020-07-21T09:16:14Z</time>
      </trkpt>
      <trkpt lat="42.6560040" lon="2.5861550">
        <ele>174.8</ele>
        <time>2020-07-21T09:16:16Z</time>
      </trkpt>
      <trkpt lat="42.6561350" lon="2.5861230">
        <ele>175.2</ele>
        <time>2020-07-21T09:16:19Z</time>
      </trkpt>
      <trkpt lat="42.6563600" lon="2.5860920">
        <ele>175.4</ele>
        <time>2020-07-21T09:16:24Z</time>
      </trkpt>
      <trkpt lat="42.6564080" lon="2.5860920">
        <ele>175.4</ele>
        <time>2020-07-21T09:16:25Z</time>
      </trkpt>
      <trkpt lat="42.6564570" lon="2.5860810">
        <ele>175.6</ele>
        <time>2020-07-21T09:16:26Z</time>
      </trkpt>
      <trkpt lat="42.6565020" lon="2.5860540">
        <ele>175.6</ele>
        <time>2020-07-21T09:16:27Z</time>
      </trkpt>
      <trkpt lat="42.6565390" lon="2.5860100">
        <ele>176.0</ele>
        <time>2020-07-21T09:16:28Z</time>
      </trkpt>
      <trkpt lat="42.6565640" lon="2.5858860">
        <ele>176.2</ele>
        <time>2020-07-21T09:16:30Z</time>
      </trkpt>
      <trkpt lat="42.6565370" lon="2.5858120">
        <ele>176.2</ele>
        <time>2020-07-21T09:16:31Z</time>
      </trkpt>
      <trkpt lat="42.6565000" lon="2.5857460">
        <ele>176.4</ele>
        <time>2020-07-21T09:16:32Z</time>
      </trkpt>
      <trkpt lat="42.6563680" lon="2.5855550">
        <ele>176.0</ele>
        <time>2020-07-21T09:16:35Z</time>
      </trkpt>
      <trkpt lat="42.6562310" lon="2.5852460">
        <ele>175.8</ele>
        <time>2020-07-21T09:16:39Z</time>
      </trkpt>
      <trkpt lat="42.6561680" lon="2.5850940">
        <ele>176.0</ele>
        <time>2020-07-21T09:16:41Z</time>
      </trkpt>
      <trkpt lat="42.6559970" lon="2.5847060">
        <ele>176.8</ele>
        <time>2020-07-21T09:16:46Z</time>
      </trkpt>
      <trkpt lat="42.6559220" lon="2.5845420">
        <ele>176.8</ele>
        <time>2020-07-21T09:16:48Z</time>
      </trkpt>
      <trkpt lat="42.6557000" lon="2.5840530">
        <ele>177.0</ele>
        <time>2020-07-21T09:16:54Z</time>
      </trkpt>
      <trkpt lat="42.6555500" lon="2.5837200">
        <ele>177.4</ele>
        <time>2020-07-21T09:16:58Z</time>
      </trkpt>
      <trkpt lat="42.6554760" lon="2.5835480">
        <ele>177.4</ele>
        <time>2020-07-21T09:17:00Z</time>
      </trkpt>
      <trkpt lat="42.6553620" lon="2.5832930">
        <ele>177.8</ele>
        <time>2020-07-21T09:17:03Z</time>
      </trkpt>
      <trkpt lat="42.6553240" lon="2.5832090">
        <ele>177.8</ele>
        <time>2020-07-21T09:17:04Z</time>
      </trkpt>
      <trkpt lat="42.6551760" lon="2.5828800">
        <ele>178.4</ele>
        <time>2020-07-21T09:17:08Z</time>
      </trkpt>
      <trkpt lat="42.6549580" lon="2.5823920">
        <ele>178.6</ele>
        <time>2020-07-21T09:17:14Z</time>
      </trkpt>
      <trkpt lat="42.6548860" lon="2.5822330">
        <ele>179.0</ele>
        <time>2020-07-21T09:17:16Z</time>
      </trkpt>
      <trkpt lat="42.6546780" lon="2.5817690">
        <ele>180.2</ele>
        <time>2020-07-21T09:17:22Z</time>
      </trkpt>
      <trkpt lat="42.6546450" lon="2.5816940">
        <ele>180.4</ele>
        <time>2020-07-21T09:17:23Z</time>
      </trkpt>
      <trkpt lat="42.6545770" lon="2.5815470">
        <ele>180.8</ele>
        <time>2020-07-21T09:17:25Z</time>
      </trkpt>
      <trkpt lat="42.6544830" lon="2.5813360">
        <ele>181.2</ele>
        <time>2020-07-21T09:17:28Z</time>
      </trkpt>
      <trkpt lat="42.6543830" lon="2.5811350">
        <ele>181.4</ele>
        <time>2020-07-21T09:17:31Z</time>
      </trkpt>
      <trkpt lat="42.6543510" lon="2.5810700">
        <ele>181.6</ele>
        <time>2020-07-21T09:17:32Z</time>
      </trkpt>
      <trkpt lat="42.6542550" lon="2.5808640">
        <ele>182.2</ele>
        <time>2020-07-21T09:17:35Z</time>
      </trkpt>
      <trkpt lat="42.6542250" lon="2.5807940">
        <ele>182.4</ele>
        <time>2020-07-21T09:17:36Z</time>
      </trkpt>
      <trkpt lat="42.6540710" lon="2.5804430">
        <ele>183.0</ele>
        <time>2020-07-21T09:17:41Z</time>
      </trkpt>
      <trkpt lat="42.6540400" lon="2.5803700">
        <ele>183.0</ele>
        <time>2020-07-21T09:17:42Z</time>
      </trkpt>
      <trkpt lat="42.6538300" lon="2.5799020">
        <ele>183.2</ele>
        <time>2020-07-21T09:17:48Z</time>
      </trkpt>
      <trkpt lat="42.6537190" lon="2.5796580">
        <ele>183.2</ele>
        <time>2020-07-21T09:17:51Z</time>
      </trkpt>
      <trkpt lat="42.6534870" lon="2.5791450">
        <ele>183.2</ele>
        <time>2020-07-21T09:17:57Z</time>
      </trkpt>
      <trkpt lat="42.6533640" lon="2.5788710">
        <ele>183.2</ele>
        <time>2020-07-21T09:18:00Z</time>
      </trkpt>
      <trkpt lat="42.6532810" lon="2.5786860">
        <ele>183.4</ele>
        <time>2020-07-21T09:18:02Z</time>
      </trkpt>
      <trkpt lat="42.6530260" lon="2.5781150">
        <ele>183.4</ele>
        <time>2020-07-21T09:18:08Z</time>
      </trkpt>
      <trkpt lat="42.6529400" lon="2.5779240">
        <ele>183.6</ele>
        <time>2020-07-21T09:18:10Z</time>
      </trkpt>
      <trkpt lat="42.6528970" lon="2.5778290">
        <ele>183.8</ele>
        <time>2020-07-21T09:18:11Z</time>
      </trkpt>
      <trkpt lat="42.6528550" lon="2.5777360">
        <ele>184.0</ele>
        <time>2020-07-21T09:18:12Z</time>
      </trkpt>
      <trkpt lat="42.6527280" lon="2.5774610">
        <ele>184.6</ele>
        <time>2020-07-21T09:18:15Z</time>
      </trkpt>
      <trkpt lat="42.6524860" lon="2.5769240">
        <ele>185.0</ele>
        <time>2020-07-21T09:18:21Z</time>
      </trkpt>
      <trkpt lat="42.6524060" lon="2.5767480">
        <ele>185.4</ele>
        <time>2020-07-21T09:18:23Z</time>
      </trkpt>
      <trkpt lat="42.6523270" lon="2.5765710">
        <ele>185.8</ele>
        <time>2020-07-21T09:18:25Z</time>
      </trkpt>
      <trkpt lat="42.6521310" lon="2.5761370">
        <ele>187.0</ele>
        <time>2020-07-21T09:18:30Z</time>
      </trkpt>
      <trkpt lat="42.6519020" lon="2.5756240">
        <ele>187.6</ele>
        <time>2020-07-21T09:18:36Z</time>
      </trkpt>
      <trkpt lat="42.6518270" lon="2.5754560">
        <ele>188.0</ele>
        <time>2020-07-21T09:18:38Z</time>
      </trkpt>
      <trkpt lat="42.6516790" lon="2.5751220">
        <ele>188.4</ele>
        <time>2020-07-21T09:18:42Z</time>
      </trkpt>
      <trkpt lat="42.6515370" lon="2.5747910">
        <ele>189.0</ele>
        <time>2020-07-21T09:18:46Z</time>
      </trkpt>
      <trkpt lat="42.6515050" lon="2.5747060">
        <ele>189.0</ele>
        <time>2020-07-21T09:18:47Z</time>
      </trkpt>
      <trkpt lat="42.6514110" lon="2.5744730">
        <ele>190.2</ele>
        <time>2020-07-21T09:18:50Z</time>
      </trkpt>
      <trkpt lat="42.6513830" lon="2.5744000">
        <ele>190.6</ele>
        <time>2020-07-21T09:18:51Z</time>
      </trkpt>
      <trkpt lat="42.6506340" lon="2.5731210">
        <ele>193.2</ele>
        <time>2020-07-21T09:20:55Z</time>
      </trkpt>
      <trkpt lat="42.6506150" lon="2.5730910">
        <ele>193.4</ele>
        <time>2020-07-21T09:20:56Z</time>
      </trkpt>
      <trkpt lat="42.6504370" lon="2.5727840">
        <ele>194.4</ele>
        <time>2020-07-21T09:21:01Z</time>
      </trkpt>
      <trkpt lat="42.6502990" lon="2.5725420">
        <ele>194.8</ele>
        <time>2020-07-21T09:21:05Z</time>
      </trkpt>
      <trkpt lat="42.6502320" lon="2.5724180">
        <ele>195.2</ele>
        <time>2020-07-21T09:21:07Z</time>
      </trkpt>
      <trkpt lat="42.6501630" lon="2.5722880">
        <ele>195.4</ele>
        <time>2020-07-21T09:21:09Z</time>
      </trkpt>
      <trkpt lat="42.6501290" lon="2.5722220">
        <ele>195.4</ele>
        <time>2020-07-21T09:21:10Z</time>
      </trkpt>
      <trkpt lat="42.6500640" lon="2.5720860">
        <ele>195.8</ele>
        <time>2020-07-21T09:21:12Z</time>
      </trkpt>
      <trkpt lat="42.6500330" lon="2.5720160">
        <ele>195.8</ele>
        <time>2020-07-21T09:21:13Z</time>
      </trkpt>
      <trkpt lat="42.6500030" lon="2.5719440">
        <ele>195.8</ele>
        <time>2020-07-21T09:21:14Z</time>
      </trkpt>
      <trkpt lat="42.6499180" lon="2.5717220">
        <ele>196.4</ele>
        <time>2020-07-21T09:21:17Z</time>
      </trkpt>
      <trkpt lat="42.6498910" lon="2.5716450">
        <ele>196.6</ele>
        <time>2020-07-21T09:21:18Z</time>
      </trkpt>
      <trkpt lat="42.6497800" lon="2.5713380">
        <ele>197.2</ele>
        <time>2020-07-21T09:21:22Z</time>
      </trkpt>
      <trkpt lat="42.6497240" lon="2.5711840">
        <ele>197.2</ele>
        <time>2020-07-21T09:21:24Z</time>
      </trkpt>
      <trkpt lat="42.6495810" lon="2.5707880">
        <ele>197.6</ele>
        <time>2020-07-21T09:21:29Z</time>
      </trkpt>
      <trkpt lat="42.6495230" lon="2.5706260">
        <ele>197.8</ele>
        <time>2020-07-21T09:21:31Z</time>
      </trkpt>
      <trkpt lat="42.6494640" lon="2.5704620">
        <ele>198.0</ele>
        <time>2020-07-21T09:21:33Z</time>
      </trkpt>
      <trkpt lat="42.6492860" lon="2.5699790">
        <ele>198.4</ele>
        <time>2020-07-21T09:21:39Z</time>
      </trkpt>
      <trkpt lat="42.6492000" lon="2.5697450">
        <ele>198.8</ele>
        <time>2020-07-21T09:21:42Z</time>
      </trkpt>
      <trkpt lat="42.6491140" lon="2.5695190">
        <ele>199.6</ele>
        <time>2020-07-21T09:21:45Z</time>
      </trkpt>
      <trkpt lat="42.6490520" lon="2.5693770">
        <ele>200.0</ele>
        <time>2020-07-21T09:21:47Z</time>
      </trkpt>
      <trkpt lat="42.6489100" lon="2.5691170">
        <ele>201.0</ele>
        <time>2020-07-21T09:21:51Z</time>
      </trkpt>
      <trkpt lat="42.6488270" lon="2.5690010">
        <ele>201.4</ele>
        <time>2020-07-21T09:21:53Z</time>
      </trkpt>
      <trkpt lat="42.6487830" lon="2.5689450">
        <ele>201.6</ele>
        <time>2020-07-21T09:21:54Z</time>
      </trkpt>
      <trkpt lat="42.6485930" lon="2.5687540">
        <ele>202.0</ele>
        <time>2020-07-21T09:21:58Z</time>
      </trkpt>
      <trkpt lat="42.6485410" lon="2.5687130">
        <ele>202.2</ele>
        <time>2020-07-21T09:21:59Z</time>
      </trkpt>
      <trkpt lat="42.6481970" lon="2.5685180">
        <ele>202.8</ele>
        <time>2020-07-21T09:22:05Z</time>
      </trkpt>
      <trkpt lat="42.6481360" lon="2.5684910">
        <ele>203.0</ele>
        <time>2020-07-21T09:22:06Z</time>
      </trkpt>
      <trkpt lat="42.6480740" lon="2.5684650">
        <ele>203.2</ele>
        <time>2020-07-21T09:22:07Z</time>
      </trkpt>
      <trkpt lat="42.6476980" lon="2.5682900">
        <ele>204.2</ele>
        <time>2020-07-21T09:22:13Z</time>
      </trkpt>
      <trkpt lat="42.6476350" lon="2.5682540">
        <ele>204.4</ele>
        <time>2020-07-21T09:22:14Z</time>
      </trkpt>
      <trkpt lat="42.6475740" lon="2.5682140">
        <ele>204.6</ele>
        <time>2020-07-21T09:22:15Z</time>
      </trkpt>
      <trkpt lat="42.6473440" lon="2.5680140">
        <ele>205.4</ele>
        <time>2020-07-21T09:22:19Z</time>
      </trkpt>
      <trkpt lat="42.6472410" lon="2.5678950">
        <ele>205.6</ele>
        <time>2020-07-21T09:22:21Z</time>
      </trkpt>
      <trkpt lat="42.6471170" lon="2.5676920">
        <ele>206.0</ele>
        <time>2020-07-21T09:22:24Z</time>
      </trkpt>
      <trkpt lat="42.6470520" lon="2.5675470">
        <ele>206.2</ele>
        <time>2020-07-21T09:22:26Z</time>
      </trkpt>
      <trkpt lat="42.6470220" lon="2.5674720">
        <ele>206.6</ele>
        <time>2020-07-21T09:22:27Z</time>
      </trkpt>
      <trkpt lat="42.6469360" lon="2.5671520">
        <ele>207.6</ele>
        <time>2020-07-21T09:22:31Z</time>
      </trkpt>
      <trkpt lat="42.6469210" lon="2.5670690">
        <ele>207.8</ele>
        <time>2020-07-21T09:22:32Z</time>
      </trkpt>
      <trkpt lat="42.6468840" lon="2.5666570">
        <ele>208.4</ele>
        <time>2020-07-21T09:22:37Z</time>
      </trkpt>
      <trkpt lat="42.6468830" lon="2.5663330">
        <ele>208.8</ele>
        <time>2020-07-21T09:22:41Z</time>
      </trkpt>
      <trkpt lat="42.6469000" lon="2.5660180">
        <ele>209.8</ele>
        <time>2020-07-21T09:22:45Z</time>
      </trkpt>
      <trkpt lat="42.6469060" lon="2.5659420">
        <ele>210.0</ele>
        <time>2020-07-21T09:22:46Z</time>
      </trkpt>
      <trkpt lat="42.6469160" lon="2.5654750">
        <ele>210.6</ele>
        <time>2020-07-21T09:22:52Z</time>
      </trkpt>
      <trkpt lat="42.6469130" lon="2.5653980">
        <ele>210.8</ele>
        <time>2020-07-21T09:22:53Z</time>
      </trkpt>
      <trkpt lat="42.6469040" lon="2.5653190">
        <ele>211.2</ele>
        <time>2020-07-21T09:22:54Z</time>
      </trkpt>
      <trkpt lat="42.6468220" lon="2.5649270">
        <ele>212.0</ele>
        <time>2020-07-21T09:22:59Z</time>
      </trkpt>
      <trkpt lat="42.6467980" lon="2.5648540">
        <ele>212.0</ele>
        <time>2020-07-21T09:23:00Z</time>
      </trkpt>
      <trkpt lat="42.6467120" lon="2.5646400">
        <ele>212.4</ele>
        <time>2020-07-21T09:23:03Z</time>
      </trkpt>
      <trkpt lat="42.6466100" lon="2.5644300">
        <ele>212.8</ele>
        <time>2020-07-21T09:23:06Z</time>
      </trkpt>
      <trkpt lat="42.6464720" lon="2.5641590">
        <ele>213.8</ele>
        <time>2020-07-21T09:23:10Z</time>
      </trkpt>
      <trkpt lat="42.6463330" lon="2.5638970">
        <ele>214.8</ele>
        <time>2020-07-21T09:23:14Z</time>
      </trkpt>
      <trkpt lat="42.6462670" lon="2.5637710">
        <ele>215.4</ele>
        <time>2020-07-21T09:23:16Z</time>
      </trkpt>
      <trkpt lat="42.6462030" lon="2.5636460">
        <ele>215.8</ele>
        <time>2020-07-21T09:23:18Z</time>
      </trkpt>
      <trkpt lat="42.6460730" lon="2.5633950">
        <ele>217.0</ele>
        <time>2020-07-21T09:23:22Z</time>
      </trkpt>
      <trkpt lat="42.6459520" lon="2.5631380">
        <ele>218.0</ele>
        <time>2020-07-21T09:23:26Z</time>
      </trkpt>
      <trkpt lat="42.6458230" lon="2.5628140">
        <ele>219.0</ele>
        <time>2020-07-21T09:23:31Z</time>
      </trkpt>
      <trkpt lat="42.6457770" lon="2.5626870">
        <ele>219.4</ele>
        <time>2020-07-21T09:23:33Z</time>
      </trkpt>
      <trkpt lat="42.6457080" lon="2.5625010">
        <ele>220.0</ele>
        <time>2020-07-21T09:23:36Z</time>
      </trkpt>
      <trkpt lat="42.6456370" lon="2.5623120">
        <ele>221.0</ele>
        <time>2020-07-21T09:23:39Z</time>
      </trkpt>
      <trkpt lat="42.6456150" lon="2.5622480">
        <ele>221.2</ele>
        <time>2020-07-21T09:23:40Z</time>
      </trkpt>
      <trkpt lat="42.6455210" lon="2.5619910">
        <ele>222.2</ele>
        <time>2020-07-21T09:23:44Z</time>
      </trkpt>
      <trkpt lat="42.6455000" lon="2.5619250">
        <ele>222.4</ele>
        <time>2020-07-21T09:23:45Z</time>
      </trkpt>
      <trkpt lat="42.6454160" lon="2.5615200">
        <ele>223.2</ele>
        <time>2020-07-21T09:23:51Z</time>
      </trkpt>
      <trkpt lat="42.6454090" lon="2.5614500">
        <ele>223.4</ele>
        <time>2020-07-21T09:23:52Z</time>
      </trkpt>
      <trkpt lat="42.6454080" lon="2.5611590">
        <ele>224.6</ele>
        <time>2020-07-21T09:23:56Z</time>
      </trkpt>
      <trkpt lat="42.6454210" lon="2.5610070">
        <ele>224.8</ele>
        <time>2020-07-21T09:23:58Z</time>
      </trkpt>
      <trkpt lat="42.6455150" lon="2.5606130">
        <ele>225.2</ele>
        <time>2020-07-21T09:24:03Z</time>
      </trkpt>
      <trkpt lat="42.6457520" lon="2.5601220">
        <ele>223.8</ele>
        <time>2020-07-21T09:24:09Z</time>
      </trkpt>
      <trkpt lat="42.6458080" lon="2.5600430">
        <ele>223.6</ele>
        <time>2020-07-21T09:24:10Z</time>
      </trkpt>
      <trkpt lat="42.6459920" lon="2.5598120">
        <ele>222.6</ele>
        <time>2020-07-21T09:24:13Z</time>
      </trkpt>
      <trkpt lat="42.6460590" lon="2.5597360">
        <ele>222.2</ele>
        <time>2020-07-21T09:24:14Z</time>
      </trkpt>
      <trkpt lat="42.6463900" lon="2.5593360">
        <ele>221.2</ele>
        <time>2020-07-21T09:24:19Z</time>
      </trkpt>
      <trkpt lat="42.6466630" lon="2.5590220">
        <ele>220.2</ele>
        <time>2020-07-21T09:24:23Z</time>
      </trkpt>
      <trkpt lat="42.6467280" lon="2.5589410">
        <ele>220.0</ele>
        <time>2020-07-21T09:24:24Z</time>
      </trkpt>
      <trkpt lat="42.6469300" lon="2.5587140">
        <ele>219.6</ele>
        <time>2020-07-21T09:24:27Z</time>
      </trkpt>
      <trkpt lat="42.6469970" lon="2.5586400">
        <ele>219.0</ele>
        <time>2020-07-21T09:24:28Z</time>
      </trkpt>
      <trkpt lat="42.6471260" lon="2.5584880">
        <ele>217.8</ele>
        <time>2020-07-21T09:24:30Z</time>
      </trkpt>
      <trkpt lat="42.6472550" lon="2.5583320">
        <ele>217.0</ele>
        <time>2020-07-21T09:24:32Z</time>
      </trkpt>
      <trkpt lat="42.6473210" lon="2.5582550">
        <ele>216.8</ele>
        <time>2020-07-21T09:24:33Z</time>
      </trkpt>
      <trkpt lat="42.6476010" lon="2.5579280">
        <ele>217.0</ele>
        <time>2020-07-21T09:24:37Z</time>
      </trkpt>
      <trkpt lat="42.6477510" lon="2.5577590">
        <ele>216.8</ele>
        <time>2020-07-21T09:24:39Z</time>
      </trkpt>
      <trkpt lat="42.6479060" lon="2.5575930">
        <ele>215.0</ele>
        <time>2020-07-21T09:24:41Z</time>
      </trkpt>
      <trkpt lat="42.6479870" lon="2.5575110">
        <ele>213.8</ele>
        <time>2020-07-21T09:24:42Z</time>
      </trkpt>
      <trkpt lat="42.6480710" lon="2.5574310">
        <ele>212.8</ele>
        <time>2020-07-21T09:24:43Z</time>
      </trkpt>
      <trkpt lat="42.6481560" lon="2.5573480">
        <ele>212.4</ele>
        <time>2020-07-21T09:24:44Z</time>
      </trkpt>
      <trkpt lat="42.6483280" lon="2.5571840">
        <ele>211.4</ele>
        <time>2020-07-21T09:24:46Z</time>
      </trkpt>
      <trkpt lat="42.6484160" lon="2.5571030">
        <ele>211.0</ele>
        <time>2020-07-21T09:24:47Z</time>
      </trkpt>
      <trkpt lat="42.6485950" lon="2.5569350">
        <ele>210.0</ele>
        <time>2020-07-21T09:24:49Z</time>
      </trkpt>
      <trkpt lat="42.6487790" lon="2.5567630">
        <ele>208.6</ele>
        <time>2020-07-21T09:24:51Z</time>
      </trkpt>
      <trkpt lat="42.6488730" lon="2.5566770">
        <ele>207.4</ele>
        <time>2020-07-21T09:24:52Z</time>
      </trkpt>
      <trkpt lat="42.6489670" lon="2.5565890">
        <ele>206.4</ele>
        <time>2020-07-21T09:24:53Z</time>
      </trkpt>
      <trkpt lat="42.6490600" lon="2.5565000">
        <ele>205.4</ele>
        <time>2020-07-21T09:24:54Z</time>
      </trkpt>
      <trkpt lat="42.6491540" lon="2.5564120">
        <ele>204.8</ele>
        <time>2020-07-21T09:24:55Z</time>
      </trkpt>
      <trkpt lat="42.6494430" lon="2.5561460">
        <ele>203.2</ele>
        <time>2020-07-21T09:24:58Z</time>
      </trkpt>
      <trkpt lat="42.6496300" lon="2.5559760">
        <ele>201.4</ele>
        <time>2020-07-21T09:25:00Z</time>
      </trkpt>
      <trkpt lat="42.6497210" lon="2.5559000">
        <ele>200.8</ele>
        <time>2020-07-21T09:25:01Z</time>
      </trkpt>
      <trkpt lat="42.6498070" lon="2.5558240">
        <ele>200.4</ele>
        <time>2020-07-21T09:25:02Z</time>
      </trkpt>
      <trkpt lat="42.6499720" lon="2.5556790">
        <ele>200.6</ele>
        <time>2020-07-21T09:25:04Z</time>
      </trkpt>
      <trkpt lat="42.6502050" lon="2.5554650">
        <ele>201.2</ele>
        <time>2020-07-21T09:25:07Z</time>
      </trkpt>
      <trkpt lat="42.6502830" lon="2.5553990">
        <ele>201.6</ele>
        <time>2020-07-21T09:25:08Z</time>
      </trkpt>
      <trkpt lat="42.6503600" lon="2.5553320">
        <ele>201.6</ele>
        <time>2020-07-21T09:25:09Z</time>
      </trkpt>
      <trkpt lat="42.6505120" lon="2.5552010">
        <ele>201.2</ele>
        <time>2020-07-21T09:25:11Z</time>
      </trkpt>
      <trkpt lat="42.6506600" lon="2.5550850">
        <ele>200.8</ele>
        <time>2020-07-21T09:25:13Z</time>
      </trkpt>
      <trkpt lat="42.6510750" lon="2.5547130">
        <ele>201.2</ele>
        <time>2020-07-21T09:25:19Z</time>
      </trkpt>
      <trkpt lat="42.6512030" lon="2.5546000">
        <ele>201.2</ele>
        <time>2020-07-21T09:25:21Z</time>
      </trkpt>
      <trkpt lat="42.6514950" lon="2.5543060">
        <ele>202.8</ele>
        <time>2020-07-21T09:25:26Z</time>
      </trkpt>
      <trkpt lat="42.6515990" lon="2.5541820">
        <ele>203.2</ele>
        <time>2020-07-21T09:25:28Z</time>
      </trkpt>
      <trkpt lat="42.6517400" lon="2.5539870">
        <ele>203.6</ele>
        <time>2020-07-21T09:25:31Z</time>
      </trkpt>
      <trkpt lat="42.6518250" lon="2.5538540">
        <ele>204.0</ele>
        <time>2020-07-21T09:25:33Z</time>
      </trkpt>
      <trkpt lat="42.6519090" lon="2.5537170">
        <ele>204.4</ele>
        <time>2020-07-21T09:25:35Z</time>
      </trkpt>
      <trkpt lat="42.6520850" lon="2.5533420">
        <ele>205.0</ele>
        <time>2020-07-21T09:25:40Z</time>
      </trkpt>
      <trkpt lat="42.6521370" lon="2.5531790">
        <ele>205.4</ele>
        <time>2020-07-21T09:25:42Z</time>
      </trkpt>
      <trkpt lat="42.6522460" lon="2.5528600">
        <ele>206.0</ele>
        <time>2020-07-21T09:25:46Z</time>
      </trkpt>
      <trkpt lat="42.6522680" lon="2.5527770">
        <ele>206.2</ele>
        <time>2020-07-21T09:25:47Z</time>
      </trkpt>
      <trkpt lat="42.6522910" lon="2.5526930">
        <ele>206.4</ele>
        <time>2020-07-21T09:25:48Z</time>
      </trkpt>
      <trkpt lat="42.6523090" lon="2.5526060">
        <ele>206.6</ele>
        <time>2020-07-21T09:25:49Z</time>
      </trkpt>
      <trkpt lat="42.6523390" lon="2.5524280">
        <ele>206.8</ele>
        <time>2020-07-21T09:25:51Z</time>
      </trkpt>
      <trkpt lat="42.6523840" lon="2.5520670">
        <ele>207.0</ele>
        <time>2020-07-21T09:25:55Z</time>
      </trkpt>
      <trkpt lat="42.6524040" lon="2.5517920">
        <ele>207.2</ele>
        <time>2020-07-21T09:25:58Z</time>
      </trkpt>
      <trkpt lat="42.6524080" lon="2.5517000">
        <ele>207.4</ele>
        <time>2020-07-21T09:25:59Z</time>
      </trkpt>
      <trkpt lat="42.6524130" lon="2.5512480">
        <ele>208.4</ele>
        <time>2020-07-21T09:26:04Z</time>
      </trkpt>
      <trkpt lat="42.6524040" lon="2.5509860">
        <ele>208.8</ele>
        <time>2020-07-21T09:26:07Z</time>
      </trkpt>
      <trkpt lat="42.6523940" lon="2.5507310">
        <ele>209.6</ele>
        <time>2020-07-21T09:26:10Z</time>
      </trkpt>
      <trkpt lat="42.6523800" lon="2.5504900">
        <ele>210.6</ele>
        <time>2020-07-21T09:26:13Z</time>
      </trkpt>
      <trkpt lat="42.6523680" lon="2.5503370">
        <ele>211.4</ele>
        <time>2020-07-21T09:26:15Z</time>
      </trkpt>
      <trkpt lat="42.6523620" lon="2.5502640">
        <ele>211.8</ele>
        <time>2020-07-21T09:26:16Z</time>
      </trkpt>
      <trkpt lat="42.6523510" lon="2.5501230">
        <ele>212.4</ele>
        <time>2020-07-21T09:26:18Z</time>
      </trkpt>
      <trkpt lat="42.6523470" lon="2.5500530">
        <ele>212.8</ele>
        <time>2020-07-21T09:26:19Z</time>
      </trkpt>
      <trkpt lat="42.6523270" lon="2.5497820">
        <ele>214.0</ele>
        <time>2020-07-21T09:26:23Z</time>
      </trkpt>
      <trkpt lat="42.6523180" lon="2.5496480">
        <ele>214.6</ele>
        <time>2020-07-21T09:26:25Z</time>
      </trkpt>
      <trkpt lat="42.6523090" lon="2.5495190">
        <ele>215.2</ele>
        <time>2020-07-21T09:26:27Z</time>
      </trkpt>
      <trkpt lat="42.6522940" lon="2.5492670">
        <ele>216.2</ele>
        <time>2020-07-21T09:26:31Z</time>
      </trkpt>
      <trkpt lat="42.6522820" lon="2.5490350">
        <ele>217.4</ele>
        <time>2020-07-21T09:26:35Z</time>
      </trkpt>
      <trkpt lat="42.6522800" lon="2.5488020">
        <ele>218.6</ele>
        <time>2020-07-21T09:26:39Z</time>
      </trkpt>
      <trkpt lat="42.6522910" lon="2.5485740">
        <ele>219.6</ele>
        <time>2020-07-21T09:26:43Z</time>
      </trkpt>
      <trkpt lat="42.6523070" lon="2.5483500">
        <ele>220.8</ele>
        <time>2020-07-21T09:26:47Z</time>
      </trkpt>
      <trkpt lat="42.6523250" lon="2.5481830">
        <ele>222.0</ele>
        <time>2020-07-21T09:26:50Z</time>
      </trkpt>
      <trkpt lat="42.6523330" lon="2.5481280">
        <ele>222.2</ele>
        <time>2020-07-21T09:26:51Z</time>
      </trkpt>
      <trkpt lat="42.6523560" lon="2.5479610">
        <ele>223.0</ele>
        <time>2020-07-21T09:26:54Z</time>
      </trkpt>
      <trkpt lat="42.6523990" lon="2.5477430">
        <ele>224.2</ele>
        <time>2020-07-21T09:26:58Z</time>
      </trkpt>
      <trkpt lat="42.6524250" lon="2.5476370">
        <ele>224.6</ele>
        <time>2020-07-21T09:27:00Z</time>
      </trkpt>
      <trkpt lat="42.6524670" lon="2.5474920">
        <ele>225.4</ele>
        <time>2020-07-21T09:27:03Z</time>
      </trkpt>
      <trkpt lat="42.6525140" lon="2.5472890">
        <ele>226.6</ele>
        <time>2020-07-21T09:27:07Z</time>
      </trkpt>
      <trkpt lat="42.6525500" lon="2.5470210">
        <ele>227.6</ele>
        <time>2020-07-21T09:27:12Z</time>
      </trkpt>
      <trkpt lat="42.6525690" lon="2.5468090">
        <ele>229.0</ele>
        <time>2020-07-21T09:27:16Z</time>
      </trkpt>
      <trkpt lat="42.6525750" lon="2.5467570">
        <ele>229.4</ele>
        <time>2020-07-21T09:27:17Z</time>
      </trkpt>
      <trkpt lat="42.6526030" lon="2.5465540">
        <ele>230.2</ele>
        <time>2020-07-21T09:27:21Z</time>
      </trkpt>
      <trkpt lat="42.6526300" lon="2.5463480">
        <ele>231.4</ele>
        <time>2020-07-21T09:27:25Z</time>
      </trkpt>
      <trkpt lat="42.6526360" lon="2.5462980">
        <ele>231.6</ele>
        <time>2020-07-21T09:27:26Z</time>
      </trkpt>
      <trkpt lat="42.6526350" lon="2.5460970">
        <ele>232.6</ele>
        <time>2020-07-21T09:27:30Z</time>
      </trkpt>
      <trkpt lat="42.6526370" lon="2.5460000">
        <ele>232.8</ele>
        <time>2020-07-21T09:27:32Z</time>
      </trkpt>
      <trkpt lat="42.6526440" lon="2.5458460">
        <ele>233.6</ele>
        <time>2020-07-21T09:27:35Z</time>
      </trkpt>
      <trkpt lat="42.6526500" lon="2.5456270">
        <ele>234.6</ele>
        <time>2020-07-21T09:27:39Z</time>
      </trkpt>
      <trkpt lat="42.6526520" lon="2.5455190">
        <ele>235.2</ele>
        <time>2020-07-21T09:27:41Z</time>
      </trkpt>
      <trkpt lat="42.6526520" lon="2.5454100">
        <ele>235.8</ele>
        <time>2020-07-21T09:27:43Z</time>
      </trkpt>
      <trkpt lat="42.6526200" lon="2.5450620">
        <ele>236.2</ele>
        <time>2020-07-21T09:27:49Z</time>
      </trkpt>
      <trkpt lat="42.6525660" lon="2.5447000">
        <ele>236.8</ele>
        <time>2020-07-21T09:27:55Z</time>
      </trkpt>
      <trkpt lat="42.6525550" lon="2.5446390">
        <ele>237.0</ele>
        <time>2020-07-21T09:27:56Z</time>
      </trkpt>
      <trkpt lat="42.6525440" lon="2.5445790">
        <ele>237.0</ele>
        <time>2020-07-21T09:27:57Z</time>
      </trkpt>
      <trkpt lat="42.6524720" lon="2.5442140">
        <ele>238.2</ele>
        <time>2020-07-21T09:28:03Z</time>
      </trkpt>
      <trkpt lat="42.6524220" lon="2.5440270">
        <ele>238.6</ele>
        <time>2020-07-21T09:28:06Z</time>
      </trkpt>
      <trkpt lat="42.6523030" lon="2.5436390">
        <ele>239.0</ele>
        <time>2020-07-21T09:28:12Z</time>
      </trkpt>
      <trkpt lat="42.6522550" lon="2.5435060">
        <ele>239.0</ele>
        <time>2020-07-21T09:28:14Z</time>
      </trkpt>
      <trkpt lat="42.6521020" lon="2.5430920">
        <ele>239.0</ele>
        <time>2020-07-21T09:28:20Z</time>
      </trkpt>
      <trkpt lat="42.6519940" lon="2.5428080">
        <ele>238.8</ele>
        <time>2020-07-21T09:28:24Z</time>
      </trkpt>
      <trkpt lat="42.6519660" lon="2.5427370">
        <ele>238.6</ele>
        <time>2020-07-21T09:28:25Z</time>
      </trkpt>
      <trkpt lat="42.6518830" lon="2.5425230">
        <ele>238.6</ele>
        <time>2020-07-21T09:28:28Z</time>
      </trkpt>
      <trkpt lat="42.6517990" lon="2.5423120">
        <ele>238.4</ele>
        <time>2020-07-21T09:28:31Z</time>
      </trkpt>
      <trkpt lat="42.6516920" lon="2.5420360">
        <ele>238.6</ele>
        <time>2020-07-21T09:28:35Z</time>
      </trkpt>
      <trkpt lat="42.6516380" lon="2.5419020">
        <ele>238.8</ele>
        <time>2020-07-21T09:28:37Z</time>
      </trkpt>
      <trkpt lat="42.6515060" lon="2.5415530">
        <ele>238.8</ele>
        <time>2020-07-21T09:28:42Z</time>
      </trkpt>
      <trkpt lat="42.6514240" lon="2.5413330">
        <ele>239.2</ele>
        <time>2020-07-21T09:28:45Z</time>
      </trkpt>
      <trkpt lat="42.6513980" lon="2.5412580">
        <ele>239.2</ele>
        <time>2020-07-21T09:28:46Z</time>
      </trkpt>
      <trkpt lat="42.6512680" lon="2.5408590">
        <ele>239.0</ele>
        <time>2020-07-21T09:28:51Z</time>
      </trkpt>
      <trkpt lat="42.6511940" lon="2.5405910">
        <ele>238.8</ele>
        <time>2020-07-21T09:28:54Z</time>
      </trkpt>
      <trkpt lat="42.6511090" lon="2.5402110">
        <ele>238.6</ele>
        <time>2020-07-21T09:28:58Z</time>
      </trkpt>
      <trkpt lat="42.6510520" lon="2.5398010">
        <ele>238.6</ele>
        <time>2020-07-21T09:29:02Z</time>
      </trkpt>
      <trkpt lat="42.6510090" lon="2.5391610">
        <ele>238.6</ele>
        <time>2020-07-21T09:29:08Z</time>
      </trkpt>
      <trkpt lat="42.6510120" lon="2.5388380">
        <ele>239.0</ele>
        <time>2020-07-21T09:29:11Z</time>
      </trkpt>
      <trkpt lat="42.6510380" lon="2.5381800">
        <ele>238.8</ele>
        <time>2020-07-21T09:29:17Z</time>
      </trkpt>
      <trkpt lat="42.6510450" lon="2.5379630">
        <ele>238.4</ele>
        <time>2020-07-21T09:29:19Z</time>
      </trkpt>
      <trkpt lat="42.6510550" lon="2.5377470">
        <ele>238.0</ele>
        <time>2020-07-21T09:29:21Z</time>
      </trkpt>
      <trkpt lat="42.6510840" lon="2.5371230">
        <ele>237.6</ele>
        <time>2020-07-21T09:29:27Z</time>
      </trkpt>
      <trkpt lat="42.6510840" lon="2.5365040">
        <ele>238.6</ele>
        <time>2020-07-21T09:29:33Z</time>
      </trkpt>
      <trkpt lat="42.6510620" lon="2.5360940">
        <ele>238.8</ele>
        <time>2020-07-21T09:29:37Z</time>
      </trkpt>
      <trkpt lat="42.6510210" lon="2.5356920">
        <ele>239.0</ele>
        <time>2020-07-21T09:29:41Z</time>
      </trkpt>
      <trkpt lat="42.6509590" lon="2.5353000">
        <ele>238.8</ele>
        <time>2020-07-21T09:29:45Z</time>
      </trkpt>
      <trkpt lat="42.6508270" lon="2.5347150">
        <ele>239.0</ele>
        <time>2020-07-21T09:29:51Z</time>
      </trkpt>
      <trkpt lat="42.6507770" lon="2.5345170">
        <ele>239.0</ele>
        <time>2020-07-21T09:29:53Z</time>
      </trkpt>
      <trkpt lat="42.6506260" lon="2.5339160">
        <ele>239.2</ele>
        <time>2020-07-21T09:29:59Z</time>
      </trkpt>
      <trkpt lat="42.6505250" lon="2.5335200">
        <ele>238.8</ele>
        <time>2020-07-21T09:30:03Z</time>
      </trkpt>
      <trkpt lat="42.6503760" lon="2.5329250">
        <ele>238.8</ele>
        <time>2020-07-21T09:30:09Z</time>
      </trkpt>
      <trkpt lat="42.6502340" lon="2.5323430">
        <ele>239.0</ele>
        <time>2020-07-21T09:30:15Z</time>
      </trkpt>
      <trkpt lat="42.6502110" lon="2.5322510">
        <ele>239.2</ele>
        <time>2020-07-21T09:30:16Z</time>
      </trkpt>
      <trkpt lat="42.6501330" lon="2.5318800">
        <ele>240.2</ele>
        <time>2020-07-21T09:30:20Z</time>
      </trkpt>
      <trkpt lat="42.6500620" lon="2.5315190">
        <ele>240.4</ele>
        <time>2020-07-21T09:30:24Z</time>
      </trkpt>
      <trkpt lat="42.6499610" lon="2.5309950">
        <ele>241.2</ele>
        <time>2020-07-21T09:30:30Z</time>
      </trkpt>
      <trkpt lat="42.6499040" lon="2.5307410">
        <ele>241.6</ele>
        <time>2020-07-21T09:30:33Z</time>
      </trkpt>
      <trkpt lat="42.6498840" lon="2.5306570">
        <ele>242.0</ele>
        <time>2020-07-21T09:30:34Z</time>
      </trkpt>
      <trkpt lat="42.6498390" lon="2.5304920">
        <ele>242.4</ele>
        <time>2020-07-21T09:30:36Z</time>
      </trkpt>
      <trkpt lat="42.6496860" lon="2.5300030">
        <ele>242.8</ele>
        <time>2020-07-21T09:30:42Z</time>
      </trkpt>
      <trkpt lat="42.6496560" lon="2.5299230">
        <ele>242.8</ele>
        <time>2020-07-21T09:30:43Z</time>
      </trkpt>
      <trkpt lat="42.6495320" lon="2.5296050">
        <ele>243.4</ele>
        <time>2020-07-21T09:30:47Z</time>
      </trkpt>
      <trkpt lat="42.6493300" lon="2.5291280">
        <ele>243.6</ele>
        <time>2020-07-21T09:30:53Z</time>
      </trkpt>
      <trkpt lat="42.6492950" lon="2.5290480">
        <ele>243.6</ele>
        <time>2020-07-21T09:30:54Z</time>
      </trkpt>
      <trkpt lat="42.6490900" lon="2.5285680">
        <ele>243.6</ele>
        <time>2020-07-21T09:31:00Z</time>
      </trkpt>
      <trkpt lat="42.6489830" lon="2.5283280">
        <ele>243.6</ele>
        <time>2020-07-21T09:31:03Z</time>
      </trkpt>
      <trkpt lat="42.6488320" lon="2.5279780">
        <ele>243.6</ele>
        <time>2020-07-21T09:31:07Z</time>
      </trkpt>
      <trkpt lat="42.6486690" lon="2.5276110">
        <ele>243.0</ele>
        <time>2020-07-21T09:31:11Z</time>
      </trkpt>
      <trkpt lat="42.6484910" lon="2.5272260">
        <ele>242.6</ele>
        <time>2020-07-21T09:31:15Z</time>
      </trkpt>
      <trkpt lat="42.6483960" lon="2.5270240">
        <ele>242.2</ele>
        <time>2020-07-21T09:31:17Z</time>
      </trkpt>
      <trkpt lat="42.6482970" lon="2.5268170">
        <ele>241.8</ele>
        <time>2020-07-21T09:31:19Z</time>
      </trkpt>
      <trkpt lat="42.6481950" lon="2.5266060">
        <ele>241.2</ele>
        <time>2020-07-21T09:31:21Z</time>
      </trkpt>
      <trkpt lat="42.6479890" lon="2.5261810">
        <ele>240.0</ele>
        <time>2020-07-21T09:31:25Z</time>
      </trkpt>
      <trkpt lat="42.6477400" lon="2.5256700">
        <ele>239.4</ele>
        <time>2020-07-21T09:31:30Z</time>
      </trkpt>
      <trkpt lat="42.6474630" lon="2.5250830">
        <ele>239.2</ele>
        <time>2020-07-21T09:31:36Z</time>
      </trkpt>
      <trkpt lat="42.6472870" lon="2.5246870">
        <ele>239.4</ele>
        <time>2020-07-21T09:31:40Z</time>
      </trkpt>
      <trkpt lat="42.6471590" lon="2.5243900">
        <ele>239.4</ele>
        <time>2020-07-21T09:31:43Z</time>
      </trkpt>
      <trkpt lat="42.6469080" lon="2.5238020">
        <ele>239.4</ele>
        <time>2020-07-21T09:31:49Z</time>
      </trkpt>
      <trkpt lat="42.6468280" lon="2.5236030">
        <ele>239.2</ele>
        <time>2020-07-21T09:31:51Z</time>
      </trkpt>
      <trkpt lat="42.6466890" lon="2.5231890">
        <ele>239.0</ele>
        <time>2020-07-21T09:31:55Z</time>
      </trkpt>
      <trkpt lat="42.6466060" lon="2.5228660">
        <ele>239.0</ele>
        <time>2020-07-21T09:31:58Z</time>
      </trkpt>
      <trkpt lat="42.6465340" lon="2.5224330">
        <ele>238.8</ele>
        <time>2020-07-21T09:32:02Z</time>
      </trkpt>
      <trkpt lat="42.6465240" lon="2.5223270">
        <ele>238.8</ele>
        <time>2020-07-21T09:32:03Z</time>
      </trkpt>
      <trkpt lat="42.6465160" lon="2.5222230">
        <ele>239.0</ele>
        <time>2020-07-21T09:32:04Z</time>
      </trkpt>
      <trkpt lat="42.6464980" lon="2.5218220">
        <ele>240.0</ele>
        <time>2020-07-21T09:32:08Z</time>
      </trkpt>
      <trkpt lat="42.6465060" lon="2.5215480">
        <ele>241.2</ele>
        <time>2020-07-21T09:32:11Z</time>
      </trkpt>
      <trkpt lat="42.6465130" lon="2.5214620">
        <ele>241.6</ele>
        <time>2020-07-21T09:32:12Z</time>
      </trkpt>
      <trkpt lat="42.6465280" lon="2.5213010">
        <ele>242.2</ele>
        <time>2020-07-21T09:32:14Z</time>
      </trkpt>
      <trkpt lat="42.6465590" lon="2.5210840">
        <ele>243.2</ele>
        <time>2020-07-21T09:32:17Z</time>
      </trkpt>
      <trkpt lat="42.6465720" lon="2.5210180">
        <ele>243.6</ele>
        <time>2020-07-21T09:32:18Z</time>
      </trkpt>
      <trkpt lat="42.6466070" lon="2.5208380">
        <ele>244.4</ele>
        <time>2020-07-21T09:32:21Z</time>
      </trkpt>
      <trkpt lat="42.6466180" lon="2.5207830">
        <ele>244.8</ele>
        <time>2020-07-21T09:32:22Z</time>
      </trkpt>
      <trkpt lat="42.6466410" lon="2.5206770">
        <ele>245.2</ele>
        <time>2020-07-21T09:32:24Z</time>
      </trkpt>
      <trkpt lat="42.6466780" lon="2.5205200">
        <ele>246.0</ele>
        <time>2020-07-21T09:32:27Z</time>
      </trkpt>
      <trkpt lat="42.6467190" lon="2.5203640">
        <ele>247.2</ele>
        <time>2020-07-21T09:32:30Z</time>
      </trkpt>
      <trkpt lat="42.6467700" lon="2.5201580">
        <ele>248.2</ele>
        <time>2020-07-21T09:32:34Z</time>
      </trkpt>
      <trkpt lat="42.6467840" lon="2.5201070">
        <ele>248.6</ele>
        <time>2020-07-21T09:32:35Z</time>
      </trkpt>
      <trkpt lat="42.6468360" lon="2.5198990">
        <ele>249.6</ele>
        <time>2020-07-21T09:32:39Z</time>
      </trkpt>
      <trkpt lat="42.6468610" lon="2.5197940">
        <ele>250.0</ele>
        <time>2020-07-21T09:32:41Z</time>
      </trkpt>
      <trkpt lat="42.6468750" lon="2.5197420">
        <ele>250.2</ele>
        <time>2020-07-21T09:32:42Z</time>
      </trkpt>
      <trkpt lat="42.6469010" lon="2.5196410">
        <ele>250.6</ele>
        <time>2020-07-21T09:32:44Z</time>
      </trkpt>
      <trkpt lat="42.6469640" lon="2.5193880">
        <ele>251.8</ele>
        <time>2020-07-21T09:32:49Z</time>
      </trkpt>
      <trkpt lat="42.6470230" lon="2.5191420">
        <ele>252.8</ele>
        <time>2020-07-21T09:32:54Z</time>
      </trkpt>
      <trkpt lat="42.6470330" lon="2.5190930">
        <ele>253.0</ele>
        <time>2020-07-21T09:32:55Z</time>
      </trkpt>
      <trkpt lat="42.6470650" lon="2.5188950">
        <ele>253.8</ele>
        <time>2020-07-21T09:32:59Z</time>
      </trkpt>
      <trkpt lat="42.6470810" lon="2.5187990">
        <ele>254.0</ele>
        <time>2020-07-21T09:33:01Z</time>
      </trkpt>
      <trkpt lat="42.6470950" lon="2.5187010">
        <ele>254.6</ele>
        <time>2020-07-21T09:33:03Z</time>
      </trkpt>
      <trkpt lat="42.6471050" lon="2.5185390">
        <ele>255.2</ele>
        <time>2020-07-21T09:33:06Z</time>
      </trkpt>
      <trkpt lat="42.6471100" lon="2.5184220">
        <ele>255.4</ele>
        <time>2020-07-21T09:33:08Z</time>
      </trkpt>
      <trkpt lat="42.6471200" lon="2.5183100">
        <ele>255.6</ele>
        <time>2020-07-21T09:33:10Z</time>
      </trkpt>
      <trkpt lat="42.6471220" lon="2.5181320">
        <ele>256.4</ele>
        <time>2020-07-21T09:33:13Z</time>
      </trkpt>
      <trkpt lat="42.6471130" lon="2.5178170">
        <ele>257.6</ele>
        <time>2020-07-21T09:33:18Z</time>
      </trkpt>
      <trkpt lat="42.6470750" lon="2.5174240">
        <ele>257.6</ele>
        <time>2020-07-21T09:33:24Z</time>
      </trkpt>
      <trkpt lat="42.6470440" lon="2.5172280">
        <ele>257.8</ele>
        <time>2020-07-21T09:33:27Z</time>
      </trkpt>
      <trkpt lat="42.6469970" lon="2.5169580">
        <ele>258.0</ele>
        <time>2020-07-21T09:33:31Z</time>
      </trkpt>
      <trkpt lat="42.6469450" lon="2.5166820">
        <ele>258.6</ele>
        <time>2020-07-21T09:33:35Z</time>
      </trkpt>
      <trkpt lat="42.6469300" lon="2.5166110">
        <ele>258.6</ele>
        <time>2020-07-21T09:33:36Z</time>
      </trkpt>
      <trkpt lat="42.6468320" lon="2.5161650">
        <ele>258.4</ele>
        <time>2020-07-21T09:33:42Z</time>
      </trkpt>
      <trkpt lat="42.6467980" lon="2.5160100">
        <ele>258.4</ele>
        <time>2020-07-21T09:33:44Z</time>
      </trkpt>
      <trkpt lat="42.6467810" lon="2.5159320">
        <ele>258.4</ele>
        <time>2020-07-21T09:33:45Z</time>
      </trkpt>
      <trkpt lat="42.6467650" lon="2.5158520">
        <ele>258.4</ele>
        <time>2020-07-21T09:33:46Z</time>
      </trkpt>
      <trkpt lat="42.6466950" lon="2.5155290">
        <ele>257.6</ele>
        <time>2020-07-21T09:33:50Z</time>
      </trkpt>
      <trkpt lat="42.6465800" lon="2.5150260">
        <ele>257.0</ele>
        <time>2020-07-21T09:33:56Z</time>
      </trkpt>
      <trkpt lat="42.6465240" lon="2.5147530">
        <ele>256.6</ele>
        <time>2020-07-21T09:33:59Z</time>
      </trkpt>
      <trkpt lat="42.6464390" lon="2.5143600">
        <ele>255.6</ele>
        <time>2020-07-21T09:34:03Z</time>
      </trkpt>
      <trkpt lat="42.6464120" lon="2.5142600">
        <ele>255.4</ele>
        <time>2020-07-21T09:34:04Z</time>
      </trkpt>
      <trkpt lat="42.6463850" lon="2.5141540">
        <ele>255.0</ele>
        <time>2020-07-21T09:34:05Z</time>
      </trkpt>
      <trkpt lat="42.6463350" lon="2.5139330">
        <ele>254.4</ele>
        <time>2020-07-21T09:34:07Z</time>
      </trkpt>
      <trkpt lat="42.6462270" lon="2.5134530">
        <ele>253.0</ele>
        <time>2020-07-21T09:34:11Z</time>
      </trkpt>
      <trkpt lat="42.6461680" lon="2.5131970">
        <ele>252.0</ele>
        <time>2020-07-21T09:34:13Z</time>
      </trkpt>
      <trkpt lat="42.6461370" lon="2.5130670">
        <ele>251.6</ele>
        <time>2020-07-21T09:34:14Z</time>
      </trkpt>
      <trkpt lat="42.6460480" lon="2.5126610">
        <ele>250.4</ele>
        <time>2020-07-21T09:34:17Z</time>
      </trkpt>
      <trkpt lat="42.6459880" lon="2.5123790">
        <ele>249.2</ele>
        <time>2020-07-21T09:34:19Z</time>
      </trkpt>
      <trkpt lat="42.6459550" lon="2.5122410">
        <ele>249.0</ele>
        <time>2020-07-21T09:34:20Z</time>
      </trkpt>
      <trkpt lat="42.6458880" lon="2.5119710">
        <ele>248.0</ele>
        <time>2020-07-21T09:34:22Z</time>
      </trkpt>
      <trkpt lat="42.6457990" lon="2.5115920">
        <ele>246.8</ele>
        <time>2020-07-21T09:34:25Z</time>
      </trkpt>
      <trkpt lat="42.6457390" lon="2.5113490">
        <ele>246.6</ele>
        <time>2020-07-21T09:34:27Z</time>
      </trkpt>
      <trkpt lat="42.6457100" lon="2.5112260">
        <ele>246.2</ele>
        <time>2020-07-21T09:34:28Z</time>
      </trkpt>
      <trkpt lat="42.6456530" lon="2.5109820">
        <ele>245.8</ele>
        <time>2020-07-21T09:34:30Z</time>
      </trkpt>
      <trkpt lat="42.6455710" lon="2.5106350">
        <ele>245.0</ele>
        <time>2020-07-21T09:34:33Z</time>
      </trkpt>
      <trkpt lat="42.6455210" lon="2.5104070">
        <ele>244.8</ele>
        <time>2020-07-21T09:34:35Z</time>
      </trkpt>
      <trkpt lat="42.6454950" lon="2.5102940">
        <ele>244.6</ele>
        <time>2020-07-21T09:34:36Z</time>
      </trkpt>
      <trkpt lat="42.6453340" lon="2.5096070">
        <ele>243.8</ele>
        <time>2020-07-21T09:34:42Z</time>
      </trkpt>
      <trkpt lat="42.6452570" lon="2.5092620">
        <ele>243.6</ele>
        <time>2020-07-21T09:34:45Z</time>
      </trkpt>
      <trkpt lat="42.6452310" lon="2.5091500">
        <ele>243.6</ele>
        <time>2020-07-21T09:34:46Z</time>
      </trkpt>
      <trkpt lat="42.6451340" lon="2.5087310">
        <ele>243.0</ele>
        <time>2020-07-21T09:34:50Z</time>
      </trkpt>
      <trkpt lat="42.6450840" lon="2.5085310">
        <ele>242.8</ele>
        <time>2020-07-21T09:34:52Z</time>
      </trkpt>
      <trkpt lat="42.6449340" lon="2.5078930">
        <ele>242.8</ele>
        <time>2020-07-21T09:34:58Z</time>
      </trkpt>
      <trkpt lat="42.6448610" lon="2.5075760">
        <ele>243.0</ele>
        <time>2020-07-21T09:35:01Z</time>
      </trkpt>
      <trkpt lat="42.6447650" lon="2.5071600">
        <ele>243.6</ele>
        <time>2020-07-21T09:35:05Z</time>
      </trkpt>
      <trkpt lat="42.6447180" lon="2.5069540">
        <ele>243.8</ele>
        <time>2020-07-21T09:35:07Z</time>
      </trkpt>
      <trkpt lat="42.6446030" lon="2.5064410">
        <ele>244.6</ele>
        <time>2020-07-21T09:35:12Z</time>
      </trkpt>
      <trkpt lat="42.6445830" lon="2.5063390">
        <ele>244.6</ele>
        <time>2020-07-21T09:35:13Z</time>
      </trkpt>
      <trkpt lat="42.6445480" lon="2.5061400">
        <ele>244.8</ele>
        <time>2020-07-21T09:35:15Z</time>
      </trkpt>
      <trkpt lat="42.6445110" lon="2.5058470">
        <ele>245.0</ele>
        <time>2020-07-21T09:35:18Z</time>
      </trkpt>
      <trkpt lat="42.6444930" lon="2.5056550">
        <ele>245.2</ele>
        <time>2020-07-21T09:35:20Z</time>
      </trkpt>
      <trkpt lat="42.6444580" lon="2.5051670">
        <ele>246.0</ele>
        <time>2020-07-21T09:35:25Z</time>
      </trkpt>
      <trkpt lat="42.6444360" lon="2.5046560">
        <ele>246.4</ele>
        <time>2020-07-21T09:35:30Z</time>
      </trkpt>
      <trkpt lat="42.6444300" lon="2.5044460">
        <ele>246.4</ele>
        <time>2020-07-21T09:35:32Z</time>
      </trkpt>
      <trkpt lat="42.6444240" lon="2.5042330">
        <ele>246.2</ele>
        <time>2020-07-21T09:35:34Z</time>
      </trkpt>
      <trkpt lat="42.6444040" lon="2.5035920">
        <ele>245.8</ele>
        <time>2020-07-21T09:35:40Z</time>
      </trkpt>
      <trkpt lat="42.6444010" lon="2.5034840">
        <ele>245.6</ele>
        <time>2020-07-21T09:35:41Z</time>
      </trkpt>
      <trkpt lat="42.6443760" lon="2.5028380">
        <ele>245.6</ele>
        <time>2020-07-21T09:35:47Z</time>
      </trkpt>
      <trkpt lat="42.6443640" lon="2.5025140">
        <ele>245.4</ele>
        <time>2020-07-21T09:35:50Z</time>
      </trkpt>
      <trkpt lat="42.6443560" lon="2.5022960">
        <ele>245.0</ele>
        <time>2020-07-21T09:35:52Z</time>
      </trkpt>
      <trkpt lat="42.6443480" lon="2.5020760">
        <ele>245.0</ele>
        <time>2020-07-21T09:35:54Z</time>
      </trkpt>
      <trkpt lat="42.6443390" lon="2.5018590">
        <ele>245.0</ele>
        <time>2020-07-21T09:35:56Z</time>
      </trkpt>
      <trkpt lat="42.6443280" lon="2.5015350">
        <ele>244.8</ele>
        <time>2020-07-21T09:35:59Z</time>
      </trkpt>
      <trkpt lat="42.6443080" lon="2.5008950">
        <ele>244.8</ele>
        <time>2020-07-21T09:36:05Z</time>
      </trkpt>
      <trkpt lat="42.6442920" lon="2.5003730">
        <ele>244.8</ele>
        <time>2020-07-21T09:36:10Z</time>
      </trkpt>
      <trkpt lat="42.6442680" lon="2.4997650">
        <ele>245.4</ele>
        <time>2020-07-21T09:36:16Z</time>
      </trkpt>
      <trkpt lat="42.6442610" lon="2.4995710">
        <ele>245.8</ele>
        <time>2020-07-21T09:36:18Z</time>
      </trkpt>
      <trkpt lat="42.6442540" lon="2.4993800">
        <ele>246.2</ele>
        <time>2020-07-21T09:36:20Z</time>
      </trkpt>
      <trkpt lat="42.6442460" lon="2.4991900">
        <ele>246.6</ele>
        <time>2020-07-21T09:36:22Z</time>
      </trkpt>
      <trkpt lat="42.6442390" lon="2.4989990">
        <ele>247.0</ele>
        <time>2020-07-21T09:36:24Z</time>
      </trkpt>
      <trkpt lat="42.6442160" lon="2.4984230">
        <ele>247.6</ele>
        <time>2020-07-21T09:36:30Z</time>
      </trkpt>
      <trkpt lat="42.6442130" lon="2.4983250">
        <ele>247.8</ele>
        <time>2020-07-21T09:36:31Z</time>
      </trkpt>
      <trkpt lat="42.6442050" lon="2.4981290">
        <ele>247.8</ele>
        <time>2020-07-21T09:36:33Z</time>
      </trkpt>
      <trkpt lat="42.6441970" lon="2.4979350">
        <ele>248.0</ele>
        <time>2020-07-21T09:36:35Z</time>
      </trkpt>
      <trkpt lat="42.6441770" lon="2.4973550">
        <ele>248.4</ele>
        <time>2020-07-21T09:36:41Z</time>
      </trkpt>
      <trkpt lat="42.6441730" lon="2.4972550">
        <ele>248.4</ele>
        <time>2020-07-21T09:36:42Z</time>
      </trkpt>
      <trkpt lat="42.6441540" lon="2.4966270">
        <ele>248.6</ele>
        <time>2020-07-21T09:36:48Z</time>
      </trkpt>
      <trkpt lat="42.6441470" lon="2.4964080">
        <ele>248.4</ele>
        <time>2020-07-21T09:36:50Z</time>
      </trkpt>
      <trkpt lat="42.6441260" lon="2.4957380">
        <ele>248.4</ele>
        <time>2020-07-21T09:36:56Z</time>
      </trkpt>
      <trkpt lat="42.6441090" lon="2.4951590">
        <ele>248.4</ele>
        <time>2020-07-21T09:37:01Z</time>
      </trkpt>
      <trkpt lat="42.6440920" lon="2.4945650">
        <ele>248.4</ele>
        <time>2020-07-21T09:37:06Z</time>
      </trkpt>
      <trkpt lat="42.6440890" lon="2.4944470">
        <ele>248.4</ele>
        <time>2020-07-21T09:37:07Z</time>
      </trkpt>
      <trkpt lat="42.6440810" lon="2.4942170">
        <ele>248.6</ele>
        <time>2020-07-21T09:37:09Z</time>
      </trkpt>
      <trkpt lat="42.6440590" lon="2.4935520">
        <ele>249.0</ele>
        <time>2020-07-21T09:37:15Z</time>
      </trkpt>
      <trkpt lat="42.6440400" lon="2.4930070">
        <ele>249.6</ele>
        <time>2020-07-21T09:37:20Z</time>
      </trkpt>
      <trkpt lat="42.6440180" lon="2.4924750">
        <ele>250.2</ele>
        <time>2020-07-21T09:37:25Z</time>
      </trkpt>
      <trkpt lat="42.6439990" lon="2.4920490">
        <ele>251.4</ele>
        <time>2020-07-21T09:37:29Z</time>
      </trkpt>
      <trkpt lat="42.6439970" lon="2.4919440">
        <ele>251.6</ele>
        <time>2020-07-21T09:37:30Z</time>
      </trkpt>
      <trkpt lat="42.6439710" lon="2.4913270">
        <ele>252.2</ele>
        <time>2020-07-21T09:37:36Z</time>
      </trkpt>
      <trkpt lat="42.6439650" lon="2.4912280">
        <ele>252.4</ele>
        <time>2020-07-21T09:37:37Z</time>
      </trkpt>
      <trkpt lat="42.6438760" lon="2.4907360">
        <ele>252.4</ele>
        <time>2020-07-21T09:37:42Z</time>
      </trkpt>
      <trkpt lat="42.6437230" lon="2.4901530">
        <ele>252.4</ele>
        <time>2020-07-21T09:37:48Z</time>
      </trkpt>
      <trkpt lat="42.6435950" lon="2.4896650">
        <ele>252.2</ele>
        <time>2020-07-21T09:37:53Z</time>
      </trkpt>
      <trkpt lat="42.6434640" lon="2.4891890">
        <ele>252.0</ele>
        <time>2020-07-21T09:37:58Z</time>
      </trkpt>
      <trkpt lat="42.6433050" lon="2.4886170">
        <ele>252.6</ele>
        <time>2020-07-21T09:38:04Z</time>
      </trkpt>
      <trkpt lat="42.6432020" lon="2.4882530">
        <ele>253.0</ele>
        <time>2020-07-21T09:38:08Z</time>
      </trkpt>
      <trkpt lat="42.6431400" lon="2.4880120">
        <ele>253.4</ele>
        <time>2020-07-21T09:38:11Z</time>
      </trkpt>
      <trkpt lat="42.6430990" lon="2.4878550">
        <ele>253.6</ele>
        <time>2020-07-21T09:38:13Z</time>
      </trkpt>
      <trkpt lat="42.6430150" lon="2.4875550">
        <ele>254.4</ele>
        <time>2020-07-21T09:38:17Z</time>
      </trkpt>
      <trkpt lat="42.6429750" lon="2.4874150">
        <ele>254.6</ele>
        <time>2020-07-21T09:38:19Z</time>
      </trkpt>
      <trkpt lat="42.6429360" lon="2.4872770">
        <ele>254.8</ele>
        <time>2020-07-21T09:38:21Z</time>
      </trkpt>
      <trkpt lat="42.6428570" lon="2.4869980">
        <ele>255.8</ele>
        <time>2020-07-21T09:38:25Z</time>
      </trkpt>
      <trkpt lat="42.6428380" lon="2.4869270">
        <ele>256.0</ele>
        <time>2020-07-21T09:38:26Z</time>
      </trkpt>
      <trkpt lat="42.6427340" lon="2.4864860">
        <ele>256.6</ele>
        <time>2020-07-21T09:38:32Z</time>
      </trkpt>
      <trkpt lat="42.6427000" lon="2.4863350">
        <ele>256.8</ele>
        <time>2020-07-21T09:38:34Z</time>
      </trkpt>
      <trkpt lat="42.6426390" lon="2.4860970">
        <ele>256.6</ele>
        <time>2020-07-21T09:38:37Z</time>
      </trkpt>
      <trkpt lat="42.6426010" lon="2.4859370">
        <ele>257.0</ele>
        <time>2020-07-21T09:38:39Z</time>
      </trkpt>
      <trkpt lat="42.6425380" lon="2.4856930">
        <ele>257.0</ele>
        <time>2020-07-21T09:38:42Z</time>
      </trkpt>
      <trkpt lat="42.6424340" lon="2.4851960">
        <ele>257.0</ele>
        <time>2020-07-21T09:38:48Z</time>
      </trkpt>
      <trkpt lat="42.6424030" lon="2.4850330">
        <ele>257.2</ele>
        <time>2020-07-21T09:38:50Z</time>
      </trkpt>
      <trkpt lat="42.6423480" lon="2.4847950">
        <ele>257.6</ele>
        <time>2020-07-21T09:38:53Z</time>
      </trkpt>
      <trkpt lat="42.6423050" lon="2.4846370">
        <ele>258.0</ele>
        <time>2020-07-21T09:38:55Z</time>
      </trkpt>
      <trkpt lat="42.6422810" lon="2.4845580">
        <ele>258.0</ele>
        <time>2020-07-21T09:38:56Z</time>
      </trkpt>
      <trkpt lat="42.6422540" lon="2.4844810">
        <ele>258.2</ele>
        <time>2020-07-21T09:38:57Z</time>
      </trkpt>
      <trkpt lat="42.6422260" lon="2.4844040">
        <ele>258.2</ele>
        <time>2020-07-21T09:38:58Z</time>
      </trkpt>
      <trkpt lat="42.6420660" lon="2.4839250">
        <ele>258.4</ele>
        <time>2020-07-21T09:39:04Z</time>
      </trkpt>
      <trkpt lat="42.6420010" lon="2.4836840">
        <ele>258.4</ele>
        <time>2020-07-21T09:39:07Z</time>
      </trkpt>
      <trkpt lat="42.6418610" lon="2.4832040">
        <ele>258.8</ele>
        <time>2020-07-21T09:39:13Z</time>
      </trkpt>
      <trkpt lat="42.6418130" lon="2.4830410">
        <ele>258.8</ele>
        <time>2020-07-21T09:39:15Z</time>
      </trkpt>
      <trkpt lat="42.6417190" lon="2.4827080">
        <ele>259.0</ele>
        <time>2020-07-21T09:39:19Z</time>
      </trkpt>
      <trkpt lat="42.6415990" lon="2.4822990">
        <ele>259.6</ele>
        <time>2020-07-21T09:39:24Z</time>
      </trkpt>
      <trkpt lat="42.6415730" lon="2.4822220">
        <ele>260.0</ele>
        <time>2020-07-21T09:39:25Z</time>
      </trkpt>
      <trkpt lat="42.6414620" lon="2.4819270">
        <ele>261.2</ele>
        <time>2020-07-21T09:39:29Z</time>
      </trkpt>
      <trkpt lat="42.6413830" lon="2.4817180">
        <ele>262.0</ele>
        <time>2020-07-21T09:39:32Z</time>
      </trkpt>
      <trkpt lat="42.6413600" lon="2.4816470">
        <ele>262.2</ele>
        <time>2020-07-21T09:39:33Z</time>
      </trkpt>
      <trkpt lat="42.6413430" lon="2.4815750">
        <ele>262.4</ele>
        <time>2020-07-21T09:39:34Z</time>
      </trkpt>
      <trkpt lat="42.6412790" lon="2.4812760">
        <ele>263.0</ele>
        <time>2020-07-21T09:39:38Z</time>
      </trkpt>
      <trkpt lat="42.6412680" lon="2.4812000">
        <ele>263.2</ele>
        <time>2020-07-21T09:39:39Z</time>
      </trkpt>
      <trkpt lat="42.6412020" lon="2.4808260">
        <ele>264.4</ele>
        <time>2020-07-21T09:39:44Z</time>
      </trkpt>
      <trkpt lat="42.6411410" lon="2.4805970">
        <ele>265.0</ele>
        <time>2020-07-21T09:39:47Z</time>
      </trkpt>
      <trkpt lat="42.6409520" lon="2.4800900">
        <ele>263.2</ele>
        <time>2020-07-21T09:39:53Z</time>
      </trkpt>
      <trkpt lat="42.6408380" lon="2.4798090">
        <ele>262.0</ele>
        <time>2020-07-21T09:39:56Z</time>
      </trkpt>
      <trkpt lat="42.6407170" lon="2.4795090">
        <ele>260.8</ele>
        <time>2020-07-21T09:39:59Z</time>
      </trkpt>
      <trkpt lat="42.6406780" lon="2.4794080">
        <ele>260.4</ele>
        <time>2020-07-21T09:40:00Z</time>
      </trkpt>
      <trkpt lat="42.6405640" lon="2.4791000">
        <ele>259.6</ele>
        <time>2020-07-21T09:40:03Z</time>
      </trkpt>
      <trkpt lat="42.6404590" lon="2.4787970">
        <ele>259.6</ele>
        <time>2020-07-21T09:40:06Z</time>
      </trkpt>
      <trkpt lat="42.6404210" lon="2.4786990">
        <ele>259.6</ele>
        <time>2020-07-21T09:40:07Z</time>
      </trkpt>
      <trkpt lat="42.6403450" lon="2.4785090">
        <ele>259.8</ele>
        <time>2020-07-21T09:40:09Z</time>
      </trkpt>
      <trkpt lat="42.6401910" lon="2.4781230">
        <ele>260.0</ele>
        <time>2020-07-21T09:40:13Z</time>
      </trkpt>
      <trkpt lat="42.6400690" lon="2.4778280">
        <ele>259.6</ele>
        <time>2020-07-21T09:40:16Z</time>
      </trkpt>
      <trkpt lat="42.6399390" lon="2.4775280">
        <ele>259.2</ele>
        <time>2020-07-21T09:40:19Z</time>
      </trkpt>
      <trkpt lat="42.6398000" lon="2.4772170">
        <ele>258.4</ele>
        <time>2020-07-21T09:40:22Z</time>
      </trkpt>
      <trkpt lat="42.6397530" lon="2.4771130">
        <ele>258.2</ele>
        <time>2020-07-21T09:40:23Z</time>
      </trkpt>
      <trkpt lat="42.6397070" lon="2.4770090">
        <ele>258.0</ele>
        <time>2020-07-21T09:40:24Z</time>
      </trkpt>
      <trkpt lat="42.6395280" lon="2.4765770">
        <ele>257.4</ele>
        <time>2020-07-21T09:40:28Z</time>
      </trkpt>
      <trkpt lat="42.6393990" lon="2.4762530">
        <ele>256.6</ele>
        <time>2020-07-21T09:40:31Z</time>
      </trkpt>
      <trkpt lat="42.6393550" lon="2.4761460">
        <ele>256.0</ele>
        <time>2020-07-21T09:40:32Z</time>
      </trkpt>
      <trkpt lat="42.6391430" lon="2.4756200">
        <ele>255.6</ele>
        <time>2020-07-21T09:40:37Z</time>
      </trkpt>
      <trkpt lat="42.6390190" lon="2.4753100">
        <ele>256.0</ele>
        <time>2020-07-21T09:40:40Z</time>
      </trkpt>
      <trkpt lat="42.6387850" lon="2.4747310">
        <ele>256.8</ele>
        <time>2020-07-21T09:40:46Z</time>
      </trkpt>
      <trkpt lat="42.6387200" lon="2.4745610">
        <ele>257.0</ele>
        <time>2020-07-21T09:40:48Z</time>
      </trkpt>
      <trkpt lat="42.6386850" lon="2.4744820">
        <ele>257.2</ele>
        <time>2020-07-21T09:40:49Z</time>
      </trkpt>
      <trkpt lat="42.6385910" lon="2.4742550">
        <ele>258.4</ele>
        <time>2020-07-21T09:40:52Z</time>
      </trkpt>
      <trkpt lat="42.6385330" lon="2.4741210">
        <ele>259.2</ele>
        <time>2020-07-21T09:40:54Z</time>
      </trkpt>
      <trkpt lat="42.6385080" lon="2.4740560">
        <ele>259.6</ele>
        <time>2020-07-21T09:40:55Z</time>
      </trkpt>
      <trkpt lat="42.6383800" lon="2.4737450">
        <ele>260.6</ele>
        <time>2020-07-21T09:41:00Z</time>
      </trkpt>
      <trkpt lat="42.6383530" lon="2.4736840">
        <ele>261.0</ele>
        <time>2020-07-21T09:41:01Z</time>
      </trkpt>
      <trkpt lat="42.6383030" lon="2.4735650">
        <ele>261.6</ele>
        <time>2020-07-21T09:41:03Z</time>
      </trkpt>
      <trkpt lat="42.6382790" lon="2.4735060">
        <ele>262.0</ele>
        <time>2020-07-21T09:41:04Z</time>
      </trkpt>
      <trkpt lat="42.6382540" lon="2.4734470">
        <ele>262.2</ele>
        <time>2020-07-21T09:41:05Z</time>
      </trkpt>
      <trkpt lat="42.6382030" lon="2.4733240">
        <ele>262.6</ele>
        <time>2020-07-21T09:41:07Z</time>
      </trkpt>
      <trkpt lat="42.6381540" lon="2.4731960">
        <ele>263.2</ele>
        <time>2020-07-21T09:41:09Z</time>
      </trkpt>
      <trkpt lat="42.6380730" lon="2.4729990">
        <ele>263.8</ele>
        <time>2020-07-21T09:41:12Z</time>
      </trkpt>
      <trkpt lat="42.6379210" lon="2.4726230">
        <ele>263.8</ele>
        <time>2020-07-21T09:41:18Z</time>
      </trkpt>
      <trkpt lat="42.6378510" lon="2.4724530">
        <ele>264.8</ele>
        <time>2020-07-21T09:41:21Z</time>
      </trkpt>
      <trkpt lat="42.6377840" lon="2.4722860">
        <ele>265.8</ele>
        <time>2020-07-21T09:41:24Z</time>
      </trkpt>
      <trkpt lat="42.6376940" lon="2.4720670">
        <ele>267.0</ele>
        <time>2020-07-21T09:41:28Z</time>
      </trkpt>
      <trkpt lat="42.6376340" lon="2.4719060">
        <ele>268.0</ele>
        <time>2020-07-21T09:41:31Z</time>
      </trkpt>
      <trkpt lat="42.6376130" lon="2.4718550">
        <ele>268.6</ele>
        <time>2020-07-21T09:41:32Z</time>
      </trkpt>
      <trkpt lat="42.6375730" lon="2.4717580">
        <ele>269.2</ele>
        <time>2020-07-21T09:41:34Z</time>
      </trkpt>
      <trkpt lat="42.6375160" lon="2.4716180">
        <ele>270.4</ele>
        <time>2020-07-21T09:41:37Z</time>
      </trkpt>
      <trkpt lat="42.6374460" lon="2.4714350">
        <ele>271.4</ele>
        <time>2020-07-21T09:41:41Z</time>
      </trkpt>
      <trkpt lat="42.6374270" lon="2.4713860">
        <ele>271.6</ele>
        <time>2020-07-21T09:41:42Z</time>
      </trkpt>
      <trkpt lat="42.6373030" lon="2.4710850">
        <ele>272.6</ele>
        <time>2020-07-21T09:41:48Z</time>
      </trkpt>
      <trkpt lat="42.6372420" lon="2.4709310">
        <ele>273.0</ele>
        <time>2020-07-21T09:41:51Z</time>
      </trkpt>
      <trkpt lat="42.6371990" lon="2.4708290">
        <ele>273.4</ele>
        <time>2020-07-21T09:41:53Z</time>
      </trkpt>
      <trkpt lat="42.6371800" lon="2.4707800">
        <ele>273.8</ele>
        <time>2020-07-21T09:41:54Z</time>
      </trkpt>
      <trkpt lat="42.6371020" lon="2.4705850">
        <ele>275.0</ele>
        <time>2020-07-21T09:41:58Z</time>
      </trkpt>
      <trkpt lat="42.6370470" lon="2.4704400">
        <ele>275.6</ele>
        <time>2020-07-21T09:42:01Z</time>
      </trkpt>
      <trkpt lat="42.6370090" lon="2.4703420">
        <ele>276.0</ele>
        <time>2020-07-21T09:42:03Z</time>
      </trkpt>
      <trkpt lat="42.6369290" lon="2.4701520">
        <ele>277.2</ele>
        <time>2020-07-21T09:42:07Z</time>
      </trkpt>
      <trkpt lat="42.6368930" lon="2.4700590">
        <ele>277.6</ele>
        <time>2020-07-21T09:42:09Z</time>
      </trkpt>
      <trkpt lat="42.6368540" lon="2.4699630">
        <ele>278.2</ele>
        <time>2020-07-21T09:42:11Z</time>
      </trkpt>
      <trkpt lat="42.6367580" lon="2.4697230">
        <ele>279.2</ele>
        <time>2020-07-21T09:42:16Z</time>
      </trkpt>
      <trkpt lat="42.6367400" lon="2.4696770">
        <ele>279.2</ele>
        <time>2020-07-21T09:42:17Z</time>
      </trkpt>
      <trkpt lat="42.6366150" lon="2.4693880">
        <ele>280.4</ele>
        <time>2020-07-21T09:42:23Z</time>
      </trkpt>
      <trkpt lat="42.6365330" lon="2.4692440">
        <ele>281.2</ele>
        <time>2020-07-21T09:42:26Z</time>
      </trkpt>
      <trkpt lat="42.6364200" lon="2.4690540">
        <ele>281.6</ele>
        <time>2020-07-21T09:42:30Z</time>
      </trkpt>
      <trkpt lat="42.6363890" lon="2.4690070">
        <ele>281.8</ele>
        <time>2020-07-21T09:42:31Z</time>
      </trkpt>
      <trkpt lat="42.6362750" lon="2.4688250">
        <ele>282.2</ele>
        <time>2020-07-21T09:42:35Z</time>
      </trkpt>
      <trkpt lat="42.6361880" lon="2.4686850">
        <ele>282.6</ele>
        <time>2020-07-21T09:42:38Z</time>
      </trkpt>
      <trkpt lat="42.6360400" lon="2.4684470">
        <ele>283.4</ele>
        <time>2020-07-21T09:42:43Z</time>
      </trkpt>
      <trkpt lat="42.6359830" lon="2.4683550">
        <ele>283.6</ele>
        <time>2020-07-21T09:42:45Z</time>
      </trkpt>
      <trkpt lat="42.6358040" lon="2.4680700">
        <ele>284.8</ele>
        <time>2020-07-21T09:42:51Z</time>
      </trkpt>
      <trkpt lat="42.6356900" lon="2.4678860">
        <ele>285.4</ele>
        <time>2020-07-21T09:42:55Z</time>
      </trkpt>
      <trkpt lat="42.6355780" lon="2.4677050">
        <ele>285.8</ele>
        <time>2020-07-21T09:42:59Z</time>
      </trkpt>
      <trkpt lat="42.6354940" lon="2.4675700">
        <ele>286.8</ele>
        <time>2020-07-21T09:43:02Z</time>
      </trkpt>
      <trkpt lat="42.6354100" lon="2.4674350">
        <ele>288.0</ele>
        <time>2020-07-21T09:43:05Z</time>
      </trkpt>
      <trkpt lat="42.6353820" lon="2.4673900">
        <ele>288.4</ele>
        <time>2020-07-21T09:43:06Z</time>
      </trkpt>
      <trkpt lat="42.6352150" lon="2.4671180">
        <ele>289.2</ele>
        <time>2020-07-21T09:43:12Z</time>
      </trkpt>
      <trkpt lat="42.6351000" lon="2.4669340">
        <ele>290.4</ele>
        <time>2020-07-21T09:43:16Z</time>
      </trkpt>
      <trkpt lat="42.6350470" lon="2.4668430">
        <ele>290.6</ele>
        <time>2020-07-21T09:43:18Z</time>
      </trkpt>
      <trkpt lat="42.6349650" lon="2.4667040">
        <ele>291.6</ele>
        <time>2020-07-21T09:43:21Z</time>
      </trkpt>
      <trkpt lat="42.6348110" lon="2.4664570">
        <ele>292.4</ele>
        <time>2020-07-21T09:43:26Z</time>
      </trkpt>
      <trkpt lat="42.6347130" lon="2.4662980">
        <ele>292.6</ele>
        <time>2020-07-21T09:43:29Z</time>
      </trkpt>
      <trkpt lat="42.6346130" lon="2.4661260">
        <ele>292.8</ele>
        <time>2020-07-21T09:43:32Z</time>
      </trkpt>
      <trkpt lat="42.6345460" lon="2.4660070">
        <ele>292.8</ele>
        <time>2020-07-21T09:43:34Z</time>
      </trkpt>
      <trkpt lat="42.6343600" lon="2.4656010">
        <ele>292.8</ele>
        <time>2020-07-21T09:43:40Z</time>
      </trkpt>
      <trkpt lat="42.6343320" lon="2.4655270">
        <ele>292.8</ele>
        <time>2020-07-21T09:43:41Z</time>
      </trkpt>
      <trkpt lat="42.6342480" lon="2.4652990">
        <ele>293.0</ele>
        <time>2020-07-21T09:43:44Z</time>
      </trkpt>
      <trkpt lat="42.6341390" lon="2.4649910">
        <ele>293.2</ele>
        <time>2020-07-21T09:43:48Z</time>
      </trkpt>
      <trkpt lat="42.6339990" lon="2.4646030">
        <ele>293.2</ele>
        <time>2020-07-21T09:43:53Z</time>
      </trkpt>
      <trkpt lat="42.6339160" lon="2.4643710">
        <ele>293.6</ele>
        <time>2020-07-21T09:43:56Z</time>
      </trkpt>
      <trkpt lat="42.6337480" lon="2.4639080">
        <ele>294.6</ele>
        <time>2020-07-21T09:44:02Z</time>
      </trkpt>
      <trkpt lat="42.6336900" lon="2.4637520">
        <ele>294.8</ele>
        <time>2020-07-21T09:44:04Z</time>
      </trkpt>
      <trkpt lat="42.6336300" lon="2.4635940">
        <ele>294.8</ele>
        <time>2020-07-21T09:44:06Z</time>
      </trkpt>
      <trkpt lat="42.6335390" lon="2.4633520">
        <ele>295.8</ele>
        <time>2020-07-21T09:44:09Z</time>
      </trkpt>
      <trkpt lat="42.6333850" lon="2.4629410">
        <ele>296.2</ele>
        <time>2020-07-21T09:44:14Z</time>
      </trkpt>
      <trkpt lat="42.6332330" lon="2.4625360">
        <ele>296.8</ele>
        <time>2020-07-21T09:44:19Z</time>
      </trkpt>
      <trkpt lat="42.6330570" lon="2.4620620">
        <ele>298.0</ele>
        <time>2020-07-21T09:44:25Z</time>
      </trkpt>
      <trkpt lat="42.6328810" lon="2.4615670">
        <ele>298.8</ele>
        <time>2020-07-21T09:44:31Z</time>
      </trkpt>
      <trkpt lat="42.6327950" lon="2.4613210">
        <ele>298.6</ele>
        <time>2020-07-21T09:44:34Z</time>
      </trkpt>
      <trkpt lat="42.6327080" lon="2.4610770">
        <ele>299.2</ele>
        <time>2020-07-21T09:44:37Z</time>
      </trkpt>
      <trkpt lat="42.6325660" lon="2.4606850">
        <ele>300.4</ele>
        <time>2020-07-21T09:44:42Z</time>
      </trkpt>
      <trkpt lat="42.6325370" lon="2.4606070">
        <ele>300.8</ele>
        <time>2020-07-21T09:44:43Z</time>
      </trkpt>
      <trkpt lat="42.6324760" lon="2.4604500">
        <ele>300.8</ele>
        <time>2020-07-21T09:44:45Z</time>
      </trkpt>
      <trkpt lat="42.6323330" lon="2.4600640">
        <ele>301.6</ele>
        <time>2020-07-21T09:44:50Z</time>
      </trkpt>
      <trkpt lat="42.6322710" lon="2.4599120">
        <ele>302.0</ele>
        <time>2020-07-21T09:44:52Z</time>
      </trkpt>
      <trkpt lat="42.6320990" lon="2.4594380">
        <ele>302.8</ele>
        <time>2020-07-21T09:44:58Z</time>
      </trkpt>
      <trkpt lat="42.6319310" lon="2.4589710">
        <ele>303.4</ele>
        <time>2020-07-21T09:45:04Z</time>
      </trkpt>
      <trkpt lat="42.6318450" lon="2.4587390">
        <ele>303.6</ele>
        <time>2020-07-21T09:45:07Z</time>
      </trkpt>
      <trkpt lat="42.6316700" lon="2.4582650">
        <ele>303.6</ele>
        <time>2020-07-21T09:45:13Z</time>
      </trkpt>
      <trkpt lat="42.6316130" lon="2.4581030">
        <ele>303.8</ele>
        <time>2020-07-21T09:45:15Z</time>
      </trkpt>
      <trkpt lat="42.6314240" lon="2.4576100">
        <ele>303.6</ele>
        <time>2020-07-21T09:45:21Z</time>
      </trkpt>
      <trkpt lat="42.6312980" lon="2.4572790">
        <ele>304.2</ele>
        <time>2020-07-21T09:45:25Z</time>
      </trkpt>
      <trkpt lat="42.6310800" lon="2.4567810">
        <ele>303.8</ele>
        <time>2020-07-21T09:45:31Z</time>
      </trkpt>
      <trkpt lat="42.6310380" lon="2.4567020">
        <ele>303.4</ele>
        <time>2020-07-21T09:45:32Z</time>
      </trkpt>
      <trkpt lat="42.6307690" lon="2.4562150">
        <ele>303.2</ele>
        <time>2020-07-21T09:45:38Z</time>
      </trkpt>
      <trkpt lat="42.6306300" lon="2.4559690">
        <ele>303.4</ele>
        <time>2020-07-21T09:45:41Z</time>
      </trkpt>
      <trkpt lat="42.6303530" lon="2.4554800">
        <ele>303.6</ele>
        <time>2020-07-21T09:45:47Z</time>
      </trkpt>
      <trkpt lat="42.6301760" lon="2.4551630">
        <ele>304.6</ele>
        <time>2020-07-21T09:45:51Z</time>
      </trkpt>
      <trkpt lat="42.6301350" lon="2.4550870">
        <ele>305.0</ele>
        <time>2020-07-21T09:45:52Z</time>
      </trkpt>
      <trkpt lat="42.6299720" lon="2.4547960">
        <ele>306.0</ele>
        <time>2020-07-21T09:45:56Z</time>
      </trkpt>
      <trkpt lat="42.6298500" lon="2.4545890">
        <ele>306.6</ele>
        <time>2020-07-21T09:45:59Z</time>
      </trkpt>
      <trkpt lat="42.6297330" lon="2.4543850">
        <ele>307.0</ele>
        <time>2020-07-21T09:46:02Z</time>
      </trkpt>
      <trkpt lat="42.6294980" lon="2.4539840">
        <ele>307.6</ele>
        <time>2020-07-21T09:46:08Z</time>
      </trkpt>
      <trkpt lat="42.6294600" lon="2.4539200">
        <ele>307.6</ele>
        <time>2020-07-21T09:46:09Z</time>
      </trkpt>
      <trkpt lat="42.6293870" lon="2.4537940">
        <ele>308.0</ele>
        <time>2020-07-21T09:46:11Z</time>
      </trkpt>
      <trkpt lat="42.6293510" lon="2.4537300">
        <ele>308.2</ele>
        <time>2020-07-21T09:46:12Z</time>
      </trkpt>
      <trkpt lat="42.6291990" lon="2.4534690">
        <ele>309.4</ele>
        <time>2020-07-21T09:46:16Z</time>
      </trkpt>
      <trkpt lat="42.6291610" lon="2.4534020">
        <ele>309.6</ele>
        <time>2020-07-21T09:46:17Z</time>
      </trkpt>
      <trkpt lat="42.6289430" lon="2.4530170">
        <ele>310.0</ele>
        <time>2020-07-21T09:46:23Z</time>
      </trkpt>
      <trkpt lat="42.6288750" lon="2.4528980">
        <ele>310.4</ele>
        <time>2020-07-21T09:46:25Z</time>
      </trkpt>
      <trkpt lat="42.6287130" lon="2.4526030">
        <ele>311.6</ele>
        <time>2020-07-21T09:46:30Z</time>
      </trkpt>
      <trkpt lat="42.6286070" lon="2.4524120">
        <ele>311.6</ele>
        <time>2020-07-21T09:46:33Z</time>
      </trkpt>
      <trkpt lat="42.6283630" lon="2.4519960">
        <ele>310.4</ele>
        <time>2020-07-21T09:46:39Z</time>
      </trkpt>
      <trkpt lat="42.6282350" lon="2.4517840">
        <ele>310.2</ele>
        <time>2020-07-21T09:46:42Z</time>
      </trkpt>
      <trkpt lat="42.6280620" lon="2.4514890">
        <ele>309.4</ele>
        <time>2020-07-21T09:46:46Z</time>
      </trkpt>
      <trkpt lat="42.6279170" lon="2.4512570">
        <ele>308.6</ele>
        <time>2020-07-21T09:46:49Z</time>
      </trkpt>
      <trkpt lat="42.6278700" lon="2.4511790">
        <ele>308.2</ele>
        <time>2020-07-21T09:46:50Z</time>
      </trkpt>
      <trkpt lat="42.6275960" lon="2.4507050">
        <ele>308.4</ele>
        <time>2020-07-21T09:46:56Z</time>
      </trkpt>
      <trkpt lat="42.6275140" lon="2.4505540">
        <ele>309.4</ele>
        <time>2020-07-21T09:46:58Z</time>
      </trkpt>
      <trkpt lat="42.6273980" lon="2.4503480">
        <ele>310.6</ele>
        <time>2020-07-21T09:47:01Z</time>
      </trkpt>
      <trkpt lat="42.6272880" lon="2.4501670">
        <ele>311.8</ele>
        <time>2020-07-21T09:47:04Z</time>
      </trkpt>
      <trkpt lat="42.6272530" lon="2.4501100">
        <ele>312.6</ele>
        <time>2020-07-21T09:47:05Z</time>
      </trkpt>
      <trkpt lat="42.6272190" lon="2.4500530">
        <ele>313.0</ele>
        <time>2020-07-21T09:47:06Z</time>
      </trkpt>
      <trkpt lat="42.6270680" lon="2.4498520">
        <ele>314.2</ele>
        <time>2020-07-21T09:47:10Z</time>
      </trkpt>
      <trkpt lat="42.6269850" lon="2.4497620">
        <ele>314.6</ele>
        <time>2020-07-21T09:47:12Z</time>
      </trkpt>
      <trkpt lat="42.6267180" lon="2.4495300">
        <ele>315.0</ele>
        <time>2020-07-21T09:47:18Z</time>
      </trkpt>
      <trkpt lat="42.6266240" lon="2.4494500">
        <ele>315.2</ele>
        <time>2020-07-21T09:47:20Z</time>
      </trkpt>
      <trkpt lat="42.6265760" lon="2.4494070">
        <ele>315.4</ele>
        <time>2020-07-21T09:47:21Z</time>
      </trkpt>
      <trkpt lat="42.6265250" lon="2.4493660">
        <ele>315.4</ele>
        <time>2020-07-21T09:47:22Z</time>
      </trkpt>
      <trkpt lat="42.6263260" lon="2.4491880">
        <ele>315.4</ele>
        <time>2020-07-21T09:47:26Z</time>
      </trkpt>
      <trkpt lat="42.6260390" lon="2.4488610">
        <ele>315.6</ele>
        <time>2020-07-21T09:47:32Z</time>
      </trkpt>
      <trkpt lat="42.6259930" lon="2.4487950">
        <ele>316.0</ele>
        <time>2020-07-21T09:47:33Z</time>
      </trkpt>
      <trkpt lat="42.6258630" lon="2.4485840">
        <ele>316.4</ele>
        <time>2020-07-21T09:47:36Z</time>
      </trkpt>
      <trkpt lat="42.6257120" lon="2.4482690">
        <ele>317.2</ele>
        <time>2020-07-21T09:47:40Z</time>
      </trkpt>
      <trkpt lat="42.6255850" lon="2.4479350">
        <ele>317.6</ele>
        <time>2020-07-21T09:47:44Z</time>
      </trkpt>
      <trkpt lat="42.6254430" lon="2.4475150">
        <ele>317.6</ele>
        <time>2020-07-21T09:47:49Z</time>
      </trkpt>
      <trkpt lat="42.6252840" lon="2.4470360">
        <ele>318.2</ele>
        <time>2020-07-21T09:47:55Z</time>
      </trkpt>
      <trkpt lat="42.6252340" lon="2.4468760">
        <ele>318.8</ele>
        <time>2020-07-21T09:47:57Z</time>
      </trkpt>
      <trkpt lat="42.6251850" lon="2.4467140">
        <ele>319.0</ele>
        <time>2020-07-21T09:47:59Z</time>
      </trkpt>
      <trkpt lat="42.6250400" lon="2.4462200">
        <ele>319.4</ele>
        <time>2020-07-21T09:48:05Z</time>
      </trkpt>
      <trkpt lat="42.6249900" lon="2.4460560">
        <ele>320.0</ele>
        <time>2020-07-21T09:48:07Z</time>
      </trkpt>
      <trkpt lat="42.6249680" lon="2.4459760">
        <ele>320.4</ele>
        <time>2020-07-21T09:48:08Z</time>
      </trkpt>
      <trkpt lat="42.6248930" lon="2.4457380">
        <ele>321.0</ele>
        <time>2020-07-21T09:48:11Z</time>
      </trkpt>
      <trkpt lat="42.6248160" lon="2.4455040">
        <ele>321.4</ele>
        <time>2020-07-21T09:48:14Z</time>
      </trkpt>
      <trkpt lat="42.6247640" lon="2.4453500">
        <ele>321.6</ele>
        <time>2020-07-21T09:48:16Z</time>
      </trkpt>
      <trkpt lat="42.6246650" lon="2.4450500">
        <ele>322.0</ele>
        <time>2020-07-21T09:48:20Z</time>
      </trkpt>
      <trkpt lat="42.6245790" lon="2.4448200">
        <ele>322.4</ele>
        <time>2020-07-21T09:48:23Z</time>
      </trkpt>
      <trkpt lat="42.6243970" lon="2.4443630">
        <ele>322.8</ele>
        <time>2020-07-21T09:48:29Z</time>
      </trkpt>
      <trkpt lat="42.6243130" lon="2.4441280">
        <ele>323.2</ele>
        <time>2020-07-21T09:48:32Z</time>
      </trkpt>
      <trkpt lat="42.6242860" lon="2.4440530">
        <ele>323.4</ele>
        <time>2020-07-21T09:48:33Z</time>
      </trkpt>
      <trkpt lat="42.6242110" lon="2.4438250">
        <ele>323.8</ele>
        <time>2020-07-21T09:48:36Z</time>
      </trkpt>
      <trkpt lat="42.6240590" lon="2.4433780">
        <ele>324.0</ele>
        <time>2020-07-21T09:48:42Z</time>
      </trkpt>
      <trkpt lat="42.6240090" lon="2.4432300">
        <ele>324.2</ele>
        <time>2020-07-21T09:48:44Z</time>
      </trkpt>
      <trkpt lat="42.6239110" lon="2.4429280">
        <ele>324.2</ele>
        <time>2020-07-21T09:48:48Z</time>
      </trkpt>
      <trkpt lat="42.6238350" lon="2.4427040">
        <ele>324.0</ele>
        <time>2020-07-21T09:48:51Z</time>
      </trkpt>
      <trkpt lat="42.6236780" lon="2.4422470">
        <ele>324.8</ele>
        <time>2020-07-21T09:48:57Z</time>
      </trkpt>
      <trkpt lat="42.6236490" lon="2.4421690">
        <ele>324.8</ele>
        <time>2020-07-21T09:48:58Z</time>
      </trkpt>
      <trkpt lat="42.6236200" lon="2.4420900">
        <ele>324.8</ele>
        <time>2020-07-21T09:48:59Z</time>
      </trkpt>
      <trkpt lat="42.6234530" lon="2.4416170">
        <ele>324.6</ele>
        <time>2020-07-21T09:49:05Z</time>
      </trkpt>
      <trkpt lat="42.6234270" lon="2.4415390">
        <ele>324.6</ele>
        <time>2020-07-21T09:49:06Z</time>
      </trkpt>
      <trkpt lat="42.6233750" lon="2.4413860">
        <ele>324.4</ele>
        <time>2020-07-21T09:49:08Z</time>
      </trkpt>
      <trkpt lat="42.6232440" lon="2.4409900">
        <ele>324.6</ele>
        <time>2020-07-21T09:49:13Z</time>
      </trkpt>
      <trkpt lat="42.6231620" lon="2.4407500">
        <ele>324.4</ele>
        <time>2020-07-21T09:49:16Z</time>
      </trkpt>
      <trkpt lat="42.6230520" lon="2.4404290">
        <ele>324.2</ele>
        <time>2020-07-21T09:49:20Z</time>
      </trkpt>
      <trkpt lat="42.6229760" lon="2.4402040">
        <ele>324.4</ele>
        <time>2020-07-21T09:49:23Z</time>
      </trkpt>
      <trkpt lat="42.6229150" lon="2.4399990">
        <ele>325.4</ele>
        <time>2020-07-21T09:49:26Z</time>
      </trkpt>
      <trkpt lat="42.6228230" lon="2.4397320">
        <ele>326.0</ele>
        <time>2020-07-21T09:49:30Z</time>
      </trkpt>
      <trkpt lat="42.6227330" lon="2.4394590">
        <ele>326.6</ele>
        <time>2020-07-21T09:49:35Z</time>
      </trkpt>
      <trkpt lat="42.6227190" lon="2.4393620">
        <ele>326.8</ele>
        <time>2020-07-21T09:49:37Z</time>
      </trkpt>
      <trkpt lat="42.6227180" lon="2.4393080">
        <ele>327.0</ele>
        <time>2020-07-21T09:49:38Z</time>
      </trkpt>
      <trkpt lat="42.6227420" lon="2.4391880">
        <ele>327.2</ele>
        <time>2020-07-21T09:49:40Z</time>
      </trkpt>
      <trkpt lat="42.6227650" lon="2.4391250">
        <ele>327.4</ele>
        <time>2020-07-21T09:49:41Z</time>
      </trkpt>
      <trkpt lat="42.6227940" lon="2.4389920">
        <ele>327.4</ele>
        <time>2020-07-21T09:49:43Z</time>
      </trkpt>
      <trkpt lat="42.6227690" lon="2.4388580">
        <ele>327.4</ele>
        <time>2020-07-21T09:49:45Z</time>
      </trkpt>
      <trkpt lat="42.6226850" lon="2.4387710">
        <ele>327.2</ele>
        <time>2020-07-21T09:49:47Z</time>
      </trkpt>
      <trkpt lat="42.6226310" lon="2.4387510">
        <ele>327.2</ele>
        <time>2020-07-21T09:49:48Z</time>
      </trkpt>
      <trkpt lat="42.6225180" lon="2.4387080">
        <ele>327.4</ele>
        <time>2020-07-21T09:49:50Z</time>
      </trkpt>
      <trkpt lat="42.6224340" lon="2.4385940">
        <ele>327.6</ele>
        <time>2020-07-21T09:49:52Z</time>
      </trkpt>
      <trkpt lat="42.6224060" lon="2.4385280">
        <ele>327.8</ele>
        <time>2020-07-21T09:49:53Z</time>
      </trkpt>
      <trkpt lat="42.6222880" lon="2.4382050">
        <ele>328.0</ele>
        <time>2020-07-21T09:49:58Z</time>
      </trkpt>
      <trkpt lat="42.6222200" lon="2.4380130">
        <ele>328.2</ele>
        <time>2020-07-21T09:50:01Z</time>
      </trkpt>
      <trkpt lat="42.6221530" lon="2.4378220">
        <ele>328.6</ele>
        <time>2020-07-21T09:50:04Z</time>
      </trkpt>
      <trkpt lat="42.6220930" lon="2.4376320">
        <ele>328.8</ele>
        <time>2020-07-21T09:50:07Z</time>
      </trkpt>
      <trkpt lat="42.6219630" lon="2.4372620">
        <ele>329.6</ele>
        <time>2020-07-21T09:50:13Z</time>
      </trkpt>
      <trkpt lat="42.6218960" lon="2.4370590">
        <ele>330.0</ele>
        <time>2020-07-21T09:50:16Z</time>
      </trkpt>
      <trkpt lat="42.6218500" lon="2.4369250">
        <ele>330.2</ele>
        <time>2020-07-21T09:50:18Z</time>
      </trkpt>
      <trkpt lat="42.6218070" lon="2.4367950">
        <ele>330.2</ele>
        <time>2020-07-21T09:50:20Z</time>
      </trkpt>
      <trkpt lat="42.6217110" lon="2.4364640">
        <ele>330.6</ele>
        <time>2020-07-21T09:50:25Z</time>
      </trkpt>
      <trkpt lat="42.6216900" lon="2.4364020">
        <ele>330.8</ele>
        <time>2020-07-21T09:50:26Z</time>
      </trkpt>
      <trkpt lat="42.6215650" lon="2.4360090">
        <ele>331.2</ele>
        <time>2020-07-21T09:50:32Z</time>
      </trkpt>
      <trkpt lat="42.6215220" lon="2.4358760">
        <ele>331.4</ele>
        <time>2020-07-21T09:50:34Z</time>
      </trkpt>
      <trkpt lat="42.6213710" lon="2.4354610">
        <ele>331.4</ele>
        <time>2020-07-21T09:50:40Z</time>
      </trkpt>
      <trkpt lat="42.6213000" lon="2.4352610">
        <ele>331.8</ele>
        <time>2020-07-21T09:50:43Z</time>
      </trkpt>
      <trkpt lat="42.6212760" lon="2.4351950">
        <ele>331.8</ele>
        <time>2020-07-21T09:50:44Z</time>
      </trkpt>
      <trkpt lat="42.6211210" lon="2.4347760">
        <ele>332.4</ele>
        <time>2020-07-21T09:50:50Z</time>
      </trkpt>
      <trkpt lat="42.6210670" lon="2.4346320">
        <ele>332.4</ele>
        <time>2020-07-21T09:50:52Z</time>
      </trkpt>
      <trkpt lat="42.6209350" lon="2.4342690">
        <ele>332.8</ele>
        <time>2020-07-21T09:50:57Z</time>
      </trkpt>
      <trkpt lat="42.6208870" lon="2.4341270">
        <ele>333.0</ele>
        <time>2020-07-21T09:50:59Z</time>
      </trkpt>
      <trkpt lat="42.6208410" lon="2.4339810">
        <ele>333.4</ele>
        <time>2020-07-21T09:51:01Z</time>
      </trkpt>
      <trkpt lat="42.6207030" lon="2.4335460">
        <ele>333.8</ele>
        <time>2020-07-21T09:51:07Z</time>
      </trkpt>
      <trkpt lat="42.6206360" lon="2.4333340">
        <ele>334.4</ele>
        <time>2020-07-21T09:51:10Z</time>
      </trkpt>
      <trkpt lat="42.6204890" lon="2.4329040">
        <ele>334.8</ele>
        <time>2020-07-21T09:51:16Z</time>
      </trkpt>
      <trkpt lat="42.6204650" lon="2.4328340">
        <ele>335.0</ele>
        <time>2020-07-21T09:51:17Z</time>
      </trkpt>
      <trkpt lat="42.6204440" lon="2.4327670">
        <ele>335.2</ele>
        <time>2020-07-21T09:51:18Z</time>
      </trkpt>
      <trkpt lat="42.6203180" lon="2.4323570">
        <ele>335.6</ele>
        <time>2020-07-21T09:51:24Z</time>
      </trkpt>
      <trkpt lat="42.6202940" lon="2.4322890">
        <ele>335.6</ele>
        <time>2020-07-21T09:51:25Z</time>
      </trkpt>
      <trkpt lat="42.6201680" lon="2.4319320">
        <ele>336.0</ele>
        <time>2020-07-21T09:51:30Z</time>
      </trkpt>
      <trkpt lat="42.6200790" lon="2.4316490">
        <ele>336.2</ele>
        <time>2020-07-21T09:51:34Z</time>
      </trkpt>
      <trkpt lat="42.6199120" lon="2.4313150">
        <ele>336.4</ele>
        <time>2020-07-21T09:51:39Z</time>
      </trkpt>
      <trkpt lat="42.6196570" lon="2.4309570">
        <ele>336.2</ele>
        <time>2020-07-21T09:51:45Z</time>
      </trkpt>
      <trkpt lat="42.6196190" lon="2.4309000">
        <ele>336.0</ele>
        <time>2020-07-21T09:51:46Z</time>
      </trkpt>
      <trkpt lat="42.6194060" lon="2.4306090">
        <ele>336.0</ele>
        <time>2020-07-21T09:51:52Z</time>
      </trkpt>
      <trkpt lat="42.6193750" lon="2.4305710">
        <ele>336.4</ele>
        <time>2020-07-21T09:51:53Z</time>
      </trkpt>
      <trkpt lat="42.6193120" lon="2.4304890">
        <ele>337.2</ele>
        <time>2020-07-21T09:51:55Z</time>
      </trkpt>
      <trkpt lat="42.6191080" lon="2.4302070">
        <ele>338.0</ele>
        <time>2020-07-21T09:52:01Z</time>
      </trkpt>
      <trkpt lat="42.6190410" lon="2.4301130">
        <ele>338.2</ele>
        <time>2020-07-21T09:52:03Z</time>
      </trkpt>
      <trkpt lat="42.6188260" lon="2.4298140">
        <ele>338.8</ele>
        <time>2020-07-21T09:52:09Z</time>
      </trkpt>
      <trkpt lat="42.6185920" lon="2.4294840">
        <ele>338.8</ele>
        <time>2020-07-21T09:52:15Z</time>
      </trkpt>
      <trkpt lat="42.6185520" lon="2.4294310">
        <ele>338.8</ele>
        <time>2020-07-21T09:52:16Z</time>
      </trkpt>
      <trkpt lat="42.6183930" lon="2.4292110">
        <ele>338.6</ele>
        <time>2020-07-21T09:52:20Z</time>
      </trkpt>
      <trkpt lat="42.6183350" lon="2.4290850">
        <ele>338.6</ele>
        <time>2020-07-21T09:52:22Z</time>
      </trkpt>
      <trkpt lat="42.6182380" lon="2.4288580">
        <ele>339.2</ele>
        <time>2020-07-21T09:52:26Z</time>
      </trkpt>
      <trkpt lat="42.6182160" lon="2.4288040">
        <ele>339.4</ele>
        <time>2020-07-21T09:52:27Z</time>
      </trkpt>
      <trkpt lat="42.6181710" lon="2.4287040">
        <ele>339.8</ele>
        <time>2020-07-21T09:52:29Z</time>
      </trkpt>
      <trkpt lat="42.6180780" lon="2.4284760">
        <ele>340.4</ele>
        <time>2020-07-21T09:52:34Z</time>
      </trkpt>
      <trkpt lat="42.6180400" lon="2.4284020">
        <ele>340.6</ele>
        <time>2020-07-21T09:52:36Z</time>
      </trkpt>
      <trkpt lat="42.6179330" lon="2.4281800">
        <ele>341.2</ele>
        <time>2020-07-21T09:52:41Z</time>
      </trkpt>
      <trkpt lat="42.6178620" lon="2.4280320">
        <ele>341.6</ele>
        <time>2020-07-21T09:52:44Z</time>
      </trkpt>
      <trkpt lat="42.6177630" lon="2.4278160">
        <ele>342.4</ele>
        <time>2020-07-21T09:52:48Z</time>
      </trkpt>
      <trkpt lat="42.6177140" lon="2.4276980">
        <ele>342.6</ele>
        <time>2020-07-21T09:52:50Z</time>
      </trkpt>
      <trkpt lat="42.6175950" lon="2.4273890">
        <ele>343.2</ele>
        <time>2020-07-21T09:52:55Z</time>
      </trkpt>
      <trkpt lat="42.6174670" lon="2.4270610">
        <ele>343.6</ele>
        <time>2020-07-21T09:53:01Z</time>
      </trkpt>
      <trkpt lat="42.6174190" lon="2.4269570">
        <ele>343.6</ele>
        <time>2020-07-21T09:53:03Z</time>
      </trkpt>
      <trkpt lat="42.6173850" lon="2.4269030">
        <ele>343.6</ele>
        <time>2020-07-21T09:53:04Z</time>
      </trkpt>
      <trkpt lat="42.6173580" lon="2.4268540">
        <ele>343.8</ele>
        <time>2020-07-21T09:53:05Z</time>
      </trkpt>
      <trkpt lat="42.6172540" lon="2.4266370">
        <ele>344.4</ele>
        <time>2020-07-21T09:53:09Z</time>
      </trkpt>
      <trkpt lat="42.6171310" lon="2.4263570">
        <ele>344.6</ele>
        <time>2020-07-21T09:53:15Z</time>
      </trkpt>
      <trkpt lat="42.6171020" lon="2.4263150">
        <ele>344.8</ele>
        <time>2020-07-21T09:53:18Z</time>
      </trkpt>
      <trkpt lat="42.6170990" lon="2.4263060">
        <ele>344.8</ele>
        <time>2020-07-21T09:53:19Z</time>
      </trkpt>
      <trkpt lat="42.6170370" lon="2.4262260">
        <ele>345.0</ele>
        <time>2020-07-21T09:53:24Z</time>
      </trkpt>
      <trkpt lat="42.6169970" lon="2.4261190">
        <ele>344.8</ele>
        <time>2020-07-21T09:53:30Z</time>
      </trkpt>
      <trkpt lat="42.6169780" lon="2.4260830">
        <ele>345.0</ele>
        <time>2020-07-21T09:53:32Z</time>
      </trkpt>
      <trkpt lat="42.6169520" lon="2.4260310">
        <ele>345.0</ele>
        <time>2020-07-21T09:53:34Z</time>
      </trkpt>
      <trkpt lat="42.6169270" lon="2.4259710">
        <ele>345.2</ele>
        <time>2020-07-21T09:53:36Z</time>
      </trkpt>
      <trkpt lat="42.6168420" lon="2.4258070">
        <ele>345.2</ele>
        <time>2020-07-21T09:53:42Z</time>
      </trkpt>
      <trkpt lat="42.6168130" lon="2.4257320">
        <ele>345.0</ele>
        <time>2020-07-21T09:53:45Z</time>
      </trkpt>
      <trkpt lat="42.6167980" lon="2.4256500">
        <ele>344.8</ele>
        <time>2020-07-21T09:53:48Z</time>
      </trkpt>
      <trkpt lat="42.6167840" lon="2.4256180">
        <ele>344.8</ele>
        <time>2020-07-21T09:53:49Z</time>
      </trkpt>
      <trkpt lat="42.6167320" lon="2.4253840">
        <ele>343.8</ele>
        <time>2020-07-21T09:53:55Z</time>
      </trkpt>
      <trkpt lat="42.6166740" lon="2.4252450">
        <ele>342.8</ele>
        <time>2020-07-21T09:54:00Z</time>
      </trkpt>
      <trkpt lat="42.6166590" lon="2.4252280">
        <ele>342.6</ele>
        <time>2020-07-21T09:54:01Z</time>
      </trkpt>
      <trkpt lat="42.6166530" lon="2.4251920">
        <ele>342.4</ele>
        <time>2020-07-21T09:54:05Z</time>
      </trkpt>
      <trkpt lat="42.6166800" lon="2.4251540">
        <ele>342.0</ele>
        <time>2020-07-21T09:54:11Z</time>
      </trkpt>
      <trkpt lat="42.6166940" lon="2.4251480">
        <ele>341.8</ele>
        <time>2020-07-21T09:54:12Z</time>
      </trkpt>
      <trkpt lat="42.6167030" lon="2.4251510">
        <ele>342.0</ele>
        <time>2020-07-21T09:54:18Z</time>
      </trkpt>
      <trkpt lat="42.6167070" lon="2.4251550">
        <ele>342.0</ele>
        <time>2020-07-21T09:54:19Z</time>
      </trkpt>
      <trkpt lat="42.6167420" lon="2.4251690">
        <ele>342.0</ele>
        <time>2020-07-21T09:54:25Z</time>
      </trkpt>
      <trkpt lat="42.6167480" lon="2.4251650">
        <ele>341.8</ele>
        <time>2020-07-21T09:54:26Z</time>
      </trkpt>
      <trkpt lat="42.6167450" lon="2.4251490">
        <ele>341.8</ele>
        <time>2020-07-21T09:54:28Z</time>
      </trkpt>
      <trkpt lat="42.6167280" lon="2.4251300">
        <ele>341.6</ele>
        <time>2020-07-21T09:54:34Z</time>
      </trkpt>
      <trkpt lat="42.6167280" lon="2.4251300">
        <ele>341.6</ele>
        <time>2020-07-21T09:54:35Z</time>
      </trkpt>
      <trkpt lat="42.6167030" lon="2.4250940">
        <ele>341.8</ele>
        <time>2020-07-21T09:54:39Z</time>
      </trkpt>
      <trkpt lat="42.6167000" lon="2.4250800">
        <ele>341.8</ele>
        <time>2020-07-21T09:54:42Z</time>
      </trkpt>
      <trkpt lat="42.6166950" lon="2.4250780">
        <ele>341.6</ele>
        <time>2020-07-21T09:54:48Z</time>
      </trkpt>
      <trkpt lat="42.6166880" lon="2.4250800">
        <ele>341.6</ele>
        <time>2020-07-21T09:54:50Z</time>
      </trkpt>
      <trkpt lat="42.6167030" lon="2.4250770">
        <ele>341.8</ele>
        <time>2020-07-21T09:54:55Z</time>
      </trkpt>
      <trkpt lat="42.6167180" lon="2.4250770">
        <ele>341.8</ele>
        <time>2020-07-21T09:54:57Z</time>
      </trkpt>
      <trkpt lat="42.6167260" lon="2.4250780">
        <ele>341.6</ele>
        <time>2020-07-21T09:55:03Z</time>
      </trkpt>
      <trkpt lat="42.6167270" lon="2.4250770">
        <ele>341.6</ele>
        <time>2020-07-21T09:55:04Z</time>
      </trkpt>
      <trkpt lat="42.6167230" lon="2.4250740">
        <ele>341.8</ele>
        <time>2020-07-21T09:55:07Z</time>
      </trkpt>
      <trkpt lat="42.6167190" lon="2.4250620">
        <ele>342.2</ele>
        <time>2020-07-21T09:55:10Z</time>
      </trkpt>
      <trkpt lat="42.6167210" lon="2.4250570">
        <ele>342.2</ele>
        <time>2020-07-21T09:55:11Z</time>
      </trkpt>
      <trkpt lat="42.6167270" lon="2.4250010">
        <ele>342.2</ele>
        <time>2020-07-21T09:55:17Z</time>
      </trkpt>
      <trkpt lat="42.6167280" lon="2.4249940">
        <ele>342.2</ele>
        <time>2020-07-21T09:55:18Z</time>
      </trkpt>
      <trkpt lat="42.6167190" lon="2.4249710">
        <ele>342.2</ele>
        <time>2020-07-21T09:55:24Z</time>
      </trkpt>
      <trkpt lat="42.6165420" lon="2.4244230">
        <ele>342.2</ele>
        <time>2020-07-21T09:55:54Z</time>
      </trkpt>
      <trkpt lat="42.6165530" lon="2.4243770">
        <ele>341.4</ele>
        <time>2020-07-21T09:55:57Z</time>
      </trkpt>
      <trkpt lat="42.6165540" lon="2.4243510">
        <ele>340.6</ele>
        <time>2020-07-21T09:55:59Z</time>
      </trkpt>
      <trkpt lat="42.6165490" lon="2.4243380">
        <ele>340.4</ele>
        <time>2020-07-21T09:56:00Z</time>
      </trkpt>
      <trkpt lat="42.6165230" lon="2.4242220">
        <ele>340.2</ele>
        <time>2020-07-21T09:56:05Z</time>
      </trkpt>
      <trkpt lat="42.6165120" lon="2.4241900">
        <ele>340.4</ele>
        <time>2020-07-21T09:56:06Z</time>
      </trkpt>
      <trkpt lat="42.6164480" lon="2.4239390">
        <ele>340.2</ele>
        <time>2020-07-21T09:56:12Z</time>
      </trkpt>
      <trkpt lat="42.6164390" lon="2.4236540">
        <ele>340.0</ele>
        <time>2020-07-21T09:56:17Z</time>
      </trkpt>
      <trkpt lat="42.6164390" lon="2.4234350">
        <ele>339.6</ele>
        <time>2020-07-21T09:56:22Z</time>
      </trkpt>
      <trkpt lat="42.6164280" lon="2.4232960">
        <ele>339.4</ele>
        <time>2020-07-21T09:56:25Z</time>
      </trkpt>
      <trkpt lat="42.6164140" lon="2.4231850">
        <ele>339.2</ele>
        <time>2020-07-21T09:56:27Z</time>
      </trkpt>
      <trkpt lat="42.6163390" lon="2.4227450">
        <ele>338.8</ele>
        <time>2020-07-21T09:56:33Z</time>
      </trkpt>
      <trkpt lat="42.6162180" lon="2.4222610">
        <ele>338.8</ele>
        <time>2020-07-21T09:56:39Z</time>
      </trkpt>
      <trkpt lat="42.6161970" lon="2.4221830">
        <ele>339.0</ele>
        <time>2020-07-21T09:56:40Z</time>
      </trkpt>
      <trkpt lat="42.6161210" lon="2.4218090">
        <ele>339.4</ele>
        <time>2020-07-21T09:56:45Z</time>
      </trkpt>
      <trkpt lat="42.6161190" lon="2.4216750">
        <ele>339.6</ele>
        <time>2020-07-21T09:56:47Z</time>
      </trkpt>
      <trkpt lat="42.6160740" lon="2.4212240">
        <ele>340.2</ele>
        <time>2020-07-21T09:56:53Z</time>
      </trkpt>
      <trkpt lat="42.6160520" lon="2.4209980">
        <ele>340.2</ele>
        <time>2020-07-21T09:56:56Z</time>
      </trkpt>
      <trkpt lat="42.6160400" lon="2.4208590">
        <ele>340.2</ele>
        <time>2020-07-21T09:56:58Z</time>
      </trkpt>
      <trkpt lat="42.6160270" lon="2.4207860">
        <ele>340.2</ele>
        <time>2020-07-21T09:56:59Z</time>
      </trkpt>
      <trkpt lat="42.6160070" lon="2.4206560">
        <ele>340.4</ele>
        <time>2020-07-21T09:57:01Z</time>
      </trkpt>
      <trkpt lat="42.6159870" lon="2.4204940">
        <ele>340.8</ele>
        <time>2020-07-21T09:57:04Z</time>
      </trkpt>
      <trkpt lat="42.6159710" lon="2.4203810">
        <ele>340.8</ele>
        <time>2020-07-21T09:57:06Z</time>
      </trkpt>
      <trkpt lat="42.6159410" lon="2.4201100">
        <ele>341.2</ele>
        <time>2020-07-21T09:57:10Z</time>
      </trkpt>
      <trkpt lat="42.6159270" lon="2.4200360">
        <ele>341.2</ele>
        <time>2020-07-21T09:57:11Z</time>
      </trkpt>
      <trkpt lat="42.6158880" lon="2.4198140">
        <ele>341.6</ele>
        <time>2020-07-21T09:57:14Z</time>
      </trkpt>
      <trkpt lat="42.6158410" lon="2.4195270">
        <ele>341.8</ele>
        <time>2020-07-21T09:57:18Z</time>
      </trkpt>
      <trkpt lat="42.6158110" lon="2.4192740">
        <ele>342.2</ele>
        <time>2020-07-21T09:57:23Z</time>
      </trkpt>
      <trkpt lat="42.6157880" lon="2.4191840">
        <ele>342.8</ele>
        <time>2020-07-21T09:57:26Z</time>
      </trkpt>
      <trkpt lat="42.6157870" lon="2.4191560">
        <ele>342.8</ele>
        <time>2020-07-21T09:57:27Z</time>
      </trkpt>
      <trkpt lat="42.6158310" lon="2.4190070">
        <ele>342.8</ele>
        <time>2020-07-21T09:57:32Z</time>
      </trkpt>
      <trkpt lat="42.6159010" lon="2.4188450">
        <ele>342.8</ele>
        <time>2020-07-21T09:57:36Z</time>
      </trkpt>
      <trkpt lat="42.6161270" lon="2.4185910">
        <ele>342.0</ele>
        <time>2020-07-21T09:57:42Z</time>
      </trkpt>
      <trkpt lat="42.6161720" lon="2.4185500">
        <ele>341.8</ele>
        <time>2020-07-21T09:57:43Z</time>
      </trkpt>
      <trkpt lat="42.6163450" lon="2.4183740">
        <ele>341.8</ele>
        <time>2020-07-21T09:57:47Z</time>
      </trkpt>
      <trkpt lat="42.6165380" lon="2.4181900">
        <ele>340.8</ele>
        <time>2020-07-21T09:57:51Z</time>
      </trkpt>
      <trkpt lat="42.6165890" lon="2.4181460">
        <ele>340.6</ele>
        <time>2020-07-21T09:57:52Z</time>
      </trkpt>
      <trkpt lat="42.6168500" lon="2.4179300">
        <ele>339.6</ele>
        <time>2020-07-21T09:57:57Z</time>
      </trkpt>
      <trkpt lat="42.6169540" lon="2.4178430">
        <ele>339.4</ele>
        <time>2020-07-21T09:57:59Z</time>
      </trkpt>
      <trkpt lat="42.6171020" lon="2.4177150">
        <ele>339.6</ele>
        <time>2020-07-21T09:58:02Z</time>
      </trkpt>
      <trkpt lat="42.6172620" lon="2.4175930">
        <ele>339.0</ele>
        <time>2020-07-21T09:58:05Z</time>
      </trkpt>
      <trkpt lat="42.6173800" lon="2.4175030">
        <ele>338.8</ele>
        <time>2020-07-21T09:58:08Z</time>
      </trkpt>
      <trkpt lat="42.6174050" lon="2.4174840">
        <ele>338.8</ele>
        <time>2020-07-21T09:58:09Z</time>
      </trkpt>
      <trkpt lat="42.6175580" lon="2.4173490">
        <ele>339.0</ele>
        <time>2020-07-21T09:58:11Z</time>
      </trkpt>
      <trkpt lat="42.6176920" lon="2.4172390">
        <ele>338.0</ele>
        <time>2020-07-21T09:58:39Z</time>
      </trkpt>
      <trkpt lat="42.6178270" lon="2.4171290">
        <ele>338.0</ele>
        <time>2020-07-21T09:58:40Z</time>
      </trkpt>
      <trkpt lat="42.6180960" lon="2.4169090">
        <ele>337.0</ele>
        <time>2020-07-21T09:58:45Z</time>
      </trkpt>
      <trkpt lat="42.6182090" lon="2.4168250">
        <ele>336.4</ele>
        <time>2020-07-21T09:58:47Z</time>
      </trkpt>
      <trkpt lat="42.6183810" lon="2.4166870">
        <ele>335.8</ele>
        <time>2020-07-21T09:58:50Z</time>
      </trkpt>
      <trkpt lat="42.6186270" lon="2.4164780">
        <ele>334.6</ele>
        <time>2020-07-21T09:58:54Z</time>
      </trkpt>
      <trkpt lat="42.6186910" lon="2.4164250">
        <ele>334.2</ele>
        <time>2020-07-21T09:58:55Z</time>
      </trkpt>
      <trkpt lat="42.6190770" lon="2.4160840">
        <ele>333.8</ele>
        <time>2020-07-21T09:59:01Z</time>
      </trkpt>
      <trkpt lat="42.6192700" lon="2.4159080">
        <ele>333.0</ele>
        <time>2020-07-21T09:59:04Z</time>
      </trkpt>
      <trkpt lat="42.6194370" lon="2.4157650">
        <ele>331.8</ele>
        <time>2020-07-21T09:59:07Z</time>
      </trkpt>
      <trkpt lat="42.6197760" lon="2.4155480">
        <ele>330.6</ele>
        <time>2020-07-21T09:59:13Z</time>
      </trkpt>
      <trkpt lat="42.6200480" lon="2.4152900">
        <ele>330.0</ele>
        <time>2020-07-21T09:59:18Z</time>
      </trkpt>
      <trkpt lat="42.6200980" lon="2.4152240">
        <ele>329.6</ele>
        <time>2020-07-21T09:59:19Z</time>
      </trkpt>
      <trkpt lat="42.6202000" lon="2.4151120">
        <ele>329.0</ele>
        <time>2020-07-21T09:59:21Z</time>
      </trkpt>
      <trkpt lat="42.6203550" lon="2.4149850">
        <ele>328.2</ele>
        <time>2020-07-21T09:59:24Z</time>
      </trkpt>
      <trkpt lat="42.6205100" lon="2.4148460">
        <ele>327.8</ele>
        <time>2020-07-21T09:59:27Z</time>
      </trkpt>
      <trkpt lat="42.6206840" lon="2.4146950">
        <ele>327.0</ele>
        <time>2020-07-21T09:59:30Z</time>
      </trkpt>
      <trkpt lat="42.6207450" lon="2.4146450">
        <ele>327.0</ele>
        <time>2020-07-21T09:59:31Z</time>
      </trkpt>
      <trkpt lat="42.6209280" lon="2.4144840">
        <ele>326.4</ele>
        <time>2020-07-21T09:59:34Z</time>
      </trkpt>
      <trkpt lat="42.6211200" lon="2.4143440">
        <ele>326.4</ele>
        <time>2020-07-21T09:59:37Z</time>
      </trkpt>
      <trkpt lat="42.6212590" lon="2.4143380">
        <ele>326.2</ele>
        <time>2020-07-21T09:59:39Z</time>
      </trkpt>
      <trkpt lat="42.6213830" lon="2.4144310">
        <ele>326.0</ele>
        <time>2020-07-21T09:59:41Z</time>
      </trkpt>
      <trkpt lat="42.6214350" lon="2.4144950">
        <ele>325.8</ele>
        <time>2020-07-21T09:59:42Z</time>
      </trkpt>
      <trkpt lat="42.6214830" lon="2.4145670">
        <ele>325.8</ele>
        <time>2020-07-21T09:59:43Z</time>
      </trkpt>
      <trkpt lat="42.6215650" lon="2.4147100">
        <ele>325.6</ele>
        <time>2020-07-21T09:59:45Z</time>
      </trkpt>
      <trkpt lat="42.6216050" lon="2.4147830">
        <ele>325.8</ele>
        <time>2020-07-21T09:59:46Z</time>
      </trkpt>
      <trkpt lat="42.6216440" lon="2.4148510">
        <ele>326.0</ele>
        <time>2020-07-21T09:59:47Z</time>
      </trkpt>
      <trkpt lat="42.6217570" lon="2.4150390">
        <ele>327.4</ele>
        <time>2020-07-21T09:59:50Z</time>
      </trkpt>
      <trkpt lat="42.6217940" lon="2.4150930">
        <ele>327.8</ele>
        <time>2020-07-21T09:59:51Z</time>
      </trkpt>
      <trkpt lat="42.6218270" lon="2.4151450">
        <ele>328.2</ele>
        <time>2020-07-21T09:59:52Z</time>
      </trkpt>
      <trkpt lat="42.6218590" lon="2.4151960">
        <ele>328.6</ele>
        <time>2020-07-21T09:59:53Z</time>
      </trkpt>
      <trkpt lat="42.6218900" lon="2.4152430">
        <ele>328.8</ele>
        <time>2020-07-21T09:59:54Z</time>
      </trkpt>
      <trkpt lat="42.6219720" lon="2.4153760">
        <ele>329.6</ele>
        <time>2020-07-21T09:59:57Z</time>
      </trkpt>
      <trkpt lat="42.6220250" lon="2.4154640">
        <ele>330.4</ele>
        <time>2020-07-21T09:59:59Z</time>
      </trkpt>
      <trkpt lat="42.6220500" lon="2.4155090">
        <ele>330.6</ele>
        <time>2020-07-21T10:00:00Z</time>
      </trkpt>
      <trkpt lat="42.6221450" lon="2.4156900">
        <ele>331.6</ele>
        <time>2020-07-21T10:00:04Z</time>
      </trkpt>
      <trkpt lat="42.6222110" lon="2.4158240">
        <ele>332.4</ele>
        <time>2020-07-21T10:00:07Z</time>
      </trkpt>
      <trkpt lat="42.6222310" lon="2.4158710">
        <ele>332.8</ele>
        <time>2020-07-21T10:00:08Z</time>
      </trkpt>
      <trkpt lat="42.6223380" lon="2.4161140">
        <ele>333.8</ele>
        <time>2020-07-21T10:00:13Z</time>
      </trkpt>
      <trkpt lat="42.6223620" lon="2.4161560">
        <ele>334.0</ele>
        <time>2020-07-21T10:00:14Z</time>
      </trkpt>
      <trkpt lat="42.6224230" lon="2.4162900">
        <ele>334.4</ele>
        <time>2020-07-21T10:00:17Z</time>
      </trkpt>
      <trkpt lat="42.6224490" lon="2.4164560">
        <ele>334.6</ele>
        <time>2020-07-21T10:00:20Z</time>
      </trkpt>
      <trkpt lat="42.6224680" lon="2.4165100">
        <ele>334.8</ele>
        <time>2020-07-21T10:00:21Z</time>
      </trkpt>
      <trkpt lat="42.6224920" lon="2.4165640">
        <ele>334.8</ele>
        <time>2020-07-21T10:00:22Z</time>
      </trkpt>
      <trkpt lat="42.6225430" lon="2.4166820">
        <ele>334.8</ele>
        <time>2020-07-21T10:00:24Z</time>
      </trkpt>
      <trkpt lat="42.6226010" lon="2.4169880">
        <ele>333.8</ele>
        <time>2020-07-21T10:00:28Z</time>
      </trkpt>
      <trkpt lat="42.6226470" lon="2.4172650">
        <ele>332.6</ele>
        <time>2020-07-21T10:00:31Z</time>
      </trkpt>
      <trkpt lat="42.6226990" lon="2.4174580">
        <ele>331.8</ele>
        <time>2020-07-21T10:00:33Z</time>
      </trkpt>
      <trkpt lat="42.6227440" lon="2.4175430">
        <ele>331.2</ele>
        <time>2020-07-21T10:00:34Z</time>
      </trkpt>
      <trkpt lat="42.6227970" lon="2.4176210">
        <ele>330.8</ele>
        <time>2020-07-21T10:00:35Z</time>
      </trkpt>
      <trkpt lat="42.6228650" lon="2.4176840">
        <ele>330.2</ele>
        <time>2020-07-21T10:00:36Z</time>
      </trkpt>
      <trkpt lat="42.6229360" lon="2.4177370">
        <ele>330.0</ele>
        <time>2020-07-21T10:00:37Z</time>
      </trkpt>
      <trkpt lat="42.6232270" lon="2.4179030">
        <ele>329.4</ele>
        <time>2020-07-21T10:00:41Z</time>
      </trkpt>
      <trkpt lat="42.6236240" lon="2.4180560">
        <ele>329.6</ele>
        <time>2020-07-21T10:00:47Z</time>
      </trkpt>
      <trkpt lat="42.6238100" lon="2.4181090">
        <ele>329.8</ele>
        <time>2020-07-21T10:00:50Z</time>
      </trkpt>
      <trkpt lat="42.6239330" lon="2.4181790">
        <ele>329.6</ele>
        <time>2020-07-21T10:00:52Z</time>
      </trkpt>
      <trkpt lat="42.6243040" lon="2.4184440">
        <ele>329.6</ele>
        <time>2020-07-21T10:00:58Z</time>
      </trkpt>
      <trkpt lat="42.6243650" lon="2.4184860">
        <ele>329.6</ele>
        <time>2020-07-21T10:00:59Z</time>
      </trkpt>
      <trkpt lat="42.6247340" lon="2.4187290">
        <ele>329.6</ele>
        <time>2020-07-21T10:01:05Z</time>
      </trkpt>
      <trkpt lat="42.6247880" lon="2.4187770">
        <ele>329.6</ele>
        <time>2020-07-21T10:01:06Z</time>
      </trkpt>
      <trkpt lat="42.6248340" lon="2.4188340">
        <ele>330.0</ele>
        <time>2020-07-21T10:01:07Z</time>
      </trkpt>
      <trkpt lat="42.6248790" lon="2.4188870">
        <ele>330.0</ele>
        <time>2020-07-21T10:01:08Z</time>
      </trkpt>
      <trkpt lat="42.6249880" lon="2.4189520">
        <ele>330.4</ele>
        <time>2020-07-21T10:01:10Z</time>
      </trkpt>
      <trkpt lat="42.6250510" lon="2.4189770">
        <ele>330.4</ele>
        <time>2020-07-21T10:01:11Z</time>
      </trkpt>
      <trkpt lat="42.6251130" lon="2.4190050">
        <ele>330.4</ele>
        <time>2020-07-21T10:01:12Z</time>
      </trkpt>
      <trkpt lat="42.6253630" lon="2.4191710">
        <ele>329.6</ele>
        <time>2020-07-21T10:01:16Z</time>
      </trkpt>
      <trkpt lat="42.6254950" lon="2.4192660">
        <ele>329.0</ele>
        <time>2020-07-21T10:01:18Z</time>
      </trkpt>
      <trkpt lat="42.6255620" lon="2.4193160">
        <ele>328.6</ele>
        <time>2020-07-21T10:01:19Z</time>
      </trkpt>
      <trkpt lat="42.6257690" lon="2.4194660">
        <ele>327.4</ele>
        <time>2020-07-21T10:01:22Z</time>
      </trkpt>
      <trkpt lat="42.6258390" lon="2.4195140">
        <ele>327.0</ele>
        <time>2020-07-21T10:01:23Z</time>
      </trkpt>
      <trkpt lat="42.6259840" lon="2.4196080">
        <ele>326.0</ele>
        <time>2020-07-21T10:01:25Z</time>
      </trkpt>
      <trkpt lat="42.6262620" lon="2.4198070">
        <ele>324.8</ele>
        <time>2020-07-21T10:01:29Z</time>
      </trkpt>
      <trkpt lat="42.6263990" lon="2.4198990">
        <ele>324.8</ele>
        <time>2020-07-21T10:01:31Z</time>
      </trkpt>
      <trkpt lat="42.6266030" lon="2.4200510">
        <ele>324.8</ele>
        <time>2020-07-21T10:01:35Z</time>
      </trkpt>
      <trkpt lat="42.6268610" lon="2.4202860">
        <ele>325.0</ele>
        <time>2020-07-21T10:01:41Z</time>
      </trkpt>
      <trkpt lat="42.6270880" lon="2.4204890">
        <ele>324.8</ele>
        <time>2020-07-21T10:01:45Z</time>
      </trkpt>
      <trkpt lat="42.6272060" lon="2.4206010">
        <ele>324.0</ele>
        <time>2020-07-21T10:01:47Z</time>
      </trkpt>
      <trkpt lat="42.6272660" lon="2.4206580">
        <ele>323.8</ele>
        <time>2020-07-21T10:01:48Z</time>
      </trkpt>
      <trkpt lat="42.6275660" lon="2.4209680">
        <ele>323.2</ele>
        <time>2020-07-21T10:01:53Z</time>
      </trkpt>
      <trkpt lat="42.6276880" lon="2.4210900">
        <ele>322.8</ele>
        <time>2020-07-21T10:01:55Z</time>
      </trkpt>
      <trkpt lat="42.6277500" lon="2.4211510">
        <ele>322.8</ele>
        <time>2020-07-21T10:01:56Z</time>
      </trkpt>
      <trkpt lat="42.6278770" lon="2.4212730">
        <ele>322.4</ele>
        <time>2020-07-21T10:01:58Z</time>
      </trkpt>
      <trkpt lat="42.6282080" lon="2.4215880">
        <ele>322.0</ele>
        <time>2020-07-21T10:02:03Z</time>
      </trkpt>
      <trkpt lat="42.6282750" lon="2.4216520">
        <ele>322.0</ele>
        <time>2020-07-21T10:02:04Z</time>
      </trkpt>
      <trkpt lat="42.6284090" lon="2.4217810">
        <ele>322.0</ele>
        <time>2020-07-21T10:02:06Z</time>
      </trkpt>
      <trkpt lat="42.6286110" lon="2.4219720">
        <ele>322.0</ele>
        <time>2020-07-21T10:02:09Z</time>
      </trkpt>
      <trkpt lat="42.6286780" lon="2.4220350">
        <ele>322.0</ele>
        <time>2020-07-21T10:02:10Z</time>
      </trkpt>
      <trkpt lat="42.6288770" lon="2.4222200">
        <ele>321.6</ele>
        <time>2020-07-21T10:02:13Z</time>
      </trkpt>
      <trkpt lat="42.6289410" lon="2.4222820">
        <ele>321.4</ele>
        <time>2020-07-21T10:02:14Z</time>
      </trkpt>
      <trkpt lat="42.6292980" lon="2.4226570">
        <ele>321.2</ele>
        <time>2020-07-21T10:02:20Z</time>
      </trkpt>
      <trkpt lat="42.6294100" lon="2.4227920">
        <ele>321.4</ele>
        <time>2020-07-21T10:02:22Z</time>
      </trkpt>
      <trkpt lat="42.6294630" lon="2.4228660">
        <ele>321.2</ele>
        <time>2020-07-21T10:02:23Z</time>
      </trkpt>
      <trkpt lat="42.6296700" lon="2.4231870">
        <ele>320.6</ele>
        <time>2020-07-21T10:02:27Z</time>
      </trkpt>
      <trkpt lat="42.6297740" lon="2.4233450">
        <ele>320.4</ele>
        <time>2020-07-21T10:02:29Z</time>
      </trkpt>
      <trkpt lat="42.6300710" lon="2.4237510">
        <ele>319.6</ele>
        <time>2020-07-21T10:02:35Z</time>
      </trkpt>
      <trkpt lat="42.6303510" lon="2.4241490">
        <ele>319.2</ele>
        <time>2020-07-21T10:02:41Z</time>
      </trkpt>
      <trkpt lat="42.6303990" lon="2.4242130">
        <ele>319.2</ele>
        <time>2020-07-21T10:02:42Z</time>
      </trkpt>
      <trkpt lat="42.6306650" lon="2.4245950">
        <ele>318.6</ele>
        <time>2020-07-21T10:02:48Z</time>
      </trkpt>
      <trkpt lat="42.6307110" lon="2.4246610">
        <ele>318.4</ele>
        <time>2020-07-21T10:02:49Z</time>
      </trkpt>
      <trkpt lat="42.6309450" lon="2.4249950">
        <ele>317.8</ele>
        <time>2020-07-21T10:02:54Z</time>
      </trkpt>
      <trkpt lat="42.6311470" lon="2.4252800">
        <ele>317.4</ele>
        <time>2020-07-21T10:02:58Z</time>
      </trkpt>
      <trkpt lat="42.6312000" lon="2.4253520">
        <ele>317.4</ele>
        <time>2020-07-21T10:02:59Z</time>
      </trkpt>
      <trkpt lat="42.6313520" lon="2.4255700">
        <ele>317.2</ele>
        <time>2020-07-21T10:03:02Z</time>
      </trkpt>
      <trkpt lat="42.6315510" lon="2.4258590">
        <ele>316.8</ele>
        <time>2020-07-21T10:03:06Z</time>
      </trkpt>
      <trkpt lat="42.6316560" lon="2.4260020">
        <ele>317.0</ele>
        <time>2020-07-21T10:03:08Z</time>
      </trkpt>
      <trkpt lat="42.6317120" lon="2.4260700">
        <ele>317.0</ele>
        <time>2020-07-21T10:03:09Z</time>
      </trkpt>
      <trkpt lat="42.6317710" lon="2.4261310">
        <ele>317.0</ele>
        <time>2020-07-21T10:03:10Z</time>
      </trkpt>
      <trkpt lat="42.6318340" lon="2.4261770">
        <ele>317.0</ele>
        <time>2020-07-21T10:03:11Z</time>
      </trkpt>
      <trkpt lat="42.6319030" lon="2.4262030">
        <ele>317.2</ele>
        <time>2020-07-21T10:03:12Z</time>
      </trkpt>
      <trkpt lat="42.6320420" lon="2.4261620">
        <ele>317.0</ele>
        <time>2020-07-21T10:03:14Z</time>
      </trkpt>
      <trkpt lat="42.6321500" lon="2.4260220">
        <ele>317.0</ele>
        <time>2020-07-21T10:03:16Z</time>
      </trkpt>
      <trkpt lat="42.6321910" lon="2.4259340">
        <ele>317.2</ele>
        <time>2020-07-21T10:03:17Z</time>
      </trkpt>
      <trkpt lat="42.6323610" lon="2.4253640">
        <ele>317.4</ele>
        <time>2020-07-21T10:03:23Z</time>
      </trkpt>
      <trkpt lat="42.6325160" lon="2.4248160">
        <ele>318.4</ele>
        <time>2020-07-21T10:03:29Z</time>
      </trkpt>
      <trkpt lat="42.6325380" lon="2.4247240">
        <ele>318.6</ele>
        <time>2020-07-21T10:03:30Z</time>
      </trkpt>
      <trkpt lat="42.6325690" lon="2.4245400">
        <ele>319.2</ele>
        <time>2020-07-21T10:03:32Z</time>
      </trkpt>
      <trkpt lat="42.6325530" lon="2.4243480">
        <ele>319.4</ele>
        <time>2020-07-21T10:03:34Z</time>
      </trkpt>
      <trkpt lat="42.6325290" lon="2.4242530">
        <ele>319.2</ele>
        <time>2020-07-21T10:03:35Z</time>
      </trkpt>
      <trkpt lat="42.6325010" lon="2.4241600">
        <ele>319.0</ele>
        <time>2020-07-21T10:03:36Z</time>
      </trkpt>
      <trkpt lat="42.6323860" lon="2.4237910">
        <ele>318.4</ele>
        <time>2020-07-21T10:03:40Z</time>
      </trkpt>
      <trkpt lat="42.6323580" lon="2.4236910">
        <ele>318.2</ele>
        <time>2020-07-21T10:03:41Z</time>
      </trkpt>
      <trkpt lat="42.6323350" lon="2.4235890">
        <ele>317.8</ele>
        <time>2020-07-21T10:03:42Z</time>
      </trkpt>
      <trkpt lat="42.6323130" lon="2.4234850">
        <ele>317.6</ele>
        <time>2020-07-21T10:03:43Z</time>
      </trkpt>
      <trkpt lat="42.6322570" lon="2.4230480">
        <ele>316.6</ele>
        <time>2020-07-21T10:03:47Z</time>
      </trkpt>
      <trkpt lat="42.6322550" lon="2.4229400">
        <ele>316.4</ele>
        <time>2020-07-21T10:03:48Z</time>
      </trkpt>
      <trkpt lat="42.6322370" lon="2.4225220">
        <ele>316.2</ele>
        <time>2020-07-21T10:03:52Z</time>
      </trkpt>
      <trkpt lat="42.6322530" lon="2.4223200">
        <ele>316.2</ele>
        <time>2020-07-21T10:03:54Z</time>
      </trkpt>
      <trkpt lat="42.6323250" lon="2.4221570">
        <ele>316.2</ele>
        <time>2020-07-21T10:03:56Z</time>
      </trkpt>
      <trkpt lat="42.6324390" lon="2.4220820">
        <ele>316.0</ele>
        <time>2020-07-21T10:03:58Z</time>
      </trkpt>
      <trkpt lat="42.6325130" lon="2.4220830">
        <ele>316.0</ele>
        <time>2020-07-21T10:03:59Z</time>
      </trkpt>
      <trkpt lat="42.6327840" lon="2.4220490">
        <ele>316.4</ele>
        <time>2020-07-21T10:04:03Z</time>
      </trkpt>
      <trkpt lat="42.6330260" lon="2.4219930">
        <ele>317.0</ele>
        <time>2020-07-21T10:04:07Z</time>
      </trkpt>
      <trkpt lat="42.6331780" lon="2.4219270">
        <ele>317.6</ele>
        <time>2020-07-21T10:04:10Z</time>
      </trkpt>
      <trkpt lat="42.6333050" lon="2.4218530">
        <ele>318.8</ele>
        <time>2020-07-21T10:04:13Z</time>
      </trkpt>
      <trkpt lat="42.6333930" lon="2.4218100">
        <ele>319.6</ele>
        <time>2020-07-21T10:04:15Z</time>
      </trkpt>
      <trkpt lat="42.6334340" lon="2.4217800">
        <ele>319.8</ele>
        <time>2020-07-21T10:04:16Z</time>
      </trkpt>
      <trkpt lat="42.6335120" lon="2.4217100">
        <ele>320.4</ele>
        <time>2020-07-21T10:04:18Z</time>
      </trkpt>
      <trkpt lat="42.6335420" lon="2.4216670">
        <ele>320.6</ele>
        <time>2020-07-21T10:04:19Z</time>
      </trkpt>
      <trkpt lat="42.6335690" lon="2.4216150">
        <ele>320.8</ele>
        <time>2020-07-21T10:04:20Z</time>
      </trkpt>
      <trkpt lat="42.6336180" lon="2.4215080">
        <ele>320.8</ele>
        <time>2020-07-21T10:04:22Z</time>
      </trkpt>
      <trkpt lat="42.6336370" lon="2.4214490">
        <ele>321.0</ele>
        <time>2020-07-21T10:04:23Z</time>
      </trkpt>
      <trkpt lat="42.6337460" lon="2.4211960">
        <ele>322.2</ele>
        <time>2020-07-21T10:04:28Z</time>
      </trkpt>
      <trkpt lat="42.6338030" lon="2.4211050">
        <ele>322.4</ele>
        <time>2020-07-21T10:04:30Z</time>
      </trkpt>
      <trkpt lat="42.6339440" lon="2.4208900">
        <ele>323.2</ele>
        <time>2020-07-21T10:04:35Z</time>
      </trkpt>
      <trkpt lat="42.6340560" lon="2.4207230">
        <ele>324.0</ele>
        <time>2020-07-21T10:04:39Z</time>
      </trkpt>
      <trkpt lat="42.6341060" lon="2.4206360">
        <ele>324.2</ele>
        <time>2020-07-21T10:04:41Z</time>
      </trkpt>
      <trkpt lat="42.6342230" lon="2.4204800">
        <ele>325.4</ele>
        <time>2020-07-21T10:04:45Z</time>
      </trkpt>
      <trkpt lat="42.6342780" lon="2.4204000">
        <ele>325.8</ele>
        <time>2020-07-21T10:04:47Z</time>
      </trkpt>
      <trkpt lat="42.6343510" lon="2.4202890">
        <ele>326.6</ele>
        <time>2020-07-21T10:04:50Z</time>
      </trkpt>
      <trkpt lat="42.6344100" lon="2.4201770">
        <ele>327.2</ele>
        <time>2020-07-21T10:04:53Z</time>
      </trkpt>
      <trkpt lat="42.6344640" lon="2.4200900">
        <ele>327.8</ele>
        <time>2020-07-21T10:04:56Z</time>
      </trkpt>
      <trkpt lat="42.6345120" lon="2.4200060">
        <ele>328.4</ele>
        <time>2020-07-21T10:04:59Z</time>
      </trkpt>
      <trkpt lat="42.6345130" lon="2.4199670">
        <ele>328.4</ele>
        <time>2020-07-21T10:05:00Z</time>
      </trkpt>
      <trkpt lat="42.6345320" lon="2.4198310">
        <ele>328.8</ele>
        <time>2020-07-21T10:05:03Z</time>
      </trkpt>
      <trkpt lat="42.6345280" lon="2.4197550">
        <ele>329.0</ele>
        <time>2020-07-21T10:05:06Z</time>
      </trkpt>
      <trkpt lat="42.6345180" lon="2.4197630">
        <ele>329.0</ele>
        <time>2020-07-21T10:05:07Z</time>
      </trkpt>
      <trkpt lat="42.6345090" lon="2.4198350">
        <ele>328.8</ele>
        <time>2020-07-21T10:05:09Z</time>
      </trkpt>
      <trkpt lat="42.6338440" lon="2.4219290">
        <ele>322.6</ele>
        <time>2020-07-21T10:33:40Z</time>
      </trkpt>
      <trkpt lat="42.6338250" lon="2.4218920">
        <ele>322.6</ele>
        <time>2020-07-21T10:33:41Z</time>
      </trkpt>
      <trkpt lat="42.6337860" lon="2.4217770">
        <ele>322.8</ele>
        <time>2020-07-21T10:33:44Z</time>
      </trkpt>
      <trkpt lat="42.6337510" lon="2.4216990">
        <ele>322.6</ele>
        <time>2020-07-21T10:33:46Z</time>
      </trkpt>
      <trkpt lat="42.6337310" lon="2.4216580">
        <ele>322.6</ele>
        <time>2020-07-21T10:33:47Z</time>
      </trkpt>
      <trkpt lat="42.6336750" lon="2.4214520">
        <ele>322.6</ele>
        <time>2020-07-21T10:33:52Z</time>
      </trkpt>
      <trkpt lat="42.6336660" lon="2.4214200">
        <ele>322.6</ele>
        <time>2020-07-21T10:33:53Z</time>
      </trkpt>
      <trkpt lat="42.6336820" lon="2.4213890">
        <ele>322.6</ele>
        <time>2020-07-21T10:33:54Z</time>
      </trkpt>
      <trkpt lat="42.6336870" lon="2.4213270">
        <ele>322.6</ele>
        <time>2020-07-21T10:33:56Z</time>
      </trkpt>
      <trkpt lat="42.6337020" lon="2.4212990">
        <ele>322.6</ele>
        <time>2020-07-21T10:33:57Z</time>
      </trkpt>
      <trkpt lat="42.6337550" lon="2.4212370">
        <ele>322.8</ele>
        <time>2020-07-21T10:33:59Z</time>
      </trkpt>
      <trkpt lat="42.6338210" lon="2.4211660">
        <ele>323.2</ele>
        <time>2020-07-21T10:34:01Z</time>
      </trkpt>
      <trkpt lat="42.6338830" lon="2.4210880">
        <ele>323.6</ele>
        <time>2020-07-21T10:34:03Z</time>
      </trkpt>
      <trkpt lat="42.6339420" lon="2.4210080">
        <ele>324.2</ele>
        <time>2020-07-21T10:34:05Z</time>
      </trkpt>
      <trkpt lat="42.6340290" lon="2.4208970">
        <ele>324.6</ele>
        <time>2020-07-21T10:34:08Z</time>
      </trkpt>
      <trkpt lat="42.6340570" lon="2.4208570">
        <ele>324.8</ele>
        <time>2020-07-21T10:34:09Z</time>
      </trkpt>
      <trkpt lat="42.6340850" lon="2.4208190">
        <ele>325.0</ele>
        <time>2020-07-21T10:34:10Z</time>
      </trkpt>
      <trkpt lat="42.6341420" lon="2.4207450">
        <ele>325.4</ele>
        <time>2020-07-21T10:34:12Z</time>
      </trkpt>
      <trkpt lat="42.6341570" lon="2.4206900">
        <ele>325.8</ele>
        <time>2020-07-21T10:34:13Z</time>
      </trkpt>
      <trkpt lat="42.6342410" lon="2.4205770">
        <ele>326.4</ele>
        <time>2020-07-21T10:34:16Z</time>
      </trkpt>
      <trkpt lat="42.6343460" lon="2.4204280">
        <ele>326.8</ele>
        <time>2020-07-21T10:34:20Z</time>
      </trkpt>
      <trkpt lat="42.6344090" lon="2.4203050">
        <ele>327.6</ele>
        <time>2020-07-21T10:34:23Z</time>
      </trkpt>
      <trkpt lat="42.6344300" lon="2.4202630">
        <ele>327.8</ele>
        <time>2020-07-21T10:34:24Z</time>
      </trkpt>
      <trkpt lat="42.6345260" lon="2.4200550">
        <ele>329.0</ele>
        <time>2020-07-21T10:34:29Z</time>
      </trkpt>
      <trkpt lat="42.6345370" lon="2.4199540">
        <ele>329.4</ele>
        <time>2020-07-21T10:34:31Z</time>
      </trkpt>
      <trkpt lat="42.6345620" lon="2.4197370">
        <ele>330.2</ele>
        <time>2020-07-21T10:34:35Z</time>
      </trkpt>
      <trkpt lat="42.6345790" lon="2.4196230">
        <ele>330.4</ele>
        <time>2020-07-21T10:34:37Z</time>
      </trkpt>
      <trkpt lat="42.6345960" lon="2.4193940">
        <ele>331.2</ele>
        <time>2020-07-21T10:34:41Z</time>
      </trkpt>
      <trkpt lat="42.6346270" lon="2.4191290">
        <ele>332.2</ele>
        <time>2020-07-21T10:34:46Z</time>
      </trkpt>
      <trkpt lat="42.6346330" lon="2.4190730">
        <ele>332.4</ele>
        <time>2020-07-21T10:34:47Z</time>
      </trkpt>
      <trkpt lat="42.6346670" lon="2.4187460">
        <ele>333.4</ele>
        <time>2020-07-21T10:34:53Z</time>
      </trkpt>
      <trkpt lat="42.6346860" lon="2.4185820">
        <ele>334.4</ele>
        <time>2020-07-21T10:34:56Z</time>
      </trkpt>
      <trkpt lat="42.6346930" lon="2.4185270">
        <ele>334.8</ele>
        <time>2020-07-21T10:34:57Z</time>
      </trkpt>
      <trkpt lat="42.6347240" lon="2.4182550">
        <ele>335.6</ele>
        <time>2020-07-21T10:35:02Z</time>
      </trkpt>
      <trkpt lat="42.6347400" lon="2.4180860">
        <ele>336.4</ele>
        <time>2020-07-21T10:35:05Z</time>
      </trkpt>
      <trkpt lat="42.6347470" lon="2.4180310">
        <ele>336.8</ele>
        <time>2020-07-21T10:35:06Z</time>
      </trkpt>
      <trkpt lat="42.6347760" lon="2.4177460">
        <ele>337.8</ele>
        <time>2020-07-21T10:35:11Z</time>
      </trkpt>
      <trkpt lat="42.6347950" lon="2.4176370">
        <ele>338.2</ele>
        <time>2020-07-21T10:35:13Z</time>
      </trkpt>
      <trkpt lat="42.6348240" lon="2.4174740">
        <ele>338.8</ele>
        <time>2020-07-21T10:35:16Z</time>
      </trkpt>
      <trkpt lat="42.6348860" lon="2.4171550">
        <ele>340.0</ele>
        <time>2020-07-21T10:35:22Z</time>
      </trkpt>
      <trkpt lat="42.6349340" lon="2.4169510">
        <ele>341.0</ele>
        <time>2020-07-21T10:35:26Z</time>
      </trkpt>
      <trkpt lat="42.6349980" lon="2.4168120">
        <ele>341.6</ele>
        <time>2020-07-21T10:35:29Z</time>
      </trkpt>
      <trkpt lat="42.6350770" lon="2.4166880">
        <ele>342.0</ele>
        <time>2020-07-21T10:35:32Z</time>
      </trkpt>
      <trkpt lat="42.6351610" lon="2.4165710">
        <ele>343.2</ele>
        <time>2020-07-21T10:35:35Z</time>
      </trkpt>
      <trkpt lat="42.6351910" lon="2.4165330">
        <ele>343.4</ele>
        <time>2020-07-21T10:35:36Z</time>
      </trkpt>
      <trkpt lat="42.6353410" lon="2.4163340">
        <ele>344.2</ele>
        <time>2020-07-21T10:35:41Z</time>
      </trkpt>
      <trkpt lat="42.6354960" lon="2.4161500">
        <ele>345.2</ele>
        <time>2020-07-21T10:35:46Z</time>
      </trkpt>
      <trkpt lat="42.6355330" lon="2.4161240">
        <ele>345.4</ele>
        <time>2020-07-21T10:35:47Z</time>
      </trkpt>
      <trkpt lat="42.6356100" lon="2.4160890">
        <ele>345.8</ele>
        <time>2020-07-21T10:35:49Z</time>
      </trkpt>
      <trkpt lat="42.6356890" lon="2.4160690">
        <ele>346.4</ele>
        <time>2020-07-21T10:35:51Z</time>
      </trkpt>
      <trkpt lat="42.6357290" lon="2.4160600">
        <ele>346.8</ele>
        <time>2020-07-21T10:35:52Z</time>
      </trkpt>
      <trkpt lat="42.6358460" lon="2.4160310">
        <ele>347.6</ele>
        <time>2020-07-21T10:35:55Z</time>
      </trkpt>
      <trkpt lat="42.6359990" lon="2.4159780">
        <ele>348.6</ele>
        <time>2020-07-21T10:35:59Z</time>
      </trkpt>
      <trkpt lat="42.6360360" lon="2.4159600">
        <ele>348.6</ele>
        <time>2020-07-21T10:36:00Z</time>
      </trkpt>
      <trkpt lat="42.6360720" lon="2.4159410">
        <ele>348.8</ele>
        <time>2020-07-21T10:36:01Z</time>
      </trkpt>
      <trkpt lat="42.6361060" lon="2.4159200">
        <ele>349.0</ele>
        <time>2020-07-21T10:36:02Z</time>
      </trkpt>
      <trkpt lat="42.6362120" lon="2.4158550">
        <ele>349.8</ele>
        <time>2020-07-21T10:36:05Z</time>
      </trkpt>
      <trkpt lat="42.6363170" lon="2.4157820">
        <ele>350.8</ele>
        <time>2020-07-21T10:36:08Z</time>
      </trkpt>
      <trkpt lat="42.6363900" lon="2.4157420">
        <ele>351.2</ele>
        <time>2020-07-21T10:36:10Z</time>
      </trkpt>
      <trkpt lat="42.6365300" lon="2.4156850">
        <ele>352.2</ele>
        <time>2020-07-21T10:36:14Z</time>
      </trkpt>
      <trkpt lat="42.6365900" lon="2.4156200">
        <ele>352.6</ele>
        <time>2020-07-21T10:36:16Z</time>
      </trkpt>
      <trkpt lat="42.6366710" lon="2.4154300">
        <ele>353.2</ele>
        <time>2020-07-21T10:36:20Z</time>
      </trkpt>
      <trkpt lat="42.6366880" lon="2.4153800">
        <ele>353.4</ele>
        <time>2020-07-21T10:36:21Z</time>
      </trkpt>
      <trkpt lat="42.6367840" lon="2.4151270">
        <ele>354.4</ele>
        <time>2020-07-21T10:36:26Z</time>
      </trkpt>
      <trkpt lat="42.6368320" lon="2.4150320">
        <ele>354.6</ele>
        <time>2020-07-21T10:36:28Z</time>
      </trkpt>
      <trkpt lat="42.6368980" lon="2.4149580">
        <ele>355.0</ele>
        <time>2020-07-21T10:36:30Z</time>
      </trkpt>
      <trkpt lat="42.6369690" lon="2.4148960">
        <ele>355.6</ele>
        <time>2020-07-21T10:36:32Z</time>
      </trkpt>
      <trkpt lat="42.6370410" lon="2.4148380">
        <ele>356.2</ele>
        <time>2020-07-21T10:36:34Z</time>
      </trkpt>
      <trkpt lat="42.6371140" lon="2.4147820">
        <ele>356.6</ele>
        <time>2020-07-21T10:36:36Z</time>
      </trkpt>
      <trkpt lat="42.6371510" lon="2.4147580">
        <ele>356.8</ele>
        <time>2020-07-21T10:36:37Z</time>
      </trkpt>
      <trkpt lat="42.6372260" lon="2.4147170">
        <ele>357.2</ele>
        <time>2020-07-21T10:36:39Z</time>
      </trkpt>
      <trkpt lat="42.6372640" lon="2.4147040">
        <ele>357.4</ele>
        <time>2020-07-21T10:36:40Z</time>
      </trkpt>
      <trkpt lat="42.6373030" lon="2.4146950">
        <ele>357.4</ele>
        <time>2020-07-21T10:36:41Z</time>
      </trkpt>
      <trkpt lat="42.6373420" lon="2.4146950">
        <ele>357.6</ele>
        <time>2020-07-21T10:36:42Z</time>
      </trkpt>
      <trkpt lat="42.6374220" lon="2.4147120">
        <ele>358.6</ele>
        <time>2020-07-21T10:36:44Z</time>
      </trkpt>
      <trkpt lat="42.6374620" lon="2.4147300">
        <ele>358.8</ele>
        <time>2020-07-21T10:36:45Z</time>
      </trkpt>
      <trkpt lat="42.6375980" lon="2.4148240">
        <ele>359.8</ele>
        <time>2020-07-21T10:36:49Z</time>
      </trkpt>
      <trkpt lat="42.6376320" lon="2.4148440">
        <ele>360.2</ele>
        <time>2020-07-21T10:36:50Z</time>
      </trkpt>
      <trkpt lat="42.6377770" lon="2.4148880">
        <ele>361.2</ele>
        <time>2020-07-21T10:36:54Z</time>
      </trkpt>
      <trkpt lat="42.6378170" lon="2.4148920">
        <ele>361.4</ele>
        <time>2020-07-21T10:36:55Z</time>
      </trkpt>
      <trkpt lat="42.6378950" lon="2.4148930">
        <ele>361.6</ele>
        <time>2020-07-21T10:36:57Z</time>
      </trkpt>
      <trkpt lat="42.6380590" lon="2.4148730">
        <ele>362.4</ele>
        <time>2020-07-21T10:37:01Z</time>
      </trkpt>
      <trkpt lat="42.6380990" lon="2.4148650">
        <ele>362.6</ele>
        <time>2020-07-21T10:37:02Z</time>
      </trkpt>
      <trkpt lat="42.6382230" lon="2.4148380">
        <ele>363.4</ele>
        <time>2020-07-21T10:37:05Z</time>
      </trkpt>
      <trkpt lat="42.6383880" lon="2.4147950">
        <ele>364.4</ele>
        <time>2020-07-21T10:37:09Z</time>
      </trkpt>
      <trkpt lat="42.6384290" lon="2.4147870">
        <ele>364.4</ele>
        <time>2020-07-21T10:37:10Z</time>
      </trkpt>
      <trkpt lat="42.6384680" lon="2.4147730">
        <ele>364.6</ele>
        <time>2020-07-21T10:37:11Z</time>
      </trkpt>
      <trkpt lat="42.6385470" lon="2.4147490">
        <ele>365.0</ele>
        <time>2020-07-21T10:37:13Z</time>
      </trkpt>
      <trkpt lat="42.6385850" lon="2.4147320">
        <ele>365.2</ele>
        <time>2020-07-21T10:37:14Z</time>
      </trkpt>
      <trkpt lat="42.6386250" lon="2.4147160">
        <ele>365.4</ele>
        <time>2020-07-21T10:37:15Z</time>
      </trkpt>
      <trkpt lat="42.6386620" lon="2.4147000">
        <ele>365.8</ele>
        <time>2020-07-21T10:37:16Z</time>
      </trkpt>
      <trkpt lat="42.6387000" lon="2.4146840">
        <ele>366.0</ele>
        <time>2020-07-21T10:37:17Z</time>
      </trkpt>
      <trkpt lat="42.6388490" lon="2.4146010">
        <ele>366.8</ele>
        <time>2020-07-21T10:37:21Z</time>
      </trkpt>
      <trkpt lat="42.6389650" lon="2.4145260">
        <ele>367.2</ele>
        <time>2020-07-21T10:37:24Z</time>
      </trkpt>
      <trkpt lat="42.6390430" lon="2.4144730">
        <ele>367.6</ele>
        <time>2020-07-21T10:37:26Z</time>
      </trkpt>
      <trkpt lat="42.6391170" lon="2.4144160">
        <ele>368.0</ele>
        <time>2020-07-21T10:37:28Z</time>
      </trkpt>
      <trkpt lat="42.6391880" lon="2.4143520">
        <ele>368.4</ele>
        <time>2020-07-21T10:37:30Z</time>
      </trkpt>
      <trkpt lat="42.6392520" lon="2.4142710">
        <ele>369.0</ele>
        <time>2020-07-21T10:37:32Z</time>
      </trkpt>
      <trkpt lat="42.6392820" lon="2.4142290">
        <ele>369.2</ele>
        <time>2020-07-21T10:37:33Z</time>
      </trkpt>
      <trkpt lat="42.6393910" lon="2.4140470">
        <ele>370.0</ele>
        <time>2020-07-21T10:37:37Z</time>
      </trkpt>
      <trkpt lat="42.6394170" lon="2.4140020">
        <ele>370.2</ele>
        <time>2020-07-21T10:37:38Z</time>
      </trkpt>
      <trkpt lat="42.6395220" lon="2.4138190">
        <ele>370.8</ele>
        <time>2020-07-21T10:37:42Z</time>
      </trkpt>
      <trkpt lat="42.6395450" lon="2.4137730">
        <ele>371.0</ele>
        <time>2020-07-21T10:37:43Z</time>
      </trkpt>
      <trkpt lat="42.6395870" lon="2.4136780">
        <ele>371.2</ele>
        <time>2020-07-21T10:37:45Z</time>
      </trkpt>
      <trkpt lat="42.6396430" lon="2.4134620">
        <ele>371.6</ele>
        <time>2020-07-21T10:37:49Z</time>
      </trkpt>
      <trkpt lat="42.6397540" lon="2.4132160">
        <ele>372.4</ele>
        <time>2020-07-21T10:37:54Z</time>
      </trkpt>
      <trkpt lat="42.6397780" lon="2.4131710">
        <ele>372.8</ele>
        <time>2020-07-21T10:37:55Z</time>
      </trkpt>
      <trkpt lat="42.6398220" lon="2.4130790">
        <ele>373.2</ele>
        <time>2020-07-21T10:37:57Z</time>
      </trkpt>
      <trkpt lat="42.6398680" lon="2.4129850">
        <ele>373.6</ele>
        <time>2020-07-21T10:37:59Z</time>
      </trkpt>
      <trkpt lat="42.6399270" lon="2.4128410">
        <ele>374.2</ele>
        <time>2020-07-21T10:38:02Z</time>
      </trkpt>
      <trkpt lat="42.6399390" lon="2.4127880">
        <ele>374.4</ele>
        <time>2020-07-21T10:38:03Z</time>
      </trkpt>
      <trkpt lat="42.6399460" lon="2.4127320">
        <ele>374.6</ele>
        <time>2020-07-21T10:38:04Z</time>
      </trkpt>
      <trkpt lat="42.6399470" lon="2.4126750">
        <ele>375.0</ele>
        <time>2020-07-21T10:38:05Z</time>
      </trkpt>
      <trkpt lat="42.6399480" lon="2.4124550">
        <ele>375.8</ele>
        <time>2020-07-21T10:38:09Z</time>
      </trkpt>
      <trkpt lat="42.6399500" lon="2.4124000">
        <ele>376.0</ele>
        <time>2020-07-21T10:38:10Z</time>
      </trkpt>
      <trkpt lat="42.6400030" lon="2.4122090">
        <ele>376.6</ele>
        <time>2020-07-21T10:38:14Z</time>
      </trkpt>
      <trkpt lat="42.6400710" lon="2.4120630">
        <ele>377.2</ele>
        <time>2020-07-21T10:38:17Z</time>
      </trkpt>
      <trkpt lat="42.6401840" lon="2.4117820">
        <ele>377.8</ele>
        <time>2020-07-21T10:38:22Z</time>
      </trkpt>
      <trkpt lat="42.6402000" lon="2.4117210">
        <ele>377.8</ele>
        <time>2020-07-21T10:38:23Z</time>
      </trkpt>
      <trkpt lat="42.6402110" lon="2.4115930">
        <ele>377.8</ele>
        <time>2020-07-21T10:38:25Z</time>
      </trkpt>
      <trkpt lat="42.6402050" lon="2.4115270">
        <ele>377.8</ele>
        <time>2020-07-21T10:38:26Z</time>
      </trkpt>
      <trkpt lat="42.6401910" lon="2.4114620">
        <ele>377.8</ele>
        <time>2020-07-21T10:38:27Z</time>
      </trkpt>
      <trkpt lat="42.6401340" lon="2.4113530">
        <ele>377.6</ele>
        <time>2020-07-21T10:38:29Z</time>
      </trkpt>
      <trkpt lat="42.6400490" lon="2.4112850">
        <ele>377.6</ele>
        <time>2020-07-21T10:38:31Z</time>
      </trkpt>
      <trkpt lat="42.6399530" lon="2.4112380">
        <ele>377.4</ele>
        <time>2020-07-21T10:38:33Z</time>
      </trkpt>
      <trkpt lat="42.6399050" lon="2.4112050">
        <ele>377.6</ele>
        <time>2020-07-21T10:38:34Z</time>
      </trkpt>
      <trkpt lat="42.6398220" lon="2.4111070">
        <ele>377.6</ele>
        <time>2020-07-21T10:38:36Z</time>
      </trkpt>
      <trkpt lat="42.6397860" lon="2.4110480">
        <ele>377.8</ele>
        <time>2020-07-21T10:38:37Z</time>
      </trkpt>
      <trkpt lat="42.6397540" lon="2.4109900">
        <ele>377.8</ele>
        <time>2020-07-21T10:38:38Z</time>
      </trkpt>
      <trkpt lat="42.6396200" lon="2.4107660">
        <ele>378.0</ele>
        <time>2020-07-21T10:38:42Z</time>
      </trkpt>
      <trkpt lat="42.6395810" lon="2.4107160">
        <ele>378.0</ele>
        <time>2020-07-21T10:38:43Z</time>
      </trkpt>
      <trkpt lat="42.6395380" lon="2.4106700">
        <ele>378.2</ele>
        <time>2020-07-21T10:38:44Z</time>
      </trkpt>
      <trkpt lat="42.6394920" lon="2.4106280">
        <ele>378.2</ele>
        <time>2020-07-21T10:38:45Z</time>
      </trkpt>
      <trkpt lat="42.6393440" lon="2.4105010">
        <ele>377.8</ele>
        <time>2020-07-21T10:38:48Z</time>
      </trkpt>
      <trkpt lat="42.6392930" lon="2.4104600">
        <ele>377.8</ele>
        <time>2020-07-21T10:38:49Z</time>
      </trkpt>
      <trkpt lat="42.6392420" lon="2.4104210">
        <ele>377.8</ele>
        <time>2020-07-21T10:38:50Z</time>
      </trkpt>
      <trkpt lat="42.6391380" lon="2.4103390">
        <ele>377.8</ele>
        <time>2020-07-21T10:38:52Z</time>
      </trkpt>
      <trkpt lat="42.6390310" lon="2.4102610">
        <ele>378.4</ele>
        <time>2020-07-21T10:38:54Z</time>
      </trkpt>
      <trkpt lat="42.6389770" lon="2.4102200">
        <ele>378.6</ele>
        <time>2020-07-21T10:38:55Z</time>
      </trkpt>
      <trkpt lat="42.6386620" lon="2.4099650">
        <ele>379.2</ele>
        <time>2020-07-21T10:39:01Z</time>
      </trkpt>
      <trkpt lat="42.6386070" lon="2.4099340">
        <ele>379.0</ele>
        <time>2020-07-21T10:39:02Z</time>
      </trkpt>
      <trkpt lat="42.6383700" lon="2.4098470">
        <ele>378.2</ele>
        <time>2020-07-21T10:39:06Z</time>
      </trkpt>
      <trkpt lat="42.6382500" lon="2.4098150">
        <ele>377.4</ele>
        <time>2020-07-21T10:39:08Z</time>
      </trkpt>
      <trkpt lat="42.6381300" lon="2.4097680">
        <ele>377.0</ele>
        <time>2020-07-21T10:39:10Z</time>
      </trkpt>
      <trkpt lat="42.6380290" lon="2.4096790">
        <ele>376.8</ele>
        <time>2020-07-21T10:39:12Z</time>
      </trkpt>
      <trkpt lat="42.6379090" lon="2.4094930">
        <ele>377.6</ele>
        <time>2020-07-21T10:39:15Z</time>
      </trkpt>
      <trkpt lat="42.6378720" lon="2.4094260">
        <ele>378.0</ele>
        <time>2020-07-21T10:39:16Z</time>
      </trkpt>
      <trkpt lat="42.6378360" lon="2.4093590">
        <ele>378.4</ele>
        <time>2020-07-21T10:39:17Z</time>
      </trkpt>
      <trkpt lat="42.6377710" lon="2.4092150">
        <ele>378.8</ele>
        <time>2020-07-21T10:39:19Z</time>
      </trkpt>
      <trkpt lat="42.6377070" lon="2.4089710">
        <ele>379.0</ele>
        <time>2020-07-21T10:39:22Z</time>
      </trkpt>
      <trkpt lat="42.6376910" lon="2.4087980">
        <ele>379.0</ele>
        <time>2020-07-21T10:39:24Z</time>
      </trkpt>
      <trkpt lat="42.6376960" lon="2.4086200">
        <ele>378.8</ele>
        <time>2020-07-21T10:39:26Z</time>
      </trkpt>
      <trkpt lat="42.6377030" lon="2.4085310">
        <ele>378.6</ele>
        <time>2020-07-21T10:39:27Z</time>
      </trkpt>
      <trkpt lat="42.6377650" lon="2.4081860">
        <ele>378.6</ele>
        <time>2020-07-21T10:39:31Z</time>
      </trkpt>
      <trkpt lat="42.6378000" lon="2.4080210">
        <ele>378.8</ele>
        <time>2020-07-21T10:39:33Z</time>
      </trkpt>
      <trkpt lat="42.6378120" lon="2.4079380">
        <ele>379.0</ele>
        <time>2020-07-21T10:39:34Z</time>
      </trkpt>
      <trkpt lat="42.6378160" lon="2.4078550">
        <ele>379.2</ele>
        <time>2020-07-21T10:39:35Z</time>
      </trkpt>
      <trkpt lat="42.6378140" lon="2.4077730">
        <ele>379.2</ele>
        <time>2020-07-21T10:39:36Z</time>
      </trkpt>
      <trkpt lat="42.6378160" lon="2.4076010">
        <ele>379.2</ele>
        <time>2020-07-21T10:39:38Z</time>
      </trkpt>
      <trkpt lat="42.6378480" lon="2.4074250">
        <ele>379.4</ele>
        <time>2020-07-21T10:39:40Z</time>
      </trkpt>
      <trkpt lat="42.6379700" lon="2.4070070">
        <ele>379.4</ele>
        <time>2020-07-21T10:39:45Z</time>
      </trkpt>
      <trkpt lat="42.6379870" lon="2.4069200">
        <ele>379.4</ele>
        <time>2020-07-21T10:39:46Z</time>
      </trkpt>
      <trkpt lat="42.6380400" lon="2.4067510">
        <ele>379.4</ele>
        <time>2020-07-21T10:39:48Z</time>
      </trkpt>
      <trkpt lat="42.6381390" lon="2.4066300">
        <ele>379.4</ele>
        <time>2020-07-21T10:39:50Z</time>
      </trkpt>
      <trkpt lat="42.6384040" lon="2.4065300">
        <ele>379.2</ele>
        <time>2020-07-21T10:39:54Z</time>
      </trkpt>
      <trkpt lat="42.6384690" lon="2.4064950">
        <ele>379.2</ele>
        <time>2020-07-21T10:39:55Z</time>
      </trkpt>
      <trkpt lat="42.6385840" lon="2.4063980">
        <ele>379.2</ele>
        <time>2020-07-21T10:39:57Z</time>
      </trkpt>
      <trkpt lat="42.6386280" lon="2.4063340">
        <ele>379.0</ele>
        <time>2020-07-21T10:39:58Z</time>
      </trkpt>
      <trkpt lat="42.6386660" lon="2.4062630">
        <ele>379.0</ele>
        <time>2020-07-21T10:39:59Z</time>
      </trkpt>
      <trkpt lat="42.6387350" lon="2.4060060">
        <ele>379.2</ele>
        <time>2020-07-21T10:40:02Z</time>
      </trkpt>
      <trkpt lat="42.6388190" lon="2.4054410">
        <ele>379.6</ele>
        <time>2020-07-21T10:40:08Z</time>
      </trkpt>
      <trkpt lat="42.6388490" lon="2.4052530">
        <ele>379.6</ele>
        <time>2020-07-21T10:40:10Z</time>
      </trkpt>
      <trkpt lat="42.6389070" lon="2.4049150">
        <ele>380.2</ele>
        <time>2020-07-21T10:40:14Z</time>
      </trkpt>
      <trkpt lat="42.6389300" lon="2.4047600">
        <ele>380.6</ele>
        <time>2020-07-21T10:40:16Z</time>
      </trkpt>
      <trkpt lat="42.6389630" lon="2.4045410">
        <ele>381.4</ele>
        <time>2020-07-21T10:40:19Z</time>
      </trkpt>
      <trkpt lat="42.6389930" lon="2.4043320">
        <ele>382.4</ele>
        <time>2020-07-21T10:40:22Z</time>
      </trkpt>
      <trkpt lat="42.6390200" lon="2.4041940">
        <ele>382.6</ele>
        <time>2020-07-21T10:40:24Z</time>
      </trkpt>
      <trkpt lat="42.6390420" lon="2.4041260">
        <ele>382.8</ele>
        <time>2020-07-21T10:40:25Z</time>
      </trkpt>
      <trkpt lat="42.6391140" lon="2.4040130">
        <ele>382.8</ele>
        <time>2020-07-21T10:40:27Z</time>
      </trkpt>
      <trkpt lat="42.6391590" lon="2.4039700">
        <ele>382.8</ele>
        <time>2020-07-21T10:40:28Z</time>
      </trkpt>
      <trkpt lat="42.6392080" lon="2.4039390">
        <ele>382.8</ele>
        <time>2020-07-21T10:40:29Z</time>
      </trkpt>
      <trkpt lat="42.6393170" lon="2.4039100">
        <ele>383.0</ele>
        <time>2020-07-21T10:40:31Z</time>
      </trkpt>
      <trkpt lat="42.6393740" lon="2.4039040">
        <ele>383.0</ele>
        <time>2020-07-21T10:40:32Z</time>
      </trkpt>
      <trkpt lat="42.6396130" lon="2.4039160">
        <ele>383.0</ele>
        <time>2020-07-21T10:40:36Z</time>
      </trkpt>
      <trkpt lat="42.6397390" lon="2.4039340">
        <ele>383.0</ele>
        <time>2020-07-21T10:40:38Z</time>
      </trkpt>
      <trkpt lat="42.6401380" lon="2.4040150">
        <ele>382.4</ele>
        <time>2020-07-21T10:40:44Z</time>
      </trkpt>
      <trkpt lat="42.6402650" lon="2.4040430">
        <ele>382.4</ele>
        <time>2020-07-21T10:40:46Z</time>
      </trkpt>
      <trkpt lat="42.6404290" lon="2.4040710">
        <ele>383.6</ele>
        <time>2020-07-21T10:40:49Z</time>
      </trkpt>
      <trkpt lat="42.6405130" lon="2.4040720">
        <ele>384.4</ele>
        <time>2020-07-21T10:40:51Z</time>
      </trkpt>
      <trkpt lat="42.6405510" lon="2.4040720">
        <ele>384.8</ele>
        <time>2020-07-21T10:40:52Z</time>
      </trkpt>
      <trkpt lat="42.6406540" lon="2.4040120">
        <ele>386.0</ele>
        <time>2020-07-21T10:40:55Z</time>
      </trkpt>
      <trkpt lat="42.6406810" lon="2.4039730">
        <ele>386.4</ele>
        <time>2020-07-21T10:40:56Z</time>
      </trkpt>
      <trkpt lat="42.6407050" lon="2.4038730">
        <ele>387.2</ele>
        <time>2020-07-21T10:40:58Z</time>
      </trkpt>
      <trkpt lat="42.6407130" lon="2.4037630">
        <ele>387.6</ele>
        <time>2020-07-21T10:41:00Z</time>
      </trkpt>
      <trkpt lat="42.6407160" lon="2.4035890">
        <ele>388.0</ele>
        <time>2020-07-21T10:41:03Z</time>
      </trkpt>
      <trkpt lat="42.6407180" lon="2.4035330">
        <ele>388.2</ele>
        <time>2020-07-21T10:41:04Z</time>
      </trkpt>
      <trkpt lat="42.6407270" lon="2.4033720">
        <ele>388.8</ele>
        <time>2020-07-21T10:41:07Z</time>
      </trkpt>
      <trkpt lat="42.6407360" lon="2.4032650">
        <ele>389.2</ele>
        <time>2020-07-21T10:41:09Z</time>
      </trkpt>
      <trkpt lat="42.6408130" lon="2.4030880">
        <ele>390.2</ele>
        <time>2020-07-21T10:41:13Z</time>
      </trkpt>
      <trkpt lat="42.6408450" lon="2.4030540">
        <ele>390.6</ele>
        <time>2020-07-21T10:41:14Z</time>
      </trkpt>
      <trkpt lat="42.6409930" lon="2.4029760">
        <ele>391.4</ele>
        <time>2020-07-21T10:41:18Z</time>
      </trkpt>
      <trkpt lat="42.6410730" lon="2.4029450">
        <ele>391.6</ele>
        <time>2020-07-21T10:41:20Z</time>
      </trkpt>
      <trkpt lat="42.6412130" lon="2.4028370">
        <ele>392.2</ele>
        <time>2020-07-21T10:41:24Z</time>
      </trkpt>
      <trkpt lat="42.6412620" lon="2.4026920">
        <ele>392.8</ele>
        <time>2020-07-21T10:41:27Z</time>
      </trkpt>
      <trkpt lat="42.6412620" lon="2.4026340">
        <ele>393.0</ele>
        <time>2020-07-21T10:41:28Z</time>
      </trkpt>
      <trkpt lat="42.6412400" lon="2.4025210">
        <ele>394.0</ele>
        <time>2020-07-21T10:41:30Z</time>
      </trkpt>
      <trkpt lat="42.6411980" lon="2.4024150">
        <ele>394.6</ele>
        <time>2020-07-21T10:41:32Z</time>
      </trkpt>
      <trkpt lat="42.6411470" lon="2.4023160">
        <ele>395.0</ele>
        <time>2020-07-21T10:41:34Z</time>
      </trkpt>
      <trkpt lat="42.6410170" lon="2.4020750">
        <ele>396.2</ele>
        <time>2020-07-21T10:41:39Z</time>
      </trkpt>
      <trkpt lat="42.6409950" lon="2.4020260">
        <ele>396.4</ele>
        <time>2020-07-21T10:41:40Z</time>
      </trkpt>
      <trkpt lat="42.6409430" lon="2.4018770">
        <ele>397.4</ele>
        <time>2020-07-21T10:41:43Z</time>
      </trkpt>
      <trkpt lat="42.6408690" lon="2.4016180">
        <ele>398.6</ele>
        <time>2020-07-21T10:41:48Z</time>
      </trkpt>
      <trkpt lat="42.6407880" lon="2.4013190">
        <ele>399.6</ele>
        <time>2020-07-21T10:41:54Z</time>
      </trkpt>
      <trkpt lat="42.6407770" lon="2.4012720">
        <ele>399.8</ele>
        <time>2020-07-21T10:41:55Z</time>
      </trkpt>
      <trkpt lat="42.6407520" lon="2.4010630">
        <ele>400.8</ele>
        <time>2020-07-21T10:41:59Z</time>
      </trkpt>
      <trkpt lat="42.6407340" lon="2.4009590">
        <ele>401.2</ele>
        <time>2020-07-21T10:42:01Z</time>
      </trkpt>
      <trkpt lat="42.6407170" lon="2.4007970">
        <ele>402.0</ele>
        <time>2020-07-21T10:42:04Z</time>
      </trkpt>
      <trkpt lat="42.6407270" lon="2.4006390">
        <ele>402.4</ele>
        <time>2020-07-21T10:42:07Z</time>
      </trkpt>
      <trkpt lat="42.6408260" lon="2.4004210">
        <ele>402.6</ele>
        <time>2020-07-21T10:42:12Z</time>
      </trkpt>
      <trkpt lat="42.6410000" lon="2.4002320">
        <ele>402.8</ele>
        <time>2020-07-21T10:42:18Z</time>
      </trkpt>
      <trkpt lat="42.6410280" lon="2.4001990">
        <ele>403.2</ele>
        <time>2020-07-21T10:42:19Z</time>
      </trkpt>
      <trkpt lat="42.6410820" lon="2.4001360">
        <ele>403.8</ele>
        <time>2020-07-21T10:42:21Z</time>
      </trkpt>
      <trkpt lat="42.6411340" lon="2.4000740">
        <ele>404.4</ele>
        <time>2020-07-21T10:42:23Z</time>
      </trkpt>
      <trkpt lat="42.6412790" lon="2.3999430">
        <ele>405.6</ele>
        <time>2020-07-21T10:42:28Z</time>
      </trkpt>
      <trkpt lat="42.6413360" lon="2.3998880">
        <ele>406.2</ele>
        <time>2020-07-21T10:42:30Z</time>
      </trkpt>
      <trkpt lat="42.6413920" lon="2.3998290">
        <ele>407.0</ele>
        <time>2020-07-21T10:42:32Z</time>
      </trkpt>
      <trkpt lat="42.6415040" lon="2.3997040">
        <ele>407.8</ele>
        <time>2020-07-21T10:42:36Z</time>
      </trkpt>
      <trkpt lat="42.6415570" lon="2.3996370">
        <ele>408.0</ele>
        <time>2020-07-21T10:42:38Z</time>
      </trkpt>
      <trkpt lat="42.6415840" lon="2.3996020">
        <ele>408.2</ele>
        <time>2020-07-21T10:42:39Z</time>
      </trkpt>
      <trkpt lat="42.6417510" lon="2.3994050">
        <ele>409.4</ele>
        <time>2020-07-21T10:42:45Z</time>
      </trkpt>
      <trkpt lat="42.6418070" lon="2.3993440">
        <ele>410.0</ele>
        <time>2020-07-21T10:42:47Z</time>
      </trkpt>
      <trkpt lat="42.6418960" lon="2.3992660">
        <ele>410.6</ele>
        <time>2020-07-21T10:42:50Z</time>
      </trkpt>
      <trkpt lat="42.6420700" lon="2.3991130">
        <ele>411.4</ele>
        <time>2020-07-21T10:42:56Z</time>
      </trkpt>
      <trkpt lat="42.6421010" lon="2.3990870">
        <ele>411.8</ele>
        <time>2020-07-21T10:42:57Z</time>
      </trkpt>
      <trkpt lat="42.6421650" lon="2.3990320">
        <ele>412.4</ele>
        <time>2020-07-21T10:42:59Z</time>
      </trkpt>
      <trkpt lat="42.6422260" lon="2.3989730">
        <ele>412.8</ele>
        <time>2020-07-21T10:43:01Z</time>
      </trkpt>
      <trkpt lat="42.6422930" lon="2.3989270">
        <ele>413.2</ele>
        <time>2020-07-21T10:43:03Z</time>
      </trkpt>
      <trkpt lat="42.6424020" lon="2.3988880">
        <ele>413.8</ele>
        <time>2020-07-21T10:43:06Z</time>
      </trkpt>
      <trkpt lat="42.6425130" lon="2.3988870">
        <ele>414.2</ele>
        <time>2020-07-21T10:43:09Z</time>
      </trkpt>
      <trkpt lat="42.6425800" lon="2.3988980">
        <ele>414.8</ele>
        <time>2020-07-21T10:43:11Z</time>
      </trkpt>
      <trkpt lat="42.6427180" lon="2.3989170">
        <ele>415.8</ele>
        <time>2020-07-21T10:43:15Z</time>
      </trkpt>
      <trkpt lat="42.6427530" lon="2.3989210">
        <ele>416.2</ele>
        <time>2020-07-21T10:43:16Z</time>
      </trkpt>
      <trkpt lat="42.6429020" lon="2.3989340">
        <ele>417.0</ele>
        <time>2020-07-21T10:43:20Z</time>
      </trkpt>
      <trkpt lat="42.6430420" lon="2.3989420">
        <ele>417.8</ele>
        <time>2020-07-21T10:43:24Z</time>
      </trkpt>
      <trkpt lat="42.6430790" lon="2.3989430">
        <ele>418.2</ele>
        <time>2020-07-21T10:43:25Z</time>
      </trkpt>
      <trkpt lat="42.6431540" lon="2.3989420">
        <ele>418.8</ele>
        <time>2020-07-21T10:43:27Z</time>
      </trkpt>
      <trkpt lat="42.6433420" lon="2.3988950">
        <ele>419.4</ele>
        <time>2020-07-21T10:43:32Z</time>
      </trkpt>
      <trkpt lat="42.6435500" lon="2.3987580">
        <ele>420.4</ele>
        <time>2020-07-21T10:43:38Z</time>
      </trkpt>
      <trkpt lat="42.6435790" lon="2.3987290">
        <ele>420.6</ele>
        <time>2020-07-21T10:43:39Z</time>
      </trkpt>
      <trkpt lat="42.6436790" lon="2.3985830">
        <ele>421.8</ele>
        <time>2020-07-21T10:43:43Z</time>
      </trkpt>
      <trkpt lat="42.6437500" lon="2.3984570">
        <ele>422.4</ele>
        <time>2020-07-21T10:43:46Z</time>
      </trkpt>
      <trkpt lat="42.6437870" lon="2.3983630">
        <ele>422.8</ele>
        <time>2020-07-21T10:43:48Z</time>
      </trkpt>
      <trkpt lat="42.6438560" lon="2.3981280">
        <ele>424.0</ele>
        <time>2020-07-21T10:43:53Z</time>
      </trkpt>
      <trkpt lat="42.6439090" lon="2.3978870">
        <ele>425.0</ele>
        <time>2020-07-21T10:43:58Z</time>
      </trkpt>
      <trkpt lat="42.6439160" lon="2.3978430">
        <ele>425.4</ele>
        <time>2020-07-21T10:43:59Z</time>
      </trkpt>
      <trkpt lat="42.6439660" lon="2.3976610">
        <ele>426.2</ele>
        <time>2020-07-21T10:44:03Z</time>
      </trkpt>
      <trkpt lat="42.6439770" lon="2.3976110">
        <ele>426.4</ele>
        <time>2020-07-21T10:44:04Z</time>
      </trkpt>
      <trkpt lat="42.6440080" lon="2.3974050">
        <ele>427.2</ele>
        <time>2020-07-21T10:44:08Z</time>
      </trkpt>
      <trkpt lat="42.6440380" lon="2.3972050">
        <ele>428.2</ele>
        <time>2020-07-21T10:44:12Z</time>
      </trkpt>
      <trkpt lat="42.6440440" lon="2.3971600">
        <ele>428.6</ele>
        <time>2020-07-21T10:44:13Z</time>
      </trkpt>
      <trkpt lat="42.6440490" lon="2.3970200">
        <ele>429.4</ele>
        <time>2020-07-21T10:44:16Z</time>
      </trkpt>
      <trkpt lat="42.6440540" lon="2.3968670">
        <ele>430.2</ele>
        <time>2020-07-21T10:44:19Z</time>
      </trkpt>
      <trkpt lat="42.6440520" lon="2.3967130">
        <ele>430.6</ele>
        <time>2020-07-21T10:44:22Z</time>
      </trkpt>
      <trkpt lat="42.6440510" lon="2.3965110">
        <ele>431.8</ele>
        <time>2020-07-21T10:44:26Z</time>
      </trkpt>
      <trkpt lat="42.6440490" lon="2.3963690">
        <ele>432.2</ele>
        <time>2020-07-21T10:44:29Z</time>
      </trkpt>
      <trkpt lat="42.6440480" lon="2.3963220">
        <ele>432.4</ele>
        <time>2020-07-21T10:44:30Z</time>
      </trkpt>
      <trkpt lat="42.6440520" lon="2.3962270">
        <ele>433.0</ele>
        <time>2020-07-21T10:44:32Z</time>
      </trkpt>
      <trkpt lat="42.6440360" lon="2.3959460">
        <ele>434.0</ele>
        <time>2020-07-21T10:44:38Z</time>
      </trkpt>
      <trkpt lat="42.6440280" lon="2.3959000">
        <ele>434.2</ele>
        <time>2020-07-21T10:44:39Z</time>
      </trkpt>
      <trkpt lat="42.6440040" lon="2.3957650">
        <ele>435.4</ele>
        <time>2020-07-21T10:44:42Z</time>
      </trkpt>
      <trkpt lat="42.6439560" lon="2.3955860">
        <ele>436.2</ele>
        <time>2020-07-21T10:44:46Z</time>
      </trkpt>
      <trkpt lat="42.6439420" lon="2.3955430">
        <ele>436.4</ele>
        <time>2020-07-21T10:44:47Z</time>
      </trkpt>
      <trkpt lat="42.6438680" lon="2.3952710">
        <ele>437.4</ele>
        <time>2020-07-21T10:44:53Z</time>
      </trkpt>
      <trkpt lat="42.6438540" lon="2.3952270">
        <ele>437.6</ele>
        <time>2020-07-21T10:44:54Z</time>
      </trkpt>
      <trkpt lat="42.6438410" lon="2.3951830">
        <ele>437.8</ele>
        <time>2020-07-21T10:44:55Z</time>
      </trkpt>
      <trkpt lat="42.6438010" lon="2.3950530">
        <ele>438.8</ele>
        <time>2020-07-21T10:44:58Z</time>
      </trkpt>
      <trkpt lat="42.6437540" lon="2.3948700">
        <ele>439.6</ele>
        <time>2020-07-21T10:45:02Z</time>
      </trkpt>
      <trkpt lat="42.6437400" lon="2.3948250">
        <ele>439.8</ele>
        <time>2020-07-21T10:45:03Z</time>
      </trkpt>
      <trkpt lat="42.6436980" lon="2.3946910">
        <ele>440.6</ele>
        <time>2020-07-21T10:45:06Z</time>
      </trkpt>
      <trkpt lat="42.6436870" lon="2.3946470">
        <ele>440.8</ele>
        <time>2020-07-21T10:45:07Z</time>
      </trkpt>
      <trkpt lat="42.6436320" lon="2.3944670">
        <ele>442.4</ele>
        <time>2020-07-21T10:45:11Z</time>
      </trkpt>
      <trkpt lat="42.6435890" lon="2.3943330">
        <ele>443.0</ele>
        <time>2020-07-21T10:45:14Z</time>
      </trkpt>
      <trkpt lat="42.6435530" lon="2.3942410">
        <ele>443.4</ele>
        <time>2020-07-21T10:45:16Z</time>
      </trkpt>
      <trkpt lat="42.6434890" lon="2.3941010">
        <ele>443.8</ele>
        <time>2020-07-21T10:45:19Z</time>
      </trkpt>
      <trkpt lat="42.6433890" lon="2.3938640">
        <ele>444.6</ele>
        <time>2020-07-21T10:45:24Z</time>
      </trkpt>
      <trkpt lat="42.6433500" lon="2.3937650">
        <ele>445.2</ele>
        <time>2020-07-21T10:45:26Z</time>
      </trkpt>
      <trkpt lat="42.6433090" lon="2.3936680">
        <ele>445.6</ele>
        <time>2020-07-21T10:45:28Z</time>
      </trkpt>
      <trkpt lat="42.6432500" lon="2.3935220">
        <ele>446.0</ele>
        <time>2020-07-21T10:45:31Z</time>
      </trkpt>
      <trkpt lat="42.6431690" lon="2.3933300">
        <ele>446.4</ele>
        <time>2020-07-21T10:45:35Z</time>
      </trkpt>
      <trkpt lat="42.6431330" lon="2.3932320">
        <ele>446.8</ele>
        <time>2020-07-21T10:45:37Z</time>
      </trkpt>
      <trkpt lat="42.6430790" lon="2.3930230">
        <ele>448.0</ele>
        <time>2020-07-21T10:45:41Z</time>
      </trkpt>
      <trkpt lat="42.6430460" lon="2.3928090">
        <ele>448.8</ele>
        <time>2020-07-21T10:45:45Z</time>
      </trkpt>
      <trkpt lat="42.6430440" lon="2.3927500">
        <ele>449.2</ele>
        <time>2020-07-21T10:45:46Z</time>
      </trkpt>
      <trkpt lat="42.6430500" lon="2.3925850">
        <ele>449.6</ele>
        <time>2020-07-21T10:45:49Z</time>
      </trkpt>
      <trkpt lat="42.6430590" lon="2.3925300">
        <ele>449.8</ele>
        <time>2020-07-21T10:45:50Z</time>
      </trkpt>
      <trkpt lat="42.6431040" lon="2.3923860">
        <ele>450.2</ele>
        <time>2020-07-21T10:45:53Z</time>
      </trkpt>
      <trkpt lat="42.6431710" lon="2.3921940">
        <ele>451.6</ele>
        <time>2020-07-21T10:45:57Z</time>
      </trkpt>
      <trkpt lat="42.6432390" lon="2.3919890">
        <ele>452.8</ele>
        <time>2020-07-21T10:46:01Z</time>
      </trkpt>
      <trkpt lat="42.6432710" lon="2.3918840">
        <ele>453.2</ele>
        <time>2020-07-21T10:46:03Z</time>
      </trkpt>
      <trkpt lat="42.6433040" lon="2.3917820">
        <ele>453.4</ele>
        <time>2020-07-21T10:46:05Z</time>
      </trkpt>
      <trkpt lat="42.6433890" lon="2.3915350">
        <ele>453.8</ele>
        <time>2020-07-21T10:46:10Z</time>
      </trkpt>
      <trkpt lat="42.6434380" lon="2.3913850">
        <ele>454.4</ele>
        <time>2020-07-21T10:46:13Z</time>
      </trkpt>
      <trkpt lat="42.6434580" lon="2.3912800">
        <ele>455.0</ele>
        <time>2020-07-21T10:46:15Z</time>
      </trkpt>
      <trkpt lat="42.6434890" lon="2.3910120">
        <ele>456.2</ele>
        <time>2020-07-21T10:46:20Z</time>
      </trkpt>
      <trkpt lat="42.6435090" lon="2.3906870">
        <ele>457.2</ele>
        <time>2020-07-21T10:46:26Z</time>
      </trkpt>
      <trkpt lat="42.6435130" lon="2.3906340">
        <ele>457.2</ele>
        <time>2020-07-21T10:46:27Z</time>
      </trkpt>
      <trkpt lat="42.6435170" lon="2.3905810">
        <ele>457.4</ele>
        <time>2020-07-21T10:46:28Z</time>
      </trkpt>
      <trkpt lat="42.6435280" lon="2.3903790">
        <ele>458.6</ele>
        <time>2020-07-21T10:46:32Z</time>
      </trkpt>
      <trkpt lat="42.6435270" lon="2.3902230">
        <ele>459.2</ele>
        <time>2020-07-21T10:46:35Z</time>
      </trkpt>
      <trkpt lat="42.6435140" lon="2.3900080">
        <ele>459.8</ele>
        <time>2020-07-21T10:46:39Z</time>
      </trkpt>
      <trkpt lat="42.6434830" lon="2.3898540">
        <ele>460.4</ele>
        <time>2020-07-21T10:46:42Z</time>
      </trkpt>
      <trkpt lat="42.6434500" lon="2.3897580">
        <ele>460.8</ele>
        <time>2020-07-21T10:46:44Z</time>
      </trkpt>
      <trkpt lat="42.6433610" lon="2.3894540">
        <ele>461.6</ele>
        <time>2020-07-21T10:46:50Z</time>
      </trkpt>
      <trkpt lat="42.6433480" lon="2.3894030">
        <ele>461.8</ele>
        <time>2020-07-21T10:46:51Z</time>
      </trkpt>
      <trkpt lat="42.6433040" lon="2.3891510">
        <ele>462.8</ele>
        <time>2020-07-21T10:46:56Z</time>
      </trkpt>
      <trkpt lat="42.6433040" lon="2.3890970">
        <ele>463.4</ele>
        <time>2020-07-21T10:46:57Z</time>
      </trkpt>
      <trkpt lat="42.6433040" lon="2.3889860">
        <ele>464.2</ele>
        <time>2020-07-21T10:46:59Z</time>
      </trkpt>
      <trkpt lat="42.6433170" lon="2.3888320">
        <ele>464.6</ele>
        <time>2020-07-21T10:47:02Z</time>
      </trkpt>
      <trkpt lat="42.6433400" lon="2.3886930">
        <ele>465.2</ele>
        <time>2020-07-21T10:47:05Z</time>
      </trkpt>
      <trkpt lat="42.6433830" lon="2.3885650">
        <ele>466.0</ele>
        <time>2020-07-21T10:47:08Z</time>
      </trkpt>
      <trkpt lat="42.6434140" lon="2.3884810">
        <ele>466.4</ele>
        <time>2020-07-21T10:47:10Z</time>
      </trkpt>
      <trkpt lat="42.6435280" lon="2.3883060">
        <ele>467.2</ele>
        <time>2020-07-21T10:47:15Z</time>
      </trkpt>
      <trkpt lat="42.6435580" lon="2.3882770">
        <ele>467.4</ele>
        <time>2020-07-21T10:47:16Z</time>
      </trkpt>
      <trkpt lat="42.6436930" lon="2.3881850">
        <ele>468.8</ele>
        <time>2020-07-21T10:47:20Z</time>
      </trkpt>
      <trkpt lat="42.6437270" lon="2.3881690">
        <ele>469.0</ele>
        <time>2020-07-21T10:47:21Z</time>
      </trkpt>
      <trkpt lat="42.6438650" lon="2.3881290">
        <ele>470.0</ele>
        <time>2020-07-21T10:47:25Z</time>
      </trkpt>
      <trkpt lat="42.6439770" lon="2.3881530">
        <ele>470.8</ele>
        <time>2020-07-21T10:47:28Z</time>
      </trkpt>
      <trkpt lat="42.6440140" lon="2.3881710">
        <ele>471.0</ele>
        <time>2020-07-21T10:47:29Z</time>
      </trkpt>
      <trkpt lat="42.6441770" lon="2.3882750">
        <ele>472.2</ele>
        <time>2020-07-21T10:47:34Z</time>
      </trkpt>
      <trkpt lat="42.6442080" lon="2.3882970">
        <ele>472.6</ele>
        <time>2020-07-21T10:47:35Z</time>
      </trkpt>
      <trkpt lat="42.6443570" lon="2.3884120">
        <ele>473.2</ele>
        <time>2020-07-21T10:47:41Z</time>
      </trkpt>
      <trkpt lat="42.6443750" lon="2.3884260">
        <ele>473.4</ele>
        <time>2020-07-21T10:47:43Z</time>
      </trkpt>
      <trkpt lat="42.6444020" lon="2.3884420">
        <ele>473.6</ele>
        <time>2020-07-21T10:47:46Z</time>
      </trkpt>
      <trkpt lat="42.6445550" lon="2.3884680">
        <ele>474.2</ele>
        <time>2020-07-21T10:47:52Z</time>
      </trkpt>
      <trkpt lat="42.6446630" lon="2.3884830">
        <ele>474.4</ele>
        <time>2020-07-21T10:47:55Z</time>
      </trkpt>
      <trkpt lat="42.6448080" lon="2.3884840">
        <ele>475.6</ele>
        <time>2020-07-21T10:47:59Z</time>
      </trkpt>
      <trkpt lat="42.6448430" lon="2.3884670">
        <ele>475.8</ele>
        <time>2020-07-21T10:48:00Z</time>
      </trkpt>
      <trkpt lat="42.6448830" lon="2.3884560">
        <ele>476.0</ele>
        <time>2020-07-21T10:48:01Z</time>
      </trkpt>
      <trkpt lat="42.6450040" lon="2.3884200">
        <ele>476.6</ele>
        <time>2020-07-21T10:48:04Z</time>
      </trkpt>
      <trkpt lat="42.6451090" lon="2.3883560">
        <ele>477.0</ele>
        <time>2020-07-21T10:48:07Z</time>
      </trkpt>
      <trkpt lat="42.6452590" lon="2.3881650">
        <ele>477.6</ele>
        <time>2020-07-21T10:48:13Z</time>
      </trkpt>
      <trkpt lat="42.6452810" lon="2.3881320">
        <ele>477.8</ele>
        <time>2020-07-21T10:48:14Z</time>
      </trkpt>
      <trkpt lat="42.6453400" lon="2.3880050">
        <ele>478.8</ele>
        <time>2020-07-21T10:48:17Z</time>
      </trkpt>
      <trkpt lat="42.6453990" lon="2.3879800">
        <ele>479.4</ele>
        <time>2020-07-21T10:48:19Z</time>
      </trkpt>
      <trkpt lat="42.6454570" lon="2.3879810">
        <ele>480.0</ele>
        <time>2020-07-21T10:48:21Z</time>
      </trkpt>
      <trkpt lat="42.6455420" lon="2.3880420">
        <ele>480.8</ele>
        <time>2020-07-21T10:48:24Z</time>
      </trkpt>
      <trkpt lat="42.6455850" lon="2.3881070">
        <ele>481.2</ele>
        <time>2020-07-21T10:48:26Z</time>
      </trkpt>
      <trkpt lat="42.6456580" lon="2.3882020">
        <ele>481.6</ele>
        <time>2020-07-21T10:48:29Z</time>
      </trkpt>
      <trkpt lat="42.6456830" lon="2.3882280">
        <ele>481.6</ele>
        <time>2020-07-21T10:48:30Z</time>
      </trkpt>
      <trkpt lat="42.6457690" lon="2.3882830">
        <ele>482.2</ele>
        <time>2020-07-21T10:48:33Z</time>
      </trkpt>
      <trkpt lat="42.6458700" lon="2.3883180">
        <ele>482.8</ele>
        <time>2020-07-21T10:48:36Z</time>
      </trkpt>
      <trkpt lat="42.6459360" lon="2.3883280">
        <ele>483.0</ele>
        <time>2020-07-21T10:48:38Z</time>
      </trkpt>
      <trkpt lat="42.6460060" lon="2.3883210">
        <ele>483.6</ele>
        <time>2020-07-21T10:48:40Z</time>
      </trkpt>
      <trkpt lat="42.6460700" lon="2.3882980">
        <ele>484.2</ele>
        <time>2020-07-21T10:48:42Z</time>
      </trkpt>
      <trkpt lat="42.6462190" lon="2.3881880">
        <ele>484.4</ele>
        <time>2020-07-21T10:48:47Z</time>
      </trkpt>
      <trkpt lat="42.6462490" lon="2.3881590">
        <ele>484.6</ele>
        <time>2020-07-21T10:48:48Z</time>
      </trkpt>
      <trkpt lat="42.6462780" lon="2.3881250">
        <ele>484.6</ele>
        <time>2020-07-21T10:48:49Z</time>
      </trkpt>
      <trkpt lat="42.6463900" lon="2.3879530">
        <ele>485.4</ele>
        <time>2020-07-21T10:48:54Z</time>
      </trkpt>
      <trkpt lat="42.6464280" lon="2.3878870">
        <ele>485.8</ele>
        <time>2020-07-21T10:48:56Z</time>
      </trkpt>
      <trkpt lat="42.6465010" lon="2.3877590">
        <ele>487.0</ele>
        <time>2020-07-21T10:49:00Z</time>
      </trkpt>
      <trkpt lat="42.6465370" lon="2.3876920">
        <ele>487.8</ele>
        <time>2020-07-21T10:49:02Z</time>
      </trkpt>
      <trkpt lat="42.6465720" lon="2.3876250">
        <ele>488.0</ele>
        <time>2020-07-21T10:49:04Z</time>
      </trkpt>
      <trkpt lat="42.6466370" lon="2.3875390">
        <ele>488.4</ele>
        <time>2020-07-21T10:49:07Z</time>
      </trkpt>
      <trkpt lat="42.6466850" lon="2.3874970">
        <ele>488.6</ele>
        <time>2020-07-21T10:49:09Z</time>
      </trkpt>
      <trkpt lat="42.6467110" lon="2.3874800">
        <ele>489.0</ele>
        <time>2020-07-21T10:49:10Z</time>
      </trkpt>
      <trkpt lat="42.6467380" lon="2.3874660">
        <ele>489.4</ele>
        <time>2020-07-21T10:49:11Z</time>
      </trkpt>
      <trkpt lat="42.6468770" lon="2.3873920">
        <ele>490.4</ele>
        <time>2020-07-21T10:49:16Z</time>
      </trkpt>
      <trkpt lat="42.6469040" lon="2.3873730">
        <ele>490.4</ele>
        <time>2020-07-21T10:49:17Z</time>
      </trkpt>
      <trkpt lat="42.6470120" lon="2.3872870">
        <ele>491.4</ele>
        <time>2020-07-21T10:49:23Z</time>
      </trkpt>
      <trkpt lat="42.6470220" lon="2.3872830">
        <ele>491.4</ele>
        <time>2020-07-21T10:49:24Z</time>
      </trkpt>
      <trkpt lat="42.6470270" lon="2.3872120">
        <ele>491.8</ele>
        <time>2020-07-21T10:49:29Z</time>
      </trkpt>
      <trkpt lat="42.6470270" lon="2.3871850">
        <ele>491.8</ele>
        <time>2020-07-21T10:49:30Z</time>
      </trkpt>
      <trkpt lat="42.6470380" lon="2.3870730">
        <ele>491.8</ele>
        <time>2020-07-21T10:49:33Z</time>
      </trkpt>
      <trkpt lat="42.6471520" lon="2.3868710">
        <ele>492.2</ele>
        <time>2020-07-21T10:49:38Z</time>
      </trkpt>
      <trkpt lat="42.6472140" lon="2.3868160">
        <ele>492.6</ele>
        <time>2020-07-21T10:49:40Z</time>
      </trkpt>
      <trkpt lat="42.6473100" lon="2.3866840">
        <ele>493.4</ele>
        <time>2020-07-21T10:49:44Z</time>
      </trkpt>
      <trkpt lat="42.6473480" lon="2.3866010">
        <ele>493.6</ele>
        <time>2020-07-21T10:49:46Z</time>
      </trkpt>
      <trkpt lat="42.6473790" lon="2.3864740">
        <ele>494.6</ele>
        <time>2020-07-21T10:49:49Z</time>
      </trkpt>
      <trkpt lat="42.6473770" lon="2.3864280">
        <ele>494.8</ele>
        <time>2020-07-21T10:49:50Z</time>
      </trkpt>
      <trkpt lat="42.6473310" lon="2.3863060">
        <ele>495.2</ele>
        <time>2020-07-21T10:49:53Z</time>
      </trkpt>
      <trkpt lat="42.6472280" lon="2.3862080">
        <ele>495.8</ele>
        <time>2020-07-21T10:49:57Z</time>
      </trkpt>
      <trkpt lat="42.6471950" lon="2.3861980">
        <ele>496.0</ele>
        <time>2020-07-21T10:49:58Z</time>
      </trkpt>
      <trkpt lat="42.6470400" lon="2.3861730">
        <ele>497.0</ele>
        <time>2020-07-21T10:50:03Z</time>
      </trkpt>
      <trkpt lat="42.6469810" lon="2.3861640">
        <ele>497.6</ele>
        <time>2020-07-21T10:50:05Z</time>
      </trkpt>
      <trkpt lat="42.6467900" lon="2.3860920">
        <ele>498.0</ele>
        <time>2020-07-21T10:50:11Z</time>
      </trkpt>
      <trkpt lat="42.6467300" lon="2.3860620">
        <ele>498.4</ele>
        <time>2020-07-21T10:50:13Z</time>
      </trkpt>
      <trkpt lat="42.6466230" lon="2.3859680">
        <ele>499.2</ele>
        <time>2020-07-21T10:50:17Z</time>
      </trkpt>
      <trkpt lat="42.6465560" lon="2.3858810">
        <ele>500.0</ele>
        <time>2020-07-21T10:50:20Z</time>
      </trkpt>
      <trkpt lat="42.6465120" lon="2.3858200">
        <ele>500.4</ele>
        <time>2020-07-21T10:50:22Z</time>
      </trkpt>
      <trkpt lat="42.6464530" lon="2.3856860">
        <ele>501.4</ele>
        <time>2020-07-21T10:50:26Z</time>
      </trkpt>
      <trkpt lat="42.6464460" lon="2.3856520">
        <ele>501.6</ele>
        <time>2020-07-21T10:50:27Z</time>
      </trkpt>
      <trkpt lat="42.6464550" lon="2.3855340">
        <ele>502.6</ele>
        <time>2020-07-21T10:50:30Z</time>
      </trkpt>
      <trkpt lat="42.6464650" lon="2.3854670">
        <ele>503.4</ele>
        <time>2020-07-21T10:50:32Z</time>
      </trkpt>
      <trkpt lat="42.6464740" lon="2.3853890">
        <ele>504.0</ele>
        <time>2020-07-21T10:50:34Z</time>
      </trkpt>
      <trkpt lat="42.6464510" lon="2.3852280">
        <ele>505.0</ele>
        <time>2020-07-21T10:50:38Z</time>
      </trkpt>
      <trkpt lat="42.6463590" lon="2.3850350">
        <ele>506.0</ele>
        <time>2020-07-21T10:50:43Z</time>
      </trkpt>
      <trkpt lat="42.6463440" lon="2.3849920">
        <ele>506.0</ele>
        <time>2020-07-21T10:50:44Z</time>
      </trkpt>
      <trkpt lat="42.6463290" lon="2.3849480">
        <ele>506.2</ele>
        <time>2020-07-21T10:50:45Z</time>
      </trkpt>
      <trkpt lat="42.6462780" lon="2.3847840">
        <ele>507.2</ele>
        <time>2020-07-21T10:50:49Z</time>
      </trkpt>
      <trkpt lat="42.6462320" lon="2.3846250">
        <ele>508.0</ele>
        <time>2020-07-21T10:50:53Z</time>
      </trkpt>
      <trkpt lat="42.6462180" lon="2.3845870">
        <ele>508.2</ele>
        <time>2020-07-21T10:50:54Z</time>
      </trkpt>
      <trkpt lat="42.6461030" lon="2.3843910">
        <ele>509.4</ele>
        <time>2020-07-21T10:51:00Z</time>
      </trkpt>
      <trkpt lat="42.6460800" lon="2.3843660">
        <ele>509.6</ele>
        <time>2020-07-21T10:51:01Z</time>
      </trkpt>
      <trkpt lat="42.6460490" lon="2.3842410">
        <ele>510.4</ele>
        <time>2020-07-21T10:51:04Z</time>
      </trkpt>
      <trkpt lat="42.6460540" lon="2.3842020">
        <ele>510.6</ele>
        <time>2020-07-21T10:51:05Z</time>
      </trkpt>
      <trkpt lat="42.6460700" lon="2.3841690">
        <ele>511.0</ele>
        <time>2020-07-21T10:51:06Z</time>
      </trkpt>
      <trkpt lat="42.6461150" lon="2.3841160">
        <ele>511.8</ele>
        <time>2020-07-21T10:51:08Z</time>
      </trkpt>
      <trkpt lat="42.6461400" lon="2.3840940">
        <ele>512.0</ele>
        <time>2020-07-21T10:51:09Z</time>
      </trkpt>
      <trkpt lat="42.6462530" lon="2.3840370">
        <ele>512.8</ele>
        <time>2020-07-21T10:51:13Z</time>
      </trkpt>
      <trkpt lat="42.6463120" lon="2.3840170">
        <ele>513.2</ele>
        <time>2020-07-21T10:51:15Z</time>
      </trkpt>
      <trkpt lat="42.6463390" lon="2.3840100">
        <ele>513.4</ele>
        <time>2020-07-21T10:51:16Z</time>
      </trkpt>
      <trkpt lat="42.6464270" lon="2.3840050">
        <ele>514.0</ele>
        <time>2020-07-21T10:51:19Z</time>
      </trkpt>
      <trkpt lat="42.6465090" lon="2.3839670">
        <ele>514.8</ele>
        <time>2020-07-21T10:51:22Z</time>
      </trkpt>
      <trkpt lat="42.6465340" lon="2.3839420">
        <ele>515.0</ele>
        <time>2020-07-21T10:51:23Z</time>
      </trkpt>
      <trkpt lat="42.6466780" lon="2.3837690">
        <ele>516.0</ele>
        <time>2020-07-21T10:51:29Z</time>
      </trkpt>
      <trkpt lat="42.6467030" lon="2.3837410">
        <ele>516.2</ele>
        <time>2020-07-21T10:51:30Z</time>
      </trkpt>
      <trkpt lat="42.6468640" lon="2.3836050">
        <ele>517.0</ele>
        <time>2020-07-21T10:51:36Z</time>
      </trkpt>
      <trkpt lat="42.6468920" lon="2.3835880">
        <ele>517.4</ele>
        <time>2020-07-21T10:51:37Z</time>
      </trkpt>
      <trkpt lat="42.6469200" lon="2.3835710">
        <ele>517.6</ele>
        <time>2020-07-21T10:51:38Z</time>
      </trkpt>
      <trkpt lat="42.6470690" lon="2.3834890">
        <ele>518.4</ele>
        <time>2020-07-21T10:51:43Z</time>
      </trkpt>
      <trkpt lat="42.6472420" lon="2.3833940">
        <ele>519.6</ele>
        <time>2020-07-21T10:51:49Z</time>
      </trkpt>
      <trkpt lat="42.6473890" lon="2.3833160">
        <ele>520.6</ele>
        <time>2020-07-21T10:51:54Z</time>
      </trkpt>
      <trkpt lat="42.6474710" lon="2.3832630">
        <ele>521.2</ele>
        <time>2020-07-21T10:51:57Z</time>
      </trkpt>
      <trkpt lat="42.6474990" lon="2.3832430">
        <ele>521.6</ele>
        <time>2020-07-21T10:51:58Z</time>
      </trkpt>
      <trkpt lat="42.6476560" lon="2.3831000">
        <ele>522.8</ele>
        <time>2020-07-21T10:52:04Z</time>
      </trkpt>
      <trkpt lat="42.6476790" lon="2.3830710">
        <ele>523.0</ele>
        <time>2020-07-21T10:52:05Z</time>
      </trkpt>
      <trkpt lat="42.6477620" lon="2.3829470">
        <ele>523.8</ele>
        <time>2020-07-21T10:52:09Z</time>
      </trkpt>
      <trkpt lat="42.6478050" lon="2.3828420">
        <ele>524.2</ele>
        <time>2020-07-21T10:52:12Z</time>
      </trkpt>
      <trkpt lat="42.6478610" lon="2.3826330">
        <ele>525.0</ele>
        <time>2020-07-21T10:52:17Z</time>
      </trkpt>
      <trkpt lat="42.6478760" lon="2.3825460">
        <ele>525.2</ele>
        <time>2020-07-21T10:52:19Z</time>
      </trkpt>
      <trkpt lat="42.6478900" lon="2.3823740">
        <ele>526.0</ele>
        <time>2020-07-21T10:52:23Z</time>
      </trkpt>
      <trkpt lat="42.6479180" lon="2.3822510">
        <ele>526.8</ele>
        <time>2020-07-21T10:52:26Z</time>
      </trkpt>
      <trkpt lat="42.6479300" lon="2.3822090">
        <ele>527.0</ele>
        <time>2020-07-21T10:52:27Z</time>
      </trkpt>
      <trkpt lat="42.6480170" lon="2.3820600">
        <ele>527.2</ele>
        <time>2020-07-21T10:52:31Z</time>
      </trkpt>
      <trkpt lat="42.6481820" lon="2.3819300">
        <ele>527.6</ele>
        <time>2020-07-21T10:52:36Z</time>
      </trkpt>
      <trkpt lat="42.6482560" lon="2.3819040">
        <ele>528.4</ele>
        <time>2020-07-21T10:52:38Z</time>
      </trkpt>
      <trkpt lat="42.6483970" lon="2.3819220">
        <ele>529.2</ele>
        <time>2020-07-21T10:52:42Z</time>
      </trkpt>
      <trkpt lat="42.6484670" lon="2.3819480">
        <ele>529.4</ele>
        <time>2020-07-21T10:52:44Z</time>
      </trkpt>
      <trkpt lat="42.6485030" lon="2.3819510">
        <ele>529.4</ele>
        <time>2020-07-21T10:52:45Z</time>
      </trkpt>
      <trkpt lat="42.6486250" lon="2.3819330">
        <ele>529.6</ele>
        <time>2020-07-21T10:52:48Z</time>
      </trkpt>
      <trkpt lat="42.6487510" lon="2.3818840">
        <ele>529.8</ele>
        <time>2020-07-21T10:52:51Z</time>
      </trkpt>
      <trkpt lat="42.6488230" lon="2.3818250">
        <ele>530.0</ele>
        <time>2020-07-21T10:52:53Z</time>
      </trkpt>
      <trkpt lat="42.6488580" lon="2.3817840">
        <ele>530.0</ele>
        <time>2020-07-21T10:52:54Z</time>
      </trkpt>
      <trkpt lat="42.6490620" lon="2.3814930">
        <ele>529.6</ele>
        <time>2020-07-21T10:53:00Z</time>
      </trkpt>
      <trkpt lat="42.6491610" lon="2.3814310">
        <ele>529.2</ele>
        <time>2020-07-21T10:53:02Z</time>
      </trkpt>
      <trkpt lat="42.6492690" lon="2.3813950">
        <ele>529.0</ele>
        <time>2020-07-21T10:53:04Z</time>
      </trkpt>
      <trkpt lat="42.6494760" lon="2.3813320">
        <ele>529.0</ele>
        <time>2020-07-21T10:53:08Z</time>
      </trkpt>
      <trkpt lat="42.6495790" lon="2.3812510">
        <ele>529.4</ele>
        <time>2020-07-21T10:53:10Z</time>
      </trkpt>
      <trkpt lat="42.6497900" lon="2.3809760">
        <ele>530.2</ele>
        <time>2020-07-21T10:53:15Z</time>
      </trkpt>
      <trkpt lat="42.6498710" lon="2.3808500">
        <ele>530.2</ele>
        <time>2020-07-21T10:53:17Z</time>
      </trkpt>
      <trkpt lat="42.6499670" lon="2.3807470">
        <ele>530.2</ele>
        <time>2020-07-21T10:53:19Z</time>
      </trkpt>
      <trkpt lat="42.6500220" lon="2.3807110">
        <ele>530.0</ele>
        <time>2020-07-21T10:53:20Z</time>
      </trkpt>
      <trkpt lat="42.6501800" lon="2.3806110">
        <ele>530.0</ele>
        <time>2020-07-21T10:53:23Z</time>
      </trkpt>
      <trkpt lat="42.6502640" lon="2.3805120">
        <ele>530.4</ele>
        <time>2020-07-21T10:53:25Z</time>
      </trkpt>
      <trkpt lat="42.6503680" lon="2.3803110">
        <ele>530.8</ele>
        <time>2020-07-21T10:53:28Z</time>
      </trkpt>
      <trkpt lat="42.6503940" lon="2.3802370">
        <ele>531.0</ele>
        <time>2020-07-21T10:53:29Z</time>
      </trkpt>
      <trkpt lat="42.6504170" lon="2.3801610">
        <ele>531.0</ele>
        <time>2020-07-21T10:53:30Z</time>
      </trkpt>
      <trkpt lat="42.6505010" lon="2.3798700">
        <ele>531.0</ele>
        <time>2020-07-21T10:53:34Z</time>
      </trkpt>
      <trkpt lat="42.6505360" lon="2.3797310">
        <ele>531.2</ele>
        <time>2020-07-21T10:53:36Z</time>
      </trkpt>
      <trkpt lat="42.6505740" lon="2.3795950">
        <ele>531.2</ele>
        <time>2020-07-21T10:53:38Z</time>
      </trkpt>
      <trkpt lat="42.6506740" lon="2.3792300">
        <ele>530.6</ele>
        <time>2020-07-21T10:53:43Z</time>
      </trkpt>
      <trkpt lat="42.6508250" lon="2.3787800">
        <ele>530.8</ele>
        <time>2020-07-21T10:53:49Z</time>
      </trkpt>
      <trkpt lat="42.6508780" lon="2.3786330">
        <ele>530.8</ele>
        <time>2020-07-21T10:53:51Z</time>
      </trkpt>
      <trkpt lat="42.6509220" lon="2.3784820">
        <ele>530.8</ele>
        <time>2020-07-21T10:53:53Z</time>
      </trkpt>
      <trkpt lat="42.6509630" lon="2.3783280">
        <ele>530.8</ele>
        <time>2020-07-21T10:53:55Z</time>
      </trkpt>
      <trkpt lat="42.6510270" lon="2.3781030">
        <ele>530.8</ele>
        <time>2020-07-21T10:53:58Z</time>
      </trkpt>
      <trkpt lat="42.6511460" lon="2.3777340">
        <ele>531.4</ele>
        <time>2020-07-21T10:54:03Z</time>
      </trkpt>
      <trkpt lat="42.6512290" lon="2.3776190">
        <ele>531.6</ele>
        <time>2020-07-21T10:54:05Z</time>
      </trkpt>
      <trkpt lat="42.6513310" lon="2.3775560">
        <ele>531.8</ele>
        <time>2020-07-21T10:54:07Z</time>
      </trkpt>
      <trkpt lat="42.6514400" lon="2.3775190">
        <ele>531.8</ele>
        <time>2020-07-21T10:54:09Z</time>
      </trkpt>
      <trkpt lat="42.6515940" lon="2.3774540">
        <ele>532.6</ele>
        <time>2020-07-21T10:54:12Z</time>
      </trkpt>
      <trkpt lat="42.6517430" lon="2.3773880">
        <ele>533.4</ele>
        <time>2020-07-21T10:54:15Z</time>
      </trkpt>
      <trkpt lat="42.6517920" lon="2.3773720">
        <ele>533.8</ele>
        <time>2020-07-21T10:54:16Z</time>
      </trkpt>
      <trkpt lat="42.6519760" lon="2.3773270">
        <ele>534.8</ele>
        <time>2020-07-21T10:54:20Z</time>
      </trkpt>
      <trkpt lat="42.6520200" lon="2.3773150">
        <ele>535.0</ele>
        <time>2020-07-21T10:54:21Z</time>
      </trkpt>
      <trkpt lat="42.6521110" lon="2.3773040">
        <ele>535.0</ele>
        <time>2020-07-21T10:54:23Z</time>
      </trkpt>
      <trkpt lat="42.6522360" lon="2.3773420">
        <ele>535.4</ele>
        <time>2020-07-21T10:54:26Z</time>
      </trkpt>
      <trkpt lat="42.6523160" lon="2.3773580">
        <ele>536.0</ele>
        <time>2020-07-21T10:54:28Z</time>
      </trkpt>
      <trkpt lat="42.6523970" lon="2.3773500">
        <ele>536.2</ele>
        <time>2020-07-21T10:54:30Z</time>
      </trkpt>
      <trkpt lat="42.6524390" lon="2.3773330">
        <ele>536.4</ele>
        <time>2020-07-21T10:54:31Z</time>
      </trkpt>
      <trkpt lat="42.6524790" lon="2.3773120">
        <ele>536.6</ele>
        <time>2020-07-21T10:54:32Z</time>
      </trkpt>
      <trkpt lat="42.6526260" lon="2.3771850">
        <ele>537.0</ele>
        <time>2020-07-21T10:54:36Z</time>
      </trkpt>
      <trkpt lat="42.6526590" lon="2.3771490">
        <ele>537.2</ele>
        <time>2020-07-21T10:54:37Z</time>
      </trkpt>
      <trkpt lat="42.6527850" lon="2.3770010">
        <ele>538.2</ele>
        <time>2020-07-21T10:54:41Z</time>
      </trkpt>
      <trkpt lat="42.6528200" lon="2.3769700">
        <ele>538.4</ele>
        <time>2020-07-21T10:54:42Z</time>
      </trkpt>
      <trkpt lat="42.6528950" lon="2.3769160">
        <ele>538.8</ele>
        <time>2020-07-21T10:54:44Z</time>
      </trkpt>
      <trkpt lat="42.6529360" lon="2.3768950">
        <ele>539.0</ele>
        <time>2020-07-21T10:54:45Z</time>
      </trkpt>
      <trkpt lat="42.6529770" lon="2.3768770">
        <ele>539.4</ele>
        <time>2020-07-21T10:54:46Z</time>
      </trkpt>
      <trkpt lat="42.6531710" lon="2.3767880">
        <ele>540.4</ele>
        <time>2020-07-21T10:54:51Z</time>
      </trkpt>
      <trkpt lat="42.6532090" lon="2.3767770">
        <ele>540.6</ele>
        <time>2020-07-21T10:54:52Z</time>
      </trkpt>
      <trkpt lat="42.6533200" lon="2.3767390">
        <ele>541.6</ele>
        <time>2020-07-21T10:54:55Z</time>
      </trkpt>
      <trkpt lat="42.6534700" lon="2.3766920">
        <ele>542.6</ele>
        <time>2020-07-21T10:54:59Z</time>
      </trkpt>
      <trkpt lat="42.6535070" lon="2.3766840">
        <ele>542.6</ele>
        <time>2020-07-21T10:55:00Z</time>
      </trkpt>
      <trkpt lat="42.6535460" lon="2.3766750">
        <ele>543.0</ele>
        <time>2020-07-21T10:55:01Z</time>
      </trkpt>
      <trkpt lat="42.6536620" lon="2.3766510">
        <ele>543.8</ele>
        <time>2020-07-21T10:55:04Z</time>
      </trkpt>
      <trkpt lat="42.6538520" lon="2.3766100">
        <ele>544.8</ele>
        <time>2020-07-21T10:55:09Z</time>
      </trkpt>
      <trkpt lat="42.6540400" lon="2.3765610">
        <ele>545.8</ele>
        <time>2020-07-21T10:55:14Z</time>
      </trkpt>
      <trkpt lat="42.6542600" lon="2.3764970">
        <ele>547.0</ele>
        <time>2020-07-21T10:55:20Z</time>
      </trkpt>
      <trkpt lat="42.6544790" lon="2.3764080">
        <ele>547.8</ele>
        <time>2020-07-21T10:55:26Z</time>
      </trkpt>
      <trkpt lat="42.6545500" lon="2.3763770">
        <ele>548.2</ele>
        <time>2020-07-21T10:55:28Z</time>
      </trkpt>
      <trkpt lat="42.6545840" lon="2.3763580">
        <ele>548.6</ele>
        <time>2020-07-21T10:55:29Z</time>
      </trkpt>
      <trkpt lat="42.6546860" lon="2.3762950">
        <ele>549.4</ele>
        <time>2020-07-21T10:55:32Z</time>
      </trkpt>
      <trkpt lat="42.6548380" lon="2.3761290">
        <ele>550.2</ele>
        <time>2020-07-21T10:55:37Z</time>
      </trkpt>
      <trkpt lat="42.6548630" lon="2.3760900">
        <ele>550.6</ele>
        <time>2020-07-21T10:55:38Z</time>
      </trkpt>
      <trkpt lat="42.6549750" lon="2.3758810">
        <ele>551.2</ele>
        <time>2020-07-21T10:55:43Z</time>
      </trkpt>
      <trkpt lat="42.6550140" lon="2.3757870">
        <ele>551.8</ele>
        <time>2020-07-21T10:55:45Z</time>
      </trkpt>
      <trkpt lat="42.6550500" lon="2.3757020">
        <ele>552.0</ele>
        <time>2020-07-21T10:55:47Z</time>
      </trkpt>
      <trkpt lat="42.6551240" lon="2.3755100">
        <ele>552.8</ele>
        <time>2020-07-21T10:55:51Z</time>
      </trkpt>
      <trkpt lat="42.6551400" lon="2.3754640">
        <ele>553.0</ele>
        <time>2020-07-21T10:55:52Z</time>
      </trkpt>
      <trkpt lat="42.6552530" lon="2.3752070">
        <ele>554.0</ele>
        <time>2020-07-21T10:55:58Z</time>
      </trkpt>
      <trkpt lat="42.6553090" lon="2.3750790">
        <ele>554.4</ele>
        <time>2020-07-21T10:56:01Z</time>
      </trkpt>
      <trkpt lat="42.6553490" lon="2.3749970">
        <ele>555.2</ele>
        <time>2020-07-21T10:56:03Z</time>
      </trkpt>
      <trkpt lat="42.6554830" lon="2.3747750">
        <ele>556.2</ele>
        <time>2020-07-21T10:56:09Z</time>
      </trkpt>
      <trkpt lat="42.6555130" lon="2.3747490">
        <ele>556.4</ele>
        <time>2020-07-21T10:56:10Z</time>
      </trkpt>
      <trkpt lat="42.6556780" lon="2.3746780">
        <ele>557.4</ele>
        <time>2020-07-21T10:56:15Z</time>
      </trkpt>
      <trkpt lat="42.6557130" lon="2.3746700">
        <ele>557.8</ele>
        <time>2020-07-21T10:56:16Z</time>
      </trkpt>
      <trkpt lat="42.6559260" lon="2.3746590">
        <ele>558.4</ele>
        <time>2020-07-21T10:56:22Z</time>
      </trkpt>
      <trkpt lat="42.6559610" lon="2.3746600">
        <ele>558.4</ele>
        <time>2020-07-21T10:56:23Z</time>
      </trkpt>
      <trkpt lat="42.6561710" lon="2.3746490">
        <ele>559.6</ele>
        <time>2020-07-21T10:56:29Z</time>
      </trkpt>
      <trkpt lat="42.6562450" lon="2.3746180">
        <ele>560.0</ele>
        <time>2020-07-21T10:56:31Z</time>
      </trkpt>
      <trkpt lat="42.6562830" lon="2.3745970">
        <ele>560.2</ele>
        <time>2020-07-21T10:56:32Z</time>
      </trkpt>
      <trkpt lat="42.6563860" lon="2.3745110">
        <ele>560.8</ele>
        <time>2020-07-21T10:56:35Z</time>
      </trkpt>
      <trkpt lat="42.6564450" lon="2.3744430">
        <ele>561.2</ele>
        <time>2020-07-21T10:56:37Z</time>
      </trkpt>
      <trkpt lat="42.6564730" lon="2.3744080">
        <ele>561.4</ele>
        <time>2020-07-21T10:56:38Z</time>
      </trkpt>
      <trkpt lat="42.6565530" lon="2.3743020">
        <ele>561.8</ele>
        <time>2020-07-21T10:56:41Z</time>
      </trkpt>
      <trkpt lat="42.6565770" lon="2.3742670">
        <ele>562.0</ele>
        <time>2020-07-21T10:56:42Z</time>
      </trkpt>
      <trkpt lat="42.6566000" lon="2.3742300">
        <ele>562.2</ele>
        <time>2020-07-21T10:56:43Z</time>
      </trkpt>
      <trkpt lat="42.6566220" lon="2.3741910">
        <ele>562.4</ele>
        <time>2020-07-21T10:56:44Z</time>
      </trkpt>
      <trkpt lat="42.6566460" lon="2.3741540">
        <ele>562.6</ele>
        <time>2020-07-21T10:56:45Z</time>
      </trkpt>
      <trkpt lat="42.6566710" lon="2.3741180">
        <ele>562.8</ele>
        <time>2020-07-21T10:56:46Z</time>
      </trkpt>
      <trkpt lat="42.6567900" lon="2.3739250">
        <ele>563.6</ele>
        <time>2020-07-21T10:56:51Z</time>
      </trkpt>
      <trkpt lat="42.6568590" lon="2.3738080">
        <ele>563.8</ele>
        <time>2020-07-21T10:56:54Z</time>
      </trkpt>
      <trkpt lat="42.6569080" lon="2.3737330">
        <ele>564.4</ele>
        <time>2020-07-21T10:56:56Z</time>
      </trkpt>
      <trkpt lat="42.6569780" lon="2.3736160">
        <ele>565.0</ele>
        <time>2020-07-21T10:56:59Z</time>
      </trkpt>
      <trkpt lat="42.6570990" lon="2.3734270">
        <ele>566.2</ele>
        <time>2020-07-21T10:57:04Z</time>
      </trkpt>
      <trkpt lat="42.6572430" lon="2.3731960">
        <ele>567.2</ele>
        <time>2020-07-21T10:57:10Z</time>
      </trkpt>
      <trkpt lat="42.6572680" lon="2.3731550">
        <ele>567.2</ele>
        <time>2020-07-21T10:57:11Z</time>
      </trkpt>
      <trkpt lat="42.6572930" lon="2.3731160">
        <ele>567.2</ele>
        <time>2020-07-21T10:57:12Z</time>
      </trkpt>
      <trkpt lat="42.6574160" lon="2.3729250">
        <ele>568.2</ele>
        <time>2020-07-21T10:57:17Z</time>
      </trkpt>
      <trkpt lat="42.6575090" lon="2.3727750">
        <ele>569.4</ele>
        <time>2020-07-21T10:57:21Z</time>
      </trkpt>
      <trkpt lat="42.6575320" lon="2.3727370">
        <ele>569.6</ele>
        <time>2020-07-21T10:57:22Z</time>
      </trkpt>
      <trkpt lat="42.6576470" lon="2.3725510">
        <ele>570.6</ele>
        <time>2020-07-21T10:57:27Z</time>
      </trkpt>
      <trkpt lat="42.6577630" lon="2.3723510">
        <ele>571.6</ele>
        <time>2020-07-21T10:57:32Z</time>
      </trkpt>
      <trkpt lat="42.6578700" lon="2.3720940">
        <ele>572.8</ele>
        <time>2020-07-21T10:57:38Z</time>
      </trkpt>
      <trkpt lat="42.6578890" lon="2.3719990">
        <ele>573.2</ele>
        <time>2020-07-21T10:57:40Z</time>
      </trkpt>
      <trkpt lat="42.6579050" lon="2.3718460">
        <ele>573.8</ele>
        <time>2020-07-21T10:57:43Z</time>
      </trkpt>
      <trkpt lat="42.6578920" lon="2.3716290">
        <ele>574.2</ele>
        <time>2020-07-21T10:57:47Z</time>
      </trkpt>
      <trkpt lat="42.6578380" lon="2.3712980">
        <ele>574.6</ele>
        <time>2020-07-21T10:57:53Z</time>
      </trkpt>
      <trkpt lat="42.6578320" lon="2.3712430">
        <ele>574.8</ele>
        <time>2020-07-21T10:57:54Z</time>
      </trkpt>
      <trkpt lat="42.6578270" lon="2.3711890">
        <ele>575.0</ele>
        <time>2020-07-21T10:57:55Z</time>
      </trkpt>
      <trkpt lat="42.6578290" lon="2.3710260">
        <ele>575.2</ele>
        <time>2020-07-21T10:57:58Z</time>
      </trkpt>
      <trkpt lat="42.6578570" lon="2.3709210">
        <ele>575.2</ele>
        <time>2020-07-21T10:58:00Z</time>
      </trkpt>
      <trkpt lat="42.6578800" lon="2.3708700">
        <ele>575.2</ele>
        <time>2020-07-21T10:58:01Z</time>
      </trkpt>
      <trkpt lat="42.6579490" lon="2.3707690">
        <ele>575.2</ele>
        <time>2020-07-21T10:58:03Z</time>
      </trkpt>
      <trkpt lat="42.6579900" lon="2.3707200">
        <ele>575.0</ele>
        <time>2020-07-21T10:58:04Z</time>
      </trkpt>
      <trkpt lat="42.6580380" lon="2.3706770">
        <ele>574.8</ele>
        <time>2020-07-21T10:58:05Z</time>
      </trkpt>
      <trkpt lat="42.6582090" lon="2.3705530">
        <ele>574.2</ele>
        <time>2020-07-21T10:58:08Z</time>
      </trkpt>
      <trkpt lat="42.6582700" lon="2.3705110">
        <ele>573.8</ele>
        <time>2020-07-21T10:58:09Z</time>
      </trkpt>
      <trkpt lat="42.6583330" lon="2.3704680">
        <ele>573.6</ele>
        <time>2020-07-21T10:58:10Z</time>
      </trkpt>
      <trkpt lat="42.6584540" lon="2.3703800">
        <ele>573.4</ele>
        <time>2020-07-21T10:58:12Z</time>
      </trkpt>
      <trkpt lat="42.6585060" lon="2.3703280">
        <ele>573.4</ele>
        <time>2020-07-21T10:58:13Z</time>
      </trkpt>
      <trkpt lat="42.6585830" lon="2.3702070">
        <ele>573.4</ele>
        <time>2020-07-21T10:58:15Z</time>
      </trkpt>
      <trkpt lat="42.6586740" lon="2.3699110">
        <ele>574.0</ele>
        <time>2020-07-21T10:58:20Z</time>
      </trkpt>
      <trkpt lat="42.6586860" lon="2.3698530">
        <ele>574.2</ele>
        <time>2020-07-21T10:58:21Z</time>
      </trkpt>
      <trkpt lat="42.6587440" lon="2.3695620">
        <ele>574.8</ele>
        <time>2020-07-21T10:58:26Z</time>
      </trkpt>
      <trkpt lat="42.6587550" lon="2.3695080">
        <ele>575.0</ele>
        <time>2020-07-21T10:58:27Z</time>
      </trkpt>
      <trkpt lat="42.6587720" lon="2.3694560">
        <ele>575.4</ele>
        <time>2020-07-21T10:58:28Z</time>
      </trkpt>
      <trkpt lat="42.6588180" lon="2.3693630">
        <ele>575.6</ele>
        <time>2020-07-21T10:58:30Z</time>
      </trkpt>
      <trkpt lat="42.6588470" lon="2.3693190">
        <ele>575.8</ele>
        <time>2020-07-21T10:58:31Z</time>
      </trkpt>
      <trkpt lat="42.6588760" lon="2.3692780">
        <ele>575.8</ele>
        <time>2020-07-21T10:58:32Z</time>
      </trkpt>
      <trkpt lat="42.6590280" lon="2.3690790">
        <ele>576.8</ele>
        <time>2020-07-21T10:58:37Z</time>
      </trkpt>
      <trkpt lat="42.6591390" lon="2.3689170">
        <ele>577.6</ele>
        <time>2020-07-21T10:58:41Z</time>
      </trkpt>
      <trkpt lat="42.6592180" lon="2.3687910">
        <ele>578.0</ele>
        <time>2020-07-21T10:58:44Z</time>
      </trkpt>
      <trkpt lat="42.6592620" lon="2.3686960">
        <ele>578.4</ele>
        <time>2020-07-21T10:58:46Z</time>
      </trkpt>
      <trkpt lat="42.6592790" lon="2.3686430">
        <ele>578.4</ele>
        <time>2020-07-21T10:58:47Z</time>
      </trkpt>
      <trkpt lat="42.6592950" lon="2.3685910">
        <ele>578.6</ele>
        <time>2020-07-21T10:58:48Z</time>
      </trkpt>
      <trkpt lat="42.6593440" lon="2.3684360">
        <ele>578.8</ele>
        <time>2020-07-21T10:58:51Z</time>
      </trkpt>
      <trkpt lat="42.6593800" lon="2.3683380">
        <ele>579.0</ele>
        <time>2020-07-21T10:58:53Z</time>
      </trkpt>
      <trkpt lat="42.6594240" lon="2.3681850">
        <ele>579.6</ele>
        <time>2020-07-21T10:58:56Z</time>
      </trkpt>
      <trkpt lat="42.6594330" lon="2.3681280">
        <ele>579.8</ele>
        <time>2020-07-21T10:58:57Z</time>
      </trkpt>
      <trkpt lat="42.6594620" lon="2.3680290">
        <ele>580.0</ele>
        <time>2020-07-21T10:58:59Z</time>
      </trkpt>
      <trkpt lat="42.6595400" lon="2.3677410">
        <ele>581.0</ele>
        <time>2020-07-21T10:59:05Z</time>
      </trkpt>
      <trkpt lat="42.6595570" lon="2.3676940">
        <ele>581.2</ele>
        <time>2020-07-21T10:59:06Z</time>
      </trkpt>
      <trkpt lat="42.6596030" lon="2.3676020">
        <ele>581.4</ele>
        <time>2020-07-21T10:59:08Z</time>
      </trkpt>
      <trkpt lat="42.6596660" lon="2.3675310">
        <ele>581.4</ele>
        <time>2020-07-21T10:59:10Z</time>
      </trkpt>
      <trkpt lat="42.6597460" lon="2.3674880">
        <ele>581.2</ele>
        <time>2020-07-21T10:59:12Z</time>
      </trkpt>
      <trkpt lat="42.6598760" lon="2.3674380">
        <ele>580.8</ele>
        <time>2020-07-21T10:59:15Z</time>
      </trkpt>
      <trkpt lat="42.6599680" lon="2.3673810">
        <ele>580.6</ele>
        <time>2020-07-21T10:59:17Z</time>
      </trkpt>
      <trkpt lat="42.6600450" lon="2.3672880">
        <ele>580.2</ele>
        <time>2020-07-21T10:59:19Z</time>
      </trkpt>
      <trkpt lat="42.6600790" lon="2.3672300">
        <ele>580.2</ele>
        <time>2020-07-21T10:59:20Z</time>
      </trkpt>
      <trkpt lat="42.6601100" lon="2.3671670">
        <ele>580.2</ele>
        <time>2020-07-21T10:59:21Z</time>
      </trkpt>
      <trkpt lat="42.6601360" lon="2.3670980">
        <ele>580.4</ele>
        <time>2020-07-21T10:59:22Z</time>
      </trkpt>
      <trkpt lat="42.6601570" lon="2.3670260">
        <ele>580.2</ele>
        <time>2020-07-21T10:59:23Z</time>
      </trkpt>
      <trkpt lat="42.6601750" lon="2.3669520">
        <ele>580.0</ele>
        <time>2020-07-21T10:59:24Z</time>
      </trkpt>
      <trkpt lat="42.6601870" lon="2.3668760">
        <ele>580.0</ele>
        <time>2020-07-21T10:59:25Z</time>
      </trkpt>
      <trkpt lat="42.6601870" lon="2.3667310">
        <ele>579.8</ele>
        <time>2020-07-21T10:59:27Z</time>
      </trkpt>
      <trkpt lat="42.6601670" lon="2.3666630">
        <ele>579.6</ele>
        <time>2020-07-21T10:59:28Z</time>
      </trkpt>
      <trkpt lat="42.6601370" lon="2.3666060">
        <ele>579.6</ele>
        <time>2020-07-21T10:59:29Z</time>
      </trkpt>
      <trkpt lat="42.6600500" lon="2.3665220">
        <ele>579.8</ele>
        <time>2020-07-21T10:59:31Z</time>
      </trkpt>
      <trkpt lat="42.6598730" lon="2.3664050">
        <ele>581.0</ele>
        <time>2020-07-21T10:59:35Z</time>
      </trkpt>
      <trkpt lat="42.6598350" lon="2.3663820">
        <ele>581.4</ele>
        <time>2020-07-21T10:59:36Z</time>
      </trkpt>
      <trkpt lat="42.6597990" lon="2.3663590">
        <ele>581.8</ele>
        <time>2020-07-21T10:59:37Z</time>
      </trkpt>
      <trkpt lat="42.6597320" lon="2.3663100">
        <ele>582.4</ele>
        <time>2020-07-21T10:59:39Z</time>
      </trkpt>
      <trkpt lat="42.6596550" lon="2.3662100">
        <ele>583.4</ele>
        <time>2020-07-21T10:59:42Z</time>
      </trkpt>
      <trkpt lat="42.6596350" lon="2.3661710">
        <ele>583.8</ele>
        <time>2020-07-21T10:59:43Z</time>
      </trkpt>
      <trkpt lat="42.6596010" lon="2.3660300">
        <ele>584.8</ele>
        <time>2020-07-21T10:59:46Z</time>
      </trkpt>
      <trkpt lat="42.6595990" lon="2.3659760">
        <ele>584.8</ele>
        <time>2020-07-21T10:59:47Z</time>
      </trkpt>
      <trkpt lat="42.6596030" lon="2.3659230">
        <ele>585.0</ele>
        <time>2020-07-21T10:59:48Z</time>
      </trkpt>
      <trkpt lat="42.6596400" lon="2.3657570">
        <ele>585.0</ele>
        <time>2020-07-21T10:59:51Z</time>
      </trkpt>
      <trkpt lat="42.6596560" lon="2.3657010">
        <ele>585.0</ele>
        <time>2020-07-21T10:59:52Z</time>
      </trkpt>
      <trkpt lat="42.6596730" lon="2.3656450">
        <ele>585.0</ele>
        <time>2020-07-21T10:59:53Z</time>
      </trkpt>
      <trkpt lat="42.6597300" lon="2.3654780">
        <ele>585.2</ele>
        <time>2020-07-21T10:59:56Z</time>
      </trkpt>
      <trkpt lat="42.6597890" lon="2.3653110">
        <ele>586.0</ele>
        <time>2020-07-21T10:59:59Z</time>
      </trkpt>
      <trkpt lat="42.6598280" lon="2.3652000">
        <ele>586.2</ele>
        <time>2020-07-21T11:00:01Z</time>
      </trkpt>
      <trkpt lat="42.6599410" lon="2.3648680">
        <ele>586.6</ele>
        <time>2020-07-21T11:00:07Z</time>
      </trkpt>
      <trkpt lat="42.6599840" lon="2.3647610">
        <ele>587.0</ele>
        <time>2020-07-21T11:00:09Z</time>
      </trkpt>
      <trkpt lat="42.6600270" lon="2.3646550">
        <ele>587.4</ele>
        <time>2020-07-21T11:00:11Z</time>
      </trkpt>
      <trkpt lat="42.6601870" lon="2.3643600">
        <ele>587.8</ele>
        <time>2020-07-21T11:00:17Z</time>
      </trkpt>
      <trkpt lat="42.6602170" lon="2.3643100">
        <ele>588.0</ele>
        <time>2020-07-21T11:00:18Z</time>
      </trkpt>
      <trkpt lat="42.6602470" lon="2.3642600">
        <ele>588.2</ele>
        <time>2020-07-21T11:00:19Z</time>
      </trkpt>
      <trkpt lat="42.6603780" lon="2.3640740">
        <ele>588.4</ele>
        <time>2020-07-21T11:00:23Z</time>
      </trkpt>
      <trkpt lat="42.6604630" lon="2.3640130">
        <ele>588.4</ele>
        <time>2020-07-21T11:00:25Z</time>
      </trkpt>
      <trkpt lat="42.6606870" lon="2.3639310">
        <ele>589.2</ele>
        <time>2020-07-21T11:00:30Z</time>
      </trkpt>
      <trkpt lat="42.6607310" lon="2.3639170">
        <ele>589.4</ele>
        <time>2020-07-21T11:00:31Z</time>
      </trkpt>
      <trkpt lat="42.6607730" lon="2.3638960">
        <ele>589.6</ele>
        <time>2020-07-21T11:00:32Z</time>
      </trkpt>
      <trkpt lat="42.6608940" lon="2.3638040">
        <ele>590.2</ele>
        <time>2020-07-21T11:00:35Z</time>
      </trkpt>
      <trkpt lat="42.6609320" lon="2.3637670">
        <ele>590.2</ele>
        <time>2020-07-21T11:00:36Z</time>
      </trkpt>
      <trkpt lat="42.6609700" lon="2.3637320">
        <ele>590.4</ele>
        <time>2020-07-21T11:00:37Z</time>
      </trkpt>
      <trkpt lat="42.6610070" lon="2.3636950">
        <ele>590.6</ele>
        <time>2020-07-21T11:00:38Z</time>
      </trkpt>
      <trkpt lat="42.6610700" lon="2.3636080">
        <ele>590.8</ele>
        <time>2020-07-21T11:00:40Z</time>
      </trkpt>
      <trkpt lat="42.6610980" lon="2.3635590">
        <ele>591.0</ele>
        <time>2020-07-21T11:00:41Z</time>
      </trkpt>
      <trkpt lat="42.6612010" lon="2.3633520">
        <ele>591.4</ele>
        <time>2020-07-21T11:00:45Z</time>
      </trkpt>
      <trkpt lat="42.6613160" lon="2.3630750">
        <ele>591.8</ele>
        <time>2020-07-21T11:00:50Z</time>
      </trkpt>
      <trkpt lat="42.6613330" lon="2.3630180">
        <ele>591.8</ele>
        <time>2020-07-21T11:00:51Z</time>
      </trkpt>
      <trkpt lat="42.6613410" lon="2.3628450">
        <ele>592.4</ele>
        <time>2020-07-21T11:00:54Z</time>
      </trkpt>
      <trkpt lat="42.6613200" lon="2.3627340">
        <ele>593.0</ele>
        <time>2020-07-21T11:00:56Z</time>
      </trkpt>
      <trkpt lat="42.6612460" lon="2.3625490">
        <ele>593.4</ele>
        <time>2020-07-21T11:01:00Z</time>
      </trkpt>
      <trkpt lat="42.6612280" lon="2.3625050">
        <ele>593.6</ele>
        <time>2020-07-21T11:01:01Z</time>
      </trkpt>
      <trkpt lat="42.6611170" lon="2.3622270">
        <ele>594.8</ele>
        <time>2020-07-21T11:01:07Z</time>
      </trkpt>
      <trkpt lat="42.6610840" lon="2.3621320">
        <ele>595.6</ele>
        <time>2020-07-21T11:01:09Z</time>
      </trkpt>
      <trkpt lat="42.6610540" lon="2.3620360">
        <ele>596.0</ele>
        <time>2020-07-21T11:01:11Z</time>
      </trkpt>
      <trkpt lat="42.6610160" lon="2.3618880">
        <ele>596.6</ele>
        <time>2020-07-21T11:01:14Z</time>
      </trkpt>
      <trkpt lat="42.6609790" lon="2.3616880">
        <ele>596.8</ele>
        <time>2020-07-21T11:01:18Z</time>
      </trkpt>
      <trkpt lat="42.6609610" lon="2.3615880">
        <ele>597.0</ele>
        <time>2020-07-21T11:01:20Z</time>
      </trkpt>
      <trkpt lat="42.6609120" lon="2.3612830">
        <ele>598.2</ele>
        <time>2020-07-21T11:01:26Z</time>
      </trkpt>
      <trkpt lat="42.6608710" lon="2.3610260">
        <ele>599.2</ele>
        <time>2020-07-21T11:01:31Z</time>
      </trkpt>
      <trkpt lat="42.6608620" lon="2.3608200">
        <ele>600.4</ele>
        <time>2020-07-21T11:01:35Z</time>
      </trkpt>
      <trkpt lat="42.6608790" lon="2.3607170">
        <ele>600.8</ele>
        <time>2020-07-21T11:01:37Z</time>
      </trkpt>
      <trkpt lat="42.6609680" lon="2.3605490">
        <ele>601.8</ele>
        <time>2020-07-21T11:01:41Z</time>
      </trkpt>
      <trkpt lat="42.6609970" lon="2.3605160">
        <ele>602.2</ele>
        <time>2020-07-21T11:01:42Z</time>
      </trkpt>
      <trkpt lat="42.6611110" lon="2.3603720">
        <ele>602.8</ele>
        <time>2020-07-21T11:01:46Z</time>
      </trkpt>
      <trkpt lat="42.6611960" lon="2.3602070">
        <ele>603.2</ele>
        <time>2020-07-21T11:01:50Z</time>
      </trkpt>
      <trkpt lat="42.6612410" lon="2.3600080">
        <ele>603.8</ele>
        <time>2020-07-21T11:01:54Z</time>
      </trkpt>
      <trkpt lat="42.6612540" lon="2.3599020">
        <ele>604.4</ele>
        <time>2020-07-21T11:01:56Z</time>
      </trkpt>
      <trkpt lat="42.6612580" lon="2.3598470">
        <ele>604.6</ele>
        <time>2020-07-21T11:01:57Z</time>
      </trkpt>
      <trkpt lat="42.6612620" lon="2.3597930">
        <ele>604.8</ele>
        <time>2020-07-21T11:01:58Z</time>
      </trkpt>
      <trkpt lat="42.6612870" lon="2.3595280">
        <ele>605.8</ele>
        <time>2020-07-21T11:02:03Z</time>
      </trkpt>
      <trkpt lat="42.6613090" lon="2.3593090">
        <ele>606.8</ele>
        <time>2020-07-21T11:02:07Z</time>
      </trkpt>
      <trkpt lat="42.6613140" lon="2.3592560">
        <ele>607.0</ele>
        <time>2020-07-21T11:02:08Z</time>
      </trkpt>
      <trkpt lat="42.6613310" lon="2.3590970">
        <ele>608.0</ele>
        <time>2020-07-21T11:02:11Z</time>
      </trkpt>
      <trkpt lat="42.6613690" lon="2.3587810">
        <ele>609.2</ele>
        <time>2020-07-21T11:02:17Z</time>
      </trkpt>
      <trkpt lat="42.6614330" lon="2.3584650">
        <ele>610.2</ele>
        <time>2020-07-21T11:02:23Z</time>
      </trkpt>
      <trkpt lat="42.6614650" lon="2.3583690">
        <ele>610.6</ele>
        <time>2020-07-21T11:02:25Z</time>
      </trkpt>
      <trkpt lat="42.6615420" lon="2.3581890">
        <ele>611.2</ele>
        <time>2020-07-21T11:02:29Z</time>
      </trkpt>
      <trkpt lat="42.6616570" lon="2.3579720">
        <ele>612.0</ele>
        <time>2020-07-21T11:02:34Z</time>
      </trkpt>
      <trkpt lat="42.6616820" lon="2.3579310">
        <ele>612.4</ele>
        <time>2020-07-21T11:02:35Z</time>
      </trkpt>
      <trkpt lat="42.6617730" lon="2.3577570">
        <ele>613.4</ele>
        <time>2020-07-21T11:02:39Z</time>
      </trkpt>
      <trkpt lat="42.6618590" lon="2.3575700">
        <ele>614.6</ele>
        <time>2020-07-21T11:02:43Z</time>
      </trkpt>
      <trkpt lat="42.6619530" lon="2.3573350">
        <ele>615.6</ele>
        <time>2020-07-21T11:02:48Z</time>
      </trkpt>
      <trkpt lat="42.6620250" lon="2.3572000">
        <ele>616.0</ele>
        <time>2020-07-21T11:02:51Z</time>
      </trkpt>
      <trkpt lat="42.6621100" lon="2.3570780">
        <ele>616.8</ele>
        <time>2020-07-21T11:02:54Z</time>
      </trkpt>
      <trkpt lat="42.6622250" lon="2.3569230">
        <ele>617.8</ele>
        <time>2020-07-21T11:02:58Z</time>
      </trkpt>
      <trkpt lat="42.6622860" lon="2.3568500">
        <ele>618.4</ele>
        <time>2020-07-21T11:03:00Z</time>
      </trkpt>
      <trkpt lat="42.6623430" lon="2.3567710">
        <ele>619.0</ele>
        <time>2020-07-21T11:03:02Z</time>
      </trkpt>
      <trkpt lat="42.6624710" lon="2.3565640">
        <ele>620.0</ele>
        <time>2020-07-21T11:03:07Z</time>
      </trkpt>
      <trkpt lat="42.6624910" lon="2.3565170">
        <ele>620.2</ele>
        <time>2020-07-21T11:03:08Z</time>
      </trkpt>
      <trkpt lat="42.6625560" lon="2.3563260">
        <ele>621.2</ele>
        <time>2020-07-21T11:03:12Z</time>
      </trkpt>
      <trkpt lat="42.6626110" lon="2.3561940">
        <ele>621.8</ele>
        <time>2020-07-21T11:03:15Z</time>
      </trkpt>
      <trkpt lat="42.6627130" lon="2.3559780">
        <ele>622.2</ele>
        <time>2020-07-21T11:03:20Z</time>
      </trkpt>
      <trkpt lat="42.6627560" lon="2.3558910">
        <ele>622.6</ele>
        <time>2020-07-21T11:03:22Z</time>
      </trkpt>
      <trkpt lat="42.6628490" lon="2.3557220">
        <ele>623.4</ele>
        <time>2020-07-21T11:03:26Z</time>
      </trkpt>
      <trkpt lat="42.6629580" lon="2.3555020">
        <ele>624.4</ele>
        <time>2020-07-21T11:03:31Z</time>
      </trkpt>
      <trkpt lat="42.6629780" lon="2.3554550">
        <ele>624.6</ele>
        <time>2020-07-21T11:03:32Z</time>
      </trkpt>
      <trkpt lat="42.6630290" lon="2.3553120">
        <ele>625.4</ele>
        <time>2020-07-21T11:03:35Z</time>
      </trkpt>
      <trkpt lat="42.6630770" lon="2.3551710">
        <ele>626.2</ele>
        <time>2020-07-21T11:03:38Z</time>
      </trkpt>
      <trkpt lat="42.6630890" lon="2.3551210">
        <ele>626.2</ele>
        <time>2020-07-21T11:03:39Z</time>
      </trkpt>
      <trkpt lat="42.6631150" lon="2.3550220">
        <ele>626.6</ele>
        <time>2020-07-21T11:03:41Z</time>
      </trkpt>
      <trkpt lat="42.6631570" lon="2.3547560">
        <ele>627.2</ele>
        <time>2020-07-21T11:03:46Z</time>
      </trkpt>
      <trkpt lat="42.6631790" lon="2.3545380">
        <ele>627.8</ele>
        <time>2020-07-21T11:03:50Z</time>
      </trkpt>
      <trkpt lat="42.6632310" lon="2.3542310">
        <ele>629.0</ele>
        <time>2020-07-21T11:03:56Z</time>
      </trkpt>
      <trkpt lat="42.6633840" lon="2.3540940">
        <ele>630.2</ele>
        <time>2020-07-21T11:04:01Z</time>
      </trkpt>
      <trkpt lat="42.6635840" lon="2.3541060">
        <ele>631.2</ele>
        <time>2020-07-21T11:04:06Z</time>
      </trkpt>
      <trkpt lat="42.6636230" lon="2.3541000">
        <ele>631.4</ele>
        <time>2020-07-21T11:04:07Z</time>
      </trkpt>
      <trkpt lat="42.6636620" lon="2.3540870">
        <ele>631.6</ele>
        <time>2020-07-21T11:04:08Z</time>
      </trkpt>
      <trkpt lat="42.6637350" lon="2.3540390">
        <ele>632.0</ele>
        <time>2020-07-21T11:04:10Z</time>
      </trkpt>
      <trkpt lat="42.6637980" lon="2.3539670">
        <ele>632.4</ele>
        <time>2020-07-21T11:04:12Z</time>
      </trkpt>
      <trkpt lat="42.6639430" lon="2.3537070">
        <ele>633.4</ele>
        <time>2020-07-21T11:04:18Z</time>
      </trkpt>
      <trkpt lat="42.6639630" lon="2.3536620">
        <ele>633.6</ele>
        <time>2020-07-21T11:04:19Z</time>
      </trkpt>
      <trkpt lat="42.6640510" lon="2.3534900">
        <ele>634.4</ele>
        <time>2020-07-21T11:04:23Z</time>
      </trkpt>
      <trkpt lat="42.6641530" lon="2.3533400">
        <ele>635.2</ele>
        <time>2020-07-21T11:04:27Z</time>
      </trkpt>
      <trkpt lat="42.6641820" lon="2.3533070">
        <ele>635.6</ele>
        <time>2020-07-21T11:04:28Z</time>
      </trkpt>
      <trkpt lat="42.6643110" lon="2.3531900">
        <ele>636.8</ele>
        <time>2020-07-21T11:04:32Z</time>
      </trkpt>
      <trkpt lat="42.6644130" lon="2.3531040">
        <ele>637.4</ele>
        <time>2020-07-21T11:04:35Z</time>
      </trkpt>
      <trkpt lat="42.6645170" lon="2.3530150">
        <ele>637.8</ele>
        <time>2020-07-21T11:04:38Z</time>
      </trkpt>
      <trkpt lat="42.6646170" lon="2.3529190">
        <ele>638.2</ele>
        <time>2020-07-21T11:04:41Z</time>
      </trkpt>
      <trkpt lat="42.6646550" lon="2.3528950">
        <ele>638.2</ele>
        <time>2020-07-21T11:04:42Z</time>
      </trkpt>
      <trkpt lat="42.6647930" lon="2.3527830">
        <ele>639.0</ele>
        <time>2020-07-21T11:04:46Z</time>
      </trkpt>
      <trkpt lat="42.6648260" lon="2.3527530">
        <ele>639.2</ele>
        <time>2020-07-21T11:04:47Z</time>
      </trkpt>
      <trkpt lat="42.6648620" lon="2.3527250">
        <ele>639.4</ele>
        <time>2020-07-21T11:04:48Z</time>
      </trkpt>
      <trkpt lat="42.6650390" lon="2.3525910">
        <ele>640.0</ele>
        <time>2020-07-21T11:04:53Z</time>
      </trkpt>
      <trkpt lat="42.6651510" lon="2.3525320">
        <ele>640.8</ele>
        <time>2020-07-21T11:04:56Z</time>
      </trkpt>
      <trkpt lat="42.6652650" lon="2.3525070">
        <ele>641.2</ele>
        <time>2020-07-21T11:04:59Z</time>
      </trkpt>
      <trkpt lat="42.6653410" lon="2.3525040">
        <ele>641.2</ele>
        <time>2020-07-21T11:05:01Z</time>
      </trkpt>
      <trkpt lat="42.6654260" lon="2.3525080">
        <ele>641.2</ele>
        <time>2020-07-21T11:05:03Z</time>
      </trkpt>
      <trkpt lat="42.6655600" lon="2.3525270">
        <ele>641.8</ele>
        <time>2020-07-21T11:05:06Z</time>
      </trkpt>
      <trkpt lat="42.6656460" lon="2.3525450">
        <ele>642.0</ele>
        <time>2020-07-21T11:05:08Z</time>
      </trkpt>
      <trkpt lat="42.6658190" lon="2.3525810">
        <ele>642.2</ele>
        <time>2020-07-21T11:05:12Z</time>
      </trkpt>
      <trkpt lat="42.6659520" lon="2.3525760">
        <ele>642.6</ele>
        <time>2020-07-21T11:05:15Z</time>
      </trkpt>
      <trkpt lat="42.6660390" lon="2.3525340">
        <ele>643.0</ele>
        <time>2020-07-21T11:05:17Z</time>
      </trkpt>
      <trkpt lat="42.6661250" lon="2.3524600">
        <ele>643.2</ele>
        <time>2020-07-21T11:05:19Z</time>
      </trkpt>
      <trkpt lat="42.6663230" lon="2.3521650">
        <ele>643.6</ele>
        <time>2020-07-21T11:05:25Z</time>
      </trkpt>
      <trkpt lat="42.6663520" lon="2.3521150">
        <ele>643.8</ele>
        <time>2020-07-21T11:05:26Z</time>
      </trkpt>
      <trkpt lat="42.6664120" lon="2.3520140">
        <ele>644.4</ele>
        <time>2020-07-21T11:05:28Z</time>
      </trkpt>
      <trkpt lat="42.6665830" lon="2.3518020">
        <ele>645.2</ele>
        <time>2020-07-21T11:05:33Z</time>
      </trkpt>
      <trkpt lat="42.6666550" lon="2.3517370">
        <ele>645.4</ele>
        <time>2020-07-21T11:05:35Z</time>
      </trkpt>
      <trkpt lat="42.6666930" lon="2.3517070">
        <ele>645.6</ele>
        <time>2020-07-21T11:05:36Z</time>
      </trkpt>
      <trkpt lat="42.6668090" lon="2.3516140">
        <ele>646.2</ele>
        <time>2020-07-21T11:05:39Z</time>
      </trkpt>
      <trkpt lat="42.6668440" lon="2.3515820">
        <ele>646.4</ele>
        <time>2020-07-21T11:05:40Z</time>
      </trkpt>
      <trkpt lat="42.6670270" lon="2.3514380">
        <ele>646.6</ele>
        <time>2020-07-21T11:05:45Z</time>
      </trkpt>
      <trkpt lat="42.6670610" lon="2.3514110">
        <ele>646.6</ele>
        <time>2020-07-21T11:05:46Z</time>
      </trkpt>
      <trkpt lat="42.6672380" lon="2.3512450">
        <ele>646.8</ele>
        <time>2020-07-21T11:05:51Z</time>
      </trkpt>
      <trkpt lat="42.6674150" lon="2.3510720">
        <ele>647.8</ele>
        <time>2020-07-21T11:05:56Z</time>
      </trkpt>
      <trkpt lat="42.6675540" lon="2.3509420">
        <ele>648.4</ele>
        <time>2020-07-21T11:06:00Z</time>
      </trkpt>
      <trkpt lat="42.6676480" lon="2.3508360">
        <ele>648.8</ele>
        <time>2020-07-21T11:06:03Z</time>
      </trkpt>
      <trkpt lat="42.6677810" lon="2.3507080">
        <ele>649.8</ele>
        <time>2020-07-21T11:06:07Z</time>
      </trkpt>
      <trkpt lat="42.6678170" lon="2.3506850">
        <ele>650.0</ele>
        <time>2020-07-21T11:06:08Z</time>
      </trkpt>
      <trkpt lat="42.6678560" lon="2.3506660">
        <ele>650.4</ele>
        <time>2020-07-21T11:06:09Z</time>
      </trkpt>
      <trkpt lat="42.6679730" lon="2.3506310">
        <ele>651.2</ele>
        <time>2020-07-21T11:06:12Z</time>
      </trkpt>
      <trkpt lat="42.6680480" lon="2.3506210">
        <ele>651.6</ele>
        <time>2020-07-21T11:06:14Z</time>
      </trkpt>
      <trkpt lat="42.6681940" lon="2.3506100">
        <ele>652.2</ele>
        <time>2020-07-21T11:06:18Z</time>
      </trkpt>
      <trkpt lat="42.6683520" lon="2.3505970">
        <ele>653.4</ele>
        <time>2020-07-21T11:06:22Z</time>
      </trkpt>
      <trkpt lat="42.6685030" lon="2.3505800">
        <ele>654.6</ele>
        <time>2020-07-21T11:06:26Z</time>
      </trkpt>
      <trkpt lat="42.6686160" lon="2.3505490">
        <ele>655.4</ele>
        <time>2020-07-21T11:06:29Z</time>
      </trkpt>
      <trkpt lat="42.6687340" lon="2.3505270">
        <ele>655.6</ele>
        <time>2020-07-21T11:06:32Z</time>
      </trkpt>
      <trkpt lat="42.6688910" lon="2.3504830">
        <ele>657.0</ele>
        <time>2020-07-21T11:06:36Z</time>
      </trkpt>
      <trkpt lat="42.6689620" lon="2.3504510">
        <ele>657.4</ele>
        <time>2020-07-21T11:06:38Z</time>
      </trkpt>
      <trkpt lat="42.6690620" lon="2.3503800">
        <ele>658.0</ele>
        <time>2020-07-21T11:06:41Z</time>
      </trkpt>
      <trkpt lat="42.6691970" lon="2.3502910">
        <ele>658.6</ele>
        <time>2020-07-21T11:06:45Z</time>
      </trkpt>
      <trkpt lat="42.6692970" lon="2.3502320">
        <ele>659.2</ele>
        <time>2020-07-21T11:06:48Z</time>
      </trkpt>
      <trkpt lat="42.6694150" lon="2.3501380">
        <ele>660.0</ele>
        <time>2020-07-21T11:06:52Z</time>
      </trkpt>
      <trkpt lat="42.6694710" lon="2.3500700">
        <ele>660.6</ele>
        <time>2020-07-21T11:06:54Z</time>
      </trkpt>
      <trkpt lat="42.6695140" lon="2.3499340">
        <ele>660.8</ele>
        <time>2020-07-21T11:06:57Z</time>
      </trkpt>
      <trkpt lat="42.6694780" lon="2.3497340">
        <ele>661.6</ele>
        <time>2020-07-21T11:07:01Z</time>
      </trkpt>
      <trkpt lat="42.6694540" lon="2.3496950">
        <ele>662.0</ele>
        <time>2020-07-21T11:07:02Z</time>
      </trkpt>
      <trkpt lat="42.6693190" lon="2.3496060">
        <ele>662.6</ele>
        <time>2020-07-21T11:07:06Z</time>
      </trkpt>
      <trkpt lat="42.6692820" lon="2.3496020">
        <ele>662.6</ele>
        <time>2020-07-21T11:07:07Z</time>
      </trkpt>
      <trkpt lat="42.6691420" lon="2.3496490">
        <ele>663.4</ele>
        <time>2020-07-21T11:07:11Z</time>
      </trkpt>
      <trkpt lat="42.6690740" lon="2.3496890">
        <ele>664.0</ele>
        <time>2020-07-21T11:07:13Z</time>
      </trkpt>
      <trkpt lat="42.6689190" lon="2.3497990">
        <ele>665.0</ele>
        <time>2020-07-21T11:07:18Z</time>
      </trkpt>
      <trkpt lat="42.6688870" lon="2.3498090">
        <ele>665.2</ele>
        <time>2020-07-21T11:07:19Z</time>
      </trkpt>
      <trkpt lat="42.6687330" lon="2.3497800">
        <ele>665.8</ele>
        <time>2020-07-21T11:07:24Z</time>
      </trkpt>
      <trkpt lat="42.6686880" lon="2.3497500">
        <ele>666.0</ele>
        <time>2020-07-21T11:07:26Z</time>
      </trkpt>
      <trkpt lat="42.6686340" lon="2.3496960">
        <ele>667.0</ele>
        <time>2020-07-21T11:07:29Z</time>
      </trkpt>
      <trkpt lat="42.6686110" lon="2.3496730">
        <ele>667.2</ele>
        <time>2020-07-21T11:07:30Z</time>
      </trkpt>
      <trkpt lat="42.6685630" lon="2.3496340">
        <ele>667.6</ele>
        <time>2020-07-21T11:07:32Z</time>
      </trkpt>
      <trkpt lat="42.6684850" lon="2.3495750">
        <ele>668.0</ele>
        <time>2020-07-21T11:07:35Z</time>
      </trkpt>
      <trkpt lat="42.6684570" lon="2.3495570">
        <ele>668.0</ele>
        <time>2020-07-21T11:07:36Z</time>
      </trkpt>
      <trkpt lat="42.6683990" lon="2.3495100">
        <ele>668.2</ele>
        <time>2020-07-21T11:07:38Z</time>
      </trkpt>
      <trkpt lat="42.6682400" lon="2.3494040">
        <ele>669.2</ele>
        <time>2020-07-21T11:07:43Z</time>
      </trkpt>
      <trkpt lat="42.6681490" lon="2.3493460">
        <ele>669.4</ele>
        <time>2020-07-21T11:07:46Z</time>
      </trkpt>
      <trkpt lat="42.6680340" lon="2.3492600">
        <ele>670.2</ele>
        <time>2020-07-21T11:07:50Z</time>
      </trkpt>
      <trkpt lat="42.6679750" lon="2.3492250">
        <ele>670.4</ele>
        <time>2020-07-21T11:07:52Z</time>
      </trkpt>
      <trkpt lat="42.6678660" lon="2.3491420">
        <ele>671.0</ele>
        <time>2020-07-21T11:07:56Z</time>
      </trkpt>
      <trkpt lat="42.6678040" lon="2.3490970">
        <ele>671.6</ele>
        <time>2020-07-21T11:07:58Z</time>
      </trkpt>
      <trkpt lat="42.6677010" lon="2.3489680">
        <ele>672.4</ele>
        <time>2020-07-21T11:08:02Z</time>
      </trkpt>
      <trkpt lat="42.6676820" lon="2.3489270">
        <ele>672.8</ele>
        <time>2020-07-21T11:08:03Z</time>
      </trkpt>
      <trkpt lat="42.6676540" lon="2.3487210">
        <ele>674.0</ele>
        <time>2020-07-21T11:08:07Z</time>
      </trkpt>
      <trkpt lat="42.6676520" lon="2.3484950">
        <ele>675.2</ele>
        <time>2020-07-21T11:08:12Z</time>
      </trkpt>
      <trkpt lat="42.6676590" lon="2.3484080">
        <ele>675.6</ele>
        <time>2020-07-21T11:08:14Z</time>
      </trkpt>
      <trkpt lat="42.6676760" lon="2.3482780">
        <ele>676.2</ele>
        <time>2020-07-21T11:08:17Z</time>
      </trkpt>
      <trkpt lat="42.6677220" lon="2.3481140">
        <ele>676.2</ele>
        <time>2020-07-21T11:08:21Z</time>
      </trkpt>
      <trkpt lat="42.6677500" lon="2.3480750">
        <ele>676.2</ele>
        <time>2020-07-21T11:08:22Z</time>
      </trkpt>
      <trkpt lat="42.6678560" lon="2.3478750">
        <ele>675.2</ele>
        <time>2020-07-21T11:08:26Z</time>
      </trkpt>
      <trkpt lat="42.6679000" lon="2.3478360">
        <ele>674.8</ele>
        <time>2020-07-21T11:08:27Z</time>
      </trkpt>
      <trkpt lat="42.6680510" lon="2.3477220">
        <ele>673.6</ele>
        <time>2020-07-21T11:08:30Z</time>
      </trkpt>
      <trkpt lat="42.6681090" lon="2.3476890">
        <ele>673.4</ele>
        <time>2020-07-21T11:08:31Z</time>
      </trkpt>
      <trkpt lat="42.6682810" lon="2.3475710">
        <ele>672.6</ele>
        <time>2020-07-21T11:08:34Z</time>
      </trkpt>
      <trkpt lat="42.6684420" lon="2.3474450">
        <ele>672.0</ele>
        <time>2020-07-21T11:08:37Z</time>
      </trkpt>
      <trkpt lat="42.6684950" lon="2.3474070">
        <ele>672.0</ele>
        <time>2020-07-21T11:08:38Z</time>
      </trkpt>
      <trkpt lat="42.6687670" lon="2.3472020">
        <ele>673.0</ele>
        <time>2020-07-21T11:08:44Z</time>
      </trkpt>
      <trkpt lat="42.6688110" lon="2.3471650">
        <ele>673.0</ele>
        <time>2020-07-21T11:08:45Z</time>
      </trkpt>
      <trkpt lat="42.6690620" lon="2.3469370">
        <ele>673.0</ele>
        <time>2020-07-21T11:08:51Z</time>
      </trkpt>
      <trkpt lat="42.6691400" lon="2.3468590">
        <ele>672.8</ele>
        <time>2020-07-21T11:08:53Z</time>
      </trkpt>
      <trkpt lat="42.6691770" lon="2.3468150">
        <ele>672.6</ele>
        <time>2020-07-21T11:08:54Z</time>
      </trkpt>
      <trkpt lat="42.6692120" lon="2.3467690">
        <ele>672.4</ele>
        <time>2020-07-21T11:08:55Z</time>
      </trkpt>
      <trkpt lat="42.6692720" lon="2.3466640">
        <ele>672.2</ele>
        <time>2020-07-21T11:08:57Z</time>
      </trkpt>
      <trkpt lat="42.6692960" lon="2.3466010">
        <ele>671.8</ele>
        <time>2020-07-21T11:08:58Z</time>
      </trkpt>
      <trkpt lat="42.6693570" lon="2.3463860">
        <ele>671.4</ele>
        <time>2020-07-21T11:09:01Z</time>
      </trkpt>
      <trkpt lat="42.6694130" lon="2.3461640">
        <ele>671.0</ele>
        <time>2020-07-21T11:09:04Z</time>
      </trkpt>
      <trkpt lat="42.6695310" lon="2.3457290">
        <ele>671.6</ele>
        <time>2020-07-21T11:09:10Z</time>
      </trkpt>
      <trkpt lat="42.6695680" lon="2.3455910">
        <ele>671.8</ele>
        <time>2020-07-21T11:09:12Z</time>
      </trkpt>
      <trkpt lat="42.6696340" lon="2.3453880">
        <ele>672.0</ele>
        <time>2020-07-21T11:09:15Z</time>
      </trkpt>
      <trkpt lat="42.6697080" lon="2.3452750">
        <ele>672.0</ele>
        <time>2020-07-21T11:09:17Z</time>
      </trkpt>
      <trkpt lat="42.6698000" lon="2.3451810">
        <ele>672.0</ele>
        <time>2020-07-21T11:09:19Z</time>
      </trkpt>
      <trkpt lat="42.6699430" lon="2.3450700">
        <ele>672.8</ele>
        <time>2020-07-21T11:09:22Z</time>
      </trkpt>
      <trkpt lat="42.6700800" lon="2.3449850">
        <ele>673.2</ele>
        <time>2020-07-21T11:09:25Z</time>
      </trkpt>
      <trkpt lat="42.6702600" lon="2.3449110">
        <ele>673.4</ele>
        <time>2020-07-21T11:09:29Z</time>
      </trkpt>
      <trkpt lat="42.6703470" lon="2.3448970">
        <ele>674.0</ele>
        <time>2020-07-21T11:09:31Z</time>
      </trkpt>
      <trkpt lat="42.6703880" lon="2.3448860">
        <ele>674.2</ele>
        <time>2020-07-21T11:09:32Z</time>
      </trkpt>
      <trkpt lat="42.6704680" lon="2.3448400">
        <ele>674.8</ele>
        <time>2020-07-21T11:09:34Z</time>
      </trkpt>
      <trkpt lat="42.6706270" lon="2.3446010">
        <ele>675.0</ele>
        <time>2020-07-21T11:09:39Z</time>
      </trkpt>
      <trkpt lat="42.6706600" lon="2.3445510">
        <ele>675.0</ele>
        <time>2020-07-21T11:09:40Z</time>
      </trkpt>
      <trkpt lat="42.6706950" lon="2.3445060">
        <ele>675.0</ele>
        <time>2020-07-21T11:09:41Z</time>
      </trkpt>
      <trkpt lat="42.6708490" lon="2.3443650">
        <ele>675.6</ele>
        <time>2020-07-21T11:09:45Z</time>
      </trkpt>
      <trkpt lat="42.6710270" lon="2.3442690">
        <ele>676.0</ele>
        <time>2020-07-21T11:09:49Z</time>
      </trkpt>
      <trkpt lat="42.6710720" lon="2.3442500">
        <ele>676.2</ele>
        <time>2020-07-21T11:09:50Z</time>
      </trkpt>
      <trkpt lat="42.6711140" lon="2.3442260">
        <ele>676.4</ele>
        <time>2020-07-21T11:09:51Z</time>
      </trkpt>
      <trkpt lat="42.6711930" lon="2.3441770">
        <ele>676.4</ele>
        <time>2020-07-21T11:09:53Z</time>
      </trkpt>
      <trkpt lat="42.6712540" lon="2.3440970">
        <ele>676.6</ele>
        <time>2020-07-21T11:09:55Z</time>
      </trkpt>
      <trkpt lat="42.6712780" lon="2.3440510">
        <ele>676.8</ele>
        <time>2020-07-21T11:09:56Z</time>
      </trkpt>
      <trkpt lat="42.6712990" lon="2.3440000">
        <ele>677.2</ele>
        <time>2020-07-21T11:09:57Z</time>
      </trkpt>
      <trkpt lat="42.6713910" lon="2.3437270">
        <ele>678.0</ele>
        <time>2020-07-21T11:10:02Z</time>
      </trkpt>
      <trkpt lat="42.6715420" lon="2.3434320">
        <ele>678.4</ele>
        <time>2020-07-21T11:10:08Z</time>
      </trkpt>
      <trkpt lat="42.6715650" lon="2.3433800">
        <ele>678.6</ele>
        <time>2020-07-21T11:10:09Z</time>
      </trkpt>
      <trkpt lat="42.6716400" lon="2.3431540">
        <ele>679.4</ele>
        <time>2020-07-21T11:10:13Z</time>
      </trkpt>
      <trkpt lat="42.6716950" lon="2.3429870">
        <ele>679.8</ele>
        <time>2020-07-21T11:10:16Z</time>
      </trkpt>
      <trkpt lat="42.6717980" lon="2.3427400">
        <ele>680.4</ele>
        <time>2020-07-21T11:10:21Z</time>
      </trkpt>
      <trkpt lat="42.6718870" lon="2.3425520">
        <ele>681.2</ele>
        <time>2020-07-21T11:10:25Z</time>
      </trkpt>
      <trkpt lat="42.6719050" lon="2.3424950">
        <ele>681.4</ele>
        <time>2020-07-21T11:10:26Z</time>
      </trkpt>
      <trkpt lat="42.6719210" lon="2.3424400">
        <ele>681.8</ele>
        <time>2020-07-21T11:10:27Z</time>
      </trkpt>
      <trkpt lat="42.6719610" lon="2.3422630">
        <ele>682.4</ele>
        <time>2020-07-21T11:10:30Z</time>
      </trkpt>
      <trkpt lat="42.6720020" lon="2.3420910">
        <ele>682.8</ele>
        <time>2020-07-21T11:10:33Z</time>
      </trkpt>
      <trkpt lat="42.6720650" lon="2.3418070">
        <ele>683.8</ele>
        <time>2020-07-21T11:10:38Z</time>
      </trkpt>
      <trkpt lat="42.6720760" lon="2.3417490">
        <ele>684.0</ele>
        <time>2020-07-21T11:10:39Z</time>
      </trkpt>
      <trkpt lat="42.6721760" lon="2.3414320">
        <ele>685.0</ele>
        <time>2020-07-21T11:10:45Z</time>
      </trkpt>
      <trkpt lat="42.6721970" lon="2.3413820">
        <ele>685.2</ele>
        <time>2020-07-21T11:10:46Z</time>
      </trkpt>
      <trkpt lat="42.6722800" lon="2.3411790">
        <ele>686.0</ele>
        <time>2020-07-21T11:10:50Z</time>
      </trkpt>
      <trkpt lat="42.6723250" lon="2.3410750">
        <ele>686.4</ele>
        <time>2020-07-21T11:10:52Z</time>
      </trkpt>
      <trkpt lat="42.6724140" lon="2.3409400">
        <ele>686.8</ele>
        <time>2020-07-21T11:10:55Z</time>
      </trkpt>
      <trkpt lat="42.6724470" lon="2.3409040">
        <ele>687.0</ele>
        <time>2020-07-21T11:10:56Z</time>
      </trkpt>
      <trkpt lat="42.6724830" lon="2.3408700">
        <ele>687.2</ele>
        <time>2020-07-21T11:10:57Z</time>
      </trkpt>
      <trkpt lat="42.6726190" lon="2.3407210">
        <ele>687.6</ele>
        <time>2020-07-21T11:11:01Z</time>
      </trkpt>
      <trkpt lat="42.6727450" lon="2.3405560">
        <ele>688.2</ele>
        <time>2020-07-21T11:11:05Z</time>
      </trkpt>
      <trkpt lat="42.6728260" lon="2.3404160">
        <ele>689.0</ele>
        <time>2020-07-21T11:11:08Z</time>
      </trkpt>
      <trkpt lat="42.6728840" lon="2.3403290">
        <ele>689.4</ele>
        <time>2020-07-21T11:11:10Z</time>
      </trkpt>
      <trkpt lat="42.6729160" lon="2.3402890">
        <ele>689.4</ele>
        <time>2020-07-21T11:11:11Z</time>
      </trkpt>
      <trkpt lat="42.6730640" lon="2.3401550">
        <ele>690.0</ele>
        <time>2020-07-21T11:11:15Z</time>
      </trkpt>
      <trkpt lat="42.6731030" lon="2.3401230">
        <ele>690.0</ele>
        <time>2020-07-21T11:11:16Z</time>
      </trkpt>
      <trkpt lat="42.6732970" lon="2.3399430">
        <ele>690.4</ele>
        <time>2020-07-21T11:11:21Z</time>
      </trkpt>
      <trkpt lat="42.6734090" lon="2.3398500">
        <ele>690.8</ele>
        <time>2020-07-21T11:11:24Z</time>
      </trkpt>
      <trkpt lat="42.6734830" lon="2.3397870">
        <ele>691.4</ele>
        <time>2020-07-21T11:11:26Z</time>
      </trkpt>
      <trkpt lat="42.6735210" lon="2.3397610">
        <ele>691.6</ele>
        <time>2020-07-21T11:11:27Z</time>
      </trkpt>
      <trkpt lat="42.6737250" lon="2.3396660">
        <ele>692.0</ele>
        <time>2020-07-21T11:11:32Z</time>
      </trkpt>
      <trkpt lat="42.6738070" lon="2.3396320">
        <ele>692.6</ele>
        <time>2020-07-21T11:11:34Z</time>
      </trkpt>
      <trkpt lat="42.6738910" lon="2.3395880">
        <ele>692.8</ele>
        <time>2020-07-21T11:11:36Z</time>
      </trkpt>
      <trkpt lat="42.6739570" lon="2.3395120">
        <ele>692.8</ele>
        <time>2020-07-21T11:11:38Z</time>
      </trkpt>
      <trkpt lat="42.6739840" lon="2.3392950">
        <ele>692.8</ele>
        <time>2020-07-21T11:11:42Z</time>
      </trkpt>
      <trkpt lat="42.6739300" lon="2.3391350">
        <ele>693.2</ele>
        <time>2020-07-21T11:11:45Z</time>
      </trkpt>
      <trkpt lat="42.6738810" lon="2.3390410">
        <ele>693.8</ele>
        <time>2020-07-21T11:11:47Z</time>
      </trkpt>
      <trkpt lat="42.6738310" lon="2.3389380">
        <ele>694.2</ele>
        <time>2020-07-21T11:11:49Z</time>
      </trkpt>
      <trkpt lat="42.6737300" lon="2.3387170">
        <ele>694.8</ele>
        <time>2020-07-21T11:11:53Z</time>
      </trkpt>
      <trkpt lat="42.6737140" lon="2.3386570">
        <ele>695.0</ele>
        <time>2020-07-21T11:11:54Z</time>
      </trkpt>
      <trkpt lat="42.6737040" lon="2.3385990">
        <ele>695.2</ele>
        <time>2020-07-21T11:11:55Z</time>
      </trkpt>
      <trkpt lat="42.6736980" lon="2.3385390">
        <ele>695.4</ele>
        <time>2020-07-21T11:11:56Z</time>
      </trkpt>
      <trkpt lat="42.6736980" lon="2.3384780">
        <ele>695.6</ele>
        <time>2020-07-21T11:11:57Z</time>
      </trkpt>
      <trkpt lat="42.6737030" lon="2.3384200">
        <ele>695.8</ele>
        <time>2020-07-21T11:11:58Z</time>
      </trkpt>
      <trkpt lat="42.6737110" lon="2.3383620">
        <ele>696.0</ele>
        <time>2020-07-21T11:11:59Z</time>
      </trkpt>
      <trkpt lat="42.6737380" lon="2.3382460">
        <ele>696.6</ele>
        <time>2020-07-21T11:12:01Z</time>
      </trkpt>
      <trkpt lat="42.6737560" lon="2.3381880">
        <ele>697.0</ele>
        <time>2020-07-21T11:12:02Z</time>
      </trkpt>
      <trkpt lat="42.6737980" lon="2.3380750">
        <ele>697.6</ele>
        <time>2020-07-21T11:12:04Z</time>
      </trkpt>
      <trkpt lat="42.6738730" lon="2.3379120">
        <ele>697.8</ele>
        <time>2020-07-21T11:12:07Z</time>
      </trkpt>
      <trkpt lat="42.6739190" lon="2.3378020">
        <ele>698.2</ele>
        <time>2020-07-21T11:12:09Z</time>
      </trkpt>
      <trkpt lat="42.6739810" lon="2.3376410">
        <ele>699.0</ele>
        <time>2020-07-21T11:12:12Z</time>
      </trkpt>
      <trkpt lat="42.6740530" lon="2.3374170">
        <ele>699.4</ele>
        <time>2020-07-21T11:12:16Z</time>
      </trkpt>
      <trkpt lat="42.6741170" lon="2.3371840">
        <ele>699.8</ele>
        <time>2020-07-21T11:12:20Z</time>
      </trkpt>
      <trkpt lat="42.6741950" lon="2.3368890">
        <ele>700.4</ele>
        <time>2020-07-21T11:12:25Z</time>
      </trkpt>
      <trkpt lat="42.6742260" lon="2.3366950">
        <ele>700.8</ele>
        <time>2020-07-21T11:12:28Z</time>
      </trkpt>
      <trkpt lat="42.6742670" lon="2.3365220">
        <ele>701.4</ele>
        <time>2020-07-21T11:12:31Z</time>
      </trkpt>
      <trkpt lat="42.6743440" lon="2.3361820">
        <ele>702.4</ele>
        <time>2020-07-21T11:12:37Z</time>
      </trkpt>
      <trkpt lat="42.6743830" lon="2.3359500">
        <ele>702.4</ele>
        <time>2020-07-21T11:12:41Z</time>
      </trkpt>
      <trkpt lat="42.6743890" lon="2.3358900">
        <ele>702.6</ele>
        <time>2020-07-21T11:12:42Z</time>
      </trkpt>
      <trkpt lat="42.6743940" lon="2.3357110">
        <ele>703.4</ele>
        <time>2020-07-21T11:12:45Z</time>
      </trkpt>
      <trkpt lat="42.6743930" lon="2.3356500">
        <ele>703.6</ele>
        <time>2020-07-21T11:12:46Z</time>
      </trkpt>
      <trkpt lat="42.6743680" lon="2.3352930">
        <ele>704.6</ele>
        <time>2020-07-21T11:12:52Z</time>
      </trkpt>
      <trkpt lat="42.6744010" lon="2.3349260">
        <ele>705.8</ele>
        <time>2020-07-21T11:12:58Z</time>
      </trkpt>
      <trkpt lat="42.6744100" lon="2.3348670">
        <ele>706.2</ele>
        <time>2020-07-21T11:12:59Z</time>
      </trkpt>
      <trkpt lat="42.6744470" lon="2.3347030">
        <ele>706.8</ele>
        <time>2020-07-21T11:13:02Z</time>
      </trkpt>
      <trkpt lat="42.6744990" lon="2.3345430">
        <ele>707.6</ele>
        <time>2020-07-21T11:13:05Z</time>
      </trkpt>
      <trkpt lat="42.6745320" lon="2.3344360">
        <ele>708.0</ele>
        <time>2020-07-21T11:13:07Z</time>
      </trkpt>
      <trkpt lat="42.6746090" lon="2.3342280">
        <ele>709.0</ele>
        <time>2020-07-21T11:13:11Z</time>
      </trkpt>
      <trkpt lat="42.6746840" lon="2.3340220">
        <ele>709.6</ele>
        <time>2020-07-21T11:13:15Z</time>
      </trkpt>
      <trkpt lat="42.6747510" lon="2.3338700">
        <ele>709.8</ele>
        <time>2020-07-21T11:13:18Z</time>
      </trkpt>
      <trkpt lat="42.6747740" lon="2.3338270">
        <ele>710.2</ele>
        <time>2020-07-21T11:13:19Z</time>
      </trkpt>
      <trkpt lat="42.6748760" lon="2.3336680">
        <ele>710.8</ele>
        <time>2020-07-21T11:13:23Z</time>
      </trkpt>
      <trkpt lat="42.6749340" lon="2.3335880">
        <ele>711.4</ele>
        <time>2020-07-21T11:13:25Z</time>
      </trkpt>
      <trkpt lat="42.6750810" lon="2.3333820">
        <ele>712.4</ele>
        <time>2020-07-21T11:13:30Z</time>
      </trkpt>
      <trkpt lat="42.6751770" lon="2.3332710">
        <ele>713.0</ele>
        <time>2020-07-21T11:13:33Z</time>
      </trkpt>
      <trkpt lat="42.6752560" lon="2.3332260">
        <ele>713.4</ele>
        <time>2020-07-21T11:13:35Z</time>
      </trkpt>
      <trkpt lat="42.6753350" lon="2.3331870">
        <ele>713.4</ele>
        <time>2020-07-21T11:13:37Z</time>
      </trkpt>
      <trkpt lat="42.6754130" lon="2.3331580">
        <ele>713.6</ele>
        <time>2020-07-21T11:13:39Z</time>
      </trkpt>
      <trkpt lat="42.6756530" lon="2.3331030">
        <ele>714.4</ele>
        <time>2020-07-21T11:13:45Z</time>
      </trkpt>
      <trkpt lat="42.6757340" lon="2.3330860">
        <ele>714.6</ele>
        <time>2020-07-21T11:13:47Z</time>
      </trkpt>
      <trkpt lat="42.6759290" lon="2.3329940">
        <ele>714.8</ele>
        <time>2020-07-21T11:13:52Z</time>
      </trkpt>
      <trkpt lat="42.6759630" lon="2.3329620">
        <ele>715.0</ele>
        <time>2020-07-21T11:13:53Z</time>
      </trkpt>
      <trkpt lat="42.6760350" lon="2.3328230">
        <ele>715.2</ele>
        <time>2020-07-21T11:13:56Z</time>
      </trkpt>
      <trkpt lat="42.6760450" lon="2.3327680">
        <ele>715.4</ele>
        <time>2020-07-21T11:13:57Z</time>
      </trkpt>
      <trkpt lat="42.6760470" lon="2.3327120">
        <ele>715.6</ele>
        <time>2020-07-21T11:13:58Z</time>
      </trkpt>
      <trkpt lat="42.6760050" lon="2.3325720">
        <ele>715.8</ele>
        <time>2020-07-21T11:14:01Z</time>
      </trkpt>
      <trkpt lat="42.6758270" lon="2.3324300">
        <ele>716.6</ele>
        <time>2020-07-21T11:14:06Z</time>
      </trkpt>
      <trkpt lat="42.6757870" lon="2.3324120">
        <ele>716.6</ele>
        <time>2020-07-21T11:14:07Z</time>
      </trkpt>
      <trkpt lat="42.6755970" lon="2.3323130">
        <ele>718.0</ele>
        <time>2020-07-21T11:14:12Z</time>
      </trkpt>
      <trkpt lat="42.6755560" lon="2.3322980">
        <ele>718.4</ele>
        <time>2020-07-21T11:14:13Z</time>
      </trkpt>
      <trkpt lat="42.6754720" lon="2.3322680">
        <ele>719.0</ele>
        <time>2020-07-21T11:14:15Z</time>
      </trkpt>
      <trkpt lat="42.6752630" lon="2.3322020">
        <ele>720.0</ele>
        <time>2020-07-21T11:14:20Z</time>
      </trkpt>
      <trkpt lat="42.6752230" lon="2.3321920">
        <ele>720.2</ele>
        <time>2020-07-21T11:14:21Z</time>
      </trkpt>
      <trkpt lat="42.6749910" lon="2.3321560">
        <ele>720.2</ele>
        <time>2020-07-21T11:14:27Z</time>
      </trkpt>
      <trkpt lat="42.6749510" lon="2.3321490">
        <ele>720.4</ele>
        <time>2020-07-21T11:14:28Z</time>
      </trkpt>
      <trkpt lat="42.6747170" lon="2.3320970">
        <ele>721.2</ele>
        <time>2020-07-21T11:14:34Z</time>
      </trkpt>
      <trkpt lat="42.6746430" lon="2.3320650">
        <ele>722.0</ele>
        <time>2020-07-21T11:14:36Z</time>
      </trkpt>
      <trkpt lat="42.6746060" lon="2.3320470">
        <ele>722.4</ele>
        <time>2020-07-21T11:14:37Z</time>
      </trkpt>
      <trkpt lat="42.6743910" lon="2.3319200">
        <ele>723.4</ele>
        <time>2020-07-21T11:14:43Z</time>
      </trkpt>
      <trkpt lat="42.6743610" lon="2.3319000">
        <ele>723.4</ele>
        <time>2020-07-21T11:14:44Z</time>
      </trkpt>
      <trkpt lat="42.6742240" lon="2.3317450">
        <ele>724.8</ele>
        <time>2020-07-21T11:14:49Z</time>
      </trkpt>
      <trkpt lat="42.6741530" lon="2.3316190">
        <ele>725.8</ele>
        <time>2020-07-21T11:14:52Z</time>
      </trkpt>
      <trkpt lat="42.6740900" lon="2.3314270">
        <ele>726.6</ele>
        <time>2020-07-21T11:14:56Z</time>
      </trkpt>
      <trkpt lat="42.6740840" lon="2.3313750">
        <ele>726.8</ele>
        <time>2020-07-21T11:14:57Z</time>
      </trkpt>
      <trkpt lat="42.6740930" lon="2.3311600">
        <ele>727.8</ele>
        <time>2020-07-21T11:15:01Z</time>
      </trkpt>
      <trkpt lat="42.6741040" lon="2.3311080">
        <ele>727.8</ele>
        <time>2020-07-21T11:15:02Z</time>
      </trkpt>
      <trkpt lat="42.6741800" lon="2.3308170">
        <ele>728.2</ele>
        <time>2020-07-21T11:15:07Z</time>
      </trkpt>
      <trkpt lat="42.6741950" lon="2.3307560">
        <ele>728.2</ele>
        <time>2020-07-21T11:15:08Z</time>
      </trkpt>
      <trkpt lat="42.6742560" lon="2.3303830">
        <ele>728.6</ele>
        <time>2020-07-21T11:15:14Z</time>
      </trkpt>
      <trkpt lat="42.6742660" lon="2.3303090">
        <ele>728.8</ele>
        <time>2020-07-21T11:15:15Z</time>
      </trkpt>
      <trkpt lat="42.6742790" lon="2.3302350">
        <ele>729.0</ele>
        <time>2020-07-21T11:15:16Z</time>
      </trkpt>
      <trkpt lat="42.6743140" lon="2.3300920">
        <ele>729.2</ele>
        <time>2020-07-21T11:15:18Z</time>
      </trkpt>
      <trkpt lat="42.6743710" lon="2.3299560">
        <ele>729.2</ele>
        <time>2020-07-21T11:15:20Z</time>
      </trkpt>
      <trkpt lat="42.6744960" lon="2.3297940">
        <ele>729.2</ele>
        <time>2020-07-21T11:15:23Z</time>
      </trkpt>
      <trkpt lat="42.6745850" lon="2.3297040">
        <ele>729.4</ele>
        <time>2020-07-21T11:15:25Z</time>
      </trkpt>
      <trkpt lat="42.6748290" lon="2.3294500">
        <ele>730.0</ele>
        <time>2020-07-21T11:15:31Z</time>
      </trkpt>
      <trkpt lat="42.6748650" lon="2.3294020">
        <ele>730.2</ele>
        <time>2020-07-21T11:15:32Z</time>
      </trkpt>
      <trkpt lat="42.6750100" lon="2.3291410">
        <ele>731.2</ele>
        <time>2020-07-21T11:15:37Z</time>
      </trkpt>
      <trkpt lat="42.6750610" lon="2.3290410">
        <ele>731.6</ele>
        <time>2020-07-21T11:15:39Z</time>
      </trkpt>
      <trkpt lat="42.6751450" lon="2.3288210">
        <ele>732.2</ele>
        <time>2020-07-21T11:15:43Z</time>
      </trkpt>
      <trkpt lat="42.6752120" lon="2.3286630">
        <ele>733.2</ele>
        <time>2020-07-21T11:15:46Z</time>
      </trkpt>
      <trkpt lat="42.6752340" lon="2.3286140">
        <ele>733.4</ele>
        <time>2020-07-21T11:15:47Z</time>
      </trkpt>
      <trkpt lat="42.6753570" lon="2.3282960">
        <ele>734.0</ele>
        <time>2020-07-21T11:15:53Z</time>
      </trkpt>
      <trkpt lat="42.6753880" lon="2.3281900">
        <ele>734.0</ele>
        <time>2020-07-21T11:15:55Z</time>
      </trkpt>
      <trkpt lat="42.6754000" lon="2.3281330">
        <ele>734.2</ele>
        <time>2020-07-21T11:15:56Z</time>
      </trkpt>
      <trkpt lat="42.6754570" lon="2.3278540">
        <ele>735.2</ele>
        <time>2020-07-21T11:16:01Z</time>
      </trkpt>
      <trkpt lat="42.6754860" lon="2.3276880">
        <ele>735.4</ele>
        <time>2020-07-21T11:16:04Z</time>
      </trkpt>
      <trkpt lat="42.6755140" lon="2.3274550">
        <ele>736.0</ele>
        <time>2020-07-21T11:16:08Z</time>
      </trkpt>
      <trkpt lat="42.6755260" lon="2.3273360">
        <ele>736.4</ele>
        <time>2020-07-21T11:16:10Z</time>
      </trkpt>
      <trkpt lat="42.6755400" lon="2.3272180">
        <ele>736.6</ele>
        <time>2020-07-21T11:16:12Z</time>
      </trkpt>
      <trkpt lat="42.6755850" lon="2.3269340">
        <ele>737.4</ele>
        <time>2020-07-21T11:16:17Z</time>
      </trkpt>
      <trkpt lat="42.6755890" lon="2.3268290">
        <ele>738.0</ele>
        <time>2020-07-21T11:16:19Z</time>
      </trkpt>
      <trkpt lat="42.6755680" lon="2.3266800">
        <ele>738.8</ele>
        <time>2020-07-21T11:16:22Z</time>
      </trkpt>
      <trkpt lat="42.6755210" lon="2.3265240">
        <ele>739.6</ele>
        <time>2020-07-21T11:16:25Z</time>
      </trkpt>
      <trkpt lat="42.6755090" lon="2.3264690">
        <ele>740.0</ele>
        <time>2020-07-21T11:16:26Z</time>
      </trkpt>
      <trkpt lat="42.6754510" lon="2.3261330">
        <ele>740.8</ele>
        <time>2020-07-21T11:16:32Z</time>
      </trkpt>
      <trkpt lat="42.6754460" lon="2.3258800">
        <ele>741.0</ele>
        <time>2020-07-21T11:16:36Z</time>
      </trkpt>
      <trkpt lat="42.6754580" lon="2.3257470">
        <ele>741.0</ele>
        <time>2020-07-21T11:16:38Z</time>
      </trkpt>
      <trkpt lat="42.6755400" lon="2.3253720">
        <ele>740.4</ele>
        <time>2020-07-21T11:16:44Z</time>
      </trkpt>
      <trkpt lat="42.6755960" lon="2.3251480">
        <ele>740.4</ele>
        <time>2020-07-21T11:16:48Z</time>
      </trkpt>
      <trkpt lat="42.6756390" lon="2.3249800">
        <ele>740.6</ele>
        <time>2020-07-21T11:16:51Z</time>
      </trkpt>
      <trkpt lat="42.6757160" lon="2.3245790">
        <ele>741.2</ele>
        <time>2020-07-21T11:16:57Z</time>
      </trkpt>
      <trkpt lat="42.6757120" lon="2.3245030">
        <ele>741.2</ele>
        <time>2020-07-21T11:16:58Z</time>
      </trkpt>
      <trkpt lat="42.6756910" lon="2.3243110">
        <ele>741.2</ele>
        <time>2020-07-21T11:17:01Z</time>
      </trkpt>
      <trkpt lat="42.6756510" lon="2.3241780">
        <ele>741.2</ele>
        <time>2020-07-21T11:17:03Z</time>
      </trkpt>
      <trkpt lat="42.6755730" lon="2.3237650">
        <ele>741.4</ele>
        <time>2020-07-21T11:17:09Z</time>
      </trkpt>
      <trkpt lat="42.6755340" lon="2.3233330">
        <ele>741.8</ele>
        <time>2020-07-21T11:17:15Z</time>
      </trkpt>
      <trkpt lat="42.6755200" lon="2.3232580">
        <ele>741.8</ele>
        <time>2020-07-21T11:17:16Z</time>
      </trkpt>
      <trkpt lat="42.6754590" lon="2.3229570">
        <ele>742.0</ele>
        <time>2020-07-21T11:17:20Z</time>
      </trkpt>
      <trkpt lat="42.6754070" lon="2.3227630">
        <ele>742.8</ele>
        <time>2020-07-21T11:17:23Z</time>
      </trkpt>
      <trkpt lat="42.6753670" lon="2.3225860">
        <ele>743.4</ele>
        <time>2020-07-21T11:17:26Z</time>
      </trkpt>
      <trkpt lat="42.6753680" lon="2.3224700">
        <ele>743.8</ele>
        <time>2020-07-21T11:17:28Z</time>
      </trkpt>
      <trkpt lat="42.6753780" lon="2.3224140">
        <ele>744.2</ele>
        <time>2020-07-21T11:17:29Z</time>
      </trkpt>
      <trkpt lat="42.6753910" lon="2.3223610">
        <ele>744.6</ele>
        <time>2020-07-21T11:17:30Z</time>
      </trkpt>
      <trkpt lat="42.6754460" lon="2.3222150">
        <ele>745.6</ele>
        <time>2020-07-21T11:17:33Z</time>
      </trkpt>
      <trkpt lat="42.6754830" lon="2.3221260">
        <ele>746.0</ele>
        <time>2020-07-21T11:17:35Z</time>
      </trkpt>
      <trkpt lat="42.6755330" lon="2.3219930">
        <ele>746.6</ele>
        <time>2020-07-21T11:17:38Z</time>
      </trkpt>
      <trkpt lat="42.6755540" lon="2.3219540">
        <ele>747.0</ele>
        <time>2020-07-21T11:17:39Z</time>
      </trkpt>
      <trkpt lat="42.6756210" lon="2.3218400">
        <ele>747.8</ele>
        <time>2020-07-21T11:17:42Z</time>
      </trkpt>
      <trkpt lat="42.6756680" lon="2.3217760">
        <ele>748.0</ele>
        <time>2020-07-21T11:17:44Z</time>
      </trkpt>
      <trkpt lat="42.6758220" lon="2.3216110">
        <ele>748.8</ele>
        <time>2020-07-21T11:17:50Z</time>
      </trkpt>
      <trkpt lat="42.6758930" lon="2.3215230">
        <ele>749.2</ele>
        <time>2020-07-21T11:17:53Z</time>
      </trkpt>
      <trkpt lat="42.6760240" lon="2.3213810">
        <ele>750.2</ele>
        <time>2020-07-21T11:17:58Z</time>
      </trkpt>
      <trkpt lat="42.6760520" lon="2.3213550">
        <ele>750.2</ele>
        <time>2020-07-21T11:17:59Z</time>
      </trkpt>
      <trkpt lat="42.6762240" lon="2.3212180">
        <ele>751.0</ele>
        <time>2020-07-21T11:18:05Z</time>
      </trkpt>
      <trkpt lat="42.6762810" lon="2.3211740">
        <ele>751.4</ele>
        <time>2020-07-21T11:18:07Z</time>
      </trkpt>
      <trkpt lat="42.6764190" lon="2.3210700">
        <ele>752.6</ele>
        <time>2020-07-21T11:18:12Z</time>
      </trkpt>
      <trkpt lat="42.6765260" lon="2.3209800">
        <ele>753.4</ele>
        <time>2020-07-21T11:18:16Z</time>
      </trkpt>
      <trkpt lat="42.6765550" lon="2.3209560">
        <ele>753.6</ele>
        <time>2020-07-21T11:18:17Z</time>
      </trkpt>
      <trkpt lat="42.6767250" lon="2.3208350">
        <ele>754.6</ele>
        <time>2020-07-21T11:18:23Z</time>
      </trkpt>
      <trkpt lat="42.6767510" lon="2.3208180">
        <ele>754.8</ele>
        <time>2020-07-21T11:18:24Z</time>
      </trkpt>
      <trkpt lat="42.6769040" lon="2.3206810">
        <ele>755.8</ele>
        <time>2020-07-21T11:18:30Z</time>
      </trkpt>
      <trkpt lat="42.6769280" lon="2.3206500">
        <ele>756.0</ele>
        <time>2020-07-21T11:18:31Z</time>
      </trkpt>
      <trkpt lat="42.6770600" lon="2.3205020">
        <ele>756.8</ele>
        <time>2020-07-21T11:18:36Z</time>
      </trkpt>
      <trkpt lat="42.6771280" lon="2.3204070">
        <ele>757.8</ele>
        <time>2020-07-21T11:18:39Z</time>
      </trkpt>
      <trkpt lat="42.6771480" lon="2.3203740">
        <ele>758.0</ele>
        <time>2020-07-21T11:18:40Z</time>
      </trkpt>
      <trkpt lat="42.6772510" lon="2.3202250">
        <ele>758.8</ele>
        <time>2020-07-21T11:18:45Z</time>
      </trkpt>
      <trkpt lat="42.6773210" lon="2.3200990">
        <ele>759.2</ele>
        <time>2020-07-21T11:18:49Z</time>
      </trkpt>
      <trkpt lat="42.6773580" lon="2.3200260">
        <ele>759.6</ele>
        <time>2020-07-21T11:18:51Z</time>
      </trkpt>
      <trkpt lat="42.6773760" lon="2.3199900">
        <ele>760.0</ele>
        <time>2020-07-21T11:18:52Z</time>
      </trkpt>
      <trkpt lat="42.6773940" lon="2.3199560">
        <ele>760.4</ele>
        <time>2020-07-21T11:18:53Z</time>
      </trkpt>
      <trkpt lat="42.6774260" lon="2.3198900">
        <ele>761.0</ele>
        <time>2020-07-21T11:18:55Z</time>
      </trkpt>
      <trkpt lat="42.6774440" lon="2.3198560">
        <ele>761.2</ele>
        <time>2020-07-21T11:18:56Z</time>
      </trkpt>
      <trkpt lat="42.6774780" lon="2.3197900">
        <ele>761.6</ele>
        <time>2020-07-21T11:18:58Z</time>
      </trkpt>
      <trkpt lat="42.6775320" lon="2.3196920">
        <ele>762.6</ele>
        <time>2020-07-21T11:19:01Z</time>
      </trkpt>
      <trkpt lat="42.6775530" lon="2.3196630">
        <ele>762.8</ele>
        <time>2020-07-21T11:19:02Z</time>
      </trkpt>
      <trkpt lat="42.6775910" lon="2.3195950">
        <ele>763.0</ele>
        <time>2020-07-21T11:19:04Z</time>
      </trkpt>
      <trkpt lat="42.6776340" lon="2.3194870">
        <ele>763.6</ele>
        <time>2020-07-21T11:19:07Z</time>
      </trkpt>
      <trkpt lat="42.6776460" lon="2.3194490">
        <ele>764.0</ele>
        <time>2020-07-21T11:19:08Z</time>
      </trkpt>
      <trkpt lat="42.6776960" lon="2.3193030">
        <ele>765.2</ele>
        <time>2020-07-21T11:19:12Z</time>
      </trkpt>
      <trkpt lat="42.6777560" lon="2.3191220">
        <ele>766.4</ele>
        <time>2020-07-21T11:19:17Z</time>
      </trkpt>
      <trkpt lat="42.6778090" lon="2.3189230">
        <ele>767.6</ele>
        <time>2020-07-21T11:19:23Z</time>
      </trkpt>
      <trkpt lat="42.6778120" lon="2.3188850">
        <ele>767.6</ele>
        <time>2020-07-21T11:19:24Z</time>
      </trkpt>
      <trkpt lat="42.6778430" lon="2.3186910">
        <ele>768.6</ele>
        <time>2020-07-21T11:19:29Z</time>
      </trkpt>
      <trkpt lat="42.6778510" lon="2.3185690">
        <ele>769.0</ele>
        <time>2020-07-21T11:19:32Z</time>
      </trkpt>
      <trkpt lat="42.6778570" lon="2.3184460">
        <ele>769.6</ele>
        <time>2020-07-21T11:19:35Z</time>
      </trkpt>
      <trkpt lat="42.6778620" lon="2.3181870">
        <ele>770.4</ele>
        <time>2020-07-21T11:19:41Z</time>
      </trkpt>
      <trkpt lat="42.6778570" lon="2.3180970">
        <ele>770.6</ele>
        <time>2020-07-21T11:19:43Z</time>
      </trkpt>
      <trkpt lat="42.6778390" lon="2.3178690">
        <ele>771.0</ele>
        <time>2020-07-21T11:19:48Z</time>
      </trkpt>
      <trkpt lat="42.6778300" lon="2.3177260">
        <ele>771.8</ele>
        <time>2020-07-21T11:19:51Z</time>
      </trkpt>
      <trkpt lat="42.6778430" lon="2.3175450">
        <ele>772.6</ele>
        <time>2020-07-21T11:19:55Z</time>
      </trkpt>
      <trkpt lat="42.6778480" lon="2.3174970">
        <ele>772.8</ele>
        <time>2020-07-21T11:19:56Z</time>
      </trkpt>
      <trkpt lat="42.6778770" lon="2.3172230">
        <ele>773.8</ele>
        <time>2020-07-21T11:20:02Z</time>
      </trkpt>
      <trkpt lat="42.6778810" lon="2.3171810">
        <ele>774.0</ele>
        <time>2020-07-21T11:20:03Z</time>
      </trkpt>
      <trkpt lat="42.6778950" lon="2.3169080">
        <ele>775.0</ele>
        <time>2020-07-21T11:20:09Z</time>
      </trkpt>
      <trkpt lat="42.6778940" lon="2.3168590">
        <ele>775.0</ele>
        <time>2020-07-21T11:20:10Z</time>
      </trkpt>
      <trkpt lat="42.6778970" lon="2.3168130">
        <ele>775.2</ele>
        <time>2020-07-21T11:20:11Z</time>
      </trkpt>
      <trkpt lat="42.6779090" lon="2.3165800">
        <ele>776.2</ele>
        <time>2020-07-21T11:20:16Z</time>
      </trkpt>
      <trkpt lat="42.6779070" lon="2.3164720">
        <ele>776.8</ele>
        <time>2020-07-21T11:20:19Z</time>
      </trkpt>
      <trkpt lat="42.6779200" lon="2.3163530">
        <ele>777.2</ele>
        <time>2020-07-21T11:20:24Z</time>
      </trkpt>
      <trkpt lat="42.6779230" lon="2.3163140">
        <ele>777.4</ele>
        <time>2020-07-21T11:20:25Z</time>
      </trkpt>
      <trkpt lat="42.6779480" lon="2.3160590">
        <ele>778.2</ele>
        <time>2020-07-21T11:20:31Z</time>
      </trkpt>
      <trkpt lat="42.6779490" lon="2.3160150">
        <ele>778.6</ele>
        <time>2020-07-21T11:20:32Z</time>
      </trkpt>
      <trkpt lat="42.6779540" lon="2.3158390">
        <ele>779.4</ele>
        <time>2020-07-21T11:20:36Z</time>
      </trkpt>
      <trkpt lat="42.6779580" lon="2.3157960">
        <ele>779.6</ele>
        <time>2020-07-21T11:20:37Z</time>
      </trkpt>
      <trkpt lat="42.6779920" lon="2.3155920">
        <ele>780.8</ele>
        <time>2020-07-21T11:20:42Z</time>
      </trkpt>
      <trkpt lat="42.6780730" lon="2.3153660">
        <ele>781.6</ele>
        <time>2020-07-21T11:20:48Z</time>
      </trkpt>
      <trkpt lat="42.6780880" lon="2.3153280">
        <ele>782.0</ele>
        <time>2020-07-21T11:20:49Z</time>
      </trkpt>
      <trkpt lat="42.6780990" lon="2.3152910">
        <ele>782.4</ele>
        <time>2020-07-21T11:20:50Z</time>
      </trkpt>
      <trkpt lat="42.6781250" lon="2.3152160">
        <ele>783.4</ele>
        <time>2020-07-21T11:20:52Z</time>
      </trkpt>
      <trkpt lat="42.6782050" lon="2.3150360">
        <ele>784.4</ele>
        <time>2020-07-21T11:20:57Z</time>
      </trkpt>
      <trkpt lat="42.6782180" lon="2.3149990">
        <ele>784.6</ele>
        <time>2020-07-21T11:20:58Z</time>
      </trkpt>
      <trkpt lat="42.6782580" lon="2.3148920">
        <ele>785.6</ele>
        <time>2020-07-21T11:21:01Z</time>
      </trkpt>
      <trkpt lat="42.6782980" lon="2.3147860">
        <ele>786.2</ele>
        <time>2020-07-21T11:21:04Z</time>
      </trkpt>
      <trkpt lat="42.6783090" lon="2.3147580">
        <ele>786.6</ele>
        <time>2020-07-21T11:21:05Z</time>
      </trkpt>
      <trkpt lat="42.6783560" lon="2.3146180">
        <ele>787.8</ele>
        <time>2020-07-21T11:21:09Z</time>
      </trkpt>
      <trkpt lat="42.6783760" lon="2.3145270">
        <ele>788.0</ele>
        <time>2020-07-21T11:21:11Z</time>
      </trkpt>
      <trkpt lat="42.6783820" lon="2.3143440">
        <ele>788.8</ele>
        <time>2020-07-21T11:21:15Z</time>
      </trkpt>
      <trkpt lat="42.6783650" lon="2.3142160">
        <ele>789.2</ele>
        <time>2020-07-21T11:21:18Z</time>
      </trkpt>
      <trkpt lat="42.6783580" lon="2.3141310">
        <ele>789.8</ele>
        <time>2020-07-21T11:21:20Z</time>
      </trkpt>
      <trkpt lat="42.6783560" lon="2.3138720">
        <ele>791.0</ele>
        <time>2020-07-21T11:21:26Z</time>
      </trkpt>
      <trkpt lat="42.6783610" lon="2.3138310">
        <ele>791.4</ele>
        <time>2020-07-21T11:21:27Z</time>
      </trkpt>
      <trkpt lat="42.6783840" lon="2.3136730">
        <ele>792.2</ele>
        <time>2020-07-21T11:21:31Z</time>
      </trkpt>
      <trkpt lat="42.6784110" lon="2.3135120">
        <ele>792.8</ele>
        <time>2020-07-21T11:21:35Z</time>
      </trkpt>
      <trkpt lat="42.6784220" lon="2.3134290">
        <ele>793.2</ele>
        <time>2020-07-21T11:21:37Z</time>
      </trkpt>
      <trkpt lat="42.6784400" lon="2.3131730">
        <ele>794.2</ele>
        <time>2020-07-21T11:21:43Z</time>
      </trkpt>
      <trkpt lat="42.6784460" lon="2.3131330">
        <ele>794.2</ele>
        <time>2020-07-21T11:21:44Z</time>
      </trkpt>
      <trkpt lat="42.6784650" lon="2.3129630">
        <ele>795.6</ele>
        <time>2020-07-21T11:21:48Z</time>
      </trkpt>
      <trkpt lat="42.6784800" lon="2.3128380">
        <ele>796.2</ele>
        <time>2020-07-21T11:21:51Z</time>
      </trkpt>
      <trkpt lat="42.6784920" lon="2.3127530">
        <ele>796.6</ele>
        <time>2020-07-21T11:21:53Z</time>
      </trkpt>
      <trkpt lat="42.6785300" lon="2.3125090">
        <ele>797.6</ele>
        <time>2020-07-21T11:21:59Z</time>
      </trkpt>
      <trkpt lat="42.6785340" lon="2.3124670">
        <ele>797.8</ele>
        <time>2020-07-21T11:22:00Z</time>
      </trkpt>
      <trkpt lat="42.6785860" lon="2.3122100">
        <ele>799.0</ele>
        <time>2020-07-21T11:22:06Z</time>
      </trkpt>
      <trkpt lat="42.6785960" lon="2.3121670">
        <ele>799.4</ele>
        <time>2020-07-21T11:22:07Z</time>
      </trkpt>
      <trkpt lat="42.6786300" lon="2.3120520">
        <ele>800.2</ele>
        <time>2020-07-21T11:22:10Z</time>
      </trkpt>
      <trkpt lat="42.6786940" lon="2.3118240">
        <ele>801.0</ele>
        <time>2020-07-21T11:22:16Z</time>
      </trkpt>
      <trkpt lat="42.6787050" lon="2.3117860">
        <ele>801.2</ele>
        <time>2020-07-21T11:22:17Z</time>
      </trkpt>
      <trkpt lat="42.6787550" lon="2.3116380">
        <ele>802.2</ele>
        <time>2020-07-21T11:22:21Z</time>
      </trkpt>
      <trkpt lat="42.6787860" lon="2.3114850">
        <ele>802.8</ele>
        <time>2020-07-21T11:22:25Z</time>
      </trkpt>
      <trkpt lat="42.6787960" lon="2.3114100">
        <ele>803.4</ele>
        <time>2020-07-21T11:22:27Z</time>
      </trkpt>
      <trkpt lat="42.6788280" lon="2.3112380">
        <ele>804.2</ele>
        <time>2020-07-21T11:22:32Z</time>
      </trkpt>
      <trkpt lat="42.6788340" lon="2.3112050">
        <ele>804.4</ele>
        <time>2020-07-21T11:22:33Z</time>
      </trkpt>
      <trkpt lat="42.6788400" lon="2.3111710">
        <ele>804.4</ele>
        <time>2020-07-21T11:22:34Z</time>
      </trkpt>
      <trkpt lat="42.6788630" lon="2.3109900">
        <ele>805.6</ele>
        <time>2020-07-21T11:22:40Z</time>
      </trkpt>
      <trkpt lat="42.6788690" lon="2.3109590">
        <ele>805.6</ele>
        <time>2020-07-21T11:22:41Z</time>
      </trkpt>
      <trkpt lat="42.6789140" lon="2.3107500">
        <ele>806.6</ele>
        <time>2020-07-21T11:22:47Z</time>
      </trkpt>
      <trkpt lat="42.6789310" lon="2.3106730">
        <ele>807.0</ele>
        <time>2020-07-21T11:22:49Z</time>
      </trkpt>
      <trkpt lat="42.6789710" lon="2.3105190">
        <ele>807.8</ele>
        <time>2020-07-21T11:22:53Z</time>
      </trkpt>
      <trkpt lat="42.6790190" lon="2.3103800">
        <ele>808.4</ele>
        <time>2020-07-21T11:22:57Z</time>
      </trkpt>
      <trkpt lat="42.6790430" lon="2.3103020">
        <ele>808.8</ele>
        <time>2020-07-21T11:22:59Z</time>
      </trkpt>
      <trkpt lat="42.6790940" lon="2.3101550">
        <ele>810.0</ele>
        <time>2020-07-21T11:23:03Z</time>
      </trkpt>
      <trkpt lat="42.6791020" lon="2.3101200">
        <ele>810.2</ele>
        <time>2020-07-21T11:23:04Z</time>
      </trkpt>
      <trkpt lat="42.6791180" lon="2.3100080">
        <ele>810.6</ele>
        <time>2020-07-21T11:23:07Z</time>
      </trkpt>
      <trkpt lat="42.6792100" lon="2.3092790">
        <ele>813.6</ele>
        <time>2020-07-21T11:27:12Z</time>
      </trkpt>
      <trkpt lat="42.6792140" lon="2.3092510">
        <ele>813.8</ele>
        <time>2020-07-21T11:27:13Z</time>
      </trkpt>
      <trkpt lat="42.6792180" lon="2.3092240">
        <ele>814.0</ele>
        <time>2020-07-21T11:27:14Z</time>
      </trkpt>
      <trkpt lat="42.6792410" lon="2.3090780">
        <ele>814.6</ele>
        <time>2020-07-21T11:27:19Z</time>
      </trkpt>
      <trkpt lat="42.6792590" lon="2.3089770">
        <ele>815.2</ele>
        <time>2020-07-21T11:27:22Z</time>
      </trkpt>
      <trkpt lat="42.6792590" lon="2.3089020">
        <ele>815.6</ele>
        <time>2020-07-21T11:27:24Z</time>
      </trkpt>
      <trkpt lat="42.6792600" lon="2.3088710">
        <ele>816.0</ele>
        <time>2020-07-21T11:27:25Z</time>
      </trkpt>
      <trkpt lat="42.6792460" lon="2.3087350">
        <ele>817.0</ele>
        <time>2020-07-21T11:27:29Z</time>
      </trkpt>
      <trkpt lat="42.6792050" lon="2.3085480">
        <ele>817.8</ele>
        <time>2020-07-21T11:27:35Z</time>
      </trkpt>
      <trkpt lat="42.6791800" lon="2.3084230">
        <ele>818.4</ele>
        <time>2020-07-21T11:27:39Z</time>
      </trkpt>
      <trkpt lat="42.6791730" lon="2.3083520">
        <ele>819.0</ele>
        <time>2020-07-21T11:27:41Z</time>
      </trkpt>
      <trkpt lat="42.6791580" lon="2.3083260">
        <ele>819.4</ele>
        <time>2020-07-21T11:27:42Z</time>
      </trkpt>
      <trkpt lat="42.6791480" lon="2.3082930">
        <ele>819.6</ele>
        <time>2020-07-21T11:27:43Z</time>
      </trkpt>
      <trkpt lat="42.6791330" lon="2.3081670">
        <ele>820.2</ele>
        <time>2020-07-21T11:27:47Z</time>
      </trkpt>
      <trkpt lat="42.6791290" lon="2.3080990">
        <ele>820.8</ele>
        <time>2020-07-21T11:27:49Z</time>
      </trkpt>
      <trkpt lat="42.6791280" lon="2.3079020">
        <ele>821.8</ele>
        <time>2020-07-21T11:27:55Z</time>
      </trkpt>
      <trkpt lat="42.6791180" lon="2.3077170">
        <ele>822.6</ele>
        <time>2020-07-21T11:28:01Z</time>
      </trkpt>
      <trkpt lat="42.6791140" lon="2.3076900">
        <ele>822.8</ele>
        <time>2020-07-21T11:28:02Z</time>
      </trkpt>
      <trkpt lat="42.6791050" lon="2.3076290">
        <ele>823.0</ele>
        <time>2020-07-21T11:28:04Z</time>
      </trkpt>
      <trkpt lat="42.6790950" lon="2.3075740">
        <ele>823.2</ele>
        <time>2020-07-21T11:28:06Z</time>
      </trkpt>
      <trkpt lat="42.6790860" lon="2.3074750">
        <ele>823.4</ele>
        <time>2020-07-21T11:28:09Z</time>
      </trkpt>
      <trkpt lat="42.6790730" lon="2.3073370">
        <ele>824.2</ele>
        <time>2020-07-21T11:28:13Z</time>
      </trkpt>
      <trkpt lat="42.6790660" lon="2.3072660">
        <ele>824.4</ele>
        <time>2020-07-21T11:28:15Z</time>
      </trkpt>
      <trkpt lat="42.6790500" lon="2.3071080">
        <ele>825.4</ele>
        <time>2020-07-21T11:28:20Z</time>
      </trkpt>
      <trkpt lat="42.6790450" lon="2.3070110">
        <ele>826.0</ele>
        <time>2020-07-21T11:28:23Z</time>
      </trkpt>
      <trkpt lat="42.6790430" lon="2.3069760">
        <ele>826.4</ele>
        <time>2020-07-21T11:28:24Z</time>
      </trkpt>
      <trkpt lat="42.6790290" lon="2.3067710">
        <ele>827.2</ele>
        <time>2020-07-21T11:28:30Z</time>
      </trkpt>
      <trkpt lat="42.6790270" lon="2.3067020">
        <ele>827.4</ele>
        <time>2020-07-21T11:28:32Z</time>
      </trkpt>
      <trkpt lat="42.6790300" lon="2.3064650">
        <ele>828.0</ele>
        <time>2020-07-21T11:28:38Z</time>
      </trkpt>
      <trkpt lat="42.6790390" lon="2.3063960">
        <ele>828.2</ele>
        <time>2020-07-21T11:28:40Z</time>
      </trkpt>
      <trkpt lat="42.6790510" lon="2.3063310">
        <ele>828.6</ele>
        <time>2020-07-21T11:28:42Z</time>
      </trkpt>
      <trkpt lat="42.6790810" lon="2.3061980">
        <ele>829.8</ele>
        <time>2020-07-21T11:28:46Z</time>
      </trkpt>
      <trkpt lat="42.6790870" lon="2.3061630">
        <ele>829.8</ele>
        <time>2020-07-21T11:28:47Z</time>
      </trkpt>
      <trkpt lat="42.6791380" lon="2.3059440">
        <ele>830.6</ele>
        <time>2020-07-21T11:28:53Z</time>
      </trkpt>
      <trkpt lat="42.6791430" lon="2.3059090">
        <ele>831.0</ele>
        <time>2020-07-21T11:28:54Z</time>
      </trkpt>
      <trkpt lat="42.6791510" lon="2.3057710">
        <ele>832.0</ele>
        <time>2020-07-21T11:28:58Z</time>
      </trkpt>
      <trkpt lat="42.6791400" lon="2.3056740">
        <ele>832.8</ele>
        <time>2020-07-21T11:29:01Z</time>
      </trkpt>
      <trkpt lat="42.6791360" lon="2.3056430">
        <ele>833.0</ele>
        <time>2020-07-21T11:29:02Z</time>
      </trkpt>
      <trkpt lat="42.6791180" lon="2.3055420">
        <ele>833.4</ele>
        <time>2020-07-21T11:29:05Z</time>
      </trkpt>
      <trkpt lat="42.6791140" lon="2.3055080">
        <ele>833.6</ele>
        <time>2020-07-21T11:29:06Z</time>
      </trkpt>
      <trkpt lat="42.6791040" lon="2.3054300">
        <ele>834.2</ele>
        <time>2020-07-21T11:29:08Z</time>
      </trkpt>
      <trkpt lat="42.6791000" lon="2.3053930">
        <ele>834.4</ele>
        <time>2020-07-21T11:29:09Z</time>
      </trkpt>
      <trkpt lat="42.6790990" lon="2.3051580">
        <ele>835.0</ele>
        <time>2020-07-21T11:29:15Z</time>
      </trkpt>
      <trkpt lat="42.6790980" lon="2.3051210">
        <ele>835.4</ele>
        <time>2020-07-21T11:29:16Z</time>
      </trkpt>
      <trkpt lat="42.6791000" lon="2.3050870">
        <ele>835.6</ele>
        <time>2020-07-21T11:29:17Z</time>
      </trkpt>
      <trkpt lat="42.6791230" lon="2.3049110">
        <ele>836.4</ele>
        <time>2020-07-21T11:29:22Z</time>
      </trkpt>
      <trkpt lat="42.6791320" lon="2.3048770">
        <ele>836.6</ele>
        <time>2020-07-21T11:29:23Z</time>
      </trkpt>
      <trkpt lat="42.6791640" lon="2.3047680">
        <ele>837.2</ele>
        <time>2020-07-21T11:29:26Z</time>
      </trkpt>
      <trkpt lat="42.6791740" lon="2.3047320">
        <ele>837.4</ele>
        <time>2020-07-21T11:29:27Z</time>
      </trkpt>
      <trkpt lat="42.6791880" lon="2.3046930">
        <ele>837.6</ele>
        <time>2020-07-21T11:29:28Z</time>
      </trkpt>
      <trkpt lat="42.6792020" lon="2.3046570">
        <ele>837.8</ele>
        <time>2020-07-21T11:29:29Z</time>
      </trkpt>
      <trkpt lat="42.6792340" lon="2.3045830">
        <ele>838.4</ele>
        <time>2020-07-21T11:29:31Z</time>
      </trkpt>
      <trkpt lat="42.6792480" lon="2.3045480">
        <ele>838.6</ele>
        <time>2020-07-21T11:29:32Z</time>
      </trkpt>
      <trkpt lat="42.6793220" lon="2.3043700">
        <ele>839.6</ele>
        <time>2020-07-21T11:29:37Z</time>
      </trkpt>
      <trkpt lat="42.6793570" lon="2.3042560">
        <ele>840.2</ele>
        <time>2020-07-21T11:29:40Z</time>
      </trkpt>
      <trkpt lat="42.6793850" lon="2.3041050">
        <ele>840.8</ele>
        <time>2020-07-21T11:29:44Z</time>
      </trkpt>
      <trkpt lat="42.6793910" lon="2.3040330">
        <ele>841.2</ele>
        <time>2020-07-21T11:29:46Z</time>
      </trkpt>
      <trkpt lat="42.6793880" lon="2.3039200">
        <ele>841.4</ele>
        <time>2020-07-21T11:29:49Z</time>
      </trkpt>
      <trkpt lat="42.6793870" lon="2.3038790">
        <ele>841.6</ele>
        <time>2020-07-21T11:29:50Z</time>
      </trkpt>
      <trkpt lat="42.6793840" lon="2.3037980">
        <ele>842.0</ele>
        <time>2020-07-21T11:29:52Z</time>
      </trkpt>
      <trkpt lat="42.6793830" lon="2.3037550">
        <ele>842.4</ele>
        <time>2020-07-21T11:29:53Z</time>
      </trkpt>
      <trkpt lat="42.6793880" lon="2.3036340">
        <ele>843.4</ele>
        <time>2020-07-21T11:29:56Z</time>
      </trkpt>
      <trkpt lat="42.6793950" lon="2.3035530">
        <ele>843.8</ele>
        <time>2020-07-21T11:29:58Z</time>
      </trkpt>
      <trkpt lat="42.6794100" lon="2.3034280">
        <ele>844.6</ele>
        <time>2020-07-21T11:30:01Z</time>
      </trkpt>
      <trkpt lat="42.6794210" lon="2.3033510">
        <ele>845.4</ele>
        <time>2020-07-21T11:30:03Z</time>
      </trkpt>
      <trkpt lat="42.6794300" lon="2.3033140">
        <ele>845.6</ele>
        <time>2020-07-21T11:30:04Z</time>
      </trkpt>
      <trkpt lat="42.6794640" lon="2.3031570">
        <ele>846.8</ele>
        <time>2020-07-21T11:30:08Z</time>
      </trkpt>
      <trkpt lat="42.6794860" lon="2.3030800">
        <ele>847.2</ele>
        <time>2020-07-21T11:30:10Z</time>
      </trkpt>
      <trkpt lat="42.6795160" lon="2.3029130">
        <ele>847.8</ele>
        <time>2020-07-21T11:30:14Z</time>
      </trkpt>
      <trkpt lat="42.6795170" lon="2.3027820">
        <ele>848.6</ele>
        <time>2020-07-21T11:30:17Z</time>
      </trkpt>
      <trkpt lat="42.6795130" lon="2.3026480">
        <ele>849.0</ele>
        <time>2020-07-21T11:30:20Z</time>
      </trkpt>
      <trkpt lat="42.6795090" lon="2.3024840">
        <ele>850.0</ele>
        <time>2020-07-21T11:30:24Z</time>
      </trkpt>
      <trkpt lat="42.6795120" lon="2.3024020">
        <ele>850.6</ele>
        <time>2020-07-21T11:30:26Z</time>
      </trkpt>
      <trkpt lat="42.6795180" lon="2.3022800">
        <ele>851.2</ele>
        <time>2020-07-21T11:30:29Z</time>
      </trkpt>
      <trkpt lat="42.6795520" lon="2.3020920">
        <ele>851.8</ele>
        <time>2020-07-21T11:30:34Z</time>
      </trkpt>
      <trkpt lat="42.6796050" lon="2.3018440">
        <ele>852.4</ele>
        <time>2020-07-21T11:30:40Z</time>
      </trkpt>
      <trkpt lat="42.6796210" lon="2.3016430">
        <ele>853.6</ele>
        <time>2020-07-21T11:30:45Z</time>
      </trkpt>
      <trkpt lat="42.6796330" lon="2.3013920">
        <ele>854.4</ele>
        <time>2020-07-21T11:30:51Z</time>
      </trkpt>
      <trkpt lat="42.6796370" lon="2.3013480">
        <ele>854.6</ele>
        <time>2020-07-21T11:30:52Z</time>
      </trkpt>
      <trkpt lat="42.6796420" lon="2.3013060">
        <ele>855.0</ele>
        <time>2020-07-21T11:30:53Z</time>
      </trkpt>
      <trkpt lat="42.6796730" lon="2.3011380">
        <ele>855.8</ele>
        <time>2020-07-21T11:30:57Z</time>
      </trkpt>
      <trkpt lat="42.6797120" lon="2.3009790">
        <ele>856.8</ele>
        <time>2020-07-21T11:31:01Z</time>
      </trkpt>
      <trkpt lat="42.6797530" lon="2.3007440">
        <ele>858.2</ele>
        <time>2020-07-21T11:31:07Z</time>
      </trkpt>
      <trkpt lat="42.6797590" lon="2.3007050">
        <ele>858.6</ele>
        <time>2020-07-21T11:31:08Z</time>
      </trkpt>
      <trkpt lat="42.6797760" lon="2.3005880">
        <ele>859.2</ele>
        <time>2020-07-21T11:31:11Z</time>
      </trkpt>
      <trkpt lat="42.6797930" lon="2.3003490">
        <ele>860.4</ele>
        <time>2020-07-21T11:31:17Z</time>
      </trkpt>
      <trkpt lat="42.6797940" lon="2.3003080">
        <ele>860.6</ele>
        <time>2020-07-21T11:31:18Z</time>
      </trkpt>
      <trkpt lat="42.6798110" lon="2.3001460">
        <ele>861.4</ele>
        <time>2020-07-21T11:31:22Z</time>
      </trkpt>
      <trkpt lat="42.6798240" lon="2.2999870">
        <ele>862.2</ele>
        <time>2020-07-21T11:31:26Z</time>
      </trkpt>
      <trkpt lat="42.6798320" lon="2.2999480">
        <ele>862.6</ele>
        <time>2020-07-21T11:31:27Z</time>
      </trkpt>
      <trkpt lat="42.6799050" lon="2.2997780">
        <ele>863.4</ele>
        <time>2020-07-21T11:31:32Z</time>
      </trkpt>
      <trkpt lat="42.6799240" lon="2.2997460">
        <ele>863.8</ele>
        <time>2020-07-21T11:31:33Z</time>
      </trkpt>
      <trkpt lat="42.6799990" lon="2.2996280">
        <ele>864.8</ele>
        <time>2020-07-21T11:31:37Z</time>
      </trkpt>
      <trkpt lat="42.6800330" lon="2.2995750">
        <ele>865.0</ele>
        <time>2020-07-21T11:31:39Z</time>
      </trkpt>
      <trkpt lat="42.6801030" lon="2.2994110">
        <ele>866.2</ele>
        <time>2020-07-21T11:31:44Z</time>
      </trkpt>
      <trkpt lat="42.6801140" lon="2.2993760">
        <ele>866.4</ele>
        <time>2020-07-21T11:31:45Z</time>
      </trkpt>
      <trkpt lat="42.6801350" lon="2.2992660">
        <ele>867.2</ele>
        <time>2020-07-21T11:31:48Z</time>
      </trkpt>
      <trkpt lat="42.6801420" lon="2.2991100">
        <ele>868.2</ele>
        <time>2020-07-21T11:31:52Z</time>
      </trkpt>
      <trkpt lat="42.6801730" lon="2.2989720">
        <ele>869.2</ele>
        <time>2020-07-21T11:31:56Z</time>
      </trkpt>
      <trkpt lat="42.6801840" lon="2.2989380">
        <ele>869.4</ele>
        <time>2020-07-21T11:31:57Z</time>
      </trkpt>
      <trkpt lat="42.6801950" lon="2.2989050">
        <ele>869.6</ele>
        <time>2020-07-21T11:31:58Z</time>
      </trkpt>
      <trkpt lat="42.6802360" lon="2.2988060">
        <ele>870.4</ele>
        <time>2020-07-21T11:32:01Z</time>
      </trkpt>
      <trkpt lat="42.6802730" lon="2.2986680">
        <ele>871.6</ele>
        <time>2020-07-21T11:32:05Z</time>
      </trkpt>
      <trkpt lat="42.6803150" lon="2.2984560">
        <ele>872.6</ele>
        <time>2020-07-21T11:32:10Z</time>
      </trkpt>
      <trkpt lat="42.6803180" lon="2.2983280">
        <ele>873.4</ele>
        <time>2020-07-21T11:32:13Z</time>
      </trkpt>
      <trkpt lat="42.6803190" lon="2.2982830">
        <ele>873.6</ele>
        <time>2020-07-21T11:32:14Z</time>
      </trkpt>
      <trkpt lat="42.6803280" lon="2.2980290">
        <ele>874.6</ele>
        <time>2020-07-21T11:32:20Z</time>
      </trkpt>
      <trkpt lat="42.6803300" lon="2.2979940">
        <ele>874.8</ele>
        <time>2020-07-21T11:32:21Z</time>
      </trkpt>
      <trkpt lat="42.6803290" lon="2.2979620">
        <ele>875.2</ele>
        <time>2020-07-21T11:32:22Z</time>
      </trkpt>
      <trkpt lat="42.6803190" lon="2.2978950">
        <ele>875.8</ele>
        <time>2020-07-21T11:32:25Z</time>
      </trkpt>
      <trkpt lat="42.6803220" lon="2.2976910">
        <ele>876.0</ele>
        <time>2020-07-21T11:34:21Z</time>
      </trkpt>
      <trkpt lat="42.6803370" lon="2.2976620">
        <ele>876.0</ele>
        <time>2020-07-21T11:34:22Z</time>
      </trkpt>
      <trkpt lat="42.6803940" lon="2.2975320">
        <ele>877.0</ele>
        <time>2020-07-21T11:34:26Z</time>
      </trkpt>
      <trkpt lat="42.6804540" lon="2.2973840">
        <ele>878.2</ele>
        <time>2020-07-21T11:34:30Z</time>
      </trkpt>
      <trkpt lat="42.6804900" lon="2.2972250">
        <ele>879.4</ele>
        <time>2020-07-21T11:34:34Z</time>
      </trkpt>
      <trkpt lat="42.6805030" lon="2.2971130">
        <ele>880.0</ele>
        <time>2020-07-21T11:34:37Z</time>
      </trkpt>
      <trkpt lat="42.6805040" lon="2.2970750">
        <ele>880.4</ele>
        <time>2020-07-21T11:34:38Z</time>
      </trkpt>
      <trkpt lat="42.6805110" lon="2.2968790">
        <ele>881.8</ele>
        <time>2020-07-21T11:34:43Z</time>
      </trkpt>
      <trkpt lat="42.6805120" lon="2.2967220">
        <ele>882.8</ele>
        <time>2020-07-21T11:34:47Z</time>
      </trkpt>
      <trkpt lat="42.6805130" lon="2.2966830">
        <ele>883.0</ele>
        <time>2020-07-21T11:34:48Z</time>
      </trkpt>
      <trkpt lat="42.6805220" lon="2.2965250">
        <ele>883.8</ele>
        <time>2020-07-21T11:34:52Z</time>
      </trkpt>
      <trkpt lat="42.6805210" lon="2.2964060">
        <ele>884.8</ele>
        <time>2020-07-21T11:34:55Z</time>
      </trkpt>
      <trkpt lat="42.6805200" lon="2.2963680">
        <ele>885.2</ele>
        <time>2020-07-21T11:34:56Z</time>
      </trkpt>
      <trkpt lat="42.6805180" lon="2.2962940">
        <ele>885.8</ele>
        <time>2020-07-21T11:34:58Z</time>
      </trkpt>
      <trkpt lat="42.6805130" lon="2.2961780">
        <ele>886.2</ele>
        <time>2020-07-21T11:35:01Z</time>
      </trkpt>
      <trkpt lat="42.6805100" lon="2.2961030">
        <ele>886.2</ele>
        <time>2020-07-21T11:35:03Z</time>
      </trkpt>
      <trkpt lat="42.6805180" lon="2.2959120">
        <ele>887.2</ele>
        <time>2020-07-21T11:35:08Z</time>
      </trkpt>
      <trkpt lat="42.6805210" lon="2.2958720">
        <ele>887.4</ele>
        <time>2020-07-21T11:35:09Z</time>
      </trkpt>
      <trkpt lat="42.6805710" lon="2.2956440">
        <ele>888.4</ele>
        <time>2020-07-21T11:35:15Z</time>
      </trkpt>
      <trkpt lat="42.6805830" lon="2.2956100">
        <ele>888.6</ele>
        <time>2020-07-21T11:35:16Z</time>
      </trkpt>
      <trkpt lat="42.6806360" lon="2.2954760">
        <ele>889.8</ele>
        <time>2020-07-21T11:35:20Z</time>
      </trkpt>
      <trkpt lat="42.6806770" lon="2.2953780">
        <ele>890.6</ele>
        <time>2020-07-21T11:35:23Z</time>
      </trkpt>
      <trkpt lat="42.6806920" lon="2.2953450">
        <ele>890.8</ele>
        <time>2020-07-21T11:35:24Z</time>
      </trkpt>
      <trkpt lat="42.6807560" lon="2.2951760">
        <ele>891.6</ele>
        <time>2020-07-21T11:35:29Z</time>
      </trkpt>
      <trkpt lat="42.6807830" lon="2.2951080">
        <ele>892.0</ele>
        <time>2020-07-21T11:35:31Z</time>
      </trkpt>
      <trkpt lat="42.6808590" lon="2.2949970">
        <ele>893.2</ele>
        <time>2020-07-21T11:35:35Z</time>
      </trkpt>
      <trkpt lat="42.6808980" lon="2.2949490">
        <ele>893.6</ele>
        <time>2020-07-21T11:35:37Z</time>
      </trkpt>
      <trkpt lat="42.6809370" lon="2.2949010">
        <ele>894.2</ele>
        <time>2020-07-21T11:35:39Z</time>
      </trkpt>
      <trkpt lat="42.6810620" lon="2.2948260">
        <ele>895.2</ele>
        <time>2020-07-21T11:35:44Z</time>
      </trkpt>
      <trkpt lat="42.6810880" lon="2.2948100">
        <ele>895.4</ele>
        <time>2020-07-21T11:35:45Z</time>
      </trkpt>
      <trkpt lat="42.6812350" lon="2.2947420">
        <ele>896.4</ele>
        <time>2020-07-21T11:35:50Z</time>
      </trkpt>
      <trkpt lat="42.6812620" lon="2.2947230">
        <ele>896.4</ele>
        <time>2020-07-21T11:35:51Z</time>
      </trkpt>
      <trkpt lat="42.6813450" lon="2.2945890">
        <ele>897.0</ele>
        <time>2020-07-21T11:35:55Z</time>
      </trkpt>
      <trkpt lat="42.6813400" lon="2.2944910">
        <ele>897.2</ele>
        <time>2020-07-21T11:35:57Z</time>
      </trkpt>
      <trkpt lat="42.6813250" lon="2.2944480">
        <ele>897.4</ele>
        <time>2020-07-21T11:35:58Z</time>
      </trkpt>
      <trkpt lat="42.6813000" lon="2.2944040">
        <ele>897.6</ele>
        <time>2020-07-21T11:35:59Z</time>
      </trkpt>
      <trkpt lat="42.6812010" lon="2.2942610">
        <ele>898.6</ele>
        <time>2020-07-21T11:36:03Z</time>
      </trkpt>
      <trkpt lat="42.6810770" lon="2.2940650">
        <ele>899.6</ele>
        <time>2020-07-21T11:36:09Z</time>
      </trkpt>
      <trkpt lat="42.6810470" lon="2.2939940">
        <ele>900.2</ele>
        <time>2020-07-21T11:36:11Z</time>
      </trkpt>
      <trkpt lat="42.6810210" lon="2.2939160">
        <ele>900.6</ele>
        <time>2020-07-21T11:36:13Z</time>
      </trkpt>
      <trkpt lat="42.6809610" lon="2.2937130">
        <ele>901.8</ele>
        <time>2020-07-21T11:36:18Z</time>
      </trkpt>
      <trkpt lat="42.6809370" lon="2.2936330">
        <ele>902.2</ele>
        <time>2020-07-21T11:36:20Z</time>
      </trkpt>
      <trkpt lat="42.6808930" lon="2.2934790">
        <ele>902.8</ele>
        <time>2020-07-21T11:36:24Z</time>
      </trkpt>
      <trkpt lat="42.6808410" lon="2.2933390">
        <ele>903.8</ele>
        <time>2020-07-21T11:36:28Z</time>
      </trkpt>
      <trkpt lat="42.6807050" lon="2.2931630">
        <ele>904.8</ele>
        <time>2020-07-21T11:36:34Z</time>
      </trkpt>
      <trkpt lat="42.6806800" lon="2.2931410">
        <ele>905.0</ele>
        <time>2020-07-21T11:36:35Z</time>
      </trkpt>
      <trkpt lat="42.6805700" lon="2.2930630">
        <ele>906.0</ele>
        <time>2020-07-21T11:36:39Z</time>
      </trkpt>
      <trkpt lat="42.6804820" lon="2.2930180">
        <ele>906.4</ele>
        <time>2020-07-21T11:36:42Z</time>
      </trkpt>
      <trkpt lat="42.6803700" lon="2.2929300">
        <ele>907.0</ele>
        <time>2020-07-21T11:36:46Z</time>
      </trkpt>
      <trkpt lat="42.6802680" lon="2.2928150">
        <ele>908.2</ele>
        <time>2020-07-21T11:36:50Z</time>
      </trkpt>
      <trkpt lat="42.6802140" lon="2.2926630">
        <ele>909.4</ele>
        <time>2020-07-21T11:36:54Z</time>
      </trkpt>
      <trkpt lat="42.6802120" lon="2.2926210">
        <ele>909.8</ele>
        <time>2020-07-21T11:36:55Z</time>
      </trkpt>
      <trkpt lat="42.6802550" lon="2.2924620">
        <ele>910.4</ele>
        <time>2020-07-21T11:36:59Z</time>
      </trkpt>
      <trkpt lat="42.6802710" lon="2.2924240">
        <ele>910.6</ele>
        <time>2020-07-21T11:37:00Z</time>
      </trkpt>
      <trkpt lat="42.6803260" lon="2.2922750">
        <ele>911.6</ele>
        <time>2020-07-21T11:37:04Z</time>
      </trkpt>
      <trkpt lat="42.6803600" lon="2.2921610">
        <ele>912.6</ele>
        <time>2020-07-21T11:37:07Z</time>
      </trkpt>
      <trkpt lat="42.6803740" lon="2.2921210">
        <ele>912.8</ele>
        <time>2020-07-21T11:37:08Z</time>
      </trkpt>
      <trkpt lat="42.6804570" lon="2.2919170">
        <ele>913.6</ele>
        <time>2020-07-21T11:37:13Z</time>
      </trkpt>
      <trkpt lat="42.6805030" lon="2.2917950">
        <ele>914.2</ele>
        <time>2020-07-21T11:37:16Z</time>
      </trkpt>
      <trkpt lat="42.6805560" lon="2.2916770">
        <ele>914.8</ele>
        <time>2020-07-21T11:37:19Z</time>
      </trkpt>
      <trkpt lat="42.6806260" lon="2.2914840">
        <ele>915.8</ele>
        <time>2020-07-21T11:37:24Z</time>
      </trkpt>
      <trkpt lat="42.6806470" lon="2.2914480">
        <ele>916.0</ele>
        <time>2020-07-21T11:37:25Z</time>
      </trkpt>
      <trkpt lat="42.6807220" lon="2.2913540">
        <ele>917.0</ele>
        <time>2020-07-21T11:37:28Z</time>
      </trkpt>
      <trkpt lat="42.6807790" lon="2.2913010">
        <ele>917.4</ele>
        <time>2020-07-21T11:37:30Z</time>
      </trkpt>
      <trkpt lat="42.6808280" lon="2.2912450">
        <ele>917.8</ele>
        <time>2020-07-21T11:37:32Z</time>
      </trkpt>
      <trkpt lat="42.6808520" lon="2.2912200">
        <ele>918.2</ele>
        <time>2020-07-21T11:37:33Z</time>
      </trkpt>
      <trkpt lat="42.6810000" lon="2.2910670">
        <ele>919.2</ele>
        <time>2020-07-21T11:37:39Z</time>
      </trkpt>
      <trkpt lat="42.6810270" lon="2.2910470">
        <ele>919.4</ele>
        <time>2020-07-21T11:37:40Z</time>
      </trkpt>
      <trkpt lat="42.6811400" lon="2.2909530">
        <ele>920.4</ele>
        <time>2020-07-21T11:37:44Z</time>
      </trkpt>
      <trkpt lat="42.6812160" lon="2.2908620">
        <ele>921.2</ele>
        <time>2020-07-21T11:37:47Z</time>
      </trkpt>
      <trkpt lat="42.6812380" lon="2.2908250">
        <ele>921.4</ele>
        <time>2020-07-21T11:37:48Z</time>
      </trkpt>
      <trkpt lat="42.6813190" lon="2.2906510">
        <ele>922.6</ele>
        <time>2020-07-21T11:37:53Z</time>
      </trkpt>
      <trkpt lat="42.6813340" lon="2.2906140">
        <ele>923.0</ele>
        <time>2020-07-21T11:37:54Z</time>
      </trkpt>
      <trkpt lat="42.6813870" lon="2.2904610">
        <ele>923.8</ele>
        <time>2020-07-21T11:37:58Z</time>
      </trkpt>
      <trkpt lat="42.6814420" lon="2.2903090">
        <ele>924.6</ele>
        <time>2020-07-21T11:38:02Z</time>
      </trkpt>
      <trkpt lat="42.6814600" lon="2.2902730">
        <ele>925.0</ele>
        <time>2020-07-21T11:38:03Z</time>
      </trkpt>
      <trkpt lat="42.6815360" lon="2.2900970">
        <ele>926.2</ele>
        <time>2020-07-21T11:38:08Z</time>
      </trkpt>
      <trkpt lat="42.6815650" lon="2.2900240">
        <ele>926.6</ele>
        <time>2020-07-21T11:38:10Z</time>
      </trkpt>
      <trkpt lat="42.6816690" lon="2.2898110">
        <ele>927.2</ele>
        <time>2020-07-21T11:38:16Z</time>
      </trkpt>
      <trkpt lat="42.6816850" lon="2.2897780">
        <ele>927.4</ele>
        <time>2020-07-21T11:38:17Z</time>
      </trkpt>
      <trkpt lat="42.6817360" lon="2.2895850">
        <ele>928.2</ele>
        <time>2020-07-21T11:38:22Z</time>
      </trkpt>
      <trkpt lat="42.6817490" lon="2.2895140">
        <ele>928.8</ele>
        <time>2020-07-21T11:38:24Z</time>
      </trkpt>
      <trkpt lat="42.6817590" lon="2.2894090">
        <ele>929.2</ele>
        <time>2020-07-21T11:38:27Z</time>
      </trkpt>
      <trkpt lat="42.6817690" lon="2.2892430">
        <ele>930.2</ele>
        <time>2020-07-21T11:38:31Z</time>
      </trkpt>
      <trkpt lat="42.6817700" lon="2.2892000">
        <ele>930.4</ele>
        <time>2020-07-21T11:38:32Z</time>
      </trkpt>
      <trkpt lat="42.6817710" lon="2.2889760">
        <ele>931.4</ele>
        <time>2020-07-21T11:38:37Z</time>
      </trkpt>
      <trkpt lat="42.6817880" lon="2.2888650">
        <ele>932.0</ele>
        <time>2020-07-21T11:38:40Z</time>
      </trkpt>
      <trkpt lat="42.6817960" lon="2.2887940">
        <ele>932.4</ele>
        <time>2020-07-21T11:38:42Z</time>
      </trkpt>
      <trkpt lat="42.6818170" lon="2.2886220">
        <ele>933.8</ele>
        <time>2020-07-21T11:38:46Z</time>
      </trkpt>
      <trkpt lat="42.6818270" lon="2.2885340">
        <ele>934.4</ele>
        <time>2020-07-21T11:38:48Z</time>
      </trkpt>
      <trkpt lat="42.6818560" lon="2.2884220">
        <ele>935.0</ele>
        <time>2020-07-21T11:38:51Z</time>
      </trkpt>
      <trkpt lat="42.6819160" lon="2.2883480">
        <ele>935.8</ele>
        <time>2020-07-21T11:38:54Z</time>
      </trkpt>
      <trkpt lat="42.6819410" lon="2.2883320">
        <ele>936.2</ele>
        <time>2020-07-21T11:38:55Z</time>
      </trkpt>
      <trkpt lat="42.6820750" lon="2.2882710">
        <ele>937.4</ele>
        <time>2020-07-21T11:39:00Z</time>
      </trkpt>
      <trkpt lat="42.6820990" lon="2.2882530">
        <ele>937.6</ele>
        <time>2020-07-21T11:39:01Z</time>
      </trkpt>
      <trkpt lat="42.6821580" lon="2.2881290">
        <ele>938.2</ele>
        <time>2020-07-21T11:39:05Z</time>
      </trkpt>
      <trkpt lat="42.6821560" lon="2.2880850">
        <ele>938.2</ele>
        <time>2020-07-21T11:39:06Z</time>
      </trkpt>
      <trkpt lat="42.6821490" lon="2.2880430">
        <ele>938.4</ele>
        <time>2020-07-21T11:39:07Z</time>
      </trkpt>
      <trkpt lat="42.6820780" lon="2.2879200">
        <ele>938.6</ele>
        <time>2020-07-21T11:39:10Z</time>
      </trkpt>
      <trkpt lat="42.6819180" lon="2.2877660">
        <ele>939.6</ele>
        <time>2020-07-21T11:39:16Z</time>
      </trkpt>
      <trkpt lat="42.6818940" lon="2.2877430">
        <ele>939.8</ele>
        <time>2020-07-21T11:39:17Z</time>
      </trkpt>
      <trkpt lat="42.6818330" lon="2.2876710">
        <ele>940.8</ele>
        <time>2020-07-21T11:39:20Z</time>
      </trkpt>
      <trkpt lat="42.6818020" lon="2.2875700">
        <ele>941.4</ele>
        <time>2020-07-21T11:39:23Z</time>
      </trkpt>
      <trkpt lat="42.6817960" lon="2.2874960">
        <ele>941.8</ele>
        <time>2020-07-21T11:39:25Z</time>
      </trkpt>
      <trkpt lat="42.6817890" lon="2.2873520">
        <ele>942.6</ele>
        <time>2020-07-21T11:39:29Z</time>
      </trkpt>
      <trkpt lat="42.6817850" lon="2.2872790">
        <ele>943.0</ele>
        <time>2020-07-21T11:39:31Z</time>
      </trkpt>
      <trkpt lat="42.6817730" lon="2.2870990">
        <ele>944.0</ele>
        <time>2020-07-21T11:39:36Z</time>
      </trkpt>
      <trkpt lat="42.6817670" lon="2.2869880">
        <ele>944.8</ele>
        <time>2020-07-21T11:39:39Z</time>
      </trkpt>
      <trkpt lat="42.6817610" lon="2.2869150">
        <ele>945.2</ele>
        <time>2020-07-21T11:39:41Z</time>
      </trkpt>
      <trkpt lat="42.6817540" lon="2.2867380">
        <ele>946.4</ele>
        <time>2020-07-21T11:39:46Z</time>
      </trkpt>
      <trkpt lat="42.6817510" lon="2.2866600">
        <ele>946.8</ele>
        <time>2020-07-21T11:39:48Z</time>
      </trkpt>
      <trkpt lat="42.6817390" lon="2.2865140">
        <ele>947.6</ele>
        <time>2020-07-21T11:39:52Z</time>
      </trkpt>
      <trkpt lat="42.6817270" lon="2.2863650">
        <ele>948.6</ele>
        <time>2020-07-21T11:39:56Z</time>
      </trkpt>
      <trkpt lat="42.6816630" lon="2.2862550">
        <ele>949.6</ele>
        <time>2020-07-21T11:40:00Z</time>
      </trkpt>
      <trkpt lat="42.6816350" lon="2.2862290">
        <ele>949.8</ele>
        <time>2020-07-21T11:40:01Z</time>
      </trkpt>
      <trkpt lat="42.6814700" lon="2.2860940">
        <ele>950.8</ele>
        <time>2020-07-21T11:40:07Z</time>
      </trkpt>
      <trkpt lat="42.6814460" lon="2.2860690">
        <ele>951.0</ele>
        <time>2020-07-21T11:40:08Z</time>
      </trkpt>
      <trkpt lat="42.6813470" lon="2.2859570">
        <ele>951.8</ele>
        <time>2020-07-21T11:40:13Z</time>
      </trkpt>
      <trkpt lat="42.6813290" lon="2.2859300">
        <ele>952.2</ele>
        <time>2020-07-21T11:40:14Z</time>
      </trkpt>
      <trkpt lat="42.6812620" lon="2.2858580">
        <ele>953.0</ele>
        <time>2020-07-21T11:40:17Z</time>
      </trkpt>
      <trkpt lat="42.6812050" lon="2.2857620">
        <ele>953.6</ele>
        <time>2020-07-21T11:40:20Z</time>
      </trkpt>
      <trkpt lat="42.6811770" lon="2.2856820">
        <ele>954.0</ele>
        <time>2020-07-21T11:40:22Z</time>
      </trkpt>
      <trkpt lat="42.6811450" lon="2.2855350">
        <ele>954.8</ele>
        <time>2020-07-21T11:40:26Z</time>
      </trkpt>
      <trkpt lat="42.6811320" lon="2.2854610">
        <ele>955.2</ele>
        <time>2020-07-21T11:40:28Z</time>
      </trkpt>
      <trkpt lat="42.6811090" lon="2.2852990">
        <ele>956.2</ele>
        <time>2020-07-21T11:40:33Z</time>
      </trkpt>
      <trkpt lat="42.6811020" lon="2.2852310">
        <ele>956.8</ele>
        <time>2020-07-21T11:40:35Z</time>
      </trkpt>
      <trkpt lat="42.6810980" lon="2.2851630">
        <ele>957.4</ele>
        <time>2020-07-21T11:40:37Z</time>
      </trkpt>
      <trkpt lat="42.6810800" lon="2.2849550">
        <ele>958.6</ele>
        <time>2020-07-21T11:40:43Z</time>
      </trkpt>
      <trkpt lat="42.6810750" lon="2.2849180">
        <ele>958.6</ele>
        <time>2020-07-21T11:40:44Z</time>
      </trkpt>
      <trkpt lat="42.6810210" lon="2.2847040">
        <ele>959.6</ele>
        <time>2020-07-21T11:40:50Z</time>
      </trkpt>
      <trkpt lat="42.6810110" lon="2.2846650">
        <ele>960.0</ele>
        <time>2020-07-21T11:40:51Z</time>
      </trkpt>
      <trkpt lat="42.6809750" lon="2.2845520">
        <ele>960.8</ele>
        <time>2020-07-21T11:40:54Z</time>
      </trkpt>
      <trkpt lat="42.6809340" lon="2.2844090">
        <ele>961.8</ele>
        <time>2020-07-21T11:40:58Z</time>
      </trkpt>
      <trkpt lat="42.6809240" lon="2.2843740">
        <ele>962.0</ele>
        <time>2020-07-21T11:40:59Z</time>
      </trkpt>
      <trkpt lat="42.6808920" lon="2.2842260">
        <ele>962.8</ele>
        <time>2020-07-21T11:41:03Z</time>
      </trkpt>
      <trkpt lat="42.6808730" lon="2.2841150">
        <ele>963.8</ele>
        <time>2020-07-21T11:41:06Z</time>
      </trkpt>
      <trkpt lat="42.6808630" lon="2.2840450">
        <ele>964.2</ele>
        <time>2020-07-21T11:41:08Z</time>
      </trkpt>
      <trkpt lat="42.6808460" lon="2.2839380">
        <ele>965.0</ele>
        <time>2020-07-21T11:41:11Z</time>
      </trkpt>
      <trkpt lat="42.6808020" lon="2.2838400">
        <ele>965.8</ele>
        <time>2020-07-21T11:41:14Z</time>
      </trkpt>
      <trkpt lat="42.6807540" lon="2.2837850">
        <ele>966.2</ele>
        <time>2020-07-21T11:41:16Z</time>
      </trkpt>
      <trkpt lat="42.6806670" lon="2.2837290">
        <ele>966.6</ele>
        <time>2020-07-21T11:41:19Z</time>
      </trkpt>
      <trkpt lat="42.6805210" lon="2.2837780">
        <ele>967.2</ele>
        <time>2020-07-21T11:41:24Z</time>
      </trkpt>
      <trkpt lat="42.6804030" lon="2.2840160">
        <ele>968.2</ele>
        <time>2020-07-21T11:41:30Z</time>
      </trkpt>
      <trkpt lat="42.6803870" lon="2.2840580">
        <ele>968.2</ele>
        <time>2020-07-21T11:41:31Z</time>
      </trkpt>
      <trkpt lat="42.6802870" lon="2.2842800">
        <ele>968.8</ele>
        <time>2020-07-21T11:41:37Z</time>
      </trkpt>
      <trkpt lat="42.6802680" lon="2.2843140">
        <ele>969.0</ele>
        <time>2020-07-21T11:41:38Z</time>
      </trkpt>
      <trkpt lat="42.6801970" lon="2.2843850">
        <ele>969.4</ele>
        <time>2020-07-21T11:41:41Z</time>
      </trkpt>
      <trkpt lat="42.6801380" lon="2.2844110">
        <ele>969.6</ele>
        <time>2020-07-21T11:41:43Z</time>
      </trkpt>
      <trkpt lat="42.6799880" lon="2.2844240">
        <ele>970.4</ele>
        <time>2020-07-21T11:41:48Z</time>
      </trkpt>
      <trkpt lat="42.6799570" lon="2.2844180">
        <ele>970.4</ele>
        <time>2020-07-21T11:41:49Z</time>
      </trkpt>
      <trkpt lat="42.6797950" lon="2.2843150">
        <ele>971.6</ele>
        <time>2020-07-21T11:41:55Z</time>
      </trkpt>
      <trkpt lat="42.6796950" lon="2.2842190">
        <ele>972.6</ele>
        <time>2020-07-21T11:41:59Z</time>
      </trkpt>
      <trkpt lat="42.6796200" lon="2.2841580">
        <ele>973.0</ele>
        <time>2020-07-21T11:42:02Z</time>
      </trkpt>
      <trkpt lat="42.6795160" lon="2.2840810">
        <ele>973.8</ele>
        <time>2020-07-21T11:42:06Z</time>
      </trkpt>
      <trkpt lat="42.6794190" lon="2.2839920">
        <ele>974.6</ele>
        <time>2020-07-21T11:42:10Z</time>
      </trkpt>
      <trkpt lat="42.6793670" lon="2.2839510">
        <ele>974.8</ele>
        <time>2020-07-21T11:42:12Z</time>
      </trkpt>
      <trkpt lat="42.6792370" lon="2.2838620">
        <ele>976.0</ele>
        <time>2020-07-21T11:42:17Z</time>
      </trkpt>
      <trkpt lat="42.6792130" lon="2.2838390">
        <ele>976.2</ele>
        <time>2020-07-21T11:42:18Z</time>
      </trkpt>
      <trkpt lat="42.6790950" lon="2.2837070">
        <ele>977.2</ele>
        <time>2020-07-21T11:42:23Z</time>
      </trkpt>
      <trkpt lat="42.6790520" lon="2.2836400">
        <ele>977.6</ele>
        <time>2020-07-21T11:42:25Z</time>
      </trkpt>
      <trkpt lat="42.6790100" lon="2.2834240">
        <ele>978.2</ele>
        <time>2020-07-21T11:42:30Z</time>
      </trkpt>
      <trkpt lat="42.6790210" lon="2.2833830">
        <ele>978.4</ele>
        <time>2020-07-21T11:42:31Z</time>
      </trkpt>
      <trkpt lat="42.6790880" lon="2.2832880">
        <ele>979.2</ele>
        <time>2020-07-21T11:42:34Z</time>
      </trkpt>
      <trkpt lat="42.6791440" lon="2.2832560">
        <ele>979.6</ele>
        <time>2020-07-21T11:42:36Z</time>
      </trkpt>
      <trkpt lat="42.6792330" lon="2.2832760">
        <ele>980.6</ele>
        <time>2020-07-21T11:42:39Z</time>
      </trkpt>
      <trkpt lat="42.6792640" lon="2.2832890">
        <ele>980.8</ele>
        <time>2020-07-21T11:42:40Z</time>
      </trkpt>
      <trkpt lat="42.6794130" lon="2.2833370">
        <ele>982.0</ele>
        <time>2020-07-21T11:42:45Z</time>
      </trkpt>
      <trkpt lat="42.6794440" lon="2.2833380">
        <ele>982.2</ele>
        <time>2020-07-21T11:42:46Z</time>
      </trkpt>
      <trkpt lat="42.6795850" lon="2.2832800">
        <ele>983.2</ele>
        <time>2020-07-21T11:42:51Z</time>
      </trkpt>
      <trkpt lat="42.6796110" lon="2.2832680">
        <ele>983.4</ele>
        <time>2020-07-21T11:42:52Z</time>
      </trkpt>
      <trkpt lat="42.6796830" lon="2.2832220">
        <ele>984.2</ele>
        <time>2020-07-21T11:42:56Z</time>
      </trkpt>
      <trkpt lat="42.6797130" lon="2.2832010">
        <ele>984.6</ele>
        <time>2020-07-21T11:42:58Z</time>
      </trkpt>
      <trkpt lat="42.6797960" lon="2.2831320">
        <ele>985.2</ele>
        <time>2020-07-21T11:43:04Z</time>
      </trkpt>
      <trkpt lat="42.6798250" lon="2.2831110">
        <ele>985.4</ele>
        <time>2020-07-21T11:43:06Z</time>
      </trkpt>
      <trkpt lat="42.6798650" lon="2.2830650">
        <ele>985.8</ele>
        <time>2020-07-21T11:43:09Z</time>
      </trkpt>
      <trkpt lat="42.6799320" lon="2.2830340">
        <ele>986.0</ele>
        <time>2020-07-21T11:43:12Z</time>
      </trkpt>
      <trkpt lat="42.6800230" lon="2.2829730">
        <ele>986.4</ele>
        <time>2020-07-21T11:43:16Z</time>
      </trkpt>
      <trkpt lat="42.6801160" lon="2.2829100">
        <ele>987.4</ele>
        <time>2020-07-21T11:43:20Z</time>
      </trkpt>
      <trkpt lat="42.6802610" lon="2.2828110">
        <ele>988.6</ele>
        <time>2020-07-21T11:43:26Z</time>
      </trkpt>
      <trkpt lat="42.6803430" lon="2.2827400">
        <ele>989.4</ele>
        <time>2020-07-21T11:43:29Z</time>
      </trkpt>
      <trkpt lat="42.6803710" lon="2.2827120">
        <ele>989.6</ele>
        <time>2020-07-21T11:43:30Z</time>
      </trkpt>
      <trkpt lat="42.6804740" lon="2.2825550">
        <ele>990.4</ele>
        <time>2020-07-21T11:43:35Z</time>
      </trkpt>
      <trkpt lat="42.6805100" lon="2.2824930">
        <ele>990.8</ele>
        <time>2020-07-21T11:43:37Z</time>
      </trkpt>
      <trkpt lat="42.6805700" lon="2.2823540">
        <ele>992.0</ele>
        <time>2020-07-21T11:43:41Z</time>
      </trkpt>
      <trkpt lat="42.6805830" lon="2.2823180">
        <ele>992.4</ele>
        <time>2020-07-21T11:43:42Z</time>
      </trkpt>
      <trkpt lat="42.6806440" lon="2.2821330">
        <ele>993.2</ele>
        <time>2020-07-21T11:43:47Z</time>
      </trkpt>
      <trkpt lat="42.6806710" lon="2.2820180">
        <ele>994.2</ele>
        <time>2020-07-21T11:43:50Z</time>
      </trkpt>
      <trkpt lat="42.6806780" lon="2.2819750">
        <ele>994.4</ele>
        <time>2020-07-21T11:43:51Z</time>
      </trkpt>
      <trkpt lat="42.6806960" lon="2.2818130">
        <ele>995.2</ele>
        <time>2020-07-21T11:43:55Z</time>
      </trkpt>
      <trkpt lat="42.6807000" lon="2.2816680">
        <ele>996.2</ele>
        <time>2020-07-21T11:43:59Z</time>
      </trkpt>
      <trkpt lat="42.6807060" lon="2.2816350">
        <ele>996.4</ele>
        <time>2020-07-21T11:44:00Z</time>
      </trkpt>
      <trkpt lat="42.6807140" lon="2.2814140">
        <ele>997.6</ele>
        <time>2020-07-21T11:44:06Z</time>
      </trkpt>
      <trkpt lat="42.6807160" lon="2.2813760">
        <ele>997.6</ele>
        <time>2020-07-21T11:44:07Z</time>
      </trkpt>
      <trkpt lat="42.6807170" lon="2.2811800">
        <ele>998.6</ele>
        <time>2020-07-21T11:44:12Z</time>
      </trkpt>
      <trkpt lat="42.6807190" lon="2.2810640">
        <ele>999.0</ele>
        <time>2020-07-21T11:44:15Z</time>
      </trkpt>
      <trkpt lat="42.6807220" lon="2.2809390">
        <ele>999.8</ele>
        <time>2020-07-21T11:44:18Z</time>
      </trkpt>
      <trkpt lat="42.6807340" lon="2.2808140">
        <ele>1001.0</ele>
        <time>2020-07-21T11:44:21Z</time>
      </trkpt>
      <trkpt lat="42.6807430" lon="2.2807300">
        <ele>1001.6</ele>
        <time>2020-07-21T11:44:23Z</time>
      </trkpt>
      <trkpt lat="42.6807510" lon="2.2806450">
        <ele>1002.0</ele>
        <time>2020-07-21T11:44:25Z</time>
      </trkpt>
      <trkpt lat="42.6807680" lon="2.2804450">
        <ele>1003.0</ele>
        <time>2020-07-21T11:44:30Z</time>
      </trkpt>
      <trkpt lat="42.6807680" lon="2.2804040">
        <ele>1003.2</ele>
        <time>2020-07-21T11:44:31Z</time>
      </trkpt>
      <trkpt lat="42.6807590" lon="2.2801750">
        <ele>1004.4</ele>
        <time>2020-07-21T11:44:37Z</time>
      </trkpt>
      <trkpt lat="42.6807520" lon="2.2801330">
        <ele>1004.6</ele>
        <time>2020-07-21T11:44:38Z</time>
      </trkpt>
      <trkpt lat="42.6807300" lon="2.2800140">
        <ele>1005.4</ele>
        <time>2020-07-21T11:44:41Z</time>
      </trkpt>
      <trkpt lat="42.6806830" lon="2.2798610">
        <ele>1006.2</ele>
        <time>2020-07-21T11:44:45Z</time>
      </trkpt>
      <trkpt lat="42.6806670" lon="2.2798260">
        <ele>1006.6</ele>
        <time>2020-07-21T11:44:46Z</time>
      </trkpt>
      <trkpt lat="42.6805790" lon="2.2796600">
        <ele>1007.8</ele>
        <time>2020-07-21T11:44:51Z</time>
      </trkpt>
      <trkpt lat="42.6805610" lon="2.2796260">
        <ele>1008.0</ele>
        <time>2020-07-21T11:44:52Z</time>
      </trkpt>
      <trkpt lat="42.6804880" lon="2.2795470">
        <ele>1008.8</ele>
        <time>2020-07-21T11:44:55Z</time>
      </trkpt>
      <trkpt lat="42.6804370" lon="2.2794960">
        <ele>1009.2</ele>
        <time>2020-07-21T11:44:57Z</time>
      </trkpt>
      <trkpt lat="42.6803430" lon="2.2794160">
        <ele>1010.0</ele>
        <time>2020-07-21T11:45:01Z</time>
      </trkpt>
      <trkpt lat="42.6802920" lon="2.2793760">
        <ele>1010.6</ele>
        <time>2020-07-21T11:45:03Z</time>
      </trkpt>
      <trkpt lat="42.6802670" lon="2.2793570">
        <ele>1011.0</ele>
        <time>2020-07-21T11:45:04Z</time>
      </trkpt>
      <trkpt lat="42.6801650" lon="2.2792770">
        <ele>1012.2</ele>
        <time>2020-07-21T11:45:08Z</time>
      </trkpt>
      <trkpt lat="42.6800940" lon="2.2792080">
        <ele>1012.8</ele>
        <time>2020-07-21T11:45:11Z</time>
      </trkpt>
      <trkpt lat="42.6800260" lon="2.2791330">
        <ele>1013.4</ele>
        <time>2020-07-21T11:45:14Z</time>
      </trkpt>
      <trkpt lat="42.6799370" lon="2.2789870">
        <ele>1014.0</ele>
        <time>2020-07-21T11:45:19Z</time>
      </trkpt>
      <trkpt lat="42.6799160" lon="2.2789180">
        <ele>1014.6</ele>
        <time>2020-07-21T11:45:21Z</time>
      </trkpt>
      <trkpt lat="42.6799160" lon="2.2787800">
        <ele>1015.4</ele>
        <time>2020-07-21T11:45:25Z</time>
      </trkpt>
      <trkpt lat="42.6799250" lon="2.2787470">
        <ele>1015.6</ele>
        <time>2020-07-21T11:45:26Z</time>
      </trkpt>
      <trkpt lat="42.6799890" lon="2.2785940">
        <ele>1016.8</ele>
        <time>2020-07-21T11:45:31Z</time>
      </trkpt>
      <trkpt lat="42.6800050" lon="2.2785690">
        <ele>1017.0</ele>
        <time>2020-07-21T11:45:32Z</time>
      </trkpt>
      <trkpt lat="42.6800650" lon="2.2785070">
        <ele>1017.8</ele>
        <time>2020-07-21T11:45:35Z</time>
      </trkpt>
      <trkpt lat="42.6801560" lon="2.2784470">
        <ele>1018.8</ele>
        <time>2020-07-21T11:45:39Z</time>
      </trkpt>
      <trkpt lat="42.6801790" lon="2.2784310">
        <ele>1019.0</ele>
        <time>2020-07-21T11:45:40Z</time>
      </trkpt>
      <trkpt lat="42.6803260" lon="2.2783370">
        <ele>1020.0</ele>
        <time>2020-07-21T11:45:46Z</time>
      </trkpt>
      <trkpt lat="42.6803520" lon="2.2783210">
        <ele>1020.2</ele>
        <time>2020-07-21T11:45:47Z</time>
      </trkpt>
      <trkpt lat="42.6805010" lon="2.2782300">
        <ele>1021.0</ele>
        <time>2020-07-21T11:45:53Z</time>
      </trkpt>
      <trkpt lat="42.6805260" lon="2.2782170">
        <ele>1021.2</ele>
        <time>2020-07-21T11:45:54Z</time>
      </trkpt>
      <trkpt lat="42.6806060" lon="2.2781670">
        <ele>1021.8</ele>
        <time>2020-07-21T11:45:57Z</time>
      </trkpt>
      <trkpt lat="42.6807630" lon="2.2781250">
        <ele>1022.2</ele>
        <time>2020-07-21T11:46:02Z</time>
      </trkpt>
      <trkpt lat="42.6807950" lon="2.2781270">
        <ele>1022.4</ele>
        <time>2020-07-21T11:46:03Z</time>
      </trkpt>
      <trkpt lat="42.6809750" lon="2.2782060">
        <ele>1023.2</ele>
        <time>2020-07-21T11:46:09Z</time>
      </trkpt>
      <trkpt lat="42.6810040" lon="2.2782230">
        <ele>1023.4</ele>
        <time>2020-07-21T11:46:10Z</time>
      </trkpt>
      <trkpt lat="42.6810940" lon="2.2782670">
        <ele>1024.2</ele>
        <time>2020-07-21T11:46:13Z</time>
      </trkpt>
      <trkpt lat="42.6811240" lon="2.2782730">
        <ele>1024.6</ele>
        <time>2020-07-21T11:46:14Z</time>
      </trkpt>
      <trkpt lat="42.6811910" lon="2.2782780">
        <ele>1025.0</ele>
        <time>2020-07-21T11:46:16Z</time>
      </trkpt>
      <trkpt lat="42.6812860" lon="2.2782330">
        <ele>1025.6</ele>
        <time>2020-07-21T11:46:19Z</time>
      </trkpt>
      <trkpt lat="42.6813100" lon="2.2782080">
        <ele>1025.6</ele>
        <time>2020-07-21T11:46:20Z</time>
      </trkpt>
      <trkpt lat="42.6813530" lon="2.2780430">
        <ele>1026.4</ele>
        <time>2020-07-21T11:46:25Z</time>
      </trkpt>
      <trkpt lat="42.6813470" lon="2.2780080">
        <ele>1026.8</ele>
        <time>2020-07-21T11:46:26Z</time>
      </trkpt>
      <trkpt lat="42.6813060" lon="2.2779070">
        <ele>1027.8</ele>
        <time>2020-07-21T11:46:29Z</time>
      </trkpt>
      <trkpt lat="42.6812890" lon="2.2778750">
        <ele>1028.4</ele>
        <time>2020-07-21T11:46:30Z</time>
      </trkpt>
      <trkpt lat="42.6812400" lon="2.2778240">
        <ele>1029.0</ele>
        <time>2020-07-21T11:46:32Z</time>
      </trkpt>
      <trkpt lat="42.6811570" lon="2.2777580">
        <ele>1029.4</ele>
        <time>2020-07-21T11:46:35Z</time>
      </trkpt>
      <trkpt lat="42.6809900" lon="2.2776200">
        <ele>1030.0</ele>
        <time>2020-07-21T11:46:41Z</time>
      </trkpt>
      <trkpt lat="42.6809110" lon="2.2775560">
        <ele>1030.6</ele>
        <time>2020-07-21T11:46:44Z</time>
      </trkpt>
      <trkpt lat="42.6807720" lon="2.2775070">
        <ele>1031.2</ele>
        <time>2020-07-21T11:46:49Z</time>
      </trkpt>
      <trkpt lat="42.6807430" lon="2.2775050">
        <ele>1031.6</ele>
        <time>2020-07-21T11:46:50Z</time>
      </trkpt>
      <trkpt lat="42.6806620" lon="2.2775120">
        <ele>1032.2</ele>
        <time>2020-07-21T11:46:53Z</time>
      </trkpt>
      <trkpt lat="42.6805790" lon="2.2775550">
        <ele>1032.8</ele>
        <time>2020-07-21T11:46:56Z</time>
      </trkpt>
      <trkpt lat="42.6805370" lon="2.2775870">
        <ele>1033.4</ele>
        <time>2020-07-21T11:46:58Z</time>
      </trkpt>
      <trkpt lat="42.6804560" lon="2.2776610">
        <ele>1034.0</ele>
        <time>2020-07-21T11:47:02Z</time>
      </trkpt>
      <trkpt lat="42.6803920" lon="2.2777010">
        <ele>1034.4</ele>
        <time>2020-07-21T11:47:05Z</time>
      </trkpt>
      <trkpt lat="42.6803130" lon="2.2777490">
        <ele>1035.2</ele>
        <time>2020-07-21T11:47:09Z</time>
      </trkpt>
      <trkpt lat="42.6802680" lon="2.2777650">
        <ele>1035.4</ele>
        <time>2020-07-21T11:47:11Z</time>
      </trkpt>
      <trkpt lat="42.6801490" lon="2.2777630">
        <ele>1036.2</ele>
        <time>2020-07-21T11:47:16Z</time>
      </trkpt>
      <trkpt lat="42.6801050" lon="2.2777580">
        <ele>1036.6</ele>
        <time>2020-07-21T11:47:18Z</time>
      </trkpt>
      <trkpt lat="42.6800560" lon="2.2777340">
        <ele>1037.0</ele>
        <time>2020-07-21T11:47:21Z</time>
      </trkpt>
      <trkpt lat="42.6800230" lon="2.2776850">
        <ele>1037.2</ele>
        <time>2020-07-21T11:47:23Z</time>
      </trkpt>
      <trkpt lat="42.6799600" lon="2.2775630">
        <ele>1037.6</ele>
        <time>2020-07-21T11:47:27Z</time>
      </trkpt>
      <trkpt lat="42.6798940" lon="2.2774390">
        <ele>1038.2</ele>
        <time>2020-07-21T11:47:31Z</time>
      </trkpt>
      <trkpt lat="42.6798380" lon="2.2773030">
        <ele>1038.6</ele>
        <time>2020-07-21T11:47:35Z</time>
      </trkpt>
      <trkpt lat="42.6797920" lon="2.2771380">
        <ele>1039.6</ele>
        <time>2020-07-21T11:47:40Z</time>
      </trkpt>
      <trkpt lat="42.6797710" lon="2.2770770">
        <ele>1040.2</ele>
        <time>2020-07-21T11:47:42Z</time>
      </trkpt>
      <trkpt lat="42.6797500" lon="2.2770140">
        <ele>1040.4</ele>
        <time>2020-07-21T11:47:44Z</time>
      </trkpt>
      <trkpt lat="42.6797200" lon="2.2769210">
        <ele>1040.8</ele>
        <time>2020-07-21T11:47:47Z</time>
      </trkpt>
      <trkpt lat="42.6796920" lon="2.2768110">
        <ele>1041.4</ele>
        <time>2020-07-21T11:47:50Z</time>
      </trkpt>
      <trkpt lat="42.6796840" lon="2.2767720">
        <ele>1041.6</ele>
        <time>2020-07-21T11:47:51Z</time>
      </trkpt>
      <trkpt lat="42.6796790" lon="2.2767320">
        <ele>1041.8</ele>
        <time>2020-07-21T11:47:52Z</time>
      </trkpt>
      <trkpt lat="42.6796770" lon="2.2766940">
        <ele>1042.0</ele>
        <time>2020-07-21T11:47:53Z</time>
      </trkpt>
      <trkpt lat="42.6796910" lon="2.2765450">
        <ele>1042.6</ele>
        <time>2020-07-21T11:47:57Z</time>
      </trkpt>
      <trkpt lat="42.6797060" lon="2.2764760">
        <ele>1043.0</ele>
        <time>2020-07-21T11:47:59Z</time>
      </trkpt>
      <trkpt lat="42.6797140" lon="2.2764440">
        <ele>1043.4</ele>
        <time>2020-07-21T11:48:00Z</time>
      </trkpt>
      <trkpt lat="42.6797310" lon="2.2763770">
        <ele>1044.0</ele>
        <time>2020-07-21T11:48:02Z</time>
      </trkpt>
      <trkpt lat="42.6797600" lon="2.2762720">
        <ele>1045.0</ele>
        <time>2020-07-21T11:48:05Z</time>
      </trkpt>
      <trkpt lat="42.6797720" lon="2.2762390">
        <ele>1045.4</ele>
        <time>2020-07-21T11:48:06Z</time>
      </trkpt>
      <trkpt lat="42.6797980" lon="2.2761370">
        <ele>1045.8</ele>
        <time>2020-07-21T11:48:09Z</time>
      </trkpt>
      <trkpt lat="42.6798150" lon="2.2760790">
        <ele>1046.2</ele>
        <time>2020-07-21T11:48:11Z</time>
      </trkpt>
      <trkpt lat="42.6798270" lon="2.2760400">
        <ele>1046.6</ele>
        <time>2020-07-21T11:48:13Z</time>
      </trkpt>
      <trkpt lat="42.6798780" lon="2.2758680">
        <ele>1047.0</ele>
        <time>2020-07-21T11:48:19Z</time>
      </trkpt>
      <trkpt lat="42.6798850" lon="2.2758380">
        <ele>1047.2</ele>
        <time>2020-07-21T11:48:20Z</time>
      </trkpt>
      <trkpt lat="42.6799440" lon="2.2756140">
        <ele>1048.2</ele>
        <time>2020-07-21T11:48:26Z</time>
      </trkpt>
      <trkpt lat="42.6799560" lon="2.2755760">
        <ele>1048.4</ele>
        <time>2020-07-21T11:48:27Z</time>
      </trkpt>
      <trkpt lat="42.6799880" lon="2.2754240">
        <ele>1049.0</ele>
        <time>2020-07-21T11:48:31Z</time>
      </trkpt>
      <trkpt lat="42.6799940" lon="2.2753860">
        <ele>1049.6</ele>
        <time>2020-07-21T11:48:32Z</time>
      </trkpt>
      <trkpt lat="42.6800020" lon="2.2752280">
        <ele>1050.4</ele>
        <time>2020-07-21T11:48:36Z</time>
      </trkpt>
      <trkpt lat="42.6800010" lon="2.2751850">
        <ele>1050.6</ele>
        <time>2020-07-21T11:48:37Z</time>
      </trkpt>
      <trkpt lat="42.6800120" lon="2.2750330">
        <ele>1051.6</ele>
        <time>2020-07-21T11:48:41Z</time>
      </trkpt>
      <trkpt lat="42.6800310" lon="2.2749610">
        <ele>1052.4</ele>
        <time>2020-07-21T11:48:43Z</time>
      </trkpt>
      <trkpt lat="42.6800920" lon="2.2748890">
        <ele>1052.8</ele>
        <time>2020-07-21T11:48:46Z</time>
      </trkpt>
      <trkpt lat="42.6801460" lon="2.2748730">
        <ele>1053.4</ele>
        <time>2020-07-21T11:48:48Z</time>
      </trkpt>
      <trkpt lat="42.6801960" lon="2.2748810">
        <ele>1054.0</ele>
        <time>2020-07-21T11:48:50Z</time>
      </trkpt>
      <trkpt lat="42.6802660" lon="2.2749360">
        <ele>1054.6</ele>
        <time>2020-07-21T11:48:53Z</time>
      </trkpt>
      <trkpt lat="42.6803020" lon="2.2750820">
        <ele>1055.0</ele>
        <time>2020-07-21T11:48:57Z</time>
      </trkpt>
      <trkpt lat="42.6802560" lon="2.2752930">
        <ele>1055.4</ele>
        <time>2020-07-21T11:49:02Z</time>
      </trkpt>
      <trkpt lat="42.6802330" lon="2.2753710">
        <ele>1055.6</ele>
        <time>2020-07-21T11:49:04Z</time>
      </trkpt>
      <trkpt lat="42.6801650" lon="2.2755670">
        <ele>1056.0</ele>
        <time>2020-07-21T11:49:09Z</time>
      </trkpt>
      <trkpt lat="42.6801500" lon="2.2756110">
        <ele>1056.0</ele>
        <time>2020-07-21T11:49:10Z</time>
      </trkpt>
      <trkpt lat="42.6801200" lon="2.2757000">
        <ele>1056.0</ele>
        <time>2020-07-21T11:49:12Z</time>
      </trkpt>
      <trkpt lat="42.6800680" lon="2.2759320">
        <ele>1056.4</ele>
        <time>2020-07-21T11:49:17Z</time>
      </trkpt>
      <trkpt lat="42.6800680" lon="2.2759800">
        <ele>1056.4</ele>
        <time>2020-07-21T11:49:18Z</time>
      </trkpt>
      <trkpt lat="42.6801330" lon="2.2761860">
        <ele>1056.8</ele>
        <time>2020-07-21T11:49:23Z</time>
      </trkpt>
      <trkpt lat="42.6801780" lon="2.2762450">
        <ele>1057.2</ele>
        <time>2020-07-21T11:49:25Z</time>
      </trkpt>
      <trkpt lat="42.6802600" lon="2.2763000">
        <ele>1057.6</ele>
        <time>2020-07-21T11:49:28Z</time>
      </trkpt>
      <trkpt lat="42.6803480" lon="2.2763280">
        <ele>1057.8</ele>
        <time>2020-07-21T11:49:33Z</time>
      </trkpt>
      <trkpt lat="42.6803720" lon="2.2763180">
        <ele>1057.8</ele>
        <time>2020-07-21T11:49:35Z</time>
      </trkpt>
      <trkpt lat="42.6804090" lon="2.2763020">
        <ele>1058.2</ele>
        <time>2020-07-21T11:49:37Z</time>
      </trkpt>
      <trkpt lat="42.6804290" lon="2.2763000">
        <ele>1058.2</ele>
        <time>2020-07-21T11:49:38Z</time>
      </trkpt>
      <trkpt lat="42.6804500" lon="2.2763010">
        <ele>1058.4</ele>
        <time>2020-07-21T11:49:39Z</time>
      </trkpt>
      <trkpt lat="42.6805580" lon="2.2762630">
        <ele>1059.4</ele>
        <time>2020-07-21T11:49:44Z</time>
      </trkpt>
      <trkpt lat="42.6805800" lon="2.2762490">
        <ele>1059.4</ele>
        <time>2020-07-21T11:49:45Z</time>
      </trkpt>
      <trkpt lat="42.6806740" lon="2.2761810">
        <ele>1060.4</ele>
        <time>2020-07-21T11:49:50Z</time>
      </trkpt>
      <trkpt lat="42.6807910" lon="2.2760710">
        <ele>1061.6</ele>
        <time>2020-07-21T11:49:56Z</time>
      </trkpt>
      <trkpt lat="42.6808120" lon="2.2760540">
        <ele>1061.8</ele>
        <time>2020-07-21T11:49:57Z</time>
      </trkpt>
      <trkpt lat="42.6809140" lon="2.2759620">
        <ele>1062.6</ele>
        <time>2020-07-21T11:50:02Z</time>
      </trkpt>
      <trkpt lat="42.6809900" lon="2.2758950">
        <ele>1063.2</ele>
        <time>2020-07-21T11:50:06Z</time>
      </trkpt>
      <trkpt lat="42.6810570" lon="2.2758340">
        <ele>1063.6</ele>
        <time>2020-07-21T11:50:09Z</time>
      </trkpt>
      <trkpt lat="42.6811560" lon="2.2757360">
        <ele>1064.4</ele>
        <time>2020-07-21T11:50:13Z</time>
      </trkpt>
      <trkpt lat="42.6812040" lon="2.2756830">
        <ele>1065.0</ele>
        <time>2020-07-21T11:50:15Z</time>
      </trkpt>
      <trkpt lat="42.6812860" lon="2.2755810">
        <ele>1066.2</ele>
        <time>2020-07-21T11:50:19Z</time>
      </trkpt>
      <trkpt lat="42.6813360" lon="2.2754880">
        <ele>1066.6</ele>
        <time>2020-07-21T11:50:22Z</time>
      </trkpt>
      <trkpt lat="42.6814150" lon="2.2753570">
        <ele>1067.4</ele>
        <time>2020-07-21T11:50:26Z</time>
      </trkpt>
      <trkpt lat="42.6814940" lon="2.2752110">
        <ele>1068.2</ele>
        <time>2020-07-21T11:50:30Z</time>
      </trkpt>
      <trkpt lat="42.6815120" lon="2.2751750">
        <ele>1068.4</ele>
        <time>2020-07-21T11:50:31Z</time>
      </trkpt>
      <trkpt lat="42.6816120" lon="2.2750260">
        <ele>1069.2</ele>
        <time>2020-07-21T11:50:36Z</time>
      </trkpt>
      <trkpt lat="42.6816610" lon="2.2749700">
        <ele>1069.6</ele>
        <time>2020-07-21T11:50:38Z</time>
      </trkpt>
      <trkpt lat="42.6817930" lon="2.2748610">
        <ele>1070.6</ele>
        <time>2020-07-21T11:50:43Z</time>
      </trkpt>
      <trkpt lat="42.6818190" lon="2.2748470">
        <ele>1070.8</ele>
        <time>2020-07-21T11:50:44Z</time>
      </trkpt>
      <trkpt lat="42.6819650" lon="2.2748360">
        <ele>1071.2</ele>
        <time>2020-07-21T11:50:49Z</time>
      </trkpt>
      <trkpt lat="42.6821220" lon="2.2749190">
        <ele>1071.8</ele>
        <time>2020-07-21T11:50:54Z</time>
      </trkpt>
      <trkpt lat="42.6821550" lon="2.2749380">
        <ele>1071.8</ele>
        <time>2020-07-21T11:50:55Z</time>
      </trkpt>
      <trkpt lat="42.6823070" lon="2.2750310">
        <ele>1072.8</ele>
        <time>2020-07-21T11:51:00Z</time>
      </trkpt>
      <trkpt lat="42.6823410" lon="2.2750430">
        <ele>1073.0</ele>
        <time>2020-07-21T11:51:01Z</time>
      </trkpt>
      <trkpt lat="42.6823740" lon="2.2750490">
        <ele>1073.0</ele>
        <time>2020-07-21T11:51:02Z</time>
      </trkpt>
      <trkpt lat="42.6825100" lon="2.2750080">
        <ele>1073.6</ele>
        <time>2020-07-21T11:51:06Z</time>
      </trkpt>
      <trkpt lat="42.6825360" lon="2.2749800">
        <ele>1073.8</ele>
        <time>2020-07-21T11:51:07Z</time>
      </trkpt>
      <trkpt lat="42.6825580" lon="2.2749480">
        <ele>1074.0</ele>
        <time>2020-07-21T11:51:08Z</time>
      </trkpt>
      <trkpt lat="42.6826070" lon="2.2748070">
        <ele>1074.2</ele>
        <time>2020-07-21T11:51:12Z</time>
      </trkpt>
      <trkpt lat="42.6825890" lon="2.2747050">
        <ele>1075.0</ele>
        <time>2020-07-21T11:51:15Z</time>
      </trkpt>
      <trkpt lat="42.6825550" lon="2.2746450">
        <ele>1075.4</ele>
        <time>2020-07-21T11:51:17Z</time>
      </trkpt>
      <trkpt lat="42.6824530" lon="2.2745830">
        <ele>1076.2</ele>
        <time>2020-07-21T11:51:21Z</time>
      </trkpt>
      <trkpt lat="42.6824250" lon="2.2745760">
        <ele>1076.4</ele>
        <time>2020-07-21T11:51:22Z</time>
      </trkpt>
      <trkpt lat="42.6823140" lon="2.2745490">
        <ele>1077.4</ele>
        <time>2020-07-21T11:51:26Z</time>
      </trkpt>
      <trkpt lat="42.6821990" lon="2.2745230">
        <ele>1078.4</ele>
        <time>2020-07-21T11:51:30Z</time>
      </trkpt>
      <trkpt lat="42.6821700" lon="2.2745190">
        <ele>1078.6</ele>
        <time>2020-07-21T11:51:31Z</time>
      </trkpt>
      <trkpt lat="42.6819910" lon="2.2744980">
        <ele>1079.6</ele>
        <time>2020-07-21T11:51:37Z</time>
      </trkpt>
      <trkpt lat="42.6819340" lon="2.2744920">
        <ele>1080.2</ele>
        <time>2020-07-21T11:51:39Z</time>
      </trkpt>
      <trkpt lat="42.6818230" lon="2.2744870">
        <ele>1080.8</ele>
        <time>2020-07-21T11:51:43Z</time>
      </trkpt>
      <trkpt lat="42.6817460" lon="2.2744630">
        <ele>1082.0</ele>
        <time>2020-07-21T11:51:46Z</time>
      </trkpt>
      <trkpt lat="42.6817210" lon="2.2744480">
        <ele>1082.2</ele>
        <time>2020-07-21T11:51:47Z</time>
      </trkpt>
      <trkpt lat="42.6816400" lon="2.2743190">
        <ele>1082.4</ele>
        <time>2020-07-21T11:51:51Z</time>
      </trkpt>
      <trkpt lat="42.6816330" lon="2.2741170">
        <ele>1082.4</ele>
        <time>2020-07-21T11:51:55Z</time>
      </trkpt>
      <trkpt lat="42.6817280" lon="2.2739590">
        <ele>1083.0</ele>
        <time>2020-07-21T11:51:59Z</time>
      </trkpt>
      <trkpt lat="42.6818960" lon="2.2738940">
        <ele>1084.0</ele>
        <time>2020-07-21T11:52:04Z</time>
      </trkpt>
      <trkpt lat="42.6819290" lon="2.2738840">
        <ele>1084.2</ele>
        <time>2020-07-21T11:52:05Z</time>
      </trkpt>
      <trkpt lat="42.6820790" lon="2.2738230">
        <ele>1085.4</ele>
        <time>2020-07-21T11:52:10Z</time>
      </trkpt>
      <trkpt lat="42.6821560" lon="2.2737160">
        <ele>1086.4</ele>
        <time>2020-07-21T11:52:14Z</time>
      </trkpt>
      <trkpt lat="42.6822000" lon="2.2736190">
        <ele>1087.2</ele>
        <time>2020-07-21T11:52:17Z</time>
      </trkpt>
      <trkpt lat="42.6822200" lon="2.2735560">
        <ele>1087.8</ele>
        <time>2020-07-21T11:52:19Z</time>
      </trkpt>
      <trkpt lat="42.6822710" lon="2.2734200">
        <ele>1088.8</ele>
        <time>2020-07-21T11:52:23Z</time>
      </trkpt>
      <trkpt lat="42.6822810" lon="2.2733850">
        <ele>1088.8</ele>
        <time>2020-07-21T11:52:24Z</time>
      </trkpt>
      <trkpt lat="42.6823400" lon="2.2731840">
        <ele>1090.0</ele>
        <time>2020-07-21T11:52:30Z</time>
      </trkpt>
      <trkpt lat="42.6823760" lon="2.2730740">
        <ele>1090.4</ele>
        <time>2020-07-21T11:52:33Z</time>
      </trkpt>
      <trkpt lat="42.6824080" lon="2.2729690">
        <ele>1091.0</ele>
        <time>2020-07-21T11:52:36Z</time>
      </trkpt>
      <trkpt lat="42.6824410" lon="2.2728620">
        <ele>1091.4</ele>
        <time>2020-07-21T11:52:39Z</time>
      </trkpt>
      <trkpt lat="42.6824710" lon="2.2727620">
        <ele>1092.0</ele>
        <time>2020-07-21T11:52:42Z</time>
      </trkpt>
      <trkpt lat="42.6825150" lon="2.2726240">
        <ele>1092.8</ele>
        <time>2020-07-21T11:52:46Z</time>
      </trkpt>
      <trkpt lat="42.6825360" lon="2.2725550">
        <ele>1093.0</ele>
        <time>2020-07-21T11:52:48Z</time>
      </trkpt>
      <trkpt lat="42.6825940" lon="2.2723340">
        <ele>1094.2</ele>
        <time>2020-07-21T11:52:54Z</time>
      </trkpt>
      <trkpt lat="42.6826050" lon="2.2722600">
        <ele>1094.6</ele>
        <time>2020-07-21T11:52:56Z</time>
      </trkpt>
      <trkpt lat="42.6826060" lon="2.2722220">
        <ele>1094.8</ele>
        <time>2020-07-21T11:52:57Z</time>
      </trkpt>
      <trkpt lat="42.6826070" lon="2.2721480">
        <ele>1095.2</ele>
        <time>2020-07-21T11:52:59Z</time>
      </trkpt>
      <trkpt lat="42.6826050" lon="2.2720330">
        <ele>1095.6</ele>
        <time>2020-07-21T11:53:02Z</time>
      </trkpt>
      <trkpt lat="42.6826030" lon="2.2719570">
        <ele>1096.0</ele>
        <time>2020-07-21T11:53:04Z</time>
      </trkpt>
      <trkpt lat="42.6826040" lon="2.2719180">
        <ele>1096.4</ele>
        <time>2020-07-21T11:53:05Z</time>
      </trkpt>
      <trkpt lat="42.6826080" lon="2.2717640">
        <ele>1097.4</ele>
        <time>2020-07-21T11:53:09Z</time>
      </trkpt>
      <trkpt lat="42.6826320" lon="2.2716160">
        <ele>1098.6</ele>
        <time>2020-07-21T11:53:13Z</time>
      </trkpt>
      <trkpt lat="42.6826960" lon="2.2714130">
        <ele>1099.4</ele>
        <time>2020-07-21T11:53:19Z</time>
      </trkpt>
      <trkpt lat="42.6827100" lon="2.2713780">
        <ele>1099.6</ele>
        <time>2020-07-21T11:53:20Z</time>
      </trkpt>
      <trkpt lat="42.6827720" lon="2.2711510">
        <ele>1100.4</ele>
        <time>2020-07-21T11:53:26Z</time>
      </trkpt>
      <trkpt lat="42.6827760" lon="2.2711120">
        <ele>1100.6</ele>
        <time>2020-07-21T11:53:27Z</time>
      </trkpt>
      <trkpt lat="42.6827780" lon="2.2710720">
        <ele>1100.8</ele>
        <time>2020-07-21T11:53:28Z</time>
      </trkpt>
      <trkpt lat="42.6827710" lon="2.2709580">
        <ele>1102.0</ele>
        <time>2020-07-21T11:53:31Z</time>
      </trkpt>
      <trkpt lat="42.6827430" lon="2.2707730">
        <ele>1103.0</ele>
        <time>2020-07-21T11:53:36Z</time>
      </trkpt>
      <trkpt lat="42.6827250" lon="2.2706220">
        <ele>1103.8</ele>
        <time>2020-07-21T11:53:40Z</time>
      </trkpt>
      <trkpt lat="42.6827250" lon="2.2705470">
        <ele>1104.2</ele>
        <time>2020-07-21T11:53:42Z</time>
      </trkpt>
      <trkpt lat="42.6827310" lon="2.2705130">
        <ele>1104.4</ele>
        <time>2020-07-21T11:53:43Z</time>
      </trkpt>
      <trkpt lat="42.6828140" lon="2.2703930">
        <ele>1105.4</ele>
        <time>2020-07-21T11:53:48Z</time>
      </trkpt>
      <trkpt lat="42.6829090" lon="2.2703720">
        <ele>1106.4</ele>
        <time>2020-07-21T11:53:52Z</time>
      </trkpt>
      <trkpt lat="42.6829520" lon="2.2703990">
        <ele>1106.8</ele>
        <time>2020-07-21T11:53:54Z</time>
      </trkpt>
      <trkpt lat="42.6830260" lon="2.2705650">
        <ele>1107.4</ele>
        <time>2020-07-21T11:53:59Z</time>
      </trkpt>
      <trkpt lat="42.6830840" lon="2.2707950">
        <ele>1108.4</ele>
        <time>2020-07-21T11:54:05Z</time>
      </trkpt>
      <trkpt lat="42.6830970" lon="2.2708310">
        <ele>1108.4</ele>
        <time>2020-07-21T11:54:06Z</time>
      </trkpt>
      <trkpt lat="42.6831200" lon="2.2709070">
        <ele>1109.0</ele>
        <time>2020-07-21T11:54:08Z</time>
      </trkpt>
      <trkpt lat="42.6831670" lon="2.2710640">
        <ele>1109.6</ele>
        <time>2020-07-21T11:54:12Z</time>
      </trkpt>
      <trkpt lat="42.6832200" lon="2.2712620">
        <ele>1110.0</ele>
        <time>2020-07-21T11:54:17Z</time>
      </trkpt>
      <trkpt lat="42.6832700" lon="2.2714700">
        <ele>1110.8</ele>
        <time>2020-07-21T11:54:22Z</time>
      </trkpt>
      <trkpt lat="42.6832740" lon="2.2716010">
        <ele>1111.2</ele>
        <time>2020-07-21T11:54:25Z</time>
      </trkpt>
      <trkpt lat="42.6832150" lon="2.2719040">
        <ele>1111.4</ele>
        <time>2020-07-21T11:54:31Z</time>
      </trkpt>
      <trkpt lat="42.6831450" lon="2.2721560">
        <ele>1111.8</ele>
        <time>2020-07-21T11:54:36Z</time>
      </trkpt>
      <trkpt lat="42.6831280" lon="2.2723060">
        <ele>1112.4</ele>
        <time>2020-07-21T11:54:39Z</time>
      </trkpt>
      <trkpt lat="42.6831450" lon="2.2723960">
        <ele>1112.8</ele>
        <time>2020-07-21T11:54:41Z</time>
      </trkpt>
      <trkpt lat="42.6831840" lon="2.2724630">
        <ele>1113.2</ele>
        <time>2020-07-21T11:54:43Z</time>
      </trkpt>
      <trkpt lat="42.6832970" lon="2.2725070">
        <ele>1113.6</ele>
        <time>2020-07-21T11:54:47Z</time>
      </trkpt>
      <trkpt lat="42.6833970" lon="2.2724740">
        <ele>1113.8</ele>
        <time>2020-07-21T11:54:50Z</time>
      </trkpt>
      <trkpt lat="42.6834250" lon="2.2724490">
        <ele>1114.0</ele>
        <time>2020-07-21T11:54:51Z</time>
      </trkpt>
      <trkpt lat="42.6834520" lon="2.2724180">
        <ele>1114.2</ele>
        <time>2020-07-21T11:54:52Z</time>
      </trkpt>
      <trkpt lat="42.6835360" lon="2.2721990">
        <ele>1115.0</ele>
        <time>2020-07-21T11:54:57Z</time>
      </trkpt>
      <trkpt lat="42.6835740" lon="2.2718980">
        <ele>1116.2</ele>
        <time>2020-07-21T11:55:03Z</time>
      </trkpt>
      <trkpt lat="42.6835870" lon="2.2717490">
        <ele>1116.6</ele>
        <time>2020-07-21T11:55:06Z</time>
      </trkpt>
      <trkpt lat="42.6835940" lon="2.2715900">
        <ele>1117.2</ele>
        <time>2020-07-21T11:55:09Z</time>
      </trkpt>
      <trkpt lat="42.6836000" lon="2.2714380">
        <ele>1118.2</ele>
        <time>2020-07-21T11:55:12Z</time>
      </trkpt>
      <trkpt lat="42.6836100" lon="2.2712670">
        <ele>1119.2</ele>
        <time>2020-07-21T11:55:16Z</time>
      </trkpt>
      <trkpt lat="42.6836230" lon="2.2710660">
        <ele>1120.4</ele>
        <time>2020-07-21T11:55:21Z</time>
      </trkpt>
      <trkpt lat="42.6836270" lon="2.2709850">
        <ele>1120.8</ele>
        <time>2020-07-21T11:55:23Z</time>
      </trkpt>
      <trkpt lat="42.6836310" lon="2.2709050">
        <ele>1121.2</ele>
        <time>2020-07-21T11:55:25Z</time>
      </trkpt>
      <trkpt lat="42.6836330" lon="2.2708660">
        <ele>1121.4</ele>
        <time>2020-07-21T11:55:26Z</time>
      </trkpt>
      <trkpt lat="42.6836170" lon="2.2706620">
        <ele>1122.4</ele>
        <time>2020-07-21T11:55:31Z</time>
      </trkpt>
      <trkpt lat="42.6836130" lon="2.2706200">
        <ele>1122.6</ele>
        <time>2020-07-21T11:55:32Z</time>
      </trkpt>
      <trkpt lat="42.6835760" lon="2.2704240">
        <ele>1123.4</ele>
        <time>2020-07-21T11:55:37Z</time>
      </trkpt>
      <trkpt lat="42.6835660" lon="2.2703920">
        <ele>1123.6</ele>
        <time>2020-07-21T11:55:38Z</time>
      </trkpt>
      <trkpt lat="42.6835080" lon="2.2701810">
        <ele>1124.8</ele>
        <time>2020-07-21T11:55:44Z</time>
      </trkpt>
      <trkpt lat="42.6834770" lon="2.2700910">
        <ele>1125.4</ele>
        <time>2020-07-21T11:55:48Z</time>
      </trkpt>
      <trkpt lat="42.6834320" lon="2.2699450">
        <ele>1126.2</ele>
        <time>2020-07-21T11:56:28Z</time>
      </trkpt>
      <trkpt lat="42.6833740" lon="2.2697380">
        <ele>1127.2</ele>
        <time>2020-07-21T11:56:34Z</time>
      </trkpt>
      <trkpt lat="42.6833620" lon="2.2697040">
        <ele>1127.4</ele>
        <time>2020-07-21T11:56:35Z</time>
      </trkpt>
      <trkpt lat="42.6833140" lon="2.2695260">
        <ele>1128.4</ele>
        <time>2020-07-21T11:56:40Z</time>
      </trkpt>
      <trkpt lat="42.6832800" lon="2.2694170">
        <ele>1128.8</ele>
        <time>2020-07-21T11:56:43Z</time>
      </trkpt>
      <trkpt lat="42.6832360" lon="2.2692730">
        <ele>1129.6</ele>
        <time>2020-07-21T11:56:47Z</time>
      </trkpt>
      <trkpt lat="42.6832120" lon="2.2692020">
        <ele>1130.2</ele>
        <time>2020-07-21T11:56:49Z</time>
      </trkpt>
      <trkpt lat="42.6832010" lon="2.2691650">
        <ele>1130.6</ele>
        <time>2020-07-21T11:56:50Z</time>
      </trkpt>
      <trkpt lat="42.6831250" lon="2.2689700">
        <ele>1131.6</ele>
        <time>2020-07-21T11:56:56Z</time>
      </trkpt>
      <trkpt lat="42.6830990" lon="2.2689060">
        <ele>1132.0</ele>
        <time>2020-07-21T11:56:58Z</time>
      </trkpt>
      <trkpt lat="42.6830570" lon="2.2688120">
        <ele>1132.6</ele>
        <time>2020-07-21T11:57:01Z</time>
      </trkpt>
      <trkpt lat="42.6830060" lon="2.2686150">
        <ele>1133.6</ele>
        <time>2020-07-21T11:57:07Z</time>
      </trkpt>
      <trkpt lat="42.6830040" lon="2.2685800">
        <ele>1133.8</ele>
        <time>2020-07-21T11:57:08Z</time>
      </trkpt>
      <trkpt lat="42.6830550" lon="2.2684240">
        <ele>1134.6</ele>
        <time>2020-07-21T11:57:13Z</time>
      </trkpt>
      <trkpt lat="42.6830760" lon="2.2684050">
        <ele>1134.8</ele>
        <time>2020-07-21T11:57:14Z</time>
      </trkpt>
      <trkpt lat="42.6831740" lon="2.2683940">
        <ele>1135.4</ele>
        <time>2020-07-21T11:57:18Z</time>
      </trkpt>
      <trkpt lat="42.6832020" lon="2.2684090">
        <ele>1135.8</ele>
        <time>2020-07-21T11:57:19Z</time>
      </trkpt>
      <trkpt lat="42.6832950" lon="2.2685310">
        <ele>1136.6</ele>
        <time>2020-07-21T11:57:23Z</time>
      </trkpt>
      <trkpt lat="42.6833330" lon="2.2686140">
        <ele>1137.0</ele>
        <time>2020-07-21T11:57:25Z</time>
      </trkpt>
      <trkpt lat="42.6834070" lon="2.2687720">
        <ele>1137.8</ele>
        <time>2020-07-21T11:57:29Z</time>
      </trkpt>
      <trkpt lat="42.6834260" lon="2.2688090">
        <ele>1138.2</ele>
        <time>2020-07-21T11:57:30Z</time>
      </trkpt>
      <trkpt lat="42.6834440" lon="2.2688440">
        <ele>1138.4</ele>
        <time>2020-07-21T11:57:31Z</time>
      </trkpt>
      <trkpt lat="42.6834990" lon="2.2689780">
        <ele>1139.4</ele>
        <time>2020-07-21T11:57:35Z</time>
      </trkpt>
      <trkpt lat="42.6835450" lon="2.2690700">
        <ele>1140.0</ele>
        <time>2020-07-21T11:57:38Z</time>
      </trkpt>
      <trkpt lat="42.6835870" lon="2.2691620">
        <ele>1140.4</ele>
        <time>2020-07-21T11:57:41Z</time>
      </trkpt>
      <trkpt lat="42.6836600" lon="2.2692830">
        <ele>1141.4</ele>
        <time>2020-07-21T11:57:45Z</time>
      </trkpt>
      <trkpt lat="42.6837660" lon="2.2694330">
        <ele>1142.4</ele>
        <time>2020-07-21T11:57:50Z</time>
      </trkpt>
      <trkpt lat="42.6838540" lon="2.2695430">
        <ele>1143.6</ele>
        <time>2020-07-21T11:57:54Z</time>
      </trkpt>
      <trkpt lat="42.6839570" lon="2.2696780">
        <ele>1144.8</ele>
        <time>2020-07-21T11:57:59Z</time>
      </trkpt>
      <trkpt lat="42.6840420" lon="2.2697900">
        <ele>1145.8</ele>
        <time>2020-07-21T11:58:03Z</time>
      </trkpt>
      <trkpt lat="42.6841290" lon="2.2698990">
        <ele>1146.6</ele>
        <time>2020-07-21T11:58:07Z</time>
      </trkpt>
      <trkpt lat="42.6841690" lon="2.2699600">
        <ele>1147.0</ele>
        <time>2020-07-21T11:58:09Z</time>
      </trkpt>
      <trkpt lat="42.6842620" lon="2.2701080">
        <ele>1147.8</ele>
        <time>2020-07-21T11:58:14Z</time>
      </trkpt>
      <trkpt lat="42.6842780" lon="2.2701350">
        <ele>1148.0</ele>
        <time>2020-07-21T11:58:15Z</time>
      </trkpt>
      <trkpt lat="42.6843570" lon="2.2702670">
        <ele>1149.0</ele>
        <time>2020-07-21T11:58:20Z</time>
      </trkpt>
      <trkpt lat="42.6843840" lon="2.2703260">
        <ele>1149.4</ele>
        <time>2020-07-21T11:58:22Z</time>
      </trkpt>
      <trkpt lat="42.6844270" lon="2.2704260">
        <ele>1150.2</ele>
        <time>2020-07-21T11:58:25Z</time>
      </trkpt>
      <trkpt lat="42.6844990" lon="2.2705730">
        <ele>1151.2</ele>
        <time>2020-07-21T11:58:30Z</time>
      </trkpt>
      <trkpt lat="42.6845080" lon="2.2705990">
        <ele>1151.4</ele>
        <time>2020-07-21T11:58:31Z</time>
      </trkpt>
      <trkpt lat="42.6845600" lon="2.2707270">
        <ele>1152.2</ele>
        <time>2020-07-21T11:58:36Z</time>
      </trkpt>
      <trkpt lat="42.6845830" lon="2.2708050">
        <ele>1152.8</ele>
        <time>2020-07-21T11:58:39Z</time>
      </trkpt>
      <trkpt lat="42.6846060" lon="2.2709490">
        <ele>1153.4</ele>
        <time>2020-07-21T11:58:44Z</time>
      </trkpt>
      <trkpt lat="42.6846160" lon="2.2710120">
        <ele>1153.8</ele>
        <time>2020-07-21T11:58:46Z</time>
      </trkpt>
      <trkpt lat="42.6846250" lon="2.2711220">
        <ele>1154.6</ele>
        <time>2020-07-21T11:58:49Z</time>
      </trkpt>
      <trkpt lat="42.6846370" lon="2.2713000">
        <ele>1155.4</ele>
        <time>2020-07-21T11:58:54Z</time>
      </trkpt>
      <trkpt lat="42.6846400" lon="2.2713350">
        <ele>1155.6</ele>
        <time>2020-07-21T11:58:55Z</time>
      </trkpt>
      <trkpt lat="42.6846560" lon="2.2715180">
        <ele>1156.6</ele>
        <time>2020-07-21T11:59:00Z</time>
      </trkpt>
      <trkpt lat="42.6846560" lon="2.2715550">
        <ele>1156.8</ele>
        <time>2020-07-21T11:59:01Z</time>
      </trkpt>
      <trkpt lat="42.6846570" lon="2.2715910">
        <ele>1157.0</ele>
        <time>2020-07-21T11:59:02Z</time>
      </trkpt>
      <trkpt lat="42.6846690" lon="2.2717330">
        <ele>1157.8</ele>
        <time>2020-07-21T11:59:06Z</time>
      </trkpt>
      <trkpt lat="42.6846920" lon="2.2718730">
        <ele>1158.6</ele>
        <time>2020-07-21T11:59:10Z</time>
      </trkpt>
      <trkpt lat="42.6847150" lon="2.2719340">
        <ele>1158.8</ele>
        <time>2020-07-21T11:59:12Z</time>
      </trkpt>
      <trkpt lat="42.6847870" lon="2.2720250">
        <ele>1159.6</ele>
        <time>2020-07-21T11:59:16Z</time>
      </trkpt>
      <trkpt lat="42.6848090" lon="2.2720350">
        <ele>1160.0</ele>
        <time>2020-07-21T11:59:17Z</time>
      </trkpt>
      <trkpt lat="42.6848990" lon="2.2720140">
        <ele>1160.6</ele>
        <time>2020-07-21T11:59:21Z</time>
      </trkpt>
      <trkpt lat="42.6849180" lon="2.2719910">
        <ele>1160.6</ele>
        <time>2020-07-21T11:59:22Z</time>
      </trkpt>
      <trkpt lat="42.6849330" lon="2.2719620">
        <ele>1160.6</ele>
        <time>2020-07-21T11:59:23Z</time>
      </trkpt>
      <trkpt lat="42.6849530" lon="2.2718870">
        <ele>1160.8</ele>
        <time>2020-07-21T11:59:25Z</time>
      </trkpt>
      <trkpt lat="42.6849580" lon="2.2718450">
        <ele>1161.0</ele>
        <time>2020-07-21T11:59:26Z</time>
      </trkpt>
      <trkpt lat="42.6849590" lon="2.2717610">
        <ele>1161.2</ele>
        <time>2020-07-21T11:59:28Z</time>
      </trkpt>
      <trkpt lat="42.6849460" lon="2.2715780">
        <ele>1162.2</ele>
        <time>2020-07-21T11:59:32Z</time>
      </trkpt>
      <trkpt lat="42.6849130" lon="2.2713310">
        <ele>1163.2</ele>
        <time>2020-07-21T11:59:37Z</time>
      </trkpt>
      <trkpt lat="42.6848940" lon="2.2712310">
        <ele>1163.6</ele>
        <time>2020-07-21T11:59:39Z</time>
      </trkpt>
      <trkpt lat="42.6848790" lon="2.2710910">
        <ele>1164.4</ele>
        <time>2020-07-21T11:59:42Z</time>
      </trkpt>
      <trkpt lat="42.6848640" lon="2.2709160">
        <ele>1165.0</ele>
        <time>2020-07-21T11:59:46Z</time>
      </trkpt>
      <trkpt lat="42.6848550" lon="2.2708350">
        <ele>1165.6</ele>
        <time>2020-07-21T11:59:48Z</time>
      </trkpt>
      <trkpt lat="42.6848290" lon="2.2705960">
        <ele>1166.8</ele>
        <time>2020-07-21T11:59:54Z</time>
      </trkpt>
      <trkpt lat="42.6848250" lon="2.2705570">
        <ele>1167.2</ele>
        <time>2020-07-21T11:59:55Z</time>
      </trkpt>
      <trkpt lat="42.6848040" lon="2.2704070">
        <ele>1168.0</ele>
        <time>2020-07-21T11:59:59Z</time>
      </trkpt>
      <trkpt lat="42.6847750" lon="2.2702650">
        <ele>1169.2</ele>
        <time>2020-07-21T12:00:03Z</time>
      </trkpt>
      <trkpt lat="42.6847590" lon="2.2701980">
        <ele>1169.6</ele>
        <time>2020-07-21T12:00:05Z</time>
      </trkpt>
      <trkpt lat="42.6847300" lon="2.2700610">
        <ele>1170.2</ele>
        <time>2020-07-21T12:00:09Z</time>
      </trkpt>
      <trkpt lat="42.6846980" lon="2.2699240">
        <ele>1171.4</ele>
        <time>2020-07-21T12:00:13Z</time>
      </trkpt>
      <trkpt lat="42.6846780" lon="2.2698290">
        <ele>1172.0</ele>
        <time>2020-07-21T12:00:16Z</time>
      </trkpt>
      <trkpt lat="42.6846550" lon="2.2697270">
        <ele>1172.4</ele>
        <time>2020-07-21T12:00:19Z</time>
      </trkpt>
      <trkpt lat="42.6846460" lon="2.2696920">
        <ele>1172.6</ele>
        <time>2020-07-21T12:00:20Z</time>
      </trkpt>
      <trkpt lat="42.6846190" lon="2.2695840">
        <ele>1173.0</ele>
        <time>2020-07-21T12:00:23Z</time>
      </trkpt>
      <trkpt lat="42.6846010" lon="2.2695160">
        <ele>1173.4</ele>
        <time>2020-07-21T12:00:25Z</time>
      </trkpt>
      <trkpt lat="42.6845660" lon="2.2693930">
        <ele>1174.0</ele>
        <time>2020-07-21T12:00:29Z</time>
      </trkpt>
      <trkpt lat="42.6845410" lon="2.2692960">
        <ele>1174.6</ele>
        <time>2020-07-21T12:00:32Z</time>
      </trkpt>
      <trkpt lat="42.6845120" lon="2.2691660">
        <ele>1175.6</ele>
        <time>2020-07-21T12:00:36Z</time>
      </trkpt>
      <trkpt lat="42.6845060" lon="2.2691320">
        <ele>1175.8</ele>
        <time>2020-07-21T12:00:37Z</time>
      </trkpt>
      <trkpt lat="42.6844830" lon="2.2689620">
        <ele>1177.0</ele>
        <time>2020-07-21T12:00:42Z</time>
      </trkpt>
      <trkpt lat="42.6844760" lon="2.2688940">
        <ele>1177.4</ele>
        <time>2020-07-21T12:00:44Z</time>
      </trkpt>
      <trkpt lat="42.6844610" lon="2.2687920">
        <ele>1177.8</ele>
        <time>2020-07-21T12:00:47Z</time>
      </trkpt>
      <trkpt lat="42.6844550" lon="2.2687570">
        <ele>1178.0</ele>
        <time>2020-07-21T12:00:48Z</time>
      </trkpt>
      <trkpt lat="42.6844360" lon="2.2685840">
        <ele>1179.0</ele>
        <time>2020-07-21T12:00:53Z</time>
      </trkpt>
      <trkpt lat="42.6844310" lon="2.2685500">
        <ele>1179.4</ele>
        <time>2020-07-21T12:00:54Z</time>
      </trkpt>
      <trkpt lat="42.6844030" lon="2.2683530">
        <ele>1180.2</ele>
        <time>2020-07-21T12:01:00Z</time>
      </trkpt>
      <trkpt lat="42.6843980" lon="2.2683230">
        <ele>1180.6</ele>
        <time>2020-07-21T12:01:01Z</time>
      </trkpt>
      <trkpt lat="42.6843910" lon="2.2681450">
        <ele>1181.2</ele>
        <time>2020-07-21T12:01:06Z</time>
      </trkpt>
      <trkpt lat="42.6843840" lon="2.2680310">
        <ele>1181.8</ele>
        <time>2020-07-21T12:01:09Z</time>
      </trkpt>
      <trkpt lat="42.6843800" lon="2.2679270">
        <ele>1183.0</ele>
        <time>2020-07-21T12:01:12Z</time>
      </trkpt>
      <trkpt lat="42.6843830" lon="2.2677900">
        <ele>1184.0</ele>
        <time>2020-07-21T12:01:16Z</time>
      </trkpt>
      <trkpt lat="42.6843940" lon="2.2676510">
        <ele>1184.8</ele>
        <time>2020-07-21T12:01:20Z</time>
      </trkpt>
      <trkpt lat="42.6843950" lon="2.2676160">
        <ele>1185.0</ele>
        <time>2020-07-21T12:01:21Z</time>
      </trkpt>
      <trkpt lat="42.6843940" lon="2.2674380">
        <ele>1186.0</ele>
        <time>2020-07-21T12:01:26Z</time>
      </trkpt>
      <trkpt lat="42.6843990" lon="2.2673660">
        <ele>1186.6</ele>
        <time>2020-07-21T12:01:28Z</time>
      </trkpt>
      <trkpt lat="42.6844090" lon="2.2672960">
        <ele>1187.2</ele>
        <time>2020-07-21T12:01:30Z</time>
      </trkpt>
      <trkpt lat="42.6844380" lon="2.2670880">
        <ele>1188.4</ele>
        <time>2020-07-21T12:01:36Z</time>
      </trkpt>
      <trkpt lat="42.6844470" lon="2.2670550">
        <ele>1188.6</ele>
        <time>2020-07-21T12:01:37Z</time>
      </trkpt>
      <trkpt lat="42.6845110" lon="2.2668670">
        <ele>1189.6</ele>
        <time>2020-07-21T12:01:43Z</time>
      </trkpt>
      <trkpt lat="42.6845430" lon="2.2668150">
        <ele>1190.0</ele>
        <time>2020-07-21T12:01:45Z</time>
      </trkpt>
      <trkpt lat="42.6845890" lon="2.2667310">
        <ele>1190.8</ele>
        <time>2020-07-21T12:01:48Z</time>
      </trkpt>
      <trkpt lat="42.6846740" lon="2.2666060">
        <ele>1192.0</ele>
        <time>2020-07-21T12:01:53Z</time>
      </trkpt>
      <trkpt lat="42.6847230" lon="2.2664890">
        <ele>1193.0</ele>
        <time>2020-07-21T12:01:57Z</time>
      </trkpt>
      <trkpt lat="42.6847620" lon="2.2663580">
        <ele>1193.6</ele>
        <time>2020-07-21T12:02:01Z</time>
      </trkpt>
      <trkpt lat="42.6847670" lon="2.2662510">
        <ele>1194.0</ele>
        <time>2020-07-21T12:02:04Z</time>
      </trkpt>
      <trkpt lat="42.6847520" lon="2.2661510">
        <ele>1194.2</ele>
        <time>2020-07-21T12:02:07Z</time>
      </trkpt>
      <trkpt lat="42.6846900" lon="2.2660420">
        <ele>1195.2</ele>
        <time>2020-07-21T12:02:11Z</time>
      </trkpt>
      <trkpt lat="42.6846540" lon="2.2659980">
        <ele>1195.4</ele>
        <time>2020-07-21T12:02:13Z</time>
      </trkpt>
      <trkpt lat="42.6845170" lon="2.2659390">
        <ele>1196.6</ele>
        <time>2020-07-21T12:02:18Z</time>
      </trkpt>
      <trkpt lat="42.6844900" lon="2.2659320">
        <ele>1196.8</ele>
        <time>2020-07-21T12:02:19Z</time>
      </trkpt>
      <trkpt lat="42.6843510" lon="2.2658980">
        <ele>1197.8</ele>
        <time>2020-07-21T12:02:24Z</time>
      </trkpt>
      <trkpt lat="42.6842490" lon="2.2658750">
        <ele>1198.6</ele>
        <time>2020-07-21T12:02:28Z</time>
      </trkpt>
      <trkpt lat="42.6841970" lon="2.2658670">
        <ele>1199.0</ele>
        <time>2020-07-21T12:02:30Z</time>
      </trkpt>
      <trkpt lat="42.6841410" lon="2.2658630">
        <ele>1199.2</ele>
        <time>2020-07-21T12:02:32Z</time>
      </trkpt>
      <trkpt lat="42.6840270" lon="2.2658690">
        <ele>1200.2</ele>
        <time>2020-07-21T12:02:36Z</time>
      </trkpt>
      <trkpt lat="42.6838930" lon="2.2658830">
        <ele>1201.2</ele>
        <time>2020-07-21T12:02:41Z</time>
      </trkpt>
      <trkpt lat="42.6838470" lon="2.2658710">
        <ele>1201.4</ele>
        <time>2020-07-21T12:02:43Z</time>
      </trkpt>
      <trkpt lat="42.6837460" lon="2.2658580">
        <ele>1202.2</ele>
        <time>2020-07-21T12:02:47Z</time>
      </trkpt>
      <trkpt lat="42.6836860" lon="2.2657930">
        <ele>1203.2</ele>
        <time>2020-07-21T12:02:50Z</time>
      </trkpt>
      <trkpt lat="42.6836490" lon="2.2657420">
        <ele>1203.6</ele>
        <time>2020-07-21T12:02:52Z</time>
      </trkpt>
      <trkpt lat="42.6836030" lon="2.2656080">
        <ele>1204.4</ele>
        <time>2020-07-21T12:02:56Z</time>
      </trkpt>
      <trkpt lat="42.6835980" lon="2.2655710">
        <ele>1204.6</ele>
        <time>2020-07-21T12:02:57Z</time>
      </trkpt>
      <trkpt lat="42.6835890" lon="2.2655010">
        <ele>1205.0</ele>
        <time>2020-07-21T12:02:59Z</time>
      </trkpt>
      <trkpt lat="42.6835810" lon="2.2654330">
        <ele>1205.4</ele>
        <time>2020-07-21T12:03:01Z</time>
      </trkpt>
      <trkpt lat="42.6835770" lon="2.2653970">
        <ele>1205.6</ele>
        <time>2020-07-21T12:03:02Z</time>
      </trkpt>
      <trkpt lat="42.6835740" lon="2.2653620">
        <ele>1205.8</ele>
        <time>2020-07-21T12:03:03Z</time>
      </trkpt>
      <trkpt lat="42.6835710" lon="2.2653250">
        <ele>1205.8</ele>
        <time>2020-07-21T12:03:04Z</time>
      </trkpt>
      <trkpt lat="42.6835750" lon="2.2651240">
        <ele>1206.8</ele>
        <time>2020-07-21T12:03:10Z</time>
      </trkpt>
      <trkpt lat="42.6835750" lon="2.2650870">
        <ele>1207.0</ele>
        <time>2020-07-21T12:03:11Z</time>
      </trkpt>
      <trkpt lat="42.6835700" lon="2.2649480">
        <ele>1208.2</ele>
        <time>2020-07-21T12:03:15Z</time>
      </trkpt>
      <trkpt lat="42.6835580" lon="2.2648110">
        <ele>1209.4</ele>
        <time>2020-07-21T12:03:19Z</time>
      </trkpt>
      <trkpt lat="42.6835490" lon="2.2647450">
        <ele>1209.6</ele>
        <time>2020-07-21T12:03:21Z</time>
      </trkpt>
      <trkpt lat="42.6835390" lon="2.2646460">
        <ele>1210.2</ele>
        <time>2020-07-21T12:03:24Z</time>
      </trkpt>
      <trkpt lat="42.6835320" lon="2.2646140">
        <ele>1210.4</ele>
        <time>2020-07-21T12:03:25Z</time>
      </trkpt>
      <trkpt lat="42.6835180" lon="2.2645460">
        <ele>1210.8</ele>
        <time>2020-07-21T12:03:27Z</time>
      </trkpt>
      <trkpt lat="42.6835080" lon="2.2644740">
        <ele>1211.2</ele>
        <time>2020-07-21T12:03:29Z</time>
      </trkpt>
      <trkpt lat="42.6834980" lon="2.2643990">
        <ele>1211.6</ele>
        <time>2020-07-21T12:03:31Z</time>
      </trkpt>
      <trkpt lat="42.6834760" lon="2.2642230">
        <ele>1212.6</ele>
        <time>2020-07-21T12:03:36Z</time>
      </trkpt>
      <trkpt lat="42.6834720" lon="2.2641540">
        <ele>1213.2</ele>
        <time>2020-07-21T12:03:38Z</time>
      </trkpt>
      <trkpt lat="42.6834680" lon="2.2641190">
        <ele>1213.4</ele>
        <time>2020-07-21T12:03:39Z</time>
      </trkpt>
      <trkpt lat="42.6834680" lon="2.2640850">
        <ele>1213.8</ele>
        <time>2020-07-21T12:03:40Z</time>
      </trkpt>
      <trkpt lat="42.6834520" lon="2.2639460">
        <ele>1214.8</ele>
        <time>2020-07-21T12:03:44Z</time>
      </trkpt>
      <trkpt lat="42.6834430" lon="2.2638790">
        <ele>1215.4</ele>
        <time>2020-07-21T12:03:46Z</time>
      </trkpt>
      <trkpt lat="42.6834250" lon="2.2637360">
        <ele>1216.0</ele>
        <time>2020-07-21T12:03:50Z</time>
      </trkpt>
      <trkpt lat="42.6834100" lon="2.2636200">
        <ele>1216.6</ele>
        <time>2020-07-21T12:03:53Z</time>
      </trkpt>
      <trkpt lat="42.6834040" lon="2.2635840">
        <ele>1216.8</ele>
        <time>2020-07-21T12:03:54Z</time>
      </trkpt>
      <trkpt lat="42.6833950" lon="2.2635140">
        <ele>1217.2</ele>
        <time>2020-07-21T12:03:56Z</time>
      </trkpt>
      <trkpt lat="42.6833640" lon="2.2633910">
        <ele>1217.8</ele>
        <time>2020-07-21T12:04:00Z</time>
      </trkpt>
      <trkpt lat="42.6833380" lon="2.2632900">
        <ele>1218.4</ele>
        <time>2020-07-21T12:04:03Z</time>
      </trkpt>
      <trkpt lat="42.6832990" lon="2.2631570">
        <ele>1219.4</ele>
        <time>2020-07-21T12:04:07Z</time>
      </trkpt>
      <trkpt lat="42.6832750" lon="2.2630980">
        <ele>1219.8</ele>
        <time>2020-07-21T12:04:09Z</time>
      </trkpt>
      <trkpt lat="42.6832160" lon="2.2629400">
        <ele>1220.6</ele>
        <time>2020-07-21T12:04:14Z</time>
      </trkpt>
      <trkpt lat="42.6832030" lon="2.2629140">
        <ele>1220.6</ele>
        <time>2020-07-21T12:04:15Z</time>
      </trkpt>
      <trkpt lat="42.6831580" lon="2.2628310">
        <ele>1221.6</ele>
        <time>2020-07-21T12:04:18Z</time>
      </trkpt>
      <trkpt lat="42.6830820" lon="2.2626840">
        <ele>1222.6</ele>
        <time>2020-07-21T12:04:23Z</time>
      </trkpt>
      <trkpt lat="42.6830700" lon="2.2626520">
        <ele>1222.8</ele>
        <time>2020-07-21T12:04:24Z</time>
      </trkpt>
      <trkpt lat="42.6830070" lon="2.2624710">
        <ele>1223.8</ele>
        <time>2020-07-21T12:04:30Z</time>
      </trkpt>
      <trkpt lat="42.6829960" lon="2.2624410">
        <ele>1224.0</ele>
        <time>2020-07-21T12:04:31Z</time>
      </trkpt>
      <trkpt lat="42.6829510" lon="2.2623240">
        <ele>1225.0</ele>
        <time>2020-07-21T12:04:35Z</time>
      </trkpt>
      <trkpt lat="42.6829200" lon="2.2622350">
        <ele>1225.8</ele>
        <time>2020-07-21T12:04:38Z</time>
      </trkpt>
      <trkpt lat="42.6828920" lon="2.2621770">
        <ele>1226.2</ele>
        <time>2020-07-21T12:04:40Z</time>
      </trkpt>
      <trkpt lat="42.6828150" lon="2.2620660">
        <ele>1227.2</ele>
        <time>2020-07-21T12:04:44Z</time>
      </trkpt>
      <trkpt lat="42.6827920" lon="2.2620400">
        <ele>1227.6</ele>
        <time>2020-07-21T12:04:45Z</time>
      </trkpt>
      <trkpt lat="42.6826410" lon="2.2619190">
        <ele>1228.0</ele>
        <time>2020-07-21T12:04:51Z</time>
      </trkpt>
      <trkpt lat="42.6825990" lon="2.2618920">
        <ele>1228.4</ele>
        <time>2020-07-21T12:04:53Z</time>
      </trkpt>
      <trkpt lat="42.6825450" lon="2.2618050">
        <ele>1229.2</ele>
        <time>2020-07-21T12:04:57Z</time>
      </trkpt>
      <trkpt lat="42.6825350" lon="2.2617810">
        <ele>1229.6</ele>
        <time>2020-07-21T12:04:58Z</time>
      </trkpt>
      <trkpt lat="42.6825140" lon="2.2616910">
        <ele>1230.6</ele>
        <time>2020-07-21T12:05:02Z</time>
      </trkpt>
      <trkpt lat="42.6825050" lon="2.2616010">
        <ele>1231.2</ele>
        <time>2020-07-21T12:05:05Z</time>
      </trkpt>
      <trkpt lat="42.6824940" lon="2.2615180">
        <ele>1231.8</ele>
        <time>2020-07-21T12:05:08Z</time>
      </trkpt>
      <trkpt lat="42.6824470" lon="2.2614040">
        <ele>1232.6</ele>
        <time>2020-07-21T12:05:12Z</time>
      </trkpt>
      <trkpt lat="42.6824120" lon="2.2613570">
        <ele>1233.0</ele>
        <time>2020-07-21T12:05:14Z</time>
      </trkpt>
      <trkpt lat="42.6823460" lon="2.2612680">
        <ele>1234.0</ele>
        <time>2020-07-21T12:05:18Z</time>
      </trkpt>
      <trkpt lat="42.6823250" lon="2.2612520">
        <ele>1234.2</ele>
        <time>2020-07-21T12:05:19Z</time>
      </trkpt>
      <trkpt lat="42.6822300" lon="2.2612120">
        <ele>1235.0</ele>
        <time>2020-07-21T12:05:23Z</time>
      </trkpt>
      <trkpt lat="42.6822030" lon="2.2612110">
        <ele>1235.2</ele>
        <time>2020-07-21T12:05:24Z</time>
      </trkpt>
      <trkpt lat="42.6820780" lon="2.2612500">
        <ele>1236.2</ele>
        <time>2020-07-21T12:05:29Z</time>
      </trkpt>
      <trkpt lat="42.6820330" lon="2.2612740">
        <ele>1236.6</ele>
        <time>2020-07-21T12:05:31Z</time>
      </trkpt>
      <trkpt lat="42.6819250" lon="2.2613550">
        <ele>1237.4</ele>
        <time>2020-07-21T12:05:36Z</time>
      </trkpt>
      <trkpt lat="42.6819110" lon="2.2613740">
        <ele>1237.6</ele>
        <time>2020-07-21T12:05:37Z</time>
      </trkpt>
      <trkpt lat="42.6818640" lon="2.2614420">
        <ele>1238.4</ele>
        <time>2020-07-21T12:05:40Z</time>
      </trkpt>
      <trkpt lat="42.6818210" lon="2.2615230">
        <ele>1239.4</ele>
        <time>2020-07-21T12:05:43Z</time>
      </trkpt>
      <trkpt lat="42.6818080" lon="2.2615500">
        <ele>1239.8</ele>
        <time>2020-07-21T12:05:44Z</time>
      </trkpt>
      <trkpt lat="42.6817660" lon="2.2616450">
        <ele>1240.4</ele>
        <time>2020-07-21T12:05:47Z</time>
      </trkpt>
      <trkpt lat="42.6817460" lon="2.2617010">
        <ele>1241.0</ele>
        <time>2020-07-21T12:05:49Z</time>
      </trkpt>
      <trkpt lat="42.6816970" lon="2.2618890">
        <ele>1241.8</ele>
        <time>2020-07-21T12:05:55Z</time>
      </trkpt>
      <trkpt lat="42.6816830" lon="2.2619210">
        <ele>1242.0</ele>
        <time>2020-07-21T12:05:56Z</time>
      </trkpt>
      <trkpt lat="42.6816440" lon="2.2621120">
        <ele>1243.0</ele>
        <time>2020-07-21T12:06:02Z</time>
      </trkpt>
      <trkpt lat="42.6816350" lon="2.2621780">
        <ele>1243.2</ele>
        <time>2020-07-21T12:06:04Z</time>
      </trkpt>
      <trkpt lat="42.6816110" lon="2.2623040">
        <ele>1244.2</ele>
        <time>2020-07-21T12:06:08Z</time>
      </trkpt>
      <trkpt lat="42.6815500" lon="2.2624790">
        <ele>1245.2</ele>
        <time>2020-07-21T12:06:13Z</time>
      </trkpt>
      <trkpt lat="42.6815370" lon="2.2625140">
        <ele>1245.4</ele>
        <time>2020-07-21T12:06:14Z</time>
      </trkpt>
      <trkpt lat="42.6815240" lon="2.2625500">
        <ele>1245.8</ele>
        <time>2020-07-21T12:06:15Z</time>
      </trkpt>
      <trkpt lat="42.6815080" lon="2.2625850">
        <ele>1245.8</ele>
        <time>2020-07-21T12:06:16Z</time>
      </trkpt>
      <trkpt lat="42.6814810" lon="2.2626560">
        <ele>1246.2</ele>
        <time>2020-07-21T12:06:18Z</time>
      </trkpt>
      <trkpt lat="42.6814290" lon="2.2627890">
        <ele>1247.0</ele>
        <time>2020-07-21T12:06:22Z</time>
      </trkpt>
      <trkpt lat="42.6814140" lon="2.2628180">
        <ele>1247.4</ele>
        <time>2020-07-21T12:06:23Z</time>
      </trkpt>
      <trkpt lat="42.6813830" lon="2.2628730">
        <ele>1247.8</ele>
        <time>2020-07-21T12:06:25Z</time>
      </trkpt>
      <trkpt lat="42.6813500" lon="2.2629250">
        <ele>1248.2</ele>
        <time>2020-07-21T12:06:27Z</time>
      </trkpt>
      <trkpt lat="42.6813310" lon="2.2629490">
        <ele>1248.4</ele>
        <time>2020-07-21T12:06:28Z</time>
      </trkpt>
      <trkpt lat="42.6812680" lon="2.2630110">
        <ele>1249.4</ele>
        <time>2020-07-21T12:06:31Z</time>
      </trkpt>
      <trkpt lat="42.6812450" lon="2.2630290">
        <ele>1249.6</ele>
        <time>2020-07-21T12:06:32Z</time>
      </trkpt>
      <trkpt lat="42.6811260" lon="2.2631040">
        <ele>1250.6</ele>
        <time>2020-07-21T12:06:37Z</time>
      </trkpt>
      <trkpt lat="42.6810750" lon="2.2631260">
        <ele>1251.2</ele>
        <time>2020-07-21T12:06:39Z</time>
      </trkpt>
      <trkpt lat="42.6809950" lon="2.2631410">
        <ele>1251.8</ele>
        <time>2020-07-21T12:06:42Z</time>
      </trkpt>
      <trkpt lat="42.6809140" lon="2.2631500">
        <ele>1252.4</ele>
        <time>2020-07-21T12:06:46Z</time>
      </trkpt>
      <trkpt lat="42.6808540" lon="2.2631540">
        <ele>1253.0</ele>
        <time>2020-07-21T12:06:50Z</time>
      </trkpt>
      <trkpt lat="42.6808130" lon="2.2631690">
        <ele>1253.2</ele>
        <time>2020-07-21T12:06:52Z</time>
      </trkpt>
      <trkpt lat="42.6807730" lon="2.2631650">
        <ele>1253.8</ele>
        <time>2020-07-21T12:06:55Z</time>
      </trkpt>
      <trkpt lat="42.6806530" lon="2.2631930">
        <ele>1254.0</ele>
        <time>2020-07-21T12:07:18Z</time>
      </trkpt>
      <trkpt lat="42.6806350" lon="2.2631950">
        <ele>1254.0</ele>
        <time>2020-07-21T12:07:19Z</time>
      </trkpt>
      <trkpt lat="42.6805100" lon="2.2632090">
        <ele>1255.0</ele>
        <time>2020-07-21T12:07:25Z</time>
      </trkpt>
      <trkpt lat="42.6804850" lon="2.2632120">
        <ele>1255.0</ele>
        <time>2020-07-21T12:07:26Z</time>
      </trkpt>
      <trkpt lat="42.6803630" lon="2.2632010">
        <ele>1256.0</ele>
        <time>2020-07-21T12:07:31Z</time>
      </trkpt>
      <trkpt lat="42.6802850" lon="2.2631880">
        <ele>1256.8</ele>
        <time>2020-07-21T12:07:34Z</time>
      </trkpt>
      <trkpt lat="42.6802340" lon="2.2631770">
        <ele>1257.2</ele>
        <time>2020-07-21T12:07:36Z</time>
      </trkpt>
      <trkpt lat="42.6800880" lon="2.2631370">
        <ele>1258.4</ele>
        <time>2020-07-21T12:07:42Z</time>
      </trkpt>
      <trkpt lat="42.6800630" lon="2.2631300">
        <ele>1258.8</ele>
        <time>2020-07-21T12:07:43Z</time>
      </trkpt>
      <trkpt lat="42.6800390" lon="2.2631230">
        <ele>1259.0</ele>
        <time>2020-07-21T12:07:44Z</time>
      </trkpt>
      <trkpt lat="42.6799960" lon="2.2631190">
        <ele>1259.6</ele>
        <time>2020-07-21T12:07:46Z</time>
      </trkpt>
      <trkpt lat="42.6798870" lon="2.2631220">
        <ele>1260.6</ele>
        <time>2020-07-21T12:07:51Z</time>
      </trkpt>
      <trkpt lat="42.6797670" lon="2.2631960">
        <ele>1261.8</ele>
        <time>2020-07-21T12:07:56Z</time>
      </trkpt>
      <trkpt lat="42.6797420" lon="2.2632080">
        <ele>1261.8</ele>
        <time>2020-07-21T12:07:57Z</time>
      </trkpt>
      <trkpt lat="42.6796550" lon="2.2632340">
        <ele>1262.6</ele>
        <time>2020-07-21T12:08:01Z</time>
      </trkpt>
      <trkpt lat="42.6796300" lon="2.2632370">
        <ele>1262.8</ele>
        <time>2020-07-21T12:08:02Z</time>
      </trkpt>
      <trkpt lat="42.6795810" lon="2.2632510">
        <ele>1263.0</ele>
        <time>2020-07-21T12:08:04Z</time>
      </trkpt>
      <trkpt lat="42.6794890" lon="2.2632810">
        <ele>1263.8</ele>
        <time>2020-07-21T12:08:08Z</time>
      </trkpt>
      <trkpt lat="42.6794640" lon="2.2632920">
        <ele>1264.0</ele>
        <time>2020-07-21T12:08:09Z</time>
      </trkpt>
      <trkpt lat="42.6793780" lon="2.2633440">
        <ele>1264.8</ele>
        <time>2020-07-21T12:08:13Z</time>
      </trkpt>
      <trkpt lat="42.6792570" lon="2.2634230">
        <ele>1266.0</ele>
        <time>2020-07-21T12:08:19Z</time>
      </trkpt>
      <trkpt lat="42.6791380" lon="2.2635580">
        <ele>1267.2</ele>
        <time>2020-07-21T12:08:25Z</time>
      </trkpt>
      <trkpt lat="42.6791210" lon="2.2635820">
        <ele>1267.4</ele>
        <time>2020-07-21T12:08:26Z</time>
      </trkpt>
      <trkpt lat="42.6790040" lon="2.2636960">
        <ele>1268.0</ele>
        <time>2020-07-21T12:08:32Z</time>
      </trkpt>
      <trkpt lat="42.6789740" lon="2.2637070">
        <ele>1268.2</ele>
        <time>2020-07-21T12:08:33Z</time>
      </trkpt>
      <trkpt lat="42.6788160" lon="2.2636950">
        <ele>1269.4</ele>
        <time>2020-07-21T12:08:38Z</time>
      </trkpt>
      <trkpt lat="42.6786930" lon="2.2636160">
        <ele>1270.4</ele>
        <time>2020-07-21T12:08:43Z</time>
      </trkpt>
      <trkpt lat="42.6786950" lon="2.2634890">
        <ele>1271.4</ele>
        <time>2020-07-21T12:08:47Z</time>
      </trkpt>
      <trkpt lat="42.6787080" lon="2.2634620">
        <ele>1271.6</ele>
        <time>2020-07-21T12:08:48Z</time>
      </trkpt>
      <trkpt lat="42.6787560" lon="2.2634260">
        <ele>1272.6</ele>
        <time>2020-07-21T12:08:51Z</time>
      </trkpt>
      <trkpt lat="42.6787780" lon="2.2634210">
        <ele>1272.8</ele>
        <time>2020-07-21T12:08:52Z</time>
      </trkpt>
      <trkpt lat="42.6788570" lon="2.2634220">
        <ele>1273.6</ele>
        <time>2020-07-21T12:08:55Z</time>
      </trkpt>
      <trkpt lat="42.6789180" lon="2.2634030">
        <ele>1273.8</ele>
        <time>2020-07-21T12:08:57Z</time>
      </trkpt>
      <trkpt lat="42.6790330" lon="2.2632760">
        <ele>1274.6</ele>
        <time>2020-07-21T12:09:02Z</time>
      </trkpt>
      <trkpt lat="42.6790470" lon="2.2632480">
        <ele>1274.8</ele>
        <time>2020-07-21T12:09:03Z</time>
      </trkpt>
      <trkpt lat="42.6790970" lon="2.2631050">
        <ele>1276.0</ele>
        <time>2020-07-21T12:09:08Z</time>
      </trkpt>
      <trkpt lat="42.6791180" lon="2.2630400">
        <ele>1276.2</ele>
        <time>2020-07-21T12:09:10Z</time>
      </trkpt>
      <trkpt lat="42.6791590" lon="2.2629140">
        <ele>1276.8</ele>
        <time>2020-07-21T12:09:14Z</time>
      </trkpt>
      <trkpt lat="42.6791710" lon="2.2628890">
        <ele>1277.0</ele>
        <time>2020-07-21T12:09:15Z</time>
      </trkpt>
      <trkpt lat="42.6791820" lon="2.2628640">
        <ele>1277.2</ele>
        <time>2020-07-21T12:09:16Z</time>
      </trkpt>
      <trkpt lat="42.6792150" lon="2.2628120">
        <ele>1277.8</ele>
        <time>2020-07-21T12:09:18Z</time>
      </trkpt>
      <trkpt lat="42.6792300" lon="2.2627890">
        <ele>1278.2</ele>
        <time>2020-07-21T12:09:19Z</time>
      </trkpt>
      <trkpt lat="42.6792990" lon="2.2626990">
        <ele>1279.2</ele>
        <time>2020-07-21T12:09:24Z</time>
      </trkpt>
      <trkpt lat="42.6793330" lon="2.2626610">
        <ele>1279.4</ele>
        <time>2020-07-21T12:09:26Z</time>
      </trkpt>
      <trkpt lat="42.6794030" lon="2.2626060">
        <ele>1280.2</ele>
        <time>2020-07-21T12:09:30Z</time>
      </trkpt>
      <trkpt lat="42.6794710" lon="2.2625500">
        <ele>1281.4</ele>
        <time>2020-07-21T12:09:34Z</time>
      </trkpt>
      <trkpt lat="42.6794950" lon="2.2625380">
        <ele>1281.4</ele>
        <time>2020-07-21T12:09:35Z</time>
      </trkpt>
      <trkpt lat="42.6796310" lon="2.2624730">
        <ele>1282.4</ele>
        <time>2020-07-21T12:09:40Z</time>
      </trkpt>
      <trkpt lat="42.6798040" lon="2.2624320">
        <ele>1283.0</ele>
        <time>2020-07-21T12:09:44Z</time>
      </trkpt>
      <trkpt lat="42.6798910" lon="2.2623950">
        <ele>1283.6</ele>
        <time>2020-07-21T12:09:47Z</time>
      </trkpt>
      <trkpt lat="42.6799540" lon="2.2623330">
        <ele>1284.4</ele>
        <time>2020-07-21T12:09:50Z</time>
      </trkpt>
      <trkpt lat="42.6799730" lon="2.2623060">
        <ele>1284.8</ele>
        <time>2020-07-21T12:09:51Z</time>
      </trkpt>
      <trkpt lat="42.6800320" lon="2.2621840">
        <ele>1286.0</ele>
        <time>2020-07-21T12:09:55Z</time>
      </trkpt>
      <trkpt lat="42.6800590" lon="2.2621200">
        <ele>1286.4</ele>
        <time>2020-07-21T12:09:57Z</time>
      </trkpt>
      <trkpt lat="42.6801160" lon="2.2619860">
        <ele>1287.0</ele>
        <time>2020-07-21T12:10:01Z</time>
      </trkpt>
      <trkpt lat="42.6801190" lon="2.2619190">
        <ele>1287.4</ele>
        <time>2020-07-21T12:10:03Z</time>
      </trkpt>
      <trkpt lat="42.6801040" lon="2.2618510">
        <ele>1288.2</ele>
        <time>2020-07-21T12:10:05Z</time>
      </trkpt>
      <trkpt lat="42.6800860" lon="2.2617590">
        <ele>1289.0</ele>
        <time>2020-07-21T12:10:08Z</time>
      </trkpt>
      <trkpt lat="42.6800440" lon="2.2616800">
        <ele>1289.2</ele>
        <time>2020-07-21T12:10:11Z</time>
      </trkpt>
      <trkpt lat="42.6799610" lon="2.2615820">
        <ele>1289.8</ele>
        <time>2020-07-21T12:10:15Z</time>
      </trkpt>
      <trkpt lat="42.6799010" lon="2.2615230">
        <ele>1290.4</ele>
        <time>2020-07-21T12:10:18Z</time>
      </trkpt>
      <trkpt lat="42.6798840" lon="2.2615000">
        <ele>1290.6</ele>
        <time>2020-07-21T12:10:19Z</time>
      </trkpt>
      <trkpt lat="42.6798580" lon="2.2614510">
        <ele>1291.2</ele>
        <time>2020-07-21T12:10:21Z</time>
      </trkpt>
      <trkpt lat="42.6798510" lon="2.2614240">
        <ele>1291.6</ele>
        <time>2020-07-21T12:10:22Z</time>
      </trkpt>
      <trkpt lat="42.6798410" lon="2.2613410">
        <ele>1292.6</ele>
        <time>2020-07-21T12:10:25Z</time>
      </trkpt>
      <trkpt lat="42.6798340" lon="2.2612860">
        <ele>1293.2</ele>
        <time>2020-07-21T12:10:27Z</time>
      </trkpt>
      <trkpt lat="42.6798220" lon="2.2612160">
        <ele>1293.4</ele>
        <time>2020-07-21T12:10:29Z</time>
      </trkpt>
      <trkpt lat="42.6798160" lon="2.2611780">
        <ele>1293.6</ele>
        <time>2020-07-21T12:10:30Z</time>
      </trkpt>
      <trkpt lat="42.6797980" lon="2.2610800">
        <ele>1294.2</ele>
        <time>2020-07-21T12:10:33Z</time>
      </trkpt>
      <trkpt lat="42.6797960" lon="2.2610480">
        <ele>1294.4</ele>
        <time>2020-07-21T12:10:34Z</time>
      </trkpt>
      <trkpt lat="42.6797950" lon="2.2610170">
        <ele>1294.6</ele>
        <time>2020-07-21T12:10:35Z</time>
      </trkpt>
      <trkpt lat="42.6797940" lon="2.2609840">
        <ele>1294.8</ele>
        <time>2020-07-21T12:10:36Z</time>
      </trkpt>
      <trkpt lat="42.6797380" lon="2.2608510">
        <ele>1296.0</ele>
        <time>2020-07-21T12:10:40Z</time>
      </trkpt>
      <trkpt lat="42.6796220" lon="2.2607220">
        <ele>1297.0</ele>
        <time>2020-07-21T12:10:45Z</time>
      </trkpt>
      <trkpt lat="42.6795970" lon="2.2607120">
        <ele>1297.0</ele>
        <time>2020-07-21T12:10:46Z</time>
      </trkpt>
      <trkpt lat="42.6794790" lon="2.2607430">
        <ele>1298.0</ele>
        <time>2020-07-21T12:10:51Z</time>
      </trkpt>
      <trkpt lat="42.6794120" lon="2.2608840">
        <ele>1299.2</ele>
        <time>2020-07-21T12:10:56Z</time>
      </trkpt>
      <trkpt lat="42.6793580" lon="2.2610970">
        <ele>1300.0</ele>
        <time>2020-07-21T12:11:02Z</time>
      </trkpt>
      <trkpt lat="42.6793510" lon="2.2611740">
        <ele>1300.4</ele>
        <time>2020-07-21T12:11:04Z</time>
      </trkpt>
      <trkpt lat="42.6793510" lon="2.2613910">
        <ele>1301.0</ele>
        <time>2020-07-21T12:11:10Z</time>
      </trkpt>
      <trkpt lat="42.6793640" lon="2.2614700">
        <ele>1301.2</ele>
        <time>2020-07-21T12:11:12Z</time>
      </trkpt>
      <trkpt lat="42.6793720" lon="2.2615150">
        <ele>1301.4</ele>
        <time>2020-07-21T12:11:13Z</time>
      </trkpt>
      <trkpt lat="42.6793880" lon="2.2617160">
        <ele>1302.0</ele>
        <time>2020-07-21T12:11:18Z</time>
      </trkpt>
      <trkpt lat="42.6793710" lon="2.2617720">
        <ele>1302.4</ele>
        <time>2020-07-21T12:11:20Z</time>
      </trkpt>
      <trkpt lat="42.6793020" lon="2.2618160">
        <ele>1303.0</ele>
        <time>2020-07-21T12:11:23Z</time>
      </trkpt>
      <trkpt lat="42.6792420" lon="2.2618240">
        <ele>1303.4</ele>
        <time>2020-07-21T12:11:25Z</time>
      </trkpt>
      <trkpt lat="42.6791480" lon="2.2618260">
        <ele>1304.0</ele>
        <time>2020-07-21T12:11:28Z</time>
      </trkpt>
      <trkpt lat="42.6790850" lon="2.2618280">
        <ele>1304.8</ele>
        <time>2020-07-21T12:11:30Z</time>
      </trkpt>
      <trkpt lat="42.6789950" lon="2.2618330">
        <ele>1305.4</ele>
        <time>2020-07-21T12:11:33Z</time>
      </trkpt>
      <trkpt lat="42.6789340" lon="2.2618330">
        <ele>1306.2</ele>
        <time>2020-07-21T12:11:35Z</time>
      </trkpt>
      <trkpt lat="42.6788440" lon="2.2618250">
        <ele>1307.2</ele>
        <time>2020-07-21T12:11:38Z</time>
      </trkpt>
      <trkpt lat="42.6788130" lon="2.2618230">
        <ele>1307.2</ele>
        <time>2020-07-21T12:11:39Z</time>
      </trkpt>
      <trkpt lat="42.6786750" lon="2.2618360">
        <ele>1308.4</ele>
        <time>2020-07-21T12:11:44Z</time>
      </trkpt>
      <trkpt lat="42.6786250" lon="2.2618420">
        <ele>1308.8</ele>
        <time>2020-07-21T12:11:46Z</time>
      </trkpt>
      <trkpt lat="42.6785660" lon="2.2618530">
        <ele>1309.4</ele>
        <time>2020-07-21T12:11:49Z</time>
      </trkpt>
      <trkpt lat="42.6784920" lon="2.2618860">
        <ele>1310.2</ele>
        <time>2020-07-21T12:11:53Z</time>
      </trkpt>
      <trkpt lat="42.6784770" lon="2.2618980">
        <ele>1310.4</ele>
        <time>2020-07-21T12:11:54Z</time>
      </trkpt>
      <trkpt lat="42.6783460" lon="2.2619430">
        <ele>1311.6</ele>
        <time>2020-07-21T12:12:00Z</time>
      </trkpt>
      <trkpt lat="42.6783210" lon="2.2619530">
        <ele>1312.0</ele>
        <time>2020-07-21T12:12:01Z</time>
      </trkpt>
      <trkpt lat="42.6781890" lon="2.2620360">
        <ele>1312.6</ele>
        <time>2020-07-21T12:12:07Z</time>
      </trkpt>
      <trkpt lat="42.6781730" lon="2.2620560">
        <ele>1312.6</ele>
        <time>2020-07-21T12:12:08Z</time>
      </trkpt>
      <trkpt lat="42.6780610" lon="2.2622270">
        <ele>1313.2</ele>
        <time>2020-07-21T12:12:13Z</time>
      </trkpt>
      <trkpt lat="42.6780060" lon="2.2623360">
        <ele>1313.8</ele>
        <time>2020-07-21T12:12:16Z</time>
      </trkpt>
      <trkpt lat="42.6779410" lon="2.2624340">
        <ele>1314.4</ele>
        <time>2020-07-21T12:12:19Z</time>
      </trkpt>
      <trkpt lat="42.6778100" lon="2.2624450">
        <ele>1315.0</ele>
        <time>2020-07-21T12:12:23Z</time>
      </trkpt>
      <trkpt lat="42.6777660" lon="2.2624060">
        <ele>1315.8</ele>
        <time>2020-07-21T12:12:25Z</time>
      </trkpt>
      <trkpt lat="42.6777560" lon="2.2623710">
        <ele>1316.2</ele>
        <time>2020-07-21T12:12:26Z</time>
      </trkpt>
      <trkpt lat="42.6777550" lon="2.2623360">
        <ele>1316.4</ele>
        <time>2020-07-21T12:12:27Z</time>
      </trkpt>
      <trkpt lat="42.6777890" lon="2.2622320">
        <ele>1317.4</ele>
        <time>2020-07-21T12:12:30Z</time>
      </trkpt>
      <trkpt lat="42.6778150" lon="2.2621700">
        <ele>1317.8</ele>
        <time>2020-07-21T12:12:32Z</time>
      </trkpt>
      <trkpt lat="42.6778860" lon="2.2620530">
        <ele>1318.4</ele>
        <time>2020-07-21T12:12:36Z</time>
      </trkpt>
      <trkpt lat="42.6779360" lon="2.2619630">
        <ele>1318.8</ele>
        <time>2020-07-21T12:12:39Z</time>
      </trkpt>
      <trkpt lat="42.6780100" lon="2.2618420">
        <ele>1319.6</ele>
        <time>2020-07-21T12:12:43Z</time>
      </trkpt>
      <trkpt lat="42.6780660" lon="2.2617420">
        <ele>1320.4</ele>
        <time>2020-07-21T12:12:46Z</time>
      </trkpt>
      <trkpt lat="42.6780800" lon="2.2617110">
        <ele>1320.6</ele>
        <time>2020-07-21T12:12:47Z</time>
      </trkpt>
      <trkpt lat="42.6781250" lon="2.2615840">
        <ele>1321.6</ele>
        <time>2020-07-21T12:12:51Z</time>
      </trkpt>
      <trkpt lat="42.6781460" lon="2.2615220">
        <ele>1322.4</ele>
        <time>2020-07-21T12:12:53Z</time>
      </trkpt>
      <trkpt lat="42.6781560" lon="2.2614950">
        <ele>1322.8</ele>
        <time>2020-07-21T12:12:54Z</time>
      </trkpt>
      <trkpt lat="42.6781670" lon="2.2614630">
        <ele>1323.0</ele>
        <time>2020-07-21T12:12:55Z</time>
      </trkpt>
      <trkpt lat="42.6781810" lon="2.2614350">
        <ele>1323.4</ele>
        <time>2020-07-21T12:12:56Z</time>
      </trkpt>
      <trkpt lat="42.6782300" lon="2.2613500">
        <ele>1324.0</ele>
        <time>2020-07-21T12:12:59Z</time>
      </trkpt>
      <trkpt lat="42.6782690" lon="2.2612950">
        <ele>1324.4</ele>
        <time>2020-07-21T12:13:01Z</time>
      </trkpt>
      <trkpt lat="42.6782970" lon="2.2612560">
        <ele>1324.6</ele>
        <time>2020-07-21T12:13:03Z</time>
      </trkpt>
      <trkpt lat="42.6783310" lon="2.2612230">
        <ele>1325.2</ele>
        <time>2020-07-21T12:13:05Z</time>
      </trkpt>
      <trkpt lat="42.6783440" lon="2.2612050">
        <ele>1325.4</ele>
        <time>2020-07-21T12:13:06Z</time>
      </trkpt>
      <trkpt lat="42.6784490" lon="2.2611170">
        <ele>1326.4</ele>
        <time>2020-07-21T12:13:10Z</time>
      </trkpt>
      <trkpt lat="42.6784870" lon="2.2610630">
        <ele>1326.8</ele>
        <time>2020-07-21T12:13:12Z</time>
      </trkpt>
      <trkpt lat="42.6785320" lon="2.2609780">
        <ele>1327.6</ele>
        <time>2020-07-21T12:13:15Z</time>
      </trkpt>
      <trkpt lat="42.6785930" lon="2.2608290">
        <ele>1328.4</ele>
        <time>2020-07-21T12:13:20Z</time>
      </trkpt>
      <trkpt lat="42.6785990" lon="2.2607620">
        <ele>1328.8</ele>
        <time>2020-07-21T12:13:22Z</time>
      </trkpt>
      <trkpt lat="42.6786000" lon="2.2607290">
        <ele>1329.0</ele>
        <time>2020-07-21T12:13:23Z</time>
      </trkpt>
      <trkpt lat="42.6785920" lon="2.2605740">
        <ele>1329.6</ele>
        <time>2020-07-21T12:13:27Z</time>
      </trkpt>
      <trkpt lat="42.6785900" lon="2.2605320">
        <ele>1329.8</ele>
        <time>2020-07-21T12:13:28Z</time>
      </trkpt>
      <trkpt lat="42.6785610" lon="2.2603240">
        <ele>1330.8</ele>
        <time>2020-07-21T12:13:33Z</time>
      </trkpt>
      <trkpt lat="42.6785510" lon="2.2602830">
        <ele>1331.0</ele>
        <time>2020-07-21T12:13:34Z</time>
      </trkpt>
      <trkpt lat="42.6785260" lon="2.2601730">
        <ele>1332.0</ele>
        <time>2020-07-21T12:13:37Z</time>
      </trkpt>
      <trkpt lat="42.6784880" lon="2.2600330">
        <ele>1332.8</ele>
        <time>2020-07-21T12:13:41Z</time>
      </trkpt>
      <trkpt lat="42.6784760" lon="2.2600020">
        <ele>1333.0</ele>
        <time>2020-07-21T12:13:42Z</time>
      </trkpt>
      <trkpt lat="42.6784190" lon="2.2598090">
        <ele>1333.8</ele>
        <time>2020-07-21T12:13:48Z</time>
      </trkpt>
      <trkpt lat="42.6784060" lon="2.2597740">
        <ele>1334.0</ele>
        <time>2020-07-21T12:13:49Z</time>
      </trkpt>
      <trkpt lat="42.6783380" lon="2.2595760">
        <ele>1335.4</ele>
        <time>2020-07-21T12:13:55Z</time>
      </trkpt>
      <trkpt lat="42.6783370" lon="2.2595480">
        <ele>1335.8</ele>
        <time>2020-07-21T12:13:56Z</time>
      </trkpt>
      <trkpt lat="42.6783230" lon="2.2594460">
        <ele>1336.4</ele>
        <time>2020-07-21T12:14:00Z</time>
      </trkpt>
      <trkpt lat="42.6783080" lon="2.2593410">
        <ele>1337.2</ele>
        <time>2020-07-21T12:14:03Z</time>
      </trkpt>
      <trkpt lat="42.6783090" lon="2.2592720">
        <ele>1337.6</ele>
        <time>2020-07-21T12:14:05Z</time>
      </trkpt>
      <trkpt lat="42.6782920" lon="2.2591150">
        <ele>1338.6</ele>
        <time>2020-07-21T12:14:10Z</time>
      </trkpt>
      <trkpt lat="42.6782920" lon="2.2590540">
        <ele>1339.2</ele>
        <time>2020-07-21T12:14:12Z</time>
      </trkpt>
      <trkpt lat="42.6783050" lon="2.2589910">
        <ele>1339.6</ele>
        <time>2020-07-21T12:14:14Z</time>
      </trkpt>
      <trkpt lat="42.6783130" lon="2.2588890">
        <ele>1340.0</ele>
        <time>2020-07-21T12:14:17Z</time>
      </trkpt>
      <trkpt lat="42.6783150" lon="2.2588270">
        <ele>1340.6</ele>
        <time>2020-07-21T12:14:19Z</time>
      </trkpt>
      <trkpt lat="42.6782910" lon="2.2586040">
        <ele>1341.8</ele>
        <time>2020-07-21T12:14:25Z</time>
      </trkpt>
      <trkpt lat="42.6783270" lon="2.2584260">
        <ele>1342.8</ele>
        <time>2020-07-21T12:14:30Z</time>
      </trkpt>
      <trkpt lat="42.6783410" lon="2.2583960">
        <ele>1343.0</ele>
        <time>2020-07-21T12:14:31Z</time>
      </trkpt>
      <trkpt lat="42.6783490" lon="2.2583400">
        <ele>1343.2</ele>
        <time>2020-07-21T12:14:33Z</time>
      </trkpt>
      <trkpt lat="42.6783790" lon="2.2582480">
        <ele>1344.0</ele>
        <time>2020-07-21T12:14:36Z</time>
      </trkpt>
      <trkpt lat="42.6784210" lon="2.2581510">
        <ele>1345.0</ele>
        <time>2020-07-21T12:14:39Z</time>
      </trkpt>
      <trkpt lat="42.6784360" lon="2.2581190">
        <ele>1345.2</ele>
        <time>2020-07-21T12:14:40Z</time>
      </trkpt>
      <trkpt lat="42.6784830" lon="2.2580400">
        <ele>1345.8</ele>
        <time>2020-07-21T12:14:43Z</time>
      </trkpt>
      <trkpt lat="42.6785000" lon="2.2579900">
        <ele>1346.4</ele>
        <time>2020-07-21T12:14:45Z</time>
      </trkpt>
      <trkpt lat="42.6785480" lon="2.2578810">
        <ele>1347.6</ele>
        <time>2020-07-21T12:14:49Z</time>
      </trkpt>
      <trkpt lat="42.6785540" lon="2.2578520">
        <ele>1347.8</ele>
        <time>2020-07-21T12:14:50Z</time>
      </trkpt>
      <trkpt lat="42.6786210" lon="2.2576520">
        <ele>1348.6</ele>
        <time>2020-07-21T12:14:56Z</time>
      </trkpt>
      <trkpt lat="42.6786890" lon="2.2575670">
        <ele>1349.0</ele>
        <time>2020-07-21T12:14:59Z</time>
      </trkpt>
      <trkpt lat="42.6787840" lon="2.2574610">
        <ele>1349.6</ele>
        <time>2020-07-21T12:15:03Z</time>
      </trkpt>
      <trkpt lat="42.6788690" lon="2.2573590">
        <ele>1350.4</ele>
        <time>2020-07-21T12:15:06Z</time>
      </trkpt>
      <trkpt lat="42.6788870" lon="2.2573270">
        <ele>1350.6</ele>
        <time>2020-07-21T12:15:07Z</time>
      </trkpt>
      <trkpt lat="42.6789580" lon="2.2571820">
        <ele>1352.2</ele>
        <time>2020-07-21T12:15:12Z</time>
      </trkpt>
      <trkpt lat="42.6790010" lon="2.2570950">
        <ele>1353.0</ele>
        <time>2020-07-21T12:15:15Z</time>
      </trkpt>
      <trkpt lat="42.6790180" lon="2.2570670">
        <ele>1353.2</ele>
        <time>2020-07-21T12:15:16Z</time>
      </trkpt>
      <trkpt lat="42.6790730" lon="2.2569230">
        <ele>1354.4</ele>
        <time>2020-07-21T12:15:21Z</time>
      </trkpt>
      <trkpt lat="42.6790930" lon="2.2568650">
        <ele>1355.0</ele>
        <time>2020-07-21T12:15:23Z</time>
      </trkpt>
      <trkpt lat="42.6791380" lon="2.2567610">
        <ele>1355.6</ele>
        <time>2020-07-21T12:15:26Z</time>
      </trkpt>
      <trkpt lat="42.6791740" lon="2.2566930">
        <ele>1356.2</ele>
        <time>2020-07-21T12:15:28Z</time>
      </trkpt>
      <trkpt lat="42.6792140" lon="2.2566330">
        <ele>1356.6</ele>
        <time>2020-07-21T12:15:30Z</time>
      </trkpt>
      <trkpt lat="42.6792350" lon="2.2566030">
        <ele>1356.6</ele>
        <time>2020-07-21T12:15:31Z</time>
      </trkpt>
      <trkpt lat="42.6793040" lon="2.2563920">
        <ele>1357.4</ele>
        <time>2020-07-21T12:15:37Z</time>
      </trkpt>
      <trkpt lat="42.6793130" lon="2.2563550">
        <ele>1357.8</ele>
        <time>2020-07-21T12:15:38Z</time>
      </trkpt>
      <trkpt lat="42.6793330" lon="2.2562880">
        <ele>1358.2</ele>
        <time>2020-07-21T12:15:40Z</time>
      </trkpt>
      <trkpt lat="42.6794030" lon="2.2561810">
        <ele>1358.6</ele>
        <time>2020-07-21T12:15:44Z</time>
      </trkpt>
      <trkpt lat="42.6794160" lon="2.2561580">
        <ele>1358.8</ele>
        <time>2020-07-21T12:15:45Z</time>
      </trkpt>
      <trkpt lat="42.6794820" lon="2.2560670">
        <ele>1360.0</ele>
        <time>2020-07-21T12:15:50Z</time>
      </trkpt>
      <trkpt lat="42.6794970" lon="2.2560510">
        <ele>1360.2</ele>
        <time>2020-07-21T12:15:51Z</time>
      </trkpt>
      <trkpt lat="42.6795530" lon="2.2559800">
        <ele>1361.0</ele>
        <time>2020-07-21T12:15:55Z</time>
      </trkpt>
      <trkpt lat="42.6796040" lon="2.2559210">
        <ele>1362.0</ele>
        <time>2020-07-21T12:15:59Z</time>
      </trkpt>
      <trkpt lat="42.6796170" lon="2.2559050">
        <ele>1362.2</ele>
        <time>2020-07-21T12:16:00Z</time>
      </trkpt>
      <trkpt lat="42.6796860" lon="2.2558230">
        <ele>1363.2</ele>
        <time>2020-07-21T12:16:04Z</time>
      </trkpt>
      <trkpt lat="42.6797470" lon="2.2557590">
        <ele>1363.8</ele>
        <time>2020-07-21T12:16:07Z</time>
      </trkpt>
      <trkpt lat="42.6797820" lon="2.2557190">
        <ele>1364.2</ele>
        <time>2020-07-21T12:16:09Z</time>
      </trkpt>
      <trkpt lat="42.6798640" lon="2.2556190">
        <ele>1365.2</ele>
        <time>2020-07-21T12:16:14Z</time>
      </trkpt>
      <trkpt lat="42.6799120" lon="2.2555500">
        <ele>1365.8</ele>
        <time>2020-07-21T12:16:17Z</time>
      </trkpt>
      <trkpt lat="42.6799290" lon="2.2555220">
        <ele>1366.0</ele>
        <time>2020-07-21T12:16:18Z</time>
      </trkpt>
      <trkpt lat="42.6799570" lon="2.2554640">
        <ele>1366.4</ele>
        <time>2020-07-21T12:16:20Z</time>
      </trkpt>
      <trkpt lat="42.6799690" lon="2.2554380">
        <ele>1366.8</ele>
        <time>2020-07-21T12:16:21Z</time>
      </trkpt>
      <trkpt lat="42.6799770" lon="2.2554120">
        <ele>1367.0</ele>
        <time>2020-07-21T12:16:22Z</time>
      </trkpt>
      <trkpt lat="42.6799980" lon="2.2553610">
        <ele>1367.2</ele>
        <time>2020-07-21T12:16:24Z</time>
      </trkpt>
      <trkpt lat="42.6800130" lon="2.2553280">
        <ele>1367.6</ele>
        <time>2020-07-21T12:16:25Z</time>
      </trkpt>
      <trkpt lat="42.6800530" lon="2.2552610">
        <ele>1368.0</ele>
        <time>2020-07-21T12:16:27Z</time>
      </trkpt>
      <trkpt lat="42.6801220" lon="2.2551570">
        <ele>1368.6</ele>
        <time>2020-07-21T12:16:30Z</time>
      </trkpt>
      <trkpt lat="42.6801770" lon="2.2550640">
        <ele>1369.2</ele>
        <time>2020-07-21T12:16:33Z</time>
      </trkpt>
      <trkpt lat="42.6802400" lon="2.2550020">
        <ele>1369.8</ele>
        <time>2020-07-21T12:16:35Z</time>
      </trkpt>
      <trkpt lat="42.6803240" lon="2.2547990">
        <ele>1370.8</ele>
        <time>2020-07-21T12:16:41Z</time>
      </trkpt>
      <trkpt lat="42.6803670" lon="2.2547040">
        <ele>1371.4</ele>
        <time>2020-07-21T12:16:44Z</time>
      </trkpt>
      <trkpt lat="42.6803810" lon="2.2546740">
        <ele>1371.8</ele>
        <time>2020-07-21T12:16:45Z</time>
      </trkpt>
      <trkpt lat="42.6803960" lon="2.2546450">
        <ele>1371.8</ele>
        <time>2020-07-21T12:16:46Z</time>
      </trkpt>
      <trkpt lat="42.6804120" lon="2.2546190">
        <ele>1372.0</ele>
        <time>2020-07-21T12:16:47Z</time>
      </trkpt>
      <trkpt lat="42.6804440" lon="2.2545730">
        <ele>1372.4</ele>
        <time>2020-07-21T12:16:49Z</time>
      </trkpt>
      <trkpt lat="42.6804830" lon="2.2545200">
        <ele>1373.4</ele>
        <time>2020-07-21T12:16:52Z</time>
      </trkpt>
      <trkpt lat="42.6805600" lon="2.2544940">
        <ele>1374.2</ele>
        <time>2020-07-21T12:16:56Z</time>
      </trkpt>
      <trkpt lat="42.6806310" lon="2.2544900">
        <ele>1374.4</ele>
        <time>2020-07-21T12:16:59Z</time>
      </trkpt>
      <trkpt lat="42.6807560" lon="2.2544920">
        <ele>1375.4</ele>
        <time>2020-07-21T12:17:03Z</time>
      </trkpt>
      <trkpt lat="42.6807820" lon="2.2544950">
        <ele>1375.6</ele>
        <time>2020-07-21T12:17:04Z</time>
      </trkpt>
      <trkpt lat="42.6809130" lon="2.2545150">
        <ele>1376.8</ele>
        <time>2020-07-21T12:17:09Z</time>
      </trkpt>
      <trkpt lat="42.6809370" lon="2.2545120">
        <ele>1376.8</ele>
        <time>2020-07-21T12:17:10Z</time>
      </trkpt>
      <trkpt lat="42.6810940" lon="2.2544860">
        <ele>1377.6</ele>
        <time>2020-07-21T12:17:16Z</time>
      </trkpt>
      <trkpt lat="42.6811250" lon="2.2544800">
        <ele>1377.8</ele>
        <time>2020-07-21T12:17:17Z</time>
      </trkpt>
      <trkpt lat="42.6811540" lon="2.2544760">
        <ele>1378.0</ele>
        <time>2020-07-21T12:17:18Z</time>
      </trkpt>
      <trkpt lat="42.6812530" lon="2.2544680">
        <ele>1379.0</ele>
        <time>2020-07-21T12:17:21Z</time>
      </trkpt>
      <trkpt lat="42.6813480" lon="2.2544400">
        <ele>1379.6</ele>
        <time>2020-07-21T12:17:25Z</time>
      </trkpt>
      <trkpt lat="42.6814640" lon="2.2544280">
        <ele>1380.2</ele>
        <time>2020-07-21T12:17:30Z</time>
      </trkpt>
      <trkpt lat="42.6814950" lon="2.2544220">
        <ele>1380.4</ele>
        <time>2020-07-21T12:17:31Z</time>
      </trkpt>
      <trkpt lat="42.6816010" lon="2.2544040">
        <ele>1381.2</ele>
        <time>2020-07-21T12:17:35Z</time>
      </trkpt>
      <trkpt lat="42.6817040" lon="2.2543780">
        <ele>1381.8</ele>
        <time>2020-07-21T12:17:39Z</time>
      </trkpt>
      <trkpt lat="42.6817630" lon="2.2543690">
        <ele>1382.4</ele>
        <time>2020-07-21T12:17:41Z</time>
      </trkpt>
      <trkpt lat="42.6818960" lon="2.2543460">
        <ele>1383.4</ele>
        <time>2020-07-21T12:17:46Z</time>
      </trkpt>
      <trkpt lat="42.6820230" lon="2.2542980">
        <ele>1384.4</ele>
        <time>2020-07-21T12:17:51Z</time>
      </trkpt>
      <trkpt lat="42.6820490" lon="2.2542840">
        <ele>1384.6</ele>
        <time>2020-07-21T12:17:52Z</time>
      </trkpt>
      <trkpt lat="42.6820990" lon="2.2542570">
        <ele>1385.2</ele>
        <time>2020-07-21T12:17:54Z</time>
      </trkpt>
      <trkpt lat="42.6821240" lon="2.2542440">
        <ele>1385.4</ele>
        <time>2020-07-21T12:17:55Z</time>
      </trkpt>
      <trkpt lat="42.6821500" lon="2.2542320">
        <ele>1385.6</ele>
        <time>2020-07-21T12:17:56Z</time>
      </trkpt>
      <trkpt lat="42.6822730" lon="2.2541800">
        <ele>1386.8</ele>
        <time>2020-07-21T12:18:01Z</time>
      </trkpt>
      <trkpt lat="42.6822980" lon="2.2541690">
        <ele>1387.2</ele>
        <time>2020-07-21T12:18:02Z</time>
      </trkpt>
      <trkpt lat="42.6823960" lon="2.2541200">
        <ele>1387.8</ele>
        <time>2020-07-21T12:18:06Z</time>
      </trkpt>
      <trkpt lat="42.6824180" lon="2.2541100">
        <ele>1388.0</ele>
        <time>2020-07-21T12:18:07Z</time>
      </trkpt>
      <trkpt lat="42.6824410" lon="2.2540970">
        <ele>1388.0</ele>
        <time>2020-07-21T12:18:08Z</time>
      </trkpt>
      <trkpt lat="42.6824640" lon="2.2540860">
        <ele>1388.4</ele>
        <time>2020-07-21T12:18:09Z</time>
      </trkpt>
      <trkpt lat="42.6825140" lon="2.2540640">
        <ele>1389.0</ele>
        <time>2020-07-21T12:18:11Z</time>
      </trkpt>
      <trkpt lat="42.6825390" lon="2.2540510">
        <ele>1389.2</ele>
        <time>2020-07-21T12:18:12Z</time>
      </trkpt>
      <trkpt lat="42.6826700" lon="2.2539860">
        <ele>1390.2</ele>
        <time>2020-07-21T12:18:17Z</time>
      </trkpt>
      <trkpt lat="42.6827260" lon="2.2539650">
        <ele>1390.4</ele>
        <time>2020-07-21T12:18:19Z</time>
      </trkpt>
      <trkpt lat="42.6828220" lon="2.2539120">
        <ele>1391.4</ele>
        <time>2020-07-21T12:18:23Z</time>
      </trkpt>
      <trkpt lat="42.6828910" lon="2.2538760">
        <ele>1392.2</ele>
        <time>2020-07-21T12:18:26Z</time>
      </trkpt>
      <trkpt lat="42.6829310" lon="2.2538460">
        <ele>1392.6</ele>
        <time>2020-07-21T12:18:28Z</time>
      </trkpt>
      <trkpt lat="42.6830200" lon="2.2538120">
        <ele>1393.4</ele>
        <time>2020-07-21T12:18:32Z</time>
      </trkpt>
      <trkpt lat="42.6830840" lon="2.2537830">
        <ele>1393.6</ele>
        <time>2020-07-21T12:18:35Z</time>
      </trkpt>
      <trkpt lat="42.6831400" lon="2.2537560">
        <ele>1394.2</ele>
        <time>2020-07-21T12:18:38Z</time>
      </trkpt>
      <trkpt lat="42.6831530" lon="2.2537480">
        <ele>1394.2</ele>
        <time>2020-07-21T12:18:39Z</time>
      </trkpt>
      <trkpt lat="42.6832130" lon="2.2536810">
        <ele>1394.8</ele>
        <time>2020-07-21T12:18:43Z</time>
      </trkpt>
      <trkpt lat="42.6832370" lon="2.2536610">
        <ele>1395.0</ele>
        <time>2020-07-21T12:18:44Z</time>
      </trkpt>
      <trkpt lat="42.6833030" lon="2.2535950">
        <ele>1395.8</ele>
        <time>2020-07-21T12:18:47Z</time>
      </trkpt>
      <trkpt lat="42.6834180" lon="2.2535110">
        <ele>1396.8</ele>
        <time>2020-07-21T12:18:52Z</time>
      </trkpt>
      <trkpt lat="42.6835290" lon="2.2534250">
        <ele>1398.0</ele>
        <time>2020-07-21T12:18:57Z</time>
      </trkpt>
      <trkpt lat="42.6835920" lon="2.2533560">
        <ele>1398.8</ele>
        <time>2020-07-21T12:19:01Z</time>
      </trkpt>
      <trkpt lat="42.6836400" lon="2.2532950">
        <ele>1399.0</ele>
        <time>2020-07-21T12:19:04Z</time>
      </trkpt>
      <trkpt lat="42.6837110" lon="2.2532310">
        <ele>1400.2</ele>
        <time>2020-07-21T12:19:08Z</time>
      </trkpt>
      <trkpt lat="42.6837240" lon="2.2532140">
        <ele>1400.4</ele>
        <time>2020-07-21T12:19:09Z</time>
      </trkpt>
      <trkpt lat="42.6838580" lon="2.2531540">
        <ele>1401.4</ele>
        <time>2020-07-21T12:19:14Z</time>
      </trkpt>
      <trkpt lat="42.6839180" lon="2.2531320">
        <ele>1401.8</ele>
        <time>2020-07-21T12:19:16Z</time>
      </trkpt>
      <trkpt lat="42.6839930" lon="2.2530890">
        <ele>1402.4</ele>
        <time>2020-07-21T12:19:19Z</time>
      </trkpt>
      <trkpt lat="42.6840980" lon="2.2530030">
        <ele>1403.4</ele>
        <time>2020-07-21T12:19:25Z</time>
      </trkpt>
      <trkpt lat="42.6841250" lon="2.2529890">
        <ele>1403.6</ele>
        <time>2020-07-21T12:19:26Z</time>
      </trkpt>
      <trkpt lat="42.6842720" lon="2.2529010">
        <ele>1404.6</ele>
        <time>2020-07-21T12:19:32Z</time>
      </trkpt>
      <trkpt lat="42.6842950" lon="2.2528830">
        <ele>1404.6</ele>
        <time>2020-07-21T12:19:33Z</time>
      </trkpt>
      <trkpt lat="42.6843900" lon="2.2528070">
        <ele>1405.8</ele>
        <time>2020-07-21T12:19:37Z</time>
      </trkpt>
      <trkpt lat="42.6844360" lon="2.2527640">
        <ele>1406.0</ele>
        <time>2020-07-21T12:19:39Z</time>
      </trkpt>
      <trkpt lat="42.6845540" lon="2.2526760">
        <ele>1406.8</ele>
        <time>2020-07-21T12:19:44Z</time>
      </trkpt>
      <trkpt lat="42.6845720" lon="2.2526660">
        <ele>1406.8</ele>
        <time>2020-07-21T12:19:45Z</time>
      </trkpt>
      <trkpt lat="42.6845890" lon="2.2526550">
        <ele>1407.0</ele>
        <time>2020-07-21T12:19:46Z</time>
      </trkpt>
      <trkpt lat="42.6846910" lon="2.2525880">
        <ele>1407.8</ele>
        <time>2020-07-21T12:19:51Z</time>
      </trkpt>
      <trkpt lat="42.6847160" lon="2.2525800">
        <ele>1408.2</ele>
        <time>2020-07-21T12:19:52Z</time>
      </trkpt>
      <trkpt lat="42.6847960" lon="2.2525370">
        <ele>1409.0</ele>
        <time>2020-07-21T12:19:55Z</time>
      </trkpt>
      <trkpt lat="42.6849240" lon="2.2524440">
        <ele>1410.0</ele>
        <time>2020-07-21T12:20:00Z</time>
      </trkpt>
      <trkpt lat="42.6851500" lon="2.2523780">
        <ele>1411.0</ele>
        <time>2020-07-21T12:20:06Z</time>
      </trkpt>
      <trkpt lat="42.6853310" lon="2.2523000">
        <ele>1411.8</ele>
        <time>2020-07-21T12:20:12Z</time>
      </trkpt>
      <trkpt lat="42.6853850" lon="2.2522750">
        <ele>1412.2</ele>
        <time>2020-07-21T12:20:14Z</time>
      </trkpt>
      <trkpt lat="42.6854110" lon="2.2522630">
        <ele>1412.4</ele>
        <time>2020-07-21T12:20:15Z</time>
      </trkpt>
      <trkpt lat="42.6854960" lon="2.2522090">
        <ele>1413.2</ele>
        <time>2020-07-21T12:20:18Z</time>
      </trkpt>
      <trkpt lat="42.6856200" lon="2.2521600">
        <ele>1414.0</ele>
        <time>2020-07-21T12:20:22Z</time>
      </trkpt>
      <trkpt lat="42.6856560" lon="2.2521430">
        <ele>1414.2</ele>
        <time>2020-07-21T12:20:23Z</time>
      </trkpt>
      <trkpt lat="42.6858540" lon="2.2520580">
        <ele>1414.8</ele>
        <time>2020-07-21T12:20:29Z</time>
      </trkpt>
      <trkpt lat="42.6858860" lon="2.2520440">
        <ele>1415.0</ele>
        <time>2020-07-21T12:20:30Z</time>
      </trkpt>
      <trkpt lat="42.6859460" lon="2.2520160">
        <ele>1415.6</ele>
        <time>2020-07-21T12:20:32Z</time>
      </trkpt>
      <trkpt lat="42.6861190" lon="2.2519340">
        <ele>1416.4</ele>
        <time>2020-07-21T12:20:38Z</time>
      </trkpt>
      <trkpt lat="42.6861470" lon="2.2519200">
        <ele>1416.4</ele>
        <time>2020-07-21T12:20:39Z</time>
      </trkpt>
      <trkpt lat="42.6861740" lon="2.2519080">
        <ele>1416.6</ele>
        <time>2020-07-21T12:20:40Z</time>
      </trkpt>
      <trkpt lat="42.6863310" lon="2.2518610">
        <ele>1417.8</ele>
        <time>2020-07-21T12:20:46Z</time>
      </trkpt>
      <trkpt lat="42.6863600" lon="2.2518540">
        <ele>1418.0</ele>
        <time>2020-07-21T12:20:47Z</time>
      </trkpt>
      <trkpt lat="42.6865380" lon="2.2518340">
        <ele>1418.8</ele>
        <time>2020-07-21T12:20:53Z</time>
      </trkpt>
      <trkpt lat="42.6865670" lon="2.2518270">
        <ele>1419.0</ele>
        <time>2020-07-21T12:20:54Z</time>
      </trkpt>
      <trkpt lat="42.6867090" lon="2.2517590">
        <ele>1420.2</ele>
        <time>2020-07-21T12:20:59Z</time>
      </trkpt>
      <trkpt lat="42.6868170" lon="2.2516790">
        <ele>1421.0</ele>
        <time>2020-07-21T12:21:03Z</time>
      </trkpt>
      <trkpt lat="42.6868670" lon="2.2516340">
        <ele>1421.2</ele>
        <time>2020-07-21T12:21:05Z</time>
      </trkpt>
      <trkpt lat="42.6869620" lon="2.2515360">
        <ele>1422.6</ele>
        <time>2020-07-21T12:21:09Z</time>
      </trkpt>
      <trkpt lat="42.6870060" lon="2.2514790">
        <ele>1422.8</ele>
        <time>2020-07-21T12:21:11Z</time>
      </trkpt>
      <trkpt lat="42.6871190" lon="2.2513440">
        <ele>1423.6</ele>
        <time>2020-07-21T12:21:16Z</time>
      </trkpt>
      <trkpt lat="42.6872090" lon="2.2512370">
        <ele>1424.8</ele>
        <time>2020-07-21T12:21:20Z</time>
      </trkpt>
      <trkpt lat="42.6873260" lon="2.2511220">
        <ele>1425.6</ele>
        <time>2020-07-21T12:21:25Z</time>
      </trkpt>
      <trkpt lat="42.6873510" lon="2.2510990">
        <ele>1425.8</ele>
        <time>2020-07-21T12:21:26Z</time>
      </trkpt>
      <trkpt lat="42.6873970" lon="2.2510550">
        <ele>1426.4</ele>
        <time>2020-07-21T12:21:28Z</time>
      </trkpt>
      <trkpt lat="42.6874460" lon="2.2510180">
        <ele>1427.0</ele>
        <time>2020-07-21T12:21:30Z</time>
      </trkpt>
      <trkpt lat="42.6875450" lon="2.2509410">
        <ele>1428.0</ele>
        <time>2020-07-21T12:21:34Z</time>
      </trkpt>
      <trkpt lat="42.6875700" lon="2.2509240">
        <ele>1428.0</ele>
        <time>2020-07-21T12:21:35Z</time>
      </trkpt>
      <trkpt lat="42.6877210" lon="2.2508230">
        <ele>1428.8</ele>
        <time>2020-07-21T12:21:41Z</time>
      </trkpt>
      <trkpt lat="42.6877710" lon="2.2507950">
        <ele>1429.2</ele>
        <time>2020-07-21T12:21:43Z</time>
      </trkpt>
      <trkpt lat="42.6878180" lon="2.2507740">
        <ele>1429.6</ele>
        <time>2020-07-21T12:21:45Z</time>
      </trkpt>
      <trkpt lat="42.6883210" lon="2.2506970">
        <ele>1429.8</ele>
        <time>2020-07-21T12:45:55Z</time>
      </trkpt>
      <trkpt lat="42.6883470" lon="2.2507160">
        <ele>1429.8</ele>
        <time>2020-07-21T12:45:56Z</time>
      </trkpt>
      <trkpt lat="42.6883820" lon="2.2507540">
        <ele>1429.8</ele>
        <time>2020-07-21T12:45:57Z</time>
      </trkpt>
      <trkpt lat="42.6884420" lon="2.2508000">
        <ele>1429.6</ele>
        <time>2020-07-21T12:45:59Z</time>
      </trkpt>
      <trkpt lat="42.6884790" lon="2.2508350">
        <ele>1429.4</ele>
        <time>2020-07-21T12:46:00Z</time>
      </trkpt>
      <trkpt lat="42.6885970" lon="2.2509730">
        <ele>1429.2</ele>
        <time>2020-07-21T12:46:03Z</time>
      </trkpt>
      <trkpt lat="42.6886380" lon="2.2510210">
        <ele>1429.0</ele>
        <time>2020-07-21T12:46:04Z</time>
      </trkpt>
      <trkpt lat="42.6887700" lon="2.2511650">
        <ele>1429.0</ele>
        <time>2020-07-21T12:46:07Z</time>
      </trkpt>
      <trkpt lat="42.6888210" lon="2.2512050">
        <ele>1429.0</ele>
        <time>2020-07-21T12:46:08Z</time>
      </trkpt>
      <trkpt lat="42.6888750" lon="2.2512380">
        <ele>1428.8</ele>
        <time>2020-07-21T12:46:09Z</time>
      </trkpt>
      <trkpt lat="42.6889320" lon="2.2512600">
        <ele>1428.6</ele>
        <time>2020-07-21T12:46:10Z</time>
      </trkpt>
      <trkpt lat="42.6889930" lon="2.2512690">
        <ele>1428.6</ele>
        <time>2020-07-21T12:46:11Z</time>
      </trkpt>
      <trkpt lat="42.6891230" lon="2.2512340">
        <ele>1428.0</ele>
        <time>2020-07-21T12:46:13Z</time>
      </trkpt>
      <trkpt lat="42.6892480" lon="2.2511450">
        <ele>1426.8</ele>
        <time>2020-07-21T12:46:15Z</time>
      </trkpt>
      <trkpt lat="42.6893730" lon="2.2510010">
        <ele>1426.2</ele>
        <time>2020-07-21T12:46:17Z</time>
      </trkpt>
      <trkpt lat="42.6894320" lon="2.2509200">
        <ele>1425.8</ele>
        <time>2020-07-21T12:46:18Z</time>
      </trkpt>
      <trkpt lat="42.6895400" lon="2.2507610">
        <ele>1424.6</ele>
        <time>2020-07-21T12:46:20Z</time>
      </trkpt>
      <trkpt lat="42.6896860" lon="2.2505390">
        <ele>1423.2</ele>
        <time>2020-07-21T12:46:23Z</time>
      </trkpt>
      <trkpt lat="42.6897320" lon="2.2504720">
        <ele>1422.8</ele>
        <time>2020-07-21T12:46:24Z</time>
      </trkpt>
      <trkpt lat="42.6898270" lon="2.2503360">
        <ele>1422.0</ele>
        <time>2020-07-21T12:46:26Z</time>
      </trkpt>
      <trkpt lat="42.6899270" lon="2.2501970">
        <ele>1420.6</ele>
        <time>2020-07-21T12:46:29Z</time>
      </trkpt>
      <trkpt lat="42.6899390" lon="2.2501750">
        <ele>1420.0</ele>
        <time>2020-07-21T12:46:31Z</time>
      </trkpt>
      <trkpt lat="42.6899350" lon="2.2501720">
        <ele>1420.0</ele>
        <time>2020-07-21T12:46:32Z</time>
      </trkpt>
      <trkpt lat="42.6899240" lon="2.2501660">
        <ele>1419.6</ele>
        <time>2020-07-21T12:46:34Z</time>
      </trkpt>
      <trkpt lat="42.6899120" lon="2.2501600">
        <ele>1419.6</ele>
        <time>2020-07-21T12:46:40Z</time>
      </trkpt>
      <trkpt lat="42.6899100" lon="2.2501590">
        <ele>1419.6</ele>
        <time>2020-07-21T12:46:43Z</time>
      </trkpt>
      <trkpt lat="42.6899000" lon="2.2501570">
        <ele>1419.6</ele>
        <time>2020-07-21T12:46:47Z</time>
      </trkpt>
      <trkpt lat="42.6898950" lon="2.2501590">
        <ele>1419.6</ele>
        <time>2020-07-21T12:46:52Z</time>
      </trkpt>
      <trkpt lat="42.6898930" lon="2.2501590">
        <ele>1419.6</ele>
        <time>2020-07-21T12:46:54Z</time>
      </trkpt>
      <trkpt lat="42.6898970" lon="2.2501590">
        <ele>1419.8</ele>
        <time>2020-07-21T12:46:59Z</time>
      </trkpt>
      <trkpt lat="42.6898970" lon="2.2501590">
        <ele>1420.0</ele>
        <time>2020-07-21T12:47:02Z</time>
      </trkpt>
      <trkpt lat="42.6898970" lon="2.2501600">
        <ele>1420.2</ele>
        <time>2020-07-21T12:47:04Z</time>
      </trkpt>
      <trkpt lat="42.6898970" lon="2.2501630">
        <ele>1420.4</ele>
        <time>2020-07-21T12:47:06Z</time>
      </trkpt>
      <trkpt lat="42.6899530" lon="2.2500700">
        <ele>1419.8</ele>
        <time>2020-07-21T12:47:21Z</time>
      </trkpt>
      <trkpt lat="42.6899740" lon="2.2500390">
        <ele>1419.8</ele>
        <time>2020-07-21T12:47:22Z</time>
      </trkpt>
      <trkpt lat="42.6900570" lon="2.2499090">
        <ele>1419.2</ele>
        <time>2020-07-21T12:47:25Z</time>
      </trkpt>
      <trkpt lat="42.6900910" lon="2.2498580">
        <ele>1418.4</ele>
        <time>2020-07-21T12:47:26Z</time>
      </trkpt>
      <trkpt lat="42.6901240" lon="2.2498050">
        <ele>1418.0</ele>
        <time>2020-07-21T12:47:27Z</time>
      </trkpt>
      <trkpt lat="42.6902750" lon="2.2495760">
        <ele>1417.2</ele>
        <time>2020-07-21T12:47:31Z</time>
      </trkpt>
      <trkpt lat="42.6903480" lon="2.2494680">
        <ele>1416.6</ele>
        <time>2020-07-21T12:47:33Z</time>
      </trkpt>
      <trkpt lat="42.6904520" lon="2.2493280">
        <ele>1416.0</ele>
        <time>2020-07-21T12:47:36Z</time>
      </trkpt>
      <trkpt lat="42.6905750" lon="2.2491390">
        <ele>1415.4</ele>
        <time>2020-07-21T12:47:40Z</time>
      </trkpt>
      <trkpt lat="42.6906050" lon="2.2490950">
        <ele>1415.0</ele>
        <time>2020-07-21T12:47:41Z</time>
      </trkpt>
      <trkpt lat="42.6906670" lon="2.2489990">
        <ele>1414.4</ele>
        <time>2020-07-21T12:47:43Z</time>
      </trkpt>
      <trkpt lat="42.6907240" lon="2.2488900">
        <ele>1413.8</ele>
        <time>2020-07-21T12:47:45Z</time>
      </trkpt>
      <trkpt lat="42.6907680" lon="2.2487740">
        <ele>1413.2</ele>
        <time>2020-07-21T12:47:47Z</time>
      </trkpt>
      <trkpt lat="42.6908090" lon="2.2486570">
        <ele>1412.6</ele>
        <time>2020-07-21T12:47:49Z</time>
      </trkpt>
      <trkpt lat="42.6908730" lon="2.2483970">
        <ele>1411.2</ele>
        <time>2020-07-21T12:47:53Z</time>
      </trkpt>
      <trkpt lat="42.6908890" lon="2.2483310">
        <ele>1411.0</ele>
        <time>2020-07-21T12:47:54Z</time>
      </trkpt>
      <trkpt lat="42.6909260" lon="2.2482010">
        <ele>1410.2</ele>
        <time>2020-07-21T12:47:56Z</time>
      </trkpt>
      <trkpt lat="42.6909950" lon="2.2479310">
        <ele>1409.2</ele>
        <time>2020-07-21T12:48:00Z</time>
      </trkpt>
      <trkpt lat="42.6910150" lon="2.2478600">
        <ele>1408.8</ele>
        <time>2020-07-21T12:48:01Z</time>
      </trkpt>
      <trkpt lat="42.6910260" lon="2.2477840">
        <ele>1408.6</ele>
        <time>2020-07-21T12:48:02Z</time>
      </trkpt>
      <trkpt lat="42.6910560" lon="2.2476240">
        <ele>1408.0</ele>
        <time>2020-07-21T12:48:04Z</time>
      </trkpt>
      <trkpt lat="42.6910850" lon="2.2474530">
        <ele>1406.8</ele>
        <time>2020-07-21T12:48:06Z</time>
      </trkpt>
      <trkpt lat="42.6910940" lon="2.2473630">
        <ele>1406.2</ele>
        <time>2020-07-21T12:48:07Z</time>
      </trkpt>
      <trkpt lat="42.6911080" lon="2.2472740">
        <ele>1405.8</ele>
        <time>2020-07-21T12:48:08Z</time>
      </trkpt>
      <trkpt lat="42.6911390" lon="2.2469970">
        <ele>1404.4</ele>
        <time>2020-07-21T12:48:11Z</time>
      </trkpt>
      <trkpt lat="42.6911600" lon="2.2468060">
        <ele>1403.4</ele>
        <time>2020-07-21T12:48:13Z</time>
      </trkpt>
      <trkpt lat="42.6911640" lon="2.2467000">
        <ele>1403.0</ele>
        <time>2020-07-21T12:48:14Z</time>
      </trkpt>
      <trkpt lat="42.6911660" lon="2.2465880">
        <ele>1402.4</ele>
        <time>2020-07-21T12:48:15Z</time>
      </trkpt>
      <trkpt lat="42.6911510" lon="2.2462270">
        <ele>1401.2</ele>
        <time>2020-07-21T12:48:18Z</time>
      </trkpt>
      <trkpt lat="42.6911400" lon="2.2461000">
        <ele>1400.8</ele>
        <time>2020-07-21T12:48:19Z</time>
      </trkpt>
      <trkpt lat="42.6911230" lon="2.2458540">
        <ele>1399.6</ele>
        <time>2020-07-21T12:48:21Z</time>
      </trkpt>
      <trkpt lat="42.6911140" lon="2.2456080">
        <ele>1398.4</ele>
        <time>2020-07-21T12:48:23Z</time>
      </trkpt>
      <trkpt lat="42.6911210" lon="2.2453700">
        <ele>1397.4</ele>
        <time>2020-07-21T12:48:25Z</time>
      </trkpt>
      <trkpt lat="42.6911240" lon="2.2452530">
        <ele>1396.8</ele>
        <time>2020-07-21T12:48:26Z</time>
      </trkpt>
      <trkpt lat="42.6911270" lon="2.2451440">
        <ele>1396.4</ele>
        <time>2020-07-21T12:48:27Z</time>
      </trkpt>
      <trkpt lat="42.6911320" lon="2.2449460">
        <ele>1395.2</ele>
        <time>2020-07-21T12:48:29Z</time>
      </trkpt>
      <trkpt lat="42.6911270" lon="2.2447340">
        <ele>1394.4</ele>
        <time>2020-07-21T12:48:31Z</time>
      </trkpt>
      <trkpt lat="42.6911220" lon="2.2446220">
        <ele>1394.0</ele>
        <time>2020-07-21T12:48:32Z</time>
      </trkpt>
      <trkpt lat="42.6911290" lon="2.2443940">
        <ele>1392.6</ele>
        <time>2020-07-21T12:48:34Z</time>
      </trkpt>
      <trkpt lat="42.6911340" lon="2.2442740">
        <ele>1392.0</ele>
        <time>2020-07-21T12:48:35Z</time>
      </trkpt>
      <trkpt lat="42.6911430" lon="2.2441540">
        <ele>1391.0</ele>
        <time>2020-07-21T12:48:36Z</time>
      </trkpt>
      <trkpt lat="42.6911720" lon="2.2439180">
        <ele>1389.8</ele>
        <time>2020-07-21T12:48:38Z</time>
      </trkpt>
      <trkpt lat="42.6912130" lon="2.2436800">
        <ele>1388.6</ele>
        <time>2020-07-21T12:48:40Z</time>
      </trkpt>
      <trkpt lat="42.6912350" lon="2.2435610">
        <ele>1388.2</ele>
        <time>2020-07-21T12:48:41Z</time>
      </trkpt>
      <trkpt lat="42.6912730" lon="2.2433170">
        <ele>1387.2</ele>
        <time>2020-07-21T12:48:43Z</time>
      </trkpt>
      <trkpt lat="42.6913120" lon="2.2430860">
        <ele>1386.2</ele>
        <time>2020-07-21T12:48:45Z</time>
      </trkpt>
      <trkpt lat="42.6913940" lon="2.2427590">
        <ele>1385.0</ele>
        <time>2020-07-21T12:48:48Z</time>
      </trkpt>
      <trkpt lat="42.6914700" lon="2.2425480">
        <ele>1383.6</ele>
        <time>2020-07-21T12:48:50Z</time>
      </trkpt>
      <trkpt lat="42.6915160" lon="2.2424460">
        <ele>1382.8</ele>
        <time>2020-07-21T12:48:51Z</time>
      </trkpt>
      <trkpt lat="42.6915590" lon="2.2423450">
        <ele>1382.2</ele>
        <time>2020-07-21T12:48:52Z</time>
      </trkpt>
      <trkpt lat="42.6916030" lon="2.2422460">
        <ele>1381.6</ele>
        <time>2020-07-21T12:48:53Z</time>
      </trkpt>
      <trkpt lat="42.6916450" lon="2.2421440">
        <ele>1381.2</ele>
        <time>2020-07-21T12:48:54Z</time>
      </trkpt>
      <trkpt lat="42.6917360" lon="2.2419360">
        <ele>1380.0</ele>
        <time>2020-07-21T12:48:56Z</time>
      </trkpt>
      <trkpt lat="42.6917740" lon="2.2418320">
        <ele>1379.4</ele>
        <time>2020-07-21T12:48:57Z</time>
      </trkpt>
      <trkpt lat="42.6918070" lon="2.2417240">
        <ele>1378.8</ele>
        <time>2020-07-21T12:48:58Z</time>
      </trkpt>
      <trkpt lat="42.6919120" lon="2.2413940">
        <ele>1377.4</ele>
        <time>2020-07-21T12:49:01Z</time>
      </trkpt>
      <trkpt lat="42.6919820" lon="2.2411720">
        <ele>1375.8</ele>
        <time>2020-07-21T12:49:03Z</time>
      </trkpt>
      <trkpt lat="42.6920470" lon="2.2409540">
        <ele>1374.6</ele>
        <time>2020-07-21T12:49:05Z</time>
      </trkpt>
      <trkpt lat="42.6920810" lon="2.2408450">
        <ele>1374.2</ele>
        <time>2020-07-21T12:49:06Z</time>
      </trkpt>
      <trkpt lat="42.6921140" lon="2.2407310">
        <ele>1373.6</ele>
        <time>2020-07-21T12:49:07Z</time>
      </trkpt>
      <trkpt lat="42.6921870" lon="2.2405090">
        <ele>1372.4</ele>
        <time>2020-07-21T12:49:09Z</time>
      </trkpt>
      <trkpt lat="42.6922500" lon="2.2402910">
        <ele>1370.8</ele>
        <time>2020-07-21T12:49:11Z</time>
      </trkpt>
      <trkpt lat="42.6922850" lon="2.2401870">
        <ele>1370.2</ele>
        <time>2020-07-21T12:49:12Z</time>
      </trkpt>
      <trkpt lat="42.6923180" lon="2.2400860">
        <ele>1369.6</ele>
        <time>2020-07-21T12:49:13Z</time>
      </trkpt>
      <trkpt lat="42.6923530" lon="2.2399890">
        <ele>1369.0</ele>
        <time>2020-07-21T12:49:14Z</time>
      </trkpt>
      <trkpt lat="42.6923900" lon="2.2398920">
        <ele>1368.6</ele>
        <time>2020-07-21T12:49:15Z</time>
      </trkpt>
      <trkpt lat="42.6924290" lon="2.2397990">
        <ele>1368.2</ele>
        <time>2020-07-21T12:49:16Z</time>
      </trkpt>
      <trkpt lat="42.6925220" lon="2.2396210">
        <ele>1367.8</ele>
        <time>2020-07-21T12:49:18Z</time>
      </trkpt>
      <trkpt lat="42.6925780" lon="2.2395390">
        <ele>1367.4</ele>
        <time>2020-07-21T12:49:19Z</time>
      </trkpt>
      <trkpt lat="42.6926980" lon="2.2393830">
        <ele>1365.8</ele>
        <time>2020-07-21T12:49:21Z</time>
      </trkpt>
      <trkpt lat="42.6927640" lon="2.2393120">
        <ele>1364.8</ele>
        <time>2020-07-21T12:49:22Z</time>
      </trkpt>
      <trkpt lat="42.6928250" lon="2.2392450">
        <ele>1364.0</ele>
        <time>2020-07-21T12:49:23Z</time>
      </trkpt>
      <trkpt lat="42.6928850" lon="2.2391890">
        <ele>1363.6</ele>
        <time>2020-07-21T12:49:24Z</time>
      </trkpt>
      <trkpt lat="42.6930470" lon="2.2390550">
        <ele>1362.0</ele>
        <time>2020-07-21T12:49:27Z</time>
      </trkpt>
      <trkpt lat="42.6930910" lon="2.2390100">
        <ele>1361.6</ele>
        <time>2020-07-21T12:49:28Z</time>
      </trkpt>
      <trkpt lat="42.6931120" lon="2.2389000">
        <ele>1361.0</ele>
        <time>2020-07-21T12:49:30Z</time>
      </trkpt>
      <trkpt lat="42.6930970" lon="2.2388600">
        <ele>1360.8</ele>
        <time>2020-07-21T12:49:31Z</time>
      </trkpt>
      <trkpt lat="42.6930270" lon="2.2388230">
        <ele>1360.2</ele>
        <time>2020-07-21T12:49:33Z</time>
      </trkpt>
      <trkpt lat="42.6929470" lon="2.2388620">
        <ele>1359.6</ele>
        <time>2020-07-21T12:49:35Z</time>
      </trkpt>
      <trkpt lat="42.6928950" lon="2.2389120">
        <ele>1359.2</ele>
        <time>2020-07-21T12:49:36Z</time>
      </trkpt>
      <trkpt lat="42.6928350" lon="2.2389730">
        <ele>1358.8</ele>
        <time>2020-07-21T12:49:37Z</time>
      </trkpt>
      <trkpt lat="42.6927660" lon="2.2390410">
        <ele>1358.2</ele>
        <time>2020-07-21T12:49:38Z</time>
      </trkpt>
      <trkpt lat="42.6926440" lon="2.2391460">
        <ele>1356.8</ele>
        <time>2020-07-21T12:49:40Z</time>
      </trkpt>
      <trkpt lat="42.6925870" lon="2.2391980">
        <ele>1356.0</ele>
        <time>2020-07-21T12:49:41Z</time>
      </trkpt>
      <trkpt lat="42.6925260" lon="2.2392500">
        <ele>1355.6</ele>
        <time>2020-07-21T12:49:42Z</time>
      </trkpt>
      <trkpt lat="42.6923890" lon="2.2393810">
        <ele>1354.4</ele>
        <time>2020-07-21T12:49:44Z</time>
      </trkpt>
      <trkpt lat="42.6923200" lon="2.2394510">
        <ele>1353.6</ele>
        <time>2020-07-21T12:49:45Z</time>
      </trkpt>
      <trkpt lat="42.6922510" lon="2.2395160">
        <ele>1352.8</ele>
        <time>2020-07-21T12:49:46Z</time>
      </trkpt>
      <trkpt lat="42.6921020" lon="2.2396640">
        <ele>1351.4</ele>
        <time>2020-07-21T12:49:48Z</time>
      </trkpt>
      <trkpt lat="42.6919630" lon="2.2398250">
        <ele>1350.2</ele>
        <time>2020-07-21T12:49:50Z</time>
      </trkpt>
      <trkpt lat="42.6918300" lon="2.2399880">
        <ele>1349.2</ele>
        <time>2020-07-21T12:49:52Z</time>
      </trkpt>
      <trkpt lat="42.6917680" lon="2.2400680">
        <ele>1348.6</ele>
        <time>2020-07-21T12:49:53Z</time>
      </trkpt>
      <trkpt lat="42.6915690" lon="2.2403270">
        <ele>1347.2</ele>
        <time>2020-07-21T12:49:56Z</time>
      </trkpt>
      <trkpt lat="42.6915040" lon="2.2404220">
        <ele>1346.8</ele>
        <time>2020-07-21T12:49:57Z</time>
      </trkpt>
      <trkpt lat="42.6914390" lon="2.2405170">
        <ele>1346.2</ele>
        <time>2020-07-21T12:49:58Z</time>
      </trkpt>
      <trkpt lat="42.6913750" lon="2.2406140">
        <ele>1345.6</ele>
        <time>2020-07-21T12:49:59Z</time>
      </trkpt>
      <trkpt lat="42.6913110" lon="2.2407090">
        <ele>1345.0</ele>
        <time>2020-07-21T12:50:00Z</time>
      </trkpt>
      <trkpt lat="42.6911770" lon="2.2409080">
        <ele>1343.8</ele>
        <time>2020-07-21T12:50:02Z</time>
      </trkpt>
      <trkpt lat="42.6910320" lon="2.2410980">
        <ele>1341.8</ele>
        <time>2020-07-21T12:50:04Z</time>
      </trkpt>
      <trkpt lat="42.6909540" lon="2.2411850">
        <ele>1341.2</ele>
        <time>2020-07-21T12:50:05Z</time>
      </trkpt>
      <trkpt lat="42.6908760" lon="2.2412650">
        <ele>1340.4</ele>
        <time>2020-07-21T12:50:06Z</time>
      </trkpt>
      <trkpt lat="42.6907230" lon="2.2414250">
        <ele>1339.0</ele>
        <time>2020-07-21T12:50:08Z</time>
      </trkpt>
      <trkpt lat="42.6905000" lon="2.2416580">
        <ele>1338.0</ele>
        <time>2020-07-21T12:50:11Z</time>
      </trkpt>
      <trkpt lat="42.6904290" lon="2.2417330">
        <ele>1337.6</ele>
        <time>2020-07-21T12:50:12Z</time>
      </trkpt>
      <trkpt lat="42.6903590" lon="2.2418040">
        <ele>1336.8</ele>
        <time>2020-07-21T12:50:13Z</time>
      </trkpt>
      <trkpt lat="42.6902930" lon="2.2418760">
        <ele>1335.8</ele>
        <time>2020-07-21T12:50:14Z</time>
      </trkpt>
      <trkpt lat="42.6901620" lon="2.2420090">
        <ele>1334.2</ele>
        <time>2020-07-21T12:50:16Z</time>
      </trkpt>
      <trkpt lat="42.6899580" lon="2.2422090">
        <ele>1333.0</ele>
        <time>2020-07-21T12:50:19Z</time>
      </trkpt>
      <trkpt lat="42.6898410" lon="2.2423540">
        <ele>1332.2</ele>
        <time>2020-07-21T12:50:21Z</time>
      </trkpt>
      <trkpt lat="42.6897960" lon="2.2424250">
        <ele>1331.8</ele>
        <time>2020-07-21T12:50:22Z</time>
      </trkpt>
      <trkpt lat="42.6897570" lon="2.2424940">
        <ele>1331.4</ele>
        <time>2020-07-21T12:50:23Z</time>
      </trkpt>
      <trkpt lat="42.6896770" lon="2.2426150">
        <ele>1330.6</ele>
        <time>2020-07-21T12:50:25Z</time>
      </trkpt>
      <trkpt lat="42.6896340" lon="2.2426630">
        <ele>1329.8</ele>
        <time>2020-07-21T12:50:26Z</time>
      </trkpt>
      <trkpt lat="42.6895900" lon="2.2426910">
        <ele>1329.2</ele>
        <time>2020-07-21T12:50:27Z</time>
      </trkpt>
      <trkpt lat="42.6895170" lon="2.2426790">
        <ele>1328.6</ele>
        <time>2020-07-21T12:50:28Z</time>
      </trkpt>
      <trkpt lat="42.6894470" lon="2.2426580">
        <ele>1328.2</ele>
        <time>2020-07-21T12:50:29Z</time>
      </trkpt>
      <trkpt lat="42.6893790" lon="2.2426180">
        <ele>1327.6</ele>
        <time>2020-07-21T12:50:30Z</time>
      </trkpt>
      <trkpt lat="42.6893190" lon="2.2425580">
        <ele>1327.0</ele>
        <time>2020-07-21T12:50:31Z</time>
      </trkpt>
      <trkpt lat="42.6891300" lon="2.2423470">
        <ele>1326.0</ele>
        <time>2020-07-21T12:50:34Z</time>
      </trkpt>
      <trkpt lat="42.6890610" lon="2.2422910">
        <ele>1325.6</ele>
        <time>2020-07-21T12:50:35Z</time>
      </trkpt>
      <trkpt lat="42.6889910" lon="2.2422430">
        <ele>1325.2</ele>
        <time>2020-07-21T12:50:36Z</time>
      </trkpt>
      <trkpt lat="42.6889270" lon="2.2422030">
        <ele>1325.0</ele>
        <time>2020-07-21T12:50:37Z</time>
      </trkpt>
      <trkpt lat="42.6888240" lon="2.2421270">
        <ele>1324.4</ele>
        <time>2020-07-21T12:50:39Z</time>
      </trkpt>
      <trkpt lat="42.6887930" lon="2.2420790">
        <ele>1324.2</ele>
        <time>2020-07-21T12:50:40Z</time>
      </trkpt>
      <trkpt lat="42.6887780" lon="2.2420230">
        <ele>1323.8</ele>
        <time>2020-07-21T12:50:41Z</time>
      </trkpt>
      <trkpt lat="42.6888000" lon="2.2419100">
        <ele>1323.0</ele>
        <time>2020-07-21T12:50:43Z</time>
      </trkpt>
      <trkpt lat="42.6888320" lon="2.2418720">
        <ele>1322.2</ele>
        <time>2020-07-21T12:50:44Z</time>
      </trkpt>
      <trkpt lat="42.6888950" lon="2.2418650">
        <ele>1321.2</ele>
        <time>2020-07-21T12:50:45Z</time>
      </trkpt>
      <trkpt lat="42.6889530" lon="2.2418720">
        <ele>1320.6</ele>
        <time>2020-07-21T12:50:46Z</time>
      </trkpt>
      <trkpt lat="42.6890710" lon="2.2418980">
        <ele>1319.4</ele>
        <time>2020-07-21T12:50:48Z</time>
      </trkpt>
      <trkpt lat="42.6891180" lon="2.2419120">
        <ele>1319.2</ele>
        <time>2020-07-21T12:50:49Z</time>
      </trkpt>
      <trkpt lat="42.6891960" lon="2.2419160">
        <ele>1318.8</ele>
        <time>2020-07-21T12:50:51Z</time>
      </trkpt>
      <trkpt lat="42.6892510" lon="2.2419220">
        <ele>1318.4</ele>
        <time>2020-07-21T12:50:55Z</time>
      </trkpt>
      <trkpt lat="42.6896390" lon="2.2414090">
        <ele>1315.2</ele>
        <time>2020-07-21T12:52:22Z</time>
      </trkpt>
      <trkpt lat="42.6896520" lon="2.2413830">
        <ele>1315.0</ele>
        <time>2020-07-21T12:52:23Z</time>
      </trkpt>
      <trkpt lat="42.6896670" lon="2.2413470">
        <ele>1314.8</ele>
        <time>2020-07-21T12:52:24Z</time>
      </trkpt>
      <trkpt lat="42.6896950" lon="2.2412470">
        <ele>1314.2</ele>
        <time>2020-07-21T12:52:26Z</time>
      </trkpt>
      <trkpt lat="42.6897160" lon="2.2411840">
        <ele>1313.8</ele>
        <time>2020-07-21T12:52:27Z</time>
      </trkpt>
      <trkpt lat="42.6897400" lon="2.2411180">
        <ele>1313.4</ele>
        <time>2020-07-21T12:52:28Z</time>
      </trkpt>
      <trkpt lat="42.6897990" lon="2.2409840">
        <ele>1312.8</ele>
        <time>2020-07-21T12:52:30Z</time>
      </trkpt>
      <trkpt lat="42.6899030" lon="2.2407700">
        <ele>1311.4</ele>
        <time>2020-07-21T12:52:33Z</time>
      </trkpt>
      <trkpt lat="42.6899380" lon="2.2406970">
        <ele>1311.0</ele>
        <time>2020-07-21T12:52:34Z</time>
      </trkpt>
      <trkpt lat="42.6900550" lon="2.2404620">
        <ele>1310.0</ele>
        <time>2020-07-21T12:52:37Z</time>
      </trkpt>
      <trkpt lat="42.6901930" lon="2.2402380">
        <ele>1308.6</ele>
        <time>2020-07-21T12:52:40Z</time>
      </trkpt>
      <trkpt lat="42.6903260" lon="2.2400430">
        <ele>1307.2</ele>
        <time>2020-07-21T12:52:43Z</time>
      </trkpt>
      <trkpt lat="42.6904340" lon="2.2399000">
        <ele>1305.8</ele>
        <time>2020-07-21T12:52:45Z</time>
      </trkpt>
      <trkpt lat="42.6904910" lon="2.2398250">
        <ele>1305.2</ele>
        <time>2020-07-21T12:52:46Z</time>
      </trkpt>
      <trkpt lat="42.6905530" lon="2.2397490">
        <ele>1304.6</ele>
        <time>2020-07-21T12:52:47Z</time>
      </trkpt>
      <trkpt lat="42.6906690" lon="2.2396010">
        <ele>1303.6</ele>
        <time>2020-07-21T12:52:49Z</time>
      </trkpt>
      <trkpt lat="42.6907260" lon="2.2395300">
        <ele>1303.2</ele>
        <time>2020-07-21T12:52:50Z</time>
      </trkpt>
      <trkpt lat="42.6907720" lon="2.2394520">
        <ele>1303.0</ele>
        <time>2020-07-21T12:52:51Z</time>
      </trkpt>
      <trkpt lat="42.6908790" lon="2.2392070">
        <ele>1302.0</ele>
        <time>2020-07-21T12:52:54Z</time>
      </trkpt>
      <trkpt lat="42.6909320" lon="2.2390190">
        <ele>1300.8</ele>
        <time>2020-07-21T12:52:56Z</time>
      </trkpt>
      <trkpt lat="42.6909400" lon="2.2388970">
        <ele>1300.4</ele>
        <time>2020-07-21T12:52:57Z</time>
      </trkpt>
      <trkpt lat="42.6909550" lon="2.2387890">
        <ele>1299.8</ele>
        <time>2020-07-21T12:52:58Z</time>
      </trkpt>
      <trkpt lat="42.6909860" lon="2.2385820">
        <ele>1298.6</ele>
        <time>2020-07-21T12:53:00Z</time>
      </trkpt>
      <trkpt lat="42.6910240" lon="2.2382830">
        <ele>1297.4</ele>
        <time>2020-07-21T12:53:03Z</time>
      </trkpt>
      <trkpt lat="42.6910430" lon="2.2379680">
        <ele>1296.4</ele>
        <time>2020-07-21T12:53:06Z</time>
      </trkpt>
      <trkpt lat="42.6910560" lon="2.2376740">
        <ele>1295.2</ele>
        <time>2020-07-21T12:53:09Z</time>
      </trkpt>
      <trkpt lat="42.6910730" lon="2.2374960">
        <ele>1294.2</ele>
        <time>2020-07-21T12:53:11Z</time>
      </trkpt>
      <trkpt lat="42.6910880" lon="2.2373010">
        <ele>1293.2</ele>
        <time>2020-07-21T12:53:13Z</time>
      </trkpt>
      <trkpt lat="42.6911090" lon="2.2371060">
        <ele>1292.0</ele>
        <time>2020-07-21T12:53:15Z</time>
      </trkpt>
      <trkpt lat="42.6911240" lon="2.2370080">
        <ele>1291.6</ele>
        <time>2020-07-21T12:53:16Z</time>
      </trkpt>
      <trkpt lat="42.6911470" lon="2.2369130">
        <ele>1291.2</ele>
        <time>2020-07-21T12:53:17Z</time>
      </trkpt>
      <trkpt lat="42.6911760" lon="2.2368210">
        <ele>1291.0</ele>
        <time>2020-07-21T12:53:18Z</time>
      </trkpt>
      <trkpt lat="42.6912100" lon="2.2367310">
        <ele>1290.8</ele>
        <time>2020-07-21T12:53:19Z</time>
      </trkpt>
      <trkpt lat="42.6912490" lon="2.2366400">
        <ele>1290.2</ele>
        <time>2020-07-21T12:53:20Z</time>
      </trkpt>
      <trkpt lat="42.6912920" lon="2.2365530">
        <ele>1289.4</ele>
        <time>2020-07-21T12:53:21Z</time>
      </trkpt>
      <trkpt lat="42.6913380" lon="2.2364700">
        <ele>1288.6</ele>
        <time>2020-07-21T12:53:22Z</time>
      </trkpt>
      <trkpt lat="42.6913870" lon="2.2363930">
        <ele>1288.0</ele>
        <time>2020-07-21T12:53:23Z</time>
      </trkpt>
      <trkpt lat="42.6914380" lon="2.2363230">
        <ele>1287.8</ele>
        <time>2020-07-21T12:53:24Z</time>
      </trkpt>
      <trkpt lat="42.6914870" lon="2.2362580">
        <ele>1287.4</ele>
        <time>2020-07-21T12:53:25Z</time>
      </trkpt>
      <trkpt lat="42.6915350" lon="2.2361980">
        <ele>1287.2</ele>
        <time>2020-07-21T12:53:26Z</time>
      </trkpt>
      <trkpt lat="42.6915790" lon="2.2361410">
        <ele>1287.0</ele>
        <time>2020-07-21T12:53:27Z</time>
      </trkpt>
      <trkpt lat="42.6916590" lon="2.2360190">
        <ele>1286.4</ele>
        <time>2020-07-21T12:53:29Z</time>
      </trkpt>
      <trkpt lat="42.6916880" lon="2.2359410">
        <ele>1285.6</ele>
        <time>2020-07-21T12:53:30Z</time>
      </trkpt>
      <trkpt lat="42.6917050" lon="2.2358530">
        <ele>1285.0</ele>
        <time>2020-07-21T12:53:31Z</time>
      </trkpt>
      <trkpt lat="42.6917170" lon="2.2357640">
        <ele>1284.6</ele>
        <time>2020-07-21T12:53:32Z</time>
      </trkpt>
      <trkpt lat="42.6917280" lon="2.2356110">
        <ele>1284.0</ele>
        <time>2020-07-21T12:53:34Z</time>
      </trkpt>
      <trkpt lat="42.6917120" lon="2.2354120">
        <ele>1283.4</ele>
        <time>2020-07-21T12:53:38Z</time>
      </trkpt>
      <trkpt lat="42.6917010" lon="2.2353680">
        <ele>1283.2</ele>
        <time>2020-07-21T12:53:40Z</time>
      </trkpt>
      <trkpt lat="42.6915840" lon="2.2352730">
        <ele>1282.6</ele>
        <time>2020-07-21T12:54:03Z</time>
      </trkpt>
      <trkpt lat="42.6915930" lon="2.2352380">
        <ele>1282.6</ele>
        <time>2020-07-21T12:54:04Z</time>
      </trkpt>
      <trkpt lat="42.6915970" lon="2.2351890">
        <ele>1282.4</ele>
        <time>2020-07-21T12:54:05Z</time>
      </trkpt>
      <trkpt lat="42.6916040" lon="2.2350040">
        <ele>1281.2</ele>
        <time>2020-07-21T12:54:08Z</time>
      </trkpt>
      <trkpt lat="42.6916030" lon="2.2348630">
        <ele>1279.6</ele>
        <time>2020-07-21T12:54:10Z</time>
      </trkpt>
      <trkpt lat="42.6916290" lon="2.2346050">
        <ele>1278.4</ele>
        <time>2020-07-21T12:54:13Z</time>
      </trkpt>
      <trkpt lat="42.6915870" lon="2.2344960">
        <ele>1278.4</ele>
        <time>2020-07-21T12:54:14Z</time>
      </trkpt>
      <trkpt lat="42.6914930" lon="2.2343170">
        <ele>1277.4</ele>
        <time>2020-07-21T12:54:16Z</time>
      </trkpt>
      <trkpt lat="42.6914120" lon="2.2342110">
        <ele>1277.0</ele>
        <time>2020-07-21T12:54:17Z</time>
      </trkpt>
      <trkpt lat="42.6913170" lon="2.2341050">
        <ele>1276.4</ele>
        <time>2020-07-21T12:54:18Z</time>
      </trkpt>
      <trkpt lat="42.6912360" lon="2.2340040">
        <ele>1276.0</ele>
        <time>2020-07-21T12:54:19Z</time>
      </trkpt>
      <trkpt lat="42.6911610" lon="2.2339050">
        <ele>1275.4</ele>
        <time>2020-07-21T12:54:20Z</time>
      </trkpt>
      <trkpt lat="42.6910220" lon="2.2337200">
        <ele>1274.2</ele>
        <time>2020-07-21T12:54:22Z</time>
      </trkpt>
      <trkpt lat="42.6909200" lon="2.2335510">
        <ele>1273.0</ele>
        <time>2020-07-21T12:54:24Z</time>
      </trkpt>
      <trkpt lat="42.6908720" lon="2.2334720">
        <ele>1272.6</ele>
        <time>2020-07-21T12:54:25Z</time>
      </trkpt>
      <trkpt lat="42.6908010" lon="2.2333110">
        <ele>1272.0</ele>
        <time>2020-07-21T12:54:27Z</time>
      </trkpt>
      <trkpt lat="42.6907610" lon="2.2331360">
        <ele>1271.4</ele>
        <time>2020-07-21T12:54:29Z</time>
      </trkpt>
      <trkpt lat="42.6907240" lon="2.2329450">
        <ele>1270.6</ele>
        <time>2020-07-21T12:54:31Z</time>
      </trkpt>
      <trkpt lat="42.6906700" lon="2.2325910">
        <ele>1269.2</ele>
        <time>2020-07-21T12:54:34Z</time>
      </trkpt>
      <trkpt lat="42.6906480" lon="2.2324760">
        <ele>1268.6</ele>
        <time>2020-07-21T12:54:35Z</time>
      </trkpt>
      <trkpt lat="42.6906260" lon="2.2323570">
        <ele>1268.0</ele>
        <time>2020-07-21T12:54:36Z</time>
      </trkpt>
      <trkpt lat="42.6905800" lon="2.2321320">
        <ele>1266.8</ele>
        <time>2020-07-21T12:54:38Z</time>
      </trkpt>
      <trkpt lat="42.6904830" lon="2.2317320">
        <ele>1265.2</ele>
        <time>2020-07-21T12:54:42Z</time>
      </trkpt>
      <trkpt lat="42.6904160" lon="2.2314410">
        <ele>1263.8</ele>
        <time>2020-07-21T12:54:45Z</time>
      </trkpt>
      <trkpt lat="42.6904020" lon="2.2312540">
        <ele>1263.2</ele>
        <time>2020-07-21T12:54:47Z</time>
      </trkpt>
      <trkpt lat="42.6904090" lon="2.2311630">
        <ele>1262.8</ele>
        <time>2020-07-21T12:54:48Z</time>
      </trkpt>
      <trkpt lat="42.6904270" lon="2.2310760">
        <ele>1262.2</ele>
        <time>2020-07-21T12:54:49Z</time>
      </trkpt>
      <trkpt lat="42.6904950" lon="2.2309160">
        <ele>1261.4</ele>
        <time>2020-07-21T12:54:51Z</time>
      </trkpt>
      <trkpt lat="42.6906040" lon="2.2307980">
        <ele>1260.6</ele>
        <time>2020-07-21T12:54:53Z</time>
      </trkpt>
      <trkpt lat="42.6906670" lon="2.2307540">
        <ele>1260.0</ele>
        <time>2020-07-21T12:54:54Z</time>
      </trkpt>
      <trkpt lat="42.6907440" lon="2.2307320">
        <ele>1259.2</ele>
        <time>2020-07-21T12:54:55Z</time>
      </trkpt>
      <trkpt lat="42.6908250" lon="2.2307220">
        <ele>1258.4</ele>
        <time>2020-07-21T12:54:56Z</time>
      </trkpt>
      <trkpt lat="42.6909030" lon="2.2307280">
        <ele>1257.8</ele>
        <time>2020-07-21T12:54:57Z</time>
      </trkpt>
      <trkpt lat="42.6909810" lon="2.2307500">
        <ele>1257.2</ele>
        <time>2020-07-21T12:54:58Z</time>
      </trkpt>
      <trkpt lat="42.6910510" lon="2.2307880">
        <ele>1257.0</ele>
        <time>2020-07-21T12:54:59Z</time>
      </trkpt>
      <trkpt lat="42.6911110" lon="2.2308420">
        <ele>1256.6</ele>
        <time>2020-07-21T12:55:00Z</time>
      </trkpt>
      <trkpt lat="42.6911610" lon="2.2309110">
        <ele>1256.4</ele>
        <time>2020-07-21T12:55:01Z</time>
      </trkpt>
      <trkpt lat="42.6912540" lon="2.2310650">
        <ele>1256.0</ele>
        <time>2020-07-21T12:55:03Z</time>
      </trkpt>
      <trkpt lat="42.6913030" lon="2.2311400">
        <ele>1255.4</ele>
        <time>2020-07-21T12:55:04Z</time>
      </trkpt>
      <trkpt lat="42.6913500" lon="2.2312190">
        <ele>1254.6</ele>
        <time>2020-07-21T12:55:05Z</time>
      </trkpt>
      <trkpt lat="42.6914450" lon="2.2313930">
        <ele>1253.6</ele>
        <time>2020-07-21T12:55:07Z</time>
      </trkpt>
      <trkpt lat="42.6915450" lon="2.2315940">
        <ele>1252.8</ele>
        <time>2020-07-21T12:55:09Z</time>
      </trkpt>
      <trkpt lat="42.6915910" lon="2.2316920">
        <ele>1252.4</ele>
        <time>2020-07-21T12:55:10Z</time>
      </trkpt>
      <trkpt lat="42.6916890" lon="2.2318570">
        <ele>1251.8</ele>
        <time>2020-07-21T12:55:12Z</time>
      </trkpt>
      <trkpt lat="42.6917460" lon="2.2319230">
        <ele>1251.8</ele>
        <time>2020-07-21T12:55:13Z</time>
      </trkpt>
      <trkpt lat="42.6918150" lon="2.2319850">
        <ele>1251.4</ele>
        <time>2020-07-21T12:55:14Z</time>
      </trkpt>
      <trkpt lat="42.6920310" lon="2.2321510">
        <ele>1250.0</ele>
        <time>2020-07-21T12:55:17Z</time>
      </trkpt>
      <trkpt lat="42.6921750" lon="2.2322550">
        <ele>1248.8</ele>
        <time>2020-07-21T12:55:19Z</time>
      </trkpt>
      <trkpt lat="42.6923160" lon="2.2323510">
        <ele>1247.6</ele>
        <time>2020-07-21T12:55:21Z</time>
      </trkpt>
      <trkpt lat="42.6924400" lon="2.2324600">
        <ele>1246.6</ele>
        <time>2020-07-21T12:55:23Z</time>
      </trkpt>
      <trkpt lat="42.6925010" lon="2.2325190">
        <ele>1246.0</ele>
        <time>2020-07-21T12:55:24Z</time>
      </trkpt>
      <trkpt lat="42.6925640" lon="2.2325770">
        <ele>1245.4</ele>
        <time>2020-07-21T12:55:25Z</time>
      </trkpt>
      <trkpt lat="42.6927650" lon="2.2327540">
        <ele>1244.4</ele>
        <time>2020-07-21T12:55:28Z</time>
      </trkpt>
      <trkpt lat="42.6928950" lon="2.2328400">
        <ele>1243.8</ele>
        <time>2020-07-21T12:55:30Z</time>
      </trkpt>
      <trkpt lat="42.6929670" lon="2.2328730">
        <ele>1243.4</ele>
        <time>2020-07-21T12:55:31Z</time>
      </trkpt>
      <trkpt lat="42.6931100" lon="2.2329110">
        <ele>1242.2</ele>
        <time>2020-07-21T12:55:33Z</time>
      </trkpt>
      <trkpt lat="42.6931820" lon="2.2329250">
        <ele>1241.6</ele>
        <time>2020-07-21T12:55:34Z</time>
      </trkpt>
      <trkpt lat="42.6932500" lon="2.2329480">
        <ele>1241.0</ele>
        <time>2020-07-21T12:55:35Z</time>
      </trkpt>
      <trkpt lat="42.6933160" lon="2.2329830">
        <ele>1240.4</ele>
        <time>2020-07-21T12:55:36Z</time>
      </trkpt>
      <trkpt lat="42.6933750" lon="2.2330370">
        <ele>1240.0</ele>
        <time>2020-07-21T12:55:37Z</time>
      </trkpt>
      <trkpt lat="42.6934320" lon="2.2331010">
        <ele>1239.6</ele>
        <time>2020-07-21T12:55:38Z</time>
      </trkpt>
      <trkpt lat="42.6935420" lon="2.2332410">
        <ele>1238.2</ele>
        <time>2020-07-21T12:55:40Z</time>
      </trkpt>
      <trkpt lat="42.6936440" lon="2.2333980">
        <ele>1237.0</ele>
        <time>2020-07-21T12:55:42Z</time>
      </trkpt>
      <trkpt lat="42.6937350" lon="2.2335520">
        <ele>1236.0</ele>
        <time>2020-07-21T12:55:44Z</time>
      </trkpt>
      <trkpt lat="42.6937690" lon="2.2336320">
        <ele>1235.6</ele>
        <time>2020-07-21T12:55:45Z</time>
      </trkpt>
      <trkpt lat="42.6937940" lon="2.2337250">
        <ele>1234.6</ele>
        <time>2020-07-21T12:55:46Z</time>
      </trkpt>
      <trkpt lat="42.6938190" lon="2.2338250">
        <ele>1233.6</ele>
        <time>2020-07-21T12:55:47Z</time>
      </trkpt>
      <trkpt lat="42.6938370" lon="2.2339280">
        <ele>1232.8</ele>
        <time>2020-07-21T12:55:48Z</time>
      </trkpt>
      <trkpt lat="42.6938580" lon="2.2340270">
        <ele>1232.2</ele>
        <time>2020-07-21T12:55:49Z</time>
      </trkpt>
      <trkpt lat="42.6939120" lon="2.2342210">
        <ele>1231.4</ele>
        <time>2020-07-21T12:55:51Z</time>
      </trkpt>
      <trkpt lat="42.6939500" lon="2.2343150">
        <ele>1230.8</ele>
        <time>2020-07-21T12:55:52Z</time>
      </trkpt>
      <trkpt lat="42.6939950" lon="2.2344080">
        <ele>1230.0</ele>
        <time>2020-07-21T12:55:53Z</time>
      </trkpt>
      <trkpt lat="42.6940380" lon="2.2345090">
        <ele>1229.2</ele>
        <time>2020-07-21T12:55:54Z</time>
      </trkpt>
      <trkpt lat="42.6941180" lon="2.2347150">
        <ele>1228.2</ele>
        <time>2020-07-21T12:55:56Z</time>
      </trkpt>
      <trkpt lat="42.6941900" lon="2.2349100">
        <ele>1227.0</ele>
        <time>2020-07-21T12:55:58Z</time>
      </trkpt>
      <trkpt lat="42.6942250" lon="2.2349990">
        <ele>1226.4</ele>
        <time>2020-07-21T12:55:59Z</time>
      </trkpt>
      <trkpt lat="42.6942680" lon="2.2350800">
        <ele>1225.6</ele>
        <time>2020-07-21T12:56:00Z</time>
      </trkpt>
      <trkpt lat="42.6943970" lon="2.2352120">
        <ele>1224.0</ele>
        <time>2020-07-21T12:56:02Z</time>
      </trkpt>
      <trkpt lat="42.6944670" lon="2.2352770">
        <ele>1223.0</ele>
        <time>2020-07-21T12:56:03Z</time>
      </trkpt>
      <trkpt lat="42.6946080" lon="2.2354000">
        <ele>1221.4</ele>
        <time>2020-07-21T12:56:05Z</time>
      </trkpt>
      <trkpt lat="42.6948350" lon="2.2355430">
        <ele>1220.4</ele>
        <time>2020-07-21T12:56:08Z</time>
      </trkpt>
      <trkpt lat="42.6949760" lon="2.2356320">
        <ele>1219.2</ele>
        <time>2020-07-21T12:56:10Z</time>
      </trkpt>
      <trkpt lat="42.6951040" lon="2.2356880">
        <ele>1217.8</ele>
        <time>2020-07-21T12:56:12Z</time>
      </trkpt>
      <trkpt lat="42.6951690" lon="2.2356940">
        <ele>1217.4</ele>
        <time>2020-07-21T12:56:13Z</time>
      </trkpt>
      <trkpt lat="42.6952330" lon="2.2356880">
        <ele>1217.0</ele>
        <time>2020-07-21T12:56:14Z</time>
      </trkpt>
      <trkpt lat="42.6952990" lon="2.2356730">
        <ele>1216.8</ele>
        <time>2020-07-21T12:56:15Z</time>
      </trkpt>
      <trkpt lat="42.6953650" lon="2.2356620">
        <ele>1216.6</ele>
        <time>2020-07-21T12:56:16Z</time>
      </trkpt>
      <trkpt lat="42.6954330" lon="2.2356460">
        <ele>1216.2</ele>
        <time>2020-07-21T12:56:17Z</time>
      </trkpt>
      <trkpt lat="42.6955090" lon="2.2356240">
        <ele>1215.6</ele>
        <time>2020-07-21T12:56:18Z</time>
      </trkpt>
      <trkpt lat="42.6956740" lon="2.2355910">
        <ele>1213.8</ele>
        <time>2020-07-21T12:56:20Z</time>
      </trkpt>
      <trkpt lat="42.6958410" lon="2.2355430">
        <ele>1212.8</ele>
        <time>2020-07-21T12:56:22Z</time>
      </trkpt>
      <trkpt lat="42.6959210" lon="2.2355040">
        <ele>1212.4</ele>
        <time>2020-07-21T12:56:23Z</time>
      </trkpt>
      <trkpt lat="42.6959970" lon="2.2354520">
        <ele>1211.8</ele>
        <time>2020-07-21T12:56:24Z</time>
      </trkpt>
      <trkpt lat="42.6960670" lon="2.2353900">
        <ele>1211.2</ele>
        <time>2020-07-21T12:56:25Z</time>
      </trkpt>
      <trkpt lat="42.6961950" lon="2.2352580">
        <ele>1210.0</ele>
        <time>2020-07-21T12:56:27Z</time>
      </trkpt>
      <trkpt lat="42.6962590" lon="2.2352130">
        <ele>1209.6</ele>
        <time>2020-07-21T12:56:28Z</time>
      </trkpt>
      <trkpt lat="42.6963920" lon="2.2351780">
        <ele>1208.8</ele>
        <time>2020-07-21T12:56:30Z</time>
      </trkpt>
      <trkpt lat="42.6965500" lon="2.2352050">
        <ele>1207.4</ele>
        <time>2020-07-21T12:56:32Z</time>
      </trkpt>
      <trkpt lat="42.6967110" lon="2.2352480">
        <ele>1205.8</ele>
        <time>2020-07-21T12:56:34Z</time>
      </trkpt>
      <trkpt lat="42.6968760" lon="2.2352540">
        <ele>1204.4</ele>
        <time>2020-07-21T12:56:36Z</time>
      </trkpt>
      <trkpt lat="42.6969620" lon="2.2352410">
        <ele>1203.6</ele>
        <time>2020-07-21T12:56:37Z</time>
      </trkpt>
      <trkpt lat="42.6970510" lon="2.2352180">
        <ele>1203.0</ele>
        <time>2020-07-21T12:56:38Z</time>
      </trkpt>
      <trkpt lat="42.6971390" lon="2.2351890">
        <ele>1202.4</ele>
        <time>2020-07-21T12:56:39Z</time>
      </trkpt>
      <trkpt lat="42.6972210" lon="2.2351550">
        <ele>1201.8</ele>
        <time>2020-07-21T12:56:40Z</time>
      </trkpt>
      <trkpt lat="42.6974150" lon="2.2350800">
        <ele>1200.6</ele>
        <time>2020-07-21T12:56:43Z</time>
      </trkpt>
      <trkpt lat="42.6974730" lon="2.2350750">
        <ele>1200.2</ele>
        <time>2020-07-21T12:56:44Z</time>
      </trkpt>
      <trkpt lat="42.6975350" lon="2.2351000">
        <ele>1199.6</ele>
        <time>2020-07-21T12:56:45Z</time>
      </trkpt>
      <trkpt lat="42.6975930" lon="2.2351400">
        <ele>1199.2</ele>
        <time>2020-07-21T12:56:46Z</time>
      </trkpt>
      <trkpt lat="42.6976990" lon="2.2352550">
        <ele>1198.4</ele>
        <time>2020-07-21T12:56:48Z</time>
      </trkpt>
      <trkpt lat="42.6977420" lon="2.2353270">
        <ele>1197.6</ele>
        <time>2020-07-21T12:56:49Z</time>
      </trkpt>
      <trkpt lat="42.6977750" lon="2.2354100">
        <ele>1196.8</ele>
        <time>2020-07-21T12:56:50Z</time>
      </trkpt>
      <trkpt lat="42.6978160" lon="2.2354950">
        <ele>1196.0</ele>
        <time>2020-07-21T12:56:51Z</time>
      </trkpt>
      <trkpt lat="42.6978990" lon="2.2356650">
        <ele>1194.4</ele>
        <time>2020-07-21T12:56:53Z</time>
      </trkpt>
      <trkpt lat="42.6980350" lon="2.2359140">
        <ele>1193.2</ele>
        <time>2020-07-21T12:56:56Z</time>
      </trkpt>
      <trkpt lat="42.6982000" lon="2.2362050">
        <ele>1192.0</ele>
        <time>2020-07-21T12:57:00Z</time>
      </trkpt>
      <trkpt lat="42.6982650" lon="2.2362760">
        <ele>1191.6</ele>
        <time>2020-07-21T12:57:01Z</time>
      </trkpt>
      <trkpt lat="42.6983400" lon="2.2363260">
        <ele>1191.0</ele>
        <time>2020-07-21T12:57:02Z</time>
      </trkpt>
      <trkpt lat="42.6984700" lon="2.2363710">
        <ele>1190.0</ele>
        <time>2020-07-21T12:57:04Z</time>
      </trkpt>
      <trkpt lat="42.6985340" lon="2.2363770">
        <ele>1189.4</ele>
        <time>2020-07-21T12:57:05Z</time>
      </trkpt>
      <trkpt lat="42.6985970" lon="2.2363640">
        <ele>1188.6</ele>
        <time>2020-07-21T12:57:06Z</time>
      </trkpt>
      <trkpt lat="42.6987270" lon="2.2363700">
        <ele>1187.2</ele>
        <time>2020-07-21T12:57:08Z</time>
      </trkpt>
      <trkpt lat="42.6987900" lon="2.2363920">
        <ele>1186.4</ele>
        <time>2020-07-21T12:57:09Z</time>
      </trkpt>
      <trkpt lat="42.6988590" lon="2.2364280">
        <ele>1186.0</ele>
        <time>2020-07-21T12:57:10Z</time>
      </trkpt>
      <trkpt lat="42.6991780" lon="2.2366040">
        <ele>1185.0</ele>
        <time>2020-07-21T12:57:14Z</time>
      </trkpt>
      <trkpt lat="42.6992590" lon="2.2366410">
        <ele>1184.2</ele>
        <time>2020-07-21T12:57:15Z</time>
      </trkpt>
      <trkpt lat="42.6993390" lon="2.2366640">
        <ele>1183.4</ele>
        <time>2020-07-21T12:57:16Z</time>
      </trkpt>
      <trkpt lat="42.6994160" lon="2.2366780">
        <ele>1182.6</ele>
        <time>2020-07-21T12:57:17Z</time>
      </trkpt>
      <trkpt lat="42.6994930" lon="2.2366830">
        <ele>1182.0</ele>
        <time>2020-07-21T12:57:18Z</time>
      </trkpt>
      <trkpt lat="42.6995680" lon="2.2366820">
        <ele>1181.2</ele>
        <time>2020-07-21T12:57:19Z</time>
      </trkpt>
      <trkpt lat="42.6996390" lon="2.2366620">
        <ele>1180.4</ele>
        <time>2020-07-21T12:57:20Z</time>
      </trkpt>
      <trkpt lat="42.6997820" lon="2.2366090">
        <ele>1179.4</ele>
        <time>2020-07-21T12:57:22Z</time>
      </trkpt>
      <trkpt lat="42.6998600" lon="2.2365800">
        <ele>1179.0</ele>
        <time>2020-07-21T12:57:23Z</time>
      </trkpt>
      <trkpt lat="42.7000220" lon="2.2365190">
        <ele>1178.2</ele>
        <time>2020-07-21T12:57:25Z</time>
      </trkpt>
      <trkpt lat="42.7001860" lon="2.2364560">
        <ele>1177.0</ele>
        <time>2020-07-21T12:57:27Z</time>
      </trkpt>
      <trkpt lat="42.7003390" lon="2.2363760">
        <ele>1175.4</ele>
        <time>2020-07-21T12:57:29Z</time>
      </trkpt>
      <trkpt lat="42.7004800" lon="2.2362730">
        <ele>1173.8</ele>
        <time>2020-07-21T12:57:31Z</time>
      </trkpt>
      <trkpt lat="42.7006040" lon="2.2361860">
        <ele>1172.6</ele>
        <time>2020-07-21T12:57:33Z</time>
      </trkpt>
      <trkpt lat="42.7007250" lon="2.2361350">
        <ele>1171.6</ele>
        <time>2020-07-21T12:57:35Z</time>
      </trkpt>
      <trkpt lat="42.7007880" lon="2.2361300">
        <ele>1171.0</ele>
        <time>2020-07-21T12:57:36Z</time>
      </trkpt>
      <trkpt lat="42.7008540" lon="2.2361360">
        <ele>1170.2</ele>
        <time>2020-07-21T12:57:37Z</time>
      </trkpt>
      <trkpt lat="42.7009240" lon="2.2361570">
        <ele>1169.8</ele>
        <time>2020-07-21T12:57:38Z</time>
      </trkpt>
      <trkpt lat="42.7010620" lon="2.2361970">
        <ele>1169.4</ele>
        <time>2020-07-21T12:57:40Z</time>
      </trkpt>
      <trkpt lat="42.7011240" lon="2.2362370">
        <ele>1169.0</ele>
        <time>2020-07-21T12:57:41Z</time>
      </trkpt>
      <trkpt lat="42.7011810" lon="2.2362940">
        <ele>1169.0</ele>
        <time>2020-07-21T12:57:42Z</time>
      </trkpt>
      <trkpt lat="42.7012260" lon="2.2363720">
        <ele>1168.6</ele>
        <time>2020-07-21T12:57:43Z</time>
      </trkpt>
      <trkpt lat="42.7012640" lon="2.2364560">
        <ele>1168.4</ele>
        <time>2020-07-21T12:57:44Z</time>
      </trkpt>
      <trkpt lat="42.7013300" lon="2.2366490">
        <ele>1167.2</ele>
        <time>2020-07-21T12:57:46Z</time>
      </trkpt>
      <trkpt lat="42.7014000" lon="2.2368460">
        <ele>1165.8</ele>
        <time>2020-07-21T12:57:48Z</time>
      </trkpt>
      <trkpt lat="42.7015310" lon="2.2371190">
        <ele>1164.4</ele>
        <time>2020-07-21T12:57:51Z</time>
      </trkpt>
      <trkpt lat="42.7016320" lon="2.2372600">
        <ele>1163.4</ele>
        <time>2020-07-21T12:57:53Z</time>
      </trkpt>
      <trkpt lat="42.7017990" lon="2.2374020">
        <ele>1161.8</ele>
        <time>2020-07-21T12:57:55Z</time>
      </trkpt>
      <trkpt lat="42.7019570" lon="2.2375120">
        <ele>1160.8</ele>
        <time>2020-07-21T12:57:57Z</time>
      </trkpt>
      <trkpt lat="42.7020880" lon="2.2376070">
        <ele>1159.8</ele>
        <time>2020-07-21T12:57:59Z</time>
      </trkpt>
      <trkpt lat="42.7022250" lon="2.2377010">
        <ele>1158.4</ele>
        <time>2020-07-21T12:58:01Z</time>
      </trkpt>
      <trkpt lat="42.7023740" lon="2.2377950">
        <ele>1157.0</ele>
        <time>2020-07-21T12:58:03Z</time>
      </trkpt>
      <trkpt lat="42.7024440" lon="2.2378320">
        <ele>1156.4</ele>
        <time>2020-07-21T12:58:04Z</time>
      </trkpt>
      <trkpt lat="42.7025120" lon="2.2378450">
        <ele>1155.8</ele>
        <time>2020-07-21T12:58:05Z</time>
      </trkpt>
      <trkpt lat="42.7025820" lon="2.2378320">
        <ele>1155.2</ele>
        <time>2020-07-21T12:58:06Z</time>
      </trkpt>
      <trkpt lat="42.7026780" lon="2.2377270">
        <ele>1154.4</ele>
        <time>2020-07-21T12:58:08Z</time>
      </trkpt>
      <trkpt lat="42.7026970" lon="2.2375520">
        <ele>1153.6</ele>
        <time>2020-07-21T12:58:10Z</time>
      </trkpt>
      <trkpt lat="42.7026780" lon="2.2374700">
        <ele>1153.4</ele>
        <time>2020-07-21T12:58:11Z</time>
      </trkpt>
      <trkpt lat="42.7026410" lon="2.2374070">
        <ele>1153.0</ele>
        <time>2020-07-21T12:58:12Z</time>
      </trkpt>
      <trkpt lat="42.7025350" lon="2.2373480">
        <ele>1151.6</ele>
        <time>2020-07-21T12:58:14Z</time>
      </trkpt>
      <trkpt lat="42.7023440" lon="2.2373130">
        <ele>1150.2</ele>
        <time>2020-07-21T12:58:17Z</time>
      </trkpt>
      <trkpt lat="42.7022860" lon="2.2372730">
        <ele>1149.6</ele>
        <time>2020-07-21T12:58:18Z</time>
      </trkpt>
      <trkpt lat="42.7022370" lon="2.2372110">
        <ele>1149.0</ele>
        <time>2020-07-21T12:58:19Z</time>
      </trkpt>
      <trkpt lat="42.7021710" lon="2.2370580">
        <ele>1148.6</ele>
        <time>2020-07-21T12:58:21Z</time>
      </trkpt>
      <trkpt lat="42.7021050" lon="2.2368980">
        <ele>1147.8</ele>
        <time>2020-07-21T12:58:23Z</time>
      </trkpt>
      <trkpt lat="42.7020560" lon="2.2368150">
        <ele>1147.2</ele>
        <time>2020-07-21T12:58:24Z</time>
      </trkpt>
      <trkpt lat="42.7020050" lon="2.2367350">
        <ele>1146.2</ele>
        <time>2020-07-21T12:58:25Z</time>
      </trkpt>
      <trkpt lat="42.7019520" lon="2.2366590">
        <ele>1145.8</ele>
        <time>2020-07-21T12:58:26Z</time>
      </trkpt>
      <trkpt lat="42.7019030" lon="2.2365840">
        <ele>1145.2</ele>
        <time>2020-07-21T12:58:27Z</time>
      </trkpt>
      <trkpt lat="42.7018650" lon="2.2364990">
        <ele>1144.4</ele>
        <time>2020-07-21T12:58:28Z</time>
      </trkpt>
      <trkpt lat="42.7018320" lon="2.2364080">
        <ele>1143.8</ele>
        <time>2020-07-21T12:58:29Z</time>
      </trkpt>
      <trkpt lat="42.7018040" lon="2.2363100">
        <ele>1143.2</ele>
        <time>2020-07-21T12:58:30Z</time>
      </trkpt>
      <trkpt lat="42.7017810" lon="2.2362090">
        <ele>1142.6</ele>
        <time>2020-07-21T12:58:31Z</time>
      </trkpt>
      <trkpt lat="42.7017240" lon="2.2359960">
        <ele>1141.0</ele>
        <time>2020-07-21T12:58:33Z</time>
      </trkpt>
      <trkpt lat="42.7016410" lon="2.2357950">
        <ele>1139.8</ele>
        <time>2020-07-21T12:58:35Z</time>
      </trkpt>
      <trkpt lat="42.7015450" lon="2.2356090">
        <ele>1138.8</ele>
        <time>2020-07-21T12:58:37Z</time>
      </trkpt>
      <trkpt lat="42.7014730" lon="2.2354180">
        <ele>1137.0</ele>
        <time>2020-07-21T12:58:39Z</time>
      </trkpt>
      <trkpt lat="42.7013950" lon="2.2352230">
        <ele>1135.4</ele>
        <time>2020-07-21T12:58:41Z</time>
      </trkpt>
      <trkpt lat="42.7013490" lon="2.2351400">
        <ele>1134.6</ele>
        <time>2020-07-21T12:58:42Z</time>
      </trkpt>
      <trkpt lat="42.7013040" lon="2.2350640">
        <ele>1134.2</ele>
        <time>2020-07-21T12:58:43Z</time>
      </trkpt>
      <trkpt lat="42.7012130" lon="2.2349440">
        <ele>1133.8</ele>
        <time>2020-07-21T12:58:45Z</time>
      </trkpt>
      <trkpt lat="42.7011530" lon="2.2349100">
        <ele>1133.4</ele>
        <time>2020-07-21T12:58:46Z</time>
      </trkpt>
      <trkpt lat="42.7010860" lon="2.2348830">
        <ele>1133.0</ele>
        <time>2020-07-21T12:58:47Z</time>
      </trkpt>
      <trkpt lat="42.7010250" lon="2.2348560">
        <ele>1132.6</ele>
        <time>2020-07-21T12:58:48Z</time>
      </trkpt>
      <trkpt lat="42.7009770" lon="2.2348200">
        <ele>1132.0</ele>
        <time>2020-07-21T12:58:49Z</time>
      </trkpt>
      <trkpt lat="42.7009200" lon="2.2347070">
        <ele>1130.6</ele>
        <time>2020-07-21T12:58:51Z</time>
      </trkpt>
      <trkpt lat="42.7009140" lon="2.2345650">
        <ele>1130.0</ele>
        <time>2020-07-21T12:58:53Z</time>
      </trkpt>
      <trkpt lat="42.7009350" lon="2.2345040">
        <ele>1129.8</ele>
        <time>2020-07-21T12:58:54Z</time>
      </trkpt>
      <trkpt lat="42.7009650" lon="2.2344570">
        <ele>1129.4</ele>
        <time>2020-07-21T12:58:55Z</time>
      </trkpt>
      <trkpt lat="42.7010720" lon="2.2344180">
        <ele>1128.2</ele>
        <time>2020-07-21T12:58:57Z</time>
      </trkpt>
      <trkpt lat="42.7011340" lon="2.2344300">
        <ele>1127.8</ele>
        <time>2020-07-21T12:58:58Z</time>
      </trkpt>
      <trkpt lat="42.7011930" lon="2.2344600">
        <ele>1127.2</ele>
        <time>2020-07-21T12:58:59Z</time>
      </trkpt>
      <trkpt lat="42.7012440" lon="2.2345080">
        <ele>1126.6</ele>
        <time>2020-07-21T12:59:00Z</time>
      </trkpt>
      <trkpt lat="42.7012930" lon="2.2345580">
        <ele>1126.0</ele>
        <time>2020-07-21T12:59:01Z</time>
      </trkpt>
      <trkpt lat="42.7014030" lon="2.2346520">
        <ele>1124.8</ele>
        <time>2020-07-21T12:59:03Z</time>
      </trkpt>
      <trkpt lat="42.7014610" lon="2.2346840">
        <ele>1124.0</ele>
        <time>2020-07-21T12:59:04Z</time>
      </trkpt>
      <trkpt lat="42.7015290" lon="2.2346970">
        <ele>1123.0</ele>
        <time>2020-07-21T12:59:05Z</time>
      </trkpt>
      <trkpt lat="42.7016620" lon="2.2346650">
        <ele>1121.4</ele>
        <time>2020-07-21T12:59:07Z</time>
      </trkpt>
      <trkpt lat="42.7017840" lon="2.2345520">
        <ele>1120.2</ele>
        <time>2020-07-21T12:59:09Z</time>
      </trkpt>
      <trkpt lat="42.7018440" lon="2.2344700">
        <ele>1119.4</ele>
        <time>2020-07-21T12:59:10Z</time>
      </trkpt>
      <trkpt lat="42.7019010" lon="2.2343850">
        <ele>1118.4</ele>
        <time>2020-07-21T12:59:11Z</time>
      </trkpt>
      <trkpt lat="42.7020070" lon="2.2342110">
        <ele>1117.2</ele>
        <time>2020-07-21T12:59:13Z</time>
      </trkpt>
      <trkpt lat="42.7021220" lon="2.2340660">
        <ele>1116.0</ele>
        <time>2020-07-21T12:59:15Z</time>
      </trkpt>
      <trkpt lat="42.7021970" lon="2.2340240">
        <ele>1115.4</ele>
        <time>2020-07-21T12:59:16Z</time>
      </trkpt>
      <trkpt lat="42.7022770" lon="2.2340000">
        <ele>1114.4</ele>
        <time>2020-07-21T12:59:17Z</time>
      </trkpt>
      <trkpt lat="42.7023670" lon="2.2340070">
        <ele>1113.4</ele>
        <time>2020-07-21T12:59:18Z</time>
      </trkpt>
      <trkpt lat="42.7024540" lon="2.2340310">
        <ele>1112.6</ele>
        <time>2020-07-21T12:59:19Z</time>
      </trkpt>
      <trkpt lat="42.7025450" lon="2.2340620">
        <ele>1112.0</ele>
        <time>2020-07-21T12:59:20Z</time>
      </trkpt>
      <trkpt lat="42.7027180" lon="2.2341200">
        <ele>1110.2</ele>
        <time>2020-07-21T12:59:22Z</time>
      </trkpt>
      <trkpt lat="42.7028430" lon="2.2341610">
        <ele>1108.8</ele>
        <time>2020-07-21T12:59:24Z</time>
      </trkpt>
      <trkpt lat="42.7028870" lon="2.2341670">
        <ele>1108.6</ele>
        <time>2020-07-21T12:59:25Z</time>
      </trkpt>
      <trkpt lat="42.7029980" lon="2.2341710">
        <ele>1108.2</ele>
        <time>2020-07-21T12:59:28Z</time>
      </trkpt>
      <trkpt lat="42.7030810" lon="2.2341710">
        <ele>1107.8</ele>
        <time>2020-07-21T12:59:30Z</time>
      </trkpt>
      <trkpt lat="42.7031320" lon="2.2341650">
        <ele>1107.2</ele>
        <time>2020-07-21T12:59:31Z</time>
      </trkpt>
      <trkpt lat="42.7031900" lon="2.2341550">
        <ele>1106.8</ele>
        <time>2020-07-21T12:59:32Z</time>
      </trkpt>
      <trkpt lat="42.7032550" lon="2.2341440">
        <ele>1106.0</ele>
        <time>2020-07-21T12:59:33Z</time>
      </trkpt>
      <trkpt lat="42.7033990" lon="2.2341240">
        <ele>1104.2</ele>
        <time>2020-07-21T12:59:35Z</time>
      </trkpt>
      <trkpt lat="42.7034800" lon="2.2341100">
        <ele>1103.4</ele>
        <time>2020-07-21T12:59:36Z</time>
      </trkpt>
      <trkpt lat="42.7035670" lon="2.2340930">
        <ele>1102.2</ele>
        <time>2020-07-21T12:59:37Z</time>
      </trkpt>
      <trkpt lat="42.7037570" lon="2.2340570">
        <ele>1100.8</ele>
        <time>2020-07-21T12:59:39Z</time>
      </trkpt>
      <trkpt lat="42.7039410" lon="2.2340200">
        <ele>1099.8</ele>
        <time>2020-07-21T12:59:41Z</time>
      </trkpt>
      <trkpt lat="42.7041090" lon="2.2339840">
        <ele>1098.4</ele>
        <time>2020-07-21T12:59:43Z</time>
      </trkpt>
      <trkpt lat="42.7041950" lon="2.2339690">
        <ele>1097.2</ele>
        <time>2020-07-21T12:59:44Z</time>
      </trkpt>
      <trkpt lat="42.7042840" lon="2.2339590">
        <ele>1096.2</ele>
        <time>2020-07-21T12:59:45Z</time>
      </trkpt>
      <trkpt lat="42.7044490" lon="2.2339170">
        <ele>1094.6</ele>
        <time>2020-07-21T12:59:47Z</time>
      </trkpt>
      <trkpt lat="42.7045250" lon="2.2338680">
        <ele>1093.8</ele>
        <time>2020-07-21T12:59:48Z</time>
      </trkpt>
      <trkpt lat="42.7046000" lon="2.2338080">
        <ele>1092.8</ele>
        <time>2020-07-21T12:59:49Z</time>
      </trkpt>
      <trkpt lat="42.7046800" lon="2.2337470">
        <ele>1091.8</ele>
        <time>2020-07-21T12:59:50Z</time>
      </trkpt>
      <trkpt lat="42.7047620" lon="2.2336830">
        <ele>1090.8</ele>
        <time>2020-07-21T12:59:51Z</time>
      </trkpt>
      <trkpt lat="42.7049320" lon="2.2335670">
        <ele>1089.2</ele>
        <time>2020-07-21T12:59:53Z</time>
      </trkpt>
      <trkpt lat="42.7051120" lon="2.2334680">
        <ele>1087.2</ele>
        <time>2020-07-21T12:59:55Z</time>
      </trkpt>
      <trkpt lat="42.7052000" lon="2.2334180">
        <ele>1086.4</ele>
        <time>2020-07-21T12:59:56Z</time>
      </trkpt>
      <trkpt lat="42.7052840" lon="2.2333660">
        <ele>1085.4</ele>
        <time>2020-07-21T12:59:57Z</time>
      </trkpt>
      <trkpt lat="42.7054540" lon="2.2332770">
        <ele>1084.2</ele>
        <time>2020-07-21T12:59:59Z</time>
      </trkpt>
      <trkpt lat="42.7056200" lon="2.2331780">
        <ele>1083.0</ele>
        <time>2020-07-21T13:00:01Z</time>
      </trkpt>
      <trkpt lat="42.7057730" lon="2.2330490">
        <ele>1081.0</ele>
        <time>2020-07-21T13:00:03Z</time>
      </trkpt>
      <trkpt lat="42.7059140" lon="2.2329210">
        <ele>1079.4</ele>
        <time>2020-07-21T13:00:05Z</time>
      </trkpt>
      <trkpt lat="42.7059780" lon="2.2328580">
        <ele>1078.4</ele>
        <time>2020-07-21T13:00:06Z</time>
      </trkpt>
      <trkpt lat="42.7060380" lon="2.2327990">
        <ele>1077.6</ele>
        <time>2020-07-21T13:00:07Z</time>
      </trkpt>
      <trkpt lat="42.7061360" lon="2.2326610">
        <ele>1076.4</ele>
        <time>2020-07-21T13:00:09Z</time>
      </trkpt>
      <trkpt lat="42.7061750" lon="2.2325840">
        <ele>1075.6</ele>
        <time>2020-07-21T13:00:10Z</time>
      </trkpt>
      <trkpt lat="42.7062200" lon="2.2324980">
        <ele>1075.0</ele>
        <time>2020-07-21T13:00:11Z</time>
      </trkpt>
      <trkpt lat="42.7062540" lon="2.2324010">
        <ele>1074.4</ele>
        <time>2020-07-21T13:00:12Z</time>
      </trkpt>
      <trkpt lat="42.7062800" lon="2.2323000">
        <ele>1073.6</ele>
        <time>2020-07-21T13:00:13Z</time>
      </trkpt>
      <trkpt lat="42.7063270" lon="2.2321020">
        <ele>1072.2</ele>
        <time>2020-07-21T13:00:15Z</time>
      </trkpt>
      <trkpt lat="42.7063960" lon="2.2319270">
        <ele>1070.8</ele>
        <time>2020-07-21T13:00:17Z</time>
      </trkpt>
      <trkpt lat="42.7064440" lon="2.2318530">
        <ele>1070.0</ele>
        <time>2020-07-21T13:00:18Z</time>
      </trkpt>
      <trkpt lat="42.7065150" lon="2.2318010">
        <ele>1069.2</ele>
        <time>2020-07-21T13:00:19Z</time>
      </trkpt>
      <trkpt lat="42.7065890" lon="2.2317590">
        <ele>1068.2</ele>
        <time>2020-07-21T13:00:20Z</time>
      </trkpt>
      <trkpt lat="42.7066630" lon="2.2317220">
        <ele>1067.6</ele>
        <time>2020-07-21T13:00:21Z</time>
      </trkpt>
      <trkpt lat="42.7067400" lon="2.2316920">
        <ele>1067.0</ele>
        <time>2020-07-21T13:00:22Z</time>
      </trkpt>
      <trkpt lat="42.7068270" lon="2.2316700">
        <ele>1066.6</ele>
        <time>2020-07-21T13:00:23Z</time>
      </trkpt>
      <trkpt lat="42.7069110" lon="2.2316490">
        <ele>1065.8</ele>
        <time>2020-07-21T13:00:24Z</time>
      </trkpt>
      <trkpt lat="42.7069940" lon="2.2316240">
        <ele>1064.6</ele>
        <time>2020-07-21T13:00:25Z</time>
      </trkpt>
      <trkpt lat="42.7071580" lon="2.2315700">
        <ele>1063.2</ele>
        <time>2020-07-21T13:00:27Z</time>
      </trkpt>
      <trkpt lat="42.7073170" lon="2.2314970">
        <ele>1061.4</ele>
        <time>2020-07-21T13:00:29Z</time>
      </trkpt>
      <trkpt lat="42.7073870" lon="2.2314390">
        <ele>1060.4</ele>
        <time>2020-07-21T13:00:30Z</time>
      </trkpt>
      <trkpt lat="42.7074480" lon="2.2313490">
        <ele>1059.4</ele>
        <time>2020-07-21T13:00:31Z</time>
      </trkpt>
      <trkpt lat="42.7075510" lon="2.2311580">
        <ele>1057.8</ele>
        <time>2020-07-21T13:00:33Z</time>
      </trkpt>
      <trkpt lat="42.7076580" lon="2.2309830">
        <ele>1056.8</ele>
        <time>2020-07-21T13:00:35Z</time>
      </trkpt>
      <trkpt lat="42.7077820" lon="2.2308420">
        <ele>1055.4</ele>
        <time>2020-07-21T13:00:37Z</time>
      </trkpt>
      <trkpt lat="42.7078520" lon="2.2307710">
        <ele>1054.8</ele>
        <time>2020-07-21T13:00:38Z</time>
      </trkpt>
      <trkpt lat="42.7079710" lon="2.2306020">
        <ele>1053.8</ele>
        <time>2020-07-21T13:00:40Z</time>
      </trkpt>
      <trkpt lat="42.7080680" lon="2.2304120">
        <ele>1052.2</ele>
        <time>2020-07-21T13:00:42Z</time>
      </trkpt>
      <trkpt lat="42.7081610" lon="2.2302140">
        <ele>1051.2</ele>
        <time>2020-07-21T13:00:44Z</time>
      </trkpt>
      <trkpt lat="42.7082420" lon="2.2299990">
        <ele>1049.8</ele>
        <time>2020-07-21T13:00:46Z</time>
      </trkpt>
      <trkpt lat="42.7083020" lon="2.2297710">
        <ele>1048.8</ele>
        <time>2020-07-21T13:00:48Z</time>
      </trkpt>
      <trkpt lat="42.7083130" lon="2.2295190">
        <ele>1047.6</ele>
        <time>2020-07-21T13:00:50Z</time>
      </trkpt>
      <trkpt lat="42.7083000" lon="2.2293860">
        <ele>1047.0</ele>
        <time>2020-07-21T13:00:51Z</time>
      </trkpt>
      <trkpt lat="42.7082800" lon="2.2292480">
        <ele>1046.0</ele>
        <time>2020-07-21T13:00:52Z</time>
      </trkpt>
      <trkpt lat="42.7082590" lon="2.2291110">
        <ele>1045.0</ele>
        <time>2020-07-21T13:00:53Z</time>
      </trkpt>
      <trkpt lat="42.7082170" lon="2.2288590">
        <ele>1043.6</ele>
        <time>2020-07-21T13:00:55Z</time>
      </trkpt>
      <trkpt lat="42.7081750" lon="2.2286310">
        <ele>1042.4</ele>
        <time>2020-07-21T13:00:57Z</time>
      </trkpt>
      <trkpt lat="42.7081600" lon="2.2285240">
        <ele>1042.0</ele>
        <time>2020-07-21T13:00:58Z</time>
      </trkpt>
      <trkpt lat="42.7081560" lon="2.2283240">
        <ele>1041.2</ele>
        <time>2020-07-21T13:01:00Z</time>
      </trkpt>
      <trkpt lat="42.7082030" lon="2.2281430">
        <ele>1040.4</ele>
        <time>2020-07-21T13:01:02Z</time>
      </trkpt>
      <trkpt lat="42.7082480" lon="2.2280710">
        <ele>1040.0</ele>
        <time>2020-07-21T13:01:03Z</time>
      </trkpt>
      <trkpt lat="42.7082940" lon="2.2280040">
        <ele>1039.6</ele>
        <time>2020-07-21T13:01:04Z</time>
      </trkpt>
      <trkpt lat="42.7083750" lon="2.2278650">
        <ele>1038.8</ele>
        <time>2020-07-21T13:01:06Z</time>
      </trkpt>
      <trkpt lat="42.7084420" lon="2.2277160">
        <ele>1037.8</ele>
        <time>2020-07-21T13:01:08Z</time>
      </trkpt>
      <trkpt lat="42.7085160" lon="2.2275660">
        <ele>1036.6</ele>
        <time>2020-07-21T13:01:10Z</time>
      </trkpt>
      <trkpt lat="42.7085660" lon="2.2274950">
        <ele>1036.2</ele>
        <time>2020-07-21T13:01:11Z</time>
      </trkpt>
      <trkpt lat="42.7086890" lon="2.2273790">
        <ele>1035.2</ele>
        <time>2020-07-21T13:01:13Z</time>
      </trkpt>
      <trkpt lat="42.7088490" lon="2.2273250">
        <ele>1033.8</ele>
        <time>2020-07-21T13:01:15Z</time>
      </trkpt>
      <trkpt lat="42.7089240" lon="2.2273070">
        <ele>1033.0</ele>
        <time>2020-07-21T13:01:16Z</time>
      </trkpt>
      <trkpt lat="42.7090000" lon="2.2272980">
        <ele>1032.2</ele>
        <time>2020-07-21T13:01:17Z</time>
      </trkpt>
      <trkpt lat="42.7091450" lon="2.2272890">
        <ele>1030.4</ele>
        <time>2020-07-21T13:01:19Z</time>
      </trkpt>
      <trkpt lat="42.7092160" lon="2.2272960">
        <ele>1029.8</ele>
        <time>2020-07-21T13:01:20Z</time>
      </trkpt>
      <trkpt lat="42.7092870" lon="2.2273120">
        <ele>1029.6</ele>
        <time>2020-07-21T13:01:21Z</time>
      </trkpt>
      <trkpt lat="42.7093610" lon="2.2273400">
        <ele>1029.2</ele>
        <time>2020-07-21T13:01:22Z</time>
      </trkpt>
      <trkpt lat="42.7095630" lon="2.2275300">
        <ele>1027.6</ele>
        <time>2020-07-21T13:01:25Z</time>
      </trkpt>
      <trkpt lat="42.7096280" lon="2.2275500">
        <ele>1027.0</ele>
        <time>2020-07-21T13:01:26Z</time>
      </trkpt>
      <trkpt lat="42.7096900" lon="2.2275390">
        <ele>1026.2</ele>
        <time>2020-07-21T13:01:27Z</time>
      </trkpt>
      <trkpt lat="42.7097650" lon="2.2275070">
        <ele>1025.4</ele>
        <time>2020-07-21T13:01:28Z</time>
      </trkpt>
      <trkpt lat="42.7098450" lon="2.2274570">
        <ele>1024.6</ele>
        <time>2020-07-21T13:01:29Z</time>
      </trkpt>
      <trkpt lat="42.7100040" lon="2.2273590">
        <ele>1023.0</ele>
        <time>2020-07-21T13:01:31Z</time>
      </trkpt>
      <trkpt lat="42.7100850" lon="2.2273170">
        <ele>1021.8</ele>
        <time>2020-07-21T13:01:32Z</time>
      </trkpt>
      <trkpt lat="42.7101660" lon="2.2272830">
        <ele>1020.6</ele>
        <time>2020-07-21T13:01:33Z</time>
      </trkpt>
      <trkpt lat="42.7102480" lon="2.2272620">
        <ele>1019.6</ele>
        <time>2020-07-21T13:01:34Z</time>
      </trkpt>
      <trkpt lat="42.7104160" lon="2.2272330">
        <ele>1018.2</ele>
        <time>2020-07-21T13:01:36Z</time>
      </trkpt>
      <trkpt lat="42.7105000" lon="2.2272070">
        <ele>1017.8</ele>
        <time>2020-07-21T13:01:37Z</time>
      </trkpt>
      <trkpt lat="42.7105780" lon="2.2271740">
        <ele>1016.8</ele>
        <time>2020-07-21T13:01:38Z</time>
      </trkpt>
      <trkpt lat="42.7106670" lon="2.2271280">
        <ele>1016.0</ele>
        <time>2020-07-21T13:01:39Z</time>
      </trkpt>
      <trkpt lat="42.7107550" lon="2.2270700">
        <ele>1015.4</ele>
        <time>2020-07-21T13:01:40Z</time>
      </trkpt>
      <trkpt lat="42.7108410" lon="2.2270080">
        <ele>1014.8</ele>
        <time>2020-07-21T13:01:41Z</time>
      </trkpt>
      <trkpt lat="42.7109150" lon="2.2269400">
        <ele>1014.2</ele>
        <time>2020-07-21T13:01:42Z</time>
      </trkpt>
      <trkpt lat="42.7110370" lon="2.2268070">
        <ele>1013.2</ele>
        <time>2020-07-21T13:01:44Z</time>
      </trkpt>
      <trkpt lat="42.7111020" lon="2.2267600">
        <ele>1012.8</ele>
        <time>2020-07-21T13:01:45Z</time>
      </trkpt>
      <trkpt lat="42.7111630" lon="2.2267270">
        <ele>1012.4</ele>
        <time>2020-07-21T13:01:46Z</time>
      </trkpt>
      <trkpt lat="42.7112270" lon="2.2267050">
        <ele>1011.8</ele>
        <time>2020-07-21T13:01:47Z</time>
      </trkpt>
      <trkpt lat="42.7112970" lon="2.2266990">
        <ele>1011.4</ele>
        <time>2020-07-21T13:01:48Z</time>
      </trkpt>
      <trkpt lat="42.7113730" lon="2.2267070">
        <ele>1010.8</ele>
        <time>2020-07-21T13:01:49Z</time>
      </trkpt>
      <trkpt lat="42.7115440" lon="2.2267380">
        <ele>1009.0</ele>
        <time>2020-07-21T13:01:51Z</time>
      </trkpt>
      <trkpt lat="42.7116480" lon="2.2267640">
        <ele>1007.8</ele>
        <time>2020-07-21T13:01:52Z</time>
      </trkpt>
      <trkpt lat="42.7117540" lon="2.2267880">
        <ele>1007.0</ele>
        <time>2020-07-21T13:01:53Z</time>
      </trkpt>
      <trkpt lat="42.7118580" lon="2.2268090">
        <ele>1006.2</ele>
        <time>2020-07-21T13:01:54Z</time>
      </trkpt>
      <trkpt lat="42.7120480" lon="2.2267990">
        <ele>1004.4</ele>
        <time>2020-07-21T13:01:56Z</time>
      </trkpt>
      <trkpt lat="42.7121430" lon="2.2267810">
        <ele>1003.6</ele>
        <time>2020-07-21T13:01:57Z</time>
      </trkpt>
      <trkpt lat="42.7122410" lon="2.2267640">
        <ele>1002.8</ele>
        <time>2020-07-21T13:01:58Z</time>
      </trkpt>
      <trkpt lat="42.7124410" lon="2.2267510">
        <ele>1001.0</ele>
        <time>2020-07-21T13:02:00Z</time>
      </trkpt>
      <trkpt lat="42.7125420" lon="2.2267530">
        <ele>1000.0</ele>
        <time>2020-07-21T13:02:01Z</time>
      </trkpt>
      <trkpt lat="42.7126420" lon="2.2267640">
        <ele>999.0</ele>
        <time>2020-07-21T13:02:02Z</time>
      </trkpt>
      <trkpt lat="42.7127400" lon="2.2267790">
        <ele>998.4</ele>
        <time>2020-07-21T13:02:03Z</time>
      </trkpt>
      <trkpt lat="42.7129440" lon="2.2268270">
        <ele>997.4</ele>
        <time>2020-07-21T13:02:05Z</time>
      </trkpt>
      <trkpt lat="42.7131290" lon="2.2268520">
        <ele>996.2</ele>
        <time>2020-07-21T13:02:07Z</time>
      </trkpt>
      <trkpt lat="42.7133090" lon="2.2268790">
        <ele>995.0</ele>
        <time>2020-07-21T13:02:09Z</time>
      </trkpt>
      <trkpt lat="42.7134910" lon="2.2269240">
        <ele>993.4</ele>
        <time>2020-07-21T13:02:11Z</time>
      </trkpt>
      <trkpt lat="42.7136680" lon="2.2269750">
        <ele>991.6</ele>
        <time>2020-07-21T13:02:13Z</time>
      </trkpt>
      <trkpt lat="42.7138420" lon="2.2270190">
        <ele>990.2</ele>
        <time>2020-07-21T13:02:15Z</time>
      </trkpt>
      <trkpt lat="42.7139260" lon="2.2270550">
        <ele>989.6</ele>
        <time>2020-07-21T13:02:16Z</time>
      </trkpt>
      <trkpt lat="42.7140050" lon="2.2271170">
        <ele>988.8</ele>
        <time>2020-07-21T13:02:17Z</time>
      </trkpt>
      <trkpt lat="42.7141510" lon="2.2272810">
        <ele>987.2</ele>
        <time>2020-07-21T13:02:19Z</time>
      </trkpt>
      <trkpt lat="42.7142760" lon="2.2274660">
        <ele>986.0</ele>
        <time>2020-07-21T13:02:21Z</time>
      </trkpt>
      <trkpt lat="42.7144060" lon="2.2276660">
        <ele>984.8</ele>
        <time>2020-07-21T13:02:23Z</time>
      </trkpt>
      <trkpt lat="42.7144780" lon="2.2277490">
        <ele>984.0</ele>
        <time>2020-07-21T13:02:24Z</time>
      </trkpt>
      <trkpt lat="42.7145560" lon="2.2278300">
        <ele>983.0</ele>
        <time>2020-07-21T13:02:25Z</time>
      </trkpt>
      <trkpt lat="42.7146350" lon="2.2279110">
        <ele>982.6</ele>
        <time>2020-07-21T13:02:26Z</time>
      </trkpt>
      <trkpt lat="42.7148060" lon="2.2280410">
        <ele>981.8</ele>
        <time>2020-07-21T13:02:28Z</time>
      </trkpt>
      <trkpt lat="42.7148970" lon="2.2280870">
        <ele>981.4</ele>
        <time>2020-07-21T13:02:29Z</time>
      </trkpt>
      <trkpt lat="42.7150810" lon="2.2281400">
        <ele>981.0</ele>
        <time>2020-07-21T13:02:31Z</time>
      </trkpt>
      <trkpt lat="42.7151700" lon="2.2281500">
        <ele>980.6</ele>
        <time>2020-07-21T13:02:32Z</time>
      </trkpt>
      <trkpt lat="42.7152580" lon="2.2281480">
        <ele>979.8</ele>
        <time>2020-07-21T13:02:33Z</time>
      </trkpt>
      <trkpt lat="42.7153460" lon="2.2281370">
        <ele>979.2</ele>
        <time>2020-07-21T13:02:34Z</time>
      </trkpt>
      <trkpt lat="42.7155050" lon="2.2280880">
        <ele>978.2</ele>
        <time>2020-07-21T13:02:36Z</time>
      </trkpt>
      <trkpt lat="42.7155790" lon="2.2280650">
        <ele>978.2</ele>
        <time>2020-07-21T13:02:37Z</time>
      </trkpt>
      <trkpt lat="42.7157660" lon="2.2280120">
        <ele>977.4</ele>
        <time>2020-07-21T13:02:40Z</time>
      </trkpt>
      <trkpt lat="42.7158220" lon="2.2280100">
        <ele>977.0</ele>
        <time>2020-07-21T13:02:41Z</time>
      </trkpt>
      <trkpt lat="42.7158810" lon="2.2280150">
        <ele>976.4</ele>
        <time>2020-07-21T13:02:42Z</time>
      </trkpt>
      <trkpt lat="42.7159910" lon="2.2280530">
        <ele>975.8</ele>
        <time>2020-07-21T13:02:44Z</time>
      </trkpt>
      <trkpt lat="42.7160440" lon="2.2280900">
        <ele>975.6</ele>
        <time>2020-07-21T13:02:45Z</time>
      </trkpt>
      <trkpt lat="42.7160970" lon="2.2281370">
        <ele>975.2</ele>
        <time>2020-07-21T13:02:46Z</time>
      </trkpt>
      <trkpt lat="42.7161500" lon="2.2281870">
        <ele>974.6</ele>
        <time>2020-07-21T13:02:47Z</time>
      </trkpt>
      <trkpt lat="42.7162560" lon="2.2282870">
        <ele>973.6</ele>
        <time>2020-07-21T13:02:49Z</time>
      </trkpt>
      <trkpt lat="42.7163180" lon="2.2283310">
        <ele>973.4</ele>
        <time>2020-07-21T13:02:50Z</time>
      </trkpt>
      <trkpt lat="42.7164570" lon="2.2284020">
        <ele>972.6</ele>
        <time>2020-07-21T13:02:52Z</time>
      </trkpt>
      <trkpt lat="42.7166920" lon="2.2285090">
        <ele>971.8</ele>
        <time>2020-07-21T13:02:55Z</time>
      </trkpt>
      <trkpt lat="42.7168570" lon="2.2285930">
        <ele>971.4</ele>
        <time>2020-07-21T13:02:57Z</time>
      </trkpt>
      <trkpt lat="42.7171260" lon="2.2287290">
        <ele>970.0</ele>
        <time>2020-07-21T13:03:00Z</time>
      </trkpt>
      <trkpt lat="42.7172150" lon="2.2287780">
        <ele>968.6</ele>
        <time>2020-07-21T13:03:01Z</time>
      </trkpt>
      <trkpt lat="42.7172970" lon="2.2288370">
        <ele>967.4</ele>
        <time>2020-07-21T13:03:02Z</time>
      </trkpt>
      <trkpt lat="42.7174500" lon="2.2289750">
        <ele>965.8</ele>
        <time>2020-07-21T13:03:04Z</time>
      </trkpt>
      <trkpt lat="42.7175810" lon="2.2291450">
        <ele>965.0</ele>
        <time>2020-07-21T13:03:06Z</time>
      </trkpt>
      <trkpt lat="42.7176370" lon="2.2292400">
        <ele>964.4</ele>
        <time>2020-07-21T13:03:07Z</time>
      </trkpt>
      <trkpt lat="42.7177260" lon="2.2294340">
        <ele>963.4</ele>
        <time>2020-07-21T13:03:09Z</time>
      </trkpt>
      <trkpt lat="42.7177640" lon="2.2295280">
        <ele>963.2</ele>
        <time>2020-07-21T13:03:10Z</time>
      </trkpt>
      <trkpt lat="42.7179110" lon="2.2297960">
        <ele>961.6</ele>
        <time>2020-07-21T13:03:13Z</time>
      </trkpt>
      <trkpt lat="42.7180450" lon="2.2299510">
        <ele>960.8</ele>
        <time>2020-07-21T13:03:15Z</time>
      </trkpt>
      <trkpt lat="42.7181190" lon="2.2300190">
        <ele>960.4</ele>
        <time>2020-07-21T13:03:16Z</time>
      </trkpt>
      <trkpt lat="42.7182700" lon="2.2301640">
        <ele>959.0</ele>
        <time>2020-07-21T13:03:18Z</time>
      </trkpt>
      <trkpt lat="42.7184220" lon="2.2302980">
        <ele>957.8</ele>
        <time>2020-07-21T13:03:20Z</time>
      </trkpt>
      <trkpt lat="42.7184960" lon="2.2303570">
        <ele>957.4</ele>
        <time>2020-07-21T13:03:21Z</time>
      </trkpt>
      <trkpt lat="42.7186410" lon="2.2304560">
        <ele>956.4</ele>
        <time>2020-07-21T13:03:23Z</time>
      </trkpt>
      <trkpt lat="42.7187620" lon="2.2305350">
        <ele>955.2</ele>
        <time>2020-07-21T13:03:25Z</time>
      </trkpt>
      <trkpt lat="42.7188190" lon="2.2305680">
        <ele>954.8</ele>
        <time>2020-07-21T13:03:26Z</time>
      </trkpt>
      <trkpt lat="42.7189530" lon="2.2306120">
        <ele>953.6</ele>
        <time>2020-07-21T13:03:28Z</time>
      </trkpt>
      <trkpt lat="42.7191190" lon="2.2306650">
        <ele>952.0</ele>
        <time>2020-07-21T13:03:30Z</time>
      </trkpt>
      <trkpt lat="42.7191970" lon="2.2306790">
        <ele>951.2</ele>
        <time>2020-07-21T13:03:31Z</time>
      </trkpt>
      <trkpt lat="42.7192700" lon="2.2306880">
        <ele>950.6</ele>
        <time>2020-07-21T13:03:32Z</time>
      </trkpt>
      <trkpt lat="42.7193350" lon="2.2306890">
        <ele>950.0</ele>
        <time>2020-07-21T13:03:33Z</time>
      </trkpt>
      <trkpt lat="42.7194830" lon="2.2306600">
        <ele>949.4</ele>
        <time>2020-07-21T13:03:35Z</time>
      </trkpt>
      <trkpt lat="42.7195660" lon="2.2306310">
        <ele>948.8</ele>
        <time>2020-07-21T13:03:36Z</time>
      </trkpt>
      <trkpt lat="42.7196430" lon="2.2305930">
        <ele>948.0</ele>
        <time>2020-07-21T13:03:37Z</time>
      </trkpt>
      <trkpt lat="42.7197280" lon="2.2305510">
        <ele>946.8</ele>
        <time>2020-07-21T13:03:38Z</time>
      </trkpt>
      <trkpt lat="42.7198850" lon="2.2304690">
        <ele>944.4</ele>
        <time>2020-07-21T13:03:40Z</time>
      </trkpt>
      <trkpt lat="42.7199670" lon="2.2304260">
        <ele>944.4</ele>
        <time>2020-07-21T13:03:41Z</time>
      </trkpt>
      <trkpt lat="42.7201360" lon="2.2303410">
        <ele>942.6</ele>
        <time>2020-07-21T13:03:43Z</time>
      </trkpt>
      <trkpt lat="42.7203050" lon="2.2302830">
        <ele>940.6</ele>
        <time>2020-07-21T13:03:45Z</time>
      </trkpt>
      <trkpt lat="42.7203970" lon="2.2302540">
        <ele>939.0</ele>
        <time>2020-07-21T13:03:46Z</time>
      </trkpt>
      <trkpt lat="42.7204940" lon="2.2302270">
        <ele>937.0</ele>
        <time>2020-07-21T13:03:47Z</time>
      </trkpt>
      <trkpt lat="42.7206050" lon="2.2302010">
        <ele>937.0</ele>
        <time>2020-07-21T13:03:48Z</time>
      </trkpt>
      <trkpt lat="42.7208010" lon="2.2301460">
        <ele>935.4</ele>
        <time>2020-07-21T13:03:50Z</time>
      </trkpt>
      <trkpt lat="42.7210730" lon="2.2301020">
        <ele>934.2</ele>
        <time>2020-07-21T13:03:53Z</time>
      </trkpt>
      <trkpt lat="42.7211730" lon="2.2301020">
        <ele>933.4</ele>
        <time>2020-07-21T13:03:54Z</time>
      </trkpt>
      <trkpt lat="42.7212720" lon="2.2301060">
        <ele>932.8</ele>
        <time>2020-07-21T13:03:55Z</time>
      </trkpt>
      <trkpt lat="42.7215390" lon="2.2301150">
        <ele>931.2</ele>
        <time>2020-07-21T13:03:58Z</time>
      </trkpt>
      <trkpt lat="42.7216200" lon="2.2301170">
        <ele>930.2</ele>
        <time>2020-07-21T13:03:59Z</time>
      </trkpt>
      <trkpt lat="42.7217830" lon="2.2301160">
        <ele>928.4</ele>
        <time>2020-07-21T13:04:01Z</time>
      </trkpt>
      <trkpt lat="42.7218610" lon="2.2301130">
        <ele>927.8</ele>
        <time>2020-07-21T13:04:02Z</time>
      </trkpt>
      <trkpt lat="42.7219980" lon="2.2300900">
        <ele>927.2</ele>
        <time>2020-07-21T13:04:04Z</time>
      </trkpt>
      <trkpt lat="42.7221210" lon="2.2300460">
        <ele>926.6</ele>
        <time>2020-07-21T13:04:06Z</time>
      </trkpt>
      <trkpt lat="42.7221750" lon="2.2300140">
        <ele>926.2</ele>
        <time>2020-07-21T13:04:07Z</time>
      </trkpt>
      <trkpt lat="42.7222300" lon="2.2299770">
        <ele>926.0</ele>
        <time>2020-07-21T13:04:08Z</time>
      </trkpt>
      <trkpt lat="42.7223630" lon="2.2298760">
        <ele>925.2</ele>
        <time>2020-07-21T13:04:11Z</time>
      </trkpt>
      <trkpt lat="42.7224050" lon="2.2298450">
        <ele>925.2</ele>
        <time>2020-07-21T13:04:12Z</time>
      </trkpt>
      <trkpt lat="42.7224780" lon="2.2297940">
        <ele>925.0</ele>
        <time>2020-07-21T13:04:14Z</time>
      </trkpt>
      <trkpt lat="42.7225480" lon="2.2297520">
        <ele>924.8</ele>
        <time>2020-07-21T13:04:16Z</time>
      </trkpt>
      <trkpt lat="42.7225810" lon="2.2297410">
        <ele>924.8</ele>
        <time>2020-07-21T13:04:19Z</time>
      </trkpt>
      <trkpt lat="42.7225760" lon="2.2297970">
        <ele>925.2</ele>
        <time>2020-07-21T13:06:01Z</time>
      </trkpt>
      <trkpt lat="42.7225920" lon="2.2297990">
        <ele>925.2</ele>
        <time>2020-07-21T13:06:02Z</time>
      </trkpt>
      <trkpt lat="42.7226410" lon="2.2298100">
        <ele>925.2</ele>
        <time>2020-07-21T13:06:04Z</time>
      </trkpt>
      <trkpt lat="42.7227620" lon="2.2298380">
        <ele>924.6</ele>
        <time>2020-07-21T13:06:07Z</time>
      </trkpt>
      <trkpt lat="42.7228520" lon="2.2298640">
        <ele>924.2</ele>
        <time>2020-07-21T13:06:09Z</time>
      </trkpt>
      <trkpt lat="42.7229030" lon="2.2298710">
        <ele>924.2</ele>
        <time>2020-07-21T13:06:10Z</time>
      </trkpt>
      <trkpt lat="42.7229510" lon="2.2298770">
        <ele>924.0</ele>
        <time>2020-07-21T13:06:11Z</time>
      </trkpt>
      <trkpt lat="42.7231150" lon="2.2298560">
        <ele>923.2</ele>
        <time>2020-07-21T13:06:14Z</time>
      </trkpt>
      <trkpt lat="42.7231730" lon="2.2298370">
        <ele>923.0</ele>
        <time>2020-07-21T13:06:15Z</time>
      </trkpt>
      <trkpt lat="42.7232840" lon="2.2297920">
        <ele>922.6</ele>
        <time>2020-07-21T13:06:17Z</time>
      </trkpt>
      <trkpt lat="42.7234510" lon="2.2296670">
        <ele>922.2</ele>
        <time>2020-07-21T13:06:20Z</time>
      </trkpt>
      <trkpt lat="42.7235120" lon="2.2296230">
        <ele>921.8</ele>
        <time>2020-07-21T13:06:21Z</time>
      </trkpt>
      <trkpt lat="42.7238090" lon="2.2293600">
        <ele>920.6</ele>
        <time>2020-07-21T13:06:26Z</time>
      </trkpt>
      <trkpt lat="42.7240590" lon="2.2291080">
        <ele>919.4</ele>
        <time>2020-07-21T13:06:30Z</time>
      </trkpt>
      <trkpt lat="42.7241660" lon="2.2289430">
        <ele>918.4</ele>
        <time>2020-07-21T13:06:32Z</time>
      </trkpt>
      <trkpt lat="42.7242130" lon="2.2288510">
        <ele>917.6</ele>
        <time>2020-07-21T13:06:33Z</time>
      </trkpt>
      <trkpt lat="42.7242550" lon="2.2287610">
        <ele>916.4</ele>
        <time>2020-07-21T13:06:34Z</time>
      </trkpt>
      <trkpt lat="42.7243470" lon="2.2285750">
        <ele>914.8</ele>
        <time>2020-07-21T13:06:36Z</time>
      </trkpt>
      <trkpt lat="42.7244470" lon="2.2283660">
        <ele>913.4</ele>
        <time>2020-07-21T13:06:38Z</time>
      </trkpt>
      <trkpt lat="42.7245540" lon="2.2281440">
        <ele>912.2</ele>
        <time>2020-07-21T13:06:40Z</time>
      </trkpt>
      <trkpt lat="42.7246890" lon="2.2277940">
        <ele>911.2</ele>
        <time>2020-07-21T13:06:43Z</time>
      </trkpt>
      <trkpt lat="42.7247660" lon="2.2275440">
        <ele>909.8</ele>
        <time>2020-07-21T13:06:45Z</time>
      </trkpt>
      <trkpt lat="42.7248780" lon="2.2271820">
        <ele>908.6</ele>
        <time>2020-07-21T13:06:48Z</time>
      </trkpt>
      <trkpt lat="42.7249560" lon="2.2269810">
        <ele>908.4</ele>
        <time>2020-07-21T13:06:50Z</time>
      </trkpt>
      <trkpt lat="42.7249990" lon="2.2268990">
        <ele>908.4</ele>
        <time>2020-07-21T13:06:51Z</time>
      </trkpt>
      <trkpt lat="42.7251930" lon="2.2265940">
        <ele>908.8</ele>
        <time>2020-07-21T13:06:56Z</time>
      </trkpt>
      <trkpt lat="42.7254280" lon="2.2262720">
        <ele>907.6</ele>
        <time>2020-07-21T13:07:01Z</time>
      </trkpt>
      <trkpt lat="42.7254750" lon="2.2262080">
        <ele>907.4</ele>
        <time>2020-07-21T13:07:02Z</time>
      </trkpt>
      <trkpt lat="42.7256880" lon="2.2259520">
        <ele>906.6</ele>
        <time>2020-07-21T13:07:06Z</time>
      </trkpt>
      <trkpt lat="42.7257510" lon="2.2258930">
        <ele>906.4</ele>
        <time>2020-07-21T13:07:07Z</time>
      </trkpt>
      <trkpt lat="42.7258200" lon="2.2258440">
        <ele>906.2</ele>
        <time>2020-07-21T13:07:08Z</time>
      </trkpt>
      <trkpt lat="42.7260200" lon="2.2257150">
        <ele>904.8</ele>
        <time>2020-07-21T13:07:11Z</time>
      </trkpt>
      <trkpt lat="42.7261700" lon="2.2256570">
        <ele>903.6</ele>
        <time>2020-07-21T13:07:13Z</time>
      </trkpt>
      <trkpt lat="42.7265880" lon="2.2254580">
        <ele>902.6</ele>
        <time>2020-07-21T13:07:19Z</time>
      </trkpt>
      <trkpt lat="42.7269990" lon="2.2251920">
        <ele>902.0</ele>
        <time>2020-07-21T13:07:25Z</time>
      </trkpt>
      <trkpt lat="42.7271270" lon="2.2251070">
        <ele>902.0</ele>
        <time>2020-07-21T13:07:27Z</time>
      </trkpt>
      <trkpt lat="42.7274860" lon="2.2248080">
        <ele>901.6</ele>
        <time>2020-07-21T13:07:33Z</time>
      </trkpt>
      <trkpt lat="42.7275400" lon="2.2247420">
        <ele>901.4</ele>
        <time>2020-07-21T13:07:34Z</time>
      </trkpt>
      <trkpt lat="42.7277350" lon="2.2244210">
        <ele>900.6</ele>
        <time>2020-07-21T13:07:39Z</time>
      </trkpt>
      <trkpt lat="42.7277600" lon="2.2243550">
        <ele>900.6</ele>
        <time>2020-07-21T13:07:40Z</time>
      </trkpt>
      <trkpt lat="42.7278550" lon="2.2243150">
        <ele>901.2</ele>
        <time>2020-07-21T13:07:42Z</time>
      </trkpt>
      <trkpt lat="42.7279070" lon="2.2243150">
        <ele>901.6</ele>
        <time>2020-07-21T13:07:43Z</time>
      </trkpt>
      <trkpt lat="42.7281240" lon="2.2243080">
        <ele>902.0</ele>
        <time>2020-07-21T13:07:47Z</time>
      </trkpt>
      <trkpt lat="42.7281780" lon="2.2242930">
        <ele>902.0</ele>
        <time>2020-07-21T13:07:48Z</time>
      </trkpt>
      <trkpt lat="42.7282320" lon="2.2242700">
        <ele>902.0</ele>
        <time>2020-07-21T13:07:49Z</time>
      </trkpt>
      <trkpt lat="42.7282840" lon="2.2242400">
        <ele>902.0</ele>
        <time>2020-07-21T13:07:50Z</time>
      </trkpt>
      <trkpt lat="42.7284210" lon="2.2241350">
        <ele>902.8</ele>
        <time>2020-07-21T13:07:53Z</time>
      </trkpt>
      <trkpt lat="42.7285880" lon="2.2239640">
        <ele>903.8</ele>
        <time>2020-07-21T13:07:57Z</time>
      </trkpt>
      <trkpt lat="42.7286950" lon="2.2238820">
        <ele>904.0</ele>
        <time>2020-07-21T13:07:59Z</time>
      </trkpt>
      <trkpt lat="42.7287980" lon="2.2238120">
        <ele>904.0</ele>
        <time>2020-07-21T13:08:01Z</time>
      </trkpt>
      <trkpt lat="42.7289390" lon="2.2237170">
        <ele>904.4</ele>
        <time>2020-07-21T13:08:04Z</time>
      </trkpt>
      <trkpt lat="42.7289840" lon="2.2236830">
        <ele>904.4</ele>
        <time>2020-07-21T13:08:05Z</time>
      </trkpt>
      <trkpt lat="42.7290270" lon="2.2236520">
        <ele>904.6</ele>
        <time>2020-07-21T13:08:06Z</time>
      </trkpt>
      <trkpt lat="42.7290730" lon="2.2236220">
        <ele>904.6</ele>
        <time>2020-07-21T13:08:07Z</time>
      </trkpt>
      <trkpt lat="42.7291930" lon="2.2235400">
        <ele>904.4</ele>
        <time>2020-07-21T13:08:10Z</time>
      </trkpt>
      <trkpt lat="42.7292670" lon="2.2234550">
        <ele>904.0</ele>
        <time>2020-07-21T13:08:12Z</time>
      </trkpt>
      <trkpt lat="42.7293020" lon="2.2234030">
        <ele>903.6</ele>
        <time>2020-07-21T13:08:13Z</time>
      </trkpt>
      <trkpt lat="42.7293290" lon="2.2233450">
        <ele>903.6</ele>
        <time>2020-07-21T13:08:14Z</time>
      </trkpt>
      <trkpt lat="42.7293620" lon="2.2232060">
        <ele>903.2</ele>
        <time>2020-07-21T13:08:16Z</time>
      </trkpt>
      <trkpt lat="42.7293730" lon="2.2231240">
        <ele>903.4</ele>
        <time>2020-07-21T13:08:17Z</time>
      </trkpt>
      <trkpt lat="42.7294160" lon="2.2228670">
        <ele>903.0</ele>
        <time>2020-07-21T13:08:20Z</time>
      </trkpt>
      <trkpt lat="42.7294160" lon="2.2227830">
        <ele>902.6</ele>
        <time>2020-07-21T13:08:21Z</time>
      </trkpt>
      <trkpt lat="42.7293980" lon="2.2226980">
        <ele>902.2</ele>
        <time>2020-07-21T13:08:22Z</time>
      </trkpt>
      <trkpt lat="42.7293740" lon="2.2225440">
        <ele>901.6</ele>
        <time>2020-07-21T13:08:24Z</time>
      </trkpt>
      <trkpt lat="42.7293600" lon="2.2223350">
        <ele>900.2</ele>
        <time>2020-07-21T13:08:27Z</time>
      </trkpt>
      <trkpt lat="42.7293720" lon="2.2222720">
        <ele>899.8</ele>
        <time>2020-07-21T13:08:28Z</time>
      </trkpt>
      <trkpt lat="42.7293930" lon="2.2222160">
        <ele>899.4</ele>
        <time>2020-07-21T13:08:29Z</time>
      </trkpt>
      <trkpt lat="42.7294210" lon="2.2221590">
        <ele>898.8</ele>
        <time>2020-07-21T13:08:30Z</time>
      </trkpt>
      <trkpt lat="42.7294690" lon="2.2220500">
        <ele>898.0</ele>
        <time>2020-07-21T13:08:32Z</time>
      </trkpt>
      <trkpt lat="42.7294950" lon="2.2220010">
        <ele>897.8</ele>
        <time>2020-07-21T13:08:33Z</time>
      </trkpt>
      <trkpt lat="42.7295750" lon="2.2218630">
        <ele>897.2</ele>
        <time>2020-07-21T13:08:36Z</time>
      </trkpt>
      <trkpt lat="42.7296420" lon="2.2217530">
        <ele>896.2</ele>
        <time>2020-07-21T13:08:38Z</time>
      </trkpt>
      <trkpt lat="42.7297300" lon="2.2215890">
        <ele>894.8</ele>
        <time>2020-07-21T13:08:41Z</time>
      </trkpt>
      <trkpt lat="42.7298200" lon="2.2214800">
        <ele>893.6</ele>
        <time>2020-07-21T13:08:44Z</time>
      </trkpt>
      <trkpt lat="42.7298570" lon="2.2214470">
        <ele>893.0</ele>
        <time>2020-07-21T13:08:45Z</time>
      </trkpt>
      <trkpt lat="42.7299360" lon="2.2213790">
        <ele>892.2</ele>
        <time>2020-07-21T13:08:47Z</time>
      </trkpt>
      <trkpt lat="42.7300950" lon="2.2212570">
        <ele>890.8</ele>
        <time>2020-07-21T13:08:50Z</time>
      </trkpt>
      <trkpt lat="42.7301480" lon="2.2212140">
        <ele>890.4</ele>
        <time>2020-07-21T13:08:51Z</time>
      </trkpt>
      <trkpt lat="42.7302060" lon="2.2211530">
        <ele>889.8</ele>
        <time>2020-07-21T13:08:52Z</time>
      </trkpt>
      <trkpt lat="42.7302410" lon="2.2210760">
        <ele>889.2</ele>
        <time>2020-07-21T13:08:53Z</time>
      </trkpt>
      <trkpt lat="42.7303150" lon="2.2209230">
        <ele>887.8</ele>
        <time>2020-07-21T13:08:55Z</time>
      </trkpt>
      <trkpt lat="42.7303540" lon="2.2208620">
        <ele>887.2</ele>
        <time>2020-07-21T13:08:56Z</time>
      </trkpt>
      <trkpt lat="42.7304000" lon="2.2208280">
        <ele>886.8</ele>
        <time>2020-07-21T13:08:57Z</time>
      </trkpt>
      <trkpt lat="42.7304480" lon="2.2208160">
        <ele>886.4</ele>
        <time>2020-07-21T13:08:58Z</time>
      </trkpt>
      <trkpt lat="42.7305000" lon="2.2208070">
        <ele>886.0</ele>
        <time>2020-07-21T13:08:59Z</time>
      </trkpt>
      <trkpt lat="42.7306130" lon="2.2207530">
        <ele>885.0</ele>
        <time>2020-07-21T13:09:01Z</time>
      </trkpt>
      <trkpt lat="42.7307320" lon="2.2206830">
        <ele>884.0</ele>
        <time>2020-07-21T13:09:03Z</time>
      </trkpt>
      <trkpt lat="42.7308190" lon="2.2205620">
        <ele>883.2</ele>
        <time>2020-07-21T13:09:05Z</time>
      </trkpt>
      <trkpt lat="42.7308920" lon="2.2205450">
        <ele>882.8</ele>
        <time>2020-07-21T13:09:06Z</time>
      </trkpt>
      <trkpt lat="42.7309660" lon="2.2205490">
        <ele>882.0</ele>
        <time>2020-07-21T13:09:07Z</time>
      </trkpt>
      <trkpt lat="42.7310410" lon="2.2205580">
        <ele>881.2</ele>
        <time>2020-07-21T13:09:08Z</time>
      </trkpt>
      <trkpt lat="42.7311920" lon="2.2205430">
        <ele>879.6</ele>
        <time>2020-07-21T13:09:10Z</time>
      </trkpt>
      <trkpt lat="42.7313550" lon="2.2204930">
        <ele>878.2</ele>
        <time>2020-07-21T13:09:12Z</time>
      </trkpt>
      <trkpt lat="42.7315500" lon="2.2204210">
        <ele>876.8</ele>
        <time>2020-07-21T13:09:14Z</time>
      </trkpt>
      <trkpt lat="42.7317660" lon="2.2203520">
        <ele>875.2</ele>
        <time>2020-07-21T13:09:16Z</time>
      </trkpt>
      <trkpt lat="42.7319840" lon="2.2203120">
        <ele>873.6</ele>
        <time>2020-07-21T13:09:18Z</time>
      </trkpt>
      <trkpt lat="42.7322050" lon="2.2203140">
        <ele>872.2</ele>
        <time>2020-07-21T13:09:20Z</time>
      </trkpt>
      <trkpt lat="42.7323060" lon="2.2203190">
        <ele>871.6</ele>
        <time>2020-07-21T13:09:21Z</time>
      </trkpt>
      <trkpt lat="42.7324080" lon="2.2203250">
        <ele>871.0</ele>
        <time>2020-07-21T13:09:22Z</time>
      </trkpt>
      <trkpt lat="42.7326300" lon="2.2203850">
        <ele>869.6</ele>
        <time>2020-07-21T13:09:24Z</time>
      </trkpt>
      <trkpt lat="42.7328410" lon="2.2204380">
        <ele>868.2</ele>
        <time>2020-07-21T13:09:26Z</time>
      </trkpt>
      <trkpt lat="42.7329390" lon="2.2204570">
        <ele>867.6</ele>
        <time>2020-07-21T13:09:27Z</time>
      </trkpt>
      <trkpt lat="42.7330310" lon="2.2204640">
        <ele>867.0</ele>
        <time>2020-07-21T13:09:28Z</time>
      </trkpt>
      <trkpt lat="42.7331230" lon="2.2204570">
        <ele>866.6</ele>
        <time>2020-07-21T13:09:29Z</time>
      </trkpt>
      <trkpt lat="42.7333030" lon="2.2204180">
        <ele>866.0</ele>
        <time>2020-07-21T13:09:31Z</time>
      </trkpt>
      <trkpt lat="42.7335820" lon="2.2203080">
        <ele>864.2</ele>
        <time>2020-07-21T13:09:34Z</time>
      </trkpt>
      <trkpt lat="42.7336780" lon="2.2202820">
        <ele>862.6</ele>
        <time>2020-07-21T13:09:35Z</time>
      </trkpt>
      <trkpt lat="42.7337710" lon="2.2202610">
        <ele>861.4</ele>
        <time>2020-07-21T13:09:36Z</time>
      </trkpt>
      <trkpt lat="42.7339610" lon="2.2202050">
        <ele>860.2</ele>
        <time>2020-07-21T13:09:38Z</time>
      </trkpt>
      <trkpt lat="42.7340470" lon="2.2201600">
        <ele>859.8</ele>
        <time>2020-07-21T13:09:39Z</time>
      </trkpt>
      <trkpt lat="42.7342050" lon="2.2200080">
        <ele>859.4</ele>
        <time>2020-07-21T13:09:41Z</time>
      </trkpt>
      <trkpt lat="42.7342930" lon="2.2199320">
        <ele>859.0</ele>
        <time>2020-07-21T13:09:42Z</time>
      </trkpt>
      <trkpt lat="42.7344660" lon="2.2197700">
        <ele>857.8</ele>
        <time>2020-07-21T13:09:44Z</time>
      </trkpt>
      <trkpt lat="42.7345550" lon="2.2196920">
        <ele>857.4</ele>
        <time>2020-07-21T13:09:45Z</time>
      </trkpt>
      <trkpt lat="42.7347340" lon="2.2195310">
        <ele>856.4</ele>
        <time>2020-07-21T13:09:47Z</time>
      </trkpt>
      <trkpt lat="42.7348220" lon="2.2194450">
        <ele>856.0</ele>
        <time>2020-07-21T13:09:48Z</time>
      </trkpt>
      <trkpt lat="42.7350940" lon="2.2192300">
        <ele>855.0</ele>
        <time>2020-07-21T13:09:51Z</time>
      </trkpt>
      <trkpt lat="42.7351850" lon="2.2191780">
        <ele>854.2</ele>
        <time>2020-07-21T13:09:52Z</time>
      </trkpt>
      <trkpt lat="42.7352800" lon="2.2191460">
        <ele>853.4</ele>
        <time>2020-07-21T13:09:53Z</time>
      </trkpt>
      <trkpt lat="42.7354660" lon="2.2191120">
        <ele>852.0</ele>
        <time>2020-07-21T13:09:55Z</time>
      </trkpt>
      <trkpt lat="42.7356700" lon="2.2191500">
        <ele>851.0</ele>
        <time>2020-07-21T13:09:57Z</time>
      </trkpt>
      <trkpt lat="42.7357790" lon="2.2191970">
        <ele>850.4</ele>
        <time>2020-07-21T13:09:58Z</time>
      </trkpt>
      <trkpt lat="42.7358750" lon="2.2192410">
        <ele>850.0</ele>
        <time>2020-07-21T13:09:59Z</time>
      </trkpt>
      <trkpt lat="42.7359520" lon="2.2192910">
        <ele>849.4</ele>
        <time>2020-07-21T13:10:00Z</time>
      </trkpt>
      <trkpt lat="42.7360900" lon="2.2193820">
        <ele>848.0</ele>
        <time>2020-07-21T13:10:02Z</time>
      </trkpt>
      <trkpt lat="42.7362350" lon="2.2194240">
        <ele>846.6</ele>
        <time>2020-07-21T13:10:04Z</time>
      </trkpt>
      <trkpt lat="42.7363930" lon="2.2193810">
        <ele>845.4</ele>
        <time>2020-07-21T13:10:06Z</time>
      </trkpt>
      <trkpt lat="42.7365340" lon="2.2192610">
        <ele>844.4</ele>
        <time>2020-07-21T13:10:08Z</time>
      </trkpt>
      <trkpt lat="42.7365810" lon="2.2191760">
        <ele>844.0</ele>
        <time>2020-07-21T13:10:09Z</time>
      </trkpt>
      <trkpt lat="42.7366580" lon="2.2189930">
        <ele>843.4</ele>
        <time>2020-07-21T13:10:11Z</time>
      </trkpt>
      <trkpt lat="42.7366660" lon="2.2188810">
        <ele>843.2</ele>
        <time>2020-07-21T13:10:12Z</time>
      </trkpt>
      <trkpt lat="42.7366680" lon="2.2187610">
        <ele>843.0</ele>
        <time>2020-07-21T13:10:13Z</time>
      </trkpt>
      <trkpt lat="42.7366690" lon="2.2185000">
        <ele>841.8</ele>
        <time>2020-07-21T13:10:15Z</time>
      </trkpt>
      <trkpt lat="42.7366620" lon="2.2182400">
        <ele>840.2</ele>
        <time>2020-07-21T13:10:17Z</time>
      </trkpt>
      <trkpt lat="42.7366570" lon="2.2181040">
        <ele>839.0</ele>
        <time>2020-07-21T13:10:18Z</time>
      </trkpt>
      <trkpt lat="42.7366720" lon="2.2178390">
        <ele>837.4</ele>
        <time>2020-07-21T13:10:20Z</time>
      </trkpt>
      <trkpt lat="42.7367120" lon="2.2175960">
        <ele>836.8</ele>
        <time>2020-07-21T13:10:22Z</time>
      </trkpt>
      <trkpt lat="42.7367450" lon="2.2174790">
        <ele>836.2</ele>
        <time>2020-07-21T13:10:23Z</time>
      </trkpt>
      <trkpt lat="42.7368120" lon="2.2172370">
        <ele>835.0</ele>
        <time>2020-07-21T13:10:25Z</time>
      </trkpt>
      <trkpt lat="42.7368420" lon="2.2171120">
        <ele>834.4</ele>
        <time>2020-07-21T13:10:26Z</time>
      </trkpt>
      <trkpt lat="42.7368670" lon="2.2169840">
        <ele>833.8</ele>
        <time>2020-07-21T13:10:27Z</time>
      </trkpt>
      <trkpt lat="42.7369270" lon="2.2167440">
        <ele>832.0</ele>
        <time>2020-07-21T13:10:29Z</time>
      </trkpt>
      <trkpt lat="42.7369920" lon="2.2165160">
        <ele>830.4</ele>
        <time>2020-07-21T13:10:31Z</time>
      </trkpt>
      <trkpt lat="42.7370280" lon="2.2164070">
        <ele>829.4</ele>
        <time>2020-07-21T13:10:32Z</time>
      </trkpt>
      <trkpt lat="42.7370610" lon="2.2162950">
        <ele>828.4</ele>
        <time>2020-07-21T13:10:33Z</time>
      </trkpt>
      <trkpt lat="42.7370930" lon="2.2161810">
        <ele>827.8</ele>
        <time>2020-07-21T13:10:34Z</time>
      </trkpt>
      <trkpt lat="42.7371470" lon="2.2159310">
        <ele>826.8</ele>
        <time>2020-07-21T13:10:36Z</time>
      </trkpt>
      <trkpt lat="42.7371940" lon="2.2156750">
        <ele>825.2</ele>
        <time>2020-07-21T13:10:38Z</time>
      </trkpt>
      <trkpt lat="42.7372200" lon="2.2154520">
        <ele>823.6</ele>
        <time>2020-07-21T13:10:40Z</time>
      </trkpt>
      <trkpt lat="42.7372350" lon="2.2152540">
        <ele>822.2</ele>
        <time>2020-07-21T13:10:42Z</time>
      </trkpt>
      <trkpt lat="42.7372720" lon="2.2150950">
        <ele>821.6</ele>
        <time>2020-07-21T13:10:44Z</time>
      </trkpt>
      <trkpt lat="42.7372660" lon="2.2150150">
        <ele>821.4</ele>
        <time>2020-07-21T13:10:45Z</time>
      </trkpt>
      <trkpt lat="42.7372500" lon="2.2149300">
        <ele>821.0</ele>
        <time>2020-07-21T13:10:46Z</time>
      </trkpt>
      <trkpt lat="42.7372000" lon="2.2148450">
        <ele>820.8</ele>
        <time>2020-07-21T13:10:47Z</time>
      </trkpt>
      <trkpt lat="42.7370910" lon="2.2147310">
        <ele>820.0</ele>
        <time>2020-07-21T13:10:49Z</time>
      </trkpt>
      <trkpt lat="42.7370250" lon="2.2146900">
        <ele>819.4</ele>
        <time>2020-07-21T13:10:50Z</time>
      </trkpt>
      <trkpt lat="42.7368870" lon="2.2146260">
        <ele>818.8</ele>
        <time>2020-07-21T13:10:52Z</time>
      </trkpt>
      <trkpt lat="42.7366560" lon="2.2145200">
        <ele>817.6</ele>
        <time>2020-07-21T13:10:55Z</time>
      </trkpt>
      <trkpt lat="42.7365850" lon="2.2144730">
        <ele>817.0</ele>
        <time>2020-07-21T13:10:56Z</time>
      </trkpt>
      <trkpt lat="42.7365140" lon="2.2144180">
        <ele>816.4</ele>
        <time>2020-07-21T13:10:57Z</time>
      </trkpt>
      <trkpt lat="42.7363730" lon="2.2142920">
        <ele>815.6</ele>
        <time>2020-07-21T13:10:59Z</time>
      </trkpt>
      <trkpt lat="42.7362940" lon="2.2142280">
        <ele>815.0</ele>
        <time>2020-07-21T13:11:00Z</time>
      </trkpt>
      <trkpt lat="42.7360770" lon="2.2140140">
        <ele>814.0</ele>
        <time>2020-07-21T13:11:03Z</time>
      </trkpt>
      <trkpt lat="42.7360200" lon="2.2139410">
        <ele>813.6</ele>
        <time>2020-07-21T13:11:04Z</time>
      </trkpt>
      <trkpt lat="42.7359770" lon="2.2138650">
        <ele>813.4</ele>
        <time>2020-07-21T13:11:05Z</time>
      </trkpt>
      <trkpt lat="42.7359400" lon="2.2137890">
        <ele>813.2</ele>
        <time>2020-07-21T13:11:06Z</time>
      </trkpt>
      <trkpt lat="42.7359170" lon="2.2137080">
        <ele>812.8</ele>
        <time>2020-07-21T13:11:07Z</time>
      </trkpt>
      <trkpt lat="42.7359070" lon="2.2136240">
        <ele>812.8</ele>
        <time>2020-07-21T13:11:08Z</time>
      </trkpt>
      <trkpt lat="42.7359010" lon="2.2135410">
        <ele>812.6</ele>
        <time>2020-07-21T13:11:09Z</time>
      </trkpt>
      <trkpt lat="42.7359050" lon="2.2134630">
        <ele>812.8</ele>
        <time>2020-07-21T13:11:10Z</time>
      </trkpt>
      <trkpt lat="42.7359180" lon="2.2132000">
        <ele>813.4</ele>
        <time>2020-07-21T13:11:13Z</time>
      </trkpt>
      <trkpt lat="42.7359170" lon="2.2131070">
        <ele>813.6</ele>
        <time>2020-07-21T13:11:14Z</time>
      </trkpt>
      <trkpt lat="42.7358950" lon="2.2129930">
        <ele>813.6</ele>
        <time>2020-07-21T13:11:15Z</time>
      </trkpt>
      <trkpt lat="42.7358620" lon="2.2129060">
        <ele>813.8</ele>
        <time>2020-07-21T13:11:16Z</time>
      </trkpt>
      <trkpt lat="42.7358170" lon="2.2128380">
        <ele>814.0</ele>
        <time>2020-07-21T13:11:17Z</time>
      </trkpt>
      <trkpt lat="42.7355990" lon="2.2126400">
        <ele>814.4</ele>
        <time>2020-07-21T13:11:21Z</time>
      </trkpt>
      <trkpt lat="42.7355560" lon="2.2125920">
        <ele>814.8</ele>
        <time>2020-07-21T13:11:22Z</time>
      </trkpt>
      <trkpt lat="42.7355240" lon="2.2125380">
        <ele>815.0</ele>
        <time>2020-07-21T13:11:23Z</time>
      </trkpt>
      <trkpt lat="42.7354990" lon="2.2124770">
        <ele>815.2</ele>
        <time>2020-07-21T13:11:24Z</time>
      </trkpt>
      <trkpt lat="42.7354890" lon="2.2124180">
        <ele>815.4</ele>
        <time>2020-07-21T13:11:25Z</time>
      </trkpt>
      <trkpt lat="42.7354920" lon="2.2123590">
        <ele>815.4</ele>
        <time>2020-07-21T13:11:26Z</time>
      </trkpt>
      <trkpt lat="42.7355430" lon="2.2122680">
        <ele>815.2</ele>
        <time>2020-07-21T13:11:28Z</time>
      </trkpt>
      <trkpt lat="42.7356320" lon="2.2122060">
        <ele>815.0</ele>
        <time>2020-07-21T13:11:30Z</time>
      </trkpt>
      <trkpt lat="42.7357460" lon="2.2121780">
        <ele>814.6</ele>
        <time>2020-07-21T13:11:32Z</time>
      </trkpt>
      <trkpt lat="42.7358900" lon="2.2121990">
        <ele>814.2</ele>
        <time>2020-07-21T13:11:34Z</time>
      </trkpt>
      <trkpt lat="42.7359620" lon="2.2122480">
        <ele>813.6</ele>
        <time>2020-07-21T13:11:35Z</time>
      </trkpt>
      <trkpt lat="42.7360290" lon="2.2123110">
        <ele>812.4</ele>
        <time>2020-07-21T13:11:36Z</time>
      </trkpt>
      <trkpt lat="42.7360890" lon="2.2123810">
        <ele>811.2</ele>
        <time>2020-07-21T13:11:37Z</time>
      </trkpt>
      <trkpt lat="42.7361410" lon="2.2124540">
        <ele>810.2</ele>
        <time>2020-07-21T13:11:38Z</time>
      </trkpt>
      <trkpt lat="42.7361890" lon="2.2125350">
        <ele>809.2</ele>
        <time>2020-07-21T13:11:39Z</time>
      </trkpt>
      <trkpt lat="42.7362260" lon="2.2126260">
        <ele>808.4</ele>
        <time>2020-07-21T13:11:40Z</time>
      </trkpt>
      <trkpt lat="42.7362590" lon="2.2128310">
        <ele>806.6</ele>
        <time>2020-07-21T13:11:42Z</time>
      </trkpt>
      <trkpt lat="42.7362670" lon="2.2129490">
        <ele>806.0</ele>
        <time>2020-07-21T13:11:43Z</time>
      </trkpt>
      <trkpt lat="42.7362800" lon="2.2130620">
        <ele>805.2</ele>
        <time>2020-07-21T13:11:44Z</time>
      </trkpt>
      <trkpt lat="42.7363010" lon="2.2131690">
        <ele>804.4</ele>
        <time>2020-07-21T13:11:45Z</time>
      </trkpt>
      <trkpt lat="42.7363310" lon="2.2132560">
        <ele>803.4</ele>
        <time>2020-07-21T13:11:46Z</time>
      </trkpt>
      <trkpt lat="42.7363720" lon="2.2133280">
        <ele>802.2</ele>
        <time>2020-07-21T13:11:47Z</time>
      </trkpt>
      <trkpt lat="42.7364290" lon="2.2133790">
        <ele>801.2</ele>
        <time>2020-07-21T13:11:48Z</time>
      </trkpt>
      <trkpt lat="42.7364930" lon="2.2134210">
        <ele>800.4</ele>
        <time>2020-07-21T13:11:49Z</time>
      </trkpt>
      <trkpt lat="42.7365640" lon="2.2134460">
        <ele>799.2</ele>
        <time>2020-07-21T13:11:50Z</time>
      </trkpt>
      <trkpt lat="42.7366390" lon="2.2134600">
        <ele>798.2</ele>
        <time>2020-07-21T13:11:51Z</time>
      </trkpt>
      <trkpt lat="42.7367160" lon="2.2134630">
        <ele>797.4</ele>
        <time>2020-07-21T13:11:52Z</time>
      </trkpt>
      <trkpt lat="42.7368040" lon="2.2134530">
        <ele>796.2</ele>
        <time>2020-07-21T13:11:53Z</time>
      </trkpt>
      <trkpt lat="42.7369010" lon="2.2134120">
        <ele>794.8</ele>
        <time>2020-07-21T13:11:54Z</time>
      </trkpt>
      <trkpt lat="42.7369920" lon="2.2133810">
        <ele>793.2</ele>
        <time>2020-07-21T13:11:55Z</time>
      </trkpt>
      <trkpt lat="42.7370810" lon="2.2133460">
        <ele>791.4</ele>
        <time>2020-07-21T13:11:56Z</time>
      </trkpt>
      <trkpt lat="42.7371620" lon="2.2133160">
        <ele>790.2</ele>
        <time>2020-07-21T13:11:57Z</time>
      </trkpt>
      <trkpt lat="42.7373220" lon="2.2132760">
        <ele>788.8</ele>
        <time>2020-07-21T13:11:59Z</time>
      </trkpt>
      <trkpt lat="42.7374000" lon="2.2132710">
        <ele>788.4</ele>
        <time>2020-07-21T13:12:00Z</time>
      </trkpt>
      <trkpt lat="42.7374730" lon="2.2132810">
        <ele>788.0</ele>
        <time>2020-07-21T13:12:01Z</time>
      </trkpt>
      <trkpt lat="42.7375380" lon="2.2133010">
        <ele>787.6</ele>
        <time>2020-07-21T13:12:02Z</time>
      </trkpt>
      <trkpt lat="42.7375990" lon="2.2133370">
        <ele>787.0</ele>
        <time>2020-07-21T13:12:03Z</time>
      </trkpt>
      <trkpt lat="42.7376630" lon="2.2133960">
        <ele>786.2</ele>
        <time>2020-07-21T13:12:04Z</time>
      </trkpt>
      <trkpt lat="42.7377250" lon="2.2134650">
        <ele>785.0</ele>
        <time>2020-07-21T13:12:05Z</time>
      </trkpt>
      <trkpt lat="42.7377870" lon="2.2135460">
        <ele>783.8</ele>
        <time>2020-07-21T13:12:06Z</time>
      </trkpt>
      <trkpt lat="42.7378420" lon="2.2136190">
        <ele>782.6</ele>
        <time>2020-07-21T13:12:07Z</time>
      </trkpt>
      <trkpt lat="42.7378970" lon="2.2137010">
        <ele>781.4</ele>
        <time>2020-07-21T13:12:08Z</time>
      </trkpt>
      <trkpt lat="42.7380020" lon="2.2138680">
        <ele>780.0</ele>
        <time>2020-07-21T13:12:10Z</time>
      </trkpt>
      <trkpt lat="42.7380470" lon="2.2139630">
        <ele>779.4</ele>
        <time>2020-07-21T13:12:11Z</time>
      </trkpt>
      <trkpt lat="42.7380850" lon="2.2140660">
        <ele>778.2</ele>
        <time>2020-07-21T13:12:12Z</time>
      </trkpt>
      <trkpt lat="42.7381130" lon="2.2141790">
        <ele>777.0</ele>
        <time>2020-07-21T13:12:13Z</time>
      </trkpt>
      <trkpt lat="42.7381360" lon="2.2143150">
        <ele>775.8</ele>
        <time>2020-07-21T13:12:14Z</time>
      </trkpt>
      <trkpt lat="42.7381780" lon="2.2145630">
        <ele>774.0</ele>
        <time>2020-07-21T13:12:16Z</time>
      </trkpt>
      <trkpt lat="42.7382300" lon="2.2147860">
        <ele>772.2</ele>
        <time>2020-07-21T13:12:18Z</time>
      </trkpt>
      <trkpt lat="42.7382880" lon="2.2150210">
        <ele>770.6</ele>
        <time>2020-07-21T13:12:20Z</time>
      </trkpt>
      <trkpt lat="42.7383220" lon="2.2152730">
        <ele>768.8</ele>
        <time>2020-07-21T13:12:22Z</time>
      </trkpt>
      <trkpt lat="42.7383300" lon="2.2154140">
        <ele>767.8</ele>
        <time>2020-07-21T13:12:23Z</time>
      </trkpt>
      <trkpt lat="42.7383340" lon="2.2155590">
        <ele>766.4</ele>
        <time>2020-07-21T13:12:24Z</time>
      </trkpt>
      <trkpt lat="42.7383370" lon="2.2157080">
        <ele>764.8</ele>
        <time>2020-07-21T13:12:25Z</time>
      </trkpt>
      <trkpt lat="42.7383410" lon="2.2158480">
        <ele>763.6</ele>
        <time>2020-07-21T13:12:26Z</time>
      </trkpt>
      <trkpt lat="42.7383440" lon="2.2159740">
        <ele>762.4</ele>
        <time>2020-07-21T13:12:27Z</time>
      </trkpt>
      <trkpt lat="42.7383470" lon="2.2160890">
        <ele>761.4</ele>
        <time>2020-07-21T13:12:28Z</time>
      </trkpt>
      <trkpt lat="42.7383460" lon="2.2162000">
        <ele>760.4</ele>
        <time>2020-07-21T13:12:29Z</time>
      </trkpt>
      <trkpt lat="42.7383320" lon="2.2163090">
        <ele>759.6</ele>
        <time>2020-07-21T13:12:30Z</time>
      </trkpt>
      <trkpt lat="42.7382690" lon="2.2165320">
        <ele>758.4</ele>
        <time>2020-07-21T13:12:32Z</time>
      </trkpt>
      <trkpt lat="42.7381980" lon="2.2167730">
        <ele>757.4</ele>
        <time>2020-07-21T13:12:34Z</time>
      </trkpt>
      <trkpt lat="42.7381330" lon="2.2170070">
        <ele>755.2</ele>
        <time>2020-07-21T13:12:36Z</time>
      </trkpt>
      <trkpt lat="42.7381130" lon="2.2171310">
        <ele>753.8</ele>
        <time>2020-07-21T13:12:37Z</time>
      </trkpt>
      <trkpt lat="42.7381020" lon="2.2172590">
        <ele>752.8</ele>
        <time>2020-07-21T13:12:38Z</time>
      </trkpt>
      <trkpt lat="42.7380930" lon="2.2173890">
        <ele>751.6</ele>
        <time>2020-07-21T13:12:39Z</time>
      </trkpt>
      <trkpt lat="42.7380880" lon="2.2175150">
        <ele>750.4</ele>
        <time>2020-07-21T13:12:40Z</time>
      </trkpt>
      <trkpt lat="42.7380950" lon="2.2177580">
        <ele>748.4</ele>
        <time>2020-07-21T13:12:42Z</time>
      </trkpt>
      <trkpt lat="42.7381220" lon="2.2178720">
        <ele>747.0</ele>
        <time>2020-07-21T13:12:43Z</time>
      </trkpt>
      <trkpt lat="42.7381580" lon="2.2179830">
        <ele>745.8</ele>
        <time>2020-07-21T13:12:44Z</time>
      </trkpt>
      <trkpt lat="42.7382140" lon="2.2180970">
        <ele>744.8</ele>
        <time>2020-07-21T13:12:45Z</time>
      </trkpt>
      <trkpt lat="42.7382790" lon="2.2182020">
        <ele>744.0</ele>
        <time>2020-07-21T13:12:46Z</time>
      </trkpt>
      <trkpt lat="42.7384200" lon="2.2184090">
        <ele>742.4</ele>
        <time>2020-07-21T13:12:48Z</time>
      </trkpt>
      <trkpt lat="42.7385370" lon="2.2186170">
        <ele>740.8</ele>
        <time>2020-07-21T13:12:50Z</time>
      </trkpt>
      <trkpt lat="42.7385830" lon="2.2187270">
        <ele>739.8</ele>
        <time>2020-07-21T13:12:51Z</time>
      </trkpt>
      <trkpt lat="42.7386210" lon="2.2188440">
        <ele>739.2</ele>
        <time>2020-07-21T13:12:52Z</time>
      </trkpt>
      <trkpt lat="42.7386470" lon="2.2189670">
        <ele>738.4</ele>
        <time>2020-07-21T13:12:53Z</time>
      </trkpt>
      <trkpt lat="42.7386640" lon="2.2190880">
        <ele>737.8</ele>
        <time>2020-07-21T13:12:54Z</time>
      </trkpt>
      <trkpt lat="42.7386710" lon="2.2192070">
        <ele>737.0</ele>
        <time>2020-07-21T13:12:55Z</time>
      </trkpt>
      <trkpt lat="42.7386670" lon="2.2193220">
        <ele>736.0</ele>
        <time>2020-07-21T13:12:56Z</time>
      </trkpt>
      <trkpt lat="42.7386460" lon="2.2194270">
        <ele>734.8</ele>
        <time>2020-07-21T13:12:57Z</time>
      </trkpt>
      <trkpt lat="42.7386030" lon="2.2195090">
        <ele>733.8</ele>
        <time>2020-07-21T13:12:58Z</time>
      </trkpt>
      <trkpt lat="42.7385520" lon="2.2195870">
        <ele>732.8</ele>
        <time>2020-07-21T13:12:59Z</time>
      </trkpt>
      <trkpt lat="42.7385060" lon="2.2196650">
        <ele>732.2</ele>
        <time>2020-07-21T13:13:00Z</time>
      </trkpt>
      <trkpt lat="42.7384680" lon="2.2197420">
        <ele>731.2</ele>
        <time>2020-07-21T13:13:01Z</time>
      </trkpt>
      <trkpt lat="42.7384430" lon="2.2198210">
        <ele>730.4</ele>
        <time>2020-07-21T13:13:02Z</time>
      </trkpt>
      <trkpt lat="42.7384370" lon="2.2199090">
        <ele>729.4</ele>
        <time>2020-07-21T13:13:03Z</time>
      </trkpt>
      <trkpt lat="42.7384480" lon="2.2199970">
        <ele>728.6</ele>
        <time>2020-07-21T13:13:04Z</time>
      </trkpt>
      <trkpt lat="42.7384820" lon="2.2200910">
        <ele>728.0</ele>
        <time>2020-07-21T13:13:05Z</time>
      </trkpt>
      <trkpt lat="42.7385280" lon="2.2201970">
        <ele>727.2</ele>
        <time>2020-07-21T13:13:06Z</time>
      </trkpt>
      <trkpt lat="42.7385700" lon="2.2203010">
        <ele>726.0</ele>
        <time>2020-07-21T13:13:07Z</time>
      </trkpt>
      <trkpt lat="42.7386120" lon="2.2204090">
        <ele>724.8</ele>
        <time>2020-07-21T13:13:08Z</time>
      </trkpt>
      <trkpt lat="42.7386530" lon="2.2205170">
        <ele>723.4</ele>
        <time>2020-07-21T13:13:09Z</time>
      </trkpt>
      <trkpt lat="42.7386940" lon="2.2206190">
        <ele>722.2</ele>
        <time>2020-07-21T13:13:10Z</time>
      </trkpt>
      <trkpt lat="42.7387840" lon="2.2207910">
        <ele>720.8</ele>
        <time>2020-07-21T13:13:12Z</time>
      </trkpt>
      <trkpt lat="42.7388480" lon="2.2208550">
        <ele>720.2</ele>
        <time>2020-07-21T13:13:13Z</time>
      </trkpt>
      <trkpt lat="42.7389240" lon="2.2209090">
        <ele>719.6</ele>
        <time>2020-07-21T13:13:14Z</time>
      </trkpt>
      <trkpt lat="42.7391300" lon="2.2210610">
        <ele>718.2</ele>
        <time>2020-07-21T13:13:17Z</time>
      </trkpt>
      <trkpt lat="42.7392100" lon="2.2212380">
        <ele>716.6</ele>
        <time>2020-07-21T13:13:19Z</time>
      </trkpt>
      <trkpt lat="42.7392260" lon="2.2213370">
        <ele>715.8</ele>
        <time>2020-07-21T13:13:20Z</time>
      </trkpt>
      <trkpt lat="42.7392360" lon="2.2214330">
        <ele>715.0</ele>
        <time>2020-07-21T13:13:21Z</time>
      </trkpt>
      <trkpt lat="42.7392460" lon="2.2216100">
        <ele>713.6</ele>
        <time>2020-07-21T13:13:23Z</time>
      </trkpt>
      <trkpt lat="42.7392590" lon="2.2216870">
        <ele>713.0</ele>
        <time>2020-07-21T13:13:24Z</time>
      </trkpt>
      <trkpt lat="42.7392890" lon="2.2217680">
        <ele>712.2</ele>
        <time>2020-07-21T13:13:25Z</time>
      </trkpt>
      <trkpt lat="42.7393770" lon="2.2218800">
        <ele>710.0</ele>
        <time>2020-07-21T13:13:27Z</time>
      </trkpt>
      <trkpt lat="42.7395250" lon="2.2219410">
        <ele>708.6</ele>
        <time>2020-07-21T13:13:29Z</time>
      </trkpt>
      <trkpt lat="42.7396090" lon="2.2219730">
        <ele>708.0</ele>
        <time>2020-07-21T13:13:30Z</time>
      </trkpt>
      <trkpt lat="42.7396930" lon="2.2219990">
        <ele>707.4</ele>
        <time>2020-07-21T13:13:31Z</time>
      </trkpt>
      <trkpt lat="42.7399830" lon="2.2221020">
        <ele>705.4</ele>
        <time>2020-07-21T13:13:34Z</time>
      </trkpt>
      <trkpt lat="42.7400900" lon="2.2221460">
        <ele>704.0</ele>
        <time>2020-07-21T13:13:35Z</time>
      </trkpt>
      <trkpt lat="42.7402000" lon="2.2221900">
        <ele>702.8</ele>
        <time>2020-07-21T13:13:36Z</time>
      </trkpt>
      <trkpt lat="42.7404260" lon="2.2222800">
        <ele>700.8</ele>
        <time>2020-07-21T13:13:38Z</time>
      </trkpt>
      <trkpt lat="42.7405360" lon="2.2223270">
        <ele>699.2</ele>
        <time>2020-07-21T13:13:39Z</time>
      </trkpt>
      <trkpt lat="42.7406470" lon="2.2223750">
        <ele>696.2</ele>
        <time>2020-07-21T13:13:40Z</time>
      </trkpt>
      <trkpt lat="42.7408640" lon="2.2224670">
        <ele>695.2</ele>
        <time>2020-07-21T13:13:42Z</time>
      </trkpt>
      <trkpt lat="42.7409650" lon="2.2225230">
        <ele>694.2</ele>
        <time>2020-07-21T13:13:43Z</time>
      </trkpt>
      <trkpt lat="42.7410640" lon="2.2225840">
        <ele>693.0</ele>
        <time>2020-07-21T13:13:44Z</time>
      </trkpt>
      <trkpt lat="42.7411580" lon="2.2226510">
        <ele>692.0</ele>
        <time>2020-07-21T13:13:45Z</time>
      </trkpt>
      <trkpt lat="42.7413390" lon="2.2227770">
        <ele>690.4</ele>
        <time>2020-07-21T13:13:47Z</time>
      </trkpt>
      <trkpt lat="42.7415190" lon="2.2228790">
        <ele>689.2</ele>
        <time>2020-07-21T13:13:49Z</time>
      </trkpt>
      <trkpt lat="42.7416110" lon="2.2229220">
        <ele>688.8</ele>
        <time>2020-07-21T13:13:50Z</time>
      </trkpt>
      <trkpt lat="42.7417080" lon="2.2229610">
        <ele>688.0</ele>
        <time>2020-07-21T13:13:51Z</time>
      </trkpt>
      <trkpt lat="42.7419100" lon="2.2230310">
        <ele>686.4</ele>
        <time>2020-07-21T13:13:53Z</time>
      </trkpt>
      <trkpt lat="42.7421140" lon="2.2230900">
        <ele>684.4</ele>
        <time>2020-07-21T13:13:55Z</time>
      </trkpt>
      <trkpt lat="42.7422160" lon="2.2231080">
        <ele>683.4</ele>
        <time>2020-07-21T13:13:56Z</time>
      </trkpt>
      <trkpt lat="42.7424100" lon="2.2231480">
        <ele>682.0</ele>
        <time>2020-07-21T13:13:58Z</time>
      </trkpt>
      <trkpt lat="42.7425940" lon="2.2232270">
        <ele>680.8</ele>
        <time>2020-07-21T13:14:00Z</time>
      </trkpt>
      <trkpt lat="42.7426820" lon="2.2232770">
        <ele>680.0</ele>
        <time>2020-07-21T13:14:01Z</time>
      </trkpt>
      <trkpt lat="42.7428400" lon="2.2233900">
        <ele>678.2</ele>
        <time>2020-07-21T13:14:02Z</time>
      </trkpt>
      <trkpt lat="42.7429080" lon="2.2234520">
        <ele>677.6</ele>
        <time>2020-07-21T13:14:04Z</time>
      </trkpt>
      <trkpt lat="42.7429700" lon="2.2235240">
        <ele>677.0</ele>
        <time>2020-07-21T13:14:05Z</time>
      </trkpt>
      <trkpt lat="42.7430170" lon="2.2236090">
        <ele>676.2</ele>
        <time>2020-07-21T13:14:06Z</time>
      </trkpt>
      <trkpt lat="42.7430600" lon="2.2236930">
        <ele>675.8</ele>
        <time>2020-07-21T13:14:07Z</time>
      </trkpt>
      <trkpt lat="42.7431150" lon="2.2237670">
        <ele>675.2</ele>
        <time>2020-07-21T13:14:08Z</time>
      </trkpt>
      <trkpt lat="42.7431790" lon="2.2238300">
        <ele>674.4</ele>
        <time>2020-07-21T13:14:09Z</time>
      </trkpt>
      <trkpt lat="42.7433180" lon="2.2239660">
        <ele>673.4</ele>
        <time>2020-07-21T13:14:11Z</time>
      </trkpt>
      <trkpt lat="42.7433810" lon="2.2240530">
        <ele>672.8</ele>
        <time>2020-07-21T13:14:12Z</time>
      </trkpt>
      <trkpt lat="42.7434410" lon="2.2241500">
        <ele>672.2</ele>
        <time>2020-07-21T13:14:13Z</time>
      </trkpt>
      <trkpt lat="42.7435660" lon="2.2243550">
        <ele>670.4</ele>
        <time>2020-07-21T13:14:15Z</time>
      </trkpt>
      <trkpt lat="42.7436280" lon="2.2244680">
        <ele>669.4</ele>
        <time>2020-07-21T13:14:16Z</time>
      </trkpt>
      <trkpt lat="42.7436890" lon="2.2245890">
        <ele>668.4</ele>
        <time>2020-07-21T13:14:17Z</time>
      </trkpt>
      <trkpt lat="42.7437480" lon="2.2247180">
        <ele>667.6</ele>
        <time>2020-07-21T13:14:18Z</time>
      </trkpt>
      <trkpt lat="42.7438540" lon="2.2249620">
        <ele>665.2</ele>
        <time>2020-07-21T13:14:20Z</time>
      </trkpt>
      <trkpt lat="42.7439070" lon="2.2250710">
        <ele>663.6</ele>
        <time>2020-07-21T13:14:21Z</time>
      </trkpt>
      <trkpt lat="42.7439670" lon="2.2251730">
        <ele>662.6</ele>
        <time>2020-07-21T13:14:22Z</time>
      </trkpt>
      <trkpt lat="42.7441130" lon="2.2253620">
        <ele>661.4</ele>
        <time>2020-07-21T13:14:24Z</time>
      </trkpt>
      <trkpt lat="42.7441960" lon="2.2254450">
        <ele>660.8</ele>
        <time>2020-07-21T13:14:25Z</time>
      </trkpt>
      <trkpt lat="42.7442800" lon="2.2255260">
        <ele>659.6</ele>
        <time>2020-07-21T13:14:26Z</time>
      </trkpt>
      <trkpt lat="42.7443600" lon="2.2256080">
        <ele>658.4</ele>
        <time>2020-07-21T13:14:27Z</time>
      </trkpt>
      <trkpt lat="42.7444360" lon="2.2256860">
        <ele>657.0</ele>
        <time>2020-07-21T13:14:28Z</time>
      </trkpt>
      <trkpt lat="42.7445110" lon="2.2257610">
        <ele>656.0</ele>
        <time>2020-07-21T13:14:29Z</time>
      </trkpt>
      <trkpt lat="42.7446560" lon="2.2258960">
        <ele>654.8</ele>
        <time>2020-07-21T13:14:31Z</time>
      </trkpt>
      <trkpt lat="42.7447270" lon="2.2259440">
        <ele>654.4</ele>
        <time>2020-07-21T13:14:32Z</time>
      </trkpt>
      <trkpt lat="42.7448710" lon="2.2259930">
        <ele>653.8</ele>
        <time>2020-07-21T13:14:34Z</time>
      </trkpt>
      <trkpt lat="42.7449420" lon="2.2260180">
        <ele>653.8</ele>
        <time>2020-07-21T13:14:35Z</time>
      </trkpt>
      <trkpt lat="42.7450090" lon="2.2260530">
        <ele>653.6</ele>
        <time>2020-07-21T13:14:36Z</time>
      </trkpt>
      <trkpt lat="42.7451320" lon="2.2261350">
        <ele>652.6</ele>
        <time>2020-07-21T13:14:38Z</time>
      </trkpt>
      <trkpt lat="42.7452620" lon="2.2261880">
        <ele>651.8</ele>
        <time>2020-07-21T13:14:40Z</time>
      </trkpt>
      <trkpt lat="42.7453290" lon="2.2262110">
        <ele>651.6</ele>
        <time>2020-07-21T13:14:41Z</time>
      </trkpt>
      <trkpt lat="42.7454570" lon="2.2262870">
        <ele>650.8</ele>
        <time>2020-07-21T13:14:43Z</time>
      </trkpt>
      <trkpt lat="42.7455160" lon="2.2263510">
        <ele>650.4</ele>
        <time>2020-07-21T13:14:44Z</time>
      </trkpt>
      <trkpt lat="42.7455690" lon="2.2264270">
        <ele>649.8</ele>
        <time>2020-07-21T13:14:45Z</time>
      </trkpt>
      <trkpt lat="42.7456150" lon="2.2265130">
        <ele>648.6</ele>
        <time>2020-07-21T13:14:46Z</time>
      </trkpt>
      <trkpt lat="42.7456640" lon="2.2266030">
        <ele>647.6</ele>
        <time>2020-07-21T13:14:47Z</time>
      </trkpt>
      <trkpt lat="42.7457800" lon="2.2267920">
        <ele>646.2</ele>
        <time>2020-07-21T13:14:49Z</time>
      </trkpt>
      <trkpt lat="42.7458450" lon="2.2268820">
        <ele>645.6</ele>
        <time>2020-07-21T13:14:50Z</time>
      </trkpt>
      <trkpt lat="42.7459110" lon="2.2269670">
        <ele>644.8</ele>
        <time>2020-07-21T13:14:51Z</time>
      </trkpt>
      <trkpt lat="42.7459730" lon="2.2270430">
        <ele>644.0</ele>
        <time>2020-07-21T13:14:52Z</time>
      </trkpt>
      <trkpt lat="42.7460250" lon="2.2271140">
        <ele>643.4</ele>
        <time>2020-07-21T13:14:53Z</time>
      </trkpt>
      <trkpt lat="42.7460590" lon="2.2272000">
        <ele>643.0</ele>
        <time>2020-07-21T13:14:54Z</time>
      </trkpt>
      <trkpt lat="42.7460840" lon="2.2272980">
        <ele>642.6</ele>
        <time>2020-07-21T13:14:55Z</time>
      </trkpt>
      <trkpt lat="42.7460950" lon="2.2274020">
        <ele>642.0</ele>
        <time>2020-07-21T13:14:56Z</time>
      </trkpt>
      <trkpt lat="42.7461020" lon="2.2275100">
        <ele>641.2</ele>
        <time>2020-07-21T13:14:57Z</time>
      </trkpt>
      <trkpt lat="42.7461160" lon="2.2276170">
        <ele>640.4</ele>
        <time>2020-07-21T13:14:58Z</time>
      </trkpt>
      <trkpt lat="42.7461660" lon="2.2278270">
        <ele>638.8</ele>
        <time>2020-07-21T13:15:00Z</time>
      </trkpt>
      <trkpt lat="42.7462020" lon="2.2279320">
        <ele>638.0</ele>
        <time>2020-07-21T13:15:01Z</time>
      </trkpt>
      <trkpt lat="42.7462430" lon="2.2280320">
        <ele>637.2</ele>
        <time>2020-07-21T13:15:02Z</time>
      </trkpt>
      <trkpt lat="42.7463320" lon="2.2282440">
        <ele>636.0</ele>
        <time>2020-07-21T13:15:04Z</time>
      </trkpt>
      <trkpt lat="42.7464850" lon="2.2285750">
        <ele>634.4</ele>
        <time>2020-07-21T13:15:07Z</time>
      </trkpt>
      <trkpt lat="42.7465890" lon="2.2287820">
        <ele>632.6</ele>
        <time>2020-07-21T13:15:09Z</time>
      </trkpt>
      <trkpt lat="42.7466460" lon="2.2288790">
        <ele>631.6</ele>
        <time>2020-07-21T13:15:10Z</time>
      </trkpt>
      <trkpt lat="42.7467080" lon="2.2289720">
        <ele>630.6</ele>
        <time>2020-07-21T13:15:11Z</time>
      </trkpt>
      <trkpt lat="42.7467750" lon="2.2290580">
        <ele>629.4</ele>
        <time>2020-07-21T13:15:12Z</time>
      </trkpt>
      <trkpt lat="42.7468480" lon="2.2291310">
        <ele>628.4</ele>
        <time>2020-07-21T13:15:13Z</time>
      </trkpt>
      <trkpt lat="42.7469250" lon="2.2291960">
        <ele>627.8</ele>
        <time>2020-07-21T13:15:14Z</time>
      </trkpt>
      <trkpt lat="42.7470090" lon="2.2292410">
        <ele>627.2</ele>
        <time>2020-07-21T13:15:15Z</time>
      </trkpt>
      <trkpt lat="42.7470910" lon="2.2292880">
        <ele>626.4</ele>
        <time>2020-07-21T13:15:16Z</time>
      </trkpt>
      <trkpt lat="42.7471700" lon="2.2293400">
        <ele>625.6</ele>
        <time>2020-07-21T13:15:17Z</time>
      </trkpt>
      <trkpt lat="42.7472460" lon="2.2293990">
        <ele>624.8</ele>
        <time>2020-07-21T13:15:18Z</time>
      </trkpt>
      <trkpt lat="42.7474580" lon="2.2296050">
        <ele>623.6</ele>
        <time>2020-07-21T13:15:21Z</time>
      </trkpt>
      <trkpt lat="42.7476650" lon="2.2297670">
        <ele>622.0</ele>
        <time>2020-07-21T13:15:24Z</time>
      </trkpt>
      <trkpt lat="42.7477420" lon="2.2298220">
        <ele>621.0</ele>
        <time>2020-07-21T13:15:25Z</time>
      </trkpt>
      <trkpt lat="42.7478190" lon="2.2298830">
        <ele>619.8</ele>
        <time>2020-07-21T13:15:26Z</time>
      </trkpt>
      <trkpt lat="42.7479580" lon="2.2300300">
        <ele>618.0</ele>
        <time>2020-07-21T13:15:28Z</time>
      </trkpt>
      <trkpt lat="42.7480200" lon="2.2301130">
        <ele>617.2</ele>
        <time>2020-07-21T13:15:29Z</time>
      </trkpt>
      <trkpt lat="42.7480700" lon="2.2302060">
        <ele>616.2</ele>
        <time>2020-07-21T13:15:30Z</time>
      </trkpt>
      <trkpt lat="42.7481270" lon="2.2304190">
        <ele>614.6</ele>
        <time>2020-07-21T13:15:32Z</time>
      </trkpt>
      <trkpt lat="42.7481450" lon="2.2306580">
        <ele>612.8</ele>
        <time>2020-07-21T13:15:34Z</time>
      </trkpt>
      <trkpt lat="42.7481830" lon="2.2308930">
        <ele>611.2</ele>
        <time>2020-07-21T13:15:36Z</time>
      </trkpt>
      <trkpt lat="42.7482360" lon="2.2311100">
        <ele>609.4</ele>
        <time>2020-07-21T13:15:38Z</time>
      </trkpt>
      <trkpt lat="42.7482960" lon="2.2313220">
        <ele>608.4</ele>
        <time>2020-07-21T13:15:40Z</time>
      </trkpt>
      <trkpt lat="42.7483530" lon="2.2315200">
        <ele>607.2</ele>
        <time>2020-07-21T13:15:42Z</time>
      </trkpt>
      <trkpt lat="42.7483790" lon="2.2316130">
        <ele>606.6</ele>
        <time>2020-07-21T13:15:43Z</time>
      </trkpt>
      <trkpt lat="42.7484210" lon="2.2317820">
        <ele>605.6</ele>
        <time>2020-07-21T13:15:45Z</time>
      </trkpt>
      <trkpt lat="42.7484250" lon="2.2318700">
        <ele>605.0</ele>
        <time>2020-07-21T13:15:46Z</time>
      </trkpt>
      <trkpt lat="42.7484210" lon="2.2319590">
        <ele>604.8</ele>
        <time>2020-07-21T13:15:47Z</time>
      </trkpt>
      <trkpt lat="42.7484020" lon="2.2320460">
        <ele>604.4</ele>
        <time>2020-07-21T13:15:48Z</time>
      </trkpt>
      <trkpt lat="42.7483430" lon="2.2322170">
        <ele>603.6</ele>
        <time>2020-07-21T13:15:50Z</time>
      </trkpt>
      <trkpt lat="42.7483100" lon="2.2323090">
        <ele>603.0</ele>
        <time>2020-07-21T13:15:51Z</time>
      </trkpt>
      <trkpt lat="42.7482780" lon="2.2324000">
        <ele>602.0</ele>
        <time>2020-07-21T13:15:52Z</time>
      </trkpt>
      <trkpt lat="42.7482460" lon="2.2324890">
        <ele>600.8</ele>
        <time>2020-07-21T13:15:53Z</time>
      </trkpt>
      <trkpt lat="42.7482190" lon="2.2325770">
        <ele>599.8</ele>
        <time>2020-07-21T13:15:54Z</time>
      </trkpt>
      <trkpt lat="42.7481990" lon="2.2326660">
        <ele>598.8</ele>
        <time>2020-07-21T13:15:55Z</time>
      </trkpt>
      <trkpt lat="42.7481930" lon="2.2327610">
        <ele>598.2</ele>
        <time>2020-07-21T13:15:56Z</time>
      </trkpt>
      <trkpt lat="42.7482020" lon="2.2328540">
        <ele>597.6</ele>
        <time>2020-07-21T13:15:57Z</time>
      </trkpt>
      <trkpt lat="42.7482530" lon="2.2330300">
        <ele>596.8</ele>
        <time>2020-07-21T13:15:59Z</time>
      </trkpt>
      <trkpt lat="42.7483850" lon="2.2332800">
        <ele>595.4</ele>
        <time>2020-07-21T13:16:02Z</time>
      </trkpt>
      <trkpt lat="42.7484360" lon="2.2333530">
        <ele>594.8</ele>
        <time>2020-07-21T13:16:03Z</time>
      </trkpt>
      <trkpt lat="42.7484860" lon="2.2334170">
        <ele>594.0</ele>
        <time>2020-07-21T13:16:04Z</time>
      </trkpt>
      <trkpt lat="42.7485820" lon="2.2335270">
        <ele>593.0</ele>
        <time>2020-07-21T13:16:06Z</time>
      </trkpt>
      <trkpt lat="42.7486610" lon="2.2336220">
        <ele>592.4</ele>
        <time>2020-07-21T13:16:08Z</time>
      </trkpt>
      <trkpt lat="42.7486880" lon="2.2336580">
        <ele>592.2</ele>
        <time>2020-07-21T13:16:09Z</time>
      </trkpt>
      <trkpt lat="42.7487140" lon="2.2336940">
        <ele>592.0</ele>
        <time>2020-07-21T13:16:11Z</time>
      </trkpt>
      <trkpt lat="42.7488060" lon="2.2338070">
        <ele>592.0</ele>
        <time>2020-07-21T13:16:12Z</time>
      </trkpt>
      <trkpt lat="42.7488930" lon="2.2339180">
        <ele>590.6</ele>
        <time>2020-07-21T13:17:03Z</time>
      </trkpt>
      <trkpt lat="42.7489810" lon="2.2340300">
        <ele>590.2</ele>
        <time>2020-07-21T13:17:04Z</time>
      </trkpt>
      <trkpt lat="42.7490900" lon="2.2342310">
        <ele>589.4</ele>
        <time>2020-07-21T13:17:08Z</time>
      </trkpt>
      <trkpt lat="42.7491210" lon="2.2342960">
        <ele>589.0</ele>
        <time>2020-07-21T13:17:09Z</time>
      </trkpt>
      <trkpt lat="42.7491770" lon="2.2344430">
        <ele>588.0</ele>
        <time>2020-07-21T13:17:11Z</time>
      </trkpt>
      <trkpt lat="42.7492010" lon="2.2345260">
        <ele>587.6</ele>
        <time>2020-07-21T13:17:12Z</time>
      </trkpt>
      <trkpt lat="42.7492410" lon="2.2346930">
        <ele>586.8</ele>
        <time>2020-07-21T13:17:14Z</time>
      </trkpt>
      <trkpt lat="42.7492850" lon="2.2348330">
        <ele>586.0</ele>
        <time>2020-07-21T13:17:16Z</time>
      </trkpt>
      <trkpt lat="42.7493120" lon="2.2348860">
        <ele>585.6</ele>
        <time>2020-07-21T13:17:17Z</time>
      </trkpt>
      <trkpt lat="42.7493450" lon="2.2349260">
        <ele>585.4</ele>
        <time>2020-07-21T13:17:18Z</time>
      </trkpt>
      <trkpt lat="42.7494370" lon="2.2349920">
        <ele>585.0</ele>
        <time>2020-07-21T13:17:20Z</time>
      </trkpt>
      <trkpt lat="42.7495580" lon="2.2350380">
        <ele>584.2</ele>
        <time>2020-07-21T13:17:22Z</time>
      </trkpt>
      <trkpt lat="42.7497030" lon="2.2350720">
        <ele>582.6</ele>
        <time>2020-07-21T13:17:24Z</time>
      </trkpt>
      <trkpt lat="42.7498660" lon="2.2351030">
        <ele>581.0</ele>
        <time>2020-07-21T13:17:26Z</time>
      </trkpt>
      <trkpt lat="42.7500210" lon="2.2351010">
        <ele>579.4</ele>
        <time>2020-07-21T13:17:28Z</time>
      </trkpt>
      <trkpt lat="42.7501720" lon="2.2350530">
        <ele>578.4</ele>
        <time>2020-07-21T13:17:30Z</time>
      </trkpt>
      <trkpt lat="42.7503830" lon="2.2349160">
        <ele>577.8</ele>
        <time>2020-07-21T13:17:33Z</time>
      </trkpt>
      <trkpt lat="42.7504470" lon="2.2348560">
        <ele>577.8</ele>
        <time>2020-07-21T13:17:34Z</time>
      </trkpt>
      <trkpt lat="42.7505800" lon="2.2347250">
        <ele>577.2</ele>
        <time>2020-07-21T13:17:36Z</time>
      </trkpt>
      <trkpt lat="42.7507840" lon="2.2344880">
        <ele>574.6</ele>
        <time>2020-07-21T13:17:39Z</time>
      </trkpt>
      <trkpt lat="42.7509770" lon="2.2343000">
        <ele>573.2</ele>
        <time>2020-07-21T13:17:42Z</time>
      </trkpt>
      <trkpt lat="42.7510440" lon="2.2342660">
        <ele>572.6</ele>
        <time>2020-07-21T13:17:43Z</time>
      </trkpt>
      <trkpt lat="42.7511190" lon="2.2342490">
        <ele>572.2</ele>
        <time>2020-07-21T13:17:44Z</time>
      </trkpt>
      <trkpt lat="42.7511940" lon="2.2342430">
        <ele>571.8</ele>
        <time>2020-07-21T13:17:45Z</time>
      </trkpt>
      <trkpt lat="42.7514160" lon="2.2342660">
        <ele>571.2</ele>
        <time>2020-07-21T13:17:48Z</time>
      </trkpt>
      <trkpt lat="42.7514890" lon="2.2342810">
        <ele>570.6</ele>
        <time>2020-07-21T13:17:49Z</time>
      </trkpt>
      <trkpt lat="42.7516260" lon="2.2343380">
        <ele>569.0</ele>
        <time>2020-07-21T13:17:51Z</time>
      </trkpt>
      <trkpt lat="42.7516890" lon="2.2343810">
        <ele>568.6</ele>
        <time>2020-07-21T13:17:52Z</time>
      </trkpt>
      <trkpt lat="42.7518250" lon="2.2344560">
        <ele>568.2</ele>
        <time>2020-07-21T13:17:54Z</time>
      </trkpt>
      <trkpt lat="42.7518940" lon="2.2344600">
        <ele>567.8</ele>
        <time>2020-07-21T13:17:55Z</time>
      </trkpt>
      <trkpt lat="42.7519560" lon="2.2344400">
        <ele>567.4</ele>
        <time>2020-07-21T13:17:56Z</time>
      </trkpt>
      <trkpt lat="42.7520150" lon="2.2343980">
        <ele>566.8</ele>
        <time>2020-07-21T13:17:57Z</time>
      </trkpt>
      <trkpt lat="42.7520720" lon="2.2343440">
        <ele>566.6</ele>
        <time>2020-07-21T13:17:58Z</time>
      </trkpt>
      <trkpt lat="42.7521920" lon="2.2342280">
        <ele>566.2</ele>
        <time>2020-07-21T13:18:00Z</time>
      </trkpt>
      <trkpt lat="42.7522540" lon="2.2341740">
        <ele>566.0</ele>
        <time>2020-07-21T13:18:01Z</time>
      </trkpt>
      <trkpt lat="42.7523180" lon="2.2341260">
        <ele>566.0</ele>
        <time>2020-07-21T13:18:02Z</time>
      </trkpt>
      <trkpt lat="42.7524640" lon="2.2341010">
        <ele>565.8</ele>
        <time>2020-07-21T13:18:04Z</time>
      </trkpt>
      <trkpt lat="42.7525360" lon="2.2341280">
        <ele>565.8</ele>
        <time>2020-07-21T13:18:05Z</time>
      </trkpt>
      <trkpt lat="42.7526000" lon="2.2341740">
        <ele>565.6</ele>
        <time>2020-07-21T13:18:06Z</time>
      </trkpt>
      <trkpt lat="42.7526590" lon="2.2342420">
        <ele>565.6</ele>
        <time>2020-07-21T13:18:07Z</time>
      </trkpt>
      <trkpt lat="42.7527730" lon="2.2343870">
        <ele>564.8</ele>
        <time>2020-07-21T13:18:09Z</time>
      </trkpt>
      <trkpt lat="42.7528370" lon="2.2344470">
        <ele>564.6</ele>
        <time>2020-07-21T13:18:10Z</time>
      </trkpt>
      <trkpt lat="42.7529090" lon="2.2344740">
        <ele>564.4</ele>
        <time>2020-07-21T13:18:11Z</time>
      </trkpt>
      <trkpt lat="42.7529840" lon="2.2344730">
        <ele>564.4</ele>
        <time>2020-07-21T13:18:12Z</time>
      </trkpt>
      <trkpt lat="42.7531210" lon="2.2343850">
        <ele>564.4</ele>
        <time>2020-07-21T13:18:14Z</time>
      </trkpt>
      <trkpt lat="42.7532270" lon="2.2342070">
        <ele>564.4</ele>
        <time>2020-07-21T13:18:16Z</time>
      </trkpt>
      <trkpt lat="42.7532690" lon="2.2341040">
        <ele>564.2</ele>
        <time>2020-07-21T13:18:17Z</time>
      </trkpt>
      <trkpt lat="42.7533050" lon="2.2339930">
        <ele>564.0</ele>
        <time>2020-07-21T13:18:18Z</time>
      </trkpt>
      <trkpt lat="42.7533410" lon="2.2338840">
        <ele>563.6</ele>
        <time>2020-07-21T13:18:19Z</time>
      </trkpt>
      <trkpt lat="42.7534310" lon="2.2336690">
        <ele>562.2</ele>
        <time>2020-07-21T13:18:21Z</time>
      </trkpt>
      <trkpt lat="42.7534900" lon="2.2335840">
        <ele>561.2</ele>
        <time>2020-07-21T13:18:22Z</time>
      </trkpt>
      <trkpt lat="42.7535570" lon="2.2335080">
        <ele>560.6</ele>
        <time>2020-07-21T13:18:23Z</time>
      </trkpt>
      <trkpt lat="42.7537110" lon="2.2334180">
        <ele>560.2</ele>
        <time>2020-07-21T13:18:25Z</time>
      </trkpt>
      <trkpt lat="42.7539440" lon="2.2333030">
        <ele>560.6</ele>
        <time>2020-07-21T13:18:28Z</time>
      </trkpt>
      <trkpt lat="42.7540880" lon="2.2331910">
        <ele>561.4</ele>
        <time>2020-07-21T13:18:30Z</time>
      </trkpt>
      <trkpt lat="42.7543700" lon="2.2329750">
        <ele>560.8</ele>
        <time>2020-07-21T13:18:34Z</time>
      </trkpt>
      <trkpt lat="42.7545250" lon="2.2329100">
        <ele>558.8</ele>
        <time>2020-07-21T13:18:36Z</time>
      </trkpt>
      <trkpt lat="42.7546850" lon="2.2328770">
        <ele>557.6</ele>
        <time>2020-07-21T13:18:38Z</time>
      </trkpt>
      <trkpt lat="42.7549260" lon="2.2328300">
        <ele>557.2</ele>
        <time>2020-07-21T13:18:41Z</time>
      </trkpt>
      <trkpt lat="42.7550060" lon="2.2328120">
        <ele>556.6</ele>
        <time>2020-07-21T13:18:42Z</time>
      </trkpt>
      <trkpt lat="42.7550880" lon="2.2327910">
        <ele>556.4</ele>
        <time>2020-07-21T13:18:43Z</time>
      </trkpt>
      <trkpt lat="42.7555670" lon="2.2325980">
        <ele>555.6</ele>
        <time>2020-07-21T13:18:49Z</time>
      </trkpt>
      <trkpt lat="42.7558090" lon="2.2324860">
        <ele>555.2</ele>
        <time>2020-07-21T13:18:52Z</time>
      </trkpt>
      <trkpt lat="42.7559660" lon="2.2323830">
        <ele>554.8</ele>
        <time>2020-07-21T13:18:54Z</time>
      </trkpt>
      <trkpt lat="42.7560420" lon="2.2323290">
        <ele>554.6</ele>
        <time>2020-07-21T13:18:55Z</time>
      </trkpt>
      <trkpt lat="42.7561790" lon="2.2321960">
        <ele>554.2</ele>
        <time>2020-07-21T13:18:57Z</time>
      </trkpt>
      <trkpt lat="42.7562990" lon="2.2320240">
        <ele>554.0</ele>
        <time>2020-07-21T13:18:59Z</time>
      </trkpt>
      <trkpt lat="42.7563770" lon="2.2318080">
        <ele>553.8</ele>
        <time>2020-07-21T13:19:01Z</time>
      </trkpt>
      <trkpt lat="42.7564000" lon="2.2316960">
        <ele>553.8</ele>
        <time>2020-07-21T13:19:02Z</time>
      </trkpt>
      <trkpt lat="42.7564120" lon="2.2314530">
        <ele>553.4</ele>
        <time>2020-07-21T13:19:04Z</time>
      </trkpt>
      <trkpt lat="42.7563900" lon="2.2313290">
        <ele>552.8</ele>
        <time>2020-07-21T13:19:05Z</time>
      </trkpt>
      <trkpt lat="42.7563570" lon="2.2312110">
        <ele>551.6</ele>
        <time>2020-07-21T13:19:06Z</time>
      </trkpt>
      <trkpt lat="42.7562850" lon="2.2310030">
        <ele>550.0</ele>
        <time>2020-07-21T13:19:08Z</time>
      </trkpt>
      <trkpt lat="42.7562590" lon="2.2309080">
        <ele>549.4</ele>
        <time>2020-07-21T13:19:09Z</time>
      </trkpt>
      <trkpt lat="42.7562510" lon="2.2308190">
        <ele>549.2</ele>
        <time>2020-07-21T13:19:10Z</time>
      </trkpt>
      <trkpt lat="42.7562620" lon="2.2307310">
        <ele>549.0</ele>
        <time>2020-07-21T13:19:11Z</time>
      </trkpt>
      <trkpt lat="42.7562890" lon="2.2306530">
        <ele>548.8</ele>
        <time>2020-07-21T13:19:12Z</time>
      </trkpt>
      <trkpt lat="42.7563320" lon="2.2305920">
        <ele>548.6</ele>
        <time>2020-07-21T13:19:13Z</time>
      </trkpt>
      <trkpt lat="42.7564420" lon="2.2305100">
        <ele>548.4</ele>
        <time>2020-07-21T13:19:15Z</time>
      </trkpt>
      <trkpt lat="42.7565050" lon="2.2304880">
        <ele>548.2</ele>
        <time>2020-07-21T13:19:16Z</time>
      </trkpt>
      <trkpt lat="42.7566380" lon="2.2304510">
        <ele>547.2</ele>
        <time>2020-07-21T13:19:18Z</time>
      </trkpt>
      <trkpt lat="42.7569200" lon="2.2304160">
        <ele>546.4</ele>
        <time>2020-07-21T13:19:22Z</time>
      </trkpt>
      <trkpt lat="42.7573530" lon="2.2303570">
        <ele>546.6</ele>
        <time>2020-07-21T13:19:28Z</time>
      </trkpt>
      <trkpt lat="42.7574250" lon="2.2303380">
        <ele>546.4</ele>
        <time>2020-07-21T13:19:29Z</time>
      </trkpt>
      <trkpt lat="42.7575640" lon="2.2302810">
        <ele>546.4</ele>
        <time>2020-07-21T13:19:31Z</time>
      </trkpt>
      <trkpt lat="42.7576990" lon="2.2301850">
        <ele>546.2</ele>
        <time>2020-07-21T13:19:33Z</time>
      </trkpt>
      <trkpt lat="42.7578340" lon="2.2300800">
        <ele>545.8</ele>
        <time>2020-07-21T13:19:35Z</time>
      </trkpt>
      <trkpt lat="42.7580320" lon="2.2299150">
        <ele>545.2</ele>
        <time>2020-07-21T13:19:38Z</time>
      </trkpt>
      <trkpt lat="42.7580880" lon="2.2298380">
        <ele>545.0</ele>
        <time>2020-07-21T13:19:39Z</time>
      </trkpt>
      <trkpt lat="42.7581440" lon="2.2296380">
        <ele>544.8</ele>
        <time>2020-07-21T13:19:41Z</time>
      </trkpt>
      <trkpt lat="42.7581480" lon="2.2295260">
        <ele>544.8</ele>
        <time>2020-07-21T13:19:42Z</time>
      </trkpt>
      <trkpt lat="42.7581180" lon="2.2291820">
        <ele>543.8</ele>
        <time>2020-07-21T13:19:45Z</time>
      </trkpt>
      <trkpt lat="42.7580900" lon="2.2289490">
        <ele>543.2</ele>
        <time>2020-07-21T13:19:47Z</time>
      </trkpt>
      <trkpt lat="42.7580790" lon="2.2287240">
        <ele>542.6</ele>
        <time>2020-07-21T13:19:49Z</time>
      </trkpt>
      <trkpt lat="42.7581180" lon="2.2285210">
        <ele>542.4</ele>
        <time>2020-07-21T13:19:51Z</time>
      </trkpt>
      <trkpt lat="42.7582200" lon="2.2283960">
        <ele>542.4</ele>
        <time>2020-07-21T13:19:53Z</time>
      </trkpt>
      <trkpt lat="42.7582850" lon="2.2283700">
        <ele>542.0</ele>
        <time>2020-07-21T13:19:54Z</time>
      </trkpt>
      <trkpt lat="42.7583550" lon="2.2283600">
        <ele>541.4</ele>
        <time>2020-07-21T13:19:55Z</time>
      </trkpt>
      <trkpt lat="42.7585770" lon="2.2283690">
        <ele>540.6</ele>
        <time>2020-07-21T13:19:58Z</time>
      </trkpt>
      <trkpt lat="42.7586460" lon="2.2284090">
        <ele>540.4</ele>
        <time>2020-07-21T13:19:59Z</time>
      </trkpt>
      <trkpt lat="42.7587070" lon="2.2284650">
        <ele>540.2</ele>
        <time>2020-07-21T13:20:00Z</time>
      </trkpt>
      <trkpt lat="42.7587600" lon="2.2285340">
        <ele>540.2</ele>
        <time>2020-07-21T13:20:01Z</time>
      </trkpt>
      <trkpt lat="42.7589380" lon="2.2287360">
        <ele>539.2</ele>
        <time>2020-07-21T13:20:04Z</time>
      </trkpt>
      <trkpt lat="42.7590760" lon="2.2288330">
        <ele>538.6</ele>
        <time>2020-07-21T13:20:06Z</time>
      </trkpt>
      <trkpt lat="42.7592280" lon="2.2288660">
        <ele>538.4</ele>
        <time>2020-07-21T13:20:08Z</time>
      </trkpt>
      <trkpt lat="42.7593050" lon="2.2288630">
        <ele>538.2</ele>
        <time>2020-07-21T13:20:09Z</time>
      </trkpt>
      <trkpt lat="42.7593820" lon="2.2288450">
        <ele>538.2</ele>
        <time>2020-07-21T13:20:10Z</time>
      </trkpt>
      <trkpt lat="42.7595250" lon="2.2287550">
        <ele>538.0</ele>
        <time>2020-07-21T13:20:12Z</time>
      </trkpt>
      <trkpt lat="42.7596510" lon="2.2286100">
        <ele>537.6</ele>
        <time>2020-07-21T13:20:14Z</time>
      </trkpt>
      <trkpt lat="42.7597440" lon="2.2284140">
        <ele>537.2</ele>
        <time>2020-07-21T13:20:16Z</time>
      </trkpt>
      <trkpt lat="42.7597690" lon="2.2282990">
        <ele>537.2</ele>
        <time>2020-07-21T13:20:17Z</time>
      </trkpt>
      <trkpt lat="42.7597780" lon="2.2281820">
        <ele>537.2</ele>
        <time>2020-07-21T13:20:18Z</time>
      </trkpt>
      <trkpt lat="42.7597710" lon="2.2280690">
        <ele>537.2</ele>
        <time>2020-07-21T13:20:19Z</time>
      </trkpt>
      <trkpt lat="42.7597510" lon="2.2279600">
        <ele>536.8</ele>
        <time>2020-07-21T13:20:20Z</time>
      </trkpt>
      <trkpt lat="42.7597030" lon="2.2277520">
        <ele>535.6</ele>
        <time>2020-07-21T13:20:22Z</time>
      </trkpt>
      <trkpt lat="42.7596970" lon="2.2276490">
        <ele>535.0</ele>
        <time>2020-07-21T13:20:23Z</time>
      </trkpt>
      <trkpt lat="42.7597100" lon="2.2275540">
        <ele>534.6</ele>
        <time>2020-07-21T13:20:24Z</time>
      </trkpt>
      <trkpt lat="42.7597380" lon="2.2274650">
        <ele>534.2</ele>
        <time>2020-07-21T13:20:25Z</time>
      </trkpt>
      <trkpt lat="42.7597780" lon="2.2273880">
        <ele>534.0</ele>
        <time>2020-07-21T13:20:26Z</time>
      </trkpt>
      <trkpt lat="42.7599310" lon="2.2271680">
        <ele>533.4</ele>
        <time>2020-07-21T13:20:29Z</time>
      </trkpt>
      <trkpt lat="42.7599780" lon="2.2270850">
        <ele>533.4</ele>
        <time>2020-07-21T13:20:30Z</time>
      </trkpt>
      <trkpt lat="42.7600180" lon="2.2269910">
        <ele>533.4</ele>
        <time>2020-07-21T13:20:31Z</time>
      </trkpt>
      <trkpt lat="42.7600530" lon="2.2268900">
        <ele>533.2</ele>
        <time>2020-07-21T13:20:32Z</time>
      </trkpt>
      <trkpt lat="42.7601240" lon="2.2265630">
        <ele>533.0</ele>
        <time>2020-07-21T13:20:35Z</time>
      </trkpt>
      <trkpt lat="42.7602090" lon="2.2262570">
        <ele>532.0</ele>
        <time>2020-07-21T13:20:38Z</time>
      </trkpt>
      <trkpt lat="42.7602820" lon="2.2260750">
        <ele>530.2</ele>
        <time>2020-07-21T13:20:40Z</time>
      </trkpt>
      <trkpt lat="42.7603870" lon="2.2258150">
        <ele>529.4</ele>
        <time>2020-07-21T13:20:43Z</time>
      </trkpt>
      <trkpt lat="42.7604260" lon="2.2257350">
        <ele>528.8</ele>
        <time>2020-07-21T13:20:44Z</time>
      </trkpt>
      <trkpt lat="42.7604730" lon="2.2256660">
        <ele>528.6</ele>
        <time>2020-07-21T13:20:45Z</time>
      </trkpt>
      <trkpt lat="42.7605250" lon="2.2256110">
        <ele>528.4</ele>
        <time>2020-07-21T13:20:46Z</time>
      </trkpt>
      <trkpt lat="42.7605850" lon="2.2255710">
        <ele>528.6</ele>
        <time>2020-07-21T13:20:47Z</time>
      </trkpt>
      <trkpt lat="42.7607200" lon="2.2255300">
        <ele>528.6</ele>
        <time>2020-07-21T13:20:49Z</time>
      </trkpt>
      <trkpt lat="42.7610940" lon="2.2254500">
        <ele>528.6</ele>
        <time>2020-07-21T13:20:54Z</time>
      </trkpt>
      <trkpt lat="42.7611740" lon="2.2254340">
        <ele>528.2</ele>
        <time>2020-07-21T13:20:55Z</time>
      </trkpt>
      <trkpt lat="42.7613380" lon="2.2254210">
        <ele>527.6</ele>
        <time>2020-07-21T13:20:57Z</time>
      </trkpt>
      <trkpt lat="42.7615800" lon="2.2253730">
        <ele>527.0</ele>
        <time>2020-07-21T13:21:00Z</time>
      </trkpt>
      <trkpt lat="42.7617130" lon="2.2252520">
        <ele>527.0</ele>
        <time>2020-07-21T13:21:02Z</time>
      </trkpt>
      <trkpt lat="42.7617720" lon="2.2251790">
        <ele>527.0</ele>
        <time>2020-07-21T13:21:03Z</time>
      </trkpt>
      <trkpt lat="42.7618020" lon="2.2250670">
        <ele>527.2</ele>
        <time>2020-07-21T13:21:04Z</time>
      </trkpt>
      <trkpt lat="42.7618410" lon="2.2249560">
        <ele>527.0</ele>
        <time>2020-07-21T13:21:05Z</time>
      </trkpt>
      <trkpt lat="42.7619870" lon="2.2245290">
        <ele>526.2</ele>
        <time>2020-07-21T13:21:09Z</time>
      </trkpt>
      <trkpt lat="42.7620980" lon="2.2242360">
        <ele>525.2</ele>
        <time>2020-07-21T13:21:12Z</time>
      </trkpt>
      <trkpt lat="42.7622080" lon="2.2237160">
        <ele>525.0</ele>
        <time>2020-07-21T13:21:17Z</time>
      </trkpt>
      <trkpt lat="42.7622680" lon="2.2234060">
        <ele>525.0</ele>
        <time>2020-07-21T13:21:20Z</time>
      </trkpt>
      <trkpt lat="42.7623040" lon="2.2233150">
        <ele>524.6</ele>
        <time>2020-07-21T13:21:21Z</time>
      </trkpt>
      <trkpt lat="42.7623470" lon="2.2232320">
        <ele>524.0</ele>
        <time>2020-07-21T13:21:22Z</time>
      </trkpt>
      <trkpt lat="42.7624520" lon="2.2230770">
        <ele>523.2</ele>
        <time>2020-07-21T13:21:24Z</time>
      </trkpt>
      <trkpt lat="42.7625120" lon="2.2230070">
        <ele>522.6</ele>
        <time>2020-07-21T13:21:25Z</time>
      </trkpt>
      <trkpt lat="42.7625740" lon="2.2229390">
        <ele>522.0</ele>
        <time>2020-07-21T13:21:26Z</time>
      </trkpt>
      <trkpt lat="42.7627520" lon="2.2227130">
        <ele>521.4</ele>
        <time>2020-07-21T13:21:29Z</time>
      </trkpt>
      <trkpt lat="42.7629230" lon="2.2224810">
        <ele>520.6</ele>
        <time>2020-07-21T13:21:32Z</time>
      </trkpt>
      <trkpt lat="42.7629840" lon="2.2224090">
        <ele>520.2</ele>
        <time>2020-07-21T13:21:33Z</time>
      </trkpt>
      <trkpt lat="42.7631740" lon="2.2222110">
        <ele>519.8</ele>
        <time>2020-07-21T13:21:36Z</time>
      </trkpt>
      <trkpt lat="42.7632900" lon="2.2220750">
        <ele>519.6</ele>
        <time>2020-07-21T13:21:38Z</time>
      </trkpt>
      <trkpt lat="42.7633960" lon="2.2219320">
        <ele>518.8</ele>
        <time>2020-07-21T13:21:40Z</time>
      </trkpt>
      <trkpt lat="42.7636130" lon="2.2216480">
        <ele>518.6</ele>
        <time>2020-07-21T13:21:44Z</time>
      </trkpt>
      <trkpt lat="42.7639490" lon="2.2212260">
        <ele>518.8</ele>
        <time>2020-07-21T13:21:50Z</time>
      </trkpt>
      <trkpt lat="42.7640590" lon="2.2210780">
        <ele>518.6</ele>
        <time>2020-07-21T13:21:52Z</time>
      </trkpt>
      <trkpt lat="42.7642150" lon="2.2208400">
        <ele>518.6</ele>
        <time>2020-07-21T13:21:55Z</time>
      </trkpt>
      <trkpt lat="42.7642660" lon="2.2207630">
        <ele>518.4</ele>
        <time>2020-07-21T13:21:56Z</time>
      </trkpt>
      <trkpt lat="42.7645330" lon="2.2203950">
        <ele>518.0</ele>
        <time>2020-07-21T13:22:01Z</time>
      </trkpt>
      <trkpt lat="42.7646510" lon="2.2202610">
        <ele>517.6</ele>
        <time>2020-07-21T13:22:03Z</time>
      </trkpt>
      <trkpt lat="42.7647720" lon="2.2201240">
        <ele>517.0</ele>
        <time>2020-07-21T13:22:05Z</time>
      </trkpt>
      <trkpt lat="42.7648920" lon="2.2199840">
        <ele>516.4</ele>
        <time>2020-07-21T13:22:07Z</time>
      </trkpt>
      <trkpt lat="42.7649450" lon="2.2199030">
        <ele>516.0</ele>
        <time>2020-07-21T13:22:08Z</time>
      </trkpt>
      <trkpt lat="42.7649940" lon="2.2198160">
        <ele>515.8</ele>
        <time>2020-07-21T13:22:09Z</time>
      </trkpt>
      <trkpt lat="42.7650390" lon="2.2197240">
        <ele>515.4</ele>
        <time>2020-07-21T13:22:10Z</time>
      </trkpt>
      <trkpt lat="42.7650810" lon="2.2196270">
        <ele>515.2</ele>
        <time>2020-07-21T13:22:11Z</time>
      </trkpt>
      <trkpt lat="42.7651920" lon="2.2193180">
        <ele>513.8</ele>
        <time>2020-07-21T13:22:14Z</time>
      </trkpt>
      <trkpt lat="42.7652960" lon="2.2189880">
        <ele>513.0</ele>
        <time>2020-07-21T13:22:17Z</time>
      </trkpt>
      <trkpt lat="42.7653710" lon="2.2187640">
        <ele>512.4</ele>
        <time>2020-07-21T13:22:19Z</time>
      </trkpt>
      <trkpt lat="42.7654570" lon="2.2185460">
        <ele>511.4</ele>
        <time>2020-07-21T13:22:21Z</time>
      </trkpt>
      <trkpt lat="42.7655030" lon="2.2184380">
        <ele>510.6</ele>
        <time>2020-07-21T13:22:22Z</time>
      </trkpt>
      <trkpt lat="42.7655590" lon="2.2183360">
        <ele>509.8</ele>
        <time>2020-07-21T13:22:23Z</time>
      </trkpt>
      <trkpt lat="42.7656890" lon="2.2181490">
        <ele>508.4</ele>
        <time>2020-07-21T13:22:25Z</time>
      </trkpt>
      <trkpt lat="42.7657650" lon="2.2180680">
        <ele>507.6</ele>
        <time>2020-07-21T13:22:26Z</time>
      </trkpt>
      <trkpt lat="42.7658450" lon="2.2179990">
        <ele>507.0</ele>
        <time>2020-07-21T13:22:27Z</time>
      </trkpt>
      <trkpt lat="42.7660940" lon="2.2178360">
        <ele>505.2</ele>
        <time>2020-07-21T13:22:30Z</time>
      </trkpt>
      <trkpt lat="42.7661780" lon="2.2178100">
        <ele>504.2</ele>
        <time>2020-07-21T13:22:31Z</time>
      </trkpt>
      <trkpt lat="42.7663470" lon="2.2178100">
        <ele>503.0</ele>
        <time>2020-07-21T13:22:33Z</time>
      </trkpt>
      <trkpt lat="42.7665100" lon="2.2178760">
        <ele>502.4</ele>
        <time>2020-07-21T13:22:35Z</time>
      </trkpt>
      <trkpt lat="42.7665860" lon="2.2179290">
        <ele>502.2</ele>
        <time>2020-07-21T13:22:36Z</time>
      </trkpt>
      <trkpt lat="42.7667320" lon="2.2180440">
        <ele>501.8</ele>
        <time>2020-07-21T13:22:38Z</time>
      </trkpt>
      <trkpt lat="42.7669460" lon="2.2182330">
        <ele>501.0</ele>
        <time>2020-07-21T13:22:41Z</time>
      </trkpt>
      <trkpt lat="42.7670150" lon="2.2182990">
        <ele>500.8</ele>
        <time>2020-07-21T13:22:42Z</time>
      </trkpt>
      <trkpt lat="42.7673100" lon="2.2185350">
        <ele>500.4</ele>
        <time>2020-07-21T13:22:46Z</time>
      </trkpt>
      <trkpt lat="42.7673960" lon="2.2185640">
        <ele>500.4</ele>
        <time>2020-07-21T13:22:47Z</time>
      </trkpt>
      <trkpt lat="42.7674850" lon="2.2185780">
        <ele>500.2</ele>
        <time>2020-07-21T13:22:48Z</time>
      </trkpt>
      <trkpt lat="42.7676650" lon="2.2185580">
        <ele>499.4</ele>
        <time>2020-07-21T13:22:50Z</time>
      </trkpt>
      <trkpt lat="42.7678420" lon="2.2184910">
        <ele>498.6</ele>
        <time>2020-07-21T13:22:52Z</time>
      </trkpt>
      <trkpt lat="42.7679250" lon="2.2184310">
        <ele>498.2</ele>
        <time>2020-07-21T13:22:53Z</time>
      </trkpt>
      <trkpt lat="42.7680010" lon="2.2183490">
        <ele>498.0</ele>
        <time>2020-07-21T13:22:54Z</time>
      </trkpt>
      <trkpt lat="42.7682180" lon="2.2181060">
        <ele>496.8</ele>
        <time>2020-07-21T13:22:57Z</time>
      </trkpt>
      <trkpt lat="42.7684170" lon="2.2178560">
        <ele>495.8</ele>
        <time>2020-07-21T13:23:00Z</time>
      </trkpt>
      <trkpt lat="42.7684750" lon="2.2177650">
        <ele>495.6</ele>
        <time>2020-07-21T13:23:01Z</time>
      </trkpt>
      <trkpt lat="42.7685250" lon="2.2176660">
        <ele>495.6</ele>
        <time>2020-07-21T13:23:02Z</time>
      </trkpt>
      <trkpt lat="42.7686010" lon="2.2174510">
        <ele>495.6</ele>
        <time>2020-07-21T13:23:04Z</time>
      </trkpt>
      <trkpt lat="42.7687440" lon="2.2167960">
        <ele>494.6</ele>
        <time>2020-07-21T13:23:10Z</time>
      </trkpt>
      <trkpt lat="42.7687510" lon="2.2166860">
        <ele>494.6</ele>
        <time>2020-07-21T13:23:11Z</time>
      </trkpt>
      <trkpt lat="42.7687250" lon="2.2164690">
        <ele>494.0</ele>
        <time>2020-07-21T13:23:13Z</time>
      </trkpt>
      <trkpt lat="42.7685750" lon="2.2159910">
        <ele>493.6</ele>
        <time>2020-07-21T13:23:18Z</time>
      </trkpt>
      <trkpt lat="42.7685290" lon="2.2159070">
        <ele>493.4</ele>
        <time>2020-07-21T13:23:19Z</time>
      </trkpt>
      <trkpt lat="42.7684410" lon="2.2157340">
        <ele>492.8</ele>
        <time>2020-07-21T13:23:21Z</time>
      </trkpt>
      <trkpt lat="42.7684150" lon="2.2155530">
        <ele>492.2</ele>
        <time>2020-07-21T13:23:23Z</time>
      </trkpt>
      <trkpt lat="42.7684700" lon="2.2153980">
        <ele>491.6</ele>
        <time>2020-07-21T13:23:25Z</time>
      </trkpt>
      <trkpt lat="42.7685220" lon="2.2153430">
        <ele>491.4</ele>
        <time>2020-07-21T13:23:26Z</time>
      </trkpt>
      <trkpt lat="42.7685780" lon="2.2152950">
        <ele>491.0</ele>
        <time>2020-07-21T13:23:27Z</time>
      </trkpt>
      <trkpt lat="42.7686410" lon="2.2152570">
        <ele>490.6</ele>
        <time>2020-07-21T13:23:28Z</time>
      </trkpt>
      <trkpt lat="42.7687790" lon="2.2152300">
        <ele>490.2</ele>
        <time>2020-07-21T13:23:30Z</time>
      </trkpt>
      <trkpt lat="42.7689240" lon="2.2152720">
        <ele>489.8</ele>
        <time>2020-07-21T13:23:32Z</time>
      </trkpt>
      <trkpt lat="42.7690700" lon="2.2153570">
        <ele>489.6</ele>
        <time>2020-07-21T13:23:34Z</time>
      </trkpt>
      <trkpt lat="42.7693820" lon="2.2155640">
        <ele>488.4</ele>
        <time>2020-07-21T13:23:38Z</time>
      </trkpt>
      <trkpt lat="42.7695410" lon="2.2155560">
        <ele>487.2</ele>
        <time>2020-07-21T13:23:41Z</time>
      </trkpt>
      <trkpt lat="42.7697010" lon="2.2155470">
        <ele>486.2</ele>
        <time>2020-07-21T13:23:43Z</time>
      </trkpt>
      <trkpt lat="42.7698600" lon="2.2155390">
        <ele>485.0</ele>
        <time>2020-07-21T13:23:46Z</time>
      </trkpt>
      <trkpt lat="42.7700190" lon="2.2155300">
        <ele>484.0</ele>
        <time>2020-07-21T13:23:48Z</time>
      </trkpt>
      <trkpt lat="42.7703380" lon="2.2155130">
        <ele>483.4</ele>
        <time>2020-07-21T13:23:49Z</time>
      </trkpt>
      <trkpt lat="42.7704970" lon="2.2153570">
        <ele>482.4</ele>
        <time>2020-07-21T13:23:51Z</time>
      </trkpt>
      <trkpt lat="42.7706550" lon="2.2151810">
        <ele>481.2</ele>
        <time>2020-07-21T13:23:53Z</time>
      </trkpt>
      <trkpt lat="42.7707240" lon="2.2150810">
        <ele>480.6</ele>
        <time>2020-07-21T13:23:54Z</time>
      </trkpt>
      <trkpt lat="42.7708920" lon="2.2147680">
        <ele>480.8</ele>
        <time>2020-07-21T13:23:57Z</time>
      </trkpt>
      <trkpt lat="42.7710640" lon="2.2142190">
        <ele>481.4</ele>
        <time>2020-07-21T13:24:02Z</time>
      </trkpt>
      <trkpt lat="42.7711540" lon="2.2137670">
        <ele>480.2</ele>
        <time>2020-07-21T13:24:06Z</time>
      </trkpt>
      <trkpt lat="42.7711760" lon="2.2136610">
        <ele>479.8</ele>
        <time>2020-07-21T13:24:07Z</time>
      </trkpt>
      <trkpt lat="42.7712540" lon="2.2133650">
        <ele>478.6</ele>
        <time>2020-07-21T13:24:10Z</time>
      </trkpt>
      <trkpt lat="42.7712950" lon="2.2132950">
        <ele>478.6</ele>
        <time>2020-07-21T13:24:11Z</time>
      </trkpt>
      <trkpt lat="42.7713450" lon="2.2132590">
        <ele>478.6</ele>
        <time>2020-07-21T13:24:12Z</time>
      </trkpt>
      <trkpt lat="42.7713970" lon="2.2132510">
        <ele>478.6</ele>
        <time>2020-07-21T13:24:13Z</time>
      </trkpt>
      <trkpt lat="42.7714450" lon="2.2132700">
        <ele>478.4</ele>
        <time>2020-07-21T13:24:14Z</time>
      </trkpt>
      <trkpt lat="42.7715220" lon="2.2133480">
        <ele>478.2</ele>
        <time>2020-07-21T13:24:16Z</time>
      </trkpt>
      <trkpt lat="42.7717150" lon="2.2136420">
        <ele>478.2</ele>
        <time>2020-07-21T13:24:21Z</time>
      </trkpt>
      <trkpt lat="42.7717510" lon="2.2137070">
        <ele>478.2</ele>
        <time>2020-07-21T13:24:22Z</time>
      </trkpt>
      <trkpt lat="42.7718450" lon="2.2138200">
        <ele>478.0</ele>
        <time>2020-07-21T13:24:24Z</time>
      </trkpt>
      <trkpt lat="42.7719870" lon="2.2137860">
        <ele>477.8</ele>
        <time>2020-07-21T13:24:28Z</time>
      </trkpt>
      <trkpt lat="42.7721280" lon="2.2137510">
        <ele>477.6</ele>
        <time>2020-07-21T13:24:29Z</time>
      </trkpt>
      <trkpt lat="42.7722700" lon="2.2137170">
        <ele>476.4</ele>
        <time>2020-07-21T13:24:35Z</time>
      </trkpt>
      <trkpt lat="42.7724110" lon="2.2136820">
        <ele>475.2</ele>
        <time>2020-07-21T13:24:40Z</time>
      </trkpt>
      <trkpt lat="42.7725530" lon="2.2136480">
        <ele>474.8</ele>
        <time>2020-07-21T13:24:42Z</time>
      </trkpt>
      <trkpt lat="42.7729070" lon="2.2135620">
        <ele>474.4</ele>
        <time>2020-07-21T13:24:43Z</time>
      </trkpt>
      <trkpt lat="42.7729530" lon="2.2135450">
        <ele>473.6</ele>
        <time>2020-07-21T13:24:44Z</time>
      </trkpt>
      <trkpt lat="42.7730050" lon="2.2135520">
        <ele>472.8</ele>
        <time>2020-07-21T13:24:45Z</time>
      </trkpt>
      <trkpt lat="42.7730540" lon="2.2135630">
        <ele>472.2</ele>
        <time>2020-07-21T13:24:46Z</time>
      </trkpt>
      <trkpt lat="42.7731070" lon="2.2135820">
        <ele>471.8</ele>
        <time>2020-07-21T13:24:47Z</time>
      </trkpt>
      <trkpt lat="42.7731630" lon="2.2135960">
        <ele>471.6</ele>
        <time>2020-07-21T13:24:48Z</time>
      </trkpt>
      <trkpt lat="42.7732240" lon="2.2136100">
        <ele>471.2</ele>
        <time>2020-07-21T13:24:49Z</time>
      </trkpt>
      <trkpt lat="42.7732900" lon="2.2136230">
        <ele>470.4</ele>
        <time>2020-07-21T13:24:50Z</time>
      </trkpt>
      <trkpt lat="42.7733560" lon="2.2136380">
        <ele>469.6</ele>
        <time>2020-07-21T13:24:51Z</time>
      </trkpt>
      <trkpt lat="42.7734240" lon="2.2136680">
        <ele>469.2</ele>
        <time>2020-07-21T13:24:52Z</time>
      </trkpt>
      <trkpt lat="42.7734870" lon="2.2137070">
        <ele>468.6</ele>
        <time>2020-07-21T13:24:53Z</time>
      </trkpt>
      <trkpt lat="42.7735480" lon="2.2137460">
        <ele>468.0</ele>
        <time>2020-07-21T13:24:54Z</time>
      </trkpt>
      <trkpt lat="42.7736060" lon="2.2137870">
        <ele>467.4</ele>
        <time>2020-07-21T13:24:55Z</time>
      </trkpt>
      <trkpt lat="42.7736950" lon="2.2139370">
        <ele>466.8</ele>
        <time>2020-07-21T13:24:56Z</time>
      </trkpt>
      <trkpt lat="42.7738210" lon="2.2141550">
        <ele>466.2</ele>
        <time>2020-07-21T13:24:58Z</time>
      </trkpt>
      <trkpt lat="42.7738600" lon="2.2142460">
        <ele>466.0</ele>
        <time>2020-07-21T13:24:59Z</time>
      </trkpt>
      <trkpt lat="42.7738860" lon="2.2143470">
        <ele>465.8</ele>
        <time>2020-07-21T13:25:00Z</time>
      </trkpt>
      <trkpt lat="42.7739360" lon="2.2145810">
        <ele>465.0</ele>
        <time>2020-07-21T13:25:02Z</time>
      </trkpt>
      <trkpt lat="42.7740460" lon="2.2149120">
        <ele>462.8</ele>
        <time>2020-07-21T13:25:05Z</time>
      </trkpt>
      <trkpt lat="42.7740860" lon="2.2150270">
        <ele>461.6</ele>
        <time>2020-07-21T13:25:06Z</time>
      </trkpt>
      <trkpt lat="42.7741230" lon="2.2151520">
        <ele>460.4</ele>
        <time>2020-07-21T13:25:07Z</time>
      </trkpt>
      <trkpt lat="42.7741550" lon="2.2152820">
        <ele>459.2</ele>
        <time>2020-07-21T13:25:08Z</time>
      </trkpt>
      <trkpt lat="42.7742510" lon="2.2155350">
        <ele>457.4</ele>
        <time>2020-07-21T13:25:10Z</time>
      </trkpt>
      <trkpt lat="42.7743520" lon="2.2157910">
        <ele>456.6</ele>
        <time>2020-07-21T13:25:12Z</time>
      </trkpt>
      <trkpt lat="42.7743990" lon="2.2159170">
        <ele>456.4</ele>
        <time>2020-07-21T13:25:13Z</time>
      </trkpt>
      <trkpt lat="42.7745730" lon="2.2163700">
        <ele>455.6</ele>
        <time>2020-07-21T13:25:17Z</time>
      </trkpt>
      <trkpt lat="42.7746110" lon="2.2164730">
        <ele>455.2</ele>
        <time>2020-07-21T13:25:18Z</time>
      </trkpt>
      <trkpt lat="42.7746620" lon="2.2165620">
        <ele>454.6</ele>
        <time>2020-07-21T13:25:19Z</time>
      </trkpt>
      <trkpt lat="42.7748540" lon="2.2167110">
        <ele>454.2</ele>
        <time>2020-07-21T13:25:21Z</time>
      </trkpt>
      <trkpt lat="42.7749320" lon="2.2167760">
        <ele>453.8</ele>
        <time>2020-07-21T13:25:22Z</time>
      </trkpt>
      <trkpt lat="42.7750090" lon="2.2168310">
        <ele>453.4</ele>
        <time>2020-07-21T13:25:23Z</time>
      </trkpt>
      <trkpt lat="42.7750910" lon="2.2168490">
        <ele>453.2</ele>
        <time>2020-07-21T13:25:24Z</time>
      </trkpt>
      <trkpt lat="42.7751750" lon="2.2168470">
        <ele>452.8</ele>
        <time>2020-07-21T13:25:25Z</time>
      </trkpt>
      <trkpt lat="42.7752590" lon="2.2168280">
        <ele>452.2</ele>
        <time>2020-07-21T13:25:26Z</time>
      </trkpt>
      <trkpt lat="42.7753420" lon="2.2168010">
        <ele>451.2</ele>
        <time>2020-07-21T13:25:27Z</time>
      </trkpt>
      <trkpt lat="42.7755030" lon="2.2167830">
        <ele>449.4</ele>
        <time>2020-07-21T13:25:29Z</time>
      </trkpt>
      <trkpt lat="42.7755850" lon="2.2167800">
        <ele>448.8</ele>
        <time>2020-07-21T13:25:30Z</time>
      </trkpt>
      <trkpt lat="42.7756660" lon="2.2167910">
        <ele>448.2</ele>
        <time>2020-07-21T13:25:31Z</time>
      </trkpt>
      <trkpt lat="42.7758310" lon="2.2168450">
        <ele>446.8</ele>
        <time>2020-07-21T13:25:33Z</time>
      </trkpt>
      <trkpt lat="42.7759180" lon="2.2168780">
        <ele>446.0</ele>
        <time>2020-07-21T13:25:34Z</time>
      </trkpt>
      <trkpt lat="42.7760040" lon="2.2169000">
        <ele>445.0</ele>
        <time>2020-07-21T13:25:35Z</time>
      </trkpt>
      <trkpt lat="42.7761730" lon="2.2169350">
        <ele>443.2</ele>
        <time>2020-07-21T13:25:37Z</time>
      </trkpt>
      <trkpt lat="42.7762470" lon="2.2169600">
        <ele>442.2</ele>
        <time>2020-07-21T13:25:38Z</time>
      </trkpt>
      <trkpt lat="42.7763190" lon="2.2170120">
        <ele>441.6</ele>
        <time>2020-07-21T13:25:39Z</time>
      </trkpt>
      <trkpt lat="42.7764010" lon="2.2171000">
        <ele>441.0</ele>
        <time>2020-07-21T13:25:40Z</time>
      </trkpt>
      <trkpt lat="42.7764740" lon="2.2171800">
        <ele>440.2</ele>
        <time>2020-07-21T13:25:41Z</time>
      </trkpt>
      <trkpt lat="42.7766070" lon="2.2173450">
        <ele>439.0</ele>
        <time>2020-07-21T13:25:43Z</time>
      </trkpt>
      <trkpt lat="42.7766800" lon="2.2174640">
        <ele>438.8</ele>
        <time>2020-07-21T13:25:44Z</time>
      </trkpt>
      <trkpt lat="42.7768110" lon="2.2176770">
        <ele>438.0</ele>
        <time>2020-07-21T13:25:46Z</time>
      </trkpt>
      <trkpt lat="42.7769650" lon="2.2179890">
        <ele>436.6</ele>
        <time>2020-07-21T13:25:49Z</time>
      </trkpt>
      <trkpt lat="42.7771550" lon="2.2183560">
        <ele>435.4</ele>
        <time>2020-07-21T13:25:53Z</time>
      </trkpt>
      <trkpt lat="42.7772120" lon="2.2184300">
        <ele>435.2</ele>
        <time>2020-07-21T13:25:54Z</time>
      </trkpt>
      <trkpt lat="42.7773740" lon="2.2185930">
        <ele>435.2</ele>
        <time>2020-07-21T13:25:57Z</time>
      </trkpt>
      <trkpt lat="42.7774250" lon="2.2186140">
        <ele>435.4</ele>
        <time>2020-07-21T13:25:58Z</time>
      </trkpt>
      <trkpt lat="42.7775170" lon="2.2186170">
        <ele>435.2</ele>
        <time>2020-07-21T13:26:00Z</time>
      </trkpt>
      <trkpt lat="42.7775810" lon="2.2186050">
        <ele>435.6</ele>
        <time>2020-07-21T13:26:02Z</time>
      </trkpt>
      <trkpt lat="42.7777230" lon="2.2186090">
        <ele>436.2</ele>
        <time>2020-07-21T13:26:07Z</time>
      </trkpt>
      <trkpt lat="42.7778050" lon="2.2186250">
        <ele>436.0</ele>
        <time>2020-07-21T13:26:09Z</time>
      </trkpt>
      <trkpt lat="42.7779060" lon="2.2186310">
        <ele>435.4</ele>
        <time>2020-07-21T13:26:11Z</time>
      </trkpt>
      <trkpt lat="42.7779580" lon="2.2186430">
        <ele>435.4</ele>
        <time>2020-07-21T13:26:12Z</time>
      </trkpt>
      <trkpt lat="42.7782950" lon="2.2187270">
        <ele>434.8</ele>
        <time>2020-07-21T13:26:18Z</time>
      </trkpt>
      <trkpt lat="42.7783500" lon="2.2187530">
        <ele>434.6</ele>
        <time>2020-07-21T13:26:19Z</time>
      </trkpt>
      <trkpt lat="42.7784040" lon="2.2187810">
        <ele>434.4</ele>
        <time>2020-07-21T13:26:20Z</time>
      </trkpt>
      <trkpt lat="42.7786260" lon="2.2188900">
        <ele>433.8</ele>
        <time>2020-07-21T13:26:24Z</time>
      </trkpt>
      <trkpt lat="42.7788830" lon="2.2190340">
        <ele>434.2</ele>
        <time>2020-07-21T13:26:28Z</time>
      </trkpt>
      <trkpt lat="42.7793080" lon="2.2191810">
        <ele>434.2</ele>
        <time>2020-07-21T13:26:34Z</time>
      </trkpt>
      <trkpt lat="42.7793780" lon="2.2192240">
        <ele>434.0</ele>
        <time>2020-07-21T13:26:35Z</time>
      </trkpt>
      <trkpt lat="42.7796290" lon="2.2193920">
        <ele>433.2</ele>
        <time>2020-07-21T13:26:39Z</time>
      </trkpt>
      <trkpt lat="42.7797580" lon="2.2195010">
        <ele>432.4</ele>
        <time>2020-07-21T13:26:41Z</time>
      </trkpt>
      <trkpt lat="42.7800460" lon="2.2198630">
        <ele>434.0</ele>
        <time>2020-07-21T13:26:46Z</time>
      </trkpt>
      <trkpt lat="42.7801030" lon="2.2199320">
        <ele>434.2</ele>
        <time>2020-07-21T13:26:47Z</time>
      </trkpt>
      <trkpt lat="42.7804160" lon="2.2202110">
        <ele>434.2</ele>
        <time>2020-07-21T13:26:52Z</time>
      </trkpt>
      <trkpt lat="42.7806300" lon="2.2202980">
        <ele>433.2</ele>
        <time>2020-07-21T13:26:55Z</time>
      </trkpt>
      <trkpt lat="42.7807770" lon="2.2203380">
        <ele>432.6</ele>
        <time>2020-07-21T13:26:57Z</time>
      </trkpt>
      <trkpt lat="42.7809210" lon="2.2203690">
        <ele>431.8</ele>
        <time>2020-07-21T13:26:59Z</time>
      </trkpt>
      <trkpt lat="42.7810610" lon="2.2204020">
        <ele>431.6</ele>
        <time>2020-07-21T13:27:01Z</time>
      </trkpt>
      <trkpt lat="42.7812690" lon="2.2204580">
        <ele>431.4</ele>
        <time>2020-07-21T13:27:04Z</time>
      </trkpt>
      <trkpt lat="42.7813390" lon="2.2204780">
        <ele>431.2</ele>
        <time>2020-07-21T13:27:05Z</time>
      </trkpt>
      <trkpt lat="42.7814810" lon="2.2205300">
        <ele>430.8</ele>
        <time>2020-07-21T13:27:07Z</time>
      </trkpt>
      <trkpt lat="42.7816890" lon="2.2205840">
        <ele>429.6</ele>
        <time>2020-07-21T13:27:10Z</time>
      </trkpt>
      <trkpt lat="42.7817560" lon="2.2206000">
        <ele>429.4</ele>
        <time>2020-07-21T13:27:11Z</time>
      </trkpt>
      <trkpt lat="42.7820230" lon="2.2206570">
        <ele>428.4</ele>
        <time>2020-07-21T13:27:15Z</time>
      </trkpt>
      <trkpt lat="42.7821320" lon="2.2206800">
        <ele>428.2</ele>
        <time>2020-07-21T13:27:17Z</time>
      </trkpt>
      <trkpt lat="42.7823130" lon="2.2207220">
        <ele>427.8</ele>
        <time>2020-07-21T13:27:22Z</time>
      </trkpt>
      <trkpt lat="42.7823200" lon="2.2207230">
        <ele>427.8</ele>
        <time>2020-07-21T13:27:23Z</time>
      </trkpt>
      <trkpt lat="42.7849090" lon="2.2218580">
        <ele>419.6</ele>
        <time>2020-07-21T13:29:34Z</time>
      </trkpt>
      <trkpt lat="42.7849250" lon="2.2218950">
        <ele>419.6</ele>
        <time>2020-07-21T13:29:36Z</time>
      </trkpt>
      <trkpt lat="42.7849450" lon="2.2219900">
        <ele>419.6</ele>
        <time>2020-07-21T13:29:39Z</time>
      </trkpt>
      <trkpt lat="42.7850250" lon="2.2220010">
        <ele>419.4</ele>
        <time>2020-07-21T13:29:42Z</time>
      </trkpt>
      <trkpt lat="42.7851000" lon="2.2220120">
        <ele>419.2</ele>
        <time>2020-07-21T13:29:44Z</time>
      </trkpt>
      <trkpt lat="42.7852510" lon="2.2220700">
        <ele>419.4</ele>
        <time>2020-07-21T13:29:48Z</time>
      </trkpt>
      <trkpt lat="42.7855030" lon="2.2221470">
        <ele>419.0</ele>
        <time>2020-07-21T13:29:54Z</time>
      </trkpt>
      <trkpt lat="42.7856100" lon="2.2221750">
        <ele>418.8</ele>
        <time>2020-07-21T13:29:56Z</time>
      </trkpt>
      <trkpt lat="42.7857310" lon="2.2222130">
        <ele>418.6</ele>
        <time>2020-07-21T13:29:58Z</time>
      </trkpt>
      <trkpt lat="42.7859570" lon="2.2222020">
        <ele>418.0</ele>
        <time>2020-07-21T13:30:02Z</time>
      </trkpt>
      <trkpt lat="42.7861430" lon="2.2222720">
        <ele>418.0</ele>
        <time>2020-07-21T13:30:05Z</time>
      </trkpt>
      <trkpt lat="42.7861430" lon="2.2222720">
        <ele>417.8</ele>
        <time>2020-07-21T13:30:09Z</time>
      </trkpt>
      <trkpt lat="42.7861430" lon="2.2222720">
        <ele>417.4</ele>
        <time>2020-07-21T13:30:11Z</time>
      </trkpt>
      <trkpt lat="42.7861430" lon="2.2222720">
        <ele>416.6</ele>
        <time>2020-07-21T13:30:14Z</time>
      </trkpt>
      <trkpt lat="42.7869830" lon="2.2223980">
        <ele>417.6</ele>
        <time>2020-07-21T13:30:20Z</time>
      </trkpt>
      <trkpt lat="42.7870150" lon="2.2223500">
        <ele>417.8</ele>
        <time>2020-07-21T13:30:21Z</time>
      </trkpt>
      <trkpt lat="42.7872720" lon="2.2221670">
        <ele>417.0</ele>
        <time>2020-07-21T13:30:27Z</time>
      </trkpt>
      <trkpt lat="42.7873690" lon="2.2221390">
        <ele>417.0</ele>
        <time>2020-07-21T13:30:28Z</time>
      </trkpt>
      <trkpt lat="42.7874030" lon="2.2220740">
        <ele>417.0</ele>
        <time>2020-07-21T13:30:29Z</time>
      </trkpt>
      <trkpt lat="42.7874740" lon="2.2220160">
        <ele>417.0</ele>
        <time>2020-07-21T13:30:30Z</time>
      </trkpt>
      <trkpt lat="42.7877380" lon="2.2219940">
        <ele>416.8</ele>
        <time>2020-07-21T13:30:33Z</time>
      </trkpt>
      <trkpt lat="42.7879830" lon="2.2219940">
        <ele>416.4</ele>
        <time>2020-07-21T13:30:36Z</time>
      </trkpt>
      <trkpt lat="42.7883040" lon="2.2219570">
        <ele>416.0</ele>
        <time>2020-07-21T13:30:40Z</time>
      </trkpt>
      <trkpt lat="42.7886800" lon="2.2218820">
        <ele>415.8</ele>
        <time>2020-07-21T13:30:45Z</time>
      </trkpt>
      <trkpt lat="42.7887610" lon="2.2218680">
        <ele>415.8</ele>
        <time>2020-07-21T13:30:46Z</time>
      </trkpt>
      <trkpt lat="42.7889150" lon="2.2218360">
        <ele>415.8</ele>
        <time>2020-07-21T13:30:48Z</time>
      </trkpt>
      <trkpt lat="42.7893050" lon="2.2217480">
        <ele>415.2</ele>
        <time>2020-07-21T13:30:53Z</time>
      </trkpt>
      <trkpt lat="42.7894630" lon="2.2217520">
        <ele>414.6</ele>
        <time>2020-07-21T13:30:55Z</time>
      </trkpt>
      <trkpt lat="42.7897010" lon="2.2217970">
        <ele>414.2</ele>
        <time>2020-07-21T13:30:58Z</time>
      </trkpt>
      <trkpt lat="42.7900250" lon="2.2218140">
        <ele>412.6</ele>
        <time>2020-07-21T13:31:02Z</time>
      </trkpt>
      <trkpt lat="42.7905180" lon="2.2218230">
        <ele>411.8</ele>
        <time>2020-07-21T13:31:08Z</time>
      </trkpt>
      <trkpt lat="42.7906840" lon="2.2219060">
        <ele>412.2</ele>
        <time>2020-07-21T13:31:10Z</time>
      </trkpt>
      <trkpt lat="42.7908420" lon="2.2220550">
        <ele>412.2</ele>
        <time>2020-07-21T13:31:12Z</time>
      </trkpt>
      <trkpt lat="42.7912290" lon="2.2224800">
        <ele>413.4</ele>
        <time>2020-07-21T13:31:18Z</time>
      </trkpt>
      <trkpt lat="42.7916290" lon="2.2228750">
        <ele>411.6</ele>
        <time>2020-07-21T13:31:24Z</time>
      </trkpt>
      <trkpt lat="42.7916980" lon="2.2229380">
        <ele>411.6</ele>
        <time>2020-07-21T13:31:25Z</time>
      </trkpt>
      <trkpt lat="42.7917650" lon="2.2230050">
        <ele>411.6</ele>
        <time>2020-07-21T13:31:26Z</time>
      </trkpt>
      <trkpt lat="42.7921760" lon="2.2234010">
        <ele>410.2</ele>
        <time>2020-07-21T13:31:32Z</time>
      </trkpt>
      <trkpt lat="42.7923100" lon="2.2235280">
        <ele>409.8</ele>
        <time>2020-07-21T13:31:34Z</time>
      </trkpt>
      <trkpt lat="42.7923760" lon="2.2235920">
        <ele>409.6</ele>
        <time>2020-07-21T13:31:35Z</time>
      </trkpt>
      <trkpt lat="42.7927750" lon="2.2239590">
        <ele>409.4</ele>
        <time>2020-07-21T13:31:41Z</time>
      </trkpt>
      <trkpt lat="42.7928400" lon="2.2240220">
        <ele>409.4</ele>
        <time>2020-07-21T13:31:42Z</time>
      </trkpt>
      <trkpt lat="42.7929060" lon="2.2240820">
        <ele>409.2</ele>
        <time>2020-07-21T13:31:43Z</time>
      </trkpt>
      <trkpt lat="42.7933030" lon="2.2244380">
        <ele>408.8</ele>
        <time>2020-07-21T13:31:49Z</time>
      </trkpt>
      <trkpt lat="42.7934230" lon="2.2245610">
        <ele>408.6</ele>
        <time>2020-07-21T13:31:51Z</time>
      </trkpt>
      <trkpt lat="42.7936030" lon="2.2247360">
        <ele>408.0</ele>
        <time>2020-07-21T13:31:54Z</time>
      </trkpt>
      <trkpt lat="42.7938420" lon="2.2249620">
        <ele>407.2</ele>
        <time>2020-07-21T13:31:58Z</time>
      </trkpt>
      <trkpt lat="42.7941950" lon="2.2252850">
        <ele>407.4</ele>
        <time>2020-07-21T13:32:04Z</time>
      </trkpt>
      <trkpt lat="42.7943630" lon="2.2254400">
        <ele>407.6</ele>
        <time>2020-07-21T13:32:07Z</time>
      </trkpt>
      <trkpt lat="42.7945960" lon="2.2256010">
        <ele>408.0</ele>
        <time>2020-07-21T13:32:11Z</time>
      </trkpt>
      <trkpt lat="42.7946550" lon="2.2256200">
        <ele>408.0</ele>
        <time>2020-07-21T13:32:12Z</time>
      </trkpt>
      <trkpt lat="42.7947130" lon="2.2256310">
        <ele>408.2</ele>
        <time>2020-07-21T13:32:13Z</time>
      </trkpt>
      <trkpt lat="42.7948200" lon="2.2256080">
        <ele>408.8</ele>
        <time>2020-07-21T13:32:15Z</time>
      </trkpt>
      <trkpt lat="42.7948670" lon="2.2255770">
        <ele>408.8</ele>
        <time>2020-07-21T13:32:16Z</time>
      </trkpt>
      <trkpt lat="42.7949090" lon="2.2255350">
        <ele>409.4</ele>
        <time>2020-07-21T13:32:17Z</time>
      </trkpt>
      <trkpt lat="42.7950160" lon="2.2253700">
        <ele>410.0</ele>
        <time>2020-07-21T13:32:20Z</time>
      </trkpt>
      <trkpt lat="42.7951160" lon="2.2252040">
        <ele>409.2</ele>
        <time>2020-07-21T13:32:23Z</time>
      </trkpt>
      <trkpt lat="42.7951490" lon="2.2251520">
        <ele>409.2</ele>
        <time>2020-07-21T13:32:24Z</time>
      </trkpt>
      <trkpt lat="42.7951840" lon="2.2251090">
        <ele>409.0</ele>
        <time>2020-07-21T13:32:25Z</time>
      </trkpt>
      <trkpt lat="42.7952610" lon="2.2250480">
        <ele>408.8</ele>
        <time>2020-07-21T13:32:27Z</time>
      </trkpt>
      <trkpt lat="42.7953030" lon="2.2250280">
        <ele>408.6</ele>
        <time>2020-07-21T13:32:28Z</time>
      </trkpt>
      <trkpt lat="42.7953880" lon="2.2250040">
        <ele>408.4</ele>
        <time>2020-07-21T13:32:30Z</time>
      </trkpt>
      <trkpt lat="42.7954670" lon="2.2250110">
        <ele>408.2</ele>
        <time>2020-07-21T13:32:32Z</time>
      </trkpt>
      <trkpt lat="42.7955710" lon="2.2250780">
        <ele>408.2</ele>
        <time>2020-07-21T13:32:35Z</time>
      </trkpt>
      <trkpt lat="42.7956070" lon="2.2251170">
        <ele>408.2</ele>
        <time>2020-07-21T13:32:36Z</time>
      </trkpt>
      <trkpt lat="42.7958320" lon="2.2253880">
        <ele>407.4</ele>
        <time>2020-07-21T13:32:41Z</time>
      </trkpt>
      <trkpt lat="42.7959360" lon="2.2255070">
        <ele>407.2</ele>
        <time>2020-07-21T13:32:43Z</time>
      </trkpt>
      <trkpt lat="42.7960440" lon="2.2256250">
        <ele>407.4</ele>
        <time>2020-07-21T13:32:45Z</time>
      </trkpt>
      <trkpt lat="42.7962200" lon="2.2257870">
        <ele>407.4</ele>
        <time>2020-07-21T13:32:48Z</time>
      </trkpt>
      <trkpt lat="42.7965450" lon="2.2259880">
        <ele>406.0</ele>
        <time>2020-07-21T13:32:53Z</time>
      </trkpt>
      <trkpt lat="42.7966770" lon="2.2260540">
        <ele>405.2</ele>
        <time>2020-07-21T13:32:55Z</time>
      </trkpt>
      <trkpt lat="42.7967410" lon="2.2260880">
        <ele>405.0</ele>
        <time>2020-07-21T13:32:56Z</time>
      </trkpt>
      <trkpt lat="42.7968660" lon="2.2261540">
        <ele>405.2</ele>
        <time>2020-07-21T13:32:58Z</time>
      </trkpt>
      <trkpt lat="42.7971700" lon="2.2263180">
        <ele>405.4</ele>
        <time>2020-07-21T13:33:03Z</time>
      </trkpt>
      <trkpt lat="42.7973450" lon="2.2264170">
        <ele>405.2</ele>
        <time>2020-07-21T13:33:06Z</time>
      </trkpt>
      <trkpt lat="42.7975410" lon="2.2265210">
        <ele>405.8</ele>
        <time>2020-07-21T13:33:09Z</time>
      </trkpt>
      <trkpt lat="42.7976060" lon="2.2265540">
        <ele>405.8</ele>
        <time>2020-07-21T13:33:10Z</time>
      </trkpt>
      <trkpt lat="42.7980030" lon="2.2267630">
        <ele>404.0</ele>
        <time>2020-07-21T13:33:16Z</time>
      </trkpt>
      <trkpt lat="42.7981990" lon="2.2268410">
        <ele>403.4</ele>
        <time>2020-07-21T13:33:19Z</time>
      </trkpt>
      <trkpt lat="42.7985960" lon="2.2269340">
        <ele>403.6</ele>
        <time>2020-07-21T13:33:25Z</time>
      </trkpt>
      <trkpt lat="42.7986640" lon="2.2269460">
        <ele>403.4</ele>
        <time>2020-07-21T13:33:26Z</time>
      </trkpt>
      <trkpt lat="42.7988000" lon="2.2269670">
        <ele>403.2</ele>
        <time>2020-07-21T13:33:28Z</time>
      </trkpt>
      <trkpt lat="42.7988690" lon="2.2269750">
        <ele>402.8</ele>
        <time>2020-07-21T13:33:29Z</time>
      </trkpt>
      <trkpt lat="42.7989370" lon="2.2269830">
        <ele>402.4</ele>
        <time>2020-07-21T13:33:30Z</time>
      </trkpt>
      <trkpt lat="42.7992090" lon="2.2270100">
        <ele>402.4</ele>
        <time>2020-07-21T13:33:34Z</time>
      </trkpt>
      <trkpt lat="42.7995350" lon="2.2270740">
        <ele>401.6</ele>
        <time>2020-07-21T13:33:39Z</time>
      </trkpt>
      <trkpt lat="42.7996010" lon="2.2270720">
        <ele>401.2</ele>
        <time>2020-07-21T13:33:40Z</time>
      </trkpt>
      <trkpt lat="42.7998030" lon="2.2270200">
        <ele>401.4</ele>
        <time>2020-07-21T13:33:43Z</time>
      </trkpt>
      <trkpt lat="42.7999300" lon="2.2269530">
        <ele>402.0</ele>
        <time>2020-07-21T13:33:45Z</time>
      </trkpt>
      <trkpt lat="42.8003170" lon="2.2267180">
        <ele>401.2</ele>
        <time>2020-07-21T13:33:51Z</time>
      </trkpt>
      <trkpt lat="42.8003840" lon="2.2266910">
        <ele>400.8</ele>
        <time>2020-07-21T13:33:52Z</time>
      </trkpt>
      <trkpt lat="42.8004530" lon="2.2266740">
        <ele>400.4</ele>
        <time>2020-07-21T13:33:53Z</time>
      </trkpt>
      <trkpt lat="42.8006640" lon="2.2266590">
        <ele>400.4</ele>
        <time>2020-07-21T13:33:56Z</time>
      </trkpt>
      <trkpt lat="42.8007350" lon="2.2266650">
        <ele>400.6</ele>
        <time>2020-07-21T13:33:57Z</time>
      </trkpt>
      <trkpt lat="42.8008720" lon="2.2267080">
        <ele>401.2</ele>
        <time>2020-07-21T13:33:59Z</time>
      </trkpt>
      <trkpt lat="42.8009350" lon="2.2267420">
        <ele>401.4</ele>
        <time>2020-07-21T13:34:00Z</time>
      </trkpt>
      <trkpt lat="42.8009930" lon="2.2267830">
        <ele>401.4</ele>
        <time>2020-07-21T13:34:01Z</time>
      </trkpt>
      <trkpt lat="42.8010990" lon="2.2268800">
        <ele>401.2</ele>
        <time>2020-07-21T13:34:03Z</time>
      </trkpt>
      <trkpt lat="42.8011960" lon="2.2269800">
        <ele>401.4</ele>
        <time>2020-07-21T13:34:05Z</time>
      </trkpt>
      <trkpt lat="42.8014970" lon="2.2273050">
        <ele>400.8</ele>
        <time>2020-07-21T13:34:11Z</time>
      </trkpt>
      <trkpt lat="42.8017150" lon="2.2275290">
        <ele>399.4</ele>
        <time>2020-07-21T13:34:15Z</time>
      </trkpt>
      <trkpt lat="42.8018710" lon="2.2277260">
        <ele>398.4</ele>
        <time>2020-07-21T13:34:18Z</time>
      </trkpt>
      <trkpt lat="42.8019170" lon="2.2277970">
        <ele>398.2</ele>
        <time>2020-07-21T13:34:19Z</time>
      </trkpt>
      <trkpt lat="42.8021760" lon="2.2282110">
        <ele>397.6</ele>
        <time>2020-07-21T13:34:25Z</time>
      </trkpt>
      <trkpt lat="42.8023070" lon="2.2284210">
        <ele>397.6</ele>
        <time>2020-07-21T13:34:28Z</time>
      </trkpt>
      <trkpt lat="42.8024900" lon="2.2286950">
        <ele>397.2</ele>
        <time>2020-07-21T13:34:32Z</time>
      </trkpt>
      <trkpt lat="42.8027550" lon="2.2291110">
        <ele>396.8</ele>
        <time>2020-07-21T13:34:38Z</time>
      </trkpt>
      <trkpt lat="42.8029290" lon="2.2293900">
        <ele>396.6</ele>
        <time>2020-07-21T13:34:42Z</time>
      </trkpt>
      <trkpt lat="42.8029660" lon="2.2294700">
        <ele>396.4</ele>
        <time>2020-07-21T13:34:43Z</time>
      </trkpt>
      <trkpt lat="42.8030380" lon="2.2296370">
        <ele>396.6</ele>
        <time>2020-07-21T13:34:45Z</time>
      </trkpt>
      <trkpt lat="42.8031090" lon="2.2298080">
        <ele>396.6</ele>
        <time>2020-07-21T13:34:47Z</time>
      </trkpt>
      <trkpt lat="42.8031780" lon="2.2299820">
        <ele>396.6</ele>
        <time>2020-07-21T13:34:49Z</time>
      </trkpt>
      <trkpt lat="42.8032840" lon="2.2302420">
        <ele>396.0</ele>
        <time>2020-07-21T13:34:52Z</time>
      </trkpt>
      <trkpt lat="42.8034910" lon="2.2306450">
        <ele>395.2</ele>
        <time>2020-07-21T13:34:57Z</time>
      </trkpt>
      <trkpt lat="42.8037620" lon="2.2310840">
        <ele>395.2</ele>
        <time>2020-07-21T13:35:03Z</time>
      </trkpt>
      <trkpt lat="42.8038610" lon="2.2312080">
        <ele>395.4</ele>
        <time>2020-07-21T13:35:05Z</time>
      </trkpt>
      <trkpt lat="42.8039070" lon="2.2312700">
        <ele>395.6</ele>
        <time>2020-07-21T13:35:06Z</time>
      </trkpt>
      <trkpt lat="42.8040660" lon="2.2315490">
        <ele>396.0</ele>
        <time>2020-07-21T13:35:10Z</time>
      </trkpt>
      <trkpt lat="42.8040940" lon="2.2316260">
        <ele>396.2</ele>
        <time>2020-07-21T13:35:11Z</time>
      </trkpt>
      <trkpt lat="42.8041510" lon="2.2318820">
        <ele>396.4</ele>
        <time>2020-07-21T13:35:14Z</time>
      </trkpt>
      <trkpt lat="42.8041630" lon="2.2320670">
        <ele>396.2</ele>
        <time>2020-07-21T13:35:16Z</time>
      </trkpt>
      <trkpt lat="42.8042100" lon="2.2326510">
        <ele>395.8</ele>
        <time>2020-07-21T13:35:22Z</time>
      </trkpt>
      <trkpt lat="42.8042410" lon="2.2328450">
        <ele>394.8</ele>
        <time>2020-07-21T13:35:24Z</time>
      </trkpt>
      <trkpt lat="42.8043250" lon="2.2333160">
        <ele>393.8</ele>
        <time>2020-07-21T13:35:29Z</time>
      </trkpt>
      <trkpt lat="42.8043530" lon="2.2334010">
        <ele>393.6</ele>
        <time>2020-07-21T13:35:30Z</time>
      </trkpt>
      <trkpt lat="42.8043840" lon="2.2334850">
        <ele>393.4</ele>
        <time>2020-07-21T13:35:31Z</time>
      </trkpt>
      <trkpt lat="42.8045790" lon="2.2339840">
        <ele>393.6</ele>
        <time>2020-07-21T13:35:37Z</time>
      </trkpt>
      <trkpt lat="42.8046480" lon="2.2341440">
        <ele>393.6</ele>
        <time>2020-07-21T13:35:39Z</time>
      </trkpt>
      <trkpt lat="42.8047490" lon="2.2343830">
        <ele>393.2</ele>
        <time>2020-07-21T13:35:42Z</time>
      </trkpt>
      <trkpt lat="42.8049140" lon="2.2347680">
        <ele>393.4</ele>
        <time>2020-07-21T13:35:47Z</time>
      </trkpt>
      <trkpt lat="42.8051070" lon="2.2352240">
        <ele>394.0</ele>
        <time>2020-07-21T13:35:53Z</time>
      </trkpt>
      <trkpt lat="42.8051470" lon="2.2352880">
        <ele>394.0</ele>
        <time>2020-07-21T13:35:54Z</time>
      </trkpt>
      <trkpt lat="42.8052310" lon="2.2354160">
        <ele>394.0</ele>
        <time>2020-07-21T13:35:56Z</time>
      </trkpt>
      <trkpt lat="42.8053200" lon="2.2355510">
        <ele>394.0</ele>
        <time>2020-07-21T13:35:58Z</time>
      </trkpt>
      <trkpt lat="42.8054050" lon="2.2356950">
        <ele>394.0</ele>
        <time>2020-07-21T13:36:00Z</time>
      </trkpt>
      <trkpt lat="42.8054480" lon="2.2357650">
        <ele>394.0</ele>
        <time>2020-07-21T13:36:01Z</time>
      </trkpt>
      <trkpt lat="42.8055760" lon="2.2359580">
        <ele>394.4</ele>
        <time>2020-07-21T13:36:04Z</time>
      </trkpt>
      <trkpt lat="42.8057420" lon="2.2361940">
        <ele>394.2</ele>
        <time>2020-07-21T13:36:08Z</time>
      </trkpt>
      <trkpt lat="42.8057800" lon="2.2362430">
        <ele>394.0</ele>
        <time>2020-07-21T13:36:09Z</time>
      </trkpt>
      <trkpt lat="42.8058730" lon="2.2363470">
        <ele>392.4</ele>
        <time>2020-07-21T13:36:11Z</time>
      </trkpt>
      <trkpt lat="42.8059240" lon="2.2363940">
        <ele>391.8</ele>
        <time>2020-07-21T13:36:12Z</time>
      </trkpt>
      <trkpt lat="42.8060250" lon="2.2364870">
        <ele>391.2</ele>
        <time>2020-07-21T13:36:14Z</time>
      </trkpt>
      <trkpt lat="42.8060770" lon="2.2365310">
        <ele>391.2</ele>
        <time>2020-07-21T13:36:15Z</time>
      </trkpt>
      <trkpt lat="42.8064310" lon="2.2367980">
        <ele>391.4</ele>
        <time>2020-07-21T13:36:21Z</time>
      </trkpt>
      <trkpt lat="42.8064980" lon="2.2368330">
        <ele>391.6</ele>
        <time>2020-07-21T13:36:22Z</time>
      </trkpt>
      <trkpt lat="42.8067740" lon="2.2369340">
        <ele>391.6</ele>
        <time>2020-07-21T13:36:26Z</time>
      </trkpt>
      <trkpt lat="42.8068430" lon="2.2369320">
        <ele>391.6</ele>
        <time>2020-07-21T13:36:27Z</time>
      </trkpt>
      <trkpt lat="42.8069100" lon="2.2369190">
        <ele>391.4</ele>
        <time>2020-07-21T13:36:28Z</time>
      </trkpt>
      <trkpt lat="42.8071310" lon="2.2368420">
        <ele>391.2</ele>
        <time>2020-07-21T13:36:31Z</time>
      </trkpt>
      <trkpt lat="42.8075070" lon="2.2366830">
        <ele>390.0</ele>
        <time>2020-07-21T13:36:36Z</time>
      </trkpt>
      <trkpt lat="42.8077160" lon="2.2365520">
        <ele>389.6</ele>
        <time>2020-07-21T13:36:39Z</time>
      </trkpt>
      <trkpt lat="42.8081020" lon="2.2362810">
        <ele>388.8</ele>
        <time>2020-07-21T13:36:45Z</time>
      </trkpt>
      <trkpt lat="42.8081640" lon="2.2362390">
        <ele>388.8</ele>
        <time>2020-07-21T13:36:46Z</time>
      </trkpt>
      <trkpt lat="42.8085290" lon="2.2359470">
        <ele>388.4</ele>
        <time>2020-07-21T13:36:52Z</time>
      </trkpt>
      <trkpt lat="42.8086460" lon="2.2358580">
        <ele>388.6</ele>
        <time>2020-07-21T13:36:54Z</time>
      </trkpt>
      <trkpt lat="42.8090150" lon="2.2356610">
        <ele>389.0</ele>
        <time>2020-07-21T13:37:00Z</time>
      </trkpt>
      <trkpt lat="42.8090830" lon="2.2356410">
        <ele>389.0</ele>
        <time>2020-07-21T13:37:01Z</time>
      </trkpt>
      <trkpt lat="42.8092940" lon="2.2356050">
        <ele>388.0</ele>
        <time>2020-07-21T13:37:04Z</time>
      </trkpt>
      <trkpt lat="42.8094430" lon="2.2356170">
        <ele>387.8</ele>
        <time>2020-07-21T13:37:06Z</time>
      </trkpt>
      <trkpt lat="42.8097450" lon="2.2357200">
        <ele>387.4</ele>
        <time>2020-07-21T13:37:10Z</time>
      </trkpt>
      <trkpt lat="42.8098180" lon="2.2357640">
        <ele>387.4</ele>
        <time>2020-07-21T13:37:11Z</time>
      </trkpt>
      <trkpt lat="42.8102500" lon="2.2361010">
        <ele>387.0</ele>
        <time>2020-07-21T13:37:17Z</time>
      </trkpt>
      <trkpt lat="42.8103190" lon="2.2361580">
        <ele>386.8</ele>
        <time>2020-07-21T13:37:18Z</time>
      </trkpt>
      <trkpt lat="42.8103870" lon="2.2362170">
        <ele>386.6</ele>
        <time>2020-07-21T13:37:19Z</time>
      </trkpt>
      <trkpt lat="42.8106790" lon="2.2365640">
        <ele>386.4</ele>
        <time>2020-07-21T13:37:24Z</time>
      </trkpt>
      <trkpt lat="42.8107310" lon="2.2366450">
        <ele>386.6</ele>
        <time>2020-07-21T13:37:25Z</time>
      </trkpt>
      <trkpt lat="42.8109800" lon="2.2371700">
        <ele>387.0</ele>
        <time>2020-07-21T13:37:31Z</time>
      </trkpt>
      <trkpt lat="42.8111780" lon="2.2374650">
        <ele>387.0</ele>
        <time>2020-07-21T13:37:35Z</time>
      </trkpt>
      <trkpt lat="42.8112810" lon="2.2376020">
        <ele>387.0</ele>
        <time>2020-07-21T13:37:37Z</time>
      </trkpt>
      <trkpt lat="42.8114260" lon="2.2378150">
        <ele>387.2</ele>
        <time>2020-07-21T13:37:40Z</time>
      </trkpt>
      <trkpt lat="42.8116220" lon="2.2380730">
        <ele>386.8</ele>
        <time>2020-07-21T13:37:44Z</time>
      </trkpt>
      <trkpt lat="42.8117220" lon="2.2381620">
        <ele>384.8</ele>
        <time>2020-07-21T13:37:46Z</time>
      </trkpt>
      <trkpt lat="42.8118270" lon="2.2382140">
        <ele>384.2</ele>
        <time>2020-07-21T13:37:48Z</time>
      </trkpt>
      <trkpt lat="42.8119840" lon="2.2383000">
        <ele>385.4</ele>
        <time>2020-07-21T13:37:51Z</time>
      </trkpt>
      <trkpt lat="42.8120660" lon="2.2384140">
        <ele>385.8</ele>
        <time>2020-07-21T13:37:53Z</time>
      </trkpt>
      <trkpt lat="42.8121440" lon="2.2385200">
        <ele>386.0</ele>
        <time>2020-07-21T13:37:55Z</time>
      </trkpt>
      <trkpt lat="42.8122360" lon="2.2385310">
        <ele>386.0</ele>
        <time>2020-07-21T13:37:57Z</time>
      </trkpt>
      <trkpt lat="42.8123070" lon="2.2384330">
        <ele>386.0</ele>
        <time>2020-07-21T13:37:59Z</time>
      </trkpt>
      <trkpt lat="42.8123330" lon="2.2383670">
        <ele>386.0</ele>
        <time>2020-07-21T13:38:00Z</time>
      </trkpt>
      <trkpt lat="42.8124690" lon="2.2380600">
        <ele>385.8</ele>
        <time>2020-07-21T13:38:04Z</time>
      </trkpt>
      <trkpt lat="42.8125300" lon="2.2378790">
        <ele>386.0</ele>
        <time>2020-07-21T13:38:06Z</time>
      </trkpt>
      <trkpt lat="42.8126040" lon="2.2375830">
        <ele>386.4</ele>
        <time>2020-07-21T13:38:09Z</time>
      </trkpt>
      <trkpt lat="42.8126430" lon="2.2373650">
        <ele>386.2</ele>
        <time>2020-07-21T13:38:11Z</time>
      </trkpt>
      <trkpt lat="42.8126630" lon="2.2370160">
        <ele>386.0</ele>
        <time>2020-07-21T13:38:14Z</time>
      </trkpt>
      <trkpt lat="42.8126410" lon="2.2363760">
        <ele>385.2</ele>
        <time>2020-07-21T13:38:19Z</time>
      </trkpt>
      <trkpt lat="42.8126320" lon="2.2361150">
        <ele>385.0</ele>
        <time>2020-07-21T13:38:21Z</time>
      </trkpt>
      <trkpt lat="42.8126300" lon="2.2358450">
        <ele>384.6</ele>
        <time>2020-07-21T13:38:23Z</time>
      </trkpt>
      <trkpt lat="42.8126540" lon="2.2353270">
        <ele>383.4</ele>
        <time>2020-07-21T13:38:27Z</time>
      </trkpt>
      <trkpt lat="42.8127540" lon="2.2348380">
        <ele>383.2</ele>
        <time>2020-07-21T13:38:31Z</time>
      </trkpt>
      <trkpt lat="42.8128040" lon="2.2347300">
        <ele>383.4</ele>
        <time>2020-07-21T13:38:32Z</time>
      </trkpt>
      <trkpt lat="42.8128580" lon="2.2346260">
        <ele>383.2</ele>
        <time>2020-07-21T13:38:33Z</time>
      </trkpt>
      <trkpt lat="42.8130400" lon="2.2343000">
        <ele>383.0</ele>
        <time>2020-07-21T13:38:36Z</time>
      </trkpt>
      <trkpt lat="42.8133540" lon="2.2337730">
        <ele>383.0</ele>
        <time>2020-07-21T13:38:41Z</time>
      </trkpt>
      <trkpt lat="42.8134260" lon="2.2336780">
        <ele>382.8</ele>
        <time>2020-07-21T13:38:42Z</time>
      </trkpt>
      <trkpt lat="42.8137420" lon="2.2333230">
        <ele>383.0</ele>
        <time>2020-07-21T13:38:46Z</time>
      </trkpt>
      <trkpt lat="42.8139110" lon="2.2331460">
        <ele>382.2</ele>
        <time>2020-07-21T13:38:48Z</time>
      </trkpt>
      <trkpt lat="42.8142200" lon="2.2327170">
        <ele>381.6</ele>
        <time>2020-07-21T13:38:52Z</time>
      </trkpt>
      <trkpt lat="42.8142840" lon="2.2325870">
        <ele>381.4</ele>
        <time>2020-07-21T13:38:53Z</time>
      </trkpt>
      <trkpt lat="42.8143380" lon="2.2324500">
        <ele>381.4</ele>
        <time>2020-07-21T13:38:54Z</time>
      </trkpt>
      <trkpt lat="42.8143810" lon="2.2323060">
        <ele>381.2</ele>
        <time>2020-07-21T13:38:55Z</time>
      </trkpt>
      <trkpt lat="42.8144130" lon="2.2321590">
        <ele>380.8</ele>
        <time>2020-07-21T13:38:56Z</time>
      </trkpt>
      <trkpt lat="42.8144430" lon="2.2318590">
        <ele>380.6</ele>
        <time>2020-07-21T13:38:58Z</time>
      </trkpt>
      <trkpt lat="42.8144340" lon="2.2315580">
        <ele>380.2</ele>
        <time>2020-07-21T13:39:00Z</time>
      </trkpt>
      <trkpt lat="42.8144120" lon="2.2312610">
        <ele>380.2</ele>
        <time>2020-07-21T13:39:02Z</time>
      </trkpt>
      <trkpt lat="42.8143640" lon="2.2305650">
        <ele>380.6</ele>
        <time>2020-07-21T13:39:07Z</time>
      </trkpt>
      <trkpt lat="42.8143460" lon="2.2299480">
        <ele>380.4</ele>
        <time>2020-07-21T13:39:12Z</time>
      </trkpt>
      <trkpt lat="42.8143450" lon="2.2298280">
        <ele>380.2</ele>
        <time>2020-07-21T13:39:13Z</time>
      </trkpt>
      <trkpt lat="42.8143430" lon="2.2295880">
        <ele>380.0</ele>
        <time>2020-07-21T13:39:15Z</time>
      </trkpt>
      <trkpt lat="42.8143670" lon="2.2290140">
        <ele>379.4</ele>
        <time>2020-07-21T13:39:20Z</time>
      </trkpt>
      <trkpt lat="42.8143840" lon="2.2289060">
        <ele>379.4</ele>
        <time>2020-07-21T13:39:21Z</time>
      </trkpt>
      <trkpt lat="42.8145490" lon="2.2283950">
        <ele>379.0</ele>
        <time>2020-07-21T13:39:26Z</time>
      </trkpt>
      <trkpt lat="42.8148540" lon="2.2278530">
        <ele>378.0</ele>
        <time>2020-07-21T13:39:32Z</time>
      </trkpt>
      <trkpt lat="42.8149160" lon="2.2277790">
        <ele>378.0</ele>
        <time>2020-07-21T13:39:33Z</time>
      </trkpt>
      <trkpt lat="42.8150520" lon="2.2276710">
        <ele>378.0</ele>
        <time>2020-07-21T13:39:35Z</time>
      </trkpt>
      <trkpt lat="42.8151240" lon="2.2276380">
        <ele>378.0</ele>
        <time>2020-07-21T13:39:36Z</time>
      </trkpt>
      <trkpt lat="42.8152020" lon="2.2276190">
        <ele>378.0</ele>
        <time>2020-07-21T13:39:37Z</time>
      </trkpt>
      <trkpt lat="42.8152880" lon="2.2276090">
        <ele>377.8</ele>
        <time>2020-07-21T13:39:38Z</time>
      </trkpt>
      <trkpt lat="42.8154510" lon="2.2275770">
        <ele>377.6</ele>
        <time>2020-07-21T13:39:40Z</time>
      </trkpt>
      <trkpt lat="42.8157830" lon="2.2275770">
        <ele>376.4</ele>
        <time>2020-07-21T13:39:44Z</time>
      </trkpt>
      <trkpt lat="42.8158680" lon="2.2275990">
        <ele>375.8</ele>
        <time>2020-07-21T13:39:45Z</time>
      </trkpt>
      <trkpt lat="42.8159490" lon="2.2276330">
        <ele>375.0</ele>
        <time>2020-07-21T13:39:46Z</time>
      </trkpt>
      <trkpt lat="42.8160230" lon="2.2276770">
        <ele>374.6</ele>
        <time>2020-07-21T13:39:47Z</time>
      </trkpt>
      <trkpt lat="42.8160910" lon="2.2277350">
        <ele>374.2</ele>
        <time>2020-07-21T13:39:48Z</time>
      </trkpt>
      <trkpt lat="42.8161570" lon="2.2278050">
        <ele>374.2</ele>
        <time>2020-07-21T13:39:49Z</time>
      </trkpt>
      <trkpt lat="42.8162690" lon="2.2279770">
        <ele>374.2</ele>
        <time>2020-07-21T13:39:51Z</time>
      </trkpt>
      <trkpt lat="42.8163150" lon="2.2280740">
        <ele>374.4</ele>
        <time>2020-07-21T13:39:52Z</time>
      </trkpt>
      <trkpt lat="42.8165830" lon="2.2286230">
        <ele>375.6</ele>
        <time>2020-07-21T13:39:58Z</time>
      </trkpt>
      <trkpt lat="42.8167040" lon="2.2287590">
        <ele>376.0</ele>
        <time>2020-07-21T13:40:00Z</time>
      </trkpt>
      <trkpt lat="42.8168520" lon="2.2288470">
        <ele>376.8</ele>
        <time>2020-07-21T13:40:02Z</time>
      </trkpt>
      <trkpt lat="42.8170150" lon="2.2288670">
        <ele>377.2</ele>
        <time>2020-07-21T13:40:04Z</time>
      </trkpt>
      <trkpt lat="42.8171000" lon="2.2288500">
        <ele>377.0</ele>
        <time>2020-07-21T13:40:05Z</time>
      </trkpt>
      <trkpt lat="42.8171840" lon="2.2288160">
        <ele>377.0</ele>
        <time>2020-07-21T13:40:06Z</time>
      </trkpt>
      <trkpt lat="42.8173470" lon="2.2286970">
        <ele>376.6</ele>
        <time>2020-07-21T13:40:08Z</time>
      </trkpt>
      <trkpt lat="42.8176950" lon="2.2284100">
        <ele>375.8</ele>
        <time>2020-07-21T13:40:12Z</time>
      </trkpt>
      <trkpt lat="42.8178760" lon="2.2282790">
        <ele>375.4</ele>
        <time>2020-07-21T13:40:14Z</time>
      </trkpt>
      <trkpt lat="42.8183600" lon="2.2280090">
        <ele>374.8</ele>
        <time>2020-07-21T13:40:19Z</time>
      </trkpt>
      <trkpt lat="42.8185730" lon="2.2279570">
        <ele>374.6</ele>
        <time>2020-07-21T13:40:21Z</time>
      </trkpt>
      <trkpt lat="42.8191080" lon="2.2279240">
        <ele>374.2</ele>
        <time>2020-07-21T13:40:26Z</time>
      </trkpt>
      <trkpt lat="42.8195200" lon="2.2279200">
        <ele>374.2</ele>
        <time>2020-07-21T13:40:30Z</time>
      </trkpt>
      <trkpt lat="42.8196180" lon="2.2278950">
        <ele>374.2</ele>
        <time>2020-07-21T13:40:31Z</time>
      </trkpt>
      <trkpt lat="42.8197140" lon="2.2278580">
        <ele>374.0</ele>
        <time>2020-07-21T13:40:32Z</time>
      </trkpt>
      <trkpt lat="42.8199000" lon="2.2277340">
        <ele>374.0</ele>
        <time>2020-07-21T13:40:34Z</time>
      </trkpt>
      <trkpt lat="42.8200540" lon="2.2275370">
        <ele>373.8</ele>
        <time>2020-07-21T13:40:36Z</time>
      </trkpt>
      <trkpt lat="42.8201150" lon="2.2274200">
        <ele>373.8</ele>
        <time>2020-07-21T13:40:37Z</time>
      </trkpt>
      <trkpt lat="42.8201630" lon="2.2272900">
        <ele>373.6</ele>
        <time>2020-07-21T13:40:38Z</time>
      </trkpt>
      <trkpt lat="42.8202770" lon="2.2268830">
        <ele>373.0</ele>
        <time>2020-07-21T13:40:41Z</time>
      </trkpt>
      <trkpt lat="42.8203500" lon="2.2266090">
        <ele>372.4</ele>
        <time>2020-07-21T13:40:43Z</time>
      </trkpt>
      <trkpt lat="42.8204690" lon="2.2262050">
        <ele>371.4</ele>
        <time>2020-07-21T13:40:46Z</time>
      </trkpt>
      <trkpt lat="42.8205680" lon="2.2259540">
        <ele>370.6</ele>
        <time>2020-07-21T13:40:48Z</time>
      </trkpt>
      <trkpt lat="42.8206230" lon="2.2258360">
        <ele>370.2</ele>
        <time>2020-07-21T13:40:49Z</time>
      </trkpt>
      <trkpt lat="42.8209230" lon="2.2252860">
        <ele>370.2</ele>
        <time>2020-07-21T13:40:54Z</time>
      </trkpt>
      <trkpt lat="42.8212670" lon="2.2248300">
        <ele>369.2</ele>
        <time>2020-07-21T13:40:59Z</time>
      </trkpt>
      <trkpt lat="42.8213450" lon="2.2247640">
        <ele>368.8</ele>
        <time>2020-07-21T13:41:00Z</time>
      </trkpt>
      <trkpt lat="42.8215140" lon="2.2246720">
        <ele>368.6</ele>
        <time>2020-07-21T13:41:02Z</time>
      </trkpt>
      <trkpt lat="42.8216010" lon="2.2246460">
        <ele>368.8</ele>
        <time>2020-07-21T13:41:03Z</time>
      </trkpt>
      <trkpt lat="42.8216940" lon="2.2246550">
        <ele>368.6</ele>
        <time>2020-07-21T13:41:04Z</time>
      </trkpt>
      <trkpt lat="42.8220750" lon="2.2247640">
        <ele>368.8</ele>
        <time>2020-07-21T13:41:08Z</time>
      </trkpt>
      <trkpt lat="42.8222510" lon="2.2248570">
        <ele>368.6</ele>
        <time>2020-07-21T13:41:10Z</time>
      </trkpt>
      <trkpt lat="42.8224150" lon="2.2249920">
        <ele>368.4</ele>
        <time>2020-07-21T13:41:12Z</time>
      </trkpt>
      <trkpt lat="42.8224900" lon="2.2250640">
        <ele>368.2</ele>
        <time>2020-07-21T13:41:13Z</time>
      </trkpt>
      <trkpt lat="42.8225630" lon="2.2251420">
        <ele>368.0</ele>
        <time>2020-07-21T13:41:14Z</time>
      </trkpt>
      <trkpt lat="42.8226960" lon="2.2253290">
        <ele>367.8</ele>
        <time>2020-07-21T13:41:16Z</time>
      </trkpt>
      <trkpt lat="42.8227550" lon="2.2254340">
        <ele>367.8</ele>
        <time>2020-07-21T13:41:17Z</time>
      </trkpt>
      <trkpt lat="42.8229740" lon="2.2260190">
        <ele>367.2</ele>
        <time>2020-07-21T13:41:22Z</time>
      </trkpt>
      <trkpt lat="42.8230000" lon="2.2261450">
        <ele>366.6</ele>
        <time>2020-07-21T13:41:23Z</time>
      </trkpt>
      <trkpt lat="42.8230310" lon="2.2265260">
        <ele>365.6</ele>
        <time>2020-07-21T13:41:26Z</time>
      </trkpt>
      <trkpt lat="42.8230140" lon="2.2268990">
        <ele>364.4</ele>
        <time>2020-07-21T13:41:29Z</time>
      </trkpt>
      <trkpt lat="42.8229870" lon="2.2270200">
        <ele>364.4</ele>
        <time>2020-07-21T13:41:30Z</time>
      </trkpt>
      <trkpt lat="42.8229480" lon="2.2271370">
        <ele>364.4</ele>
        <time>2020-07-21T13:41:31Z</time>
      </trkpt>
      <trkpt lat="42.8228480" lon="2.2273580">
        <ele>365.4</ele>
        <time>2020-07-21T13:41:33Z</time>
      </trkpt>
      <trkpt lat="42.8227980" lon="2.2274740">
        <ele>366.0</ele>
        <time>2020-07-21T13:41:34Z</time>
      </trkpt>
      <trkpt lat="42.8227260" lon="2.2277240">
        <ele>366.4</ele>
        <time>2020-07-21T13:41:36Z</time>
      </trkpt>
      <trkpt lat="42.8227010" lon="2.2278620">
        <ele>366.4</ele>
        <time>2020-07-21T13:41:37Z</time>
      </trkpt>
      <trkpt lat="42.8226820" lon="2.2279980">
        <ele>366.4</ele>
        <time>2020-07-21T13:41:38Z</time>
      </trkpt>
      <trkpt lat="42.8226690" lon="2.2282650">
        <ele>365.4</ele>
        <time>2020-07-21T13:41:40Z</time>
      </trkpt>
      <trkpt lat="42.8226870" lon="2.2283880">
        <ele>365.0</ele>
        <time>2020-07-21T13:41:41Z</time>
      </trkpt>
      <trkpt lat="42.8227380" lon="2.2284980">
        <ele>364.8</ele>
        <time>2020-07-21T13:41:42Z</time>
      </trkpt>
      <trkpt lat="42.8227900" lon="2.2285970">
        <ele>364.6</ele>
        <time>2020-07-21T13:41:43Z</time>
      </trkpt>
      <trkpt lat="42.8228500" lon="2.2286860">
        <ele>364.6</ele>
        <time>2020-07-21T13:41:44Z</time>
      </trkpt>
      <trkpt lat="42.8229950" lon="2.2288080">
        <ele>364.4</ele>
        <time>2020-07-21T13:41:46Z</time>
      </trkpt>
      <trkpt lat="42.8231820" lon="2.2288560">
        <ele>364.4</ele>
        <time>2020-07-21T13:41:48Z</time>
      </trkpt>
      <trkpt lat="42.8232820" lon="2.2288540">
        <ele>364.4</ele>
        <time>2020-07-21T13:41:49Z</time>
      </trkpt>
      <trkpt lat="42.8233820" lon="2.2288330">
        <ele>364.2</ele>
        <time>2020-07-21T13:41:50Z</time>
      </trkpt>
      <trkpt lat="42.8235840" lon="2.2287610">
        <ele>363.6</ele>
        <time>2020-07-21T13:41:52Z</time>
      </trkpt>
      <trkpt lat="42.8236810" lon="2.2287230">
        <ele>363.2</ele>
        <time>2020-07-21T13:41:53Z</time>
      </trkpt>
      <trkpt lat="42.8239780" lon="2.2285760">
        <ele>362.6</ele>
        <time>2020-07-21T13:41:56Z</time>
      </trkpt>
      <trkpt lat="42.8242660" lon="2.2284190">
        <ele>362.2</ele>
        <time>2020-07-21T13:41:59Z</time>
      </trkpt>
      <trkpt lat="42.8245280" lon="2.2282600">
        <ele>361.4</ele>
        <time>2020-07-21T13:42:02Z</time>
      </trkpt>
      <trkpt lat="42.8246980" lon="2.2281430">
        <ele>361.4</ele>
        <time>2020-07-21T13:42:04Z</time>
      </trkpt>
      <trkpt lat="42.8247820" lon="2.2280810">
        <ele>361.4</ele>
        <time>2020-07-21T13:42:05Z</time>
      </trkpt>
      <trkpt lat="42.8251620" lon="2.2276920">
        <ele>361.2</ele>
        <time>2020-07-21T13:42:10Z</time>
      </trkpt>
      <trkpt lat="42.8255600" lon="2.2271450">
        <ele>360.8</ele>
        <time>2020-07-21T13:42:16Z</time>
      </trkpt>
      <trkpt lat="42.8259720" lon="2.2266760">
        <ele>360.4</ele>
        <time>2020-07-21T13:42:22Z</time>
      </trkpt>
      <trkpt lat="42.8260430" lon="2.2266120">
        <ele>360.2</ele>
        <time>2020-07-21T13:42:23Z</time>
      </trkpt>
      <trkpt lat="42.8264570" lon="2.2262330">
        <ele>359.4</ele>
        <time>2020-07-21T13:42:29Z</time>
      </trkpt>
      <trkpt lat="42.8265970" lon="2.2261120">
        <ele>359.4</ele>
        <time>2020-07-21T13:42:31Z</time>
      </trkpt>
      <trkpt lat="42.8270560" lon="2.2258390">
        <ele>359.4</ele>
        <time>2020-07-21T13:42:37Z</time>
      </trkpt>
      <trkpt lat="42.8271330" lon="2.2257960">
        <ele>359.6</ele>
        <time>2020-07-21T13:42:38Z</time>
      </trkpt>
      <trkpt lat="42.8275490" lon="2.2256430">
        <ele>360.0</ele>
        <time>2020-07-21T13:42:43Z</time>
      </trkpt>
      <trkpt lat="42.8279620" lon="2.2254280">
        <ele>360.2</ele>
        <time>2020-07-21T13:42:48Z</time>
      </trkpt>
      <trkpt lat="42.8284130" lon="2.2250070">
        <ele>360.2</ele>
        <time>2020-07-21T13:42:54Z</time>
      </trkpt>
      <trkpt lat="42.8284920" lon="2.2249430">
        <ele>360.2</ele>
        <time>2020-07-21T13:42:55Z</time>
      </trkpt>
      <trkpt lat="42.8287100" lon="2.2247380">
        <ele>360.0</ele>
        <time>2020-07-21T13:42:58Z</time>
      </trkpt>
      <trkpt lat="42.8288590" lon="2.2246060">
        <ele>359.4</ele>
        <time>2020-07-21T13:43:00Z</time>
      </trkpt>
      <trkpt lat="42.8289330" lon="2.2245410">
        <ele>359.2</ele>
        <time>2020-07-21T13:43:01Z</time>
      </trkpt>
      <trkpt lat="42.8292680" lon="2.2241580">
        <ele>359.0</ele>
        <time>2020-07-21T13:43:06Z</time>
      </trkpt>
      <trkpt lat="42.8293680" lon="2.2239670">
        <ele>359.2</ele>
        <time>2020-07-21T13:43:08Z</time>
      </trkpt>
      <trkpt lat="42.8294450" lon="2.2237550">
        <ele>359.4</ele>
        <time>2020-07-21T13:43:10Z</time>
      </trkpt>
      <trkpt lat="42.8294720" lon="2.2236460">
        <ele>359.4</ele>
        <time>2020-07-21T13:43:11Z</time>
      </trkpt>
      <trkpt lat="42.8295140" lon="2.2233090">
        <ele>360.0</ele>
        <time>2020-07-21T13:43:14Z</time>
      </trkpt>
      <trkpt lat="42.8295200" lon="2.2231990">
        <ele>360.4</ele>
        <time>2020-07-21T13:43:15Z</time>
      </trkpt>
      <trkpt lat="42.8294960" lon="2.2227680">
        <ele>361.4</ele>
        <time>2020-07-21T13:43:19Z</time>
      </trkpt>
      <trkpt lat="42.8294330" lon="2.2222520">
        <ele>362.6</ele>
        <time>2020-07-21T13:43:24Z</time>
      </trkpt>
      <trkpt lat="42.8293880" lon="2.2218520">
        <ele>363.2</ele>
        <time>2020-07-21T13:43:28Z</time>
      </trkpt>
      <trkpt lat="42.8293220" lon="2.2213390">
        <ele>362.4</ele>
        <time>2020-07-21T13:43:33Z</time>
      </trkpt>
      <trkpt lat="42.8293050" lon="2.2211390">
        <ele>361.6</ele>
        <time>2020-07-21T13:43:35Z</time>
      </trkpt>
      <trkpt lat="42.8292840" lon="2.2207400">
        <ele>360.6</ele>
        <time>2020-07-21T13:43:39Z</time>
      </trkpt>
      <trkpt lat="42.8292830" lon="2.2204480">
        <ele>360.2</ele>
        <time>2020-07-21T13:43:42Z</time>
      </trkpt>
      <trkpt lat="42.8292940" lon="2.2198780">
        <ele>360.0</ele>
        <time>2020-07-21T13:43:48Z</time>
      </trkpt>
      <trkpt lat="42.8292990" lon="2.2197840">
        <ele>360.0</ele>
        <time>2020-07-21T13:43:49Z</time>
      </trkpt>
      <trkpt lat="42.8293190" lon="2.2191800">
        <ele>359.4</ele>
        <time>2020-07-21T13:43:55Z</time>
      </trkpt>
      <trkpt lat="42.8293240" lon="2.2190730">
        <ele>359.2</ele>
        <time>2020-07-21T13:43:56Z</time>
      </trkpt>
      <trkpt lat="42.8293910" lon="2.2185320">
        <ele>358.2</ele>
        <time>2020-07-21T13:44:01Z</time>
      </trkpt>
      <trkpt lat="42.8294090" lon="2.2184220">
        <ele>358.2</ele>
        <time>2020-07-21T13:44:02Z</time>
      </trkpt>
      <trkpt lat="42.8295260" lon="2.2177620">
        <ele>357.6</ele>
        <time>2020-07-21T13:44:08Z</time>
      </trkpt>
      <trkpt lat="42.8295690" lon="2.2175440">
        <ele>357.2</ele>
        <time>2020-07-21T13:44:10Z</time>
      </trkpt>
      <trkpt lat="42.8295900" lon="2.2174360">
        <ele>357.4</ele>
        <time>2020-07-21T13:44:11Z</time>
      </trkpt>
      <trkpt lat="42.8296780" lon="2.2167610">
        <ele>357.8</ele>
        <time>2020-07-21T13:44:17Z</time>
      </trkpt>
      <trkpt lat="42.8296870" lon="2.2166460">
        <ele>357.8</ele>
        <time>2020-07-21T13:44:18Z</time>
      </trkpt>
      <trkpt lat="42.8296930" lon="2.2159620">
        <ele>357.4</ele>
        <time>2020-07-21T13:44:24Z</time>
      </trkpt>
      <trkpt lat="42.8296800" lon="2.2158480">
        <ele>357.4</ele>
        <time>2020-07-21T13:44:25Z</time>
      </trkpt>
      <trkpt lat="42.8295970" lon="2.2151700">
        <ele>357.2</ele>
        <time>2020-07-21T13:44:31Z</time>
      </trkpt>
      <trkpt lat="42.8295690" lon="2.2149450">
        <ele>357.2</ele>
        <time>2020-07-21T13:44:33Z</time>
      </trkpt>
      <trkpt lat="42.8294820" lon="2.2142710">
        <ele>357.4</ele>
        <time>2020-07-21T13:44:39Z</time>
      </trkpt>
      <trkpt lat="42.8294440" lon="2.2138110">
        <ele>357.0</ele>
        <time>2020-07-21T13:44:43Z</time>
      </trkpt>
      <trkpt lat="42.8294810" lon="2.2131180">
        <ele>356.0</ele>
        <time>2020-07-21T13:44:49Z</time>
      </trkpt>
      <trkpt lat="42.8296080" lon="2.2125220">
        <ele>355.2</ele>
        <time>2020-07-21T13:44:54Z</time>
      </trkpt>
      <trkpt lat="42.8296450" lon="2.2124060">
        <ele>355.0</ele>
        <time>2020-07-21T13:44:55Z</time>
      </trkpt>
      <trkpt lat="42.8296840" lon="2.2122920">
        <ele>355.0</ele>
        <time>2020-07-21T13:44:56Z</time>
      </trkpt>
      <trkpt lat="42.8297720" lon="2.2120700">
        <ele>354.8</ele>
        <time>2020-07-21T13:44:58Z</time>
      </trkpt>
      <trkpt lat="42.8299220" lon="2.2117570">
        <ele>354.8</ele>
        <time>2020-07-21T13:45:01Z</time>
      </trkpt>
      <trkpt lat="42.8302100" lon="2.2112630">
        <ele>354.0</ele>
        <time>2020-07-21T13:45:06Z</time>
      </trkpt>
      <trkpt lat="42.8303440" lon="2.2110880">
        <ele>354.0</ele>
        <time>2020-07-21T13:45:08Z</time>
      </trkpt>
      <trkpt lat="42.8306070" lon="2.2107670">
        <ele>354.2</ele>
        <time>2020-07-21T13:45:12Z</time>
      </trkpt>
      <trkpt lat="42.8307930" lon="2.2105170">
        <ele>353.4</ele>
        <time>2020-07-21T13:45:15Z</time>
      </trkpt>
      <trkpt lat="42.8309140" lon="2.2103450">
        <ele>353.0</ele>
        <time>2020-07-21T13:45:17Z</time>
      </trkpt>
      <trkpt lat="42.8311440" lon="2.2099860">
        <ele>351.2</ele>
        <time>2020-07-21T13:45:21Z</time>
      </trkpt>
      <trkpt lat="42.8312010" lon="2.2098900">
        <ele>350.4</ele>
        <time>2020-07-21T13:45:22Z</time>
      </trkpt>
      <trkpt lat="42.8312540" lon="2.2097940">
        <ele>349.8</ele>
        <time>2020-07-21T13:45:23Z</time>
      </trkpt>
      <trkpt lat="42.8313370" lon="2.2096990">
        <ele>349.0</ele>
        <time>2020-07-21T13:45:29Z</time>
      </trkpt>
      <trkpt lat="42.8314200" lon="2.2096030">
        <ele>348.8</ele>
        <time>2020-07-21T13:45:31Z</time>
      </trkpt>
      <trkpt lat="42.8315030" lon="2.2095080">
        <ele>348.0</ele>
        <time>2020-07-21T13:45:35Z</time>
      </trkpt>
      <trkpt lat="42.8315860" lon="2.2094120">
        <ele>347.6</ele>
        <time>2020-07-21T13:45:36Z</time>
      </trkpt>
      <trkpt lat="42.8322500" lon="2.2086490">
        <ele>346.6</ele>
        <time>2020-07-21T13:45:38Z</time>
      </trkpt>
      <trkpt lat="42.8322680" lon="2.2084880">
        <ele>346.2</ele>
        <time>2020-07-21T13:45:39Z</time>
      </trkpt>
      <trkpt lat="42.8323260" lon="2.2083790">
        <ele>345.8</ele>
        <time>2020-07-21T13:45:40Z</time>
      </trkpt>
      <trkpt lat="42.8324560" lon="2.2081880">
        <ele>344.8</ele>
        <time>2020-07-21T13:45:42Z</time>
      </trkpt>
      <trkpt lat="42.8326030" lon="2.2080300">
        <ele>343.4</ele>
        <time>2020-07-21T13:45:44Z</time>
      </trkpt>
      <trkpt lat="42.8328440" lon="2.2078570">
        <ele>342.8</ele>
        <time>2020-07-21T13:45:47Z</time>
      </trkpt>
      <trkpt lat="42.8331690" lon="2.2076590">
        <ele>342.4</ele>
        <time>2020-07-21T13:45:51Z</time>
      </trkpt>
      <trkpt lat="42.8331690" lon="2.2076590">
        <ele>341.4</ele>
        <time>2020-07-21T13:45:56Z</time>
      </trkpt>
      <trkpt lat="42.8334010" lon="2.2073880">
        <ele>341.2</ele>
        <time>2020-07-21T13:45:57Z</time>
      </trkpt>
      <trkpt lat="42.8336320" lon="2.2071170">
        <ele>341.2</ele>
        <time>2020-07-21T13:45:58Z</time>
      </trkpt>
      <trkpt lat="42.8339910" lon="2.2065890">
        <ele>340.8</ele>
        <time>2020-07-21T13:46:04Z</time>
      </trkpt>
      <trkpt lat="42.8340380" lon="2.2064930">
        <ele>341.0</ele>
        <time>2020-07-21T13:46:05Z</time>
      </trkpt>
      <trkpt lat="42.8341650" lon="2.2063530">
        <ele>341.2</ele>
        <time>2020-07-21T13:46:07Z</time>
      </trkpt>
      <trkpt lat="42.8343620" lon="2.2061380">
        <ele>340.2</ele>
        <time>2020-07-21T13:46:10Z</time>
      </trkpt>
      <trkpt lat="42.8345240" lon="2.2058550">
        <ele>339.8</ele>
        <time>2020-07-21T13:46:13Z</time>
      </trkpt>
      <trkpt lat="42.8345800" lon="2.2057610">
        <ele>339.8</ele>
        <time>2020-07-21T13:46:14Z</time>
      </trkpt>
      <trkpt lat="42.8346470" lon="2.2056780">
        <ele>339.6</ele>
        <time>2020-07-21T13:46:15Z</time>
      </trkpt>
      <trkpt lat="42.8347760" lon="2.2055050">
        <ele>339.2</ele>
        <time>2020-07-21T13:46:17Z</time>
      </trkpt>
      <trkpt lat="42.8348450" lon="2.2054220">
        <ele>339.2</ele>
        <time>2020-07-21T13:46:18Z</time>
      </trkpt>
      <trkpt lat="42.8352970" lon="2.2049990">
        <ele>338.6</ele>
        <time>2020-07-21T13:46:24Z</time>
      </trkpt>
      <trkpt lat="42.8353760" lon="2.2049360">
        <ele>338.2</ele>
        <time>2020-07-21T13:46:25Z</time>
      </trkpt>
      <trkpt lat="42.8355980" lon="2.2047280">
        <ele>336.6</ele>
        <time>2020-07-21T13:46:28Z</time>
      </trkpt>
      <trkpt lat="42.8356750" lon="2.2046640">
        <ele>336.0</ele>
        <time>2020-07-21T13:46:29Z</time>
      </trkpt>
      <trkpt lat="42.8357600" lon="2.2046160">
        <ele>335.8</ele>
        <time>2020-07-21T13:46:30Z</time>
      </trkpt>
      <trkpt lat="42.8358450" lon="2.2045790">
        <ele>335.6</ele>
        <time>2020-07-21T13:46:31Z</time>
      </trkpt>
      <trkpt lat="42.8359310" lon="2.2045560">
        <ele>335.6</ele>
        <time>2020-07-21T13:46:32Z</time>
      </trkpt>
      <trkpt lat="42.8361130" lon="2.2045520">
        <ele>335.4</ele>
        <time>2020-07-21T13:46:34Z</time>
      </trkpt>
      <trkpt lat="42.8362960" lon="2.2045330">
        <ele>335.6</ele>
        <time>2020-07-21T13:46:36Z</time>
      </trkpt>
      <trkpt lat="42.8367370" lon="2.2043900">
        <ele>335.0</ele>
        <time>2020-07-21T13:46:41Z</time>
      </trkpt>
      <trkpt lat="42.8369240" lon="2.2043460">
        <ele>334.6</ele>
        <time>2020-07-21T13:46:43Z</time>
      </trkpt>
      <trkpt lat="42.8370190" lon="2.2043190">
        <ele>334.2</ele>
        <time>2020-07-21T13:46:44Z</time>
      </trkpt>
      <trkpt lat="42.8373010" lon="2.2042250">
        <ele>333.0</ele>
        <time>2020-07-21T13:46:47Z</time>
      </trkpt>
      <trkpt lat="42.8373910" lon="2.2041820">
        <ele>332.8</ele>
        <time>2020-07-21T13:46:48Z</time>
      </trkpt>
      <trkpt lat="42.8374840" lon="2.2041180">
        <ele>332.4</ele>
        <time>2020-07-21T13:46:49Z</time>
      </trkpt>
      <trkpt lat="42.8376260" lon="2.2039790">
        <ele>332.0</ele>
        <time>2020-07-21T13:46:51Z</time>
      </trkpt>
      <trkpt lat="42.8376600" lon="2.2038410">
        <ele>331.8</ele>
        <time>2020-07-21T13:46:52Z</time>
      </trkpt>
      <trkpt lat="42.8378150" lon="2.2035430">
        <ele>331.4</ele>
        <time>2020-07-21T13:46:55Z</time>
      </trkpt>
      <trkpt lat="42.8381610" lon="2.2030770">
        <ele>331.2</ele>
        <time>2020-07-21T13:47:01Z</time>
      </trkpt>
      <trkpt lat="42.8385660" lon="2.2027220">
        <ele>331.4</ele>
        <time>2020-07-21T13:47:07Z</time>
      </trkpt>
      <trkpt lat="42.8387050" lon="2.2026100">
        <ele>331.4</ele>
        <time>2020-07-21T13:47:09Z</time>
      </trkpt>
      <trkpt lat="42.8389190" lon="2.2024570">
        <ele>331.0</ele>
        <time>2020-07-21T13:47:12Z</time>
      </trkpt>
      <trkpt lat="42.8392060" lon="2.2022780">
        <ele>330.2</ele>
        <time>2020-07-21T13:47:16Z</time>
      </trkpt>
      <trkpt lat="42.8393630" lon="2.2022590">
        <ele>330.0</ele>
        <time>2020-07-21T13:47:18Z</time>
      </trkpt>
      <trkpt lat="42.8394400" lon="2.2022680">
        <ele>329.8</ele>
        <time>2020-07-21T13:47:19Z</time>
      </trkpt>
      <trkpt lat="42.8395790" lon="2.2022840">
        <ele>329.6</ele>
        <time>2020-07-21T13:47:21Z</time>
      </trkpt>
      <trkpt lat="42.8397200" lon="2.2023240">
        <ele>329.4</ele>
        <time>2020-07-21T13:47:23Z</time>
      </trkpt>
      <trkpt lat="42.8397960" lon="2.2023610">
        <ele>329.4</ele>
        <time>2020-07-21T13:47:24Z</time>
      </trkpt>
      <trkpt lat="42.8401460" lon="2.2026410">
        <ele>329.2</ele>
        <time>2020-07-21T13:47:29Z</time>
      </trkpt>
      <trkpt lat="42.8402210" lon="2.2026780">
        <ele>329.4</ele>
        <time>2020-07-21T13:47:30Z</time>
      </trkpt>
      <trkpt lat="42.8404520" lon="2.2027470">
        <ele>329.6</ele>
        <time>2020-07-21T13:47:33Z</time>
      </trkpt>
      <trkpt lat="42.8406100" lon="2.2027600">
        <ele>329.8</ele>
        <time>2020-07-21T13:47:35Z</time>
      </trkpt>
      <trkpt lat="42.8409390" lon="2.2027840">
        <ele>329.2</ele>
        <time>2020-07-21T13:47:39Z</time>
      </trkpt>
      <trkpt lat="42.8411100" lon="2.2027790">
        <ele>328.8</ele>
        <time>2020-07-21T13:47:41Z</time>
      </trkpt>
      <trkpt lat="42.8413770" lon="2.2027480">
        <ele>328.2</ele>
        <time>2020-07-21T13:47:44Z</time>
      </trkpt>
      <trkpt lat="42.8416400" lon="2.2026880">
        <ele>327.8</ele>
        <time>2020-07-21T13:47:47Z</time>
      </trkpt>
      <trkpt lat="42.8417260" lon="2.2026730">
        <ele>327.6</ele>
        <time>2020-07-21T13:47:48Z</time>
      </trkpt>
      <trkpt lat="42.8418130" lon="2.2026710">
        <ele>327.6</ele>
        <time>2020-07-21T13:47:49Z</time>
      </trkpt>
      <trkpt lat="42.8419810" lon="2.2026920">
        <ele>327.4</ele>
        <time>2020-07-21T13:47:51Z</time>
      </trkpt>
      <trkpt lat="42.8420670" lon="2.2027190">
        <ele>327.0</ele>
        <time>2020-07-21T13:47:52Z</time>
      </trkpt>
      <trkpt lat="42.8422330" lon="2.2027950">
        <ele>326.4</ele>
        <time>2020-07-21T13:47:54Z</time>
      </trkpt>
      <trkpt lat="42.8423920" lon="2.2029230">
        <ele>325.8</ele>
        <time>2020-07-21T13:47:56Z</time>
      </trkpt>
      <trkpt lat="42.8425480" lon="2.2030530">
        <ele>325.2</ele>
        <time>2020-07-21T13:47:58Z</time>
      </trkpt>
      <trkpt lat="42.8427110" lon="2.2031540">
        <ele>323.6</ele>
        <time>2020-07-21T13:48:00Z</time>
      </trkpt>
      <trkpt lat="42.8427890" lon="2.2031970">
        <ele>323.2</ele>
        <time>2020-07-21T13:48:01Z</time>
      </trkpt>
      <trkpt lat="42.8428790" lon="2.2032320">
        <ele>323.0</ele>
        <time>2020-07-21T13:48:02Z</time>
      </trkpt>
      <trkpt lat="42.8429710" lon="2.2032570">
        <ele>322.8</ele>
        <time>2020-07-21T13:48:03Z</time>
      </trkpt>
      <trkpt lat="42.8430560" lon="2.2032830">
        <ele>322.4</ele>
        <time>2020-07-21T13:48:04Z</time>
      </trkpt>
      <trkpt lat="42.8432390" lon="2.2033020">
        <ele>322.2</ele>
        <time>2020-07-21T13:48:06Z</time>
      </trkpt>
      <trkpt lat="42.8433180" lon="2.2033060">
        <ele>322.0</ele>
        <time>2020-07-21T13:48:07Z</time>
      </trkpt>
      <trkpt lat="42.8433990" lon="2.2032930">
        <ele>321.8</ele>
        <time>2020-07-21T13:48:08Z</time>
      </trkpt>
      <trkpt lat="42.8436490" lon="2.2032170">
        <ele>321.4</ele>
        <time>2020-07-21T13:48:11Z</time>
      </trkpt>
      <trkpt lat="42.8437290" lon="2.2031910">
        <ele>321.4</ele>
        <time>2020-07-21T13:48:12Z</time>
      </trkpt>
      <trkpt lat="42.8442160" lon="2.2030830">
        <ele>320.8</ele>
        <time>2020-07-21T13:48:18Z</time>
      </trkpt>
      <trkpt lat="42.8442950" lon="2.2030720">
        <ele>320.8</ele>
        <time>2020-07-21T13:48:19Z</time>
      </trkpt>
      <trkpt lat="42.8446970" lon="2.2030390">
        <ele>321.8</ele>
        <time>2020-07-21T13:48:24Z</time>
      </trkpt>
      <trkpt lat="42.8448540" lon="2.2030270">
        <ele>322.0</ele>
        <time>2020-07-21T13:48:26Z</time>
      </trkpt>
      <trkpt lat="42.8451610" lon="2.2030060">
        <ele>322.0</ele>
        <time>2020-07-21T13:48:30Z</time>
      </trkpt>
      <trkpt lat="42.8453140" lon="2.2029930">
        <ele>321.8</ele>
        <time>2020-07-21T13:48:32Z</time>
      </trkpt>
      <trkpt lat="42.8457620" lon="2.2030350">
        <ele>321.0</ele>
        <time>2020-07-21T13:48:38Z</time>
      </trkpt>
      <trkpt lat="42.8461970" lon="2.2031900">
        <ele>321.0</ele>
        <time>2020-07-21T13:48:44Z</time>
      </trkpt>
      <trkpt lat="42.8463420" lon="2.2032210">
        <ele>321.0</ele>
        <time>2020-07-21T13:48:46Z</time>
      </trkpt>
      <trkpt lat="42.8467680" lon="2.2032160">
        <ele>321.8</ele>
        <time>2020-07-21T13:48:52Z</time>
      </trkpt>
      <trkpt lat="42.8469150" lon="2.2031990">
        <ele>321.8</ele>
        <time>2020-07-21T13:48:54Z</time>
      </trkpt>
      <trkpt lat="42.8471280" lon="2.2031490">
        <ele>321.4</ele>
        <time>2020-07-21T13:48:57Z</time>
      </trkpt>
      <trkpt lat="42.8472010" lon="2.2031220">
        <ele>321.4</ele>
        <time>2020-07-21T13:48:58Z</time>
      </trkpt>
      <trkpt lat="42.8474850" lon="2.2030220">
        <ele>321.4</ele>
        <time>2020-07-21T13:49:02Z</time>
      </trkpt>
      <trkpt lat="42.8476260" lon="2.2029940">
        <ele>321.4</ele>
        <time>2020-07-21T13:49:04Z</time>
      </trkpt>
      <trkpt lat="42.8477730" lon="2.2030080">
        <ele>321.6</ele>
        <time>2020-07-21T13:49:06Z</time>
      </trkpt>
      <trkpt lat="42.8479200" lon="2.2030460">
        <ele>321.8</ele>
        <time>2020-07-21T13:49:08Z</time>
      </trkpt>
      <trkpt lat="42.8483310" lon="2.2031930">
        <ele>321.8</ele>
        <time>2020-07-21T13:49:14Z</time>
      </trkpt>
      <trkpt lat="42.8484000" lon="2.2032230">
        <ele>322.0</ele>
        <time>2020-07-21T13:49:15Z</time>
      </trkpt>
      <trkpt lat="42.8487390" lon="2.2034200">
        <ele>321.8</ele>
        <time>2020-07-21T13:49:20Z</time>
      </trkpt>
      <trkpt lat="42.8488800" lon="2.2034870">
        <ele>321.8</ele>
        <time>2020-07-21T13:49:22Z</time>
      </trkpt>
      <trkpt lat="42.8489550" lon="2.2035030">
        <ele>321.6</ele>
        <time>2020-07-21T13:49:23Z</time>
      </trkpt>
      <trkpt lat="42.8491840" lon="2.2035020">
        <ele>321.2</ele>
        <time>2020-07-21T13:49:26Z</time>
      </trkpt>
      <trkpt lat="42.8496190" lon="2.2034440">
        <ele>321.8</ele>
        <time>2020-07-21T13:49:32Z</time>
      </trkpt>
      <trkpt lat="42.8496940" lon="2.2034250">
        <ele>321.8</ele>
        <time>2020-07-21T13:49:33Z</time>
      </trkpt>
      <trkpt lat="42.8500600" lon="2.2032420">
        <ele>321.6</ele>
        <time>2020-07-21T13:49:38Z</time>
      </trkpt>
      <trkpt lat="42.8504880" lon="2.2029520">
        <ele>321.4</ele>
        <time>2020-07-21T13:49:44Z</time>
      </trkpt>
      <trkpt lat="42.8505570" lon="2.2028970">
        <ele>321.2</ele>
        <time>2020-07-21T13:49:45Z</time>
      </trkpt>
      <trkpt lat="42.8507590" lon="2.2027220">
        <ele>320.2</ele>
        <time>2020-07-21T13:49:48Z</time>
      </trkpt>
      <trkpt lat="42.8509610" lon="2.2025300">
        <ele>319.6</ele>
        <time>2020-07-21T13:49:51Z</time>
      </trkpt>
      <trkpt lat="42.8510910" lon="2.2024070">
        <ele>319.8</ele>
        <time>2020-07-21T13:49:53Z</time>
      </trkpt>
      <trkpt lat="42.8513520" lon="2.2021590">
        <ele>319.8</ele>
        <time>2020-07-21T13:49:57Z</time>
      </trkpt>
      <trkpt lat="42.8514750" lon="2.2020360">
        <ele>318.8</ele>
        <time>2020-07-21T13:49:59Z</time>
      </trkpt>
      <trkpt lat="42.8515940" lon="2.2019140">
        <ele>318.2</ele>
        <time>2020-07-21T13:50:01Z</time>
      </trkpt>
      <trkpt lat="42.8517100" lon="2.2017940">
        <ele>317.8</ele>
        <time>2020-07-21T13:50:03Z</time>
      </trkpt>
      <trkpt lat="42.8518860" lon="2.2016180">
        <ele>317.8</ele>
        <time>2020-07-21T13:50:06Z</time>
      </trkpt>
      <trkpt lat="42.8521210" lon="2.2013990">
        <ele>318.0</ele>
        <time>2020-07-21T13:50:10Z</time>
      </trkpt>
      <trkpt lat="42.8524740" lon="2.2010710">
        <ele>317.8</ele>
        <time>2020-07-21T13:50:16Z</time>
      </trkpt>
      <trkpt lat="42.8525410" lon="2.2010240">
        <ele>317.8</ele>
        <time>2020-07-21T13:50:17Z</time>
      </trkpt>
      <trkpt lat="42.8529060" lon="2.2008720">
        <ele>317.2</ele>
        <time>2020-07-21T13:50:22Z</time>
      </trkpt>
      <trkpt lat="42.8530570" lon="2.2008380">
        <ele>316.8</ele>
        <time>2020-07-21T13:50:24Z</time>
      </trkpt>
      <trkpt lat="42.8532870" lon="2.2007900">
        <ele>316.6</ele>
        <time>2020-07-21T13:50:27Z</time>
      </trkpt>
      <trkpt lat="42.8535180" lon="2.2007480">
        <ele>316.8</ele>
        <time>2020-07-21T13:50:30Z</time>
      </trkpt>
      <trkpt lat="42.8538160" lon="2.2006760">
        <ele>316.8</ele>
        <time>2020-07-21T13:50:34Z</time>
      </trkpt>
      <trkpt lat="42.8538890" lon="2.2006320">
        <ele>317.0</ele>
        <time>2020-07-21T13:50:35Z</time>
      </trkpt>
      <trkpt lat="42.8539580" lon="2.2005770">
        <ele>317.2</ele>
        <time>2020-07-21T13:50:36Z</time>
      </trkpt>
      <trkpt lat="42.8541510" lon="2.2003670">
        <ele>317.2</ele>
        <time>2020-07-21T13:50:39Z</time>
      </trkpt>
      <trkpt lat="42.8544710" lon="2.1998600">
        <ele>316.8</ele>
        <time>2020-07-21T13:50:45Z</time>
      </trkpt>
      <trkpt lat="42.8547070" lon="2.1992780">
        <ele>316.2</ele>
        <time>2020-07-21T13:50:51Z</time>
      </trkpt>
      <trkpt lat="42.8547640" lon="2.1990600">
        <ele>315.6</ele>
        <time>2020-07-21T13:50:53Z</time>
      </trkpt>
      <trkpt lat="42.8549310" lon="2.1984020">
        <ele>314.8</ele>
        <time>2020-07-21T13:50:59Z</time>
      </trkpt>
      <trkpt lat="42.8549590" lon="2.1982900">
        <ele>314.8</ele>
        <time>2020-07-21T13:51:00Z</time>
      </trkpt>
      <trkpt lat="42.8550480" lon="2.1979430">
        <ele>314.6</ele>
        <time>2020-07-21T13:51:03Z</time>
      </trkpt>
      <trkpt lat="42.8552020" lon="2.1973610">
        <ele>314.0</ele>
        <time>2020-07-21T13:51:08Z</time>
      </trkpt>
      <trkpt lat="42.8552670" lon="2.1971310">
        <ele>313.8</ele>
        <time>2020-07-21T13:51:10Z</time>
      </trkpt>
      <trkpt lat="42.8553290" lon="2.1969000">
        <ele>313.4</ele>
        <time>2020-07-21T13:51:12Z</time>
      </trkpt>
      <trkpt lat="42.8554550" lon="2.1964440">
        <ele>313.0</ele>
        <time>2020-07-21T13:51:16Z</time>
      </trkpt>
      <trkpt lat="42.8556230" lon="2.1958780">
        <ele>312.4</ele>
        <time>2020-07-21T13:51:21Z</time>
      </trkpt>
      <trkpt lat="42.8557890" lon="2.1954430">
        <ele>312.0</ele>
        <time>2020-07-21T13:51:25Z</time>
      </trkpt>
      <trkpt lat="42.8559940" lon="2.1950570">
        <ele>311.4</ele>
        <time>2020-07-21T13:51:29Z</time>
      </trkpt>
      <trkpt lat="42.8561500" lon="2.1947780">
        <ele>311.0</ele>
        <time>2020-07-21T13:51:32Z</time>
      </trkpt>
      <trkpt lat="42.8564590" lon="2.1942330">
        <ele>311.2</ele>
        <time>2020-07-21T13:51:38Z</time>
      </trkpt>
      <trkpt lat="42.8566330" lon="2.1939800">
        <ele>310.8</ele>
        <time>2020-07-21T13:51:41Z</time>
      </trkpt>
      <trkpt lat="42.8566950" lon="2.1939010">
        <ele>310.2</ele>
        <time>2020-07-21T13:51:42Z</time>
      </trkpt>
      <trkpt lat="42.8568800" lon="2.1936740">
        <ele>309.2</ele>
        <time>2020-07-21T13:51:45Z</time>
      </trkpt>
      <trkpt lat="42.8570630" lon="2.1934560">
        <ele>307.8</ele>
        <time>2020-07-21T13:51:48Z</time>
      </trkpt>
      <trkpt lat="42.8571780" lon="2.1933100">
        <ele>307.6</ele>
        <time>2020-07-21T13:51:50Z</time>
      </trkpt>
      <trkpt lat="42.8575450" lon="2.1928700">
        <ele>308.0</ele>
        <time>2020-07-21T13:51:56Z</time>
      </trkpt>
      <trkpt lat="42.8576120" lon="2.1927890">
        <ele>308.0</ele>
        <time>2020-07-21T13:51:57Z</time>
      </trkpt>
      <trkpt lat="42.8577500" lon="2.1926270">
        <ele>308.0</ele>
        <time>2020-07-21T13:51:59Z</time>
      </trkpt>
      <trkpt lat="42.8579530" lon="2.1923840">
        <ele>307.6</ele>
        <time>2020-07-21T13:52:02Z</time>
      </trkpt>
      <trkpt lat="42.8580160" lon="2.1923030">
        <ele>307.6</ele>
        <time>2020-07-21T13:52:03Z</time>
      </trkpt>
      <trkpt lat="42.8581370" lon="2.1921410">
        <ele>307.6</ele>
        <time>2020-07-21T13:52:05Z</time>
      </trkpt>
      <trkpt lat="42.8581940" lon="2.1920570">
        <ele>307.6</ele>
        <time>2020-07-21T13:52:06Z</time>
      </trkpt>
      <trkpt lat="42.8583510" lon="2.1917840">
        <ele>308.4</ele>
        <time>2020-07-21T13:52:09Z</time>
      </trkpt>
      <trkpt lat="42.8584660" lon="2.1916180">
        <ele>308.4</ele>
        <time>2020-07-21T13:52:11Z</time>
      </trkpt>
      <trkpt lat="42.8587460" lon="2.1912030">
        <ele>308.6</ele>
        <time>2020-07-21T13:52:16Z</time>
      </trkpt>
      <trkpt lat="42.8588510" lon="2.1910350">
        <ele>308.8</ele>
        <time>2020-07-21T13:52:18Z</time>
      </trkpt>
      <trkpt lat="42.8589380" lon="2.1908470">
        <ele>308.8</ele>
        <time>2020-07-21T13:52:20Z</time>
      </trkpt>
      <trkpt lat="42.8590480" lon="2.1905370">
        <ele>308.6</ele>
        <time>2020-07-21T13:52:23Z</time>
      </trkpt>
      <trkpt lat="42.8592590" lon="2.1898770">
        <ele>306.8</ele>
        <time>2020-07-21T13:52:29Z</time>
      </trkpt>
      <trkpt lat="42.8593740" lon="2.1895450">
        <ele>305.6</ele>
        <time>2020-07-21T13:52:32Z</time>
      </trkpt>
      <trkpt lat="42.8596130" lon="2.1889100">
        <ele>304.6</ele>
        <time>2020-07-21T13:52:38Z</time>
      </trkpt>
      <trkpt lat="42.8597150" lon="2.1887300">
        <ele>304.6</ele>
        <time>2020-07-21T13:52:40Z</time>
      </trkpt>
      <trkpt lat="42.8597760" lon="2.1886580">
        <ele>304.8</ele>
        <time>2020-07-21T13:52:41Z</time>
      </trkpt>
      <trkpt lat="42.8599100" lon="2.1885460">
        <ele>304.8</ele>
        <time>2020-07-21T13:52:43Z</time>
      </trkpt>
      <trkpt lat="42.8599800" lon="2.1885040">
        <ele>304.8</ele>
        <time>2020-07-21T13:52:44Z</time>
      </trkpt>
      <trkpt lat="42.8601880" lon="2.1884170">
        <ele>304.8</ele>
        <time>2020-07-21T13:52:47Z</time>
      </trkpt>
      <trkpt lat="42.8603290" lon="2.1883920">
        <ele>305.0</ele>
        <time>2020-07-21T13:52:49Z</time>
      </trkpt>
      <trkpt lat="42.8606260" lon="2.1884620">
        <ele>305.4</ele>
        <time>2020-07-21T13:52:53Z</time>
      </trkpt>
      <trkpt lat="42.8608390" lon="2.1885910">
        <ele>305.8</ele>
        <time>2020-07-21T13:52:56Z</time>
      </trkpt>
      <trkpt lat="42.8609720" lon="2.1887210">
        <ele>305.8</ele>
        <time>2020-07-21T13:52:58Z</time>
      </trkpt>
      <trkpt lat="42.8611980" lon="2.1890590">
        <ele>305.0</ele>
        <time>2020-07-21T13:53:02Z</time>
      </trkpt>
      <trkpt lat="42.8613600" lon="2.1894700">
        <ele>304.6</ele>
        <time>2020-07-21T13:53:06Z</time>
      </trkpt>
      <trkpt lat="42.8615290" lon="2.1901250">
        <ele>305.8</ele>
        <time>2020-07-21T13:53:12Z</time>
      </trkpt>
      <trkpt lat="42.8615490" lon="2.1902340">
        <ele>306.0</ele>
        <time>2020-07-21T13:53:13Z</time>
      </trkpt>
      <trkpt lat="42.8616880" lon="2.1908690">
        <ele>305.4</ele>
        <time>2020-07-21T13:53:19Z</time>
      </trkpt>
      <trkpt lat="42.8617180" lon="2.1909720">
        <ele>305.2</ele>
        <time>2020-07-21T13:53:20Z</time>
      </trkpt>
      <trkpt lat="42.8618970" lon="2.1915840">
        <ele>304.6</ele>
        <time>2020-07-21T13:53:26Z</time>
      </trkpt>
      <trkpt lat="42.8619350" lon="2.1916770">
        <ele>304.4</ele>
        <time>2020-07-21T13:53:27Z</time>
      </trkpt>
      <trkpt lat="42.8620300" lon="2.1918440">
        <ele>304.4</ele>
        <time>2020-07-21T13:53:29Z</time>
      </trkpt>
      <trkpt lat="42.8621580" lon="2.1919730">
        <ele>304.2</ele>
        <time>2020-07-21T13:53:31Z</time>
      </trkpt>
      <trkpt lat="42.8623100" lon="2.1920350">
        <ele>304.0</ele>
        <time>2020-07-21T13:53:33Z</time>
      </trkpt>
      <trkpt lat="42.8623930" lon="2.1920330">
        <ele>304.0</ele>
        <time>2020-07-21T13:53:34Z</time>
      </trkpt>
      <trkpt lat="42.8624770" lon="2.1920270">
        <ele>304.0</ele>
        <time>2020-07-21T13:53:35Z</time>
      </trkpt>
      <trkpt lat="42.8627410" lon="2.1919650">
        <ele>303.0</ele>
        <time>2020-07-21T13:53:38Z</time>
      </trkpt>
      <trkpt lat="42.8629020" lon="2.1919190">
        <ele>302.0</ele>
        <time>2020-07-21T13:53:40Z</time>
      </trkpt>
      <trkpt lat="42.8633100" lon="2.1917840">
        <ele>300.8</ele>
        <time>2020-07-21T13:53:45Z</time>
      </trkpt>
      <trkpt lat="42.8634620" lon="2.1916830">
        <ele>300.6</ele>
        <time>2020-07-21T13:53:47Z</time>
      </trkpt>
      <trkpt lat="42.8635910" lon="2.1915270">
        <ele>300.4</ele>
        <time>2020-07-21T13:53:49Z</time>
      </trkpt>
      <trkpt lat="42.8636480" lon="2.1914360">
        <ele>300.4</ele>
        <time>2020-07-21T13:53:50Z</time>
      </trkpt>
      <trkpt lat="42.8637800" lon="2.1911260">
        <ele>299.8</ele>
        <time>2020-07-21T13:53:53Z</time>
      </trkpt>
      <trkpt lat="42.8638880" lon="2.1908250">
        <ele>298.4</ele>
        <time>2020-07-21T13:53:56Z</time>
      </trkpt>
      <trkpt lat="42.8639340" lon="2.1906060">
        <ele>297.8</ele>
        <time>2020-07-21T13:53:58Z</time>
      </trkpt>
      <trkpt lat="42.8639660" lon="2.1903820">
        <ele>297.4</ele>
        <time>2020-07-21T13:54:00Z</time>
      </trkpt>
      <trkpt lat="42.8639700" lon="2.1900490">
        <ele>297.6</ele>
        <time>2020-07-21T13:54:03Z</time>
      </trkpt>
      <trkpt lat="42.8639590" lon="2.1899340">
        <ele>297.6</ele>
        <time>2020-07-21T13:54:04Z</time>
      </trkpt>
      <trkpt lat="42.8639220" lon="2.1896030">
        <ele>298.0</ele>
        <time>2020-07-21T13:54:07Z</time>
      </trkpt>
      <trkpt lat="42.8639050" lon="2.1894970">
        <ele>298.2</ele>
        <time>2020-07-21T13:54:08Z</time>
      </trkpt>
      <trkpt lat="42.8638890" lon="2.1893940">
        <ele>298.4</ele>
        <time>2020-07-21T13:54:09Z</time>
      </trkpt>
      <trkpt lat="42.8638290" lon="2.1889880">
        <ele>298.8</ele>
        <time>2020-07-21T13:54:13Z</time>
      </trkpt>
      <trkpt lat="42.8638000" lon="2.1887990">
        <ele>299.0</ele>
        <time>2020-07-21T13:54:15Z</time>
      </trkpt>
      <trkpt lat="42.8637420" lon="2.1882800">
        <ele>299.0</ele>
        <time>2020-07-21T13:54:21Z</time>
      </trkpt>
      <trkpt lat="42.8637090" lon="2.1881000">
        <ele>298.6</ele>
        <time>2020-07-21T13:54:23Z</time>
      </trkpt>
      <trkpt lat="42.8636210" lon="2.1876370">
        <ele>297.8</ele>
        <time>2020-07-21T13:54:28Z</time>
      </trkpt>
      <trkpt lat="42.8635230" lon="2.1870920">
        <ele>298.2</ele>
        <time>2020-07-21T13:54:34Z</time>
      </trkpt>
      <trkpt lat="42.8635100" lon="2.1870030">
        <ele>298.4</ele>
        <time>2020-07-21T13:54:35Z</time>
      </trkpt>
      <trkpt lat="42.8635040" lon="2.1868260">
        <ele>299.0</ele>
        <time>2020-07-21T13:54:37Z</time>
      </trkpt>
      <trkpt lat="42.8635080" lon="2.1867390">
        <ele>299.4</ele>
        <time>2020-07-21T13:54:38Z</time>
      </trkpt>
      <trkpt lat="42.8635460" lon="2.1863320">
        <ele>300.6</ele>
        <time>2020-07-21T13:54:43Z</time>
      </trkpt>
      <trkpt lat="42.8635780" lon="2.1860210">
        <ele>300.8</ele>
        <time>2020-07-21T13:54:47Z</time>
      </trkpt>
      <trkpt lat="42.8635940" lon="2.1859440">
        <ele>301.0</ele>
        <time>2020-07-21T13:54:48Z</time>
      </trkpt>
      <trkpt lat="42.8636160" lon="2.1858700">
        <ele>301.0</ele>
        <time>2020-07-21T13:54:49Z</time>
      </trkpt>
      <trkpt lat="42.8636460" lon="2.1858030">
        <ele>301.0</ele>
        <time>2020-07-21T13:54:50Z</time>
      </trkpt>
      <trkpt lat="42.8637200" lon="2.1856810">
        <ele>301.2</ele>
        <time>2020-07-21T13:54:52Z</time>
      </trkpt>
      <trkpt lat="42.8637640" lon="2.1856290">
        <ele>301.4</ele>
        <time>2020-07-21T13:54:53Z</time>
      </trkpt>
      <trkpt lat="42.8638540" lon="2.1855390">
        <ele>301.6</ele>
        <time>2020-07-21T13:54:55Z</time>
      </trkpt>
      <trkpt lat="42.8640880" lon="2.1853330">
        <ele>302.0</ele>
        <time>2020-07-21T13:55:00Z</time>
      </trkpt>
      <trkpt lat="42.8643460" lon="2.1850440">
        <ele>302.4</ele>
        <time>2020-07-21T13:55:06Z</time>
      </trkpt>
      <trkpt lat="42.8643910" lon="2.1849970">
        <ele>302.2</ele>
        <time>2020-07-21T13:55:07Z</time>
      </trkpt>
      <trkpt lat="42.8646700" lon="2.1847090">
        <ele>301.8</ele>
        <time>2020-07-21T13:55:13Z</time>
      </trkpt>
      <trkpt lat="42.8648190" lon="2.1845550">
        <ele>302.0</ele>
        <time>2020-07-21T13:55:16Z</time>
      </trkpt>
      <trkpt lat="42.8651420" lon="2.1842900">
        <ele>301.4</ele>
        <time>2020-07-21T13:55:22Z</time>
      </trkpt>
      <trkpt lat="42.8651990" lon="2.1842550">
        <ele>301.2</ele>
        <time>2020-07-21T13:55:23Z</time>
      </trkpt>
      <trkpt lat="42.8654870" lon="2.1840820">
        <ele>300.6</ele>
        <time>2020-07-21T13:55:28Z</time>
      </trkpt>
      <trkpt lat="42.8656700" lon="2.1840050">
        <ele>300.6</ele>
        <time>2020-07-21T13:55:31Z</time>
      </trkpt>
      <trkpt lat="42.8658620" lon="2.1839650">
        <ele>300.6</ele>
        <time>2020-07-21T13:55:34Z</time>
      </trkpt>
      <trkpt lat="42.8660590" lon="2.1839360">
        <ele>300.6</ele>
        <time>2020-07-21T13:55:37Z</time>
      </trkpt>
      <trkpt lat="42.8664120" lon="2.1838850">
        <ele>299.4</ele>
        <time>2020-07-21T13:55:42Z</time>
      </trkpt>
      <trkpt lat="42.8664890" lon="2.1838870">
        <ele>299.4</ele>
        <time>2020-07-21T13:55:43Z</time>
      </trkpt>
      <trkpt lat="42.8668920" lon="2.1839070">
        <ele>299.0</ele>
        <time>2020-07-21T13:55:48Z</time>
      </trkpt>
      <trkpt lat="42.8670510" lon="2.1839250">
        <ele>298.2</ele>
        <time>2020-07-21T13:55:50Z</time>
      </trkpt>
      <trkpt lat="42.8672930" lon="2.1839070">
        <ele>297.0</ele>
        <time>2020-07-21T13:55:53Z</time>
      </trkpt>
      <trkpt lat="42.8674520" lon="2.1838800">
        <ele>296.4</ele>
        <time>2020-07-21T13:55:55Z</time>
      </trkpt>
      <trkpt lat="42.8676080" lon="2.1838540">
        <ele>296.0</ele>
        <time>2020-07-21T13:55:56Z</time>
      </trkpt>
      <trkpt lat="42.8680040" lon="2.1837760">
        <ele>295.6</ele>
        <time>2020-07-21T13:56:02Z</time>
      </trkpt>
      <trkpt lat="42.8680830" lon="2.1837610">
        <ele>295.6</ele>
        <time>2020-07-21T13:56:03Z</time>
      </trkpt>
      <trkpt lat="42.8685490" lon="2.1836630">
        <ele>295.8</ele>
        <time>2020-07-21T13:56:09Z</time>
      </trkpt>
      <trkpt lat="42.8687820" lon="2.1836230">
        <ele>296.0</ele>
        <time>2020-07-21T13:56:12Z</time>
      </trkpt>
      <trkpt lat="42.8692550" lon="2.1835510">
        <ele>295.8</ele>
        <time>2020-07-21T13:56:18Z</time>
      </trkpt>
      <trkpt lat="42.8694170" lon="2.1835180">
        <ele>295.8</ele>
        <time>2020-07-21T13:56:20Z</time>
      </trkpt>
      <trkpt lat="42.8698820" lon="2.1834160">
        <ele>295.4</ele>
        <time>2020-07-21T13:56:26Z</time>
      </trkpt>
      <trkpt lat="42.8700350" lon="2.1833920">
        <ele>295.4</ele>
        <time>2020-07-21T13:56:28Z</time>
      </trkpt>
      <trkpt lat="42.8704880" lon="2.1833220">
        <ele>295.0</ele>
        <time>2020-07-21T13:56:34Z</time>
      </trkpt>
      <trkpt lat="42.8705580" lon="2.1833100">
        <ele>294.8</ele>
        <time>2020-07-21T13:56:35Z</time>
      </trkpt>
      <trkpt lat="42.8709300" lon="2.1832270">
        <ele>294.8</ele>
        <time>2020-07-21T13:56:41Z</time>
      </trkpt>
      <trkpt lat="42.8709770" lon="2.1832220">
        <ele>294.8</ele>
        <time>2020-07-21T13:56:42Z</time>
      </trkpt>
      <trkpt lat="42.8711550" lon="2.1832080">
        <ele>295.4</ele>
        <time>2020-07-21T13:56:47Z</time>
      </trkpt>
      <trkpt lat="42.8711530" lon="2.1831910">
        <ele>295.8</ele>
        <time>2020-07-21T13:56:51Z</time>
      </trkpt>
      <trkpt lat="42.8711530" lon="2.1831860">
        <ele>296.0</ele>
        <time>2020-07-21T13:56:52Z</time>
      </trkpt>
      <trkpt lat="42.8711540" lon="2.1831830">
        <ele>296.0</ele>
        <time>2020-07-21T13:56:53Z</time>
      </trkpt>
      <trkpt lat="42.8711060" lon="2.1830470">
        <ele>295.0</ele>
        <time>2020-07-21T13:59:02Z</time>
      </trkpt>
      <trkpt lat="42.8711100" lon="2.1830460">
        <ele>295.0</ele>
        <time>2020-07-21T13:59:03Z</time>
      </trkpt>
      <trkpt lat="42.8711430" lon="2.1830460">
        <ele>295.0</ele>
        <time>2020-07-21T13:59:05Z</time>
      </trkpt>
      <trkpt lat="42.8711600" lon="2.1830430">
        <ele>295.2</ele>
        <time>2020-07-21T13:59:06Z</time>
      </trkpt>
      <trkpt lat="42.8712850" lon="2.1830540">
        <ele>295.2</ele>
        <time>2020-07-21T13:59:10Z</time>
      </trkpt>
      <trkpt lat="42.8713310" lon="2.1830560">
        <ele>295.2</ele>
        <time>2020-07-21T13:59:11Z</time>
      </trkpt>
      <trkpt lat="42.8714250" lon="2.1830430">
        <ele>295.0</ele>
        <time>2020-07-21T13:59:13Z</time>
      </trkpt>
      <trkpt lat="42.8715250" lon="2.1830280">
        <ele>294.8</ele>
        <time>2020-07-21T13:59:15Z</time>
      </trkpt>
      <trkpt lat="42.8718560" lon="2.1830010">
        <ele>295.2</ele>
        <time>2020-07-21T13:59:21Z</time>
      </trkpt>
      <trkpt lat="42.8719120" lon="2.1829890">
        <ele>295.2</ele>
        <time>2020-07-21T13:59:22Z</time>
      </trkpt>
      <trkpt lat="42.8720420" lon="2.1829660">
        <ele>295.0</ele>
        <time>2020-07-21T13:59:24Z</time>
      </trkpt>
      <trkpt lat="42.8721740" lon="2.1829490">
        <ele>295.0</ele>
        <time>2020-07-21T13:59:26Z</time>
      </trkpt>
      <trkpt lat="42.8722400" lon="2.1829390">
        <ele>295.0</ele>
        <time>2020-07-21T13:59:27Z</time>
      </trkpt>
      <trkpt lat="42.8723070" lon="2.1829300">
        <ele>295.0</ele>
        <time>2020-07-21T13:59:28Z</time>
      </trkpt>
      <trkpt lat="42.8724250" lon="2.1829040">
        <ele>295.0</ele>
        <time>2020-07-21T13:59:30Z</time>
      </trkpt>
      <trkpt lat="42.8726510" lon="2.1828360">
        <ele>294.8</ele>
        <time>2020-07-21T13:59:34Z</time>
      </trkpt>
      <trkpt lat="42.8728940" lon="2.1827980">
        <ele>294.8</ele>
        <time>2020-07-21T13:59:38Z</time>
      </trkpt>
      <trkpt lat="42.8730760" lon="2.1827670">
        <ele>295.4</ele>
        <time>2020-07-21T13:59:41Z</time>
      </trkpt>
      <trkpt lat="42.8732510" lon="2.1827360">
        <ele>295.4</ele>
        <time>2020-07-21T13:59:44Z</time>
      </trkpt>
      <trkpt lat="42.8733040" lon="2.1827250">
        <ele>295.4</ele>
        <time>2020-07-21T13:59:45Z</time>
      </trkpt>
      <trkpt lat="42.8734220" lon="2.1826980">
        <ele>295.2</ele>
        <time>2020-07-21T13:59:47Z</time>
      </trkpt>
      <trkpt lat="42.8737590" lon="2.1826110">
        <ele>295.6</ele>
        <time>2020-07-21T13:59:53Z</time>
      </trkpt>
      <trkpt lat="42.8738160" lon="2.1826000">
        <ele>295.4</ele>
        <time>2020-07-21T13:59:54Z</time>
      </trkpt>
      <trkpt lat="42.8741410" lon="2.1825620">
        <ele>294.4</ele>
        <time>2020-07-21T13:59:59Z</time>
      </trkpt>
      <trkpt lat="42.8743350" lon="2.1825600">
        <ele>293.8</ele>
        <time>2020-07-21T14:00:02Z</time>
      </trkpt>
      <trkpt lat="42.8745900" lon="2.1825330">
        <ele>293.6</ele>
        <time>2020-07-21T14:00:06Z</time>
      </trkpt>
      <trkpt lat="42.8746570" lon="2.1825270">
        <ele>293.4</ele>
        <time>2020-07-21T14:00:07Z</time>
      </trkpt>
      <trkpt lat="42.8748320" lon="2.1824850">
        <ele>293.4</ele>
        <time>2020-07-21T14:00:10Z</time>
      </trkpt>
      <trkpt lat="42.8748680" lon="2.1824650">
        <ele>293.2</ele>
        <time>2020-07-21T14:00:11Z</time>
      </trkpt>
      <trkpt lat="42.8750430" lon="2.1824220">
        <ele>292.8</ele>
        <time>2020-07-21T14:00:16Z</time>
      </trkpt>
      <trkpt lat="42.8752530" lon="2.1823510">
        <ele>292.8</ele>
        <time>2020-07-21T14:00:21Z</time>
      </trkpt>
      <trkpt lat="42.8754990" lon="2.1822820">
        <ele>292.2</ele>
        <time>2020-07-21T14:00:26Z</time>
      </trkpt>
      <trkpt lat="42.8755200" lon="2.1822490">
        <ele>292.2</ele>
        <time>2020-07-21T14:00:27Z</time>
      </trkpt>
      <trkpt lat="42.8755230" lon="2.1821470">
        <ele>292.2</ele>
        <time>2020-07-21T14:00:29Z</time>
      </trkpt>
      <trkpt lat="42.8754980" lon="2.1819580">
        <ele>293.0</ele>
        <time>2020-07-21T14:00:32Z</time>
      </trkpt>
      <trkpt lat="42.8754950" lon="2.1817650">
        <ele>293.4</ele>
        <time>2020-07-21T14:00:35Z</time>
      </trkpt>
      <trkpt lat="42.8754890" lon="2.1816380">
        <ele>293.8</ele>
        <time>2020-07-21T14:00:37Z</time>
      </trkpt>
      <trkpt lat="42.8754810" lon="2.1815770">
        <ele>294.2</ele>
        <time>2020-07-21T14:00:38Z</time>
      </trkpt>
      <trkpt lat="42.8754600" lon="2.1814030">
        <ele>295.0</ele>
        <time>2020-07-21T14:00:41Z</time>
      </trkpt>
      <trkpt lat="42.8754290" lon="2.1810860">
        <ele>295.4</ele>
        <time>2020-07-21T14:00:47Z</time>
      </trkpt>
      <trkpt lat="42.8754460" lon="2.1810300">
        <ele>295.2</ele>
        <time>2020-07-21T14:00:48Z</time>
      </trkpt>
      <trkpt lat="42.8754730" lon="2.1809780">
        <ele>295.2</ele>
        <time>2020-07-21T14:00:49Z</time>
      </trkpt>
      <trkpt lat="42.8755120" lon="2.1809160">
        <ele>295.0</ele>
        <time>2020-07-21T14:00:51Z</time>
      </trkpt>
      <trkpt lat="42.8755120" lon="2.1809020">
        <ele>294.8</ele>
        <time>2020-07-21T14:00:52Z</time>
      </trkpt>
      <trkpt lat="42.8754870" lon="2.1808970">
        <ele>294.6</ele>
        <time>2020-07-21T14:00:54Z</time>
      </trkpt>
      <trkpt lat="42.8754790" lon="2.1808990">
        <ele>294.6</ele>
        <time>2020-07-21T14:00:55Z</time>
      </trkpt>
      <trkpt lat="42.8756590" lon="2.1808640">
        <ele>295.2</ele>
        <time>2020-07-21T14:01:48Z</time>
      </trkpt>
      <trkpt lat="42.8756920" lon="2.1808410">
        <ele>295.2</ele>
        <time>2020-07-21T14:01:49Z</time>
      </trkpt>
      <trkpt lat="42.8758290" lon="2.1807590">
        <ele>295.2</ele>
        <time>2020-07-21T14:01:53Z</time>
      </trkpt>
      <trkpt lat="42.8759040" lon="2.1807170">
        <ele>295.4</ele>
        <time>2020-07-21T14:01:55Z</time>
      </trkpt>
      <trkpt lat="42.8759430" lon="2.1806970">
        <ele>295.6</ele>
        <time>2020-07-21T14:01:56Z</time>
      </trkpt>
      <trkpt lat="42.8760550" lon="2.1806360">
        <ele>295.8</ele>
        <time>2020-07-21T14:01:59Z</time>
      </trkpt>
      <trkpt lat="42.8761230" lon="2.1805900">
        <ele>296.2</ele>
        <time>2020-07-21T14:02:01Z</time>
      </trkpt>
      <trkpt lat="42.8761840" lon="2.1805450">
        <ele>296.6</ele>
        <time>2020-07-21T14:02:03Z</time>
      </trkpt>
      <trkpt lat="42.8762450" lon="2.1805040">
        <ele>297.0</ele>
        <time>2020-07-21T14:02:05Z</time>
      </trkpt>
      <trkpt lat="42.8762760" lon="2.1804830">
        <ele>297.2</ele>
        <time>2020-07-21T14:02:06Z</time>
      </trkpt>
      <trkpt lat="42.8764110" lon="2.1804020">
        <ele>297.4</ele>
        <time>2020-07-21T14:02:10Z</time>
      </trkpt>
      <trkpt lat="42.8765080" lon="2.1803440">
        <ele>297.4</ele>
        <time>2020-07-21T14:02:13Z</time>
      </trkpt>
      <trkpt lat="42.8765390" lon="2.1803230">
        <ele>297.6</ele>
        <time>2020-07-21T14:02:14Z</time>
      </trkpt>
      <trkpt lat="42.8766660" lon="2.1802490">
        <ele>298.4</ele>
        <time>2020-07-21T14:02:18Z</time>
      </trkpt>
      <trkpt lat="42.8767650" lon="2.1801900">
        <ele>298.6</ele>
        <time>2020-07-21T14:02:21Z</time>
      </trkpt>
      <trkpt lat="42.8767980" lon="2.1801720">
        <ele>298.8</ele>
        <time>2020-07-21T14:02:22Z</time>
      </trkpt>
      <trkpt lat="42.8769030" lon="2.1801150">
        <ele>299.4</ele>
        <time>2020-07-21T14:02:26Z</time>
      </trkpt>
      <trkpt lat="42.8769220" lon="2.1801140">
        <ele>299.4</ele>
        <time>2020-07-21T14:02:27Z</time>
      </trkpt>
      <trkpt lat="42.8769320" lon="2.1801150">
        <ele>299.4</ele>
        <time>2020-07-21T14:02:28Z</time>
      </trkpt>
      <trkpt lat="42.8769360" lon="2.1801170">
        <ele>299.4</ele>
        <time>2020-07-21T14:02:29Z</time>
      </trkpt>
      <trkpt lat="42.8775050" lon="2.1813920">
        <ele>295.0</ele>
        <time>2020-07-22T06:21:34Z</time>
      </trkpt>
      <trkpt lat="42.8774840" lon="2.1813240">
        <ele>294.6</ele>
        <time>2020-07-22T06:21:36Z</time>
      </trkpt>
      <trkpt lat="42.8774580" lon="2.1812100">
        <ele>294.8</ele>
        <time>2020-07-22T06:21:39Z</time>
      </trkpt>
      <trkpt lat="42.8774440" lon="2.1811690">
        <ele>294.8</ele>
        <time>2020-07-22T06:21:40Z</time>
      </trkpt>
      <trkpt lat="42.8774310" lon="2.1811300">
        <ele>294.8</ele>
        <time>2020-07-22T06:21:41Z</time>
      </trkpt>
      <trkpt lat="42.8774050" lon="2.1810490">
        <ele>295.0</ele>
        <time>2020-07-22T06:21:43Z</time>
      </trkpt>
      <trkpt lat="42.8773580" lon="2.1809400">
        <ele>295.4</ele>
        <time>2020-07-22T06:21:46Z</time>
      </trkpt>
      <trkpt lat="42.8773280" lon="2.1808660">
        <ele>296.0</ele>
        <time>2020-07-22T06:21:49Z</time>
      </trkpt>
      <trkpt lat="42.8773150" lon="2.1808240">
        <ele>296.2</ele>
        <time>2020-07-22T06:21:50Z</time>
      </trkpt>
      <trkpt lat="42.8772350" lon="2.1805830">
        <ele>296.8</ele>
        <time>2020-07-22T06:21:56Z</time>
      </trkpt>
      <trkpt lat="42.8772200" lon="2.1805440">
        <ele>297.0</ele>
        <time>2020-07-22T06:21:57Z</time>
      </trkpt>
      <trkpt lat="42.8771870" lon="2.1804710">
        <ele>297.2</ele>
        <time>2020-07-22T06:21:59Z</time>
      </trkpt>
      <trkpt lat="42.8771100" lon="2.1802890">
        <ele>298.4</ele>
        <time>2020-07-22T06:22:04Z</time>
      </trkpt>
      <trkpt lat="42.8770590" lon="2.1802020">
        <ele>299.2</ele>
        <time>2020-07-22T06:22:07Z</time>
      </trkpt>
      <trkpt lat="42.8770210" lon="2.1801530">
        <ele>299.8</ele>
        <time>2020-07-22T06:22:09Z</time>
      </trkpt>
      <trkpt lat="42.8769790" lon="2.1801060">
        <ele>300.4</ele>
        <time>2020-07-22T06:22:12Z</time>
      </trkpt>
      <trkpt lat="42.8769610" lon="2.1801040">
        <ele>300.6</ele>
        <time>2020-07-22T06:22:13Z</time>
      </trkpt>
      <trkpt lat="42.8768230" lon="2.1801680">
        <ele>300.4</ele>
        <time>2020-07-22T06:22:18Z</time>
      </trkpt>
      <trkpt lat="42.8766120" lon="2.1802930">
        <ele>299.4</ele>
        <time>2020-07-22T06:22:23Z</time>
      </trkpt>
      <trkpt lat="42.8765210" lon="2.1803480">
        <ele>298.6</ele>
        <time>2020-07-22T06:22:25Z</time>
      </trkpt>
      <trkpt lat="42.8763300" lon="2.1804660">
        <ele>298.0</ele>
        <time>2020-07-22T06:22:29Z</time>
      </trkpt>
      <trkpt lat="42.8762900" lon="2.1804920">
        <ele>298.0</ele>
        <time>2020-07-22T06:22:30Z</time>
      </trkpt>
      <trkpt lat="42.8760080" lon="2.1806570">
        <ele>297.8</ele>
        <time>2020-07-22T06:22:36Z</time>
      </trkpt>
      <trkpt lat="42.8759090" lon="2.1807120">
        <ele>297.6</ele>
        <time>2020-07-22T06:22:38Z</time>
      </trkpt>
      <trkpt lat="42.8757310" lon="2.1807960">
        <ele>297.0</ele>
        <time>2020-07-22T06:22:41Z</time>
      </trkpt>
      <trkpt lat="42.8756840" lon="2.1808180">
        <ele>296.6</ele>
        <time>2020-07-22T06:22:43Z</time>
      </trkpt>
      <trkpt lat="42.8756370" lon="2.1808410">
        <ele>296.4</ele>
        <time>2020-07-22T06:22:44Z</time>
      </trkpt>
      <trkpt lat="42.8754520" lon="2.1809390">
        <ele>296.4</ele>
        <time>2020-07-22T06:22:49Z</time>
      </trkpt>
      <trkpt lat="42.8754230" lon="2.1810000">
        <ele>296.4</ele>
        <time>2020-07-22T06:22:51Z</time>
      </trkpt>
      <trkpt lat="42.8754180" lon="2.1810930">
        <ele>296.4</ele>
        <time>2020-07-22T06:22:52Z</time>
      </trkpt>
      <trkpt lat="42.8754240" lon="2.1812480">
        <ele>296.6</ele>
        <time>2020-07-22T06:22:55Z</time>
      </trkpt>
      <trkpt lat="42.8754330" lon="2.1814070">
        <ele>296.8</ele>
        <time>2020-07-22T06:22:58Z</time>
      </trkpt>
      <trkpt lat="42.8754410" lon="2.1814640">
        <ele>296.8</ele>
        <time>2020-07-22T06:22:59Z</time>
      </trkpt>
      <trkpt lat="42.8754820" lon="2.1818540">
        <ele>295.6</ele>
        <time>2020-07-22T06:23:05Z</time>
      </trkpt>
      <trkpt lat="42.8754820" lon="2.1818860">
        <ele>295.4</ele>
        <time>2020-07-22T06:23:06Z</time>
      </trkpt>
      <trkpt lat="42.8754820" lon="2.1819180">
        <ele>295.2</ele>
        <time>2020-07-22T06:23:07Z</time>
      </trkpt>
      <trkpt lat="42.8754830" lon="2.1822370">
        <ele>294.6</ele>
        <time>2020-07-22T06:23:12Z</time>
      </trkpt>
      <trkpt lat="42.8754920" lon="2.1822810">
        <ele>294.2</ele>
        <time>2020-07-22T06:23:13Z</time>
      </trkpt>
      <trkpt lat="42.8755100" lon="2.1823120">
        <ele>294.0</ele>
        <time>2020-07-22T06:23:14Z</time>
      </trkpt>
      <trkpt lat="42.8755730" lon="2.1823480">
        <ele>293.8</ele>
        <time>2020-07-22T06:23:16Z</time>
      </trkpt>
      <trkpt lat="42.8757480" lon="2.1823230">
        <ele>293.4</ele>
        <time>2020-07-22T06:23:20Z</time>
      </trkpt>
      <trkpt lat="42.8759360" lon="2.1822850">
        <ele>293.4</ele>
        <time>2020-07-22T06:23:24Z</time>
      </trkpt>
      <trkpt lat="42.8760150" lon="2.1822770">
        <ele>293.4</ele>
        <time>2020-07-22T06:23:26Z</time>
      </trkpt>
      <trkpt lat="42.8761900" lon="2.1822960">
        <ele>293.2</ele>
        <time>2020-07-22T06:23:29Z</time>
      </trkpt>
      <trkpt lat="42.8762990" lon="2.1823170">
        <ele>292.8</ele>
        <time>2020-07-22T06:23:31Z</time>
      </trkpt>
      <trkpt lat="42.8765880" lon="2.1824060">
        <ele>292.4</ele>
        <time>2020-07-22T06:23:36Z</time>
      </trkpt>
      <trkpt lat="42.8766410" lon="2.1824320">
        <ele>292.2</ele>
        <time>2020-07-22T06:23:37Z</time>
      </trkpt>
      <trkpt lat="42.8767450" lon="2.1824990">
        <ele>292.2</ele>
        <time>2020-07-22T06:23:38Z</time>
      </trkpt>
      <trkpt lat="42.8768390" lon="2.1825770">
        <ele>292.2</ele>
        <time>2020-07-22T06:23:40Z</time>
      </trkpt>
      <trkpt lat="42.8769250" lon="2.1826620">
        <ele>291.8</ele>
        <time>2020-07-22T06:23:42Z</time>
      </trkpt>
      <trkpt lat="42.8770120" lon="2.1827570">
        <ele>291.4</ele>
        <time>2020-07-22T06:23:45Z</time>
      </trkpt>
      <trkpt lat="42.8771320" lon="2.1829140">
        <ele>291.4</ele>
        <time>2020-07-22T06:23:47Z</time>
      </trkpt>
      <trkpt lat="42.8771680" lon="2.1829700">
        <ele>291.4</ele>
        <time>2020-07-22T06:23:48Z</time>
      </trkpt>
      <trkpt lat="42.8772030" lon="2.1830250">
        <ele>291.6</ele>
        <time>2020-07-22T06:23:49Z</time>
      </trkpt>
      <trkpt lat="42.8773060" lon="2.1832480">
        <ele>291.6</ele>
        <time>2020-07-22T06:23:54Z</time>
      </trkpt>
      <trkpt lat="42.8773510" lon="2.1833460">
        <ele>291.6</ele>
        <time>2020-07-22T06:23:56Z</time>
      </trkpt>
      <trkpt lat="42.8774360" lon="2.1834970">
        <ele>291.4</ele>
        <time>2020-07-22T06:24:01Z</time>
      </trkpt>
      <trkpt lat="42.8774990" lon="2.1836670">
        <ele>291.4</ele>
        <time>2020-07-22T06:24:07Z</time>
      </trkpt>
      <trkpt lat="42.8775980" lon="2.1838430">
        <ele>291.0</ele>
        <time>2020-07-22T06:24:12Z</time>
      </trkpt>
      <trkpt lat="42.8777590" lon="2.1838310">
        <ele>291.0</ele>
        <time>2020-07-22T06:24:15Z</time>
      </trkpt>
      <trkpt lat="42.8779580" lon="2.1837480">
        <ele>291.4</ele>
        <time>2020-07-22T06:24:20Z</time>
      </trkpt>
      <trkpt lat="42.8779580" lon="2.1837480">
        <ele>291.6</ele>
        <time>2020-07-22T06:24:21Z</time>
      </trkpt>
      <trkpt lat="42.8780190" lon="2.1837050">
        <ele>292.0</ele>
        <time>2020-07-22T06:24:22Z</time>
      </trkpt>
      <trkpt lat="42.8780470" lon="2.1836810">
        <ele>292.4</ele>
        <time>2020-07-22T06:24:23Z</time>
      </trkpt>
      <trkpt lat="42.8780730" lon="2.1836540">
        <ele>293.0</ele>
        <time>2020-07-22T06:24:25Z</time>
      </trkpt>
      <trkpt lat="42.8781240" lon="2.1835990">
        <ele>293.6</ele>
        <time>2020-07-22T06:24:27Z</time>
      </trkpt>
      <trkpt lat="42.8781880" lon="2.1835040">
        <ele>293.8</ele>
        <time>2020-07-22T06:24:30Z</time>
      </trkpt>
      <trkpt lat="42.8782030" lon="2.1834650">
        <ele>294.2</ele>
        <time>2020-07-22T06:24:31Z</time>
      </trkpt>
      <trkpt lat="42.8782230" lon="2.1833760">
        <ele>294.4</ele>
        <time>2020-07-22T06:24:33Z</time>
      </trkpt>
      <trkpt lat="42.8782330" lon="2.1831090">
        <ele>295.2</ele>
        <time>2020-07-22T06:24:38Z</time>
      </trkpt>
      <trkpt lat="42.8782330" lon="2.1830540">
        <ele>295.4</ele>
        <time>2020-07-22T06:24:39Z</time>
      </trkpt>
      <trkpt lat="42.8782170" lon="2.1828090">
        <ele>296.4</ele>
        <time>2020-07-22T06:24:44Z</time>
      </trkpt>
      <trkpt lat="42.8782120" lon="2.1827680">
        <ele>296.6</ele>
        <time>2020-07-22T06:24:45Z</time>
      </trkpt>
      <trkpt lat="42.8781940" lon="2.1826050">
        <ele>297.6</ele>
        <time>2020-07-22T06:24:49Z</time>
      </trkpt>
      <trkpt lat="42.8781630" lon="2.1823930">
        <ele>298.2</ele>
        <time>2020-07-22T06:24:54Z</time>
      </trkpt>
      <trkpt lat="42.8781450" lon="2.1822720">
        <ele>298.4</ele>
        <time>2020-07-22T06:24:57Z</time>
      </trkpt>
      <trkpt lat="42.8781400" lon="2.1822330">
        <ele>298.6</ele>
        <time>2020-07-22T06:24:58Z</time>
      </trkpt>
      <trkpt lat="42.8781160" lon="2.1820760">
        <ele>299.6</ele>
        <time>2020-07-22T06:25:02Z</time>
      </trkpt>
      <trkpt lat="42.8780900" lon="2.1819220">
        <ele>300.4</ele>
        <time>2020-07-22T06:25:05Z</time>
      </trkpt>
      <trkpt lat="42.8780730" lon="2.1818430">
        <ele>300.8</ele>
        <time>2020-07-22T06:25:08Z</time>
      </trkpt>
      <trkpt lat="42.8780340" lon="2.1816830">
        <ele>301.2</ele>
        <time>2020-07-22T06:25:11Z</time>
      </trkpt>
      <trkpt lat="42.8780270" lon="2.1816440">
        <ele>301.6</ele>
        <time>2020-07-22T06:25:13Z</time>
      </trkpt>
      <trkpt lat="42.8780210" lon="2.1816040">
        <ele>301.8</ele>
        <time>2020-07-22T06:25:14Z</time>
      </trkpt>
      <trkpt lat="42.8779900" lon="2.1814490">
        <ele>302.2</ele>
        <time>2020-07-22T06:25:17Z</time>
      </trkpt>
      <trkpt lat="42.8779740" lon="2.1813720">
        <ele>302.8</ele>
        <time>2020-07-22T06:25:19Z</time>
      </trkpt>
      <trkpt lat="42.8779420" lon="2.1812180">
        <ele>303.6</ele>
        <time>2020-07-22T06:25:23Z</time>
      </trkpt>
      <trkpt lat="42.8779310" lon="2.1811810">
        <ele>303.8</ele>
        <time>2020-07-22T06:25:24Z</time>
      </trkpt>
      <trkpt lat="42.8779240" lon="2.1811410">
        <ele>304.0</ele>
        <time>2020-07-22T06:25:25Z</time>
      </trkpt>
      <trkpt lat="42.8779170" lon="2.1810160">
        <ele>304.6</ele>
        <time>2020-07-22T06:25:29Z</time>
      </trkpt>
      <trkpt lat="42.8779140" lon="2.1808950">
        <ele>305.2</ele>
        <time>2020-07-22T06:25:32Z</time>
      </trkpt>
      <trkpt lat="42.8779280" lon="2.1806290">
        <ele>306.4</ele>
        <time>2020-07-22T06:25:38Z</time>
      </trkpt>
      <trkpt lat="42.8779380" lon="2.1805580">
        <ele>306.6</ele>
        <time>2020-07-22T06:25:40Z</time>
      </trkpt>
      <trkpt lat="42.8779610" lon="2.1804050">
        <ele>307.4</ele>
        <time>2020-07-22T06:25:44Z</time>
      </trkpt>
      <trkpt lat="42.8779880" lon="2.1802400">
        <ele>308.0</ele>
        <time>2020-07-22T06:25:48Z</time>
      </trkpt>
      <trkpt lat="42.8779940" lon="2.1801980">
        <ele>308.4</ele>
        <time>2020-07-22T06:25:50Z</time>
      </trkpt>
      <trkpt lat="42.8780380" lon="2.1800000">
        <ele>309.6</ele>
        <time>2020-07-22T06:25:55Z</time>
      </trkpt>
      <trkpt lat="42.8780800" lon="2.1798540">
        <ele>310.2</ele>
        <time>2020-07-22T06:25:59Z</time>
      </trkpt>
      <trkpt lat="42.8780990" lon="2.1797810">
        <ele>310.8</ele>
        <time>2020-07-22T06:26:01Z</time>
      </trkpt>
      <trkpt lat="42.8781290" lon="2.1796770">
        <ele>311.2</ele>
        <time>2020-07-22T06:26:03Z</time>
      </trkpt>
      <trkpt lat="42.8781650" lon="2.1795820">
        <ele>311.8</ele>
        <time>2020-07-22T06:26:07Z</time>
      </trkpt>
      <trkpt lat="42.8781750" lon="2.1795470">
        <ele>312.0</ele>
        <time>2020-07-22T06:26:08Z</time>
      </trkpt>
      <trkpt lat="42.8782280" lon="2.1793890">
        <ele>313.0</ele>
        <time>2020-07-22T06:26:13Z</time>
      </trkpt>
      <trkpt lat="42.8782680" lon="2.1793110">
        <ele>313.4</ele>
        <time>2020-07-22T06:26:15Z</time>
      </trkpt>
      <trkpt lat="42.8783400" lon="2.1791990">
        <ele>314.0</ele>
        <time>2020-07-22T06:26:20Z</time>
      </trkpt>
      <trkpt lat="42.8783600" lon="2.1791780">
        <ele>314.4</ele>
        <time>2020-07-22T06:26:21Z</time>
      </trkpt>
      <trkpt lat="42.8784730" lon="2.1790570">
        <ele>315.2</ele>
        <time>2020-07-22T06:26:26Z</time>
      </trkpt>
      <trkpt lat="42.8785420" lon="2.1789980">
        <ele>315.8</ele>
        <time>2020-07-22T06:26:29Z</time>
      </trkpt>
      <trkpt lat="42.8785660" lon="2.1789770">
        <ele>315.8</ele>
        <time>2020-07-22T06:26:30Z</time>
      </trkpt>
      <trkpt lat="42.8786130" lon="2.1789310">
        <ele>316.2</ele>
        <time>2020-07-22T06:26:32Z</time>
      </trkpt>
      <trkpt lat="42.8787250" lon="2.1788180">
        <ele>317.0</ele>
        <time>2020-07-22T06:26:37Z</time>
      </trkpt>
      <trkpt lat="42.8787690" lon="2.1787700">
        <ele>317.4</ele>
        <time>2020-07-22T06:26:39Z</time>
      </trkpt>
      <trkpt lat="42.8788950" lon="2.1786320">
        <ele>318.2</ele>
        <time>2020-07-22T06:26:45Z</time>
      </trkpt>
      <trkpt lat="42.8789140" lon="2.1786040">
        <ele>318.4</ele>
        <time>2020-07-22T06:26:46Z</time>
      </trkpt>
      <trkpt lat="42.8789140" lon="2.1786040">
        <ele>318.6</ele>
        <time>2020-07-22T06:26:47Z</time>
      </trkpt>
      <trkpt lat="42.8789990" lon="2.1784560">
        <ele>319.6</ele>
        <time>2020-07-22T06:26:51Z</time>
      </trkpt>
      <trkpt lat="42.8790120" lon="2.1784210">
        <ele>319.8</ele>
        <time>2020-07-22T06:26:52Z</time>
      </trkpt>
      <trkpt lat="42.8790120" lon="2.1784210">
        <ele>320.0</ele>
        <time>2020-07-22T06:26:53Z</time>
      </trkpt>
      <trkpt lat="42.8790240" lon="2.1783860">
        <ele>320.4</ele>
        <time>2020-07-22T06:26:54Z</time>
      </trkpt>
      <trkpt lat="42.8790400" lon="2.1783110">
        <ele>320.6</ele>
        <time>2020-07-22T06:26:55Z</time>
      </trkpt>
      <trkpt lat="42.8790540" lon="2.1782290">
        <ele>320.8</ele>
        <time>2020-07-22T06:26:57Z</time>
      </trkpt>
      <trkpt lat="42.8790900" lon="2.1779890">
        <ele>321.8</ele>
        <time>2020-07-22T06:27:03Z</time>
      </trkpt>
      <trkpt lat="42.8790930" lon="2.1779490">
        <ele>322.2</ele>
        <time>2020-07-22T06:27:04Z</time>
      </trkpt>
      <trkpt lat="42.8790950" lon="2.1779090">
        <ele>322.4</ele>
        <time>2020-07-22T06:27:05Z</time>
      </trkpt>
      <trkpt lat="42.8791250" lon="2.1777130">
        <ele>323.2</ele>
        <time>2020-07-22T06:27:10Z</time>
      </trkpt>
      <trkpt lat="42.8791560" lon="2.1776000">
        <ele>324.2</ele>
        <time>2020-07-22T06:27:13Z</time>
      </trkpt>
      <trkpt lat="42.8791690" lon="2.1775650">
        <ele>324.4</ele>
        <time>2020-07-22T06:27:14Z</time>
      </trkpt>
      <trkpt lat="42.8792500" lon="2.1774010">
        <ele>325.4</ele>
        <time>2020-07-22T06:27:19Z</time>
      </trkpt>
      <trkpt lat="42.8793210" lon="2.1772680">
        <ele>326.2</ele>
        <time>2020-07-22T06:27:23Z</time>
      </trkpt>
      <trkpt lat="42.8793390" lon="2.1772350">
        <ele>326.6</ele>
        <time>2020-07-22T06:27:24Z</time>
      </trkpt>
      <trkpt lat="42.8793910" lon="2.1771450">
        <ele>327.0</ele>
        <time>2020-07-22T06:27:27Z</time>
      </trkpt>
      <trkpt lat="42.8794430" lon="2.1770550">
        <ele>328.0</ele>
        <time>2020-07-22T06:27:30Z</time>
      </trkpt>
      <trkpt lat="42.8794960" lon="2.1769630">
        <ele>328.8</ele>
        <time>2020-07-22T06:27:33Z</time>
      </trkpt>
      <trkpt lat="42.8795110" lon="2.1769310">
        <ele>329.0</ele>
        <time>2020-07-22T06:27:34Z</time>
      </trkpt>
      <trkpt lat="42.8796110" lon="2.1767450">
        <ele>329.8</ele>
        <time>2020-07-22T06:27:40Z</time>
      </trkpt>
      <trkpt lat="42.8796440" lon="2.1766830">
        <ele>330.0</ele>
        <time>2020-07-22T06:27:42Z</time>
      </trkpt>
      <trkpt lat="42.8797500" lon="2.1765040">
        <ele>331.0</ele>
        <time>2020-07-22T06:27:48Z</time>
      </trkpt>
      <trkpt lat="42.8797660" lon="2.1764730">
        <ele>331.4</ele>
        <time>2020-07-22T06:27:49Z</time>
      </trkpt>
      <trkpt lat="42.8798220" lon="2.1763830">
        <ele>332.2</ele>
        <time>2020-07-22T06:27:52Z</time>
      </trkpt>
      <trkpt lat="42.8798400" lon="2.1763520">
        <ele>332.4</ele>
        <time>2020-07-22T06:27:53Z</time>
      </trkpt>
      <trkpt lat="42.8798840" lon="2.1762970">
        <ele>333.0</ele>
        <time>2020-07-22T06:27:55Z</time>
      </trkpt>
      <trkpt lat="42.8799720" lon="2.1761950">
        <ele>333.6</ele>
        <time>2020-07-22T06:27:59Z</time>
      </trkpt>
      <trkpt lat="42.8799940" lon="2.1761680">
        <ele>333.8</ele>
        <time>2020-07-22T06:28:00Z</time>
      </trkpt>
      <trkpt lat="42.8800840" lon="2.1760730">
        <ele>334.8</ele>
        <time>2020-07-22T06:28:04Z</time>
      </trkpt>
      <trkpt lat="42.8801780" lon="2.1759750">
        <ele>335.6</ele>
        <time>2020-07-22T06:28:08Z</time>
      </trkpt>
      <trkpt lat="42.8802000" lon="2.1759490">
        <ele>335.8</ele>
        <time>2020-07-22T06:28:09Z</time>
      </trkpt>
      <trkpt lat="42.8803080" lon="2.1758110">
        <ele>336.8</ele>
        <time>2020-07-22T06:28:14Z</time>
      </trkpt>
      <trkpt lat="42.8803730" lon="2.1757220">
        <ele>337.6</ele>
        <time>2020-07-22T06:28:17Z</time>
      </trkpt>
      <trkpt lat="42.8804070" lon="2.1756550">
        <ele>338.0</ele>
        <time>2020-07-22T06:28:19Z</time>
      </trkpt>
      <trkpt lat="42.8804740" lon="2.1755220">
        <ele>339.2</ele>
        <time>2020-07-22T06:28:23Z</time>
      </trkpt>
      <trkpt lat="42.8805160" lon="2.1754180">
        <ele>339.8</ele>
        <time>2020-07-22T06:28:26Z</time>
      </trkpt>
      <trkpt lat="42.8805670" lon="2.1752750">
        <ele>340.2</ele>
        <time>2020-07-22T06:28:30Z</time>
      </trkpt>
      <trkpt lat="42.8805770" lon="2.1752370">
        <ele>340.4</ele>
        <time>2020-07-22T06:28:31Z</time>
      </trkpt>
      <trkpt lat="42.8806200" lon="2.1750930">
        <ele>341.2</ele>
        <time>2020-07-22T06:28:35Z</time>
      </trkpt>
      <trkpt lat="42.8806380" lon="2.1750190">
        <ele>341.4</ele>
        <time>2020-07-22T06:28:37Z</time>
      </trkpt>
      <trkpt lat="42.8806500" lon="2.1749420">
        <ele>342.0</ele>
        <time>2020-07-22T06:28:39Z</time>
      </trkpt>
      <trkpt lat="42.8806530" lon="2.1748270">
        <ele>342.6</ele>
        <time>2020-07-22T06:28:42Z</time>
      </trkpt>
      <trkpt lat="42.8805760" lon="2.1746770">
        <ele>343.2</ele>
        <time>2020-07-22T06:28:47Z</time>
      </trkpt>
      <trkpt lat="42.8805500" lon="2.1746520">
        <ele>343.4</ele>
        <time>2020-07-22T06:28:48Z</time>
      </trkpt>
      <trkpt lat="42.8804930" lon="2.1746110">
        <ele>343.6</ele>
        <time>2020-07-22T06:28:50Z</time>
      </trkpt>
      <trkpt lat="42.8804020" lon="2.1745630">
        <ele>343.8</ele>
        <time>2020-07-22T06:28:53Z</time>
      </trkpt>
      <trkpt lat="42.8802310" lon="2.1744840">
        <ele>344.6</ele>
        <time>2020-07-22T06:28:59Z</time>
      </trkpt>
      <trkpt lat="42.8801960" lon="2.1744780">
        <ele>344.8</ele>
        <time>2020-07-22T06:29:00Z</time>
      </trkpt>
      <trkpt lat="42.8800380" lon="2.1744790">
        <ele>345.8</ele>
        <time>2020-07-22T06:29:05Z</time>
      </trkpt>
      <trkpt lat="42.8800060" lon="2.1744800">
        <ele>346.0</ele>
        <time>2020-07-22T06:29:06Z</time>
      </trkpt>
      <trkpt lat="42.8799740" lon="2.1744820">
        <ele>346.2</ele>
        <time>2020-07-22T06:29:07Z</time>
      </trkpt>
      <trkpt lat="42.8798450" lon="2.1745120">
        <ele>347.0</ele>
        <time>2020-07-22T06:29:11Z</time>
      </trkpt>
      <trkpt lat="42.8797440" lon="2.1745400">
        <ele>347.4</ele>
        <time>2020-07-22T06:29:14Z</time>
      </trkpt>
      <trkpt lat="42.8796130" lon="2.1745650">
        <ele>348.2</ele>
        <time>2020-07-22T06:29:18Z</time>
      </trkpt>
      <trkpt lat="42.8794910" lon="2.1745600">
        <ele>348.8</ele>
        <time>2020-07-22T06:29:22Z</time>
      </trkpt>
      <trkpt lat="42.8794000" lon="2.1745460">
        <ele>349.2</ele>
        <time>2020-07-22T06:29:25Z</time>
      </trkpt>
      <trkpt lat="42.8792250" lon="2.1744870">
        <ele>350.2</ele>
        <time>2020-07-22T06:29:31Z</time>
      </trkpt>
      <trkpt lat="42.8791680" lon="2.1744670">
        <ele>350.8</ele>
        <time>2020-07-22T06:29:33Z</time>
      </trkpt>
      <trkpt lat="42.8791120" lon="2.1744450">
        <ele>351.4</ele>
        <time>2020-07-22T06:29:35Z</time>
      </trkpt>
      <trkpt lat="42.8789800" lon="2.1743820">
        <ele>352.2</ele>
        <time>2020-07-22T06:29:40Z</time>
      </trkpt>
      <trkpt lat="42.8789540" lon="2.1743690">
        <ele>352.4</ele>
        <time>2020-07-22T06:29:41Z</time>
      </trkpt>
      <trkpt lat="42.8788450" lon="2.1743220">
        <ele>353.2</ele>
        <time>2020-07-22T06:29:45Z</time>
      </trkpt>
      <trkpt lat="42.8788180" lon="2.1743040">
        <ele>353.4</ele>
        <time>2020-07-22T06:29:46Z</time>
      </trkpt>
      <trkpt lat="42.8787640" lon="2.1742690">
        <ele>354.0</ele>
        <time>2020-07-22T06:29:48Z</time>
      </trkpt>
      <trkpt lat="42.8787130" lon="2.1742360">
        <ele>354.2</ele>
        <time>2020-07-22T06:29:50Z</time>
      </trkpt>
      <trkpt lat="42.8786640" lon="2.1741980">
        <ele>354.6</ele>
        <time>2020-07-22T06:29:52Z</time>
      </trkpt>
      <trkpt lat="42.8785670" lon="2.1740670">
        <ele>355.6</ele>
        <time>2020-07-22T06:29:57Z</time>
      </trkpt>
      <trkpt lat="42.8785230" lon="2.1739710">
        <ele>356.6</ele>
        <time>2020-07-22T06:30:01Z</time>
      </trkpt>
      <trkpt lat="42.8784790" lon="2.1738030">
        <ele>357.4</ele>
        <time>2020-07-22T06:30:05Z</time>
      </trkpt>
      <trkpt lat="42.8784730" lon="2.1737690">
        <ele>357.8</ele>
        <time>2020-07-22T06:30:07Z</time>
      </trkpt>
      <trkpt lat="42.8784800" lon="2.1736580">
        <ele>358.2</ele>
        <time>2020-07-22T06:30:09Z</time>
      </trkpt>
      <trkpt lat="42.8784840" lon="2.1736210">
        <ele>358.4</ele>
        <time>2020-07-22T06:30:10Z</time>
      </trkpt>
      <trkpt lat="42.8784940" lon="2.1735460">
        <ele>358.8</ele>
        <time>2020-07-22T06:30:12Z</time>
      </trkpt>
      <trkpt lat="42.8784990" lon="2.1735070">
        <ele>359.0</ele>
        <time>2020-07-22T06:30:13Z</time>
      </trkpt>
      <trkpt lat="42.8785200" lon="2.1733940">
        <ele>360.0</ele>
        <time>2020-07-22T06:30:17Z</time>
      </trkpt>
      <trkpt lat="42.8785800" lon="2.1731780">
        <ele>361.0</ele>
        <time>2020-07-22T06:30:22Z</time>
      </trkpt>
      <trkpt lat="42.8786730" lon="2.1729890">
        <ele>361.8</ele>
        <time>2020-07-22T06:30:28Z</time>
      </trkpt>
      <trkpt lat="42.8786910" lon="2.1729600">
        <ele>362.2</ele>
        <time>2020-07-22T06:30:29Z</time>
      </trkpt>
      <trkpt lat="42.8787230" lon="2.1728970">
        <ele>362.8</ele>
        <time>2020-07-22T06:30:31Z</time>
      </trkpt>
      <trkpt lat="42.8787840" lon="2.1728040">
        <ele>363.4</ele>
        <time>2020-07-22T06:30:34Z</time>
      </trkpt>
      <trkpt lat="42.8788860" lon="2.1726450">
        <ele>364.4</ele>
        <time>2020-07-22T06:30:39Z</time>
      </trkpt>
      <trkpt lat="42.8789060" lon="2.1726130">
        <ele>364.6</ele>
        <time>2020-07-22T06:30:40Z</time>
      </trkpt>
      <trkpt lat="42.8790240" lon="2.1724270">
        <ele>365.8</ele>
        <time>2020-07-22T06:30:46Z</time>
      </trkpt>
      <trkpt lat="42.8791140" lon="2.1722710">
        <ele>366.8</ele>
        <time>2020-07-22T06:30:51Z</time>
      </trkpt>
      <trkpt lat="42.8791330" lon="2.1722420">
        <ele>367.0</ele>
        <time>2020-07-22T06:30:52Z</time>
      </trkpt>
      <trkpt lat="42.8792190" lon="2.1720890">
        <ele>368.2</ele>
        <time>2020-07-22T06:30:57Z</time>
      </trkpt>
      <trkpt lat="42.8792800" lon="2.1720110">
        <ele>368.8</ele>
        <time>2020-07-22T06:31:00Z</time>
      </trkpt>
      <trkpt lat="42.8793230" lon="2.1719610">
        <ele>369.4</ele>
        <time>2020-07-22T06:31:02Z</time>
      </trkpt>
      <trkpt lat="42.8793950" lon="2.1718420">
        <ele>370.2</ele>
        <time>2020-07-22T06:31:06Z</time>
      </trkpt>
      <trkpt lat="42.8794300" lon="2.1717810">
        <ele>370.6</ele>
        <time>2020-07-22T06:31:08Z</time>
      </trkpt>
      <trkpt lat="42.8794650" lon="2.1717210">
        <ele>371.0</ele>
        <time>2020-07-22T06:31:10Z</time>
      </trkpt>
      <trkpt lat="42.8795200" lon="2.1716320">
        <ele>371.6</ele>
        <time>2020-07-22T06:31:13Z</time>
      </trkpt>
      <trkpt lat="42.8795950" lon="2.1715070">
        <ele>372.4</ele>
        <time>2020-07-22T06:31:17Z</time>
      </trkpt>
      <trkpt lat="42.8796360" lon="2.1714460">
        <ele>372.6</ele>
        <time>2020-07-22T06:31:19Z</time>
      </trkpt>
      <trkpt lat="42.8797210" lon="2.1712850">
        <ele>373.8</ele>
        <time>2020-07-22T06:31:24Z</time>
      </trkpt>
      <trkpt lat="42.8797560" lon="2.1712210">
        <ele>374.2</ele>
        <time>2020-07-22T06:31:26Z</time>
      </trkpt>
      <trkpt lat="42.8797820" lon="2.1711500">
        <ele>374.8</ele>
        <time>2020-07-22T06:31:28Z</time>
      </trkpt>
      <trkpt lat="42.8798540" lon="2.1709350">
        <ele>375.6</ele>
        <time>2020-07-22T06:31:34Z</time>
      </trkpt>
      <trkpt lat="42.8798810" lon="2.1708710">
        <ele>375.8</ele>
        <time>2020-07-22T06:31:36Z</time>
      </trkpt>
      <trkpt lat="42.8799210" lon="2.1706900">
        <ele>376.6</ele>
        <time>2020-07-22T06:31:41Z</time>
      </trkpt>
      <trkpt lat="42.8799300" lon="2.1706540">
        <ele>377.0</ele>
        <time>2020-07-22T06:31:42Z</time>
      </trkpt>
      <trkpt lat="42.8799620" lon="2.1705140">
        <ele>377.8</ele>
        <time>2020-07-22T06:31:46Z</time>
      </trkpt>
      <trkpt lat="42.8799700" lon="2.1704780">
        <ele>378.0</ele>
        <time>2020-07-22T06:31:47Z</time>
      </trkpt>
      <trkpt lat="42.8799770" lon="2.1704420">
        <ele>378.2</ele>
        <time>2020-07-22T06:31:48Z</time>
      </trkpt>
      <trkpt lat="42.8799850" lon="2.1704050">
        <ele>378.4</ele>
        <time>2020-07-22T06:31:49Z</time>
      </trkpt>
      <trkpt lat="42.8800020" lon="2.1702980">
        <ele>378.8</ele>
        <time>2020-07-22T06:31:52Z</time>
      </trkpt>
      <trkpt lat="42.8800040" lon="2.1702640">
        <ele>378.8</ele>
        <time>2020-07-22T06:31:53Z</time>
      </trkpt>
      <trkpt lat="42.8800050" lon="2.1702310">
        <ele>379.0</ele>
        <time>2020-07-22T06:31:54Z</time>
      </trkpt>
      <trkpt lat="42.8800020" lon="2.1701960">
        <ele>379.2</ele>
        <time>2020-07-22T06:31:55Z</time>
      </trkpt>
      <trkpt lat="42.8799980" lon="2.1701590">
        <ele>379.4</ele>
        <time>2020-07-22T06:31:56Z</time>
      </trkpt>
      <trkpt lat="42.8799750" lon="2.1700870">
        <ele>379.8</ele>
        <time>2020-07-22T06:31:58Z</time>
      </trkpt>
      <trkpt lat="42.8799390" lon="2.1700260">
        <ele>380.2</ele>
        <time>2020-07-22T06:32:00Z</time>
      </trkpt>
      <trkpt lat="42.8799170" lon="2.1699980">
        <ele>380.4</ele>
        <time>2020-07-22T06:32:01Z</time>
      </trkpt>
      <trkpt lat="42.8797690" lon="2.1698620">
        <ele>381.4</ele>
        <time>2020-07-22T06:32:07Z</time>
      </trkpt>
      <trkpt lat="42.8797250" lon="2.1698260">
        <ele>381.8</ele>
        <time>2020-07-22T06:32:09Z</time>
      </trkpt>
      <trkpt lat="42.8797250" lon="2.1698260">
        <ele>382.0</ele>
        <time>2020-07-22T06:32:10Z</time>
      </trkpt>
      <trkpt lat="42.8796770" lon="2.1697950">
        <ele>382.4</ele>
        <time>2020-07-22T06:32:12Z</time>
      </trkpt>
      <trkpt lat="42.8796040" lon="2.1697500">
        <ele>382.6</ele>
        <time>2020-07-22T06:32:15Z</time>
      </trkpt>
      <trkpt lat="42.8794920" lon="2.1697030">
        <ele>383.6</ele>
        <time>2020-07-22T06:32:19Z</time>
      </trkpt>
      <trkpt lat="42.8794390" lon="2.1696690">
        <ele>383.8</ele>
        <time>2020-07-22T06:32:20Z</time>
      </trkpt>
      <trkpt lat="42.8793920" lon="2.1696250">
        <ele>384.2</ele>
        <time>2020-07-22T06:32:23Z</time>
      </trkpt>
      <trkpt lat="42.8793330" lon="2.1695050">
        <ele>384.8</ele>
        <time>2020-07-22T06:32:26Z</time>
      </trkpt>
      <trkpt lat="42.8793250" lon="2.1694730">
        <ele>385.2</ele>
        <time>2020-07-22T06:32:27Z</time>
      </trkpt>
      <trkpt lat="42.8793160" lon="2.1694160">
        <ele>385.8</ele>
        <time>2020-07-22T06:32:29Z</time>
      </trkpt>
      <trkpt lat="42.8793290" lon="2.1693050">
        <ele>387.2</ele>
        <time>2020-07-22T06:32:34Z</time>
      </trkpt>
      <trkpt lat="42.8793650" lon="2.1692020">
        <ele>388.0</ele>
        <time>2020-07-22T06:32:37Z</time>
      </trkpt>
      <trkpt lat="42.8793800" lon="2.1691700">
        <ele>388.2</ele>
        <time>2020-07-22T06:32:38Z</time>
      </trkpt>
      <trkpt lat="42.8793960" lon="2.1691390">
        <ele>388.4</ele>
        <time>2020-07-22T06:32:39Z</time>
      </trkpt>
      <trkpt lat="42.8794290" lon="2.1690740">
        <ele>388.6</ele>
        <time>2020-07-22T06:32:41Z</time>
      </trkpt>
      <trkpt lat="42.8794870" lon="2.1689460">
        <ele>389.4</ele>
        <time>2020-07-22T06:32:45Z</time>
      </trkpt>
      <trkpt lat="42.8795400" lon="2.1688160">
        <ele>390.4</ele>
        <time>2020-07-22T06:32:49Z</time>
      </trkpt>
      <trkpt lat="42.8795520" lon="2.1687850">
        <ele>390.4</ele>
        <time>2020-07-22T06:32:50Z</time>
      </trkpt>
      <trkpt lat="42.8795940" lon="2.1686200">
        <ele>391.6</ele>
        <time>2020-07-22T06:32:55Z</time>
      </trkpt>
      <trkpt lat="42.8796110" lon="2.1685180">
        <ele>392.2</ele>
        <time>2020-07-22T06:32:58Z</time>
      </trkpt>
      <trkpt lat="42.8796260" lon="2.1684130">
        <ele>392.8</ele>
        <time>2020-07-22T06:33:01Z</time>
      </trkpt>
      <trkpt lat="42.8796460" lon="2.1682400">
        <ele>393.6</ele>
        <time>2020-07-22T06:33:06Z</time>
      </trkpt>
      <trkpt lat="42.8796540" lon="2.1681730">
        <ele>394.0</ele>
        <time>2020-07-22T06:33:08Z</time>
      </trkpt>
      <trkpt lat="42.8796590" lon="2.1680350">
        <ele>394.8</ele>
        <time>2020-07-22T06:33:12Z</time>
      </trkpt>
      <trkpt lat="42.8796580" lon="2.1680010">
        <ele>395.0</ele>
        <time>2020-07-22T06:33:13Z</time>
      </trkpt>
      <trkpt lat="42.8796570" lon="2.1678260">
        <ele>396.0</ele>
        <time>2020-07-22T06:33:18Z</time>
      </trkpt>
      <trkpt lat="42.8797360" lon="2.1676100">
        <ele>396.8</ele>
        <time>2020-07-22T06:33:24Z</time>
      </trkpt>
      <trkpt lat="42.8797550" lon="2.1675870">
        <ele>397.0</ele>
        <time>2020-07-22T06:33:25Z</time>
      </trkpt>
      <trkpt lat="42.8798380" lon="2.1674970">
        <ele>398.2</ele>
        <time>2020-07-22T06:33:29Z</time>
      </trkpt>
      <trkpt lat="42.8799060" lon="2.1674330">
        <ele>398.8</ele>
        <time>2020-07-22T06:33:32Z</time>
      </trkpt>
      <trkpt lat="42.8799470" lon="2.1673880">
        <ele>399.4</ele>
        <time>2020-07-22T06:33:34Z</time>
      </trkpt>
      <trkpt lat="42.8800270" lon="2.1673080">
        <ele>400.6</ele>
        <time>2020-07-22T06:33:39Z</time>
      </trkpt>
      <trkpt lat="42.8800660" lon="2.1672690">
        <ele>401.0</ele>
        <time>2020-07-22T06:33:41Z</time>
      </trkpt>
      <trkpt lat="42.8801410" lon="2.1671710">
        <ele>401.6</ele>
        <time>2020-07-22T06:33:44Z</time>
      </trkpt>
      <trkpt lat="42.8801770" lon="2.1670700">
        <ele>402.2</ele>
        <time>2020-07-22T06:33:47Z</time>
      </trkpt>
      <trkpt lat="42.8801900" lon="2.1669950">
        <ele>402.6</ele>
        <time>2020-07-22T06:33:49Z</time>
      </trkpt>
      <trkpt lat="42.8802190" lon="2.1669040">
        <ele>403.2</ele>
        <time>2020-07-22T06:33:52Z</time>
      </trkpt>
      <trkpt lat="42.8802290" lon="2.1668360">
        <ele>403.6</ele>
        <time>2020-07-22T06:33:54Z</time>
      </trkpt>
      <trkpt lat="42.8802310" lon="2.1667960">
        <ele>403.8</ele>
        <time>2020-07-22T06:33:55Z</time>
      </trkpt>
      <trkpt lat="42.8802260" lon="2.1666320">
        <ele>404.0</ele>
        <time>2020-07-22T06:33:59Z</time>
      </trkpt>
      <trkpt lat="42.8802120" lon="2.1665520">
        <ele>404.6</ele>
        <time>2020-07-22T06:34:01Z</time>
      </trkpt>
      <trkpt lat="42.8802120" lon="2.1665520">
        <ele>404.8</ele>
        <time>2020-07-22T06:34:02Z</time>
      </trkpt>
      <trkpt lat="42.8801540" lon="2.1662760">
        <ele>405.6</ele>
        <time>2020-07-22T06:34:08Z</time>
      </trkpt>
      <trkpt lat="42.8801540" lon="2.1662760">
        <ele>405.8</ele>
        <time>2020-07-22T06:34:09Z</time>
      </trkpt>
      <trkpt lat="42.8801290" lon="2.1661560">
        <ele>406.2</ele>
        <time>2020-07-22T06:34:11Z</time>
      </trkpt>
      <trkpt lat="42.8801090" lon="2.1660760">
        <ele>407.0</ele>
        <time>2020-07-22T06:34:13Z</time>
      </trkpt>
      <trkpt lat="42.8800640" lon="2.1658840">
        <ele>408.0</ele>
        <time>2020-07-22T06:34:18Z</time>
      </trkpt>
      <trkpt lat="42.8800550" lon="2.1658480">
        <ele>408.2</ele>
        <time>2020-07-22T06:34:19Z</time>
      </trkpt>
      <trkpt lat="42.8800140" lon="2.1656580">
        <ele>409.0</ele>
        <time>2020-07-22T06:34:24Z</time>
      </trkpt>
      <trkpt lat="42.8799860" lon="2.1655030">
        <ele>409.6</ele>
        <time>2020-07-22T06:34:28Z</time>
      </trkpt>
      <trkpt lat="42.8799790" lon="2.1653870">
        <ele>410.2</ele>
        <time>2020-07-22T06:34:31Z</time>
      </trkpt>
      <trkpt lat="42.8799650" lon="2.1652400">
        <ele>411.2</ele>
        <time>2020-07-22T06:34:35Z</time>
      </trkpt>
      <trkpt lat="42.8799570" lon="2.1650450">
        <ele>412.4</ele>
        <time>2020-07-22T06:34:40Z</time>
      </trkpt>
      <trkpt lat="42.8799580" lon="2.1649700">
        <ele>413.0</ele>
        <time>2020-07-22T06:34:42Z</time>
      </trkpt>
      <trkpt lat="42.8799570" lon="2.1649360">
        <ele>413.2</ele>
        <time>2020-07-22T06:34:43Z</time>
      </trkpt>
      <trkpt lat="42.8799570" lon="2.1649000">
        <ele>413.4</ele>
        <time>2020-07-22T06:34:44Z</time>
      </trkpt>
      <trkpt lat="42.8799570" lon="2.1648640">
        <ele>413.6</ele>
        <time>2020-07-22T06:34:45Z</time>
      </trkpt>
      <trkpt lat="42.8799550" lon="2.1648290">
        <ele>413.8</ele>
        <time>2020-07-22T06:34:46Z</time>
      </trkpt>
      <trkpt lat="42.8799500" lon="2.1646800">
        <ele>414.6</ele>
        <time>2020-07-22T06:34:50Z</time>
      </trkpt>
      <trkpt lat="42.8799450" lon="2.1644820">
        <ele>415.8</ele>
        <time>2020-07-22T06:34:55Z</time>
      </trkpt>
      <trkpt lat="42.8799370" lon="2.1644070">
        <ele>416.2</ele>
        <time>2020-07-22T06:34:57Z</time>
      </trkpt>
      <trkpt lat="42.8799290" lon="2.1643330">
        <ele>416.4</ele>
        <time>2020-07-22T06:34:59Z</time>
      </trkpt>
      <trkpt lat="42.8799250" lon="2.1642960">
        <ele>416.6</ele>
        <time>2020-07-22T06:35:00Z</time>
      </trkpt>
      <trkpt lat="42.8799140" lon="2.1642200">
        <ele>416.8</ele>
        <time>2020-07-22T06:35:02Z</time>
      </trkpt>
      <trkpt lat="42.8799040" lon="2.1641460">
        <ele>417.2</ele>
        <time>2020-07-22T06:35:04Z</time>
      </trkpt>
      <trkpt lat="42.8798740" lon="2.1639970">
        <ele>418.0</ele>
        <time>2020-07-22T06:35:08Z</time>
      </trkpt>
      <trkpt lat="42.8798660" lon="2.1639600">
        <ele>418.2</ele>
        <time>2020-07-22T06:35:09Z</time>
      </trkpt>
      <trkpt lat="42.8798600" lon="2.1639230">
        <ele>418.4</ele>
        <time>2020-07-22T06:35:10Z</time>
      </trkpt>
      <trkpt lat="42.8798510" lon="2.1638490">
        <ele>418.8</ele>
        <time>2020-07-22T06:35:12Z</time>
      </trkpt>
      <trkpt lat="42.8798470" lon="2.1638140">
        <ele>419.0</ele>
        <time>2020-07-22T06:35:13Z</time>
      </trkpt>
      <trkpt lat="42.8798380" lon="2.1637430">
        <ele>419.6</ele>
        <time>2020-07-22T06:35:15Z</time>
      </trkpt>
      <trkpt lat="42.8798180" lon="2.1636380">
        <ele>420.4</ele>
        <time>2020-07-22T06:35:18Z</time>
      </trkpt>
      <trkpt lat="42.8797750" lon="2.1635020">
        <ele>421.0</ele>
        <time>2020-07-22T06:35:22Z</time>
      </trkpt>
      <trkpt lat="42.8797630" lon="2.1634710">
        <ele>421.2</ele>
        <time>2020-07-22T06:35:23Z</time>
      </trkpt>
      <trkpt lat="42.8797470" lon="2.1634410">
        <ele>421.4</ele>
        <time>2020-07-22T06:35:24Z</time>
      </trkpt>
      <trkpt lat="42.8797310" lon="2.1634120">
        <ele>421.6</ele>
        <time>2020-07-22T06:35:25Z</time>
      </trkpt>
      <trkpt lat="42.8795830" lon="2.1632760">
        <ele>422.6</ele>
        <time>2020-07-22T06:35:31Z</time>
      </trkpt>
      <trkpt lat="42.8795210" lon="2.1632640">
        <ele>423.0</ele>
        <time>2020-07-22T06:35:33Z</time>
      </trkpt>
      <trkpt lat="42.8794330" lon="2.1632990">
        <ele>423.6</ele>
        <time>2020-07-22T06:35:36Z</time>
      </trkpt>
      <trkpt lat="42.8794080" lon="2.1633130">
        <ele>423.8</ele>
        <time>2020-07-22T06:35:37Z</time>
      </trkpt>
      <trkpt lat="42.8793840" lon="2.1633340">
        <ele>423.8</ele>
        <time>2020-07-22T06:35:38Z</time>
      </trkpt>
      <trkpt lat="42.8792870" lon="2.1634470">
        <ele>424.2</ele>
        <time>2020-07-22T06:35:42Z</time>
      </trkpt>
      <trkpt lat="42.8792640" lon="2.1634760">
        <ele>424.4</ele>
        <time>2020-07-22T06:35:43Z</time>
      </trkpt>
      <trkpt lat="42.8792200" lon="2.1635370">
        <ele>424.8</ele>
        <time>2020-07-22T06:35:45Z</time>
      </trkpt>
      <trkpt lat="42.8791080" lon="2.1636830">
        <ele>425.8</ele>
        <time>2020-07-22T06:35:50Z</time>
      </trkpt>
      <trkpt lat="42.8791080" lon="2.1636830">
        <ele>426.0</ele>
        <time>2020-07-22T06:35:51Z</time>
      </trkpt>
      <trkpt lat="42.8789820" lon="2.1638700">
        <ele>427.0</ele>
        <time>2020-07-22T06:35:56Z</time>
      </trkpt>
      <trkpt lat="42.8789210" lon="2.1639670">
        <ele>427.6</ele>
        <time>2020-07-22T06:35:59Z</time>
      </trkpt>
      <trkpt lat="42.8788540" lon="2.1640560">
        <ele>428.2</ele>
        <time>2020-07-22T06:36:02Z</time>
      </trkpt>
      <trkpt lat="42.8787850" lon="2.1641300">
        <ele>428.6</ele>
        <time>2020-07-22T06:36:05Z</time>
      </trkpt>
      <trkpt lat="42.8786810" lon="2.1642200">
        <ele>429.2</ele>
        <time>2020-07-22T06:36:09Z</time>
      </trkpt>
      <trkpt lat="42.8785650" lon="2.1642880">
        <ele>430.2</ele>
        <time>2020-07-22T06:36:13Z</time>
      </trkpt>
      <trkpt lat="42.8785350" lon="2.1643010">
        <ele>430.4</ele>
        <time>2020-07-22T06:36:14Z</time>
      </trkpt>
      <trkpt lat="42.8783890" lon="2.1643500">
        <ele>431.4</ele>
        <time>2020-07-22T06:36:19Z</time>
      </trkpt>
      <trkpt lat="42.8783590" lon="2.1643610">
        <ele>431.6</ele>
        <time>2020-07-22T06:36:20Z</time>
      </trkpt>
      <trkpt lat="42.8782720" lon="2.1643840">
        <ele>432.2</ele>
        <time>2020-07-22T06:36:23Z</time>
      </trkpt>
      <trkpt lat="42.8782150" lon="2.1643970">
        <ele>432.6</ele>
        <time>2020-07-22T06:36:25Z</time>
      </trkpt>
      <trkpt lat="42.8781300" lon="2.1644170">
        <ele>433.2</ele>
        <time>2020-07-22T06:36:28Z</time>
      </trkpt>
      <trkpt lat="42.8781020" lon="2.1644220">
        <ele>433.4</ele>
        <time>2020-07-22T06:36:29Z</time>
      </trkpt>
      <trkpt lat="42.8780750" lon="2.1644270">
        <ele>433.6</ele>
        <time>2020-07-22T06:36:30Z</time>
      </trkpt>
      <trkpt lat="42.8779920" lon="2.1644480">
        <ele>434.4</ele>
        <time>2020-07-22T06:36:33Z</time>
      </trkpt>
      <trkpt lat="42.8779640" lon="2.1644580">
        <ele>434.8</ele>
        <time>2020-07-22T06:36:34Z</time>
      </trkpt>
      <trkpt lat="42.8778580" lon="2.1645110">
        <ele>435.8</ele>
        <time>2020-07-22T06:36:38Z</time>
      </trkpt>
      <trkpt lat="42.8778140" lon="2.1645480">
        <ele>436.2</ele>
        <time>2020-07-22T06:36:40Z</time>
      </trkpt>
      <trkpt lat="42.8777320" lon="2.1646500">
        <ele>436.8</ele>
        <time>2020-07-22T06:36:44Z</time>
      </trkpt>
      <trkpt lat="42.8776570" lon="2.1647290">
        <ele>437.4</ele>
        <time>2020-07-22T06:36:47Z</time>
      </trkpt>
      <trkpt lat="42.8776120" lon="2.1647860">
        <ele>437.8</ele>
        <time>2020-07-22T06:36:49Z</time>
      </trkpt>
      <trkpt lat="42.8774860" lon="2.1649730">
        <ele>438.8</ele>
        <time>2020-07-22T06:36:55Z</time>
      </trkpt>
      <trkpt lat="42.8774650" lon="2.1650020">
        <ele>439.0</ele>
        <time>2020-07-22T06:36:56Z</time>
      </trkpt>
      <trkpt lat="42.8773120" lon="2.1650960">
        <ele>439.8</ele>
        <time>2020-07-22T06:37:02Z</time>
      </trkpt>
      <trkpt lat="42.8773120" lon="2.1650960">
        <ele>440.0</ele>
        <time>2020-07-22T06:37:03Z</time>
      </trkpt>
      <trkpt lat="42.8771770" lon="2.1650640">
        <ele>441.2</ele>
        <time>2020-07-22T06:37:08Z</time>
      </trkpt>
      <trkpt lat="42.8770610" lon="2.1649610">
        <ele>442.2</ele>
        <time>2020-07-22T06:37:13Z</time>
      </trkpt>
      <trkpt lat="42.8769970" lon="2.1648910">
        <ele>442.8</ele>
        <time>2020-07-22T06:37:16Z</time>
      </trkpt>
      <trkpt lat="42.8769750" lon="2.1648720">
        <ele>443.0</ele>
        <time>2020-07-22T06:37:17Z</time>
      </trkpt>
      <trkpt lat="42.8769530" lon="2.1648530">
        <ele>443.2</ele>
        <time>2020-07-22T06:37:18Z</time>
      </trkpt>
      <trkpt lat="42.8769290" lon="2.1648390">
        <ele>443.4</ele>
        <time>2020-07-22T06:37:19Z</time>
      </trkpt>
      <trkpt lat="42.8768520" lon="2.1648110">
        <ele>444.2</ele>
        <time>2020-07-22T06:37:22Z</time>
      </trkpt>
      <trkpt lat="42.8767960" lon="2.1648040">
        <ele>444.2</ele>
        <time>2020-07-22T06:37:23Z</time>
      </trkpt>
      <trkpt lat="42.8767670" lon="2.1648020">
        <ele>444.4</ele>
        <time>2020-07-22T06:37:24Z</time>
      </trkpt>
      <trkpt lat="42.8766110" lon="2.1648060">
        <ele>445.2</ele>
        <time>2020-07-22T06:37:30Z</time>
      </trkpt>
      <trkpt lat="42.8765820" lon="2.1648030">
        <ele>445.4</ele>
        <time>2020-07-22T06:37:31Z</time>
      </trkpt>
      <trkpt lat="42.8765530" lon="2.1648160">
        <ele>445.4</ele>
        <time>2020-07-22T06:37:32Z</time>
      </trkpt>
      <trkpt lat="42.8763840" lon="2.1647500">
        <ele>446.4</ele>
        <time>2020-07-22T06:37:37Z</time>
      </trkpt>
      <trkpt lat="42.8763840" lon="2.1647500">
        <ele>446.6</ele>
        <time>2020-07-22T06:37:38Z</time>
      </trkpt>
      <trkpt lat="42.8762980" lon="2.1646540">
        <ele>447.6</ele>
        <time>2020-07-22T06:37:42Z</time>
      </trkpt>
      <trkpt lat="42.8762650" lon="2.1645940">
        <ele>448.0</ele>
        <time>2020-07-22T06:37:44Z</time>
      </trkpt>
      <trkpt lat="42.8762100" lon="2.1644250">
        <ele>448.8</ele>
        <time>2020-07-22T06:37:49Z</time>
      </trkpt>
      <trkpt lat="42.8761910" lon="2.1643130">
        <ele>449.6</ele>
        <time>2020-07-22T06:37:52Z</time>
      </trkpt>
      <trkpt lat="42.8761810" lon="2.1642390">
        <ele>450.0</ele>
        <time>2020-07-22T06:37:54Z</time>
      </trkpt>
      <trkpt lat="42.8761600" lon="2.1640640">
        <ele>451.0</ele>
        <time>2020-07-22T06:37:59Z</time>
      </trkpt>
      <trkpt lat="42.8761450" lon="2.1639130">
        <ele>451.8</ele>
        <time>2020-07-22T06:38:02Z</time>
      </trkpt>
      <trkpt lat="42.8761320" lon="2.1638450">
        <ele>452.2</ele>
        <time>2020-07-22T06:38:04Z</time>
      </trkpt>
      <trkpt lat="42.8761070" lon="2.1636750">
        <ele>453.2</ele>
        <time>2020-07-22T06:38:10Z</time>
      </trkpt>
      <trkpt lat="42.8760940" lon="2.1636430">
        <ele>453.6</ele>
        <time>2020-07-22T06:38:11Z</time>
      </trkpt>
      <trkpt lat="42.8760170" lon="2.1634550">
        <ele>454.2</ele>
        <time>2020-07-22T06:38:17Z</time>
      </trkpt>
      <trkpt lat="42.8760010" lon="2.1634230">
        <ele>454.6</ele>
        <time>2020-07-22T06:38:18Z</time>
      </trkpt>
      <trkpt lat="42.8759850" lon="2.1633920">
        <ele>454.8</ele>
        <time>2020-07-22T06:38:19Z</time>
      </trkpt>
      <trkpt lat="42.8758930" lon="2.1632670">
        <ele>455.4</ele>
        <time>2020-07-22T06:38:24Z</time>
      </trkpt>
      <trkpt lat="42.8758720" lon="2.1632480">
        <ele>455.4</ele>
        <time>2020-07-22T06:38:25Z</time>
      </trkpt>
      <trkpt lat="42.8757350" lon="2.1631440">
        <ele>456.4</ele>
        <time>2020-07-22T06:38:31Z</time>
      </trkpt>
      <trkpt lat="42.8756790" lon="2.1631330">
        <ele>456.8</ele>
        <time>2020-07-22T06:38:32Z</time>
      </trkpt>
      <trkpt lat="42.8756790" lon="2.1631330">
        <ele>457.0</ele>
        <time>2020-07-22T06:38:33Z</time>
      </trkpt>
      <trkpt lat="42.8755370" lon="2.1631520">
        <ele>457.8</ele>
        <time>2020-07-22T06:38:38Z</time>
      </trkpt>
      <trkpt lat="42.8754330" lon="2.1631850">
        <ele>458.2</ele>
        <time>2020-07-22T06:38:41Z</time>
      </trkpt>
      <trkpt lat="42.8753280" lon="2.1632340">
        <ele>458.8</ele>
        <time>2020-07-22T06:38:46Z</time>
      </trkpt>
      <trkpt lat="42.8752130" lon="2.1632790">
        <ele>459.6</ele>
        <time>2020-07-22T06:38:50Z</time>
      </trkpt>
      <trkpt lat="42.8751820" lon="2.1632820">
        <ele>459.8</ele>
        <time>2020-07-22T06:38:51Z</time>
      </trkpt>
      <trkpt lat="42.8750550" lon="2.1632110">
        <ele>461.0</ele>
        <time>2020-07-22T06:38:56Z</time>
      </trkpt>
      <trkpt lat="42.8749470" lon="2.1630490">
        <ele>461.8</ele>
        <time>2020-07-22T06:39:02Z</time>
      </trkpt>
      <trkpt lat="42.8749320" lon="2.1630150">
        <ele>462.0</ele>
        <time>2020-07-22T06:39:03Z</time>
      </trkpt>
      <trkpt lat="42.8749200" lon="2.1629820">
        <ele>462.0</ele>
        <time>2020-07-22T06:39:04Z</time>
      </trkpt>
      <trkpt lat="42.8748510" lon="2.1627840">
        <ele>462.8</ele>
        <time>2020-07-22T06:39:10Z</time>
      </trkpt>
      <trkpt lat="42.8748190" lon="2.1627280">
        <ele>463.2</ele>
        <time>2020-07-22T06:39:11Z</time>
      </trkpt>
      <trkpt lat="42.8748190" lon="2.1627280">
        <ele>463.6</ele>
        <time>2020-07-22T06:39:12Z</time>
      </trkpt>
      <trkpt lat="42.8747880" lon="2.1626640">
        <ele>464.2</ele>
        <time>2020-07-22T06:39:14Z</time>
      </trkpt>
      <trkpt lat="42.8746540" lon="2.1624640">
        <ele>465.4</ele>
        <time>2020-07-22T06:39:20Z</time>
      </trkpt>
      <trkpt lat="42.8745230" lon="2.1622990">
        <ele>466.2</ele>
        <time>2020-07-22T06:39:26Z</time>
      </trkpt>
      <trkpt lat="42.8745030" lon="2.1622720">
        <ele>466.4</ele>
        <time>2020-07-22T06:39:27Z</time>
      </trkpt>
      <trkpt lat="42.8744180" lon="2.1621630">
        <ele>467.0</ele>
        <time>2020-07-22T06:39:31Z</time>
      </trkpt>
      <trkpt lat="42.8743670" lon="2.1621240">
        <ele>467.4</ele>
        <time>2020-07-22T06:39:33Z</time>
      </trkpt>
      <trkpt lat="42.8742830" lon="2.1620910">
        <ele>468.0</ele>
        <time>2020-07-22T06:39:36Z</time>
      </trkpt>
      <trkpt lat="42.8742560" lon="2.1620810">
        <ele>468.2</ele>
        <time>2020-07-22T06:39:37Z</time>
      </trkpt>
      <trkpt lat="42.8742280" lon="2.1620720">
        <ele>468.4</ele>
        <time>2020-07-22T06:39:38Z</time>
      </trkpt>
      <trkpt lat="42.8740580" lon="2.1620550">
        <ele>469.2</ele>
        <time>2020-07-22T06:39:44Z</time>
      </trkpt>
      <trkpt lat="42.8740280" lon="2.1620530">
        <ele>469.4</ele>
        <time>2020-07-22T06:39:45Z</time>
      </trkpt>
      <trkpt lat="42.8739990" lon="2.1620480">
        <ele>469.6</ele>
        <time>2020-07-22T06:39:46Z</time>
      </trkpt>
      <trkpt lat="42.8738420" lon="2.1619650">
        <ele>470.6</ele>
        <time>2020-07-22T06:39:52Z</time>
      </trkpt>
      <trkpt lat="42.8737500" lon="2.1617930">
        <ele>471.6</ele>
        <time>2020-07-22T06:39:58Z</time>
      </trkpt>
      <trkpt lat="42.8737380" lon="2.1616860">
        <ele>472.8</ele>
        <time>2020-07-22T06:40:01Z</time>
      </trkpt>
      <trkpt lat="42.8737390" lon="2.1615250">
        <ele>473.6</ele>
        <time>2020-07-22T06:40:05Z</time>
      </trkpt>
      <trkpt lat="42.8737390" lon="2.1614840">
        <ele>473.8</ele>
        <time>2020-07-22T06:40:06Z</time>
      </trkpt>
      <trkpt lat="42.8737500" lon="2.1613630">
        <ele>474.0</ele>
        <time>2020-07-22T06:40:09Z</time>
      </trkpt>
      <trkpt lat="42.8737570" lon="2.1613240">
        <ele>474.0</ele>
        <time>2020-07-22T06:40:10Z</time>
      </trkpt>
      <trkpt lat="42.8737760" lon="2.1611720">
        <ele>474.4</ele>
        <time>2020-07-22T06:40:14Z</time>
      </trkpt>
      <trkpt lat="42.8737830" lon="2.1610940">
        <ele>474.6</ele>
        <time>2020-07-22T06:40:16Z</time>
      </trkpt>
      <trkpt lat="42.8737870" lon="2.1610540">
        <ele>475.0</ele>
        <time>2020-07-22T06:40:17Z</time>
      </trkpt>
      <trkpt lat="42.8737950" lon="2.1608600">
        <ele>476.0</ele>
        <time>2020-07-22T06:40:22Z</time>
      </trkpt>
      <trkpt lat="42.8737920" lon="2.1607800">
        <ele>476.4</ele>
        <time>2020-07-22T06:40:24Z</time>
      </trkpt>
      <trkpt lat="42.8737720" lon="2.1605900">
        <ele>477.2</ele>
        <time>2020-07-22T06:40:29Z</time>
      </trkpt>
      <trkpt lat="42.8737350" lon="2.1603950">
        <ele>478.4</ele>
        <time>2020-07-22T06:40:34Z</time>
      </trkpt>
      <trkpt lat="42.8737030" lon="2.1601510">
        <ele>479.4</ele>
        <time>2020-07-22T06:40:40Z</time>
      </trkpt>
      <trkpt lat="42.8736880" lon="2.1600750">
        <ele>480.0</ele>
        <time>2020-07-22T06:40:42Z</time>
      </trkpt>
      <trkpt lat="42.8736780" lon="2.1600360">
        <ele>480.2</ele>
        <time>2020-07-22T06:40:43Z</time>
      </trkpt>
      <trkpt lat="42.8736620" lon="2.1599580">
        <ele>480.4</ele>
        <time>2020-07-22T06:40:45Z</time>
      </trkpt>
      <trkpt lat="42.8736550" lon="2.1599190">
        <ele>480.4</ele>
        <time>2020-07-22T06:40:46Z</time>
      </trkpt>
      <trkpt lat="42.8736200" lon="2.1597220">
        <ele>481.4</ele>
        <time>2020-07-22T06:40:51Z</time>
      </trkpt>
      <trkpt lat="42.8735740" lon="2.1594830">
        <ele>482.6</ele>
        <time>2020-07-22T06:40:57Z</time>
      </trkpt>
      <trkpt lat="42.8735510" lon="2.1592870">
        <ele>483.4</ele>
        <time>2020-07-22T06:41:02Z</time>
      </trkpt>
      <trkpt lat="42.8735390" lon="2.1592080">
        <ele>483.8</ele>
        <time>2020-07-22T06:41:04Z</time>
      </trkpt>
      <trkpt lat="42.8735220" lon="2.1590970">
        <ele>484.6</ele>
        <time>2020-07-22T06:41:07Z</time>
      </trkpt>
      <trkpt lat="42.8735140" lon="2.1590260">
        <ele>484.8</ele>
        <time>2020-07-22T06:41:09Z</time>
      </trkpt>
      <trkpt lat="42.8735020" lon="2.1589100">
        <ele>485.2</ele>
        <time>2020-07-22T06:41:12Z</time>
      </trkpt>
      <trkpt lat="42.8734860" lon="2.1587150">
        <ele>486.0</ele>
        <time>2020-07-22T06:41:17Z</time>
      </trkpt>
      <trkpt lat="42.8734840" lon="2.1585550">
        <ele>487.2</ele>
        <time>2020-07-22T06:41:21Z</time>
      </trkpt>
      <trkpt lat="42.8734800" lon="2.1584390">
        <ele>487.8</ele>
        <time>2020-07-22T06:41:24Z</time>
      </trkpt>
      <trkpt lat="42.8734700" lon="2.1582830">
        <ele>488.4</ele>
        <time>2020-07-22T06:41:28Z</time>
      </trkpt>
      <trkpt lat="42.8734550" lon="2.1582080">
        <ele>488.8</ele>
        <time>2020-07-22T06:41:30Z</time>
      </trkpt>
      <trkpt lat="42.8734550" lon="2.1582080">
        <ele>489.0</ele>
        <time>2020-07-22T06:41:31Z</time>
      </trkpt>
      <trkpt lat="42.8734230" lon="2.1580930">
        <ele>489.4</ele>
        <time>2020-07-22T06:41:34Z</time>
      </trkpt>
      <trkpt lat="42.8733680" lon="2.1579950">
        <ele>490.0</ele>
        <time>2020-07-22T06:41:37Z</time>
      </trkpt>
      <trkpt lat="42.8732760" lon="2.1579100">
        <ele>490.4</ele>
        <time>2020-07-22T06:41:40Z</time>
      </trkpt>
      <trkpt lat="42.8732500" lon="2.1578950">
        <ele>490.6</ele>
        <time>2020-07-22T06:41:41Z</time>
      </trkpt>
      <trkpt lat="42.8731910" lon="2.1578690">
        <ele>491.0</ele>
        <time>2020-07-22T06:41:43Z</time>
      </trkpt>
      <trkpt lat="42.8730320" lon="2.1577240">
        <ele>491.8</ele>
        <time>2020-07-22T06:41:49Z</time>
      </trkpt>
      <trkpt lat="42.8730110" lon="2.1576960">
        <ele>492.4</ele>
        <time>2020-07-22T06:41:51Z</time>
      </trkpt>
      <trkpt lat="42.8729530" lon="2.1575660">
        <ele>492.8</ele>
        <time>2020-07-22T06:41:54Z</time>
      </trkpt>
      <trkpt lat="42.8729530" lon="2.1575660">
        <ele>493.0</ele>
        <time>2020-07-22T06:41:55Z</time>
      </trkpt>
      <trkpt lat="42.8729180" lon="2.1574230">
        <ele>493.6</ele>
        <time>2020-07-22T06:41:58Z</time>
      </trkpt>
      <trkpt lat="42.8729000" lon="2.1573560">
        <ele>494.0</ele>
        <time>2020-07-22T06:42:00Z</time>
      </trkpt>
      <trkpt lat="42.8728890" lon="2.1572800">
        <ele>494.4</ele>
        <time>2020-07-22T06:42:02Z</time>
      </trkpt>
      <trkpt lat="42.8728620" lon="2.1571770">
        <ele>495.0</ele>
        <time>2020-07-22T06:42:05Z</time>
      </trkpt>
      <trkpt lat="42.8728380" lon="2.1570200">
        <ele>496.2</ele>
        <time>2020-07-22T06:42:09Z</time>
      </trkpt>
      <trkpt lat="42.8728220" lon="2.1569430">
        <ele>496.6</ele>
        <time>2020-07-22T06:42:11Z</time>
      </trkpt>
      <trkpt lat="42.8727870" lon="2.1567510">
        <ele>497.4</ele>
        <time>2020-07-22T06:42:16Z</time>
      </trkpt>
      <trkpt lat="42.8727620" lon="2.1565890">
        <ele>498.2</ele>
        <time>2020-07-22T06:42:20Z</time>
      </trkpt>
      <trkpt lat="42.8727510" lon="2.1565080">
        <ele>498.4</ele>
        <time>2020-07-22T06:42:22Z</time>
      </trkpt>
      <trkpt lat="42.8727420" lon="2.1564720">
        <ele>498.4</ele>
        <time>2020-07-22T06:42:23Z</time>
      </trkpt>
      <trkpt lat="42.8727180" lon="2.1563550">
        <ele>499.2</ele>
        <time>2020-07-22T06:42:26Z</time>
      </trkpt>
      <trkpt lat="42.8727110" lon="2.1563160">
        <ele>499.4</ele>
        <time>2020-07-22T06:42:27Z</time>
      </trkpt>
      <trkpt lat="42.8727060" lon="2.1562790">
        <ele>499.6</ele>
        <time>2020-07-22T06:42:28Z</time>
      </trkpt>
      <trkpt lat="42.8727010" lon="2.1562440">
        <ele>499.8</ele>
        <time>2020-07-22T06:42:29Z</time>
      </trkpt>
      <trkpt lat="42.8726910" lon="2.1562130">
        <ele>500.0</ele>
        <time>2020-07-22T06:42:30Z</time>
      </trkpt>
      <trkpt lat="42.8726810" lon="2.1561810">
        <ele>500.4</ele>
        <time>2020-07-22T06:42:31Z</time>
      </trkpt>
      <trkpt lat="42.8726730" lon="2.1561490">
        <ele>500.6</ele>
        <time>2020-07-22T06:42:32Z</time>
      </trkpt>
      <trkpt lat="42.8726630" lon="2.1560540">
        <ele>501.2</ele>
        <time>2020-07-22T06:42:35Z</time>
      </trkpt>
      <trkpt lat="42.8726420" lon="2.1559330">
        <ele>501.8</ele>
        <time>2020-07-22T06:42:39Z</time>
      </trkpt>
      <trkpt lat="42.8726270" lon="2.1558480">
        <ele>502.4</ele>
        <time>2020-07-22T06:42:42Z</time>
      </trkpt>
      <trkpt lat="42.8726110" lon="2.1557870">
        <ele>502.8</ele>
        <time>2020-07-22T06:42:44Z</time>
      </trkpt>
      <trkpt lat="42.8726060" lon="2.1557560">
        <ele>503.0</ele>
        <time>2020-07-22T06:42:45Z</time>
      </trkpt>
      <trkpt lat="42.8726000" lon="2.1557240">
        <ele>503.2</ele>
        <time>2020-07-22T06:42:46Z</time>
      </trkpt>
      <trkpt lat="42.8725920" lon="2.1556940">
        <ele>503.4</ele>
        <time>2020-07-22T06:42:47Z</time>
      </trkpt>
      <trkpt lat="42.8725840" lon="2.1556640">
        <ele>503.4</ele>
        <time>2020-07-22T06:42:48Z</time>
      </trkpt>
      <trkpt lat="42.8725740" lon="2.1556340">
        <ele>503.6</ele>
        <time>2020-07-22T06:42:49Z</time>
      </trkpt>
      <trkpt lat="42.8725630" lon="2.1556040">
        <ele>503.6</ele>
        <time>2020-07-22T06:42:50Z</time>
      </trkpt>
      <trkpt lat="42.8725450" lon="2.1555810">
        <ele>503.8</ele>
        <time>2020-07-22T06:42:51Z</time>
      </trkpt>
      <trkpt lat="42.8725280" lon="2.1555550">
        <ele>503.8</ele>
        <time>2020-07-22T06:42:52Z</time>
      </trkpt>
      <trkpt lat="42.8724450" lon="2.1554010">
        <ele>504.6</ele>
        <time>2020-07-22T06:42:57Z</time>
      </trkpt>
      <trkpt lat="42.8723650" lon="2.1552420">
        <ele>505.0</ele>
        <time>2020-07-22T06:43:03Z</time>
      </trkpt>
      <trkpt lat="42.8723560" lon="2.1552200">
        <ele>505.2</ele>
        <time>2020-07-22T06:43:04Z</time>
      </trkpt>
      <trkpt lat="42.8723270" lon="2.1551080">
        <ele>506.0</ele>
        <time>2020-07-22T06:43:08Z</time>
      </trkpt>
      <trkpt lat="42.8723130" lon="2.1549940">
        <ele>506.8</ele>
        <time>2020-07-22T06:43:12Z</time>
      </trkpt>
      <trkpt lat="42.8723130" lon="2.1549940">
        <ele>507.0</ele>
        <time>2020-07-22T06:43:13Z</time>
      </trkpt>
      <trkpt lat="42.8722940" lon="2.1547690">
        <ele>508.0</ele>
        <time>2020-07-22T06:43:19Z</time>
      </trkpt>
      <trkpt lat="42.8722920" lon="2.1547330">
        <ele>508.2</ele>
        <time>2020-07-22T06:43:20Z</time>
      </trkpt>
      <trkpt lat="42.8722670" lon="2.1545530">
        <ele>509.0</ele>
        <time>2020-07-22T06:43:25Z</time>
      </trkpt>
      <trkpt lat="42.8722440" lon="2.1544510">
        <ele>509.6</ele>
        <time>2020-07-22T06:43:28Z</time>
      </trkpt>
      <trkpt lat="42.8721950" lon="2.1543310">
        <ele>510.2</ele>
        <time>2020-07-22T06:43:33Z</time>
      </trkpt>
      <trkpt lat="42.8721710" lon="2.1542760">
        <ele>510.6</ele>
        <time>2020-07-22T06:43:35Z</time>
      </trkpt>
      <trkpt lat="42.8720950" lon="2.1541470">
        <ele>511.2</ele>
        <time>2020-07-22T06:43:40Z</time>
      </trkpt>
      <trkpt lat="42.8720100" lon="2.1540520">
        <ele>511.8</ele>
        <time>2020-07-22T06:43:43Z</time>
      </trkpt>
      <trkpt lat="42.8718900" lon="2.1539530">
        <ele>512.4</ele>
        <time>2020-07-22T06:43:48Z</time>
      </trkpt>
      <trkpt lat="42.8718150" lon="2.1539170">
        <ele>512.8</ele>
        <time>2020-07-22T06:43:51Z</time>
      </trkpt>
      <trkpt lat="42.8717090" lon="2.1539270">
        <ele>513.4</ele>
        <time>2020-07-22T06:43:56Z</time>
      </trkpt>
      <trkpt lat="42.8716300" lon="2.1539630">
        <ele>513.8</ele>
        <time>2020-07-22T06:43:58Z</time>
      </trkpt>
      <trkpt lat="42.8715410" lon="2.1539760">
        <ele>514.2</ele>
        <time>2020-07-22T06:44:01Z</time>
      </trkpt>
      <trkpt lat="42.8715110" lon="2.1539670">
        <ele>514.2</ele>
        <time>2020-07-22T06:44:03Z</time>
      </trkpt>
      <trkpt lat="42.8714220" lon="2.1538950">
        <ele>514.6</ele>
        <time>2020-07-22T06:44:06Z</time>
      </trkpt>
      <trkpt lat="42.8714060" lon="2.1538780">
        <ele>514.8</ele>
        <time>2020-07-22T06:44:08Z</time>
      </trkpt>
      <trkpt lat="42.8713770" lon="2.1537650">
        <ele>515.8</ele>
        <time>2020-07-22T06:44:13Z</time>
      </trkpt>
      <trkpt lat="42.8714200" lon="2.1536710">
        <ele>516.8</ele>
        <time>2020-07-22T06:44:17Z</time>
      </trkpt>
      <trkpt lat="42.8714410" lon="2.1536550">
        <ele>517.0</ele>
        <time>2020-07-22T06:44:18Z</time>
      </trkpt>
      <trkpt lat="42.8716140" lon="2.1535960">
        <ele>518.0</ele>
        <time>2020-07-22T06:44:23Z</time>
      </trkpt>
      <trkpt lat="42.8717870" lon="2.1536160">
        <ele>518.8</ele>
        <time>2020-07-22T06:44:29Z</time>
      </trkpt>
      <trkpt lat="42.8717870" lon="2.1536160">
        <ele>519.0</ele>
        <time>2020-07-22T06:44:30Z</time>
      </trkpt>
      <trkpt lat="42.8718740" lon="2.1536670">
        <ele>519.2</ele>
        <time>2020-07-22T06:44:32Z</time>
      </trkpt>
      <trkpt lat="42.8720170" lon="2.1537720">
        <ele>519.8</ele>
        <time>2020-07-22T06:44:37Z</time>
      </trkpt>
      <trkpt lat="42.8720420" lon="2.1537940">
        <ele>520.2</ele>
        <time>2020-07-22T06:44:39Z</time>
      </trkpt>
      <trkpt lat="42.8722130" lon="2.1539430">
        <ele>521.4</ele>
        <time>2020-07-22T06:44:45Z</time>
      </trkpt>
      <trkpt lat="42.8722590" lon="2.1539860">
        <ele>521.8</ele>
        <time>2020-07-22T06:44:47Z</time>
      </trkpt>
      <trkpt lat="42.8723450" lon="2.1540830">
        <ele>522.4</ele>
        <time>2020-07-22T06:44:51Z</time>
      </trkpt>
      <trkpt lat="42.8724210" lon="2.1541910">
        <ele>523.2</ele>
        <time>2020-07-22T06:44:55Z</time>
      </trkpt>
      <trkpt lat="42.8724540" lon="2.1542480">
        <ele>523.6</ele>
        <time>2020-07-22T06:44:57Z</time>
      </trkpt>
      <trkpt lat="42.8725170" lon="2.1543950">
        <ele>524.2</ele>
        <time>2020-07-22T06:45:02Z</time>
      </trkpt>
      <trkpt lat="42.8725630" lon="2.1544890">
        <ele>524.8</ele>
        <time>2020-07-22T06:45:05Z</time>
      </trkpt>
      <trkpt lat="42.8726400" lon="2.1546760">
        <ele>525.8</ele>
        <time>2020-07-22T06:45:11Z</time>
      </trkpt>
      <trkpt lat="42.8726540" lon="2.1547070">
        <ele>526.0</ele>
        <time>2020-07-22T06:45:12Z</time>
      </trkpt>
      <trkpt lat="42.8726840" lon="2.1547670">
        <ele>526.4</ele>
        <time>2020-07-22T06:45:14Z</time>
      </trkpt>
      <trkpt lat="42.8727160" lon="2.1548560">
        <ele>526.8</ele>
        <time>2020-07-22T06:45:17Z</time>
      </trkpt>
      <trkpt lat="42.8727520" lon="2.1549400">
        <ele>527.4</ele>
        <time>2020-07-22T06:45:20Z</time>
      </trkpt>
      <trkpt lat="42.8727900" lon="2.1550330">
        <ele>528.0</ele>
        <time>2020-07-22T06:45:23Z</time>
      </trkpt>
      <trkpt lat="42.8728400" lon="2.1551540">
        <ele>528.8</ele>
        <time>2020-07-22T06:45:27Z</time>
      </trkpt>
      <trkpt lat="42.8728730" lon="2.1552130">
        <ele>529.0</ele>
        <time>2020-07-22T06:45:30Z</time>
      </trkpt>
      <trkpt lat="42.8729750" lon="2.1554250">
        <ele>530.0</ele>
        <time>2020-07-22T06:45:36Z</time>
      </trkpt>
      <trkpt lat="42.8729900" lon="2.1554560">
        <ele>530.2</ele>
        <time>2020-07-22T06:45:37Z</time>
      </trkpt>
      <trkpt lat="42.8730870" lon="2.1556070">
        <ele>531.2</ele>
        <time>2020-07-22T06:45:42Z</time>
      </trkpt>
      <trkpt lat="42.8731730" lon="2.1557490">
        <ele>531.8</ele>
        <time>2020-07-22T06:45:47Z</time>
      </trkpt>
      <trkpt lat="42.8732170" lon="2.1558250">
        <ele>532.4</ele>
        <time>2020-07-22T06:45:50Z</time>
      </trkpt>
      <trkpt lat="42.8732660" lon="2.1559150">
        <ele>533.2</ele>
        <time>2020-07-22T06:45:53Z</time>
      </trkpt>
      <trkpt lat="42.8732800" lon="2.1559420">
        <ele>533.4</ele>
        <time>2020-07-22T06:45:54Z</time>
      </trkpt>
      <trkpt lat="42.8733430" lon="2.1560790">
        <ele>534.0</ele>
        <time>2020-07-22T06:45:59Z</time>
      </trkpt>
      <trkpt lat="42.8733680" lon="2.1561360">
        <ele>534.4</ele>
        <time>2020-07-22T06:46:01Z</time>
      </trkpt>
      <trkpt lat="42.8733840" lon="2.1561660">
        <ele>534.6</ele>
        <time>2020-07-22T06:46:02Z</time>
      </trkpt>
      <trkpt lat="42.8734730" lon="2.1562980">
        <ele>535.4</ele>
        <time>2020-07-22T06:46:08Z</time>
      </trkpt>
      <trkpt lat="42.8735330" lon="2.1563530">
        <ele>535.6</ele>
        <time>2020-07-22T06:46:10Z</time>
      </trkpt>
      <trkpt lat="42.8735570" lon="2.1563710">
        <ele>535.8</ele>
        <time>2020-07-22T06:46:11Z</time>
      </trkpt>
      <trkpt lat="42.8736580" lon="2.1564250">
        <ele>536.8</ele>
        <time>2020-07-22T06:46:15Z</time>
      </trkpt>
      <trkpt lat="42.8737250" lon="2.1564420">
        <ele>537.4</ele>
        <time>2020-07-22T06:46:18Z</time>
      </trkpt>
      <trkpt lat="42.8738010" lon="2.1564400">
        <ele>537.8</ele>
        <time>2020-07-22T06:46:21Z</time>
      </trkpt>
      <trkpt lat="42.8738840" lon="2.1564140">
        <ele>538.4</ele>
        <time>2020-07-22T06:46:25Z</time>
      </trkpt>
      <trkpt lat="42.8740110" lon="2.1563680">
        <ele>539.0</ele>
        <time>2020-07-22T06:46:28Z</time>
      </trkpt>
      <trkpt lat="42.8741610" lon="2.1563330">
        <ele>539.6</ele>
        <time>2020-07-22T06:46:33Z</time>
      </trkpt>
      <trkpt lat="42.8742200" lon="2.1563330">
        <ele>540.0</ele>
        <time>2020-07-22T06:46:35Z</time>
      </trkpt>
      <trkpt lat="42.8743540" lon="2.1563850">
        <ele>541.0</ele>
        <time>2020-07-22T06:46:40Z</time>
      </trkpt>
      <trkpt lat="42.8744780" lon="2.1565150">
        <ele>542.2</ele>
        <time>2020-07-22T06:46:45Z</time>
      </trkpt>
      <trkpt lat="42.8745020" lon="2.1565480">
        <ele>542.4</ele>
        <time>2020-07-22T06:46:46Z</time>
      </trkpt>
      <trkpt lat="42.8745970" lon="2.1567510">
        <ele>543.4</ele>
        <time>2020-07-22T06:46:52Z</time>
      </trkpt>
      <trkpt lat="42.8746110" lon="2.1567920">
        <ele>543.6</ele>
        <time>2020-07-22T06:46:53Z</time>
      </trkpt>
      <trkpt lat="42.8746230" lon="2.1568320">
        <ele>543.8</ele>
        <time>2020-07-22T06:46:54Z</time>
      </trkpt>
      <trkpt lat="42.8746640" lon="2.1569470">
        <ele>544.6</ele>
        <time>2020-07-22T06:46:57Z</time>
      </trkpt>
      <trkpt lat="42.8747530" lon="2.1571140">
        <ele>545.8</ele>
        <time>2020-07-22T06:47:02Z</time>
      </trkpt>
      <trkpt lat="42.8748630" lon="2.1572240">
        <ele>547.0</ele>
        <time>2020-07-22T06:47:08Z</time>
      </trkpt>
      <trkpt lat="42.8749110" lon="2.1572510">
        <ele>547.2</ele>
        <time>2020-07-22T06:47:09Z</time>
      </trkpt>
      <trkpt lat="42.8750630" lon="2.1572770">
        <ele>547.8</ele>
        <time>2020-07-22T06:47:15Z</time>
      </trkpt>
      <trkpt lat="42.8750630" lon="2.1572770">
        <ele>548.0</ele>
        <time>2020-07-22T06:47:16Z</time>
      </trkpt>
      <trkpt lat="42.8751520" lon="2.1572800">
        <ele>548.6</ele>
        <time>2020-07-22T06:47:18Z</time>
      </trkpt>
      <trkpt lat="42.8752410" lon="2.1572940">
        <ele>549.2</ele>
        <time>2020-07-22T06:47:21Z</time>
      </trkpt>
      <trkpt lat="42.8753520" lon="2.1573560">
        <ele>550.0</ele>
        <time>2020-07-22T06:47:25Z</time>
      </trkpt>
      <trkpt lat="42.8754060" lon="2.1573960">
        <ele>550.2</ele>
        <time>2020-07-22T06:47:27Z</time>
      </trkpt>
      <trkpt lat="42.8754760" lon="2.1574420">
        <ele>550.4</ele>
        <time>2020-07-22T06:47:29Z</time>
      </trkpt>
      <trkpt lat="42.8755620" lon="2.1575270">
        <ele>550.6</ele>
        <time>2020-07-22T06:47:32Z</time>
      </trkpt>
      <trkpt lat="42.8756860" lon="2.1576710">
        <ele>551.4</ele>
        <time>2020-07-22T06:47:37Z</time>
      </trkpt>
      <trkpt lat="42.8757590" lon="2.1577070">
        <ele>552.0</ele>
        <time>2020-07-22T06:47:40Z</time>
      </trkpt>
      <trkpt lat="42.8758500" lon="2.1577120">
        <ele>552.4</ele>
        <time>2020-07-22T06:47:44Z</time>
      </trkpt>
      <trkpt lat="42.8759060" lon="2.1576940">
        <ele>552.6</ele>
        <time>2020-07-22T06:47:46Z</time>
      </trkpt>
      <trkpt lat="42.8760230" lon="2.1576480">
        <ele>553.2</ele>
        <time>2020-07-22T06:47:50Z</time>
      </trkpt>
      <trkpt lat="42.8760830" lon="2.1576220">
        <ele>553.6</ele>
        <time>2020-07-22T06:47:52Z</time>
      </trkpt>
      <trkpt lat="42.8761180" lon="2.1576080">
        <ele>553.6</ele>
        <time>2020-07-22T06:47:53Z</time>
      </trkpt>
      <trkpt lat="42.8762820" lon="2.1575540">
        <ele>554.8</ele>
        <time>2020-07-22T06:47:58Z</time>
      </trkpt>
      <trkpt lat="42.8763140" lon="2.1575530">
        <ele>554.8</ele>
        <time>2020-07-22T06:47:59Z</time>
      </trkpt>
      <trkpt lat="42.8764940" lon="2.1576230">
        <ele>555.8</ele>
        <time>2020-07-22T06:48:05Z</time>
      </trkpt>
      <trkpt lat="42.8765880" lon="2.1577250">
        <ele>556.6</ele>
        <time>2020-07-22T06:48:09Z</time>
      </trkpt>
      <trkpt lat="42.8766290" lon="2.1577880">
        <ele>557.0</ele>
        <time>2020-07-22T06:48:11Z</time>
      </trkpt>
      <trkpt lat="42.8766470" lon="2.1578220">
        <ele>557.2</ele>
        <time>2020-07-22T06:48:12Z</time>
      </trkpt>
      <trkpt lat="42.8766660" lon="2.1578600">
        <ele>557.4</ele>
        <time>2020-07-22T06:48:13Z</time>
      </trkpt>
      <trkpt lat="42.8767540" lon="2.1580450">
        <ele>558.2</ele>
        <time>2020-07-22T06:48:18Z</time>
      </trkpt>
      <trkpt lat="42.8767670" lon="2.1580850">
        <ele>558.6</ele>
        <time>2020-07-22T06:48:19Z</time>
      </trkpt>
      <trkpt lat="42.8768180" lon="2.1582520">
        <ele>559.4</ele>
        <time>2020-07-22T06:48:23Z</time>
      </trkpt>
      <trkpt lat="42.8769360" lon="2.1584990">
        <ele>560.4</ele>
        <time>2020-07-22T06:48:29Z</time>
      </trkpt>
      <trkpt lat="42.8770730" lon="2.1587130">
        <ele>561.2</ele>
        <time>2020-07-22T06:48:35Z</time>
      </trkpt>
      <trkpt lat="42.8771180" lon="2.1587800">
        <ele>561.6</ele>
        <time>2020-07-22T06:48:37Z</time>
      </trkpt>
      <trkpt lat="42.8771410" lon="2.1588110">
        <ele>562.0</ele>
        <time>2020-07-22T06:48:39Z</time>
      </trkpt>
      <trkpt lat="42.8772620" lon="2.1589270">
        <ele>562.8</ele>
        <time>2020-07-22T06:48:44Z</time>
      </trkpt>
      <trkpt lat="42.8773140" lon="2.1589590">
        <ele>563.0</ele>
        <time>2020-07-22T06:48:45Z</time>
      </trkpt>
      <trkpt lat="42.8774350" lon="2.1590200">
        <ele>563.8</ele>
        <time>2020-07-22T06:48:50Z</time>
      </trkpt>
      <trkpt lat="42.8775200" lon="2.1590640">
        <ele>564.4</ele>
        <time>2020-07-22T06:48:54Z</time>
      </trkpt>
      <trkpt lat="42.8775640" lon="2.1590820">
        <ele>564.8</ele>
        <time>2020-07-22T06:48:56Z</time>
      </trkpt>
      <trkpt lat="42.8777160" lon="2.1591350">
        <ele>566.0</ele>
        <time>2020-07-22T06:49:02Z</time>
      </trkpt>
      <trkpt lat="42.8779140" lon="2.1591260">
        <ele>567.0</ele>
        <time>2020-07-22T06:49:08Z</time>
      </trkpt>
      <trkpt lat="42.8779470" lon="2.1591180">
        <ele>567.2</ele>
        <time>2020-07-22T06:49:09Z</time>
      </trkpt>
      <trkpt lat="42.8781110" lon="2.1590630">
        <ele>567.8</ele>
        <time>2020-07-22T06:49:14Z</time>
      </trkpt>
      <trkpt lat="42.8781770" lon="2.1590290">
        <ele>568.0</ele>
        <time>2020-07-22T06:49:16Z</time>
      </trkpt>
      <trkpt lat="42.8782430" lon="2.1589920">
        <ele>568.4</ele>
        <time>2020-07-22T06:49:18Z</time>
      </trkpt>
      <trkpt lat="42.8783700" lon="2.1589090">
        <ele>569.2</ele>
        <time>2020-07-22T06:49:22Z</time>
      </trkpt>
      <trkpt lat="42.8785250" lon="2.1587910">
        <ele>569.8</ele>
        <time>2020-07-22T06:49:27Z</time>
      </trkpt>
      <trkpt lat="42.8786040" lon="2.1587040">
        <ele>570.2</ele>
        <time>2020-07-22T06:49:30Z</time>
      </trkpt>
      <trkpt lat="42.8787120" lon="2.1585280">
        <ele>571.4</ele>
        <time>2020-07-22T06:49:35Z</time>
      </trkpt>
      <trkpt lat="42.8787300" lon="2.1584890">
        <ele>571.6</ele>
        <time>2020-07-22T06:49:36Z</time>
      </trkpt>
      <trkpt lat="42.8788280" lon="2.1582550">
        <ele>572.4</ele>
        <time>2020-07-22T06:49:42Z</time>
      </trkpt>
      <trkpt lat="42.8788550" lon="2.1581730">
        <ele>572.8</ele>
        <time>2020-07-22T06:49:44Z</time>
      </trkpt>
      <trkpt lat="42.8789050" lon="2.1580140">
        <ele>573.6</ele>
        <time>2020-07-22T06:49:48Z</time>
      </trkpt>
      <trkpt lat="42.8789660" lon="2.1578030">
        <ele>574.6</ele>
        <time>2020-07-22T06:49:53Z</time>
      </trkpt>
      <trkpt lat="42.8789810" lon="2.1577630">
        <ele>574.8</ele>
        <time>2020-07-22T06:49:54Z</time>
      </trkpt>
      <trkpt lat="42.8790360" lon="2.1575230">
        <ele>576.0</ele>
        <time>2020-07-22T06:50:00Z</time>
      </trkpt>
      <trkpt lat="42.8790410" lon="2.1574830">
        <ele>576.2</ele>
        <time>2020-07-22T06:50:01Z</time>
      </trkpt>
      <trkpt lat="42.8790870" lon="2.1572760">
        <ele>576.8</ele>
        <time>2020-07-22T06:50:06Z</time>
      </trkpt>
      <trkpt lat="42.8790980" lon="2.1572390">
        <ele>577.0</ele>
        <time>2020-07-22T06:50:07Z</time>
      </trkpt>
      <trkpt lat="42.8791300" lon="2.1570730">
        <ele>577.6</ele>
        <time>2020-07-22T06:50:11Z</time>
      </trkpt>
      <trkpt lat="42.8791610" lon="2.1569670">
        <ele>578.4</ele>
        <time>2020-07-22T06:50:14Z</time>
      </trkpt>
      <trkpt lat="42.8792430" lon="2.1567890">
        <ele>579.6</ele>
        <time>2020-07-22T06:50:19Z</time>
      </trkpt>
      <trkpt lat="42.8792490" lon="2.1567510">
        <ele>579.6</ele>
        <time>2020-07-22T06:50:20Z</time>
      </trkpt>
      <trkpt lat="42.8792920" lon="2.1565460">
        <ele>580.6</ele>
        <time>2020-07-22T06:50:25Z</time>
      </trkpt>
      <trkpt lat="42.8793510" lon="2.1564180">
        <ele>581.2</ele>
        <time>2020-07-22T06:50:28Z</time>
      </trkpt>
      <trkpt lat="42.8793870" lon="2.1562890">
        <ele>581.8</ele>
        <time>2020-07-22T06:50:31Z</time>
      </trkpt>
      <trkpt lat="42.8794370" lon="2.1560960">
        <ele>582.4</ele>
        <time>2020-07-22T06:50:36Z</time>
      </trkpt>
      <trkpt lat="42.8795060" lon="2.1559900">
        <ele>583.0</ele>
        <time>2020-07-22T06:50:39Z</time>
      </trkpt>
      <trkpt lat="42.8795720" lon="2.1558090">
        <ele>583.8</ele>
        <time>2020-07-22T06:50:44Z</time>
      </trkpt>
      <trkpt lat="42.8795920" lon="2.1557400">
        <ele>584.0</ele>
        <time>2020-07-22T06:50:46Z</time>
      </trkpt>
      <trkpt lat="42.8796370" lon="2.1555670">
        <ele>585.0</ele>
        <time>2020-07-22T06:50:51Z</time>
      </trkpt>
      <trkpt lat="42.8796420" lon="2.1555220">
        <ele>585.2</ele>
        <time>2020-07-22T06:50:52Z</time>
      </trkpt>
      <trkpt lat="42.8796820" lon="2.1553160">
        <ele>586.0</ele>
        <time>2020-07-22T06:50:58Z</time>
      </trkpt>
      <trkpt lat="42.8797050" lon="2.1552670">
        <ele>586.2</ele>
        <time>2020-07-22T06:51:00Z</time>
      </trkpt>
      <trkpt lat="42.8797410" lon="2.1551030">
        <ele>587.0</ele>
        <time>2020-07-22T06:51:06Z</time>
      </trkpt>
      <trkpt lat="42.8797410" lon="2.1550710">
        <ele>587.2</ele>
        <time>2020-07-22T06:51:07Z</time>
      </trkpt>
      <trkpt lat="42.8797360" lon="2.1550380">
        <ele>587.2</ele>
        <time>2020-07-22T06:51:08Z</time>
      </trkpt>
      <trkpt lat="42.8797110" lon="2.1549840">
        <ele>587.4</ele>
        <time>2020-07-22T06:51:10Z</time>
      </trkpt>
      <trkpt lat="42.8796660" lon="2.1549450">
        <ele>587.8</ele>
        <time>2020-07-22T06:51:12Z</time>
      </trkpt>
      <trkpt lat="42.8796420" lon="2.1549420">
        <ele>587.8</ele>
        <time>2020-07-22T06:51:13Z</time>
      </trkpt>
      <trkpt lat="42.8796190" lon="2.1549480">
        <ele>587.8</ele>
        <time>2020-07-22T06:51:14Z</time>
      </trkpt>
      <trkpt lat="42.8795720" lon="2.1549810">
        <ele>588.2</ele>
        <time>2020-07-22T06:51:16Z</time>
      </trkpt>
      <trkpt lat="42.8795520" lon="2.1550080">
        <ele>588.4</ele>
        <time>2020-07-22T06:51:17Z</time>
      </trkpt>
      <trkpt lat="42.8795060" lon="2.1551060">
        <ele>589.0</ele>
        <time>2020-07-22T06:51:20Z</time>
      </trkpt>
      <trkpt lat="42.8794780" lon="2.1551750">
        <ele>589.4</ele>
        <time>2020-07-22T06:51:22Z</time>
      </trkpt>
      <trkpt lat="42.8794280" lon="2.1553900">
        <ele>590.2</ele>
        <time>2020-07-22T06:51:28Z</time>
      </trkpt>
      <trkpt lat="42.8794220" lon="2.1554230">
        <ele>590.6</ele>
        <time>2020-07-22T06:51:29Z</time>
      </trkpt>
      <trkpt lat="42.8794020" lon="2.1554960">
        <ele>591.0</ele>
        <time>2020-07-22T06:51:31Z</time>
      </trkpt>
      <trkpt lat="42.8793670" lon="2.1556270">
        <ele>591.6</ele>
        <time>2020-07-22T06:51:35Z</time>
      </trkpt>
      <trkpt lat="42.8793380" lon="2.1557560">
        <ele>592.4</ele>
        <time>2020-07-22T06:51:39Z</time>
      </trkpt>
      <trkpt lat="42.8793390" lon="2.1558440">
        <ele>592.8</ele>
        <time>2020-07-22T06:51:42Z</time>
      </trkpt>
      <trkpt lat="42.8792990" lon="2.1559510">
        <ele>593.4</ele>
        <time>2020-07-22T06:51:45Z</time>
      </trkpt>
      <trkpt lat="42.8792760" lon="2.1560200">
        <ele>594.0</ele>
        <time>2020-07-22T06:51:47Z</time>
      </trkpt>
      <trkpt lat="42.8792640" lon="2.1560520">
        <ele>594.2</ele>
        <time>2020-07-22T06:51:48Z</time>
      </trkpt>
      <trkpt lat="42.8792230" lon="2.1561740">
        <ele>595.0</ele>
        <time>2020-07-22T06:51:52Z</time>
      </trkpt>
      <trkpt lat="42.8791970" lon="2.1562370">
        <ele>595.2</ele>
        <time>2020-07-22T06:51:54Z</time>
      </trkpt>
      <trkpt lat="42.8791290" lon="2.1563550">
        <ele>595.8</ele>
        <time>2020-07-22T06:51:58Z</time>
      </trkpt>
      <trkpt lat="42.8791060" lon="2.1564170">
        <ele>596.0</ele>
        <time>2020-07-22T06:52:00Z</time>
      </trkpt>
      <trkpt lat="42.8790570" lon="2.1565300">
        <ele>596.8</ele>
        <time>2020-07-22T06:52:04Z</time>
      </trkpt>
      <trkpt lat="42.8790280" lon="2.1565900">
        <ele>597.0</ele>
        <time>2020-07-22T06:52:06Z</time>
      </trkpt>
      <trkpt lat="42.8789480" lon="2.1567290">
        <ele>597.8</ele>
        <time>2020-07-22T06:52:11Z</time>
      </trkpt>
      <trkpt lat="42.8789110" lon="2.1567850">
        <ele>598.0</ele>
        <time>2020-07-22T06:52:13Z</time>
      </trkpt>
      <trkpt lat="42.8788150" lon="2.1569090">
        <ele>598.8</ele>
        <time>2020-07-22T06:52:18Z</time>
      </trkpt>
      <trkpt lat="42.8787970" lon="2.1569350">
        <ele>599.0</ele>
        <time>2020-07-22T06:52:19Z</time>
      </trkpt>
      <trkpt lat="42.8787790" lon="2.1569540">
        <ele>599.4</ele>
        <time>2020-07-22T06:52:20Z</time>
      </trkpt>
      <trkpt lat="42.8787590" lon="2.1569770">
        <ele>599.6</ele>
        <time>2020-07-22T06:52:21Z</time>
      </trkpt>
      <trkpt lat="42.8787130" lon="2.1570200">
        <ele>600.0</ele>
        <time>2020-07-22T06:52:23Z</time>
      </trkpt>
      <trkpt lat="42.8786670" lon="2.1570530">
        <ele>600.2</ele>
        <time>2020-07-22T06:52:25Z</time>
      </trkpt>
      <trkpt lat="42.8786170" lon="2.1570800">
        <ele>600.6</ele>
        <time>2020-07-22T06:52:27Z</time>
      </trkpt>
      <trkpt lat="42.8784780" lon="2.1571110">
        <ele>601.8</ele>
        <time>2020-07-22T06:52:32Z</time>
      </trkpt>
      <trkpt lat="42.8783850" lon="2.1571270">
        <ele>602.2</ele>
        <time>2020-07-22T06:52:35Z</time>
      </trkpt>
      <trkpt lat="42.8782950" lon="2.1571240">
        <ele>602.6</ele>
        <time>2020-07-22T06:52:38Z</time>
      </trkpt>
      <trkpt lat="42.8782650" lon="2.1571160">
        <ele>602.8</ele>
        <time>2020-07-22T06:52:39Z</time>
      </trkpt>
      <trkpt lat="42.8781420" lon="2.1570350">
        <ele>604.0</ele>
        <time>2020-07-22T06:52:44Z</time>
      </trkpt>
      <trkpt lat="42.8780400" lon="2.1568940">
        <ele>604.8</ele>
        <time>2020-07-22T06:52:50Z</time>
      </trkpt>
      <trkpt lat="42.8780260" lon="2.1568650">
        <ele>605.2</ele>
        <time>2020-07-22T06:52:51Z</time>
      </trkpt>
      <trkpt lat="42.8779740" lon="2.1567340">
        <ele>606.4</ele>
        <time>2020-07-22T06:52:56Z</time>
      </trkpt>
      <trkpt lat="42.8779150" lon="2.1565310">
        <ele>607.2</ele>
        <time>2020-07-22T06:53:01Z</time>
      </trkpt>
      <trkpt lat="42.8778900" lon="2.1564620">
        <ele>607.6</ele>
        <time>2020-07-22T06:53:03Z</time>
      </trkpt>
      <trkpt lat="42.8778560" lon="2.1563620">
        <ele>608.4</ele>
        <time>2020-07-22T06:53:06Z</time>
      </trkpt>
      <trkpt lat="42.8778450" lon="2.1563310">
        <ele>608.6</ele>
        <time>2020-07-22T06:53:07Z</time>
      </trkpt>
      <trkpt lat="42.8778340" lon="2.1563000">
        <ele>608.8</ele>
        <time>2020-07-22T06:53:08Z</time>
      </trkpt>
      <trkpt lat="42.8778130" lon="2.1562350">
        <ele>609.2</ele>
        <time>2020-07-22T06:53:10Z</time>
      </trkpt>
      <trkpt lat="42.8778020" lon="2.1562040">
        <ele>609.4</ele>
        <time>2020-07-22T06:53:11Z</time>
      </trkpt>
      <trkpt lat="42.8777760" lon="2.1561010">
        <ele>609.8</ele>
        <time>2020-07-22T06:53:14Z</time>
      </trkpt>
      <trkpt lat="42.8777410" lon="2.1559580">
        <ele>610.6</ele>
        <time>2020-07-22T06:53:18Z</time>
      </trkpt>
      <trkpt lat="42.8777200" lon="2.1558860">
        <ele>611.0</ele>
        <time>2020-07-22T06:53:20Z</time>
      </trkpt>
      <trkpt lat="42.8776240" lon="2.1557090">
        <ele>612.0</ele>
        <time>2020-07-22T06:53:26Z</time>
      </trkpt>
      <trkpt lat="42.8776060" lon="2.1556840">
        <ele>612.2</ele>
        <time>2020-07-22T06:53:27Z</time>
      </trkpt>
      <trkpt lat="42.8775300" lon="2.1555230">
        <ele>613.2</ele>
        <time>2020-07-22T06:53:32Z</time>
      </trkpt>
      <trkpt lat="42.8775110" lon="2.1554960">
        <ele>613.4</ele>
        <time>2020-07-22T06:53:33Z</time>
      </trkpt>
      <trkpt lat="42.8774160" lon="2.1553390">
        <ele>614.4</ele>
        <time>2020-07-22T06:53:39Z</time>
      </trkpt>
      <trkpt lat="42.8773860" lon="2.1552820">
        <ele>614.6</ele>
        <time>2020-07-22T06:53:40Z</time>
      </trkpt>
      <trkpt lat="42.8773200" lon="2.1551690">
        <ele>615.4</ele>
        <time>2020-07-22T06:53:45Z</time>
      </trkpt>
      <trkpt lat="42.8772510" lon="2.1550750">
        <ele>616.6</ele>
        <time>2020-07-22T06:53:49Z</time>
      </trkpt>
      <trkpt lat="42.8772390" lon="2.1550470">
        <ele>616.8</ele>
        <time>2020-07-22T06:53:50Z</time>
      </trkpt>
      <trkpt lat="42.8771640" lon="2.1548830">
        <ele>617.8</ele>
        <time>2020-07-22T06:53:56Z</time>
      </trkpt>
      <trkpt lat="42.8771070" lon="2.1547560">
        <ele>618.2</ele>
        <time>2020-07-22T06:53:59Z</time>
      </trkpt>
      <trkpt lat="42.8770650" lon="2.1546530">
        <ele>618.8</ele>
        <time>2020-07-22T06:54:02Z</time>
      </trkpt>
      <trkpt lat="42.8770200" lon="2.1545570">
        <ele>619.4</ele>
        <time>2020-07-22T06:54:05Z</time>
      </trkpt>
      <trkpt lat="42.8769810" lon="2.1545120">
        <ele>620.0</ele>
        <time>2020-07-22T06:54:07Z</time>
      </trkpt>
      <trkpt lat="42.8769490" lon="2.1544600">
        <ele>620.4</ele>
        <time>2020-07-22T06:54:09Z</time>
      </trkpt>
      <trkpt lat="42.8768770" lon="2.1543760">
        <ele>621.2</ele>
        <time>2020-07-22T06:54:13Z</time>
      </trkpt>
      <trkpt lat="42.8768390" lon="2.1543360">
        <ele>621.8</ele>
        <time>2020-07-22T06:54:16Z</time>
      </trkpt>
      <trkpt lat="42.8767730" lon="2.1542810">
        <ele>622.2</ele>
        <time>2020-07-22T06:54:18Z</time>
      </trkpt>
      <trkpt lat="42.8766220" lon="2.1542020">
        <ele>622.8</ele>
        <time>2020-07-22T06:54:24Z</time>
      </trkpt>
      <trkpt lat="42.8765720" lon="2.1541730">
        <ele>623.2</ele>
        <time>2020-07-22T06:54:26Z</time>
      </trkpt>
      <trkpt lat="42.8764280" lon="2.1540840">
        <ele>624.2</ele>
        <time>2020-07-22T06:54:32Z</time>
      </trkpt>
      <trkpt lat="42.8764040" lon="2.1540730">
        <ele>624.4</ele>
        <time>2020-07-22T06:54:33Z</time>
      </trkpt>
      <trkpt lat="42.8762610" lon="2.1540090">
        <ele>625.4</ele>
        <time>2020-07-22T06:54:39Z</time>
      </trkpt>
      <trkpt lat="42.8761870" lon="2.1539730">
        <ele>625.8</ele>
        <time>2020-07-22T06:54:42Z</time>
      </trkpt>
      <trkpt lat="42.8761130" lon="2.1539400">
        <ele>626.6</ele>
        <time>2020-07-22T06:54:45Z</time>
      </trkpt>
      <trkpt lat="42.8759760" lon="2.1538470">
        <ele>627.8</ele>
        <time>2020-07-22T06:54:51Z</time>
      </trkpt>
      <trkpt lat="42.8759550" lon="2.1538280">
        <ele>628.0</ele>
        <time>2020-07-22T06:54:52Z</time>
      </trkpt>
      <trkpt lat="42.8758510" lon="2.1537280">
        <ele>629.0</ele>
        <time>2020-07-22T06:54:57Z</time>
      </trkpt>
      <trkpt lat="42.8757750" lon="2.1536450">
        <ele>629.8</ele>
        <time>2020-07-22T06:55:01Z</time>
      </trkpt>
      <trkpt lat="42.8757400" lon="2.1535970">
        <ele>630.2</ele>
        <time>2020-07-22T06:55:03Z</time>
      </trkpt>
      <trkpt lat="42.8757210" lon="2.1535740">
        <ele>630.4</ele>
        <time>2020-07-22T06:55:04Z</time>
      </trkpt>
      <trkpt lat="42.8756160" lon="2.1534660">
        <ele>631.4</ele>
        <time>2020-07-22T06:55:09Z</time>
      </trkpt>
      <trkpt lat="42.8755050" lon="2.1533550">
        <ele>632.0</ele>
        <time>2020-07-22T06:55:14Z</time>
      </trkpt>
      <trkpt lat="42.8754570" lon="2.1533200">
        <ele>632.4</ele>
        <time>2020-07-22T06:55:17Z</time>
      </trkpt>
      <trkpt lat="42.8754100" lon="2.1532830">
        <ele>632.8</ele>
        <time>2020-07-22T06:55:18Z</time>
      </trkpt>
      <trkpt lat="42.8753250" lon="2.1531900">
        <ele>633.4</ele>
        <time>2020-07-22T06:55:22Z</time>
      </trkpt>
      <trkpt lat="42.8752250" lon="2.1530760">
        <ele>634.6</ele>
        <time>2020-07-22T06:55:27Z</time>
      </trkpt>
      <trkpt lat="42.8752050" lon="2.1530540">
        <ele>634.6</ele>
        <time>2020-07-22T06:55:28Z</time>
      </trkpt>
      <trkpt lat="42.8750830" lon="2.1529340">
        <ele>635.8</ele>
        <time>2020-07-22T06:55:34Z</time>
      </trkpt>
      <trkpt lat="42.8750220" lon="2.1528790">
        <ele>636.4</ele>
        <time>2020-07-22T06:55:38Z</time>
      </trkpt>
      <trkpt lat="42.8749890" lon="2.1528330">
        <ele>636.8</ele>
        <time>2020-07-22T06:55:40Z</time>
      </trkpt>
      <trkpt lat="42.8749800" lon="2.1527430">
        <ele>637.6</ele>
        <time>2020-07-22T06:55:43Z</time>
      </trkpt>
      <trkpt lat="42.8749940" lon="2.1527180">
        <ele>637.8</ele>
        <time>2020-07-22T06:55:44Z</time>
      </trkpt>
      <trkpt lat="42.8750100" lon="2.1526990">
        <ele>638.0</ele>
        <time>2020-07-22T06:55:45Z</time>
      </trkpt>
      <trkpt lat="42.8750300" lon="2.1526940">
        <ele>638.2</ele>
        <time>2020-07-22T06:55:46Z</time>
      </trkpt>
      <trkpt lat="42.8750790" lon="2.1527200">
        <ele>638.4</ele>
        <time>2020-07-22T06:55:47Z</time>
      </trkpt>
      <trkpt lat="42.8751510" lon="2.1527920">
        <ele>639.2</ele>
        <time>2020-07-22T06:55:51Z</time>
      </trkpt>
      <trkpt lat="42.8752150" lon="2.1528710">
        <ele>639.4</ele>
        <time>2020-07-22T06:55:54Z</time>
      </trkpt>
      <trkpt lat="42.8752350" lon="2.1528900">
        <ele>639.6</ele>
        <time>2020-07-22T06:55:55Z</time>
      </trkpt>
      <trkpt lat="42.8753320" lon="2.1529350">
        <ele>640.4</ele>
        <time>2020-07-22T06:55:59Z</time>
      </trkpt>
      <trkpt lat="42.8753850" lon="2.1529500">
        <ele>640.8</ele>
        <time>2020-07-22T06:56:01Z</time>
      </trkpt>
      <trkpt lat="42.8754690" lon="2.1529630">
        <ele>641.4</ele>
        <time>2020-07-22T06:56:04Z</time>
      </trkpt>
      <trkpt lat="42.8755240" lon="2.1529690">
        <ele>641.8</ele>
        <time>2020-07-22T06:56:06Z</time>
      </trkpt>
      <trkpt lat="42.8755770" lon="2.1529600">
        <ele>642.0</ele>
        <time>2020-07-22T06:56:08Z</time>
      </trkpt>
      <trkpt lat="42.8756570" lon="2.1529580">
        <ele>642.6</ele>
        <time>2020-07-22T06:56:10Z</time>
      </trkpt>
      <trkpt lat="42.8757620" lon="2.1529560">
        <ele>643.6</ele>
        <time>2020-07-22T06:56:15Z</time>
      </trkpt>
      <trkpt lat="42.8758680" lon="2.1529520">
        <ele>644.0</ele>
        <time>2020-07-22T06:56:18Z</time>
      </trkpt>
      <trkpt lat="42.8759900" lon="2.1529500">
        <ele>644.8</ele>
        <time>2020-07-22T06:56:22Z</time>
      </trkpt>
      <trkpt lat="42.8761610" lon="2.1529640">
        <ele>646.0</ele>
        <time>2020-07-22T06:56:28Z</time>
      </trkpt>
      <trkpt lat="42.8762980" lon="2.1529710">
        <ele>647.0</ele>
        <time>2020-07-22T06:56:33Z</time>
      </trkpt>
      <trkpt lat="42.8764040" lon="2.1529370">
        <ele>647.6</ele>
        <time>2020-07-22T06:56:37Z</time>
      </trkpt>
      <trkpt lat="42.8764540" lon="2.1529090">
        <ele>648.0</ele>
        <time>2020-07-22T06:56:39Z</time>
      </trkpt>
      <trkpt lat="42.8765740" lon="2.1528310">
        <ele>649.0</ele>
        <time>2020-07-22T06:56:45Z</time>
      </trkpt>
      <trkpt lat="42.8766200" lon="2.1527930">
        <ele>649.2</ele>
        <time>2020-07-22T06:56:46Z</time>
      </trkpt>
      <trkpt lat="42.8766430" lon="2.1527740">
        <ele>649.4</ele>
        <time>2020-07-22T06:56:47Z</time>
      </trkpt>
      <trkpt lat="42.8767300" lon="2.1526970">
        <ele>650.2</ele>
        <time>2020-07-22T06:56:52Z</time>
      </trkpt>
      <trkpt lat="42.8768650" lon="2.1525780">
        <ele>651.0</ele>
        <time>2020-07-22T06:56:58Z</time>
      </trkpt>
      <trkpt lat="42.8769050" lon="2.1525330">
        <ele>651.2</ele>
        <time>2020-07-22T06:57:00Z</time>
      </trkpt>
      <trkpt lat="42.8769250" lon="2.1525100">
        <ele>651.4</ele>
        <time>2020-07-22T06:57:01Z</time>
      </trkpt>
      <trkpt lat="42.8770240" lon="2.1523940">
        <ele>652.2</ele>
        <time>2020-07-22T06:57:05Z</time>
      </trkpt>
      <trkpt lat="42.8770430" lon="2.1523710">
        <ele>652.6</ele>
        <time>2020-07-22T06:57:06Z</time>
      </trkpt>
      <trkpt lat="42.8770640" lon="2.1523490">
        <ele>652.6</ele>
        <time>2020-07-22T06:57:07Z</time>
      </trkpt>
      <trkpt lat="42.8770850" lon="2.1523270">
        <ele>652.8</ele>
        <time>2020-07-22T06:57:08Z</time>
      </trkpt>
      <trkpt lat="42.8771740" lon="2.1522580">
        <ele>653.6</ele>
        <time>2020-07-22T06:57:13Z</time>
      </trkpt>
      <trkpt lat="42.8772900" lon="2.1522120">
        <ele>654.2</ele>
        <time>2020-07-22T06:57:17Z</time>
      </trkpt>
      <trkpt lat="42.8773540" lon="2.1522120">
        <ele>655.0</ele>
        <time>2020-07-22T06:57:21Z</time>
      </trkpt>
      <trkpt lat="42.8774380" lon="2.1522060">
        <ele>655.6</ele>
        <time>2020-07-22T06:57:25Z</time>
      </trkpt>
      <trkpt lat="42.8775370" lon="2.1521840">
        <ele>656.0</ele>
        <time>2020-07-22T06:57:29Z</time>
      </trkpt>
      <trkpt lat="42.8776040" lon="2.1521300">
        <ele>656.2</ele>
        <time>2020-07-22T06:57:31Z</time>
      </trkpt>
      <trkpt lat="42.8776620" lon="2.1520340">
        <ele>657.0</ele>
        <time>2020-07-22T06:57:36Z</time>
      </trkpt>
      <trkpt lat="42.8776800" lon="2.1519870">
        <ele>657.2</ele>
        <time>2020-07-22T06:57:38Z</time>
      </trkpt>
      <trkpt lat="42.8776760" lon="2.1519490">
        <ele>657.4</ele>
        <time>2020-07-22T06:57:39Z</time>
      </trkpt>
      <trkpt lat="42.8776330" lon="2.1517880">
        <ele>657.8</ele>
        <time>2020-07-22T06:57:42Z</time>
      </trkpt>
      <trkpt lat="42.8775850" lon="2.1517280">
        <ele>658.0</ele>
        <time>2020-07-22T06:57:44Z</time>
      </trkpt>
      <trkpt lat="42.8775260" lon="2.1516960">
        <ele>658.2</ele>
        <time>2020-07-22T06:57:46Z</time>
      </trkpt>
      <trkpt lat="42.8773520" lon="2.1516330">
        <ele>658.8</ele>
        <time>2020-07-22T06:57:52Z</time>
      </trkpt>
      <trkpt lat="42.8773230" lon="2.1516240">
        <ele>659.2</ele>
        <time>2020-07-22T06:57:53Z</time>
      </trkpt>
      <trkpt lat="42.8772360" lon="2.1516030">
        <ele>659.8</ele>
        <time>2020-07-22T06:57:56Z</time>
      </trkpt>
      <trkpt lat="42.8771780" lon="2.1515910">
        <ele>660.2</ele>
        <time>2020-07-22T06:57:58Z</time>
      </trkpt>
      <trkpt lat="42.8770230" lon="2.1515570">
        <ele>661.0</ele>
        <time>2020-07-22T06:58:04Z</time>
      </trkpt>
      <trkpt lat="42.8769960" lon="2.1515550">
        <ele>661.2</ele>
        <time>2020-07-22T06:58:06Z</time>
      </trkpt>
      <trkpt lat="42.8769100" lon="2.1515540">
        <ele>661.4</ele>
        <time>2020-07-22T06:58:08Z</time>
      </trkpt>
      <trkpt lat="42.8767980" lon="2.1515650">
        <ele>662.2</ele>
        <time>2020-07-22T06:58:13Z</time>
      </trkpt>
      <trkpt lat="42.8767430" lon="2.1515740">
        <ele>662.4</ele>
        <time>2020-07-22T06:58:14Z</time>
      </trkpt>
      <trkpt lat="42.8766890" lon="2.1515820">
        <ele>662.8</ele>
        <time>2020-07-22T06:58:16Z</time>
      </trkpt>
      <trkpt lat="42.8765840" lon="2.1516110">
        <ele>663.6</ele>
        <time>2020-07-22T06:58:21Z</time>
      </trkpt>
      <trkpt lat="42.8765330" lon="2.1516310">
        <ele>663.8</ele>
        <time>2020-07-22T06:58:22Z</time>
      </trkpt>
      <trkpt lat="42.8765060" lon="2.1516400">
        <ele>664.0</ele>
        <time>2020-07-22T06:58:23Z</time>
      </trkpt>
      <trkpt lat="42.8764240" lon="2.1516650">
        <ele>664.6</ele>
        <time>2020-07-22T06:58:27Z</time>
      </trkpt>
      <trkpt lat="42.8762880" lon="2.1516930">
        <ele>665.2</ele>
        <time>2020-07-22T06:58:32Z</time>
      </trkpt>
      <trkpt lat="42.8761740" lon="2.1517020">
        <ele>665.2</ele>
        <time>2020-07-22T06:58:35Z</time>
      </trkpt>
      <trkpt lat="42.8761150" lon="2.1517110">
        <ele>665.8</ele>
        <time>2020-07-22T06:58:37Z</time>
      </trkpt>
      <trkpt lat="42.8760280" lon="2.1516980">
        <ele>666.4</ele>
        <time>2020-07-22T06:58:40Z</time>
      </trkpt>
      <trkpt lat="42.8759840" lon="2.1516890">
        <ele>666.8</ele>
        <time>2020-07-22T06:58:42Z</time>
      </trkpt>
      <trkpt lat="42.8759700" lon="2.1516870">
        <ele>666.8</ele>
        <time>2020-07-22T06:58:43Z</time>
      </trkpt>
      <trkpt lat="42.8758000" lon="2.1516230">
        <ele>667.8</ele>
        <time>2020-07-22T06:58:49Z</time>
      </trkpt>
      <trkpt lat="42.8757710" lon="2.1516110">
        <ele>667.8</ele>
        <time>2020-07-22T06:58:50Z</time>
      </trkpt>
      <trkpt lat="42.8757430" lon="2.1515980">
        <ele>668.0</ele>
        <time>2020-07-22T06:58:51Z</time>
      </trkpt>
      <trkpt lat="42.8755940" lon="2.1514870">
        <ele>669.0</ele>
        <time>2020-07-22T06:58:56Z</time>
      </trkpt>
      <trkpt lat="42.8755470" lon="2.1514430">
        <ele>669.0</ele>
        <time>2020-07-22T06:58:58Z</time>
      </trkpt>
      <trkpt lat="42.8754090" lon="2.1512970">
        <ele>670.0</ele>
        <time>2020-07-22T06:59:04Z</time>
      </trkpt>
      <trkpt lat="42.8753660" lon="2.1512420">
        <ele>670.4</ele>
        <time>2020-07-22T06:59:06Z</time>
      </trkpt>
      <trkpt lat="42.8753040" lon="2.1511610">
        <ele>671.2</ele>
        <time>2020-07-22T06:59:09Z</time>
      </trkpt>
      <trkpt lat="42.8751870" lon="2.1510000">
        <ele>671.8</ele>
        <time>2020-07-22T06:59:15Z</time>
      </trkpt>
      <trkpt lat="42.8751640" lon="2.1509700">
        <ele>672.0</ele>
        <time>2020-07-22T06:59:16Z</time>
      </trkpt>
      <trkpt lat="42.8751170" lon="2.1509060">
        <ele>672.2</ele>
        <time>2020-07-22T06:59:18Z</time>
      </trkpt>
      <trkpt lat="42.8750200" lon="2.1507810">
        <ele>672.8</ele>
        <time>2020-07-22T06:59:22Z</time>
      </trkpt>
      <trkpt lat="42.8749960" lon="2.1507490">
        <ele>673.6</ele>
        <time>2020-07-22T06:59:24Z</time>
      </trkpt>
      <trkpt lat="42.8748400" lon="2.1505250">
        <ele>674.2</ele>
        <time>2020-07-22T06:59:30Z</time>
      </trkpt>
      <trkpt lat="42.8747800" lon="2.1504210">
        <ele>674.6</ele>
        <time>2020-07-22T06:59:33Z</time>
      </trkpt>
      <trkpt lat="42.8746940" lon="2.1502300">
        <ele>675.8</ele>
        <time>2020-07-22T06:59:38Z</time>
      </trkpt>
      <trkpt lat="42.8746300" lon="2.1500280">
        <ele>676.6</ele>
        <time>2020-07-22T06:59:43Z</time>
      </trkpt>
      <trkpt lat="42.8746200" lon="2.1499870">
        <ele>676.8</ele>
        <time>2020-07-22T06:59:45Z</time>
      </trkpt>
      <trkpt lat="42.8745780" lon="2.1497220">
        <ele>677.8</ele>
        <time>2020-07-22T06:59:51Z</time>
      </trkpt>
      <trkpt lat="42.8745750" lon="2.1496870">
        <ele>678.2</ele>
        <time>2020-07-22T06:59:52Z</time>
      </trkpt>
      <trkpt lat="42.8745780" lon="2.1494610">
        <ele>679.0</ele>
        <time>2020-07-22T06:59:58Z</time>
      </trkpt>
      <trkpt lat="42.8746270" lon="2.1491700">
        <ele>680.0</ele>
        <time>2020-07-22T07:00:04Z</time>
      </trkpt>
      <trkpt lat="42.8746580" lon="2.1490670">
        <ele>680.4</ele>
        <time>2020-07-22T07:00:06Z</time>
      </trkpt>
      <trkpt lat="42.8747260" lon="2.1487970">
        <ele>680.8</ele>
        <time>2020-07-22T07:00:10Z</time>
      </trkpt>
      <trkpt lat="42.8747420" lon="2.1486710">
        <ele>681.2</ele>
        <time>2020-07-22T07:00:13Z</time>
      </trkpt>
      <trkpt lat="42.8747480" lon="2.1485440">
        <ele>681.4</ele>
        <time>2020-07-22T07:00:14Z</time>
      </trkpt>
      <trkpt lat="42.8747380" lon="2.1484150">
        <ele>681.6</ele>
        <time>2020-07-22T07:00:16Z</time>
      </trkpt>
      <trkpt lat="42.8747140" lon="2.1482910">
        <ele>681.6</ele>
        <time>2020-07-22T07:00:18Z</time>
      </trkpt>
      <trkpt lat="42.8747140" lon="2.1482910">
        <ele>681.6</ele>
        <time>2020-07-22T07:00:19Z</time>
      </trkpt>
      <trkpt lat="42.8746570" lon="2.1481140">
        <ele>681.6</ele>
        <time>2020-07-22T07:00:21Z</time>
      </trkpt>
      <trkpt lat="42.8745740" lon="2.1479590">
        <ele>682.2</ele>
        <time>2020-07-22T07:00:24Z</time>
      </trkpt>
      <trkpt lat="42.8745430" lon="2.1479180">
        <ele>682.2</ele>
        <time>2020-07-22T07:00:25Z</time>
      </trkpt>
      <trkpt lat="42.8745120" lon="2.1478780">
        <ele>682.4</ele>
        <time>2020-07-22T07:00:26Z</time>
      </trkpt>
      <trkpt lat="42.8743750" lon="2.1477640">
        <ele>683.2</ele>
        <time>2020-07-22T07:00:30Z</time>
      </trkpt>
      <trkpt lat="42.8743370" lon="2.1477430">
        <ele>683.4</ele>
        <time>2020-07-22T07:00:31Z</time>
      </trkpt>
      <trkpt lat="42.8741560" lon="2.1476500">
        <ele>684.0</ele>
        <time>2020-07-22T07:00:37Z</time>
      </trkpt>
      <trkpt lat="42.8740600" lon="2.1475940">
        <ele>684.4</ele>
        <time>2020-07-22T07:00:39Z</time>
      </trkpt>
      <trkpt lat="42.8740300" lon="2.1475740">
        <ele>684.8</ele>
        <time>2020-07-22T07:00:40Z</time>
      </trkpt>
      <trkpt lat="42.8740000" lon="2.1475540">
        <ele>685.2</ele>
        <time>2020-07-22T07:00:41Z</time>
      </trkpt>
      <trkpt lat="42.8740000" lon="2.1475540">
        <ele>685.8</ele>
        <time>2020-07-22T07:00:42Z</time>
      </trkpt>
      <trkpt lat="42.8739150" lon="2.1474950">
        <ele>687.0</ele>
        <time>2020-07-22T07:00:45Z</time>
      </trkpt>
      <trkpt lat="42.8738120" lon="2.1473990">
        <ele>687.2</ele>
        <time>2020-07-22T07:00:49Z</time>
      </trkpt>
      <trkpt lat="42.8737250" lon="2.1472950">
        <ele>688.0</ele>
        <time>2020-07-22T07:00:53Z</time>
      </trkpt>
      <trkpt lat="42.8736520" lon="2.1471670">
        <ele>688.6</ele>
        <time>2020-07-22T07:00:57Z</time>
      </trkpt>
      <trkpt lat="42.8736120" lon="2.1471010">
        <ele>689.2</ele>
        <time>2020-07-22T07:00:59Z</time>
      </trkpt>
      <trkpt lat="42.8735750" lon="2.1470350">
        <ele>689.6</ele>
        <time>2020-07-22T07:01:01Z</time>
      </trkpt>
      <trkpt lat="42.8735140" lon="2.1468890">
        <ele>689.8</ele>
        <time>2020-07-22T07:01:05Z</time>
      </trkpt>
      <trkpt lat="42.8734860" lon="2.1468140">
        <ele>690.2</ele>
        <time>2020-07-22T07:01:07Z</time>
      </trkpt>
      <trkpt lat="42.8734030" lon="2.1466020">
        <ele>691.0</ele>
        <time>2020-07-22T07:01:13Z</time>
      </trkpt>
      <trkpt lat="42.8733840" lon="2.1465340">
        <ele>691.4</ele>
        <time>2020-07-22T07:01:15Z</time>
      </trkpt>
      <trkpt lat="42.8733660" lon="2.1464450">
        <ele>692.0</ele>
        <time>2020-07-22T07:01:18Z</time>
      </trkpt>
      <trkpt lat="42.8733510" lon="2.1464520">
        <ele>692.0</ele>
        <time>2020-07-22T07:01:20Z</time>
      </trkpt>
      <trkpt lat="42.8733590" lon="2.1464910">
        <ele>692.0</ele>
        <time>2020-07-22T07:01:22Z</time>
      </trkpt>
      <trkpt lat="42.8733690" lon="2.1465000">
        <ele>692.0</ele>
        <time>2020-07-22T07:01:23Z</time>
      </trkpt>
      <trkpt lat="42.8733760" lon="2.1465050">
        <ele>692.0</ele>
        <time>2020-07-22T07:01:24Z</time>
      </trkpt>
      <trkpt lat="42.8733730" lon="2.1464710">
        <ele>691.6</ele>
        <time>2020-07-22T07:01:28Z</time>
      </trkpt>
      <trkpt lat="42.8733670" lon="2.1464490">
        <ele>691.6</ele>
        <time>2020-07-22T07:01:29Z</time>
      </trkpt>
      <trkpt lat="42.8733350" lon="2.1462870">
        <ele>692.2</ele>
        <time>2020-07-22T07:01:34Z</time>
      </trkpt>
      <trkpt lat="42.8733130" lon="2.1461780">
        <ele>692.6</ele>
        <time>2020-07-22T07:01:37Z</time>
      </trkpt>
      <trkpt lat="42.8732820" lon="2.1460010">
        <ele>693.2</ele>
        <time>2020-07-22T07:01:42Z</time>
      </trkpt>
      <trkpt lat="42.8732700" lon="2.1459300">
        <ele>693.6</ele>
        <time>2020-07-22T07:01:44Z</time>
      </trkpt>
      <trkpt lat="42.8732510" lon="2.1458670">
        <ele>693.6</ele>
        <time>2020-07-22T07:01:45Z</time>
      </trkpt>
      <trkpt lat="42.8732220" lon="2.1457680">
        <ele>694.4</ele>
        <time>2020-07-22T07:01:49Z</time>
      </trkpt>
      <trkpt lat="42.8731990" lon="2.1456590">
        <ele>694.8</ele>
        <time>2020-07-22T07:01:52Z</time>
      </trkpt>
      <trkpt lat="42.8731850" lon="2.1455740">
        <ele>695.0</ele>
        <time>2020-07-22T07:01:53Z</time>
      </trkpt>
      <trkpt lat="42.8731850" lon="2.1455740">
        <ele>695.0</ele>
        <time>2020-07-22T07:01:54Z</time>
      </trkpt>
      <trkpt lat="42.8731420" lon="2.1453290">
        <ele>695.8</ele>
        <time>2020-07-22T07:01:59Z</time>
      </trkpt>
      <trkpt lat="42.8731250" lon="2.1452060">
        <ele>696.4</ele>
        <time>2020-07-22T07:02:02Z</time>
      </trkpt>
      <trkpt lat="42.8731070" lon="2.1450840">
        <ele>696.6</ele>
        <time>2020-07-22T07:02:05Z</time>
      </trkpt>
      <trkpt lat="42.8731020" lon="2.1450430">
        <ele>697.0</ele>
        <time>2020-07-22T07:02:06Z</time>
      </trkpt>
      <trkpt lat="42.8730750" lon="2.1449190">
        <ele>697.4</ele>
        <time>2020-07-22T07:02:09Z</time>
      </trkpt>
      <trkpt lat="42.8730500" lon="2.1447990">
        <ele>697.6</ele>
        <time>2020-07-22T07:02:12Z</time>
      </trkpt>
      <trkpt lat="42.8730330" lon="2.1447230">
        <ele>698.0</ele>
        <time>2020-07-22T07:02:14Z</time>
      </trkpt>
      <trkpt lat="42.8730010" lon="2.1446070">
        <ele>698.8</ele>
        <time>2020-07-22T07:02:17Z</time>
      </trkpt>
      <trkpt lat="42.8729780" lon="2.1445350">
        <ele>699.0</ele>
        <time>2020-07-22T07:02:19Z</time>
      </trkpt>
      <trkpt lat="42.8729640" lon="2.1445010">
        <ele>699.2</ele>
        <time>2020-07-22T07:02:20Z</time>
      </trkpt>
      <trkpt lat="42.8728860" lon="2.1442480">
        <ele>699.8</ele>
        <time>2020-07-22T07:02:26Z</time>
      </trkpt>
      <trkpt lat="42.8728510" lon="2.1441760">
        <ele>700.2</ele>
        <time>2020-07-22T07:02:28Z</time>
      </trkpt>
      <trkpt lat="42.8727680" lon="2.1440050">
        <ele>701.0</ele>
        <time>2020-07-22T07:02:33Z</time>
      </trkpt>
      <trkpt lat="42.8727510" lon="2.1439710">
        <ele>701.4</ele>
        <time>2020-07-22T07:02:34Z</time>
      </trkpt>
      <trkpt lat="42.8726530" lon="2.1437690">
        <ele>702.0</ele>
        <time>2020-07-22T07:02:40Z</time>
      </trkpt>
      <trkpt lat="42.8726180" lon="2.1437000">
        <ele>702.2</ele>
        <time>2020-07-22T07:02:42Z</time>
      </trkpt>
      <trkpt lat="42.8726030" lon="2.1436670">
        <ele>702.4</ele>
        <time>2020-07-22T07:02:43Z</time>
      </trkpt>
      <trkpt lat="42.8725350" lon="2.1435140">
        <ele>703.4</ele>
        <time>2020-07-22T07:02:48Z</time>
      </trkpt>
      <trkpt lat="42.8725180" lon="2.1434800">
        <ele>703.6</ele>
        <time>2020-07-22T07:02:49Z</time>
      </trkpt>
      <trkpt lat="42.8724200" lon="2.1432630">
        <ele>704.2</ele>
        <time>2020-07-22T07:02:55Z</time>
      </trkpt>
      <trkpt lat="42.8723690" lon="2.1431520">
        <ele>704.8</ele>
        <time>2020-07-22T07:02:58Z</time>
      </trkpt>
      <trkpt lat="42.8723540" lon="2.1431150">
        <ele>704.8</ele>
        <time>2020-07-22T07:02:59Z</time>
      </trkpt>
      <trkpt lat="42.8722720" lon="2.1429480">
        <ele>705.8</ele>
        <time>2020-07-22T07:03:04Z</time>
      </trkpt>
      <trkpt lat="42.8722090" lon="2.1428200">
        <ele>706.2</ele>
        <time>2020-07-22T07:03:08Z</time>
      </trkpt>
      <trkpt lat="42.8721310" lon="2.1426540">
        <ele>706.8</ele>
        <time>2020-07-22T07:03:13Z</time>
      </trkpt>
      <trkpt lat="42.8720810" lon="2.1425510">
        <ele>707.4</ele>
        <time>2020-07-22T07:03:16Z</time>
      </trkpt>
      <trkpt lat="42.8720280" lon="2.1424520">
        <ele>708.0</ele>
        <time>2020-07-22T07:03:19Z</time>
      </trkpt>
      <trkpt lat="42.8719390" lon="2.1422910">
        <ele>708.8</ele>
        <time>2020-07-22T07:03:24Z</time>
      </trkpt>
      <trkpt lat="42.8719200" lon="2.1422610">
        <ele>709.0</ele>
        <time>2020-07-22T07:03:25Z</time>
      </trkpt>
      <trkpt lat="42.8718820" lon="2.1421920">
        <ele>709.4</ele>
        <time>2020-07-22T07:03:27Z</time>
      </trkpt>
      <trkpt lat="42.8717790" lon="2.1420410">
        <ele>710.2</ele>
        <time>2020-07-22T07:03:32Z</time>
      </trkpt>
      <trkpt lat="42.8717610" lon="2.1420070">
        <ele>710.4</ele>
        <time>2020-07-22T07:03:33Z</time>
      </trkpt>
      <trkpt lat="42.8716870" lon="2.1418750">
        <ele>711.2</ele>
        <time>2020-07-22T07:03:37Z</time>
      </trkpt>
      <trkpt lat="42.8715790" lon="2.1416760">
        <ele>711.8</ele>
        <time>2020-07-22T07:03:43Z</time>
      </trkpt>
      <trkpt lat="42.8715420" lon="2.1416070">
        <ele>712.2</ele>
        <time>2020-07-22T07:03:45Z</time>
      </trkpt>
      <trkpt lat="42.8714540" lon="2.1413990">
        <ele>713.2</ele>
        <time>2020-07-22T07:03:51Z</time>
      </trkpt>
      <trkpt lat="42.8714400" lon="2.1413630">
        <ele>713.2</ele>
        <time>2020-07-22T07:03:52Z</time>
      </trkpt>
      <trkpt lat="42.8713570" lon="2.1411630">
        <ele>714.4</ele>
        <time>2020-07-22T07:03:58Z</time>
      </trkpt>
      <trkpt lat="42.8713290" lon="2.1410890">
        <ele>714.8</ele>
        <time>2020-07-22T07:04:00Z</time>
      </trkpt>
      <trkpt lat="42.8712630" lon="2.1409020">
        <ele>715.4</ele>
        <time>2020-07-22T07:04:05Z</time>
      </trkpt>
      <trkpt lat="42.8712160" lon="2.1407450">
        <ele>715.6</ele>
        <time>2020-07-22T07:04:09Z</time>
      </trkpt>
      <trkpt lat="42.8711790" lon="2.1406300">
        <ele>716.6</ele>
        <time>2020-07-22T07:04:12Z</time>
      </trkpt>
      <trkpt lat="42.8711220" lon="2.1404350">
        <ele>717.2</ele>
        <time>2020-07-22T07:04:17Z</time>
      </trkpt>
      <trkpt lat="42.8710830" lon="2.1403330">
        <ele>717.6</ele>
        <time>2020-07-22T07:04:20Z</time>
      </trkpt>
      <trkpt lat="42.8710560" lon="2.1402650">
        <ele>718.0</ele>
        <time>2020-07-22T07:04:22Z</time>
      </trkpt>
      <trkpt lat="42.8709940" lon="2.1401430">
        <ele>718.8</ele>
        <time>2020-07-22T07:04:26Z</time>
      </trkpt>
      <trkpt lat="42.8709220" lon="2.1399760">
        <ele>719.6</ele>
        <time>2020-07-22T07:04:31Z</time>
      </trkpt>
      <trkpt lat="42.8708710" lon="2.1398870">
        <ele>720.0</ele>
        <time>2020-07-22T07:04:34Z</time>
      </trkpt>
      <trkpt lat="42.8707730" lon="2.1397500">
        <ele>720.8</ele>
        <time>2020-07-22T07:04:39Z</time>
      </trkpt>
      <trkpt lat="42.8707340" lon="2.1397020">
        <ele>721.0</ele>
        <time>2020-07-22T07:04:41Z</time>
      </trkpt>
      <trkpt lat="42.8706110" lon="2.1395860">
        <ele>721.8</ele>
        <time>2020-07-22T07:04:46Z</time>
      </trkpt>
      <trkpt lat="42.8705830" lon="2.1395610">
        <ele>721.8</ele>
        <time>2020-07-22T07:04:47Z</time>
      </trkpt>
      <trkpt lat="42.8705540" lon="2.1395380">
        <ele>721.8</ele>
        <time>2020-07-22T07:04:48Z</time>
      </trkpt>
      <trkpt lat="42.8705240" lon="2.1395160">
        <ele>722.0</ele>
        <time>2020-07-22T07:04:49Z</time>
      </trkpt>
      <trkpt lat="42.8704930" lon="2.1394930">
        <ele>721.8</ele>
        <time>2020-07-22T07:04:50Z</time>
      </trkpt>
      <trkpt lat="42.8704640" lon="2.1394690">
        <ele>722.0</ele>
        <time>2020-07-22T07:04:51Z</time>
      </trkpt>
      <trkpt lat="42.8704340" lon="2.1394460">
        <ele>722.0</ele>
        <time>2020-07-22T07:04:52Z</time>
      </trkpt>
      <trkpt lat="42.8704050" lon="2.1394200">
        <ele>722.0</ele>
        <time>2020-07-22T07:04:53Z</time>
      </trkpt>
      <trkpt lat="42.8703790" lon="2.1393920">
        <ele>722.2</ele>
        <time>2020-07-22T07:04:54Z</time>
      </trkpt>
      <trkpt lat="42.8702980" lon="2.1393250">
        <ele>723.0</ele>
        <time>2020-07-22T07:04:57Z</time>
      </trkpt>
      <trkpt lat="42.8701920" lon="2.1391650">
        <ele>723.6</ele>
        <time>2020-07-22T07:05:02Z</time>
      </trkpt>
      <trkpt lat="42.8701000" lon="2.1389810">
        <ele>724.0</ele>
        <time>2020-07-22T07:05:07Z</time>
      </trkpt>
      <trkpt lat="42.8700730" lon="2.1388950">
        <ele>725.0</ele>
        <time>2020-07-22T07:05:09Z</time>
      </trkpt>
      <trkpt lat="42.8700550" lon="2.1388030">
        <ele>725.0</ele>
        <time>2020-07-22T07:05:11Z</time>
      </trkpt>
      <trkpt lat="42.8700520" lon="2.1386690">
        <ele>725.6</ele>
        <time>2020-07-22T07:05:14Z</time>
      </trkpt>
      <trkpt lat="42.8700690" lon="2.1385810">
        <ele>726.2</ele>
        <time>2020-07-22T07:05:16Z</time>
      </trkpt>
      <trkpt lat="42.8700840" lon="2.1385420">
        <ele>726.4</ele>
        <time>2020-07-22T07:05:17Z</time>
      </trkpt>
      <trkpt lat="42.8701030" lon="2.1385060">
        <ele>726.6</ele>
        <time>2020-07-22T07:05:18Z</time>
      </trkpt>
      <trkpt lat="42.8701230" lon="2.1384690">
        <ele>726.8</ele>
        <time>2020-07-22T07:05:19Z</time>
      </trkpt>
      <trkpt lat="42.8701680" lon="2.1384070">
        <ele>727.0</ele>
        <time>2020-07-22T07:05:21Z</time>
      </trkpt>
      <trkpt lat="42.8701920" lon="2.1383840">
        <ele>727.2</ele>
        <time>2020-07-22T07:05:22Z</time>
      </trkpt>
      <trkpt lat="42.8702510" lon="2.1383540">
        <ele>727.8</ele>
        <time>2020-07-22T07:05:24Z</time>
      </trkpt>
      <trkpt lat="42.8703140" lon="2.1383370">
        <ele>728.4</ele>
        <time>2020-07-22T07:05:26Z</time>
      </trkpt>
      <trkpt lat="42.8704780" lon="2.1383340">
        <ele>729.2</ele>
        <time>2020-07-22T07:05:31Z</time>
      </trkpt>
      <trkpt lat="42.8705100" lon="2.1383360">
        <ele>729.4</ele>
        <time>2020-07-22T07:05:32Z</time>
      </trkpt>
      <trkpt lat="42.8706040" lon="2.1383400">
        <ele>730.4</ele>
        <time>2020-07-22T07:05:36Z</time>
      </trkpt>
      <trkpt lat="42.8707030" lon="2.1383320">
        <ele>730.8</ele>
        <time>2020-07-22T07:05:38Z</time>
      </trkpt>
      <trkpt lat="42.8707350" lon="2.1383270">
        <ele>731.0</ele>
        <time>2020-07-22T07:05:39Z</time>
      </trkpt>
      <trkpt lat="42.8708600" lon="2.1382810">
        <ele>731.6</ele>
        <time>2020-07-22T07:05:43Z</time>
      </trkpt>
      <trkpt lat="42.8709570" lon="2.1382280">
        <ele>731.8</ele>
        <time>2020-07-22T07:05:46Z</time>
      </trkpt>
      <trkpt lat="42.8710900" lon="2.1381760">
        <ele>732.6</ele>
        <time>2020-07-22T07:05:50Z</time>
      </trkpt>
      <trkpt lat="42.8712310" lon="2.1381520">
        <ele>733.2</ele>
        <time>2020-07-22T07:05:54Z</time>
      </trkpt>
      <trkpt lat="42.8713060" lon="2.1381510">
        <ele>733.6</ele>
        <time>2020-07-22T07:05:56Z</time>
      </trkpt>
      <trkpt lat="42.8714450" lon="2.1382200">
        <ele>734.2</ele>
        <time>2020-07-22T07:06:00Z</time>
      </trkpt>
      <trkpt lat="42.8715240" lon="2.1383270">
        <ele>734.8</ele>
        <time>2020-07-22T07:06:03Z</time>
      </trkpt>
      <trkpt lat="42.8715570" lon="2.1384170">
        <ele>735.2</ele>
        <time>2020-07-22T07:06:05Z</time>
      </trkpt>
      <trkpt lat="42.8715640" lon="2.1386830">
        <ele>735.8</ele>
        <time>2020-07-22T07:06:10Z</time>
      </trkpt>
      <trkpt lat="42.8715560" lon="2.1387340">
        <ele>736.0</ele>
        <time>2020-07-22T07:06:11Z</time>
      </trkpt>
      <trkpt lat="42.8714960" lon="2.1389680">
        <ele>737.0</ele>
        <time>2020-07-22T07:06:16Z</time>
      </trkpt>
      <trkpt lat="42.8714870" lon="2.1390170">
        <ele>737.2</ele>
        <time>2020-07-22T07:06:17Z</time>
      </trkpt>
      <trkpt lat="42.8714820" lon="2.1393200">
        <ele>738.0</ele>
        <time>2020-07-22T07:06:23Z</time>
      </trkpt>
      <trkpt lat="42.8714870" lon="2.1393680">
        <ele>738.2</ele>
        <time>2020-07-22T07:06:24Z</time>
      </trkpt>
      <trkpt lat="42.8714950" lon="2.1394140">
        <ele>738.2</ele>
        <time>2020-07-22T07:06:25Z</time>
      </trkpt>
      <trkpt lat="42.8715850" lon="2.1396750">
        <ele>739.4</ele>
        <time>2020-07-22T07:06:31Z</time>
      </trkpt>
      <trkpt lat="42.8716060" lon="2.1397190">
        <ele>739.6</ele>
        <time>2020-07-22T07:06:32Z</time>
      </trkpt>
      <trkpt lat="42.8717230" lon="2.1399280">
        <ele>740.0</ele>
        <time>2020-07-22T07:06:38Z</time>
      </trkpt>
      <trkpt lat="42.8717660" lon="2.1400110">
        <ele>740.6</ele>
        <time>2020-07-22T07:06:40Z</time>
      </trkpt>
      <trkpt lat="42.8717860" lon="2.1400520">
        <ele>740.8</ele>
        <time>2020-07-22T07:06:41Z</time>
      </trkpt>
      <trkpt lat="42.8718310" lon="2.1401340">
        <ele>741.4</ele>
        <time>2020-07-22T07:06:43Z</time>
      </trkpt>
      <trkpt lat="42.8719090" lon="2.1402440">
        <ele>741.6</ele>
        <time>2020-07-22T07:06:46Z</time>
      </trkpt>
      <trkpt lat="42.8719800" lon="2.1402960">
        <ele>742.0</ele>
        <time>2020-07-22T07:06:48Z</time>
      </trkpt>
      <trkpt lat="42.8721010" lon="2.1403200">
        <ele>742.6</ele>
        <time>2020-07-22T07:06:51Z</time>
      </trkpt>
      <trkpt lat="42.8721450" lon="2.1403180">
        <ele>742.8</ele>
        <time>2020-07-22T07:06:52Z</time>
      </trkpt>
      <trkpt lat="42.8721880" lon="2.1403130">
        <ele>742.8</ele>
        <time>2020-07-22T07:06:53Z</time>
      </trkpt>
      <trkpt lat="42.8723460" lon="2.1402780">
        <ele>743.0</ele>
        <time>2020-07-22T07:06:56Z</time>
      </trkpt>
      <trkpt lat="42.8725060" lon="2.1402410">
        <ele>743.6</ele>
        <time>2020-07-22T07:07:00Z</time>
      </trkpt>
      <trkpt lat="42.8725830" lon="2.1402230">
        <ele>743.8</ele>
        <time>2020-07-22T07:07:02Z</time>
      </trkpt>
      <trkpt lat="42.8726960" lon="2.1401890">
        <ele>744.2</ele>
        <time>2020-07-22T07:07:05Z</time>
      </trkpt>
      <trkpt lat="42.8727720" lon="2.1401560">
        <ele>744.2</ele>
        <time>2020-07-22T07:07:07Z</time>
      </trkpt>
      <trkpt lat="42.8728060" lon="2.1401330">
        <ele>744.4</ele>
        <time>2020-07-22T07:07:08Z</time>
      </trkpt>
      <trkpt lat="42.8728410" lon="2.1401070">
        <ele>745.0</ele>
        <time>2020-07-22T07:07:09Z</time>
      </trkpt>
      <trkpt lat="42.8729120" lon="2.1400500">
        <ele>745.2</ele>
        <time>2020-07-22T07:07:11Z</time>
      </trkpt>
      <trkpt lat="42.8729790" lon="2.1399840">
        <ele>745.6</ele>
        <time>2020-07-22T07:07:13Z</time>
      </trkpt>
      <trkpt lat="42.8730430" lon="2.1399110">
        <ele>746.0</ele>
        <time>2020-07-22T07:07:15Z</time>
      </trkpt>
      <trkpt lat="42.8730750" lon="2.1398710">
        <ele>746.0</ele>
        <time>2020-07-22T07:07:16Z</time>
      </trkpt>
      <trkpt lat="42.8732680" lon="2.1396130">
        <ele>747.0</ele>
        <time>2020-07-22T07:07:22Z</time>
      </trkpt>
      <trkpt lat="42.8733010" lon="2.1395700">
        <ele>747.0</ele>
        <time>2020-07-22T07:07:23Z</time>
      </trkpt>
      <trkpt lat="42.8733360" lon="2.1395280">
        <ele>747.0</ele>
        <time>2020-07-22T07:07:24Z</time>
      </trkpt>
      <trkpt lat="42.8734080" lon="2.1394530">
        <ele>747.2</ele>
        <time>2020-07-22T07:07:26Z</time>
      </trkpt>
      <trkpt lat="42.8736050" lon="2.1392580">
        <ele>747.6</ele>
        <time>2020-07-22T07:07:31Z</time>
      </trkpt>
      <trkpt lat="42.8736460" lon="2.1392250">
        <ele>747.6</ele>
        <time>2020-07-22T07:07:32Z</time>
      </trkpt>
      <trkpt lat="42.8736860" lon="2.1391940">
        <ele>747.6</ele>
        <time>2020-07-22T07:07:33Z</time>
      </trkpt>
      <trkpt lat="42.8737260" lon="2.1391630">
        <ele>747.6</ele>
        <time>2020-07-22T07:07:34Z</time>
      </trkpt>
      <trkpt lat="42.8737650" lon="2.1391330">
        <ele>747.8</ele>
        <time>2020-07-22T07:07:35Z</time>
      </trkpt>
      <trkpt lat="42.8738060" lon="2.1391030">
        <ele>747.8</ele>
        <time>2020-07-22T07:07:36Z</time>
      </trkpt>
      <trkpt lat="42.8738470" lon="2.1390710">
        <ele>748.4</ele>
        <time>2020-07-22T07:07:38Z</time>
      </trkpt>
      <trkpt lat="42.8738880" lon="2.1390370">
        <ele>748.6</ele>
        <time>2020-07-22T07:07:39Z</time>
      </trkpt>
      <trkpt lat="42.8739650" lon="2.1389640">
        <ele>748.8</ele>
        <time>2020-07-22T07:07:40Z</time>
      </trkpt>
      <trkpt lat="42.8740630" lon="2.1388230">
        <ele>748.8</ele>
        <time>2020-07-22T07:07:43Z</time>
      </trkpt>
      <trkpt lat="42.8741060" lon="2.1387090">
        <ele>749.4</ele>
        <time>2020-07-22T07:07:45Z</time>
      </trkpt>
      <trkpt lat="42.8741170" lon="2.1385790">
        <ele>750.0</ele>
        <time>2020-07-22T07:07:47Z</time>
      </trkpt>
      <trkpt lat="42.8741090" lon="2.1384420">
        <ele>750.2</ele>
        <time>2020-07-22T07:07:49Z</time>
      </trkpt>
      <trkpt lat="42.8740800" lon="2.1382440">
        <ele>750.4</ele>
        <time>2020-07-22T07:07:52Z</time>
      </trkpt>
      <trkpt lat="42.8740510" lon="2.1380450">
        <ele>750.6</ele>
        <time>2020-07-22T07:07:55Z</time>
      </trkpt>
      <trkpt lat="42.8740510" lon="2.1379780">
        <ele>750.8</ele>
        <time>2020-07-22T07:07:56Z</time>
      </trkpt>
      <trkpt lat="42.8740610" lon="2.1379140">
        <ele>750.8</ele>
        <time>2020-07-22T07:07:57Z</time>
      </trkpt>
      <trkpt lat="42.8741080" lon="2.1378010">
        <ele>751.0</ele>
        <time>2020-07-22T07:07:59Z</time>
      </trkpt>
      <trkpt lat="42.8741410" lon="2.1377520">
        <ele>751.0</ele>
        <time>2020-07-22T07:08:00Z</time>
      </trkpt>
      <trkpt lat="42.8741790" lon="2.1377120">
        <ele>751.2</ele>
        <time>2020-07-22T07:08:01Z</time>
      </trkpt>
      <trkpt lat="42.8742650" lon="2.1376630">
        <ele>751.8</ele>
        <time>2020-07-22T07:08:03Z</time>
      </trkpt>
      <trkpt lat="42.8743090" lon="2.1376450">
        <ele>752.0</ele>
        <time>2020-07-22T07:08:04Z</time>
      </trkpt>
      <trkpt lat="42.8744430" lon="2.1375870">
        <ele>752.6</ele>
        <time>2020-07-22T07:08:07Z</time>
      </trkpt>
      <trkpt lat="42.8745660" lon="2.1374890">
        <ele>752.8</ele>
        <time>2020-07-22T07:08:10Z</time>
      </trkpt>
      <trkpt lat="42.8746350" lon="2.1373990">
        <ele>752.8</ele>
        <time>2020-07-22T07:08:12Z</time>
      </trkpt>
      <trkpt lat="42.8746620" lon="2.1373450">
        <ele>752.8</ele>
        <time>2020-07-22T07:08:13Z</time>
      </trkpt>
      <trkpt lat="42.8746790" lon="2.1372790">
        <ele>753.0</ele>
        <time>2020-07-22T07:08:14Z</time>
      </trkpt>
      <trkpt lat="42.8746960" lon="2.1371550">
        <ele>753.0</ele>
        <time>2020-07-22T07:08:16Z</time>
      </trkpt>
      <trkpt lat="42.8746930" lon="2.1370940">
        <ele>753.2</ele>
        <time>2020-07-22T07:08:17Z</time>
      </trkpt>
      <trkpt lat="42.8746860" lon="2.1370320">
        <ele>753.4</ele>
        <time>2020-07-22T07:08:18Z</time>
      </trkpt>
      <trkpt lat="42.8746740" lon="2.1369690">
        <ele>753.8</ele>
        <time>2020-07-22T07:08:19Z</time>
      </trkpt>
      <trkpt lat="42.8746560" lon="2.1369050">
        <ele>754.0</ele>
        <time>2020-07-22T07:08:20Z</time>
      </trkpt>
      <trkpt lat="42.8746320" lon="2.1368470">
        <ele>754.2</ele>
        <time>2020-07-22T07:08:21Z</time>
      </trkpt>
      <trkpt lat="42.8746060" lon="2.1367930">
        <ele>754.2</ele>
        <time>2020-07-22T07:08:22Z</time>
      </trkpt>
      <trkpt lat="42.8745920" lon="2.1367680">
        <ele>754.6</ele>
        <time>2020-07-22T07:08:23Z</time>
      </trkpt>
      <trkpt lat="42.8745770" lon="2.1367430">
        <ele>754.8</ele>
        <time>2020-07-22T07:08:24Z</time>
      </trkpt>
      <trkpt lat="42.8745080" lon="2.1366620">
        <ele>755.0</ele>
        <time>2020-07-22T07:08:26Z</time>
      </trkpt>
      <trkpt lat="42.8744320" lon="2.1365980">
        <ele>755.4</ele>
        <time>2020-07-22T07:08:28Z</time>
      </trkpt>
      <trkpt lat="42.8743470" lon="2.1365560">
        <ele>755.6</ele>
        <time>2020-07-22T07:08:30Z</time>
      </trkpt>
      <trkpt lat="42.8742550" lon="2.1365270">
        <ele>756.0</ele>
        <time>2020-07-22T07:08:32Z</time>
      </trkpt>
      <trkpt lat="42.8741610" lon="2.1365060">
        <ele>756.2</ele>
        <time>2020-07-22T07:08:33Z</time>
      </trkpt>
      <trkpt lat="42.8741160" lon="2.1364920">
        <ele>756.4</ele>
        <time>2020-07-22T07:08:35Z</time>
      </trkpt>
      <trkpt lat="42.8739490" lon="2.1364420">
        <ele>756.8</ele>
        <time>2020-07-22T07:08:38Z</time>
      </trkpt>
      <trkpt lat="42.8738700" lon="2.1364180">
        <ele>757.2</ele>
        <time>2020-07-22T07:08:40Z</time>
      </trkpt>
      <trkpt lat="42.8737910" lon="2.1363910">
        <ele>757.6</ele>
        <time>2020-07-22T07:08:42Z</time>
      </trkpt>
      <trkpt lat="42.8737530" lon="2.1363780">
        <ele>758.0</ele>
        <time>2020-07-22T07:08:44Z</time>
      </trkpt>
      <trkpt lat="42.8736820" lon="2.1363360">
        <ele>758.4</ele>
        <time>2020-07-22T07:08:45Z</time>
      </trkpt>
      <trkpt lat="42.8735790" lon="2.1362660">
        <ele>759.6</ele>
        <time>2020-07-22T07:08:48Z</time>
      </trkpt>
      <trkpt lat="42.8735790" lon="2.1362660">
        <ele>759.8</ele>
        <time>2020-07-22T07:08:49Z</time>
      </trkpt>
      <trkpt lat="42.8735100" lon="2.1362330">
        <ele>760.0</ele>
        <time>2020-07-22T07:08:51Z</time>
      </trkpt>
      <trkpt lat="42.8734090" lon="2.1361900">
        <ele>760.8</ele>
        <time>2020-07-22T07:08:54Z</time>
      </trkpt>
      <trkpt lat="42.8733040" lon="2.1361520">
        <ele>761.4</ele>
        <time>2020-07-22T07:08:57Z</time>
      </trkpt>
      <trkpt lat="42.8732000" lon="2.1361330">
        <ele>762.0</ele>
        <time>2020-07-22T07:08:59Z</time>
      </trkpt>
      <trkpt lat="42.8730710" lon="2.1361230">
        <ele>763.0</ele>
        <time>2020-07-22T07:09:04Z</time>
      </trkpt>
      <trkpt lat="42.8729740" lon="2.1361110">
        <ele>763.2</ele>
        <time>2020-07-22T07:09:06Z</time>
      </trkpt>
      <trkpt lat="42.8728800" lon="2.1360990">
        <ele>764.6</ele>
        <time>2020-07-22T07:09:09Z</time>
      </trkpt>
      <trkpt lat="42.8727150" lon="2.1360980">
        <ele>765.0</ele>
        <time>2020-07-22T07:09:15Z</time>
      </trkpt>
      <trkpt lat="42.8726540" lon="2.1360940">
        <ele>765.6</ele>
        <time>2020-07-22T07:09:17Z</time>
      </trkpt>
      <trkpt lat="42.8725030" lon="2.1361530">
        <ele>766.2</ele>
        <time>2020-07-22T07:09:22Z</time>
      </trkpt>
      <trkpt lat="42.8723430" lon="2.1363150">
        <ele>766.8</ele>
        <time>2020-07-22T07:09:28Z</time>
      </trkpt>
      <trkpt lat="42.8723170" lon="2.1363470">
        <ele>767.0</ele>
        <time>2020-07-22T07:09:29Z</time>
      </trkpt>
      <trkpt lat="42.8721200" lon="2.1365050">
        <ele>767.8</ele>
        <time>2020-07-22T07:09:35Z</time>
      </trkpt>
      <trkpt lat="42.8721200" lon="2.1365050">
        <ele>768.0</ele>
        <time>2020-07-22T07:09:36Z</time>
      </trkpt>
      <trkpt lat="42.8719600" lon="2.1365340">
        <ele>769.0</ele>
        <time>2020-07-22T07:09:40Z</time>
      </trkpt>
      <trkpt lat="42.8718940" lon="2.1365380">
        <ele>769.4</ele>
        <time>2020-07-22T07:09:43Z</time>
      </trkpt>
      <trkpt lat="42.8717970" lon="2.1365650">
        <ele>769.8</ele>
        <time>2020-07-22T07:09:45Z</time>
      </trkpt>
      <trkpt lat="42.8717650" lon="2.1365710">
        <ele>770.2</ele>
        <time>2020-07-22T07:09:47Z</time>
      </trkpt>
      <trkpt lat="42.8715560" lon="2.1366340">
        <ele>771.2</ele>
        <time>2020-07-22T07:09:52Z</time>
      </trkpt>
      <trkpt lat="42.8715560" lon="2.1366340">
        <ele>771.4</ele>
        <time>2020-07-22T07:09:53Z</time>
      </trkpt>
      <trkpt lat="42.8714580" lon="2.1366610">
        <ele>771.8</ele>
        <time>2020-07-22T07:09:56Z</time>
      </trkpt>
      <trkpt lat="42.8713920" lon="2.1366750">
        <ele>772.4</ele>
        <time>2020-07-22T07:09:58Z</time>
      </trkpt>
      <trkpt lat="42.8712550" lon="2.1366740">
        <ele>772.8</ele>
        <time>2020-07-22T07:10:01Z</time>
      </trkpt>
      <trkpt lat="42.8711900" lon="2.1366440">
        <ele>773.2</ele>
        <time>2020-07-22T07:10:04Z</time>
      </trkpt>
      <trkpt lat="42.8711610" lon="2.1366200">
        <ele>773.6</ele>
        <time>2020-07-22T07:10:05Z</time>
      </trkpt>
      <trkpt lat="42.8711120" lon="2.1365570">
        <ele>773.8</ele>
        <time>2020-07-22T07:10:06Z</time>
      </trkpt>
      <trkpt lat="42.8711120" lon="2.1365570">
        <ele>774.0</ele>
        <time>2020-07-22T07:10:07Z</time>
      </trkpt>
      <trkpt lat="42.8710470" lon="2.1364050">
        <ele>774.6</ele>
        <time>2020-07-22T07:10:11Z</time>
      </trkpt>
      <trkpt lat="42.8710240" lon="2.1363210">
        <ele>775.0</ele>
        <time>2020-07-22T07:10:13Z</time>
      </trkpt>
      <trkpt lat="42.8709390" lon="2.1360620">
        <ele>775.6</ele>
        <time>2020-07-22T07:10:19Z</time>
      </trkpt>
      <trkpt lat="42.8708370" lon="2.1358860">
        <ele>776.6</ele>
        <time>2020-07-22T07:10:24Z</time>
      </trkpt>
      <trkpt lat="42.8707950" lon="2.1358190">
        <ele>777.0</ele>
        <time>2020-07-22T07:10:26Z</time>
      </trkpt>
      <trkpt lat="42.8707950" lon="2.1358190">
        <ele>777.2</ele>
        <time>2020-07-22T07:10:27Z</time>
      </trkpt>
      <trkpt lat="42.8707320" lon="2.1357200">
        <ele>777.8</ele>
        <time>2020-07-22T07:10:30Z</time>
      </trkpt>
      <trkpt lat="42.8706870" lon="2.1356570">
        <ele>778.0</ele>
        <time>2020-07-22T07:10:32Z</time>
      </trkpt>
      <trkpt lat="42.8706290" lon="2.1355610">
        <ele>778.2</ele>
        <time>2020-07-22T07:10:34Z</time>
      </trkpt>
      <trkpt lat="42.8706090" lon="2.1355350">
        <ele>778.2</ele>
        <time>2020-07-22T07:10:35Z</time>
      </trkpt>
      <trkpt lat="42.8705890" lon="2.1355090">
        <ele>778.2</ele>
        <time>2020-07-22T07:10:36Z</time>
      </trkpt>
      <trkpt lat="42.8704840" lon="2.1353580">
        <ele>778.8</ele>
        <time>2020-07-22T07:10:42Z</time>
      </trkpt>
      <trkpt lat="42.8704500" lon="2.1353190">
        <ele>779.2</ele>
        <time>2020-07-22T07:10:45Z</time>
      </trkpt>
      <trkpt lat="42.8704290" lon="2.1352950">
        <ele>779.6</ele>
        <time>2020-07-22T07:10:46Z</time>
      </trkpt>
      <trkpt lat="42.8704070" lon="2.1352690">
        <ele>779.8</ele>
        <time>2020-07-22T07:10:47Z</time>
      </trkpt>
      <trkpt lat="42.8703160" lon="2.1351210">
        <ele>780.8</ele>
        <time>2020-07-22T07:10:51Z</time>
      </trkpt>
      <trkpt lat="42.8702900" lon="2.1350830">
        <ele>781.0</ele>
        <time>2020-07-22T07:10:52Z</time>
      </trkpt>
      <trkpt lat="42.8701360" lon="2.1348880">
        <ele>782.2</ele>
        <time>2020-07-22T07:10:57Z</time>
      </trkpt>
      <trkpt lat="42.8701130" lon="2.1348550">
        <ele>782.4</ele>
        <time>2020-07-22T07:10:59Z</time>
      </trkpt>
      <trkpt lat="42.8700900" lon="2.1348240">
        <ele>782.6</ele>
        <time>2020-07-22T07:11:00Z</time>
      </trkpt>
      <trkpt lat="42.8699880" lon="2.1346980">
        <ele>783.2</ele>
        <time>2020-07-22T07:11:04Z</time>
      </trkpt>
      <trkpt lat="42.8698940" lon="2.1345660">
        <ele>783.8</ele>
        <time>2020-07-22T07:11:08Z</time>
      </trkpt>
      <trkpt lat="42.8698110" lon="2.1344320">
        <ele>784.4</ele>
        <time>2020-07-22T07:11:11Z</time>
      </trkpt>
      <trkpt lat="42.8697600" lon="2.1343100">
        <ele>785.2</ele>
        <time>2020-07-22T07:11:15Z</time>
      </trkpt>
      <trkpt lat="42.8697230" lon="2.1342390">
        <ele>785.4</ele>
        <time>2020-07-22T07:11:17Z</time>
      </trkpt>
      <trkpt lat="42.8696050" lon="2.1340160">
        <ele>786.0</ele>
        <time>2020-07-22T07:11:22Z</time>
      </trkpt>
      <trkpt lat="42.8695400" lon="2.1339220">
        <ele>786.6</ele>
        <time>2020-07-22T07:11:25Z</time>
      </trkpt>
      <trkpt lat="42.8694120" lon="2.1337300">
        <ele>787.6</ele>
        <time>2020-07-22T07:11:31Z</time>
      </trkpt>
      <trkpt lat="42.8693910" lon="2.1337070">
        <ele>787.8</ele>
        <time>2020-07-22T07:11:32Z</time>
      </trkpt>
      <trkpt lat="42.8693410" lon="2.1336080">
        <ele>788.4</ele>
        <time>2020-07-22T07:11:36Z</time>
      </trkpt>
      <trkpt lat="42.8693240" lon="2.1335290">
        <ele>788.8</ele>
        <time>2020-07-22T07:11:38Z</time>
      </trkpt>
      <trkpt lat="42.8692960" lon="2.1334090">
        <ele>789.4</ele>
        <time>2020-07-22T07:11:41Z</time>
      </trkpt>
      <trkpt lat="42.8692720" lon="2.1333370">
        <ele>789.8</ele>
        <time>2020-07-22T07:11:43Z</time>
      </trkpt>
      <trkpt lat="42.8692620" lon="2.1332970">
        <ele>790.0</ele>
        <time>2020-07-22T07:11:44Z</time>
      </trkpt>
      <trkpt lat="42.8691990" lon="2.1331070">
        <ele>791.0</ele>
        <time>2020-07-22T07:11:49Z</time>
      </trkpt>
      <trkpt lat="42.8691360" lon="2.1329640">
        <ele>791.6</ele>
        <time>2020-07-22T07:11:53Z</time>
      </trkpt>
      <trkpt lat="42.8690210" lon="2.1327600">
        <ele>792.0</ele>
        <time>2020-07-22T07:11:59Z</time>
      </trkpt>
      <trkpt lat="42.8689990" lon="2.1327280">
        <ele>792.2</ele>
        <time>2020-07-22T07:12:00Z</time>
      </trkpt>
      <trkpt lat="42.8689760" lon="2.1326950">
        <ele>792.2</ele>
        <time>2020-07-22T07:12:01Z</time>
      </trkpt>
      <trkpt lat="42.8688920" lon="2.1325660">
        <ele>793.2</ele>
        <time>2020-07-22T07:12:05Z</time>
      </trkpt>
      <trkpt lat="42.8688290" lon="2.1324710">
        <ele>793.4</ele>
        <time>2020-07-22T07:12:08Z</time>
      </trkpt>
      <trkpt lat="42.8687220" lon="2.1323360">
        <ele>794.4</ele>
        <time>2020-07-22T07:12:13Z</time>
      </trkpt>
      <trkpt lat="42.8686200" lon="2.1321910">
        <ele>794.8</ele>
        <time>2020-07-22T07:12:18Z</time>
      </trkpt>
      <trkpt lat="42.8685560" lon="2.1321080">
        <ele>795.4</ele>
        <time>2020-07-22T07:12:21Z</time>
      </trkpt>
      <trkpt lat="42.8684300" lon="2.1319410">
        <ele>796.4</ele>
        <time>2020-07-22T07:12:27Z</time>
      </trkpt>
      <trkpt lat="42.8684090" lon="2.1319130">
        <ele>796.6</ele>
        <time>2020-07-22T07:12:28Z</time>
      </trkpt>
      <trkpt lat="42.8682820" lon="2.1317450">
        <ele>797.4</ele>
        <time>2020-07-22T07:12:34Z</time>
      </trkpt>
      <trkpt lat="42.8682610" lon="2.1317240">
        <ele>797.6</ele>
        <time>2020-07-22T07:12:35Z</time>
      </trkpt>
      <trkpt lat="42.8682430" lon="2.1317070">
        <ele>797.8</ele>
        <time>2020-07-22T07:12:36Z</time>
      </trkpt>
      <trkpt lat="42.8681210" lon="2.1315450">
        <ele>798.6</ele>
        <time>2020-07-22T07:12:42Z</time>
      </trkpt>
      <trkpt lat="42.8680870" lon="2.1314720">
        <ele>798.6</ele>
        <time>2020-07-22T07:12:44Z</time>
      </trkpt>
      <trkpt lat="42.8680210" lon="2.1312980">
        <ele>799.8</ele>
        <time>2020-07-22T07:12:49Z</time>
      </trkpt>
      <trkpt lat="42.8680150" lon="2.1312560">
        <ele>800.0</ele>
        <time>2020-07-22T07:12:50Z</time>
      </trkpt>
      <trkpt lat="42.8679940" lon="2.1310240">
        <ele>800.8</ele>
        <time>2020-07-22T07:12:56Z</time>
      </trkpt>
      <trkpt lat="42.8679920" lon="2.1309510">
        <ele>801.4</ele>
        <time>2020-07-22T07:12:58Z</time>
      </trkpt>
      <trkpt lat="42.8679890" lon="2.1308710">
        <ele>802.0</ele>
        <time>2020-07-22T07:13:00Z</time>
      </trkpt>
      <trkpt lat="42.8679540" lon="2.1306710">
        <ele>803.0</ele>
        <time>2020-07-22T07:13:05Z</time>
      </trkpt>
      <trkpt lat="42.8679440" lon="2.1306310">
        <ele>803.2</ele>
        <time>2020-07-22T07:13:06Z</time>
      </trkpt>
      <trkpt lat="42.8678420" lon="2.1304200">
        <ele>803.8</ele>
        <time>2020-07-22T07:13:12Z</time>
      </trkpt>
      <trkpt lat="42.8678240" lon="2.1303880">
        <ele>804.0</ele>
        <time>2020-07-22T07:13:13Z</time>
      </trkpt>
      <trkpt lat="42.8678030" lon="2.1303570">
        <ele>804.2</ele>
        <time>2020-07-22T07:13:14Z</time>
      </trkpt>
      <trkpt lat="42.8676730" lon="2.1301640">
        <ele>805.4</ele>
        <time>2020-07-22T07:13:20Z</time>
      </trkpt>
      <trkpt lat="42.8676250" lon="2.1300970">
        <ele>805.8</ele>
        <time>2020-07-22T07:13:23Z</time>
      </trkpt>
      <trkpt lat="42.8675610" lon="2.1299950">
        <ele>806.4</ele>
        <time>2020-07-22T07:13:27Z</time>
      </trkpt>
      <trkpt lat="42.8675240" lon="2.1299330">
        <ele>807.0</ele>
        <time>2020-07-22T07:13:29Z</time>
      </trkpt>
      <trkpt lat="42.8674670" lon="2.1298310">
        <ele>807.6</ele>
        <time>2020-07-22T07:13:32Z</time>
      </trkpt>
      <trkpt lat="42.8673670" lon="2.1296730">
        <ele>808.0</ele>
        <time>2020-07-22T07:13:37Z</time>
      </trkpt>
      <trkpt lat="42.8672830" lon="2.1295440">
        <ele>808.6</ele>
        <time>2020-07-22T07:13:41Z</time>
      </trkpt>
      <trkpt lat="42.8672310" lon="2.1294470">
        <ele>809.2</ele>
        <time>2020-07-22T07:13:44Z</time>
      </trkpt>
      <trkpt lat="42.8671790" lon="2.1293410">
        <ele>809.8</ele>
        <time>2020-07-22T07:13:47Z</time>
      </trkpt>
      <trkpt lat="42.8671360" lon="2.1291920">
        <ele>810.2</ele>
        <time>2020-07-22T07:13:51Z</time>
      </trkpt>
      <trkpt lat="42.8671140" lon="2.1290890">
        <ele>810.8</ele>
        <time>2020-07-22T07:13:54Z</time>
      </trkpt>
      <trkpt lat="42.8670810" lon="2.1289060">
        <ele>811.6</ele>
        <time>2020-07-22T07:14:00Z</time>
      </trkpt>
      <trkpt lat="42.8670670" lon="2.1287890">
        <ele>812.0</ele>
        <time>2020-07-22T07:14:02Z</time>
      </trkpt>
      <trkpt lat="42.8670380" lon="2.1286300">
        <ele>813.0</ele>
        <time>2020-07-22T07:14:06Z</time>
      </trkpt>
      <trkpt lat="42.8670270" lon="2.1285870">
        <ele>813.2</ele>
        <time>2020-07-22T07:14:07Z</time>
      </trkpt>
      <trkpt lat="42.8669370" lon="2.1283580">
        <ele>813.8</ele>
        <time>2020-07-22T07:14:13Z</time>
      </trkpt>
      <trkpt lat="42.8668930" lon="2.1283040">
        <ele>814.2</ele>
        <time>2020-07-22T07:14:15Z</time>
      </trkpt>
      <trkpt lat="42.8667620" lon="2.1281830">
        <ele>815.4</ele>
        <time>2020-07-22T07:14:20Z</time>
      </trkpt>
      <trkpt lat="42.8667030" lon="2.1281430">
        <ele>816.0</ele>
        <time>2020-07-22T07:14:23Z</time>
      </trkpt>
      <trkpt lat="42.8666140" lon="2.1280980">
        <ele>816.4</ele>
        <time>2020-07-22T07:14:25Z</time>
      </trkpt>
      <trkpt lat="42.8664600" lon="2.1280480">
        <ele>817.0</ele>
        <time>2020-07-22T07:14:30Z</time>
      </trkpt>
      <trkpt lat="42.8663340" lon="2.1280150">
        <ele>817.4</ele>
        <time>2020-07-22T07:14:34Z</time>
      </trkpt>
      <trkpt lat="42.8661800" lon="2.1279870">
        <ele>818.6</ele>
        <time>2020-07-22T07:14:39Z</time>
      </trkpt>
      <trkpt lat="42.8660010" lon="2.1279040">
        <ele>819.4</ele>
        <time>2020-07-22T07:14:45Z</time>
      </trkpt>
      <trkpt lat="42.8659390" lon="2.1278870">
        <ele>819.8</ele>
        <time>2020-07-22T07:14:47Z</time>
      </trkpt>
      <trkpt lat="42.8659060" lon="2.1278770">
        <ele>820.0</ele>
        <time>2020-07-22T07:14:48Z</time>
      </trkpt>
      <trkpt lat="42.8657300" lon="2.1277980">
        <ele>820.4</ele>
        <time>2020-07-22T07:14:54Z</time>
      </trkpt>
      <trkpt lat="42.8657040" lon="2.1277870">
        <ele>820.6</ele>
        <time>2020-07-22T07:14:55Z</time>
      </trkpt>
      <trkpt lat="42.8656750" lon="2.1277770">
        <ele>820.8</ele>
        <time>2020-07-22T07:14:56Z</time>
      </trkpt>
      <trkpt lat="42.8654930" lon="2.1276910">
        <ele>822.0</ele>
        <time>2020-07-22T07:15:02Z</time>
      </trkpt>
      <trkpt lat="42.8654360" lon="2.1276650">
        <ele>822.2</ele>
        <time>2020-07-22T07:15:04Z</time>
      </trkpt>
      <trkpt lat="42.8652870" lon="2.1275930">
        <ele>823.0</ele>
        <time>2020-07-22T07:15:09Z</time>
      </trkpt>
      <trkpt lat="42.8651460" lon="2.1275700">
        <ele>824.0</ele>
        <time>2020-07-22T07:15:13Z</time>
      </trkpt>
      <trkpt lat="42.8651140" lon="2.1275600">
        <ele>824.2</ele>
        <time>2020-07-22T07:15:14Z</time>
      </trkpt>
      <trkpt lat="42.8649220" lon="2.1274940">
        <ele>825.0</ele>
        <time>2020-07-22T07:15:20Z</time>
      </trkpt>
      <trkpt lat="42.8648900" lon="2.1274880">
        <ele>825.2</ele>
        <time>2020-07-22T07:15:21Z</time>
      </trkpt>
      <trkpt lat="42.8648570" lon="2.1274850">
        <ele>825.4</ele>
        <time>2020-07-22T07:15:22Z</time>
      </trkpt>
      <trkpt lat="42.8646570" lon="2.1275280">
        <ele>826.4</ele>
        <time>2020-07-22T07:15:28Z</time>
      </trkpt>
      <trkpt lat="42.8644670" lon="2.1276100">
        <ele>827.2</ele>
        <time>2020-07-22T07:15:34Z</time>
      </trkpt>
      <trkpt lat="42.8644050" lon="2.1276230">
        <ele>827.6</ele>
        <time>2020-07-22T07:15:36Z</time>
      </trkpt>
      <trkpt lat="42.8642250" lon="2.1275930">
        <ele>828.4</ele>
        <time>2020-07-22T07:15:42Z</time>
      </trkpt>
      <trkpt lat="42.8641980" lon="2.1275770">
        <ele>828.6</ele>
        <time>2020-07-22T07:15:43Z</time>
      </trkpt>
      <trkpt lat="42.8640590" lon="2.1275090">
        <ele>829.8</ele>
        <time>2020-07-22T07:15:48Z</time>
      </trkpt>
      <trkpt lat="42.8640040" lon="2.1274790">
        <ele>830.0</ele>
        <time>2020-07-22T07:15:50Z</time>
      </trkpt>
      <trkpt lat="42.8638900" lon="2.1274080">
        <ele>830.6</ele>
        <time>2020-07-22T07:15:54Z</time>
      </trkpt>
      <trkpt lat="42.8638630" lon="2.1273920">
        <ele>830.6</ele>
        <time>2020-07-22T07:15:55Z</time>
      </trkpt>
      <trkpt lat="42.8638350" lon="2.1273770">
        <ele>830.8</ele>
        <time>2020-07-22T07:15:56Z</time>
      </trkpt>
      <trkpt lat="42.8637480" lon="2.1273300">
        <ele>831.0</ele>
        <time>2020-07-22T07:15:59Z</time>
      </trkpt>
      <trkpt lat="42.8637190" lon="2.1273130">
        <ele>831.0</ele>
        <time>2020-07-22T07:16:00Z</time>
      </trkpt>
      <trkpt lat="42.8635690" lon="2.1272200">
        <ele>832.0</ele>
        <time>2020-07-22T07:16:05Z</time>
      </trkpt>
      <trkpt lat="42.8635120" lon="2.1272020">
        <ele>832.4</ele>
        <time>2020-07-22T07:16:07Z</time>
      </trkpt>
      <trkpt lat="42.8633960" lon="2.1271800">
        <ele>833.0</ele>
        <time>2020-07-22T07:16:11Z</time>
      </trkpt>
      <trkpt lat="42.8633670" lon="2.1271770">
        <ele>833.2</ele>
        <time>2020-07-22T07:16:12Z</time>
      </trkpt>
      <trkpt lat="42.8631780" lon="2.1271850">
        <ele>834.2</ele>
        <time>2020-07-22T07:16:18Z</time>
      </trkpt>
      <trkpt lat="42.8631100" lon="2.1271950">
        <ele>834.6</ele>
        <time>2020-07-22T07:16:20Z</time>
      </trkpt>
      <trkpt lat="42.8630410" lon="2.1272090">
        <ele>834.8</ele>
        <time>2020-07-22T07:16:22Z</time>
      </trkpt>
      <trkpt lat="42.8629740" lon="2.1272260">
        <ele>835.2</ele>
        <time>2020-07-22T07:16:24Z</time>
      </trkpt>
      <trkpt lat="42.8628450" lon="2.1272500">
        <ele>836.0</ele>
        <time>2020-07-22T07:16:28Z</time>
      </trkpt>
      <trkpt lat="42.8627780" lon="2.1272570">
        <ele>836.2</ele>
        <time>2020-07-22T07:16:30Z</time>
      </trkpt>
      <trkpt lat="42.8627440" lon="2.1272580">
        <ele>836.4</ele>
        <time>2020-07-22T07:16:31Z</time>
      </trkpt>
      <trkpt lat="42.8626770" lon="2.1272600">
        <ele>836.6</ele>
        <time>2020-07-22T07:16:33Z</time>
      </trkpt>
      <trkpt lat="42.8626110" lon="2.1272500">
        <ele>836.8</ele>
        <time>2020-07-22T07:16:35Z</time>
      </trkpt>
      <trkpt lat="42.8625210" lon="2.1272170">
        <ele>837.4</ele>
        <time>2020-07-22T07:16:38Z</time>
      </trkpt>
      <trkpt lat="42.8624430" lon="2.1271480">
        <ele>838.0</ele>
        <time>2020-07-22T07:16:41Z</time>
      </trkpt>
      <trkpt lat="42.8623730" lon="2.1270570">
        <ele>838.8</ele>
        <time>2020-07-22T07:16:44Z</time>
      </trkpt>
      <trkpt lat="42.8623200" lon="2.1268970">
        <ele>839.6</ele>
        <time>2020-07-22T07:16:48Z</time>
      </trkpt>
      <trkpt lat="42.8623080" lon="2.1268580">
        <ele>839.8</ele>
        <time>2020-07-22T07:16:49Z</time>
      </trkpt>
      <trkpt lat="42.8622570" lon="2.1266930">
        <ele>840.0</ele>
        <time>2020-07-22T07:16:53Z</time>
      </trkpt>
      <trkpt lat="42.8622160" lon="2.1265700">
        <ele>840.4</ele>
        <time>2020-07-22T07:16:56Z</time>
      </trkpt>
      <trkpt lat="42.8621790" lon="2.1264440">
        <ele>841.0</ele>
        <time>2020-07-22T07:16:59Z</time>
      </trkpt>
      <trkpt lat="42.8620940" lon="2.1262050">
        <ele>842.0</ele>
        <time>2020-07-22T07:17:05Z</time>
      </trkpt>
      <trkpt lat="42.8620610" lon="2.1261220">
        <ele>842.4</ele>
        <time>2020-07-22T07:17:07Z</time>
      </trkpt>
      <trkpt lat="42.8620000" lon="2.1259620">
        <ele>843.0</ele>
        <time>2020-07-22T07:17:11Z</time>
      </trkpt>
      <trkpt lat="42.8619670" lon="2.1258830">
        <ele>843.4</ele>
        <time>2020-07-22T07:17:13Z</time>
      </trkpt>
      <trkpt lat="42.8618900" lon="2.1256390">
        <ele>844.2</ele>
        <time>2020-07-22T07:17:19Z</time>
      </trkpt>
      <trkpt lat="42.8618620" lon="2.1255620">
        <ele>844.8</ele>
        <time>2020-07-22T07:17:21Z</time>
      </trkpt>
      <trkpt lat="42.8618300" lon="2.1254940">
        <ele>845.4</ele>
        <time>2020-07-22T07:17:23Z</time>
      </trkpt>
      <trkpt lat="42.8617530" lon="2.1252650">
        <ele>846.2</ele>
        <time>2020-07-22T07:17:29Z</time>
      </trkpt>
      <trkpt lat="42.8617260" lon="2.1251820">
        <ele>846.4</ele>
        <time>2020-07-22T07:17:31Z</time>
      </trkpt>
      <trkpt lat="42.8616530" lon="2.1249330">
        <ele>847.6</ele>
        <time>2020-07-22T07:17:37Z</time>
      </trkpt>
      <trkpt lat="42.8616400" lon="2.1248510">
        <ele>847.8</ele>
        <time>2020-07-22T07:17:39Z</time>
      </trkpt>
      <trkpt lat="42.8616250" lon="2.1247280">
        <ele>848.4</ele>
        <time>2020-07-22T07:17:42Z</time>
      </trkpt>
      <trkpt lat="42.8616130" lon="2.1246000">
        <ele>848.8</ele>
        <time>2020-07-22T07:17:45Z</time>
      </trkpt>
      <trkpt lat="42.8616130" lon="2.1245150">
        <ele>849.0</ele>
        <time>2020-07-22T07:17:47Z</time>
      </trkpt>
      <trkpt lat="42.8616140" lon="2.1243320">
        <ele>849.8</ele>
        <time>2020-07-22T07:17:51Z</time>
      </trkpt>
      <trkpt lat="42.8616100" lon="2.1241940">
        <ele>850.4</ele>
        <time>2020-07-22T07:17:54Z</time>
      </trkpt>
      <trkpt lat="42.8616080" lon="2.1241490">
        <ele>850.4</ele>
        <time>2020-07-22T07:17:55Z</time>
      </trkpt>
      <trkpt lat="42.8616030" lon="2.1240590">
        <ele>850.8</ele>
        <time>2020-07-22T07:17:57Z</time>
      </trkpt>
      <trkpt lat="42.8616020" lon="2.1240130">
        <ele>851.0</ele>
        <time>2020-07-22T07:17:58Z</time>
      </trkpt>
      <trkpt lat="42.8616030" lon="2.1238330">
        <ele>852.2</ele>
        <time>2020-07-22T07:18:02Z</time>
      </trkpt>
      <trkpt lat="42.8616050" lon="2.1236970">
        <ele>852.6</ele>
        <time>2020-07-22T07:18:05Z</time>
      </trkpt>
      <trkpt lat="42.8616110" lon="2.1235480">
        <ele>853.0</ele>
        <time>2020-07-22T07:18:08Z</time>
      </trkpt>
      <trkpt lat="42.8616030" lon="2.1233970">
        <ele>853.2</ele>
        <time>2020-07-22T07:18:11Z</time>
      </trkpt>
      <trkpt lat="42.8616120" lon="2.1231450">
        <ele>854.4</ele>
        <time>2020-07-22T07:18:16Z</time>
      </trkpt>
      <trkpt lat="42.8615940" lon="2.1228680">
        <ele>855.2</ele>
        <time>2020-07-22T07:18:22Z</time>
      </trkpt>
      <trkpt lat="42.8616000" lon="2.1228210">
        <ele>855.4</ele>
        <time>2020-07-22T07:18:23Z</time>
      </trkpt>
      <trkpt lat="42.8616030" lon="2.1227720">
        <ele>855.8</ele>
        <time>2020-07-22T07:18:24Z</time>
      </trkpt>
      <trkpt lat="42.8616090" lon="2.1226260">
        <ele>856.6</ele>
        <time>2020-07-22T07:18:27Z</time>
      </trkpt>
      <trkpt lat="42.8616140" lon="2.1223360">
        <ele>857.4</ele>
        <time>2020-07-22T07:18:33Z</time>
      </trkpt>
      <trkpt lat="42.8616230" lon="2.1222440">
        <ele>857.8</ele>
        <time>2020-07-22T07:18:35Z</time>
      </trkpt>
      <trkpt lat="42.8616350" lon="2.1219570">
        <ele>858.8</ele>
        <time>2020-07-22T07:18:41Z</time>
      </trkpt>
      <trkpt lat="42.8616430" lon="2.1218510">
        <ele>859.0</ele>
        <time>2020-07-22T07:18:43Z</time>
      </trkpt>
      <trkpt lat="42.8616490" lon="2.1217960">
        <ele>859.0</ele>
        <time>2020-07-22T07:18:44Z</time>
      </trkpt>
      <trkpt lat="42.8616900" lon="2.1215340">
        <ele>859.2</ele>
        <time>2020-07-22T07:18:48Z</time>
      </trkpt>
      <trkpt lat="42.8617090" lon="2.1214620">
        <ele>859.0</ele>
        <time>2020-07-22T07:18:49Z</time>
      </trkpt>
      <trkpt lat="42.8617340" lon="2.1213920">
        <ele>858.8</ele>
        <time>2020-07-22T07:18:50Z</time>
      </trkpt>
      <trkpt lat="42.8618690" lon="2.1211230">
        <ele>858.6</ele>
        <time>2020-07-22T07:18:54Z</time>
      </trkpt>
      <trkpt lat="42.8621010" lon="2.1207060">
        <ele>858.4</ele>
        <time>2020-07-22T07:19:00Z</time>
      </trkpt>
      <trkpt lat="42.8623620" lon="2.1202680">
        <ele>857.6</ele>
        <time>2020-07-22T07:19:06Z</time>
      </trkpt>
      <trkpt lat="42.8624510" lon="2.1201080">
        <ele>857.2</ele>
        <time>2020-07-22T07:19:08Z</time>
      </trkpt>
      <trkpt lat="42.8624980" lon="2.1200250">
        <ele>856.8</ele>
        <time>2020-07-22T07:19:09Z</time>
      </trkpt>
      <trkpt lat="42.8625920" lon="2.1198600">
        <ele>856.8</ele>
        <time>2020-07-22T07:19:11Z</time>
      </trkpt>
      <trkpt lat="42.8626850" lon="2.1196910">
        <ele>856.6</ele>
        <time>2020-07-22T07:19:13Z</time>
      </trkpt>
      <trkpt lat="42.8629200" lon="2.1192700">
        <ele>856.2</ele>
        <time>2020-07-22T07:19:18Z</time>
      </trkpt>
      <trkpt lat="42.8630620" lon="2.1190150">
        <ele>855.4</ele>
        <time>2020-07-22T07:19:21Z</time>
      </trkpt>
      <trkpt lat="42.8632990" lon="2.1185840">
        <ele>854.2</ele>
        <time>2020-07-22T07:19:26Z</time>
      </trkpt>
      <trkpt lat="42.8633940" lon="2.1184110">
        <ele>853.2</ele>
        <time>2020-07-22T07:19:28Z</time>
      </trkpt>
      <trkpt lat="42.8634430" lon="2.1183260">
        <ele>853.0</ele>
        <time>2020-07-22T07:19:29Z</time>
      </trkpt>
      <trkpt lat="42.8637510" lon="2.1178170">
        <ele>851.8</ele>
        <time>2020-07-22T07:19:35Z</time>
      </trkpt>
      <trkpt lat="42.8640340" lon="2.1172620">
        <ele>850.4</ele>
        <time>2020-07-22T07:19:41Z</time>
      </trkpt>
      <trkpt lat="42.8641390" lon="2.1169620">
        <ele>849.6</ele>
        <time>2020-07-22T07:19:44Z</time>
      </trkpt>
      <trkpt lat="42.8641590" lon="2.1168550">
        <ele>849.4</ele>
        <time>2020-07-22T07:19:45Z</time>
      </trkpt>
      <trkpt lat="42.8641740" lon="2.1167450">
        <ele>849.0</ele>
        <time>2020-07-22T07:19:46Z</time>
      </trkpt>
      <trkpt lat="42.8641750" lon="2.1165170">
        <ele>848.4</ele>
        <time>2020-07-22T07:19:48Z</time>
      </trkpt>
      <trkpt lat="42.8641670" lon="2.1163990">
        <ele>848.2</ele>
        <time>2020-07-22T07:19:49Z</time>
      </trkpt>
      <trkpt lat="42.8641460" lon="2.1161750">
        <ele>848.0</ele>
        <time>2020-07-22T07:19:51Z</time>
      </trkpt>
      <trkpt lat="42.8640830" lon="2.1156020">
        <ele>847.0</ele>
        <time>2020-07-22T07:19:56Z</time>
      </trkpt>
      <trkpt lat="42.8640550" lon="2.1153800">
        <ele>846.0</ele>
        <time>2020-07-22T07:19:59Z</time>
      </trkpt>
      <trkpt lat="42.8640440" lon="2.1153640">
        <ele>845.8</ele>
        <time>2020-07-22T07:20:00Z</time>
      </trkpt>
      <trkpt lat="42.8640370" lon="2.1153910">
        <ele>845.6</ele>
        <time>2020-07-22T07:20:02Z</time>
      </trkpt>
      <trkpt lat="42.8640440" lon="2.1155870">
        <ele>846.2</ele>
        <time>2020-07-22T07:20:08Z</time>
      </trkpt>
      <trkpt lat="42.8640780" lon="2.1157380">
        <ele>846.4</ele>
        <time>2020-07-22T07:20:12Z</time>
      </trkpt>
      <trkpt lat="42.8640960" lon="2.1156850">
        <ele>846.4</ele>
        <time>2020-07-22T07:20:14Z</time>
      </trkpt>
      <trkpt lat="42.8641030" lon="2.1156270">
        <ele>845.8</ele>
        <time>2020-07-22T07:20:52Z</time>
      </trkpt>
      <trkpt lat="42.8641110" lon="2.1155680">
        <ele>845.8</ele>
        <time>2020-07-22T07:20:53Z</time>
      </trkpt>
      <trkpt lat="42.8641010" lon="2.1154610">
        <ele>845.8</ele>
        <time>2020-07-22T07:20:54Z</time>
      </trkpt>
      <trkpt lat="42.8640870" lon="2.1153310">
        <ele>845.8</ele>
        <time>2020-07-22T07:20:56Z</time>
      </trkpt>
      <trkpt lat="42.8640780" lon="2.1152590">
        <ele>845.6</ele>
        <time>2020-07-22T07:20:57Z</time>
      </trkpt>
      <trkpt lat="42.8640400" lon="2.1150230">
        <ele>844.8</ele>
        <time>2020-07-22T07:21:00Z</time>
      </trkpt>
      <trkpt lat="42.8640130" lon="2.1149440">
        <ele>844.6</ele>
        <time>2020-07-22T07:21:01Z</time>
      </trkpt>
      <trkpt lat="42.8639810" lon="2.1148640">
        <ele>844.2</ele>
        <time>2020-07-22T07:21:02Z</time>
      </trkpt>
      <trkpt lat="42.8639420" lon="2.1147830">
        <ele>843.8</ele>
        <time>2020-07-22T07:21:03Z</time>
      </trkpt>
      <trkpt lat="42.8638980" lon="2.1147050">
        <ele>843.4</ele>
        <time>2020-07-22T07:21:04Z</time>
      </trkpt>
      <trkpt lat="42.8637970" lon="2.1145610">
        <ele>842.8</ele>
        <time>2020-07-22T07:21:06Z</time>
      </trkpt>
      <trkpt lat="42.8637440" lon="2.1144870">
        <ele>842.6</ele>
        <time>2020-07-22T07:21:07Z</time>
      </trkpt>
      <trkpt lat="42.8636890" lon="2.1144140">
        <ele>842.4</ele>
        <time>2020-07-22T07:21:08Z</time>
      </trkpt>
      <trkpt lat="42.8634630" lon="2.1140950">
        <ele>841.2</ele>
        <time>2020-07-22T07:21:12Z</time>
      </trkpt>
      <trkpt lat="42.8634140" lon="2.1140070">
        <ele>840.6</ele>
        <time>2020-07-22T07:21:13Z</time>
      </trkpt>
      <trkpt lat="42.8633550" lon="2.1139230">
        <ele>840.0</ele>
        <time>2020-07-22T07:21:15Z</time>
      </trkpt>
      <trkpt lat="42.8631370" lon="2.1135310">
        <ele>838.8</ele>
        <time>2020-07-22T07:21:18Z</time>
      </trkpt>
      <trkpt lat="42.8630820" lon="2.1134330">
        <ele>838.2</ele>
        <time>2020-07-22T07:21:19Z</time>
      </trkpt>
      <trkpt lat="42.8630270" lon="2.1133380">
        <ele>837.6</ele>
        <time>2020-07-22T07:21:20Z</time>
      </trkpt>
      <trkpt lat="42.8629210" lon="2.1131210">
        <ele>836.2</ele>
        <time>2020-07-22T07:21:22Z</time>
      </trkpt>
      <trkpt lat="42.8628250" lon="2.1128920">
        <ele>835.6</ele>
        <time>2020-07-22T07:21:24Z</time>
      </trkpt>
      <trkpt lat="42.8627820" lon="2.1127730">
        <ele>835.6</ele>
        <time>2020-07-22T07:21:25Z</time>
      </trkpt>
      <trkpt lat="42.8627400" lon="2.1126530">
        <ele>835.6</ele>
        <time>2020-07-22T07:21:26Z</time>
      </trkpt>
      <trkpt lat="42.8626970" lon="2.1125320">
        <ele>835.4</ele>
        <time>2020-07-22T07:21:27Z</time>
      </trkpt>
      <trkpt lat="42.8626090" lon="2.1122920">
        <ele>835.4</ele>
        <time>2020-07-22T07:21:29Z</time>
      </trkpt>
      <trkpt lat="42.8625210" lon="2.1120490">
        <ele>834.8</ele>
        <time>2020-07-22T07:21:31Z</time>
      </trkpt>
      <trkpt lat="42.8623850" lon="2.1116820">
        <ele>833.6</ele>
        <time>2020-07-22T07:21:34Z</time>
      </trkpt>
      <trkpt lat="42.8622730" lon="2.1114440">
        <ele>832.8</ele>
        <time>2020-07-22T07:21:36Z</time>
      </trkpt>
      <trkpt lat="42.8622080" lon="2.1113760">
        <ele>832.4</ele>
        <time>2020-07-22T07:21:37Z</time>
      </trkpt>
      <trkpt lat="42.8621430" lon="2.1113090">
        <ele>832.2</ele>
        <time>2020-07-22T07:21:38Z</time>
      </trkpt>
      <trkpt lat="42.8620120" lon="2.1111750">
        <ele>831.8</ele>
        <time>2020-07-22T07:21:39Z</time>
      </trkpt>
      <trkpt lat="42.8619160" lon="2.1111240">
        <ele>831.4</ele>
        <time>2020-07-22T07:21:40Z</time>
      </trkpt>
      <trkpt lat="42.8616480" lon="2.1109860">
        <ele>830.6</ele>
        <time>2020-07-22T07:21:43Z</time>
      </trkpt>
      <trkpt lat="42.8615040" lon="2.1108650">
        <ele>830.6</ele>
        <time>2020-07-22T07:21:45Z</time>
      </trkpt>
      <trkpt lat="42.8614080" lon="2.1106960">
        <ele>831.0</ele>
        <time>2020-07-22T07:21:47Z</time>
      </trkpt>
      <trkpt lat="42.8613190" lon="2.1104150">
        <ele>831.4</ele>
        <time>2020-07-22T07:21:50Z</time>
      </trkpt>
      <trkpt lat="42.8612700" lon="2.1102360">
        <ele>831.6</ele>
        <time>2020-07-22T07:21:52Z</time>
      </trkpt>
      <trkpt lat="42.8611750" lon="2.1100030">
        <ele>831.8</ele>
        <time>2020-07-22T07:21:55Z</time>
      </trkpt>
      <trkpt lat="42.8610850" lon="2.1098770">
        <ele>831.8</ele>
        <time>2020-07-22T07:21:57Z</time>
      </trkpt>
      <trkpt lat="42.8609300" lon="2.1096980">
        <ele>831.8</ele>
        <time>2020-07-22T07:22:01Z</time>
      </trkpt>
      <trkpt lat="42.8608320" lon="2.1095630">
        <ele>831.8</ele>
        <time>2020-07-22T07:22:03Z</time>
      </trkpt>
      <trkpt lat="42.8607830" lon="2.1094560">
        <ele>832.0</ele>
        <time>2020-07-22T07:22:04Z</time>
      </trkpt>
      <trkpt lat="42.8606840" lon="2.1092420">
        <ele>832.0</ele>
        <time>2020-07-22T07:22:06Z</time>
      </trkpt>
      <trkpt lat="42.8605600" lon="2.1089090">
        <ele>832.0</ele>
        <time>2020-07-22T07:22:10Z</time>
      </trkpt>
      <trkpt lat="42.8605300" lon="2.1088260">
        <ele>832.0</ele>
        <time>2020-07-22T07:22:11Z</time>
      </trkpt>
      <trkpt lat="42.8604660" lon="2.1086640">
        <ele>832.4</ele>
        <time>2020-07-22T07:22:13Z</time>
      </trkpt>
      <trkpt lat="42.8603460" lon="2.1084370">
        <ele>832.2</ele>
        <time>2020-07-22T07:22:16Z</time>
      </trkpt>
      <trkpt lat="42.8602980" lon="2.1083730">
        <ele>832.2</ele>
        <time>2020-07-22T07:22:17Z</time>
      </trkpt>
      <trkpt lat="42.8602450" lon="2.1083140">
        <ele>832.4</ele>
        <time>2020-07-22T07:22:18Z</time>
      </trkpt>
      <trkpt lat="42.8601310" lon="2.1082080">
        <ele>832.4</ele>
        <time>2020-07-22T07:22:20Z</time>
      </trkpt>
      <trkpt lat="42.8600750" lon="2.1081550">
        <ele>832.4</ele>
        <time>2020-07-22T07:22:21Z</time>
      </trkpt>
      <trkpt lat="42.8597440" lon="2.1078300">
        <ele>833.4</ele>
        <time>2020-07-22T07:22:27Z</time>
      </trkpt>
      <trkpt lat="42.8596940" lon="2.1077690">
        <ele>833.6</ele>
        <time>2020-07-22T07:22:28Z</time>
      </trkpt>
      <trkpt lat="42.8596490" lon="2.1077000">
        <ele>833.6</ele>
        <time>2020-07-22T07:22:29Z</time>
      </trkpt>
      <trkpt lat="42.8595490" lon="2.1074540">
        <ele>833.6</ele>
        <time>2020-07-22T07:22:32Z</time>
      </trkpt>
      <trkpt lat="42.8595460" lon="2.1073910">
        <ele>833.4</ele>
        <time>2020-07-22T07:22:33Z</time>
      </trkpt>
      <trkpt lat="42.8595420" lon="2.1073290">
        <ele>833.2</ele>
        <time>2020-07-22T07:22:34Z</time>
      </trkpt>
      <trkpt lat="42.8595290" lon="2.1070780">
        <ele>833.4</ele>
        <time>2020-07-22T07:22:36Z</time>
      </trkpt>
      <trkpt lat="42.8595540" lon="2.1067170">
        <ele>833.6</ele>
        <time>2020-07-22T07:22:40Z</time>
      </trkpt>
      <trkpt lat="42.8595260" lon="2.1065450">
        <ele>833.8</ele>
        <time>2020-07-22T07:22:42Z</time>
      </trkpt>
      <trkpt lat="42.8594590" lon="2.1063930">
        <ele>833.8</ele>
        <time>2020-07-22T07:22:44Z</time>
      </trkpt>
      <trkpt lat="42.8593660" lon="2.1062650">
        <ele>834.0</ele>
        <time>2020-07-22T07:22:46Z</time>
      </trkpt>
      <trkpt lat="42.8591610" lon="2.1060370">
        <ele>834.6</ele>
        <time>2020-07-22T07:22:50Z</time>
      </trkpt>
      <trkpt lat="42.8590750" lon="2.1059010">
        <ele>834.6</ele>
        <time>2020-07-22T07:22:52Z</time>
      </trkpt>
      <trkpt lat="42.8589750" lon="2.1056630">
        <ele>834.4</ele>
        <time>2020-07-22T07:22:55Z</time>
      </trkpt>
      <trkpt lat="42.8589530" lon="2.1055760">
        <ele>834.4</ele>
        <time>2020-07-22T07:22:56Z</time>
      </trkpt>
      <trkpt lat="42.8589000" lon="2.1052210">
        <ele>834.6</ele>
        <time>2020-07-22T07:23:00Z</time>
      </trkpt>
      <trkpt lat="42.8588800" lon="2.1050400">
        <ele>834.8</ele>
        <time>2020-07-22T07:23:02Z</time>
      </trkpt>
      <trkpt lat="42.8588500" lon="2.1048610">
        <ele>834.8</ele>
        <time>2020-07-22T07:23:04Z</time>
      </trkpt>
      <trkpt lat="42.8587460" lon="2.1045380">
        <ele>835.4</ele>
        <time>2020-07-22T07:23:08Z</time>
      </trkpt>
      <trkpt lat="42.8587060" lon="2.1044690">
        <ele>835.8</ele>
        <time>2020-07-22T07:23:09Z</time>
      </trkpt>
      <trkpt lat="42.8586630" lon="2.1044020">
        <ele>835.8</ele>
        <time>2020-07-22T07:23:10Z</time>
      </trkpt>
      <trkpt lat="42.8585690" lon="2.1042730">
        <ele>836.0</ele>
        <time>2020-07-22T07:23:12Z</time>
      </trkpt>
      <trkpt lat="42.8585130" lon="2.1042180">
        <ele>836.0</ele>
        <time>2020-07-22T07:23:13Z</time>
      </trkpt>
      <trkpt lat="42.8581630" lon="2.1039440">
        <ele>836.0</ele>
        <time>2020-07-22T07:23:19Z</time>
      </trkpt>
      <trkpt lat="42.8581000" lon="2.1039120">
        <ele>836.2</ele>
        <time>2020-07-22T07:23:20Z</time>
      </trkpt>
      <trkpt lat="42.8579070" lon="2.1038350">
        <ele>836.4</ele>
        <time>2020-07-22T07:23:23Z</time>
      </trkpt>
      <trkpt lat="42.8577700" lon="2.1038080">
        <ele>836.4</ele>
        <time>2020-07-22T07:23:25Z</time>
      </trkpt>
      <trkpt lat="42.8573660" lon="2.1037240">
        <ele>836.8</ele>
        <time>2020-07-22T07:23:31Z</time>
      </trkpt>
      <trkpt lat="42.8573030" lon="2.1037000">
        <ele>836.8</ele>
        <time>2020-07-22T07:23:32Z</time>
      </trkpt>
      <trkpt lat="42.8571240" lon="2.1036000">
        <ele>837.2</ele>
        <time>2020-07-22T07:23:35Z</time>
      </trkpt>
      <trkpt lat="42.8571240" lon="2.1036000">
        <ele>837.2</ele>
        <time>2020-07-22T07:23:36Z</time>
      </trkpt>
      <trkpt lat="42.8570190" lon="2.1035030">
        <ele>837.2</ele>
        <time>2020-07-22T07:23:37Z</time>
      </trkpt>
      <trkpt lat="42.8569310" lon="2.1033690">
        <ele>837.6</ele>
        <time>2020-07-22T07:23:39Z</time>
      </trkpt>
      <trkpt lat="42.8568770" lon="2.1032060">
        <ele>837.6</ele>
        <time>2020-07-22T07:23:41Z</time>
      </trkpt>
      <trkpt lat="42.8568480" lon="2.1030320">
        <ele>838.0</ele>
        <time>2020-07-22T07:23:43Z</time>
      </trkpt>
      <trkpt lat="42.8568280" lon="2.1029480">
        <ele>838.0</ele>
        <time>2020-07-22T07:23:44Z</time>
      </trkpt>
      <trkpt lat="42.8567570" lon="2.1027930">
        <ele>838.2</ele>
        <time>2020-07-22T07:23:46Z</time>
      </trkpt>
      <trkpt lat="42.8567120" lon="2.1027270">
        <ele>838.2</ele>
        <time>2020-07-22T07:23:47Z</time>
      </trkpt>
      <trkpt lat="42.8566630" lon="2.1026630">
        <ele>838.4</ele>
        <time>2020-07-22T07:23:48Z</time>
      </trkpt>
      <trkpt lat="42.8565240" lon="2.1024630">
        <ele>838.6</ele>
        <time>2020-07-22T07:23:51Z</time>
      </trkpt>
      <trkpt lat="42.8564510" lon="2.1023050">
        <ele>838.6</ele>
        <time>2020-07-22T07:23:53Z</time>
      </trkpt>
      <trkpt lat="42.8562670" lon="2.1018210">
        <ele>838.6</ele>
        <time>2020-07-22T07:23:59Z</time>
      </trkpt>
      <trkpt lat="42.8562280" lon="2.1017510">
        <ele>839.0</ele>
        <time>2020-07-22T07:24:00Z</time>
      </trkpt>
      <trkpt lat="42.8561400" lon="2.1016290">
        <ele>839.0</ele>
        <time>2020-07-22T07:24:02Z</time>
      </trkpt>
      <trkpt lat="42.8560370" lon="2.1015290">
        <ele>839.2</ele>
        <time>2020-07-22T07:24:04Z</time>
      </trkpt>
      <trkpt lat="42.8557310" lon="2.1013530">
        <ele>839.2</ele>
        <time>2020-07-22T07:24:09Z</time>
      </trkpt>
      <trkpt lat="42.8553550" lon="2.1012870">
        <ele>838.6</ele>
        <time>2020-07-22T07:24:14Z</time>
      </trkpt>
      <trkpt lat="42.8552720" lon="2.1012920">
        <ele>838.0</ele>
        <time>2020-07-22T07:24:15Z</time>
      </trkpt>
      <trkpt lat="42.8550210" lon="2.1013440">
        <ele>836.8</ele>
        <time>2020-07-22T07:24:18Z</time>
      </trkpt>
      <trkpt lat="42.8549380" lon="2.1013810">
        <ele>836.4</ele>
        <time>2020-07-22T07:24:19Z</time>
      </trkpt>
      <trkpt lat="42.8545540" lon="2.1016360">
        <ele>836.0</ele>
        <time>2020-07-22T07:24:24Z</time>
      </trkpt>
      <trkpt lat="42.8542620" lon="2.1020090">
        <ele>836.6</ele>
        <time>2020-07-22T07:24:29Z</time>
      </trkpt>
      <trkpt lat="42.8541100" lon="2.1023150">
        <ele>838.0</ele>
        <time>2020-07-22T07:24:33Z</time>
      </trkpt>
      <trkpt lat="42.8540810" lon="2.1023880">
        <ele>838.4</ele>
        <time>2020-07-22T07:24:34Z</time>
      </trkpt>
      <trkpt lat="42.8540040" lon="2.1025890">
        <ele>839.2</ele>
        <time>2020-07-22T07:24:37Z</time>
      </trkpt>
      <trkpt lat="42.8539600" lon="2.1027120">
        <ele>840.2</ele>
        <time>2020-07-22T07:24:39Z</time>
      </trkpt>
      <trkpt lat="42.8539390" lon="2.1027690">
        <ele>840.4</ele>
        <time>2020-07-22T07:24:40Z</time>
      </trkpt>
      <trkpt lat="42.8539170" lon="2.1028240">
        <ele>840.8</ele>
        <time>2020-07-22T07:24:41Z</time>
      </trkpt>
      <trkpt lat="42.8538690" lon="2.1029280">
        <ele>841.6</ele>
        <time>2020-07-22T07:24:43Z</time>
      </trkpt>
      <trkpt lat="42.8537580" lon="2.1031290">
        <ele>842.6</ele>
        <time>2020-07-22T07:24:47Z</time>
      </trkpt>
      <trkpt lat="42.8536870" lon="2.1032220">
        <ele>843.2</ele>
        <time>2020-07-22T07:24:49Z</time>
      </trkpt>
      <trkpt lat="42.8534200" lon="2.1034370">
        <ele>843.4</ele>
        <time>2020-07-22T07:24:55Z</time>
      </trkpt>
      <trkpt lat="42.8531440" lon="2.1034920">
        <ele>843.4</ele>
        <time>2020-07-22T07:25:00Z</time>
      </trkpt>
      <trkpt lat="42.8529730" lon="2.1034550">
        <ele>843.6</ele>
        <time>2020-07-22T07:25:03Z</time>
      </trkpt>
      <trkpt lat="42.8528580" lon="2.1034070">
        <ele>843.8</ele>
        <time>2020-07-22T07:25:05Z</time>
      </trkpt>
      <trkpt lat="42.8524980" lon="2.1032500">
        <ele>843.6</ele>
        <time>2020-07-22T07:25:11Z</time>
      </trkpt>
      <trkpt lat="42.8524360" lon="2.1032440">
        <ele>843.6</ele>
        <time>2020-07-22T07:25:12Z</time>
      </trkpt>
      <trkpt lat="42.8523750" lon="2.1032460">
        <ele>843.8</ele>
        <time>2020-07-22T07:25:13Z</time>
      </trkpt>
      <trkpt lat="42.8521310" lon="2.1033040">
        <ele>843.8</ele>
        <time>2020-07-22T07:25:17Z</time>
      </trkpt>
      <trkpt lat="42.8518360" lon="2.1034180">
        <ele>844.8</ele>
        <time>2020-07-22T07:25:22Z</time>
      </trkpt>
      <trkpt lat="42.8517120" lon="2.1034820">
        <ele>845.0</ele>
        <time>2020-07-22T07:25:24Z</time>
      </trkpt>
      <trkpt lat="42.8513400" lon="2.1036830">
        <ele>844.8</ele>
        <time>2020-07-22T07:25:30Z</time>
      </trkpt>
      <trkpt lat="42.8510930" lon="2.1037910">
        <ele>845.0</ele>
        <time>2020-07-22T07:25:34Z</time>
      </trkpt>
      <trkpt lat="42.8507870" lon="2.1038410">
        <ele>845.6</ele>
        <time>2020-07-22T07:25:39Z</time>
      </trkpt>
      <trkpt lat="42.8507240" lon="2.1038340">
        <ele>845.8</ele>
        <time>2020-07-22T07:25:40Z</time>
      </trkpt>
      <trkpt lat="42.8506610" lon="2.1038230">
        <ele>846.0</ele>
        <time>2020-07-22T07:25:41Z</time>
      </trkpt>
      <trkpt lat="42.8503550" lon="2.1037270">
        <ele>845.8</ele>
        <time>2020-07-22T07:25:46Z</time>
      </trkpt>
      <trkpt lat="42.8502960" lon="2.1037000">
        <ele>846.0</ele>
        <time>2020-07-22T07:25:47Z</time>
      </trkpt>
      <trkpt lat="42.8501210" lon="2.1036140">
        <ele>846.4</ele>
        <time>2020-07-22T07:25:50Z</time>
      </trkpt>
      <trkpt lat="42.8499580" lon="2.1035160">
        <ele>846.6</ele>
        <time>2020-07-22T07:25:53Z</time>
      </trkpt>
      <trkpt lat="42.8496970" lon="2.1033430">
        <ele>847.0</ele>
        <time>2020-07-22T07:25:58Z</time>
      </trkpt>
      <trkpt lat="42.8496440" lon="2.1033110">
        <ele>847.2</ele>
        <time>2020-07-22T07:25:59Z</time>
      </trkpt>
      <trkpt lat="42.8494890" lon="2.1032120">
        <ele>848.0</ele>
        <time>2020-07-22T07:26:02Z</time>
      </trkpt>
      <trkpt lat="42.8494380" lon="2.1031810">
        <ele>848.2</ele>
        <time>2020-07-22T07:26:03Z</time>
      </trkpt>
      <trkpt lat="42.8491860" lon="2.1030320">
        <ele>848.8</ele>
        <time>2020-07-22T07:26:08Z</time>
      </trkpt>
      <trkpt lat="42.8491360" lon="2.1030020">
        <ele>848.8</ele>
        <time>2020-07-22T07:26:09Z</time>
      </trkpt>
      <trkpt lat="42.8488920" lon="2.1028650">
        <ele>849.2</ele>
        <time>2020-07-22T07:26:14Z</time>
      </trkpt>
      <trkpt lat="42.8486430" lon="2.1027400">
        <ele>850.0</ele>
        <time>2020-07-22T07:26:19Z</time>
      </trkpt>
      <trkpt lat="42.8485950" lon="2.1027130">
        <ele>850.2</ele>
        <time>2020-07-22T07:26:20Z</time>
      </trkpt>
      <trkpt lat="42.8484130" lon="2.1025860">
        <ele>851.0</ele>
        <time>2020-07-22T07:26:24Z</time>
      </trkpt>
      <trkpt lat="42.8482870" lon="2.1024720">
        <ele>851.2</ele>
        <time>2020-07-22T07:26:27Z</time>
      </trkpt>
      <trkpt lat="42.8482500" lon="2.1024270">
        <ele>851.4</ele>
        <time>2020-07-22T07:26:28Z</time>
      </trkpt>
      <trkpt lat="42.8481390" lon="2.1022900">
        <ele>851.8</ele>
        <time>2020-07-22T07:26:31Z</time>
      </trkpt>
      <trkpt lat="42.8480030" lon="2.1021060">
        <ele>852.2</ele>
        <time>2020-07-22T07:26:35Z</time>
      </trkpt>
      <trkpt lat="42.8479730" lon="2.1020590">
        <ele>852.4</ele>
        <time>2020-07-22T07:26:36Z</time>
      </trkpt>
      <trkpt lat="42.8478810" lon="2.1019160">
        <ele>853.6</ele>
        <time>2020-07-22T07:26:39Z</time>
      </trkpt>
      <trkpt lat="42.8477650" lon="2.1017370">
        <ele>853.8</ele>
        <time>2020-07-22T07:26:43Z</time>
      </trkpt>
      <trkpt lat="42.8476580" lon="2.1016260">
        <ele>854.2</ele>
        <time>2020-07-22T07:26:46Z</time>
      </trkpt>
      <trkpt lat="42.8475810" lon="2.1015570">
        <ele>854.6</ele>
        <time>2020-07-22T07:26:48Z</time>
      </trkpt>
      <trkpt lat="42.8475470" lon="2.1015190">
        <ele>854.8</ele>
        <time>2020-07-22T07:26:49Z</time>
      </trkpt>
      <trkpt lat="42.8474760" lon="2.1014620">
        <ele>855.0</ele>
        <time>2020-07-22T07:26:51Z</time>
      </trkpt>
      <trkpt lat="42.8474380" lon="2.1014410">
        <ele>855.2</ele>
        <time>2020-07-22T07:26:52Z</time>
      </trkpt>
      <trkpt lat="42.8473280" lon="2.1013780">
        <ele>855.8</ele>
        <time>2020-07-22T07:26:55Z</time>
      </trkpt>
      <trkpt lat="42.8471000" lon="2.1012790">
        <ele>856.4</ele>
        <time>2020-07-22T07:27:01Z</time>
      </trkpt>
      <trkpt lat="42.8470170" lon="2.1012650">
        <ele>856.6</ele>
        <time>2020-07-22T07:27:03Z</time>
      </trkpt>
      <trkpt lat="42.8468870" lon="2.1012320">
        <ele>856.8</ele>
        <time>2020-07-22T07:27:06Z</time>
      </trkpt>
      <trkpt lat="42.8467910" lon="2.1012080">
        <ele>857.0</ele>
        <time>2020-07-22T07:27:08Z</time>
      </trkpt>
      <trkpt lat="42.8466940" lon="2.1011860">
        <ele>857.2</ele>
        <time>2020-07-22T07:27:10Z</time>
      </trkpt>
      <trkpt lat="42.8464500" lon="2.1011140">
        <ele>857.8</ele>
        <time>2020-07-22T07:27:15Z</time>
      </trkpt>
      <trkpt lat="42.8463540" lon="2.1010710">
        <ele>858.0</ele>
        <time>2020-07-22T07:27:17Z</time>
      </trkpt>
      <trkpt lat="42.8461110" lon="2.1009500">
        <ele>858.8</ele>
        <time>2020-07-22T07:27:22Z</time>
      </trkpt>
      <trkpt lat="42.8459770" lon="2.1008460">
        <ele>859.2</ele>
        <time>2020-07-22T07:27:25Z</time>
      </trkpt>
      <trkpt lat="42.8458440" lon="2.1007390">
        <ele>859.6</ele>
        <time>2020-07-22T07:27:28Z</time>
      </trkpt>
      <trkpt lat="42.8457150" lon="2.1006350">
        <ele>860.0</ele>
        <time>2020-07-22T07:27:31Z</time>
      </trkpt>
      <trkpt lat="42.8455980" lon="2.1005220">
        <ele>860.6</ele>
        <time>2020-07-22T07:27:34Z</time>
      </trkpt>
      <trkpt lat="42.8455230" lon="2.1004560">
        <ele>861.2</ele>
        <time>2020-07-22T07:27:36Z</time>
      </trkpt>
      <trkpt lat="42.8452990" lon="2.1002540">
        <ele>862.2</ele>
        <time>2020-07-22T07:27:42Z</time>
      </trkpt>
      <trkpt lat="42.8452640" lon="2.1002220">
        <ele>862.2</ele>
        <time>2020-07-22T07:27:43Z</time>
      </trkpt>
      <trkpt lat="42.8450470" lon="2.1000320">
        <ele>863.0</ele>
        <time>2020-07-22T07:27:49Z</time>
      </trkpt>
      <trkpt lat="42.8450100" lon="2.0999970">
        <ele>863.4</ele>
        <time>2020-07-22T07:27:50Z</time>
      </trkpt>
      <trkpt lat="42.8449730" lon="2.0999620">
        <ele>863.6</ele>
        <time>2020-07-22T07:27:51Z</time>
      </trkpt>
      <trkpt lat="42.8449020" lon="2.0998900">
        <ele>864.0</ele>
        <time>2020-07-22T07:27:53Z</time>
      </trkpt>
      <trkpt lat="42.8447320" lon="2.0996780">
        <ele>864.4</ele>
        <time>2020-07-22T07:27:58Z</time>
      </trkpt>
      <trkpt lat="42.8447010" lon="2.0996390">
        <ele>864.6</ele>
        <time>2020-07-22T07:27:59Z</time>
      </trkpt>
      <trkpt lat="42.8446330" lon="2.0995630">
        <ele>865.0</ele>
        <time>2020-07-22T07:28:01Z</time>
      </trkpt>
      <trkpt lat="42.8445990" lon="2.0995220">
        <ele>865.2</ele>
        <time>2020-07-22T07:28:02Z</time>
      </trkpt>
      <trkpt lat="42.8445010" lon="2.0994030">
        <ele>865.6</ele>
        <time>2020-07-22T07:28:05Z</time>
      </trkpt>
      <trkpt lat="42.8443650" lon="2.0992520">
        <ele>866.0</ele>
        <time>2020-07-22T07:28:09Z</time>
      </trkpt>
      <trkpt lat="42.8442330" lon="2.0991110">
        <ele>866.8</ele>
        <time>2020-07-22T07:28:13Z</time>
      </trkpt>
      <trkpt lat="42.8441360" lon="2.0990110">
        <ele>867.4</ele>
        <time>2020-07-22T07:28:16Z</time>
      </trkpt>
      <trkpt lat="42.8440760" lon="2.0989360">
        <ele>867.8</ele>
        <time>2020-07-22T07:28:18Z</time>
      </trkpt>
      <trkpt lat="42.8439820" lon="2.0987440">
        <ele>868.4</ele>
        <time>2020-07-22T07:28:22Z</time>
      </trkpt>
      <trkpt lat="42.8439580" lon="2.0986330">
        <ele>868.8</ele>
        <time>2020-07-22T07:28:24Z</time>
      </trkpt>
      <trkpt lat="42.8439550" lon="2.0986040">
        <ele>869.0</ele>
        <time>2020-07-22T07:28:25Z</time>
      </trkpt>
      <trkpt lat="42.8439520" lon="2.0985760">
        <ele>869.2</ele>
        <time>2020-07-22T07:28:26Z</time>
      </trkpt>
      <trkpt lat="42.8439570" lon="2.0984600">
        <ele>869.4</ele>
        <time>2020-07-22T07:28:28Z</time>
      </trkpt>
      <trkpt lat="42.8440540" lon="2.0980910">
        <ele>869.6</ele>
        <time>2020-07-22T07:28:33Z</time>
      </trkpt>
      <trkpt lat="42.8441100" lon="2.0978810">
        <ele>869.4</ele>
        <time>2020-07-22T07:28:36Z</time>
      </trkpt>
      <trkpt lat="42.8441460" lon="2.0976430">
        <ele>869.6</ele>
        <time>2020-07-22T07:28:40Z</time>
      </trkpt>
      <trkpt lat="42.8441530" lon="2.0973970">
        <ele>870.0</ele>
        <time>2020-07-22T07:28:43Z</time>
      </trkpt>
      <trkpt lat="42.8441690" lon="2.0971740">
        <ele>870.2</ele>
        <time>2020-07-22T07:28:46Z</time>
      </trkpt>
      <trkpt lat="42.8441910" lon="2.0967510">
        <ele>870.0</ele>
        <time>2020-07-22T07:28:52Z</time>
      </trkpt>
      <trkpt lat="42.8441970" lon="2.0966790">
        <ele>870.0</ele>
        <time>2020-07-22T07:28:53Z</time>
      </trkpt>
      <trkpt lat="42.8442000" lon="2.0966080">
        <ele>869.8</ele>
        <time>2020-07-22T07:28:54Z</time>
      </trkpt>
      <trkpt lat="42.8442180" lon="2.0962120">
        <ele>869.0</ele>
        <time>2020-07-22T07:28:59Z</time>
      </trkpt>
      <trkpt lat="42.8442210" lon="2.0961290">
        <ele>868.8</ele>
        <time>2020-07-22T07:29:00Z</time>
      </trkpt>
      <trkpt lat="42.8442440" lon="2.0956140">
        <ele>868.4</ele>
        <time>2020-07-22T07:29:06Z</time>
      </trkpt>
      <trkpt lat="42.8442510" lon="2.0954280">
        <ele>868.2</ele>
        <time>2020-07-22T07:29:08Z</time>
      </trkpt>
      <trkpt lat="42.8442700" lon="2.0948360">
        <ele>867.8</ele>
        <time>2020-07-22T07:29:14Z</time>
      </trkpt>
      <trkpt lat="42.8442760" lon="2.0946300">
        <ele>867.6</ele>
        <time>2020-07-22T07:29:16Z</time>
      </trkpt>
      <trkpt lat="42.8442910" lon="2.0943190">
        <ele>867.8</ele>
        <time>2020-07-22T07:29:19Z</time>
      </trkpt>
      <trkpt lat="42.8443060" lon="2.0940060">
        <ele>868.0</ele>
        <time>2020-07-22T07:29:21Z</time>
      </trkpt>
      <trkpt lat="42.8443190" lon="2.0936920">
        <ele>868.0</ele>
        <time>2020-07-22T07:29:24Z</time>
      </trkpt>
      <trkpt lat="42.8443510" lon="2.0930700">
        <ele>867.6</ele>
        <time>2020-07-22T07:29:30Z</time>
      </trkpt>
      <trkpt lat="42.8443560" lon="2.0929640">
        <ele>867.6</ele>
        <time>2020-07-22T07:29:31Z</time>
      </trkpt>
      <trkpt lat="42.8443610" lon="2.0928600">
        <ele>867.4</ele>
        <time>2020-07-22T07:29:32Z</time>
      </trkpt>
      <trkpt lat="42.8443810" lon="2.0922300">
        <ele>866.8</ele>
        <time>2020-07-22T07:29:38Z</time>
      </trkpt>
      <trkpt lat="42.8443940" lon="2.0919270">
        <ele>866.8</ele>
        <time>2020-07-22T07:29:41Z</time>
      </trkpt>
      <trkpt lat="42.8444140" lon="2.0914630">
        <ele>866.8</ele>
        <time>2020-07-22T07:29:47Z</time>
      </trkpt>
      <trkpt lat="42.8444160" lon="2.0912880">
        <ele>866.6</ele>
        <time>2020-07-22T07:29:49Z</time>
      </trkpt>
      <trkpt lat="42.8444380" lon="2.0908400">
        <ele>865.4</ele>
        <time>2020-07-22T07:29:54Z</time>
      </trkpt>
      <trkpt lat="42.8444470" lon="2.0906470">
        <ele>864.6</ele>
        <time>2020-07-22T07:29:56Z</time>
      </trkpt>
      <trkpt lat="42.8444540" lon="2.0904530">
        <ele>864.4</ele>
        <time>2020-07-22T07:29:58Z</time>
      </trkpt>
      <trkpt lat="42.8444670" lon="2.0901610">
        <ele>865.0</ele>
        <time>2020-07-22T07:30:01Z</time>
      </trkpt>
      <trkpt lat="42.8444790" lon="2.0899680">
        <ele>865.4</ele>
        <time>2020-07-22T07:30:03Z</time>
      </trkpt>
      <trkpt lat="42.8444990" lon="2.0893810">
        <ele>865.4</ele>
        <time>2020-07-22T07:30:09Z</time>
      </trkpt>
      <trkpt lat="42.8445060" lon="2.0890810">
        <ele>864.6</ele>
        <time>2020-07-22T07:30:12Z</time>
      </trkpt>
      <trkpt lat="42.8445350" lon="2.0884830">
        <ele>864.4</ele>
        <time>2020-07-22T07:30:18Z</time>
      </trkpt>
      <trkpt lat="42.8445440" lon="2.0883840">
        <ele>864.2</ele>
        <time>2020-07-22T07:30:19Z</time>
      </trkpt>
      <trkpt lat="42.8445510" lon="2.0882830">
        <ele>863.8</ele>
        <time>2020-07-22T07:30:20Z</time>
      </trkpt>
      <trkpt lat="42.8445650" lon="2.0880840">
        <ele>863.0</ele>
        <time>2020-07-22T07:30:22Z</time>
      </trkpt>
      <trkpt lat="42.8445940" lon="2.0875900">
        <ele>862.0</ele>
        <time>2020-07-22T07:30:26Z</time>
      </trkpt>
      <trkpt lat="42.8445970" lon="2.0874910">
        <ele>861.8</ele>
        <time>2020-07-22T07:30:27Z</time>
      </trkpt>
      <trkpt lat="42.8446110" lon="2.0872930">
        <ele>861.6</ele>
        <time>2020-07-22T07:30:30Z</time>
      </trkpt>
      <trkpt lat="42.8446320" lon="2.0868150">
        <ele>861.8</ele>
        <time>2020-07-22T07:30:35Z</time>
      </trkpt>
      <trkpt lat="42.8446480" lon="2.0864370">
        <ele>862.0</ele>
        <time>2020-07-22T07:30:39Z</time>
      </trkpt>
      <trkpt lat="42.8446620" lon="2.0860750">
        <ele>863.0</ele>
        <time>2020-07-22T07:30:43Z</time>
      </trkpt>
      <trkpt lat="42.8446810" lon="2.0857330">
        <ele>863.0</ele>
        <time>2020-07-22T07:30:47Z</time>
      </trkpt>
      <trkpt lat="42.8447040" lon="2.0852900">
        <ele>862.4</ele>
        <time>2020-07-22T07:30:51Z</time>
      </trkpt>
      <trkpt lat="42.8447160" lon="2.0850210">
        <ele>862.2</ele>
        <time>2020-07-22T07:30:55Z</time>
      </trkpt>
      <trkpt lat="42.8447430" lon="2.0843820">
        <ele>862.8</ele>
        <time>2020-07-22T07:31:01Z</time>
      </trkpt>
      <trkpt lat="42.8447560" lon="2.0841130">
        <ele>862.8</ele>
        <time>2020-07-22T07:31:04Z</time>
      </trkpt>
      <trkpt lat="42.8447590" lon="2.0840220">
        <ele>863.0</ele>
        <time>2020-07-22T07:31:06Z</time>
      </trkpt>
      <trkpt lat="42.8447900" lon="2.0834810">
        <ele>863.0</ele>
        <time>2020-07-22T07:31:12Z</time>
      </trkpt>
      <trkpt lat="42.8448130" lon="2.0828670">
        <ele>862.8</ele>
        <time>2020-07-22T07:31:18Z</time>
      </trkpt>
      <trkpt lat="42.8448290" lon="2.0825180">
        <ele>863.4</ele>
        <time>2020-07-22T07:31:22Z</time>
      </trkpt>
      <trkpt lat="42.8448470" lon="2.0822690">
        <ele>864.0</ele>
        <time>2020-07-22T07:31:25Z</time>
      </trkpt>
      <trkpt lat="42.8448530" lon="2.0819790">
        <ele>864.6</ele>
        <time>2020-07-22T07:31:29Z</time>
      </trkpt>
      <trkpt lat="42.8448590" lon="2.0818420">
        <ele>865.2</ele>
        <time>2020-07-22T07:31:31Z</time>
      </trkpt>
      <trkpt lat="42.8448620" lon="2.0817740">
        <ele>865.2</ele>
        <time>2020-07-22T07:31:32Z</time>
      </trkpt>
      <trkpt lat="42.8448710" lon="2.0814960">
        <ele>866.2</ele>
        <time>2020-07-22T07:31:37Z</time>
      </trkpt>
      <trkpt lat="42.8448780" lon="2.0813540">
        <ele>866.6</ele>
        <time>2020-07-22T07:31:39Z</time>
      </trkpt>
      <trkpt lat="42.8448960" lon="2.0810620">
        <ele>867.2</ele>
        <time>2020-07-22T07:31:42Z</time>
      </trkpt>
      <trkpt lat="42.8449050" lon="2.0809060">
        <ele>867.4</ele>
        <time>2020-07-22T07:31:44Z</time>
      </trkpt>
      <trkpt lat="42.8449550" lon="2.0804040">
        <ele>867.0</ele>
        <time>2020-07-22T07:31:50Z</time>
      </trkpt>
      <trkpt lat="42.8449980" lon="2.0798790">
        <ele>867.0</ele>
        <time>2020-07-22T07:31:56Z</time>
      </trkpt>
      <trkpt lat="42.8450160" lon="2.0796080">
        <ele>867.0</ele>
        <time>2020-07-22T07:31:59Z</time>
      </trkpt>
      <trkpt lat="42.8450220" lon="2.0795170">
        <ele>867.0</ele>
        <time>2020-07-22T07:32:00Z</time>
      </trkpt>
      <trkpt lat="42.8450520" lon="2.0789930">
        <ele>867.8</ele>
        <time>2020-07-22T07:32:06Z</time>
      </trkpt>
      <trkpt lat="42.8450630" lon="2.0788180">
        <ele>867.8</ele>
        <time>2020-07-22T07:32:08Z</time>
      </trkpt>
      <trkpt lat="42.8451090" lon="2.0783110">
        <ele>867.0</ele>
        <time>2020-07-22T07:32:14Z</time>
      </trkpt>
      <trkpt lat="42.8451230" lon="2.0781510">
        <ele>865.8</ele>
        <time>2020-07-22T07:32:16Z</time>
      </trkpt>
      <trkpt lat="42.8451280" lon="2.0780660">
        <ele>865.2</ele>
        <time>2020-07-22T07:32:17Z</time>
      </trkpt>
      <trkpt lat="42.8451600" lon="2.0775370">
        <ele>865.0</ele>
        <time>2020-07-22T07:32:23Z</time>
      </trkpt>
      <trkpt lat="42.8451660" lon="2.0774450">
        <ele>865.0</ele>
        <time>2020-07-22T07:32:24Z</time>
      </trkpt>
      <trkpt lat="42.8452050" lon="2.0769240">
        <ele>866.2</ele>
        <time>2020-07-22T07:32:30Z</time>
      </trkpt>
      <trkpt lat="42.8452170" lon="2.0767550">
        <ele>865.8</ele>
        <time>2020-07-22T07:32:32Z</time>
      </trkpt>
      <trkpt lat="42.8452280" lon="2.0765800">
        <ele>864.4</ele>
        <time>2020-07-22T07:32:35Z</time>
      </trkpt>
      <trkpt lat="42.8452460" lon="2.0762980">
        <ele>863.2</ele>
        <time>2020-07-22T07:32:38Z</time>
      </trkpt>
      <trkpt lat="42.8452530" lon="2.0762020">
        <ele>862.8</ele>
        <time>2020-07-22T07:32:39Z</time>
      </trkpt>
      <trkpt lat="42.8452650" lon="2.0760070">
        <ele>862.2</ele>
        <time>2020-07-22T07:32:41Z</time>
      </trkpt>
      <trkpt lat="42.8453080" lon="2.0755050">
        <ele>861.0</ele>
        <time>2020-07-22T07:32:46Z</time>
      </trkpt>
      <trkpt lat="42.8453260" lon="2.0753010">
        <ele>860.4</ele>
        <time>2020-07-22T07:32:48Z</time>
      </trkpt>
      <trkpt lat="42.8453600" lon="2.0748860">
        <ele>859.8</ele>
        <time>2020-07-22T07:32:52Z</time>
      </trkpt>
      <trkpt lat="42.8453880" lon="2.0745670">
        <ele>859.8</ele>
        <time>2020-07-22T07:32:55Z</time>
      </trkpt>
      <trkpt lat="42.8453950" lon="2.0744600">
        <ele>859.8</ele>
        <time>2020-07-22T07:32:56Z</time>
      </trkpt>
      <trkpt lat="42.8454200" lon="2.0741370">
        <ele>858.6</ele>
        <time>2020-07-22T07:32:59Z</time>
      </trkpt>
      <trkpt lat="42.8454380" lon="2.0739210">
        <ele>857.6</ele>
        <time>2020-07-22T07:33:01Z</time>
      </trkpt>
      <trkpt lat="42.8454880" lon="2.0732690">
        <ele>856.4</ele>
        <time>2020-07-22T07:33:07Z</time>
      </trkpt>
      <trkpt lat="42.8455220" lon="2.0728300">
        <ele>855.4</ele>
        <time>2020-07-22T07:33:11Z</time>
      </trkpt>
      <trkpt lat="42.8455360" lon="2.0726120">
        <ele>855.0</ele>
        <time>2020-07-22T07:33:13Z</time>
      </trkpt>
      <trkpt lat="42.8455990" lon="2.0719830">
        <ele>854.8</ele>
        <time>2020-07-22T07:33:19Z</time>
      </trkpt>
      <trkpt lat="42.8456060" lon="2.0718790">
        <ele>854.8</ele>
        <time>2020-07-22T07:33:20Z</time>
      </trkpt>
      <trkpt lat="42.8456190" lon="2.0715660">
        <ele>855.0</ele>
        <time>2020-07-22T07:33:23Z</time>
      </trkpt>
      <trkpt lat="42.8456250" lon="2.0712580">
        <ele>855.4</ele>
        <time>2020-07-22T07:33:26Z</time>
      </trkpt>
      <trkpt lat="42.8456240" lon="2.0709530">
        <ele>855.4</ele>
        <time>2020-07-22T07:33:29Z</time>
      </trkpt>
      <trkpt lat="42.8456100" lon="2.0703380">
        <ele>854.4</ele>
        <time>2020-07-22T07:33:35Z</time>
      </trkpt>
      <trkpt lat="42.8456110" lon="2.0702360">
        <ele>854.0</ele>
        <time>2020-07-22T07:33:36Z</time>
      </trkpt>
      <trkpt lat="42.8456130" lon="2.0701350">
        <ele>853.8</ele>
        <time>2020-07-22T07:33:37Z</time>
      </trkpt>
      <trkpt lat="42.8456150" lon="2.0700340">
        <ele>853.8</ele>
        <time>2020-07-22T07:33:38Z</time>
      </trkpt>
      <trkpt lat="42.8456440" lon="2.0694270">
        <ele>854.2</ele>
        <time>2020-07-22T07:33:44Z</time>
      </trkpt>
      <trkpt lat="42.8456650" lon="2.0691360">
        <ele>854.6</ele>
        <time>2020-07-22T07:33:47Z</time>
      </trkpt>
      <trkpt lat="42.8456960" lon="2.0687620">
        <ele>855.2</ele>
        <time>2020-07-22T07:33:51Z</time>
      </trkpt>
      <trkpt lat="42.8457200" lon="2.0684880">
        <ele>856.0</ele>
        <time>2020-07-22T07:33:54Z</time>
      </trkpt>
      <trkpt lat="42.8457290" lon="2.0683980">
        <ele>856.2</ele>
        <time>2020-07-22T07:33:55Z</time>
      </trkpt>
      <trkpt lat="42.8457460" lon="2.0682150">
        <ele>856.2</ele>
        <time>2020-07-22T07:33:57Z</time>
      </trkpt>
      <trkpt lat="42.8458030" lon="2.0676620">
        <ele>856.2</ele>
        <time>2020-07-22T07:34:03Z</time>
      </trkpt>
      <trkpt lat="42.8458400" lon="2.0672880">
        <ele>856.4</ele>
        <time>2020-07-22T07:34:07Z</time>
      </trkpt>
      <trkpt lat="42.8458900" lon="2.0667270">
        <ele>856.0</ele>
        <time>2020-07-22T07:34:13Z</time>
      </trkpt>
      <trkpt lat="42.8459150" lon="2.0664460">
        <ele>856.0</ele>
        <time>2020-07-22T07:34:16Z</time>
      </trkpt>
      <trkpt lat="42.8459570" lon="2.0658890">
        <ele>856.2</ele>
        <time>2020-07-22T07:34:22Z</time>
      </trkpt>
      <trkpt lat="42.8459920" lon="2.0655150">
        <ele>855.6</ele>
        <time>2020-07-22T07:34:26Z</time>
      </trkpt>
      <trkpt lat="42.8460430" lon="2.0649390">
        <ele>855.6</ele>
        <time>2020-07-22T07:34:32Z</time>
      </trkpt>
      <trkpt lat="42.8460730" lon="2.0646470">
        <ele>855.6</ele>
        <time>2020-07-22T07:34:35Z</time>
      </trkpt>
      <trkpt lat="42.8461000" lon="2.0643440">
        <ele>855.2</ele>
        <time>2020-07-22T07:34:38Z</time>
      </trkpt>
      <trkpt lat="42.8461450" lon="2.0639210">
        <ele>854.6</ele>
        <time>2020-07-22T07:34:42Z</time>
      </trkpt>
      <trkpt lat="42.8461650" lon="2.0637010">
        <ele>854.2</ele>
        <time>2020-07-22T07:34:44Z</time>
      </trkpt>
      <trkpt lat="42.8462090" lon="2.0632580">
        <ele>853.0</ele>
        <time>2020-07-22T07:34:48Z</time>
      </trkpt>
      <trkpt lat="42.8462520" lon="2.0628080">
        <ele>852.2</ele>
        <time>2020-07-22T07:34:52Z</time>
      </trkpt>
      <trkpt lat="42.8462630" lon="2.0626950">
        <ele>852.0</ele>
        <time>2020-07-22T07:34:53Z</time>
      </trkpt>
      <trkpt lat="42.8462740" lon="2.0625820">
        <ele>851.8</ele>
        <time>2020-07-22T07:34:54Z</time>
      </trkpt>
      <trkpt lat="42.8463320" lon="2.0619000">
        <ele>851.6</ele>
        <time>2020-07-22T07:35:00Z</time>
      </trkpt>
      <trkpt lat="42.8463610" lon="2.0615580">
        <ele>850.6</ele>
        <time>2020-07-22T07:35:03Z</time>
      </trkpt>
      <trkpt lat="42.8463710" lon="2.0614440">
        <ele>850.4</ele>
        <time>2020-07-22T07:35:04Z</time>
      </trkpt>
      <trkpt lat="42.8463980" lon="2.0611050">
        <ele>849.6</ele>
        <time>2020-07-22T07:35:07Z</time>
      </trkpt>
      <trkpt lat="42.8464380" lon="2.0605420">
        <ele>849.0</ele>
        <time>2020-07-22T07:35:12Z</time>
      </trkpt>
      <trkpt lat="42.8464450" lon="2.0604290">
        <ele>848.6</ele>
        <time>2020-07-22T07:35:13Z</time>
      </trkpt>
      <trkpt lat="42.8464540" lon="2.0603160">
        <ele>848.2</ele>
        <time>2020-07-22T07:35:14Z</time>
      </trkpt>
      <trkpt lat="42.8464940" lon="2.0598680">
        <ele>847.8</ele>
        <time>2020-07-22T07:35:18Z</time>
      </trkpt>
      <trkpt lat="42.8465030" lon="2.0597550">
        <ele>847.8</ele>
        <time>2020-07-22T07:35:19Z</time>
      </trkpt>
      <trkpt lat="42.8465120" lon="2.0596430">
        <ele>847.8</ele>
        <time>2020-07-22T07:35:20Z</time>
      </trkpt>
      <trkpt lat="42.8465400" lon="2.0592990">
        <ele>847.8</ele>
        <time>2020-07-22T07:35:23Z</time>
      </trkpt>
      <trkpt lat="42.8465590" lon="2.0590660">
        <ele>847.0</ele>
        <time>2020-07-22T07:35:25Z</time>
      </trkpt>
      <trkpt lat="42.8465690" lon="2.0589510">
        <ele>846.6</ele>
        <time>2020-07-22T07:35:26Z</time>
      </trkpt>
      <trkpt lat="42.8465960" lon="2.0586080">
        <ele>845.8</ele>
        <time>2020-07-22T07:35:29Z</time>
      </trkpt>
      <trkpt lat="42.8466140" lon="2.0583730">
        <ele>845.4</ele>
        <time>2020-07-22T07:35:31Z</time>
      </trkpt>
      <trkpt lat="42.8466380" lon="2.0580240">
        <ele>844.8</ele>
        <time>2020-07-22T07:35:34Z</time>
      </trkpt>
      <trkpt lat="42.8466820" lon="2.0574610">
        <ele>844.0</ele>
        <time>2020-07-22T07:35:39Z</time>
      </trkpt>
      <trkpt lat="42.8466880" lon="2.0573500">
        <ele>843.8</ele>
        <time>2020-07-22T07:35:40Z</time>
      </trkpt>
      <trkpt lat="42.8466930" lon="2.0571250">
        <ele>843.2</ele>
        <time>2020-07-22T07:35:42Z</time>
      </trkpt>
      <trkpt lat="42.8466900" lon="2.0567880">
        <ele>842.6</ele>
        <time>2020-07-22T07:35:45Z</time>
      </trkpt>
      <trkpt lat="42.8466830" lon="2.0565600">
        <ele>842.2</ele>
        <time>2020-07-22T07:35:47Z</time>
      </trkpt>
      <trkpt lat="42.8466680" lon="2.0563360">
        <ele>842.0</ele>
        <time>2020-07-22T07:35:49Z</time>
      </trkpt>
      <trkpt lat="42.8466330" lon="2.0560060">
        <ele>841.4</ele>
        <time>2020-07-22T07:35:52Z</time>
      </trkpt>
      <trkpt lat="42.8466010" lon="2.0557840">
        <ele>841.2</ele>
        <time>2020-07-22T07:35:54Z</time>
      </trkpt>
      <trkpt lat="42.8465850" lon="2.0556720">
        <ele>841.2</ele>
        <time>2020-07-22T07:35:55Z</time>
      </trkpt>
      <trkpt lat="42.8464920" lon="2.0550090">
        <ele>841.6</ele>
        <time>2020-07-22T07:36:01Z</time>
      </trkpt>
      <trkpt lat="42.8464340" lon="2.0545800">
        <ele>841.8</ele>
        <time>2020-07-22T07:36:05Z</time>
      </trkpt>
      <trkpt lat="42.8463550" lon="2.0540460">
        <ele>842.2</ele>
        <time>2020-07-22T07:36:10Z</time>
      </trkpt>
      <trkpt lat="42.8463400" lon="2.0539390">
        <ele>842.4</ele>
        <time>2020-07-22T07:36:11Z</time>
      </trkpt>
      <trkpt lat="42.8463110" lon="2.0537230">
        <ele>842.6</ele>
        <time>2020-07-22T07:36:13Z</time>
      </trkpt>
      <trkpt lat="42.8462690" lon="2.0533990">
        <ele>842.4</ele>
        <time>2020-07-22T07:36:16Z</time>
      </trkpt>
      <trkpt lat="42.8461820" lon="2.0527610">
        <ele>842.0</ele>
        <time>2020-07-22T07:36:22Z</time>
      </trkpt>
      <trkpt lat="42.8461140" lon="2.0522390">
        <ele>842.2</ele>
        <time>2020-07-22T07:36:27Z</time>
      </trkpt>
      <trkpt lat="42.8460290" lon="2.0516210">
        <ele>842.6</ele>
        <time>2020-07-22T07:36:33Z</time>
      </trkpt>
      <trkpt lat="42.8460010" lon="2.0514210">
        <ele>842.8</ele>
        <time>2020-07-22T07:36:35Z</time>
      </trkpt>
      <trkpt lat="42.8459100" lon="2.0508230">
        <ele>842.8</ele>
        <time>2020-07-22T07:36:41Z</time>
      </trkpt>
      <trkpt lat="42.8458560" lon="2.0504380">
        <ele>843.4</ele>
        <time>2020-07-22T07:36:45Z</time>
      </trkpt>
      <trkpt lat="42.8458430" lon="2.0503450">
        <ele>843.6</ele>
        <time>2020-07-22T07:36:46Z</time>
      </trkpt>
      <trkpt lat="42.8457810" lon="2.0499190">
        <ele>844.2</ele>
        <time>2020-07-22T07:36:51Z</time>
      </trkpt>
      <trkpt lat="42.8457710" lon="2.0498370">
        <ele>844.4</ele>
        <time>2020-07-22T07:36:52Z</time>
      </trkpt>
      <trkpt lat="42.8457520" lon="2.0496820">
        <ele>844.6</ele>
        <time>2020-07-22T07:36:54Z</time>
      </trkpt>
      <trkpt lat="42.8457200" lon="2.0494620">
        <ele>845.8</ele>
        <time>2020-07-22T07:36:57Z</time>
      </trkpt>
      <trkpt lat="42.8456870" lon="2.0492470">
        <ele>846.6</ele>
        <time>2020-07-22T07:37:00Z</time>
      </trkpt>
      <trkpt lat="42.8456780" lon="2.0491760">
        <ele>846.8</ele>
        <time>2020-07-22T07:37:01Z</time>
      </trkpt>
      <trkpt lat="42.8456690" lon="2.0491070">
        <ele>847.0</ele>
        <time>2020-07-22T07:37:02Z</time>
      </trkpt>
      <trkpt lat="42.8456510" lon="2.0489680">
        <ele>847.2</ele>
        <time>2020-07-22T07:37:04Z</time>
      </trkpt>
      <trkpt lat="42.8456310" lon="2.0488310">
        <ele>847.6</ele>
        <time>2020-07-22T07:37:06Z</time>
      </trkpt>
      <trkpt lat="42.8455910" lon="2.0485680">
        <ele>848.0</ele>
        <time>2020-07-22T07:37:09Z</time>
      </trkpt>
      <trkpt lat="42.8455910" lon="2.0485680">
        <ele>848.2</ele>
        <time>2020-07-22T07:37:10Z</time>
      </trkpt>
      <trkpt lat="42.8455500" lon="2.0483120">
        <ele>849.2</ele>
        <time>2020-07-22T07:37:14Z</time>
      </trkpt>
      <trkpt lat="42.8455000" lon="2.0479890">
        <ele>850.2</ele>
        <time>2020-07-22T07:37:19Z</time>
      </trkpt>
      <trkpt lat="42.8454910" lon="2.0479270">
        <ele>850.2</ele>
        <time>2020-07-22T07:37:20Z</time>
      </trkpt>
      <trkpt lat="42.8454570" lon="2.0476680">
        <ele>850.8</ele>
        <time>2020-07-22T07:37:24Z</time>
      </trkpt>
      <trkpt lat="42.8454030" lon="2.0473430">
        <ele>851.4</ele>
        <time>2020-07-22T07:37:29Z</time>
      </trkpt>
      <trkpt lat="42.8453830" lon="2.0472150">
        <ele>851.8</ele>
        <time>2020-07-22T07:37:31Z</time>
      </trkpt>
      <trkpt lat="42.8453650" lon="2.0470900">
        <ele>852.2</ele>
        <time>2020-07-22T07:37:33Z</time>
      </trkpt>
      <trkpt lat="42.8453570" lon="2.0470280">
        <ele>852.4</ele>
        <time>2020-07-22T07:37:34Z</time>
      </trkpt>
      <trkpt lat="42.8453480" lon="2.0469660">
        <ele>852.6</ele>
        <time>2020-07-22T07:37:35Z</time>
      </trkpt>
      <trkpt lat="42.8453110" lon="2.0467210">
        <ele>853.2</ele>
        <time>2020-07-22T07:37:39Z</time>
      </trkpt>
      <trkpt lat="42.8452910" lon="2.0465970">
        <ele>853.6</ele>
        <time>2020-07-22T07:37:41Z</time>
      </trkpt>
      <trkpt lat="42.8452620" lon="2.0464140">
        <ele>854.0</ele>
        <time>2020-07-22T07:37:44Z</time>
      </trkpt>
      <trkpt lat="42.8452430" lon="2.0462890">
        <ele>854.4</ele>
        <time>2020-07-22T07:37:46Z</time>
      </trkpt>
      <trkpt lat="42.8452330" lon="2.0462280">
        <ele>854.8</ele>
        <time>2020-07-22T07:37:47Z</time>
      </trkpt>
      <trkpt lat="42.8452120" lon="2.0461030">
        <ele>855.4</ele>
        <time>2020-07-22T07:37:49Z</time>
      </trkpt>
      <trkpt lat="42.8451920" lon="2.0459820">
        <ele>856.0</ele>
        <time>2020-07-22T07:37:51Z</time>
      </trkpt>
      <trkpt lat="42.8451430" lon="2.0456290">
        <ele>857.0</ele>
        <time>2020-07-22T07:37:57Z</time>
      </trkpt>
      <trkpt lat="42.8451330" lon="2.0455710">
        <ele>857.2</ele>
        <time>2020-07-22T07:37:58Z</time>
      </trkpt>
      <trkpt lat="42.8450770" lon="2.0452240">
        <ele>857.8</ele>
        <time>2020-07-22T07:38:04Z</time>
      </trkpt>
      <trkpt lat="42.8450590" lon="2.0451080">
        <ele>858.2</ele>
        <time>2020-07-22T07:38:06Z</time>
      </trkpt>
      <trkpt lat="42.8450400" lon="2.0449910">
        <ele>858.6</ele>
        <time>2020-07-22T07:38:08Z</time>
      </trkpt>
      <trkpt lat="42.8450290" lon="2.0449360">
        <ele>858.8</ele>
        <time>2020-07-22T07:38:09Z</time>
      </trkpt>
      <trkpt lat="42.8450150" lon="2.0448790">
        <ele>859.0</ele>
        <time>2020-07-22T07:38:10Z</time>
      </trkpt>
      <trkpt lat="42.8450010" lon="2.0448240">
        <ele>859.2</ele>
        <time>2020-07-22T07:38:11Z</time>
      </trkpt>
      <trkpt lat="42.8449830" lon="2.0447710">
        <ele>859.4</ele>
        <time>2020-07-22T07:38:12Z</time>
      </trkpt>
      <trkpt lat="42.8449650" lon="2.0447190">
        <ele>859.6</ele>
        <time>2020-07-22T07:38:13Z</time>
      </trkpt>
      <trkpt lat="42.8449460" lon="2.0446680">
        <ele>859.8</ele>
        <time>2020-07-22T07:38:14Z</time>
      </trkpt>
      <trkpt lat="42.8448980" lon="2.0445710">
        <ele>860.4</ele>
        <time>2020-07-22T07:38:16Z</time>
      </trkpt>
      <trkpt lat="42.8447740" lon="2.0444020">
        <ele>861.0</ele>
        <time>2020-07-22T07:38:20Z</time>
      </trkpt>
      <trkpt lat="42.8446600" lon="2.0442980">
        <ele>861.2</ele>
        <time>2020-07-22T07:38:23Z</time>
      </trkpt>
      <trkpt lat="42.8445270" lon="2.0442130">
        <ele>861.2</ele>
        <time>2020-07-22T07:38:26Z</time>
      </trkpt>
      <trkpt lat="42.8442270" lon="2.0440440">
        <ele>861.2</ele>
        <time>2020-07-22T07:38:32Z</time>
      </trkpt>
      <trkpt lat="42.8440600" lon="2.0439630">
        <ele>861.2</ele>
        <time>2020-07-22T07:38:35Z</time>
      </trkpt>
      <trkpt lat="42.8437250" lon="2.0437890">
        <ele>861.0</ele>
        <time>2020-07-22T07:38:41Z</time>
      </trkpt>
      <trkpt lat="42.8435550" lon="2.0437040">
        <ele>861.0</ele>
        <time>2020-07-22T07:38:44Z</time>
      </trkpt>
      <trkpt lat="42.8434450" lon="2.0436430">
        <ele>861.2</ele>
        <time>2020-07-22T07:38:46Z</time>
      </trkpt>
      <trkpt lat="42.8432830" lon="2.0435350">
        <ele>861.8</ele>
        <time>2020-07-22T07:38:49Z</time>
      </trkpt>
      <trkpt lat="42.8430940" lon="2.0433330">
        <ele>862.8</ele>
        <time>2020-07-22T07:38:53Z</time>
      </trkpt>
      <trkpt lat="42.8428950" lon="2.0430250">
        <ele>862.4</ele>
        <time>2020-07-22T07:38:58Z</time>
      </trkpt>
      <trkpt lat="42.8428290" lon="2.0428830">
        <ele>862.4</ele>
        <time>2020-07-22T07:39:00Z</time>
      </trkpt>
      <trkpt lat="42.8426780" lon="2.0425090">
        <ele>862.6</ele>
        <time>2020-07-22T07:39:05Z</time>
      </trkpt>
      <trkpt lat="42.8425240" lon="2.0421340">
        <ele>862.8</ele>
        <time>2020-07-22T07:39:09Z</time>
      </trkpt>
      <trkpt lat="42.8423620" lon="2.0417430">
        <ele>863.0</ele>
        <time>2020-07-22T07:39:15Z</time>
      </trkpt>
      <trkpt lat="42.8422310" lon="2.0414260">
        <ele>863.2</ele>
        <time>2020-07-22T07:39:19Z</time>
      </trkpt>
      <trkpt lat="42.8420610" lon="2.0410130">
        <ele>863.0</ele>
        <time>2020-07-22T07:39:24Z</time>
      </trkpt>
      <trkpt lat="42.8420250" lon="2.0409250">
        <ele>862.8</ele>
        <time>2020-07-22T07:39:25Z</time>
      </trkpt>
      <trkpt lat="42.8419510" lon="2.0407510">
        <ele>862.8</ele>
        <time>2020-07-22T07:39:27Z</time>
      </trkpt>
      <trkpt lat="42.8418090" lon="2.0403940">
        <ele>862.2</ele>
        <time>2020-07-22T07:39:31Z</time>
      </trkpt>
      <trkpt lat="42.8416700" lon="2.0400480">
        <ele>862.0</ele>
        <time>2020-07-22T07:39:35Z</time>
      </trkpt>
      <trkpt lat="42.8414890" lon="2.0396120">
        <ele>861.8</ele>
        <time>2020-07-22T07:39:40Z</time>
      </trkpt>
      <trkpt lat="42.8413820" lon="2.0393550">
        <ele>861.4</ele>
        <time>2020-07-22T07:39:43Z</time>
      </trkpt>
      <trkpt lat="42.8411720" lon="2.0388290">
        <ele>860.8</ele>
        <time>2020-07-22T07:39:49Z</time>
      </trkpt>
      <trkpt lat="42.8411370" lon="2.0387400">
        <ele>860.6</ele>
        <time>2020-07-22T07:39:50Z</time>
      </trkpt>
      <trkpt lat="42.8411010" lon="2.0386480">
        <ele>860.4</ele>
        <time>2020-07-22T07:39:51Z</time>
      </trkpt>
      <trkpt lat="42.8410250" lon="2.0384720">
        <ele>859.8</ele>
        <time>2020-07-22T07:39:53Z</time>
      </trkpt>
      <trkpt lat="42.8409870" lon="2.0383830">
        <ele>859.4</ele>
        <time>2020-07-22T07:39:54Z</time>
      </trkpt>
      <trkpt lat="42.8407960" lon="2.0379410">
        <ele>859.0</ele>
        <time>2020-07-22T07:39:59Z</time>
      </trkpt>
      <trkpt lat="42.8405940" lon="2.0374290">
        <ele>859.0</ele>
        <time>2020-07-22T07:40:05Z</time>
      </trkpt>
      <trkpt lat="42.8405610" lon="2.0373440">
        <ele>859.0</ele>
        <time>2020-07-22T07:40:06Z</time>
      </trkpt>
      <trkpt lat="42.8404540" lon="2.0370780">
        <ele>858.4</ele>
        <time>2020-07-22T07:40:09Z</time>
      </trkpt>
      <trkpt lat="42.8403770" lon="2.0368950">
        <ele>858.2</ele>
        <time>2020-07-22T07:40:10Z</time>
      </trkpt>
      <trkpt lat="42.8403390" lon="2.0368020">
        <ele>858.2</ele>
        <time>2020-07-22T07:40:11Z</time>
      </trkpt>
      <trkpt lat="42.8403010" lon="2.0367090">
        <ele>858.0</ele>
        <time>2020-07-22T07:40:13Z</time>
      </trkpt>
      <trkpt lat="42.8400740" lon="2.0361630">
        <ele>858.0</ele>
        <time>2020-07-22T07:40:19Z</time>
      </trkpt>
      <trkpt lat="42.8399250" lon="2.0358070">
        <ele>858.0</ele>
        <time>2020-07-22T07:40:23Z</time>
      </trkpt>
      <trkpt lat="42.8397410" lon="2.0353690">
        <ele>858.4</ele>
        <time>2020-07-22T07:40:28Z</time>
      </trkpt>
      <trkpt lat="42.8396000" lon="2.0350320">
        <ele>858.6</ele>
        <time>2020-07-22T07:40:32Z</time>
      </trkpt>
      <trkpt lat="42.8394310" lon="2.0346270">
        <ele>858.8</ele>
        <time>2020-07-22T07:40:37Z</time>
      </trkpt>
      <trkpt lat="42.8393650" lon="2.0344650">
        <ele>858.8</ele>
        <time>2020-07-22T07:40:39Z</time>
      </trkpt>
      <trkpt lat="42.8391680" lon="2.0339740">
        <ele>859.2</ele>
        <time>2020-07-22T07:40:45Z</time>
      </trkpt>
      <trkpt lat="42.8391350" lon="2.0338900">
        <ele>859.4</ele>
        <time>2020-07-22T07:40:46Z</time>
      </trkpt>
      <trkpt lat="42.8390360" lon="2.0336510">
        <ele>859.8</ele>
        <time>2020-07-22T07:40:49Z</time>
      </trkpt>
      <trkpt lat="42.8390030" lon="2.0335710">
        <ele>859.8</ele>
        <time>2020-07-22T07:40:50Z</time>
      </trkpt>
      <trkpt lat="42.8388420" lon="2.0331780">
        <ele>860.6</ele>
        <time>2020-07-22T07:40:55Z</time>
      </trkpt>
      <trkpt lat="42.8387430" lon="2.0329450">
        <ele>860.8</ele>
        <time>2020-07-22T07:40:58Z</time>
      </trkpt>
      <trkpt lat="42.8385460" lon="2.0324600">
        <ele>860.8</ele>
        <time>2020-07-22T07:41:04Z</time>
      </trkpt>
      <trkpt lat="42.8384470" lon="2.0322140">
        <ele>861.2</ele>
        <time>2020-07-22T07:41:07Z</time>
      </trkpt>
      <trkpt lat="42.8383510" lon="2.0319770">
        <ele>861.6</ele>
        <time>2020-07-22T07:41:09Z</time>
      </trkpt>
      <trkpt lat="42.8381910" lon="2.0315750">
        <ele>862.0</ele>
        <time>2020-07-22T07:41:15Z</time>
      </trkpt>
      <trkpt lat="42.8380940" lon="2.0313400">
        <ele>862.6</ele>
        <time>2020-07-22T07:41:18Z</time>
      </trkpt>
      <trkpt lat="42.8380620" lon="2.0312620">
        <ele>862.8</ele>
        <time>2020-07-22T07:41:19Z</time>
      </trkpt>
      <trkpt lat="42.8378680" lon="2.0307920">
        <ele>863.4</ele>
        <time>2020-07-22T07:41:25Z</time>
      </trkpt>
      <trkpt lat="42.8377710" lon="2.0305510">
        <ele>863.4</ele>
        <time>2020-07-22T07:41:28Z</time>
      </trkpt>
      <trkpt lat="42.8376080" lon="2.0301470">
        <ele>863.6</ele>
        <time>2020-07-22T07:41:33Z</time>
      </trkpt>
      <trkpt lat="42.8375750" lon="2.0300660">
        <ele>863.8</ele>
        <time>2020-07-22T07:41:34Z</time>
      </trkpt>
      <trkpt lat="42.8373690" lon="2.0295780">
        <ele>864.4</ele>
        <time>2020-07-22T07:41:40Z</time>
      </trkpt>
      <trkpt lat="42.8371630" lon="2.0290930">
        <ele>864.2</ele>
        <time>2020-07-22T07:41:46Z</time>
      </trkpt>
      <trkpt lat="42.8370310" lon="2.0287700">
        <ele>864.0</ele>
        <time>2020-07-22T07:41:50Z</time>
      </trkpt>
      <trkpt lat="42.8369030" lon="2.0284610">
        <ele>864.2</ele>
        <time>2020-07-22T07:41:54Z</time>
      </trkpt>
      <trkpt lat="42.8367680" lon="2.0281470">
        <ele>864.4</ele>
        <time>2020-07-22T07:41:58Z</time>
      </trkpt>
      <trkpt lat="42.8365750" lon="2.0276810">
        <ele>864.6</ele>
        <time>2020-07-22T07:42:04Z</time>
      </trkpt>
      <trkpt lat="42.8365180" lon="2.0275360">
        <ele>864.6</ele>
        <time>2020-07-22T07:42:06Z</time>
      </trkpt>
      <trkpt lat="42.8364610" lon="2.0273950">
        <ele>865.0</ele>
        <time>2020-07-22T07:42:08Z</time>
      </trkpt>
      <trkpt lat="42.8362930" lon="2.0270120">
        <ele>865.6</ele>
        <time>2020-07-22T07:42:14Z</time>
      </trkpt>
      <trkpt lat="42.8362630" lon="2.0269550">
        <ele>865.8</ele>
        <time>2020-07-22T07:42:15Z</time>
      </trkpt>
      <trkpt lat="42.8362340" lon="2.0268990">
        <ele>866.0</ele>
        <time>2020-07-22T07:42:16Z</time>
      </trkpt>
      <trkpt lat="42.8361090" lon="2.0266850">
        <ele>866.8</ele>
        <time>2020-07-22T07:42:20Z</time>
      </trkpt>
      <trkpt lat="42.8360040" lon="2.0265410">
        <ele>867.0</ele>
        <time>2020-07-22T07:42:23Z</time>
      </trkpt>
      <trkpt lat="42.8359680" lon="2.0264940">
        <ele>867.2</ele>
        <time>2020-07-22T07:42:24Z</time>
      </trkpt>
      <trkpt lat="42.8358050" lon="2.0263260">
        <ele>867.8</ele>
        <time>2020-07-22T07:42:28Z</time>
      </trkpt>
      <trkpt lat="42.8357130" lon="2.0262470">
        <ele>868.0</ele>
        <time>2020-07-22T07:42:30Z</time>
      </trkpt>
      <trkpt lat="42.8353910" lon="2.0260600">
        <ele>866.8</ele>
        <time>2020-07-22T07:42:36Z</time>
      </trkpt>
      <trkpt lat="42.8352000" lon="2.0259820">
        <ele>866.0</ele>
        <time>2020-07-22T07:42:39Z</time>
      </trkpt>
      <trkpt lat="42.8349990" lon="2.0259050">
        <ele>865.4</ele>
        <time>2020-07-22T07:42:42Z</time>
      </trkpt>
      <trkpt lat="42.8348590" lon="2.0258570">
        <ele>865.2</ele>
        <time>2020-07-22T07:42:44Z</time>
      </trkpt>
      <trkpt lat="42.8346380" lon="2.0257860">
        <ele>865.0</ele>
        <time>2020-07-22T07:42:47Z</time>
      </trkpt>
      <trkpt lat="42.8344900" lon="2.0257380">
        <ele>864.4</ele>
        <time>2020-07-22T07:42:49Z</time>
      </trkpt>
      <trkpt lat="42.8344150" lon="2.0257150">
        <ele>864.0</ele>
        <time>2020-07-22T07:42:50Z</time>
      </trkpt>
      <trkpt lat="42.8341850" lon="2.0256460">
        <ele>862.8</ele>
        <time>2020-07-22T07:42:53Z</time>
      </trkpt>
      <trkpt lat="42.8338220" lon="2.0255230">
        <ele>862.2</ele>
        <time>2020-07-22T07:42:58Z</time>
      </trkpt>
      <trkpt lat="42.8337480" lon="2.0255010">
        <ele>862.0</ele>
        <time>2020-07-22T07:42:59Z</time>
      </trkpt>
      <trkpt lat="42.8333880" lon="2.0253860">
        <ele>862.2</ele>
        <time>2020-07-22T07:43:04Z</time>
      </trkpt>
      <trkpt lat="42.8331790" lon="2.0253370">
        <ele>862.6</ele>
        <time>2020-07-22T07:43:07Z</time>
      </trkpt>
      <trkpt lat="42.8329080" lon="2.0252660">
        <ele>864.0</ele>
        <time>2020-07-22T07:43:11Z</time>
      </trkpt>
      <trkpt lat="42.8326510" lon="2.0251890">
        <ele>864.4</ele>
        <time>2020-07-22T07:43:15Z</time>
      </trkpt>
      <trkpt lat="42.8325900" lon="2.0251690">
        <ele>864.4</ele>
        <time>2020-07-22T07:43:16Z</time>
      </trkpt>
      <trkpt lat="42.8322150" lon="2.0250620">
        <ele>864.8</ele>
        <time>2020-07-22T07:43:22Z</time>
      </trkpt>
      <trkpt lat="42.8321520" lon="2.0250440">
        <ele>865.2</ele>
        <time>2020-07-22T07:43:23Z</time>
      </trkpt>
      <trkpt lat="42.8319030" lon="2.0249670">
        <ele>865.4</ele>
        <time>2020-07-22T07:43:27Z</time>
      </trkpt>
      <trkpt lat="42.8315300" lon="2.0248620">
        <ele>865.4</ele>
        <time>2020-07-22T07:43:33Z</time>
      </trkpt>
      <trkpt lat="42.8314060" lon="2.0248280">
        <ele>866.0</ele>
        <time>2020-07-22T07:43:35Z</time>
      </trkpt>
      <trkpt lat="42.8310300" lon="2.0247200">
        <ele>865.8</ele>
        <time>2020-07-22T07:43:41Z</time>
      </trkpt>
      <trkpt lat="42.8309680" lon="2.0247000">
        <ele>865.8</ele>
        <time>2020-07-22T07:43:42Z</time>
      </trkpt>
      <trkpt lat="42.8309050" lon="2.0246810">
        <ele>865.8</ele>
        <time>2020-07-22T07:43:43Z</time>
      </trkpt>
      <trkpt lat="42.8306570" lon="2.0246090">
        <ele>866.2</ele>
        <time>2020-07-22T07:43:47Z</time>
      </trkpt>
      <trkpt lat="42.8302950" lon="2.0244980">
        <ele>866.6</ele>
        <time>2020-07-22T07:43:53Z</time>
      </trkpt>
      <trkpt lat="42.8300560" lon="2.0244200">
        <ele>866.2</ele>
        <time>2020-07-22T07:43:57Z</time>
      </trkpt>
      <trkpt lat="42.8299960" lon="2.0244030">
        <ele>866.2</ele>
        <time>2020-07-22T07:43:58Z</time>
      </trkpt>
      <trkpt lat="42.8299360" lon="2.0243830">
        <ele>866.2</ele>
        <time>2020-07-22T07:43:59Z</time>
      </trkpt>
      <trkpt lat="42.8298110" lon="2.0243450">
        <ele>866.8</ele>
        <time>2020-07-22T07:44:01Z</time>
      </trkpt>
      <trkpt lat="42.8296850" lon="2.0243100">
        <ele>867.4</ele>
        <time>2020-07-22T07:44:03Z</time>
      </trkpt>
      <trkpt lat="42.8293780" lon="2.0242080">
        <ele>867.4</ele>
        <time>2020-07-22T07:44:08Z</time>
      </trkpt>
      <trkpt lat="42.8289980" lon="2.0241060">
        <ele>868.4</ele>
        <time>2020-07-22T07:44:14Z</time>
      </trkpt>
      <trkpt lat="42.8289340" lon="2.0240890">
        <ele>868.4</ele>
        <time>2020-07-22T07:44:15Z</time>
      </trkpt>
      <trkpt lat="42.8288030" lon="2.0240540">
        <ele>868.6</ele>
        <time>2020-07-22T07:44:17Z</time>
      </trkpt>
      <trkpt lat="42.8284310" lon="2.0239490">
        <ele>869.4</ele>
        <time>2020-07-22T07:44:23Z</time>
      </trkpt>
      <trkpt lat="42.8283190" lon="2.0239110">
        <ele>869.2</ele>
        <time>2020-07-22T07:44:25Z</time>
      </trkpt>
      <trkpt lat="42.8279690" lon="2.0238010">
        <ele>868.8</ele>
        <time>2020-07-22T07:44:31Z</time>
      </trkpt>
      <trkpt lat="42.8278520" lon="2.0237700">
        <ele>869.2</ele>
        <time>2020-07-22T07:44:33Z</time>
      </trkpt>
      <trkpt lat="42.8277940" lon="2.0237580">
        <ele>869.4</ele>
        <time>2020-07-22T07:44:34Z</time>
      </trkpt>
      <trkpt lat="42.8274440" lon="2.0236670">
        <ele>870.2</ele>
        <time>2020-07-22T07:44:40Z</time>
      </trkpt>
      <trkpt lat="42.8273850" lon="2.0236420">
        <ele>870.0</ele>
        <time>2020-07-22T07:44:41Z</time>
      </trkpt>
      <trkpt lat="42.8270530" lon="2.0235350">
        <ele>869.6</ele>
        <time>2020-07-22T07:44:47Z</time>
      </trkpt>
      <trkpt lat="42.8269980" lon="2.0235180">
        <ele>869.8</ele>
        <time>2020-07-22T07:44:48Z</time>
      </trkpt>
      <trkpt lat="42.8266540" lon="2.0234200">
        <ele>869.8</ele>
        <time>2020-07-22T07:44:54Z</time>
      </trkpt>
      <trkpt lat="42.8265390" lon="2.0233810">
        <ele>869.6</ele>
        <time>2020-07-22T07:44:56Z</time>
      </trkpt>
      <trkpt lat="42.8264260" lon="2.0233500">
        <ele>869.8</ele>
        <time>2020-07-22T07:44:58Z</time>
      </trkpt>
      <trkpt lat="42.8263110" lon="2.0233180">
        <ele>870.0</ele>
        <time>2020-07-22T07:45:00Z</time>
      </trkpt>
      <trkpt lat="42.8261960" lon="2.0232880">
        <ele>870.0</ele>
        <time>2020-07-22T07:45:02Z</time>
      </trkpt>
      <trkpt lat="42.8259230" lon="2.0232010">
        <ele>870.2</ele>
        <time>2020-07-22T07:45:07Z</time>
      </trkpt>
      <trkpt lat="42.8257710" lon="2.0231510">
        <ele>870.2</ele>
        <time>2020-07-22T07:45:09Z</time>
      </trkpt>
      <trkpt lat="42.8256350" lon="2.0230710">
        <ele>870.2</ele>
        <time>2020-07-22T07:45:13Z</time>
      </trkpt>
      <trkpt lat="42.8255550" lon="2.0230170">
        <ele>870.2</ele>
        <time>2020-07-22T07:45:15Z</time>
      </trkpt>
      <trkpt lat="42.8254780" lon="2.0230150">
        <ele>870.2</ele>
        <time>2020-07-22T07:45:17Z</time>
      </trkpt>
      <trkpt lat="42.8253890" lon="2.0231270">
        <ele>870.4</ele>
        <time>2020-07-22T07:45:20Z</time>
      </trkpt>
      <trkpt lat="42.8253660" lon="2.0231780">
        <ele>870.6</ele>
        <time>2020-07-22T07:45:21Z</time>
      </trkpt>
      <trkpt lat="42.8252880" lon="2.0233370">
        <ele>871.4</ele>
        <time>2020-07-22T07:45:24Z</time>
      </trkpt>
      <trkpt lat="42.8252670" lon="2.0233910">
        <ele>871.8</ele>
        <time>2020-07-22T07:45:25Z</time>
      </trkpt>
      <trkpt lat="42.8252320" lon="2.0235000">
        <ele>872.6</ele>
        <time>2020-07-22T07:45:27Z</time>
      </trkpt>
      <trkpt lat="42.8252040" lon="2.0236120">
        <ele>873.2</ele>
        <time>2020-07-22T07:45:29Z</time>
      </trkpt>
      <trkpt lat="42.8251620" lon="2.0239080">
        <ele>874.2</ele>
        <time>2020-07-22T07:45:34Z</time>
      </trkpt>
      <trkpt lat="42.8251570" lon="2.0239660">
        <ele>874.4</ele>
        <time>2020-07-22T07:45:35Z</time>
      </trkpt>
      <trkpt lat="42.8251500" lon="2.0240780">
        <ele>875.2</ele>
        <time>2020-07-22T07:45:37Z</time>
      </trkpt>
      <trkpt lat="42.8251460" lon="2.0241330">
        <ele>875.4</ele>
        <time>2020-07-22T07:45:38Z</time>
      </trkpt>
      <trkpt lat="42.8251310" lon="2.0243660">
        <ele>876.0</ele>
        <time>2020-07-22T07:45:43Z</time>
      </trkpt>
      <trkpt lat="42.8250900" lon="2.0246260">
        <ele>875.8</ele>
        <time>2020-07-22T07:45:49Z</time>
      </trkpt>
      <trkpt lat="42.8250540" lon="2.0248340">
        <ele>875.6</ele>
        <time>2020-07-22T07:45:52Z</time>
      </trkpt>
      <trkpt lat="42.8250270" lon="2.0249910">
        <ele>875.4</ele>
        <time>2020-07-22T07:45:54Z</time>
      </trkpt>
      <trkpt lat="42.8249790" lon="2.0252370">
        <ele>875.2</ele>
        <time>2020-07-22T07:45:57Z</time>
      </trkpt>
      <trkpt lat="42.8249050" lon="2.0255690">
        <ele>875.0</ele>
        <time>2020-07-22T07:46:01Z</time>
      </trkpt>
      <trkpt lat="42.8248190" lon="2.0259020">
        <ele>874.4</ele>
        <time>2020-07-22T07:46:05Z</time>
      </trkpt>
      <trkpt lat="42.8246940" lon="2.0264050">
        <ele>874.6</ele>
        <time>2020-07-22T07:46:11Z</time>
      </trkpt>
      <trkpt lat="42.8245210" lon="2.0268380">
        <ele>875.2</ele>
        <time>2020-07-22T07:46:17Z</time>
      </trkpt>
      <trkpt lat="42.8243870" lon="2.0270650">
        <ele>876.4</ele>
        <time>2020-07-22T07:46:21Z</time>
      </trkpt>
      <trkpt lat="42.8243180" lon="2.0271610">
        <ele>876.6</ele>
        <time>2020-07-22T07:46:23Z</time>
      </trkpt>
      <trkpt lat="42.8242130" lon="2.0272910">
        <ele>877.4</ele>
        <time>2020-07-22T07:46:26Z</time>
      </trkpt>
      <trkpt lat="42.8240660" lon="2.0274400">
        <ele>878.4</ele>
        <time>2020-07-22T07:46:30Z</time>
      </trkpt>
      <trkpt lat="42.8239900" lon="2.0275090">
        <ele>879.0</ele>
        <time>2020-07-22T07:46:32Z</time>
      </trkpt>
      <trkpt lat="42.8239150" lon="2.0275720">
        <ele>879.6</ele>
        <time>2020-07-22T07:46:34Z</time>
      </trkpt>
      <trkpt lat="42.8237530" lon="2.0276720">
        <ele>881.0</ele>
        <time>2020-07-22T07:46:38Z</time>
      </trkpt>
      <trkpt lat="42.8236690" lon="2.0277130">
        <ele>881.6</ele>
        <time>2020-07-22T07:46:40Z</time>
      </trkpt>
      <trkpt lat="42.8235840" lon="2.0277490">
        <ele>882.2</ele>
        <time>2020-07-22T07:46:42Z</time>
      </trkpt>
      <trkpt lat="42.8233090" lon="2.0278430">
        <ele>882.6</ele>
        <time>2020-07-22T07:46:48Z</time>
      </trkpt>
      <trkpt lat="42.8232600" lon="2.0278510">
        <ele>882.8</ele>
        <time>2020-07-22T07:46:49Z</time>
      </trkpt>
      <trkpt lat="42.8229480" lon="2.0278540">
        <ele>883.2</ele>
        <time>2020-07-22T07:46:55Z</time>
      </trkpt>
      <trkpt lat="42.8228930" lon="2.0278460">
        <ele>883.2</ele>
        <time>2020-07-22T07:46:56Z</time>
      </trkpt>
      <trkpt lat="42.8226000" lon="2.0277760">
        <ele>882.0</ele>
        <time>2020-07-22T07:47:01Z</time>
      </trkpt>
      <trkpt lat="42.8224820" lon="2.0277260">
        <ele>881.8</ele>
        <time>2020-07-22T07:47:03Z</time>
      </trkpt>
      <trkpt lat="42.8224240" lon="2.0276960">
        <ele>881.8</ele>
        <time>2020-07-22T07:47:04Z</time>
      </trkpt>
      <trkpt lat="42.8223090" lon="2.0276330">
        <ele>881.8</ele>
        <time>2020-07-22T07:47:06Z</time>
      </trkpt>
      <trkpt lat="42.8220850" lon="2.0274920">
        <ele>881.4</ele>
        <time>2020-07-22T07:47:10Z</time>
      </trkpt>
      <trkpt lat="42.8219700" lon="2.0274190">
        <ele>881.2</ele>
        <time>2020-07-22T07:47:11Z</time>
      </trkpt>
      <trkpt lat="42.8219400" lon="2.0274050">
        <ele>881.2</ele>
        <time>2020-07-22T07:47:12Z</time>
      </trkpt>
      <trkpt lat="42.8219100" lon="2.0273920">
        <ele>881.2</ele>
        <time>2020-07-22T07:47:13Z</time>
      </trkpt>
      <trkpt lat="42.8218030" lon="2.0273590">
        <ele>881.0</ele>
        <time>2020-07-22T07:47:14Z</time>
      </trkpt>
      <trkpt lat="42.8217560" lon="2.0273520">
        <ele>881.0</ele>
        <time>2020-07-22T07:47:15Z</time>
      </trkpt>
      <trkpt lat="42.8216620" lon="2.0273390">
        <ele>881.0</ele>
        <time>2020-07-22T07:47:16Z</time>
      </trkpt>
      <trkpt lat="42.8214740" lon="2.0273780">
        <ele>881.0</ele>
        <time>2020-07-22T07:47:20Z</time>
      </trkpt>
      <trkpt lat="42.8214120" lon="2.0274050">
        <ele>881.0</ele>
        <time>2020-07-22T07:47:21Z</time>
      </trkpt>
      <trkpt lat="42.8212950" lon="2.0274850">
        <ele>881.0</ele>
        <time>2020-07-22T07:47:22Z</time>
      </trkpt>
      <trkpt lat="42.8211890" lon="2.0275910">
        <ele>880.6</ele>
        <time>2020-07-22T07:47:25Z</time>
      </trkpt>
      <trkpt lat="42.8210590" lon="2.0277890">
        <ele>880.6</ele>
        <time>2020-07-22T07:47:28Z</time>
      </trkpt>
      <trkpt lat="42.8210270" lon="2.0278620">
        <ele>880.6</ele>
        <time>2020-07-22T07:47:29Z</time>
      </trkpt>
      <trkpt lat="42.8209800" lon="2.0280050">
        <ele>881.2</ele>
        <time>2020-07-22T07:47:31Z</time>
      </trkpt>
      <trkpt lat="42.8209550" lon="2.0281330">
        <ele>881.6</ele>
        <time>2020-07-22T07:47:33Z</time>
      </trkpt>
      <trkpt lat="42.8209410" lon="2.0282460">
        <ele>882.0</ele>
        <time>2020-07-22T07:47:35Z</time>
      </trkpt>
      <trkpt lat="42.8209430" lon="2.0283130">
        <ele>882.4</ele>
        <time>2020-07-22T07:47:37Z</time>
      </trkpt>
      <trkpt lat="42.8209670" lon="2.0282660">
        <ele>882.8</ele>
        <time>2020-07-22T07:47:40Z</time>
      </trkpt>
      <trkpt lat="42.8209850" lon="2.0281350">
        <ele>883.0</ele>
        <time>2020-07-22T07:47:43Z</time>
      </trkpt>
      <trkpt lat="42.8209850" lon="2.0280930">
        <ele>883.0</ele>
        <time>2020-07-22T07:47:44Z</time>
      </trkpt>
      <trkpt lat="42.8209350" lon="2.0281730">
        <ele>882.8</ele>
        <time>2020-07-22T07:48:04Z</time>
      </trkpt>
      <trkpt lat="42.8209280" lon="2.0282180">
        <ele>882.8</ele>
        <time>2020-07-22T07:48:05Z</time>
      </trkpt>
      <trkpt lat="42.8209180" lon="2.0284540">
        <ele>883.2</ele>
        <time>2020-07-22T07:48:09Z</time>
      </trkpt>
      <trkpt lat="42.8209340" lon="2.0286720">
        <ele>882.6</ele>
        <time>2020-07-22T07:48:12Z</time>
      </trkpt>
      <trkpt lat="42.8209740" lon="2.0288210">
        <ele>882.4</ele>
        <time>2020-07-22T07:48:14Z</time>
      </trkpt>
      <trkpt lat="42.8210880" lon="2.0290240">
        <ele>882.2</ele>
        <time>2020-07-22T07:48:17Z</time>
      </trkpt>
      <trkpt lat="42.8211360" lon="2.0290870">
        <ele>882.0</ele>
        <time>2020-07-22T07:48:18Z</time>
      </trkpt>
      <trkpt lat="42.8211890" lon="2.0291460">
        <ele>881.8</ele>
        <time>2020-07-22T07:48:19Z</time>
      </trkpt>
      <trkpt lat="42.8214200" lon="2.0293880">
        <ele>880.6</ele>
        <time>2020-07-22T07:48:23Z</time>
      </trkpt>
      <trkpt lat="42.8214700" lon="2.0294630">
        <ele>880.2</ele>
        <time>2020-07-22T07:48:24Z</time>
      </trkpt>
      <trkpt lat="42.8215130" lon="2.0295470">
        <ele>879.6</ele>
        <time>2020-07-22T07:48:25Z</time>
      </trkpt>
      <trkpt lat="42.8215490" lon="2.0296390">
        <ele>879.0</ele>
        <time>2020-07-22T07:48:26Z</time>
      </trkpt>
      <trkpt lat="42.8215800" lon="2.0297380">
        <ele>878.6</ele>
        <time>2020-07-22T07:48:27Z</time>
      </trkpt>
      <trkpt lat="42.8216060" lon="2.0298420">
        <ele>878.2</ele>
        <time>2020-07-22T07:48:28Z</time>
      </trkpt>
      <trkpt lat="42.8216920" lon="2.0302300">
        <ele>877.2</ele>
        <time>2020-07-22T07:48:32Z</time>
      </trkpt>
      <trkpt lat="42.8217140" lon="2.0303040">
        <ele>877.2</ele>
        <time>2020-07-22T07:48:33Z</time>
      </trkpt>
      <trkpt lat="42.8218050" lon="2.0304870">
        <ele>877.2</ele>
        <time>2020-07-22T07:48:36Z</time>
      </trkpt>
      <trkpt lat="42.8218460" lon="2.0305400">
        <ele>877.0</ele>
        <time>2020-07-22T07:48:37Z</time>
      </trkpt>
      <trkpt lat="42.8218950" lon="2.0305880">
        <ele>876.8</ele>
        <time>2020-07-22T07:48:38Z</time>
      </trkpt>
      <trkpt lat="42.8219500" lon="2.0306300">
        <ele>876.6</ele>
        <time>2020-07-22T07:48:39Z</time>
      </trkpt>
      <trkpt lat="42.8220070" lon="2.0306690">
        <ele>876.2</ele>
        <time>2020-07-22T07:48:40Z</time>
      </trkpt>
      <trkpt lat="42.8220640" lon="2.0307080">
        <ele>876.0</ele>
        <time>2020-07-22T07:48:41Z</time>
      </trkpt>
      <trkpt lat="42.8221200" lon="2.0307470">
        <ele>875.6</ele>
        <time>2020-07-22T07:48:42Z</time>
      </trkpt>
      <trkpt lat="42.8221760" lon="2.0307870">
        <ele>875.4</ele>
        <time>2020-07-22T07:48:43Z</time>
      </trkpt>
      <trkpt lat="42.8222300" lon="2.0308280">
        <ele>875.0</ele>
        <time>2020-07-22T07:48:44Z</time>
      </trkpt>
      <trkpt lat="42.8222840" lon="2.0308740">
        <ele>874.6</ele>
        <time>2020-07-22T07:48:45Z</time>
      </trkpt>
      <trkpt lat="42.8223360" lon="2.0309260">
        <ele>874.4</ele>
        <time>2020-07-22T07:48:46Z</time>
      </trkpt>
      <trkpt lat="42.8223870" lon="2.0309810">
        <ele>874.0</ele>
        <time>2020-07-22T07:48:47Z</time>
      </trkpt>
      <trkpt lat="42.8225450" lon="2.0311680">
        <ele>873.4</ele>
        <time>2020-07-22T07:48:49Z</time>
      </trkpt>
      <trkpt lat="42.8226520" lon="2.0313180">
        <ele>872.2</ele>
        <time>2020-07-22T07:48:52Z</time>
      </trkpt>
      <trkpt lat="42.8227300" lon="2.0314230">
        <ele>871.8</ele>
        <time>2020-07-22T07:48:53Z</time>
      </trkpt>
      <trkpt lat="42.8228860" lon="2.0316340">
        <ele>871.0</ele>
        <time>2020-07-22T07:48:55Z</time>
      </trkpt>
      <trkpt lat="42.8229890" lon="2.0317850">
        <ele>870.2</ele>
        <time>2020-07-22T07:48:57Z</time>
      </trkpt>
      <trkpt lat="42.8229890" lon="2.0317850">
        <ele>869.6</ele>
        <time>2020-07-22T07:48:58Z</time>
      </trkpt>
      <trkpt lat="42.8230490" lon="2.0319160">
        <ele>869.0</ele>
        <time>2020-07-22T07:49:00Z</time>
      </trkpt>
      <trkpt lat="42.8231190" lon="2.0322690">
        <ele>867.2</ele>
        <time>2020-07-22T07:49:51Z</time>
      </trkpt>
      <trkpt lat="42.8231170" lon="2.0322970">
        <ele>867.2</ele>
        <time>2020-07-22T07:49:52Z</time>
      </trkpt>
      <trkpt lat="42.8230950" lon="2.0326660">
        <ele>866.2</ele>
        <time>2020-07-22T07:49:56Z</time>
      </trkpt>
      <trkpt lat="42.8230950" lon="2.0326660">
        <ele>865.8</ele>
        <time>2020-07-22T07:49:57Z</time>
      </trkpt>
      <trkpt lat="42.8230880" lon="2.0328470">
        <ele>865.0</ele>
        <time>2020-07-22T07:49:59Z</time>
      </trkpt>
      <trkpt lat="42.8230880" lon="2.0331500">
        <ele>864.2</ele>
        <time>2020-07-22T07:50:02Z</time>
      </trkpt>
      <trkpt lat="42.8231000" lon="2.0332560">
        <ele>863.8</ele>
        <time>2020-07-22T07:50:03Z</time>
      </trkpt>
      <trkpt lat="42.8231220" lon="2.0333630">
        <ele>863.4</ele>
        <time>2020-07-22T07:50:04Z</time>
      </trkpt>
      <trkpt lat="42.8231890" lon="2.0335620">
        <ele>862.0</ele>
        <time>2020-07-22T07:50:06Z</time>
      </trkpt>
      <trkpt lat="42.8232850" lon="2.0337300">
        <ele>861.4</ele>
        <time>2020-07-22T07:50:07Z</time>
      </trkpt>
      <trkpt lat="42.8233440" lon="2.0338060">
        <ele>860.8</ele>
        <time>2020-07-22T07:50:08Z</time>
      </trkpt>
      <trkpt lat="42.8235130" lon="2.0340220">
        <ele>859.8</ele>
        <time>2020-07-22T07:50:12Z</time>
      </trkpt>
      <trkpt lat="42.8235520" lon="2.0340990">
        <ele>859.6</ele>
        <time>2020-07-22T07:50:13Z</time>
      </trkpt>
      <trkpt lat="42.8235860" lon="2.0342600">
        <ele>859.4</ele>
        <time>2020-07-22T07:50:15Z</time>
      </trkpt>
      <trkpt lat="42.8234980" lon="2.0344430">
        <ele>858.6</ele>
        <time>2020-07-22T07:50:17Z</time>
      </trkpt>
      <trkpt lat="42.8234440" lon="2.0344630">
        <ele>857.8</ele>
        <time>2020-07-22T07:50:18Z</time>
      </trkpt>
      <trkpt lat="42.8233890" lon="2.0344580">
        <ele>857.4</ele>
        <time>2020-07-22T07:50:19Z</time>
      </trkpt>
      <trkpt lat="42.8233440" lon="2.0344180">
        <ele>857.0</ele>
        <time>2020-07-22T07:50:20Z</time>
      </trkpt>
      <trkpt lat="42.8232680" lon="2.0342770">
        <ele>856.2</ele>
        <time>2020-07-22T07:50:22Z</time>
      </trkpt>
      <trkpt lat="42.8232330" lon="2.0341900">
        <ele>855.8</ele>
        <time>2020-07-22T07:50:23Z</time>
      </trkpt>
      <trkpt lat="42.8231560" lon="2.0340050">
        <ele>855.2</ele>
        <time>2020-07-22T07:50:25Z</time>
      </trkpt>
      <trkpt lat="42.8230630" lon="2.0338170">
        <ele>854.2</ele>
        <time>2020-07-22T07:50:27Z</time>
      </trkpt>
      <trkpt lat="42.8230100" lon="2.0337220">
        <ele>853.6</ele>
        <time>2020-07-22T07:50:28Z</time>
      </trkpt>
      <trkpt lat="42.8229090" lon="2.0335050">
        <ele>853.0</ele>
        <time>2020-07-22T07:50:30Z</time>
      </trkpt>
      <trkpt lat="42.8228040" lon="2.0332800">
        <ele>852.0</ele>
        <time>2020-07-22T07:50:32Z</time>
      </trkpt>
      <trkpt lat="42.8227510" lon="2.0331660">
        <ele>851.2</ele>
        <time>2020-07-22T07:50:33Z</time>
      </trkpt>
      <trkpt lat="42.8227000" lon="2.0330530">
        <ele>850.2</ele>
        <time>2020-07-22T07:50:34Z</time>
      </trkpt>
      <trkpt lat="42.8225910" lon="2.0328410">
        <ele>849.0</ele>
        <time>2020-07-22T07:50:36Z</time>
      </trkpt>
      <trkpt lat="42.8224570" lon="2.0326670">
        <ele>847.8</ele>
        <time>2020-07-22T07:50:38Z</time>
      </trkpt>
      <trkpt lat="42.8223820" lon="2.0325900">
        <ele>846.8</ele>
        <time>2020-07-22T07:50:40Z</time>
      </trkpt>
      <trkpt lat="42.8222230" lon="2.0324560">
        <ele>845.8</ele>
        <time>2020-07-22T07:50:42Z</time>
      </trkpt>
      <trkpt lat="42.8220600" lon="2.0323230">
        <ele>844.8</ele>
        <time>2020-07-22T07:50:44Z</time>
      </trkpt>
      <trkpt lat="42.8218240" lon="2.0321110">
        <ele>843.4</ele>
        <time>2020-07-22T07:50:47Z</time>
      </trkpt>
      <trkpt lat="42.8216030" lon="2.0318570">
        <ele>842.0</ele>
        <time>2020-07-22T07:50:49Z</time>
      </trkpt>
      <trkpt lat="42.8214500" lon="2.0317070">
        <ele>840.6</ele>
        <time>2020-07-22T07:50:51Z</time>
      </trkpt>
      <trkpt lat="42.8214080" lon="2.0316800">
        <ele>839.6</ele>
        <time>2020-07-22T07:50:52Z</time>
      </trkpt>
      <trkpt lat="42.8213660" lon="2.0316530">
        <ele>838.6</ele>
        <time>2020-07-22T07:50:53Z</time>
      </trkpt>
      <trkpt lat="42.8212820" lon="2.0316000">
        <ele>838.0</ele>
        <time>2020-07-22T07:50:54Z</time>
      </trkpt>
      <trkpt lat="42.8211100" lon="2.0315220">
        <ele>837.0</ele>
        <time>2020-07-22T07:50:56Z</time>
      </trkpt>
      <trkpt lat="42.8208530" lon="2.0314800">
        <ele>835.6</ele>
        <time>2020-07-22T07:50:58Z</time>
      </trkpt>
      <trkpt lat="42.8206900" lon="2.0314520">
        <ele>834.8</ele>
        <time>2020-07-22T07:51:00Z</time>
      </trkpt>
      <trkpt lat="42.8206390" lon="2.0314240">
        <ele>834.2</ele>
        <time>2020-07-22T07:51:01Z</time>
      </trkpt>
      <trkpt lat="42.8205880" lon="2.0313970">
        <ele>834.0</ele>
        <time>2020-07-22T07:51:02Z</time>
      </trkpt>
      <trkpt lat="42.8204850" lon="2.0313430">
        <ele>833.6</ele>
        <time>2020-07-22T07:51:03Z</time>
      </trkpt>
      <trkpt lat="42.8203860" lon="2.0312190">
        <ele>833.2</ele>
        <time>2020-07-22T07:51:05Z</time>
      </trkpt>
      <trkpt lat="42.8202840" lon="2.0311140">
        <ele>833.4</ele>
        <time>2020-07-22T07:51:07Z</time>
      </trkpt>
      <trkpt lat="42.8202330" lon="2.0310900">
        <ele>833.4</ele>
        <time>2020-07-22T07:51:08Z</time>
      </trkpt>
      <trkpt lat="42.8201850" lon="2.0310940">
        <ele>833.4</ele>
        <time>2020-07-22T07:51:09Z</time>
      </trkpt>
      <trkpt lat="42.8201170" lon="2.0311830">
        <ele>833.2</ele>
        <time>2020-07-22T07:51:11Z</time>
      </trkpt>
      <trkpt lat="42.8201090" lon="2.0313340">
        <ele>832.2</ele>
        <time>2020-07-22T07:51:13Z</time>
      </trkpt>
      <trkpt lat="42.8201320" lon="2.0314080">
        <ele>831.6</ele>
        <time>2020-07-22T07:51:14Z</time>
      </trkpt>
      <trkpt lat="42.8201670" lon="2.0314770">
        <ele>830.8</ele>
        <time>2020-07-22T07:51:15Z</time>
      </trkpt>
      <trkpt lat="42.8202170" lon="2.0315350">
        <ele>830.6</ele>
        <time>2020-07-22T07:51:16Z</time>
      </trkpt>
      <trkpt lat="42.8202770" lon="2.0315840">
        <ele>830.2</ele>
        <time>2020-07-22T07:51:17Z</time>
      </trkpt>
      <trkpt lat="42.8204100" lon="2.0316800">
        <ele>829.6</ele>
        <time>2020-07-22T07:51:19Z</time>
      </trkpt>
      <trkpt lat="42.8206390" lon="2.0318370">
        <ele>828.0</ele>
        <time>2020-07-22T07:51:22Z</time>
      </trkpt>
      <trkpt lat="42.8207920" lon="2.0319530">
        <ele>826.6</ele>
        <time>2020-07-22T07:51:24Z</time>
      </trkpt>
      <trkpt lat="42.8209220" lon="2.0320800">
        <ele>825.6</ele>
        <time>2020-07-22T07:51:26Z</time>
      </trkpt>
      <trkpt lat="42.8209490" lon="2.0321130">
        <ele>825.2</ele>
        <time>2020-07-22T07:51:27Z</time>
      </trkpt>
      <trkpt lat="42.8209760" lon="2.0321460">
        <ele>824.8</ele>
        <time>2020-07-22T07:51:28Z</time>
      </trkpt>
      <trkpt lat="42.8210290" lon="2.0322120">
        <ele>824.4</ele>
        <time>2020-07-22T07:51:29Z</time>
      </trkpt>
      <trkpt lat="42.8211690" lon="2.0324350">
        <ele>823.0</ele>
        <time>2020-07-22T07:51:32Z</time>
      </trkpt>
      <trkpt lat="42.8212080" lon="2.0325180">
        <ele>822.6</ele>
        <time>2020-07-22T07:51:33Z</time>
      </trkpt>
      <trkpt lat="42.8212650" lon="2.0326800">
        <ele>821.6</ele>
        <time>2020-07-22T07:51:35Z</time>
      </trkpt>
      <trkpt lat="42.8212820" lon="2.0327580">
        <ele>821.4</ele>
        <time>2020-07-22T07:51:36Z</time>
      </trkpt>
      <trkpt lat="42.8213150" lon="2.0329520">
        <ele>820.4</ele>
        <time>2020-07-22T07:51:39Z</time>
      </trkpt>
      <trkpt lat="42.8213350" lon="2.0330520">
        <ele>820.0</ele>
        <time>2020-07-22T07:51:41Z</time>
      </trkpt>
      <trkpt lat="42.8213930" lon="2.0331990">
        <ele>819.4</ele>
        <time>2020-07-22T07:51:44Z</time>
      </trkpt>
      <trkpt lat="42.8214370" lon="2.0332980">
        <ele>819.0</ele>
        <time>2020-07-22T07:51:46Z</time>
      </trkpt>
      <trkpt lat="42.8215030" lon="2.0334160">
        <ele>818.4</ele>
        <time>2020-07-22T07:51:49Z</time>
      </trkpt>
      <trkpt lat="42.8215160" lon="2.0334310">
        <ele>818.2</ele>
        <time>2020-07-22T07:51:50Z</time>
      </trkpt>
      <trkpt lat="42.8215560" lon="2.0334630">
        <ele>817.4</ele>
        <time>2020-07-22T07:52:07Z</time>
      </trkpt>
      <trkpt lat="42.8215750" lon="2.0334830">
        <ele>817.4</ele>
        <time>2020-07-22T07:52:08Z</time>
      </trkpt>
      <trkpt lat="42.8216390" lon="2.0335550">
        <ele>817.2</ele>
        <time>2020-07-22T07:52:10Z</time>
      </trkpt>
      <trkpt lat="42.8217640" lon="2.0337190">
        <ele>816.4</ele>
        <time>2020-07-22T07:52:12Z</time>
      </trkpt>
      <trkpt lat="42.8218040" lon="2.0337930">
        <ele>815.6</ele>
        <time>2020-07-22T07:52:13Z</time>
      </trkpt>
      <trkpt lat="42.8219270" lon="2.0340510">
        <ele>814.4</ele>
        <time>2020-07-22T07:52:16Z</time>
      </trkpt>
      <trkpt lat="42.8220130" lon="2.0342460">
        <ele>813.2</ele>
        <time>2020-07-22T07:52:18Z</time>
      </trkpt>
      <trkpt lat="42.8220830" lon="2.0344620">
        <ele>811.8</ele>
        <time>2020-07-22T07:52:20Z</time>
      </trkpt>
      <trkpt lat="42.8220970" lon="2.0346900">
        <ele>810.6</ele>
        <time>2020-07-22T07:52:22Z</time>
      </trkpt>
      <trkpt lat="42.8220240" lon="2.0350080">
        <ele>809.2</ele>
        <time>2020-07-22T07:52:25Z</time>
      </trkpt>
      <trkpt lat="42.8219850" lon="2.0352200">
        <ele>808.4</ele>
        <time>2020-07-22T07:52:27Z</time>
      </trkpt>
      <trkpt lat="42.8219820" lon="2.0353340">
        <ele>808.0</ele>
        <time>2020-07-22T07:52:28Z</time>
      </trkpt>
      <trkpt lat="42.8219900" lon="2.0354460">
        <ele>807.6</ele>
        <time>2020-07-22T07:52:29Z</time>
      </trkpt>
      <trkpt lat="42.8220220" lon="2.0356680">
        <ele>806.4</ele>
        <time>2020-07-22T07:52:31Z</time>
      </trkpt>
      <trkpt lat="42.8220500" lon="2.0359590">
        <ele>805.0</ele>
        <time>2020-07-22T07:52:34Z</time>
      </trkpt>
      <trkpt lat="42.8220330" lon="2.0360300">
        <ele>804.8</ele>
        <time>2020-07-22T07:52:36Z</time>
      </trkpt>
      <trkpt lat="42.8219490" lon="2.0360930">
        <ele>804.6</ele>
        <time>2020-07-22T07:52:37Z</time>
      </trkpt>
      <trkpt lat="42.8219010" lon="2.0360750">
        <ele>804.2</ele>
        <time>2020-07-22T07:52:38Z</time>
      </trkpt>
      <trkpt lat="42.8218630" lon="2.0360200">
        <ele>803.6</ele>
        <time>2020-07-22T07:52:39Z</time>
      </trkpt>
      <trkpt lat="42.8218300" lon="2.0358540">
        <ele>802.2</ele>
        <time>2020-07-22T07:52:41Z</time>
      </trkpt>
      <trkpt lat="42.8218300" lon="2.0358070">
        <ele>801.6</ele>
        <time>2020-07-22T07:52:42Z</time>
      </trkpt>
      <trkpt lat="42.8218300" lon="2.0357610">
        <ele>800.8</ele>
        <time>2020-07-22T07:52:43Z</time>
      </trkpt>
      <trkpt lat="42.8218290" lon="2.0355570">
        <ele>799.4</ele>
        <time>2020-07-22T07:52:45Z</time>
      </trkpt>
      <trkpt lat="42.8218190" lon="2.0354480">
        <ele>798.8</ele>
        <time>2020-07-22T07:52:46Z</time>
      </trkpt>
      <trkpt lat="42.8218010" lon="2.0353390">
        <ele>798.0</ele>
        <time>2020-07-22T07:52:47Z</time>
      </trkpt>
      <trkpt lat="42.8217520" lon="2.0350200">
        <ele>796.4</ele>
        <time>2020-07-22T07:52:49Z</time>
      </trkpt>
      <trkpt lat="42.8217300" lon="2.0348070">
        <ele>795.2</ele>
        <time>2020-07-22T07:52:51Z</time>
      </trkpt>
      <trkpt lat="42.8217100" lon="2.0347110">
        <ele>794.8</ele>
        <time>2020-07-22T07:52:52Z</time>
      </trkpt>
      <trkpt lat="42.8216810" lon="2.0346180">
        <ele>794.4</ele>
        <time>2020-07-22T07:52:53Z</time>
      </trkpt>
      <trkpt lat="42.8216400" lon="2.0345270">
        <ele>793.8</ele>
        <time>2020-07-22T07:52:54Z</time>
      </trkpt>
      <trkpt lat="42.8215870" lon="2.0344490">
        <ele>793.0</ele>
        <time>2020-07-22T07:52:55Z</time>
      </trkpt>
      <trkpt lat="42.8215240" lon="2.0343850">
        <ele>792.2</ele>
        <time>2020-07-22T07:52:56Z</time>
      </trkpt>
      <trkpt lat="42.8213730" lon="2.0343100">
        <ele>791.4</ele>
        <time>2020-07-22T07:52:58Z</time>
      </trkpt>
      <trkpt lat="42.8213030" lon="2.0342750">
        <ele>791.0</ele>
        <time>2020-07-22T07:52:59Z</time>
      </trkpt>
      <trkpt lat="42.8211530" lon="2.0341890">
        <ele>790.0</ele>
        <time>2020-07-22T07:53:01Z</time>
      </trkpt>
      <trkpt lat="42.8210090" lon="2.0340710">
        <ele>789.2</ele>
        <time>2020-07-22T07:53:03Z</time>
      </trkpt>
      <trkpt lat="42.8209410" lon="2.0339960">
        <ele>788.8</ele>
        <time>2020-07-22T07:53:04Z</time>
      </trkpt>
      <trkpt lat="42.8208080" lon="2.0338270">
        <ele>787.6</ele>
        <time>2020-07-22T07:53:06Z</time>
      </trkpt>
      <trkpt lat="42.8207400" lon="2.0337400">
        <ele>787.0</ele>
        <time>2020-07-22T07:53:07Z</time>
      </trkpt>
      <trkpt lat="42.8206720" lon="2.0336540">
        <ele>786.4</ele>
        <time>2020-07-22T07:53:08Z</time>
      </trkpt>
      <trkpt lat="42.8205450" lon="2.0334900">
        <ele>785.4</ele>
        <time>2020-07-22T07:53:10Z</time>
      </trkpt>
      <trkpt lat="42.8204210" lon="2.0333490">
        <ele>784.2</ele>
        <time>2020-07-22T07:53:12Z</time>
      </trkpt>
      <trkpt lat="42.8203590" lon="2.0332820">
        <ele>783.4</ele>
        <time>2020-07-22T07:53:13Z</time>
      </trkpt>
      <trkpt lat="42.8202950" lon="2.0332200">
        <ele>782.8</ele>
        <time>2020-07-22T07:53:14Z</time>
      </trkpt>
      <trkpt lat="42.8200970" lon="2.0330350">
        <ele>781.8</ele>
        <time>2020-07-22T07:53:17Z</time>
      </trkpt>
      <trkpt lat="42.8199550" lon="2.0329280">
        <ele>780.6</ele>
        <time>2020-07-22T07:53:19Z</time>
      </trkpt>
      <trkpt lat="42.8198790" lon="2.0328860">
        <ele>780.0</ele>
        <time>2020-07-22T07:53:20Z</time>
      </trkpt>
      <trkpt lat="42.8198000" lon="2.0328540">
        <ele>779.2</ele>
        <time>2020-07-22T07:53:21Z</time>
      </trkpt>
      <trkpt lat="42.8195870" lon="2.0327850">
        <ele>778.0</ele>
        <time>2020-07-22T07:53:24Z</time>
      </trkpt>
      <trkpt lat="42.8193600" lon="2.0327670">
        <ele>776.8</ele>
        <time>2020-07-22T07:53:27Z</time>
      </trkpt>
      <trkpt lat="42.8192100" lon="2.0327970">
        <ele>775.8</ele>
        <time>2020-07-22T07:53:29Z</time>
      </trkpt>
      <trkpt lat="42.8190680" lon="2.0329020">
        <ele>774.2</ele>
        <time>2020-07-22T07:53:31Z</time>
      </trkpt>
      <trkpt lat="42.8190050" lon="2.0329860">
        <ele>773.4</ele>
        <time>2020-07-22T07:53:32Z</time>
      </trkpt>
      <trkpt lat="42.8189450" lon="2.0330760">
        <ele>772.8</ele>
        <time>2020-07-22T07:53:33Z</time>
      </trkpt>
      <trkpt lat="42.8187930" lon="2.0333830">
        <ele>771.4</ele>
        <time>2020-07-22T07:53:36Z</time>
      </trkpt>
      <trkpt lat="42.8187650" lon="2.0334960">
        <ele>770.8</ele>
        <time>2020-07-22T07:53:37Z</time>
      </trkpt>
      <trkpt lat="42.8187460" lon="2.0336070">
        <ele>770.0</ele>
        <time>2020-07-22T07:53:38Z</time>
      </trkpt>
      <trkpt lat="42.8187330" lon="2.0337180">
        <ele>769.8</ele>
        <time>2020-07-22T07:53:39Z</time>
      </trkpt>
      <trkpt lat="42.8187090" lon="2.0339270">
        <ele>769.0</ele>
        <time>2020-07-22T07:53:41Z</time>
      </trkpt>
      <trkpt lat="42.8186750" lon="2.0342460">
        <ele>767.6</ele>
        <time>2020-07-22T07:53:44Z</time>
      </trkpt>
      <trkpt lat="42.8186430" lon="2.0344480">
        <ele>766.6</ele>
        <time>2020-07-22T07:53:46Z</time>
      </trkpt>
      <trkpt lat="42.8186280" lon="2.0345480">
        <ele>766.2</ele>
        <time>2020-07-22T07:53:47Z</time>
      </trkpt>
      <trkpt lat="42.8185840" lon="2.0347210">
        <ele>765.2</ele>
        <time>2020-07-22T07:53:49Z</time>
      </trkpt>
      <trkpt lat="42.8185160" lon="2.0349500">
        <ele>764.4</ele>
        <time>2020-07-22T07:53:52Z</time>
      </trkpt>
      <trkpt lat="42.8184960" lon="2.0350280">
        <ele>764.0</ele>
        <time>2020-07-22T07:53:53Z</time>
      </trkpt>
      <trkpt lat="42.8184310" lon="2.0351750">
        <ele>762.6</ele>
        <time>2020-07-22T07:53:55Z</time>
      </trkpt>
      <trkpt lat="42.8183480" lon="2.0353210">
        <ele>761.8</ele>
        <time>2020-07-22T07:53:57Z</time>
      </trkpt>
      <trkpt lat="42.8182990" lon="2.0353860">
        <ele>761.2</ele>
        <time>2020-07-22T07:53:58Z</time>
      </trkpt>
      <trkpt lat="42.8181360" lon="2.0355560">
        <ele>760.2</ele>
        <time>2020-07-22T07:54:01Z</time>
      </trkpt>
      <trkpt lat="42.8180820" lon="2.0356200">
        <ele>760.0</ele>
        <time>2020-07-22T07:54:02Z</time>
      </trkpt>
      <trkpt lat="42.8179190" lon="2.0358360">
        <ele>759.0</ele>
        <time>2020-07-22T07:54:05Z</time>
      </trkpt>
      <trkpt lat="42.8178620" lon="2.0359210">
        <ele>758.4</ele>
        <time>2020-07-22T07:54:06Z</time>
      </trkpt>
      <trkpt lat="42.8177580" lon="2.0360910">
        <ele>757.4</ele>
        <time>2020-07-22T07:54:08Z</time>
      </trkpt>
      <trkpt lat="42.8176560" lon="2.0362610">
        <ele>756.4</ele>
        <time>2020-07-22T07:54:10Z</time>
      </trkpt>
      <trkpt lat="42.8176040" lon="2.0363470">
        <ele>756.0</ele>
        <time>2020-07-22T07:54:11Z</time>
      </trkpt>
      <trkpt lat="42.8174480" lon="2.0366030">
        <ele>755.2</ele>
        <time>2020-07-22T07:54:14Z</time>
      </trkpt>
      <trkpt lat="42.8173470" lon="2.0367780">
        <ele>753.8</ele>
        <time>2020-07-22T07:54:16Z</time>
      </trkpt>
      <trkpt lat="42.8172520" lon="2.0369590">
        <ele>752.2</ele>
        <time>2020-07-22T07:54:18Z</time>
      </trkpt>
      <trkpt lat="42.8171700" lon="2.0371440">
        <ele>751.0</ele>
        <time>2020-07-22T07:54:20Z</time>
      </trkpt>
      <trkpt lat="42.8170780" lon="2.0373000">
        <ele>750.0</ele>
        <time>2020-07-22T07:54:22Z</time>
      </trkpt>
      <trkpt lat="42.8170280" lon="2.0373670">
        <ele>749.4</ele>
        <time>2020-07-22T07:54:23Z</time>
      </trkpt>
      <trkpt lat="42.8169740" lon="2.0374240">
        <ele>748.8</ele>
        <time>2020-07-22T07:54:24Z</time>
      </trkpt>
      <trkpt lat="42.8169220" lon="2.0374740">
        <ele>748.2</ele>
        <time>2020-07-22T07:54:25Z</time>
      </trkpt>
      <trkpt lat="42.8168650" lon="2.0375130">
        <ele>747.8</ele>
        <time>2020-07-22T07:54:26Z</time>
      </trkpt>
      <trkpt lat="42.8168200" lon="2.0375160">
        <ele>747.4</ele>
        <time>2020-07-22T07:54:27Z</time>
      </trkpt>
      <trkpt lat="42.8167750" lon="2.0375180">
        <ele>747.0</ele>
        <time>2020-07-22T07:54:28Z</time>
      </trkpt>
      <trkpt lat="42.8165960" lon="2.0375270">
        <ele>746.2</ele>
        <time>2020-07-22T07:54:30Z</time>
      </trkpt>
      <trkpt lat="42.8165290" lon="2.0375000">
        <ele>745.8</ele>
        <time>2020-07-22T07:54:31Z</time>
      </trkpt>
      <trkpt lat="42.8163970" lon="2.0374220">
        <ele>745.0</ele>
        <time>2020-07-22T07:54:33Z</time>
      </trkpt>
      <trkpt lat="42.8163300" lon="2.0373800">
        <ele>744.2</ele>
        <time>2020-07-22T07:54:34Z</time>
      </trkpt>
      <trkpt lat="42.8161910" lon="2.0372820">
        <ele>743.2</ele>
        <time>2020-07-22T07:54:36Z</time>
      </trkpt>
      <trkpt lat="42.8161240" lon="2.0372280">
        <ele>742.8</ele>
        <time>2020-07-22T07:54:37Z</time>
      </trkpt>
      <trkpt lat="42.8159080" lon="2.0370930">
        <ele>741.2</ele>
        <time>2020-07-22T07:54:40Z</time>
      </trkpt>
      <trkpt lat="42.8156920" lon="2.0369540">
        <ele>739.8</ele>
        <time>2020-07-22T07:54:43Z</time>
      </trkpt>
      <trkpt lat="42.8155400" lon="2.0368950">
        <ele>738.4</ele>
        <time>2020-07-22T07:54:45Z</time>
      </trkpt>
      <trkpt lat="42.8152220" lon="2.0368590">
        <ele>737.2</ele>
        <time>2020-07-22T07:54:49Z</time>
      </trkpt>
      <trkpt lat="42.8150610" lon="2.0368720">
        <ele>736.2</ele>
        <time>2020-07-22T07:54:51Z</time>
      </trkpt>
      <trkpt lat="42.8148970" lon="2.0368640">
        <ele>735.0</ele>
        <time>2020-07-22T07:54:53Z</time>
      </trkpt>
      <trkpt lat="42.8148250" lon="2.0368390">
        <ele>734.6</ele>
        <time>2020-07-22T07:54:54Z</time>
      </trkpt>
      <trkpt lat="42.8145270" lon="2.0366780">
        <ele>733.8</ele>
        <time>2020-07-22T07:54:58Z</time>
      </trkpt>
      <trkpt lat="42.8144490" lon="2.0366310">
        <ele>733.4</ele>
        <time>2020-07-22T07:54:59Z</time>
      </trkpt>
      <trkpt lat="42.8143720" lon="2.0365820">
        <ele>732.6</ele>
        <time>2020-07-22T07:55:00Z</time>
      </trkpt>
      <trkpt lat="42.8142980" lon="2.0365270">
        <ele>731.6</ele>
        <time>2020-07-22T07:55:01Z</time>
      </trkpt>
      <trkpt lat="42.8141580" lon="2.0364040">
        <ele>729.6</ele>
        <time>2020-07-22T07:55:03Z</time>
      </trkpt>
      <trkpt lat="42.8140260" lon="2.0362730">
        <ele>728.2</ele>
        <time>2020-07-22T07:55:05Z</time>
      </trkpt>
      <trkpt lat="42.8139030" lon="2.0361390">
        <ele>727.2</ele>
        <time>2020-07-22T07:55:07Z</time>
      </trkpt>
      <trkpt lat="42.8137820" lon="2.0360130">
        <ele>725.8</ele>
        <time>2020-07-22T07:55:09Z</time>
      </trkpt>
      <trkpt lat="42.8135980" lon="2.0358630">
        <ele>724.6</ele>
        <time>2020-07-22T07:55:12Z</time>
      </trkpt>
      <trkpt lat="42.8134330" lon="2.0357410">
        <ele>723.6</ele>
        <time>2020-07-22T07:55:15Z</time>
      </trkpt>
      <trkpt lat="42.8133790" lon="2.0357170">
        <ele>723.2</ele>
        <time>2020-07-22T07:55:16Z</time>
      </trkpt>
      <trkpt lat="42.8133260" lon="2.0357070">
        <ele>722.8</ele>
        <time>2020-07-22T07:55:17Z</time>
      </trkpt>
      <trkpt lat="42.8132750" lon="2.0357050">
        <ele>722.6</ele>
        <time>2020-07-22T07:55:18Z</time>
      </trkpt>
      <trkpt lat="42.8132270" lon="2.0357090">
        <ele>722.6</ele>
        <time>2020-07-22T07:55:19Z</time>
      </trkpt>
      <trkpt lat="42.8131090" lon="2.0356990">
        <ele>722.2</ele>
        <time>2020-07-22T07:55:22Z</time>
      </trkpt>
      <trkpt lat="42.8129930" lon="2.0356380">
        <ele>721.6</ele>
        <time>2020-07-22T07:55:25Z</time>
      </trkpt>
      <trkpt lat="42.8128490" lon="2.0355540">
        <ele>721.2</ele>
        <time>2020-07-22T07:55:29Z</time>
      </trkpt>
      <trkpt lat="42.8127270" lon="2.0354540">
        <ele>721.8</ele>
        <time>2020-07-22T07:55:35Z</time>
      </trkpt>
      <trkpt lat="42.8128170" lon="2.0355810">
        <ele>721.8</ele>
        <time>2020-07-22T07:56:29Z</time>
      </trkpt>
      <trkpt lat="42.8128010" lon="2.0355670">
        <ele>722.0</ele>
        <time>2020-07-22T07:56:30Z</time>
      </trkpt>
      <trkpt lat="42.8126370" lon="2.0354290">
        <ele>722.2</ele>
        <time>2020-07-22T07:56:34Z</time>
      </trkpt>
      <trkpt lat="42.8125840" lon="2.0353940">
        <ele>722.2</ele>
        <time>2020-07-22T07:56:35Z</time>
      </trkpt>
      <trkpt lat="42.8123140" lon="2.0352200">
        <ele>721.4</ele>
        <time>2020-07-22T07:56:40Z</time>
      </trkpt>
      <trkpt lat="42.8120880" lon="2.0351030">
        <ele>721.2</ele>
        <time>2020-07-22T07:56:44Z</time>
      </trkpt>
      <trkpt lat="42.8119110" lon="2.0350180">
        <ele>721.2</ele>
        <time>2020-07-22T07:56:47Z</time>
      </trkpt>
      <trkpt lat="42.8116140" lon="2.0348810">
        <ele>721.0</ele>
        <time>2020-07-22T07:56:52Z</time>
      </trkpt>
      <trkpt lat="42.8112490" lon="2.0347230">
        <ele>721.0</ele>
        <time>2020-07-22T07:56:58Z</time>
      </trkpt>
      <trkpt lat="42.8110720" lon="2.0346690">
        <ele>722.0</ele>
        <time>2020-07-22T07:57:01Z</time>
      </trkpt>
      <trkpt lat="42.8110200" lon="2.0346540">
        <ele>722.2</ele>
        <time>2020-07-22T07:57:02Z</time>
      </trkpt>
      <trkpt lat="42.8108780" lon="2.0346080">
        <ele>722.6</ele>
        <time>2020-07-22T07:57:05Z</time>
      </trkpt>
      <trkpt lat="42.8108370" lon="2.0345930">
        <ele>722.6</ele>
        <time>2020-07-22T07:57:06Z</time>
      </trkpt>
      <trkpt lat="42.8106470" lon="2.0345410">
        <ele>723.2</ele>
        <time>2020-07-22T07:57:12Z</time>
      </trkpt>
      <trkpt lat="42.8105060" lon="2.0344880">
        <ele>723.6</ele>
        <time>2020-07-22T07:57:17Z</time>
      </trkpt>
      <trkpt lat="42.8104780" lon="2.0344760">
        <ele>723.6</ele>
        <time>2020-07-22T07:57:18Z</time>
      </trkpt>
      <trkpt lat="42.8104470" lon="2.0344670">
        <ele>723.8</ele>
        <time>2020-07-22T07:57:19Z</time>
      </trkpt>
      <trkpt lat="42.8102660" lon="2.0344090">
        <ele>724.6</ele>
        <time>2020-07-22T07:57:24Z</time>
      </trkpt>
      <trkpt lat="42.8101910" lon="2.0343800">
        <ele>724.8</ele>
        <time>2020-07-22T07:57:26Z</time>
      </trkpt>
      <trkpt lat="42.8100140" lon="2.0343190">
        <ele>725.2</ele>
        <time>2020-07-22T07:57:30Z</time>
      </trkpt>
      <trkpt lat="42.8099310" lon="2.0342530">
        <ele>725.4</ele>
        <time>2020-07-22T07:57:32Z</time>
      </trkpt>
      <trkpt lat="42.8098750" lon="2.0341520">
        <ele>725.6</ele>
        <time>2020-07-22T07:57:34Z</time>
      </trkpt>
      <trkpt lat="42.8098380" lon="2.0340210">
        <ele>725.8</ele>
        <time>2020-07-22T07:57:36Z</time>
      </trkpt>
      <trkpt lat="42.8098250" lon="2.0339500">
        <ele>726.0</ele>
        <time>2020-07-22T07:57:37Z</time>
      </trkpt>
      <trkpt lat="42.8097840" lon="2.0337360">
        <ele>726.2</ele>
        <time>2020-07-22T07:57:40Z</time>
      </trkpt>
      <trkpt lat="42.8097010" lon="2.0333280">
        <ele>726.4</ele>
        <time>2020-07-22T07:57:46Z</time>
      </trkpt>
      <trkpt lat="42.8096800" lon="2.0332570">
        <ele>726.4</ele>
        <time>2020-07-22T07:57:47Z</time>
      </trkpt>
      <trkpt lat="42.8096540" lon="2.0331900">
        <ele>726.6</ele>
        <time>2020-07-22T07:57:48Z</time>
      </trkpt>
      <trkpt lat="42.8095540" lon="2.0330060">
        <ele>726.6</ele>
        <time>2020-07-22T07:57:51Z</time>
      </trkpt>
      <trkpt lat="42.8095170" lon="2.0329550">
        <ele>726.6</ele>
        <time>2020-07-22T07:57:52Z</time>
      </trkpt>
      <trkpt lat="42.8094790" lon="2.0329050">
        <ele>726.8</ele>
        <time>2020-07-22T07:57:53Z</time>
      </trkpt>
      <trkpt lat="42.8093990" lon="2.0328110">
        <ele>727.0</ele>
        <time>2020-07-22T07:57:55Z</time>
      </trkpt>
      <trkpt lat="42.8092580" lon="2.0326290">
        <ele>727.8</ele>
        <time>2020-07-22T07:57:59Z</time>
      </trkpt>
      <trkpt lat="42.8092260" lon="2.0325880">
        <ele>728.0</ele>
        <time>2020-07-22T07:58:00Z</time>
      </trkpt>
      <trkpt lat="42.8091120" lon="2.0324620">
        <ele>729.0</ele>
        <time>2020-07-22T07:58:04Z</time>
      </trkpt>
      <trkpt lat="42.8090930" lon="2.0324390">
        <ele>729.2</ele>
        <time>2020-07-22T07:58:05Z</time>
      </trkpt>
      <trkpt lat="42.8090270" lon="2.0323920">
        <ele>730.0</ele>
        <time>2020-07-22T07:58:08Z</time>
      </trkpt>
      <trkpt lat="42.8089570" lon="2.0323400">
        <ele>730.6</ele>
        <time>2020-07-22T07:58:12Z</time>
      </trkpt>
      <trkpt lat="42.8088790" lon="2.0323250">
        <ele>731.0</ele>
        <time>2020-07-22T07:58:17Z</time>
      </trkpt>
      <trkpt lat="42.8088650" lon="2.0323350">
        <ele>731.2</ele>
        <time>2020-07-22T07:58:18Z</time>
      </trkpt>
      <trkpt lat="42.8088490" lon="2.0323370">
        <ele>731.2</ele>
        <time>2020-07-22T07:58:19Z</time>
      </trkpt>
      <trkpt lat="42.8087510" lon="2.0323480">
        <ele>731.6</ele>
        <time>2020-07-22T07:58:23Z</time>
      </trkpt>
      <trkpt lat="42.8087250" lon="2.0323640">
        <ele>731.6</ele>
        <time>2020-07-22T07:58:24Z</time>
      </trkpt>
      <trkpt lat="42.8086690" lon="2.0324510">
        <ele>732.0</ele>
        <time>2020-07-22T07:58:27Z</time>
      </trkpt>
      <trkpt lat="42.8086690" lon="2.0324880">
        <ele>732.4</ele>
        <time>2020-07-22T07:58:28Z</time>
      </trkpt>
      <trkpt lat="42.8087000" lon="2.0325890">
        <ele>733.2</ele>
        <time>2020-07-22T07:58:31Z</time>
      </trkpt>
      <trkpt lat="42.8087100" lon="2.0326240">
        <ele>733.6</ele>
        <time>2020-07-22T07:58:32Z</time>
      </trkpt>
      <trkpt lat="42.8087440" lon="2.0327880">
        <ele>734.6</ele>
        <time>2020-07-22T07:58:37Z</time>
      </trkpt>
      <trkpt lat="42.8087690" lon="2.0328420">
        <ele>735.2</ele>
        <time>2020-07-22T07:58:39Z</time>
      </trkpt>
      <trkpt lat="42.8087840" lon="2.0328610">
        <ele>735.8</ele>
        <time>2020-07-22T07:58:40Z</time>
      </trkpt>
      <trkpt lat="42.8088500" lon="2.0329210">
        <ele>737.2</ele>
        <time>2020-07-22T07:58:43Z</time>
      </trkpt>
      <trkpt lat="42.8088960" lon="2.0329590">
        <ele>737.6</ele>
        <time>2020-07-22T07:58:45Z</time>
      </trkpt>
      <trkpt lat="42.8089390" lon="2.0329990">
        <ele>738.2</ele>
        <time>2020-07-22T07:58:47Z</time>
      </trkpt>
      <trkpt lat="42.8090210" lon="2.0330640">
        <ele>739.2</ele>
        <time>2020-07-22T07:58:51Z</time>
      </trkpt>
      <trkpt lat="42.8090830" lon="2.0331370">
        <ele>740.2</ele>
        <time>2020-07-22T07:58:54Z</time>
      </trkpt>
      <trkpt lat="42.8091010" lon="2.0331680">
        <ele>740.4</ele>
        <time>2020-07-22T07:58:55Z</time>
      </trkpt>
      <trkpt lat="42.8091540" lon="2.0333070">
        <ele>741.6</ele>
        <time>2020-07-22T07:58:59Z</time>
      </trkpt>
      <trkpt lat="42.8091620" lon="2.0333430">
        <ele>741.8</ele>
        <time>2020-07-22T07:59:00Z</time>
      </trkpt>
      <trkpt lat="42.8091680" lon="2.0333770">
        <ele>742.0</ele>
        <time>2020-07-22T07:59:01Z</time>
      </trkpt>
      <trkpt lat="42.8091700" lon="2.0334140">
        <ele>742.4</ele>
        <time>2020-07-22T07:59:02Z</time>
      </trkpt>
      <trkpt lat="42.8091720" lon="2.0334480">
        <ele>742.6</ele>
        <time>2020-07-22T07:59:03Z</time>
      </trkpt>
      <trkpt lat="42.8091710" lon="2.0334820">
        <ele>743.0</ele>
        <time>2020-07-22T07:59:04Z</time>
      </trkpt>
      <trkpt lat="42.8091670" lon="2.0335500">
        <ele>744.0</ele>
        <time>2020-07-22T07:59:06Z</time>
      </trkpt>
      <trkpt lat="42.8091620" lon="2.0335830">
        <ele>744.2</ele>
        <time>2020-07-22T07:59:07Z</time>
      </trkpt>
      <trkpt lat="42.8091340" lon="2.0337110">
        <ele>745.6</ele>
        <time>2020-07-22T07:59:11Z</time>
      </trkpt>
      <trkpt lat="42.8090980" lon="2.0337900">
        <ele>746.6</ele>
        <time>2020-07-22T07:59:14Z</time>
      </trkpt>
      <trkpt lat="42.8090820" lon="2.0338090">
        <ele>746.8</ele>
        <time>2020-07-22T07:59:15Z</time>
      </trkpt>
      <trkpt lat="42.8089910" lon="2.0338390">
        <ele>748.2</ele>
        <time>2020-07-22T07:59:19Z</time>
      </trkpt>
      <trkpt lat="42.8089670" lon="2.0338260">
        <ele>748.8</ele>
        <time>2020-07-22T07:59:20Z</time>
      </trkpt>
      <trkpt lat="42.8089470" lon="2.0338070">
        <ele>749.2</ele>
        <time>2020-07-22T07:59:21Z</time>
      </trkpt>
      <trkpt lat="42.8088960" lon="2.0337430">
        <ele>750.4</ele>
        <time>2020-07-22T07:59:24Z</time>
      </trkpt>
      <trkpt lat="42.8088580" lon="2.0337050">
        <ele>751.0</ele>
        <time>2020-07-22T07:59:26Z</time>
      </trkpt>
      <trkpt lat="42.8088210" lon="2.0336670">
        <ele>751.8</ele>
        <time>2020-07-22T07:59:28Z</time>
      </trkpt>
      <trkpt lat="42.8087560" lon="2.0336000">
        <ele>753.2</ele>
        <time>2020-07-22T07:59:32Z</time>
      </trkpt>
      <trkpt lat="42.8087300" lon="2.0335690">
        <ele>753.6</ele>
        <time>2020-07-22T07:59:34Z</time>
      </trkpt>
      <trkpt lat="42.8086740" lon="2.0335150">
        <ele>754.4</ele>
        <time>2020-07-22T07:59:37Z</time>
      </trkpt>
      <trkpt lat="42.8086090" lon="2.0334580">
        <ele>755.2</ele>
        <time>2020-07-22T07:59:41Z</time>
      </trkpt>
      <trkpt lat="42.8085980" lon="2.0334430">
        <ele>755.4</ele>
        <time>2020-07-22T07:59:42Z</time>
      </trkpt>
      <trkpt lat="42.8085770" lon="2.0334180">
        <ele>755.8</ele>
        <time>2020-07-22T07:59:44Z</time>
      </trkpt>
      <trkpt lat="42.8085270" lon="2.0333640">
        <ele>756.4</ele>
        <time>2020-07-22T07:59:49Z</time>
      </trkpt>
      <trkpt lat="42.8084640" lon="2.0333220">
        <ele>757.0</ele>
        <time>2020-07-22T07:59:53Z</time>
      </trkpt>
      <trkpt lat="42.8084230" lon="2.0333140">
        <ele>757.8</ele>
        <time>2020-07-22T07:59:55Z</time>
      </trkpt>
      <trkpt lat="42.8083400" lon="2.0332990">
        <ele>758.8</ele>
        <time>2020-07-22T07:59:59Z</time>
      </trkpt>
      <trkpt lat="42.8082610" lon="2.0333180">
        <ele>759.4</ele>
        <time>2020-07-22T08:00:02Z</time>
      </trkpt>
      <trkpt lat="42.8082120" lon="2.0333230">
        <ele>759.8</ele>
        <time>2020-07-22T08:00:04Z</time>
      </trkpt>
      <trkpt lat="42.8081890" lon="2.0333280">
        <ele>760.0</ele>
        <time>2020-07-22T08:00:05Z</time>
      </trkpt>
      <trkpt lat="42.8081330" lon="2.0333470">
        <ele>760.8</ele>
        <time>2020-07-22T08:00:08Z</time>
      </trkpt>
      <trkpt lat="42.8081130" lon="2.0333540">
        <ele>761.0</ele>
        <time>2020-07-22T08:00:09Z</time>
      </trkpt>
      <trkpt lat="42.8080140" lon="2.0333980">
        <ele>762.0</ele>
        <time>2020-07-22T08:00:14Z</time>
      </trkpt>
      <trkpt lat="42.8079760" lon="2.0334150">
        <ele>762.6</ele>
        <time>2020-07-22T08:00:16Z</time>
      </trkpt>
      <trkpt lat="42.8079410" lon="2.0334350">
        <ele>763.4</ele>
        <time>2020-07-22T08:00:18Z</time>
      </trkpt>
      <trkpt lat="42.8079210" lon="2.0334450">
        <ele>763.6</ele>
        <time>2020-07-22T08:00:19Z</time>
      </trkpt>
      <trkpt lat="42.8078370" lon="2.0335130">
        <ele>764.4</ele>
        <time>2020-07-22T08:00:23Z</time>
      </trkpt>
      <trkpt lat="42.8078180" lon="2.0335300">
        <ele>764.6</ele>
        <time>2020-07-22T08:00:24Z</time>
      </trkpt>
      <trkpt lat="42.8077980" lon="2.0335470">
        <ele>764.8</ele>
        <time>2020-07-22T08:00:25Z</time>
      </trkpt>
      <trkpt lat="42.8077400" lon="2.0335830">
        <ele>765.6</ele>
        <time>2020-07-22T08:00:28Z</time>
      </trkpt>
      <trkpt lat="42.8077100" lon="2.0336020">
        <ele>766.4</ele>
        <time>2020-07-22T08:00:30Z</time>
      </trkpt>
      <trkpt lat="42.8076800" lon="2.0336290">
        <ele>766.8</ele>
        <time>2020-07-22T08:00:32Z</time>
      </trkpt>
      <trkpt lat="42.8076150" lon="2.0336830">
        <ele>768.0</ele>
        <time>2020-07-22T08:00:36Z</time>
      </trkpt>
      <trkpt lat="42.8075750" lon="2.0336970">
        <ele>768.4</ele>
        <time>2020-07-22T08:00:38Z</time>
      </trkpt>
      <trkpt lat="42.8075400" lon="2.0337250">
        <ele>769.0</ele>
        <time>2020-07-22T08:00:40Z</time>
      </trkpt>
      <trkpt lat="42.8074700" lon="2.0337630">
        <ele>770.2</ele>
        <time>2020-07-22T08:00:44Z</time>
      </trkpt>
      <trkpt lat="42.8074460" lon="2.0337830">
        <ele>770.8</ele>
        <time>2020-07-22T08:00:46Z</time>
      </trkpt>
      <trkpt lat="42.8074200" lon="2.0338010">
        <ele>771.4</ele>
        <time>2020-07-22T08:00:48Z</time>
      </trkpt>
      <trkpt lat="42.8073590" lon="2.0338940">
        <ele>772.4</ele>
        <time>2020-07-22T08:00:52Z</time>
      </trkpt>
      <trkpt lat="42.8073250" lon="2.0339350">
        <ele>772.8</ele>
        <time>2020-07-22T08:00:54Z</time>
      </trkpt>
      <trkpt lat="42.8072780" lon="2.0339860">
        <ele>773.6</ele>
        <time>2020-07-22T08:00:56Z</time>
      </trkpt>
      <trkpt lat="42.8072280" lon="2.0340420">
        <ele>774.6</ele>
        <time>2020-07-22T08:00:59Z</time>
      </trkpt>
      <trkpt lat="42.8072130" lon="2.0340590">
        <ele>775.0</ele>
        <time>2020-07-22T08:01:00Z</time>
      </trkpt>
      <trkpt lat="42.8071650" lon="2.0341090">
        <ele>775.6</ele>
        <time>2020-07-22T08:01:03Z</time>
      </trkpt>
      <trkpt lat="42.8071460" lon="2.0341220">
        <ele>776.0</ele>
        <time>2020-07-22T08:01:04Z</time>
      </trkpt>
      <trkpt lat="42.8070820" lon="2.0341470">
        <ele>776.8</ele>
        <time>2020-07-22T08:01:07Z</time>
      </trkpt>
      <trkpt lat="42.8070610" lon="2.0341510">
        <ele>777.0</ele>
        <time>2020-07-22T08:01:08Z</time>
      </trkpt>
      <trkpt lat="42.8069820" lon="2.0341490">
        <ele>778.2</ele>
        <time>2020-07-22T08:01:12Z</time>
      </trkpt>
      <trkpt lat="42.8069280" lon="2.0341660">
        <ele>779.0</ele>
        <time>2020-07-22T08:01:15Z</time>
      </trkpt>
      <trkpt lat="42.8069100" lon="2.0341830">
        <ele>779.2</ele>
        <time>2020-07-22T08:01:16Z</time>
      </trkpt>
      <trkpt lat="42.8068350" lon="2.0342630">
        <ele>780.4</ele>
        <time>2020-07-22T08:01:20Z</time>
      </trkpt>
      <trkpt lat="42.8068050" lon="2.0343090">
        <ele>781.2</ele>
        <time>2020-07-22T08:01:22Z</time>
      </trkpt>
      <trkpt lat="42.8067850" lon="2.0343220">
        <ele>781.6</ele>
        <time>2020-07-22T08:01:23Z</time>
      </trkpt>
      <trkpt lat="42.8067260" lon="2.0343630">
        <ele>782.2</ele>
        <time>2020-07-22T08:01:26Z</time>
      </trkpt>
      <trkpt lat="42.8066900" lon="2.0343870">
        <ele>782.8</ele>
        <time>2020-07-22T08:01:28Z</time>
      </trkpt>
      <trkpt lat="42.8066300" lon="2.0344470">
        <ele>783.8</ele>
        <time>2020-07-22T08:01:31Z</time>
      </trkpt>
      <trkpt lat="42.8065800" lon="2.0345310">
        <ele>785.0</ele>
        <time>2020-07-22T08:01:35Z</time>
      </trkpt>
      <trkpt lat="42.8065430" lon="2.0345950">
        <ele>785.8</ele>
        <time>2020-07-22T08:01:38Z</time>
      </trkpt>
      <trkpt lat="42.8065330" lon="2.0346160">
        <ele>786.2</ele>
        <time>2020-07-22T08:01:39Z</time>
      </trkpt>
      <trkpt lat="42.8065040" lon="2.0346890">
        <ele>786.6</ele>
        <time>2020-07-22T08:01:42Z</time>
      </trkpt>
      <trkpt lat="42.8064840" lon="2.0347310">
        <ele>787.0</ele>
        <time>2020-07-22T08:01:44Z</time>
      </trkpt>
      <trkpt lat="42.8064720" lon="2.0347500">
        <ele>787.2</ele>
        <time>2020-07-22T08:01:45Z</time>
      </trkpt>
      <trkpt lat="42.8064020" lon="2.0348370">
        <ele>788.0</ele>
        <time>2020-07-22T08:01:49Z</time>
      </trkpt>
      <trkpt lat="42.8063800" lon="2.0348600">
        <ele>788.4</ele>
        <time>2020-07-22T08:01:50Z</time>
      </trkpt>
      <trkpt lat="42.8063100" lon="2.0349540">
        <ele>789.0</ele>
        <time>2020-07-22T08:01:54Z</time>
      </trkpt>
      <trkpt lat="42.8062960" lon="2.0349730">
        <ele>789.4</ele>
        <time>2020-07-22T08:01:55Z</time>
      </trkpt>
      <trkpt lat="42.8062650" lon="2.0350050">
        <ele>790.0</ele>
        <time>2020-07-22T08:01:57Z</time>
      </trkpt>
      <trkpt lat="42.8062510" lon="2.0350200">
        <ele>790.2</ele>
        <time>2020-07-22T08:01:58Z</time>
      </trkpt>
      <trkpt lat="42.8062370" lon="2.0350330">
        <ele>790.4</ele>
        <time>2020-07-22T08:01:59Z</time>
      </trkpt>
      <trkpt lat="42.8061650" lon="2.0350610">
        <ele>791.6</ele>
        <time>2020-07-22T08:02:03Z</time>
      </trkpt>
      <trkpt lat="42.8061300" lon="2.0350840">
        <ele>792.2</ele>
        <time>2020-07-22T08:02:05Z</time>
      </trkpt>
      <trkpt lat="42.8060930" lon="2.0351130">
        <ele>792.8</ele>
        <time>2020-07-22T08:02:07Z</time>
      </trkpt>
      <trkpt lat="42.8060070" lon="2.0352090">
        <ele>794.0</ele>
        <time>2020-07-22T08:02:12Z</time>
      </trkpt>
      <trkpt lat="42.8059770" lon="2.0352330">
        <ele>794.6</ele>
        <time>2020-07-22T08:02:14Z</time>
      </trkpt>
      <trkpt lat="42.8059510" lon="2.0352780">
        <ele>795.2</ele>
        <time>2020-07-22T08:02:17Z</time>
      </trkpt>
      <trkpt lat="42.8059200" lon="2.0353400">
        <ele>796.0</ele>
        <time>2020-07-22T08:02:21Z</time>
      </trkpt>
      <trkpt lat="42.8059120" lon="2.0353530">
        <ele>796.4</ele>
        <time>2020-07-22T08:02:22Z</time>
      </trkpt>
      <trkpt lat="42.8058840" lon="2.0353460">
        <ele>796.8</ele>
        <time>2020-07-22T08:02:24Z</time>
      </trkpt>
      <trkpt lat="42.8058460" lon="2.0353690">
        <ele>797.4</ele>
        <time>2020-07-22T08:02:27Z</time>
      </trkpt>
      <trkpt lat="42.8058340" lon="2.0353690">
        <ele>797.6</ele>
        <time>2020-07-22T08:02:28Z</time>
      </trkpt>
      <trkpt lat="42.8057930" lon="2.0354080">
        <ele>798.4</ele>
        <time>2020-07-22T08:02:32Z</time>
      </trkpt>
      <trkpt lat="42.8057020" lon="2.0354220">
        <ele>798.8</ele>
        <time>2020-07-22T08:02:36Z</time>
      </trkpt>
      <trkpt lat="42.8056380" lon="2.0354110">
        <ele>799.4</ele>
        <time>2020-07-22T08:02:39Z</time>
      </trkpt>
      <trkpt lat="42.8055990" lon="2.0354640">
        <ele>800.0</ele>
        <time>2020-07-22T08:02:43Z</time>
      </trkpt>
      <trkpt lat="42.8055810" lon="2.0354750">
        <ele>800.4</ele>
        <time>2020-07-22T08:02:45Z</time>
      </trkpt>
      <trkpt lat="42.8055650" lon="2.0354830">
        <ele>800.6</ele>
        <time>2020-07-22T08:02:46Z</time>
      </trkpt>
      <trkpt lat="42.8055040" lon="2.0355330">
        <ele>801.4</ele>
        <time>2020-07-22T08:02:50Z</time>
      </trkpt>
      <trkpt lat="42.8054840" lon="2.0355480">
        <ele>801.6</ele>
        <time>2020-07-22T08:02:51Z</time>
      </trkpt>
      <trkpt lat="42.8054420" lon="2.0355720">
        <ele>802.2</ele>
        <time>2020-07-22T08:02:53Z</time>
      </trkpt>
      <trkpt lat="42.8053900" lon="2.0356210">
        <ele>802.8</ele>
        <time>2020-07-22T08:02:56Z</time>
      </trkpt>
      <trkpt lat="42.8053210" lon="2.0356950">
        <ele>803.6</ele>
        <time>2020-07-22T08:03:00Z</time>
      </trkpt>
      <trkpt lat="42.8053030" lon="2.0357160">
        <ele>803.8</ele>
        <time>2020-07-22T08:03:01Z</time>
      </trkpt>
      <trkpt lat="42.8052870" lon="2.0357330">
        <ele>804.2</ele>
        <time>2020-07-22T08:03:02Z</time>
      </trkpt>
      <trkpt lat="42.8052170" lon="2.0357840">
        <ele>805.0</ele>
        <time>2020-07-22T08:03:06Z</time>
      </trkpt>
      <trkpt lat="42.8051610" lon="2.0358670">
        <ele>806.0</ele>
        <time>2020-07-22T08:03:11Z</time>
      </trkpt>
      <trkpt lat="42.8051550" lon="2.0358840">
        <ele>806.2</ele>
        <time>2020-07-22T08:03:12Z</time>
      </trkpt>
      <trkpt lat="42.8051170" lon="2.0359560">
        <ele>807.2</ele>
        <time>2020-07-22T08:03:16Z</time>
      </trkpt>
      <trkpt lat="42.8050960" lon="2.0360360">
        <ele>807.6</ele>
        <time>2020-07-22T08:03:19Z</time>
      </trkpt>
      <trkpt lat="42.8050810" lon="2.0360840">
        <ele>807.8</ele>
        <time>2020-07-22T08:03:21Z</time>
      </trkpt>
      <trkpt lat="42.8050700" lon="2.0361340">
        <ele>808.2</ele>
        <time>2020-07-22T08:03:23Z</time>
      </trkpt>
      <trkpt lat="42.8050070" lon="2.0361850">
        <ele>809.2</ele>
        <time>2020-07-22T08:03:28Z</time>
      </trkpt>
      <trkpt lat="42.8049940" lon="2.0362020">
        <ele>809.4</ele>
        <time>2020-07-22T08:03:29Z</time>
      </trkpt>
      <trkpt lat="42.8049070" lon="2.0362940">
        <ele>810.2</ele>
        <time>2020-07-22T08:03:35Z</time>
      </trkpt>
      <trkpt lat="42.8048900" lon="2.0363100">
        <ele>810.6</ele>
        <time>2020-07-22T08:03:36Z</time>
      </trkpt>
      <trkpt lat="42.8048250" lon="2.0363590">
        <ele>811.8</ele>
        <time>2020-07-22T08:03:41Z</time>
      </trkpt>
      <trkpt lat="42.8048080" lon="2.0363680">
        <ele>812.0</ele>
        <time>2020-07-22T08:03:42Z</time>
      </trkpt>
      <trkpt lat="42.8047260" lon="2.0363800">
        <ele>812.8</ele>
        <time>2020-07-22T08:03:46Z</time>
      </trkpt>
      <trkpt lat="42.8046770" lon="2.0363960">
        <ele>813.2</ele>
        <time>2020-07-22T08:03:48Z</time>
      </trkpt>
      <trkpt lat="42.8045730" lon="2.0364770">
        <ele>813.8</ele>
        <time>2020-07-22T08:03:52Z</time>
      </trkpt>
      <trkpt lat="42.8045200" lon="2.0365240">
        <ele>814.0</ele>
        <time>2020-07-22T08:03:54Z</time>
      </trkpt>
      <trkpt lat="42.8044620" lon="2.0366240">
        <ele>815.0</ele>
        <time>2020-07-22T08:03:58Z</time>
      </trkpt>
      <trkpt lat="42.8044490" lon="2.0366840">
        <ele>815.8</ele>
        <time>2020-07-22T08:04:00Z</time>
      </trkpt>
      <trkpt lat="42.8044470" lon="2.0367180">
        <ele>816.0</ele>
        <time>2020-07-22T08:04:01Z</time>
      </trkpt>
      <trkpt lat="42.8044320" lon="2.0369250">
        <ele>817.2</ele>
        <time>2020-07-22T08:04:07Z</time>
      </trkpt>
      <trkpt lat="42.8044170" lon="2.0369920">
        <ele>817.8</ele>
        <time>2020-07-22T08:04:09Z</time>
      </trkpt>
      <trkpt lat="42.8044060" lon="2.0370570">
        <ele>818.2</ele>
        <time>2020-07-22T08:04:11Z</time>
      </trkpt>
      <trkpt lat="42.8043640" lon="2.0371840">
        <ele>819.2</ele>
        <time>2020-07-22T08:04:15Z</time>
      </trkpt>
      <trkpt lat="42.8043520" lon="2.0372160">
        <ele>819.6</ele>
        <time>2020-07-22T08:04:16Z</time>
      </trkpt>
      <trkpt lat="42.8043040" lon="2.0373690">
        <ele>820.6</ele>
        <time>2020-07-22T08:04:21Z</time>
      </trkpt>
      <trkpt lat="42.8042480" lon="2.0374600">
        <ele>821.2</ele>
        <time>2020-07-22T08:04:25Z</time>
      </trkpt>
      <trkpt lat="42.8042240" lon="2.0375400">
        <ele>821.8</ele>
        <time>2020-07-22T08:04:28Z</time>
      </trkpt>
      <trkpt lat="42.8041920" lon="2.0376150">
        <ele>822.8</ele>
        <time>2020-07-22T08:04:31Z</time>
      </trkpt>
      <trkpt lat="42.8041800" lon="2.0376360">
        <ele>823.0</ele>
        <time>2020-07-22T08:04:32Z</time>
      </trkpt>
      <trkpt lat="42.8041290" lon="2.0377370">
        <ele>823.8</ele>
        <time>2020-07-22T08:04:37Z</time>
      </trkpt>
      <trkpt lat="42.8040870" lon="2.0378040">
        <ele>824.4</ele>
        <time>2020-07-22T08:04:40Z</time>
      </trkpt>
      <trkpt lat="42.8040200" lon="2.0379200">
        <ele>825.0</ele>
        <time>2020-07-22T08:04:44Z</time>
      </trkpt>
      <trkpt lat="42.8039300" lon="2.0380450">
        <ele>826.0</ele>
        <time>2020-07-22T08:04:49Z</time>
      </trkpt>
      <trkpt lat="42.8039150" lon="2.0380740">
        <ele>826.0</ele>
        <time>2020-07-22T08:04:50Z</time>
      </trkpt>
      <trkpt lat="42.8038610" lon="2.0381960">
        <ele>827.2</ele>
        <time>2020-07-22T08:04:54Z</time>
      </trkpt>
      <trkpt lat="42.8038420" lon="2.0382700">
        <ele>827.6</ele>
        <time>2020-07-22T08:04:56Z</time>
      </trkpt>
      <trkpt lat="42.8038050" lon="2.0383660">
        <ele>828.4</ele>
        <time>2020-07-22T08:04:59Z</time>
      </trkpt>
      <trkpt lat="42.8037540" lon="2.0384790">
        <ele>829.2</ele>
        <time>2020-07-22T08:05:03Z</time>
      </trkpt>
      <trkpt lat="42.8037390" lon="2.0385060">
        <ele>829.6</ele>
        <time>2020-07-22T08:05:04Z</time>
      </trkpt>
      <trkpt lat="42.8036290" lon="2.0386770">
        <ele>830.4</ele>
        <time>2020-07-22T08:05:10Z</time>
      </trkpt>
      <trkpt lat="42.8036130" lon="2.0387010">
        <ele>830.6</ele>
        <time>2020-07-22T08:05:11Z</time>
      </trkpt>
      <trkpt lat="42.8036050" lon="2.0387290">
        <ele>830.6</ele>
        <time>2020-07-22T08:05:12Z</time>
      </trkpt>
      <trkpt lat="42.8035390" lon="2.0388430">
        <ele>831.4</ele>
        <time>2020-07-22T08:05:16Z</time>
      </trkpt>
      <trkpt lat="42.8035210" lon="2.0388720">
        <ele>831.8</ele>
        <time>2020-07-22T08:05:17Z</time>
      </trkpt>
      <trkpt lat="42.8034630" lon="2.0389480">
        <ele>833.0</ele>
        <time>2020-07-22T08:05:20Z</time>
      </trkpt>
      <trkpt lat="42.8034060" lon="2.0390260">
        <ele>833.6</ele>
        <time>2020-07-22T08:05:23Z</time>
      </trkpt>
      <trkpt lat="42.8033760" lon="2.0390720">
        <ele>834.0</ele>
        <time>2020-07-22T08:05:25Z</time>
      </trkpt>
      <trkpt lat="42.8033140" lon="2.0391810">
        <ele>835.0</ele>
        <time>2020-07-22T08:05:29Z</time>
      </trkpt>
      <trkpt lat="42.8032800" lon="2.0392380">
        <ele>835.4</ele>
        <time>2020-07-22T08:05:31Z</time>
      </trkpt>
      <trkpt lat="42.8032630" lon="2.0392650">
        <ele>835.6</ele>
        <time>2020-07-22T08:05:32Z</time>
      </trkpt>
      <trkpt lat="42.8032520" lon="2.0392990">
        <ele>836.0</ele>
        <time>2020-07-22T08:05:33Z</time>
      </trkpt>
      <trkpt lat="42.8032520" lon="2.0392990">
        <ele>836.2</ele>
        <time>2020-07-22T08:05:34Z</time>
      </trkpt>
      <trkpt lat="42.8031800" lon="2.0394550">
        <ele>837.0</ele>
        <time>2020-07-22T08:05:38Z</time>
      </trkpt>
      <trkpt lat="42.8031390" lon="2.0395440">
        <ele>837.4</ele>
        <time>2020-07-22T08:05:41Z</time>
      </trkpt>
      <trkpt lat="42.8030810" lon="2.0396660">
        <ele>838.4</ele>
        <time>2020-07-22T08:05:45Z</time>
      </trkpt>
      <trkpt lat="42.8030380" lon="2.0397490">
        <ele>839.4</ele>
        <time>2020-07-22T08:05:49Z</time>
      </trkpt>
      <trkpt lat="42.8030250" lon="2.0397730">
        <ele>839.6</ele>
        <time>2020-07-22T08:05:50Z</time>
      </trkpt>
      <trkpt lat="42.8029740" lon="2.0399300">
        <ele>840.6</ele>
        <time>2020-07-22T08:05:55Z</time>
      </trkpt>
      <trkpt lat="42.8029600" lon="2.0399640">
        <ele>840.8</ele>
        <time>2020-07-22T08:05:56Z</time>
      </trkpt>
      <trkpt lat="42.8028760" lon="2.0401060">
        <ele>842.0</ele>
        <time>2020-07-22T08:06:01Z</time>
      </trkpt>
      <trkpt lat="42.8028260" lon="2.0401720">
        <ele>842.4</ele>
        <time>2020-07-22T08:06:03Z</time>
      </trkpt>
      <trkpt lat="42.8027950" lon="2.0402270">
        <ele>842.8</ele>
        <time>2020-07-22T08:06:05Z</time>
      </trkpt>
      <trkpt lat="42.8027770" lon="2.0402520">
        <ele>843.2</ele>
        <time>2020-07-22T08:06:06Z</time>
      </trkpt>
      <trkpt lat="42.8027400" lon="2.0403010">
        <ele>844.2</ele>
        <time>2020-07-22T08:06:09Z</time>
      </trkpt>
      <trkpt lat="42.8026860" lon="2.0403740">
        <ele>844.4</ele>
        <time>2020-07-22T08:06:12Z</time>
      </trkpt>
      <trkpt lat="42.8026540" lon="2.0404260">
        <ele>844.6</ele>
        <time>2020-07-22T08:06:13Z</time>
      </trkpt>
      <trkpt lat="42.8026030" lon="2.0405040">
        <ele>845.4</ele>
        <time>2020-07-22T08:06:17Z</time>
      </trkpt>
      <trkpt lat="42.8025360" lon="2.0406060">
        <ele>846.4</ele>
        <time>2020-07-22T08:06:20Z</time>
      </trkpt>
      <trkpt lat="42.8024810" lon="2.0407160">
        <ele>847.2</ele>
        <time>2020-07-22T08:06:25Z</time>
      </trkpt>
      <trkpt lat="42.8024430" lon="2.0407730">
        <ele>847.4</ele>
        <time>2020-07-22T08:06:26Z</time>
      </trkpt>
      <trkpt lat="42.8024260" lon="2.0408040">
        <ele>847.6</ele>
        <time>2020-07-22T08:06:27Z</time>
      </trkpt>
      <trkpt lat="42.8024260" lon="2.0408040">
        <ele>848.0</ele>
        <time>2020-07-22T08:06:28Z</time>
      </trkpt>
      <trkpt lat="42.8023750" lon="2.0408930">
        <ele>849.0</ele>
        <time>2020-07-22T08:06:31Z</time>
      </trkpt>
      <trkpt lat="42.8022950" lon="2.0410400">
        <ele>850.2</ele>
        <time>2020-07-22T08:06:36Z</time>
      </trkpt>
      <trkpt lat="42.8022490" lon="2.0411230">
        <ele>850.8</ele>
        <time>2020-07-22T08:06:39Z</time>
      </trkpt>
      <trkpt lat="42.8022150" lon="2.0411800">
        <ele>851.4</ele>
        <time>2020-07-22T08:06:41Z</time>
      </trkpt>
      <trkpt lat="42.8021770" lon="2.0412300">
        <ele>851.6</ele>
        <time>2020-07-22T08:06:42Z</time>
      </trkpt>
      <trkpt lat="42.8020910" lon="2.0413170">
        <ele>852.4</ele>
        <time>2020-07-22T08:06:47Z</time>
      </trkpt>
      <trkpt lat="42.8020110" lon="2.0414110">
        <ele>853.2</ele>
        <time>2020-07-22T08:06:51Z</time>
      </trkpt>
      <trkpt lat="42.8019930" lon="2.0414270">
        <ele>853.4</ele>
        <time>2020-07-22T08:06:52Z</time>
      </trkpt>
      <trkpt lat="42.8019330" lon="2.0415010">
        <ele>854.4</ele>
        <time>2020-07-22T08:06:56Z</time>
      </trkpt>
      <trkpt lat="42.8018640" lon="2.0415800">
        <ele>855.4</ele>
        <time>2020-07-22T08:07:01Z</time>
      </trkpt>
      <trkpt lat="42.8017480" lon="2.0416890">
        <ele>856.6</ele>
        <time>2020-07-22T08:07:07Z</time>
      </trkpt>
      <trkpt lat="42.8017010" lon="2.0417700">
        <ele>857.2</ele>
        <time>2020-07-22T08:07:09Z</time>
      </trkpt>
      <trkpt lat="42.8017010" lon="2.0417700">
        <ele>857.4</ele>
        <time>2020-07-22T08:07:10Z</time>
      </trkpt>
      <trkpt lat="42.8016840" lon="2.0417970">
        <ele>857.6</ele>
        <time>2020-07-22T08:07:11Z</time>
      </trkpt>
      <trkpt lat="42.8016680" lon="2.0418240">
        <ele>858.0</ele>
        <time>2020-07-22T08:07:12Z</time>
      </trkpt>
      <trkpt lat="42.8015770" lon="2.0419490">
        <ele>858.8</ele>
        <time>2020-07-22T08:07:17Z</time>
      </trkpt>
      <trkpt lat="42.8015590" lon="2.0419810">
        <ele>859.2</ele>
        <time>2020-07-22T08:07:18Z</time>
      </trkpt>
      <trkpt lat="42.8014700" lon="2.0421220">
        <ele>860.0</ele>
        <time>2020-07-22T08:07:23Z</time>
      </trkpt>
      <trkpt lat="42.8014420" lon="2.0422060">
        <ele>860.2</ele>
        <time>2020-07-22T08:07:25Z</time>
      </trkpt>
      <trkpt lat="42.8013840" lon="2.0423460">
        <ele>861.2</ele>
        <time>2020-07-22T08:07:31Z</time>
      </trkpt>
      <trkpt lat="42.8013570" lon="2.0424410">
        <ele>862.2</ele>
        <time>2020-07-22T08:07:34Z</time>
      </trkpt>
      <trkpt lat="42.8013450" lon="2.0425050">
        <ele>862.4</ele>
        <time>2020-07-22T08:07:35Z</time>
      </trkpt>
      <trkpt lat="42.8013150" lon="2.0426250">
        <ele>863.4</ele>
        <time>2020-07-22T08:07:40Z</time>
      </trkpt>
      <trkpt lat="42.8013050" lon="2.0426600">
        <ele>863.6</ele>
        <time>2020-07-22T08:07:41Z</time>
      </trkpt>
      <trkpt lat="42.8012950" lon="2.0426920">
        <ele>864.0</ele>
        <time>2020-07-22T08:07:42Z</time>
      </trkpt>
      <trkpt lat="42.8012530" lon="2.0428680">
        <ele>864.6</ele>
        <time>2020-07-22T08:07:47Z</time>
      </trkpt>
      <trkpt lat="42.8012230" lon="2.0429220">
        <ele>865.2</ele>
        <time>2020-07-22T08:07:49Z</time>
      </trkpt>
      <trkpt lat="42.8012000" lon="2.0429470">
        <ele>865.8</ele>
        <time>2020-07-22T08:07:51Z</time>
      </trkpt>
      <trkpt lat="42.8011370" lon="2.0430390">
        <ele>866.8</ele>
        <time>2020-07-22T08:07:55Z</time>
      </trkpt>
      <trkpt lat="42.8011270" lon="2.0430640">
        <ele>867.0</ele>
        <time>2020-07-22T08:07:56Z</time>
      </trkpt>
      <trkpt lat="42.8010960" lon="2.0431280">
        <ele>867.2</ele>
        <time>2020-07-22T08:07:57Z</time>
      </trkpt>
      <trkpt lat="42.8010680" lon="2.0431930">
        <ele>868.0</ele>
        <time>2020-07-22T08:07:59Z</time>
      </trkpt>
      <trkpt lat="42.8010110" lon="2.0433640">
        <ele>869.2</ele>
        <time>2020-07-22T08:08:04Z</time>
      </trkpt>
      <trkpt lat="42.8010010" lon="2.0433970">
        <ele>869.4</ele>
        <time>2020-07-22T08:08:05Z</time>
      </trkpt>
      <trkpt lat="42.8009720" lon="2.0434940">
        <ele>870.4</ele>
        <time>2020-07-22T08:08:08Z</time>
      </trkpt>
      <trkpt lat="42.8009550" lon="2.0435980">
        <ele>871.2</ele>
        <time>2020-07-22T08:08:11Z</time>
      </trkpt>
      <trkpt lat="42.8009510" lon="2.0436330">
        <ele>871.4</ele>
        <time>2020-07-22T08:08:12Z</time>
      </trkpt>
      <trkpt lat="42.8009470" lon="2.0436690">
        <ele>871.6</ele>
        <time>2020-07-22T08:08:13Z</time>
      </trkpt>
      <trkpt lat="42.8009440" lon="2.0437050">
        <ele>871.8</ele>
        <time>2020-07-22T08:08:14Z</time>
      </trkpt>
      <trkpt lat="42.8009380" lon="2.0437390">
        <ele>872.0</ele>
        <time>2020-07-22T08:08:15Z</time>
      </trkpt>
      <trkpt lat="42.8009310" lon="2.0437720">
        <ele>872.2</ele>
        <time>2020-07-22T08:08:16Z</time>
      </trkpt>
      <trkpt lat="42.8009250" lon="2.0438050">
        <ele>872.4</ele>
        <time>2020-07-22T08:08:17Z</time>
      </trkpt>
      <trkpt lat="42.8009260" lon="2.0438370">
        <ele>872.6</ele>
        <time>2020-07-22T08:08:18Z</time>
      </trkpt>
      <trkpt lat="42.8009300" lon="2.0439030">
        <ele>873.4</ele>
        <time>2020-07-22T08:08:20Z</time>
      </trkpt>
      <trkpt lat="42.8009280" lon="2.0439380">
        <ele>873.6</ele>
        <time>2020-07-22T08:08:21Z</time>
      </trkpt>
      <trkpt lat="42.8009200" lon="2.0440390">
        <ele>874.4</ele>
        <time>2020-07-22T08:08:24Z</time>
      </trkpt>
      <trkpt lat="42.8009130" lon="2.0441030">
        <ele>874.6</ele>
        <time>2020-07-22T08:08:26Z</time>
      </trkpt>
      <trkpt lat="42.8009080" lon="2.0441340">
        <ele>874.8</ele>
        <time>2020-07-22T08:08:27Z</time>
      </trkpt>
      <trkpt lat="42.8008980" lon="2.0441920">
        <ele>875.2</ele>
        <time>2020-07-22T08:08:29Z</time>
      </trkpt>
      <trkpt lat="42.8008760" lon="2.0443210">
        <ele>876.0</ele>
        <time>2020-07-22T08:08:33Z</time>
      </trkpt>
      <trkpt lat="42.8008570" lon="2.0444160">
        <ele>876.8</ele>
        <time>2020-07-22T08:08:36Z</time>
      </trkpt>
      <trkpt lat="42.8008520" lon="2.0444460">
        <ele>877.0</ele>
        <time>2020-07-22T08:08:37Z</time>
      </trkpt>
      <trkpt lat="42.8008260" lon="2.0446060">
        <ele>878.2</ele>
        <time>2020-07-22T08:08:42Z</time>
      </trkpt>
      <trkpt lat="42.8008180" lon="2.0446390">
        <ele>878.4</ele>
        <time>2020-07-22T08:08:43Z</time>
      </trkpt>
      <trkpt lat="42.8007990" lon="2.0447320">
        <ele>879.0</ele>
        <time>2020-07-22T08:08:46Z</time>
      </trkpt>
      <trkpt lat="42.8007930" lon="2.0447610">
        <ele>879.2</ele>
        <time>2020-07-22T08:08:47Z</time>
      </trkpt>
      <trkpt lat="42.8007810" lon="2.0448120">
        <ele>879.6</ele>
        <time>2020-07-22T08:08:49Z</time>
      </trkpt>
      <trkpt lat="42.8007700" lon="2.0448590">
        <ele>880.0</ele>
        <time>2020-07-22T08:08:51Z</time>
      </trkpt>
      <trkpt lat="42.8007660" lon="2.0448870">
        <ele>880.2</ele>
        <time>2020-07-22T08:08:52Z</time>
      </trkpt>
      <trkpt lat="42.8007470" lon="2.0450010">
        <ele>881.6</ele>
        <time>2020-07-22T08:08:57Z</time>
      </trkpt>
      <trkpt lat="42.8007410" lon="2.0450600">
        <ele>881.8</ele>
        <time>2020-07-22T08:08:59Z</time>
      </trkpt>
      <trkpt lat="42.8007390" lon="2.0451160">
        <ele>882.0</ele>
        <time>2020-07-22T08:09:00Z</time>
      </trkpt>
      <trkpt lat="42.8007560" lon="2.0452620">
        <ele>882.8</ele>
        <time>2020-07-22T08:09:05Z</time>
      </trkpt>
      <trkpt lat="42.8007630" lon="2.0453270">
        <ele>883.6</ele>
        <time>2020-07-22T08:09:08Z</time>
      </trkpt>
      <trkpt lat="42.8007710" lon="2.0454010">
        <ele>883.8</ele>
        <time>2020-07-22T08:09:10Z</time>
      </trkpt>
      <trkpt lat="42.8007810" lon="2.0455530">
        <ele>885.0</ele>
        <time>2020-07-22T08:09:14Z</time>
      </trkpt>
      <trkpt lat="42.8007670" lon="2.0456580">
        <ele>885.8</ele>
        <time>2020-07-22T08:09:17Z</time>
      </trkpt>
      <trkpt lat="42.8007530" lon="2.0456820">
        <ele>886.0</ele>
        <time>2020-07-22T08:09:18Z</time>
      </trkpt>
      <trkpt lat="42.8006860" lon="2.0457460">
        <ele>887.2</ele>
        <time>2020-07-22T08:09:22Z</time>
      </trkpt>
      <trkpt lat="42.8006700" lon="2.0457620">
        <ele>887.6</ele>
        <time>2020-07-22T08:09:23Z</time>
      </trkpt>
      <trkpt lat="42.8006370" lon="2.0457890">
        <ele>888.2</ele>
        <time>2020-07-22T08:09:25Z</time>
      </trkpt>
      <trkpt lat="42.8005370" lon="2.0458620">
        <ele>889.4</ele>
        <time>2020-07-22T08:09:30Z</time>
      </trkpt>
      <trkpt lat="42.8005110" lon="2.0458760">
        <ele>889.6</ele>
        <time>2020-07-22T08:09:31Z</time>
      </trkpt>
      <trkpt lat="42.8004650" lon="2.0459130">
        <ele>890.2</ele>
        <time>2020-07-22T08:09:33Z</time>
      </trkpt>
      <trkpt lat="42.8004250" lon="2.0459530">
        <ele>890.6</ele>
        <time>2020-07-22T08:09:35Z</time>
      </trkpt>
      <trkpt lat="42.8003410" lon="2.0460330">
        <ele>891.6</ele>
        <time>2020-07-22T08:09:39Z</time>
      </trkpt>
      <trkpt lat="42.8003200" lon="2.0460550">
        <ele>892.0</ele>
        <time>2020-07-22T08:09:40Z</time>
      </trkpt>
      <trkpt lat="42.8002360" lon="2.0461330">
        <ele>893.0</ele>
        <time>2020-07-22T08:09:44Z</time>
      </trkpt>
      <trkpt lat="42.8001810" lon="2.0461740">
        <ele>893.8</ele>
        <time>2020-07-22T08:09:47Z</time>
      </trkpt>
      <trkpt lat="42.8001620" lon="2.0461910">
        <ele>894.0</ele>
        <time>2020-07-22T08:09:48Z</time>
      </trkpt>
      <trkpt lat="42.8000550" lon="2.0462840">
        <ele>894.6</ele>
        <time>2020-07-22T08:09:54Z</time>
      </trkpt>
      <trkpt lat="42.8000070" lon="2.0463550">
        <ele>895.2</ele>
        <time>2020-07-22T08:09:57Z</time>
      </trkpt>
      <trkpt lat="42.7999510" lon="2.0464610">
        <ele>896.4</ele>
        <time>2020-07-22T08:10:01Z</time>
      </trkpt>
      <trkpt lat="42.7998440" lon="2.0465840">
        <ele>897.4</ele>
        <time>2020-07-22T08:10:06Z</time>
      </trkpt>
      <trkpt lat="42.7998230" lon="2.0466100">
        <ele>897.6</ele>
        <time>2020-07-22T08:10:07Z</time>
      </trkpt>
      <trkpt lat="42.7997440" lon="2.0467380">
        <ele>898.8</ele>
        <time>2020-07-22T08:10:12Z</time>
      </trkpt>
      <trkpt lat="42.7997220" lon="2.0467830">
        <ele>899.4</ele>
        <time>2020-07-22T08:10:14Z</time>
      </trkpt>
      <trkpt lat="42.7996930" lon="2.0468570">
        <ele>900.0</ele>
        <time>2020-07-22T08:10:17Z</time>
      </trkpt>
      <trkpt lat="42.7996700" lon="2.0470220">
        <ele>900.6</ele>
        <time>2020-07-22T08:10:22Z</time>
      </trkpt>
      <trkpt lat="42.7996700" lon="2.0471330">
        <ele>901.2</ele>
        <time>2020-07-22T08:10:25Z</time>
      </trkpt>
      <trkpt lat="42.7996680" lon="2.0472800">
        <ele>902.4</ele>
        <time>2020-07-22T08:10:29Z</time>
      </trkpt>
      <trkpt lat="42.7996690" lon="2.0473810">
        <ele>903.2</ele>
        <time>2020-07-22T08:10:32Z</time>
      </trkpt>
      <trkpt lat="42.7996710" lon="2.0474470">
        <ele>903.6</ele>
        <time>2020-07-22T08:10:34Z</time>
      </trkpt>
      <trkpt lat="42.7996660" lon="2.0475810">
        <ele>903.8</ele>
        <time>2020-07-22T08:10:38Z</time>
      </trkpt>
      <trkpt lat="42.7996520" lon="2.0476750">
        <ele>904.2</ele>
        <time>2020-07-22T08:10:41Z</time>
      </trkpt>
      <trkpt lat="42.7996340" lon="2.0477480">
        <ele>904.8</ele>
        <time>2020-07-22T08:10:43Z</time>
      </trkpt>
      <trkpt lat="42.7995650" lon="2.0479220">
        <ele>906.0</ele>
        <time>2020-07-22T08:10:48Z</time>
      </trkpt>
      <trkpt lat="42.7994650" lon="2.0481110">
        <ele>907.0</ele>
        <time>2020-07-22T08:10:54Z</time>
      </trkpt>
      <trkpt lat="42.7993740" lon="2.0482310">
        <ele>907.6</ele>
        <time>2020-07-22T08:10:58Z</time>
      </trkpt>
      <trkpt lat="42.7993120" lon="2.0483310">
        <ele>908.2</ele>
        <time>2020-07-22T08:11:01Z</time>
      </trkpt>
      <trkpt lat="42.7992180" lon="2.0484710">
        <ele>908.6</ele>
        <time>2020-07-22T08:11:05Z</time>
      </trkpt>
      <trkpt lat="42.7991720" lon="2.0485410">
        <ele>909.0</ele>
        <time>2020-07-22T08:11:07Z</time>
      </trkpt>
      <trkpt lat="42.7991000" lon="2.0486490">
        <ele>909.4</ele>
        <time>2020-07-22T08:11:09Z</time>
      </trkpt>
      <trkpt lat="42.7989830" lon="2.0488350">
        <ele>910.2</ele>
        <time>2020-07-22T08:11:15Z</time>
      </trkpt>
      <trkpt lat="42.7989360" lon="2.0489090">
        <ele>910.6</ele>
        <time>2020-07-22T08:11:17Z</time>
      </trkpt>
      <trkpt lat="42.7988720" lon="2.0491290">
        <ele>911.2</ele>
        <time>2020-07-22T08:11:22Z</time>
      </trkpt>
      <trkpt lat="42.7988590" lon="2.0492230">
        <ele>911.6</ele>
        <time>2020-07-22T08:11:24Z</time>
      </trkpt>
      <trkpt lat="42.7988680" lon="2.0494090">
        <ele>912.2</ele>
        <time>2020-07-22T08:11:28Z</time>
      </trkpt>
      <trkpt lat="42.7988880" lon="2.0495070">
        <ele>912.6</ele>
        <time>2020-07-22T08:11:30Z</time>
      </trkpt>
      <trkpt lat="42.7989530" lon="2.0498020">
        <ele>913.2</ele>
        <time>2020-07-22T08:11:36Z</time>
      </trkpt>
      <trkpt lat="42.7990080" lon="2.0500460">
        <ele>913.8</ele>
        <time>2020-07-22T08:11:41Z</time>
      </trkpt>
      <trkpt lat="42.7990440" lon="2.0501980">
        <ele>914.4</ele>
        <time>2020-07-22T08:11:44Z</time>
      </trkpt>
      <trkpt lat="42.7990670" lon="2.0502950">
        <ele>914.8</ele>
        <time>2020-07-22T08:11:46Z</time>
      </trkpt>
      <trkpt lat="42.7990780" lon="2.0503440">
        <ele>915.0</ele>
        <time>2020-07-22T08:11:47Z</time>
      </trkpt>
      <trkpt lat="42.7990970" lon="2.0504410">
        <ele>915.6</ele>
        <time>2020-07-22T08:11:49Z</time>
      </trkpt>
      <trkpt lat="42.7991170" lon="2.0505380">
        <ele>916.0</ele>
        <time>2020-07-22T08:11:51Z</time>
      </trkpt>
      <trkpt lat="42.7991380" lon="2.0506860">
        <ele>916.4</ele>
        <time>2020-07-22T08:11:54Z</time>
      </trkpt>
      <trkpt lat="42.7991590" lon="2.0509250">
        <ele>917.0</ele>
        <time>2020-07-22T08:11:59Z</time>
      </trkpt>
      <trkpt lat="42.7991700" lon="2.0511170">
        <ele>917.6</ele>
        <time>2020-07-22T08:12:03Z</time>
      </trkpt>
      <trkpt lat="42.7991670" lon="2.0514510">
        <ele>917.6</ele>
        <time>2020-07-22T08:12:09Z</time>
      </trkpt>
      <trkpt lat="42.7991630" lon="2.0515680">
        <ele>918.0</ele>
        <time>2020-07-22T08:12:11Z</time>
      </trkpt>
      <trkpt lat="42.7991610" lon="2.0516870">
        <ele>918.2</ele>
        <time>2020-07-22T08:12:13Z</time>
      </trkpt>
      <trkpt lat="42.7991710" lon="2.0519930">
        <ele>918.0</ele>
        <time>2020-07-22T08:12:18Z</time>
      </trkpt>
      <trkpt lat="42.7991940" lon="2.0521830">
        <ele>917.8</ele>
        <time>2020-07-22T08:12:21Z</time>
      </trkpt>
      <trkpt lat="42.7992600" lon="2.0525700">
        <ele>917.8</ele>
        <time>2020-07-22T08:12:27Z</time>
      </trkpt>
      <trkpt lat="42.7993150" lon="2.0529010">
        <ele>917.8</ele>
        <time>2020-07-22T08:12:32Z</time>
      </trkpt>
      <trkpt lat="42.7993290" lon="2.0531010">
        <ele>917.8</ele>
        <time>2020-07-22T08:12:35Z</time>
      </trkpt>
      <trkpt lat="42.7993050" lon="2.0533120">
        <ele>917.8</ele>
        <time>2020-07-22T08:12:38Z</time>
      </trkpt>
      <trkpt lat="42.7992780" lon="2.0535450">
        <ele>917.0</ele>
        <time>2020-07-22T08:12:41Z</time>
      </trkpt>
      <trkpt lat="42.7992460" lon="2.0537970">
        <ele>915.8</ele>
        <time>2020-07-22T08:12:44Z</time>
      </trkpt>
      <trkpt lat="42.7992360" lon="2.0538830">
        <ele>915.6</ele>
        <time>2020-07-22T08:12:45Z</time>
      </trkpt>
      <trkpt lat="42.7992020" lon="2.0542590">
        <ele>914.8</ele>
        <time>2020-07-22T08:12:49Z</time>
      </trkpt>
      <trkpt lat="42.7991790" lon="2.0545680">
        <ele>913.6</ele>
        <time>2020-07-22T08:12:52Z</time>
      </trkpt>
      <trkpt lat="42.7991530" lon="2.0548810">
        <ele>912.6</ele>
        <time>2020-07-22T08:12:55Z</time>
      </trkpt>
      <trkpt lat="42.7991220" lon="2.0553080">
        <ele>911.6</ele>
        <time>2020-07-22T08:12:59Z</time>
      </trkpt>
      <trkpt lat="42.7991120" lon="2.0554140">
        <ele>911.4</ele>
        <time>2020-07-22T08:13:00Z</time>
      </trkpt>
      <trkpt lat="42.7990640" lon="2.0557250">
        <ele>910.4</ele>
        <time>2020-07-22T08:13:03Z</time>
      </trkpt>
      <trkpt lat="42.7990020" lon="2.0560410">
        <ele>909.6</ele>
        <time>2020-07-22T08:13:06Z</time>
      </trkpt>
      <trkpt lat="42.7989790" lon="2.0561480">
        <ele>909.4</ele>
        <time>2020-07-22T08:13:07Z</time>
      </trkpt>
      <trkpt lat="42.7989100" lon="2.0564700">
        <ele>909.0</ele>
        <time>2020-07-22T08:13:09Z</time>
      </trkpt>
      <trkpt lat="42.7988870" lon="2.0565770">
        <ele>908.6</ele>
        <time>2020-07-22T08:13:11Z</time>
      </trkpt>
      <trkpt lat="42.7988640" lon="2.0566840">
        <ele>908.4</ele>
        <time>2020-07-22T08:13:12Z</time>
      </trkpt>
      <trkpt lat="42.7988420" lon="2.0567930">
        <ele>908.0</ele>
        <time>2020-07-22T08:13:13Z</time>
      </trkpt>
      <trkpt lat="42.7987950" lon="2.0570120">
        <ele>906.8</ele>
        <time>2020-07-22T08:13:15Z</time>
      </trkpt>
      <trkpt lat="42.7987530" lon="2.0572380">
        <ele>906.0</ele>
        <time>2020-07-22T08:13:17Z</time>
      </trkpt>
      <trkpt lat="42.7987080" lon="2.0575820">
        <ele>905.6</ele>
        <time>2020-07-22T08:13:20Z</time>
      </trkpt>
      <trkpt lat="42.7986670" lon="2.0580460">
        <ele>905.4</ele>
        <time>2020-07-22T08:13:24Z</time>
      </trkpt>
      <trkpt lat="42.7986300" lon="2.0585030">
        <ele>904.6</ele>
        <time>2020-07-22T08:13:28Z</time>
      </trkpt>
      <trkpt lat="42.7986210" lon="2.0588380">
        <ele>903.6</ele>
        <time>2020-07-22T08:13:31Z</time>
      </trkpt>
      <trkpt lat="42.7986310" lon="2.0589470">
        <ele>903.2</ele>
        <time>2020-07-22T08:13:32Z</time>
      </trkpt>
      <trkpt lat="42.7987280" lon="2.0593480">
        <ele>902.4</ele>
        <time>2020-07-22T08:13:36Z</time>
      </trkpt>
      <trkpt lat="42.7989120" lon="2.0597890">
        <ele>901.6</ele>
        <time>2020-07-22T08:13:41Z</time>
      </trkpt>
      <trkpt lat="42.7989470" lon="2.0598760">
        <ele>901.4</ele>
        <time>2020-07-22T08:13:42Z</time>
      </trkpt>
      <trkpt lat="42.7991040" lon="2.0604050">
        <ele>902.6</ele>
        <time>2020-07-22T08:13:48Z</time>
      </trkpt>
      <trkpt lat="42.7991650" lon="2.0608920">
        <ele>902.8</ele>
        <time>2020-07-22T08:13:54Z</time>
      </trkpt>
      <trkpt lat="42.7991740" lon="2.0609690">
        <ele>902.8</ele>
        <time>2020-07-22T08:13:55Z</time>
      </trkpt>
      <trkpt lat="42.7992590" lon="2.0614110">
        <ele>902.8</ele>
        <time>2020-07-22T08:14:00Z</time>
      </trkpt>
      <trkpt lat="42.7992810" lon="2.0614820">
        <ele>902.0</ele>
        <time>2020-07-22T08:14:02Z</time>
      </trkpt>
      <trkpt lat="42.7993340" lon="2.0616230">
        <ele>901.2</ele>
        <time>2020-07-22T08:14:04Z</time>
      </trkpt>
      <trkpt lat="42.7994630" lon="2.0619660">
        <ele>900.8</ele>
        <time>2020-07-22T08:14:09Z</time>
      </trkpt>
      <trkpt lat="42.7994780" lon="2.0620410">
        <ele>900.8</ele>
        <time>2020-07-22T08:14:10Z</time>
      </trkpt>
      <trkpt lat="42.7994920" lon="2.0621970">
        <ele>900.8</ele>
        <time>2020-07-22T08:14:12Z</time>
      </trkpt>
      <trkpt lat="42.7994920" lon="2.0622740">
        <ele>900.6</ele>
        <time>2020-07-22T08:14:13Z</time>
      </trkpt>
      <trkpt lat="42.7994780" lon="2.0624950">
        <ele>900.2</ele>
        <time>2020-07-22T08:14:16Z</time>
      </trkpt>
      <trkpt lat="42.7994450" lon="2.0627900">
        <ele>899.4</ele>
        <time>2020-07-22T08:14:20Z</time>
      </trkpt>
      <trkpt lat="42.7994030" lon="2.0631810">
        <ele>899.2</ele>
        <time>2020-07-22T08:14:25Z</time>
      </trkpt>
      <trkpt lat="42.7993770" lon="2.0634090">
        <ele>899.2</ele>
        <time>2020-07-22T08:14:28Z</time>
      </trkpt>
      <trkpt lat="42.7993500" lon="2.0637020">
        <ele>899.2</ele>
        <time>2020-07-22T08:14:32Z</time>
      </trkpt>
      <trkpt lat="42.7993330" lon="2.0638420">
        <ele>899.2</ele>
        <time>2020-07-22T08:14:34Z</time>
      </trkpt>
      <trkpt lat="42.7993100" lon="2.0639770">
        <ele>899.2</ele>
        <time>2020-07-22T08:14:36Z</time>
      </trkpt>
      <trkpt lat="42.7992680" lon="2.0643630">
        <ele>899.0</ele>
        <time>2020-07-22T08:14:42Z</time>
      </trkpt>
      <trkpt lat="42.7992550" lon="2.0644920">
        <ele>899.0</ele>
        <time>2020-07-22T08:14:44Z</time>
      </trkpt>
      <trkpt lat="42.7992180" lon="2.0649110">
        <ele>898.0</ele>
        <time>2020-07-22T08:14:50Z</time>
      </trkpt>
      <trkpt lat="42.7992060" lon="2.0650560">
        <ele>897.6</ele>
        <time>2020-07-22T08:14:52Z</time>
      </trkpt>
      <trkpt lat="42.7991830" lon="2.0652710">
        <ele>897.6</ele>
        <time>2020-07-22T08:14:54Z</time>
      </trkpt>
      <trkpt lat="42.7991630" lon="2.0654200">
        <ele>897.8</ele>
        <time>2020-07-22T08:14:56Z</time>
      </trkpt>
      <trkpt lat="42.7991540" lon="2.0654970">
        <ele>897.8</ele>
        <time>2020-07-22T08:14:58Z</time>
      </trkpt>
      <trkpt lat="42.7991340" lon="2.0656520">
        <ele>897.4</ele>
        <time>2020-07-22T08:15:00Z</time>
      </trkpt>
      <trkpt lat="42.7991060" lon="2.0658820">
        <ele>896.8</ele>
        <time>2020-07-22T08:15:03Z</time>
      </trkpt>
      <trkpt lat="42.7990790" lon="2.0661350">
        <ele>895.6</ele>
        <time>2020-07-22T08:15:06Z</time>
      </trkpt>
      <trkpt lat="42.7990690" lon="2.0662250">
        <ele>895.2</ele>
        <time>2020-07-22T08:15:07Z</time>
      </trkpt>
      <trkpt lat="42.7990600" lon="2.0663190">
        <ele>894.6</ele>
        <time>2020-07-22T08:15:08Z</time>
      </trkpt>
      <trkpt lat="42.7990140" lon="2.0666140">
        <ele>893.4</ele>
        <time>2020-07-22T08:15:11Z</time>
      </trkpt>
      <trkpt lat="42.7989780" lon="2.0668190">
        <ele>892.6</ele>
        <time>2020-07-22T08:15:13Z</time>
      </trkpt>
      <trkpt lat="42.7989610" lon="2.0669250">
        <ele>892.2</ele>
        <time>2020-07-22T08:15:14Z</time>
      </trkpt>
      <trkpt lat="42.7989290" lon="2.0671380">
        <ele>891.2</ele>
        <time>2020-07-22T08:15:16Z</time>
      </trkpt>
      <trkpt lat="42.7989130" lon="2.0672400">
        <ele>891.0</ele>
        <time>2020-07-22T08:15:17Z</time>
      </trkpt>
      <trkpt lat="42.7988680" lon="2.0675300">
        <ele>890.2</ele>
        <time>2020-07-22T08:15:20Z</time>
      </trkpt>
      <trkpt lat="42.7988520" lon="2.0676200">
        <ele>889.6</ele>
        <time>2020-07-22T08:15:21Z</time>
      </trkpt>
      <trkpt lat="42.7987910" lon="2.0678720">
        <ele>888.6</ele>
        <time>2020-07-22T08:15:24Z</time>
      </trkpt>
      <trkpt lat="42.7987240" lon="2.0680300">
        <ele>888.0</ele>
        <time>2020-07-22T08:15:26Z</time>
      </trkpt>
      <trkpt lat="42.7986890" lon="2.0681110">
        <ele>887.4</ele>
        <time>2020-07-22T08:15:27Z</time>
      </trkpt>
      <trkpt lat="42.7986580" lon="2.0681970">
        <ele>886.8</ele>
        <time>2020-07-22T08:15:28Z</time>
      </trkpt>
      <trkpt lat="42.7986300" lon="2.0683800">
        <ele>886.4</ele>
        <time>2020-07-22T08:15:30Z</time>
      </trkpt>
      <trkpt lat="42.7986000" lon="2.0688960">
        <ele>886.0</ele>
        <time>2020-07-22T08:15:36Z</time>
      </trkpt>
      <trkpt lat="42.7985510" lon="2.0690950">
        <ele>887.4</ele>
        <time>2020-07-22T08:15:40Z</time>
      </trkpt>
      <trkpt lat="42.7985230" lon="2.0691710">
        <ele>887.6</ele>
        <time>2020-07-22T08:15:41Z</time>
      </trkpt>
      <trkpt lat="42.7984770" lon="2.0692780">
        <ele>888.8</ele>
        <time>2020-07-22T08:15:44Z</time>
      </trkpt>
      <trkpt lat="42.7984650" lon="2.0693150">
        <ele>889.2</ele>
        <time>2020-07-22T08:15:46Z</time>
      </trkpt>
      <trkpt lat="42.7984490" lon="2.0694490">
        <ele>889.8</ele>
        <time>2020-07-22T08:15:49Z</time>
      </trkpt>
      <trkpt lat="42.7984130" lon="2.0696180">
        <ele>890.4</ele>
        <time>2020-07-22T08:15:52Z</time>
      </trkpt>
      <trkpt lat="42.7983630" lon="2.0697460">
        <ele>891.0</ele>
        <time>2020-07-22T08:15:56Z</time>
      </trkpt>
      <trkpt lat="42.7982850" lon="2.0699630">
        <ele>891.6</ele>
        <time>2020-07-22T08:16:01Z</time>
      </trkpt>
      <trkpt lat="42.7982660" lon="2.0700500">
        <ele>891.8</ele>
        <time>2020-07-22T08:16:02Z</time>
      </trkpt>
      <trkpt lat="42.7982560" lon="2.0700920">
        <ele>892.0</ele>
        <time>2020-07-22T08:16:03Z</time>
      </trkpt>
      <trkpt lat="42.7982480" lon="2.0701290">
        <ele>892.2</ele>
        <time>2020-07-22T08:16:04Z</time>
      </trkpt>
      <trkpt lat="42.7982300" lon="2.0702190">
        <ele>892.8</ele>
        <time>2020-07-22T08:16:07Z</time>
      </trkpt>
      <trkpt lat="42.7982180" lon="2.0702480">
        <ele>893.0</ele>
        <time>2020-07-22T08:16:08Z</time>
      </trkpt>
      <trkpt lat="42.7981690" lon="2.0704890">
        <ele>893.6</ele>
        <time>2020-07-22T08:16:14Z</time>
      </trkpt>
      <trkpt lat="42.7981690" lon="2.0704890">
        <ele>893.8</ele>
        <time>2020-07-22T08:16:15Z</time>
      </trkpt>
      <trkpt lat="42.7981590" lon="2.0705360">
        <ele>894.0</ele>
        <time>2020-07-22T08:16:16Z</time>
      </trkpt>
      <trkpt lat="42.7981050" lon="2.0708730">
        <ele>894.2</ele>
        <time>2020-07-22T08:16:22Z</time>
      </trkpt>
      <trkpt lat="42.7980740" lon="2.0710540">
        <ele>894.0</ele>
        <time>2020-07-22T08:16:25Z</time>
      </trkpt>
      <trkpt lat="42.7980410" lon="2.0713140">
        <ele>893.8</ele>
        <time>2020-07-22T08:16:29Z</time>
      </trkpt>
      <trkpt lat="42.7979810" lon="2.0716560">
        <ele>893.0</ele>
        <time>2020-07-22T08:16:34Z</time>
      </trkpt>
      <trkpt lat="42.7979480" lon="2.0718780">
        <ele>892.2</ele>
        <time>2020-07-22T08:16:37Z</time>
      </trkpt>
      <trkpt lat="42.7979230" lon="2.0720300">
        <ele>892.0</ele>
        <time>2020-07-22T08:16:39Z</time>
      </trkpt>
      <trkpt lat="42.7978540" lon="2.0725340">
        <ele>890.8</ele>
        <time>2020-07-22T08:16:44Z</time>
      </trkpt>
      <trkpt lat="42.7978350" lon="2.0727240">
        <ele>889.6</ele>
        <time>2020-07-22T08:16:47Z</time>
      </trkpt>
      <trkpt lat="42.7978150" lon="2.0730190">
        <ele>888.6</ele>
        <time>2020-07-22T08:16:50Z</time>
      </trkpt>
      <trkpt lat="42.7977980" lon="2.0732160">
        <ele>888.0</ele>
        <time>2020-07-22T08:16:52Z</time>
      </trkpt>
      <trkpt lat="42.7977680" lon="2.0734160">
        <ele>887.4</ele>
        <time>2020-07-22T08:16:54Z</time>
      </trkpt>
      <trkpt lat="42.7976880" lon="2.0740120">
        <ele>887.0</ele>
        <time>2020-07-22T08:17:00Z</time>
      </trkpt>
      <trkpt lat="42.7976030" lon="2.0743900">
        <ele>886.4</ele>
        <time>2020-07-22T08:17:04Z</time>
      </trkpt>
      <trkpt lat="42.7975030" lon="2.0747410">
        <ele>886.2</ele>
        <time>2020-07-22T08:17:08Z</time>
      </trkpt>
      <trkpt lat="42.7973470" lon="2.0752300">
        <ele>885.6</ele>
        <time>2020-07-22T08:17:14Z</time>
      </trkpt>
      <trkpt lat="42.7973010" lon="2.0753900">
        <ele>885.6</ele>
        <time>2020-07-22T08:17:16Z</time>
      </trkpt>
      <trkpt lat="42.7972780" lon="2.0754730">
        <ele>885.6</ele>
        <time>2020-07-22T08:17:17Z</time>
      </trkpt>
      <trkpt lat="42.7972000" lon="2.0757340">
        <ele>885.2</ele>
        <time>2020-07-22T08:17:20Z</time>
      </trkpt>
      <trkpt lat="42.7970620" lon="2.0761950">
        <ele>884.2</ele>
        <time>2020-07-22T08:17:25Z</time>
      </trkpt>
      <trkpt lat="42.7970380" lon="2.0762930">
        <ele>883.8</ele>
        <time>2020-07-22T08:17:26Z</time>
      </trkpt>
      <trkpt lat="42.7969810" lon="2.0765950">
        <ele>882.8</ele>
        <time>2020-07-22T08:17:29Z</time>
      </trkpt>
      <trkpt lat="42.7969050" lon="2.0770090">
        <ele>882.4</ele>
        <time>2020-07-22T08:17:33Z</time>
      </trkpt>
      <trkpt lat="42.7968260" lon="2.0774200">
        <ele>882.4</ele>
        <time>2020-07-22T08:17:37Z</time>
      </trkpt>
      <trkpt lat="42.7967440" lon="2.0778280">
        <ele>881.8</ele>
        <time>2020-07-22T08:17:41Z</time>
      </trkpt>
      <trkpt lat="42.7967000" lon="2.0780300">
        <ele>881.6</ele>
        <time>2020-07-22T08:17:43Z</time>
      </trkpt>
      <trkpt lat="42.7965780" lon="2.0786530">
        <ele>880.8</ele>
        <time>2020-07-22T08:17:49Z</time>
      </trkpt>
      <trkpt lat="42.7965380" lon="2.0788690">
        <ele>880.2</ele>
        <time>2020-07-22T08:17:51Z</time>
      </trkpt>
      <trkpt lat="42.7964650" lon="2.0791910">
        <ele>879.8</ele>
        <time>2020-07-22T08:17:54Z</time>
      </trkpt>
      <trkpt lat="42.7964420" lon="2.0792970">
        <ele>879.6</ele>
        <time>2020-07-22T08:17:55Z</time>
      </trkpt>
      <trkpt lat="42.7963850" lon="2.0796140">
        <ele>879.2</ele>
        <time>2020-07-22T08:17:58Z</time>
      </trkpt>
      <trkpt lat="42.7963330" lon="2.0799330">
        <ele>878.6</ele>
        <time>2020-07-22T08:18:01Z</time>
      </trkpt>
      <trkpt lat="42.7962160" lon="2.0805370">
        <ele>878.8</ele>
        <time>2020-07-22T08:18:07Z</time>
      </trkpt>
      <trkpt lat="42.7961990" lon="2.0806310">
        <ele>879.0</ele>
        <time>2020-07-22T08:18:08Z</time>
      </trkpt>
      <trkpt lat="42.7961670" lon="2.0808090">
        <ele>879.4</ele>
        <time>2020-07-22T08:18:10Z</time>
      </trkpt>
      <trkpt lat="42.7961530" lon="2.0808960">
        <ele>879.8</ele>
        <time>2020-07-22T08:18:11Z</time>
      </trkpt>
      <trkpt lat="42.7961100" lon="2.0811450">
        <ele>880.4</ele>
        <time>2020-07-22T08:18:14Z</time>
      </trkpt>
      <trkpt lat="42.7960640" lon="2.0813820">
        <ele>880.8</ele>
        <time>2020-07-22T08:18:17Z</time>
      </trkpt>
      <trkpt lat="42.7959990" lon="2.0817430">
        <ele>881.4</ele>
        <time>2020-07-22T08:18:22Z</time>
      </trkpt>
      <trkpt lat="42.7959760" lon="2.0818820">
        <ele>882.2</ele>
        <time>2020-07-22T08:18:24Z</time>
      </trkpt>
      <trkpt lat="42.7959420" lon="2.0820780">
        <ele>883.4</ele>
        <time>2020-07-22T08:18:27Z</time>
      </trkpt>
      <trkpt lat="42.7959200" lon="2.0822030">
        <ele>883.8</ele>
        <time>2020-07-22T08:18:29Z</time>
      </trkpt>
      <trkpt lat="42.7959100" lon="2.0822630">
        <ele>884.0</ele>
        <time>2020-07-22T08:18:30Z</time>
      </trkpt>
      <trkpt lat="42.7958900" lon="2.0823800">
        <ele>884.4</ele>
        <time>2020-07-22T08:18:32Z</time>
      </trkpt>
      <trkpt lat="42.7958330" lon="2.0827300">
        <ele>885.0</ele>
        <time>2020-07-22T08:18:38Z</time>
      </trkpt>
      <trkpt lat="42.7958120" lon="2.0828440">
        <ele>885.2</ele>
        <time>2020-07-22T08:18:40Z</time>
      </trkpt>
      <trkpt lat="42.7958030" lon="2.0828980">
        <ele>885.4</ele>
        <time>2020-07-22T08:18:41Z</time>
      </trkpt>
      <trkpt lat="42.7957940" lon="2.0829520">
        <ele>885.6</ele>
        <time>2020-07-22T08:18:42Z</time>
      </trkpt>
      <trkpt lat="42.7957740" lon="2.0830640">
        <ele>885.8</ele>
        <time>2020-07-22T08:18:43Z</time>
      </trkpt>
      <trkpt lat="42.7957660" lon="2.0831210">
        <ele>886.0</ele>
        <time>2020-07-22T08:18:45Z</time>
      </trkpt>
      <trkpt lat="42.7957400" lon="2.0832940">
        <ele>886.8</ele>
        <time>2020-07-22T08:18:48Z</time>
      </trkpt>
      <trkpt lat="42.7957200" lon="2.0834070">
        <ele>887.0</ele>
        <time>2020-07-22T08:18:50Z</time>
      </trkpt>
      <trkpt lat="42.7956600" lon="2.0837480">
        <ele>887.4</ele>
        <time>2020-07-22T08:18:56Z</time>
      </trkpt>
      <trkpt lat="42.7956490" lon="2.0838050">
        <ele>887.6</ele>
        <time>2020-07-22T08:18:57Z</time>
      </trkpt>
      <trkpt lat="42.7956370" lon="2.0838600">
        <ele>887.8</ele>
        <time>2020-07-22T08:18:58Z</time>
      </trkpt>
      <trkpt lat="42.7956260" lon="2.0839170">
        <ele>888.0</ele>
        <time>2020-07-22T08:18:59Z</time>
      </trkpt>
      <trkpt lat="42.7955770" lon="2.0841980">
        <ele>889.2</ele>
        <time>2020-07-22T08:19:04Z</time>
      </trkpt>
      <trkpt lat="42.7955670" lon="2.0842510">
        <ele>889.4</ele>
        <time>2020-07-22T08:19:05Z</time>
      </trkpt>
      <trkpt lat="42.7955140" lon="2.0845130">
        <ele>889.4</ele>
        <time>2020-07-22T08:19:09Z</time>
      </trkpt>
      <trkpt lat="42.7954850" lon="2.0846860">
        <ele>889.8</ele>
        <time>2020-07-22T08:19:13Z</time>
      </trkpt>
      <trkpt lat="42.7954690" lon="2.0848010">
        <ele>890.2</ele>
        <time>2020-07-22T08:19:15Z</time>
      </trkpt>
      <trkpt lat="42.7954200" lon="2.0850810">
        <ele>891.2</ele>
        <time>2020-07-22T08:19:20Z</time>
      </trkpt>
      <trkpt lat="42.7954110" lon="2.0851370">
        <ele>891.2</ele>
        <time>2020-07-22T08:19:21Z</time>
      </trkpt>
      <trkpt lat="42.7954020" lon="2.0851910">
        <ele>891.4</ele>
        <time>2020-07-22T08:19:22Z</time>
      </trkpt>
      <trkpt lat="42.7953670" lon="2.0854110">
        <ele>892.0</ele>
        <time>2020-07-22T08:19:26Z</time>
      </trkpt>
      <trkpt lat="42.7953410" lon="2.0855680">
        <ele>892.4</ele>
        <time>2020-07-22T08:19:29Z</time>
      </trkpt>
      <trkpt lat="42.7953170" lon="2.0857140">
        <ele>893.6</ele>
        <time>2020-07-22T08:19:32Z</time>
      </trkpt>
      <trkpt lat="42.7952870" lon="2.0859270">
        <ele>894.6</ele>
        <time>2020-07-22T08:19:37Z</time>
      </trkpt>
      <trkpt lat="42.7952800" lon="2.0859680">
        <ele>894.8</ele>
        <time>2020-07-22T08:19:38Z</time>
      </trkpt>
      <trkpt lat="42.7952620" lon="2.0860870">
        <ele>895.6</ele>
        <time>2020-07-22T08:19:41Z</time>
      </trkpt>
      <trkpt lat="42.7952280" lon="2.0862860">
        <ele>896.8</ele>
        <time>2020-07-22T08:19:46Z</time>
      </trkpt>
      <trkpt lat="42.7951850" lon="2.0865230">
        <ele>897.8</ele>
        <time>2020-07-22T08:19:52Z</time>
      </trkpt>
      <trkpt lat="42.7951780" lon="2.0865630">
        <ele>898.2</ele>
        <time>2020-07-22T08:19:53Z</time>
      </trkpt>
      <trkpt lat="42.7951420" lon="2.0867550">
        <ele>899.4</ele>
        <time>2020-07-22T08:19:58Z</time>
      </trkpt>
      <trkpt lat="42.7951100" lon="2.0869420">
        <ele>900.0</ele>
        <time>2020-07-22T08:20:03Z</time>
      </trkpt>
      <trkpt lat="42.7950920" lon="2.0870580">
        <ele>900.8</ele>
        <time>2020-07-22T08:20:06Z</time>
      </trkpt>
      <trkpt lat="42.7950690" lon="2.0872230">
        <ele>901.8</ele>
        <time>2020-07-22T08:20:10Z</time>
      </trkpt>
      <trkpt lat="42.7950560" lon="2.0873520">
        <ele>902.6</ele>
        <time>2020-07-22T08:20:13Z</time>
      </trkpt>
      <trkpt lat="42.7950510" lon="2.0873950">
        <ele>902.6</ele>
        <time>2020-07-22T08:20:14Z</time>
      </trkpt>
      <trkpt lat="42.7950470" lon="2.0874370">
        <ele>902.8</ele>
        <time>2020-07-22T08:20:15Z</time>
      </trkpt>
      <trkpt lat="42.7950330" lon="2.0876950">
        <ele>903.6</ele>
        <time>2020-07-22T08:20:21Z</time>
      </trkpt>
      <trkpt lat="42.7950300" lon="2.0877790">
        <ele>903.8</ele>
        <time>2020-07-22T08:20:23Z</time>
      </trkpt>
      <trkpt lat="42.7950270" lon="2.0878200">
        <ele>904.0</ele>
        <time>2020-07-22T08:20:24Z</time>
      </trkpt>
      <trkpt lat="42.7950170" lon="2.0880530">
        <ele>904.8</ele>
        <time>2020-07-22T08:20:30Z</time>
      </trkpt>
      <trkpt lat="42.7950150" lon="2.0881350">
        <ele>905.0</ele>
        <time>2020-07-22T08:20:32Z</time>
      </trkpt>
      <trkpt lat="42.7950140" lon="2.0881760">
        <ele>905.0</ele>
        <time>2020-07-22T08:20:33Z</time>
      </trkpt>
      <trkpt lat="42.7950080" lon="2.0883360">
        <ele>906.0</ele>
        <time>2020-07-22T08:20:37Z</time>
      </trkpt>
      <trkpt lat="42.7950020" lon="2.0884570">
        <ele>906.8</ele>
        <time>2020-07-22T08:20:40Z</time>
      </trkpt>
      <trkpt lat="42.7950010" lon="2.0884960">
        <ele>906.8</ele>
        <time>2020-07-22T08:20:41Z</time>
      </trkpt>
      <trkpt lat="42.7949990" lon="2.0885720">
        <ele>907.2</ele>
        <time>2020-07-22T08:20:43Z</time>
      </trkpt>
      <trkpt lat="42.7949800" lon="2.0888120">
        <ele>908.0</ele>
        <time>2020-07-22T08:20:49Z</time>
      </trkpt>
      <trkpt lat="42.7949790" lon="2.0888510">
        <ele>908.4</ele>
        <time>2020-07-22T08:20:50Z</time>
      </trkpt>
      <trkpt lat="42.7949760" lon="2.0888900">
        <ele>908.8</ele>
        <time>2020-07-22T08:20:51Z</time>
      </trkpt>
      <trkpt lat="42.7949700" lon="2.0889690">
        <ele>909.4</ele>
        <time>2020-07-22T08:20:53Z</time>
      </trkpt>
      <trkpt lat="42.7949700" lon="2.0890470">
        <ele>909.8</ele>
        <time>2020-07-22T08:20:55Z</time>
      </trkpt>
      <trkpt lat="42.7949690" lon="2.0891610">
        <ele>910.2</ele>
        <time>2020-07-22T08:20:58Z</time>
      </trkpt>
      <trkpt lat="42.7949680" lon="2.0892350">
        <ele>910.4</ele>
        <time>2020-07-22T08:21:00Z</time>
      </trkpt>
      <trkpt lat="42.7949650" lon="2.0893750">
        <ele>911.6</ele>
        <time>2020-07-22T08:21:04Z</time>
      </trkpt>
      <trkpt lat="42.7949690" lon="2.0894420">
        <ele>912.2</ele>
        <time>2020-07-22T08:21:06Z</time>
      </trkpt>
      <trkpt lat="42.7949700" lon="2.0895120">
        <ele>912.6</ele>
        <time>2020-07-22T08:21:08Z</time>
      </trkpt>
      <trkpt lat="42.7949780" lon="2.0896550">
        <ele>913.6</ele>
        <time>2020-07-22T08:21:12Z</time>
      </trkpt>
      <trkpt lat="42.7949790" lon="2.0896920">
        <ele>913.6</ele>
        <time>2020-07-22T08:21:13Z</time>
      </trkpt>
      <trkpt lat="42.7949960" lon="2.0897960">
        <ele>914.0</ele>
        <time>2020-07-22T08:21:16Z</time>
      </trkpt>
      <trkpt lat="42.7950120" lon="2.0898930">
        <ele>914.8</ele>
        <time>2020-07-22T08:21:19Z</time>
      </trkpt>
      <trkpt lat="42.7950320" lon="2.0899860">
        <ele>916.0</ele>
        <time>2020-07-22T08:21:22Z</time>
      </trkpt>
      <trkpt lat="42.7950460" lon="2.0900490">
        <ele>916.2</ele>
        <time>2020-07-22T08:21:24Z</time>
      </trkpt>
      <trkpt lat="42.7950660" lon="2.0902110">
        <ele>917.0</ele>
        <time>2020-07-22T08:21:29Z</time>
      </trkpt>
      <trkpt lat="42.7950670" lon="2.0903080">
        <ele>917.8</ele>
        <time>2020-07-22T08:21:32Z</time>
      </trkpt>
      <trkpt lat="42.7950610" lon="2.0903400">
        <ele>918.2</ele>
        <time>2020-07-22T08:21:33Z</time>
      </trkpt>
      <trkpt lat="42.7949850" lon="2.0904610">
        <ele>919.2</ele>
        <time>2020-07-22T08:21:37Z</time>
      </trkpt>
      <trkpt lat="42.7949190" lon="2.0904910">
        <ele>919.4</ele>
        <time>2020-07-22T08:21:39Z</time>
      </trkpt>
      <trkpt lat="42.7948470" lon="2.0905120">
        <ele>919.4</ele>
        <time>2020-07-22T08:21:41Z</time>
      </trkpt>
      <trkpt lat="42.7946900" lon="2.0905850">
        <ele>918.4</ele>
        <time>2020-07-22T08:21:45Z</time>
      </trkpt>
      <trkpt lat="42.7946500" lon="2.0906200">
        <ele>918.2</ele>
        <time>2020-07-22T08:21:46Z</time>
      </trkpt>
      <trkpt lat="42.7946100" lon="2.0906610">
        <ele>917.8</ele>
        <time>2020-07-22T08:21:47Z</time>
      </trkpt>
      <trkpt lat="42.7945320" lon="2.0907690">
        <ele>916.8</ele>
        <time>2020-07-22T08:21:49Z</time>
      </trkpt>
      <trkpt lat="42.7944940" lon="2.0908350">
        <ele>916.4</ele>
        <time>2020-07-22T08:21:50Z</time>
      </trkpt>
      <trkpt lat="42.7944610" lon="2.0909070">
        <ele>916.0</ele>
        <time>2020-07-22T08:21:51Z</time>
      </trkpt>
      <trkpt lat="42.7944320" lon="2.0909870">
        <ele>915.4</ele>
        <time>2020-07-22T08:21:52Z</time>
      </trkpt>
      <trkpt lat="42.7943840" lon="2.0911540">
        <ele>914.4</ele>
        <time>2020-07-22T08:21:54Z</time>
      </trkpt>
      <trkpt lat="42.7943640" lon="2.0912410">
        <ele>914.0</ele>
        <time>2020-07-22T08:21:55Z</time>
      </trkpt>
      <trkpt lat="42.7943120" lon="2.0915040">
        <ele>913.2</ele>
        <time>2020-07-22T08:21:58Z</time>
      </trkpt>
      <trkpt lat="42.7942620" lon="2.0916700">
        <ele>913.0</ele>
        <time>2020-07-22T08:22:00Z</time>
      </trkpt>
      <trkpt lat="42.7941820" lon="2.0918320">
        <ele>912.6</ele>
        <time>2020-07-22T08:22:02Z</time>
      </trkpt>
      <trkpt lat="42.7940820" lon="2.0919840">
        <ele>911.0</ele>
        <time>2020-07-22T08:22:04Z</time>
      </trkpt>
      <trkpt lat="42.7939760" lon="2.0921290">
        <ele>909.8</ele>
        <time>2020-07-22T08:22:06Z</time>
      </trkpt>
      <trkpt lat="42.7937620" lon="2.0924320">
        <ele>908.2</ele>
        <time>2020-07-22T08:22:10Z</time>
      </trkpt>
      <trkpt lat="42.7937110" lon="2.0925220">
        <ele>907.4</ele>
        <time>2020-07-22T08:22:11Z</time>
      </trkpt>
      <trkpt lat="42.7936650" lon="2.0926130">
        <ele>906.8</ele>
        <time>2020-07-22T08:22:12Z</time>
      </trkpt>
      <trkpt lat="42.7935750" lon="2.0927940">
        <ele>905.6</ele>
        <time>2020-07-22T08:22:14Z</time>
      </trkpt>
      <trkpt lat="42.7934570" lon="2.0930640">
        <ele>904.2</ele>
        <time>2020-07-22T08:22:17Z</time>
      </trkpt>
      <trkpt lat="42.7933730" lon="2.0932490">
        <ele>903.0</ele>
        <time>2020-07-22T08:22:19Z</time>
      </trkpt>
      <trkpt lat="42.7932260" lon="2.0936550">
        <ele>902.0</ele>
        <time>2020-07-22T08:22:23Z</time>
      </trkpt>
      <trkpt lat="42.7931580" lon="2.0938610">
        <ele>901.0</ele>
        <time>2020-07-22T08:22:25Z</time>
      </trkpt>
      <trkpt lat="42.7929990" lon="2.0943360">
        <ele>900.2</ele>
        <time>2020-07-22T08:22:30Z</time>
      </trkpt>
      <trkpt lat="42.7928540" lon="2.0946570">
        <ele>900.6</ele>
        <time>2020-07-22T08:22:34Z</time>
      </trkpt>
      <trkpt lat="42.7928200" lon="2.0947320">
        <ele>900.8</ele>
        <time>2020-07-22T08:22:35Z</time>
      </trkpt>
      <trkpt lat="42.7927230" lon="2.0949320">
        <ele>900.8</ele>
        <time>2020-07-22T08:22:38Z</time>
      </trkpt>
      <trkpt lat="42.7926370" lon="2.0951070">
        <ele>901.2</ele>
        <time>2020-07-22T08:22:41Z</time>
      </trkpt>
      <trkpt lat="42.7926090" lon="2.0951640">
        <ele>901.6</ele>
        <time>2020-07-22T08:22:42Z</time>
      </trkpt>
      <trkpt lat="42.7925800" lon="2.0952210">
        <ele>902.0</ele>
        <time>2020-07-22T08:22:43Z</time>
      </trkpt>
      <trkpt lat="42.7925280" lon="2.0953390">
        <ele>902.6</ele>
        <time>2020-07-22T08:22:45Z</time>
      </trkpt>
      <trkpt lat="42.7924790" lon="2.0954540">
        <ele>902.6</ele>
        <time>2020-07-22T08:22:47Z</time>
      </trkpt>
      <trkpt lat="42.7924100" lon="2.0956130">
        <ele>902.8</ele>
        <time>2020-07-22T08:22:50Z</time>
      </trkpt>
      <trkpt lat="42.7922760" lon="2.0959120">
        <ele>903.2</ele>
        <time>2020-07-22T08:22:56Z</time>
      </trkpt>
      <trkpt lat="42.7922080" lon="2.0960470">
        <ele>903.4</ele>
        <time>2020-07-22T08:22:59Z</time>
      </trkpt>
      <trkpt lat="42.7921680" lon="2.0961290">
        <ele>903.6</ele>
        <time>2020-07-22T08:23:01Z</time>
      </trkpt>
      <trkpt lat="42.7921300" lon="2.0961840">
        <ele>903.8</ele>
        <time>2020-07-22T08:23:03Z</time>
      </trkpt>
      <trkpt lat="42.7921150" lon="2.0961980">
        <ele>904.0</ele>
        <time>2020-07-22T08:23:04Z</time>
      </trkpt>
      <trkpt lat="42.7921060" lon="2.0962060">
        <ele>904.2</ele>
        <time>2020-07-22T08:23:05Z</time>
      </trkpt>
      <trkpt lat="42.7919840" lon="2.0961740">
        <ele>904.6</ele>
        <time>2020-07-22T08:23:24Z</time>
      </trkpt>
      <trkpt lat="42.7919470" lon="2.0961640">
        <ele>904.6</ele>
        <time>2020-07-22T08:23:25Z</time>
      </trkpt>
      <trkpt lat="42.7916560" lon="2.0961310">
        <ele>903.0</ele>
        <time>2020-07-22T08:23:31Z</time>
      </trkpt>
      <trkpt lat="42.7913990" lon="2.0961170">
        <ele>902.0</ele>
        <time>2020-07-22T08:23:36Z</time>
      </trkpt>
      <trkpt lat="42.7912330" lon="2.0961070">
        <ele>900.6</ele>
        <time>2020-07-22T08:23:39Z</time>
      </trkpt>
      <trkpt lat="42.7910010" lon="2.0960660">
        <ele>899.6</ele>
        <time>2020-07-22T08:23:43Z</time>
      </trkpt>
      <trkpt lat="42.7908270" lon="2.0960530">
        <ele>899.4</ele>
        <time>2020-07-22T08:23:46Z</time>
      </trkpt>
      <trkpt lat="42.7906590" lon="2.0960520">
        <ele>899.6</ele>
        <time>2020-07-22T08:23:49Z</time>
      </trkpt>
      <trkpt lat="42.7904030" lon="2.0960600">
        <ele>900.2</ele>
        <time>2020-07-22T08:23:54Z</time>
      </trkpt>
      <trkpt lat="42.7903550" lon="2.0960600">
        <ele>900.2</ele>
        <time>2020-07-22T08:23:55Z</time>
      </trkpt>
      <trkpt lat="42.7900450" lon="2.0960290">
        <ele>899.4</ele>
        <time>2020-07-22T08:24:01Z</time>
      </trkpt>
      <trkpt lat="42.7899360" lon="2.0960060">
        <ele>899.4</ele>
        <time>2020-07-22T08:24:03Z</time>
      </trkpt>
      <trkpt lat="42.7897240" lon="2.0959510">
        <ele>900.0</ele>
        <time>2020-07-22T08:24:07Z</time>
      </trkpt>
      <trkpt lat="42.7895700" lon="2.0959010">
        <ele>900.4</ele>
        <time>2020-07-22T08:24:10Z</time>
      </trkpt>
      <trkpt lat="42.7894180" lon="2.0958580">
        <ele>900.4</ele>
        <time>2020-07-22T08:24:13Z</time>
      </trkpt>
      <trkpt lat="42.7893170" lon="2.0958310">
        <ele>900.4</ele>
        <time>2020-07-22T08:24:15Z</time>
      </trkpt>
      <trkpt lat="42.7890710" lon="2.0957630">
        <ele>900.6</ele>
        <time>2020-07-22T08:24:20Z</time>
      </trkpt>
      <trkpt lat="42.7890220" lon="2.0957490">
        <ele>900.8</ele>
        <time>2020-07-22T08:24:21Z</time>
      </trkpt>
      <trkpt lat="42.7887770" lon="2.0956750">
        <ele>901.8</ele>
        <time>2020-07-22T08:24:26Z</time>
      </trkpt>
      <trkpt lat="42.7887290" lon="2.0956610">
        <ele>901.8</ele>
        <time>2020-07-22T08:24:27Z</time>
      </trkpt>
      <trkpt lat="42.7884370" lon="2.0955660">
        <ele>902.0</ele>
        <time>2020-07-22T08:24:33Z</time>
      </trkpt>
      <trkpt lat="42.7882420" lon="2.0954760">
        <ele>902.4</ele>
        <time>2020-07-22T08:24:37Z</time>
      </trkpt>
      <trkpt lat="42.7880620" lon="2.0953450">
        <ele>902.8</ele>
        <time>2020-07-22T08:24:40Z</time>
      </trkpt>
      <trkpt lat="42.7879290" lon="2.0952440">
        <ele>902.8</ele>
        <time>2020-07-22T08:24:44Z</time>
      </trkpt>
      <trkpt lat="42.7878860" lon="2.0952140">
        <ele>903.0</ele>
        <time>2020-07-22T08:24:45Z</time>
      </trkpt>
      <trkpt lat="42.7877020" lon="2.0951410">
        <ele>903.2</ele>
        <time>2020-07-22T08:24:49Z</time>
      </trkpt>
      <trkpt lat="42.7875620" lon="2.0950900">
        <ele>903.6</ele>
        <time>2020-07-22T08:24:52Z</time>
      </trkpt>
      <trkpt lat="42.7873300" lon="2.0950080">
        <ele>903.6</ele>
        <time>2020-07-22T08:24:57Z</time>
      </trkpt>
      <trkpt lat="42.7871970" lon="2.0949660">
        <ele>904.2</ele>
        <time>2020-07-22T08:25:00Z</time>
      </trkpt>
      <trkpt lat="42.7870300" lon="2.0949100">
        <ele>904.8</ele>
        <time>2020-07-22T08:25:04Z</time>
      </trkpt>
      <trkpt lat="42.7869910" lon="2.0948990">
        <ele>905.0</ele>
        <time>2020-07-22T08:25:05Z</time>
      </trkpt>
      <trkpt lat="42.7869530" lon="2.0948870">
        <ele>905.4</ele>
        <time>2020-07-22T08:25:06Z</time>
      </trkpt>
      <trkpt lat="42.7868030" lon="2.0948370">
        <ele>906.8</ele>
        <time>2020-07-22T08:25:09Z</time>
      </trkpt>
      <trkpt lat="42.7866560" lon="2.0948140">
        <ele>908.0</ele>
        <time>2020-07-22T08:25:14Z</time>
      </trkpt>
      <trkpt lat="42.7865190" lon="2.0948350">
        <ele>909.0</ele>
        <time>2020-07-22T08:25:18Z</time>
      </trkpt>
      <trkpt lat="42.7864260" lon="2.0948740">
        <ele>909.8</ele>
        <time>2020-07-22T08:25:21Z</time>
      </trkpt>
      <trkpt lat="42.7863410" lon="2.0949300">
        <ele>910.0</ele>
        <time>2020-07-22T08:25:24Z</time>
      </trkpt>
      <trkpt lat="42.7862160" lon="2.0950490">
        <ele>910.8</ele>
        <time>2020-07-22T08:25:28Z</time>
      </trkpt>
      <trkpt lat="42.7861920" lon="2.0950780">
        <ele>911.0</ele>
        <time>2020-07-22T08:25:29Z</time>
      </trkpt>
      <trkpt lat="42.7861920" lon="2.0950780">
        <ele>911.2</ele>
        <time>2020-07-22T08:25:30Z</time>
      </trkpt>
      <trkpt lat="42.7860710" lon="2.0952660">
        <ele>912.2</ele>
        <time>2020-07-22T08:25:35Z</time>
      </trkpt>
      <trkpt lat="42.7860570" lon="2.0952990">
        <ele>912.2</ele>
        <time>2020-07-22T08:25:36Z</time>
      </trkpt>
      <trkpt lat="42.7860300" lon="2.0953710">
        <ele>912.6</ele>
        <time>2020-07-22T08:25:38Z</time>
      </trkpt>
      <trkpt lat="42.7860030" lon="2.0955280">
        <ele>913.2</ele>
        <time>2020-07-22T08:25:42Z</time>
      </trkpt>
      <trkpt lat="42.7860010" lon="2.0955660">
        <ele>913.4</ele>
        <time>2020-07-22T08:25:43Z</time>
      </trkpt>
      <trkpt lat="42.7859990" lon="2.0956070">
        <ele>913.6</ele>
        <time>2020-07-22T08:25:44Z</time>
      </trkpt>
      <trkpt lat="42.7859980" lon="2.0957950">
        <ele>914.4</ele>
        <time>2020-07-22T08:25:50Z</time>
      </trkpt>
      <trkpt lat="42.7860040" lon="2.0958320">
        <ele>914.6</ele>
        <time>2020-07-22T08:25:51Z</time>
      </trkpt>
      <trkpt lat="42.7860100" lon="2.0959640">
        <ele>915.2</ele>
        <time>2020-07-22T08:25:54Z</time>
      </trkpt>
      <trkpt lat="42.7860120" lon="2.0960680">
        <ele>915.6</ele>
        <time>2020-07-22T08:25:57Z</time>
      </trkpt>
      <trkpt lat="42.7860130" lon="2.0962380">
        <ele>916.2</ele>
        <time>2020-07-22T08:26:02Z</time>
      </trkpt>
      <trkpt lat="42.7860140" lon="2.0963390">
        <ele>916.8</ele>
        <time>2020-07-22T08:26:05Z</time>
      </trkpt>
      <trkpt lat="42.7859900" lon="2.0965490">
        <ele>917.6</ele>
        <time>2020-07-22T08:26:11Z</time>
      </trkpt>
      <trkpt lat="42.7859900" lon="2.0965490">
        <ele>917.8</ele>
        <time>2020-07-22T08:26:12Z</time>
      </trkpt>
      <trkpt lat="42.7859440" lon="2.0967640">
        <ele>918.8</ele>
        <time>2020-07-22T08:26:18Z</time>
      </trkpt>
      <trkpt lat="42.7859360" lon="2.0967920">
        <ele>919.0</ele>
        <time>2020-07-22T08:26:19Z</time>
      </trkpt>
      <trkpt lat="42.7859230" lon="2.0968480">
        <ele>919.2</ele>
        <time>2020-07-22T08:26:21Z</time>
      </trkpt>
      <trkpt lat="42.7858930" lon="2.0969890">
        <ele>920.0</ele>
        <time>2020-07-22T08:26:25Z</time>
      </trkpt>
      <trkpt lat="42.7858690" lon="2.0971130">
        <ele>920.8</ele>
        <time>2020-07-22T08:26:28Z</time>
      </trkpt>
      <trkpt lat="42.7858290" lon="2.0972310">
        <ele>921.2</ele>
        <time>2020-07-22T08:26:31Z</time>
      </trkpt>
      <trkpt lat="42.7858030" lon="2.0973090">
        <ele>922.0</ele>
        <time>2020-07-22T08:26:34Z</time>
      </trkpt>
      <trkpt lat="42.7857890" lon="2.0973470">
        <ele>922.2</ele>
        <time>2020-07-22T08:26:35Z</time>
      </trkpt>
      <trkpt lat="42.7857750" lon="2.0973870">
        <ele>922.2</ele>
        <time>2020-07-22T08:26:36Z</time>
      </trkpt>
      <trkpt lat="42.7857160" lon="2.0975420">
        <ele>923.4</ele>
        <time>2020-07-22T08:26:40Z</time>
      </trkpt>
      <trkpt lat="42.7856830" lon="2.0976590">
        <ele>924.2</ele>
        <time>2020-07-22T08:26:43Z</time>
      </trkpt>
      <trkpt lat="42.7856970" lon="2.0977380">
        <ele>924.4</ele>
        <time>2020-07-22T08:26:45Z</time>
      </trkpt>
      <trkpt lat="42.7857110" lon="2.0978520">
        <ele>924.8</ele>
        <time>2020-07-22T08:26:48Z</time>
      </trkpt>
      <trkpt lat="42.7857920" lon="2.0981120">
        <ele>925.4</ele>
        <time>2020-07-22T08:26:53Z</time>
      </trkpt>
      <trkpt lat="42.7858060" lon="2.0982070">
        <ele>925.6</ele>
        <time>2020-07-22T08:26:54Z</time>
      </trkpt>
      <trkpt lat="42.7858470" lon="2.0984820">
        <ele>925.8</ele>
        <time>2020-07-22T08:27:00Z</time>
      </trkpt>
      <trkpt lat="42.7858730" lon="2.0986150">
        <ele>926.4</ele>
        <time>2020-07-22T08:27:03Z</time>
      </trkpt>
      <trkpt lat="42.7858820" lon="2.0986630">
        <ele>926.6</ele>
        <time>2020-07-22T08:27:04Z</time>
      </trkpt>
      <trkpt lat="42.7858980" lon="2.0987590">
        <ele>926.8</ele>
        <time>2020-07-22T08:27:06Z</time>
      </trkpt>
      <trkpt lat="42.7859060" lon="2.0988990">
        <ele>926.8</ele>
        <time>2020-07-22T08:27:09Z</time>
      </trkpt>
      <trkpt lat="42.7858960" lon="2.0989440">
        <ele>927.0</ele>
        <time>2020-07-22T08:27:11Z</time>
      </trkpt>
      <trkpt lat="42.7858140" lon="2.0990240">
        <ele>927.6</ele>
        <time>2020-07-22T08:27:14Z</time>
      </trkpt>
      <trkpt lat="42.7857400" lon="2.0989740">
        <ele>929.2</ele>
        <time>2020-07-22T08:27:17Z</time>
      </trkpt>
      <trkpt lat="42.7857000" lon="2.0988460">
        <ele>930.2</ele>
        <time>2020-07-22T08:27:21Z</time>
      </trkpt>
      <trkpt lat="42.7857010" lon="2.0987710">
        <ele>931.0</ele>
        <time>2020-07-22T08:27:23Z</time>
      </trkpt>
      <trkpt lat="42.7857030" lon="2.0986880">
        <ele>931.2</ele>
        <time>2020-07-22T08:27:24Z</time>
      </trkpt>
      <trkpt lat="42.7857040" lon="2.0986430">
        <ele>931.4</ele>
        <time>2020-07-22T08:27:25Z</time>
      </trkpt>
      <trkpt lat="42.7857060" lon="2.0983570">
        <ele>932.2</ele>
        <time>2020-07-22T08:27:31Z</time>
      </trkpt>
      <trkpt lat="42.7857010" lon="2.0982220">
        <ele>932.4</ele>
        <time>2020-07-22T08:27:34Z</time>
      </trkpt>
      <trkpt lat="42.7856880" lon="2.0980310">
        <ele>933.4</ele>
        <time>2020-07-22T08:27:40Z</time>
      </trkpt>
      <trkpt lat="42.7856880" lon="2.0980310">
        <ele>933.6</ele>
        <time>2020-07-22T08:27:41Z</time>
      </trkpt>
      <trkpt lat="42.7856710" lon="2.0979430">
        <ele>934.0</ele>
        <time>2020-07-22T08:27:44Z</time>
      </trkpt>
      <trkpt lat="42.7856640" lon="2.0979150">
        <ele>934.2</ele>
        <time>2020-07-22T08:27:45Z</time>
      </trkpt>
      <trkpt lat="42.7856590" lon="2.0978200">
        <ele>934.4</ele>
        <time>2020-07-22T08:27:48Z</time>
      </trkpt>
      <trkpt lat="42.7856560" lon="2.0977860">
        <ele>934.4</ele>
        <time>2020-07-22T08:27:49Z</time>
      </trkpt>
      <trkpt lat="42.7856560" lon="2.0977860">
        <ele>934.4</ele>
        <time>2020-07-22T08:27:50Z</time>
      </trkpt>
      <trkpt lat="42.7856480" lon="2.0977150">
        <ele>934.6</ele>
        <time>2020-07-22T08:27:52Z</time>
      </trkpt>
      <trkpt lat="42.7856290" lon="2.0976050">
        <ele>935.0</ele>
        <time>2020-07-22T08:27:55Z</time>
      </trkpt>
      <trkpt lat="42.7856280" lon="2.0974950">
        <ele>935.6</ele>
        <time>2020-07-22T08:27:58Z</time>
      </trkpt>
      <trkpt lat="42.7856180" lon="2.0973400">
        <ele>936.4</ele>
        <time>2020-07-22T08:28:02Z</time>
      </trkpt>
      <trkpt lat="42.7856150" lon="2.0972190">
        <ele>936.8</ele>
        <time>2020-07-22T08:28:04Z</time>
      </trkpt>
      <trkpt lat="42.7855940" lon="2.0969870">
        <ele>937.8</ele>
        <time>2020-07-22T08:28:10Z</time>
      </trkpt>
      <trkpt lat="42.7855780" lon="2.0969000">
        <ele>938.0</ele>
        <time>2020-07-22T08:28:11Z</time>
      </trkpt>
      <trkpt lat="42.7855240" lon="2.0966780">
        <ele>939.0</ele>
        <time>2020-07-22T08:28:16Z</time>
      </trkpt>
      <trkpt lat="42.7854940" lon="2.0965180">
        <ele>940.2</ele>
        <time>2020-07-22T08:28:21Z</time>
      </trkpt>
      <trkpt lat="42.7854670" lon="2.0963490">
        <ele>940.4</ele>
        <time>2020-07-22T08:28:24Z</time>
      </trkpt>
      <trkpt lat="42.7854360" lon="2.0961920">
        <ele>941.2</ele>
        <time>2020-07-22T08:28:28Z</time>
      </trkpt>
      <trkpt lat="42.7853890" lon="2.0959650">
        <ele>942.2</ele>
        <time>2020-07-22T08:28:33Z</time>
      </trkpt>
      <trkpt lat="42.7853020" lon="2.0956860">
        <ele>942.8</ele>
        <time>2020-07-22T08:28:39Z</time>
      </trkpt>
      <trkpt lat="42.7852860" lon="2.0956440">
        <ele>943.4</ele>
        <time>2020-07-22T08:28:41Z</time>
      </trkpt>
      <trkpt lat="42.7852690" lon="2.0956000">
        <ele>943.8</ele>
        <time>2020-07-22T08:28:42Z</time>
      </trkpt>
      <trkpt lat="42.7851960" lon="2.0954280">
        <ele>944.6</ele>
        <time>2020-07-22T08:28:46Z</time>
      </trkpt>
      <trkpt lat="42.7851100" lon="2.0952710">
        <ele>945.6</ele>
        <time>2020-07-22T08:28:50Z</time>
      </trkpt>
      <trkpt lat="42.7850870" lon="2.0952350">
        <ele>945.6</ele>
        <time>2020-07-22T08:28:51Z</time>
      </trkpt>
      <trkpt lat="42.7850420" lon="2.0951680">
        <ele>946.0</ele>
        <time>2020-07-22T08:28:53Z</time>
      </trkpt>
      <trkpt lat="42.7849730" lon="2.0950700">
        <ele>946.8</ele>
        <time>2020-07-22T08:28:56Z</time>
      </trkpt>
      <trkpt lat="42.7849460" lon="2.0950420">
        <ele>947.0</ele>
        <time>2020-07-22T08:28:57Z</time>
      </trkpt>
      <trkpt lat="42.7848730" lon="2.0949570">
        <ele>947.8</ele>
        <time>2020-07-22T08:29:01Z</time>
      </trkpt>
      <trkpt lat="42.7848700" lon="2.0949490">
        <ele>948.0</ele>
        <time>2020-07-22T08:29:02Z</time>
      </trkpt>
      <trkpt lat="42.7844480" lon="2.0948040">
        <ele>950.6</ele>
        <time>2020-07-22T08:30:16Z</time>
      </trkpt>
      <trkpt lat="42.7844220" lon="2.0947960">
        <ele>950.8</ele>
        <time>2020-07-22T08:30:17Z</time>
      </trkpt>
      <trkpt lat="42.7843980" lon="2.0947860">
        <ele>951.0</ele>
        <time>2020-07-22T08:30:18Z</time>
      </trkpt>
      <trkpt lat="42.7842670" lon="2.0947240">
        <ele>951.8</ele>
        <time>2020-07-22T08:30:23Z</time>
      </trkpt>
      <trkpt lat="42.7842160" lon="2.0946750">
        <ele>952.2</ele>
        <time>2020-07-22T08:30:25Z</time>
      </trkpt>
      <trkpt lat="42.7841820" lon="2.0946140">
        <ele>952.4</ele>
        <time>2020-07-22T08:30:26Z</time>
      </trkpt>
      <trkpt lat="42.7841710" lon="2.0945890">
        <ele>952.8</ele>
        <time>2020-07-22T08:30:28Z</time>
      </trkpt>
      <trkpt lat="42.7841640" lon="2.0945720">
        <ele>953.0</ele>
        <time>2020-07-22T08:30:29Z</time>
      </trkpt>
      <trkpt lat="42.7841400" lon="2.0944660">
        <ele>954.0</ele>
        <time>2020-07-22T08:30:34Z</time>
      </trkpt>
      <trkpt lat="42.7841370" lon="2.0944340">
        <ele>954.2</ele>
        <time>2020-07-22T08:30:35Z</time>
      </trkpt>
      <trkpt lat="42.7841340" lon="2.0943970">
        <ele>954.4</ele>
        <time>2020-07-22T08:30:36Z</time>
      </trkpt>
      <trkpt lat="42.7841290" lon="2.0943600">
        <ele>954.4</ele>
        <time>2020-07-22T08:30:37Z</time>
      </trkpt>
      <trkpt lat="42.7841230" lon="2.0943230">
        <ele>954.6</ele>
        <time>2020-07-22T08:30:38Z</time>
      </trkpt>
      <trkpt lat="42.7841000" lon="2.0942060">
        <ele>955.0</ele>
        <time>2020-07-22T08:30:41Z</time>
      </trkpt>
      <trkpt lat="42.7840580" lon="2.0940550">
        <ele>955.8</ele>
        <time>2020-07-22T08:30:44Z</time>
      </trkpt>
      <trkpt lat="42.7840580" lon="2.0940550">
        <ele>956.2</ele>
        <time>2020-07-22T08:30:45Z</time>
      </trkpt>
      <trkpt lat="42.7839980" lon="2.0938450">
        <ele>957.0</ele>
        <time>2020-07-22T08:30:51Z</time>
      </trkpt>
      <trkpt lat="42.7839760" lon="2.0937580">
        <ele>957.2</ele>
        <time>2020-07-22T08:30:53Z</time>
      </trkpt>
      <trkpt lat="42.7839650" lon="2.0937200">
        <ele>957.4</ele>
        <time>2020-07-22T08:30:54Z</time>
      </trkpt>
      <trkpt lat="42.7839380" lon="2.0936400">
        <ele>957.6</ele>
        <time>2020-07-22T08:30:55Z</time>
      </trkpt>
      <trkpt lat="42.7839060" lon="2.0935610">
        <ele>958.4</ele>
        <time>2020-07-22T08:30:58Z</time>
      </trkpt>
      <trkpt lat="42.7838720" lon="2.0934810">
        <ele>958.8</ele>
        <time>2020-07-22T08:31:00Z</time>
      </trkpt>
      <trkpt lat="42.7838580" lon="2.0934420">
        <ele>958.8</ele>
        <time>2020-07-22T08:31:01Z</time>
      </trkpt>
      <trkpt lat="42.7838100" lon="2.0933290">
        <ele>959.4</ele>
        <time>2020-07-22T08:31:04Z</time>
      </trkpt>
      <trkpt lat="42.7837650" lon="2.0932120">
        <ele>960.2</ele>
        <time>2020-07-22T08:31:07Z</time>
      </trkpt>
      <trkpt lat="42.7837430" lon="2.0931300">
        <ele>960.6</ele>
        <time>2020-07-22T08:31:09Z</time>
      </trkpt>
      <trkpt lat="42.7836820" lon="2.0929210">
        <ele>961.8</ele>
        <time>2020-07-22T08:31:14Z</time>
      </trkpt>
      <trkpt lat="42.7836200" lon="2.0928300">
        <ele>962.2</ele>
        <time>2020-07-22T08:31:17Z</time>
      </trkpt>
      <trkpt lat="42.7835330" lon="2.0928150">
        <ele>962.8</ele>
        <time>2020-07-22T08:31:20Z</time>
      </trkpt>
      <trkpt lat="42.7835070" lon="2.0928320">
        <ele>963.0</ele>
        <time>2020-07-22T08:31:21Z</time>
      </trkpt>
      <trkpt lat="42.7834720" lon="2.0928880">
        <ele>963.6</ele>
        <time>2020-07-22T08:31:23Z</time>
      </trkpt>
      <trkpt lat="42.7834630" lon="2.0930090">
        <ele>964.0</ele>
        <time>2020-07-22T08:31:25Z</time>
      </trkpt>
      <trkpt lat="42.7835250" lon="2.0932520">
        <ele>965.0</ele>
        <time>2020-07-22T08:31:31Z</time>
      </trkpt>
      <trkpt lat="42.7835710" lon="2.0934690">
        <ele>965.8</ele>
        <time>2020-07-22T08:31:37Z</time>
      </trkpt>
      <trkpt lat="42.7835740" lon="2.0935110">
        <ele>966.0</ele>
        <time>2020-07-22T08:31:38Z</time>
      </trkpt>
      <trkpt lat="42.7835690" lon="2.0936340">
        <ele>966.6</ele>
        <time>2020-07-22T08:31:40Z</time>
      </trkpt>
      <trkpt lat="42.7835680" lon="2.0936720">
        <ele>967.2</ele>
        <time>2020-07-22T08:31:42Z</time>
      </trkpt>
      <trkpt lat="42.7835710" lon="2.0938410">
        <ele>968.4</ele>
        <time>2020-07-22T08:31:46Z</time>
      </trkpt>
      <trkpt lat="42.7835680" lon="2.0939610">
        <ele>968.8</ele>
        <time>2020-07-22T08:31:49Z</time>
      </trkpt>
      <trkpt lat="42.7835400" lon="2.0941260">
        <ele>969.6</ele>
        <time>2020-07-22T08:31:53Z</time>
      </trkpt>
      <trkpt lat="42.7835320" lon="2.0941660">
        <ele>969.8</ele>
        <time>2020-07-22T08:31:54Z</time>
      </trkpt>
      <trkpt lat="42.7835150" lon="2.0942390">
        <ele>970.2</ele>
        <time>2020-07-22T08:31:56Z</time>
      </trkpt>
      <trkpt lat="42.7834940" lon="2.0943030">
        <ele>970.8</ele>
        <time>2020-07-22T08:31:58Z</time>
      </trkpt>
      <trkpt lat="42.7834200" lon="2.0944700">
        <ele>971.8</ele>
        <time>2020-07-22T08:32:03Z</time>
      </trkpt>
      <trkpt lat="42.7834000" lon="2.0944990">
        <ele>972.0</ele>
        <time>2020-07-22T08:32:04Z</time>
      </trkpt>
      <trkpt lat="42.7833550" lon="2.0945510">
        <ele>972.2</ele>
        <time>2020-07-22T08:32:06Z</time>
      </trkpt>
      <trkpt lat="42.7832590" lon="2.0946470">
        <ele>972.6</ele>
        <time>2020-07-22T08:32:10Z</time>
      </trkpt>
      <trkpt lat="42.7832150" lon="2.0946880">
        <ele>972.8</ele>
        <time>2020-07-22T08:32:12Z</time>
      </trkpt>
      <trkpt lat="42.7831500" lon="2.0947420">
        <ele>973.2</ele>
        <time>2020-07-22T08:32:15Z</time>
      </trkpt>
      <trkpt lat="42.7831100" lon="2.0947680">
        <ele>974.0</ele>
        <time>2020-07-22T08:32:17Z</time>
      </trkpt>
      <trkpt lat="42.7830940" lon="2.0947810">
        <ele>974.4</ele>
        <time>2020-07-22T08:32:18Z</time>
      </trkpt>
      <trkpt lat="42.7830800" lon="2.0947920">
        <ele>974.6</ele>
        <time>2020-07-22T08:32:19Z</time>
      </trkpt>
      <trkpt lat="42.7830800" lon="2.0947920">
        <ele>975.2</ele>
        <time>2020-07-22T08:38:39Z</time>
      </trkpt>
      <trkpt lat="42.7829020" lon="2.0948170">
        <ele>975.2</ele>
        <time>2020-07-22T08:38:40Z</time>
      </trkpt>
      <trkpt lat="42.7828940" lon="2.0948770">
        <ele>975.2</ele>
        <time>2020-07-22T08:38:41Z</time>
      </trkpt>
      <trkpt lat="42.7828540" lon="2.0949240">
        <ele>975.6</ele>
        <time>2020-07-22T08:38:43Z</time>
      </trkpt>
      <trkpt lat="42.7828220" lon="2.0949570">
        <ele>976.2</ele>
        <time>2020-07-22T08:38:45Z</time>
      </trkpt>
      <trkpt lat="42.7828040" lon="2.0949790">
        <ele>976.4</ele>
        <time>2020-07-22T08:38:46Z</time>
      </trkpt>
      <trkpt lat="42.7827800" lon="2.0949960">
        <ele>976.6</ele>
        <time>2020-07-22T08:38:47Z</time>
      </trkpt>
      <trkpt lat="42.7827250" lon="2.0950190">
        <ele>976.8</ele>
        <time>2020-07-22T08:38:49Z</time>
      </trkpt>
      <trkpt lat="42.7826090" lon="2.0950830">
        <ele>977.6</ele>
        <time>2020-07-22T08:38:52Z</time>
      </trkpt>
      <trkpt lat="42.7825480" lon="2.0951120">
        <ele>978.0</ele>
        <time>2020-07-22T08:38:54Z</time>
      </trkpt>
      <trkpt lat="42.7824580" lon="2.0951450">
        <ele>978.0</ele>
        <time>2020-07-22T08:38:57Z</time>
      </trkpt>
      <trkpt lat="42.7824240" lon="2.0951550">
        <ele>978.0</ele>
        <time>2020-07-22T08:38:58Z</time>
      </trkpt>
      <trkpt lat="42.7823100" lon="2.0952010">
        <ele>977.6</ele>
        <time>2020-07-22T08:39:01Z</time>
      </trkpt>
      <trkpt lat="42.7820810" lon="2.0952970">
        <ele>977.4</ele>
        <time>2020-07-22T08:39:06Z</time>
      </trkpt>
      <trkpt lat="42.7820320" lon="2.0953250">
        <ele>977.2</ele>
        <time>2020-07-22T08:39:07Z</time>
      </trkpt>
      <trkpt lat="42.7819300" lon="2.0953890">
        <ele>976.4</ele>
        <time>2020-07-22T08:39:09Z</time>
      </trkpt>
      <trkpt lat="42.7817130" lon="2.0955560">
        <ele>975.4</ele>
        <time>2020-07-22T08:39:13Z</time>
      </trkpt>
      <trkpt lat="42.7816590" lon="2.0956050">
        <ele>975.2</ele>
        <time>2020-07-22T08:39:14Z</time>
      </trkpt>
      <trkpt lat="42.7813850" lon="2.0958810">
        <ele>974.2</ele>
        <time>2020-07-22T08:39:19Z</time>
      </trkpt>
      <trkpt lat="42.7813300" lon="2.0959390">
        <ele>974.0</ele>
        <time>2020-07-22T08:39:20Z</time>
      </trkpt>
      <trkpt lat="42.7812740" lon="2.0959960">
        <ele>973.8</ele>
        <time>2020-07-22T08:39:21Z</time>
      </trkpt>
      <trkpt lat="42.7811000" lon="2.0961620">
        <ele>973.0</ele>
        <time>2020-07-22T08:39:24Z</time>
      </trkpt>
      <trkpt lat="42.7808750" lon="2.0963690">
        <ele>971.6</ele>
        <time>2020-07-22T08:39:28Z</time>
      </trkpt>
      <trkpt lat="42.7807050" lon="2.0965120">
        <ele>970.4</ele>
        <time>2020-07-22T08:39:31Z</time>
      </trkpt>
      <trkpt lat="42.7804790" lon="2.0967010">
        <ele>969.4</ele>
        <time>2020-07-22T08:39:35Z</time>
      </trkpt>
      <trkpt lat="42.7804250" lon="2.0967520">
        <ele>969.0</ele>
        <time>2020-07-22T08:39:37Z</time>
      </trkpt>
      <trkpt lat="42.7803680" lon="2.0968300">
        <ele>969.0</ele>
        <time>2020-07-22T08:39:38Z</time>
      </trkpt>
      <trkpt lat="42.7801400" lon="2.0971440">
        <ele>969.0</ele>
        <time>2020-07-22T08:39:42Z</time>
      </trkpt>
      <trkpt lat="42.7800050" lon="2.0973730">
        <ele>968.2</ele>
        <time>2020-07-22T08:39:45Z</time>
      </trkpt>
      <trkpt lat="42.7797320" lon="2.0978560">
        <ele>967.2</ele>
        <time>2020-07-22T08:39:51Z</time>
      </trkpt>
      <trkpt lat="42.7796060" lon="2.0980920">
        <ele>965.8</ele>
        <time>2020-07-22T08:39:54Z</time>
      </trkpt>
      <trkpt lat="42.7795200" lon="2.0982540">
        <ele>965.0</ele>
        <time>2020-07-22T08:39:57Z</time>
      </trkpt>
      <trkpt lat="42.7794580" lon="2.0983350">
        <ele>964.6</ele>
        <time>2020-07-22T08:39:58Z</time>
      </trkpt>
      <trkpt lat="42.7791460" lon="2.0987400">
        <ele>963.8</ele>
        <time>2020-07-22T08:40:03Z</time>
      </trkpt>
      <trkpt lat="42.7791080" lon="2.0988220">
        <ele>963.8</ele>
        <time>2020-07-22T08:40:04Z</time>
      </trkpt>
      <trkpt lat="42.7790780" lon="2.0989120">
        <ele>963.8</ele>
        <time>2020-07-22T08:40:05Z</time>
      </trkpt>
      <trkpt lat="42.7790060" lon="2.0990790">
        <ele>963.4</ele>
        <time>2020-07-22T08:40:07Z</time>
      </trkpt>
      <trkpt lat="42.7789410" lon="2.0991340">
        <ele>963.2</ele>
        <time>2020-07-22T08:40:08Z</time>
      </trkpt>
      <trkpt lat="42.7788710" lon="2.0991610">
        <ele>962.8</ele>
        <time>2020-07-22T08:40:09Z</time>
      </trkpt>
      <trkpt lat="42.7787300" lon="2.0991660">
        <ele>962.4</ele>
        <time>2020-07-22T08:40:11Z</time>
      </trkpt>
      <trkpt lat="42.7786610" lon="2.0991310">
        <ele>962.2</ele>
        <time>2020-07-22T08:40:12Z</time>
      </trkpt>
      <trkpt lat="42.7785930" lon="2.0990890">
        <ele>962.0</ele>
        <time>2020-07-22T08:40:13Z</time>
      </trkpt>
      <trkpt lat="42.7784890" lon="2.0990360">
        <ele>961.8</ele>
        <time>2020-07-22T08:40:14Z</time>
      </trkpt>
      <trkpt lat="42.7783850" lon="2.0989830">
        <ele>961.2</ele>
        <time>2020-07-22T08:40:16Z</time>
      </trkpt>
      <trkpt lat="42.7783510" lon="2.0989700">
        <ele>961.0</ele>
        <time>2020-07-22T08:40:17Z</time>
      </trkpt>
      <trkpt lat="42.7783160" lon="2.0989570">
        <ele>960.6</ele>
        <time>2020-07-22T08:40:18Z</time>
      </trkpt>
      <trkpt lat="42.7782450" lon="2.0989530">
        <ele>960.2</ele>
        <time>2020-07-22T08:40:19Z</time>
      </trkpt>
      <trkpt lat="42.7781710" lon="2.0989650">
        <ele>960.0</ele>
        <time>2020-07-22T08:40:20Z</time>
      </trkpt>
      <trkpt lat="42.7779540" lon="2.0990810">
        <ele>959.2</ele>
        <time>2020-07-22T08:40:22Z</time>
      </trkpt>
      <trkpt lat="42.7778210" lon="2.0992130">
        <ele>958.6</ele>
        <time>2020-07-22T08:40:24Z</time>
      </trkpt>
      <trkpt lat="42.7776770" lon="2.0993490">
        <ele>958.0</ele>
        <time>2020-07-22T08:40:26Z</time>
      </trkpt>
      <trkpt lat="42.7776000" lon="2.0994070">
        <ele>957.8</ele>
        <time>2020-07-22T08:40:27Z</time>
      </trkpt>
      <trkpt lat="42.7775180" lon="2.0994610">
        <ele>957.4</ele>
        <time>2020-07-22T08:40:28Z</time>
      </trkpt>
      <trkpt lat="42.7772630" lon="2.0995930">
        <ele>956.4</ele>
        <time>2020-07-22T08:40:31Z</time>
      </trkpt>
      <trkpt lat="42.7771750" lon="2.0996320">
        <ele>955.8</ele>
        <time>2020-07-22T08:40:32Z</time>
      </trkpt>
      <trkpt lat="42.7769950" lon="2.0997030">
        <ele>955.2</ele>
        <time>2020-07-22T08:40:34Z</time>
      </trkpt>
      <trkpt lat="42.7769050" lon="2.0997360">
        <ele>954.8</ele>
        <time>2020-07-22T08:40:35Z</time>
      </trkpt>
      <trkpt lat="42.7768140" lon="2.0997640">
        <ele>954.0</ele>
        <time>2020-07-22T08:40:37Z</time>
      </trkpt>
      <trkpt lat="42.7767200" lon="2.0997890">
        <ele>953.4</ele>
        <time>2020-07-22T08:40:38Z</time>
      </trkpt>
      <trkpt lat="42.7766280" lon="2.0998040">
        <ele>953.2</ele>
        <time>2020-07-22T08:40:39Z</time>
      </trkpt>
      <trkpt lat="42.7764460" lon="2.0998170">
        <ele>952.8</ele>
        <time>2020-07-22T08:40:40Z</time>
      </trkpt>
      <trkpt lat="42.7761930" lon="2.0997980">
        <ele>951.6</ele>
        <time>2020-07-22T08:40:43Z</time>
      </trkpt>
      <trkpt lat="42.7759490" lon="2.0997790">
        <ele>951.2</ele>
        <time>2020-07-22T08:40:46Z</time>
      </trkpt>
      <trkpt lat="42.7758650" lon="2.0997730">
        <ele>951.2</ele>
        <time>2020-07-22T08:40:47Z</time>
      </trkpt>
      <trkpt lat="42.7754470" lon="2.0997410">
        <ele>950.4</ele>
        <time>2020-07-22T08:40:52Z</time>
      </trkpt>
      <trkpt lat="42.7753630" lon="2.0997270">
        <ele>950.2</ele>
        <time>2020-07-22T08:40:53Z</time>
      </trkpt>
      <trkpt lat="42.7751980" lon="2.0996740">
        <ele>948.8</ele>
        <time>2020-07-22T08:40:56Z</time>
      </trkpt>
      <trkpt lat="42.7749730" lon="2.0995310">
        <ele>947.6</ele>
        <time>2020-07-22T08:40:58Z</time>
      </trkpt>
      <trkpt lat="42.7746880" lon="2.0993860">
        <ele>946.4</ele>
        <time>2020-07-22T08:41:02Z</time>
      </trkpt>
      <trkpt lat="42.7746150" lon="2.0993690">
        <ele>946.4</ele>
        <time>2020-07-22T08:41:03Z</time>
      </trkpt>
      <trkpt lat="42.7743980" lon="2.0993790">
        <ele>946.4</ele>
        <time>2020-07-22T08:41:06Z</time>
      </trkpt>
      <trkpt lat="42.7743290" lon="2.0994010">
        <ele>946.4</ele>
        <time>2020-07-22T08:41:07Z</time>
      </trkpt>
      <trkpt lat="42.7742620" lon="2.0994310">
        <ele>946.4</ele>
        <time>2020-07-22T08:41:08Z</time>
      </trkpt>
      <trkpt lat="42.7739970" lon="2.0995440">
        <ele>945.6</ele>
        <time>2020-07-22T08:41:12Z</time>
      </trkpt>
      <trkpt lat="42.7737430" lon="2.0996700">
        <ele>945.6</ele>
        <time>2020-07-22T08:41:16Z</time>
      </trkpt>
      <trkpt lat="42.7735530" lon="2.0997600">
        <ele>945.6</ele>
        <time>2020-07-22T08:41:19Z</time>
      </trkpt>
      <trkpt lat="42.7734890" lon="2.0997830">
        <ele>945.4</ele>
        <time>2020-07-22T08:41:20Z</time>
      </trkpt>
      <trkpt lat="42.7734240" lon="2.0998070">
        <ele>945.0</ele>
        <time>2020-07-22T08:41:21Z</time>
      </trkpt>
      <trkpt lat="42.7731690" lon="2.0999110">
        <ele>944.2</ele>
        <time>2020-07-22T08:41:25Z</time>
      </trkpt>
      <trkpt lat="42.7729720" lon="2.0999660">
        <ele>944.2</ele>
        <time>2020-07-22T08:41:28Z</time>
      </trkpt>
      <trkpt lat="42.7726290" lon="2.1000360">
        <ele>943.2</ele>
        <time>2020-07-22T08:41:33Z</time>
      </trkpt>
      <trkpt lat="42.7725630" lon="2.1000290">
        <ele>942.8</ele>
        <time>2020-07-22T08:41:34Z</time>
      </trkpt>
      <trkpt lat="42.7724990" lon="2.1000120">
        <ele>942.6</ele>
        <time>2020-07-22T08:41:35Z</time>
      </trkpt>
      <trkpt lat="42.7724390" lon="2.0999810">
        <ele>942.4</ele>
        <time>2020-07-22T08:41:36Z</time>
      </trkpt>
      <trkpt lat="42.7723800" lon="2.0999440">
        <ele>942.2</ele>
        <time>2020-07-22T08:41:37Z</time>
      </trkpt>
      <trkpt lat="42.7723260" lon="2.0998990">
        <ele>942.0</ele>
        <time>2020-07-22T08:41:38Z</time>
      </trkpt>
      <trkpt lat="42.7722740" lon="2.0998520">
        <ele>941.8</ele>
        <time>2020-07-22T08:41:39Z</time>
      </trkpt>
      <trkpt lat="42.7721170" lon="2.0997230">
        <ele>942.0</ele>
        <time>2020-07-22T08:41:42Z</time>
      </trkpt>
      <trkpt lat="42.7719560" lon="2.0996290">
        <ele>942.2</ele>
        <time>2020-07-22T08:41:45Z</time>
      </trkpt>
      <trkpt lat="42.7716720" lon="2.0994640">
        <ele>942.2</ele>
        <time>2020-07-22T08:41:51Z</time>
      </trkpt>
      <trkpt lat="42.7716260" lon="2.0994390">
        <ele>942.0</ele>
        <time>2020-07-22T08:41:52Z</time>
      </trkpt>
      <trkpt lat="42.7714410" lon="2.0993210">
        <ele>941.0</ele>
        <time>2020-07-22T08:41:56Z</time>
      </trkpt>
      <trkpt lat="42.7713460" lon="2.0992750">
        <ele>940.8</ele>
        <time>2020-07-22T08:41:58Z</time>
      </trkpt>
      <trkpt lat="42.7711410" lon="2.0991860">
        <ele>940.6</ele>
        <time>2020-07-22T08:42:02Z</time>
      </trkpt>
      <trkpt lat="42.7710190" lon="2.0991400">
        <ele>940.4</ele>
        <time>2020-07-22T08:42:04Z</time>
      </trkpt>
      <trkpt lat="42.7708960" lon="2.0990910">
        <ele>939.8</ele>
        <time>2020-07-22T08:42:06Z</time>
      </trkpt>
      <trkpt lat="42.7705160" lon="2.0989350">
        <ele>939.0</ele>
        <time>2020-07-22T08:42:12Z</time>
      </trkpt>
      <trkpt lat="42.7704490" lon="2.0989130">
        <ele>939.0</ele>
        <time>2020-07-22T08:42:13Z</time>
      </trkpt>
      <trkpt lat="42.7703080" lon="2.0989030">
        <ele>938.8</ele>
        <time>2020-07-22T08:42:15Z</time>
      </trkpt>
      <trkpt lat="42.7701670" lon="2.0989520">
        <ele>938.4</ele>
        <time>2020-07-22T08:42:17Z</time>
      </trkpt>
      <trkpt lat="42.7700000" lon="2.0991200">
        <ele>937.8</ele>
        <time>2020-07-22T08:42:20Z</time>
      </trkpt>
      <trkpt lat="42.7699490" lon="2.0991830">
        <ele>937.6</ele>
        <time>2020-07-22T08:42:21Z</time>
      </trkpt>
      <trkpt lat="42.7696850" lon="2.0994430">
        <ele>937.8</ele>
        <time>2020-07-22T08:42:26Z</time>
      </trkpt>
      <trkpt lat="42.7695700" lon="2.0994410">
        <ele>937.6</ele>
        <time>2020-07-22T08:42:28Z</time>
      </trkpt>
      <trkpt lat="42.7695220" lon="2.0994030">
        <ele>937.4</ele>
        <time>2020-07-22T08:42:29Z</time>
      </trkpt>
      <trkpt lat="42.7694800" lon="2.0993510">
        <ele>937.2</ele>
        <time>2020-07-22T08:42:30Z</time>
      </trkpt>
      <trkpt lat="42.7694060" lon="2.0992180">
        <ele>936.8</ele>
        <time>2020-07-22T08:42:32Z</time>
      </trkpt>
      <trkpt lat="42.7693700" lon="2.0991480">
        <ele>936.6</ele>
        <time>2020-07-22T08:42:33Z</time>
      </trkpt>
      <trkpt lat="42.7692340" lon="2.0989580">
        <ele>936.0</ele>
        <time>2020-07-22T08:42:36Z</time>
      </trkpt>
      <trkpt lat="42.7691770" lon="2.0989110">
        <ele>935.8</ele>
        <time>2020-07-22T08:42:37Z</time>
      </trkpt>
      <trkpt lat="42.7690680" lon="2.0988220">
        <ele>935.4</ele>
        <time>2020-07-22T08:42:39Z</time>
      </trkpt>
      <trkpt lat="42.7688820" lon="2.0987170">
        <ele>935.2</ele>
        <time>2020-07-22T08:42:42Z</time>
      </trkpt>
      <trkpt lat="42.7687880" lon="2.0986150">
        <ele>935.0</ele>
        <time>2020-07-22T08:42:44Z</time>
      </trkpt>
      <trkpt lat="42.7687480" lon="2.0985500">
        <ele>934.8</ele>
        <time>2020-07-22T08:42:46Z</time>
      </trkpt>
      <trkpt lat="42.7687140" lon="2.0984760">
        <ele>934.8</ele>
        <time>2020-07-22T08:42:47Z</time>
      </trkpt>
      <trkpt lat="42.7686640" lon="2.0983120">
        <ele>934.2</ele>
        <time>2020-07-22T08:42:49Z</time>
      </trkpt>
      <trkpt lat="42.7686430" lon="2.0982370">
        <ele>934.0</ele>
        <time>2020-07-22T08:42:50Z</time>
      </trkpt>
      <trkpt lat="42.7686380" lon="2.0979850">
        <ele>933.4</ele>
        <time>2020-07-22T08:42:52Z</time>
      </trkpt>
      <trkpt lat="42.7686310" lon="2.0979280">
        <ele>933.2</ele>
        <time>2020-07-22T08:42:53Z</time>
      </trkpt>
      <trkpt lat="42.7686230" lon="2.0978720">
        <ele>933.0</ele>
        <time>2020-07-22T08:42:54Z</time>
      </trkpt>
      <trkpt lat="42.7685930" lon="2.0976470">
        <ele>932.6</ele>
        <time>2020-07-22T08:42:56Z</time>
      </trkpt>
      <trkpt lat="42.7685230" lon="2.0974970">
        <ele>932.6</ele>
        <time>2020-07-22T08:42:58Z</time>
      </trkpt>
      <trkpt lat="42.7684090" lon="2.0972750">
        <ele>932.0</ele>
        <time>2020-07-22T08:43:02Z</time>
      </trkpt>
      <trkpt lat="42.7683460" lon="2.0971210">
        <ele>931.2</ele>
        <time>2020-07-22T08:43:04Z</time>
      </trkpt>
      <trkpt lat="42.7683310" lon="2.0970420">
        <ele>931.0</ele>
        <time>2020-07-22T08:43:05Z</time>
      </trkpt>
      <trkpt lat="42.7683270" lon="2.0969620">
        <ele>930.8</ele>
        <time>2020-07-22T08:43:06Z</time>
      </trkpt>
      <trkpt lat="42.7683470" lon="2.0968020">
        <ele>930.4</ele>
        <time>2020-07-22T08:43:08Z</time>
      </trkpt>
      <trkpt lat="42.7683710" lon="2.0966280">
        <ele>930.0</ele>
        <time>2020-07-22T08:43:10Z</time>
      </trkpt>
      <trkpt lat="42.7683660" lon="2.0964920">
        <ele>929.8</ele>
        <time>2020-07-22T08:43:11Z</time>
      </trkpt>
      <trkpt lat="42.7683600" lon="2.0964460">
        <ele>929.8</ele>
        <time>2020-07-22T08:43:12Z</time>
      </trkpt>
      <trkpt lat="42.7683490" lon="2.0963550">
        <ele>929.6</ele>
        <time>2020-07-22T08:43:13Z</time>
      </trkpt>
      <trkpt lat="42.7683300" lon="2.0962640">
        <ele>929.6</ele>
        <time>2020-07-22T08:43:14Z</time>
      </trkpt>
      <trkpt lat="42.7682500" lon="2.0960070">
        <ele>929.0</ele>
        <time>2020-07-22T08:43:17Z</time>
      </trkpt>
      <trkpt lat="42.7681820" lon="2.0958360">
        <ele>928.6</ele>
        <time>2020-07-22T08:43:18Z</time>
      </trkpt>
      <trkpt lat="42.7681610" lon="2.0957980">
        <ele>928.4</ele>
        <time>2020-07-22T08:43:19Z</time>
      </trkpt>
      <trkpt lat="42.7681390" lon="2.0957600">
        <ele>928.2</ele>
        <time>2020-07-22T08:43:20Z</time>
      </trkpt>
      <trkpt lat="42.7679980" lon="2.0955720">
        <ele>927.6</ele>
        <time>2020-07-22T08:43:23Z</time>
      </trkpt>
      <trkpt lat="42.7679520" lon="2.0953380">
        <ele>927.2</ele>
        <time>2020-07-22T08:43:26Z</time>
      </trkpt>
      <trkpt lat="42.7679810" lon="2.0951670">
        <ele>926.8</ele>
        <time>2020-07-22T08:43:28Z</time>
      </trkpt>
      <trkpt lat="42.7680070" lon="2.0950870">
        <ele>926.6</ele>
        <time>2020-07-22T08:43:29Z</time>
      </trkpt>
      <trkpt lat="42.7680390" lon="2.0950070">
        <ele>926.4</ele>
        <time>2020-07-22T08:43:30Z</time>
      </trkpt>
      <trkpt lat="42.7682150" lon="2.0945930">
        <ele>925.2</ele>
        <time>2020-07-22T08:43:35Z</time>
      </trkpt>
      <trkpt lat="42.7682460" lon="2.0944070">
        <ele>925.0</ele>
        <time>2020-07-22T08:43:37Z</time>
      </trkpt>
      <trkpt lat="42.7682540" lon="2.0942120">
        <ele>925.0</ele>
        <time>2020-07-22T08:43:39Z</time>
      </trkpt>
      <trkpt lat="42.7683160" lon="2.0938530">
        <ele>925.0</ele>
        <time>2020-07-22T08:43:43Z</time>
      </trkpt>
      <trkpt lat="42.7683480" lon="2.0937680">
        <ele>925.0</ele>
        <time>2020-07-22T08:43:44Z</time>
      </trkpt>
      <trkpt lat="42.7684160" lon="2.0935980">
        <ele>924.2</ele>
        <time>2020-07-22T08:43:46Z</time>
      </trkpt>
      <trkpt lat="42.7684490" lon="2.0935130">
        <ele>923.8</ele>
        <time>2020-07-22T08:43:47Z</time>
      </trkpt>
      <trkpt lat="42.7685340" lon="2.0932320">
        <ele>922.8</ele>
        <time>2020-07-22T08:43:49Z</time>
      </trkpt>
      <trkpt lat="42.7685450" lon="2.0931840">
        <ele>922.6</ele>
        <time>2020-07-22T08:43:50Z</time>
      </trkpt>
      <trkpt lat="42.7685550" lon="2.0931360">
        <ele>922.4</ele>
        <time>2020-07-22T08:43:51Z</time>
      </trkpt>
      <trkpt lat="42.7685840" lon="2.0929350">
        <ele>922.0</ele>
        <time>2020-07-22T08:43:53Z</time>
      </trkpt>
      <trkpt lat="42.7685920" lon="2.0927270">
        <ele>921.8</ele>
        <time>2020-07-22T08:43:55Z</time>
      </trkpt>
      <trkpt lat="42.7685830" lon="2.0926230">
        <ele>921.6</ele>
        <time>2020-07-22T08:43:56Z</time>
      </trkpt>
      <trkpt lat="42.7685620" lon="2.0925210">
        <ele>921.4</ele>
        <time>2020-07-22T08:43:57Z</time>
      </trkpt>
      <trkpt lat="42.7684810" lon="2.0923340">
        <ele>921.0</ele>
        <time>2020-07-22T08:43:59Z</time>
      </trkpt>
      <trkpt lat="42.7683640" lon="2.0921950">
        <ele>920.4</ele>
        <time>2020-07-22T08:44:01Z</time>
      </trkpt>
      <trkpt lat="42.7683010" lon="2.0921560">
        <ele>920.2</ele>
        <time>2020-07-22T08:44:02Z</time>
      </trkpt>
      <trkpt lat="42.7682300" lon="2.0921410">
        <ele>920.0</ele>
        <time>2020-07-22T08:44:03Z</time>
      </trkpt>
      <trkpt lat="42.7680840" lon="2.0921760">
        <ele>919.6</ele>
        <time>2020-07-22T08:44:05Z</time>
      </trkpt>
      <trkpt lat="42.7680290" lon="2.0922370">
        <ele>919.4</ele>
        <time>2020-07-22T08:44:06Z</time>
      </trkpt>
      <trkpt lat="42.7679700" lon="2.0923020">
        <ele>919.0</ele>
        <time>2020-07-22T08:44:07Z</time>
      </trkpt>
      <trkpt lat="42.7679110" lon="2.0923700">
        <ele>918.6</ele>
        <time>2020-07-22T08:44:08Z</time>
      </trkpt>
      <trkpt lat="42.7678500" lon="2.0924340">
        <ele>918.6</ele>
        <time>2020-07-22T08:44:09Z</time>
      </trkpt>
      <trkpt lat="42.7677860" lon="2.0924940">
        <ele>918.4</ele>
        <time>2020-07-22T08:44:10Z</time>
      </trkpt>
      <trkpt lat="42.7675870" lon="2.0926160">
        <ele>918.2</ele>
        <time>2020-07-22T08:44:12Z</time>
      </trkpt>
      <trkpt lat="42.7675210" lon="2.0926400">
        <ele>918.4</ele>
        <time>2020-07-22T08:44:13Z</time>
      </trkpt>
      <trkpt lat="42.7673110" lon="2.0926910">
        <ele>919.8</ele>
        <time>2020-07-22T08:44:16Z</time>
      </trkpt>
      <trkpt lat="42.7671120" lon="2.0927250">
        <ele>919.4</ele>
        <time>2020-07-22T08:44:19Z</time>
      </trkpt>
      <trkpt lat="42.7670470" lon="2.0927330">
        <ele>918.2</ele>
        <time>2020-07-22T08:44:20Z</time>
      </trkpt>
      <trkpt lat="42.7669790" lon="2.0927250">
        <ele>917.2</ele>
        <time>2020-07-22T08:44:21Z</time>
      </trkpt>
      <trkpt lat="42.7668440" lon="2.0926670">
        <ele>916.2</ele>
        <time>2020-07-22T08:44:23Z</time>
      </trkpt>
      <trkpt lat="42.7667800" lon="2.0926220">
        <ele>916.0</ele>
        <time>2020-07-22T08:44:24Z</time>
      </trkpt>
      <trkpt lat="42.7667200" lon="2.0925670">
        <ele>915.6</ele>
        <time>2020-07-22T08:44:25Z</time>
      </trkpt>
      <trkpt lat="42.7666050" lon="2.0924480">
        <ele>915.0</ele>
        <time>2020-07-22T08:44:27Z</time>
      </trkpt>
      <trkpt lat="42.7666050" lon="2.0924480">
        <ele>914.8</ele>
        <time>2020-07-22T08:44:28Z</time>
      </trkpt>
      <trkpt lat="42.7663950" lon="2.0922570">
        <ele>914.2</ele>
        <time>2020-07-22T08:44:32Z</time>
      </trkpt>
      <trkpt lat="42.7662750" lon="2.0920290">
        <ele>914.2</ele>
        <time>2020-07-22T08:44:36Z</time>
      </trkpt>
      <trkpt lat="42.7662500" lon="2.0919790">
        <ele>914.4</ele>
        <time>2020-07-22T08:44:38Z</time>
      </trkpt>
      <trkpt lat="42.7662470" lon="2.0918960">
        <ele>914.6</ele>
        <time>2020-07-22T08:45:20Z</time>
      </trkpt>
      <trkpt lat="42.7662480" lon="2.0918710">
        <ele>914.6</ele>
        <time>2020-07-22T08:45:21Z</time>
      </trkpt>
      <trkpt lat="42.7662340" lon="2.0917450">
        <ele>914.4</ele>
        <time>2020-07-22T08:45:24Z</time>
      </trkpt>
      <trkpt lat="42.7661760" lon="2.0915010">
        <ele>913.4</ele>
        <time>2020-07-22T08:45:28Z</time>
      </trkpt>
      <trkpt lat="42.7661550" lon="2.0914390">
        <ele>913.0</ele>
        <time>2020-07-22T08:45:29Z</time>
      </trkpt>
      <trkpt lat="42.7659530" lon="2.0909600">
        <ele>912.6</ele>
        <time>2020-07-22T08:45:35Z</time>
      </trkpt>
      <trkpt lat="42.7659450" lon="2.0909160">
        <ele>912.4</ele>
        <time>2020-07-22T08:45:36Z</time>
      </trkpt>
      <trkpt lat="42.7659360" lon="2.0908730">
        <ele>912.2</ele>
        <time>2020-07-22T08:45:37Z</time>
      </trkpt>
      <trkpt lat="42.7659060" lon="2.0906020">
        <ele>911.6</ele>
        <time>2020-07-22T08:45:39Z</time>
      </trkpt>
      <trkpt lat="42.7658980" lon="2.0905100">
        <ele>911.4</ele>
        <time>2020-07-22T08:45:40Z</time>
      </trkpt>
      <trkpt lat="42.7658950" lon="2.0904190">
        <ele>911.2</ele>
        <time>2020-07-22T08:45:41Z</time>
      </trkpt>
      <trkpt lat="42.7658970" lon="2.0903310">
        <ele>910.6</ele>
        <time>2020-07-22T08:45:43Z</time>
      </trkpt>
      <trkpt lat="42.7659100" lon="2.0902480">
        <ele>910.2</ele>
        <time>2020-07-22T08:45:44Z</time>
      </trkpt>
      <trkpt lat="42.7659400" lon="2.0901730">
        <ele>909.8</ele>
        <time>2020-07-22T08:45:45Z</time>
      </trkpt>
      <trkpt lat="42.7660360" lon="2.0900860">
        <ele>909.6</ele>
        <time>2020-07-22T08:45:46Z</time>
      </trkpt>
      <trkpt lat="42.7660970" lon="2.0900690">
        <ele>909.4</ele>
        <time>2020-07-22T08:45:47Z</time>
      </trkpt>
      <trkpt lat="42.7662260" lon="2.0900540">
        <ele>909.2</ele>
        <time>2020-07-22T08:45:49Z</time>
      </trkpt>
      <trkpt lat="42.7664180" lon="2.0900040">
        <ele>908.8</ele>
        <time>2020-07-22T08:45:52Z</time>
      </trkpt>
      <trkpt lat="42.7665100" lon="2.0899610">
        <ele>908.8</ele>
        <time>2020-07-22T08:45:53Z</time>
      </trkpt>
      <trkpt lat="42.7666010" lon="2.0899170">
        <ele>908.2</ele>
        <time>2020-07-22T08:45:55Z</time>
      </trkpt>
      <trkpt lat="42.7666600" lon="2.0898790">
        <ele>908.0</ele>
        <time>2020-07-22T08:45:56Z</time>
      </trkpt>
      <trkpt lat="42.7667760" lon="2.0897890">
        <ele>907.6</ele>
        <time>2020-07-22T08:45:58Z</time>
      </trkpt>
      <trkpt lat="42.7668310" lon="2.0897330">
        <ele>907.4</ele>
        <time>2020-07-22T08:45:59Z</time>
      </trkpt>
      <trkpt lat="42.7668840" lon="2.0896690">
        <ele>907.2</ele>
        <time>2020-07-22T08:46:00Z</time>
      </trkpt>
      <trkpt lat="42.7669320" lon="2.0895920">
        <ele>907.0</ele>
        <time>2020-07-22T08:46:01Z</time>
      </trkpt>
      <trkpt lat="42.7669760" lon="2.0895120">
        <ele>906.8</ele>
        <time>2020-07-22T08:46:02Z</time>
      </trkpt>
      <trkpt lat="42.7670180" lon="2.0894280">
        <ele>906.8</ele>
        <time>2020-07-22T08:46:03Z</time>
      </trkpt>
      <trkpt lat="42.7670950" lon="2.0892570">
        <ele>906.6</ele>
        <time>2020-07-22T08:46:05Z</time>
      </trkpt>
      <trkpt lat="42.7672310" lon="2.0889040">
        <ele>906.2</ele>
        <time>2020-07-22T08:46:09Z</time>
      </trkpt>
      <trkpt lat="42.7672450" lon="2.0887150">
        <ele>906.0</ele>
        <time>2020-07-22T08:46:11Z</time>
      </trkpt>
      <trkpt lat="42.7672260" lon="2.0886210">
        <ele>905.6</ele>
        <time>2020-07-22T08:46:12Z</time>
      </trkpt>
      <trkpt lat="42.7671910" lon="2.0885310">
        <ele>905.4</ele>
        <time>2020-07-22T08:46:13Z</time>
      </trkpt>
      <trkpt lat="42.7671050" lon="2.0883590">
        <ele>904.6</ele>
        <time>2020-07-22T08:46:15Z</time>
      </trkpt>
      <trkpt lat="42.7670560" lon="2.0882780">
        <ele>904.2</ele>
        <time>2020-07-22T08:46:16Z</time>
      </trkpt>
      <trkpt lat="42.7670060" lon="2.0881970">
        <ele>903.4</ele>
        <time>2020-07-22T08:46:18Z</time>
      </trkpt>
      <trkpt lat="42.7667750" lon="2.0878930">
        <ele>902.8</ele>
        <time>2020-07-22T08:46:22Z</time>
      </trkpt>
      <trkpt lat="42.7667210" lon="2.0878100">
        <ele>902.4</ele>
        <time>2020-07-22T08:46:23Z</time>
      </trkpt>
      <trkpt lat="42.7666750" lon="2.0877190">
        <ele>902.0</ele>
        <time>2020-07-22T08:46:24Z</time>
      </trkpt>
      <trkpt lat="42.7666120" lon="2.0875120">
        <ele>901.4</ele>
        <time>2020-07-22T08:46:26Z</time>
      </trkpt>
      <trkpt lat="42.7666120" lon="2.0871960">
        <ele>901.2</ele>
        <time>2020-07-22T08:46:28Z</time>
      </trkpt>
      <trkpt lat="42.7666400" lon="2.0870980">
        <ele>901.0</ele>
        <time>2020-07-22T08:46:29Z</time>
      </trkpt>
      <trkpt lat="42.7666750" lon="2.0870010">
        <ele>900.8</ele>
        <time>2020-07-22T08:46:30Z</time>
      </trkpt>
      <trkpt lat="42.7667700" lon="2.0868190">
        <ele>900.2</ele>
        <time>2020-07-22T08:46:32Z</time>
      </trkpt>
      <trkpt lat="42.7668300" lon="2.0867410">
        <ele>899.8</ele>
        <time>2020-07-22T08:46:33Z</time>
      </trkpt>
      <trkpt lat="42.7670240" lon="2.0865160">
        <ele>898.6</ele>
        <time>2020-07-22T08:46:36Z</time>
      </trkpt>
      <trkpt lat="42.7670890" lon="2.0864420">
        <ele>898.4</ele>
        <time>2020-07-22T08:46:37Z</time>
      </trkpt>
      <trkpt lat="42.7673440" lon="2.0861310">
        <ele>897.4</ele>
        <time>2020-07-22T08:46:41Z</time>
      </trkpt>
      <trkpt lat="42.7673930" lon="2.0860300">
        <ele>897.2</ele>
        <time>2020-07-22T08:46:42Z</time>
      </trkpt>
      <trkpt lat="42.7674250" lon="2.0859160">
        <ele>896.8</ele>
        <time>2020-07-22T08:46:43Z</time>
      </trkpt>
      <trkpt lat="42.7674360" lon="2.0857980">
        <ele>896.4</ele>
        <time>2020-07-22T08:46:44Z</time>
      </trkpt>
      <trkpt lat="42.7673960" lon="2.0855650">
        <ele>896.0</ele>
        <time>2020-07-22T08:46:46Z</time>
      </trkpt>
      <trkpt lat="42.7672580" lon="2.0852630">
        <ele>895.2</ele>
        <time>2020-07-22T08:46:49Z</time>
      </trkpt>
      <trkpt lat="42.7671770" lon="2.0850590">
        <ele>894.6</ele>
        <time>2020-07-22T08:46:52Z</time>
      </trkpt>
      <trkpt lat="42.7671610" lon="2.0848440">
        <ele>894.2</ele>
        <time>2020-07-22T08:46:54Z</time>
      </trkpt>
      <trkpt lat="42.7672140" lon="2.0846270">
        <ele>893.6</ele>
        <time>2020-07-22T08:46:56Z</time>
      </trkpt>
      <trkpt lat="42.7672530" lon="2.0845230">
        <ele>893.2</ele>
        <time>2020-07-22T08:46:57Z</time>
      </trkpt>
      <trkpt lat="42.7673440" lon="2.0843250">
        <ele>892.8</ele>
        <time>2020-07-22T08:46:58Z</time>
      </trkpt>
      <trkpt lat="42.7675040" lon="2.0840500">
        <ele>891.6</ele>
        <time>2020-07-22T08:47:02Z</time>
      </trkpt>
      <trkpt lat="42.7676190" lon="2.0838930">
        <ele>891.4</ele>
        <time>2020-07-22T08:47:03Z</time>
      </trkpt>
      <trkpt lat="42.7677260" lon="2.0837680">
        <ele>891.0</ele>
        <time>2020-07-22T08:47:06Z</time>
      </trkpt>
      <trkpt lat="42.7678450" lon="2.0836770">
        <ele>891.0</ele>
        <time>2020-07-22T08:47:07Z</time>
      </trkpt>
      <trkpt lat="42.7679090" lon="2.0836490">
        <ele>890.8</ele>
        <time>2020-07-22T08:47:09Z</time>
      </trkpt>
      <trkpt lat="42.7680410" lon="2.0836450">
        <ele>890.4</ele>
        <time>2020-07-22T08:47:10Z</time>
      </trkpt>
      <trkpt lat="42.7681210" lon="2.0836630">
        <ele>889.8</ele>
        <time>2020-07-22T08:47:12Z</time>
      </trkpt>
      <trkpt lat="42.7681690" lon="2.0837240">
        <ele>889.6</ele>
        <time>2020-07-22T08:47:16Z</time>
      </trkpt>
      <trkpt lat="42.7682540" lon="2.0837460">
        <ele>889.6</ele>
        <time>2020-07-22T08:47:20Z</time>
      </trkpt>
      <trkpt lat="42.7682870" lon="2.0837160">
        <ele>889.4</ele>
        <time>2020-07-22T08:47:21Z</time>
      </trkpt>
      <trkpt lat="42.7683250" lon="2.0836070">
        <ele>889.2</ele>
        <time>2020-07-22T08:47:23Z</time>
      </trkpt>
      <trkpt lat="42.7683120" lon="2.0834750">
        <ele>889.0</ele>
        <time>2020-07-22T08:47:25Z</time>
      </trkpt>
      <trkpt lat="42.7682900" lon="2.0834050">
        <ele>889.0</ele>
        <time>2020-07-22T08:47:26Z</time>
      </trkpt>
      <trkpt lat="42.7682230" lon="2.0832650">
        <ele>888.6</ele>
        <time>2020-07-22T08:47:28Z</time>
      </trkpt>
      <trkpt lat="42.7681890" lon="2.0831910">
        <ele>888.0</ele>
        <time>2020-07-22T08:47:30Z</time>
      </trkpt>
      <trkpt lat="42.7681580" lon="2.0831170">
        <ele>887.6</ele>
        <time>2020-07-22T08:47:31Z</time>
      </trkpt>
      <trkpt lat="42.7681410" lon="2.0830430">
        <ele>887.2</ele>
        <time>2020-07-22T08:47:32Z</time>
      </trkpt>
      <trkpt lat="42.7681370" lon="2.0829620">
        <ele>886.8</ele>
        <time>2020-07-22T08:47:33Z</time>
      </trkpt>
      <trkpt lat="42.7681510" lon="2.0828810">
        <ele>886.0</ele>
        <time>2020-07-22T08:47:34Z</time>
      </trkpt>
      <trkpt lat="42.7681740" lon="2.0827990">
        <ele>885.4</ele>
        <time>2020-07-22T08:47:35Z</time>
      </trkpt>
      <trkpt lat="42.7682560" lon="2.0826300">
        <ele>885.0</ele>
        <time>2020-07-22T08:47:36Z</time>
      </trkpt>
      <trkpt lat="42.7682840" lon="2.0825700">
        <ele>884.6</ele>
        <time>2020-07-22T08:47:37Z</time>
      </trkpt>
      <trkpt lat="42.7683110" lon="2.0825090">
        <ele>884.2</ele>
        <time>2020-07-22T08:47:38Z</time>
      </trkpt>
      <trkpt lat="42.7683660" lon="2.0823880">
        <ele>883.6</ele>
        <time>2020-07-22T08:47:39Z</time>
      </trkpt>
      <trkpt lat="42.7683740" lon="2.0823470">
        <ele>883.0</ele>
        <time>2020-07-22T08:47:40Z</time>
      </trkpt>
      <trkpt lat="42.7683810" lon="2.0823050">
        <ele>882.6</ele>
        <time>2020-07-22T08:47:41Z</time>
      </trkpt>
      <trkpt lat="42.7683520" lon="2.0821500">
        <ele>882.0</ele>
        <time>2020-07-22T08:47:43Z</time>
      </trkpt>
      <trkpt lat="42.7683030" lon="2.0820970">
        <ele>881.8</ele>
        <time>2020-07-22T08:47:44Z</time>
      </trkpt>
      <trkpt lat="42.7682500" lon="2.0820490">
        <ele>881.6</ele>
        <time>2020-07-22T08:47:45Z</time>
      </trkpt>
      <trkpt lat="42.7681020" lon="2.0819410">
        <ele>881.4</ele>
        <time>2020-07-22T08:47:47Z</time>
      </trkpt>
      <trkpt lat="42.7680780" lon="2.0819270">
        <ele>881.2</ele>
        <time>2020-07-22T08:47:48Z</time>
      </trkpt>
      <trkpt lat="42.7680530" lon="2.0819140">
        <ele>881.0</ele>
        <time>2020-07-22T08:47:49Z</time>
      </trkpt>
      <trkpt lat="42.7679460" lon="2.0818530">
        <ele>880.8</ele>
        <time>2020-07-22T08:47:51Z</time>
      </trkpt>
      <trkpt lat="42.7678280" lon="2.0817960">
        <ele>879.8</ele>
        <time>2020-07-22T08:47:53Z</time>
      </trkpt>
      <trkpt lat="42.7677620" lon="2.0817820">
        <ele>879.4</ele>
        <time>2020-07-22T08:47:54Z</time>
      </trkpt>
      <trkpt lat="42.7676950" lon="2.0817780">
        <ele>879.0</ele>
        <time>2020-07-22T08:47:55Z</time>
      </trkpt>
      <trkpt lat="42.7674980" lon="2.0817900">
        <ele>878.0</ele>
        <time>2020-07-22T08:47:57Z</time>
      </trkpt>
      <trkpt lat="42.7674410" lon="2.0818110">
        <ele>877.6</ele>
        <time>2020-07-22T08:47:58Z</time>
      </trkpt>
      <trkpt lat="42.7673840" lon="2.0818380">
        <ele>877.2</ele>
        <time>2020-07-22T08:47:59Z</time>
      </trkpt>
      <trkpt lat="42.7673240" lon="2.0818740">
        <ele>876.6</ele>
        <time>2020-07-22T08:48:00Z</time>
      </trkpt>
      <trkpt lat="42.7672540" lon="2.0819370">
        <ele>876.0</ele>
        <time>2020-07-22T08:48:01Z</time>
      </trkpt>
      <trkpt lat="42.7671790" lon="2.0820060">
        <ele>875.2</ele>
        <time>2020-07-22T08:48:02Z</time>
      </trkpt>
      <trkpt lat="42.7670440" lon="2.0821530">
        <ele>873.8</ele>
        <time>2020-07-22T08:48:04Z</time>
      </trkpt>
      <trkpt lat="42.7669810" lon="2.0822230">
        <ele>873.4</ele>
        <time>2020-07-22T08:48:05Z</time>
      </trkpt>
      <trkpt lat="42.7668680" lon="2.0823590">
        <ele>872.8</ele>
        <time>2020-07-22T08:48:07Z</time>
      </trkpt>
      <trkpt lat="42.7668170" lon="2.0824170">
        <ele>872.6</ele>
        <time>2020-07-22T08:48:08Z</time>
      </trkpt>
      <trkpt lat="42.7666690" lon="2.0825870">
        <ele>871.8</ele>
        <time>2020-07-22T08:48:12Z</time>
      </trkpt>
      <trkpt lat="42.7666440" lon="2.0826170">
        <ele>871.6</ele>
        <time>2020-07-22T08:48:13Z</time>
      </trkpt>
      <trkpt lat="42.7665570" lon="2.0827040">
        <ele>870.8</ele>
        <time>2020-07-22T08:48:16Z</time>
      </trkpt>
      <trkpt lat="42.7665240" lon="2.0827340">
        <ele>870.4</ele>
        <time>2020-07-22T08:48:17Z</time>
      </trkpt>
      <trkpt lat="42.7664860" lon="2.0827700">
        <ele>870.2</ele>
        <time>2020-07-22T08:48:18Z</time>
      </trkpt>
      <trkpt lat="42.7663860" lon="2.0828630">
        <ele>869.8</ele>
        <time>2020-07-22T08:48:20Z</time>
      </trkpt>
      <trkpt lat="42.7662790" lon="2.0829900">
        <ele>869.4</ele>
        <time>2020-07-22T08:48:22Z</time>
      </trkpt>
      <trkpt lat="42.7661590" lon="2.0831230">
        <ele>868.2</ele>
        <time>2020-07-22T08:48:24Z</time>
      </trkpt>
      <trkpt lat="42.7660250" lon="2.0832390">
        <ele>867.0</ele>
        <time>2020-07-22T08:48:26Z</time>
      </trkpt>
      <trkpt lat="42.7659530" lon="2.0832970">
        <ele>866.4</ele>
        <time>2020-07-22T08:48:27Z</time>
      </trkpt>
      <trkpt lat="42.7658750" lon="2.0833620">
        <ele>865.8</ele>
        <time>2020-07-22T08:48:28Z</time>
      </trkpt>
      <trkpt lat="42.7657920" lon="2.0834340">
        <ele>865.2</ele>
        <time>2020-07-22T08:48:29Z</time>
      </trkpt>
      <trkpt lat="42.7657160" lon="2.0835200">
        <ele>864.8</ele>
        <time>2020-07-22T08:48:30Z</time>
      </trkpt>
      <trkpt lat="42.7656400" lon="2.0836110">
        <ele>864.2</ele>
        <time>2020-07-22T08:48:31Z</time>
      </trkpt>
      <trkpt lat="42.7655610" lon="2.0837060">
        <ele>863.4</ele>
        <time>2020-07-22T08:48:32Z</time>
      </trkpt>
      <trkpt lat="42.7654840" lon="2.0838070">
        <ele>862.8</ele>
        <time>2020-07-22T08:48:33Z</time>
      </trkpt>
      <trkpt lat="42.7653380" lon="2.0840000">
        <ele>861.4</ele>
        <time>2020-07-22T08:48:35Z</time>
      </trkpt>
      <trkpt lat="42.7651930" lon="2.0842090">
        <ele>860.2</ele>
        <time>2020-07-22T08:48:37Z</time>
      </trkpt>
      <trkpt lat="42.7649820" lon="2.0845280">
        <ele>858.8</ele>
        <time>2020-07-22T08:48:40Z</time>
      </trkpt>
      <trkpt lat="42.7648450" lon="2.0847280">
        <ele>856.8</ele>
        <time>2020-07-22T08:48:42Z</time>
      </trkpt>
      <trkpt lat="42.7647100" lon="2.0849220">
        <ele>855.0</ele>
        <time>2020-07-22T08:48:44Z</time>
      </trkpt>
      <trkpt lat="42.7646390" lon="2.0850160">
        <ele>854.2</ele>
        <time>2020-07-22T08:48:45Z</time>
      </trkpt>
      <trkpt lat="42.7645680" lon="2.0851110">
        <ele>853.6</ele>
        <time>2020-07-22T08:48:46Z</time>
      </trkpt>
      <trkpt lat="42.7644330" lon="2.0852930">
        <ele>852.2</ele>
        <time>2020-07-22T08:48:48Z</time>
      </trkpt>
      <trkpt lat="42.7642320" lon="2.0855610">
        <ele>851.0</ele>
        <time>2020-07-22T08:48:51Z</time>
      </trkpt>
      <trkpt lat="42.7641650" lon="2.0856450">
        <ele>850.4</ele>
        <time>2020-07-22T08:48:52Z</time>
      </trkpt>
      <trkpt lat="42.7640980" lon="2.0857300">
        <ele>849.8</ele>
        <time>2020-07-22T08:48:53Z</time>
      </trkpt>
      <trkpt lat="42.7639590" lon="2.0858990">
        <ele>848.4</ele>
        <time>2020-07-22T08:48:55Z</time>
      </trkpt>
      <trkpt lat="42.7638140" lon="2.0860540">
        <ele>847.2</ele>
        <time>2020-07-22T08:48:57Z</time>
      </trkpt>
      <trkpt lat="42.7636740" lon="2.0862100">
        <ele>846.8</ele>
        <time>2020-07-22T08:48:59Z</time>
      </trkpt>
      <trkpt lat="42.7636050" lon="2.0862870">
        <ele>846.4</ele>
        <time>2020-07-22T08:49:00Z</time>
      </trkpt>
      <trkpt lat="42.7635360" lon="2.0863630">
        <ele>846.0</ele>
        <time>2020-07-22T08:49:01Z</time>
      </trkpt>
      <trkpt lat="42.7634000" lon="2.0865110">
        <ele>844.8</ele>
        <time>2020-07-22T08:49:03Z</time>
      </trkpt>
      <trkpt lat="42.7632670" lon="2.0866590">
        <ele>843.4</ele>
        <time>2020-07-22T08:49:05Z</time>
      </trkpt>
      <trkpt lat="42.7631290" lon="2.0867990">
        <ele>842.0</ele>
        <time>2020-07-22T08:49:07Z</time>
      </trkpt>
      <trkpt lat="42.7629920" lon="2.0869330">
        <ele>841.2</ele>
        <time>2020-07-22T08:49:09Z</time>
      </trkpt>
      <trkpt lat="42.7629260" lon="2.0869970">
        <ele>840.6</ele>
        <time>2020-07-22T08:49:10Z</time>
      </trkpt>
      <trkpt lat="42.7628000" lon="2.0871320">
        <ele>839.4</ele>
        <time>2020-07-22T08:49:12Z</time>
      </trkpt>
      <trkpt lat="42.7626230" lon="2.0873260">
        <ele>838.0</ele>
        <time>2020-07-22T08:49:15Z</time>
      </trkpt>
      <trkpt lat="42.7624720" lon="2.0874710">
        <ele>837.0</ele>
        <time>2020-07-22T08:49:18Z</time>
      </trkpt>
      <trkpt lat="42.7624330" lon="2.0874950">
        <ele>836.8</ele>
        <time>2020-07-22T08:49:19Z</time>
      </trkpt>
      <trkpt lat="42.7623970" lon="2.0875110">
        <ele>836.6</ele>
        <time>2020-07-22T08:49:20Z</time>
      </trkpt>
      <trkpt lat="42.7623200" lon="2.0875180">
        <ele>836.2</ele>
        <time>2020-07-22T08:49:22Z</time>
      </trkpt>
      <trkpt lat="42.7622770" lon="2.0875140">
        <ele>836.2</ele>
        <time>2020-07-22T08:49:23Z</time>
      </trkpt>
      <trkpt lat="42.7622320" lon="2.0874970">
        <ele>836.0</ele>
        <time>2020-07-22T08:49:24Z</time>
      </trkpt>
      <trkpt lat="42.7621800" lon="2.0874770">
        <ele>835.8</ele>
        <time>2020-07-22T08:49:25Z</time>
      </trkpt>
      <trkpt lat="42.7621330" lon="2.0874460">
        <ele>835.4</ele>
        <time>2020-07-22T08:49:26Z</time>
      </trkpt>
      <trkpt lat="42.7620870" lon="2.0874070">
        <ele>835.2</ele>
        <time>2020-07-22T08:49:27Z</time>
      </trkpt>
      <trkpt lat="42.7620520" lon="2.0873560">
        <ele>834.8</ele>
        <time>2020-07-22T08:49:28Z</time>
      </trkpt>
      <trkpt lat="42.7620400" lon="2.0872810">
        <ele>834.6</ele>
        <time>2020-07-22T08:49:29Z</time>
      </trkpt>
      <trkpt lat="42.7620330" lon="2.0872080">
        <ele>834.2</ele>
        <time>2020-07-22T08:49:30Z</time>
      </trkpt>
      <trkpt lat="42.7620330" lon="2.0870740">
        <ele>833.2</ele>
        <time>2020-07-22T08:49:32Z</time>
      </trkpt>
      <trkpt lat="42.7620340" lon="2.0868920">
        <ele>832.4</ele>
        <time>2020-07-22T08:49:35Z</time>
      </trkpt>
      <trkpt lat="42.7620340" lon="2.0868330">
        <ele>832.0</ele>
        <time>2020-07-22T08:49:36Z</time>
      </trkpt>
      <trkpt lat="42.7620350" lon="2.0867750">
        <ele>831.4</ele>
        <time>2020-07-22T08:49:38Z</time>
      </trkpt>
      <trkpt lat="42.7620360" lon="2.0867680">
        <ele>831.2</ele>
        <time>2020-07-22T08:49:39Z</time>
      </trkpt>
      <trkpt lat="42.7620170" lon="2.0867340">
        <ele>830.8</ele>
        <time>2020-07-22T08:50:04Z</time>
      </trkpt>
      <trkpt lat="42.7620060" lon="2.0866490">
        <ele>830.6</ele>
        <time>2020-07-22T08:50:06Z</time>
      </trkpt>
      <trkpt lat="42.7618800" lon="2.0863970">
        <ele>829.4</ele>
        <time>2020-07-22T08:50:10Z</time>
      </trkpt>
      <trkpt lat="42.7617370" lon="2.0861820">
        <ele>828.0</ele>
        <time>2020-07-22T08:50:13Z</time>
      </trkpt>
      <trkpt lat="42.7616330" lon="2.0860240">
        <ele>826.8</ele>
        <time>2020-07-22T08:50:15Z</time>
      </trkpt>
      <trkpt lat="42.7615350" lon="2.0858470">
        <ele>825.6</ele>
        <time>2020-07-22T08:50:17Z</time>
      </trkpt>
      <trkpt lat="42.7614420" lon="2.0856680">
        <ele>824.6</ele>
        <time>2020-07-22T08:50:19Z</time>
      </trkpt>
      <trkpt lat="42.7614000" lon="2.0855840">
        <ele>824.0</ele>
        <time>2020-07-22T08:50:20Z</time>
      </trkpt>
      <trkpt lat="42.7613660" lon="2.0855000">
        <ele>823.4</ele>
        <time>2020-07-22T08:50:21Z</time>
      </trkpt>
      <trkpt lat="42.7613350" lon="2.0854170">
        <ele>823.2</ele>
        <time>2020-07-22T08:50:22Z</time>
      </trkpt>
      <trkpt lat="42.7613040" lon="2.0853330">
        <ele>822.8</ele>
        <time>2020-07-22T08:50:23Z</time>
      </trkpt>
      <trkpt lat="42.7612530" lon="2.0851600">
        <ele>822.2</ele>
        <time>2020-07-22T08:50:25Z</time>
      </trkpt>
      <trkpt lat="42.7612210" lon="2.0849820">
        <ele>821.6</ele>
        <time>2020-07-22T08:50:27Z</time>
      </trkpt>
      <trkpt lat="42.7612150" lon="2.0848850">
        <ele>821.0</ele>
        <time>2020-07-22T08:50:28Z</time>
      </trkpt>
      <trkpt lat="42.7612090" lon="2.0847880">
        <ele>820.6</ele>
        <time>2020-07-22T08:50:29Z</time>
      </trkpt>
      <trkpt lat="42.7611830" lon="2.0845980">
        <ele>819.8</ele>
        <time>2020-07-22T08:50:31Z</time>
      </trkpt>
      <trkpt lat="42.7611570" lon="2.0845130">
        <ele>819.4</ele>
        <time>2020-07-22T08:50:32Z</time>
      </trkpt>
      <trkpt lat="42.7611240" lon="2.0844360">
        <ele>819.0</ele>
        <time>2020-07-22T08:50:33Z</time>
      </trkpt>
      <trkpt lat="42.7610840" lon="2.0843670">
        <ele>818.6</ele>
        <time>2020-07-22T08:50:34Z</time>
      </trkpt>
      <trkpt lat="42.7609820" lon="2.0842710">
        <ele>817.6</ele>
        <time>2020-07-22T08:50:36Z</time>
      </trkpt>
      <trkpt lat="42.7609170" lon="2.0842500">
        <ele>817.2</ele>
        <time>2020-07-22T08:50:37Z</time>
      </trkpt>
      <trkpt lat="42.7608480" lon="2.0842390">
        <ele>816.6</ele>
        <time>2020-07-22T08:50:38Z</time>
      </trkpt>
      <trkpt lat="42.7607730" lon="2.0842390">
        <ele>816.0</ele>
        <time>2020-07-22T08:50:39Z</time>
      </trkpt>
      <trkpt lat="42.7606210" lon="2.0842390">
        <ele>815.0</ele>
        <time>2020-07-22T08:50:41Z</time>
      </trkpt>
      <trkpt lat="42.7604680" lon="2.0842600">
        <ele>813.8</ele>
        <time>2020-07-22T08:50:43Z</time>
      </trkpt>
      <trkpt lat="42.7603190" lon="2.0842760">
        <ele>812.8</ele>
        <time>2020-07-22T08:50:45Z</time>
      </trkpt>
      <trkpt lat="42.7601890" lon="2.0842900">
        <ele>811.4</ele>
        <time>2020-07-22T08:50:47Z</time>
      </trkpt>
      <trkpt lat="42.7600600" lon="2.0842820">
        <ele>810.2</ele>
        <time>2020-07-22T08:50:49Z</time>
      </trkpt>
      <trkpt lat="42.7598430" lon="2.0842730">
        <ele>809.0</ele>
        <time>2020-07-22T08:50:52Z</time>
      </trkpt>
      <trkpt lat="42.7597690" lon="2.0842900">
        <ele>808.6</ele>
        <time>2020-07-22T08:50:53Z</time>
      </trkpt>
      <trkpt lat="42.7596980" lon="2.0843130">
        <ele>808.0</ele>
        <time>2020-07-22T08:50:54Z</time>
      </trkpt>
      <trkpt lat="42.7596380" lon="2.0843560">
        <ele>807.4</ele>
        <time>2020-07-22T08:50:55Z</time>
      </trkpt>
      <trkpt lat="42.7595760" lon="2.0844190">
        <ele>806.8</ele>
        <time>2020-07-22T08:50:56Z</time>
      </trkpt>
      <trkpt lat="42.7595200" lon="2.0844840">
        <ele>806.4</ele>
        <time>2020-07-22T08:50:57Z</time>
      </trkpt>
      <trkpt lat="42.7594650" lon="2.0845530">
        <ele>805.8</ele>
        <time>2020-07-22T08:50:58Z</time>
      </trkpt>
      <trkpt lat="42.7593730" lon="2.0846920">
        <ele>805.0</ele>
        <time>2020-07-22T08:51:00Z</time>
      </trkpt>
      <trkpt lat="42.7593300" lon="2.0847840">
        <ele>804.8</ele>
        <time>2020-07-22T08:51:01Z</time>
      </trkpt>
      <trkpt lat="42.7592220" lon="2.0850140">
        <ele>803.2</ele>
        <time>2020-07-22T08:51:04Z</time>
      </trkpt>
      <trkpt lat="42.7591810" lon="2.0850760">
        <ele>802.4</ele>
        <time>2020-07-22T08:51:05Z</time>
      </trkpt>
      <trkpt lat="42.7591370" lon="2.0851290">
        <ele>801.8</ele>
        <time>2020-07-22T08:51:06Z</time>
      </trkpt>
      <trkpt lat="42.7590980" lon="2.0851690">
        <ele>801.6</ele>
        <time>2020-07-22T08:51:07Z</time>
      </trkpt>
      <trkpt lat="42.7590660" lon="2.0851890">
        <ele>801.4</ele>
        <time>2020-07-22T08:51:08Z</time>
      </trkpt>
      <trkpt lat="42.7590450" lon="2.0851960">
        <ele>801.2</ele>
        <time>2020-07-22T08:51:09Z</time>
      </trkpt>
      <trkpt lat="42.7589640" lon="2.0852820">
        <ele>800.8</ele>
        <time>2020-07-22T08:51:10Z</time>
      </trkpt>
      <trkpt lat="42.7588950" lon="2.0853650">
        <ele>800.4</ele>
        <time>2020-07-22T08:51:11Z</time>
      </trkpt>
      <trkpt lat="42.7588260" lon="2.0854490">
        <ele>798.6</ele>
        <time>2020-07-22T08:51:43Z</time>
      </trkpt>
      <trkpt lat="42.7587570" lon="2.0855320">
        <ele>798.6</ele>
        <time>2020-07-22T08:51:44Z</time>
      </trkpt>
      <trkpt lat="42.7586210" lon="2.0856720">
        <ele>797.8</ele>
        <time>2020-07-22T08:51:48Z</time>
      </trkpt>
      <trkpt lat="42.7585790" lon="2.0857010">
        <ele>796.8</ele>
        <time>2020-07-22T08:51:49Z</time>
      </trkpt>
      <trkpt lat="42.7585290" lon="2.0857800">
        <ele>796.0</ele>
        <time>2020-07-22T08:51:50Z</time>
      </trkpt>
      <trkpt lat="42.7584890" lon="2.0858410">
        <ele>795.6</ele>
        <time>2020-07-22T08:51:51Z</time>
      </trkpt>
      <trkpt lat="42.7584530" lon="2.0858840">
        <ele>795.0</ele>
        <time>2020-07-22T08:51:52Z</time>
      </trkpt>
      <trkpt lat="42.7584230" lon="2.0859370">
        <ele>794.2</ele>
        <time>2020-07-22T08:51:53Z</time>
      </trkpt>
      <trkpt lat="42.7583490" lon="2.0860870">
        <ele>793.2</ele>
        <time>2020-07-22T08:51:56Z</time>
      </trkpt>
      <trkpt lat="42.7583230" lon="2.0861330">
        <ele>793.2</ele>
        <time>2020-07-22T08:51:57Z</time>
      </trkpt>
      <trkpt lat="42.7582090" lon="2.0863030">
        <ele>793.2</ele>
        <time>2020-07-22T08:52:02Z</time>
      </trkpt>
      <trkpt lat="42.7580880" lon="2.0861860">
        <ele>793.2</ele>
        <time>2020-07-22T08:52:03Z</time>
      </trkpt>
      <trkpt lat="42.7579660" lon="2.0860700">
        <ele>793.0</ele>
        <time>2020-07-22T08:52:04Z</time>
      </trkpt>
      <trkpt lat="42.7578330" lon="2.0859760">
        <ele>792.2</ele>
        <time>2020-07-22T08:52:06Z</time>
      </trkpt>
      <trkpt lat="42.7577240" lon="2.0858850">
        <ele>790.6</ele>
        <time>2020-07-22T08:52:08Z</time>
      </trkpt>
      <trkpt lat="42.7576740" lon="2.0858400">
        <ele>789.8</ele>
        <time>2020-07-22T08:52:09Z</time>
      </trkpt>
      <trkpt lat="42.7576200" lon="2.0858040">
        <ele>789.4</ele>
        <time>2020-07-22T08:52:10Z</time>
      </trkpt>
      <trkpt lat="42.7574700" lon="2.0856930">
        <ele>788.2</ele>
        <time>2020-07-22T08:52:13Z</time>
      </trkpt>
      <trkpt lat="42.7573660" lon="2.0856210">
        <ele>787.0</ele>
        <time>2020-07-22T08:52:15Z</time>
      </trkpt>
      <trkpt lat="42.7573140" lon="2.0855980">
        <ele>786.2</ele>
        <time>2020-07-22T08:52:16Z</time>
      </trkpt>
      <trkpt lat="42.7572580" lon="2.0855870">
        <ele>785.8</ele>
        <time>2020-07-22T08:52:17Z</time>
      </trkpt>
      <trkpt lat="42.7570620" lon="2.0855750">
        <ele>784.6</ele>
        <time>2020-07-22T08:52:20Z</time>
      </trkpt>
      <trkpt lat="42.7569920" lon="2.0855710">
        <ele>784.2</ele>
        <time>2020-07-22T08:52:21Z</time>
      </trkpt>
      <trkpt lat="42.7568600" lon="2.0855340">
        <ele>783.2</ele>
        <time>2020-07-22T08:52:23Z</time>
      </trkpt>
      <trkpt lat="42.7567930" lon="2.0855150">
        <ele>782.8</ele>
        <time>2020-07-22T08:52:24Z</time>
      </trkpt>
      <trkpt lat="42.7567300" lon="2.0854830">
        <ele>782.6</ele>
        <time>2020-07-22T08:52:25Z</time>
      </trkpt>
      <trkpt lat="42.7566730" lon="2.0854360">
        <ele>782.2</ele>
        <time>2020-07-22T08:52:26Z</time>
      </trkpt>
      <trkpt lat="42.7566120" lon="2.0853930">
        <ele>781.8</ele>
        <time>2020-07-22T08:52:27Z</time>
      </trkpt>
      <trkpt lat="42.7565520" lon="2.0853560">
        <ele>780.8</ele>
        <time>2020-07-22T08:52:28Z</time>
      </trkpt>
      <trkpt lat="42.7564920" lon="2.0853300">
        <ele>780.2</ele>
        <time>2020-07-22T08:52:29Z</time>
      </trkpt>
      <trkpt lat="42.7564370" lon="2.0853230">
        <ele>779.6</ele>
        <time>2020-07-22T08:52:30Z</time>
      </trkpt>
      <trkpt lat="42.7563760" lon="2.0853310">
        <ele>779.0</ele>
        <time>2020-07-22T08:52:31Z</time>
      </trkpt>
      <trkpt lat="42.7561870" lon="2.0853600">
        <ele>777.6</ele>
        <time>2020-07-22T08:52:34Z</time>
      </trkpt>
      <trkpt lat="42.7560820" lon="2.0853550">
        <ele>777.0</ele>
        <time>2020-07-22T08:52:36Z</time>
      </trkpt>
      <trkpt lat="42.7559800" lon="2.0853010">
        <ele>776.4</ele>
        <time>2020-07-22T08:52:38Z</time>
      </trkpt>
      <trkpt lat="42.7558750" lon="2.0852120">
        <ele>775.2</ele>
        <time>2020-07-22T08:52:40Z</time>
      </trkpt>
      <trkpt lat="42.7558210" lon="2.0851680">
        <ele>774.2</ele>
        <time>2020-07-22T08:52:41Z</time>
      </trkpt>
      <trkpt lat="42.7557220" lon="2.0850950">
        <ele>773.0</ele>
        <time>2020-07-22T08:52:43Z</time>
      </trkpt>
      <trkpt lat="42.7556710" lon="2.0850790">
        <ele>772.6</ele>
        <time>2020-07-22T08:52:44Z</time>
      </trkpt>
      <trkpt lat="42.7556150" lon="2.0850880">
        <ele>772.4</ele>
        <time>2020-07-22T08:52:45Z</time>
      </trkpt>
      <trkpt lat="42.7555010" lon="2.0851180">
        <ele>771.8</ele>
        <time>2020-07-22T08:52:47Z</time>
      </trkpt>
      <trkpt lat="42.7554490" lon="2.0851620">
        <ele>771.4</ele>
        <time>2020-07-22T08:52:48Z</time>
      </trkpt>
      <trkpt lat="42.7554020" lon="2.0852130">
        <ele>771.0</ele>
        <time>2020-07-22T08:52:49Z</time>
      </trkpt>
      <trkpt lat="42.7553560" lon="2.0852650">
        <ele>770.6</ele>
        <time>2020-07-22T08:52:50Z</time>
      </trkpt>
      <trkpt lat="42.7552740" lon="2.0853670">
        <ele>770.0</ele>
        <time>2020-07-22T08:52:52Z</time>
      </trkpt>
      <trkpt lat="42.7552260" lon="2.0854090">
        <ele>769.6</ele>
        <time>2020-07-22T08:52:53Z</time>
      </trkpt>
      <trkpt lat="42.7552260" lon="2.0854090">
        <ele>768.2</ele>
        <time>2020-07-22T08:52:56Z</time>
      </trkpt>
      <trkpt lat="42.7550900" lon="2.0853960">
        <ele>767.0</ele>
        <time>2020-07-22T08:52:59Z</time>
      </trkpt>
      <trkpt lat="42.7549530" lon="2.0853830">
        <ele>765.6</ele>
        <time>2020-07-22T08:53:01Z</time>
      </trkpt>
      <trkpt lat="42.7548170" lon="2.0853710">
        <ele>764.6</ele>
        <time>2020-07-22T08:53:04Z</time>
      </trkpt>
      <trkpt lat="42.7546800" lon="2.0853580">
        <ele>763.6</ele>
        <time>2020-07-22T08:53:06Z</time>
      </trkpt>
      <trkpt lat="42.7544070" lon="2.0853320">
        <ele>763.0</ele>
        <time>2020-07-22T08:53:07Z</time>
      </trkpt>
      <trkpt lat="42.7542820" lon="2.0853540">
        <ele>761.4</ele>
        <time>2020-07-22T08:53:09Z</time>
      </trkpt>
      <trkpt lat="42.7541790" lon="2.0854230">
        <ele>760.6</ele>
        <time>2020-07-22T08:53:11Z</time>
      </trkpt>
      <trkpt lat="42.7541130" lon="2.0854980">
        <ele>760.2</ele>
        <time>2020-07-22T08:53:12Z</time>
      </trkpt>
      <trkpt lat="42.7540630" lon="2.0855760">
        <ele>759.6</ele>
        <time>2020-07-22T08:53:13Z</time>
      </trkpt>
      <trkpt lat="42.7540200" lon="2.0856470">
        <ele>759.2</ele>
        <time>2020-07-22T08:53:14Z</time>
      </trkpt>
      <trkpt lat="42.7538580" lon="2.0858670">
        <ele>758.0</ele>
        <time>2020-07-22T08:53:18Z</time>
      </trkpt>
      <trkpt lat="42.7538120" lon="2.0858920">
        <ele>757.6</ele>
        <time>2020-07-22T08:53:19Z</time>
      </trkpt>
      <trkpt lat="42.7537600" lon="2.0858990">
        <ele>757.4</ele>
        <time>2020-07-22T08:53:20Z</time>
      </trkpt>
      <trkpt lat="42.7537030" lon="2.0858860">
        <ele>757.0</ele>
        <time>2020-07-22T08:53:21Z</time>
      </trkpt>
      <trkpt lat="42.7536440" lon="2.0858570">
        <ele>756.6</ele>
        <time>2020-07-22T08:53:22Z</time>
      </trkpt>
      <trkpt lat="42.7535270" lon="2.0857870">
        <ele>755.6</ele>
        <time>2020-07-22T08:53:24Z</time>
      </trkpt>
      <trkpt lat="42.7534630" lon="2.0857620">
        <ele>755.2</ele>
        <time>2020-07-22T08:53:25Z</time>
      </trkpt>
      <trkpt lat="42.7533970" lon="2.0857490">
        <ele>754.6</ele>
        <time>2020-07-22T08:53:26Z</time>
      </trkpt>
      <trkpt lat="42.7533270" lon="2.0857440">
        <ele>754.0</ele>
        <time>2020-07-22T08:53:27Z</time>
      </trkpt>
      <trkpt lat="42.7532530" lon="2.0857420">
        <ele>753.4</ele>
        <time>2020-07-22T08:53:28Z</time>
      </trkpt>
      <trkpt lat="42.7531100" lon="2.0857170">
        <ele>751.8</ele>
        <time>2020-07-22T08:53:30Z</time>
      </trkpt>
      <trkpt lat="42.7529810" lon="2.0856370">
        <ele>751.0</ele>
        <time>2020-07-22T08:53:32Z</time>
      </trkpt>
      <trkpt lat="42.7528490" lon="2.0855270">
        <ele>750.4</ele>
        <time>2020-07-22T08:53:34Z</time>
      </trkpt>
      <trkpt lat="42.7527080" lon="2.0854130">
        <ele>749.0</ele>
        <time>2020-07-22T08:53:36Z</time>
      </trkpt>
      <trkpt lat="42.7526390" lon="2.0853460">
        <ele>748.0</ele>
        <time>2020-07-22T08:53:37Z</time>
      </trkpt>
      <trkpt lat="42.7525150" lon="2.0851880">
        <ele>746.2</ele>
        <time>2020-07-22T08:53:39Z</time>
      </trkpt>
      <trkpt lat="42.7523970" lon="2.0850350">
        <ele>745.6</ele>
        <time>2020-07-22T08:53:41Z</time>
      </trkpt>
      <trkpt lat="42.7523350" lon="2.0849670">
        <ele>745.0</ele>
        <time>2020-07-22T08:53:42Z</time>
      </trkpt>
      <trkpt lat="42.7522110" lon="2.0848500">
        <ele>743.8</ele>
        <time>2020-07-22T08:53:44Z</time>
      </trkpt>
      <trkpt lat="42.7521060" lon="2.0847330">
        <ele>742.4</ele>
        <time>2020-07-22T08:53:46Z</time>
      </trkpt>
      <trkpt lat="42.7520730" lon="2.0846580">
        <ele>742.0</ele>
        <time>2020-07-22T08:53:47Z</time>
      </trkpt>
      <trkpt lat="42.7520500" lon="2.0845710">
        <ele>741.6</ele>
        <time>2020-07-22T08:53:48Z</time>
      </trkpt>
      <trkpt lat="42.7520340" lon="2.0844770">
        <ele>741.0</ele>
        <time>2020-07-22T08:53:49Z</time>
      </trkpt>
      <trkpt lat="42.7520280" lon="2.0843780">
        <ele>740.6</ele>
        <time>2020-07-22T08:53:50Z</time>
      </trkpt>
      <trkpt lat="42.7520240" lon="2.0842710">
        <ele>740.0</ele>
        <time>2020-07-22T08:53:51Z</time>
      </trkpt>
      <trkpt lat="42.7520070" lon="2.0840520">
        <ele>738.8</ele>
        <time>2020-07-22T08:53:53Z</time>
      </trkpt>
      <trkpt lat="42.7519980" lon="2.0839340">
        <ele>738.4</ele>
        <time>2020-07-22T08:53:54Z</time>
      </trkpt>
      <trkpt lat="42.7519860" lon="2.0838190">
        <ele>738.0</ele>
        <time>2020-07-22T08:53:55Z</time>
      </trkpt>
      <trkpt lat="42.7519750" lon="2.0837070">
        <ele>737.4</ele>
        <time>2020-07-22T08:53:56Z</time>
      </trkpt>
      <trkpt lat="42.7519530" lon="2.0834780">
        <ele>736.0</ele>
        <time>2020-07-22T08:53:58Z</time>
      </trkpt>
      <trkpt lat="42.7518900" lon="2.0832040">
        <ele>734.8</ele>
        <time>2020-07-22T08:54:01Z</time>
      </trkpt>
      <trkpt lat="42.7518040" lon="2.0831020">
        <ele>734.4</ele>
        <time>2020-07-22T08:54:03Z</time>
      </trkpt>
      <trkpt lat="42.7517510" lon="2.0830770">
        <ele>734.2</ele>
        <time>2020-07-22T08:54:04Z</time>
      </trkpt>
      <trkpt lat="42.7516940" lon="2.0830610">
        <ele>734.0</ele>
        <time>2020-07-22T08:54:05Z</time>
      </trkpt>
      <trkpt lat="42.7516400" lon="2.0830540">
        <ele>733.8</ele>
        <time>2020-07-22T08:54:06Z</time>
      </trkpt>
      <trkpt lat="42.7515770" lon="2.0830630">
        <ele>733.6</ele>
        <time>2020-07-22T08:54:07Z</time>
      </trkpt>
      <trkpt lat="42.7515070" lon="2.0830920">
        <ele>733.4</ele>
        <time>2020-07-22T08:54:08Z</time>
      </trkpt>
      <trkpt lat="42.7514470" lon="2.0831430">
        <ele>733.4</ele>
        <time>2020-07-22T08:54:09Z</time>
      </trkpt>
      <trkpt lat="42.7513750" lon="2.0833130">
        <ele>732.8</ele>
        <time>2020-07-22T08:54:11Z</time>
      </trkpt>
      <trkpt lat="42.7513440" lon="2.0833760">
        <ele>732.6</ele>
        <time>2020-07-22T08:54:12Z</time>
      </trkpt>
      <trkpt lat="42.7512680" lon="2.0836100">
        <ele>732.0</ele>
        <time>2020-07-22T08:54:15Z</time>
      </trkpt>
      <trkpt lat="42.7512610" lon="2.0837010">
        <ele>731.6</ele>
        <time>2020-07-22T08:54:16Z</time>
      </trkpt>
      <trkpt lat="42.7512560" lon="2.0837990">
        <ele>731.4</ele>
        <time>2020-07-22T08:54:17Z</time>
      </trkpt>
      <trkpt lat="42.7512650" lon="2.0839040">
        <ele>731.2</ele>
        <time>2020-07-22T08:54:18Z</time>
      </trkpt>
      <trkpt lat="42.7512810" lon="2.0841680">
        <ele>730.2</ele>
        <time>2020-07-22T08:54:21Z</time>
      </trkpt>
      <trkpt lat="42.7512140" lon="2.0843940">
        <ele>729.4</ele>
        <time>2020-07-22T08:54:25Z</time>
      </trkpt>
      <trkpt lat="42.7511830" lon="2.0844070">
        <ele>729.2</ele>
        <time>2020-07-22T08:54:26Z</time>
      </trkpt>
      <trkpt lat="42.7511380" lon="2.0844190">
        <ele>729.2</ele>
        <time>2020-07-22T08:54:28Z</time>
      </trkpt>
      <trkpt lat="42.7510910" lon="2.0844110">
        <ele>729.2</ele>
        <time>2020-07-22T08:54:30Z</time>
      </trkpt>
      <trkpt lat="42.7510480" lon="2.0844960">
        <ele>730.0</ele>
        <time>2020-07-22T08:55:01Z</time>
      </trkpt>
      <trkpt lat="42.7510290" lon="2.0844950">
        <ele>730.0</ele>
        <time>2020-07-22T08:55:02Z</time>
      </trkpt>
      <trkpt lat="42.7509870" lon="2.0845080">
        <ele>730.4</ele>
        <time>2020-07-22T08:55:04Z</time>
      </trkpt>
      <trkpt lat="42.7509400" lon="2.0845280">
        <ele>730.4</ele>
        <time>2020-07-22T08:55:06Z</time>
      </trkpt>
      <trkpt lat="42.7508710" lon="2.0845470">
        <ele>730.6</ele>
        <time>2020-07-22T08:55:08Z</time>
      </trkpt>
      <trkpt lat="42.7507590" lon="2.0845820">
        <ele>731.0</ele>
        <time>2020-07-22T08:55:11Z</time>
      </trkpt>
      <trkpt lat="42.7507250" lon="2.0846000">
        <ele>731.2</ele>
        <time>2020-07-22T08:55:12Z</time>
      </trkpt>
      <trkpt lat="42.7506870" lon="2.0846120">
        <ele>731.4</ele>
        <time>2020-07-22T08:55:13Z</time>
      </trkpt>
      <trkpt lat="42.7506480" lon="2.0846230">
        <ele>731.4</ele>
        <time>2020-07-22T08:55:14Z</time>
      </trkpt>
      <trkpt lat="42.7505710" lon="2.0846500">
        <ele>731.6</ele>
        <time>2020-07-22T08:55:16Z</time>
      </trkpt>
      <trkpt lat="42.7504940" lon="2.0846860">
        <ele>732.2</ele>
        <time>2020-07-22T08:55:18Z</time>
      </trkpt>
      <trkpt lat="42.7504560" lon="2.0847060">
        <ele>732.4</ele>
        <time>2020-07-22T08:55:19Z</time>
      </trkpt>
      <trkpt lat="42.7503810" lon="2.0847370">
        <ele>732.8</ele>
        <time>2020-07-22T08:55:21Z</time>
      </trkpt>
      <trkpt lat="42.7503450" lon="2.0847520">
        <ele>732.8</ele>
        <time>2020-07-22T08:55:22Z</time>
      </trkpt>
      <trkpt lat="42.7503090" lon="2.0847650">
        <ele>733.0</ele>
        <time>2020-07-22T08:55:23Z</time>
      </trkpt>
      <trkpt lat="42.7502030" lon="2.0848110">
        <ele>733.6</ele>
        <time>2020-07-22T08:55:26Z</time>
      </trkpt>
      <trkpt lat="42.7500460" lon="2.0848230">
        <ele>734.6</ele>
        <time>2020-07-22T08:55:30Z</time>
      </trkpt>
      <trkpt lat="42.7500030" lon="2.0848200">
        <ele>735.0</ele>
        <time>2020-07-22T08:55:31Z</time>
      </trkpt>
      <trkpt lat="42.7497760" lon="2.0847020">
        <ele>735.8</ele>
        <time>2020-07-22T08:55:36Z</time>
      </trkpt>
      <trkpt lat="42.7496850" lon="2.0846590">
        <ele>736.4</ele>
        <time>2020-07-22T08:55:38Z</time>
      </trkpt>
      <trkpt lat="42.7496020" lon="2.0846270">
        <ele>736.8</ele>
        <time>2020-07-22T08:55:40Z</time>
      </trkpt>
      <trkpt lat="42.7493820" lon="2.0846070">
        <ele>737.2</ele>
        <time>2020-07-22T08:55:45Z</time>
      </trkpt>
      <trkpt lat="42.7491520" lon="2.0846510">
        <ele>737.6</ele>
        <time>2020-07-22T08:55:48Z</time>
      </trkpt>
      <trkpt lat="42.7489790" lon="2.0847090">
        <ele>738.0</ele>
        <time>2020-07-22T08:55:51Z</time>
      </trkpt>
      <trkpt lat="42.7488850" lon="2.0847440">
        <ele>738.4</ele>
        <time>2020-07-22T08:55:53Z</time>
      </trkpt>
      <trkpt lat="42.7488350" lon="2.0847250">
        <ele>738.6</ele>
        <time>2020-07-22T08:55:54Z</time>
      </trkpt>
      <trkpt lat="42.7487380" lon="2.0846880">
        <ele>739.0</ele>
        <time>2020-07-22T08:55:56Z</time>
      </trkpt>
      <trkpt lat="42.7486930" lon="2.0846670">
        <ele>739.2</ele>
        <time>2020-07-22T08:55:57Z</time>
      </trkpt>
      <trkpt lat="42.7484850" lon="2.0845790">
        <ele>740.2</ele>
        <time>2020-07-22T08:56:02Z</time>
      </trkpt>
      <trkpt lat="42.7484390" lon="2.0845600">
        <ele>740.4</ele>
        <time>2020-07-22T08:56:03Z</time>
      </trkpt>
      <trkpt lat="42.7482150" lon="2.0844550">
        <ele>741.2</ele>
        <time>2020-07-22T08:56:08Z</time>
      </trkpt>
      <trkpt lat="42.7481640" lon="2.0844480">
        <ele>741.4</ele>
        <time>2020-07-22T08:56:09Z</time>
      </trkpt>
      <trkpt lat="42.7478580" lon="2.0844410">
        <ele>741.6</ele>
        <time>2020-07-22T08:56:15Z</time>
      </trkpt>
      <trkpt lat="42.7477500" lon="2.0844590">
        <ele>741.4</ele>
        <time>2020-07-22T08:56:17Z</time>
      </trkpt>
      <trkpt lat="42.7476950" lon="2.0844780">
        <ele>741.4</ele>
        <time>2020-07-22T08:56:18Z</time>
      </trkpt>
      <trkpt lat="42.7475010" lon="2.0845870">
        <ele>741.6</ele>
        <time>2020-07-22T08:56:22Z</time>
      </trkpt>
      <trkpt lat="42.7474100" lon="2.0846810">
        <ele>741.6</ele>
        <time>2020-07-22T08:56:24Z</time>
      </trkpt>
      <trkpt lat="42.7472400" lon="2.0848040">
        <ele>741.2</ele>
        <time>2020-07-22T08:56:28Z</time>
      </trkpt>
      <trkpt lat="42.7469760" lon="2.0849030">
        <ele>742.0</ele>
        <time>2020-07-22T08:56:34Z</time>
      </trkpt>
      <trkpt lat="42.7466360" lon="2.0850260">
        <ele>742.2</ele>
        <time>2020-07-22T08:56:40Z</time>
      </trkpt>
      <trkpt lat="42.7465840" lon="2.0850500">
        <ele>742.2</ele>
        <time>2020-07-22T08:56:41Z</time>
      </trkpt>
      <trkpt lat="42.7465350" lon="2.0850750">
        <ele>742.4</ele>
        <time>2020-07-22T08:56:42Z</time>
      </trkpt>
      <trkpt lat="42.7464880" lon="2.0850960">
        <ele>742.4</ele>
        <time>2020-07-22T08:56:43Z</time>
      </trkpt>
      <trkpt lat="42.7463360" lon="2.0851740">
        <ele>741.6</ele>
        <time>2020-07-22T09:16:38Z</time>
      </trkpt>
      <trkpt lat="42.7463060" lon="2.0851980">
        <ele>741.6</ele>
        <time>2020-07-22T09:16:39Z</time>
      </trkpt>
      <trkpt lat="42.7460950" lon="2.0854180">
        <ele>743.2</ele>
        <time>2020-07-22T09:16:45Z</time>
      </trkpt>
      <trkpt lat="42.7458610" lon="2.0857240">
        <ele>743.2</ele>
        <time>2020-07-22T09:16:51Z</time>
      </trkpt>
      <trkpt lat="42.7458200" lon="2.0857700">
        <ele>743.2</ele>
        <time>2020-07-22T09:16:52Z</time>
      </trkpt>
      <trkpt lat="42.7457750" lon="2.0858110">
        <ele>743.2</ele>
        <time>2020-07-22T09:16:53Z</time>
      </trkpt>
      <trkpt lat="42.7457280" lon="2.0858500">
        <ele>743.4</ele>
        <time>2020-07-22T09:16:54Z</time>
      </trkpt>
      <trkpt lat="42.7456800" lon="2.0858840">
        <ele>743.4</ele>
        <time>2020-07-22T09:16:55Z</time>
      </trkpt>
      <trkpt lat="42.7456270" lon="2.0859110">
        <ele>743.4</ele>
        <time>2020-07-22T09:16:56Z</time>
      </trkpt>
      <trkpt lat="42.7455760" lon="2.0859400">
        <ele>743.4</ele>
        <time>2020-07-22T09:16:57Z</time>
      </trkpt>
      <trkpt lat="42.7455200" lon="2.0859570">
        <ele>743.6</ele>
        <time>2020-07-22T09:16:58Z</time>
      </trkpt>
      <trkpt lat="42.7454660" lon="2.0859710">
        <ele>743.6</ele>
        <time>2020-07-22T09:16:59Z</time>
      </trkpt>
      <trkpt lat="42.7453570" lon="2.0859900">
        <ele>743.8</ele>
        <time>2020-07-22T09:17:01Z</time>
      </trkpt>
      <trkpt lat="42.7453040" lon="2.0859990">
        <ele>743.8</ele>
        <time>2020-07-22T09:17:02Z</time>
      </trkpt>
      <trkpt lat="42.7451400" lon="2.0860120">
        <ele>743.8</ele>
        <time>2020-07-22T09:17:05Z</time>
      </trkpt>
      <trkpt lat="42.7449920" lon="2.0860220">
        <ele>744.0</ele>
        <time>2020-07-22T09:17:08Z</time>
      </trkpt>
      <trkpt lat="42.7449460" lon="2.0860230">
        <ele>744.2</ele>
        <time>2020-07-22T09:17:09Z</time>
      </trkpt>
      <trkpt lat="42.7448580" lon="2.0860120">
        <ele>744.4</ele>
        <time>2020-07-22T09:17:11Z</time>
      </trkpt>
      <trkpt lat="42.7446990" lon="2.0859680">
        <ele>744.8</ele>
        <time>2020-07-22T09:17:15Z</time>
      </trkpt>
      <trkpt lat="42.7444160" lon="2.0859270">
        <ele>745.0</ele>
        <time>2020-07-22T09:17:21Z</time>
      </trkpt>
      <trkpt lat="42.7443140" lon="2.0859180">
        <ele>745.4</ele>
        <time>2020-07-22T09:17:23Z</time>
      </trkpt>
      <trkpt lat="42.7441210" lon="2.0859470">
        <ele>746.0</ele>
        <time>2020-07-22T09:17:27Z</time>
      </trkpt>
      <trkpt lat="42.7440250" lon="2.0859910">
        <ele>746.2</ele>
        <time>2020-07-22T09:17:29Z</time>
      </trkpt>
      <trkpt lat="42.7439350" lon="2.0860520">
        <ele>746.4</ele>
        <time>2020-07-22T09:17:31Z</time>
      </trkpt>
      <trkpt lat="42.7438980" lon="2.0860870">
        <ele>746.6</ele>
        <time>2020-07-22T09:17:32Z</time>
      </trkpt>
      <trkpt lat="42.7437400" lon="2.0863320">
        <ele>747.0</ele>
        <time>2020-07-22T09:17:37Z</time>
      </trkpt>
      <trkpt lat="42.7437170" lon="2.0863910">
        <ele>747.0</ele>
        <time>2020-07-22T09:17:38Z</time>
      </trkpt>
      <trkpt lat="42.7436780" lon="2.0865030">
        <ele>747.4</ele>
        <time>2020-07-22T09:17:40Z</time>
      </trkpt>
      <trkpt lat="42.7436120" lon="2.0866670">
        <ele>748.8</ele>
        <time>2020-07-22T09:17:43Z</time>
      </trkpt>
      <trkpt lat="42.7435850" lon="2.0867190">
        <ele>749.0</ele>
        <time>2020-07-22T09:17:44Z</time>
      </trkpt>
      <trkpt lat="42.7435170" lon="2.0868010">
        <ele>749.4</ele>
        <time>2020-07-22T09:17:46Z</time>
      </trkpt>
      <trkpt lat="42.7434420" lon="2.0868570">
        <ele>749.6</ele>
        <time>2020-07-22T09:17:48Z</time>
      </trkpt>
      <trkpt lat="42.7434030" lon="2.0868730">
        <ele>750.0</ele>
        <time>2020-07-22T09:17:49Z</time>
      </trkpt>
      <trkpt lat="42.7433620" lon="2.0868770">
        <ele>750.0</ele>
        <time>2020-07-22T09:17:50Z</time>
      </trkpt>
      <trkpt lat="42.7433210" lon="2.0868710">
        <ele>750.2</ele>
        <time>2020-07-22T09:17:51Z</time>
      </trkpt>
      <trkpt lat="42.7432410" lon="2.0868390">
        <ele>750.8</ele>
        <time>2020-07-22T09:17:53Z</time>
      </trkpt>
      <trkpt lat="42.7432010" lon="2.0868170">
        <ele>751.0</ele>
        <time>2020-07-22T09:17:54Z</time>
      </trkpt>
      <trkpt lat="42.7431180" lon="2.0867830">
        <ele>751.6</ele>
        <time>2020-07-22T09:17:56Z</time>
      </trkpt>
      <trkpt lat="42.7429980" lon="2.0867470">
        <ele>752.2</ele>
        <time>2020-07-22T09:17:59Z</time>
      </trkpt>
      <trkpt lat="42.7428850" lon="2.0867450">
        <ele>752.6</ele>
        <time>2020-07-22T09:18:02Z</time>
      </trkpt>
      <trkpt lat="42.7428140" lon="2.0867500">
        <ele>753.2</ele>
        <time>2020-07-22T09:18:04Z</time>
      </trkpt>
      <trkpt lat="42.7426580" lon="2.0868320">
        <ele>754.2</ele>
        <time>2020-07-22T09:18:09Z</time>
      </trkpt>
      <trkpt lat="42.7425560" lon="2.0870790">
        <ele>755.4</ele>
        <time>2020-07-22T09:18:14Z</time>
      </trkpt>
      <trkpt lat="42.7424780" lon="2.0873870">
        <ele>756.0</ele>
        <time>2020-07-22T09:18:20Z</time>
      </trkpt>
      <trkpt lat="42.7424180" lon="2.0874660">
        <ele>756.4</ele>
        <time>2020-07-22T09:18:22Z</time>
      </trkpt>
      <trkpt lat="42.7422850" lon="2.0876190">
        <ele>757.6</ele>
        <time>2020-07-22T09:18:26Z</time>
      </trkpt>
      <trkpt lat="42.7422140" lon="2.0876840">
        <ele>758.0</ele>
        <time>2020-07-22T09:18:28Z</time>
      </trkpt>
      <trkpt lat="42.7421020" lon="2.0877530">
        <ele>758.6</ele>
        <time>2020-07-22T09:18:31Z</time>
      </trkpt>
      <trkpt lat="42.7420590" lon="2.0877610">
        <ele>758.8</ele>
        <time>2020-07-22T09:18:32Z</time>
      </trkpt>
      <trkpt lat="42.7420110" lon="2.0877550">
        <ele>759.0</ele>
        <time>2020-07-22T09:18:33Z</time>
      </trkpt>
      <trkpt lat="42.7417950" lon="2.0876930">
        <ele>760.0</ele>
        <time>2020-07-22T09:18:38Z</time>
      </trkpt>
      <trkpt lat="42.7417580" lon="2.0876660">
        <ele>760.2</ele>
        <time>2020-07-22T09:18:39Z</time>
      </trkpt>
      <trkpt lat="42.7417230" lon="2.0875570">
        <ele>761.0</ele>
        <time>2020-07-22T09:18:41Z</time>
      </trkpt>
      <trkpt lat="42.7416780" lon="2.0874630">
        <ele>761.4</ele>
        <time>2020-07-22T09:18:43Z</time>
      </trkpt>
      <trkpt lat="42.7414860" lon="2.0872130">
        <ele>762.0</ele>
        <time>2020-07-22T09:18:49Z</time>
      </trkpt>
      <trkpt lat="42.7414480" lon="2.0871820">
        <ele>762.2</ele>
        <time>2020-07-22T09:18:50Z</time>
      </trkpt>
      <trkpt lat="42.7414110" lon="2.0871510">
        <ele>762.4</ele>
        <time>2020-07-22T09:18:51Z</time>
      </trkpt>
      <trkpt lat="42.7413730" lon="2.0871240">
        <ele>762.6</ele>
        <time>2020-07-22T09:18:52Z</time>
      </trkpt>
      <trkpt lat="42.7412720" lon="2.0870410">
        <ele>763.2</ele>
        <time>2020-07-22T09:18:55Z</time>
      </trkpt>
      <trkpt lat="42.7412060" lon="2.0870010">
        <ele>763.8</ele>
        <time>2020-07-22T09:18:57Z</time>
      </trkpt>
      <trkpt lat="42.7411350" lon="2.0869680">
        <ele>764.4</ele>
        <time>2020-07-22T09:18:59Z</time>
      </trkpt>
      <trkpt lat="42.7409980" lon="2.0869570">
        <ele>765.2</ele>
        <time>2020-07-22T09:19:03Z</time>
      </trkpt>
      <trkpt lat="42.7409610" lon="2.0869640">
        <ele>765.6</ele>
        <time>2020-07-22T09:19:04Z</time>
      </trkpt>
      <trkpt lat="42.7407370" lon="2.0870580">
        <ele>766.4</ele>
        <time>2020-07-22T09:19:10Z</time>
      </trkpt>
      <trkpt lat="42.7406990" lon="2.0870770">
        <ele>766.6</ele>
        <time>2020-07-22T09:19:11Z</time>
      </trkpt>
      <trkpt lat="42.7404670" lon="2.0872070">
        <ele>767.8</ele>
        <time>2020-07-22T09:19:17Z</time>
      </trkpt>
      <trkpt lat="42.7403980" lon="2.0872600">
        <ele>768.4</ele>
        <time>2020-07-22T09:19:19Z</time>
      </trkpt>
      <trkpt lat="42.7402670" lon="2.0873750">
        <ele>769.0</ele>
        <time>2020-07-22T09:19:23Z</time>
      </trkpt>
      <trkpt lat="42.7401690" lon="2.0874660">
        <ele>770.0</ele>
        <time>2020-07-22T09:19:27Z</time>
      </trkpt>
      <trkpt lat="42.7400580" lon="2.0874580">
        <ele>770.8</ele>
        <time>2020-07-22T09:19:32Z</time>
      </trkpt>
      <trkpt lat="42.7400030" lon="2.0874320">
        <ele>771.0</ele>
        <time>2020-07-22T09:19:35Z</time>
      </trkpt>
      <trkpt lat="42.7399440" lon="2.0874020">
        <ele>771.2</ele>
        <time>2020-07-22T09:19:39Z</time>
      </trkpt>
      <trkpt lat="42.7399180" lon="2.0874160">
        <ele>771.4</ele>
        <time>2020-07-22T09:19:42Z</time>
      </trkpt>
      <trkpt lat="42.7400010" lon="2.0873890">
        <ele>771.4</ele>
        <time>2020-07-22T09:20:51Z</time>
      </trkpt>
      <trkpt lat="42.7399750" lon="2.0873700">
        <ele>771.4</ele>
        <time>2020-07-22T09:20:52Z</time>
      </trkpt>
      <trkpt lat="42.7397960" lon="2.0872290">
        <ele>772.2</ele>
        <time>2020-07-22T09:20:58Z</time>
      </trkpt>
      <trkpt lat="42.7397620" lon="2.0872040">
        <ele>772.4</ele>
        <time>2020-07-22T09:20:59Z</time>
      </trkpt>
      <trkpt lat="42.7396360" lon="2.0871030">
        <ele>773.4</ele>
        <time>2020-07-22T09:21:03Z</time>
      </trkpt>
      <trkpt lat="42.7395780" lon="2.0870480">
        <ele>773.8</ele>
        <time>2020-07-22T09:21:05Z</time>
      </trkpt>
      <trkpt lat="42.7394840" lon="2.0869860">
        <ele>774.4</ele>
        <time>2020-07-22T09:21:08Z</time>
      </trkpt>
      <trkpt lat="42.7394130" lon="2.0869760">
        <ele>774.6</ele>
        <time>2020-07-22T09:21:10Z</time>
      </trkpt>
      <trkpt lat="42.7393500" lon="2.0869740">
        <ele>775.0</ele>
        <time>2020-07-22T09:21:12Z</time>
      </trkpt>
      <trkpt lat="42.7392170" lon="2.0870070">
        <ele>775.8</ele>
        <time>2020-07-22T09:21:16Z</time>
      </trkpt>
      <trkpt lat="42.7390500" lon="2.0870790">
        <ele>777.0</ele>
        <time>2020-07-22T09:21:21Z</time>
      </trkpt>
      <trkpt lat="42.7389400" lon="2.0871430">
        <ele>777.8</ele>
        <time>2020-07-22T09:21:24Z</time>
      </trkpt>
      <trkpt lat="42.7389090" lon="2.0871560">
        <ele>778.0</ele>
        <time>2020-07-22T09:21:25Z</time>
      </trkpt>
      <trkpt lat="42.7387990" lon="2.0872130">
        <ele>779.2</ele>
        <time>2020-07-22T09:21:29Z</time>
      </trkpt>
      <trkpt lat="42.7386910" lon="2.0872560">
        <ele>779.6</ele>
        <time>2020-07-22T09:21:33Z</time>
      </trkpt>
      <trkpt lat="42.7386280" lon="2.0872700">
        <ele>780.2</ele>
        <time>2020-07-22T09:21:35Z</time>
      </trkpt>
      <trkpt lat="42.7385060" lon="2.0872880">
        <ele>781.2</ele>
        <time>2020-07-22T09:21:39Z</time>
      </trkpt>
      <trkpt lat="42.7384770" lon="2.0872920">
        <ele>781.4</ele>
        <time>2020-07-22T09:21:40Z</time>
      </trkpt>
      <trkpt lat="42.7384200" lon="2.0872930">
        <ele>781.6</ele>
        <time>2020-07-22T09:21:42Z</time>
      </trkpt>
      <trkpt lat="42.7383660" lon="2.0872890">
        <ele>782.4</ele>
        <time>2020-07-22T09:21:44Z</time>
      </trkpt>
      <trkpt lat="42.7382250" lon="2.0872300">
        <ele>783.8</ele>
        <time>2020-07-22T09:21:49Z</time>
      </trkpt>
      <trkpt lat="42.7381180" lon="2.0871600">
        <ele>784.8</ele>
        <time>2020-07-22T09:21:53Z</time>
      </trkpt>
      <trkpt lat="42.7380150" lon="2.0870850">
        <ele>785.6</ele>
        <time>2020-07-22T09:21:57Z</time>
      </trkpt>
      <trkpt lat="42.7379900" lon="2.0870670">
        <ele>785.8</ele>
        <time>2020-07-22T09:21:58Z</time>
      </trkpt>
      <trkpt lat="42.7379160" lon="2.0870070">
        <ele>786.6</ele>
        <time>2020-07-22T09:22:01Z</time>
      </trkpt>
      <trkpt lat="42.7378700" lon="2.0869550">
        <ele>787.2</ele>
        <time>2020-07-22T09:22:03Z</time>
      </trkpt>
      <trkpt lat="42.7378470" lon="2.0869300">
        <ele>787.4</ele>
        <time>2020-07-22T09:22:04Z</time>
      </trkpt>
      <trkpt lat="42.7378240" lon="2.0869040">
        <ele>787.6</ele>
        <time>2020-07-22T09:22:05Z</time>
      </trkpt>
      <trkpt lat="42.7377750" lon="2.0868580">
        <ele>788.2</ele>
        <time>2020-07-22T09:22:07Z</time>
      </trkpt>
      <trkpt lat="42.7377490" lon="2.0868360">
        <ele>788.4</ele>
        <time>2020-07-22T09:22:08Z</time>
      </trkpt>
      <trkpt lat="42.7377260" lon="2.0868180">
        <ele>788.6</ele>
        <time>2020-07-22T09:22:09Z</time>
      </trkpt>
      <trkpt lat="42.7376490" lon="2.0867690">
        <ele>789.4</ele>
        <time>2020-07-22T09:22:12Z</time>
      </trkpt>
      <trkpt lat="42.7376210" lon="2.0867550">
        <ele>789.6</ele>
        <time>2020-07-22T09:22:13Z</time>
      </trkpt>
      <trkpt lat="42.7375160" lon="2.0866810">
        <ele>790.4</ele>
        <time>2020-07-22T09:22:17Z</time>
      </trkpt>
      <trkpt lat="42.7374160" lon="2.0866140">
        <ele>791.2</ele>
        <time>2020-07-22T09:22:21Z</time>
      </trkpt>
      <trkpt lat="42.7373910" lon="2.0865930">
        <ele>791.6</ele>
        <time>2020-07-22T09:22:22Z</time>
      </trkpt>
      <trkpt lat="42.7373360" lon="2.0865620">
        <ele>792.2</ele>
        <time>2020-07-22T09:22:24Z</time>
      </trkpt>
      <trkpt lat="42.7373070" lon="2.0865500">
        <ele>792.6</ele>
        <time>2020-07-22T09:22:25Z</time>
      </trkpt>
      <trkpt lat="42.7372710" lon="2.0865510">
        <ele>792.8</ele>
        <time>2020-07-22T09:22:26Z</time>
      </trkpt>
      <trkpt lat="42.7372380" lon="2.0865470">
        <ele>793.2</ele>
        <time>2020-07-22T09:22:27Z</time>
      </trkpt>
      <trkpt lat="42.7372050" lon="2.0865370">
        <ele>793.4</ele>
        <time>2020-07-22T09:22:28Z</time>
      </trkpt>
      <trkpt lat="42.7371440" lon="2.0865050">
        <ele>793.8</ele>
        <time>2020-07-22T09:22:30Z</time>
      </trkpt>
      <trkpt lat="42.7370890" lon="2.0864680">
        <ele>794.2</ele>
        <time>2020-07-22T09:22:32Z</time>
      </trkpt>
      <trkpt lat="42.7369870" lon="2.0863810">
        <ele>794.8</ele>
        <time>2020-07-22T09:22:36Z</time>
      </trkpt>
      <trkpt lat="42.7369630" lon="2.0863560">
        <ele>795.0</ele>
        <time>2020-07-22T09:22:37Z</time>
      </trkpt>
      <trkpt lat="42.7369390" lon="2.0863300">
        <ele>795.2</ele>
        <time>2020-07-22T09:22:38Z</time>
      </trkpt>
      <trkpt lat="42.7368870" lon="2.0862800">
        <ele>796.2</ele>
        <time>2020-07-22T09:22:40Z</time>
      </trkpt>
      <trkpt lat="42.7368120" lon="2.0862110">
        <ele>797.0</ele>
        <time>2020-07-22T09:22:43Z</time>
      </trkpt>
      <trkpt lat="42.7367900" lon="2.0861900">
        <ele>797.2</ele>
        <time>2020-07-22T09:22:44Z</time>
      </trkpt>
      <trkpt lat="42.7367670" lon="2.0861700">
        <ele>797.6</ele>
        <time>2020-07-22T09:22:45Z</time>
      </trkpt>
      <trkpt lat="42.7367450" lon="2.0861490">
        <ele>797.8</ele>
        <time>2020-07-22T09:22:46Z</time>
      </trkpt>
      <trkpt lat="42.7367220" lon="2.0861270">
        <ele>798.0</ele>
        <time>2020-07-22T09:22:47Z</time>
      </trkpt>
      <trkpt lat="42.7366390" lon="2.0860740">
        <ele>798.2</ele>
        <time>2020-07-22T09:22:50Z</time>
      </trkpt>
      <trkpt lat="42.7365380" lon="2.0860090">
        <ele>798.8</ele>
        <time>2020-07-22T09:22:54Z</time>
      </trkpt>
      <trkpt lat="42.7364870" lon="2.0859810">
        <ele>799.4</ele>
        <time>2020-07-22T09:22:56Z</time>
      </trkpt>
      <trkpt lat="42.7363870" lon="2.0859250">
        <ele>800.2</ele>
        <time>2020-07-22T09:23:00Z</time>
      </trkpt>
      <trkpt lat="42.7363380" lon="2.0859050">
        <ele>800.6</ele>
        <time>2020-07-22T09:23:02Z</time>
      </trkpt>
      <trkpt lat="42.7363180" lon="2.0858920">
        <ele>800.8</ele>
        <time>2020-07-22T09:23:03Z</time>
      </trkpt>
      <trkpt lat="42.7361930" lon="2.0858510">
        <ele>801.8</ele>
        <time>2020-07-22T09:23:08Z</time>
      </trkpt>
      <trkpt lat="42.7360790" lon="2.0858110">
        <ele>803.0</ele>
        <time>2020-07-22T09:23:12Z</time>
      </trkpt>
      <trkpt lat="42.7359550" lon="2.0857350">
        <ele>804.2</ele>
        <time>2020-07-22T09:23:17Z</time>
      </trkpt>
      <trkpt lat="42.7358830" lon="2.0856900">
        <ele>804.8</ele>
        <time>2020-07-22T09:23:20Z</time>
      </trkpt>
      <trkpt lat="42.7358010" lon="2.0856540">
        <ele>805.2</ele>
        <time>2020-07-22T09:23:23Z</time>
      </trkpt>
      <trkpt lat="42.7356160" lon="2.0856920">
        <ele>806.0</ele>
        <time>2020-07-22T09:23:27Z</time>
      </trkpt>
      <trkpt lat="42.7355520" lon="2.0856730">
        <ele>806.4</ele>
        <time>2020-07-22T09:23:29Z</time>
      </trkpt>
      <trkpt lat="42.7354470" lon="2.0856170">
        <ele>807.2</ele>
        <time>2020-07-22T09:23:33Z</time>
      </trkpt>
      <trkpt lat="42.7354220" lon="2.0856060">
        <ele>807.4</ele>
        <time>2020-07-22T09:23:34Z</time>
      </trkpt>
      <trkpt lat="42.7353970" lon="2.0855940">
        <ele>807.8</ele>
        <time>2020-07-22T09:23:35Z</time>
      </trkpt>
      <trkpt lat="42.7353040" lon="2.0855470">
        <ele>808.6</ele>
        <time>2020-07-22T09:23:39Z</time>
      </trkpt>
      <trkpt lat="42.7352350" lon="2.0854990">
        <ele>809.2</ele>
        <time>2020-07-22T09:23:42Z</time>
      </trkpt>
      <trkpt lat="42.7351870" lon="2.0854700">
        <ele>809.8</ele>
        <time>2020-07-22T09:23:44Z</time>
      </trkpt>
      <trkpt lat="42.7351000" lon="2.0853870">
        <ele>810.8</ele>
        <time>2020-07-22T09:23:49Z</time>
      </trkpt>
      <trkpt lat="42.7351130" lon="2.0853290">
        <ele>811.2</ele>
        <time>2020-07-22T09:23:53Z</time>
      </trkpt>
      <trkpt lat="42.7352540" lon="2.0852270">
        <ele>811.6</ele>
        <time>2020-07-22T09:24:07Z</time>
      </trkpt>
      <trkpt lat="42.7353040" lon="2.0852140">
        <ele>811.8</ele>
        <time>2020-07-22T09:24:09Z</time>
      </trkpt>
      <trkpt lat="42.7353320" lon="2.0852070">
        <ele>811.8</ele>
        <time>2020-07-22T09:24:10Z</time>
      </trkpt>
      <trkpt lat="42.7354710" lon="2.0852330">
        <ele>811.8</ele>
        <time>2020-07-22T09:24:14Z</time>
      </trkpt>
      <trkpt lat="42.7356480" lon="2.0853380">
        <ele>812.8</ele>
        <time>2020-07-22T09:24:19Z</time>
      </trkpt>
      <trkpt lat="42.7356800" lon="2.0853620">
        <ele>813.0</ele>
        <time>2020-07-22T09:24:20Z</time>
      </trkpt>
      <trkpt lat="42.7357720" lon="2.0854160">
        <ele>813.8</ele>
        <time>2020-07-22T09:24:23Z</time>
      </trkpt>
      <trkpt lat="42.7358740" lon="2.0854250">
        <ele>814.8</ele>
        <time>2020-07-22T09:24:26Z</time>
      </trkpt>
      <trkpt lat="42.7359110" lon="2.0854190">
        <ele>814.8</ele>
        <time>2020-07-22T09:24:27Z</time>
      </trkpt>
      <trkpt lat="42.7359460" lon="2.0854090">
        <ele>815.0</ele>
        <time>2020-07-22T09:24:28Z</time>
      </trkpt>
      <trkpt lat="42.7360800" lon="2.0853180">
        <ele>815.8</ele>
        <time>2020-07-22T09:24:32Z</time>
      </trkpt>
      <trkpt lat="42.7361110" lon="2.0852960">
        <ele>816.0</ele>
        <time>2020-07-22T09:24:33Z</time>
      </trkpt>
      <trkpt lat="42.7362750" lon="2.0852410">
        <ele>817.2</ele>
        <time>2020-07-22T09:24:38Z</time>
      </trkpt>
      <trkpt lat="42.7363070" lon="2.0852360">
        <ele>817.4</ele>
        <time>2020-07-22T09:24:39Z</time>
      </trkpt>
      <trkpt lat="42.7364630" lon="2.0852950">
        <ele>818.2</ele>
        <time>2020-07-22T09:24:44Z</time>
      </trkpt>
      <trkpt lat="42.7364920" lon="2.0853170">
        <ele>818.4</ele>
        <time>2020-07-22T09:24:45Z</time>
      </trkpt>
      <trkpt lat="42.7367010" lon="2.0854480">
        <ele>819.2</ele>
        <time>2020-07-22T09:24:51Z</time>
      </trkpt>
      <trkpt lat="42.7367930" lon="2.0854040">
        <ele>820.0</ele>
        <time>2020-07-22T09:24:54Z</time>
      </trkpt>
      <trkpt lat="42.7368110" lon="2.0853640">
        <ele>820.2</ele>
        <time>2020-07-22T09:24:55Z</time>
      </trkpt>
      <trkpt lat="42.7368140" lon="2.0853160">
        <ele>820.4</ele>
        <time>2020-07-22T09:24:56Z</time>
      </trkpt>
      <trkpt lat="42.7367750" lon="2.0852360">
        <ele>820.4</ele>
        <time>2020-07-22T09:24:58Z</time>
      </trkpt>
      <trkpt lat="42.7367460" lon="2.0852110">
        <ele>820.6</ele>
        <time>2020-07-22T09:24:59Z</time>
      </trkpt>
      <trkpt lat="42.7366420" lon="2.0851610">
        <ele>821.4</ele>
        <time>2020-07-22T09:25:02Z</time>
      </trkpt>
      <trkpt lat="42.7366080" lon="2.0851510">
        <ele>821.6</ele>
        <time>2020-07-22T09:25:03Z</time>
      </trkpt>
      <trkpt lat="42.7364150" lon="2.0850640">
        <ele>822.6</ele>
        <time>2020-07-22T09:25:09Z</time>
      </trkpt>
      <trkpt lat="42.7363530" lon="2.0850220">
        <ele>823.0</ele>
        <time>2020-07-22T09:25:11Z</time>
      </trkpt>
      <trkpt lat="42.7362670" lon="2.0849550">
        <ele>823.8</ele>
        <time>2020-07-22T09:25:14Z</time>
      </trkpt>
      <trkpt lat="42.7361080" lon="2.0848400">
        <ele>825.0</ele>
        <time>2020-07-22T09:25:20Z</time>
      </trkpt>
      <trkpt lat="42.7359890" lon="2.0847920">
        <ele>826.4</ele>
        <time>2020-07-22T09:25:24Z</time>
      </trkpt>
      <trkpt lat="42.7358920" lon="2.0847880">
        <ele>827.0</ele>
        <time>2020-07-22T09:25:27Z</time>
      </trkpt>
      <trkpt lat="42.7357470" lon="2.0847730">
        <ele>827.6</ele>
        <time>2020-07-22T09:25:31Z</time>
      </trkpt>
      <trkpt lat="42.7356400" lon="2.0847360">
        <ele>828.0</ele>
        <time>2020-07-22T09:25:34Z</time>
      </trkpt>
      <trkpt lat="42.7355670" lon="2.0847130">
        <ele>828.6</ele>
        <time>2020-07-22T09:25:36Z</time>
      </trkpt>
      <trkpt lat="42.7353680" lon="2.0846630">
        <ele>829.6</ele>
        <time>2020-07-22T09:25:42Z</time>
      </trkpt>
      <trkpt lat="42.7353350" lon="2.0846640">
        <ele>829.8</ele>
        <time>2020-07-22T09:25:43Z</time>
      </trkpt>
      <trkpt lat="42.7352420" lon="2.0846690">
        <ele>830.2</ele>
        <time>2020-07-22T09:25:46Z</time>
      </trkpt>
      <trkpt lat="42.7351790" lon="2.0846780">
        <ele>831.0</ele>
        <time>2020-07-22T09:25:48Z</time>
      </trkpt>
      <trkpt lat="42.7351460" lon="2.0846860">
        <ele>831.4</ele>
        <time>2020-07-22T09:25:49Z</time>
      </trkpt>
      <trkpt lat="42.7350820" lon="2.0847020">
        <ele>831.8</ele>
        <time>2020-07-22T09:25:51Z</time>
      </trkpt>
      <trkpt lat="42.7349870" lon="2.0847390">
        <ele>832.2</ele>
        <time>2020-07-22T09:25:54Z</time>
      </trkpt>
      <trkpt lat="42.7348580" lon="2.0848100">
        <ele>832.8</ele>
        <time>2020-07-22T09:25:58Z</time>
      </trkpt>
      <trkpt lat="42.7347570" lon="2.0848530">
        <ele>833.4</ele>
        <time>2020-07-22T09:26:01Z</time>
      </trkpt>
      <trkpt lat="42.7346910" lon="2.0848370">
        <ele>833.8</ele>
        <time>2020-07-22T09:26:03Z</time>
      </trkpt>
      <trkpt lat="42.7346680" lon="2.0848040">
        <ele>834.0</ele>
        <time>2020-07-22T09:26:04Z</time>
      </trkpt>
      <trkpt lat="42.7346570" lon="2.0847600">
        <ele>834.2</ele>
        <time>2020-07-22T09:26:05Z</time>
      </trkpt>
      <trkpt lat="42.7346620" lon="2.0847140">
        <ele>834.4</ele>
        <time>2020-07-22T09:26:06Z</time>
      </trkpt>
      <trkpt lat="42.7346800" lon="2.0846750">
        <ele>834.8</ele>
        <time>2020-07-22T09:26:07Z</time>
      </trkpt>
      <trkpt lat="42.7347360" lon="2.0846360">
        <ele>835.2</ele>
        <time>2020-07-22T09:26:09Z</time>
      </trkpt>
      <trkpt lat="42.7347700" lon="2.0846340">
        <ele>835.4</ele>
        <time>2020-07-22T09:26:10Z</time>
      </trkpt>
      <trkpt lat="42.7349750" lon="2.0846010">
        <ele>836.4</ele>
        <time>2020-07-22T09:26:16Z</time>
      </trkpt>
      <trkpt lat="42.7350090" lon="2.0845880">
        <ele>836.6</ele>
        <time>2020-07-22T09:26:17Z</time>
      </trkpt>
      <trkpt lat="42.7350410" lon="2.0845730">
        <ele>836.8</ele>
        <time>2020-07-22T09:26:18Z</time>
      </trkpt>
      <trkpt lat="42.7351960" lon="2.0845040">
        <ele>837.6</ele>
        <time>2020-07-22T09:26:23Z</time>
      </trkpt>
      <trkpt lat="42.7352970" lon="2.0844630">
        <ele>838.4</ele>
        <time>2020-07-22T09:26:26Z</time>
      </trkpt>
      <trkpt lat="42.7353300" lon="2.0844550">
        <ele>838.6</ele>
        <time>2020-07-22T09:26:27Z</time>
      </trkpt>
      <trkpt lat="42.7353590" lon="2.0844470">
        <ele>838.8</ele>
        <time>2020-07-22T09:26:28Z</time>
      </trkpt>
      <trkpt lat="42.7355180" lon="2.0844200">
        <ele>839.8</ele>
        <time>2020-07-22T09:26:33Z</time>
      </trkpt>
      <trkpt lat="42.7355530" lon="2.0844140">
        <ele>840.2</ele>
        <time>2020-07-22T09:26:34Z</time>
      </trkpt>
      <trkpt lat="42.7356950" lon="2.0844070">
        <ele>841.2</ele>
        <time>2020-07-22T09:26:38Z</time>
      </trkpt>
      <trkpt lat="42.7357990" lon="2.0844470">
        <ele>841.4</ele>
        <time>2020-07-22T09:26:41Z</time>
      </trkpt>
      <trkpt lat="42.7359720" lon="2.0844950">
        <ele>842.2</ele>
        <time>2020-07-22T09:26:46Z</time>
      </trkpt>
      <trkpt lat="42.7360040" lon="2.0844830">
        <ele>842.4</ele>
        <time>2020-07-22T09:26:47Z</time>
      </trkpt>
      <trkpt lat="42.7360290" lon="2.0844570">
        <ele>842.6</ele>
        <time>2020-07-22T09:26:48Z</time>
      </trkpt>
      <trkpt lat="42.7360480" lon="2.0843760">
        <ele>842.8</ele>
        <time>2020-07-22T09:26:50Z</time>
      </trkpt>
      <trkpt lat="42.7359890" lon="2.0842790">
        <ele>843.2</ele>
        <time>2020-07-22T09:26:53Z</time>
      </trkpt>
      <trkpt lat="42.7358460" lon="2.0842420">
        <ele>844.4</ele>
        <time>2020-07-22T09:26:57Z</time>
      </trkpt>
      <trkpt lat="42.7358070" lon="2.0842410">
        <ele>844.6</ele>
        <time>2020-07-22T09:26:58Z</time>
      </trkpt>
      <trkpt lat="42.7356550" lon="2.0842140">
        <ele>845.4</ele>
        <time>2020-07-22T09:27:02Z</time>
      </trkpt>
      <trkpt lat="42.7355040" lon="2.0841740">
        <ele>846.6</ele>
        <time>2020-07-22T09:27:06Z</time>
      </trkpt>
      <trkpt lat="42.7352830" lon="2.0841240">
        <ele>847.2</ele>
        <time>2020-07-22T09:27:12Z</time>
      </trkpt>
      <trkpt lat="42.7352120" lon="2.0841120">
        <ele>848.0</ele>
        <time>2020-07-22T09:27:14Z</time>
      </trkpt>
      <trkpt lat="42.7351790" lon="2.0841080">
        <ele>848.4</ele>
        <time>2020-07-22T09:27:15Z</time>
      </trkpt>
      <trkpt lat="42.7350060" lon="2.0841000">
        <ele>849.0</ele>
        <time>2020-07-22T09:27:20Z</time>
      </trkpt>
      <trkpt lat="42.7348620" lon="2.0840730">
        <ele>850.0</ele>
        <time>2020-07-22T09:27:24Z</time>
      </trkpt>
      <trkpt lat="42.7347130" lon="2.0840560">
        <ele>850.8</ele>
        <time>2020-07-22T09:27:28Z</time>
      </trkpt>
      <trkpt lat="42.7346720" lon="2.0840490">
        <ele>851.0</ele>
        <time>2020-07-22T09:27:29Z</time>
      </trkpt>
      <trkpt lat="42.7346320" lon="2.0840340">
        <ele>851.0</ele>
        <time>2020-07-22T09:27:30Z</time>
      </trkpt>
      <trkpt lat="42.7345970" lon="2.0840090">
        <ele>851.2</ele>
        <time>2020-07-22T09:27:31Z</time>
      </trkpt>
      <trkpt lat="42.7345280" lon="2.0839550">
        <ele>851.4</ele>
        <time>2020-07-22T09:27:33Z</time>
      </trkpt>
      <trkpt lat="42.7344850" lon="2.0838680">
        <ele>851.8</ele>
        <time>2020-07-22T09:27:35Z</time>
      </trkpt>
      <trkpt lat="42.7344690" lon="2.0838190">
        <ele>852.2</ele>
        <time>2020-07-22T09:27:36Z</time>
      </trkpt>
      <trkpt lat="42.7344170" lon="2.0835660">
        <ele>853.2</ele>
        <time>2020-07-22T09:27:41Z</time>
      </trkpt>
      <trkpt lat="42.7343660" lon="2.0833210">
        <ele>854.4</ele>
        <time>2020-07-22T09:27:46Z</time>
      </trkpt>
      <trkpt lat="42.7343210" lon="2.0832040">
        <ele>854.6</ele>
        <time>2020-07-22T09:27:49Z</time>
      </trkpt>
      <trkpt lat="42.7342670" lon="2.0830610">
        <ele>855.6</ele>
        <time>2020-07-22T09:27:53Z</time>
      </trkpt>
      <trkpt lat="42.7342310" lon="2.0829750">
        <ele>856.4</ele>
        <time>2020-07-22T09:27:55Z</time>
      </trkpt>
      <trkpt lat="42.7342190" lon="2.0829290">
        <ele>856.6</ele>
        <time>2020-07-22T09:27:56Z</time>
      </trkpt>
      <trkpt lat="42.7341350" lon="2.0827280">
        <ele>857.8</ele>
        <time>2020-07-22T09:28:01Z</time>
      </trkpt>
      <trkpt lat="42.7341040" lon="2.0826460">
        <ele>858.0</ele>
        <time>2020-07-22T09:28:03Z</time>
      </trkpt>
      <trkpt lat="42.7340620" lon="2.0825200">
        <ele>859.0</ele>
        <time>2020-07-22T09:28:06Z</time>
      </trkpt>
      <trkpt lat="42.7340110" lon="2.0824030">
        <ele>859.4</ele>
        <time>2020-07-22T09:28:09Z</time>
      </trkpt>
      <trkpt lat="42.7339940" lon="2.0823630">
        <ele>859.6</ele>
        <time>2020-07-22T09:28:10Z</time>
      </trkpt>
      <trkpt lat="42.7339760" lon="2.0823210">
        <ele>859.8</ele>
        <time>2020-07-22T09:28:11Z</time>
      </trkpt>
      <trkpt lat="42.7339570" lon="2.0822800">
        <ele>860.0</ele>
        <time>2020-07-22T09:28:12Z</time>
      </trkpt>
      <trkpt lat="42.7339380" lon="2.0822410">
        <ele>860.2</ele>
        <time>2020-07-22T09:28:13Z</time>
      </trkpt>
      <trkpt lat="42.7338460" lon="2.0820490">
        <ele>861.2</ele>
        <time>2020-07-22T09:28:18Z</time>
      </trkpt>
      <trkpt lat="42.7338090" lon="2.0819350">
        <ele>861.4</ele>
        <time>2020-07-22T09:28:21Z</time>
      </trkpt>
      <trkpt lat="42.7338270" lon="2.0817960">
        <ele>861.8</ele>
        <time>2020-07-22T09:28:24Z</time>
      </trkpt>
      <trkpt lat="42.7338560" lon="2.0817710">
        <ele>862.2</ele>
        <time>2020-07-22T09:28:25Z</time>
      </trkpt>
      <trkpt lat="42.7338870" lon="2.0817710">
        <ele>862.6</ele>
        <time>2020-07-22T09:28:26Z</time>
      </trkpt>
      <trkpt lat="42.7339420" lon="2.0818230">
        <ele>863.0</ele>
        <time>2020-07-22T09:28:28Z</time>
      </trkpt>
      <trkpt lat="42.7339630" lon="2.0818620">
        <ele>863.4</ele>
        <time>2020-07-22T09:28:29Z</time>
      </trkpt>
      <trkpt lat="42.7340780" lon="2.0820700">
        <ele>864.6</ele>
        <time>2020-07-22T09:28:34Z</time>
      </trkpt>
      <trkpt lat="42.7341030" lon="2.0821100">
        <ele>864.8</ele>
        <time>2020-07-22T09:28:35Z</time>
      </trkpt>
      <trkpt lat="42.7342360" lon="2.0822920">
        <ele>865.8</ele>
        <time>2020-07-22T09:28:40Z</time>
      </trkpt>
      <trkpt lat="42.7343120" lon="2.0824050">
        <ele>866.4</ele>
        <time>2020-07-22T09:28:43Z</time>
      </trkpt>
      <trkpt lat="42.7344120" lon="2.0825440">
        <ele>866.8</ele>
        <time>2020-07-22T09:28:47Z</time>
      </trkpt>
      <trkpt lat="42.7345080" lon="2.0826920">
        <ele>867.6</ele>
        <time>2020-07-22T09:28:51Z</time>
      </trkpt>
      <trkpt lat="42.7345290" lon="2.0827310">
        <ele>868.0</ele>
        <time>2020-07-22T09:28:52Z</time>
      </trkpt>
      <trkpt lat="42.7346480" lon="2.0829690">
        <ele>869.0</ele>
        <time>2020-07-22T09:28:58Z</time>
      </trkpt>
      <trkpt lat="42.7346630" lon="2.0830110">
        <ele>869.2</ele>
        <time>2020-07-22T09:28:59Z</time>
      </trkpt>
      <trkpt lat="42.7347130" lon="2.0831840">
        <ele>870.0</ele>
        <time>2020-07-22T09:29:03Z</time>
      </trkpt>
      <trkpt lat="42.7347710" lon="2.0833560">
        <ele>870.8</ele>
        <time>2020-07-22T09:29:07Z</time>
      </trkpt>
      <trkpt lat="42.7347880" lon="2.0834000">
        <ele>871.0</ele>
        <time>2020-07-22T09:29:08Z</time>
      </trkpt>
      <trkpt lat="42.7348060" lon="2.0834450">
        <ele>871.2</ele>
        <time>2020-07-22T09:29:09Z</time>
      </trkpt>
      <trkpt lat="42.7349420" lon="2.0836080">
        <ele>872.2</ele>
        <time>2020-07-22T09:29:14Z</time>
      </trkpt>
      <trkpt lat="42.7351330" lon="2.0836490">
        <ele>872.6</ele>
        <time>2020-07-22T09:29:19Z</time>
      </trkpt>
      <trkpt lat="42.7352500" lon="2.0836490">
        <ele>873.4</ele>
        <time>2020-07-22T09:29:22Z</time>
      </trkpt>
      <trkpt lat="42.7353900" lon="2.0836560">
        <ele>874.2</ele>
        <time>2020-07-22T09:29:26Z</time>
      </trkpt>
      <trkpt lat="42.7354240" lon="2.0836540">
        <ele>874.4</ele>
        <time>2020-07-22T09:29:27Z</time>
      </trkpt>
      <trkpt lat="42.7356310" lon="2.0836340">
        <ele>874.8</ele>
        <time>2020-07-22T09:29:33Z</time>
      </trkpt>
      <trkpt lat="42.7356690" lon="2.0836310">
        <ele>875.0</ele>
        <time>2020-07-22T09:29:34Z</time>
      </trkpt>
      <trkpt lat="42.7357500" lon="2.0836280">
        <ele>875.6</ele>
        <time>2020-07-22T09:29:36Z</time>
      </trkpt>
      <trkpt lat="42.7358660" lon="2.0836400">
        <ele>876.4</ele>
        <time>2020-07-22T09:29:39Z</time>
      </trkpt>
      <trkpt lat="42.7359050" lon="2.0836460">
        <ele>876.6</ele>
        <time>2020-07-22T09:29:40Z</time>
      </trkpt>
      <trkpt lat="42.7360240" lon="2.0836600">
        <ele>877.4</ele>
        <time>2020-07-22T09:29:43Z</time>
      </trkpt>
      <trkpt lat="42.7361390" lon="2.0836410">
        <ele>877.8</ele>
        <time>2020-07-22T09:29:46Z</time>
      </trkpt>
      <trkpt lat="42.7361960" lon="2.0835800">
        <ele>878.2</ele>
        <time>2020-07-22T09:29:48Z</time>
      </trkpt>
      <trkpt lat="42.7362040" lon="2.0835440">
        <ele>878.4</ele>
        <time>2020-07-22T09:29:49Z</time>
      </trkpt>
      <trkpt lat="42.7361740" lon="2.0834770">
        <ele>878.8</ele>
        <time>2020-07-22T09:29:51Z</time>
      </trkpt>
      <trkpt lat="42.7360400" lon="2.0834320">
        <ele>879.4</ele>
        <time>2020-07-22T09:29:55Z</time>
      </trkpt>
      <trkpt lat="42.7360050" lon="2.0834300">
        <ele>879.8</ele>
        <time>2020-07-22T09:29:56Z</time>
      </trkpt>
      <trkpt lat="42.7358580" lon="2.0834280">
        <ele>880.8</ele>
        <time>2020-07-22T09:30:00Z</time>
      </trkpt>
      <trkpt lat="42.7357140" lon="2.0834020">
        <ele>881.4</ele>
        <time>2020-07-22T09:30:04Z</time>
      </trkpt>
      <trkpt lat="42.7356450" lon="2.0833900">
        <ele>882.0</ele>
        <time>2020-07-22T09:30:06Z</time>
      </trkpt>
      <trkpt lat="42.7355150" lon="2.0833660">
        <ele>883.2</ele>
        <time>2020-07-22T09:30:10Z</time>
      </trkpt>
      <trkpt lat="42.7354590" lon="2.0833520">
        <ele>883.4</ele>
        <time>2020-07-22T09:30:12Z</time>
      </trkpt>
      <trkpt lat="42.7352700" lon="2.0833200">
        <ele>884.2</ele>
        <time>2020-07-22T09:30:18Z</time>
      </trkpt>
      <trkpt lat="42.7352380" lon="2.0833090">
        <ele>884.6</ele>
        <time>2020-07-22T09:30:19Z</time>
      </trkpt>
      <trkpt lat="42.7352070" lon="2.0832920">
        <ele>885.0</ele>
        <time>2020-07-22T09:30:20Z</time>
      </trkpt>
      <trkpt lat="42.7351310" lon="2.0832120">
        <ele>885.6</ele>
        <time>2020-07-22T09:30:23Z</time>
      </trkpt>
      <trkpt lat="42.7350930" lon="2.0831410">
        <ele>886.2</ele>
        <time>2020-07-22T09:30:25Z</time>
      </trkpt>
      <trkpt lat="42.7350600" lon="2.0830750">
        <ele>886.8</ele>
        <time>2020-07-22T09:30:27Z</time>
      </trkpt>
      <trkpt lat="42.7350480" lon="2.0829940">
        <ele>887.2</ele>
        <time>2020-07-22T09:30:29Z</time>
      </trkpt>
      <trkpt lat="42.7350420" lon="2.0829080">
        <ele>887.4</ele>
        <time>2020-07-22T09:30:31Z</time>
      </trkpt>
      <trkpt lat="42.7350300" lon="2.0827820">
        <ele>888.0</ele>
        <time>2020-07-22T09:30:34Z</time>
      </trkpt>
      <trkpt lat="42.7350090" lon="2.0825690">
        <ele>889.0</ele>
        <time>2020-07-22T09:30:39Z</time>
      </trkpt>
      <trkpt lat="42.7350010" lon="2.0824860">
        <ele>889.2</ele>
        <time>2020-07-22T09:30:41Z</time>
      </trkpt>
      <trkpt lat="42.7349810" lon="2.0823310">
        <ele>890.2</ele>
        <time>2020-07-22T09:30:45Z</time>
      </trkpt>
      <trkpt lat="42.7349680" lon="2.0821720">
        <ele>891.4</ele>
        <time>2020-07-22T09:30:49Z</time>
      </trkpt>
      <trkpt lat="42.7349210" lon="2.0819270">
        <ele>892.4</ele>
        <time>2020-07-22T09:30:55Z</time>
      </trkpt>
      <trkpt lat="42.7348960" lon="2.0818440">
        <ele>892.8</ele>
        <time>2020-07-22T09:30:57Z</time>
      </trkpt>
      <trkpt lat="42.7348640" lon="2.0817140">
        <ele>893.4</ele>
        <time>2020-07-22T09:31:00Z</time>
      </trkpt>
      <trkpt lat="42.7348230" lon="2.0815500">
        <ele>894.0</ele>
        <time>2020-07-22T09:31:04Z</time>
      </trkpt>
      <trkpt lat="42.7348000" lon="2.0814780">
        <ele>894.2</ele>
        <time>2020-07-22T09:31:06Z</time>
      </trkpt>
      <trkpt lat="42.7347900" lon="2.0814420">
        <ele>894.4</ele>
        <time>2020-07-22T09:31:07Z</time>
      </trkpt>
      <trkpt lat="42.7347540" lon="2.0813060">
        <ele>895.4</ele>
        <time>2020-07-22T09:31:11Z</time>
      </trkpt>
      <trkpt lat="42.7347440" lon="2.0812700">
        <ele>895.6</ele>
        <time>2020-07-22T09:31:12Z</time>
      </trkpt>
      <trkpt lat="42.7346770" lon="2.0810670">
        <ele>896.4</ele>
        <time>2020-07-22T09:31:18Z</time>
      </trkpt>
      <trkpt lat="42.7346660" lon="2.0810400">
        <ele>896.8</ele>
        <time>2020-07-22T09:31:19Z</time>
      </trkpt>
      <trkpt lat="42.7346410" lon="2.0809610">
        <ele>897.8</ele>
        <time>2020-07-22T09:31:22Z</time>
      </trkpt>
      <trkpt lat="42.7346140" lon="2.0808770">
        <ele>898.0</ele>
        <time>2020-07-22T09:31:25Z</time>
      </trkpt>
      <trkpt lat="42.7345390" lon="2.0806780">
        <ele>899.0</ele>
        <time>2020-07-22T09:31:31Z</time>
      </trkpt>
      <trkpt lat="42.7345250" lon="2.0806420">
        <ele>899.4</ele>
        <time>2020-07-22T09:31:32Z</time>
      </trkpt>
      <trkpt lat="42.7344690" lon="2.0804910">
        <ele>900.2</ele>
        <time>2020-07-22T09:31:36Z</time>
      </trkpt>
      <trkpt lat="42.7343870" lon="2.0802990">
        <ele>901.0</ele>
        <time>2020-07-22T09:31:41Z</time>
      </trkpt>
      <trkpt lat="42.7343600" lon="2.0802210">
        <ele>901.2</ele>
        <time>2020-07-22T09:31:43Z</time>
      </trkpt>
      <trkpt lat="42.7342950" lon="2.0800320">
        <ele>902.4</ele>
        <time>2020-07-22T09:31:48Z</time>
      </trkpt>
      <trkpt lat="42.7342690" lon="2.0799570">
        <ele>902.8</ele>
        <time>2020-07-22T09:31:50Z</time>
      </trkpt>
      <trkpt lat="42.7342440" lon="2.0798450">
        <ele>903.4</ele>
        <time>2020-07-22T09:31:53Z</time>
      </trkpt>
      <trkpt lat="42.7341950" lon="2.0796290">
        <ele>904.0</ele>
        <time>2020-07-22T09:31:58Z</time>
      </trkpt>
      <trkpt lat="42.7341650" lon="2.0794980">
        <ele>904.4</ele>
        <time>2020-07-22T09:32:01Z</time>
      </trkpt>
      <trkpt lat="42.7341150" lon="2.0793710">
        <ele>904.8</ele>
        <time>2020-07-22T09:32:04Z</time>
      </trkpt>
      <trkpt lat="42.7340930" lon="2.0793370">
        <ele>905.0</ele>
        <time>2020-07-22T09:32:05Z</time>
      </trkpt>
      <trkpt lat="42.7339510" lon="2.0791860">
        <ele>905.6</ele>
        <time>2020-07-22T09:32:10Z</time>
      </trkpt>
      <trkpt lat="42.7339200" lon="2.0791610">
        <ele>905.8</ele>
        <time>2020-07-22T09:32:11Z</time>
      </trkpt>
      <trkpt lat="42.7337490" lon="2.0790220">
        <ele>906.6</ele>
        <time>2020-07-22T09:32:17Z</time>
      </trkpt>
      <trkpt lat="42.7336840" lon="2.0789810">
        <ele>906.8</ele>
        <time>2020-07-22T09:32:19Z</time>
      </trkpt>
      <trkpt lat="42.7335220" lon="2.0788090">
        <ele>907.6</ele>
        <time>2020-07-22T09:32:25Z</time>
      </trkpt>
      <trkpt lat="42.7334970" lon="2.0787770">
        <ele>907.6</ele>
        <time>2020-07-22T09:32:26Z</time>
      </trkpt>
      <trkpt lat="42.7333700" lon="2.0785930">
        <ele>907.8</ele>
        <time>2020-07-22T09:32:31Z</time>
      </trkpt>
      <trkpt lat="42.7332680" lon="2.0784420">
        <ele>908.4</ele>
        <time>2020-07-22T09:32:35Z</time>
      </trkpt>
      <trkpt lat="42.7332200" lon="2.0783640">
        <ele>908.8</ele>
        <time>2020-07-22T09:32:37Z</time>
      </trkpt>
      <trkpt lat="42.7330980" lon="2.0781750">
        <ele>909.2</ele>
        <time>2020-07-22T09:32:42Z</time>
      </trkpt>
      <trkpt lat="42.7330520" lon="2.0780950">
        <ele>909.8</ele>
        <time>2020-07-22T09:32:44Z</time>
      </trkpt>
      <trkpt lat="42.7329150" lon="2.0778650">
        <ele>910.6</ele>
        <time>2020-07-22T09:32:50Z</time>
      </trkpt>
      <trkpt lat="42.7328950" lon="2.0778260">
        <ele>910.8</ele>
        <time>2020-07-22T09:32:51Z</time>
      </trkpt>
      <trkpt lat="42.7328750" lon="2.0777880">
        <ele>911.0</ele>
        <time>2020-07-22T09:32:52Z</time>
      </trkpt>
      <trkpt lat="42.7327420" lon="2.0775640">
        <ele>912.0</ele>
        <time>2020-07-22T09:32:58Z</time>
      </trkpt>
      <trkpt lat="42.7327210" lon="2.0775270">
        <ele>912.0</ele>
        <time>2020-07-22T09:32:59Z</time>
      </trkpt>
      <trkpt lat="42.7325930" lon="2.0773040">
        <ele>912.8</ele>
        <time>2020-07-22T09:33:05Z</time>
      </trkpt>
      <trkpt lat="42.7325740" lon="2.0772690">
        <ele>913.2</ele>
        <time>2020-07-22T09:33:06Z</time>
      </trkpt>
      <trkpt lat="42.7325550" lon="2.0772340">
        <ele>913.4</ele>
        <time>2020-07-22T09:33:07Z</time>
      </trkpt>
      <trkpt lat="42.7324950" lon="2.0771350">
        <ele>914.2</ele>
        <time>2020-07-22T09:35:05Z</time>
      </trkpt>
      <trkpt lat="42.7324980" lon="2.0771080">
        <ele>914.4</ele>
        <time>2020-07-22T09:35:06Z</time>
      </trkpt>
      <trkpt lat="42.7324850" lon="2.0770020">
        <ele>914.8</ele>
        <time>2020-07-22T09:35:09Z</time>
      </trkpt>
      <trkpt lat="42.7324230" lon="2.0767830">
        <ele>915.2</ele>
        <time>2020-07-22T09:35:14Z</time>
      </trkpt>
      <trkpt lat="42.7324010" lon="2.0766980">
        <ele>916.0</ele>
        <time>2020-07-22T09:35:16Z</time>
      </trkpt>
      <trkpt lat="42.7323930" lon="2.0766570">
        <ele>916.2</ele>
        <time>2020-07-22T09:35:17Z</time>
      </trkpt>
      <trkpt lat="42.7323770" lon="2.0765800">
        <ele>916.4</ele>
        <time>2020-07-22T09:35:19Z</time>
      </trkpt>
      <trkpt lat="42.7323180" lon="2.0763350">
        <ele>917.4</ele>
        <time>2020-07-22T09:35:25Z</time>
      </trkpt>
      <trkpt lat="42.7323080" lon="2.0762920">
        <ele>917.6</ele>
        <time>2020-07-22T09:35:26Z</time>
      </trkpt>
      <trkpt lat="42.7322850" lon="2.0762080">
        <ele>918.0</ele>
        <time>2020-07-22T09:35:28Z</time>
      </trkpt>
      <trkpt lat="42.7322640" lon="2.0761250">
        <ele>918.4</ele>
        <time>2020-07-22T09:35:30Z</time>
      </trkpt>
      <trkpt lat="42.7322530" lon="2.0760850">
        <ele>918.6</ele>
        <time>2020-07-22T09:35:31Z</time>
      </trkpt>
      <trkpt lat="42.7322110" lon="2.0759270">
        <ele>919.4</ele>
        <time>2020-07-22T09:35:35Z</time>
      </trkpt>
      <trkpt lat="42.7322010" lon="2.0758890">
        <ele>919.6</ele>
        <time>2020-07-22T09:35:36Z</time>
      </trkpt>
      <trkpt lat="42.7321350" lon="2.0756900">
        <ele>920.8</ele>
        <time>2020-07-22T09:35:41Z</time>
      </trkpt>
      <trkpt lat="42.7321210" lon="2.0756500">
        <ele>921.2</ele>
        <time>2020-07-22T09:35:42Z</time>
      </trkpt>
      <trkpt lat="42.7320300" lon="2.0754040">
        <ele>921.8</ele>
        <time>2020-07-22T09:35:48Z</time>
      </trkpt>
      <trkpt lat="42.7320140" lon="2.0753640">
        <ele>921.8</ele>
        <time>2020-07-22T09:35:49Z</time>
      </trkpt>
      <trkpt lat="42.7319840" lon="2.0752910">
        <ele>922.6</ele>
        <time>2020-07-22T09:35:51Z</time>
      </trkpt>
      <trkpt lat="42.7319700" lon="2.0752560">
        <ele>922.8</ele>
        <time>2020-07-22T09:35:52Z</time>
      </trkpt>
      <trkpt lat="42.7319580" lon="2.0752210">
        <ele>923.2</ele>
        <time>2020-07-22T09:35:53Z</time>
      </trkpt>
      <trkpt lat="42.7319160" lon="2.0751090">
        <ele>924.0</ele>
        <time>2020-07-22T09:35:56Z</time>
      </trkpt>
      <trkpt lat="42.7319030" lon="2.0750690">
        <ele>924.2</ele>
        <time>2020-07-22T09:35:57Z</time>
      </trkpt>
      <trkpt lat="42.7318750" lon="2.0749950">
        <ele>924.4</ele>
        <time>2020-07-22T09:35:59Z</time>
      </trkpt>
      <trkpt lat="42.7318350" lon="2.0748770">
        <ele>925.0</ele>
        <time>2020-07-22T09:36:02Z</time>
      </trkpt>
      <trkpt lat="42.7318080" lon="2.0748000">
        <ele>925.4</ele>
        <time>2020-07-22T09:36:04Z</time>
      </trkpt>
      <trkpt lat="42.7317590" lon="2.0746870">
        <ele>926.0</ele>
        <time>2020-07-22T09:36:07Z</time>
      </trkpt>
      <trkpt lat="42.7316940" lon="2.0745320">
        <ele>926.4</ele>
        <time>2020-07-22T09:36:11Z</time>
      </trkpt>
      <trkpt lat="42.7316780" lon="2.0744890">
        <ele>926.6</ele>
        <time>2020-07-22T09:36:12Z</time>
      </trkpt>
      <trkpt lat="42.7316160" lon="2.0743240">
        <ele>927.6</ele>
        <time>2020-07-22T09:36:16Z</time>
      </trkpt>
      <trkpt lat="42.7315670" lon="2.0742050">
        <ele>928.0</ele>
        <time>2020-07-22T09:36:19Z</time>
      </trkpt>
      <trkpt lat="42.7315150" lon="2.0740810">
        <ele>928.0</ele>
        <time>2020-07-22T09:36:22Z</time>
      </trkpt>
      <trkpt lat="42.7314660" lon="2.0739520">
        <ele>928.8</ele>
        <time>2020-07-22T09:36:25Z</time>
      </trkpt>
      <trkpt lat="42.7314340" lon="2.0738670">
        <ele>929.0</ele>
        <time>2020-07-22T09:36:27Z</time>
      </trkpt>
      <trkpt lat="42.7313660" lon="2.0736450">
        <ele>930.0</ele>
        <time>2020-07-22T09:36:32Z</time>
      </trkpt>
      <trkpt lat="42.7313190" lon="2.0734450">
        <ele>930.6</ele>
        <time>2020-07-22T09:36:36Z</time>
      </trkpt>
      <trkpt lat="42.7313020" lon="2.0733470">
        <ele>930.6</ele>
        <time>2020-07-22T09:36:38Z</time>
      </trkpt>
      <trkpt lat="42.7312850" lon="2.0732470">
        <ele>930.8</ele>
        <time>2020-07-22T09:36:40Z</time>
      </trkpt>
      <trkpt lat="42.7312770" lon="2.0731960">
        <ele>931.0</ele>
        <time>2020-07-22T09:36:41Z</time>
      </trkpt>
      <trkpt lat="42.7312590" lon="2.0730940">
        <ele>931.2</ele>
        <time>2020-07-22T09:36:43Z</time>
      </trkpt>
      <trkpt lat="42.7312370" lon="2.0729430">
        <ele>931.6</ele>
        <time>2020-07-22T09:36:46Z</time>
      </trkpt>
      <trkpt lat="42.7312210" lon="2.0727910">
        <ele>932.2</ele>
        <time>2020-07-22T09:36:49Z</time>
      </trkpt>
      <trkpt lat="42.7312120" lon="2.0727410">
        <ele>932.4</ele>
        <time>2020-07-22T09:36:50Z</time>
      </trkpt>
      <trkpt lat="42.7311930" lon="2.0725920">
        <ele>933.0</ele>
        <time>2020-07-22T09:36:53Z</time>
      </trkpt>
      <trkpt lat="42.7311730" lon="2.0724900">
        <ele>933.4</ele>
        <time>2020-07-22T09:36:55Z</time>
      </trkpt>
      <trkpt lat="42.7311470" lon="2.0723910">
        <ele>933.6</ele>
        <time>2020-07-22T09:36:57Z</time>
      </trkpt>
      <trkpt lat="42.7311110" lon="2.0722960">
        <ele>934.0</ele>
        <time>2020-07-22T09:36:59Z</time>
      </trkpt>
      <trkpt lat="42.7310450" lon="2.0721800">
        <ele>934.4</ele>
        <time>2020-07-22T09:37:02Z</time>
      </trkpt>
      <trkpt lat="42.7310210" lon="2.0721430">
        <ele>934.6</ele>
        <time>2020-07-22T09:37:03Z</time>
      </trkpt>
      <trkpt lat="42.7309730" lon="2.0720690">
        <ele>935.0</ele>
        <time>2020-07-22T09:37:05Z</time>
      </trkpt>
      <trkpt lat="42.7308930" lon="2.0719070">
        <ele>935.6</ele>
        <time>2020-07-22T09:37:09Z</time>
      </trkpt>
      <trkpt lat="42.7308410" lon="2.0717710">
        <ele>936.2</ele>
        <time>2020-07-22T09:37:12Z</time>
      </trkpt>
      <trkpt lat="42.7308120" lon="2.0716780">
        <ele>936.6</ele>
        <time>2020-07-22T09:37:14Z</time>
      </trkpt>
      <trkpt lat="42.7307640" lon="2.0714620">
        <ele>937.8</ele>
        <time>2020-07-22T09:37:19Z</time>
      </trkpt>
      <trkpt lat="42.7307620" lon="2.0714220">
        <ele>938.0</ele>
        <time>2020-07-22T09:37:20Z</time>
      </trkpt>
      <trkpt lat="42.7307450" lon="2.0712610">
        <ele>938.8</ele>
        <time>2020-07-22T09:37:24Z</time>
      </trkpt>
      <trkpt lat="42.7307270" lon="2.0711150">
        <ele>940.0</ele>
        <time>2020-07-22T09:37:28Z</time>
      </trkpt>
      <trkpt lat="42.7307210" lon="2.0710790">
        <ele>940.2</ele>
        <time>2020-07-22T09:37:29Z</time>
      </trkpt>
      <trkpt lat="42.7307160" lon="2.0710440">
        <ele>940.6</ele>
        <time>2020-07-22T09:37:30Z</time>
      </trkpt>
      <trkpt lat="42.7307110" lon="2.0710120">
        <ele>941.0</ele>
        <time>2020-07-22T09:37:31Z</time>
      </trkpt>
      <trkpt lat="42.7306870" lon="2.0708900">
        <ele>942.0</ele>
        <time>2020-07-22T09:37:35Z</time>
      </trkpt>
      <trkpt lat="42.7306550" lon="2.0707390">
        <ele>943.2</ele>
        <time>2020-07-22T09:37:40Z</time>
      </trkpt>
      <trkpt lat="42.7306430" lon="2.0706880">
        <ele>944.0</ele>
        <time>2020-07-22T09:37:42Z</time>
      </trkpt>
      <trkpt lat="42.7306340" lon="2.0706290">
        <ele>944.4</ele>
        <time>2020-07-22T09:37:44Z</time>
      </trkpt>
      <trkpt lat="42.7306090" lon="2.0705090">
        <ele>945.2</ele>
        <time>2020-07-22T09:37:48Z</time>
      </trkpt>
      <trkpt lat="42.7306020" lon="2.0704790">
        <ele>945.4</ele>
        <time>2020-07-22T09:37:49Z</time>
      </trkpt>
      <trkpt lat="42.7305540" lon="2.0703670">
        <ele>946.4</ele>
        <time>2020-07-22T09:37:53Z</time>
      </trkpt>
      <trkpt lat="42.7305410" lon="2.0703400">
        <ele>946.6</ele>
        <time>2020-07-22T09:37:54Z</time>
      </trkpt>
      <trkpt lat="42.7305100" lon="2.0702940">
        <ele>947.0</ele>
        <time>2020-07-22T09:37:56Z</time>
      </trkpt>
      <trkpt lat="42.7304580" lon="2.0702400">
        <ele>947.8</ele>
        <time>2020-07-22T09:37:59Z</time>
      </trkpt>
      <trkpt lat="42.7303930" lon="2.0702030">
        <ele>948.6</ele>
        <time>2020-07-22T09:38:02Z</time>
      </trkpt>
      <trkpt lat="42.7303710" lon="2.0701930">
        <ele>949.0</ele>
        <time>2020-07-22T09:38:03Z</time>
      </trkpt>
      <trkpt lat="42.7303270" lon="2.0701780">
        <ele>949.2</ele>
        <time>2020-07-22T09:38:05Z</time>
      </trkpt>
      <trkpt lat="42.7302390" lon="2.0701340">
        <ele>950.0</ele>
        <time>2020-07-22T09:38:09Z</time>
      </trkpt>
      <trkpt lat="42.7302150" lon="2.0701200">
        <ele>950.4</ele>
        <time>2020-07-22T09:38:10Z</time>
      </trkpt>
      <trkpt lat="42.7301720" lon="2.0700780">
        <ele>950.8</ele>
        <time>2020-07-22T09:38:12Z</time>
      </trkpt>
      <trkpt lat="42.7301410" lon="2.0700120">
        <ele>951.2</ele>
        <time>2020-07-22T09:38:14Z</time>
      </trkpt>
      <trkpt lat="42.7301330" lon="2.0699740">
        <ele>951.2</ele>
        <time>2020-07-22T09:38:15Z</time>
      </trkpt>
      <trkpt lat="42.7301520" lon="2.0697400">
        <ele>952.0</ele>
        <time>2020-07-22T09:38:21Z</time>
      </trkpt>
      <trkpt lat="42.7301670" lon="2.0697060">
        <ele>952.2</ele>
        <time>2020-07-22T09:38:22Z</time>
      </trkpt>
      <trkpt lat="42.7302520" lon="2.0695540">
        <ele>953.0</ele>
        <time>2020-07-22T09:38:27Z</time>
      </trkpt>
      <trkpt lat="42.7302670" lon="2.0695210">
        <ele>953.2</ele>
        <time>2020-07-22T09:38:28Z</time>
      </trkpt>
      <trkpt lat="42.7302980" lon="2.0694260">
        <ele>953.4</ele>
        <time>2020-07-22T09:38:31Z</time>
      </trkpt>
      <trkpt lat="42.7303130" lon="2.0693360">
        <ele>954.2</ele>
        <time>2020-07-22T09:38:34Z</time>
      </trkpt>
      <trkpt lat="42.7302920" lon="2.0692740">
        <ele>954.6</ele>
        <time>2020-07-22T09:38:36Z</time>
      </trkpt>
      <trkpt lat="42.7302290" lon="2.0691870">
        <ele>954.8</ele>
        <time>2020-07-22T09:38:39Z</time>
      </trkpt>
      <trkpt lat="42.7302010" lon="2.0691640">
        <ele>955.0</ele>
        <time>2020-07-22T09:38:40Z</time>
      </trkpt>
      <trkpt lat="42.7301430" lon="2.0691270">
        <ele>955.0</ele>
        <time>2020-07-22T09:38:42Z</time>
      </trkpt>
      <trkpt lat="42.7300540" lon="2.0691070">
        <ele>955.6</ele>
        <time>2020-07-22T09:38:45Z</time>
      </trkpt>
      <trkpt lat="42.7299130" lon="2.0691690">
        <ele>956.6</ele>
        <time>2020-07-22T09:38:50Z</time>
      </trkpt>
      <trkpt lat="42.7298960" lon="2.0692020">
        <ele>956.6</ele>
        <time>2020-07-22T09:38:51Z</time>
      </trkpt>
      <trkpt lat="42.7298420" lon="2.0693750">
        <ele>957.0</ele>
        <time>2020-07-22T09:38:55Z</time>
      </trkpt>
      <trkpt lat="42.7298010" lon="2.0695480">
        <ele>957.8</ele>
        <time>2020-07-22T09:38:59Z</time>
      </trkpt>
      <trkpt lat="42.7297580" lon="2.0697630">
        <ele>958.4</ele>
        <time>2020-07-22T09:39:04Z</time>
      </trkpt>
      <trkpt lat="42.7297360" lon="2.0698530">
        <ele>959.0</ele>
        <time>2020-07-22T09:39:06Z</time>
      </trkpt>
      <trkpt lat="42.7296620" lon="2.0700890">
        <ele>960.0</ele>
        <time>2020-07-22T09:39:11Z</time>
      </trkpt>
      <trkpt lat="42.7296420" lon="2.0701410">
        <ele>960.2</ele>
        <time>2020-07-22T09:39:12Z</time>
      </trkpt>
      <trkpt lat="42.7295180" lon="2.0704570">
        <ele>960.8</ele>
        <time>2020-07-22T09:39:18Z</time>
      </trkpt>
      <trkpt lat="42.7295020" lon="2.0705140">
        <ele>961.2</ele>
        <time>2020-07-22T09:39:19Z</time>
      </trkpt>
      <trkpt lat="42.7294870" lon="2.0705720">
        <ele>961.2</ele>
        <time>2020-07-22T09:39:20Z</time>
      </trkpt>
      <trkpt lat="42.7294510" lon="2.0707540">
        <ele>961.8</ele>
        <time>2020-07-22T09:39:23Z</time>
      </trkpt>
      <trkpt lat="42.7294250" lon="2.0709530">
        <ele>961.8</ele>
        <time>2020-07-22T09:39:26Z</time>
      </trkpt>
      <trkpt lat="42.7294160" lon="2.0710200">
        <ele>961.6</ele>
        <time>2020-07-22T09:39:27Z</time>
      </trkpt>
      <trkpt lat="42.7293940" lon="2.0712300">
        <ele>961.4</ele>
        <time>2020-07-22T09:39:30Z</time>
      </trkpt>
      <trkpt lat="42.7293310" lon="2.0716560">
        <ele>961.8</ele>
        <time>2020-07-22T09:39:36Z</time>
      </trkpt>
      <trkpt lat="42.7292220" lon="2.0720340">
        <ele>962.2</ele>
        <time>2020-07-22T09:39:42Z</time>
      </trkpt>
      <trkpt lat="42.7292020" lon="2.0720970">
        <ele>962.2</ele>
        <time>2020-07-22T09:39:43Z</time>
      </trkpt>
      <trkpt lat="42.7291850" lon="2.0721600">
        <ele>962.4</ele>
        <time>2020-07-22T09:39:44Z</time>
      </trkpt>
      <trkpt lat="42.7291120" lon="2.0724170">
        <ele>963.6</ele>
        <time>2020-07-22T09:39:48Z</time>
      </trkpt>
      <trkpt lat="42.7290770" lon="2.0725420">
        <ele>963.8</ele>
        <time>2020-07-22T09:39:50Z</time>
      </trkpt>
      <trkpt lat="42.7290070" lon="2.0727860">
        <ele>964.8</ele>
        <time>2020-07-22T09:39:54Z</time>
      </trkpt>
      <trkpt lat="42.7289340" lon="2.0730010">
        <ele>965.4</ele>
        <time>2020-07-22T09:39:58Z</time>
      </trkpt>
      <trkpt lat="42.7289060" lon="2.0731090">
        <ele>966.0</ele>
        <time>2020-07-22T09:40:00Z</time>
      </trkpt>
      <trkpt lat="42.7288620" lon="2.0732600">
        <ele>966.6</ele>
        <time>2020-07-22T09:40:03Z</time>
      </trkpt>
      <trkpt lat="42.7288260" lon="2.0733540">
        <ele>967.0</ele>
        <time>2020-07-22T09:40:05Z</time>
      </trkpt>
      <trkpt lat="42.7288060" lon="2.0733990">
        <ele>967.4</ele>
        <time>2020-07-22T09:40:06Z</time>
      </trkpt>
      <trkpt lat="42.7287260" lon="2.0735580">
        <ele>968.2</ele>
        <time>2020-07-22T09:40:10Z</time>
      </trkpt>
      <trkpt lat="42.7286670" lon="2.0736720">
        <ele>969.0</ele>
        <time>2020-07-22T09:40:13Z</time>
      </trkpt>
      <trkpt lat="42.7286450" lon="2.0737100">
        <ele>969.2</ele>
        <time>2020-07-22T09:40:14Z</time>
      </trkpt>
      <trkpt lat="42.7285640" lon="2.0738690">
        <ele>970.4</ele>
        <time>2020-07-22T09:40:18Z</time>
      </trkpt>
      <trkpt lat="42.7284650" lon="2.0740700">
        <ele>971.0</ele>
        <time>2020-07-22T09:40:23Z</time>
      </trkpt>
      <trkpt lat="42.7284220" lon="2.0741430">
        <ele>971.6</ele>
        <time>2020-07-22T09:40:25Z</time>
      </trkpt>
      <trkpt lat="42.7283160" lon="2.0743300">
        <ele>972.8</ele>
        <time>2020-07-22T09:40:30Z</time>
      </trkpt>
      <trkpt lat="42.7282950" lon="2.0743720">
        <ele>973.0</ele>
        <time>2020-07-22T09:40:31Z</time>
      </trkpt>
      <trkpt lat="42.7281600" lon="2.0746170">
        <ele>973.8</ele>
        <time>2020-07-22T09:40:37Z</time>
      </trkpt>
      <trkpt lat="42.7281050" lon="2.0746950">
        <ele>974.2</ele>
        <time>2020-07-22T09:40:39Z</time>
      </trkpt>
      <trkpt lat="42.7280720" lon="2.0747280">
        <ele>974.4</ele>
        <time>2020-07-22T09:40:40Z</time>
      </trkpt>
      <trkpt lat="42.7279930" lon="2.0747780">
        <ele>974.6</ele>
        <time>2020-07-22T09:40:42Z</time>
      </trkpt>
      <trkpt lat="42.7279460" lon="2.0747910">
        <ele>974.4</ele>
        <time>2020-07-22T09:40:43Z</time>
      </trkpt>
      <trkpt lat="42.7278960" lon="2.0747930">
        <ele>974.4</ele>
        <time>2020-07-22T09:40:44Z</time>
      </trkpt>
      <trkpt lat="42.7277480" lon="2.0747590">
        <ele>974.0</ele>
        <time>2020-07-22T09:40:47Z</time>
      </trkpt>
      <trkpt lat="42.7275920" lon="2.0747220">
        <ele>973.6</ele>
        <time>2020-07-22T09:40:50Z</time>
      </trkpt>
      <trkpt lat="42.7274890" lon="2.0747350">
        <ele>973.6</ele>
        <time>2020-07-22T09:40:52Z</time>
      </trkpt>
      <trkpt lat="42.7273470" lon="2.0748160">
        <ele>974.2</ele>
        <time>2020-07-22T09:40:55Z</time>
      </trkpt>
      <trkpt lat="42.7272670" lon="2.0749020">
        <ele>974.6</ele>
        <time>2020-07-22T09:40:57Z</time>
      </trkpt>
      <trkpt lat="42.7271840" lon="2.0749790">
        <ele>974.8</ele>
        <time>2020-07-22T09:40:59Z</time>
      </trkpt>
      <trkpt lat="42.7270950" lon="2.0750250">
        <ele>974.8</ele>
        <time>2020-07-22T09:41:01Z</time>
      </trkpt>
      <trkpt lat="42.7270510" lon="2.0750390">
        <ele>974.8</ele>
        <time>2020-07-22T09:41:02Z</time>
      </trkpt>
      <trkpt lat="42.7270080" lon="2.0750440">
        <ele>975.0</ele>
        <time>2020-07-22T09:41:03Z</time>
      </trkpt>
      <trkpt lat="42.7269400" lon="2.0749940">
        <ele>975.0</ele>
        <time>2020-07-22T09:41:05Z</time>
      </trkpt>
      <trkpt lat="42.7269300" lon="2.0749050">
        <ele>975.2</ele>
        <time>2020-07-22T09:41:07Z</time>
      </trkpt>
      <trkpt lat="42.7269500" lon="2.0748700">
        <ele>975.4</ele>
        <time>2020-07-22T09:41:08Z</time>
      </trkpt>
      <trkpt lat="42.7270330" lon="2.0747920">
        <ele>976.0</ele>
        <time>2020-07-22T09:41:11Z</time>
      </trkpt>
      <trkpt lat="42.7270970" lon="2.0747460">
        <ele>976.2</ele>
        <time>2020-07-22T09:41:13Z</time>
      </trkpt>
      <trkpt lat="42.7272650" lon="2.0746440">
        <ele>977.2</ele>
        <time>2020-07-22T09:41:18Z</time>
      </trkpt>
      <trkpt lat="42.7273620" lon="2.0745580">
        <ele>978.0</ele>
        <time>2020-07-22T09:41:21Z</time>
      </trkpt>
      <trkpt lat="42.7274360" lon="2.0745090">
        <ele>978.4</ele>
        <time>2020-07-22T09:41:23Z</time>
      </trkpt>
      <trkpt lat="42.7275990" lon="2.0744540">
        <ele>978.6</ele>
        <time>2020-07-22T09:41:27Z</time>
      </trkpt>
      <trkpt lat="42.7276850" lon="2.0744830">
        <ele>978.8</ele>
        <time>2020-07-22T09:41:29Z</time>
      </trkpt>
      <trkpt lat="42.7277670" lon="2.0745300">
        <ele>979.2</ele>
        <time>2020-07-22T09:41:31Z</time>
      </trkpt>
      <trkpt lat="42.7278460" lon="2.0745710">
        <ele>979.4</ele>
        <time>2020-07-22T09:41:33Z</time>
      </trkpt>
      <trkpt lat="42.7279610" lon="2.0745790">
        <ele>980.2</ele>
        <time>2020-07-22T09:41:36Z</time>
      </trkpt>
      <trkpt lat="42.7280400" lon="2.0745360">
        <ele>980.8</ele>
        <time>2020-07-22T09:41:38Z</time>
      </trkpt>
      <trkpt lat="42.7281110" lon="2.0744650">
        <ele>981.0</ele>
        <time>2020-07-22T09:41:40Z</time>
      </trkpt>
      <trkpt lat="42.7281420" lon="2.0744220">
        <ele>981.0</ele>
        <time>2020-07-22T09:41:41Z</time>
      </trkpt>
      <trkpt lat="42.7281670" lon="2.0743740">
        <ele>981.0</ele>
        <time>2020-07-22T09:41:42Z</time>
      </trkpt>
      <trkpt lat="42.7282460" lon="2.0741190">
        <ele>981.8</ele>
        <time>2020-07-22T09:41:47Z</time>
      </trkpt>
      <trkpt lat="42.7282540" lon="2.0740690">
        <ele>982.0</ele>
        <time>2020-07-22T09:41:48Z</time>
      </trkpt>
      <trkpt lat="42.7282540" lon="2.0738720">
        <ele>983.0</ele>
        <time>2020-07-22T09:41:52Z</time>
      </trkpt>
      <trkpt lat="42.7282460" lon="2.0737790">
        <ele>983.6</ele>
        <time>2020-07-22T09:41:54Z</time>
      </trkpt>
      <trkpt lat="42.7282460" lon="2.0736850">
        <ele>984.2</ele>
        <time>2020-07-22T09:41:56Z</time>
      </trkpt>
      <trkpt lat="42.7282620" lon="2.0734670">
        <ele>985.2</ele>
        <time>2020-07-22T09:42:01Z</time>
      </trkpt>
      <trkpt lat="42.7282660" lon="2.0734240">
        <ele>985.4</ele>
        <time>2020-07-22T09:42:02Z</time>
      </trkpt>
      <trkpt lat="42.7282830" lon="2.0732980">
        <ele>986.2</ele>
        <time>2020-07-22T09:42:05Z</time>
      </trkpt>
      <trkpt lat="42.7283070" lon="2.0730900">
        <ele>987.4</ele>
        <time>2020-07-22T09:42:10Z</time>
      </trkpt>
      <trkpt lat="42.7283150" lon="2.0730510">
        <ele>987.4</ele>
        <time>2020-07-22T09:42:11Z</time>
      </trkpt>
      <trkpt lat="42.7283420" lon="2.0728490">
        <ele>988.4</ele>
        <time>2020-07-22T09:42:16Z</time>
      </trkpt>
      <trkpt lat="42.7283640" lon="2.0726910">
        <ele>989.6</ele>
        <time>2020-07-22T09:42:20Z</time>
      </trkpt>
      <trkpt lat="42.7283920" lon="2.0724920">
        <ele>990.8</ele>
        <time>2020-07-22T09:42:25Z</time>
      </trkpt>
      <trkpt lat="42.7284100" lon="2.0723410">
        <ele>991.6</ele>
        <time>2020-07-22T09:42:29Z</time>
      </trkpt>
      <trkpt lat="42.7284180" lon="2.0722570">
        <ele>992.0</ele>
        <time>2020-07-22T09:42:31Z</time>
      </trkpt>
      <trkpt lat="42.7284300" lon="2.0720500">
        <ele>993.2</ele>
        <time>2020-07-22T09:42:36Z</time>
      </trkpt>
      <trkpt lat="42.7284330" lon="2.0719720">
        <ele>993.8</ele>
        <time>2020-07-22T09:42:38Z</time>
      </trkpt>
      <trkpt lat="42.7284330" lon="2.0718970">
        <ele>994.4</ele>
        <time>2020-07-22T09:42:40Z</time>
      </trkpt>
      <trkpt lat="42.7284360" lon="2.0717210">
        <ele>995.4</ele>
        <time>2020-07-22T09:42:45Z</time>
      </trkpt>
      <trkpt lat="42.7284380" lon="2.0716860">
        <ele>995.6</ele>
        <time>2020-07-22T09:42:46Z</time>
      </trkpt>
      <trkpt lat="42.7284310" lon="2.0715530">
        <ele>996.6</ele>
        <time>2020-07-22T09:42:50Z</time>
      </trkpt>
      <trkpt lat="42.7284370" lon="2.0714880">
        <ele>997.2</ele>
        <time>2020-07-22T09:42:52Z</time>
      </trkpt>
      <trkpt lat="42.7284450" lon="2.0714230">
        <ele>998.0</ele>
        <time>2020-07-22T09:42:54Z</time>
      </trkpt>
      <trkpt lat="42.7284510" lon="2.0712440">
        <ele>999.0</ele>
        <time>2020-07-22T09:42:59Z</time>
      </trkpt>
      <trkpt lat="42.7284460" lon="2.0711770">
        <ele>999.2</ele>
        <time>2020-07-22T09:43:01Z</time>
      </trkpt>
      <trkpt lat="42.7284420" lon="2.0710840">
        <ele>1000.0</ele>
        <time>2020-07-22T09:43:04Z</time>
      </trkpt>
      <trkpt lat="42.7284620" lon="2.0709610">
        <ele>1001.2</ele>
        <time>2020-07-22T09:43:08Z</time>
      </trkpt>
      <trkpt lat="42.7284700" lon="2.0707580">
        <ele>1002.2</ele>
        <time>2020-07-22T09:43:14Z</time>
      </trkpt>
      <trkpt lat="42.7284580" lon="2.0706480">
        <ele>1002.8</ele>
        <time>2020-07-22T09:43:17Z</time>
      </trkpt>
      <trkpt lat="42.7284520" lon="2.0705100">
        <ele>1003.4</ele>
        <time>2020-07-22T09:43:21Z</time>
      </trkpt>
      <trkpt lat="42.7284460" lon="2.0704090">
        <ele>1004.2</ele>
        <time>2020-07-22T09:43:24Z</time>
      </trkpt>
      <trkpt lat="42.7284450" lon="2.0703730">
        <ele>1004.4</ele>
        <time>2020-07-22T09:43:25Z</time>
      </trkpt>
      <trkpt lat="42.7284470" lon="2.0702250">
        <ele>1005.6</ele>
        <time>2020-07-22T09:43:29Z</time>
      </trkpt>
      <trkpt lat="42.7284380" lon="2.0700330">
        <ele>1006.6</ele>
        <time>2020-07-22T09:43:34Z</time>
      </trkpt>
      <trkpt lat="42.7284360" lon="2.0699960">
        <ele>1007.0</ele>
        <time>2020-07-22T09:43:35Z</time>
      </trkpt>
      <trkpt lat="42.7284600" lon="2.0698150">
        <ele>1008.2</ele>
        <time>2020-07-22T09:43:40Z</time>
      </trkpt>
      <trkpt lat="42.7284770" lon="2.0697400">
        <ele>1008.6</ele>
        <time>2020-07-22T09:43:42Z</time>
      </trkpt>
      <trkpt lat="42.7284960" lon="2.0696440">
        <ele>1009.2</ele>
        <time>2020-07-22T09:43:45Z</time>
      </trkpt>
      <trkpt lat="42.7285270" lon="2.0695190">
        <ele>1009.8</ele>
        <time>2020-07-22T09:43:49Z</time>
      </trkpt>
      <trkpt lat="42.7285420" lon="2.0694510">
        <ele>1010.4</ele>
        <time>2020-07-22T09:43:51Z</time>
      </trkpt>
      <trkpt lat="42.7285550" lon="2.0693430">
        <ele>1011.6</ele>
        <time>2020-07-22T09:43:54Z</time>
      </trkpt>
      <trkpt lat="42.7285660" lon="2.0692710">
        <ele>1011.8</ele>
        <time>2020-07-22T09:43:56Z</time>
      </trkpt>
      <trkpt lat="42.7285760" lon="2.0691650">
        <ele>1012.6</ele>
        <time>2020-07-22T09:43:59Z</time>
      </trkpt>
      <trkpt lat="42.7285790" lon="2.0689810">
        <ele>1014.0</ele>
        <time>2020-07-22T09:44:04Z</time>
      </trkpt>
      <trkpt lat="42.7285660" lon="2.0688000">
        <ele>1015.0</ele>
        <time>2020-07-22T09:44:09Z</time>
      </trkpt>
      <trkpt lat="42.7285600" lon="2.0686310">
        <ele>1015.8</ele>
        <time>2020-07-22T09:44:14Z</time>
      </trkpt>
      <trkpt lat="42.7285680" lon="2.0685720">
        <ele>1016.0</ele>
        <time>2020-07-22T09:44:17Z</time>
      </trkpt>
      <trkpt lat="42.7285680" lon="2.0685280">
        <ele>1016.4</ele>
        <time>2020-07-22T09:44:19Z</time>
      </trkpt>
      <trkpt lat="42.7285610" lon="2.0683980">
        <ele>1017.2</ele>
        <time>2020-07-22T09:44:23Z</time>
      </trkpt>
      <trkpt lat="42.7285560" lon="2.0683250">
        <ele>1017.6</ele>
        <time>2020-07-22T09:44:25Z</time>
      </trkpt>
      <trkpt lat="42.7285400" lon="2.0682040">
        <ele>1018.2</ele>
        <time>2020-07-22T09:44:28Z</time>
      </trkpt>
      <trkpt lat="42.7285230" lon="2.0680110">
        <ele>1019.2</ele>
        <time>2020-07-22T09:44:33Z</time>
      </trkpt>
      <trkpt lat="42.7285310" lon="2.0678020">
        <ele>1020.0</ele>
        <time>2020-07-22T09:44:39Z</time>
      </trkpt>
      <trkpt lat="42.7285280" lon="2.0677640">
        <ele>1020.2</ele>
        <time>2020-07-22T09:44:40Z</time>
      </trkpt>
      <trkpt lat="42.7285260" lon="2.0676910">
        <ele>1020.4</ele>
        <time>2020-07-22T09:44:42Z</time>
      </trkpt>
      <trkpt lat="42.7285340" lon="2.0675390">
        <ele>1021.6</ele>
        <time>2020-07-22T09:44:46Z</time>
      </trkpt>
      <trkpt lat="42.7285350" lon="2.0674990">
        <ele>1021.6</ele>
        <time>2020-07-22T09:44:47Z</time>
      </trkpt>
      <trkpt lat="42.7285400" lon="2.0672640">
        <ele>1023.0</ele>
        <time>2020-07-22T09:44:53Z</time>
      </trkpt>
      <trkpt lat="42.7285520" lon="2.0671640">
        <ele>1023.8</ele>
        <time>2020-07-22T09:44:56Z</time>
      </trkpt>
      <trkpt lat="42.7285570" lon="2.0671300">
        <ele>1024.0</ele>
        <time>2020-07-22T09:44:57Z</time>
      </trkpt>
      <trkpt lat="42.7285620" lon="2.0669630">
        <ele>1025.0</ele>
        <time>2020-07-22T09:45:02Z</time>
      </trkpt>
      <trkpt lat="42.7285540" lon="2.0668880">
        <ele>1025.6</ele>
        <time>2020-07-22T09:45:04Z</time>
      </trkpt>
      <trkpt lat="42.7285400" lon="2.0667740">
        <ele>1026.2</ele>
        <time>2020-07-22T09:45:07Z</time>
      </trkpt>
      <trkpt lat="42.7285320" lon="2.0666050">
        <ele>1027.4</ele>
        <time>2020-07-22T09:45:12Z</time>
      </trkpt>
      <trkpt lat="42.7285330" lon="2.0665720">
        <ele>1027.8</ele>
        <time>2020-07-22T09:45:13Z</time>
      </trkpt>
      <trkpt lat="42.7285380" lon="2.0664850">
        <ele>1028.4</ele>
        <time>2020-07-22T09:45:16Z</time>
      </trkpt>
      <trkpt lat="42.7285270" lon="2.0663620">
        <ele>1029.2</ele>
        <time>2020-07-22T09:45:20Z</time>
      </trkpt>
      <trkpt lat="42.7285240" lon="2.0663300">
        <ele>1029.4</ele>
        <time>2020-07-22T09:45:21Z</time>
      </trkpt>
      <trkpt lat="42.7285180" lon="2.0662970">
        <ele>1029.6</ele>
        <time>2020-07-22T09:45:22Z</time>
      </trkpt>
      <trkpt lat="42.7285060" lon="2.0662080">
        <ele>1030.4</ele>
        <time>2020-07-22T09:45:25Z</time>
      </trkpt>
      <trkpt lat="42.7285080" lon="2.0661780">
        <ele>1030.6</ele>
        <time>2020-07-22T09:45:26Z</time>
      </trkpt>
      <trkpt lat="42.7284980" lon="2.0660740">
        <ele>1031.0</ele>
        <time>2020-07-22T09:45:29Z</time>
      </trkpt>
      <trkpt lat="42.7284910" lon="2.0659720">
        <ele>1031.8</ele>
        <time>2020-07-22T09:45:32Z</time>
      </trkpt>
      <trkpt lat="42.7284960" lon="2.0658420">
        <ele>1033.0</ele>
        <time>2020-07-22T09:45:36Z</time>
      </trkpt>
      <trkpt lat="42.7284970" lon="2.0658090">
        <ele>1033.2</ele>
        <time>2020-07-22T09:45:37Z</time>
      </trkpt>
      <trkpt lat="42.7285150" lon="2.0656060">
        <ele>1034.0</ele>
        <time>2020-07-22T09:45:43Z</time>
      </trkpt>
      <trkpt lat="42.7285180" lon="2.0655720">
        <ele>1034.2</ele>
        <time>2020-07-22T09:45:44Z</time>
      </trkpt>
      <trkpt lat="42.7285250" lon="2.0654710">
        <ele>1034.8</ele>
        <time>2020-07-22T09:45:47Z</time>
      </trkpt>
      <trkpt lat="42.7285200" lon="2.0654010">
        <ele>1035.4</ele>
        <time>2020-07-22T09:45:49Z</time>
      </trkpt>
      <trkpt lat="42.7285230" lon="2.0653100">
        <ele>1036.0</ele>
        <time>2020-07-22T09:45:52Z</time>
      </trkpt>
      <trkpt lat="42.7285250" lon="2.0652790">
        <ele>1036.2</ele>
        <time>2020-07-22T09:45:53Z</time>
      </trkpt>
      <trkpt lat="42.7285240" lon="2.0652460">
        <ele>1036.4</ele>
        <time>2020-07-22T09:45:54Z</time>
      </trkpt>
      <trkpt lat="42.7285060" lon="2.0650400">
        <ele>1037.6</ele>
        <time>2020-07-22T09:46:00Z</time>
      </trkpt>
      <trkpt lat="42.7285200" lon="2.0648620">
        <ele>1038.8</ele>
        <time>2020-07-22T09:46:06Z</time>
      </trkpt>
      <trkpt lat="42.7285260" lon="2.0648280">
        <ele>1039.0</ele>
        <time>2020-07-22T09:46:07Z</time>
      </trkpt>
      <trkpt lat="42.7285430" lon="2.0647040">
        <ele>1039.8</ele>
        <time>2020-07-22T09:46:11Z</time>
      </trkpt>
      <trkpt lat="42.7285510" lon="2.0645810">
        <ele>1040.6</ele>
        <time>2020-07-22T09:46:15Z</time>
      </trkpt>
      <trkpt lat="42.7285540" lon="2.0645460">
        <ele>1040.8</ele>
        <time>2020-07-22T09:46:16Z</time>
      </trkpt>
      <trkpt lat="42.7285790" lon="2.0643510">
        <ele>1041.8</ele>
        <time>2020-07-22T09:46:22Z</time>
      </trkpt>
      <trkpt lat="42.7285820" lon="2.0643150">
        <ele>1042.0</ele>
        <time>2020-07-22T09:46:23Z</time>
      </trkpt>
      <trkpt lat="42.7285850" lon="2.0640940">
        <ele>1043.2</ele>
        <time>2020-07-22T09:46:29Z</time>
      </trkpt>
      <trkpt lat="42.7285880" lon="2.0640600">
        <ele>1043.4</ele>
        <time>2020-07-22T09:46:30Z</time>
      </trkpt>
      <trkpt lat="42.7285940" lon="2.0639500">
        <ele>1044.2</ele>
        <time>2020-07-22T09:46:33Z</time>
      </trkpt>
      <trkpt lat="42.7285950" lon="2.0637590">
        <ele>1045.2</ele>
        <time>2020-07-22T09:46:38Z</time>
      </trkpt>
      <trkpt lat="42.7286050" lon="2.0635360">
        <ele>1046.2</ele>
        <time>2020-07-22T09:46:44Z</time>
      </trkpt>
      <trkpt lat="42.7286120" lon="2.0635020">
        <ele>1046.4</ele>
        <time>2020-07-22T09:46:45Z</time>
      </trkpt>
      <trkpt lat="42.7286210" lon="2.0634310">
        <ele>1046.8</ele>
        <time>2020-07-22T09:46:47Z</time>
      </trkpt>
      <trkpt lat="42.7286480" lon="2.0632920">
        <ele>1047.6</ele>
        <time>2020-07-22T09:46:51Z</time>
      </trkpt>
      <trkpt lat="42.7286810" lon="2.0631660">
        <ele>1048.8</ele>
        <time>2020-07-22T09:46:55Z</time>
      </trkpt>
      <trkpt lat="42.7286950" lon="2.0631380">
        <ele>1049.0</ele>
        <time>2020-07-22T09:46:56Z</time>
      </trkpt>
      <trkpt lat="42.7287400" lon="2.0629740">
        <ele>1050.0</ele>
        <time>2020-07-22T09:47:01Z</time>
      </trkpt>
      <trkpt lat="42.7287580" lon="2.0628780">
        <ele>1050.8</ele>
        <time>2020-07-22T09:47:04Z</time>
      </trkpt>
      <trkpt lat="42.7287700" lon="2.0628140">
        <ele>1051.2</ele>
        <time>2020-07-22T09:47:06Z</time>
      </trkpt>
      <trkpt lat="42.7287950" lon="2.0626460">
        <ele>1052.4</ele>
        <time>2020-07-22T09:47:11Z</time>
      </trkpt>
      <trkpt lat="42.7288040" lon="2.0626110">
        <ele>1052.6</ele>
        <time>2020-07-22T09:47:12Z</time>
      </trkpt>
      <trkpt lat="42.7288270" lon="2.0623930">
        <ele>1053.4</ele>
        <time>2020-07-22T09:47:18Z</time>
      </trkpt>
      <trkpt lat="42.7288340" lon="2.0623210">
        <ele>1053.8</ele>
        <time>2020-07-22T09:47:20Z</time>
      </trkpt>
      <trkpt lat="42.7288480" lon="2.0622090">
        <ele>1054.4</ele>
        <time>2020-07-22T09:47:23Z</time>
      </trkpt>
      <trkpt lat="42.7288530" lon="2.0621690">
        <ele>1054.6</ele>
        <time>2020-07-22T09:47:24Z</time>
      </trkpt>
      <trkpt lat="42.7289030" lon="2.0619890">
        <ele>1055.8</ele>
        <time>2020-07-22T09:47:29Z</time>
      </trkpt>
      <trkpt lat="42.7289510" lon="2.0617870">
        <ele>1056.8</ele>
        <time>2020-07-22T09:47:35Z</time>
      </trkpt>
      <trkpt lat="42.7289700" lon="2.0617190">
        <ele>1057.2</ele>
        <time>2020-07-22T09:47:37Z</time>
      </trkpt>
      <trkpt lat="42.7289780" lon="2.0615720">
        <ele>1057.8</ele>
        <time>2020-07-22T09:47:41Z</time>
      </trkpt>
      <trkpt lat="42.7289870" lon="2.0614630">
        <ele>1058.8</ele>
        <time>2020-07-22T09:47:44Z</time>
      </trkpt>
      <trkpt lat="42.7289890" lon="2.0614250">
        <ele>1059.0</ele>
        <time>2020-07-22T09:47:45Z</time>
      </trkpt>
      <trkpt lat="42.7289960" lon="2.0612100">
        <ele>1060.0</ele>
        <time>2020-07-22T09:47:51Z</time>
      </trkpt>
      <trkpt lat="42.7290010" lon="2.0611350">
        <ele>1060.4</ele>
        <time>2020-07-22T09:47:53Z</time>
      </trkpt>
      <trkpt lat="42.7290260" lon="2.0609940">
        <ele>1061.2</ele>
        <time>2020-07-22T09:47:57Z</time>
      </trkpt>
      <trkpt lat="42.7290540" lon="2.0608250">
        <ele>1062.2</ele>
        <time>2020-07-22T09:48:02Z</time>
      </trkpt>
      <trkpt lat="42.7290610" lon="2.0607900">
        <ele>1062.4</ele>
        <time>2020-07-22T09:48:03Z</time>
      </trkpt>
      <trkpt lat="42.7290830" lon="2.0606650">
        <ele>1063.4</ele>
        <time>2020-07-22T09:48:07Z</time>
      </trkpt>
      <trkpt lat="42.7290920" lon="2.0606010">
        <ele>1063.8</ele>
        <time>2020-07-22T09:48:09Z</time>
      </trkpt>
      <trkpt lat="42.7290980" lon="2.0604620">
        <ele>1064.6</ele>
        <time>2020-07-22T09:48:13Z</time>
      </trkpt>
      <trkpt lat="42.7291130" lon="2.0603580">
        <ele>1065.4</ele>
        <time>2020-07-22T09:48:16Z</time>
      </trkpt>
      <trkpt lat="42.7291200" lon="2.0603220">
        <ele>1065.6</ele>
        <time>2020-07-22T09:48:17Z</time>
      </trkpt>
      <trkpt lat="42.7291620" lon="2.0601130">
        <ele>1066.8</ele>
        <time>2020-07-22T09:48:23Z</time>
      </trkpt>
      <trkpt lat="42.7291720" lon="2.0600820">
        <ele>1067.2</ele>
        <time>2020-07-22T09:48:24Z</time>
      </trkpt>
      <trkpt lat="42.7292070" lon="2.0599890">
        <ele>1067.8</ele>
        <time>2020-07-22T09:48:27Z</time>
      </trkpt>
      <trkpt lat="42.7292450" lon="2.0598520">
        <ele>1068.6</ele>
        <time>2020-07-22T09:48:31Z</time>
      </trkpt>
      <trkpt lat="42.7292550" lon="2.0598180">
        <ele>1069.0</ele>
        <time>2020-07-22T09:48:32Z</time>
      </trkpt>
      <trkpt lat="42.7292970" lon="2.0596900">
        <ele>1070.0</ele>
        <time>2020-07-22T09:48:36Z</time>
      </trkpt>
      <trkpt lat="42.7293220" lon="2.0596010">
        <ele>1070.6</ele>
        <time>2020-07-22T09:48:39Z</time>
      </trkpt>
      <trkpt lat="42.7293370" lon="2.0595370">
        <ele>1071.0</ele>
        <time>2020-07-22T09:48:41Z</time>
      </trkpt>
      <trkpt lat="42.7293450" lon="2.0593930">
        <ele>1072.2</ele>
        <time>2020-07-22T09:48:45Z</time>
      </trkpt>
      <trkpt lat="42.7293430" lon="2.0593210">
        <ele>1072.6</ele>
        <time>2020-07-22T09:48:47Z</time>
      </trkpt>
      <trkpt lat="42.7293530" lon="2.0592220">
        <ele>1073.2</ele>
        <time>2020-07-22T09:48:50Z</time>
      </trkpt>
      <trkpt lat="42.7293900" lon="2.0591060">
        <ele>1074.0</ele>
        <time>2020-07-22T09:48:54Z</time>
      </trkpt>
      <trkpt lat="42.7294200" lon="2.0590550">
        <ele>1074.4</ele>
        <time>2020-07-22T09:48:56Z</time>
      </trkpt>
      <trkpt lat="42.7295010" lon="2.0589230">
        <ele>1075.6</ele>
        <time>2020-07-22T09:49:01Z</time>
      </trkpt>
      <trkpt lat="42.7295120" lon="2.0588910">
        <ele>1075.8</ele>
        <time>2020-07-22T09:49:02Z</time>
      </trkpt>
      <trkpt lat="42.7295560" lon="2.0587630">
        <ele>1076.6</ele>
        <time>2020-07-22T09:49:06Z</time>
      </trkpt>
      <trkpt lat="42.7295720" lon="2.0586180">
        <ele>1077.6</ele>
        <time>2020-07-22T09:49:10Z</time>
      </trkpt>
      <trkpt lat="42.7295710" lon="2.0585450">
        <ele>1078.2</ele>
        <time>2020-07-22T09:49:12Z</time>
      </trkpt>
      <trkpt lat="42.7295690" lon="2.0584760">
        <ele>1078.8</ele>
        <time>2020-07-22T09:49:14Z</time>
      </trkpt>
      <trkpt lat="42.7295880" lon="2.0583550">
        <ele>1079.2</ele>
        <time>2020-07-22T09:49:18Z</time>
      </trkpt>
      <trkpt lat="42.7295930" lon="2.0582230">
        <ele>1079.8</ele>
        <time>2020-07-22T09:49:22Z</time>
      </trkpt>
      <trkpt lat="42.7295900" lon="2.0581440">
        <ele>1080.2</ele>
        <time>2020-07-22T09:49:24Z</time>
      </trkpt>
      <trkpt lat="42.7295880" lon="2.0580640">
        <ele>1081.0</ele>
        <time>2020-07-22T09:49:26Z</time>
      </trkpt>
      <trkpt lat="42.7296010" lon="2.0579240">
        <ele>1082.0</ele>
        <time>2020-07-22T09:49:30Z</time>
      </trkpt>
      <trkpt lat="42.7296160" lon="2.0578620">
        <ele>1082.6</ele>
        <time>2020-07-22T09:49:32Z</time>
      </trkpt>
      <trkpt lat="42.7296420" lon="2.0577640">
        <ele>1083.0</ele>
        <time>2020-07-22T09:49:35Z</time>
      </trkpt>
      <trkpt lat="42.7296710" lon="2.0576350">
        <ele>1084.2</ele>
        <time>2020-07-22T09:49:39Z</time>
      </trkpt>
      <trkpt lat="42.7296720" lon="2.0575990">
        <ele>1084.6</ele>
        <time>2020-07-22T09:49:40Z</time>
      </trkpt>
      <trkpt lat="42.7296680" lon="2.0574870">
        <ele>1085.4</ele>
        <time>2020-07-22T09:49:43Z</time>
      </trkpt>
      <trkpt lat="42.7296300" lon="2.0573390">
        <ele>1086.0</ele>
        <time>2020-07-22T09:49:47Z</time>
      </trkpt>
      <trkpt lat="42.7295990" lon="2.0572360">
        <ele>1086.4</ele>
        <time>2020-07-22T09:49:50Z</time>
      </trkpt>
      <trkpt lat="42.7295780" lon="2.0570980">
        <ele>1087.4</ele>
        <time>2020-07-22T09:49:54Z</time>
      </trkpt>
      <trkpt lat="42.7295680" lon="2.0568890">
        <ele>1088.4</ele>
        <time>2020-07-22T09:50:00Z</time>
      </trkpt>
      <trkpt lat="42.7295670" lon="2.0568560">
        <ele>1088.8</ele>
        <time>2020-07-22T09:50:01Z</time>
      </trkpt>
      <trkpt lat="42.7295700" lon="2.0567900">
        <ele>1089.2</ele>
        <time>2020-07-22T09:50:03Z</time>
      </trkpt>
      <trkpt lat="42.7295800" lon="2.0567270">
        <ele>1090.0</ele>
        <time>2020-07-22T09:50:05Z</time>
      </trkpt>
      <trkpt lat="42.7295900" lon="2.0565600">
        <ele>1091.0</ele>
        <time>2020-07-22T09:50:10Z</time>
      </trkpt>
      <trkpt lat="42.7295980" lon="2.0563950">
        <ele>1092.2</ele>
        <time>2020-07-22T09:50:15Z</time>
      </trkpt>
      <trkpt lat="42.7296020" lon="2.0562200">
        <ele>1093.4</ele>
        <time>2020-07-22T09:50:20Z</time>
      </trkpt>
      <trkpt lat="42.7295980" lon="2.0561840">
        <ele>1093.6</ele>
        <time>2020-07-22T09:50:21Z</time>
      </trkpt>
      <trkpt lat="42.7295720" lon="2.0560420">
        <ele>1094.4</ele>
        <time>2020-07-22T09:50:25Z</time>
      </trkpt>
      <trkpt lat="42.7295490" lon="2.0559120">
        <ele>1095.2</ele>
        <time>2020-07-22T09:50:29Z</time>
      </trkpt>
      <trkpt lat="42.7295600" lon="2.0558170">
        <ele>1095.4</ele>
        <time>2020-07-22T09:50:32Z</time>
      </trkpt>
      <trkpt lat="42.7295970" lon="2.0557630">
        <ele>1095.6</ele>
        <time>2020-07-22T09:50:34Z</time>
      </trkpt>
      <trkpt lat="42.7297680" lon="2.0556190">
        <ele>1095.2</ele>
        <time>2020-07-22T09:50:40Z</time>
      </trkpt>
      <trkpt lat="42.7297970" lon="2.0555900">
        <ele>1095.2</ele>
        <time>2020-07-22T09:50:41Z</time>
      </trkpt>
      <trkpt lat="42.7298700" lon="2.0554510">
        <ele>1095.6</ele>
        <time>2020-07-22T09:50:45Z</time>
      </trkpt>
      <trkpt lat="42.7298700" lon="2.0554150">
        <ele>1095.8</ele>
        <time>2020-07-22T09:50:46Z</time>
      </trkpt>
      <trkpt lat="42.7298430" lon="2.0553070">
        <ele>1096.6</ele>
        <time>2020-07-22T09:50:49Z</time>
      </trkpt>
      <trkpt lat="42.7298050" lon="2.0552250">
        <ele>1097.4</ele>
        <time>2020-07-22T09:50:52Z</time>
      </trkpt>
      <trkpt lat="42.7297660" lon="2.0551780">
        <ele>1098.0</ele>
        <time>2020-07-22T09:50:54Z</time>
      </trkpt>
      <trkpt lat="42.7297040" lon="2.0551000">
        <ele>1099.0</ele>
        <time>2020-07-22T09:50:57Z</time>
      </trkpt>
      <trkpt lat="42.7296820" lon="2.0550790">
        <ele>1099.2</ele>
        <time>2020-07-22T09:50:58Z</time>
      </trkpt>
      <trkpt lat="42.7296190" lon="2.0550230">
        <ele>1100.2</ele>
        <time>2020-07-22T09:51:01Z</time>
      </trkpt>
      <trkpt lat="42.7295380" lon="2.0549500">
        <ele>1101.0</ele>
        <time>2020-07-22T09:51:05Z</time>
      </trkpt>
      <trkpt lat="42.7294910" lon="2.0549140">
        <ele>1101.2</ele>
        <time>2020-07-22T09:51:07Z</time>
      </trkpt>
      <trkpt lat="42.7294240" lon="2.0548570">
        <ele>1101.4</ele>
        <time>2020-07-22T09:51:10Z</time>
      </trkpt>
      <trkpt lat="42.7293560" lon="2.0547600">
        <ele>1102.2</ele>
        <time>2020-07-22T09:51:14Z</time>
      </trkpt>
      <trkpt lat="42.7293450" lon="2.0547330">
        <ele>1102.6</ele>
        <time>2020-07-22T09:51:15Z</time>
      </trkpt>
      <trkpt lat="42.7293370" lon="2.0546200">
        <ele>1103.4</ele>
        <time>2020-07-22T09:51:19Z</time>
      </trkpt>
      <trkpt lat="42.7293340" lon="2.0545890">
        <ele>1103.6</ele>
        <time>2020-07-22T09:51:20Z</time>
      </trkpt>
      <trkpt lat="42.7293410" lon="2.0544540">
        <ele>1104.4</ele>
        <time>2020-07-22T09:51:25Z</time>
      </trkpt>
      <trkpt lat="42.7293400" lon="2.0544030">
        <ele>1104.6</ele>
        <time>2020-07-22T09:51:27Z</time>
      </trkpt>
      <trkpt lat="42.7293390" lon="2.0543140">
        <ele>1105.2</ele>
        <time>2020-07-22T09:51:30Z</time>
      </trkpt>
      <trkpt lat="42.7293400" lon="2.0542510">
        <ele>1105.8</ele>
        <time>2020-07-22T09:51:32Z</time>
      </trkpt>
      <trkpt lat="42.7293220" lon="2.0541130">
        <ele>1106.8</ele>
        <time>2020-07-22T09:51:36Z</time>
      </trkpt>
      <trkpt lat="42.7293210" lon="2.0540780">
        <ele>1107.0</ele>
        <time>2020-07-22T09:51:37Z</time>
      </trkpt>
      <trkpt lat="42.7293600" lon="2.0539750">
        <ele>1107.6</ele>
        <time>2020-07-22T09:51:41Z</time>
      </trkpt>
      <trkpt lat="42.7293820" lon="2.0539720">
        <ele>1107.8</ele>
        <time>2020-07-22T09:51:42Z</time>
      </trkpt>
      <trkpt lat="42.7294050" lon="2.0539850">
        <ele>1108.0</ele>
        <time>2020-07-22T09:51:43Z</time>
      </trkpt>
      <trkpt lat="42.7294280" lon="2.0540060">
        <ele>1108.2</ele>
        <time>2020-07-22T09:51:44Z</time>
      </trkpt>
      <trkpt lat="42.7294690" lon="2.0540590">
        <ele>1108.8</ele>
        <time>2020-07-22T09:51:46Z</time>
      </trkpt>
      <trkpt lat="42.7295030" lon="2.0541250">
        <ele>1109.4</ele>
        <time>2020-07-22T09:51:48Z</time>
      </trkpt>
      <trkpt lat="42.7295770" lon="2.0542870">
        <ele>1110.6</ele>
        <time>2020-07-22T09:51:53Z</time>
      </trkpt>
      <trkpt lat="42.7296780" lon="2.0544370">
        <ele>1111.6</ele>
        <time>2020-07-22T09:51:58Z</time>
      </trkpt>
      <trkpt lat="42.7297530" lon="2.0545270">
        <ele>1111.8</ele>
        <time>2020-07-22T09:52:01Z</time>
      </trkpt>
      <trkpt lat="42.7297770" lon="2.0545490">
        <ele>1112.0</ele>
        <time>2020-07-22T09:52:02Z</time>
      </trkpt>
      <trkpt lat="42.7298010" lon="2.0545680">
        <ele>1112.0</ele>
        <time>2020-07-22T09:52:03Z</time>
      </trkpt>
      <trkpt lat="42.7298730" lon="2.0546160">
        <ele>1112.8</ele>
        <time>2020-07-22T09:52:06Z</time>
      </trkpt>
      <trkpt lat="42.7298970" lon="2.0546250">
        <ele>1113.0</ele>
        <time>2020-07-22T09:52:07Z</time>
      </trkpt>
      <trkpt lat="42.7299420" lon="2.0546400">
        <ele>1113.8</ele>
        <time>2020-07-22T09:52:09Z</time>
      </trkpt>
      <trkpt lat="42.7299640" lon="2.0546470">
        <ele>1114.0</ele>
        <time>2020-07-22T09:52:10Z</time>
      </trkpt>
      <trkpt lat="42.7300500" lon="2.0546840">
        <ele>1115.0</ele>
        <time>2020-07-22T09:52:14Z</time>
      </trkpt>
      <trkpt lat="42.7300710" lon="2.0546990">
        <ele>1115.2</ele>
        <time>2020-07-22T09:52:15Z</time>
      </trkpt>
      <trkpt lat="42.7301300" lon="2.0547530">
        <ele>1116.2</ele>
        <time>2020-07-22T09:52:18Z</time>
      </trkpt>
      <trkpt lat="42.7302190" lon="2.0548020">
        <ele>1117.2</ele>
        <time>2020-07-22T09:52:22Z</time>
      </trkpt>
      <trkpt lat="42.7302430" lon="2.0548050">
        <ele>1117.4</ele>
        <time>2020-07-22T09:52:23Z</time>
      </trkpt>
      <trkpt lat="42.7303090" lon="2.0547990">
        <ele>1118.0</ele>
        <time>2020-07-22T09:52:26Z</time>
      </trkpt>
      <trkpt lat="42.7303470" lon="2.0547700">
        <ele>1118.6</ele>
        <time>2020-07-22T09:52:28Z</time>
      </trkpt>
      <trkpt lat="42.7304100" lon="2.0546760">
        <ele>1119.4</ele>
        <time>2020-07-22T09:52:32Z</time>
      </trkpt>
      <trkpt lat="42.7304120" lon="2.0546420">
        <ele>1119.8</ele>
        <time>2020-07-22T09:52:33Z</time>
      </trkpt>
      <trkpt lat="42.7303970" lon="2.0545340">
        <ele>1121.2</ele>
        <time>2020-07-22T09:52:36Z</time>
      </trkpt>
      <trkpt lat="42.7303690" lon="2.0544320">
        <ele>1121.8</ele>
        <time>2020-07-22T09:52:39Z</time>
      </trkpt>
      <trkpt lat="42.7303500" lon="2.0543740">
        <ele>1122.2</ele>
        <time>2020-07-22T09:52:41Z</time>
      </trkpt>
      <trkpt lat="42.7303200" lon="2.0542530">
        <ele>1123.0</ele>
        <time>2020-07-22T09:52:45Z</time>
      </trkpt>
      <trkpt lat="42.7303030" lon="2.0541870">
        <ele>1123.6</ele>
        <time>2020-07-22T09:52:47Z</time>
      </trkpt>
      <trkpt lat="42.7302820" lon="2.0541260">
        <ele>1124.0</ele>
        <time>2020-07-22T09:52:49Z</time>
      </trkpt>
      <trkpt lat="42.7302520" lon="2.0540380">
        <ele>1124.8</ele>
        <time>2020-07-22T09:52:52Z</time>
      </trkpt>
      <trkpt lat="42.7302080" lon="2.0539160">
        <ele>1125.4</ele>
        <time>2020-07-22T09:52:56Z</time>
      </trkpt>
      <trkpt lat="42.7301620" lon="2.0538040">
        <ele>1125.8</ele>
        <time>2020-07-22T09:53:00Z</time>
      </trkpt>
      <trkpt lat="42.7301050" lon="2.0536720">
        <ele>1127.0</ele>
        <time>2020-07-22T09:53:05Z</time>
      </trkpt>
      <trkpt lat="42.7300400" lon="2.0535190">
        <ele>1128.0</ele>
        <time>2020-07-22T09:53:10Z</time>
      </trkpt>
      <trkpt lat="42.7300270" lon="2.0534850">
        <ele>1128.2</ele>
        <time>2020-07-22T09:53:11Z</time>
      </trkpt>
      <trkpt lat="42.7299410" lon="2.0532530">
        <ele>1129.0</ele>
        <time>2020-07-22T09:53:17Z</time>
      </trkpt>
      <trkpt lat="42.7299240" lon="2.0532110">
        <ele>1129.0</ele>
        <time>2020-07-22T09:53:18Z</time>
      </trkpt>
      <trkpt lat="42.7298680" lon="2.0530450">
        <ele>1129.0</ele>
        <time>2020-07-22T09:53:22Z</time>
      </trkpt>
      <trkpt lat="42.7298570" lon="2.0530070">
        <ele>1129.2</ele>
        <time>2020-07-22T09:53:23Z</time>
      </trkpt>
      <trkpt lat="42.7298350" lon="2.0529410">
        <ele>1129.6</ele>
        <time>2020-07-22T09:53:25Z</time>
      </trkpt>
      <trkpt lat="42.7298180" lon="2.0528770">
        <ele>1130.4</ele>
        <time>2020-07-22T09:53:27Z</time>
      </trkpt>
      <trkpt lat="42.7297650" lon="2.0526820">
        <ele>1131.6</ele>
        <time>2020-07-22T09:53:33Z</time>
      </trkpt>
      <trkpt lat="42.7297580" lon="2.0526490">
        <ele>1132.0</ele>
        <time>2020-07-22T09:53:34Z</time>
      </trkpt>
      <trkpt lat="42.7297400" lon="2.0525600">
        <ele>1132.6</ele>
        <time>2020-07-22T09:53:37Z</time>
      </trkpt>
      <trkpt lat="42.7297260" lon="2.0524660">
        <ele>1133.2</ele>
        <time>2020-07-22T09:53:40Z</time>
      </trkpt>
      <trkpt lat="42.7297230" lon="2.0524360">
        <ele>1133.6</ele>
        <time>2020-07-22T09:53:41Z</time>
      </trkpt>
      <trkpt lat="42.7297170" lon="2.0524050">
        <ele>1133.8</ele>
        <time>2020-07-22T09:53:42Z</time>
      </trkpt>
      <trkpt lat="42.7296680" lon="2.0522230">
        <ele>1135.0</ele>
        <time>2020-07-22T09:53:48Z</time>
      </trkpt>
      <trkpt lat="42.7296580" lon="2.0521970">
        <ele>1135.2</ele>
        <time>2020-07-22T09:53:49Z</time>
      </trkpt>
      <trkpt lat="42.7296510" lon="2.0521700">
        <ele>1135.4</ele>
        <time>2020-07-22T09:53:50Z</time>
      </trkpt>
      <trkpt lat="42.7296000" lon="2.0520430">
        <ele>1136.2</ele>
        <time>2020-07-22T09:53:54Z</time>
      </trkpt>
      <trkpt lat="42.7295480" lon="2.0519440">
        <ele>1137.4</ele>
        <time>2020-07-22T09:53:57Z</time>
      </trkpt>
      <trkpt lat="42.7294950" lon="2.0518530">
        <ele>1137.8</ele>
        <time>2020-07-22T09:54:00Z</time>
      </trkpt>
      <trkpt lat="42.7294380" lon="2.0517690">
        <ele>1138.6</ele>
        <time>2020-07-22T09:54:03Z</time>
      </trkpt>
      <trkpt lat="42.7293750" lon="2.0516850">
        <ele>1139.2</ele>
        <time>2020-07-22T09:54:06Z</time>
      </trkpt>
      <trkpt lat="42.7292760" lon="2.0515610">
        <ele>1139.8</ele>
        <time>2020-07-22T09:54:10Z</time>
      </trkpt>
      <trkpt lat="42.7291870" lon="2.0514220">
        <ele>1140.2</ele>
        <time>2020-07-22T09:54:14Z</time>
      </trkpt>
      <trkpt lat="42.7290480" lon="2.0511720">
        <ele>1140.6</ele>
        <time>2020-07-22T09:54:20Z</time>
      </trkpt>
      <trkpt lat="42.7290020" lon="2.0510830">
        <ele>1140.8</ele>
        <time>2020-07-22T09:54:22Z</time>
      </trkpt>
      <trkpt lat="42.7289800" lon="2.0510390">
        <ele>1141.0</ele>
        <time>2020-07-22T09:54:23Z</time>
      </trkpt>
      <trkpt lat="42.7288460" lon="2.0507840">
        <ele>1141.6</ele>
        <time>2020-07-22T09:54:29Z</time>
      </trkpt>
      <trkpt lat="42.7288010" lon="2.0507010">
        <ele>1142.2</ele>
        <time>2020-07-22T09:54:31Z</time>
      </trkpt>
      <trkpt lat="42.7287240" lon="2.0505500">
        <ele>1142.6</ele>
        <time>2020-07-22T09:54:35Z</time>
      </trkpt>
      <trkpt lat="42.7286900" lon="2.0504800">
        <ele>1142.8</ele>
        <time>2020-07-22T09:54:37Z</time>
      </trkpt>
      <trkpt lat="42.7286120" lon="2.0503370">
        <ele>1143.2</ele>
        <time>2020-07-22T09:54:41Z</time>
      </trkpt>
      <trkpt lat="42.7285740" lon="2.0502640">
        <ele>1143.4</ele>
        <time>2020-07-22T09:54:43Z</time>
      </trkpt>
      <trkpt lat="42.7284810" lon="2.0500820">
        <ele>1144.4</ele>
        <time>2020-07-22T09:54:48Z</time>
      </trkpt>
      <trkpt lat="42.7284460" lon="2.0500120">
        <ele>1144.6</ele>
        <time>2020-07-22T09:54:50Z</time>
      </trkpt>
      <trkpt lat="42.7284270" lon="2.0499780">
        <ele>1144.8</ele>
        <time>2020-07-22T09:54:51Z</time>
      </trkpt>
      <trkpt lat="42.7283930" lon="2.0499090">
        <ele>1144.8</ele>
        <time>2020-07-22T09:54:53Z</time>
      </trkpt>
      <trkpt lat="42.7283580" lon="2.0498440">
        <ele>1145.2</ele>
        <time>2020-07-22T09:54:55Z</time>
      </trkpt>
      <trkpt lat="42.7283410" lon="2.0498140">
        <ele>1145.4</ele>
        <time>2020-07-22T09:54:56Z</time>
      </trkpt>
      <trkpt lat="42.7283000" lon="2.0497370">
        <ele>1145.8</ele>
        <time>2020-07-22T09:54:59Z</time>
      </trkpt>
      <trkpt lat="42.7282260" lon="2.0496060">
        <ele>1146.6</ele>
        <time>2020-07-22T09:55:04Z</time>
      </trkpt>
      <trkpt lat="42.7281820" lon="2.0495360">
        <ele>1147.4</ele>
        <time>2020-07-22T09:55:07Z</time>
      </trkpt>
      <trkpt lat="42.7281700" lon="2.0495150">
        <ele>1147.8</ele>
        <time>2020-07-22T09:55:08Z</time>
      </trkpt>
      <trkpt lat="42.7281090" lon="2.0494010">
        <ele>1148.8</ele>
        <time>2020-07-22T09:55:13Z</time>
      </trkpt>
      <trkpt lat="42.7280340" lon="2.0492750">
        <ele>1149.8</ele>
        <time>2020-07-22T09:55:19Z</time>
      </trkpt>
      <trkpt lat="42.7280240" lon="2.0492540">
        <ele>1149.8</ele>
        <time>2020-07-22T09:55:20Z</time>
      </trkpt>
      <trkpt lat="42.7280150" lon="2.0492370">
        <ele>1150.0</ele>
        <time>2020-07-22T09:55:21Z</time>
      </trkpt>
      <trkpt lat="42.7279890" lon="2.0491730">
        <ele>1150.8</ele>
        <time>2020-07-22T09:55:24Z</time>
      </trkpt>
      <trkpt lat="42.7279600" lon="2.0491180">
        <ele>1151.2</ele>
        <time>2020-07-22T09:55:27Z</time>
      </trkpt>
      <trkpt lat="42.7279250" lon="2.0490410">
        <ele>1152.0</ele>
        <time>2020-07-22T09:55:31Z</time>
      </trkpt>
      <trkpt lat="42.7278710" lon="2.0489210">
        <ele>1152.6</ele>
        <time>2020-07-22T09:55:37Z</time>
      </trkpt>
      <trkpt lat="42.7278560" lon="2.0488740">
        <ele>1153.0</ele>
        <time>2020-07-22T09:55:39Z</time>
      </trkpt>
      <trkpt lat="42.7278330" lon="2.0488010">
        <ele>1154.2</ele>
        <time>2020-07-22T09:55:42Z</time>
      </trkpt>
      <trkpt lat="42.7278230" lon="2.0487490">
        <ele>1154.4</ele>
        <time>2020-07-22T09:55:44Z</time>
      </trkpt>
      <trkpt lat="42.7277890" lon="2.0486080">
        <ele>1155.2</ele>
        <time>2020-07-22T09:55:49Z</time>
      </trkpt>
      <trkpt lat="42.7277810" lon="2.0485770">
        <ele>1155.6</ele>
        <time>2020-07-22T09:55:50Z</time>
      </trkpt>
      <trkpt lat="42.7277660" lon="2.0484850">
        <ele>1156.2</ele>
        <time>2020-07-22T09:55:53Z</time>
      </trkpt>
      <trkpt lat="42.7277600" lon="2.0484500">
        <ele>1156.4</ele>
        <time>2020-07-22T09:55:54Z</time>
      </trkpt>
      <trkpt lat="42.7277550" lon="2.0484180">
        <ele>1156.8</ele>
        <time>2020-07-22T09:55:55Z</time>
      </trkpt>
      <trkpt lat="42.7277400" lon="2.0483530">
        <ele>1157.2</ele>
        <time>2020-07-22T09:55:57Z</time>
      </trkpt>
      <trkpt lat="42.7277310" lon="2.0482900">
        <ele>1157.6</ele>
        <time>2020-07-22T09:55:59Z</time>
      </trkpt>
      <trkpt lat="42.7277060" lon="2.0481040">
        <ele>1158.6</ele>
        <time>2020-07-22T09:56:05Z</time>
      </trkpt>
      <trkpt lat="42.7276990" lon="2.0480730">
        <ele>1158.8</ele>
        <time>2020-07-22T09:56:06Z</time>
      </trkpt>
      <trkpt lat="42.7276680" lon="2.0478870">
        <ele>1159.8</ele>
        <time>2020-07-22T09:56:12Z</time>
      </trkpt>
      <trkpt lat="42.7276610" lon="2.0478550">
        <ele>1160.0</ele>
        <time>2020-07-22T09:56:13Z</time>
      </trkpt>
      <trkpt lat="42.7276370" lon="2.0477280">
        <ele>1161.0</ele>
        <time>2020-07-22T09:56:17Z</time>
      </trkpt>
      <trkpt lat="42.7276070" lon="2.0476360">
        <ele>1161.4</ele>
        <time>2020-07-22T09:56:20Z</time>
      </trkpt>
      <trkpt lat="42.7275740" lon="2.0475520">
        <ele>1162.0</ele>
        <time>2020-07-22T09:56:23Z</time>
      </trkpt>
      <trkpt lat="42.7275430" lon="2.0474770">
        <ele>1162.2</ele>
        <time>2020-07-22T09:56:26Z</time>
      </trkpt>
      <trkpt lat="42.7275130" lon="2.0474090">
        <ele>1162.8</ele>
        <time>2020-07-22T09:56:29Z</time>
      </trkpt>
      <trkpt lat="42.7275010" lon="2.0473880">
        <ele>1163.0</ele>
        <time>2020-07-22T09:56:30Z</time>
      </trkpt>
      <trkpt lat="42.7274240" lon="2.0472740">
        <ele>1164.4</ele>
        <time>2020-07-22T09:56:36Z</time>
      </trkpt>
      <trkpt lat="42.7274110" lon="2.0472570">
        <ele>1164.8</ele>
        <time>2020-07-22T09:56:37Z</time>
      </trkpt>
      <trkpt lat="42.7273750" lon="2.0472050">
        <ele>1165.6</ele>
        <time>2020-07-22T09:56:40Z</time>
      </trkpt>
      <trkpt lat="42.7273090" lon="2.0470790">
        <ele>1166.8</ele>
        <time>2020-07-22T09:56:46Z</time>
      </trkpt>
      <trkpt lat="42.7273390" lon="2.0469680">
        <ele>1167.8</ele>
        <time>2020-07-22T09:56:51Z</time>
      </trkpt>
      <trkpt lat="42.7273590" lon="2.0469640">
        <ele>1168.0</ele>
        <time>2020-07-22T09:56:52Z</time>
      </trkpt>
      <trkpt lat="42.7273790" lon="2.0469700">
        <ele>1168.4</ele>
        <time>2020-07-22T09:56:53Z</time>
      </trkpt>
      <trkpt lat="42.7274240" lon="2.0469850">
        <ele>1168.8</ele>
        <time>2020-07-22T09:56:55Z</time>
      </trkpt>
      <trkpt lat="42.7274500" lon="2.0469930">
        <ele>1169.0</ele>
        <time>2020-07-22T09:56:56Z</time>
      </trkpt>
      <trkpt lat="42.7275180" lon="2.0470280">
        <ele>1170.2</ele>
        <time>2020-07-22T09:56:59Z</time>
      </trkpt>
      <trkpt lat="42.7276110" lon="2.0470940">
        <ele>1171.4</ele>
        <time>2020-07-22T09:57:03Z</time>
      </trkpt>
      <trkpt lat="42.7277530" lon="2.0471790">
        <ele>1172.4</ele>
        <time>2020-07-22T09:57:09Z</time>
      </trkpt>
      <trkpt lat="42.7277750" lon="2.0471950">
        <ele>1172.8</ele>
        <time>2020-07-22T09:57:10Z</time>
      </trkpt>
      <trkpt lat="42.7278960" lon="2.0472710">
        <ele>1173.8</ele>
        <time>2020-07-22T09:57:16Z</time>
      </trkpt>
      <trkpt lat="42.7279170" lon="2.0472740">
        <ele>1173.8</ele>
        <time>2020-07-22T09:57:17Z</time>
      </trkpt>
      <trkpt lat="42.7279380" lon="2.0472690">
        <ele>1174.2</ele>
        <time>2020-07-22T09:57:18Z</time>
      </trkpt>
      <trkpt lat="42.7279770" lon="2.0472450">
        <ele>1174.6</ele>
        <time>2020-07-22T09:57:20Z</time>
      </trkpt>
      <trkpt lat="42.7279900" lon="2.0472220">
        <ele>1174.8</ele>
        <time>2020-07-22T09:57:21Z</time>
      </trkpt>
      <trkpt lat="42.7279970" lon="2.0471710">
        <ele>1175.4</ele>
        <time>2020-07-22T09:57:23Z</time>
      </trkpt>
      <trkpt lat="42.7279140" lon="2.0470550">
        <ele>1175.8</ele>
        <time>2020-07-22T09:57:28Z</time>
      </trkpt>
      <trkpt lat="42.7278940" lon="2.0470310">
        <ele>1176.0</ele>
        <time>2020-07-22T09:57:29Z</time>
      </trkpt>
      <trkpt lat="42.7277800" lon="2.0469290">
        <ele>1177.2</ele>
        <time>2020-07-22T09:57:34Z</time>
      </trkpt>
      <trkpt lat="42.7277600" lon="2.0469080">
        <ele>1177.4</ele>
        <time>2020-07-22T09:57:35Z</time>
      </trkpt>
      <trkpt lat="42.7276340" lon="2.0467940">
        <ele>1178.6</ele>
        <time>2020-07-22T09:57:41Z</time>
      </trkpt>
      <trkpt lat="42.7275750" lon="2.0467460">
        <ele>1179.0</ele>
        <time>2020-07-22T09:57:44Z</time>
      </trkpt>
      <trkpt lat="42.7275140" lon="2.0467120">
        <ele>1179.6</ele>
        <time>2020-07-22T09:57:47Z</time>
      </trkpt>
      <trkpt lat="42.7274390" lon="2.0466490">
        <ele>1180.4</ele>
        <time>2020-07-22T09:57:51Z</time>
      </trkpt>
      <trkpt lat="42.7274210" lon="2.0466310">
        <ele>1180.8</ele>
        <time>2020-07-22T09:57:52Z</time>
      </trkpt>
      <trkpt lat="42.7273250" lon="2.0465520">
        <ele>1181.8</ele>
        <time>2020-07-22T09:57:57Z</time>
      </trkpt>
      <trkpt lat="42.7272860" lon="2.0465240">
        <ele>1182.4</ele>
        <time>2020-07-22T09:57:59Z</time>
      </trkpt>
      <trkpt lat="42.7272320" lon="2.0464720">
        <ele>1182.8</ele>
        <time>2020-07-22T09:58:02Z</time>
      </trkpt>
      <trkpt lat="42.7271480" lon="2.0463710">
        <ele>1184.0</ele>
        <time>2020-07-22T09:58:07Z</time>
      </trkpt>
      <trkpt lat="42.7271330" lon="2.0463490">
        <ele>1184.2</ele>
        <time>2020-07-22T09:58:08Z</time>
      </trkpt>
      <trkpt lat="42.7270610" lon="2.0462360">
        <ele>1185.2</ele>
        <time>2020-07-22T09:58:13Z</time>
      </trkpt>
      <trkpt lat="42.7270210" lon="2.0461710">
        <ele>1185.8</ele>
        <time>2020-07-22T09:58:16Z</time>
      </trkpt>
      <trkpt lat="42.7269950" lon="2.0461290">
        <ele>1186.2</ele>
        <time>2020-07-22T09:58:18Z</time>
      </trkpt>
      <trkpt lat="42.7269460" lon="2.0460320">
        <ele>1187.2</ele>
        <time>2020-07-22T09:58:22Z</time>
      </trkpt>
      <trkpt lat="42.7268930" lon="2.0459350">
        <ele>1188.0</ele>
        <time>2020-07-22T09:58:26Z</time>
      </trkpt>
      <trkpt lat="42.7268660" lon="2.0458830">
        <ele>1188.6</ele>
        <time>2020-07-22T09:58:28Z</time>
      </trkpt>
      <trkpt lat="42.7268180" lon="2.0457830">
        <ele>1189.8</ele>
        <time>2020-07-22T09:58:32Z</time>
      </trkpt>
      <trkpt lat="42.7267620" lon="2.0456880">
        <ele>1190.4</ele>
        <time>2020-07-22T09:58:36Z</time>
      </trkpt>
      <trkpt lat="42.7267350" lon="2.0456340">
        <ele>1190.8</ele>
        <time>2020-07-22T09:58:38Z</time>
      </trkpt>
      <trkpt lat="42.7266840" lon="2.0455290">
        <ele>1192.0</ele>
        <time>2020-07-22T09:58:42Z</time>
      </trkpt>
      <trkpt lat="42.7266580" lon="2.0454790">
        <ele>1192.2</ele>
        <time>2020-07-22T09:58:44Z</time>
      </trkpt>
      <trkpt lat="42.7266160" lon="2.0453790">
        <ele>1193.2</ele>
        <time>2020-07-22T09:58:48Z</time>
      </trkpt>
      <trkpt lat="42.7265960" lon="2.0453320">
        <ele>1193.8</ele>
        <time>2020-07-22T09:58:50Z</time>
      </trkpt>
      <trkpt lat="42.7265760" lon="2.0452820">
        <ele>1194.4</ele>
        <time>2020-07-22T09:58:52Z</time>
      </trkpt>
      <trkpt lat="42.7265270" lon="2.0451600">
        <ele>1195.4</ele>
        <time>2020-07-22T09:58:57Z</time>
      </trkpt>
      <trkpt lat="42.7265200" lon="2.0451390">
        <ele>1195.6</ele>
        <time>2020-07-22T09:58:58Z</time>
      </trkpt>
      <trkpt lat="42.7264600" lon="2.0450100">
        <ele>1196.6</ele>
        <time>2020-07-22T09:59:04Z</time>
      </trkpt>
      <trkpt lat="42.7264460" lon="2.0449600">
        <ele>1197.0</ele>
        <time>2020-07-22T09:59:06Z</time>
      </trkpt>
      <trkpt lat="42.7264180" lon="2.0448890">
        <ele>1197.6</ele>
        <time>2020-07-22T09:59:09Z</time>
      </trkpt>
      <trkpt lat="42.7263880" lon="2.0448200">
        <ele>1198.2</ele>
        <time>2020-07-22T09:59:12Z</time>
      </trkpt>
      <trkpt lat="42.7263820" lon="2.0447960">
        <ele>1198.6</ele>
        <time>2020-07-22T09:59:13Z</time>
      </trkpt>
      <trkpt lat="42.7263740" lon="2.0447710">
        <ele>1198.8</ele>
        <time>2020-07-22T09:59:14Z</time>
      </trkpt>
      <trkpt lat="42.7263240" lon="2.0446600">
        <ele>1199.8</ele>
        <time>2020-07-22T09:59:19Z</time>
      </trkpt>
      <trkpt lat="42.7263180" lon="2.0446370">
        <ele>1200.0</ele>
        <time>2020-07-22T09:59:20Z</time>
      </trkpt>
      <trkpt lat="42.7262600" lon="2.0444880">
        <ele>1201.2</ele>
        <time>2020-07-22T09:59:26Z</time>
      </trkpt>
      <trkpt lat="42.7261970" lon="2.0443730">
        <ele>1202.4</ele>
        <time>2020-07-22T09:59:31Z</time>
      </trkpt>
      <trkpt lat="42.7261640" lon="2.0443020">
        <ele>1203.0</ele>
        <time>2020-07-22T09:59:34Z</time>
      </trkpt>
      <trkpt lat="42.7261350" lon="2.0442520">
        <ele>1203.6</ele>
        <time>2020-07-22T09:59:36Z</time>
      </trkpt>
      <trkpt lat="42.7260900" lon="2.0441190">
        <ele>1204.8</ele>
        <time>2020-07-22T09:59:41Z</time>
      </trkpt>
      <trkpt lat="42.7260730" lon="2.0440340">
        <ele>1205.4</ele>
        <time>2020-07-22T09:59:44Z</time>
      </trkpt>
      <trkpt lat="42.7260610" lon="2.0439780">
        <ele>1205.8</ele>
        <time>2020-07-22T09:59:46Z</time>
      </trkpt>
      <trkpt lat="42.7260330" lon="2.0438410">
        <ele>1206.6</ele>
        <time>2020-07-22T09:59:51Z</time>
      </trkpt>
      <trkpt lat="42.7260230" lon="2.0437820">
        <ele>1207.0</ele>
        <time>2020-07-22T09:59:53Z</time>
      </trkpt>
      <trkpt lat="42.7259970" lon="2.0436420">
        <ele>1208.0</ele>
        <time>2020-07-22T09:59:58Z</time>
      </trkpt>
      <trkpt lat="42.7259860" lon="2.0435880">
        <ele>1208.4</ele>
        <time>2020-07-22T10:00:00Z</time>
      </trkpt>
      <trkpt lat="42.7259620" lon="2.0434710">
        <ele>1209.2</ele>
        <time>2020-07-22T10:00:04Z</time>
      </trkpt>
      <trkpt lat="42.7259470" lon="2.0433920">
        <ele>1209.8</ele>
        <time>2020-07-22T10:00:07Z</time>
      </trkpt>
      <trkpt lat="42.7259210" lon="2.0433170">
        <ele>1210.2</ele>
        <time>2020-07-22T10:00:10Z</time>
      </trkpt>
      <trkpt lat="42.7258920" lon="2.0432140">
        <ele>1211.2</ele>
        <time>2020-07-22T10:00:14Z</time>
      </trkpt>
      <trkpt lat="42.7258710" lon="2.0431660">
        <ele>1211.6</ele>
        <time>2020-07-22T10:00:16Z</time>
      </trkpt>
      <trkpt lat="42.7258220" lon="2.0430650">
        <ele>1212.6</ele>
        <time>2020-07-22T10:00:20Z</time>
      </trkpt>
      <trkpt lat="42.7257720" lon="2.0429630">
        <ele>1213.8</ele>
        <time>2020-07-22T10:00:24Z</time>
      </trkpt>
      <trkpt lat="42.7257270" lon="2.0428260">
        <ele>1214.8</ele>
        <time>2020-07-22T10:00:29Z</time>
      </trkpt>
      <trkpt lat="42.7257020" lon="2.0427150">
        <ele>1215.8</ele>
        <time>2020-07-22T10:00:33Z</time>
      </trkpt>
      <trkpt lat="42.7256940" lon="2.0426900">
        <ele>1216.0</ele>
        <time>2020-07-22T10:00:34Z</time>
      </trkpt>
      <trkpt lat="42.7256720" lon="2.0425580">
        <ele>1217.2</ele>
        <time>2020-07-22T10:00:39Z</time>
      </trkpt>
      <trkpt lat="42.7256530" lon="2.0424190">
        <ele>1218.0</ele>
        <time>2020-07-22T10:00:44Z</time>
      </trkpt>
      <trkpt lat="42.7256480" lon="2.0423900">
        <ele>1218.2</ele>
        <time>2020-07-22T10:00:45Z</time>
      </trkpt>
      <trkpt lat="42.7256350" lon="2.0422430">
        <ele>1219.4</ele>
        <time>2020-07-22T10:00:50Z</time>
      </trkpt>
      <trkpt lat="42.7256300" lon="2.0422130">
        <ele>1219.6</ele>
        <time>2020-07-22T10:00:51Z</time>
      </trkpt>
      <trkpt lat="42.7256040" lon="2.0420920">
        <ele>1220.6</ele>
        <time>2020-07-22T10:00:55Z</time>
      </trkpt>
      <trkpt lat="42.7255840" lon="2.0420040">
        <ele>1221.6</ele>
        <time>2020-07-22T10:00:58Z</time>
      </trkpt>
      <trkpt lat="42.7255700" lon="2.0419450">
        <ele>1222.0</ele>
        <time>2020-07-22T10:01:00Z</time>
      </trkpt>
      <trkpt lat="42.7255460" lon="2.0418590">
        <ele>1222.8</ele>
        <time>2020-07-22T10:01:03Z</time>
      </trkpt>
      <trkpt lat="42.7255050" lon="2.0417440">
        <ele>1223.8</ele>
        <time>2020-07-22T10:01:07Z</time>
      </trkpt>
      <trkpt lat="42.7254970" lon="2.0417140">
        <ele>1224.0</ele>
        <time>2020-07-22T10:01:08Z</time>
      </trkpt>
      <trkpt lat="42.7254240" lon="2.0415460">
        <ele>1225.0</ele>
        <time>2020-07-22T10:01:14Z</time>
      </trkpt>
      <trkpt lat="42.7253570" lon="2.0413790">
        <ele>1226.2</ele>
        <time>2020-07-22T10:01:20Z</time>
      </trkpt>
      <trkpt lat="42.7253460" lon="2.0413520">
        <ele>1226.2</ele>
        <time>2020-07-22T10:01:21Z</time>
      </trkpt>
      <trkpt lat="42.7253120" lon="2.0412540">
        <ele>1227.4</ele>
        <time>2020-07-22T10:01:25Z</time>
      </trkpt>
      <trkpt lat="42.7252790" lon="2.0411820">
        <ele>1228.0</ele>
        <time>2020-07-22T10:01:28Z</time>
      </trkpt>
      <trkpt lat="42.7252310" lon="2.0410720">
        <ele>1228.6</ele>
        <time>2020-07-22T10:01:32Z</time>
      </trkpt>
      <trkpt lat="42.7252050" lon="2.0410140">
        <ele>1229.2</ele>
        <time>2020-07-22T10:01:34Z</time>
      </trkpt>
      <trkpt lat="42.7251620" lon="2.0409410">
        <ele>1229.8</ele>
        <time>2020-07-22T10:01:37Z</time>
      </trkpt>
      <trkpt lat="42.7250950" lon="2.0408300">
        <ele>1230.8</ele>
        <time>2020-07-22T10:01:42Z</time>
      </trkpt>
      <trkpt lat="42.7250020" lon="2.0407060">
        <ele>1232.0</ele>
        <time>2020-07-22T10:01:48Z</time>
      </trkpt>
      <trkpt lat="42.7249860" lon="2.0406850">
        <ele>1232.2</ele>
        <time>2020-07-22T10:01:49Z</time>
      </trkpt>
      <trkpt lat="42.7249210" lon="2.0406020">
        <ele>1233.2</ele>
        <time>2020-07-22T10:01:53Z</time>
      </trkpt>
      <trkpt lat="42.7248720" lon="2.0405370">
        <ele>1234.0</ele>
        <time>2020-07-22T10:01:56Z</time>
      </trkpt>
      <trkpt lat="42.7248570" lon="2.0405140">
        <ele>1234.2</ele>
        <time>2020-07-22T10:01:57Z</time>
      </trkpt>
      <trkpt lat="42.7247750" lon="2.0404090">
        <ele>1235.2</ele>
        <time>2020-07-22T10:02:02Z</time>
      </trkpt>
      <trkpt lat="42.7247580" lon="2.0403900">
        <ele>1235.6</ele>
        <time>2020-07-22T10:02:03Z</time>
      </trkpt>
      <trkpt lat="42.7246960" lon="2.0403070">
        <ele>1236.6</ele>
        <time>2020-07-22T10:02:07Z</time>
      </trkpt>
      <trkpt lat="42.7246650" lon="2.0402670">
        <ele>1237.0</ele>
        <time>2020-07-22T10:02:09Z</time>
      </trkpt>
      <trkpt lat="42.7246190" lon="2.0402060">
        <ele>1237.8</ele>
        <time>2020-07-22T10:02:12Z</time>
      </trkpt>
      <trkpt lat="42.7245580" lon="2.0401280">
        <ele>1238.8</ele>
        <time>2020-07-22T10:02:16Z</time>
      </trkpt>
      <trkpt lat="42.7245440" lon="2.0401060">
        <ele>1239.2</ele>
        <time>2020-07-22T10:02:17Z</time>
      </trkpt>
      <trkpt lat="42.7244750" lon="2.0400080">
        <ele>1240.2</ele>
        <time>2020-07-22T10:02:22Z</time>
      </trkpt>
      <trkpt lat="42.7244610" lon="2.0399900">
        <ele>1240.4</ele>
        <time>2020-07-22T10:02:23Z</time>
      </trkpt>
      <trkpt lat="42.7244070" lon="2.0399130">
        <ele>1241.6</ele>
        <time>2020-07-22T10:02:27Z</time>
      </trkpt>
      <trkpt lat="42.7243590" lon="2.0398610">
        <ele>1242.2</ele>
        <time>2020-07-22T10:02:30Z</time>
      </trkpt>
      <trkpt lat="42.7243090" lon="2.0398100">
        <ele>1242.8</ele>
        <time>2020-07-22T10:02:33Z</time>
      </trkpt>
      <trkpt lat="42.7242140" lon="2.0397400">
        <ele>1244.0</ele>
        <time>2020-07-22T10:02:38Z</time>
      </trkpt>
      <trkpt lat="42.7241940" lon="2.0397260">
        <ele>1244.2</ele>
        <time>2020-07-22T10:02:39Z</time>
      </trkpt>
      <trkpt lat="42.7241220" lon="2.0396790">
        <ele>1244.8</ele>
        <time>2020-07-22T10:02:43Z</time>
      </trkpt>
      <trkpt lat="42.7241030" lon="2.0396670">
        <ele>1245.0</ele>
        <time>2020-07-22T10:02:44Z</time>
      </trkpt>
      <trkpt lat="42.7240610" lon="2.0396480">
        <ele>1245.4</ele>
        <time>2020-07-22T10:02:46Z</time>
      </trkpt>
      <trkpt lat="42.7240200" lon="2.0396280">
        <ele>1245.8</ele>
        <time>2020-07-22T10:02:48Z</time>
      </trkpt>
      <trkpt lat="42.7239570" lon="2.0395940">
        <ele>1246.2</ele>
        <time>2020-07-22T10:02:51Z</time>
      </trkpt>
      <trkpt lat="42.7238990" lon="2.0395550">
        <ele>1246.6</ele>
        <time>2020-07-22T10:02:54Z</time>
      </trkpt>
      <trkpt lat="42.7238030" lon="2.0395010">
        <ele>1247.4</ele>
        <time>2020-07-22T10:02:59Z</time>
      </trkpt>
      <trkpt lat="42.7237820" lon="2.0394800">
        <ele>1247.6</ele>
        <time>2020-07-22T10:03:00Z</time>
      </trkpt>
      <trkpt lat="42.7237260" lon="2.0394150">
        <ele>1248.4</ele>
        <time>2020-07-22T10:03:03Z</time>
      </trkpt>
      <trkpt lat="42.7237200" lon="2.0393570">
        <ele>1249.2</ele>
        <time>2020-07-22T10:03:05Z</time>
      </trkpt>
      <trkpt lat="42.7237320" lon="2.0393340">
        <ele>1249.4</ele>
        <time>2020-07-22T10:03:06Z</time>
      </trkpt>
      <trkpt lat="42.7237540" lon="2.0393250">
        <ele>1249.6</ele>
        <time>2020-07-22T10:03:07Z</time>
      </trkpt>
      <trkpt lat="42.7238040" lon="2.0393370">
        <ele>1249.8</ele>
        <time>2020-07-22T10:03:09Z</time>
      </trkpt>
      <trkpt lat="42.7238820" lon="2.0393680">
        <ele>1250.6</ele>
        <time>2020-07-22T10:03:12Z</time>
      </trkpt>
      <trkpt lat="42.7239070" lon="2.0393790">
        <ele>1250.8</ele>
        <time>2020-07-22T10:03:13Z</time>
      </trkpt>
      <trkpt lat="42.7240090" lon="2.0394220">
        <ele>1251.6</ele>
        <time>2020-07-22T10:03:17Z</time>
      </trkpt>
      <trkpt lat="42.7240360" lon="2.0394280">
        <ele>1251.8</ele>
        <time>2020-07-22T10:03:18Z</time>
      </trkpt>
      <trkpt lat="42.7241950" lon="2.0394610">
        <ele>1253.2</ele>
        <time>2020-07-22T10:03:24Z</time>
      </trkpt>
      <trkpt lat="42.7242200" lon="2.0394640">
        <ele>1253.6</ele>
        <time>2020-07-22T10:03:25Z</time>
      </trkpt>
      <trkpt lat="42.7243190" lon="2.0394940">
        <ele>1254.4</ele>
        <time>2020-07-22T10:03:29Z</time>
      </trkpt>
      <trkpt lat="42.7244150" lon="2.0395210">
        <ele>1255.2</ele>
        <time>2020-07-22T10:03:33Z</time>
      </trkpt>
      <trkpt lat="42.7244380" lon="2.0395270">
        <ele>1255.4</ele>
        <time>2020-07-22T10:03:34Z</time>
      </trkpt>
      <trkpt lat="42.7245570" lon="2.0395490">
        <ele>1256.6</ele>
        <time>2020-07-22T10:03:39Z</time>
      </trkpt>
      <trkpt lat="42.7245810" lon="2.0395540">
        <ele>1256.8</ele>
        <time>2020-07-22T10:03:40Z</time>
      </trkpt>
      <trkpt lat="42.7246740" lon="2.0395790">
        <ele>1257.6</ele>
        <time>2020-07-22T10:03:44Z</time>
      </trkpt>
      <trkpt lat="42.7247850" lon="2.0396010">
        <ele>1258.6</ele>
        <time>2020-07-22T10:03:49Z</time>
      </trkpt>
      <trkpt lat="42.7248090" lon="2.0396060">
        <ele>1258.8</ele>
        <time>2020-07-22T10:03:50Z</time>
      </trkpt>
      <trkpt lat="42.7248980" lon="2.0396180">
        <ele>1260.0</ele>
        <time>2020-07-22T10:03:54Z</time>
      </trkpt>
      <trkpt lat="42.7249880" lon="2.0396300">
        <ele>1260.8</ele>
        <time>2020-07-22T10:03:58Z</time>
      </trkpt>
      <trkpt lat="42.7250330" lon="2.0396400">
        <ele>1261.4</ele>
        <time>2020-07-22T10:04:00Z</time>
      </trkpt>
      <trkpt lat="42.7251300" lon="2.0396510">
        <ele>1262.2</ele>
        <time>2020-07-22T10:04:05Z</time>
      </trkpt>
      <trkpt lat="42.7251500" lon="2.0396520">
        <ele>1262.4</ele>
        <time>2020-07-22T10:04:06Z</time>
      </trkpt>
      <trkpt lat="42.7252220" lon="2.0396710">
        <ele>1263.4</ele>
        <time>2020-07-22T10:04:10Z</time>
      </trkpt>
      <trkpt lat="42.7252430" lon="2.0396790">
        <ele>1263.6</ele>
        <time>2020-07-22T10:04:11Z</time>
      </trkpt>
      <trkpt lat="42.7252800" lon="2.0396910">
        <ele>1264.0</ele>
        <time>2020-07-22T10:04:13Z</time>
      </trkpt>
      <trkpt lat="42.7253190" lon="2.0397010">
        <ele>1264.4</ele>
        <time>2020-07-22T10:04:15Z</time>
      </trkpt>
      <trkpt lat="42.7253370" lon="2.0397090">
        <ele>1264.8</ele>
        <time>2020-07-22T10:04:16Z</time>
      </trkpt>
      <trkpt lat="42.7254140" lon="2.0397590">
        <ele>1265.6</ele>
        <time>2020-07-22T10:04:20Z</time>
      </trkpt>
      <trkpt lat="42.7254340" lon="2.0397740">
        <ele>1266.0</ele>
        <time>2020-07-22T10:04:21Z</time>
      </trkpt>
      <trkpt lat="42.7255350" lon="2.0398580">
        <ele>1267.2</ele>
        <time>2020-07-22T10:04:26Z</time>
      </trkpt>
      <trkpt lat="42.7255550" lon="2.0398740">
        <ele>1267.4</ele>
        <time>2020-07-22T10:04:27Z</time>
      </trkpt>
      <trkpt lat="42.7256250" lon="2.0399590">
        <ele>1268.2</ele>
        <time>2020-07-22T10:04:31Z</time>
      </trkpt>
      <trkpt lat="42.7256850" lon="2.0400200">
        <ele>1268.8</ele>
        <time>2020-07-22T10:04:34Z</time>
      </trkpt>
      <trkpt lat="42.7257390" lon="2.0400900">
        <ele>1269.4</ele>
        <time>2020-07-22T10:04:37Z</time>
      </trkpt>
      <trkpt lat="42.7258100" lon="2.0401820">
        <ele>1270.2</ele>
        <time>2020-07-22T10:04:41Z</time>
      </trkpt>
      <trkpt lat="42.7258270" lon="2.0402010">
        <ele>1270.4</ele>
        <time>2020-07-22T10:04:42Z</time>
      </trkpt>
      <trkpt lat="42.7258450" lon="2.0402210">
        <ele>1270.8</ele>
        <time>2020-07-22T10:04:43Z</time>
      </trkpt>
      <trkpt lat="42.7259030" lon="2.0402950">
        <ele>1271.4</ele>
        <time>2020-07-22T10:04:46Z</time>
      </trkpt>
      <trkpt lat="42.7259470" lon="2.0403760">
        <ele>1272.0</ele>
        <time>2020-07-22T10:04:49Z</time>
      </trkpt>
      <trkpt lat="42.7259820" lon="2.0404250">
        <ele>1272.2</ele>
        <time>2020-07-22T10:04:51Z</time>
      </trkpt>
      <trkpt lat="42.7260120" lon="2.0404620">
        <ele>1272.8</ele>
        <time>2020-07-22T10:04:53Z</time>
      </trkpt>
      <trkpt lat="42.7260650" lon="2.0405490">
        <ele>1273.4</ele>
        <time>2020-07-22T10:04:57Z</time>
      </trkpt>
      <trkpt lat="42.7261000" lon="2.0405890">
        <ele>1273.8</ele>
        <time>2020-07-22T10:04:59Z</time>
      </trkpt>
      <trkpt lat="42.7261490" lon="2.0406820">
        <ele>1274.8</ele>
        <time>2020-07-22T10:05:03Z</time>
      </trkpt>
      <trkpt lat="42.7261620" lon="2.0407060">
        <ele>1275.0</ele>
        <time>2020-07-22T10:05:04Z</time>
      </trkpt>
      <trkpt lat="42.7262500" lon="2.0408460">
        <ele>1276.0</ele>
        <time>2020-07-22T10:05:10Z</time>
      </trkpt>
      <trkpt lat="42.7262630" lon="2.0408700">
        <ele>1276.2</ele>
        <time>2020-07-22T10:05:11Z</time>
      </trkpt>
      <trkpt lat="42.7262900" lon="2.0409190">
        <ele>1277.0</ele>
        <time>2020-07-22T10:05:13Z</time>
      </trkpt>
      <trkpt lat="42.7263050" lon="2.0409440">
        <ele>1277.4</ele>
        <time>2020-07-22T10:05:14Z</time>
      </trkpt>
      <trkpt lat="42.7263810" lon="2.0410830">
        <ele>1278.4</ele>
        <time>2020-07-22T10:05:20Z</time>
      </trkpt>
      <trkpt lat="42.7263940" lon="2.0411090">
        <ele>1278.4</ele>
        <time>2020-07-22T10:05:21Z</time>
      </trkpt>
      <trkpt lat="42.7264420" lon="2.0412060">
        <ele>1279.6</ele>
        <time>2020-07-22T10:05:25Z</time>
      </trkpt>
      <trkpt lat="42.7264690" lon="2.0412490">
        <ele>1280.2</ele>
        <time>2020-07-22T10:05:27Z</time>
      </trkpt>
      <trkpt lat="42.7265640" lon="2.0412830">
        <ele>1280.8</ele>
        <time>2020-07-22T10:05:32Z</time>
      </trkpt>
      <trkpt lat="42.7265790" lon="2.0412650">
        <ele>1281.2</ele>
        <time>2020-07-22T10:05:33Z</time>
      </trkpt>
      <trkpt lat="42.7265930" lon="2.0411750">
        <ele>1282.0</ele>
        <time>2020-07-22T10:05:36Z</time>
      </trkpt>
      <trkpt lat="42.7265750" lon="2.0410830">
        <ele>1282.6</ele>
        <time>2020-07-22T10:05:39Z</time>
      </trkpt>
      <trkpt lat="42.7265560" lon="2.0410280">
        <ele>1283.0</ele>
        <time>2020-07-22T10:05:41Z</time>
      </trkpt>
      <trkpt lat="42.7265300" lon="2.0409720">
        <ele>1283.6</ele>
        <time>2020-07-22T10:05:43Z</time>
      </trkpt>
      <trkpt lat="42.7264590" lon="2.0408310">
        <ele>1284.0</ele>
        <time>2020-07-22T10:05:48Z</time>
      </trkpt>
      <trkpt lat="42.7264360" lon="2.0407770">
        <ele>1284.6</ele>
        <time>2020-07-22T10:05:50Z</time>
      </trkpt>
      <trkpt lat="42.7264080" lon="2.0406980">
        <ele>1285.2</ele>
        <time>2020-07-22T10:05:53Z</time>
      </trkpt>
      <trkpt lat="42.7263740" lon="2.0405600">
        <ele>1285.8</ele>
        <time>2020-07-22T10:05:58Z</time>
      </trkpt>
      <trkpt lat="42.7263520" lon="2.0404890">
        <ele>1286.2</ele>
        <time>2020-07-22T10:06:01Z</time>
      </trkpt>
      <trkpt lat="42.7263080" lon="2.0404010">
        <ele>1287.2</ele>
        <time>2020-07-22T10:06:05Z</time>
      </trkpt>
      <trkpt lat="42.7262980" lon="2.0403800">
        <ele>1287.2</ele>
        <time>2020-07-22T10:06:06Z</time>
      </trkpt>
      <trkpt lat="42.7262560" lon="2.0402580">
        <ele>1288.4</ele>
        <time>2020-07-22T10:06:11Z</time>
      </trkpt>
      <trkpt lat="42.7261970" lon="2.0401240">
        <ele>1289.6</ele>
        <time>2020-07-22T10:06:16Z</time>
      </trkpt>
      <trkpt lat="42.7261880" lon="2.0400970">
        <ele>1289.8</ele>
        <time>2020-07-22T10:06:17Z</time>
      </trkpt>
      <trkpt lat="42.7261410" lon="2.0399830">
        <ele>1290.4</ele>
        <time>2020-07-22T10:06:21Z</time>
      </trkpt>
      <trkpt lat="42.7261190" lon="2.0399260">
        <ele>1290.8</ele>
        <time>2020-07-22T10:06:23Z</time>
      </trkpt>
      <trkpt lat="42.7260850" lon="2.0398330">
        <ele>1291.8</ele>
        <time>2020-07-22T10:06:26Z</time>
      </trkpt>
      <trkpt lat="42.7260170" lon="2.0396860">
        <ele>1292.2</ele>
        <time>2020-07-22T10:06:31Z</time>
      </trkpt>
      <trkpt lat="42.7259820" lon="2.0395980">
        <ele>1293.0</ele>
        <time>2020-07-22T10:06:34Z</time>
      </trkpt>
      <trkpt lat="42.7259010" lon="2.0394330">
        <ele>1294.2</ele>
        <time>2020-07-22T10:06:40Z</time>
      </trkpt>
      <trkpt lat="42.7258300" lon="2.0392670">
        <ele>1295.4</ele>
        <time>2020-07-22T10:06:46Z</time>
      </trkpt>
      <trkpt lat="42.7257880" lon="2.0391910">
        <ele>1296.0</ele>
        <time>2020-07-22T10:06:49Z</time>
      </trkpt>
      <trkpt lat="42.7257560" lon="2.0391440">
        <ele>1296.4</ele>
        <time>2020-07-22T10:06:51Z</time>
      </trkpt>
      <trkpt lat="42.7256780" lon="2.0390110">
        <ele>1297.4</ele>
        <time>2020-07-22T10:06:56Z</time>
      </trkpt>
      <trkpt lat="42.7256610" lon="2.0389860">
        <ele>1297.6</ele>
        <time>2020-07-22T10:06:57Z</time>
      </trkpt>
      <trkpt lat="42.7255680" lon="2.0388790">
        <ele>1298.6</ele>
        <time>2020-07-22T10:07:02Z</time>
      </trkpt>
      <trkpt lat="42.7255260" lon="2.0388370">
        <ele>1299.0</ele>
        <time>2020-07-22T10:07:04Z</time>
      </trkpt>
      <trkpt lat="42.7254610" lon="2.0387690">
        <ele>1299.6</ele>
        <time>2020-07-22T10:07:07Z</time>
      </trkpt>
      <trkpt lat="42.7253790" lon="2.0386330">
        <ele>1301.0</ele>
        <time>2020-07-22T10:07:12Z</time>
      </trkpt>
      <trkpt lat="42.7253290" lon="2.0384510">
        <ele>1301.8</ele>
        <time>2020-07-22T10:07:18Z</time>
      </trkpt>
      <trkpt lat="42.7253220" lon="2.0384210">
        <ele>1302.0</ele>
        <time>2020-07-22T10:07:19Z</time>
      </trkpt>
      <trkpt lat="42.7252940" lon="2.0383500">
        <ele>1303.0</ele>
        <time>2020-07-22T10:07:22Z</time>
      </trkpt>
      <trkpt lat="42.7252880" lon="2.0383330">
        <ele>1303.2</ele>
        <time>2020-07-22T10:07:23Z</time>
      </trkpt>
      <trkpt lat="42.7252800" lon="2.0383010">
        <ele>1303.4</ele>
        <time>2020-07-22T10:07:25Z</time>
      </trkpt>
      <trkpt lat="42.7252170" lon="2.0381490">
        <ele>1304.0</ele>
        <time>2020-07-22T10:07:31Z</time>
      </trkpt>
      <trkpt lat="42.7252090" lon="2.0381210">
        <ele>1304.4</ele>
        <time>2020-07-22T10:07:32Z</time>
      </trkpt>
      <trkpt lat="42.7251830" lon="2.0380370">
        <ele>1305.4</ele>
        <time>2020-07-22T10:07:35Z</time>
      </trkpt>
      <trkpt lat="42.7251670" lon="2.0379820">
        <ele>1305.8</ele>
        <time>2020-07-22T10:07:37Z</time>
      </trkpt>
      <trkpt lat="42.7251340" lon="2.0378960">
        <ele>1306.6</ele>
        <time>2020-07-22T10:07:40Z</time>
      </trkpt>
      <trkpt lat="42.7251090" lon="2.0378120">
        <ele>1307.6</ele>
        <time>2020-07-22T10:07:43Z</time>
      </trkpt>
      <trkpt lat="42.7250880" lon="2.0377600">
        <ele>1308.2</ele>
        <time>2020-07-22T10:07:45Z</time>
      </trkpt>
      <trkpt lat="42.7250790" lon="2.0377330">
        <ele>1308.4</ele>
        <time>2020-07-22T10:07:46Z</time>
      </trkpt>
      <trkpt lat="42.7250590" lon="2.0376800">
        <ele>1308.8</ele>
        <time>2020-07-22T10:07:48Z</time>
      </trkpt>
      <trkpt lat="42.7250020" lon="2.0375560">
        <ele>1310.0</ele>
        <time>2020-07-22T10:07:53Z</time>
      </trkpt>
      <trkpt lat="42.7249420" lon="2.0374280">
        <ele>1311.0</ele>
        <time>2020-07-22T10:07:58Z</time>
      </trkpt>
      <trkpt lat="42.7249160" lon="2.0373800">
        <ele>1311.4</ele>
        <time>2020-07-22T10:08:00Z</time>
      </trkpt>
      <trkpt lat="42.7248840" lon="2.0373020">
        <ele>1312.0</ele>
        <time>2020-07-22T10:08:03Z</time>
      </trkpt>
      <trkpt lat="42.7248540" lon="2.0372620">
        <ele>1312.4</ele>
        <time>2020-07-22T10:08:05Z</time>
      </trkpt>
      <trkpt lat="42.7248110" lon="2.0371570">
        <ele>1313.2</ele>
        <time>2020-07-22T10:08:09Z</time>
      </trkpt>
      <trkpt lat="42.7247600" lon="2.0370510">
        <ele>1314.2</ele>
        <time>2020-07-22T10:08:13Z</time>
      </trkpt>
      <trkpt lat="42.7247000" lon="2.0369230">
        <ele>1315.2</ele>
        <time>2020-07-22T10:08:18Z</time>
      </trkpt>
      <trkpt lat="42.7246890" lon="2.0368980">
        <ele>1315.2</ele>
        <time>2020-07-22T10:08:19Z</time>
      </trkpt>
      <trkpt lat="42.7246450" lon="2.0367930">
        <ele>1316.4</ele>
        <time>2020-07-22T10:08:23Z</time>
      </trkpt>
      <trkpt lat="42.7246180" lon="2.0367120">
        <ele>1317.2</ele>
        <time>2020-07-22T10:08:26Z</time>
      </trkpt>
      <trkpt lat="42.7246060" lon="2.0366560">
        <ele>1317.4</ele>
        <time>2020-07-22T10:08:28Z</time>
      </trkpt>
      <trkpt lat="42.7245930" lon="2.0365430">
        <ele>1318.6</ele>
        <time>2020-07-22T10:08:32Z</time>
      </trkpt>
      <trkpt lat="42.7245900" lon="2.0364830">
        <ele>1319.0</ele>
        <time>2020-07-22T10:08:34Z</time>
      </trkpt>
      <trkpt lat="42.7245880" lon="2.0364220">
        <ele>1319.6</ele>
        <time>2020-07-22T10:08:36Z</time>
      </trkpt>
      <trkpt lat="42.7245910" lon="2.0362690">
        <ele>1320.8</ele>
        <time>2020-07-22T10:08:41Z</time>
      </trkpt>
      <trkpt lat="42.7245910" lon="2.0362100">
        <ele>1321.2</ele>
        <time>2020-07-22T10:08:43Z</time>
      </trkpt>
      <trkpt lat="42.7245970" lon="2.0360940">
        <ele>1321.8</ele>
        <time>2020-07-22T10:08:47Z</time>
      </trkpt>
      <trkpt lat="42.7246000" lon="2.0360660">
        <ele>1322.2</ele>
        <time>2020-07-22T10:08:48Z</time>
      </trkpt>
      <trkpt lat="42.7246050" lon="2.0360370">
        <ele>1322.4</ele>
        <time>2020-07-22T10:08:49Z</time>
      </trkpt>
      <trkpt lat="42.7246080" lon="2.0360090">
        <ele>1322.6</ele>
        <time>2020-07-22T10:08:50Z</time>
      </trkpt>
      <trkpt lat="42.7246170" lon="2.0359510">
        <ele>1322.8</ele>
        <time>2020-07-22T10:08:52Z</time>
      </trkpt>
      <trkpt lat="42.7246280" lon="2.0358350">
        <ele>1323.6</ele>
        <time>2020-07-22T10:08:57Z</time>
      </trkpt>
      <trkpt lat="42.7246390" lon="2.0357710">
        <ele>1324.0</ele>
        <time>2020-07-22T10:09:00Z</time>
      </trkpt>
      <trkpt lat="42.7246530" lon="2.0356660">
        <ele>1324.4</ele>
        <time>2020-07-22T10:09:04Z</time>
      </trkpt>
      <trkpt lat="42.7246670" lon="2.0355500">
        <ele>1325.2</ele>
        <time>2020-07-22T10:09:08Z</time>
      </trkpt>
      <trkpt lat="42.7246700" lon="2.0354290">
        <ele>1326.4</ele>
        <time>2020-07-22T10:09:12Z</time>
      </trkpt>
      <trkpt lat="42.7246760" lon="2.0352830">
        <ele>1327.6</ele>
        <time>2020-07-22T10:09:17Z</time>
      </trkpt>
      <trkpt lat="42.7246710" lon="2.0351920">
        <ele>1328.4</ele>
        <time>2020-07-22T10:09:20Z</time>
      </trkpt>
      <trkpt lat="42.7246700" lon="2.0351640">
        <ele>1328.6</ele>
        <time>2020-07-22T10:09:21Z</time>
      </trkpt>
      <trkpt lat="42.7246500" lon="2.0349950">
        <ele>1329.8</ele>
        <time>2020-07-22T10:09:27Z</time>
      </trkpt>
      <trkpt lat="42.7246470" lon="2.0349740">
        <ele>1330.0</ele>
        <time>2020-07-22T10:09:28Z</time>
      </trkpt>
      <trkpt lat="42.7246260" lon="2.0348280">
        <ele>1330.8</ele>
        <time>2020-07-22T10:09:34Z</time>
      </trkpt>
      <trkpt lat="42.7246180" lon="2.0347680">
        <ele>1331.0</ele>
        <time>2020-07-22T10:09:36Z</time>
      </trkpt>
      <trkpt lat="42.7245940" lon="2.0346470">
        <ele>1331.8</ele>
        <time>2020-07-22T10:09:40Z</time>
      </trkpt>
      <trkpt lat="42.7245670" lon="2.0345640">
        <ele>1332.8</ele>
        <time>2020-07-22T10:09:43Z</time>
      </trkpt>
      <trkpt lat="42.7245580" lon="2.0345390">
        <ele>1333.0</ele>
        <time>2020-07-22T10:09:44Z</time>
      </trkpt>
      <trkpt lat="42.7245150" lon="2.0344210">
        <ele>1334.2</ele>
        <time>2020-07-22T10:09:49Z</time>
      </trkpt>
      <trkpt lat="42.7245040" lon="2.0343980">
        <ele>1334.2</ele>
        <time>2020-07-22T10:09:50Z</time>
      </trkpt>
      <trkpt lat="42.7244200" lon="2.0342600">
        <ele>1335.2</ele>
        <time>2020-07-22T10:09:56Z</time>
      </trkpt>
      <trkpt lat="42.7243870" lon="2.0342180">
        <ele>1335.6</ele>
        <time>2020-07-22T10:09:58Z</time>
      </trkpt>
      <trkpt lat="42.7243210" lon="2.0341280">
        <ele>1336.2</ele>
        <time>2020-07-22T10:10:02Z</time>
      </trkpt>
      <trkpt lat="42.7242440" lon="2.0340460">
        <ele>1337.2</ele>
        <time>2020-07-22T10:10:06Z</time>
      </trkpt>
      <trkpt lat="42.7241550" lon="2.0339150">
        <ele>1338.2</ele>
        <time>2020-07-22T10:10:12Z</time>
      </trkpt>
      <trkpt lat="42.7241420" lon="2.0338930">
        <ele>1338.2</ele>
        <time>2020-07-22T10:10:13Z</time>
      </trkpt>
      <trkpt lat="42.7241140" lon="2.0338480">
        <ele>1338.4</ele>
        <time>2020-07-22T10:10:15Z</time>
      </trkpt>
      <trkpt lat="42.7240610" lon="2.0337220">
        <ele>1339.6</ele>
        <time>2020-07-22T10:10:20Z</time>
      </trkpt>
      <trkpt lat="42.7240170" lon="2.0335670">
        <ele>1340.8</ele>
        <time>2020-07-22T10:10:25Z</time>
      </trkpt>
      <trkpt lat="42.7239870" lon="2.0334530">
        <ele>1341.6</ele>
        <time>2020-07-22T10:10:29Z</time>
      </trkpt>
      <trkpt lat="42.7239810" lon="2.0334250">
        <ele>1341.8</ele>
        <time>2020-07-22T10:10:30Z</time>
      </trkpt>
      <trkpt lat="42.7239570" lon="2.0332870">
        <ele>1343.0</ele>
        <time>2020-07-22T10:10:35Z</time>
      </trkpt>
      <trkpt lat="42.7239440" lon="2.0332080">
        <ele>1343.2</ele>
        <time>2020-07-22T10:10:38Z</time>
      </trkpt>
      <trkpt lat="42.7239530" lon="2.0331010">
        <ele>1344.0</ele>
        <time>2020-07-22T10:10:42Z</time>
      </trkpt>
      <trkpt lat="42.7239520" lon="2.0330200">
        <ele>1344.6</ele>
        <time>2020-07-22T10:10:45Z</time>
      </trkpt>
      <trkpt lat="42.7239550" lon="2.0329600">
        <ele>1345.2</ele>
        <time>2020-07-22T10:10:47Z</time>
      </trkpt>
      <trkpt lat="42.7239620" lon="2.0327900">
        <ele>1346.4</ele>
        <time>2020-07-22T10:10:52Z</time>
      </trkpt>
      <trkpt lat="42.7239850" lon="2.0325920">
        <ele>1347.6</ele>
        <time>2020-07-22T10:10:58Z</time>
      </trkpt>
      <trkpt lat="42.7239880" lon="2.0325210">
        <ele>1348.0</ele>
        <time>2020-07-22T10:11:00Z</time>
      </trkpt>
      <trkpt lat="42.7240100" lon="2.0323390">
        <ele>1348.8</ele>
        <time>2020-07-22T10:11:05Z</time>
      </trkpt>
      <trkpt lat="42.7240190" lon="2.0323050">
        <ele>1348.8</ele>
        <time>2020-07-22T10:11:06Z</time>
      </trkpt>
      <trkpt lat="42.7240480" lon="2.0321980">
        <ele>1349.8</ele>
        <time>2020-07-22T10:11:09Z</time>
      </trkpt>
      <trkpt lat="42.7240880" lon="2.0320570">
        <ele>1350.4</ele>
        <time>2020-07-22T10:11:13Z</time>
      </trkpt>
      <trkpt lat="42.7240950" lon="2.0320190">
        <ele>1350.6</ele>
        <time>2020-07-22T10:11:14Z</time>
      </trkpt>
      <trkpt lat="42.7241100" lon="2.0319460">
        <ele>1350.8</ele>
        <time>2020-07-22T10:11:16Z</time>
      </trkpt>
      <trkpt lat="42.7241650" lon="2.0317280">
        <ele>1351.8</ele>
        <time>2020-07-22T10:11:22Z</time>
      </trkpt>
      <trkpt lat="42.7241740" lon="2.0316920">
        <ele>1352.0</ele>
        <time>2020-07-22T10:11:23Z</time>
      </trkpt>
      <trkpt lat="42.7242180" lon="2.0314740">
        <ele>1353.0</ele>
        <time>2020-07-22T10:11:29Z</time>
      </trkpt>
      <trkpt lat="42.7242250" lon="2.0314370">
        <ele>1353.4</ele>
        <time>2020-07-22T10:11:30Z</time>
      </trkpt>
      <trkpt lat="42.7242440" lon="2.0312900">
        <ele>1354.2</ele>
        <time>2020-07-22T10:11:34Z</time>
      </trkpt>
      <trkpt lat="42.7242690" lon="2.0311110">
        <ele>1355.2</ele>
        <time>2020-07-22T10:11:39Z</time>
      </trkpt>
      <trkpt lat="42.7242950" lon="2.0308930">
        <ele>1356.0</ele>
        <time>2020-07-22T10:11:45Z</time>
      </trkpt>
      <trkpt lat="42.7243010" lon="2.0308560">
        <ele>1356.2</ele>
        <time>2020-07-22T10:11:46Z</time>
      </trkpt>
      <trkpt lat="42.7243080" lon="2.0308180">
        <ele>1356.6</ele>
        <time>2020-07-22T10:11:47Z</time>
      </trkpt>
      <trkpt lat="42.7243430" lon="2.0306640">
        <ele>1357.2</ele>
        <time>2020-07-22T10:11:51Z</time>
      </trkpt>
      <trkpt lat="42.7243900" lon="2.0305150">
        <ele>1357.8</ele>
        <time>2020-07-22T10:11:55Z</time>
      </trkpt>
      <trkpt lat="42.7244430" lon="2.0303190">
        <ele>1358.4</ele>
        <time>2020-07-22T10:12:00Z</time>
      </trkpt>
      <trkpt lat="42.7244810" lon="2.0302070">
        <ele>1359.2</ele>
        <time>2020-07-22T10:12:03Z</time>
      </trkpt>
      <trkpt lat="42.7244990" lon="2.0301350">
        <ele>1359.8</ele>
        <time>2020-07-22T10:12:05Z</time>
      </trkpt>
      <trkpt lat="42.7245330" lon="2.0300370">
        <ele>1360.6</ele>
        <time>2020-07-22T10:12:08Z</time>
      </trkpt>
      <trkpt lat="42.7245600" lon="2.0299730">
        <ele>1361.0</ele>
        <time>2020-07-22T10:12:10Z</time>
      </trkpt>
      <trkpt lat="42.7246280" lon="2.0298210">
        <ele>1362.2</ele>
        <time>2020-07-22T10:12:15Z</time>
      </trkpt>
      <trkpt lat="42.7246550" lon="2.0297610">
        <ele>1362.4</ele>
        <time>2020-07-22T10:12:17Z</time>
      </trkpt>
      <trkpt lat="42.7247160" lon="2.0296670">
        <ele>1363.4</ele>
        <time>2020-07-22T10:12:21Z</time>
      </trkpt>
      <trkpt lat="42.7248030" lon="2.0295540">
        <ele>1364.6</ele>
        <time>2020-07-22T10:12:26Z</time>
      </trkpt>
      <trkpt lat="42.7249020" lon="2.0294340">
        <ele>1365.6</ele>
        <time>2020-07-22T10:12:32Z</time>
      </trkpt>
      <trkpt lat="42.7249170" lon="2.0294150">
        <ele>1365.8</ele>
        <time>2020-07-22T10:12:33Z</time>
      </trkpt>
      <trkpt lat="42.7249320" lon="2.0293960">
        <ele>1366.0</ele>
        <time>2020-07-22T10:12:34Z</time>
      </trkpt>
      <trkpt lat="42.7250040" lon="2.0292780">
        <ele>1367.0</ele>
        <time>2020-07-22T10:12:39Z</time>
      </trkpt>
      <trkpt lat="42.7250540" lon="2.0291950">
        <ele>1368.2</ele>
        <time>2020-07-22T10:12:42Z</time>
      </trkpt>
      <trkpt lat="42.7251380" lon="2.0290190">
        <ele>1369.4</ele>
        <time>2020-07-22T10:12:48Z</time>
      </trkpt>
      <trkpt lat="42.7251690" lon="2.0289630">
        <ele>1369.8</ele>
        <time>2020-07-22T10:12:50Z</time>
      </trkpt>
      <trkpt lat="42.7252090" lon="2.0288800">
        <ele>1370.4</ele>
        <time>2020-07-22T10:12:53Z</time>
      </trkpt>
      <trkpt lat="42.7252770" lon="2.0287490">
        <ele>1371.6</ele>
        <time>2020-07-22T10:12:58Z</time>
      </trkpt>
      <trkpt lat="42.7253040" lon="2.0286950">
        <ele>1372.2</ele>
        <time>2020-07-22T10:13:00Z</time>
      </trkpt>
      <trkpt lat="42.7253290" lon="2.0286410">
        <ele>1372.8</ele>
        <time>2020-07-22T10:13:02Z</time>
      </trkpt>
      <trkpt lat="42.7253740" lon="2.0285350">
        <ele>1373.8</ele>
        <time>2020-07-22T10:13:06Z</time>
      </trkpt>
      <trkpt lat="42.7253870" lon="2.0285120">
        <ele>1374.0</ele>
        <time>2020-07-22T10:13:07Z</time>
      </trkpt>
      <trkpt lat="42.7254100" lon="2.0284690">
        <ele>1374.6</ele>
        <time>2020-07-22T10:13:09Z</time>
      </trkpt>
      <trkpt lat="42.7254310" lon="2.0284230">
        <ele>1375.2</ele>
        <time>2020-07-22T10:13:12Z</time>
      </trkpt>
      <trkpt lat="42.7254480" lon="2.0283380">
        <ele>1375.4</ele>
        <time>2020-07-22T10:13:16Z</time>
      </trkpt>
      <trkpt lat="42.7254820" lon="2.0281810">
        <ele>1376.2</ele>
        <time>2020-07-22T10:13:22Z</time>
      </trkpt>
      <trkpt lat="42.7255050" lon="2.0281000">
        <ele>1377.0</ele>
        <time>2020-07-22T10:13:25Z</time>
      </trkpt>
      <trkpt lat="42.7255280" lon="2.0280350">
        <ele>1377.4</ele>
        <time>2020-07-22T10:13:28Z</time>
      </trkpt>
      <trkpt lat="42.7255640" lon="2.0279390">
        <ele>1378.2</ele>
        <time>2020-07-22T10:13:33Z</time>
      </trkpt>
      <trkpt lat="42.7255750" lon="2.0279170">
        <ele>1378.4</ele>
        <time>2020-07-22T10:13:34Z</time>
      </trkpt>
      <trkpt lat="42.7256180" lon="2.0277840">
        <ele>1379.2</ele>
        <time>2020-07-22T10:13:40Z</time>
      </trkpt>
      <trkpt lat="42.7256260" lon="2.0277640">
        <ele>1379.6</ele>
        <time>2020-07-22T10:13:41Z</time>
      </trkpt>
      <trkpt lat="42.7256880" lon="2.0276250">
        <ele>1380.4</ele>
        <time>2020-07-22T10:13:47Z</time>
      </trkpt>
      <trkpt lat="42.7257080" lon="2.0275740">
        <ele>1380.6</ele>
        <time>2020-07-22T10:13:49Z</time>
      </trkpt>
      <trkpt lat="42.7257640" lon="2.0274520">
        <ele>1381.6</ele>
        <time>2020-07-22T10:13:54Z</time>
      </trkpt>
      <trkpt lat="42.7258100" lon="2.0273930">
        <ele>1382.6</ele>
        <time>2020-07-22T10:13:57Z</time>
      </trkpt>
      <trkpt lat="42.7258290" lon="2.0273830">
        <ele>1382.8</ele>
        <time>2020-07-22T10:13:58Z</time>
      </trkpt>
      <trkpt lat="42.7258560" lon="2.0274050">
        <ele>1383.0</ele>
        <time>2020-07-22T10:14:00Z</time>
      </trkpt>
      <trkpt lat="42.7258430" lon="2.0275040">
        <ele>1384.0</ele>
        <time>2020-07-22T10:14:03Z</time>
      </trkpt>
      <trkpt lat="42.7258350" lon="2.0275410">
        <ele>1384.2</ele>
        <time>2020-07-22T10:14:04Z</time>
      </trkpt>
      <trkpt lat="42.7257900" lon="2.0277040">
        <ele>1385.0</ele>
        <time>2020-07-22T10:14:09Z</time>
      </trkpt>
      <trkpt lat="42.7257730" lon="2.0277630">
        <ele>1385.4</ele>
        <time>2020-07-22T10:14:11Z</time>
      </trkpt>
      <trkpt lat="42.7257570" lon="2.0278200">
        <ele>1385.8</ele>
        <time>2020-07-22T10:14:13Z</time>
      </trkpt>
      <trkpt lat="42.7257470" lon="2.0279210">
        <ele>1386.2</ele>
        <time>2020-07-22T10:14:16Z</time>
      </trkpt>
      <trkpt lat="42.7257420" lon="2.0279880">
        <ele>1386.6</ele>
        <time>2020-07-22T10:14:18Z</time>
      </trkpt>
      <trkpt lat="42.7257360" lon="2.0280860">
        <ele>1387.4</ele>
        <time>2020-07-22T10:14:21Z</time>
      </trkpt>
      <trkpt lat="42.7257270" lon="2.0282070">
        <ele>1388.2</ele>
        <time>2020-07-22T10:14:25Z</time>
      </trkpt>
      <trkpt lat="42.7257250" lon="2.0282360">
        <ele>1388.4</ele>
        <time>2020-07-22T10:14:26Z</time>
      </trkpt>
      <trkpt lat="42.7257090" lon="2.0283980">
        <ele>1389.8</ele>
        <time>2020-07-22T10:14:32Z</time>
      </trkpt>
      <trkpt lat="42.7257100" lon="2.0284240">
        <ele>1390.0</ele>
        <time>2020-07-22T10:14:33Z</time>
      </trkpt>
      <trkpt lat="42.7257400" lon="2.0284790">
        <ele>1390.6</ele>
        <time>2020-07-22T10:14:36Z</time>
      </trkpt>
      <trkpt lat="42.7257630" lon="2.0284820">
        <ele>1390.8</ele>
        <time>2020-07-22T10:14:37Z</time>
      </trkpt>
      <trkpt lat="42.7258430" lon="2.0284020">
        <ele>1391.4</ele>
        <time>2020-07-22T10:14:41Z</time>
      </trkpt>
      <trkpt lat="42.7258860" lon="2.0282370">
        <ele>1391.8</ele>
        <time>2020-07-22T10:14:46Z</time>
      </trkpt>
      <trkpt lat="42.7258920" lon="2.0282020">
        <ele>1392.0</ele>
        <time>2020-07-22T10:14:47Z</time>
      </trkpt>
      <trkpt lat="42.7259310" lon="2.0280140">
        <ele>1393.2</ele>
        <time>2020-07-22T10:14:53Z</time>
      </trkpt>
      <trkpt lat="42.7259400" lon="2.0279890">
        <ele>1393.2</ele>
        <time>2020-07-22T10:14:54Z</time>
      </trkpt>
      <trkpt lat="42.7260240" lon="2.0278380">
        <ele>1394.0</ele>
        <time>2020-07-22T10:15:00Z</time>
      </trkpt>
      <trkpt lat="42.7260340" lon="2.0278080">
        <ele>1394.2</ele>
        <time>2020-07-22T10:15:01Z</time>
      </trkpt>
      <trkpt lat="42.7260640" lon="2.0277200">
        <ele>1395.2</ele>
        <time>2020-07-22T10:15:04Z</time>
      </trkpt>
      <trkpt lat="42.7260910" lon="2.0276300">
        <ele>1395.8</ele>
        <time>2020-07-22T10:15:07Z</time>
      </trkpt>
      <trkpt lat="42.7261280" lon="2.0275520">
        <ele>1396.2</ele>
        <time>2020-07-22T10:15:10Z</time>
      </trkpt>
      <trkpt lat="42.7261600" lon="2.0274790">
        <ele>1396.8</ele>
        <time>2020-07-22T10:15:13Z</time>
      </trkpt>
      <trkpt lat="42.7262110" lon="2.0273470">
        <ele>1397.4</ele>
        <time>2020-07-22T10:15:18Z</time>
      </trkpt>
      <trkpt lat="42.7262320" lon="2.0272930">
        <ele>1397.8</ele>
        <time>2020-07-22T10:15:20Z</time>
      </trkpt>
      <trkpt lat="42.7262540" lon="2.0272420">
        <ele>1398.6</ele>
        <time>2020-07-22T10:15:22Z</time>
      </trkpt>
      <trkpt lat="42.7262970" lon="2.0271000">
        <ele>1399.6</ele>
        <time>2020-07-22T10:15:27Z</time>
      </trkpt>
      <trkpt lat="42.7263370" lon="2.0269890">
        <ele>1400.8</ele>
        <time>2020-07-22T10:15:31Z</time>
      </trkpt>
      <trkpt lat="42.7263800" lon="2.0268920">
        <ele>1401.6</ele>
        <time>2020-07-22T10:15:35Z</time>
      </trkpt>
      <trkpt lat="42.7263930" lon="2.0268680">
        <ele>1401.8</ele>
        <time>2020-07-22T10:15:36Z</time>
      </trkpt>
      <trkpt lat="42.7264610" lon="2.0267240">
        <ele>1403.2</ele>
        <time>2020-07-22T10:15:42Z</time>
      </trkpt>
      <trkpt lat="42.7265220" lon="2.0266010">
        <ele>1403.8</ele>
        <time>2020-07-22T10:15:47Z</time>
      </trkpt>
      <trkpt lat="42.7265420" lon="2.0265640">
        <ele>1404.2</ele>
        <time>2020-07-22T10:15:49Z</time>
      </trkpt>
      <trkpt lat="42.7265820" lon="2.0264760">
        <ele>1404.8</ele>
        <time>2020-07-22T10:15:53Z</time>
      </trkpt>
      <trkpt lat="42.7266050" lon="2.0263790">
        <ele>1405.4</ele>
        <time>2020-07-22T10:15:56Z</time>
      </trkpt>
      <trkpt lat="42.7266210" lon="2.0262440">
        <ele>1406.6</ele>
        <time>2020-07-22T10:16:00Z</time>
      </trkpt>
      <trkpt lat="42.7266290" lon="2.0261820">
        <ele>1407.0</ele>
        <time>2020-07-22T10:16:02Z</time>
      </trkpt>
      <trkpt lat="42.7266470" lon="2.0260950">
        <ele>1407.6</ele>
        <time>2020-07-22T10:16:05Z</time>
      </trkpt>
      <trkpt lat="42.7266670" lon="2.0259410">
        <ele>1408.6</ele>
        <time>2020-07-22T10:16:10Z</time>
      </trkpt>
      <trkpt lat="42.7266770" lon="2.0258200">
        <ele>1409.2</ele>
        <time>2020-07-22T10:16:14Z</time>
      </trkpt>
      <trkpt lat="42.7266720" lon="2.0257580">
        <ele>1409.6</ele>
        <time>2020-07-22T10:16:16Z</time>
      </trkpt>
      <trkpt lat="42.7266700" lon="2.0256420">
        <ele>1410.8</ele>
        <time>2020-07-22T10:16:20Z</time>
      </trkpt>
      <trkpt lat="42.7266670" lon="2.0255810">
        <ele>1411.4</ele>
        <time>2020-07-22T10:16:22Z</time>
      </trkpt>
      <trkpt lat="42.7266480" lon="2.0255080">
        <ele>1412.0</ele>
        <time>2020-07-22T10:16:25Z</time>
      </trkpt>
      <trkpt lat="42.7266350" lon="2.0254590">
        <ele>1412.2</ele>
        <time>2020-07-22T10:16:27Z</time>
      </trkpt>
      <trkpt lat="42.7266070" lon="2.0253370">
        <ele>1412.6</ele>
        <time>2020-07-22T10:16:33Z</time>
      </trkpt>
      <trkpt lat="42.7265900" lon="2.0252460">
        <ele>1413.2</ele>
        <time>2020-07-22T10:16:37Z</time>
      </trkpt>
      <trkpt lat="42.7265810" lon="2.0251980">
        <ele>1413.8</ele>
        <time>2020-07-22T10:16:39Z</time>
      </trkpt>
      <trkpt lat="42.7265730" lon="2.0251750">
        <ele>1414.2</ele>
        <time>2020-07-22T10:16:40Z</time>
      </trkpt>
      <trkpt lat="42.7265400" lon="2.0250510">
        <ele>1415.6</ele>
        <time>2020-07-22T10:16:45Z</time>
      </trkpt>
      <trkpt lat="42.7265340" lon="2.0249450">
        <ele>1416.6</ele>
        <time>2020-07-22T10:16:49Z</time>
      </trkpt>
      <trkpt lat="42.7265390" lon="2.0248300">
        <ele>1417.4</ele>
        <time>2020-07-22T10:16:53Z</time>
      </trkpt>
      <trkpt lat="42.7265430" lon="2.0248000">
        <ele>1417.6</ele>
        <time>2020-07-22T10:16:54Z</time>
      </trkpt>
      <trkpt lat="42.7265800" lon="2.0246490">
        <ele>1418.6</ele>
        <time>2020-07-22T10:16:59Z</time>
      </trkpt>
      <trkpt lat="42.7265970" lon="2.0245890">
        <ele>1418.8</ele>
        <time>2020-07-22T10:17:01Z</time>
      </trkpt>
      <trkpt lat="42.7266060" lon="2.0245600">
        <ele>1419.0</ele>
        <time>2020-07-22T10:17:02Z</time>
      </trkpt>
      <trkpt lat="42.7266190" lon="2.0245360">
        <ele>1419.2</ele>
        <time>2020-07-22T10:17:03Z</time>
      </trkpt>
      <trkpt lat="42.7266430" lon="2.0244860">
        <ele>1419.8</ele>
        <time>2020-07-22T10:17:05Z</time>
      </trkpt>
      <trkpt lat="42.7266610" lon="2.0244310">
        <ele>1420.2</ele>
        <time>2020-07-22T10:17:07Z</time>
      </trkpt>
      <trkpt lat="42.7266950" lon="2.0243580">
        <ele>1420.8</ele>
        <time>2020-07-22T10:17:10Z</time>
      </trkpt>
      <trkpt lat="42.7267350" lon="2.0242910">
        <ele>1421.2</ele>
        <time>2020-07-22T10:17:13Z</time>
      </trkpt>
      <trkpt lat="42.7267610" lon="2.0242470">
        <ele>1421.8</ele>
        <time>2020-07-22T10:17:15Z</time>
      </trkpt>
      <trkpt lat="42.7267750" lon="2.0242230">
        <ele>1421.8</ele>
        <time>2020-07-22T10:17:16Z</time>
      </trkpt>
      <trkpt lat="42.7268680" lon="2.0240900">
        <ele>1422.8</ele>
        <time>2020-07-22T10:17:22Z</time>
      </trkpt>
      <trkpt lat="42.7268820" lon="2.0240670">
        <ele>1423.0</ele>
        <time>2020-07-22T10:17:23Z</time>
      </trkpt>
      <trkpt lat="42.7269700" lon="2.0239410">
        <ele>1424.0</ele>
        <time>2020-07-22T10:17:29Z</time>
      </trkpt>
      <trkpt lat="42.7269960" lon="2.0238920">
        <ele>1424.4</ele>
        <time>2020-07-22T10:17:31Z</time>
      </trkpt>
      <trkpt lat="42.7270430" lon="2.0237890">
        <ele>1425.2</ele>
        <time>2020-07-22T10:17:35Z</time>
      </trkpt>
      <trkpt lat="42.7270680" lon="2.0237440">
        <ele>1425.6</ele>
        <time>2020-07-22T10:17:37Z</time>
      </trkpt>
      <trkpt lat="42.7271070" lon="2.0236850">
        <ele>1426.2</ele>
        <time>2020-07-22T10:17:40Z</time>
      </trkpt>
      <trkpt lat="42.7271180" lon="2.0236620">
        <ele>1426.4</ele>
        <time>2020-07-22T10:17:41Z</time>
      </trkpt>
      <trkpt lat="42.7271300" lon="2.0236390">
        <ele>1426.8</ele>
        <time>2020-07-22T10:17:42Z</time>
      </trkpt>
      <trkpt lat="42.7271680" lon="2.0235760">
        <ele>1427.4</ele>
        <time>2020-07-22T10:17:45Z</time>
      </trkpt>
      <trkpt lat="42.7271800" lon="2.0235560">
        <ele>1427.4</ele>
        <time>2020-07-22T10:17:46Z</time>
      </trkpt>
      <trkpt lat="42.7272560" lon="2.0234190">
        <ele>1428.6</ele>
        <time>2020-07-22T10:17:52Z</time>
      </trkpt>
      <trkpt lat="42.7273040" lon="2.0233350">
        <ele>1429.0</ele>
        <time>2020-07-22T10:17:55Z</time>
      </trkpt>
      <trkpt lat="42.7273490" lon="2.0232580">
        <ele>1429.6</ele>
        <time>2020-07-22T10:17:58Z</time>
      </trkpt>
      <trkpt lat="42.7274120" lon="2.0231690">
        <ele>1430.8</ele>
        <time>2020-07-22T10:18:02Z</time>
      </trkpt>
      <trkpt lat="42.7274460" lon="2.0231260">
        <ele>1431.2</ele>
        <time>2020-07-22T10:18:04Z</time>
      </trkpt>
      <trkpt lat="42.7274900" lon="2.0230510">
        <ele>1432.0</ele>
        <time>2020-07-22T10:18:07Z</time>
      </trkpt>
      <trkpt lat="42.7275630" lon="2.0229510">
        <ele>1433.2</ele>
        <time>2020-07-22T10:18:12Z</time>
      </trkpt>
      <trkpt lat="42.7275930" lon="2.0229120">
        <ele>1433.6</ele>
        <time>2020-07-22T10:18:14Z</time>
      </trkpt>
      <trkpt lat="42.7276420" lon="2.0228540">
        <ele>1434.2</ele>
        <time>2020-07-22T10:18:17Z</time>
      </trkpt>
      <trkpt lat="42.7276750" lon="2.0228190">
        <ele>1434.4</ele>
        <time>2020-07-22T10:18:19Z</time>
      </trkpt>
      <trkpt lat="42.7277400" lon="2.0227250">
        <ele>1435.2</ele>
        <time>2020-07-22T10:18:24Z</time>
      </trkpt>
      <trkpt lat="42.7277780" lon="2.0226660">
        <ele>1436.0</ele>
        <time>2020-07-22T10:18:27Z</time>
      </trkpt>
      <trkpt lat="42.7278150" lon="2.0226030">
        <ele>1436.4</ele>
        <time>2020-07-22T10:18:30Z</time>
      </trkpt>
      <trkpt lat="42.7278410" lon="2.0225640">
        <ele>1436.8</ele>
        <time>2020-07-22T10:18:32Z</time>
      </trkpt>
      <trkpt lat="42.7278790" lon="2.0225040">
        <ele>1437.6</ele>
        <time>2020-07-22T10:18:35Z</time>
      </trkpt>
      <trkpt lat="42.7278930" lon="2.0224860">
        <ele>1437.8</ele>
        <time>2020-07-22T10:18:36Z</time>
      </trkpt>
      <trkpt lat="42.7279440" lon="2.0223950">
        <ele>1438.6</ele>
        <time>2020-07-22T10:18:40Z</time>
      </trkpt>
      <trkpt lat="42.7279860" lon="2.0223290">
        <ele>1439.4</ele>
        <time>2020-07-22T10:18:43Z</time>
      </trkpt>
      <trkpt lat="42.7280120" lon="2.0222830">
        <ele>1439.8</ele>
        <time>2020-07-22T10:18:45Z</time>
      </trkpt>
      <trkpt lat="42.7280690" lon="2.0221640">
        <ele>1440.8</ele>
        <time>2020-07-22T10:18:50Z</time>
      </trkpt>
      <trkpt lat="42.7281430" lon="2.0220340">
        <ele>1442.0</ele>
        <time>2020-07-22T10:18:56Z</time>
      </trkpt>
      <trkpt lat="42.7281710" lon="2.0219640">
        <ele>1442.6</ele>
        <time>2020-07-22T10:18:59Z</time>
      </trkpt>
      <trkpt lat="42.7281870" lon="2.0219140">
        <ele>1443.0</ele>
        <time>2020-07-22T10:19:01Z</time>
      </trkpt>
      <trkpt lat="42.7282150" lon="2.0217990">
        <ele>1444.0</ele>
        <time>2020-07-22T10:19:06Z</time>
      </trkpt>
      <trkpt lat="42.7282240" lon="2.0217780">
        <ele>1444.0</ele>
        <time>2020-07-22T10:19:07Z</time>
      </trkpt>
      <trkpt lat="42.7282730" lon="2.0216660">
        <ele>1444.8</ele>
        <time>2020-07-22T10:19:12Z</time>
      </trkpt>
      <trkpt lat="42.7282820" lon="2.0216440">
        <ele>1445.0</ele>
        <time>2020-07-22T10:19:13Z</time>
      </trkpt>
      <trkpt lat="42.7282870" lon="2.0216190">
        <ele>1445.4</ele>
        <time>2020-07-22T10:19:14Z</time>
      </trkpt>
      <trkpt lat="42.7283010" lon="2.0215450">
        <ele>1446.0</ele>
        <time>2020-07-22T10:19:17Z</time>
      </trkpt>
      <trkpt lat="42.7283060" lon="2.0215200">
        <ele>1446.2</ele>
        <time>2020-07-22T10:19:18Z</time>
      </trkpt>
      <trkpt lat="42.7283390" lon="2.0213980">
        <ele>1447.0</ele>
        <time>2020-07-22T10:19:23Z</time>
      </trkpt>
      <trkpt lat="42.7283440" lon="2.0213740">
        <ele>1447.2</ele>
        <time>2020-07-22T10:19:24Z</time>
      </trkpt>
      <trkpt lat="42.7283910" lon="2.0212320">
        <ele>1448.4</ele>
        <time>2020-07-22T10:19:30Z</time>
      </trkpt>
      <trkpt lat="42.7284020" lon="2.0212070">
        <ele>1448.6</ele>
        <time>2020-07-22T10:19:31Z</time>
      </trkpt>
      <trkpt lat="42.7284440" lon="2.0211020">
        <ele>1449.4</ele>
        <time>2020-07-22T10:19:35Z</time>
      </trkpt>
      <trkpt lat="42.7285100" lon="2.0209400">
        <ele>1450.6</ele>
        <time>2020-07-22T10:19:41Z</time>
      </trkpt>
      <trkpt lat="42.7285950" lon="2.0207630">
        <ele>1451.8</ele>
        <time>2020-07-22T10:19:47Z</time>
      </trkpt>
      <trkpt lat="42.7286270" lon="2.0207130">
        <ele>1452.2</ele>
        <time>2020-07-22T10:19:49Z</time>
      </trkpt>
      <trkpt lat="42.7287060" lon="2.0205750">
        <ele>1453.0</ele>
        <time>2020-07-22T10:19:55Z</time>
      </trkpt>
      <trkpt lat="42.7287490" lon="2.0205050">
        <ele>1453.6</ele>
        <time>2020-07-22T10:19:58Z</time>
      </trkpt>
      <trkpt lat="42.7287980" lon="2.0204520">
        <ele>1454.2</ele>
        <time>2020-07-22T10:20:01Z</time>
      </trkpt>
      <trkpt lat="42.7288510" lon="2.0203820">
        <ele>1455.2</ele>
        <time>2020-07-22T10:20:05Z</time>
      </trkpt>
      <trkpt lat="42.7288590" lon="2.0203570">
        <ele>1455.4</ele>
        <time>2020-07-22T10:20:06Z</time>
      </trkpt>
      <trkpt lat="42.7288690" lon="2.0202220">
        <ele>1456.4</ele>
        <time>2020-07-22T10:20:11Z</time>
      </trkpt>
      <trkpt lat="42.7288690" lon="2.0201970">
        <ele>1456.6</ele>
        <time>2020-07-22T10:20:12Z</time>
      </trkpt>
      <trkpt lat="42.7288520" lon="2.0200700">
        <ele>1457.8</ele>
        <time>2020-07-22T10:20:17Z</time>
      </trkpt>
      <trkpt lat="42.7288390" lon="2.0200170">
        <ele>1458.2</ele>
        <time>2020-07-22T10:20:19Z</time>
      </trkpt>
      <trkpt lat="42.7288030" lon="2.0198960">
        <ele>1459.0</ele>
        <time>2020-07-22T10:20:24Z</time>
      </trkpt>
      <trkpt lat="42.7287740" lon="2.0198490">
        <ele>1459.4</ele>
        <time>2020-07-22T10:20:26Z</time>
      </trkpt>
      <trkpt lat="42.7287290" lon="2.0197470">
        <ele>1460.0</ele>
        <time>2020-07-22T10:20:30Z</time>
      </trkpt>
      <trkpt lat="42.7286960" lon="2.0196670">
        <ele>1460.6</ele>
        <time>2020-07-22T10:20:33Z</time>
      </trkpt>
      <trkpt lat="42.7286580" lon="2.0195770">
        <ele>1461.2</ele>
        <time>2020-07-22T10:20:36Z</time>
      </trkpt>
      <trkpt lat="42.7285900" lon="2.0194350">
        <ele>1461.8</ele>
        <time>2020-07-22T10:20:41Z</time>
      </trkpt>
      <trkpt lat="42.7285480" lon="2.0193510">
        <ele>1462.2</ele>
        <time>2020-07-22T10:20:44Z</time>
      </trkpt>
      <trkpt lat="42.7284750" lon="2.0192210">
        <ele>1463.0</ele>
        <time>2020-07-22T10:20:49Z</time>
      </trkpt>
      <trkpt lat="42.7284390" lon="2.0191730">
        <ele>1463.2</ele>
        <time>2020-07-22T10:20:51Z</time>
      </trkpt>
      <trkpt lat="42.7284030" lon="2.0191200">
        <ele>1463.2</ele>
        <time>2020-07-22T10:20:53Z</time>
      </trkpt>
      <trkpt lat="42.7283580" lon="2.0190380">
        <ele>1463.8</ele>
        <time>2020-07-22T10:20:56Z</time>
      </trkpt>
      <trkpt lat="42.7283180" lon="2.0189530">
        <ele>1464.2</ele>
        <time>2020-07-22T10:20:59Z</time>
      </trkpt>
      <trkpt lat="42.7282980" lon="2.0188960">
        <ele>1464.4</ele>
        <time>2020-07-22T10:21:01Z</time>
      </trkpt>
      <trkpt lat="42.7282690" lon="2.0188390">
        <ele>1464.6</ele>
        <time>2020-07-22T10:21:03Z</time>
      </trkpt>
      <trkpt lat="42.7282000" lon="2.0186800">
        <ele>1464.8</ele>
        <time>2020-07-22T10:21:08Z</time>
      </trkpt>
      <trkpt lat="42.7281420" lon="2.0185680">
        <ele>1465.4</ele>
        <time>2020-07-22T10:21:13Z</time>
      </trkpt>
      <trkpt lat="42.7281330" lon="2.0185460">
        <ele>1465.4</ele>
        <time>2020-07-22T10:21:14Z</time>
      </trkpt>
      <trkpt lat="42.7281160" lon="2.0184420">
        <ele>1465.8</ele>
        <time>2020-07-22T10:21:20Z</time>
      </trkpt>
      <trkpt lat="42.7281140" lon="2.0184160">
        <ele>1466.0</ele>
        <time>2020-07-22T10:21:22Z</time>
      </trkpt>
      <trkpt lat="42.7279250" lon="2.0176270">
        <ele>1470.4</ele>
        <time>2020-07-22T10:37:06Z</time>
      </trkpt>
      <trkpt lat="42.7279270" lon="2.0176700">
        <ele>1470.0</ele>
        <time>2020-07-22T10:37:07Z</time>
      </trkpt>
      <trkpt lat="42.7279570" lon="2.0179080">
        <ele>1469.6</ele>
        <time>2020-07-22T10:37:11Z</time>
      </trkpt>
      <trkpt lat="42.7279800" lon="2.0180240">
        <ele>1469.4</ele>
        <time>2020-07-22T10:37:13Z</time>
      </trkpt>
      <trkpt lat="42.7279870" lon="2.0180870">
        <ele>1469.2</ele>
        <time>2020-07-22T10:37:14Z</time>
      </trkpt>
      <trkpt lat="42.7280030" lon="2.0182790">
        <ele>1468.4</ele>
        <time>2020-07-22T10:37:17Z</time>
      </trkpt>
      <trkpt lat="42.7280110" lon="2.0183550">
        <ele>1468.4</ele>
        <time>2020-07-22T10:37:18Z</time>
      </trkpt>
      <trkpt lat="42.7281010" lon="2.0186790">
        <ele>1467.4</ele>
        <time>2020-07-22T10:37:22Z</time>
      </trkpt>
      <trkpt lat="42.7281970" lon="2.0188790">
        <ele>1467.4</ele>
        <time>2020-07-22T10:37:25Z</time>
      </trkpt>
      <trkpt lat="42.7282320" lon="2.0189360">
        <ele>1467.2</ele>
        <time>2020-07-22T10:37:26Z</time>
      </trkpt>
      <trkpt lat="42.7283010" lon="2.0190460">
        <ele>1466.8</ele>
        <time>2020-07-22T10:37:28Z</time>
      </trkpt>
      <trkpt lat="42.7283360" lon="2.0191090">
        <ele>1466.4</ele>
        <time>2020-07-22T10:37:29Z</time>
      </trkpt>
      <trkpt lat="42.7283720" lon="2.0191730">
        <ele>1465.8</ele>
        <time>2020-07-22T10:37:30Z</time>
      </trkpt>
      <trkpt lat="42.7284090" lon="2.0192360">
        <ele>1465.0</ele>
        <time>2020-07-22T10:37:31Z</time>
      </trkpt>
      <trkpt lat="42.7284440" lon="2.0192990">
        <ele>1464.4</ele>
        <time>2020-07-22T10:37:32Z</time>
      </trkpt>
      <trkpt lat="42.7284820" lon="2.0193610">
        <ele>1464.0</ele>
        <time>2020-07-22T10:37:33Z</time>
      </trkpt>
      <trkpt lat="42.7285560" lon="2.0194860">
        <ele>1463.4</ele>
        <time>2020-07-22T10:37:35Z</time>
      </trkpt>
      <trkpt lat="42.7287000" lon="2.0197730">
        <ele>1462.2</ele>
        <time>2020-07-22T10:37:40Z</time>
      </trkpt>
      <trkpt lat="42.7287830" lon="2.0199360">
        <ele>1461.8</ele>
        <time>2020-07-22T10:37:43Z</time>
      </trkpt>
      <trkpt lat="42.7288360" lon="2.0200420">
        <ele>1461.0</ele>
        <time>2020-07-22T10:37:45Z</time>
      </trkpt>
      <trkpt lat="42.7289100" lon="2.0202150">
        <ele>1460.4</ele>
        <time>2020-07-22T10:37:48Z</time>
      </trkpt>
      <trkpt lat="42.7290140" lon="2.0204620">
        <ele>1460.2</ele>
        <time>2020-07-22T10:37:52Z</time>
      </trkpt>
      <trkpt lat="42.7290790" lon="2.0206180">
        <ele>1460.6</ele>
        <time>2020-07-22T10:37:55Z</time>
      </trkpt>
      <trkpt lat="42.7291110" lon="2.0207740">
        <ele>1461.8</ele>
        <time>2020-07-22T10:37:59Z</time>
      </trkpt>
      <trkpt lat="42.7291200" lon="2.0208390">
        <ele>1462.2</ele>
        <time>2020-07-22T10:38:01Z</time>
      </trkpt>
      <trkpt lat="42.7291270" lon="2.0209380">
        <ele>1463.2</ele>
        <time>2020-07-22T10:38:04Z</time>
      </trkpt>
      <trkpt lat="42.7291270" lon="2.0209720">
        <ele>1463.6</ele>
        <time>2020-07-22T10:38:05Z</time>
      </trkpt>
      <trkpt lat="42.7291250" lon="2.0210070">
        <ele>1464.0</ele>
        <time>2020-07-22T10:38:06Z</time>
      </trkpt>
      <trkpt lat="42.7291180" lon="2.0210980">
        <ele>1464.6</ele>
        <time>2020-07-22T10:38:09Z</time>
      </trkpt>
      <trkpt lat="42.7291160" lon="2.0212090">
        <ele>1465.4</ele>
        <time>2020-07-22T10:38:13Z</time>
      </trkpt>
      <trkpt lat="42.7291160" lon="2.0212720">
        <ele>1465.6</ele>
        <time>2020-07-22T10:38:15Z</time>
      </trkpt>
      <trkpt lat="42.7291220" lon="2.0214280">
        <ele>1467.0</ele>
        <time>2020-07-22T10:38:20Z</time>
      </trkpt>
      <trkpt lat="42.7291180" lon="2.0216080">
        <ele>1468.0</ele>
        <time>2020-07-22T10:38:26Z</time>
      </trkpt>
      <trkpt lat="42.7291140" lon="2.0216970">
        <ele>1468.4</ele>
        <time>2020-07-22T10:38:29Z</time>
      </trkpt>
      <trkpt lat="42.7291120" lon="2.0217930">
        <ele>1469.2</ele>
        <time>2020-07-22T10:38:32Z</time>
      </trkpt>
      <trkpt lat="42.7291420" lon="2.0219090">
        <ele>1469.8</ele>
        <time>2020-07-22T10:38:37Z</time>
      </trkpt>
      <trkpt lat="42.7291710" lon="2.0219110">
        <ele>1470.2</ele>
        <time>2020-07-22T10:38:39Z</time>
      </trkpt>
      <trkpt lat="42.7292040" lon="2.0218800">
        <ele>1470.6</ele>
        <time>2020-07-22T10:38:41Z</time>
      </trkpt>
      <trkpt lat="42.7292570" lon="2.0217730">
        <ele>1471.4</ele>
        <time>2020-07-22T10:38:45Z</time>
      </trkpt>
      <trkpt lat="42.7292810" lon="2.0217240">
        <ele>1471.8</ele>
        <time>2020-07-22T10:38:47Z</time>
      </trkpt>
      <trkpt lat="42.7292920" lon="2.0216960">
        <ele>1472.0</ele>
        <time>2020-07-22T10:38:48Z</time>
      </trkpt>
      <trkpt lat="42.7293120" lon="2.0216400">
        <ele>1472.2</ele>
        <time>2020-07-22T10:38:50Z</time>
      </trkpt>
      <trkpt lat="42.7293210" lon="2.0216110">
        <ele>1472.4</ele>
        <time>2020-07-22T10:38:51Z</time>
      </trkpt>
      <trkpt lat="42.7293750" lon="2.0214950">
        <ele>1473.4</ele>
        <time>2020-07-22T10:38:56Z</time>
      </trkpt>
      <trkpt lat="42.7293850" lon="2.0214720">
        <ele>1473.6</ele>
        <time>2020-07-22T10:38:57Z</time>
      </trkpt>
      <trkpt lat="42.7293960" lon="2.0214500">
        <ele>1473.8</ele>
        <time>2020-07-22T10:38:58Z</time>
      </trkpt>
      <trkpt lat="42.7294070" lon="2.0214300">
        <ele>1474.0</ele>
        <time>2020-07-22T10:38:59Z</time>
      </trkpt>
      <trkpt lat="42.7294190" lon="2.0214100">
        <ele>1474.0</ele>
        <time>2020-07-22T10:39:00Z</time>
      </trkpt>
      <trkpt lat="42.7294660" lon="2.0213310">
        <ele>1474.6</ele>
        <time>2020-07-22T10:39:04Z</time>
      </trkpt>
      <trkpt lat="42.7294760" lon="2.0213090">
        <ele>1474.6</ele>
        <time>2020-07-22T10:39:05Z</time>
      </trkpt>
      <trkpt lat="42.7295060" lon="2.0212360">
        <ele>1475.0</ele>
        <time>2020-07-22T10:39:08Z</time>
      </trkpt>
      <trkpt lat="42.7295300" lon="2.0211490">
        <ele>1476.0</ele>
        <time>2020-07-22T10:39:11Z</time>
      </trkpt>
      <trkpt lat="42.7295350" lon="2.0211190">
        <ele>1476.4</ele>
        <time>2020-07-22T10:39:12Z</time>
      </trkpt>
      <trkpt lat="42.7295560" lon="2.0210250">
        <ele>1477.0</ele>
        <time>2020-07-22T10:39:15Z</time>
      </trkpt>
      <trkpt lat="42.7295800" lon="2.0209380">
        <ele>1477.4</ele>
        <time>2020-07-22T10:39:18Z</time>
      </trkpt>
      <trkpt lat="42.7295880" lon="2.0209100">
        <ele>1477.6</ele>
        <time>2020-07-22T10:39:19Z</time>
      </trkpt>
      <trkpt lat="42.7296010" lon="2.0208530">
        <ele>1478.0</ele>
        <time>2020-07-22T10:39:21Z</time>
      </trkpt>
      <trkpt lat="42.7296600" lon="2.0206880">
        <ele>1479.0</ele>
        <time>2020-07-22T10:39:27Z</time>
      </trkpt>
      <trkpt lat="42.7296690" lon="2.0206600">
        <ele>1479.0</ele>
        <time>2020-07-22T10:39:28Z</time>
      </trkpt>
      <trkpt lat="42.7296780" lon="2.0206310">
        <ele>1479.2</ele>
        <time>2020-07-22T10:39:29Z</time>
      </trkpt>
      <trkpt lat="42.7297070" lon="2.0205120">
        <ele>1480.4</ele>
        <time>2020-07-22T10:39:33Z</time>
      </trkpt>
      <trkpt lat="42.7297470" lon="2.0203760">
        <ele>1481.6</ele>
        <time>2020-07-22T10:39:38Z</time>
      </trkpt>
      <trkpt lat="42.7297590" lon="2.0203150">
        <ele>1482.0</ele>
        <time>2020-07-22T10:39:40Z</time>
      </trkpt>
      <trkpt lat="42.7297680" lon="2.0201900">
        <ele>1483.0</ele>
        <time>2020-07-22T10:39:44Z</time>
      </trkpt>
      <trkpt lat="42.7297720" lon="2.0201580">
        <ele>1483.2</ele>
        <time>2020-07-22T10:39:45Z</time>
      </trkpt>
      <trkpt lat="42.7297700" lon="2.0200960">
        <ele>1483.8</ele>
        <time>2020-07-22T10:39:47Z</time>
      </trkpt>
      <trkpt lat="42.7297660" lon="2.0200640">
        <ele>1484.0</ele>
        <time>2020-07-22T10:39:48Z</time>
      </trkpt>
      <trkpt lat="42.7297580" lon="2.0199740">
        <ele>1484.6</ele>
        <time>2020-07-22T10:39:51Z</time>
      </trkpt>
      <trkpt lat="42.7297580" lon="2.0199440">
        <ele>1484.8</ele>
        <time>2020-07-22T10:39:52Z</time>
      </trkpt>
      <trkpt lat="42.7297560" lon="2.0198870">
        <ele>1485.0</ele>
        <time>2020-07-22T10:39:54Z</time>
      </trkpt>
      <trkpt lat="42.7297650" lon="2.0197740">
        <ele>1486.0</ele>
        <time>2020-07-22T10:39:58Z</time>
      </trkpt>
      <trkpt lat="42.7297670" lon="2.0197440">
        <ele>1486.0</ele>
        <time>2020-07-22T10:39:59Z</time>
      </trkpt>
      <trkpt lat="42.7297890" lon="2.0196040">
        <ele>1487.2</ele>
        <time>2020-07-22T10:40:04Z</time>
      </trkpt>
      <trkpt lat="42.7297920" lon="2.0195490">
        <ele>1487.8</ele>
        <time>2020-07-22T10:40:06Z</time>
      </trkpt>
      <trkpt lat="42.7297910" lon="2.0194850">
        <ele>1488.4</ele>
        <time>2020-07-22T10:40:08Z</time>
      </trkpt>
      <trkpt lat="42.7298010" lon="2.0193940">
        <ele>1488.8</ele>
        <time>2020-07-22T10:40:11Z</time>
      </trkpt>
      <trkpt lat="42.7298020" lon="2.0193650">
        <ele>1488.8</ele>
        <time>2020-07-22T10:40:12Z</time>
      </trkpt>
      <trkpt lat="42.7298030" lon="2.0193350">
        <ele>1489.0</ele>
        <time>2020-07-22T10:40:13Z</time>
      </trkpt>
      <trkpt lat="42.7298050" lon="2.0192720">
        <ele>1489.4</ele>
        <time>2020-07-22T10:40:15Z</time>
      </trkpt>
      <trkpt lat="42.7298090" lon="2.0191340">
        <ele>1490.4</ele>
        <time>2020-07-22T10:40:20Z</time>
      </trkpt>
      <trkpt lat="42.7298100" lon="2.0191080">
        <ele>1490.8</ele>
        <time>2020-07-22T10:40:21Z</time>
      </trkpt>
      <trkpt lat="42.7297980" lon="2.0190380">
        <ele>1491.6</ele>
        <time>2020-07-22T10:40:24Z</time>
      </trkpt>
      <trkpt lat="42.7297920" lon="2.0189910">
        <ele>1492.0</ele>
        <time>2020-07-22T10:40:26Z</time>
      </trkpt>
      <trkpt lat="42.7297820" lon="2.0189510">
        <ele>1492.4</ele>
        <time>2020-07-22T10:40:28Z</time>
      </trkpt>
      <trkpt lat="42.7297800" lon="2.0189300">
        <ele>1492.6</ele>
        <time>2020-07-22T10:40:29Z</time>
      </trkpt>
      <trkpt lat="42.7297770" lon="2.0189100">
        <ele>1492.8</ele>
        <time>2020-07-22T10:40:30Z</time>
      </trkpt>
      <trkpt lat="42.7297670" lon="2.0188650">
        <ele>1493.2</ele>
        <time>2020-07-22T10:40:32Z</time>
      </trkpt>
      <trkpt lat="42.7297620" lon="2.0188070">
        <ele>1493.6</ele>
        <time>2020-07-22T10:40:34Z</time>
      </trkpt>
      <trkpt lat="42.7297620" lon="2.0187810">
        <ele>1494.0</ele>
        <time>2020-07-22T10:40:35Z</time>
      </trkpt>
      <trkpt lat="42.7297610" lon="2.0187590">
        <ele>1494.6</ele>
        <time>2020-07-22T10:40:36Z</time>
      </trkpt>
      <trkpt lat="42.7297580" lon="2.0187340">
        <ele>1494.8</ele>
        <time>2020-07-22T10:40:37Z</time>
      </trkpt>
      <trkpt lat="42.7297450" lon="2.0185890">
        <ele>1496.0</ele>
        <time>2020-07-22T10:40:42Z</time>
      </trkpt>
      <trkpt lat="42.7297450" lon="2.0185630">
        <ele>1496.2</ele>
        <time>2020-07-22T10:40:43Z</time>
      </trkpt>
      <trkpt lat="42.7297440" lon="2.0184500">
        <ele>1497.0</ele>
        <time>2020-07-22T10:40:47Z</time>
      </trkpt>
      <trkpt lat="42.7297230" lon="2.0183160">
        <ele>1498.0</ele>
        <time>2020-07-22T10:40:52Z</time>
      </trkpt>
      <trkpt lat="42.7296770" lon="2.0181620">
        <ele>1499.4</ele>
        <time>2020-07-22T10:40:57Z</time>
      </trkpt>
      <trkpt lat="42.7296560" lon="2.0180970">
        <ele>1499.8</ele>
        <time>2020-07-22T10:40:59Z</time>
      </trkpt>
      <trkpt lat="42.7296230" lon="2.0179770">
        <ele>1500.4</ele>
        <time>2020-07-22T10:41:03Z</time>
      </trkpt>
      <trkpt lat="42.7296010" lon="2.0178870">
        <ele>1501.6</ele>
        <time>2020-07-22T10:41:06Z</time>
      </trkpt>
      <trkpt lat="42.7295450" lon="2.0177130">
        <ele>1502.6</ele>
        <time>2020-07-22T10:41:12Z</time>
      </trkpt>
      <trkpt lat="42.7295220" lon="2.0176560">
        <ele>1503.4</ele>
        <time>2020-07-22T10:41:14Z</time>
      </trkpt>
      <trkpt lat="42.7295110" lon="2.0176260">
        <ele>1503.6</ele>
        <time>2020-07-22T10:41:15Z</time>
      </trkpt>
      <trkpt lat="42.7294470" lon="2.0174530">
        <ele>1504.8</ele>
        <time>2020-07-22T10:41:21Z</time>
      </trkpt>
      <trkpt lat="42.7294290" lon="2.0173190">
        <ele>1506.0</ele>
        <time>2020-07-22T10:41:25Z</time>
      </trkpt>
      <trkpt lat="42.7294260" lon="2.0172810">
        <ele>1506.2</ele>
        <time>2020-07-22T10:41:26Z</time>
      </trkpt>
      <trkpt lat="42.7294250" lon="2.0172440">
        <ele>1506.4</ele>
        <time>2020-07-22T10:41:27Z</time>
      </trkpt>
      <trkpt lat="42.7294260" lon="2.0171340">
        <ele>1507.0</ele>
        <time>2020-07-22T10:41:30Z</time>
      </trkpt>
      <trkpt lat="42.7294370" lon="2.0170040">
        <ele>1507.6</ele>
        <time>2020-07-22T10:41:34Z</time>
      </trkpt>
      <trkpt lat="42.7294440" lon="2.0169660">
        <ele>1507.8</ele>
        <time>2020-07-22T10:41:35Z</time>
      </trkpt>
      <trkpt lat="42.7294500" lon="2.0169290">
        <ele>1508.0</ele>
        <time>2020-07-22T10:41:36Z</time>
      </trkpt>
      <trkpt lat="42.7294870" lon="2.0167200">
        <ele>1509.2</ele>
        <time>2020-07-22T10:41:42Z</time>
      </trkpt>
      <trkpt lat="42.7294910" lon="2.0166850">
        <ele>1509.6</ele>
        <time>2020-07-22T10:41:43Z</time>
      </trkpt>
      <trkpt lat="42.7295380" lon="2.0165310">
        <ele>1510.4</ele>
        <time>2020-07-22T10:41:49Z</time>
      </trkpt>
      <trkpt lat="42.7295640" lon="2.0164190">
        <ele>1511.0</ele>
        <time>2020-07-22T10:41:53Z</time>
      </trkpt>
      <trkpt lat="42.7295750" lon="2.0163040">
        <ele>1511.4</ele>
        <time>2020-07-22T10:41:56Z</time>
      </trkpt>
      <trkpt lat="42.7295790" lon="2.0160690">
        <ele>1512.4</ele>
        <time>2020-07-22T10:42:01Z</time>
      </trkpt>
      <trkpt lat="42.7295630" lon="2.0159800">
        <ele>1512.8</ele>
        <time>2020-07-22T10:42:03Z</time>
      </trkpt>
      <trkpt lat="42.7295590" lon="2.0159310">
        <ele>1512.8</ele>
        <time>2020-07-22T10:42:04Z</time>
      </trkpt>
      <trkpt lat="42.7295350" lon="2.0156350">
        <ele>1513.8</ele>
        <time>2020-07-22T10:42:09Z</time>
      </trkpt>
      <trkpt lat="42.7295300" lon="2.0155790">
        <ele>1514.0</ele>
        <time>2020-07-22T10:42:10Z</time>
      </trkpt>
      <trkpt lat="42.7295150" lon="2.0153090">
        <ele>1514.8</ele>
        <time>2020-07-22T10:42:16Z</time>
      </trkpt>
      <trkpt lat="42.7295140" lon="2.0152630">
        <ele>1515.0</ele>
        <time>2020-07-22T10:42:17Z</time>
      </trkpt>
      <trkpt lat="42.7295320" lon="2.0149580">
        <ele>1515.8</ele>
        <time>2020-07-22T10:42:23Z</time>
      </trkpt>
      <trkpt lat="42.7295270" lon="2.0149160">
        <ele>1516.0</ele>
        <time>2020-07-22T10:42:24Z</time>
      </trkpt>
      <trkpt lat="42.7295140" lon="2.0148400">
        <ele>1516.4</ele>
        <time>2020-07-22T10:42:26Z</time>
      </trkpt>
      <trkpt lat="42.7294770" lon="2.0146590">
        <ele>1517.0</ele>
        <time>2020-07-22T10:42:30Z</time>
      </trkpt>
      <trkpt lat="42.7294610" lon="2.0145670">
        <ele>1517.4</ele>
        <time>2020-07-22T10:42:32Z</time>
      </trkpt>
      <trkpt lat="42.7294040" lon="2.0143650">
        <ele>1518.0</ele>
        <time>2020-07-22T10:42:37Z</time>
      </trkpt>
      <trkpt lat="42.7293860" lon="2.0142890">
        <ele>1518.2</ele>
        <time>2020-07-22T10:42:39Z</time>
      </trkpt>
      <trkpt lat="42.7293740" lon="2.0140700">
        <ele>1519.2</ele>
        <time>2020-07-22T10:42:44Z</time>
      </trkpt>
      <trkpt lat="42.7293680" lon="2.0140240">
        <ele>1519.2</ele>
        <time>2020-07-22T10:42:45Z</time>
      </trkpt>
      <trkpt lat="42.7293080" lon="2.0137510">
        <ele>1520.2</ele>
        <time>2020-07-22T10:42:51Z</time>
      </trkpt>
      <trkpt lat="42.7292920" lon="2.0137090">
        <ele>1520.4</ele>
        <time>2020-07-22T10:42:52Z</time>
      </trkpt>
      <trkpt lat="42.7292730" lon="2.0136660">
        <ele>1520.6</ele>
        <time>2020-07-22T10:42:53Z</time>
      </trkpt>
      <trkpt lat="42.7292160" lon="2.0135430">
        <ele>1521.2</ele>
        <time>2020-07-22T10:42:56Z</time>
      </trkpt>
      <trkpt lat="42.7291820" lon="2.0134600">
        <ele>1521.4</ele>
        <time>2020-07-22T10:42:58Z</time>
      </trkpt>
      <trkpt lat="42.7291460" lon="2.0133790">
        <ele>1521.8</ele>
        <time>2020-07-22T10:43:00Z</time>
      </trkpt>
      <trkpt lat="42.7290600" lon="2.0131700">
        <ele>1522.4</ele>
        <time>2020-07-22T10:43:05Z</time>
      </trkpt>
      <trkpt lat="42.7290250" lon="2.0130840">
        <ele>1522.6</ele>
        <time>2020-07-22T10:43:07Z</time>
      </trkpt>
      <trkpt lat="42.7289910" lon="2.0129970">
        <ele>1522.8</ele>
        <time>2020-07-22T10:43:09Z</time>
      </trkpt>
      <trkpt lat="42.7289050" lon="2.0127270">
        <ele>1523.6</ele>
        <time>2020-07-22T10:43:15Z</time>
      </trkpt>
      <trkpt lat="42.7288730" lon="2.0125780">
        <ele>1524.4</ele>
        <time>2020-07-22T10:43:18Z</time>
      </trkpt>
      <trkpt lat="42.7288670" lon="2.0125270">
        <ele>1524.8</ele>
        <time>2020-07-22T10:43:19Z</time>
      </trkpt>
      <trkpt lat="42.7288640" lon="2.0124240">
        <ele>1525.4</ele>
        <time>2020-07-22T10:43:21Z</time>
      </trkpt>
      <trkpt lat="42.7288680" lon="2.0123730">
        <ele>1525.6</ele>
        <time>2020-07-22T10:43:22Z</time>
      </trkpt>
      <trkpt lat="42.7288810" lon="2.0122760">
        <ele>1526.0</ele>
        <time>2020-07-22T10:43:24Z</time>
      </trkpt>
      <trkpt lat="42.7289120" lon="2.0119810">
        <ele>1527.0</ele>
        <time>2020-07-22T10:43:30Z</time>
      </trkpt>
      <trkpt lat="42.7289290" lon="2.0116750">
        <ele>1528.0</ele>
        <time>2020-07-22T10:43:36Z</time>
      </trkpt>
      <trkpt lat="42.7289310" lon="2.0115710">
        <ele>1528.2</ele>
        <time>2020-07-22T10:43:38Z</time>
      </trkpt>
      <trkpt lat="42.7289320" lon="2.0115190">
        <ele>1528.4</ele>
        <time>2020-07-22T10:43:39Z</time>
      </trkpt>
      <trkpt lat="42.7289340" lon="2.0114180">
        <ele>1528.8</ele>
        <time>2020-07-22T10:43:41Z</time>
      </trkpt>
      <trkpt lat="42.7289360" lon="2.0113690">
        <ele>1529.2</ele>
        <time>2020-07-22T10:43:42Z</time>
      </trkpt>
      <trkpt lat="42.7289380" lon="2.0113200">
        <ele>1529.4</ele>
        <time>2020-07-22T10:43:43Z</time>
      </trkpt>
      <trkpt lat="42.7289380" lon="2.0110190">
        <ele>1530.4</ele>
        <time>2020-07-22T10:43:49Z</time>
      </trkpt>
      <trkpt lat="42.7289350" lon="2.0109670">
        <ele>1530.4</ele>
        <time>2020-07-22T10:43:50Z</time>
      </trkpt>
      <trkpt lat="42.7289200" lon="2.0107000">
        <ele>1531.6</ele>
        <time>2020-07-22T10:43:55Z</time>
      </trkpt>
      <trkpt lat="42.7289050" lon="2.0105370">
        <ele>1532.2</ele>
        <time>2020-07-22T10:43:58Z</time>
      </trkpt>
      <trkpt lat="42.7288980" lon="2.0104300">
        <ele>1532.8</ele>
        <time>2020-07-22T10:44:00Z</time>
      </trkpt>
      <trkpt lat="42.7288630" lon="2.0101740">
        <ele>1533.4</ele>
        <time>2020-07-22T10:44:05Z</time>
      </trkpt>
      <trkpt lat="42.7288530" lon="2.0099800">
        <ele>1534.0</ele>
        <time>2020-07-22T10:44:09Z</time>
      </trkpt>
      <trkpt lat="42.7288550" lon="2.0098570">
        <ele>1534.4</ele>
        <time>2020-07-22T10:44:12Z</time>
      </trkpt>
      <trkpt lat="42.7288630" lon="2.0097820">
        <ele>1535.0</ele>
        <time>2020-07-22T10:44:14Z</time>
      </trkpt>
      <trkpt lat="42.7288890" lon="2.0095840">
        <ele>1535.4</ele>
        <time>2020-07-22T10:44:20Z</time>
      </trkpt>
      <trkpt lat="42.7288830" lon="2.0093620">
        <ele>1535.8</ele>
        <time>2020-07-22T10:44:26Z</time>
      </trkpt>
      <trkpt lat="42.7288840" lon="2.0093170">
        <ele>1536.0</ele>
        <time>2020-07-22T10:44:27Z</time>
      </trkpt>
      <trkpt lat="42.7289000" lon="2.0090230">
        <ele>1537.0</ele>
        <time>2020-07-22T10:44:33Z</time>
      </trkpt>
      <trkpt lat="42.7289030" lon="2.0089730">
        <ele>1537.2</ele>
        <time>2020-07-22T10:44:34Z</time>
      </trkpt>
      <trkpt lat="42.7289090" lon="2.0088240">
        <ele>1537.8</ele>
        <time>2020-07-22T10:44:37Z</time>
      </trkpt>
      <trkpt lat="42.7289080" lon="2.0086750">
        <ele>1538.4</ele>
        <time>2020-07-22T10:44:40Z</time>
      </trkpt>
      <trkpt lat="42.7289040" lon="2.0085750">
        <ele>1538.6</ele>
        <time>2020-07-22T10:44:42Z</time>
      </trkpt>
      <trkpt lat="42.7288870" lon="2.0083790">
        <ele>1539.2</ele>
        <time>2020-07-22T10:44:46Z</time>
      </trkpt>
      <trkpt lat="42.7288810" lon="2.0083310">
        <ele>1539.4</ele>
        <time>2020-07-22T10:44:47Z</time>
      </trkpt>
      <trkpt lat="42.7288500" lon="2.0080860">
        <ele>1540.4</ele>
        <time>2020-07-22T10:44:52Z</time>
      </trkpt>
      <trkpt lat="42.7288440" lon="2.0080360">
        <ele>1540.6</ele>
        <time>2020-07-22T10:44:53Z</time>
      </trkpt>
      <trkpt lat="42.7287890" lon="2.0077400">
        <ele>1541.6</ele>
        <time>2020-07-22T10:44:59Z</time>
      </trkpt>
      <trkpt lat="42.7287810" lon="2.0076920">
        <ele>1542.0</ele>
        <time>2020-07-22T10:45:00Z</time>
      </trkpt>
      <trkpt lat="42.7287560" lon="2.0075440">
        <ele>1542.8</ele>
        <time>2020-07-22T10:45:03Z</time>
      </trkpt>
      <trkpt lat="42.7287530" lon="2.0072960">
        <ele>1543.8</ele>
        <time>2020-07-22T10:45:08Z</time>
      </trkpt>
      <trkpt lat="42.7287540" lon="2.0072530">
        <ele>1544.0</ele>
        <time>2020-07-22T10:45:09Z</time>
      </trkpt>
      <trkpt lat="42.7287690" lon="2.0070380">
        <ele>1544.6</ele>
        <time>2020-07-22T10:45:14Z</time>
      </trkpt>
      <trkpt lat="42.7287660" lon="2.0069360">
        <ele>1545.2</ele>
        <time>2020-07-22T10:45:16Z</time>
      </trkpt>
      <trkpt lat="42.7287190" lon="2.0067680">
        <ele>1545.6</ele>
        <time>2020-07-22T10:45:20Z</time>
      </trkpt>
      <trkpt lat="42.7286450" lon="2.0064860">
        <ele>1546.4</ele>
        <time>2020-07-22T10:45:26Z</time>
      </trkpt>
      <trkpt lat="42.7286310" lon="2.0063920">
        <ele>1547.0</ele>
        <time>2020-07-22T10:45:28Z</time>
      </trkpt>
      <trkpt lat="42.7286290" lon="2.0063430">
        <ele>1547.2</ele>
        <time>2020-07-22T10:45:29Z</time>
      </trkpt>
      <trkpt lat="42.7286310" lon="2.0062460">
        <ele>1547.6</ele>
        <time>2020-07-22T10:45:31Z</time>
      </trkpt>
      <trkpt lat="42.7286560" lon="2.0061110">
        <ele>1548.0</ele>
        <time>2020-07-22T10:45:34Z</time>
      </trkpt>
      <trkpt lat="42.7286980" lon="2.0059860">
        <ele>1548.8</ele>
        <time>2020-07-22T10:45:37Z</time>
      </trkpt>
      <trkpt lat="42.7287340" lon="2.0058120">
        <ele>1549.6</ele>
        <time>2020-07-22T10:45:41Z</time>
      </trkpt>
      <trkpt lat="42.7287380" lon="2.0057670">
        <ele>1549.8</ele>
        <time>2020-07-22T10:45:42Z</time>
      </trkpt>
      <trkpt lat="42.7287290" lon="2.0055530">
        <ele>1551.0</ele>
        <time>2020-07-22T10:45:47Z</time>
      </trkpt>
      <trkpt lat="42.7287220" lon="2.0055100">
        <ele>1551.4</ele>
        <time>2020-07-22T10:45:48Z</time>
      </trkpt>
      <trkpt lat="42.7286950" lon="2.0053930">
        <ele>1552.2</ele>
        <time>2020-07-22T10:45:51Z</time>
      </trkpt>
      <trkpt lat="42.7286720" lon="2.0052800">
        <ele>1552.6</ele>
        <time>2020-07-22T10:45:54Z</time>
      </trkpt>
      <trkpt lat="42.7286450" lon="2.0051680">
        <ele>1553.2</ele>
        <time>2020-07-22T10:45:57Z</time>
      </trkpt>
      <trkpt lat="42.7286160" lon="2.0050670">
        <ele>1554.2</ele>
        <time>2020-07-22T10:46:00Z</time>
      </trkpt>
      <trkpt lat="42.7285970" lon="2.0050050">
        <ele>1555.0</ele>
        <time>2020-07-22T10:46:02Z</time>
      </trkpt>
      <trkpt lat="42.7285770" lon="2.0049450">
        <ele>1555.2</ele>
        <time>2020-07-22T10:46:04Z</time>
      </trkpt>
      <trkpt lat="42.7285200" lon="2.0048070">
        <ele>1556.2</ele>
        <time>2020-07-22T10:46:09Z</time>
      </trkpt>
      <trkpt lat="42.7284940" lon="2.0047500">
        <ele>1556.8</ele>
        <time>2020-07-22T10:46:11Z</time>
      </trkpt>
      <trkpt lat="42.7284670" lon="2.0046930">
        <ele>1557.4</ele>
        <time>2020-07-22T10:46:13Z</time>
      </trkpt>
      <trkpt lat="42.7284250" lon="2.0046210">
        <ele>1558.0</ele>
        <time>2020-07-22T10:46:16Z</time>
      </trkpt>
      <trkpt lat="42.7283970" lon="2.0045690">
        <ele>1558.6</ele>
        <time>2020-07-22T10:46:18Z</time>
      </trkpt>
      <trkpt lat="42.7283830" lon="2.0045440">
        <ele>1558.8</ele>
        <time>2020-07-22T10:46:19Z</time>
      </trkpt>
      <trkpt lat="42.7283390" lon="2.0044370">
        <ele>1559.8</ele>
        <time>2020-07-22T10:46:23Z</time>
      </trkpt>
      <trkpt lat="42.7283170" lon="2.0043110">
        <ele>1560.8</ele>
        <time>2020-07-22T10:46:27Z</time>
      </trkpt>
      <trkpt lat="42.7283270" lon="2.0041960">
        <ele>1561.8</ele>
        <time>2020-07-22T10:46:31Z</time>
      </trkpt>
      <trkpt lat="42.7283310" lon="2.0041680">
        <ele>1562.0</ele>
        <time>2020-07-22T10:46:32Z</time>
      </trkpt>
      <trkpt lat="42.7283380" lon="2.0041380">
        <ele>1562.2</ele>
        <time>2020-07-22T10:46:33Z</time>
      </trkpt>
      <trkpt lat="42.7283650" lon="2.0040410">
        <ele>1563.2</ele>
        <time>2020-07-22T10:46:36Z</time>
      </trkpt>
      <trkpt lat="42.7283910" lon="2.0039180">
        <ele>1564.4</ele>
        <time>2020-07-22T10:46:40Z</time>
      </trkpt>
      <trkpt lat="42.7284050" lon="2.0038610">
        <ele>1565.0</ele>
        <time>2020-07-22T10:46:42Z</time>
      </trkpt>
      <trkpt lat="42.7284220" lon="2.0038050">
        <ele>1565.4</ele>
        <time>2020-07-22T10:46:44Z</time>
      </trkpt>
      <trkpt lat="42.7284320" lon="2.0037780">
        <ele>1565.6</ele>
        <time>2020-07-22T10:46:45Z</time>
      </trkpt>
      <trkpt lat="42.7284660" lon="2.0036820">
        <ele>1566.0</ele>
        <time>2020-07-22T10:46:49Z</time>
      </trkpt>
      <trkpt lat="42.7284880" lon="2.0036370">
        <ele>1566.6</ele>
        <time>2020-07-22T10:46:51Z</time>
      </trkpt>
      <trkpt lat="42.7285180" lon="2.0035640">
        <ele>1567.8</ele>
        <time>2020-07-22T10:46:54Z</time>
      </trkpt>
      <trkpt lat="42.7285280" lon="2.0035090">
        <ele>1568.2</ele>
        <time>2020-07-22T10:46:56Z</time>
      </trkpt>
      <trkpt lat="42.7285400" lon="2.0034120">
        <ele>1569.0</ele>
        <time>2020-07-22T10:46:59Z</time>
      </trkpt>
      <trkpt lat="42.7285440" lon="2.0032420">
        <ele>1570.2</ele>
        <time>2020-07-22T10:47:04Z</time>
      </trkpt>
      <trkpt lat="42.7285740" lon="2.0030500">
        <ele>1571.4</ele>
        <time>2020-07-22T10:47:10Z</time>
      </trkpt>
      <trkpt lat="42.7285950" lon="2.0029590">
        <ele>1572.2</ele>
        <time>2020-07-22T10:47:13Z</time>
      </trkpt>
      <trkpt lat="42.7286110" lon="2.0028740">
        <ele>1572.8</ele>
        <time>2020-07-22T10:47:16Z</time>
      </trkpt>
      <trkpt lat="42.7286080" lon="2.0028450">
        <ele>1573.0</ele>
        <time>2020-07-22T10:47:17Z</time>
      </trkpt>
      <trkpt lat="42.7286010" lon="2.0027840">
        <ele>1573.4</ele>
        <time>2020-07-22T10:47:19Z</time>
      </trkpt>
      <trkpt lat="42.7286000" lon="2.0026960">
        <ele>1573.8</ele>
        <time>2020-07-22T10:47:22Z</time>
      </trkpt>
      <trkpt lat="42.7285930" lon="2.0026650">
        <ele>1574.2</ele>
        <time>2020-07-22T10:47:23Z</time>
      </trkpt>
      <trkpt lat="42.7285840" lon="2.0026020">
        <ele>1574.8</ele>
        <time>2020-07-22T10:47:25Z</time>
      </trkpt>
      <trkpt lat="42.7285730" lon="2.0024550">
        <ele>1575.4</ele>
        <time>2020-07-22T10:47:30Z</time>
      </trkpt>
      <trkpt lat="42.7285750" lon="2.0024280">
        <ele>1575.4</ele>
        <time>2020-07-22T10:47:31Z</time>
      </trkpt>
      <trkpt lat="42.7285840" lon="2.0023670">
        <ele>1575.8</ele>
        <time>2020-07-22T10:47:33Z</time>
      </trkpt>
      <trkpt lat="42.7286150" lon="2.0023250">
        <ele>1576.2</ele>
        <time>2020-07-22T10:47:35Z</time>
      </trkpt>
      <trkpt lat="42.7286390" lon="2.0023250">
        <ele>1576.6</ele>
        <time>2020-07-22T10:47:36Z</time>
      </trkpt>
      <trkpt lat="42.7286680" lon="2.0024050">
        <ele>1577.0</ele>
        <time>2020-07-22T10:47:39Z</time>
      </trkpt>
      <trkpt lat="42.7286690" lon="2.0025190">
        <ele>1577.4</ele>
        <time>2020-07-22T10:47:44Z</time>
      </trkpt>
      <trkpt lat="42.7286980" lon="2.0026120">
        <ele>1577.4</ele>
        <time>2020-07-22T10:48:22Z</time>
      </trkpt>
      <trkpt lat="42.7287010" lon="2.0026300">
        <ele>1577.4</ele>
        <time>2020-07-22T10:48:23Z</time>
      </trkpt>
      <trkpt lat="42.7287090" lon="2.0027000">
        <ele>1578.0</ele>
        <time>2020-07-22T10:48:26Z</time>
      </trkpt>
      <trkpt lat="42.7287260" lon="2.0027650">
        <ele>1578.4</ele>
        <time>2020-07-22T10:48:28Z</time>
      </trkpt>
      <trkpt lat="42.7287530" lon="2.0028630">
        <ele>1579.0</ele>
        <time>2020-07-22T10:48:31Z</time>
      </trkpt>
      <trkpt lat="42.7287830" lon="2.0029460">
        <ele>1580.2</ele>
        <time>2020-07-22T10:48:34Z</time>
      </trkpt>
      <trkpt lat="42.7287930" lon="2.0029750">
        <ele>1580.4</ele>
        <time>2020-07-22T10:48:35Z</time>
      </trkpt>
      <trkpt lat="42.7288090" lon="2.0030330">
        <ele>1581.0</ele>
        <time>2020-07-22T10:48:37Z</time>
      </trkpt>
      <trkpt lat="42.7288160" lon="2.0030660">
        <ele>1581.4</ele>
        <time>2020-07-22T10:48:38Z</time>
      </trkpt>
      <trkpt lat="42.7288380" lon="2.0031960">
        <ele>1582.6</ele>
        <time>2020-07-22T10:48:42Z</time>
      </trkpt>
      <trkpt lat="42.7288340" lon="2.0033290">
        <ele>1583.4</ele>
        <time>2020-07-22T10:48:46Z</time>
      </trkpt>
      <trkpt lat="42.7288310" lon="2.0033620">
        <ele>1583.6</ele>
        <time>2020-07-22T10:48:47Z</time>
      </trkpt>
      <trkpt lat="42.7288060" lon="2.0035230">
        <ele>1584.8</ele>
        <time>2020-07-22T10:48:52Z</time>
      </trkpt>
      <trkpt lat="42.7288060" lon="2.0035870">
        <ele>1585.2</ele>
        <time>2020-07-22T10:48:54Z</time>
      </trkpt>
      <trkpt lat="42.7288140" lon="2.0036120">
        <ele>1585.4</ele>
        <time>2020-07-22T10:48:55Z</time>
      </trkpt>
      <trkpt lat="42.7288280" lon="2.0036310">
        <ele>1585.8</ele>
        <time>2020-07-22T10:48:56Z</time>
      </trkpt>
      <trkpt lat="42.7288460" lon="2.0036380">
        <ele>1586.0</ele>
        <time>2020-07-22T10:48:57Z</time>
      </trkpt>
      <trkpt lat="42.7288650" lon="2.0036320">
        <ele>1586.0</ele>
        <time>2020-07-22T10:48:58Z</time>
      </trkpt>
      <trkpt lat="42.7289200" lon="2.0035310">
        <ele>1587.0</ele>
        <time>2020-07-22T10:49:02Z</time>
      </trkpt>
      <trkpt lat="42.7289570" lon="2.0033360">
        <ele>1588.0</ele>
        <time>2020-07-22T10:49:08Z</time>
      </trkpt>
      <trkpt lat="42.7289620" lon="2.0033040">
        <ele>1588.0</ele>
        <time>2020-07-22T10:49:09Z</time>
      </trkpt>
      <trkpt lat="42.7289800" lon="2.0031520">
        <ele>1589.2</ele>
        <time>2020-07-22T10:49:14Z</time>
      </trkpt>
      <trkpt lat="42.7290060" lon="2.0031030">
        <ele>1589.4</ele>
        <time>2020-07-22T10:49:16Z</time>
      </trkpt>
      <trkpt lat="42.7290250" lon="2.0030890">
        <ele>1589.6</ele>
        <time>2020-07-22T10:49:17Z</time>
      </trkpt>
      <trkpt lat="42.7290600" lon="2.0031100">
        <ele>1590.2</ele>
        <time>2020-07-22T10:49:19Z</time>
      </trkpt>
      <trkpt lat="42.7290740" lon="2.0032000">
        <ele>1591.0</ele>
        <time>2020-07-22T10:49:22Z</time>
      </trkpt>
      <trkpt lat="42.7290690" lon="2.0032700">
        <ele>1591.4</ele>
        <time>2020-07-22T10:49:24Z</time>
      </trkpt>
      <trkpt lat="42.7290450" lon="2.0033970">
        <ele>1592.2</ele>
        <time>2020-07-22T10:49:28Z</time>
      </trkpt>
      <trkpt lat="42.7290360" lon="2.0034260">
        <ele>1592.4</ele>
        <time>2020-07-22T10:49:29Z</time>
      </trkpt>
      <trkpt lat="42.7290260" lon="2.0034930">
        <ele>1592.8</ele>
        <time>2020-07-22T10:49:31Z</time>
      </trkpt>
      <trkpt lat="42.7289860" lon="2.0036570">
        <ele>1593.6</ele>
        <time>2020-07-22T10:49:36Z</time>
      </trkpt>
      <trkpt lat="42.7289640" lon="2.0037180">
        <ele>1594.2</ele>
        <time>2020-07-22T10:49:38Z</time>
      </trkpt>
      <trkpt lat="42.7289390" lon="2.0037760">
        <ele>1594.6</ele>
        <time>2020-07-22T10:49:40Z</time>
      </trkpt>
      <trkpt lat="42.7288760" lon="2.0038820">
        <ele>1595.6</ele>
        <time>2020-07-22T10:49:44Z</time>
      </trkpt>
      <trkpt lat="42.7288600" lon="2.0039040">
        <ele>1596.0</ele>
        <time>2020-07-22T10:49:45Z</time>
      </trkpt>
      <trkpt lat="42.7287860" lon="2.0040490">
        <ele>1596.4</ele>
        <time>2020-07-22T10:49:50Z</time>
      </trkpt>
      <trkpt lat="42.7287930" lon="2.0040750">
        <ele>1596.4</ele>
        <time>2020-07-22T10:49:51Z</time>
      </trkpt>
      <trkpt lat="42.7288280" lon="2.0040970">
        <ele>1597.0</ele>
        <time>2020-07-22T10:49:53Z</time>
      </trkpt>
      <trkpt lat="42.7288890" lon="2.0040250">
        <ele>1597.8</ele>
        <time>2020-07-22T10:49:56Z</time>
      </trkpt>
      <trkpt lat="42.7289090" lon="2.0039940">
        <ele>1598.0</ele>
        <time>2020-07-22T10:49:57Z</time>
      </trkpt>
      <trkpt lat="42.7290100" lon="2.0038230">
        <ele>1599.0</ele>
        <time>2020-07-22T10:50:03Z</time>
      </trkpt>
      <trkpt lat="42.7290280" lon="2.0037990">
        <ele>1599.2</ele>
        <time>2020-07-22T10:50:04Z</time>
      </trkpt>
      <trkpt lat="42.7291080" lon="2.0036690">
        <ele>1600.2</ele>
        <time>2020-07-22T10:50:09Z</time>
      </trkpt>
      <trkpt lat="42.7291650" lon="2.0035710">
        <ele>1601.0</ele>
        <time>2020-07-22T10:50:13Z</time>
      </trkpt>
      <trkpt lat="42.7291750" lon="2.0035450">
        <ele>1601.4</ele>
        <time>2020-07-22T10:50:14Z</time>
      </trkpt>
      <trkpt lat="42.7292150" lon="2.0034320">
        <ele>1602.2</ele>
        <time>2020-07-22T10:50:18Z</time>
      </trkpt>
      <trkpt lat="42.7292280" lon="2.0034080">
        <ele>1602.4</ele>
        <time>2020-07-22T10:50:19Z</time>
      </trkpt>
      <trkpt lat="42.7292400" lon="2.0033810">
        <ele>1602.8</ele>
        <time>2020-07-22T10:50:20Z</time>
      </trkpt>
      <trkpt lat="42.7292670" lon="2.0032900">
        <ele>1603.6</ele>
        <time>2020-07-22T10:50:23Z</time>
      </trkpt>
      <trkpt lat="42.7293050" lon="2.0031460">
        <ele>1604.8</ele>
        <time>2020-07-22T10:50:28Z</time>
      </trkpt>
      <trkpt lat="42.7293220" lon="2.0030000">
        <ele>1605.6</ele>
        <time>2020-07-22T10:50:33Z</time>
      </trkpt>
      <trkpt lat="42.7293250" lon="2.0029680">
        <ele>1605.8</ele>
        <time>2020-07-22T10:50:34Z</time>
      </trkpt>
      <trkpt lat="42.7293360" lon="2.0029380">
        <ele>1606.2</ele>
        <time>2020-07-22T10:50:35Z</time>
      </trkpt>
      <trkpt lat="42.7293530" lon="2.0028820">
        <ele>1606.8</ele>
        <time>2020-07-22T10:50:37Z</time>
      </trkpt>
      <trkpt lat="42.7293760" lon="2.0027920">
        <ele>1607.6</ele>
        <time>2020-07-22T10:50:40Z</time>
      </trkpt>
      <trkpt lat="42.7293840" lon="2.0027370">
        <ele>1608.0</ele>
        <time>2020-07-22T10:50:42Z</time>
      </trkpt>
      <trkpt lat="42.7294000" lon="2.0026010">
        <ele>1609.0</ele>
        <time>2020-07-22T10:50:47Z</time>
      </trkpt>
      <trkpt lat="42.7294040" lon="2.0025730">
        <ele>1609.2</ele>
        <time>2020-07-22T10:50:48Z</time>
      </trkpt>
      <trkpt lat="42.7293970" lon="2.0024330">
        <ele>1610.0</ele>
        <time>2020-07-22T10:50:53Z</time>
      </trkpt>
      <trkpt lat="42.7293970" lon="2.0024080">
        <ele>1610.4</ele>
        <time>2020-07-22T10:50:54Z</time>
      </trkpt>
      <trkpt lat="42.7293890" lon="2.0023250">
        <ele>1611.4</ele>
        <time>2020-07-22T10:50:57Z</time>
      </trkpt>
      <trkpt lat="42.7294120" lon="2.0022140">
        <ele>1612.2</ele>
        <time>2020-07-22T10:51:01Z</time>
      </trkpt>
      <trkpt lat="42.7294280" lon="2.0021960">
        <ele>1612.6</ele>
        <time>2020-07-22T10:51:02Z</time>
      </trkpt>
      <trkpt lat="42.7294480" lon="2.0021850">
        <ele>1612.6</ele>
        <time>2020-07-22T10:51:03Z</time>
      </trkpt>
      <trkpt lat="42.7294840" lon="2.0022070">
        <ele>1613.0</ele>
        <time>2020-07-22T10:51:05Z</time>
      </trkpt>
      <trkpt lat="42.7295050" lon="2.0022940">
        <ele>1613.6</ele>
        <time>2020-07-22T10:51:08Z</time>
      </trkpt>
      <trkpt lat="42.7295130" lon="2.0023520">
        <ele>1614.0</ele>
        <time>2020-07-22T10:51:10Z</time>
      </trkpt>
      <trkpt lat="42.7295240" lon="2.0024700">
        <ele>1614.8</ele>
        <time>2020-07-22T10:51:14Z</time>
      </trkpt>
      <trkpt lat="42.7295430" lon="2.0025880">
        <ele>1615.8</ele>
        <time>2020-07-22T10:51:18Z</time>
      </trkpt>
      <trkpt lat="42.7295510" lon="2.0026130">
        <ele>1616.0</ele>
        <time>2020-07-22T10:51:19Z</time>
      </trkpt>
      <trkpt lat="42.7295820" lon="2.0027440">
        <ele>1616.8</ele>
        <time>2020-07-22T10:51:24Z</time>
      </trkpt>
      <trkpt lat="42.7295940" lon="2.0028110">
        <ele>1617.6</ele>
        <time>2020-07-22T10:51:27Z</time>
      </trkpt>
      <trkpt lat="42.7295940" lon="2.0028360">
        <ele>1618.0</ele>
        <time>2020-07-22T10:51:28Z</time>
      </trkpt>
      <trkpt lat="42.7296000" lon="2.0029270">
        <ele>1619.0</ele>
        <time>2020-07-22T10:51:31Z</time>
      </trkpt>
      <trkpt lat="42.7296040" lon="2.0030250">
        <ele>1619.6</ele>
        <time>2020-07-22T10:51:34Z</time>
      </trkpt>
      <trkpt lat="42.7296050" lon="2.0030940">
        <ele>1620.2</ele>
        <time>2020-07-22T10:51:36Z</time>
      </trkpt>
      <trkpt lat="42.7296000" lon="2.0032170">
        <ele>1621.2</ele>
        <time>2020-07-22T10:51:40Z</time>
      </trkpt>
      <trkpt lat="42.7295900" lon="2.0032800">
        <ele>1621.8</ele>
        <time>2020-07-22T10:51:42Z</time>
      </trkpt>
      <trkpt lat="42.7295810" lon="2.0033430">
        <ele>1622.4</ele>
        <time>2020-07-22T10:51:44Z</time>
      </trkpt>
      <trkpt lat="42.7295730" lon="2.0034160">
        <ele>1622.8</ele>
        <time>2020-07-22T10:51:46Z</time>
      </trkpt>
      <trkpt lat="42.7295720" lon="2.0034480">
        <ele>1623.2</ele>
        <time>2020-07-22T10:51:47Z</time>
      </trkpt>
      <trkpt lat="42.7295690" lon="2.0034790">
        <ele>1623.4</ele>
        <time>2020-07-22T10:51:48Z</time>
      </trkpt>
      <trkpt lat="42.7295670" lon="2.0035090">
        <ele>1623.8</ele>
        <time>2020-07-22T10:51:49Z</time>
      </trkpt>
      <trkpt lat="42.7295630" lon="2.0035400">
        <ele>1624.0</ele>
        <time>2020-07-22T10:51:50Z</time>
      </trkpt>
      <trkpt lat="42.7295550" lon="2.0035700">
        <ele>1624.2</ele>
        <time>2020-07-22T10:51:51Z</time>
      </trkpt>
      <trkpt lat="42.7295480" lon="2.0036010">
        <ele>1624.4</ele>
        <time>2020-07-22T10:51:52Z</time>
      </trkpt>
      <trkpt lat="42.7295030" lon="2.0038030">
        <ele>1625.4</ele>
        <time>2020-07-22T10:51:58Z</time>
      </trkpt>
      <trkpt lat="42.7294950" lon="2.0038330">
        <ele>1625.6</ele>
        <time>2020-07-22T10:51:59Z</time>
      </trkpt>
      <trkpt lat="42.7294340" lon="2.0039660">
        <ele>1626.6</ele>
        <time>2020-07-22T10:52:04Z</time>
      </trkpt>
      <trkpt lat="42.7294190" lon="2.0039870">
        <ele>1626.8</ele>
        <time>2020-07-22T10:52:05Z</time>
      </trkpt>
      <trkpt lat="42.7293860" lon="2.0040310">
        <ele>1627.6</ele>
        <time>2020-07-22T10:52:07Z</time>
      </trkpt>
      <trkpt lat="42.7293720" lon="2.0040540">
        <ele>1627.8</ele>
        <time>2020-07-22T10:52:08Z</time>
      </trkpt>
      <trkpt lat="42.7293650" lon="2.0040860">
        <ele>1628.0</ele>
        <time>2020-07-22T10:52:09Z</time>
      </trkpt>
      <trkpt lat="42.7293720" lon="2.0041450">
        <ele>1628.2</ele>
        <time>2020-07-22T10:52:11Z</time>
      </trkpt>
      <trkpt lat="42.7294010" lon="2.0041710">
        <ele>1628.4</ele>
        <time>2020-07-22T10:52:13Z</time>
      </trkpt>
      <trkpt lat="42.7294390" lon="2.0041430">
        <ele>1629.0</ele>
        <time>2020-07-22T10:52:15Z</time>
      </trkpt>
      <trkpt lat="42.7295380" lon="2.0039680">
        <ele>1630.0</ele>
        <time>2020-07-22T10:52:21Z</time>
      </trkpt>
      <trkpt lat="42.7296090" lon="2.0037670">
        <ele>1630.6</ele>
        <time>2020-07-22T10:52:27Z</time>
      </trkpt>
      <trkpt lat="42.7296400" lon="2.0037180">
        <ele>1631.0</ele>
        <time>2020-07-22T10:52:29Z</time>
      </trkpt>
      <trkpt lat="42.7296810" lon="2.0037280">
        <ele>1631.4</ele>
        <time>2020-07-22T10:52:31Z</time>
      </trkpt>
      <trkpt lat="42.7296860" lon="2.0037530">
        <ele>1631.6</ele>
        <time>2020-07-22T10:52:32Z</time>
      </trkpt>
      <trkpt lat="42.7296720" lon="2.0038080">
        <ele>1632.2</ele>
        <time>2020-07-22T10:52:34Z</time>
      </trkpt>
      <trkpt lat="42.7296370" lon="2.0038980">
        <ele>1633.2</ele>
        <time>2020-07-22T10:52:37Z</time>
      </trkpt>
      <trkpt lat="42.7296240" lon="2.0039260">
        <ele>1633.4</ele>
        <time>2020-07-22T10:52:38Z</time>
      </trkpt>
      <trkpt lat="42.7295580" lon="2.0040870">
        <ele>1634.4</ele>
        <time>2020-07-22T10:52:44Z</time>
      </trkpt>
      <trkpt lat="42.7295460" lon="2.0041140">
        <ele>1634.6</ele>
        <time>2020-07-22T10:52:45Z</time>
      </trkpt>
      <trkpt lat="42.7295080" lon="2.0041940">
        <ele>1635.4</ele>
        <time>2020-07-22T10:52:48Z</time>
      </trkpt>
      <trkpt lat="42.7294190" lon="2.0043000">
        <ele>1636.0</ele>
        <time>2020-07-22T10:52:53Z</time>
      </trkpt>
      <trkpt lat="42.7293640" lon="2.0043570">
        <ele>1636.6</ele>
        <time>2020-07-22T10:52:56Z</time>
      </trkpt>
      <trkpt lat="42.7293470" lon="2.0044290">
        <ele>1637.0</ele>
        <time>2020-07-22T10:52:59Z</time>
      </trkpt>
      <trkpt lat="42.7293710" lon="2.0044710">
        <ele>1637.4</ele>
        <time>2020-07-22T10:53:01Z</time>
      </trkpt>
      <trkpt lat="42.7293890" lon="2.0044750">
        <ele>1637.8</ele>
        <time>2020-07-22T10:53:02Z</time>
      </trkpt>
      <trkpt lat="42.7294100" lon="2.0044680">
        <ele>1638.0</ele>
        <time>2020-07-22T10:53:03Z</time>
      </trkpt>
      <trkpt lat="42.7294760" lon="2.0044140">
        <ele>1638.8</ele>
        <time>2020-07-22T10:53:06Z</time>
      </trkpt>
      <trkpt lat="42.7295400" lon="2.0043410">
        <ele>1639.2</ele>
        <time>2020-07-22T10:53:09Z</time>
      </trkpt>
      <trkpt lat="42.7295980" lon="2.0042650">
        <ele>1640.0</ele>
        <time>2020-07-22T10:53:12Z</time>
      </trkpt>
      <trkpt lat="42.7296660" lon="2.0041620">
        <ele>1640.8</ele>
        <time>2020-07-22T10:53:16Z</time>
      </trkpt>
      <trkpt lat="42.7296800" lon="2.0041350">
        <ele>1641.0</ele>
        <time>2020-07-22T10:53:17Z</time>
      </trkpt>
      <trkpt lat="42.7297470" lon="2.0040030">
        <ele>1642.2</ele>
        <time>2020-07-22T10:53:22Z</time>
      </trkpt>
      <trkpt lat="42.7297730" lon="2.0039440">
        <ele>1642.8</ele>
        <time>2020-07-22T10:53:24Z</time>
      </trkpt>
      <trkpt lat="42.7297980" lon="2.0038830">
        <ele>1643.2</ele>
        <time>2020-07-22T10:53:26Z</time>
      </trkpt>
      <trkpt lat="42.7298580" lon="2.0037420">
        <ele>1644.4</ele>
        <time>2020-07-22T10:53:31Z</time>
      </trkpt>
      <trkpt lat="42.7298710" lon="2.0037130">
        <ele>1644.6</ele>
        <time>2020-07-22T10:53:32Z</time>
      </trkpt>
      <trkpt lat="42.7299030" lon="2.0036240">
        <ele>1645.4</ele>
        <time>2020-07-22T10:53:35Z</time>
      </trkpt>
      <trkpt lat="42.7299590" lon="2.0034540">
        <ele>1646.4</ele>
        <time>2020-07-22T10:53:41Z</time>
      </trkpt>
      <trkpt lat="42.7299660" lon="2.0034260">
        <ele>1646.6</ele>
        <time>2020-07-22T10:53:42Z</time>
      </trkpt>
      <trkpt lat="42.7300140" lon="2.0032590">
        <ele>1647.2</ele>
        <time>2020-07-22T10:53:48Z</time>
      </trkpt>
      <trkpt lat="42.7300240" lon="2.0032330">
        <ele>1647.4</ele>
        <time>2020-07-22T10:53:49Z</time>
      </trkpt>
      <trkpt lat="42.7300430" lon="2.0031790">
        <ele>1647.8</ele>
        <time>2020-07-22T10:53:51Z</time>
      </trkpt>
      <trkpt lat="42.7300650" lon="2.0030950">
        <ele>1648.8</ele>
        <time>2020-07-22T10:53:54Z</time>
      </trkpt>
      <trkpt lat="42.7300810" lon="2.0030100">
        <ele>1649.6</ele>
        <time>2020-07-22T10:53:57Z</time>
      </trkpt>
      <trkpt lat="42.7300860" lon="2.0029820">
        <ele>1650.0</ele>
        <time>2020-07-22T10:53:58Z</time>
      </trkpt>
      <trkpt lat="42.7301030" lon="2.0028450">
        <ele>1651.0</ele>
        <time>2020-07-22T10:54:04Z</time>
      </trkpt>
      <trkpt lat="42.7301090" lon="2.0028270">
        <ele>1651.2</ele>
        <time>2020-07-22T10:54:05Z</time>
      </trkpt>
      <trkpt lat="42.7301210" lon="2.0027260">
        <ele>1652.0</ele>
        <time>2020-07-22T10:54:10Z</time>
      </trkpt>
      <trkpt lat="42.7301250" lon="2.0026850">
        <ele>1652.4</ele>
        <time>2020-07-22T10:54:12Z</time>
      </trkpt>
      <trkpt lat="42.7301470" lon="2.0025950">
        <ele>1653.4</ele>
        <time>2020-07-22T10:54:16Z</time>
      </trkpt>
      <trkpt lat="42.7301600" lon="2.0025190">
        <ele>1654.4</ele>
        <time>2020-07-22T10:54:19Z</time>
      </trkpt>
      <trkpt lat="42.7301900" lon="2.0023640">
        <ele>1655.4</ele>
        <time>2020-07-22T10:54:25Z</time>
      </trkpt>
      <trkpt lat="42.7301960" lon="2.0023370">
        <ele>1655.6</ele>
        <time>2020-07-22T10:54:26Z</time>
      </trkpt>
      <trkpt lat="42.7302050" lon="2.0022830">
        <ele>1656.0</ele>
        <time>2020-07-22T10:54:28Z</time>
      </trkpt>
      <trkpt lat="42.7302140" lon="2.0022020">
        <ele>1656.8</ele>
        <time>2020-07-22T10:54:31Z</time>
      </trkpt>
      <trkpt lat="42.7302130" lon="2.0021220">
        <ele>1657.0</ele>
        <time>2020-07-22T10:54:34Z</time>
      </trkpt>
      <trkpt lat="42.7302090" lon="2.0020940">
        <ele>1657.2</ele>
        <time>2020-07-22T10:54:35Z</time>
      </trkpt>
      <trkpt lat="42.7302000" lon="2.0020040">
        <ele>1658.0</ele>
        <time>2020-07-22T10:54:38Z</time>
      </trkpt>
      <trkpt lat="42.7301980" lon="2.0019780">
        <ele>1658.4</ele>
        <time>2020-07-22T10:54:39Z</time>
      </trkpt>
      <trkpt lat="42.7301860" lon="2.0018810">
        <ele>1659.2</ele>
        <time>2020-07-22T10:54:43Z</time>
      </trkpt>
      <trkpt lat="42.7301860" lon="2.0018510">
        <ele>1659.4</ele>
        <time>2020-07-22T10:54:44Z</time>
      </trkpt>
      <trkpt lat="42.7302070" lon="2.0017170">
        <ele>1660.2</ele>
        <time>2020-07-22T10:54:49Z</time>
      </trkpt>
      <trkpt lat="42.7302200" lon="2.0016430">
        <ele>1660.8</ele>
        <time>2020-07-22T10:54:52Z</time>
      </trkpt>
      <trkpt lat="42.7302280" lon="2.0015780">
        <ele>1661.2</ele>
        <time>2020-07-22T10:54:54Z</time>
      </trkpt>
      <trkpt lat="42.7302440" lon="2.0014360">
        <ele>1662.4</ele>
        <time>2020-07-22T10:54:58Z</time>
      </trkpt>
      <trkpt lat="42.7302500" lon="2.0014020">
        <ele>1662.6</ele>
        <time>2020-07-22T10:54:59Z</time>
      </trkpt>
      <trkpt lat="42.7302790" lon="2.0012680">
        <ele>1663.4</ele>
        <time>2020-07-22T10:55:03Z</time>
      </trkpt>
      <trkpt lat="42.7302780" lon="2.0011700">
        <ele>1664.0</ele>
        <time>2020-07-22T10:55:06Z</time>
      </trkpt>
      <trkpt lat="42.7302780" lon="2.0011130">
        <ele>1664.4</ele>
        <time>2020-07-22T10:55:08Z</time>
      </trkpt>
      <trkpt lat="42.7302920" lon="2.0010010">
        <ele>1665.6</ele>
        <time>2020-07-22T10:55:12Z</time>
      </trkpt>
      <trkpt lat="42.7302960" lon="2.0009470">
        <ele>1666.0</ele>
        <time>2020-07-22T10:55:14Z</time>
      </trkpt>
      <trkpt lat="42.7302950" lon="2.0008670">
        <ele>1666.6</ele>
        <time>2020-07-22T10:55:17Z</time>
      </trkpt>
      <trkpt lat="42.7302840" lon="2.0007560">
        <ele>1667.6</ele>
        <time>2020-07-22T10:55:21Z</time>
      </trkpt>
      <trkpt lat="42.7302800" lon="2.0007270">
        <ele>1667.8</ele>
        <time>2020-07-22T10:55:22Z</time>
      </trkpt>
      <trkpt lat="42.7302350" lon="2.0005600">
        <ele>1669.0</ele>
        <time>2020-07-22T10:55:28Z</time>
      </trkpt>
      <trkpt lat="42.7302220" lon="2.0005360">
        <ele>1669.2</ele>
        <time>2020-07-22T10:55:29Z</time>
      </trkpt>
      <trkpt lat="42.7302100" lon="2.0004780">
        <ele>1669.6</ele>
        <time>2020-07-22T10:55:31Z</time>
      </trkpt>
      <trkpt lat="42.7302120" lon="2.0004490">
        <ele>1670.0</ele>
        <time>2020-07-22T10:55:32Z</time>
      </trkpt>
      <trkpt lat="42.7302100" lon="2.0004210">
        <ele>1670.2</ele>
        <time>2020-07-22T10:55:33Z</time>
      </trkpt>
      <trkpt lat="42.7302070" lon="2.0003930">
        <ele>1670.4</ele>
        <time>2020-07-22T10:55:34Z</time>
      </trkpt>
      <trkpt lat="42.7301970" lon="2.0003120">
        <ele>1671.0</ele>
        <time>2020-07-22T10:55:37Z</time>
      </trkpt>
      <trkpt lat="42.7301840" lon="2.0001960">
        <ele>1672.2</ele>
        <time>2020-07-22T10:55:41Z</time>
      </trkpt>
      <trkpt lat="42.7301950" lon="2.0000590">
        <ele>1673.2</ele>
        <time>2020-07-22T10:55:46Z</time>
      </trkpt>
      <trkpt lat="42.7302110" lon="2.0000040">
        <ele>1673.6</ele>
        <time>2020-07-22T10:55:48Z</time>
      </trkpt>
      <trkpt lat="42.7302590" lon="1.9998990">
        <ele>1674.6</ele>
        <time>2020-07-22T10:55:52Z</time>
      </trkpt>
      <trkpt lat="42.7302930" lon="1.9998170">
        <ele>1675.2</ele>
        <time>2020-07-22T10:55:55Z</time>
      </trkpt>
      <trkpt lat="42.7303220" lon="1.9997680">
        <ele>1675.6</ele>
        <time>2020-07-22T10:55:57Z</time>
      </trkpt>
      <trkpt lat="42.7303940" lon="1.9996290">
        <ele>1676.6</ele>
        <time>2020-07-22T10:56:03Z</time>
      </trkpt>
      <trkpt lat="42.7304370" lon="1.9995090">
        <ele>1677.6</ele>
        <time>2020-07-22T10:56:08Z</time>
      </trkpt>
      <trkpt lat="42.7304450" lon="1.9994830">
        <ele>1677.8</ele>
        <time>2020-07-22T10:56:09Z</time>
      </trkpt>
      <trkpt lat="42.7304870" lon="1.9994230">
        <ele>1678.4</ele>
        <time>2020-07-22T10:56:12Z</time>
      </trkpt>
      <trkpt lat="42.7305090" lon="1.9994300">
        <ele>1678.6</ele>
        <time>2020-07-22T10:56:13Z</time>
      </trkpt>
      <trkpt lat="42.7305270" lon="1.9994520">
        <ele>1678.8</ele>
        <time>2020-07-22T10:56:14Z</time>
      </trkpt>
      <trkpt lat="42.7305370" lon="1.9994840">
        <ele>1679.2</ele>
        <time>2020-07-22T10:56:15Z</time>
      </trkpt>
      <trkpt lat="42.7305390" lon="1.9995210">
        <ele>1679.4</ele>
        <time>2020-07-22T10:56:16Z</time>
      </trkpt>
      <trkpt lat="42.7305150" lon="1.9996350">
        <ele>1680.0</ele>
        <time>2020-07-22T10:56:19Z</time>
      </trkpt>
      <trkpt lat="42.7304910" lon="1.9997100">
        <ele>1680.4</ele>
        <time>2020-07-22T10:56:21Z</time>
      </trkpt>
      <trkpt lat="42.7304710" lon="1.9997800">
        <ele>1681.2</ele>
        <time>2020-07-22T10:56:23Z</time>
      </trkpt>
      <trkpt lat="42.7304490" lon="1.9999520">
        <ele>1682.2</ele>
        <time>2020-07-22T10:56:28Z</time>
      </trkpt>
      <trkpt lat="42.7304540" lon="2.0000500">
        <ele>1683.2</ele>
        <time>2020-07-22T10:56:31Z</time>
      </trkpt>
      <trkpt lat="42.7304890" lon="2.0002120">
        <ele>1684.2</ele>
        <time>2020-07-22T10:56:36Z</time>
      </trkpt>
      <trkpt lat="42.7304980" lon="2.0002440">
        <ele>1684.4</ele>
        <time>2020-07-22T10:56:37Z</time>
      </trkpt>
      <trkpt lat="42.7305440" lon="2.0003920">
        <ele>1685.4</ele>
        <time>2020-07-22T10:56:42Z</time>
      </trkpt>
      <trkpt lat="42.7305720" lon="2.0004850">
        <ele>1686.2</ele>
        <time>2020-07-22T10:56:45Z</time>
      </trkpt>
      <trkpt lat="42.7305890" lon="2.0005450">
        <ele>1686.4</ele>
        <time>2020-07-22T10:56:47Z</time>
      </trkpt>
      <trkpt lat="42.7305950" lon="2.0005730">
        <ele>1686.6</ele>
        <time>2020-07-22T10:56:48Z</time>
      </trkpt>
      <trkpt lat="42.7306310" lon="2.0007260">
        <ele>1688.0</ele>
        <time>2020-07-22T10:56:53Z</time>
      </trkpt>
      <trkpt lat="42.7306380" lon="2.0007550">
        <ele>1688.2</ele>
        <time>2020-07-22T10:56:54Z</time>
      </trkpt>
      <trkpt lat="42.7306580" lon="2.0008380">
        <ele>1689.0</ele>
        <time>2020-07-22T10:56:57Z</time>
      </trkpt>
      <trkpt lat="42.7307110" lon="2.0009670">
        <ele>1690.2</ele>
        <time>2020-07-22T10:57:02Z</time>
      </trkpt>
      <trkpt lat="42.7307250" lon="2.0009920">
        <ele>1690.6</ele>
        <time>2020-07-22T10:57:03Z</time>
      </trkpt>
      <trkpt lat="42.7307530" lon="2.0010440">
        <ele>1691.4</ele>
        <time>2020-07-22T10:57:05Z</time>
      </trkpt>
      <trkpt lat="42.7308180" lon="2.0011680">
        <ele>1692.6</ele>
        <time>2020-07-22T10:57:10Z</time>
      </trkpt>
      <trkpt lat="42.7308440" lon="2.0012170">
        <ele>1693.0</ele>
        <time>2020-07-22T10:57:12Z</time>
      </trkpt>
      <trkpt lat="42.7308820" lon="2.0012920">
        <ele>1693.8</ele>
        <time>2020-07-22T10:57:15Z</time>
      </trkpt>
      <trkpt lat="42.7309360" lon="2.0013900">
        <ele>1695.0</ele>
        <time>2020-07-22T10:57:19Z</time>
      </trkpt>
      <trkpt lat="42.7309490" lon="2.0014180">
        <ele>1695.4</ele>
        <time>2020-07-22T10:57:20Z</time>
      </trkpt>
      <trkpt lat="42.7309870" lon="2.0015320">
        <ele>1696.0</ele>
        <time>2020-07-22T10:57:24Z</time>
      </trkpt>
      <trkpt lat="42.7310310" lon="2.0016390">
        <ele>1697.0</ele>
        <time>2020-07-22T10:57:28Z</time>
      </trkpt>
      <trkpt lat="42.7310410" lon="2.0016680">
        <ele>1697.2</ele>
        <time>2020-07-22T10:57:29Z</time>
      </trkpt>
      <trkpt lat="42.7310660" lon="2.0018460">
        <ele>1698.2</ele>
        <time>2020-07-22T10:57:35Z</time>
      </trkpt>
      <trkpt lat="42.7310640" lon="2.0018770">
        <ele>1698.4</ele>
        <time>2020-07-22T10:57:36Z</time>
      </trkpt>
      <trkpt lat="42.7310550" lon="2.0019670">
        <ele>1699.4</ele>
        <time>2020-07-22T10:57:39Z</time>
      </trkpt>
      <trkpt lat="42.7310400" lon="2.0020910">
        <ele>1700.6</ele>
        <time>2020-07-22T10:57:44Z</time>
      </trkpt>
      <trkpt lat="42.7310100" lon="2.0022870">
        <ele>1701.6</ele>
        <time>2020-07-22T10:57:50Z</time>
      </trkpt>
      <trkpt lat="42.7310060" lon="2.0023190">
        <ele>1702.0</ele>
        <time>2020-07-22T10:57:51Z</time>
      </trkpt>
      <trkpt lat="42.7309760" lon="2.0024390">
        <ele>1702.8</ele>
        <time>2020-07-22T10:57:55Z</time>
      </trkpt>
      <trkpt lat="42.7309320" lon="2.0025450">
        <ele>1703.6</ele>
        <time>2020-07-22T10:57:59Z</time>
      </trkpt>
      <trkpt lat="42.7309090" lon="2.0026030">
        <ele>1703.8</ele>
        <time>2020-07-22T10:58:01Z</time>
      </trkpt>
      <trkpt lat="42.7308380" lon="2.0027730">
        <ele>1704.4</ele>
        <time>2020-07-22T10:58:07Z</time>
      </trkpt>
      <trkpt lat="42.7308400" lon="2.0028030">
        <ele>1704.6</ele>
        <time>2020-07-22T10:58:08Z</time>
      </trkpt>
      <trkpt lat="42.7308480" lon="2.0028240">
        <ele>1704.8</ele>
        <time>2020-07-22T10:58:09Z</time>
      </trkpt>
      <trkpt lat="42.7308650" lon="2.0028280">
        <ele>1705.0</ele>
        <time>2020-07-22T10:58:10Z</time>
      </trkpt>
      <trkpt lat="42.7309430" lon="2.0027430">
        <ele>1706.0</ele>
        <time>2020-07-22T10:58:14Z</time>
      </trkpt>
      <trkpt lat="42.7309680" lon="2.0026790">
        <ele>1706.6</ele>
        <time>2020-07-22T10:58:16Z</time>
      </trkpt>
      <trkpt lat="42.7309810" lon="2.0026460">
        <ele>1706.8</ele>
        <time>2020-07-22T10:58:17Z</time>
      </trkpt>
      <trkpt lat="42.7309980" lon="2.0025810">
        <ele>1707.2</ele>
        <time>2020-07-22T10:58:19Z</time>
      </trkpt>
      <trkpt lat="42.7310170" lon="2.0025250">
        <ele>1707.6</ele>
        <time>2020-07-22T10:58:21Z</time>
      </trkpt>
      <trkpt lat="42.7310820" lon="2.0024240">
        <ele>1708.4</ele>
        <time>2020-07-22T10:58:25Z</time>
      </trkpt>
      <trkpt lat="42.7310910" lon="2.0023980">
        <ele>1708.4</ele>
        <time>2020-07-22T10:58:26Z</time>
      </trkpt>
      <trkpt lat="42.7311550" lon="2.0022880">
        <ele>1709.6</ele>
        <time>2020-07-22T10:58:31Z</time>
      </trkpt>
      <trkpt lat="42.7311780" lon="2.0022420">
        <ele>1710.0</ele>
        <time>2020-07-22T10:58:33Z</time>
      </trkpt>
      <trkpt lat="42.7312200" lon="2.0021500">
        <ele>1710.6</ele>
        <time>2020-07-22T10:58:37Z</time>
      </trkpt>
      <trkpt lat="42.7312790" lon="2.0020150">
        <ele>1711.8</ele>
        <time>2020-07-22T10:58:43Z</time>
      </trkpt>
      <trkpt lat="42.7312880" lon="2.0019900">
        <ele>1712.0</ele>
        <time>2020-07-22T10:58:44Z</time>
      </trkpt>
      <trkpt lat="42.7313440" lon="2.0018470">
        <ele>1713.2</ele>
        <time>2020-07-22T10:58:49Z</time>
      </trkpt>
      <trkpt lat="42.7313800" lon="2.0017530">
        <ele>1714.4</ele>
        <time>2020-07-22T10:58:52Z</time>
      </trkpt>
      <trkpt lat="42.7314010" lon="2.0016200">
        <ele>1715.6</ele>
        <time>2020-07-22T10:58:56Z</time>
      </trkpt>
      <trkpt lat="42.7313950" lon="2.0015170">
        <ele>1716.4</ele>
        <time>2020-07-22T10:58:59Z</time>
      </trkpt>
      <trkpt lat="42.7313850" lon="2.0014510">
        <ele>1717.0</ele>
        <time>2020-07-22T10:59:01Z</time>
      </trkpt>
      <trkpt lat="42.7313590" lon="2.0013270">
        <ele>1718.2</ele>
        <time>2020-07-22T10:59:05Z</time>
      </trkpt>
      <trkpt lat="42.7313310" lon="2.0012340">
        <ele>1719.2</ele>
        <time>2020-07-22T10:59:08Z</time>
      </trkpt>
      <trkpt lat="42.7313210" lon="2.0012030">
        <ele>1719.2</ele>
        <time>2020-07-22T10:59:09Z</time>
      </trkpt>
      <trkpt lat="42.7312800" lon="2.0010480">
        <ele>1720.4</ele>
        <time>2020-07-22T10:59:14Z</time>
      </trkpt>
      <trkpt lat="42.7312690" lon="2.0009860">
        <ele>1720.8</ele>
        <time>2020-07-22T10:59:16Z</time>
      </trkpt>
      <trkpt lat="42.7312590" lon="2.0009290">
        <ele>1721.4</ele>
        <time>2020-07-22T10:59:18Z</time>
      </trkpt>
      <trkpt lat="42.7312450" lon="2.0008110">
        <ele>1722.2</ele>
        <time>2020-07-22T10:59:22Z</time>
      </trkpt>
      <trkpt lat="42.7312430" lon="2.0007510">
        <ele>1722.6</ele>
        <time>2020-07-22T10:59:24Z</time>
      </trkpt>
      <trkpt lat="42.7312340" lon="2.0006690">
        <ele>1723.4</ele>
        <time>2020-07-22T10:59:28Z</time>
      </trkpt>
      <trkpt lat="42.7312370" lon="2.0006450">
        <ele>1723.6</ele>
        <time>2020-07-22T10:59:29Z</time>
      </trkpt>
      <trkpt lat="42.7312480" lon="2.0005010">
        <ele>1724.6</ele>
        <time>2020-07-22T10:59:34Z</time>
      </trkpt>
      <trkpt lat="42.7312610" lon="2.0004190">
        <ele>1725.2</ele>
        <time>2020-07-22T10:59:37Z</time>
      </trkpt>
      <trkpt lat="42.7312940" lon="2.0003510">
        <ele>1725.6</ele>
        <time>2020-07-22T10:59:40Z</time>
      </trkpt>
      <trkpt lat="42.7313070" lon="2.0003290">
        <ele>1725.8</ele>
        <time>2020-07-22T10:59:41Z</time>
      </trkpt>
      <trkpt lat="42.7313720" lon="2.0002410">
        <ele>1726.8</ele>
        <time>2020-07-22T10:59:45Z</time>
      </trkpt>
      <trkpt lat="42.7314260" lon="2.0001910">
        <ele>1727.8</ele>
        <time>2020-07-22T10:59:48Z</time>
      </trkpt>
      <trkpt lat="42.7314460" lon="2.0001770">
        <ele>1728.0</ele>
        <time>2020-07-22T10:59:49Z</time>
      </trkpt>
      <trkpt lat="42.7315100" lon="2.0001290">
        <ele>1729.0</ele>
        <time>2020-07-22T10:59:52Z</time>
      </trkpt>
      <trkpt lat="42.7316140" lon="2.0000470">
        <ele>1730.4</ele>
        <time>2020-07-22T10:59:57Z</time>
      </trkpt>
      <trkpt lat="42.7317150" lon="1.9999620">
        <ele>1731.4</ele>
        <time>2020-07-22T11:00:02Z</time>
      </trkpt>
      <trkpt lat="42.7317710" lon="1.9998960">
        <ele>1731.8</ele>
        <time>2020-07-22T11:00:05Z</time>
      </trkpt>
      <trkpt lat="42.7318180" lon="1.9998130">
        <ele>1732.6</ele>
        <time>2020-07-22T11:00:08Z</time>
      </trkpt>
      <trkpt lat="42.7318610" lon="1.9997010">
        <ele>1733.4</ele>
        <time>2020-07-22T11:00:12Z</time>
      </trkpt>
      <trkpt lat="42.7318740" lon="1.9996740">
        <ele>1733.6</ele>
        <time>2020-07-22T11:00:13Z</time>
      </trkpt>
      <trkpt lat="42.7319340" lon="1.9995780">
        <ele>1734.8</ele>
        <time>2020-07-22T11:00:17Z</time>
      </trkpt>
      <trkpt lat="42.7319780" lon="1.9995520">
        <ele>1735.2</ele>
        <time>2020-07-22T11:00:19Z</time>
      </trkpt>
      <trkpt lat="42.7321050" lon="1.9995890">
        <ele>1735.8</ele>
        <time>2020-07-22T11:00:24Z</time>
      </trkpt>
      <trkpt lat="42.7322120" lon="1.9997460">
        <ele>1737.0</ele>
        <time>2020-07-22T11:00:30Z</time>
      </trkpt>
      <trkpt lat="42.7322610" lon="1.9999090">
        <ele>1738.2</ele>
        <time>2020-07-22T11:00:35Z</time>
      </trkpt>
      <trkpt lat="42.7322690" lon="1.9999710">
        <ele>1738.6</ele>
        <time>2020-07-22T11:00:37Z</time>
      </trkpt>
      <trkpt lat="42.7322690" lon="2.0000750">
        <ele>1739.4</ele>
        <time>2020-07-22T11:00:40Z</time>
      </trkpt>
      <trkpt lat="42.7322630" lon="2.0001720">
        <ele>1740.2</ele>
        <time>2020-07-22T11:00:43Z</time>
      </trkpt>
      <trkpt lat="42.7322570" lon="2.0002060">
        <ele>1740.6</ele>
        <time>2020-07-22T11:00:44Z</time>
      </trkpt>
      <trkpt lat="42.7322290" lon="2.0003420">
        <ele>1741.6</ele>
        <time>2020-07-22T11:00:48Z</time>
      </trkpt>
      <trkpt lat="42.7322020" lon="2.0005370">
        <ele>1742.8</ele>
        <time>2020-07-22T11:00:54Z</time>
      </trkpt>
      <trkpt lat="42.7321910" lon="2.0007090">
        <ele>1743.0</ele>
        <time>2020-07-22T11:01:29Z</time>
      </trkpt>
      <trkpt lat="42.7321930" lon="2.0007860">
        <ele>1743.8</ele>
        <time>2020-07-22T11:01:32Z</time>
      </trkpt>
      <trkpt lat="42.7321950" lon="2.0008170">
        <ele>1744.0</ele>
        <time>2020-07-22T11:01:33Z</time>
      </trkpt>
      <trkpt lat="42.7322100" lon="2.0010340">
        <ele>1744.6</ele>
        <time>2020-07-22T11:01:39Z</time>
      </trkpt>
      <trkpt lat="42.7322140" lon="2.0010750">
        <ele>1744.8</ele>
        <time>2020-07-22T11:01:40Z</time>
      </trkpt>
      <trkpt lat="42.7322140" lon="2.0011180">
        <ele>1745.0</ele>
        <time>2020-07-22T11:01:41Z</time>
      </trkpt>
      <trkpt lat="42.7322210" lon="2.0012510">
        <ele>1745.2</ele>
        <time>2020-07-22T11:01:44Z</time>
      </trkpt>
      <trkpt lat="42.7322510" lon="2.0014340">
        <ele>1746.0</ele>
        <time>2020-07-22T11:01:48Z</time>
      </trkpt>
      <trkpt lat="42.7322620" lon="2.0017060">
        <ele>1746.4</ele>
        <time>2020-07-22T11:01:54Z</time>
      </trkpt>
      <trkpt lat="42.7322510" lon="2.0017900">
        <ele>1746.8</ele>
        <time>2020-07-22T11:01:56Z</time>
      </trkpt>
      <trkpt lat="42.7322430" lon="2.0018300">
        <ele>1746.8</ele>
        <time>2020-07-22T11:01:57Z</time>
      </trkpt>
      <trkpt lat="42.7322220" lon="2.0019090">
        <ele>1747.0</ele>
        <time>2020-07-22T11:01:59Z</time>
      </trkpt>
      <trkpt lat="42.7321900" lon="2.0020200">
        <ele>1747.6</ele>
        <time>2020-07-22T11:02:02Z</time>
      </trkpt>
      <trkpt lat="42.7321780" lon="2.0020550">
        <ele>1748.0</ele>
        <time>2020-07-22T11:02:03Z</time>
      </trkpt>
      <trkpt lat="42.7321650" lon="2.0020870">
        <ele>1748.2</ele>
        <time>2020-07-22T11:02:04Z</time>
      </trkpt>
      <trkpt lat="42.7321500" lon="2.0021180">
        <ele>1748.6</ele>
        <time>2020-07-22T11:02:05Z</time>
      </trkpt>
      <trkpt lat="42.7321200" lon="2.0021740">
        <ele>1749.0</ele>
        <time>2020-07-22T11:02:07Z</time>
      </trkpt>
      <trkpt lat="42.7320890" lon="2.0022270">
        <ele>1749.4</ele>
        <time>2020-07-22T11:02:09Z</time>
      </trkpt>
      <trkpt lat="42.7320620" lon="2.0022830">
        <ele>1750.0</ele>
        <time>2020-07-22T11:02:11Z</time>
      </trkpt>
      <trkpt lat="42.7320460" lon="2.0023100">
        <ele>1750.2</ele>
        <time>2020-07-22T11:02:12Z</time>
      </trkpt>
      <trkpt lat="42.7319960" lon="2.0024150">
        <ele>1750.6</ele>
        <time>2020-07-22T11:02:16Z</time>
      </trkpt>
      <trkpt lat="42.7319580" lon="2.0024850">
        <ele>1751.6</ele>
        <time>2020-07-22T11:02:19Z</time>
      </trkpt>
      <trkpt lat="42.7319450" lon="2.0025090">
        <ele>1752.0</ele>
        <time>2020-07-22T11:02:20Z</time>
      </trkpt>
      <trkpt lat="42.7318730" lon="2.0026650">
        <ele>1753.0</ele>
        <time>2020-07-22T11:02:26Z</time>
      </trkpt>
      <trkpt lat="42.7318470" lon="2.0027140">
        <ele>1753.6</ele>
        <time>2020-07-22T11:02:28Z</time>
      </trkpt>
      <trkpt lat="42.7318280" lon="2.0027720">
        <ele>1754.0</ele>
        <time>2020-07-22T11:02:30Z</time>
      </trkpt>
      <trkpt lat="42.7317810" lon="2.0029100">
        <ele>1755.2</ele>
        <time>2020-07-22T11:02:35Z</time>
      </trkpt>
      <trkpt lat="42.7317710" lon="2.0029690">
        <ele>1756.0</ele>
        <time>2020-07-22T11:02:37Z</time>
      </trkpt>
      <trkpt lat="42.7317610" lon="2.0030290">
        <ele>1756.4</ele>
        <time>2020-07-22T11:02:39Z</time>
      </trkpt>
      <trkpt lat="42.7317430" lon="2.0031430">
        <ele>1757.4</ele>
        <time>2020-07-22T11:02:43Z</time>
      </trkpt>
      <trkpt lat="42.7317430" lon="2.0031740">
        <ele>1757.8</ele>
        <time>2020-07-22T11:02:44Z</time>
      </trkpt>
      <trkpt lat="42.7317300" lon="2.0032630">
        <ele>1758.4</ele>
        <time>2020-07-22T11:02:47Z</time>
      </trkpt>
      <trkpt lat="42.7317190" lon="2.0033530">
        <ele>1759.4</ele>
        <time>2020-07-22T11:02:50Z</time>
      </trkpt>
      <trkpt lat="42.7317180" lon="2.0033840">
        <ele>1759.8</ele>
        <time>2020-07-22T11:02:51Z</time>
      </trkpt>
      <trkpt lat="42.7317210" lon="2.0035090">
        <ele>1760.6</ele>
        <time>2020-07-22T11:02:55Z</time>
      </trkpt>
      <trkpt lat="42.7317090" lon="2.0036730">
        <ele>1761.6</ele>
        <time>2020-07-22T11:03:00Z</time>
      </trkpt>
      <trkpt lat="42.7317300" lon="2.0038270">
        <ele>1762.6</ele>
        <time>2020-07-22T11:03:06Z</time>
      </trkpt>
      <trkpt lat="42.7317430" lon="2.0038350">
        <ele>1762.8</ele>
        <time>2020-07-22T11:03:07Z</time>
      </trkpt>
      <trkpt lat="42.7317940" lon="2.0037900">
        <ele>1763.2</ele>
        <time>2020-07-22T11:03:10Z</time>
      </trkpt>
      <trkpt lat="42.7318160" lon="2.0036850">
        <ele>1763.4</ele>
        <time>2020-07-22T11:03:13Z</time>
      </trkpt>
      <trkpt lat="42.7318250" lon="2.0036030">
        <ele>1763.6</ele>
        <time>2020-07-22T11:03:15Z</time>
      </trkpt>
      <trkpt lat="42.7318310" lon="2.0035630">
        <ele>1763.8</ele>
        <time>2020-07-22T11:03:16Z</time>
      </trkpt>
      <trkpt lat="42.7318990" lon="2.0033430">
        <ele>1764.6</ele>
        <time>2020-07-22T11:03:22Z</time>
      </trkpt>
      <trkpt lat="42.7319140" lon="2.0033110">
        <ele>1764.8</ele>
        <time>2020-07-22T11:03:23Z</time>
      </trkpt>
      <trkpt lat="42.7319770" lon="2.0031960">
        <ele>1766.0</ele>
        <time>2020-07-22T11:03:27Z</time>
      </trkpt>
      <trkpt lat="42.7320460" lon="2.0030960">
        <ele>1766.6</ele>
        <time>2020-07-22T11:03:31Z</time>
      </trkpt>
      <trkpt lat="42.7320800" lon="2.0030460">
        <ele>1767.0</ele>
        <time>2020-07-22T11:03:33Z</time>
      </trkpt>
      <trkpt lat="42.7321630" lon="2.0029210">
        <ele>1768.2</ele>
        <time>2020-07-22T11:03:38Z</time>
      </trkpt>
      <trkpt lat="42.7321810" lon="2.0028990">
        <ele>1768.6</ele>
        <time>2020-07-22T11:03:39Z</time>
      </trkpt>
      <trkpt lat="42.7322320" lon="2.0028320">
        <ele>1769.2</ele>
        <time>2020-07-22T11:03:42Z</time>
      </trkpt>
      <trkpt lat="42.7323200" lon="2.0027210">
        <ele>1770.4</ele>
        <time>2020-07-22T11:03:47Z</time>
      </trkpt>
      <trkpt lat="42.7323570" lon="2.0026800">
        <ele>1771.0</ele>
        <time>2020-07-22T11:03:49Z</time>
      </trkpt>
      <trkpt lat="42.7324100" lon="2.0026160">
        <ele>1771.6</ele>
        <time>2020-07-22T11:03:52Z</time>
      </trkpt>
      <trkpt lat="42.7325060" lon="2.0025140">
        <ele>1772.8</ele>
        <time>2020-07-22T11:03:57Z</time>
      </trkpt>
      <trkpt lat="42.7325250" lon="2.0024940">
        <ele>1773.0</ele>
        <time>2020-07-22T11:03:58Z</time>
      </trkpt>
      <trkpt lat="42.7325840" lon="2.0024410">
        <ele>1773.8</ele>
        <time>2020-07-22T11:04:01Z</time>
      </trkpt>
      <trkpt lat="42.7326810" lon="2.0023510">
        <ele>1774.8</ele>
        <time>2020-07-22T11:04:06Z</time>
      </trkpt>
      <trkpt lat="42.7327190" lon="2.0023150">
        <ele>1775.2</ele>
        <time>2020-07-22T11:04:08Z</time>
      </trkpt>
      <trkpt lat="42.7327930" lon="2.0022390">
        <ele>1776.0</ele>
        <time>2020-07-22T11:04:12Z</time>
      </trkpt>
      <trkpt lat="42.7328680" lon="2.0021730">
        <ele>1777.0</ele>
        <time>2020-07-22T11:04:16Z</time>
      </trkpt>
      <trkpt lat="42.7328860" lon="2.0021580">
        <ele>1777.2</ele>
        <time>2020-07-22T11:04:17Z</time>
      </trkpt>
      <trkpt lat="42.7329900" lon="2.0020560">
        <ele>1778.2</ele>
        <time>2020-07-22T11:04:23Z</time>
      </trkpt>
      <trkpt lat="42.7330810" lon="2.0019780">
        <ele>1779.4</ele>
        <time>2020-07-22T11:04:28Z</time>
      </trkpt>
      <trkpt lat="42.7330980" lon="2.0019620">
        <ele>1779.6</ele>
        <time>2020-07-22T11:04:29Z</time>
      </trkpt>
      <trkpt lat="42.7331340" lon="2.0019300">
        <ele>1779.8</ele>
        <time>2020-07-22T11:04:31Z</time>
      </trkpt>
      <trkpt lat="42.7331930" lon="2.0018810">
        <ele>1780.6</ele>
        <time>2020-07-22T11:04:34Z</time>
      </trkpt>
      <trkpt lat="42.7332110" lon="2.0018670">
        <ele>1780.8</ele>
        <time>2020-07-22T11:04:35Z</time>
      </trkpt>
      <trkpt lat="42.7332710" lon="2.0018240">
        <ele>1781.6</ele>
        <time>2020-07-22T11:04:38Z</time>
      </trkpt>
      <trkpt lat="42.7332910" lon="2.0018080">
        <ele>1781.8</ele>
        <time>2020-07-22T11:04:39Z</time>
      </trkpt>
      <trkpt lat="42.7334130" lon="2.0017170">
        <ele>1782.4</ele>
        <time>2020-07-22T11:04:45Z</time>
      </trkpt>
      <trkpt lat="42.7334340" lon="2.0017000">
        <ele>1782.8</ele>
        <time>2020-07-22T11:04:46Z</time>
      </trkpt>
      <trkpt lat="42.7334530" lon="2.0016810">
        <ele>1783.2</ele>
        <time>2020-07-22T11:04:47Z</time>
      </trkpt>
      <trkpt lat="42.7335110" lon="2.0016260">
        <ele>1783.8</ele>
        <time>2020-07-22T11:04:50Z</time>
      </trkpt>
      <trkpt lat="42.7335960" lon="2.0015240">
        <ele>1784.8</ele>
        <time>2020-07-22T11:04:55Z</time>
      </trkpt>
      <trkpt lat="42.7336610" lon="2.0014490">
        <ele>1785.6</ele>
        <time>2020-07-22T11:04:59Z</time>
      </trkpt>
      <trkpt lat="42.7336820" lon="2.0014360">
        <ele>1785.8</ele>
        <time>2020-07-22T11:05:00Z</time>
      </trkpt>
      <trkpt lat="42.7337330" lon="2.0013730">
        <ele>1787.0</ele>
        <time>2020-07-22T11:05:03Z</time>
      </trkpt>
      <trkpt lat="42.7337830" lon="2.0013070">
        <ele>1787.6</ele>
        <time>2020-07-22T11:05:06Z</time>
      </trkpt>
      <trkpt lat="42.7338180" lon="2.0012290">
        <ele>1788.2</ele>
        <time>2020-07-22T11:05:09Z</time>
      </trkpt>
      <trkpt lat="42.7338420" lon="2.0011460">
        <ele>1788.8</ele>
        <time>2020-07-22T11:05:12Z</time>
      </trkpt>
      <trkpt lat="42.7338570" lon="2.0010920">
        <ele>1789.4</ele>
        <time>2020-07-22T11:05:14Z</time>
      </trkpt>
      <trkpt lat="42.7338830" lon="2.0009660">
        <ele>1790.4</ele>
        <time>2020-07-22T11:05:19Z</time>
      </trkpt>
      <trkpt lat="42.7338820" lon="2.0009470">
        <ele>1790.6</ele>
        <time>2020-07-22T11:05:20Z</time>
      </trkpt>
      <trkpt lat="42.7338860" lon="2.0009000">
        <ele>1790.8</ele>
        <time>2020-07-22T11:05:22Z</time>
      </trkpt>
      <trkpt lat="42.7339740" lon="2.0008900">
        <ele>1792.4</ele>
        <time>2020-07-22T11:06:19Z</time>
      </trkpt>
      <trkpt lat="42.7339740" lon="2.0009090">
        <ele>1792.4</ele>
        <time>2020-07-22T11:06:20Z</time>
      </trkpt>
      <trkpt lat="42.7339420" lon="2.0010510">
        <ele>1792.6</ele>
        <time>2020-07-22T11:06:24Z</time>
      </trkpt>
      <trkpt lat="42.7339030" lon="2.0012470">
        <ele>1793.6</ele>
        <time>2020-07-22T11:06:29Z</time>
      </trkpt>
      <trkpt lat="42.7338910" lon="2.0013250">
        <ele>1794.4</ele>
        <time>2020-07-22T11:06:31Z</time>
      </trkpt>
      <trkpt lat="42.7338770" lon="2.0014020">
        <ele>1794.8</ele>
        <time>2020-07-22T11:06:33Z</time>
      </trkpt>
      <trkpt lat="42.7338510" lon="2.0015350">
        <ele>1795.6</ele>
        <time>2020-07-22T11:06:37Z</time>
      </trkpt>
      <trkpt lat="42.7338460" lon="2.0015610">
        <ele>1796.0</ele>
        <time>2020-07-22T11:06:38Z</time>
      </trkpt>
      <trkpt lat="42.7337950" lon="2.0016990">
        <ele>1797.0</ele>
        <time>2020-07-22T11:06:44Z</time>
      </trkpt>
      <trkpt lat="42.7337860" lon="2.0017230">
        <ele>1797.2</ele>
        <time>2020-07-22T11:06:45Z</time>
      </trkpt>
      <trkpt lat="42.7337550" lon="2.0017910">
        <ele>1798.2</ele>
        <time>2020-07-22T11:06:48Z</time>
      </trkpt>
      <trkpt lat="42.7337100" lon="2.0018970">
        <ele>1799.4</ele>
        <time>2020-07-22T11:06:52Z</time>
      </trkpt>
      <trkpt lat="42.7336990" lon="2.0019200">
        <ele>1799.8</ele>
        <time>2020-07-22T11:06:53Z</time>
      </trkpt>
      <trkpt lat="42.7336500" lon="2.0020060">
        <ele>1800.4</ele>
        <time>2020-07-22T11:06:57Z</time>
      </trkpt>
      <trkpt lat="42.7335860" lon="2.0021140">
        <ele>1801.8</ele>
        <time>2020-07-22T11:07:02Z</time>
      </trkpt>
      <trkpt lat="42.7335740" lon="2.0021320">
        <ele>1802.0</ele>
        <time>2020-07-22T11:07:03Z</time>
      </trkpt>
      <trkpt lat="42.7334900" lon="2.0022560">
        <ele>1802.8</ele>
        <time>2020-07-22T11:07:09Z</time>
      </trkpt>
      <trkpt lat="42.7334620" lon="2.0023030">
        <ele>1803.4</ele>
        <time>2020-07-22T11:07:11Z</time>
      </trkpt>
      <trkpt lat="42.7334480" lon="2.0023250">
        <ele>1803.8</ele>
        <time>2020-07-22T11:07:12Z</time>
      </trkpt>
      <trkpt lat="42.7334320" lon="2.0023480">
        <ele>1804.0</ele>
        <time>2020-07-22T11:07:13Z</time>
      </trkpt>
      <trkpt lat="42.7333640" lon="2.0024540">
        <ele>1805.2</ele>
        <time>2020-07-22T11:07:18Z</time>
      </trkpt>
      <trkpt lat="42.7333370" lon="2.0024980">
        <ele>1805.8</ele>
        <time>2020-07-22T11:07:20Z</time>
      </trkpt>
      <trkpt lat="42.7333100" lon="2.0025470">
        <ele>1806.4</ele>
        <time>2020-07-22T11:07:22Z</time>
      </trkpt>
      <trkpt lat="42.7332610" lon="2.0026440">
        <ele>1807.6</ele>
        <time>2020-07-22T11:07:26Z</time>
      </trkpt>
      <trkpt lat="42.7332290" lon="2.0027280">
        <ele>1808.4</ele>
        <time>2020-07-22T11:07:29Z</time>
      </trkpt>
      <trkpt lat="42.7332110" lon="2.0027820">
        <ele>1808.6</ele>
        <time>2020-07-22T11:07:31Z</time>
      </trkpt>
      <trkpt lat="42.7331880" lon="2.0028210">
        <ele>1808.8</ele>
        <time>2020-07-22T11:07:33Z</time>
      </trkpt>
      <trkpt lat="42.7331730" lon="2.0028570">
        <ele>1809.0</ele>
        <time>2020-07-22T11:07:35Z</time>
      </trkpt>
      <trkpt lat="42.7331580" lon="2.0029060">
        <ele>1809.2</ele>
        <time>2020-07-22T11:07:38Z</time>
      </trkpt>
      <trkpt lat="42.7331510" lon="2.0030200">
        <ele>1809.8</ele>
        <time>2020-07-22T11:08:04Z</time>
      </trkpt>
      <trkpt lat="42.7331410" lon="2.0030360">
        <ele>1810.0</ele>
        <time>2020-07-22T11:08:05Z</time>
      </trkpt>
      <trkpt lat="42.7330420" lon="2.0031660">
        <ele>1810.8</ele>
        <time>2020-07-22T11:08:10Z</time>
      </trkpt>
      <trkpt lat="42.7330050" lon="2.0032880">
        <ele>1811.8</ele>
        <time>2020-07-22T11:08:14Z</time>
      </trkpt>
      <trkpt lat="42.7330180" lon="2.0033110">
        <ele>1812.0</ele>
        <time>2020-07-22T11:08:15Z</time>
      </trkpt>
      <trkpt lat="42.7330400" lon="2.0033140">
        <ele>1812.2</ele>
        <time>2020-07-22T11:08:16Z</time>
      </trkpt>
      <trkpt lat="42.7330880" lon="2.0032830">
        <ele>1812.6</ele>
        <time>2020-07-22T11:08:18Z</time>
      </trkpt>
      <trkpt lat="42.7331380" lon="2.0032370">
        <ele>1813.0</ele>
        <time>2020-07-22T11:08:20Z</time>
      </trkpt>
      <trkpt lat="42.7332250" lon="2.0031380">
        <ele>1814.2</ele>
        <time>2020-07-22T11:08:24Z</time>
      </trkpt>
      <trkpt lat="42.7332910" lon="2.0030690">
        <ele>1815.2</ele>
        <time>2020-07-22T11:08:27Z</time>
      </trkpt>
      <trkpt lat="42.7333140" lon="2.0030490">
        <ele>1815.6</ele>
        <time>2020-07-22T11:08:28Z</time>
      </trkpt>
      <trkpt lat="42.7334440" lon="2.0029300">
        <ele>1816.6</ele>
        <time>2020-07-22T11:08:34Z</time>
      </trkpt>
      <trkpt lat="42.7334680" lon="2.0029090">
        <ele>1816.8</ele>
        <time>2020-07-22T11:08:35Z</time>
      </trkpt>
      <trkpt lat="42.7335590" lon="2.0028380">
        <ele>1817.8</ele>
        <time>2020-07-22T11:08:39Z</time>
      </trkpt>
      <trkpt lat="42.7336090" lon="2.0028080">
        <ele>1818.4</ele>
        <time>2020-07-22T11:08:41Z</time>
      </trkpt>
      <trkpt lat="42.7336570" lon="2.0027820">
        <ele>1818.8</ele>
        <time>2020-07-22T11:08:43Z</time>
      </trkpt>
      <trkpt lat="42.7336800" lon="2.0027700">
        <ele>1819.0</ele>
        <time>2020-07-22T11:08:44Z</time>
      </trkpt>
      <trkpt lat="42.7337030" lon="2.0027570">
        <ele>1819.4</ele>
        <time>2020-07-22T11:08:45Z</time>
      </trkpt>
      <trkpt lat="42.7337470" lon="2.0027310">
        <ele>1820.0</ele>
        <time>2020-07-22T11:08:47Z</time>
      </trkpt>
      <trkpt lat="42.7337700" lon="2.0027190">
        <ele>1820.4</ele>
        <time>2020-07-22T11:08:48Z</time>
      </trkpt>
      <trkpt lat="42.7338630" lon="2.0026890">
        <ele>1821.4</ele>
        <time>2020-07-22T11:08:52Z</time>
      </trkpt>
      <trkpt lat="42.7339080" lon="2.0026850">
        <ele>1822.0</ele>
        <time>2020-07-22T11:08:54Z</time>
      </trkpt>
      <trkpt lat="42.7339680" lon="2.0026740">
        <ele>1822.8</ele>
        <time>2020-07-22T11:08:57Z</time>
      </trkpt>
      <trkpt lat="42.7340310" lon="2.0026730">
        <ele>1823.8</ele>
        <time>2020-07-22T11:09:00Z</time>
      </trkpt>
      <trkpt lat="42.7340740" lon="2.0026770">
        <ele>1824.2</ele>
        <time>2020-07-22T11:09:02Z</time>
      </trkpt>
      <trkpt lat="42.7340940" lon="2.0026810">
        <ele>1824.4</ele>
        <time>2020-07-22T11:09:03Z</time>
      </trkpt>
      <trkpt lat="42.7341620" lon="2.0026930">
        <ele>1825.0</ele>
        <time>2020-07-22T11:09:06Z</time>
      </trkpt>
      <trkpt lat="42.7342090" lon="2.0026960">
        <ele>1825.4</ele>
        <time>2020-07-22T11:09:08Z</time>
      </trkpt>
      <trkpt lat="42.7342540" lon="2.0026840">
        <ele>1826.2</ele>
        <time>2020-07-22T11:09:10Z</time>
      </trkpt>
      <trkpt lat="42.7343360" lon="2.0026320">
        <ele>1827.0</ele>
        <time>2020-07-22T11:09:14Z</time>
      </trkpt>
      <trkpt lat="42.7343520" lon="2.0026140">
        <ele>1827.2</ele>
        <time>2020-07-22T11:09:15Z</time>
      </trkpt>
      <trkpt lat="42.7343980" lon="2.0025040">
        <ele>1828.0</ele>
        <time>2020-07-22T11:09:19Z</time>
      </trkpt>
      <trkpt lat="42.7344070" lon="2.0024750">
        <ele>1828.4</ele>
        <time>2020-07-22T11:09:20Z</time>
      </trkpt>
      <trkpt lat="42.7344570" lon="2.0023110">
        <ele>1829.4</ele>
        <time>2020-07-22T11:09:26Z</time>
      </trkpt>
      <trkpt lat="42.7344630" lon="2.0022820">
        <ele>1829.6</ele>
        <time>2020-07-22T11:09:27Z</time>
      </trkpt>
      <trkpt lat="42.7344730" lon="2.0022220">
        <ele>1829.8</ele>
        <time>2020-07-22T11:09:29Z</time>
      </trkpt>
      <trkpt lat="42.7344890" lon="2.0020860">
        <ele>1830.6</ele>
        <time>2020-07-22T11:09:33Z</time>
      </trkpt>
      <trkpt lat="42.7344920" lon="2.0020510">
        <ele>1830.8</ele>
        <time>2020-07-22T11:09:34Z</time>
      </trkpt>
      <trkpt lat="42.7345010" lon="2.0019490">
        <ele>1831.6</ele>
        <time>2020-07-22T11:09:37Z</time>
      </trkpt>
      <trkpt lat="42.7345220" lon="2.0018200">
        <ele>1832.8</ele>
        <time>2020-07-22T11:09:41Z</time>
      </trkpt>
      <trkpt lat="42.7345330" lon="2.0017910">
        <ele>1833.2</ele>
        <time>2020-07-22T11:09:42Z</time>
      </trkpt>
      <trkpt lat="42.7345510" lon="2.0017700">
        <ele>1833.4</ele>
        <time>2020-07-22T11:09:43Z</time>
      </trkpt>
      <trkpt lat="42.7345980" lon="2.0017920">
        <ele>1833.8</ele>
        <time>2020-07-22T11:09:45Z</time>
      </trkpt>
      <trkpt lat="42.7346120" lon="2.0019150">
        <ele>1834.2</ele>
        <time>2020-07-22T11:09:48Z</time>
      </trkpt>
      <trkpt lat="42.7346270" lon="2.0021180">
        <ele>1834.8</ele>
        <time>2020-07-22T11:09:53Z</time>
      </trkpt>
      <trkpt lat="42.7346350" lon="2.0021550">
        <ele>1835.2</ele>
        <time>2020-07-22T11:09:54Z</time>
      </trkpt>
      <trkpt lat="42.7346520" lon="2.0022310">
        <ele>1835.6</ele>
        <time>2020-07-22T11:09:56Z</time>
      </trkpt>
      <trkpt lat="42.7346730" lon="2.0023070">
        <ele>1836.2</ele>
        <time>2020-07-22T11:09:58Z</time>
      </trkpt>
      <trkpt lat="42.7347260" lon="2.0024430">
        <ele>1837.0</ele>
        <time>2020-07-22T11:10:02Z</time>
      </trkpt>
      <trkpt lat="42.7347610" lon="2.0025030">
        <ele>1837.4</ele>
        <time>2020-07-22T11:10:04Z</time>
      </trkpt>
      <trkpt lat="42.7348730" lon="2.0026170">
        <ele>1838.6</ele>
        <time>2020-07-22T11:10:09Z</time>
      </trkpt>
      <trkpt lat="42.7349270" lon="2.0026320">
        <ele>1839.2</ele>
        <time>2020-07-22T11:10:11Z</time>
      </trkpt>
      <trkpt lat="42.7349550" lon="2.0026320">
        <ele>1839.8</ele>
        <time>2020-07-22T11:10:12Z</time>
      </trkpt>
      <trkpt lat="42.7350420" lon="2.0026040">
        <ele>1841.0</ele>
        <time>2020-07-22T11:10:15Z</time>
      </trkpt>
      <trkpt lat="42.7350970" lon="2.0025700">
        <ele>1841.8</ele>
        <time>2020-07-22T11:10:17Z</time>
      </trkpt>
      <trkpt lat="42.7351230" lon="2.0025490">
        <ele>1842.4</ele>
        <time>2020-07-22T11:10:18Z</time>
      </trkpt>
      <trkpt lat="42.7352430" lon="2.0024340">
        <ele>1843.6</ele>
        <time>2020-07-22T11:10:23Z</time>
      </trkpt>
      <trkpt lat="42.7352860" lon="2.0023800">
        <ele>1844.6</ele>
        <time>2020-07-22T11:10:25Z</time>
      </trkpt>
      <trkpt lat="42.7353060" lon="2.0023530">
        <ele>1844.8</ele>
        <time>2020-07-22T11:10:26Z</time>
      </trkpt>
      <trkpt lat="42.7353930" lon="2.0022440">
        <ele>1846.0</ele>
        <time>2020-07-22T11:10:30Z</time>
      </trkpt>
      <trkpt lat="42.7355030" lon="2.0021090">
        <ele>1846.6</ele>
        <time>2020-07-22T11:10:35Z</time>
      </trkpt>
      <trkpt lat="42.7355470" lon="2.0020590">
        <ele>1847.0</ele>
        <time>2020-07-22T11:10:37Z</time>
      </trkpt>
      <trkpt lat="42.7356200" lon="2.0020030">
        <ele>1848.0</ele>
        <time>2020-07-22T11:10:40Z</time>
      </trkpt>
      <trkpt lat="42.7356470" lon="2.0019900">
        <ele>1848.2</ele>
        <time>2020-07-22T11:10:41Z</time>
      </trkpt>
      <trkpt lat="42.7356730" lon="2.0019800">
        <ele>1848.4</ele>
        <time>2020-07-22T11:10:42Z</time>
      </trkpt>
      <trkpt lat="42.7358130" lon="2.0019490">
        <ele>1849.2</ele>
        <time>2020-07-22T11:10:47Z</time>
      </trkpt>
      <trkpt lat="42.7358720" lon="2.0019430">
        <ele>1849.6</ele>
        <time>2020-07-22T11:10:49Z</time>
      </trkpt>
      <trkpt lat="42.7359310" lon="2.0019290">
        <ele>1849.8</ele>
        <time>2020-07-22T11:10:51Z</time>
      </trkpt>
      <trkpt lat="42.7359820" lon="2.0018920">
        <ele>1850.4</ele>
        <time>2020-07-22T11:10:53Z</time>
      </trkpt>
      <trkpt lat="42.7360020" lon="2.0018230">
        <ele>1850.8</ele>
        <time>2020-07-22T11:10:55Z</time>
      </trkpt>
      <trkpt lat="42.7359400" lon="2.0017520">
        <ele>1851.2</ele>
        <time>2020-07-22T11:10:58Z</time>
      </trkpt>
      <trkpt lat="42.7358800" lon="2.0017530">
        <ele>1851.8</ele>
        <time>2020-07-22T11:11:00Z</time>
      </trkpt>
      <trkpt lat="42.7357670" lon="2.0017550">
        <ele>1852.6</ele>
        <time>2020-07-22T11:11:04Z</time>
      </trkpt>
      <trkpt lat="42.7357400" lon="2.0017490">
        <ele>1852.8</ele>
        <time>2020-07-22T11:11:05Z</time>
      </trkpt>
      <trkpt lat="42.7356200" lon="2.0016610">
        <ele>1854.0</ele>
        <time>2020-07-22T11:11:10Z</time>
      </trkpt>
      <trkpt lat="42.7355380" lon="2.0014640">
        <ele>1855.2</ele>
        <time>2020-07-22T11:11:16Z</time>
      </trkpt>
      <trkpt lat="42.7355370" lon="2.0012870">
        <ele>1856.8</ele>
        <time>2020-07-22T11:11:21Z</time>
      </trkpt>
      <trkpt lat="42.7355420" lon="2.0012510">
        <ele>1857.2</ele>
        <time>2020-07-22T11:11:22Z</time>
      </trkpt>
      <trkpt lat="42.7355610" lon="2.0011770">
        <ele>1857.8</ele>
        <time>2020-07-22T11:11:24Z</time>
      </trkpt>
      <trkpt lat="42.7356070" lon="2.0010320">
        <ele>1859.0</ele>
        <time>2020-07-22T11:11:28Z</time>
      </trkpt>
      <trkpt lat="42.7356410" lon="2.0009310">
        <ele>1860.0</ele>
        <time>2020-07-22T11:11:31Z</time>
      </trkpt>
      <trkpt lat="42.7356500" lon="2.0008960">
        <ele>1860.2</ele>
        <time>2020-07-22T11:11:32Z</time>
      </trkpt>
      <trkpt lat="42.7357150" lon="2.0006850">
        <ele>1861.4</ele>
        <time>2020-07-22T11:11:38Z</time>
      </trkpt>
      <trkpt lat="42.7357220" lon="2.0006470">
        <ele>1861.6</ele>
        <time>2020-07-22T11:11:39Z</time>
      </trkpt>
      <trkpt lat="42.7357530" lon="2.0005030">
        <ele>1862.6</ele>
        <time>2020-07-22T11:11:43Z</time>
      </trkpt>
      <trkpt lat="42.7357540" lon="2.0004670">
        <ele>1862.6</ele>
        <time>2020-07-22T11:11:44Z</time>
      </trkpt>
      <trkpt lat="42.7357350" lon="2.0003260">
        <ele>1863.8</ele>
        <time>2020-07-22T11:11:48Z</time>
      </trkpt>
      <trkpt lat="42.7357130" lon="2.0002250">
        <ele>1864.8</ele>
        <time>2020-07-22T11:11:51Z</time>
      </trkpt>
      <trkpt lat="42.7357040" lon="2.0001920">
        <ele>1865.0</ele>
        <time>2020-07-22T11:11:52Z</time>
      </trkpt>
      <trkpt lat="42.7356920" lon="1.9999860">
        <ele>1865.8</ele>
        <time>2020-07-22T11:11:58Z</time>
      </trkpt>
      <trkpt lat="42.7357150" lon="1.9999670">
        <ele>1866.0</ele>
        <time>2020-07-22T11:11:59Z</time>
      </trkpt>
      <trkpt lat="42.7357700" lon="1.9999640">
        <ele>1866.6</ele>
        <time>2020-07-22T11:12:01Z</time>
      </trkpt>
      <trkpt lat="42.7358270" lon="1.9999710">
        <ele>1867.2</ele>
        <time>2020-07-22T11:12:03Z</time>
      </trkpt>
      <trkpt lat="42.7359690" lon="1.9999900">
        <ele>1868.4</ele>
        <time>2020-07-22T11:12:08Z</time>
      </trkpt>
      <trkpt lat="42.7361150" lon="1.9999980">
        <ele>1869.4</ele>
        <time>2020-07-22T11:12:13Z</time>
      </trkpt>
      <trkpt lat="42.7361980" lon="1.9999560">
        <ele>1870.0</ele>
        <time>2020-07-22T11:12:16Z</time>
      </trkpt>
      <trkpt lat="42.7362250" lon="1.9998890">
        <ele>1870.6</ele>
        <time>2020-07-22T11:12:18Z</time>
      </trkpt>
      <trkpt lat="42.7362170" lon="1.9998560">
        <ele>1870.8</ele>
        <time>2020-07-22T11:12:19Z</time>
      </trkpt>
      <trkpt lat="42.7361980" lon="1.9998310">
        <ele>1870.8</ele>
        <time>2020-07-22T11:12:20Z</time>
      </trkpt>
      <trkpt lat="42.7361130" lon="1.9997760">
        <ele>1871.4</ele>
        <time>2020-07-22T11:12:23Z</time>
      </trkpt>
      <trkpt lat="42.7360510" lon="1.9997560">
        <ele>1871.8</ele>
        <time>2020-07-22T11:12:25Z</time>
      </trkpt>
      <trkpt lat="42.7359250" lon="1.9997200">
        <ele>1872.6</ele>
        <time>2020-07-22T11:12:29Z</time>
      </trkpt>
      <trkpt lat="42.7358330" lon="1.9996990">
        <ele>1873.0</ele>
        <time>2020-07-22T11:12:32Z</time>
      </trkpt>
      <trkpt lat="42.7356930" lon="1.9996120">
        <ele>1874.0</ele>
        <time>2020-07-22T11:12:37Z</time>
      </trkpt>
      <trkpt lat="42.7357300" lon="1.9995180">
        <ele>1874.4</ele>
        <time>2020-07-22T11:12:40Z</time>
      </trkpt>
      <trkpt lat="42.7357570" lon="1.9995120">
        <ele>1875.0</ele>
        <time>2020-07-22T11:12:41Z</time>
      </trkpt>
      <trkpt lat="42.7357840" lon="1.9995110">
        <ele>1875.2</ele>
        <time>2020-07-22T11:12:42Z</time>
      </trkpt>
      <trkpt lat="42.7358910" lon="1.9994900">
        <ele>1876.2</ele>
        <time>2020-07-22T11:12:46Z</time>
      </trkpt>
      <trkpt lat="42.7359180" lon="1.9994810">
        <ele>1876.4</ele>
        <time>2020-07-22T11:12:47Z</time>
      </trkpt>
      <trkpt lat="42.7360540" lon="1.9994160">
        <ele>1877.2</ele>
        <time>2020-07-22T11:12:52Z</time>
      </trkpt>
      <trkpt lat="42.7360800" lon="1.9994010">
        <ele>1877.6</ele>
        <time>2020-07-22T11:12:53Z</time>
      </trkpt>
      <trkpt lat="42.7361810" lon="1.9993300">
        <ele>1878.6</ele>
        <time>2020-07-22T11:12:57Z</time>
      </trkpt>
      <trkpt lat="42.7362360" lon="1.9992970">
        <ele>1878.8</ele>
        <time>2020-07-22T11:12:59Z</time>
      </trkpt>
      <trkpt lat="42.7363090" lon="1.9992370">
        <ele>1879.4</ele>
        <time>2020-07-22T11:13:02Z</time>
      </trkpt>
      <trkpt lat="42.7363250" lon="1.9992070">
        <ele>1879.8</ele>
        <time>2020-07-22T11:13:03Z</time>
      </trkpt>
      <trkpt lat="42.7363330" lon="1.9991730">
        <ele>1880.0</ele>
        <time>2020-07-22T11:13:04Z</time>
      </trkpt>
      <trkpt lat="42.7363150" lon="1.9991120">
        <ele>1880.0</ele>
        <time>2020-07-22T11:13:06Z</time>
      </trkpt>
      <trkpt lat="42.7362930" lon="1.9990950">
        <ele>1880.2</ele>
        <time>2020-07-22T11:13:07Z</time>
      </trkpt>
      <trkpt lat="42.7362660" lon="1.9990960">
        <ele>1880.2</ele>
        <time>2020-07-22T11:13:08Z</time>
      </trkpt>
      <trkpt lat="42.7361840" lon="1.9991370">
        <ele>1880.4</ele>
        <time>2020-07-22T11:13:11Z</time>
      </trkpt>
      <trkpt lat="42.7361280" lon="1.9991710">
        <ele>1880.8</ele>
        <time>2020-07-22T11:13:13Z</time>
      </trkpt>
      <trkpt lat="42.7360350" lon="1.9991820">
        <ele>1881.8</ele>
        <time>2020-07-22T11:13:16Z</time>
      </trkpt>
      <trkpt lat="42.7360060" lon="1.9991830">
        <ele>1882.0</ele>
        <time>2020-07-22T11:13:17Z</time>
      </trkpt>
      <trkpt lat="42.7358710" lon="1.9991550">
        <ele>1883.0</ele>
        <time>2020-07-22T11:13:22Z</time>
      </trkpt>
      <trkpt lat="42.7358210" lon="1.9991290">
        <ele>1883.4</ele>
        <time>2020-07-22T11:13:24Z</time>
      </trkpt>
      <trkpt lat="42.7357280" lon="1.9990510">
        <ele>1884.4</ele>
        <time>2020-07-22T11:13:28Z</time>
      </trkpt>
      <trkpt lat="42.7356690" lon="1.9989820">
        <ele>1885.4</ele>
        <time>2020-07-22T11:13:31Z</time>
      </trkpt>
      <trkpt lat="42.7356530" lon="1.9989530">
        <ele>1885.6</ele>
        <time>2020-07-22T11:13:32Z</time>
      </trkpt>
      <trkpt lat="42.7355840" lon="1.9988030">
        <ele>1886.6</ele>
        <time>2020-07-22T11:13:37Z</time>
      </trkpt>
      <trkpt lat="42.7355560" lon="1.9987440">
        <ele>1887.4</ele>
        <time>2020-07-22T11:13:39Z</time>
      </trkpt>
      <trkpt lat="42.7355420" lon="1.9987160">
        <ele>1887.8</ele>
        <time>2020-07-22T11:13:40Z</time>
      </trkpt>
      <trkpt lat="42.7354900" lon="1.9985980">
        <ele>1888.8</ele>
        <time>2020-07-22T11:13:44Z</time>
      </trkpt>
      <trkpt lat="42.7354390" lon="1.9984640">
        <ele>1889.6</ele>
        <time>2020-07-22T11:13:48Z</time>
      </trkpt>
      <trkpt lat="42.7354270" lon="1.9984250">
        <ele>1889.8</ele>
        <time>2020-07-22T11:13:49Z</time>
      </trkpt>
      <trkpt lat="42.7353590" lon="1.9981900">
        <ele>1890.6</ele>
        <time>2020-07-22T11:13:55Z</time>
      </trkpt>
      <trkpt lat="42.7353510" lon="1.9981530">
        <ele>1890.8</ele>
        <time>2020-07-22T11:13:56Z</time>
      </trkpt>
      <trkpt lat="42.7353380" lon="1.9980750">
        <ele>1891.0</ele>
        <time>2020-07-22T11:13:58Z</time>
      </trkpt>
      <trkpt lat="42.7353060" lon="1.9978110">
        <ele>1890.8</ele>
        <time>2020-07-22T11:14:04Z</time>
      </trkpt>
      <trkpt lat="42.7352690" lon="1.9975080">
        <ele>1890.4</ele>
        <time>2020-07-22T11:14:09Z</time>
      </trkpt>
      <trkpt lat="42.7352340" lon="1.9972930">
        <ele>1889.8</ele>
        <time>2020-07-22T11:14:12Z</time>
      </trkpt>
      <trkpt lat="42.7352140" lon="1.9971350">
        <ele>1889.2</ele>
        <time>2020-07-22T11:14:14Z</time>
      </trkpt>
      <trkpt lat="42.7351970" lon="1.9968570">
        <ele>1888.6</ele>
        <time>2020-07-22T11:14:17Z</time>
      </trkpt>
      <trkpt lat="42.7352010" lon="1.9966470">
        <ele>1887.6</ele>
        <time>2020-07-22T11:14:19Z</time>
      </trkpt>
      <trkpt lat="42.7352040" lon="1.9965330">
        <ele>1886.8</ele>
        <time>2020-07-22T11:14:20Z</time>
      </trkpt>
      <trkpt lat="42.7352020" lon="1.9962920">
        <ele>1885.6</ele>
        <time>2020-07-22T11:14:22Z</time>
      </trkpt>
      <trkpt lat="42.7351820" lon="1.9960350">
        <ele>1884.4</ele>
        <time>2020-07-22T11:14:24Z</time>
      </trkpt>
      <trkpt lat="42.7351420" lon="1.9957790">
        <ele>1883.4</ele>
        <time>2020-07-22T11:14:26Z</time>
      </trkpt>
      <trkpt lat="42.7350780" lon="1.9954520">
        <ele>1883.2</ele>
        <time>2020-07-22T11:14:29Z</time>
      </trkpt>
      <trkpt lat="42.7350490" lon="1.9952850">
        <ele>1884.6</ele>
        <time>2020-07-22T11:14:31Z</time>
      </trkpt>
      <trkpt lat="42.7350300" lon="1.9951390">
        <ele>1886.4</ele>
        <time>2020-07-22T11:14:33Z</time>
      </trkpt>
      <trkpt lat="42.7350210" lon="1.9950750">
        <ele>1887.4</ele>
        <time>2020-07-22T11:14:34Z</time>
      </trkpt>
      <trkpt lat="42.7350100" lon="1.9950170">
        <ele>1888.0</ele>
        <time>2020-07-22T11:14:35Z</time>
      </trkpt>
      <trkpt lat="42.7349850" lon="1.9948750">
        <ele>1889.4</ele>
        <time>2020-07-22T11:14:38Z</time>
      </trkpt>
      <trkpt lat="42.7349780" lon="1.9948340">
        <ele>1889.8</ele>
        <time>2020-07-22T11:14:39Z</time>
      </trkpt>
      <trkpt lat="42.7349610" lon="1.9947580">
        <ele>1890.6</ele>
        <time>2020-07-22T11:14:41Z</time>
      </trkpt>
      <trkpt lat="42.7349440" lon="1.9946540">
        <ele>1891.6</ele>
        <time>2020-07-22T11:14:44Z</time>
      </trkpt>
      <trkpt lat="42.7349180" lon="1.9945540">
        <ele>1893.0</ele>
        <time>2020-07-22T11:14:47Z</time>
      </trkpt>
      <trkpt lat="42.7348750" lon="1.9944280">
        <ele>1894.0</ele>
        <time>2020-07-22T11:14:51Z</time>
      </trkpt>
      <trkpt lat="42.7348450" lon="1.9943720">
        <ele>1894.4</ele>
        <time>2020-07-22T11:14:53Z</time>
      </trkpt>
      <trkpt lat="42.7347950" lon="1.9942860">
        <ele>1895.0</ele>
        <time>2020-07-22T11:14:56Z</time>
      </trkpt>
      <trkpt lat="42.7347020" lon="1.9941640">
        <ele>1896.2</ele>
        <time>2020-07-22T11:15:01Z</time>
      </trkpt>
      <trkpt lat="42.7345970" lon="1.9940370">
        <ele>1897.4</ele>
        <time>2020-07-22T11:15:07Z</time>
      </trkpt>
      <trkpt lat="42.7345620" lon="1.9940070">
        <ele>1898.0</ele>
        <time>2020-07-22T11:15:09Z</time>
      </trkpt>
      <trkpt lat="42.7345270" lon="1.9939780">
        <ele>1898.6</ele>
        <time>2020-07-22T11:15:11Z</time>
      </trkpt>
      <trkpt lat="42.7345150" lon="1.9939630">
        <ele>1898.6</ele>
        <time>2020-07-22T11:15:12Z</time>
      </trkpt>
      <trkpt lat="42.7336720" lon="1.9927010">
        <ele>1911.0</ele>
        <time>2020-07-22T11:17:08Z</time>
      </trkpt>
      <trkpt lat="42.7336610" lon="1.9926820">
        <ele>1911.0</ele>
        <time>2020-07-22T11:17:09Z</time>
      </trkpt>
      <trkpt lat="42.7335940" lon="1.9926360">
        <ele>1911.0</ele>
        <time>2020-07-22T11:17:14Z</time>
      </trkpt>
      <trkpt lat="42.7335900" lon="1.9926380">
        <ele>1911.2</ele>
        <time>2020-07-22T11:17:18Z</time>
      </trkpt>
      <trkpt lat="42.7335900" lon="1.9926360">
        <ele>1911.2</ele>
        <time>2020-07-22T11:17:20Z</time>
      </trkpt>
      <trkpt lat="42.7336060" lon="1.9923430">
        <ele>1911.0</ele>
        <time>2020-07-22T11:34:14Z</time>
      </trkpt>
      <trkpt lat="42.7335880" lon="1.9922800">
        <ele>1911.0</ele>
        <time>2020-07-22T11:34:16Z</time>
      </trkpt>
      <trkpt lat="42.7335620" lon="1.9921170">
        <ele>1910.0</ele>
        <time>2020-07-22T11:34:19Z</time>
      </trkpt>
      <trkpt lat="42.7335430" lon="1.9920490">
        <ele>1909.6</ele>
        <time>2020-07-22T11:34:20Z</time>
      </trkpt>
      <trkpt lat="42.7335040" lon="1.9920150">
        <ele>1909.2</ele>
        <time>2020-07-22T11:34:21Z</time>
      </trkpt>
      <trkpt lat="42.7334400" lon="1.9918850">
        <ele>1908.2</ele>
        <time>2020-07-22T11:34:23Z</time>
      </trkpt>
      <trkpt lat="42.7333890" lon="1.9918220">
        <ele>1907.6</ele>
        <time>2020-07-22T11:34:24Z</time>
      </trkpt>
      <trkpt lat="42.7333290" lon="1.9917660">
        <ele>1907.0</ele>
        <time>2020-07-22T11:34:25Z</time>
      </trkpt>
      <trkpt lat="42.7332030" lon="1.9916620">
        <ele>1905.6</ele>
        <time>2020-07-22T11:34:27Z</time>
      </trkpt>
      <trkpt lat="42.7331440" lon="1.9916090">
        <ele>1904.8</ele>
        <time>2020-07-22T11:34:28Z</time>
      </trkpt>
      <trkpt lat="42.7330880" lon="1.9915520">
        <ele>1904.2</ele>
        <time>2020-07-22T11:34:29Z</time>
      </trkpt>
      <trkpt lat="42.7329970" lon="1.9914360">
        <ele>1903.0</ele>
        <time>2020-07-22T11:34:31Z</time>
      </trkpt>
      <trkpt lat="42.7329560" lon="1.9913770">
        <ele>1902.4</ele>
        <time>2020-07-22T11:34:32Z</time>
      </trkpt>
      <trkpt lat="42.7329150" lon="1.9913130">
        <ele>1902.0</ele>
        <time>2020-07-22T11:34:33Z</time>
      </trkpt>
      <trkpt lat="42.7328720" lon="1.9912430">
        <ele>1901.6</ele>
        <time>2020-07-22T11:34:34Z</time>
      </trkpt>
      <trkpt lat="42.7327150" lon="1.9909950">
        <ele>1900.6</ele>
        <time>2020-07-22T11:34:37Z</time>
      </trkpt>
      <trkpt lat="42.7326590" lon="1.9909040">
        <ele>1900.2</ele>
        <time>2020-07-22T11:34:38Z</time>
      </trkpt>
      <trkpt lat="42.7324750" lon="1.9906220">
        <ele>1898.6</ele>
        <time>2020-07-22T11:34:41Z</time>
      </trkpt>
      <trkpt lat="42.7323590" lon="1.9904250">
        <ele>1897.0</ele>
        <time>2020-07-22T11:34:43Z</time>
      </trkpt>
      <trkpt lat="42.7323100" lon="1.9903310">
        <ele>1895.8</ele>
        <time>2020-07-22T11:34:44Z</time>
      </trkpt>
      <trkpt lat="42.7322690" lon="1.9902430">
        <ele>1894.8</ele>
        <time>2020-07-22T11:34:45Z</time>
      </trkpt>
      <trkpt lat="42.7322070" lon="1.9900950">
        <ele>1893.0</ele>
        <time>2020-07-22T11:34:47Z</time>
      </trkpt>
      <trkpt lat="42.7321820" lon="1.9900370">
        <ele>1891.8</ele>
        <time>2020-07-22T11:34:48Z</time>
      </trkpt>
      <trkpt lat="42.7321550" lon="1.9899840">
        <ele>1890.8</ele>
        <time>2020-07-22T11:34:49Z</time>
      </trkpt>
      <trkpt lat="42.7321240" lon="1.9899330">
        <ele>1889.8</ele>
        <time>2020-07-22T11:34:50Z</time>
      </trkpt>
      <trkpt lat="42.7320880" lon="1.9898840">
        <ele>1889.2</ele>
        <time>2020-07-22T11:34:51Z</time>
      </trkpt>
      <trkpt lat="42.7320450" lon="1.9898350">
        <ele>1888.8</ele>
        <time>2020-07-22T11:34:52Z</time>
      </trkpt>
      <trkpt lat="42.7319370" lon="1.9897300">
        <ele>1887.8</ele>
        <time>2020-07-22T11:34:54Z</time>
      </trkpt>
      <trkpt lat="42.7318160" lon="1.9895940">
        <ele>1886.6</ele>
        <time>2020-07-22T11:34:56Z</time>
      </trkpt>
      <trkpt lat="42.7317200" lon="1.9894650">
        <ele>1885.6</ele>
        <time>2020-07-22T11:34:58Z</time>
      </trkpt>
      <trkpt lat="42.7316860" lon="1.9894080">
        <ele>1884.6</ele>
        <time>2020-07-22T11:34:59Z</time>
      </trkpt>
      <trkpt lat="42.7316620" lon="1.9893610">
        <ele>1883.6</ele>
        <time>2020-07-22T11:35:00Z</time>
      </trkpt>
      <trkpt lat="42.7316460" lon="1.9893250">
        <ele>1882.8</ele>
        <time>2020-07-22T11:35:01Z</time>
      </trkpt>
      <trkpt lat="42.7316350" lon="1.9892960">
        <ele>1881.2</ele>
        <time>2020-07-22T11:35:03Z</time>
      </trkpt>
      <trkpt lat="42.7316360" lon="1.9892960">
        <ele>1880.4</ele>
        <time>2020-07-22T11:35:05Z</time>
      </trkpt>
      <trkpt lat="42.7316350" lon="1.9892970">
        <ele>1880.2</ele>
        <time>2020-07-22T11:35:06Z</time>
      </trkpt>
      <trkpt lat="42.7316220" lon="1.9892770">
        <ele>1879.2</ele>
        <time>2020-07-22T11:35:10Z</time>
      </trkpt>
      <trkpt lat="42.7316070" lon="1.9892500">
        <ele>1879.4</ele>
        <time>2020-07-22T11:35:11Z</time>
      </trkpt>
      <trkpt lat="42.7315750" lon="1.9891740">
        <ele>1879.8</ele>
        <time>2020-07-22T11:35:13Z</time>
      </trkpt>
      <trkpt lat="42.7315600" lon="1.9891150">
        <ele>1879.8</ele>
        <time>2020-07-22T11:35:14Z</time>
      </trkpt>
      <trkpt lat="42.7315500" lon="1.9890560">
        <ele>1879.8</ele>
        <time>2020-07-22T11:35:15Z</time>
      </trkpt>
      <trkpt lat="42.7315470" lon="1.9889700">
        <ele>1879.2</ele>
        <time>2020-07-22T11:35:17Z</time>
      </trkpt>
      <trkpt lat="42.7315480" lon="1.9889300">
        <ele>1878.8</ele>
        <time>2020-07-22T11:35:18Z</time>
      </trkpt>
      <trkpt lat="42.7315950" lon="1.9886540">
        <ele>1878.0</ele>
        <time>2020-07-22T11:35:23Z</time>
      </trkpt>
      <trkpt lat="42.7316740" lon="1.9884600">
        <ele>1877.8</ele>
        <time>2020-07-22T11:35:26Z</time>
      </trkpt>
      <trkpt lat="42.7317540" lon="1.9883380">
        <ele>1877.6</ele>
        <time>2020-07-22T11:35:28Z</time>
      </trkpt>
      <trkpt lat="42.7318590" lon="1.9882370">
        <ele>1876.6</ele>
        <time>2020-07-22T11:35:30Z</time>
      </trkpt>
      <trkpt lat="42.7319180" lon="1.9881880">
        <ele>1876.2</ele>
        <time>2020-07-22T11:35:31Z</time>
      </trkpt>
      <trkpt lat="42.7319810" lon="1.9881480">
        <ele>1875.8</ele>
        <time>2020-07-22T11:35:32Z</time>
      </trkpt>
      <trkpt lat="42.7320440" lon="1.9881110">
        <ele>1875.4</ele>
        <time>2020-07-22T11:35:33Z</time>
      </trkpt>
      <trkpt lat="42.7321090" lon="1.9880790">
        <ele>1875.0</ele>
        <time>2020-07-22T11:35:34Z</time>
      </trkpt>
      <trkpt lat="42.7321770" lon="1.9880540">
        <ele>1874.4</ele>
        <time>2020-07-22T11:35:35Z</time>
      </trkpt>
      <trkpt lat="42.7323210" lon="1.9880250">
        <ele>1873.4</ele>
        <time>2020-07-22T11:35:37Z</time>
      </trkpt>
      <trkpt lat="42.7323910" lon="1.9880160">
        <ele>1872.4</ele>
        <time>2020-07-22T11:35:38Z</time>
      </trkpt>
      <trkpt lat="42.7325270" lon="1.9879820">
        <ele>1870.8</ele>
        <time>2020-07-22T11:35:40Z</time>
      </trkpt>
      <trkpt lat="42.7325900" lon="1.9879510">
        <ele>1870.0</ele>
        <time>2020-07-22T11:35:41Z</time>
      </trkpt>
      <trkpt lat="42.7326530" lon="1.9879120">
        <ele>1869.0</ele>
        <time>2020-07-22T11:35:42Z</time>
      </trkpt>
      <trkpt lat="42.7327130" lon="1.9878650">
        <ele>1868.4</ele>
        <time>2020-07-22T11:35:43Z</time>
      </trkpt>
      <trkpt lat="42.7327680" lon="1.9878070">
        <ele>1867.6</ele>
        <time>2020-07-22T11:35:44Z</time>
      </trkpt>
      <trkpt lat="42.7328190" lon="1.9877380">
        <ele>1866.8</ele>
        <time>2020-07-22T11:35:45Z</time>
      </trkpt>
      <trkpt lat="42.7328650" lon="1.9876570">
        <ele>1866.0</ele>
        <time>2020-07-22T11:35:46Z</time>
      </trkpt>
      <trkpt lat="42.7329550" lon="1.9874920">
        <ele>1864.4</ele>
        <time>2020-07-22T11:35:48Z</time>
      </trkpt>
      <trkpt lat="42.7330370" lon="1.9873330">
        <ele>1863.2</ele>
        <time>2020-07-22T11:35:50Z</time>
      </trkpt>
      <trkpt lat="42.7331160" lon="1.9871850">
        <ele>1861.8</ele>
        <time>2020-07-22T11:35:52Z</time>
      </trkpt>
      <trkpt lat="42.7331910" lon="1.9870310">
        <ele>1860.4</ele>
        <time>2020-07-22T11:35:54Z</time>
      </trkpt>
      <trkpt lat="42.7332640" lon="1.9868740">
        <ele>1859.2</ele>
        <time>2020-07-22T11:35:56Z</time>
      </trkpt>
      <trkpt lat="42.7333380" lon="1.9867130">
        <ele>1857.8</ele>
        <time>2020-07-22T11:35:58Z</time>
      </trkpt>
      <trkpt lat="42.7333760" lon="1.9866320">
        <ele>1856.8</ele>
        <time>2020-07-22T11:35:59Z</time>
      </trkpt>
      <trkpt lat="42.7334510" lon="1.9864700">
        <ele>1855.4</ele>
        <time>2020-07-22T11:36:01Z</time>
      </trkpt>
      <trkpt lat="42.7335640" lon="1.9862310">
        <ele>1853.6</ele>
        <time>2020-07-22T11:36:04Z</time>
      </trkpt>
      <trkpt lat="42.7336410" lon="1.9860770">
        <ele>1852.0</ele>
        <time>2020-07-22T11:36:06Z</time>
      </trkpt>
      <trkpt lat="42.7336790" lon="1.9859970">
        <ele>1851.4</ele>
        <time>2020-07-22T11:36:07Z</time>
      </trkpt>
      <trkpt lat="42.7337180" lon="1.9859180">
        <ele>1850.6</ele>
        <time>2020-07-22T11:36:08Z</time>
      </trkpt>
      <trkpt lat="42.7337570" lon="1.9858400">
        <ele>1849.6</ele>
        <time>2020-07-22T11:36:09Z</time>
      </trkpt>
      <trkpt lat="42.7337940" lon="1.9857640">
        <ele>1849.0</ele>
        <time>2020-07-22T11:36:10Z</time>
      </trkpt>
      <trkpt lat="42.7339000" lon="1.9855230">
        <ele>1847.6</ele>
        <time>2020-07-22T11:36:13Z</time>
      </trkpt>
      <trkpt lat="42.7339340" lon="1.9854400">
        <ele>1847.0</ele>
        <time>2020-07-22T11:36:14Z</time>
      </trkpt>
      <trkpt lat="42.7339640" lon="1.9853610">
        <ele>1846.2</ele>
        <time>2020-07-22T11:36:15Z</time>
      </trkpt>
      <trkpt lat="42.7339920" lon="1.9852860">
        <ele>1845.4</ele>
        <time>2020-07-22T11:36:16Z</time>
      </trkpt>
      <trkpt lat="42.7340190" lon="1.9852090">
        <ele>1844.8</ele>
        <time>2020-07-22T11:36:17Z</time>
      </trkpt>
      <trkpt lat="42.7340660" lon="1.9850540">
        <ele>1843.0</ele>
        <time>2020-07-22T11:36:19Z</time>
      </trkpt>
      <trkpt lat="42.7341100" lon="1.9848840">
        <ele>1841.4</ele>
        <time>2020-07-22T11:36:21Z</time>
      </trkpt>
      <trkpt lat="42.7341290" lon="1.9847920">
        <ele>1840.4</ele>
        <time>2020-07-22T11:36:22Z</time>
      </trkpt>
      <trkpt lat="42.7341430" lon="1.9847010">
        <ele>1839.8</ele>
        <time>2020-07-22T11:36:23Z</time>
      </trkpt>
      <trkpt lat="42.7341510" lon="1.9846060">
        <ele>1839.2</ele>
        <time>2020-07-22T11:36:24Z</time>
      </trkpt>
      <trkpt lat="42.7341560" lon="1.9844030">
        <ele>1838.2</ele>
        <time>2020-07-22T11:36:26Z</time>
      </trkpt>
      <trkpt lat="42.7341520" lon="1.9843020">
        <ele>1837.6</ele>
        <time>2020-07-22T11:36:27Z</time>
      </trkpt>
      <trkpt lat="42.7341420" lon="1.9841980">
        <ele>1837.0</ele>
        <time>2020-07-22T11:36:28Z</time>
      </trkpt>
      <trkpt lat="42.7341310" lon="1.9839950">
        <ele>1836.0</ele>
        <time>2020-07-22T11:36:30Z</time>
      </trkpt>
      <trkpt lat="42.7341440" lon="1.9837090">
        <ele>1834.4</ele>
        <time>2020-07-22T11:36:33Z</time>
      </trkpt>
      <trkpt lat="42.7341730" lon="1.9835020">
        <ele>1833.4</ele>
        <time>2020-07-22T11:36:35Z</time>
      </trkpt>
      <trkpt lat="42.7342010" lon="1.9833070">
        <ele>1832.0</ele>
        <time>2020-07-22T11:36:37Z</time>
      </trkpt>
      <trkpt lat="42.7342100" lon="1.9832290">
        <ele>1831.4</ele>
        <time>2020-07-22T11:36:38Z</time>
      </trkpt>
      <trkpt lat="42.7342150" lon="1.9831700">
        <ele>1830.6</ele>
        <time>2020-07-22T11:36:39Z</time>
      </trkpt>
      <trkpt lat="42.7342140" lon="1.9831300">
        <ele>1829.6</ele>
        <time>2020-07-22T11:36:40Z</time>
      </trkpt>
      <trkpt lat="42.7342150" lon="1.9831120">
        <ele>1828.4</ele>
        <time>2020-07-22T11:36:41Z</time>
      </trkpt>
      <trkpt lat="42.7342140" lon="1.9831090">
        <ele>1827.2</ele>
        <time>2020-07-22T11:36:43Z</time>
      </trkpt>
      <trkpt lat="42.7342140" lon="1.9831180">
        <ele>1826.0</ele>
        <time>2020-07-22T11:36:48Z</time>
      </trkpt>
      <trkpt lat="42.7342140" lon="1.9831220">
        <ele>1825.8</ele>
        <time>2020-07-22T11:36:50Z</time>
      </trkpt>
      <trkpt lat="42.7342150" lon="1.9831170">
        <ele>1825.8</ele>
        <time>2020-07-22T11:36:51Z</time>
      </trkpt>
      <trkpt lat="42.7342120" lon="1.9830970">
        <ele>1825.8</ele>
        <time>2020-07-22T11:36:52Z</time>
      </trkpt>
      <trkpt lat="42.7341960" lon="1.9829730">
        <ele>1826.0</ele>
        <time>2020-07-22T11:36:55Z</time>
      </trkpt>
      <trkpt lat="42.7341350" lon="1.9826530">
        <ele>1825.6</ele>
        <time>2020-07-22T11:36:59Z</time>
      </trkpt>
      <trkpt lat="42.7340460" lon="1.9822610">
        <ele>1825.0</ele>
        <time>2020-07-22T11:37:03Z</time>
      </trkpt>
      <trkpt lat="42.7339790" lon="1.9820650">
        <ele>1823.8</ele>
        <time>2020-07-22T11:37:05Z</time>
      </trkpt>
      <trkpt lat="42.7339370" lon="1.9819680">
        <ele>1822.8</ele>
        <time>2020-07-22T11:37:06Z</time>
      </trkpt>
      <trkpt lat="42.7338920" lon="1.9818740">
        <ele>1821.6</ele>
        <time>2020-07-22T11:37:07Z</time>
      </trkpt>
      <trkpt lat="42.7338510" lon="1.9817920">
        <ele>1820.6</ele>
        <time>2020-07-22T11:37:08Z</time>
      </trkpt>
      <trkpt lat="42.7337600" lon="1.9816190">
        <ele>1818.8</ele>
        <time>2020-07-22T11:37:10Z</time>
      </trkpt>
      <trkpt lat="42.7336710" lon="1.9814380">
        <ele>1817.4</ele>
        <time>2020-07-22T11:37:12Z</time>
      </trkpt>
      <trkpt lat="42.7335790" lon="1.9812490">
        <ele>1816.2</ele>
        <time>2020-07-22T11:37:14Z</time>
      </trkpt>
      <trkpt lat="42.7334920" lon="1.9810680">
        <ele>1814.8</ele>
        <time>2020-07-22T11:37:16Z</time>
      </trkpt>
      <trkpt lat="42.7334480" lon="1.9809790">
        <ele>1814.0</ele>
        <time>2020-07-22T11:37:17Z</time>
      </trkpt>
      <trkpt lat="42.7334020" lon="1.9808880">
        <ele>1813.0</ele>
        <time>2020-07-22T11:37:18Z</time>
      </trkpt>
      <trkpt lat="42.7333540" lon="1.9807950">
        <ele>1811.8</ele>
        <time>2020-07-22T11:37:19Z</time>
      </trkpt>
      <trkpt lat="42.7333070" lon="1.9807010">
        <ele>1810.6</ele>
        <time>2020-07-22T11:37:20Z</time>
      </trkpt>
      <trkpt lat="42.7332230" lon="1.9804950">
        <ele>1809.4</ele>
        <time>2020-07-22T11:37:22Z</time>
      </trkpt>
      <trkpt lat="42.7331910" lon="1.9803820">
        <ele>1809.0</ele>
        <time>2020-07-22T11:37:23Z</time>
      </trkpt>
      <trkpt lat="42.7331660" lon="1.9802630">
        <ele>1808.4</ele>
        <time>2020-07-22T11:37:24Z</time>
      </trkpt>
      <trkpt lat="42.7331280" lon="1.9800270">
        <ele>1806.8</ele>
        <time>2020-07-22T11:37:26Z</time>
      </trkpt>
      <trkpt lat="42.7330980" lon="1.9797890">
        <ele>1805.2</ele>
        <time>2020-07-22T11:37:28Z</time>
      </trkpt>
      <trkpt lat="42.7330920" lon="1.9795480">
        <ele>1803.4</ele>
        <time>2020-07-22T11:37:30Z</time>
      </trkpt>
      <trkpt lat="42.7330940" lon="1.9794320">
        <ele>1802.2</ele>
        <time>2020-07-22T11:37:31Z</time>
      </trkpt>
      <trkpt lat="42.7330950" lon="1.9792080">
        <ele>1800.6</ele>
        <time>2020-07-22T11:37:33Z</time>
      </trkpt>
      <trkpt lat="42.7330850" lon="1.9790990">
        <ele>1799.4</ele>
        <time>2020-07-22T11:37:34Z</time>
      </trkpt>
      <trkpt lat="42.7330700" lon="1.9789930">
        <ele>1798.0</ele>
        <time>2020-07-22T11:37:35Z</time>
      </trkpt>
      <trkpt lat="42.7330490" lon="1.9788900">
        <ele>1796.8</ele>
        <time>2020-07-22T11:37:36Z</time>
      </trkpt>
      <trkpt lat="42.7330220" lon="1.9787910">
        <ele>1796.0</ele>
        <time>2020-07-22T11:37:37Z</time>
      </trkpt>
      <trkpt lat="42.7329920" lon="1.9786960">
        <ele>1795.6</ele>
        <time>2020-07-22T11:37:38Z</time>
      </trkpt>
      <trkpt lat="42.7329220" lon="1.9785190">
        <ele>1794.0</ele>
        <time>2020-07-22T11:37:40Z</time>
      </trkpt>
      <trkpt lat="42.7328810" lon="1.9784350">
        <ele>1793.0</ele>
        <time>2020-07-22T11:37:41Z</time>
      </trkpt>
      <trkpt lat="42.7328400" lon="1.9783530">
        <ele>1792.0</ele>
        <time>2020-07-22T11:37:42Z</time>
      </trkpt>
      <trkpt lat="42.7328010" lon="1.9782710">
        <ele>1791.2</ele>
        <time>2020-07-22T11:37:43Z</time>
      </trkpt>
      <trkpt lat="42.7327200" lon="1.9781000">
        <ele>1789.6</ele>
        <time>2020-07-22T11:37:45Z</time>
      </trkpt>
      <trkpt lat="42.7326440" lon="1.9779460">
        <ele>1788.4</ele>
        <time>2020-07-22T11:37:47Z</time>
      </trkpt>
      <trkpt lat="42.7326130" lon="1.9778850">
        <ele>1787.8</ele>
        <time>2020-07-22T11:37:48Z</time>
      </trkpt>
      <trkpt lat="42.7325780" lon="1.9778260">
        <ele>1787.0</ele>
        <time>2020-07-22T11:37:49Z</time>
      </trkpt>
      <trkpt lat="42.7325400" lon="1.9777660">
        <ele>1786.2</ele>
        <time>2020-07-22T11:37:50Z</time>
      </trkpt>
      <trkpt lat="42.7324950" lon="1.9777010">
        <ele>1785.8</ele>
        <time>2020-07-22T11:37:51Z</time>
      </trkpt>
      <trkpt lat="42.7323930" lon="1.9775660">
        <ele>1785.0</ele>
        <time>2020-07-22T11:37:53Z</time>
      </trkpt>
      <trkpt lat="42.7323360" lon="1.9774940">
        <ele>1784.6</ele>
        <time>2020-07-22T11:37:54Z</time>
      </trkpt>
      <trkpt lat="42.7322210" lon="1.9773470">
        <ele>1783.4</ele>
        <time>2020-07-22T11:37:56Z</time>
      </trkpt>
      <trkpt lat="42.7321300" lon="1.9772250">
        <ele>1781.6</ele>
        <time>2020-07-22T11:37:58Z</time>
      </trkpt>
      <trkpt lat="42.7320500" lon="1.9771100">
        <ele>1780.0</ele>
        <time>2020-07-22T11:38:00Z</time>
      </trkpt>
      <trkpt lat="42.7319620" lon="1.9769500">
        <ele>1778.4</ele>
        <time>2020-07-22T11:38:03Z</time>
      </trkpt>
      <trkpt lat="42.7319390" lon="1.9768990">
        <ele>1776.6</ele>
        <time>2020-07-22T11:38:05Z</time>
      </trkpt>
      <trkpt lat="42.7319350" lon="1.9768960">
        <ele>1776.0</ele>
        <time>2020-07-22T11:38:06Z</time>
      </trkpt>
      <trkpt lat="42.7318040" lon="1.9767400">
        <ele>1773.6</ele>
        <time>2020-07-22T11:38:48Z</time>
      </trkpt>
      <trkpt lat="42.7317900" lon="1.9767130">
        <ele>1773.4</ele>
        <time>2020-07-22T11:38:49Z</time>
      </trkpt>
      <trkpt lat="42.7317700" lon="1.9766790">
        <ele>1773.0</ele>
        <time>2020-07-22T11:38:50Z</time>
      </trkpt>
      <trkpt lat="42.7316860" lon="1.9765420">
        <ele>1772.6</ele>
        <time>2020-07-22T11:38:53Z</time>
      </trkpt>
      <trkpt lat="42.7316500" lon="1.9764750">
        <ele>1772.2</ele>
        <time>2020-07-22T11:38:54Z</time>
      </trkpt>
      <trkpt lat="42.7316080" lon="1.9764010">
        <ele>1771.8</ele>
        <time>2020-07-22T11:38:55Z</time>
      </trkpt>
      <trkpt lat="42.7315200" lon="1.9762350">
        <ele>1770.8</ele>
        <time>2020-07-22T11:38:57Z</time>
      </trkpt>
      <trkpt lat="42.7314330" lon="1.9760550">
        <ele>1770.2</ele>
        <time>2020-07-22T11:38:59Z</time>
      </trkpt>
      <trkpt lat="42.7313930" lon="1.9759560">
        <ele>1769.6</ele>
        <time>2020-07-22T11:39:00Z</time>
      </trkpt>
      <trkpt lat="42.7313240" lon="1.9757550">
        <ele>1768.4</ele>
        <time>2020-07-22T11:39:02Z</time>
      </trkpt>
      <trkpt lat="42.7312710" lon="1.9755510">
        <ele>1767.0</ele>
        <time>2020-07-22T11:39:04Z</time>
      </trkpt>
      <trkpt lat="42.7311800" lon="1.9751000">
        <ele>1765.8</ele>
        <time>2020-07-22T11:39:08Z</time>
      </trkpt>
      <trkpt lat="42.7311410" lon="1.9748610">
        <ele>1764.8</ele>
        <time>2020-07-22T11:39:10Z</time>
      </trkpt>
      <trkpt lat="42.7310840" lon="1.9744970">
        <ele>1763.2</ele>
        <time>2020-07-22T11:39:13Z</time>
      </trkpt>
      <trkpt lat="42.7310480" lon="1.9742560">
        <ele>1761.4</ele>
        <time>2020-07-22T11:39:15Z</time>
      </trkpt>
      <trkpt lat="42.7310310" lon="1.9741370">
        <ele>1760.4</ele>
        <time>2020-07-22T11:39:16Z</time>
      </trkpt>
      <trkpt lat="42.7310130" lon="1.9740170">
        <ele>1759.0</ele>
        <time>2020-07-22T11:39:17Z</time>
      </trkpt>
      <trkpt lat="42.7309960" lon="1.9738980">
        <ele>1757.8</ele>
        <time>2020-07-22T11:39:18Z</time>
      </trkpt>
      <trkpt lat="42.7309800" lon="1.9737760">
        <ele>1757.0</ele>
        <time>2020-07-22T11:39:19Z</time>
      </trkpt>
      <trkpt lat="42.7309660" lon="1.9736560">
        <ele>1756.2</ele>
        <time>2020-07-22T11:39:20Z</time>
      </trkpt>
      <trkpt lat="42.7309490" lon="1.9734160">
        <ele>1754.8</ele>
        <time>2020-07-22T11:39:22Z</time>
      </trkpt>
      <trkpt lat="42.7309340" lon="1.9731790">
        <ele>1752.8</ele>
        <time>2020-07-22T11:39:24Z</time>
      </trkpt>
      <trkpt lat="42.7309220" lon="1.9729470">
        <ele>1751.0</ele>
        <time>2020-07-22T11:39:26Z</time>
      </trkpt>
      <trkpt lat="42.7309170" lon="1.9728310">
        <ele>1750.0</ele>
        <time>2020-07-22T11:39:27Z</time>
      </trkpt>
      <trkpt lat="42.7309110" lon="1.9727150">
        <ele>1749.0</ele>
        <time>2020-07-22T11:39:28Z</time>
      </trkpt>
      <trkpt lat="42.7309020" lon="1.9724810">
        <ele>1747.4</ele>
        <time>2020-07-22T11:39:30Z</time>
      </trkpt>
      <trkpt lat="42.7308960" lon="1.9722510">
        <ele>1745.8</ele>
        <time>2020-07-22T11:39:32Z</time>
      </trkpt>
      <trkpt lat="42.7308920" lon="1.9721410">
        <ele>1745.0</ele>
        <time>2020-07-22T11:39:33Z</time>
      </trkpt>
      <trkpt lat="42.7308850" lon="1.9720350">
        <ele>1744.4</ele>
        <time>2020-07-22T11:39:34Z</time>
      </trkpt>
      <trkpt lat="42.7308780" lon="1.9718360">
        <ele>1742.6</ele>
        <time>2020-07-22T11:39:36Z</time>
      </trkpt>
      <trkpt lat="42.7308720" lon="1.9716390">
        <ele>1741.4</ele>
        <time>2020-07-22T11:39:38Z</time>
      </trkpt>
      <trkpt lat="42.7308680" lon="1.9715390">
        <ele>1740.6</ele>
        <time>2020-07-22T11:39:39Z</time>
      </trkpt>
      <trkpt lat="42.7308580" lon="1.9714370">
        <ele>1740.0</ele>
        <time>2020-07-22T11:39:40Z</time>
      </trkpt>
      <trkpt lat="42.7308420" lon="1.9713390">
        <ele>1739.6</ele>
        <time>2020-07-22T11:39:41Z</time>
      </trkpt>
      <trkpt lat="42.7308170" lon="1.9712450">
        <ele>1739.0</ele>
        <time>2020-07-22T11:39:42Z</time>
      </trkpt>
      <trkpt lat="42.7307800" lon="1.9711520">
        <ele>1738.0</ele>
        <time>2020-07-22T11:39:43Z</time>
      </trkpt>
      <trkpt lat="42.7307370" lon="1.9710620">
        <ele>1736.8</ele>
        <time>2020-07-22T11:39:44Z</time>
      </trkpt>
      <trkpt lat="42.7306900" lon="1.9709730">
        <ele>1735.6</ele>
        <time>2020-07-22T11:39:45Z</time>
      </trkpt>
      <trkpt lat="42.7306420" lon="1.9708840">
        <ele>1734.2</ele>
        <time>2020-07-22T11:39:46Z</time>
      </trkpt>
      <trkpt lat="42.7305950" lon="1.9707970">
        <ele>1733.0</ele>
        <time>2020-07-22T11:39:47Z</time>
      </trkpt>
      <trkpt lat="42.7305520" lon="1.9707130">
        <ele>1731.8</ele>
        <time>2020-07-22T11:39:48Z</time>
      </trkpt>
      <trkpt lat="42.7304710" lon="1.9705550">
        <ele>1730.6</ele>
        <time>2020-07-22T11:39:50Z</time>
      </trkpt>
      <trkpt lat="42.7303910" lon="1.9703980">
        <ele>1729.2</ele>
        <time>2020-07-22T11:39:52Z</time>
      </trkpt>
      <trkpt lat="42.7303120" lon="1.9702310">
        <ele>1727.6</ele>
        <time>2020-07-22T11:39:54Z</time>
      </trkpt>
      <trkpt lat="42.7302250" lon="1.9700520">
        <ele>1726.6</ele>
        <time>2020-07-22T11:39:56Z</time>
      </trkpt>
      <trkpt lat="42.7301350" lon="1.9698730">
        <ele>1725.6</ele>
        <time>2020-07-22T11:39:58Z</time>
      </trkpt>
      <trkpt lat="42.7300430" lon="1.9696980">
        <ele>1724.0</ele>
        <time>2020-07-22T11:40:00Z</time>
      </trkpt>
      <trkpt lat="42.7299960" lon="1.9696130">
        <ele>1723.0</ele>
        <time>2020-07-22T11:40:01Z</time>
      </trkpt>
      <trkpt lat="42.7299480" lon="1.9695310">
        <ele>1721.8</ele>
        <time>2020-07-22T11:40:02Z</time>
      </trkpt>
      <trkpt lat="42.7299000" lon="1.9694490">
        <ele>1720.6</ele>
        <time>2020-07-22T11:40:03Z</time>
      </trkpt>
      <trkpt lat="42.7298060" lon="1.9692840">
        <ele>1719.4</ele>
        <time>2020-07-22T11:40:05Z</time>
      </trkpt>
      <trkpt lat="42.7297150" lon="1.9691060">
        <ele>1718.0</ele>
        <time>2020-07-22T11:40:07Z</time>
      </trkpt>
      <trkpt lat="42.7296320" lon="1.9689230">
        <ele>1717.0</ele>
        <time>2020-07-22T11:40:09Z</time>
      </trkpt>
      <trkpt lat="42.7295580" lon="1.9687360">
        <ele>1714.8</ele>
        <time>2020-07-22T11:40:11Z</time>
      </trkpt>
      <trkpt lat="42.7295220" lon="1.9686390">
        <ele>1713.8</ele>
        <time>2020-07-22T11:40:12Z</time>
      </trkpt>
      <trkpt lat="42.7294540" lon="1.9684370">
        <ele>1712.0</ele>
        <time>2020-07-22T11:40:14Z</time>
      </trkpt>
      <trkpt lat="42.7294200" lon="1.9683290">
        <ele>1711.2</ele>
        <time>2020-07-22T11:40:15Z</time>
      </trkpt>
      <trkpt lat="42.7293870" lon="1.9682160">
        <ele>1710.4</ele>
        <time>2020-07-22T11:40:16Z</time>
      </trkpt>
      <trkpt lat="42.7293170" lon="1.9679920">
        <ele>1709.0</ele>
        <time>2020-07-22T11:40:18Z</time>
      </trkpt>
      <trkpt lat="42.7292500" lon="1.9677660">
        <ele>1707.8</ele>
        <time>2020-07-22T11:40:20Z</time>
      </trkpt>
      <trkpt lat="42.7291850" lon="1.9675390">
        <ele>1706.2</ele>
        <time>2020-07-22T11:40:22Z</time>
      </trkpt>
      <trkpt lat="42.7291140" lon="1.9673190">
        <ele>1704.4</ele>
        <time>2020-07-22T11:40:24Z</time>
      </trkpt>
      <trkpt lat="42.7290760" lon="1.9672140">
        <ele>1703.0</ele>
        <time>2020-07-22T11:40:25Z</time>
      </trkpt>
      <trkpt lat="42.7290380" lon="1.9671110">
        <ele>1702.0</ele>
        <time>2020-07-22T11:40:26Z</time>
      </trkpt>
      <trkpt lat="42.7289640" lon="1.9669060">
        <ele>1700.4</ele>
        <time>2020-07-22T11:40:28Z</time>
      </trkpt>
      <trkpt lat="42.7288860" lon="1.9666950">
        <ele>1699.4</ele>
        <time>2020-07-22T11:40:30Z</time>
      </trkpt>
      <trkpt lat="42.7288160" lon="1.9664840">
        <ele>1698.2</ele>
        <time>2020-07-22T11:40:32Z</time>
      </trkpt>
      <trkpt lat="42.7287490" lon="1.9662710">
        <ele>1696.4</ele>
        <time>2020-07-22T11:40:34Z</time>
      </trkpt>
      <trkpt lat="42.7286880" lon="1.9660580">
        <ele>1695.0</ele>
        <time>2020-07-22T11:40:36Z</time>
      </trkpt>
      <trkpt lat="42.7286600" lon="1.9659510">
        <ele>1694.2</ele>
        <time>2020-07-22T11:40:37Z</time>
      </trkpt>
      <trkpt lat="42.7286320" lon="1.9658440">
        <ele>1693.0</ele>
        <time>2020-07-22T11:40:38Z</time>
      </trkpt>
      <trkpt lat="42.7285850" lon="1.9656340">
        <ele>1691.6</ele>
        <time>2020-07-22T11:40:40Z</time>
      </trkpt>
      <trkpt lat="42.7285630" lon="1.9654280">
        <ele>1689.8</ele>
        <time>2020-07-22T11:40:42Z</time>
      </trkpt>
      <trkpt lat="42.7285610" lon="1.9653220">
        <ele>1688.8</ele>
        <time>2020-07-22T11:40:43Z</time>
      </trkpt>
      <trkpt lat="42.7285750" lon="1.9651130">
        <ele>1687.0</ele>
        <time>2020-07-22T11:40:45Z</time>
      </trkpt>
      <trkpt lat="42.7286040" lon="1.9649160">
        <ele>1685.8</ele>
        <time>2020-07-22T11:40:47Z</time>
      </trkpt>
      <trkpt lat="42.7286200" lon="1.9648230">
        <ele>1685.4</ele>
        <time>2020-07-22T11:40:48Z</time>
      </trkpt>
      <trkpt lat="42.7286370" lon="1.9647320">
        <ele>1684.8</ele>
        <time>2020-07-22T11:40:49Z</time>
      </trkpt>
      <trkpt lat="42.7286820" lon="1.9645490">
        <ele>1683.0</ele>
        <time>2020-07-22T11:40:51Z</time>
      </trkpt>
      <trkpt lat="42.7287150" lon="1.9644510">
        <ele>1681.6</ele>
        <time>2020-07-22T11:40:52Z</time>
      </trkpt>
      <trkpt lat="42.7287570" lon="1.9643500">
        <ele>1680.6</ele>
        <time>2020-07-22T11:40:53Z</time>
      </trkpt>
      <trkpt lat="42.7288540" lon="1.9641410">
        <ele>1679.2</ele>
        <time>2020-07-22T11:40:55Z</time>
      </trkpt>
      <trkpt lat="42.7289020" lon="1.9640290">
        <ele>1678.4</ele>
        <time>2020-07-22T11:40:56Z</time>
      </trkpt>
      <trkpt lat="42.7289490" lon="1.9639180">
        <ele>1677.6</ele>
        <time>2020-07-22T11:40:57Z</time>
      </trkpt>
      <trkpt lat="42.7290420" lon="1.9636890">
        <ele>1676.4</ele>
        <time>2020-07-22T11:40:59Z</time>
      </trkpt>
      <trkpt lat="42.7290890" lon="1.9635720">
        <ele>1676.0</ele>
        <time>2020-07-22T11:41:00Z</time>
      </trkpt>
      <trkpt lat="42.7291340" lon="1.9634560">
        <ele>1675.2</ele>
        <time>2020-07-22T11:41:01Z</time>
      </trkpt>
      <trkpt lat="42.7291790" lon="1.9633410">
        <ele>1674.2</ele>
        <time>2020-07-22T11:41:02Z</time>
      </trkpt>
      <trkpt lat="42.7292710" lon="1.9631130">
        <ele>1672.4</ele>
        <time>2020-07-22T11:41:04Z</time>
      </trkpt>
      <trkpt lat="42.7293700" lon="1.9628870">
        <ele>1670.6</ele>
        <time>2020-07-22T11:41:06Z</time>
      </trkpt>
      <trkpt lat="42.7294700" lon="1.9626670">
        <ele>1668.8</ele>
        <time>2020-07-22T11:41:08Z</time>
      </trkpt>
      <trkpt lat="42.7295650" lon="1.9624520">
        <ele>1667.4</ele>
        <time>2020-07-22T11:41:10Z</time>
      </trkpt>
      <trkpt lat="42.7296580" lon="1.9622440">
        <ele>1665.6</ele>
        <time>2020-07-22T11:41:12Z</time>
      </trkpt>
      <trkpt lat="42.7297490" lon="1.9620490">
        <ele>1663.6</ele>
        <time>2020-07-22T11:41:14Z</time>
      </trkpt>
      <trkpt lat="42.7297920" lon="1.9619600">
        <ele>1662.2</ele>
        <time>2020-07-22T11:41:15Z</time>
      </trkpt>
      <trkpt lat="42.7298370" lon="1.9618820">
        <ele>1661.0</ele>
        <time>2020-07-22T11:41:16Z</time>
      </trkpt>
      <trkpt lat="42.7298830" lon="1.9618080">
        <ele>1660.0</ele>
        <time>2020-07-22T11:41:17Z</time>
      </trkpt>
      <trkpt lat="42.7299250" lon="1.9617380">
        <ele>1659.0</ele>
        <time>2020-07-22T11:41:18Z</time>
      </trkpt>
      <trkpt lat="42.7299550" lon="1.9616650">
        <ele>1658.0</ele>
        <time>2020-07-22T11:41:19Z</time>
      </trkpt>
      <trkpt lat="42.7299580" lon="1.9615270">
        <ele>1656.4</ele>
        <time>2020-07-22T11:41:21Z</time>
      </trkpt>
      <trkpt lat="42.7299350" lon="1.9614810">
        <ele>1655.8</ele>
        <time>2020-07-22T11:41:22Z</time>
      </trkpt>
      <trkpt lat="42.7299030" lon="1.9614590">
        <ele>1655.2</ele>
        <time>2020-07-22T11:41:23Z</time>
      </trkpt>
      <trkpt lat="42.7298420" lon="1.9615270">
        <ele>1654.4</ele>
        <time>2020-07-22T11:41:25Z</time>
      </trkpt>
      <trkpt lat="42.7298160" lon="1.9615990">
        <ele>1654.0</ele>
        <time>2020-07-22T11:41:26Z</time>
      </trkpt>
      <trkpt lat="42.7297290" lon="1.9618350">
        <ele>1652.6</ele>
        <time>2020-07-22T11:41:29Z</time>
      </trkpt>
      <trkpt lat="42.7296550" lon="1.9619860">
        <ele>1651.8</ele>
        <time>2020-07-22T11:41:31Z</time>
      </trkpt>
      <trkpt lat="42.7296110" lon="1.9620550">
        <ele>1651.6</ele>
        <time>2020-07-22T11:41:32Z</time>
      </trkpt>
      <trkpt lat="42.7295130" lon="1.9621880">
        <ele>1651.0</ele>
        <time>2020-07-22T11:41:34Z</time>
      </trkpt>
      <trkpt lat="42.7294630" lon="1.9622500">
        <ele>1650.4</ele>
        <time>2020-07-22T11:41:35Z</time>
      </trkpt>
      <trkpt lat="42.7293460" lon="1.9623960">
        <ele>1649.4</ele>
        <time>2020-07-22T11:41:37Z</time>
      </trkpt>
      <trkpt lat="42.7292820" lon="1.9624720">
        <ele>1649.0</ele>
        <time>2020-07-22T11:41:38Z</time>
      </trkpt>
      <trkpt lat="42.7292120" lon="1.9625550">
        <ele>1648.6</ele>
        <time>2020-07-22T11:41:39Z</time>
      </trkpt>
      <trkpt lat="42.7291360" lon="1.9626380">
        <ele>1648.0</ele>
        <time>2020-07-22T11:41:40Z</time>
      </trkpt>
      <trkpt lat="42.7289770" lon="1.9627990">
        <ele>1646.0</ele>
        <time>2020-07-22T11:41:42Z</time>
      </trkpt>
      <trkpt lat="42.7288960" lon="1.9628720">
        <ele>1644.8</ele>
        <time>2020-07-22T11:41:43Z</time>
      </trkpt>
      <trkpt lat="42.7288130" lon="1.9629370">
        <ele>1644.0</ele>
        <time>2020-07-22T11:41:44Z</time>
      </trkpt>
      <trkpt lat="42.7287320" lon="1.9630010">
        <ele>1643.2</ele>
        <time>2020-07-22T11:41:45Z</time>
      </trkpt>
      <trkpt lat="42.7285730" lon="1.9631340">
        <ele>1641.4</ele>
        <time>2020-07-22T11:41:47Z</time>
      </trkpt>
      <trkpt lat="42.7284150" lon="1.9632760">
        <ele>1639.8</ele>
        <time>2020-07-22T11:41:49Z</time>
      </trkpt>
      <trkpt lat="42.7282520" lon="1.9634060">
        <ele>1639.2</ele>
        <time>2020-07-22T11:41:51Z</time>
      </trkpt>
      <trkpt lat="42.7280930" lon="1.9635250">
        <ele>1638.2</ele>
        <time>2020-07-22T11:41:53Z</time>
      </trkpt>
      <trkpt lat="42.7279430" lon="1.9636420">
        <ele>1636.0</ele>
        <time>2020-07-22T11:41:55Z</time>
      </trkpt>
      <trkpt lat="42.7278730" lon="1.9637020">
        <ele>1634.8</ele>
        <time>2020-07-22T11:41:56Z</time>
      </trkpt>
      <trkpt lat="42.7278050" lon="1.9637640">
        <ele>1633.4</ele>
        <time>2020-07-22T11:41:57Z</time>
      </trkpt>
      <trkpt lat="42.7276730" lon="1.9639000">
        <ele>1632.0</ele>
        <time>2020-07-22T11:41:59Z</time>
      </trkpt>
      <trkpt lat="42.7275470" lon="1.9640410">
        <ele>1630.6</ele>
        <time>2020-07-22T11:42:01Z</time>
      </trkpt>
      <trkpt lat="42.7274920" lon="1.9641200">
        <ele>1629.8</ele>
        <time>2020-07-22T11:42:02Z</time>
      </trkpt>
      <trkpt lat="42.7274470" lon="1.9642090">
        <ele>1629.0</ele>
        <time>2020-07-22T11:42:03Z</time>
      </trkpt>
      <trkpt lat="42.7273760" lon="1.9643930">
        <ele>1628.0</ele>
        <time>2020-07-22T11:42:05Z</time>
      </trkpt>
      <trkpt lat="42.7273230" lon="1.9645610">
        <ele>1627.2</ele>
        <time>2020-07-22T11:42:07Z</time>
      </trkpt>
      <trkpt lat="42.7272990" lon="1.9646350">
        <ele>1626.0</ele>
        <time>2020-07-22T11:42:08Z</time>
      </trkpt>
      <trkpt lat="42.7272680" lon="1.9646940">
        <ele>1624.4</ele>
        <time>2020-07-22T11:42:09Z</time>
      </trkpt>
      <trkpt lat="42.7272280" lon="1.9647280">
        <ele>1623.2</ele>
        <time>2020-07-22T11:42:10Z</time>
      </trkpt>
      <trkpt lat="42.7271790" lon="1.9647270">
        <ele>1622.2</ele>
        <time>2020-07-22T11:42:11Z</time>
      </trkpt>
      <trkpt lat="42.7271400" lon="1.9646870">
        <ele>1621.4</ele>
        <time>2020-07-22T11:42:12Z</time>
      </trkpt>
      <trkpt lat="42.7271410" lon="1.9645470">
        <ele>1619.8</ele>
        <time>2020-07-22T11:42:14Z</time>
      </trkpt>
      <trkpt lat="42.7271650" lon="1.9644670">
        <ele>1619.4</ele>
        <time>2020-07-22T11:42:15Z</time>
      </trkpt>
      <trkpt lat="42.7272610" lon="1.9642030">
        <ele>1618.8</ele>
        <time>2020-07-22T11:42:18Z</time>
      </trkpt>
      <trkpt lat="42.7273000" lon="1.9641040">
        <ele>1618.2</ele>
        <time>2020-07-22T11:42:19Z</time>
      </trkpt>
      <trkpt lat="42.7273390" lon="1.9639960">
        <ele>1617.2</ele>
        <time>2020-07-22T11:42:20Z</time>
      </trkpt>
      <trkpt lat="42.7274320" lon="1.9637710">
        <ele>1615.6</ele>
        <time>2020-07-22T11:42:22Z</time>
      </trkpt>
      <trkpt lat="42.7274840" lon="1.9636570">
        <ele>1614.8</ele>
        <time>2020-07-22T11:42:23Z</time>
      </trkpt>
      <trkpt lat="42.7275390" lon="1.9635390">
        <ele>1614.2</ele>
        <time>2020-07-22T11:42:24Z</time>
      </trkpt>
      <trkpt lat="42.7276520" lon="1.9632970">
        <ele>1611.8</ele>
        <time>2020-07-22T11:42:26Z</time>
      </trkpt>
      <trkpt lat="42.7277090" lon="1.9631760">
        <ele>1610.2</ele>
        <time>2020-07-22T11:42:27Z</time>
      </trkpt>
      <trkpt lat="42.7277670" lon="1.9630560">
        <ele>1608.8</ele>
        <time>2020-07-22T11:42:28Z</time>
      </trkpt>
      <trkpt lat="42.7278270" lon="1.9629380">
        <ele>1607.4</ele>
        <time>2020-07-22T11:42:29Z</time>
      </trkpt>
      <trkpt lat="42.7278890" lon="1.9628250">
        <ele>1606.0</ele>
        <time>2020-07-22T11:42:30Z</time>
      </trkpt>
      <trkpt lat="42.7279530" lon="1.9627170">
        <ele>1604.8</ele>
        <time>2020-07-22T11:42:31Z</time>
      </trkpt>
      <trkpt lat="42.7280810" lon="1.9625140">
        <ele>1603.2</ele>
        <time>2020-07-22T11:42:33Z</time>
      </trkpt>
      <trkpt lat="42.7282030" lon="1.9623260">
        <ele>1602.0</ele>
        <time>2020-07-22T11:42:35Z</time>
      </trkpt>
      <trkpt lat="42.7283230" lon="1.9621480">
        <ele>1600.6</ele>
        <time>2020-07-22T11:42:37Z</time>
      </trkpt>
      <trkpt lat="42.7284470" lon="1.9619660">
        <ele>1598.2</ele>
        <time>2020-07-22T11:42:39Z</time>
      </trkpt>
      <trkpt lat="42.7285070" lon="1.9618770">
        <ele>1596.8</ele>
        <time>2020-07-22T11:42:40Z</time>
      </trkpt>
      <trkpt lat="42.7286250" lon="1.9617100">
        <ele>1595.2</ele>
        <time>2020-07-22T11:42:42Z</time>
      </trkpt>
      <trkpt lat="42.7287410" lon="1.9615480">
        <ele>1594.0</ele>
        <time>2020-07-22T11:42:44Z</time>
      </trkpt>
      <trkpt lat="42.7288650" lon="1.9614090">
        <ele>1592.4</ele>
        <time>2020-07-22T11:42:46Z</time>
      </trkpt>
      <trkpt lat="42.7289880" lon="1.9612920">
        <ele>1591.2</ele>
        <time>2020-07-22T11:42:48Z</time>
      </trkpt>
      <trkpt lat="42.7290330" lon="1.9612330">
        <ele>1590.6</ele>
        <time>2020-07-22T11:42:49Z</time>
      </trkpt>
      <trkpt lat="42.7290550" lon="1.9611160">
        <ele>1589.8</ele>
        <time>2020-07-22T11:42:51Z</time>
      </trkpt>
      <trkpt lat="42.7289800" lon="1.9610670">
        <ele>1589.6</ele>
        <time>2020-07-22T11:42:53Z</time>
      </trkpt>
      <trkpt lat="42.7288810" lon="1.9611340">
        <ele>1589.4</ele>
        <time>2020-07-22T11:42:55Z</time>
      </trkpt>
      <trkpt lat="42.7288270" lon="1.9611910">
        <ele>1589.4</ele>
        <time>2020-07-22T11:42:56Z</time>
      </trkpt>
      <trkpt lat="42.7286490" lon="1.9613840">
        <ele>1588.4</ele>
        <time>2020-07-22T11:42:59Z</time>
      </trkpt>
      <trkpt lat="42.7285160" lon="1.9615000">
        <ele>1587.2</ele>
        <time>2020-07-22T11:43:01Z</time>
      </trkpt>
      <trkpt lat="42.7283700" lon="1.9616160">
        <ele>1585.2</ele>
        <time>2020-07-22T11:43:03Z</time>
      </trkpt>
      <trkpt lat="42.7282950" lon="1.9616760">
        <ele>1584.0</ele>
        <time>2020-07-22T11:43:04Z</time>
      </trkpt>
      <trkpt lat="42.7281370" lon="1.9617820">
        <ele>1582.4</ele>
        <time>2020-07-22T11:43:06Z</time>
      </trkpt>
      <trkpt lat="42.7280550" lon="1.9618200">
        <ele>1581.6</ele>
        <time>2020-07-22T11:43:07Z</time>
      </trkpt>
      <trkpt lat="42.7279730" lon="1.9618570">
        <ele>1580.6</ele>
        <time>2020-07-22T11:43:08Z</time>
      </trkpt>
      <trkpt lat="42.7278050" lon="1.9619140">
        <ele>1579.0</ele>
        <time>2020-07-22T11:43:10Z</time>
      </trkpt>
      <trkpt lat="42.7276420" lon="1.9619640">
        <ele>1577.8</ele>
        <time>2020-07-22T11:43:12Z</time>
      </trkpt>
      <trkpt lat="42.7275680" lon="1.9619940">
        <ele>1577.0</ele>
        <time>2020-07-22T11:43:13Z</time>
      </trkpt>
      <trkpt lat="42.7275020" lon="1.9620280">
        <ele>1576.4</ele>
        <time>2020-07-22T11:43:14Z</time>
      </trkpt>
      <trkpt lat="42.7273900" lon="1.9621230">
        <ele>1575.2</ele>
        <time>2020-07-22T11:43:16Z</time>
      </trkpt>
      <trkpt lat="42.7273420" lon="1.9621690">
        <ele>1574.4</ele>
        <time>2020-07-22T11:43:17Z</time>
      </trkpt>
      <trkpt lat="42.7272950" lon="1.9622020">
        <ele>1573.8</ele>
        <time>2020-07-22T11:43:18Z</time>
      </trkpt>
      <trkpt lat="42.7272120" lon="1.9621930">
        <ele>1573.2</ele>
        <time>2020-07-22T11:43:20Z</time>
      </trkpt>
      <trkpt lat="42.7272190" lon="1.9620800">
        <ele>1573.0</ele>
        <time>2020-07-22T11:43:22Z</time>
      </trkpt>
      <trkpt lat="42.7272580" lon="1.9620230">
        <ele>1572.4</ele>
        <time>2020-07-22T11:43:23Z</time>
      </trkpt>
      <trkpt lat="42.7273080" lon="1.9619770">
        <ele>1571.6</ele>
        <time>2020-07-22T11:43:24Z</time>
      </trkpt>
      <trkpt lat="42.7273620" lon="1.9619370">
        <ele>1570.8</ele>
        <time>2020-07-22T11:43:25Z</time>
      </trkpt>
      <trkpt lat="42.7274850" lon="1.9618510">
        <ele>1569.6</ele>
        <time>2020-07-22T11:43:27Z</time>
      </trkpt>
      <trkpt lat="42.7276220" lon="1.9617350">
        <ele>1568.6</ele>
        <time>2020-07-22T11:43:29Z</time>
      </trkpt>
      <trkpt lat="42.7276930" lon="1.9616640">
        <ele>1568.0</ele>
        <time>2020-07-22T11:43:30Z</time>
      </trkpt>
      <trkpt lat="42.7277680" lon="1.9615880">
        <ele>1567.0</ele>
        <time>2020-07-22T11:43:31Z</time>
      </trkpt>
      <trkpt lat="42.7278420" lon="1.9615030">
        <ele>1565.8</ele>
        <time>2020-07-22T11:43:32Z</time>
      </trkpt>
      <trkpt lat="42.7279190" lon="1.9614100">
        <ele>1564.4</ele>
        <time>2020-07-22T11:43:33Z</time>
      </trkpt>
      <trkpt lat="42.7279940" lon="1.9613120">
        <ele>1563.2</ele>
        <time>2020-07-22T11:43:34Z</time>
      </trkpt>
      <trkpt lat="42.7280670" lon="1.9612130">
        <ele>1562.0</ele>
        <time>2020-07-22T11:43:35Z</time>
      </trkpt>
      <trkpt lat="42.7282050" lon="1.9610120">
        <ele>1560.4</ele>
        <time>2020-07-22T11:43:37Z</time>
      </trkpt>
      <trkpt lat="42.7282740" lon="1.9609140">
        <ele>1559.4</ele>
        <time>2020-07-22T11:43:38Z</time>
      </trkpt>
      <trkpt lat="42.7283450" lon="1.9608160">
        <ele>1558.2</ele>
        <time>2020-07-22T11:43:39Z</time>
      </trkpt>
      <trkpt lat="42.7284190" lon="1.9607180">
        <ele>1557.2</ele>
        <time>2020-07-22T11:43:40Z</time>
      </trkpt>
      <trkpt lat="42.7284930" lon="1.9606200">
        <ele>1556.0</ele>
        <time>2020-07-22T11:43:41Z</time>
      </trkpt>
      <trkpt lat="42.7285630" lon="1.9605240">
        <ele>1555.0</ele>
        <time>2020-07-22T11:43:42Z</time>
      </trkpt>
      <trkpt lat="42.7287040" lon="1.9603360">
        <ele>1553.0</ele>
        <time>2020-07-22T11:43:44Z</time>
      </trkpt>
      <trkpt lat="42.7288480" lon="1.9601520">
        <ele>1551.2</ele>
        <time>2020-07-22T11:43:46Z</time>
      </trkpt>
      <trkpt lat="42.7289880" lon="1.9599800">
        <ele>1550.2</ele>
        <time>2020-07-22T11:43:48Z</time>
      </trkpt>
      <trkpt lat="42.7291250" lon="1.9598270">
        <ele>1548.4</ele>
        <time>2020-07-22T11:43:50Z</time>
      </trkpt>
      <trkpt lat="42.7292660" lon="1.9596700">
        <ele>1546.8</ele>
        <time>2020-07-22T11:43:52Z</time>
      </trkpt>
      <trkpt lat="42.7293380" lon="1.9595850">
        <ele>1545.8</ele>
        <time>2020-07-22T11:43:53Z</time>
      </trkpt>
      <trkpt lat="42.7294120" lon="1.9594940">
        <ele>1544.8</ele>
        <time>2020-07-22T11:43:54Z</time>
      </trkpt>
      <trkpt lat="42.7295550" lon="1.9593100">
        <ele>1542.6</ele>
        <time>2020-07-22T11:43:56Z</time>
      </trkpt>
      <trkpt lat="42.7296200" lon="1.9592230">
        <ele>1541.6</ele>
        <time>2020-07-22T11:43:57Z</time>
      </trkpt>
      <trkpt lat="42.7296810" lon="1.9591380">
        <ele>1540.4</ele>
        <time>2020-07-22T11:43:58Z</time>
      </trkpt>
      <trkpt lat="42.7297370" lon="1.9590580">
        <ele>1539.4</ele>
        <time>2020-07-22T11:43:59Z</time>
      </trkpt>
      <trkpt lat="42.7298510" lon="1.9589090">
        <ele>1537.8</ele>
        <time>2020-07-22T11:44:01Z</time>
      </trkpt>
      <trkpt lat="42.7299130" lon="1.9588430">
        <ele>1537.2</ele>
        <time>2020-07-22T11:44:02Z</time>
      </trkpt>
      <trkpt lat="42.7300440" lon="1.9587480">
        <ele>1535.8</ele>
        <time>2020-07-22T11:44:04Z</time>
      </trkpt>
      <trkpt lat="42.7301160" lon="1.9587230">
        <ele>1534.6</ele>
        <time>2020-07-22T11:44:05Z</time>
      </trkpt>
      <trkpt lat="42.7302540" lon="1.9586760">
        <ele>1533.2</ele>
        <time>2020-07-22T11:44:07Z</time>
      </trkpt>
      <trkpt lat="42.7303080" lon="1.9586300">
        <ele>1532.8</ele>
        <time>2020-07-22T11:44:08Z</time>
      </trkpt>
      <trkpt lat="42.7303410" lon="1.9585200">
        <ele>1532.6</ele>
        <time>2020-07-22T11:44:10Z</time>
      </trkpt>
      <trkpt lat="42.7302520" lon="1.9584250">
        <ele>1532.4</ele>
        <time>2020-07-22T11:44:12Z</time>
      </trkpt>
      <trkpt lat="42.7301900" lon="1.9584440">
        <ele>1532.4</ele>
        <time>2020-07-22T11:44:13Z</time>
      </trkpt>
      <trkpt lat="42.7300690" lon="1.9584910">
        <ele>1532.0</ele>
        <time>2020-07-22T11:44:15Z</time>
      </trkpt>
      <trkpt lat="42.7299110" lon="1.9585580">
        <ele>1531.6</ele>
        <time>2020-07-22T11:44:17Z</time>
      </trkpt>
      <trkpt lat="42.7298270" lon="1.9585860">
        <ele>1531.0</ele>
        <time>2020-07-22T11:44:18Z</time>
      </trkpt>
      <trkpt lat="42.7297490" lon="1.9586120">
        <ele>1530.4</ele>
        <time>2020-07-22T11:44:19Z</time>
      </trkpt>
      <trkpt lat="42.7296730" lon="1.9586390">
        <ele>1529.8</ele>
        <time>2020-07-22T11:44:20Z</time>
      </trkpt>
      <trkpt lat="42.7295120" lon="1.9586850">
        <ele>1528.0</ele>
        <time>2020-07-22T11:44:22Z</time>
      </trkpt>
      <trkpt lat="42.7294270" lon="1.9587050">
        <ele>1527.4</ele>
        <time>2020-07-22T11:44:23Z</time>
      </trkpt>
      <trkpt lat="42.7293380" lon="1.9587250">
        <ele>1526.8</ele>
        <time>2020-07-22T11:44:24Z</time>
      </trkpt>
      <trkpt lat="42.7291490" lon="1.9587820">
        <ele>1525.0</ele>
        <time>2020-07-22T11:44:26Z</time>
      </trkpt>
      <trkpt lat="42.7290550" lon="1.9588210">
        <ele>1524.0</ele>
        <time>2020-07-22T11:44:27Z</time>
      </trkpt>
      <trkpt lat="42.7289630" lon="1.9588720">
        <ele>1522.8</ele>
        <time>2020-07-22T11:44:28Z</time>
      </trkpt>
      <trkpt lat="42.7288700" lon="1.9589300">
        <ele>1521.8</ele>
        <time>2020-07-22T11:44:29Z</time>
      </trkpt>
      <trkpt lat="42.7287740" lon="1.9589860">
        <ele>1520.8</ele>
        <time>2020-07-22T11:44:30Z</time>
      </trkpt>
      <trkpt lat="42.7286760" lon="1.9590470">
        <ele>1519.6</ele>
        <time>2020-07-22T11:44:31Z</time>
      </trkpt>
      <trkpt lat="42.7285760" lon="1.9591110">
        <ele>1518.2</ele>
        <time>2020-07-22T11:44:32Z</time>
      </trkpt>
      <trkpt lat="42.7284750" lon="1.9591710">
        <ele>1516.8</ele>
        <time>2020-07-22T11:44:33Z</time>
      </trkpt>
      <trkpt lat="42.7283740" lon="1.9592230">
        <ele>1515.4</ele>
        <time>2020-07-22T11:44:34Z</time>
      </trkpt>
      <trkpt lat="42.7282730" lon="1.9592680">
        <ele>1514.0</ele>
        <time>2020-07-22T11:44:35Z</time>
      </trkpt>
      <trkpt lat="42.7281740" lon="1.9593110">
        <ele>1512.8</ele>
        <time>2020-07-22T11:44:36Z</time>
      </trkpt>
      <trkpt lat="42.7280750" lon="1.9593470">
        <ele>1511.8</ele>
        <time>2020-07-22T11:44:37Z</time>
      </trkpt>
      <trkpt lat="42.7279790" lon="1.9593780">
        <ele>1511.0</ele>
        <time>2020-07-22T11:44:38Z</time>
      </trkpt>
      <trkpt lat="42.7278920" lon="1.9594080">
        <ele>1510.0</ele>
        <time>2020-07-22T11:44:39Z</time>
      </trkpt>
      <trkpt lat="42.7277500" lon="1.9594430">
        <ele>1508.4</ele>
        <time>2020-07-22T11:44:41Z</time>
      </trkpt>
      <trkpt lat="42.7276770" lon="1.9593690">
        <ele>1507.6</ele>
        <time>2020-07-22T11:44:43Z</time>
      </trkpt>
      <trkpt lat="42.7276900" lon="1.9593020">
        <ele>1507.4</ele>
        <time>2020-07-22T11:44:44Z</time>
      </trkpt>
      <trkpt lat="42.7277370" lon="1.9592680">
        <ele>1507.4</ele>
        <time>2020-07-22T11:44:45Z</time>
      </trkpt>
      <trkpt lat="42.7279170" lon="1.9592190">
        <ele>1506.8</ele>
        <time>2020-07-22T11:44:48Z</time>
      </trkpt>
      <trkpt lat="42.7279900" lon="1.9591880">
        <ele>1506.2</ele>
        <time>2020-07-22T11:44:49Z</time>
      </trkpt>
      <trkpt lat="42.7280610" lon="1.9591440">
        <ele>1505.4</ele>
        <time>2020-07-22T11:44:50Z</time>
      </trkpt>
      <trkpt lat="42.7281320" lon="1.9590810">
        <ele>1504.4</ele>
        <time>2020-07-22T11:44:51Z</time>
      </trkpt>
      <trkpt lat="42.7281970" lon="1.9590000">
        <ele>1503.6</ele>
        <time>2020-07-22T11:44:52Z</time>
      </trkpt>
      <trkpt lat="42.7282610" lon="1.9589070">
        <ele>1502.4</ele>
        <time>2020-07-22T11:44:53Z</time>
      </trkpt>
      <trkpt lat="42.7283230" lon="1.9588050">
        <ele>1501.2</ele>
        <time>2020-07-22T11:44:54Z</time>
      </trkpt>
      <trkpt lat="42.7283800" lon="1.9587000">
        <ele>1499.8</ele>
        <time>2020-07-22T11:44:55Z</time>
      </trkpt>
      <trkpt lat="42.7284330" lon="1.9585900">
        <ele>1498.6</ele>
        <time>2020-07-22T11:44:56Z</time>
      </trkpt>
      <trkpt lat="42.7284830" lon="1.9584800">
        <ele>1497.6</ele>
        <time>2020-07-22T11:44:57Z</time>
      </trkpt>
      <trkpt lat="42.7285290" lon="1.9583670">
        <ele>1496.8</ele>
        <time>2020-07-22T11:44:58Z</time>
      </trkpt>
      <trkpt lat="42.7285740" lon="1.9582520">
        <ele>1496.0</ele>
        <time>2020-07-22T11:44:59Z</time>
      </trkpt>
      <trkpt lat="42.7286270" lon="1.9581450">
        <ele>1495.2</ele>
        <time>2020-07-22T11:45:00Z</time>
      </trkpt>
      <trkpt lat="42.7286870" lon="1.9580440">
        <ele>1494.4</ele>
        <time>2020-07-22T11:45:01Z</time>
      </trkpt>
      <trkpt lat="42.7288200" lon="1.9578640">
        <ele>1492.4</ele>
        <time>2020-07-22T11:45:03Z</time>
      </trkpt>
      <trkpt lat="42.7288930" lon="1.9577910">
        <ele>1491.6</ele>
        <time>2020-07-22T11:45:04Z</time>
      </trkpt>
      <trkpt lat="42.7289690" lon="1.9577290">
        <ele>1490.8</ele>
        <time>2020-07-22T11:45:05Z</time>
      </trkpt>
      <trkpt lat="42.7290570" lon="1.9576710">
        <ele>1490.2</ele>
        <time>2020-07-22T11:45:06Z</time>
      </trkpt>
      <trkpt lat="42.7291530" lon="1.9576230">
        <ele>1489.4</ele>
        <time>2020-07-22T11:45:07Z</time>
      </trkpt>
      <trkpt lat="42.7292550" lon="1.9575830">
        <ele>1488.2</ele>
        <time>2020-07-22T11:45:08Z</time>
      </trkpt>
      <trkpt lat="42.7293600" lon="1.9575420">
        <ele>1487.2</ele>
        <time>2020-07-22T11:45:09Z</time>
      </trkpt>
      <trkpt lat="42.7294630" lon="1.9574970">
        <ele>1486.0</ele>
        <time>2020-07-22T11:45:10Z</time>
      </trkpt>
      <trkpt lat="42.7295680" lon="1.9574410">
        <ele>1484.4</ele>
        <time>2020-07-22T11:45:11Z</time>
      </trkpt>
      <trkpt lat="42.7296730" lon="1.9573750">
        <ele>1483.0</ele>
        <time>2020-07-22T11:45:12Z</time>
      </trkpt>
      <trkpt lat="42.7297780" lon="1.9573010">
        <ele>1482.0</ele>
        <time>2020-07-22T11:45:13Z</time>
      </trkpt>
      <trkpt lat="42.7298780" lon="1.9572170">
        <ele>1480.8</ele>
        <time>2020-07-22T11:45:14Z</time>
      </trkpt>
      <trkpt lat="42.7299750" lon="1.9571250">
        <ele>1479.4</ele>
        <time>2020-07-22T11:45:15Z</time>
      </trkpt>
      <trkpt lat="42.7300660" lon="1.9570250">
        <ele>1477.8</ele>
        <time>2020-07-22T11:45:16Z</time>
      </trkpt>
      <trkpt lat="42.7301510" lon="1.9569210">
        <ele>1476.2</ele>
        <time>2020-07-22T11:45:17Z</time>
      </trkpt>
      <trkpt lat="42.7302310" lon="1.9568120">
        <ele>1475.2</ele>
        <time>2020-07-22T11:45:18Z</time>
      </trkpt>
      <trkpt lat="42.7303760" lon="1.9565820">
        <ele>1473.4</ele>
        <time>2020-07-22T11:45:20Z</time>
      </trkpt>
      <trkpt lat="42.7305070" lon="1.9563490">
        <ele>1472.2</ele>
        <time>2020-07-22T11:45:22Z</time>
      </trkpt>
      <trkpt lat="42.7306390" lon="1.9561100">
        <ele>1471.0</ele>
        <time>2020-07-22T11:45:24Z</time>
      </trkpt>
      <trkpt lat="42.7307640" lon="1.9558750">
        <ele>1469.0</ele>
        <time>2020-07-22T11:45:26Z</time>
      </trkpt>
      <trkpt lat="42.7308230" lon="1.9557560">
        <ele>1467.8</ele>
        <time>2020-07-22T11:45:27Z</time>
      </trkpt>
      <trkpt lat="42.7308830" lon="1.9556340">
        <ele>1466.6</ele>
        <time>2020-07-22T11:45:28Z</time>
      </trkpt>
      <trkpt lat="42.7309440" lon="1.9555160">
        <ele>1465.6</ele>
        <time>2020-07-22T11:45:29Z</time>
      </trkpt>
      <trkpt lat="42.7310650" lon="1.9552840">
        <ele>1463.4</ele>
        <time>2020-07-22T11:45:31Z</time>
      </trkpt>
      <trkpt lat="42.7311240" lon="1.9551710">
        <ele>1462.4</ele>
        <time>2020-07-22T11:45:32Z</time>
      </trkpt>
      <trkpt lat="42.7311770" lon="1.9550460">
        <ele>1461.0</ele>
        <time>2020-07-22T11:45:33Z</time>
      </trkpt>
      <trkpt lat="42.7312250" lon="1.9549170">
        <ele>1459.8</ele>
        <time>2020-07-22T11:45:34Z</time>
      </trkpt>
      <trkpt lat="42.7312660" lon="1.9547820">
        <ele>1458.8</ele>
        <time>2020-07-22T11:45:35Z</time>
      </trkpt>
      <trkpt lat="42.7313230" lon="1.9545050">
        <ele>1456.8</ele>
        <time>2020-07-22T11:45:37Z</time>
      </trkpt>
      <trkpt lat="42.7313580" lon="1.9542330">
        <ele>1454.8</ele>
        <time>2020-07-22T11:45:39Z</time>
      </trkpt>
      <trkpt lat="42.7313710" lon="1.9539390">
        <ele>1453.0</ele>
        <time>2020-07-22T11:45:41Z</time>
      </trkpt>
      <trkpt lat="42.7313530" lon="1.9536290">
        <ele>1452.0</ele>
        <time>2020-07-22T11:45:43Z</time>
      </trkpt>
      <trkpt lat="42.7313140" lon="1.9533150">
        <ele>1450.0</ele>
        <time>2020-07-22T11:45:45Z</time>
      </trkpt>
      <trkpt lat="42.7312950" lon="1.9531540">
        <ele>1448.6</ele>
        <time>2020-07-22T11:45:46Z</time>
      </trkpt>
      <trkpt lat="42.7312720" lon="1.9529920">
        <ele>1447.2</ele>
        <time>2020-07-22T11:45:47Z</time>
      </trkpt>
      <trkpt lat="42.7312460" lon="1.9528290">
        <ele>1445.8</ele>
        <time>2020-07-22T11:45:48Z</time>
      </trkpt>
      <trkpt lat="42.7312150" lon="1.9526670">
        <ele>1444.6</ele>
        <time>2020-07-22T11:45:49Z</time>
      </trkpt>
      <trkpt lat="42.7311420" lon="1.9523330">
        <ele>1442.6</ele>
        <time>2020-07-22T11:45:51Z</time>
      </trkpt>
      <trkpt lat="42.7311090" lon="1.9521720">
        <ele>1441.4</ele>
        <time>2020-07-22T11:45:52Z</time>
      </trkpt>
      <trkpt lat="42.7310750" lon="1.9520150">
        <ele>1440.2</ele>
        <time>2020-07-22T11:45:53Z</time>
      </trkpt>
      <trkpt lat="42.7310390" lon="1.9518600">
        <ele>1438.8</ele>
        <time>2020-07-22T11:45:54Z</time>
      </trkpt>
      <trkpt lat="42.7310060" lon="1.9517120">
        <ele>1437.8</ele>
        <time>2020-07-22T11:45:55Z</time>
      </trkpt>
      <trkpt lat="42.7309400" lon="1.9514230">
        <ele>1436.2</ele>
        <time>2020-07-22T11:45:57Z</time>
      </trkpt>
      <trkpt lat="42.7309040" lon="1.9512780">
        <ele>1435.4</ele>
        <time>2020-07-22T11:45:58Z</time>
      </trkpt>
      <trkpt lat="42.7308620" lon="1.9511310">
        <ele>1434.2</ele>
        <time>2020-07-22T11:45:59Z</time>
      </trkpt>
      <trkpt lat="42.7308170" lon="1.9509840">
        <ele>1432.4</ele>
        <time>2020-07-22T11:46:00Z</time>
      </trkpt>
      <trkpt lat="42.7307660" lon="1.9508340">
        <ele>1431.0</ele>
        <time>2020-07-22T11:46:01Z</time>
      </trkpt>
      <trkpt lat="42.7306550" lon="1.9505390">
        <ele>1429.0</ele>
        <time>2020-07-22T11:46:03Z</time>
      </trkpt>
      <trkpt lat="42.7305940" lon="1.9503910">
        <ele>1427.8</ele>
        <time>2020-07-22T11:46:04Z</time>
      </trkpt>
      <trkpt lat="42.7305320" lon="1.9502440">
        <ele>1426.6</ele>
        <time>2020-07-22T11:46:05Z</time>
      </trkpt>
      <trkpt lat="42.7304710" lon="1.9501010">
        <ele>1425.0</ele>
        <time>2020-07-22T11:46:06Z</time>
      </trkpt>
      <trkpt lat="42.7304110" lon="1.9499640">
        <ele>1423.6</ele>
        <time>2020-07-22T11:46:07Z</time>
      </trkpt>
      <trkpt lat="42.7303500" lon="1.9498320">
        <ele>1422.6</ele>
        <time>2020-07-22T11:46:08Z</time>
      </trkpt>
      <trkpt lat="42.7302870" lon="1.9497070">
        <ele>1421.8</ele>
        <time>2020-07-22T11:46:09Z</time>
      </trkpt>
      <trkpt lat="42.7302250" lon="1.9495840">
        <ele>1421.0</ele>
        <time>2020-07-22T11:46:10Z</time>
      </trkpt>
      <trkpt lat="42.7301140" lon="1.9493460">
        <ele>1419.8</ele>
        <time>2020-07-22T11:46:12Z</time>
      </trkpt>
      <trkpt lat="42.7300490" lon="1.9492360">
        <ele>1418.4</ele>
        <time>2020-07-22T11:46:13Z</time>
      </trkpt>
      <trkpt lat="42.7299730" lon="1.9491340">
        <ele>1416.8</ele>
        <time>2020-07-22T11:46:14Z</time>
      </trkpt>
      <trkpt lat="42.7298880" lon="1.9490390">
        <ele>1415.4</ele>
        <time>2020-07-22T11:46:15Z</time>
      </trkpt>
      <trkpt lat="42.7297990" lon="1.9489440">
        <ele>1414.2</ele>
        <time>2020-07-22T11:46:16Z</time>
      </trkpt>
      <trkpt lat="42.7297080" lon="1.9488450">
        <ele>1413.0</ele>
        <time>2020-07-22T11:46:17Z</time>
      </trkpt>
      <trkpt lat="42.7296180" lon="1.9487370">
        <ele>1412.2</ele>
        <time>2020-07-22T11:46:18Z</time>
      </trkpt>
      <trkpt lat="42.7295320" lon="1.9486200">
        <ele>1411.6</ele>
        <time>2020-07-22T11:46:19Z</time>
      </trkpt>
      <trkpt lat="42.7293560" lon="1.9483780">
        <ele>1410.2</ele>
        <time>2020-07-22T11:46:21Z</time>
      </trkpt>
      <trkpt lat="42.7291650" lon="1.9481580">
        <ele>1408.4</ele>
        <time>2020-07-22T11:46:23Z</time>
      </trkpt>
      <trkpt lat="42.7289600" lon="1.9479520">
        <ele>1406.6</ele>
        <time>2020-07-22T11:46:25Z</time>
      </trkpt>
      <trkpt lat="42.7287570" lon="1.9477630">
        <ele>1405.2</ele>
        <time>2020-07-22T11:46:27Z</time>
      </trkpt>
      <trkpt lat="42.7286610" lon="1.9476730">
        <ele>1404.6</ele>
        <time>2020-07-22T11:46:28Z</time>
      </trkpt>
      <trkpt lat="42.7285650" lon="1.9475960">
        <ele>1403.8</ele>
        <time>2020-07-22T11:46:29Z</time>
      </trkpt>
      <trkpt lat="42.7284670" lon="1.9475290">
        <ele>1403.2</ele>
        <time>2020-07-22T11:46:30Z</time>
      </trkpt>
      <trkpt lat="42.7283670" lon="1.9474690">
        <ele>1402.6</ele>
        <time>2020-07-22T11:46:31Z</time>
      </trkpt>
      <trkpt lat="42.7282630" lon="1.9474090">
        <ele>1401.8</ele>
        <time>2020-07-22T11:46:32Z</time>
      </trkpt>
      <trkpt lat="42.7281640" lon="1.9473380">
        <ele>1401.2</ele>
        <time>2020-07-22T11:46:33Z</time>
      </trkpt>
      <trkpt lat="42.7280680" lon="1.9472560">
        <ele>1400.6</ele>
        <time>2020-07-22T11:46:34Z</time>
      </trkpt>
      <trkpt lat="42.7279740" lon="1.9471630">
        <ele>1400.0</ele>
        <time>2020-07-22T11:46:35Z</time>
      </trkpt>
      <trkpt lat="42.7278820" lon="1.9470580">
        <ele>1399.4</ele>
        <time>2020-07-22T11:46:36Z</time>
      </trkpt>
      <trkpt lat="42.7277920" lon="1.9469420">
        <ele>1398.8</ele>
        <time>2020-07-22T11:46:37Z</time>
      </trkpt>
      <trkpt lat="42.7276180" lon="1.9466790">
        <ele>1397.0</ele>
        <time>2020-07-22T11:46:39Z</time>
      </trkpt>
      <trkpt lat="42.7275320" lon="1.9465410">
        <ele>1395.8</ele>
        <time>2020-07-22T11:46:40Z</time>
      </trkpt>
      <trkpt lat="42.7274470" lon="1.9464050">
        <ele>1394.8</ele>
        <time>2020-07-22T11:46:41Z</time>
      </trkpt>
      <trkpt lat="42.7273640" lon="1.9462730">
        <ele>1393.6</ele>
        <time>2020-07-22T11:46:42Z</time>
      </trkpt>
      <trkpt lat="42.7272810" lon="1.9461450">
        <ele>1392.2</ele>
        <time>2020-07-22T11:46:43Z</time>
      </trkpt>
      <trkpt lat="42.7271960" lon="1.9460230">
        <ele>1390.8</ele>
        <time>2020-07-22T11:46:44Z</time>
      </trkpt>
      <trkpt lat="42.7271100" lon="1.9459100">
        <ele>1389.4</ele>
        <time>2020-07-22T11:46:45Z</time>
      </trkpt>
      <trkpt lat="42.7270290" lon="1.9457870">
        <ele>1388.4</ele>
        <time>2020-07-22T11:46:46Z</time>
      </trkpt>
      <trkpt lat="42.7269540" lon="1.9456510">
        <ele>1387.6</ele>
        <time>2020-07-22T11:46:47Z</time>
      </trkpt>
      <trkpt lat="42.7268860" lon="1.9455020">
        <ele>1386.8</ele>
        <time>2020-07-22T11:46:48Z</time>
      </trkpt>
      <trkpt lat="42.7268190" lon="1.9453450">
        <ele>1385.6</ele>
        <time>2020-07-22T11:46:49Z</time>
      </trkpt>
      <trkpt lat="42.7266820" lon="1.9450290">
        <ele>1383.6</ele>
        <time>2020-07-22T11:46:51Z</time>
      </trkpt>
      <trkpt lat="42.7266080" lon="1.9448750">
        <ele>1382.4</ele>
        <time>2020-07-22T11:46:52Z</time>
      </trkpt>
      <trkpt lat="42.7265300" lon="1.9447260">
        <ele>1381.2</ele>
        <time>2020-07-22T11:46:53Z</time>
      </trkpt>
      <trkpt lat="42.7264460" lon="1.9445820">
        <ele>1380.4</ele>
        <time>2020-07-22T11:46:54Z</time>
      </trkpt>
      <trkpt lat="42.7263590" lon="1.9444430">
        <ele>1379.6</ele>
        <time>2020-07-22T11:46:55Z</time>
      </trkpt>
      <trkpt lat="42.7261980" lon="1.9441690">
        <ele>1378.8</ele>
        <time>2020-07-22T11:46:57Z</time>
      </trkpt>
      <trkpt lat="42.7261290" lon="1.9440260">
        <ele>1378.4</ele>
        <time>2020-07-22T11:46:58Z</time>
      </trkpt>
      <trkpt lat="42.7260720" lon="1.9438730">
        <ele>1378.2</ele>
        <time>2020-07-22T11:46:59Z</time>
      </trkpt>
      <trkpt lat="42.7259830" lon="1.9435470">
        <ele>1377.6</ele>
        <time>2020-07-22T11:47:01Z</time>
      </trkpt>
      <trkpt lat="42.7259410" lon="1.9433830">
        <ele>1377.0</ele>
        <time>2020-07-22T11:47:02Z</time>
      </trkpt>
      <trkpt lat="42.7258990" lon="1.9432220">
        <ele>1376.2</ele>
        <time>2020-07-22T11:47:03Z</time>
      </trkpt>
      <trkpt lat="42.7258560" lon="1.9430640">
        <ele>1375.6</ele>
        <time>2020-07-22T11:47:04Z</time>
      </trkpt>
      <trkpt lat="42.7256660" lon="1.9423140">
        <ele>1374.8</ele>
        <time>2020-07-22T11:47:09Z</time>
      </trkpt>
      <trkpt lat="42.7256340" lon="1.9421700">
        <ele>1374.8</ele>
        <time>2020-07-22T11:47:10Z</time>
      </trkpt>
      <trkpt lat="42.7254900" lon="1.9416160">
        <ele>1375.4</ele>
        <time>2020-07-22T11:47:14Z</time>
      </trkpt>
      <trkpt lat="42.7254340" lon="1.9414840">
        <ele>1375.2</ele>
        <time>2020-07-22T11:47:15Z</time>
      </trkpt>
      <trkpt lat="42.7253690" lon="1.9413580">
        <ele>1374.4</ele>
        <time>2020-07-22T11:47:16Z</time>
      </trkpt>
      <trkpt lat="42.7252400" lon="1.9411200">
        <ele>1372.6</ele>
        <time>2020-07-22T11:47:18Z</time>
      </trkpt>
      <trkpt lat="42.7251880" lon="1.9410060">
        <ele>1372.0</ele>
        <time>2020-07-22T11:47:19Z</time>
      </trkpt>
      <trkpt lat="42.7251440" lon="1.9408900">
        <ele>1371.4</ele>
        <time>2020-07-22T11:47:20Z</time>
      </trkpt>
      <trkpt lat="42.7250190" lon="1.9405230">
        <ele>1370.8</ele>
        <time>2020-07-22T11:47:23Z</time>
      </trkpt>
      <trkpt lat="42.7249710" lon="1.9403980">
        <ele>1370.2</ele>
        <time>2020-07-22T11:47:24Z</time>
      </trkpt>
      <trkpt lat="42.7248590" lon="1.9401470">
        <ele>1368.4</ele>
        <time>2020-07-22T11:47:26Z</time>
      </trkpt>
      <trkpt lat="42.7247200" lon="1.9399070">
        <ele>1366.6</ele>
        <time>2020-07-22T11:47:28Z</time>
      </trkpt>
      <trkpt lat="42.7245590" lon="1.9396890">
        <ele>1365.4</ele>
        <time>2020-07-22T11:47:30Z</time>
      </trkpt>
      <trkpt lat="42.7243800" lon="1.9394920">
        <ele>1364.6</ele>
        <time>2020-07-22T11:47:32Z</time>
      </trkpt>
      <trkpt lat="42.7242880" lon="1.9393980">
        <ele>1364.2</ele>
        <time>2020-07-22T11:47:33Z</time>
      </trkpt>
      <trkpt lat="42.7241070" lon="1.9392120">
        <ele>1363.0</ele>
        <time>2020-07-22T11:47:35Z</time>
      </trkpt>
      <trkpt lat="42.7238580" lon="1.9389070">
        <ele>1361.8</ele>
        <time>2020-07-22T11:47:38Z</time>
      </trkpt>
      <trkpt lat="42.7236170" lon="1.9385910">
        <ele>1361.6</ele>
        <time>2020-07-22T11:47:41Z</time>
      </trkpt>
      <trkpt lat="42.7234610" lon="1.9383970">
        <ele>1361.6</ele>
        <time>2020-07-22T11:47:43Z</time>
      </trkpt>
      <trkpt lat="42.7232350" lon="1.9381280">
        <ele>1361.6</ele>
        <time>2020-07-22T11:47:46Z</time>
      </trkpt>
      <trkpt lat="42.7227990" lon="1.9376040">
        <ele>1361.0</ele>
        <time>2020-07-22T11:47:52Z</time>
      </trkpt>
      <trkpt lat="42.7227330" lon="1.9375070">
        <ele>1360.8</ele>
        <time>2020-07-22T11:47:53Z</time>
      </trkpt>
      <trkpt lat="42.7226690" lon="1.9374030">
        <ele>1360.6</ele>
        <time>2020-07-22T11:47:54Z</time>
      </trkpt>
      <trkpt lat="42.7226120" lon="1.9372910">
        <ele>1360.4</ele>
        <time>2020-07-22T11:47:55Z</time>
      </trkpt>
      <trkpt lat="42.7225150" lon="1.9370530">
        <ele>1360.2</ele>
        <time>2020-07-22T11:47:57Z</time>
      </trkpt>
      <trkpt lat="42.7223380" lon="1.9365600">
        <ele>1359.8</ele>
        <time>2020-07-22T11:48:01Z</time>
      </trkpt>
      <trkpt lat="42.7222790" lon="1.9364440">
        <ele>1359.0</ele>
        <time>2020-07-22T11:48:02Z</time>
      </trkpt>
      <trkpt lat="42.7222090" lon="1.9363340">
        <ele>1358.4</ele>
        <time>2020-07-22T11:48:03Z</time>
      </trkpt>
      <trkpt lat="42.7221250" lon="1.9362390">
        <ele>1357.6</ele>
        <time>2020-07-22T11:48:04Z</time>
      </trkpt>
      <trkpt lat="42.7220310" lon="1.9361510">
        <ele>1356.6</ele>
        <time>2020-07-22T11:48:05Z</time>
      </trkpt>
      <trkpt lat="42.7219330" lon="1.9360660">
        <ele>1355.6</ele>
        <time>2020-07-22T11:48:06Z</time>
      </trkpt>
      <trkpt lat="42.7218330" lon="1.9359750">
        <ele>1354.8</ele>
        <time>2020-07-22T11:48:07Z</time>
      </trkpt>
      <trkpt lat="42.7216430" lon="1.9357720">
        <ele>1353.2</ele>
        <time>2020-07-22T11:48:09Z</time>
      </trkpt>
      <trkpt lat="42.7215540" lon="1.9356540">
        <ele>1352.8</ele>
        <time>2020-07-22T11:48:10Z</time>
      </trkpt>
      <trkpt lat="42.7213900" lon="1.9353950">
        <ele>1351.8</ele>
        <time>2020-07-22T11:48:12Z</time>
      </trkpt>
      <trkpt lat="42.7212440" lon="1.9351050">
        <ele>1350.6</ele>
        <time>2020-07-22T11:48:14Z</time>
      </trkpt>
      <trkpt lat="42.7211170" lon="1.9348010">
        <ele>1349.0</ele>
        <time>2020-07-22T11:48:16Z</time>
      </trkpt>
      <trkpt lat="42.7209220" lon="1.9343510">
        <ele>1347.4</ele>
        <time>2020-07-22T11:48:19Z</time>
      </trkpt>
      <trkpt lat="42.7208570" lon="1.9342060">
        <ele>1346.6</ele>
        <time>2020-07-22T11:48:20Z</time>
      </trkpt>
      <trkpt lat="42.7207930" lon="1.9340640">
        <ele>1346.0</ele>
        <time>2020-07-22T11:48:21Z</time>
      </trkpt>
      <trkpt lat="42.7206870" lon="1.9337750">
        <ele>1345.0</ele>
        <time>2020-07-22T11:48:23Z</time>
      </trkpt>
      <trkpt lat="42.7206370" lon="1.9336330">
        <ele>1344.8</ele>
        <time>2020-07-22T11:48:24Z</time>
      </trkpt>
      <trkpt lat="42.7205810" lon="1.9334970">
        <ele>1344.8</ele>
        <time>2020-07-22T11:48:25Z</time>
      </trkpt>
      <trkpt lat="42.7203590" lon="1.9329720">
        <ele>1344.2</ele>
        <time>2020-07-22T11:48:29Z</time>
      </trkpt>
      <trkpt lat="42.7203150" lon="1.9328290">
        <ele>1344.2</ele>
        <time>2020-07-22T11:48:30Z</time>
      </trkpt>
      <trkpt lat="42.7202280" lon="1.9325410">
        <ele>1343.4</ele>
        <time>2020-07-22T11:48:32Z</time>
      </trkpt>
      <trkpt lat="42.7201190" lon="1.9322530">
        <ele>1341.4</ele>
        <time>2020-07-22T11:48:34Z</time>
      </trkpt>
      <trkpt lat="42.7200530" lon="1.9321120">
        <ele>1340.2</ele>
        <time>2020-07-22T11:48:35Z</time>
      </trkpt>
      <trkpt lat="42.7199120" lon="1.9318190">
        <ele>1338.4</ele>
        <time>2020-07-22T11:48:37Z</time>
      </trkpt>
      <trkpt lat="42.7198440" lon="1.9316770">
        <ele>1337.2</ele>
        <time>2020-07-22T11:48:38Z</time>
      </trkpt>
      <trkpt lat="42.7197810" lon="1.9315410">
        <ele>1336.0</ele>
        <time>2020-07-22T11:48:39Z</time>
      </trkpt>
      <trkpt lat="42.7197210" lon="1.9314080">
        <ele>1334.8</ele>
        <time>2020-07-22T11:48:40Z</time>
      </trkpt>
      <trkpt lat="42.7196150" lon="1.9311450">
        <ele>1332.8</ele>
        <time>2020-07-22T11:48:42Z</time>
      </trkpt>
      <trkpt lat="42.7195580" lon="1.9310200">
        <ele>1332.0</ele>
        <time>2020-07-22T11:48:43Z</time>
      </trkpt>
      <trkpt lat="42.7194920" lon="1.9309030">
        <ele>1331.2</ele>
        <time>2020-07-22T11:48:44Z</time>
      </trkpt>
      <trkpt lat="42.7194220" lon="1.9307910">
        <ele>1330.2</ele>
        <time>2020-07-22T11:48:45Z</time>
      </trkpt>
      <trkpt lat="42.7193480" lon="1.9306890">
        <ele>1328.8</ele>
        <time>2020-07-22T11:48:46Z</time>
      </trkpt>
      <trkpt lat="42.7192680" lon="1.9305920">
        <ele>1327.4</ele>
        <time>2020-07-22T11:48:47Z</time>
      </trkpt>
      <trkpt lat="42.7191880" lon="1.9305070">
        <ele>1326.2</ele>
        <time>2020-07-22T11:48:48Z</time>
      </trkpt>
      <trkpt lat="42.7190550" lon="1.9303510">
        <ele>1324.4</ele>
        <time>2020-07-22T11:48:50Z</time>
      </trkpt>
      <trkpt lat="42.7190040" lon="1.9302730">
        <ele>1323.6</ele>
        <time>2020-07-22T11:48:51Z</time>
      </trkpt>
      <trkpt lat="42.7189650" lon="1.9301930">
        <ele>1323.0</ele>
        <time>2020-07-22T11:48:52Z</time>
      </trkpt>
      <trkpt lat="42.7188960" lon="1.9300550">
        <ele>1322.2</ele>
        <time>2020-07-22T11:48:54Z</time>
      </trkpt>
      <trkpt lat="42.7188070" lon="1.9300200">
        <ele>1321.8</ele>
        <time>2020-07-22T11:48:56Z</time>
      </trkpt>
      <trkpt lat="42.7187690" lon="1.9300660">
        <ele>1321.6</ele>
        <time>2020-07-22T11:48:57Z</time>
      </trkpt>
      <trkpt lat="42.7187470" lon="1.9301600">
        <ele>1321.4</ele>
        <time>2020-07-22T11:48:58Z</time>
      </trkpt>
      <trkpt lat="42.7187430" lon="1.9302560">
        <ele>1321.4</ele>
        <time>2020-07-22T11:48:59Z</time>
      </trkpt>
      <trkpt lat="42.7187700" lon="1.9304640">
        <ele>1320.6</ele>
        <time>2020-07-22T11:49:01Z</time>
      </trkpt>
      <trkpt lat="42.7188210" lon="1.9306950">
        <ele>1318.8</ele>
        <time>2020-07-22T11:49:03Z</time>
      </trkpt>
      <trkpt lat="42.7188980" lon="1.9309480">
        <ele>1316.6</ele>
        <time>2020-07-22T11:49:05Z</time>
      </trkpt>
      <trkpt lat="42.7189270" lon="1.9310830">
        <ele>1315.6</ele>
        <time>2020-07-22T11:49:06Z</time>
      </trkpt>
      <trkpt lat="42.7189480" lon="1.9312210">
        <ele>1315.0</ele>
        <time>2020-07-22T11:49:07Z</time>
      </trkpt>
      <trkpt lat="42.7189520" lon="1.9313630">
        <ele>1314.4</ele>
        <time>2020-07-22T11:49:08Z</time>
      </trkpt>
      <trkpt lat="42.7189470" lon="1.9316570">
        <ele>1313.0</ele>
        <time>2020-07-22T11:49:10Z</time>
      </trkpt>
      <trkpt lat="42.7189630" lon="1.9319270">
        <ele>1311.8</ele>
        <time>2020-07-22T11:49:12Z</time>
      </trkpt>
      <trkpt lat="42.7190080" lon="1.9321420">
        <ele>1311.2</ele>
        <time>2020-07-22T11:49:14Z</time>
      </trkpt>
      <trkpt lat="42.7190360" lon="1.9322870">
        <ele>1311.0</ele>
        <time>2020-07-22T11:49:16Z</time>
      </trkpt>
      <trkpt lat="42.7190250" lon="1.9323340">
        <ele>1311.0</ele>
        <time>2020-07-22T11:49:17Z</time>
      </trkpt>
      <trkpt lat="42.7189830" lon="1.9323420">
        <ele>1310.8</ele>
        <time>2020-07-22T11:49:18Z</time>
      </trkpt>
      <trkpt lat="42.7189520" lon="1.9323070">
        <ele>1310.8</ele>
        <time>2020-07-22T11:49:19Z</time>
      </trkpt>
      <trkpt lat="42.7189230" lon="1.9322400">
        <ele>1310.6</ele>
        <time>2020-07-22T11:49:20Z</time>
      </trkpt>
      <trkpt lat="42.7188990" lon="1.9321490">
        <ele>1310.0</ele>
        <time>2020-07-22T11:49:21Z</time>
      </trkpt>
      <trkpt lat="42.7188820" lon="1.9320480">
        <ele>1309.2</ele>
        <time>2020-07-22T11:49:22Z</time>
      </trkpt>
      <trkpt lat="42.7188370" lon="1.9318260">
        <ele>1307.4</ele>
        <time>2020-07-22T11:49:24Z</time>
      </trkpt>
      <trkpt lat="42.7187340" lon="1.9316470">
        <ele>1305.6</ele>
        <time>2020-07-22T11:49:26Z</time>
      </trkpt>
      <trkpt lat="42.7186590" lon="1.9316020">
        <ele>1304.6</ele>
        <time>2020-07-22T11:49:27Z</time>
      </trkpt>
      <trkpt lat="42.7185790" lon="1.9315670">
        <ele>1303.8</ele>
        <time>2020-07-22T11:49:28Z</time>
      </trkpt>
      <trkpt lat="42.7185050" lon="1.9315120">
        <ele>1303.0</ele>
        <time>2020-07-22T11:49:29Z</time>
      </trkpt>
      <trkpt lat="42.7184460" lon="1.9314280">
        <ele>1302.4</ele>
        <time>2020-07-22T11:49:30Z</time>
      </trkpt>
      <trkpt lat="42.7184090" lon="1.9313210">
        <ele>1301.4</ele>
        <time>2020-07-22T11:49:31Z</time>
      </trkpt>
      <trkpt lat="42.7183870" lon="1.9312030">
        <ele>1300.4</ele>
        <time>2020-07-22T11:49:32Z</time>
      </trkpt>
      <trkpt lat="42.7183710" lon="1.9310760">
        <ele>1299.4</ele>
        <time>2020-07-22T11:49:33Z</time>
      </trkpt>
      <trkpt lat="42.7183580" lon="1.9309440">
        <ele>1298.4</ele>
        <time>2020-07-22T11:49:34Z</time>
      </trkpt>
      <trkpt lat="42.7183380" lon="1.9308130">
        <ele>1297.0</ele>
        <time>2020-07-22T11:49:35Z</time>
      </trkpt>
      <trkpt lat="42.7183050" lon="1.9306900">
        <ele>1295.4</ele>
        <time>2020-07-22T11:49:36Z</time>
      </trkpt>
      <trkpt lat="42.7182590" lon="1.9305810">
        <ele>1294.2</ele>
        <time>2020-07-22T11:49:37Z</time>
      </trkpt>
      <trkpt lat="42.7181950" lon="1.9304910">
        <ele>1293.0</ele>
        <time>2020-07-22T11:49:38Z</time>
      </trkpt>
      <trkpt lat="42.7181160" lon="1.9304290">
        <ele>1292.2</ele>
        <time>2020-07-22T11:49:39Z</time>
      </trkpt>
      <trkpt lat="42.7180340" lon="1.9303970">
        <ele>1291.8</ele>
        <time>2020-07-22T11:49:40Z</time>
      </trkpt>
      <trkpt lat="42.7178680" lon="1.9303380">
        <ele>1291.0</ele>
        <time>2020-07-22T11:49:42Z</time>
      </trkpt>
      <trkpt lat="42.7178040" lon="1.9302730">
        <ele>1290.6</ele>
        <time>2020-07-22T11:49:43Z</time>
      </trkpt>
      <trkpt lat="42.7177510" lon="1.9301770">
        <ele>1290.0</ele>
        <time>2020-07-22T11:49:44Z</time>
      </trkpt>
      <trkpt lat="42.7177110" lon="1.9300620">
        <ele>1289.4</ele>
        <time>2020-07-22T11:49:45Z</time>
      </trkpt>
      <trkpt lat="42.7176230" lon="1.9298210">
        <ele>1288.2</ele>
        <time>2020-07-22T11:49:47Z</time>
      </trkpt>
      <trkpt lat="42.7175640" lon="1.9297060">
        <ele>1287.6</ele>
        <time>2020-07-22T11:49:48Z</time>
      </trkpt>
      <trkpt lat="42.7174950" lon="1.9295950">
        <ele>1286.8</ele>
        <time>2020-07-22T11:49:49Z</time>
      </trkpt>
      <trkpt lat="42.7173520" lon="1.9293720">
        <ele>1285.6</ele>
        <time>2020-07-22T11:49:51Z</time>
      </trkpt>
      <trkpt lat="42.7172710" lon="1.9292650">
        <ele>1284.6</ele>
        <time>2020-07-22T11:49:52Z</time>
      </trkpt>
      <trkpt lat="42.7171820" lon="1.9291740">
        <ele>1283.6</ele>
        <time>2020-07-22T11:49:53Z</time>
      </trkpt>
      <trkpt lat="42.7170900" lon="1.9290960">
        <ele>1282.8</ele>
        <time>2020-07-22T11:49:54Z</time>
      </trkpt>
      <trkpt lat="42.7169980" lon="1.9290280">
        <ele>1281.8</ele>
        <time>2020-07-22T11:49:55Z</time>
      </trkpt>
      <trkpt lat="42.7169090" lon="1.9289710">
        <ele>1280.8</ele>
        <time>2020-07-22T11:49:56Z</time>
      </trkpt>
      <trkpt lat="42.7168150" lon="1.9289370">
        <ele>1279.8</ele>
        <time>2020-07-22T11:49:57Z</time>
      </trkpt>
      <trkpt lat="42.7167200" lon="1.9289310">
        <ele>1278.6</ele>
        <time>2020-07-22T11:49:58Z</time>
      </trkpt>
      <trkpt lat="42.7166370" lon="1.9289100">
        <ele>1277.4</ele>
        <time>2020-07-22T11:49:59Z</time>
      </trkpt>
      <trkpt lat="42.7165500" lon="1.9288990">
        <ele>1276.4</ele>
        <time>2020-07-22T11:50:00Z</time>
      </trkpt>
      <trkpt lat="42.7164870" lon="1.9288380">
        <ele>1276.0</ele>
        <time>2020-07-22T11:50:01Z</time>
      </trkpt>
      <trkpt lat="42.7164480" lon="1.9287460">
        <ele>1275.4</ele>
        <time>2020-07-22T11:50:02Z</time>
      </trkpt>
      <trkpt lat="42.7164320" lon="1.9286300">
        <ele>1274.4</ele>
        <time>2020-07-22T11:50:03Z</time>
      </trkpt>
      <trkpt lat="42.7164350" lon="1.9285080">
        <ele>1273.6</ele>
        <time>2020-07-22T11:50:04Z</time>
      </trkpt>
      <trkpt lat="42.7164560" lon="1.9283810">
        <ele>1272.4</ele>
        <time>2020-07-22T11:50:05Z</time>
      </trkpt>
      <trkpt lat="42.7164900" lon="1.9282450">
        <ele>1271.2</ele>
        <time>2020-07-22T11:50:06Z</time>
      </trkpt>
      <trkpt lat="42.7165180" lon="1.9281030">
        <ele>1270.0</ele>
        <time>2020-07-22T11:50:07Z</time>
      </trkpt>
      <trkpt lat="42.7165410" lon="1.9279610">
        <ele>1268.8</ele>
        <time>2020-07-22T11:50:08Z</time>
      </trkpt>
      <trkpt lat="42.7165680" lon="1.9278260">
        <ele>1267.2</ele>
        <time>2020-07-22T11:50:09Z</time>
      </trkpt>
      <trkpt lat="42.7166030" lon="1.9276980">
        <ele>1265.6</ele>
        <time>2020-07-22T11:50:10Z</time>
      </trkpt>
      <trkpt lat="42.7166610" lon="1.9275730">
        <ele>1264.2</ele>
        <time>2020-07-22T11:50:11Z</time>
      </trkpt>
      <trkpt lat="42.7167200" lon="1.9274460">
        <ele>1262.8</ele>
        <time>2020-07-22T11:50:12Z</time>
      </trkpt>
      <trkpt lat="42.7167810" lon="1.9273170">
        <ele>1261.8</ele>
        <time>2020-07-22T11:50:13Z</time>
      </trkpt>
      <trkpt lat="42.7168920" lon="1.9270330">
        <ele>1260.2</ele>
        <time>2020-07-22T11:50:15Z</time>
      </trkpt>
      <trkpt lat="42.7169280" lon="1.9268880">
        <ele>1259.0</ele>
        <time>2020-07-22T11:50:16Z</time>
      </trkpt>
      <trkpt lat="42.7169560" lon="1.9267360">
        <ele>1257.6</ele>
        <time>2020-07-22T11:50:17Z</time>
      </trkpt>
      <trkpt lat="42.7169870" lon="1.9265940">
        <ele>1256.4</ele>
        <time>2020-07-22T11:50:18Z</time>
      </trkpt>
      <trkpt lat="42.7170290" lon="1.9264610">
        <ele>1255.4</ele>
        <time>2020-07-22T11:50:19Z</time>
      </trkpt>
      <trkpt lat="42.7170830" lon="1.9263410">
        <ele>1254.2</ele>
        <time>2020-07-22T11:50:20Z</time>
      </trkpt>
      <trkpt lat="42.7171290" lon="1.9262180">
        <ele>1253.2</ele>
        <time>2020-07-22T11:50:21Z</time>
      </trkpt>
      <trkpt lat="42.7171560" lon="1.9260910">
        <ele>1252.4</ele>
        <time>2020-07-22T11:50:22Z</time>
      </trkpt>
      <trkpt lat="42.7171320" lon="1.9258120">
        <ele>1250.6</ele>
        <time>2020-07-22T11:50:24Z</time>
      </trkpt>
      <trkpt lat="42.7170020" lon="1.9255510">
        <ele>1248.4</ele>
        <time>2020-07-22T11:50:26Z</time>
      </trkpt>
      <trkpt lat="42.7169180" lon="1.9254530">
        <ele>1247.4</ele>
        <time>2020-07-22T11:50:27Z</time>
      </trkpt>
      <trkpt lat="42.7167440" lon="1.9252770">
        <ele>1246.0</ele>
        <time>2020-07-22T11:50:29Z</time>
      </trkpt>
      <trkpt lat="42.7165790" lon="1.9251470">
        <ele>1244.8</ele>
        <time>2020-07-22T11:50:31Z</time>
      </trkpt>
      <trkpt lat="42.7165170" lon="1.9250770">
        <ele>1244.2</ele>
        <time>2020-07-22T11:50:32Z</time>
      </trkpt>
      <trkpt lat="42.7164740" lon="1.9249850">
        <ele>1244.0</ele>
        <time>2020-07-22T11:50:33Z</time>
      </trkpt>
      <trkpt lat="42.7164470" lon="1.9248840">
        <ele>1243.6</ele>
        <time>2020-07-22T11:50:34Z</time>
      </trkpt>
      <trkpt lat="42.7164410" lon="1.9246530">
        <ele>1242.8</ele>
        <time>2020-07-22T11:50:36Z</time>
      </trkpt>
      <trkpt lat="42.7164340" lon="1.9245320">
        <ele>1242.0</ele>
        <time>2020-07-22T11:50:37Z</time>
      </trkpt>
      <trkpt lat="42.7164090" lon="1.9244060">
        <ele>1241.2</ele>
        <time>2020-07-22T11:50:38Z</time>
      </trkpt>
      <trkpt lat="42.7163780" lon="1.9242770">
        <ele>1240.4</ele>
        <time>2020-07-22T11:50:39Z</time>
      </trkpt>
      <trkpt lat="42.7163330" lon="1.9241540">
        <ele>1239.4</ele>
        <time>2020-07-22T11:50:40Z</time>
      </trkpt>
      <trkpt lat="42.7162750" lon="1.9240350">
        <ele>1238.0</ele>
        <time>2020-07-22T11:50:41Z</time>
      </trkpt>
      <trkpt lat="42.7162100" lon="1.9239110">
        <ele>1237.0</ele>
        <time>2020-07-22T11:50:42Z</time>
      </trkpt>
      <trkpt lat="42.7160790" lon="1.9237030">
        <ele>1235.2</ele>
        <time>2020-07-22T11:50:44Z</time>
      </trkpt>
      <trkpt lat="42.7160230" lon="1.9236050">
        <ele>1234.0</ele>
        <time>2020-07-22T11:50:45Z</time>
      </trkpt>
      <trkpt lat="42.7159830" lon="1.9235020">
        <ele>1233.0</ele>
        <time>2020-07-22T11:50:46Z</time>
      </trkpt>
      <trkpt lat="42.7159640" lon="1.9233860">
        <ele>1232.4</ele>
        <time>2020-07-22T11:50:47Z</time>
      </trkpt>
      <trkpt lat="42.7159700" lon="1.9232660">
        <ele>1231.8</ele>
        <time>2020-07-22T11:50:48Z</time>
      </trkpt>
      <trkpt lat="42.7159820" lon="1.9231390">
        <ele>1231.2</ele>
        <time>2020-07-22T11:50:49Z</time>
      </trkpt>
      <trkpt lat="42.7160100" lon="1.9230040">
        <ele>1230.0</ele>
        <time>2020-07-22T11:50:50Z</time>
      </trkpt>
      <trkpt lat="42.7160360" lon="1.9228610">
        <ele>1228.4</ele>
        <time>2020-07-22T11:50:51Z</time>
      </trkpt>
      <trkpt lat="42.7160700" lon="1.9227140">
        <ele>1226.6</ele>
        <time>2020-07-22T11:50:52Z</time>
      </trkpt>
      <trkpt lat="42.7161000" lon="1.9225570">
        <ele>1225.2</ele>
        <time>2020-07-22T11:50:53Z</time>
      </trkpt>
      <trkpt lat="42.7161630" lon="1.9222260">
        <ele>1223.4</ele>
        <time>2020-07-22T11:50:55Z</time>
      </trkpt>
      <trkpt lat="42.7161960" lon="1.9220520">
        <ele>1222.0</ele>
        <time>2020-07-22T11:50:56Z</time>
      </trkpt>
      <trkpt lat="42.7162310" lon="1.9218770">
        <ele>1220.6</ele>
        <time>2020-07-22T11:50:57Z</time>
      </trkpt>
      <trkpt lat="42.7162730" lon="1.9217030">
        <ele>1219.2</ele>
        <time>2020-07-22T11:50:58Z</time>
      </trkpt>
      <trkpt lat="42.7163150" lon="1.9215270">
        <ele>1217.6</ele>
        <time>2020-07-22T11:50:59Z</time>
      </trkpt>
      <trkpt lat="42.7163600" lon="1.9213480">
        <ele>1216.2</ele>
        <time>2020-07-22T11:51:00Z</time>
      </trkpt>
      <trkpt lat="42.7164000" lon="1.9211690">
        <ele>1214.8</ele>
        <time>2020-07-22T11:51:01Z</time>
      </trkpt>
      <trkpt lat="42.7164400" lon="1.9209980">
        <ele>1213.2</ele>
        <time>2020-07-22T11:51:02Z</time>
      </trkpt>
      <trkpt lat="42.7164880" lon="1.9208330">
        <ele>1212.0</ele>
        <time>2020-07-22T11:51:03Z</time>
      </trkpt>
      <trkpt lat="42.7165400" lon="1.9206670">
        <ele>1211.4</ele>
        <time>2020-07-22T11:51:04Z</time>
      </trkpt>
      <trkpt lat="42.7165980" lon="1.9205030">
        <ele>1210.8</ele>
        <time>2020-07-22T11:51:05Z</time>
      </trkpt>
      <trkpt lat="42.7167150" lon="1.9201930">
        <ele>1209.2</ele>
        <time>2020-07-22T11:51:07Z</time>
      </trkpt>
      <trkpt lat="42.7168430" lon="1.9199050">
        <ele>1207.6</ele>
        <time>2020-07-22T11:51:09Z</time>
      </trkpt>
      <trkpt lat="42.7169510" lon="1.9196070">
        <ele>1206.0</ele>
        <time>2020-07-22T11:51:11Z</time>
      </trkpt>
      <trkpt lat="42.7170270" lon="1.9193120">
        <ele>1204.4</ele>
        <time>2020-07-22T11:51:13Z</time>
      </trkpt>
      <trkpt lat="42.7170680" lon="1.9191800">
        <ele>1204.0</ele>
        <time>2020-07-22T11:51:14Z</time>
      </trkpt>
      <trkpt lat="42.7171100" lon="1.9190550">
        <ele>1203.4</ele>
        <time>2020-07-22T11:51:15Z</time>
      </trkpt>
      <trkpt lat="42.7172050" lon="1.9186610">
        <ele>1202.2</ele>
        <time>2020-07-22T11:51:18Z</time>
      </trkpt>
      <trkpt lat="42.7172000" lon="1.9183630">
        <ele>1200.6</ele>
        <time>2020-07-22T11:51:20Z</time>
      </trkpt>
      <trkpt lat="42.7171790" lon="1.9182080">
        <ele>1199.6</ele>
        <time>2020-07-22T11:51:21Z</time>
      </trkpt>
      <trkpt lat="42.7171510" lon="1.9180450">
        <ele>1198.4</ele>
        <time>2020-07-22T11:51:22Z</time>
      </trkpt>
      <trkpt lat="42.7171200" lon="1.9178870">
        <ele>1197.4</ele>
        <time>2020-07-22T11:51:23Z</time>
      </trkpt>
      <trkpt lat="42.7170850" lon="1.9177340">
        <ele>1196.2</ele>
        <time>2020-07-22T11:51:24Z</time>
      </trkpt>
      <trkpt lat="42.7170450" lon="1.9175830">
        <ele>1194.8</ele>
        <time>2020-07-22T11:51:25Z</time>
      </trkpt>
      <trkpt lat="42.7170060" lon="1.9174350">
        <ele>1193.6</ele>
        <time>2020-07-22T11:51:26Z</time>
      </trkpt>
      <trkpt lat="42.7169710" lon="1.9172870">
        <ele>1192.4</ele>
        <time>2020-07-22T11:51:27Z</time>
      </trkpt>
      <trkpt lat="42.7169230" lon="1.9169870">
        <ele>1190.4</ele>
        <time>2020-07-22T11:51:29Z</time>
      </trkpt>
      <trkpt lat="42.7169220" lon="1.9168350">
        <ele>1189.0</ele>
        <time>2020-07-22T11:51:30Z</time>
      </trkpt>
      <trkpt lat="42.7169160" lon="1.9166850">
        <ele>1187.8</ele>
        <time>2020-07-22T11:51:31Z</time>
      </trkpt>
      <trkpt lat="42.7169220" lon="1.9165370">
        <ele>1186.4</ele>
        <time>2020-07-22T11:51:32Z</time>
      </trkpt>
      <trkpt lat="42.7169460" lon="1.9164000">
        <ele>1185.2</ele>
        <time>2020-07-22T11:51:33Z</time>
      </trkpt>
      <trkpt lat="42.7169900" lon="1.9162710">
        <ele>1184.2</ele>
        <time>2020-07-22T11:51:34Z</time>
      </trkpt>
      <trkpt lat="42.7170470" lon="1.9161490">
        <ele>1183.0</ele>
        <time>2020-07-22T11:51:35Z</time>
      </trkpt>
      <trkpt lat="42.7171260" lon="1.9160390">
        <ele>1182.0</ele>
        <time>2020-07-22T11:51:36Z</time>
      </trkpt>
      <trkpt lat="42.7172090" lon="1.9159260">
        <ele>1181.0</ele>
        <time>2020-07-22T11:51:37Z</time>
      </trkpt>
      <trkpt lat="42.7173130" lon="1.9158140">
        <ele>1179.6</ele>
        <time>2020-07-22T11:51:38Z</time>
      </trkpt>
      <trkpt lat="42.7173980" lon="1.9157120">
        <ele>1177.8</ele>
        <time>2020-07-22T11:51:39Z</time>
      </trkpt>
      <trkpt lat="42.7174770" lon="1.9156010">
        <ele>1176.4</ele>
        <time>2020-07-22T11:51:40Z</time>
      </trkpt>
      <trkpt lat="42.7175490" lon="1.9154650">
        <ele>1175.2</ele>
        <time>2020-07-22T11:51:41Z</time>
      </trkpt>
      <trkpt lat="42.7176110" lon="1.9153160">
        <ele>1174.2</ele>
        <time>2020-07-22T11:51:42Z</time>
      </trkpt>
      <trkpt lat="42.7176660" lon="1.9151630">
        <ele>1173.2</ele>
        <time>2020-07-22T11:51:43Z</time>
      </trkpt>
      <trkpt lat="42.7177100" lon="1.9150080">
        <ele>1171.8</ele>
        <time>2020-07-22T11:51:44Z</time>
      </trkpt>
      <trkpt lat="42.7177530" lon="1.9148600">
        <ele>1170.2</ele>
        <time>2020-07-22T11:51:45Z</time>
      </trkpt>
      <trkpt lat="42.7177860" lon="1.9147150">
        <ele>1169.0</ele>
        <time>2020-07-22T11:51:46Z</time>
      </trkpt>
      <trkpt lat="42.7178130" lon="1.9145760">
        <ele>1167.8</ele>
        <time>2020-07-22T11:51:47Z</time>
      </trkpt>
      <trkpt lat="42.7178240" lon="1.9144180">
        <ele>1166.6</ele>
        <time>2020-07-22T11:51:48Z</time>
      </trkpt>
      <trkpt lat="42.7178450" lon="1.9141300">
        <ele>1165.0</ele>
        <time>2020-07-22T11:51:50Z</time>
      </trkpt>
      <trkpt lat="42.7178700" lon="1.9140240">
        <ele>1163.8</ele>
        <time>2020-07-22T11:51:51Z</time>
      </trkpt>
      <trkpt lat="42.7178830" lon="1.9138940">
        <ele>1162.4</ele>
        <time>2020-07-22T11:51:52Z</time>
      </trkpt>
      <trkpt lat="42.7179040" lon="1.9137650">
        <ele>1161.0</ele>
        <time>2020-07-22T11:51:53Z</time>
      </trkpt>
      <trkpt lat="42.7179350" lon="1.9136400">
        <ele>1159.8</ele>
        <time>2020-07-22T11:51:54Z</time>
      </trkpt>
      <trkpt lat="42.7180390" lon="1.9133980">
        <ele>1157.6</ele>
        <time>2020-07-22T11:51:56Z</time>
      </trkpt>
      <trkpt lat="42.7181020" lon="1.9132710">
        <ele>1156.2</ele>
        <time>2020-07-22T11:51:57Z</time>
      </trkpt>
      <trkpt lat="42.7181680" lon="1.9131460">
        <ele>1154.8</ele>
        <time>2020-07-22T11:51:58Z</time>
      </trkpt>
      <trkpt lat="42.7182350" lon="1.9130180">
        <ele>1153.6</ele>
        <time>2020-07-22T11:51:59Z</time>
      </trkpt>
      <trkpt lat="42.7183630" lon="1.9127490">
        <ele>1152.0</ele>
        <time>2020-07-22T11:52:01Z</time>
      </trkpt>
      <trkpt lat="42.7184090" lon="1.9125830">
        <ele>1151.2</ele>
        <time>2020-07-22T11:52:02Z</time>
      </trkpt>
      <trkpt lat="42.7184500" lon="1.9124130">
        <ele>1150.4</ele>
        <time>2020-07-22T11:52:03Z</time>
      </trkpt>
      <trkpt lat="42.7185580" lon="1.9121040">
        <ele>1148.8</ele>
        <time>2020-07-22T11:52:05Z</time>
      </trkpt>
      <trkpt lat="42.7186710" lon="1.9118150">
        <ele>1147.2</ele>
        <time>2020-07-22T11:52:07Z</time>
      </trkpt>
      <trkpt lat="42.7187230" lon="1.9116750">
        <ele>1146.2</ele>
        <time>2020-07-22T11:52:08Z</time>
      </trkpt>
      <trkpt lat="42.7187620" lon="1.9115210">
        <ele>1145.0</ele>
        <time>2020-07-22T11:52:09Z</time>
      </trkpt>
      <trkpt lat="42.7187890" lon="1.9113570">
        <ele>1144.0</ele>
        <time>2020-07-22T11:52:10Z</time>
      </trkpt>
      <trkpt lat="42.7188090" lon="1.9111900">
        <ele>1143.2</ele>
        <time>2020-07-22T11:52:11Z</time>
      </trkpt>
      <trkpt lat="42.7188270" lon="1.9108310">
        <ele>1141.2</ele>
        <time>2020-07-22T11:52:13Z</time>
      </trkpt>
      <trkpt lat="42.7188450" lon="1.9104540">
        <ele>1139.2</ele>
        <time>2020-07-22T11:52:15Z</time>
      </trkpt>
      <trkpt lat="42.7188370" lon="1.9102600">
        <ele>1137.8</ele>
        <time>2020-07-22T11:52:16Z</time>
      </trkpt>
      <trkpt lat="42.7188200" lon="1.9100730">
        <ele>1136.2</ele>
        <time>2020-07-22T11:52:17Z</time>
      </trkpt>
      <trkpt lat="42.7187820" lon="1.9098770">
        <ele>1134.6</ele>
        <time>2020-07-22T11:52:18Z</time>
      </trkpt>
      <trkpt lat="42.7187440" lon="1.9096900">
        <ele>1133.2</ele>
        <time>2020-07-22T11:52:19Z</time>
      </trkpt>
      <trkpt lat="42.7186580" lon="1.9093560">
        <ele>1131.6</ele>
        <time>2020-07-22T11:52:21Z</time>
      </trkpt>
      <trkpt lat="42.7185730" lon="1.9090680">
        <ele>1130.0</ele>
        <time>2020-07-22T11:52:23Z</time>
      </trkpt>
      <trkpt lat="42.7185270" lon="1.9088090">
        <ele>1128.4</ele>
        <time>2020-07-22T11:52:25Z</time>
      </trkpt>
      <trkpt lat="42.7185460" lon="1.9085510">
        <ele>1127.2</ele>
        <time>2020-07-22T11:52:27Z</time>
      </trkpt>
      <trkpt lat="42.7186390" lon="1.9083030">
        <ele>1126.4</ele>
        <time>2020-07-22T11:52:29Z</time>
      </trkpt>
      <trkpt lat="42.7186940" lon="1.9081720">
        <ele>1125.8</ele>
        <time>2020-07-22T11:52:30Z</time>
      </trkpt>
      <trkpt lat="42.7187510" lon="1.9080400">
        <ele>1124.6</ele>
        <time>2020-07-22T11:52:31Z</time>
      </trkpt>
      <trkpt lat="42.7188050" lon="1.9079050">
        <ele>1123.0</ele>
        <time>2020-07-22T11:52:32Z</time>
      </trkpt>
      <trkpt lat="42.7189380" lon="1.9076490">
        <ele>1121.0</ele>
        <time>2020-07-22T11:52:34Z</time>
      </trkpt>
      <trkpt lat="42.7189990" lon="1.9075230">
        <ele>1120.2</ele>
        <time>2020-07-22T11:52:35Z</time>
      </trkpt>
      <trkpt lat="42.7190690" lon="1.9073970">
        <ele>1119.4</ele>
        <time>2020-07-22T11:52:36Z</time>
      </trkpt>
      <trkpt lat="42.7192920" lon="1.9070490">
        <ele>1118.0</ele>
        <time>2020-07-22T11:52:39Z</time>
      </trkpt>
      <trkpt lat="42.7193590" lon="1.9069520">
        <ele>1117.6</ele>
        <time>2020-07-22T11:52:40Z</time>
      </trkpt>
      <trkpt lat="42.7194440" lon="1.9068780">
        <ele>1117.4</ele>
        <time>2020-07-22T11:52:41Z</time>
      </trkpt>
      <trkpt lat="42.7196340" lon="1.9067980">
        <ele>1117.2</ele>
        <time>2020-07-22T11:52:43Z</time>
      </trkpt>
      <trkpt lat="42.7197290" lon="1.9067700">
        <ele>1116.8</ele>
        <time>2020-07-22T11:52:44Z</time>
      </trkpt>
      <trkpt lat="42.7199310" lon="1.9067340">
        <ele>1115.6</ele>
        <time>2020-07-22T11:52:46Z</time>
      </trkpt>
      <trkpt lat="42.7200310" lon="1.9067040">
        <ele>1114.4</ele>
        <time>2020-07-22T11:52:47Z</time>
      </trkpt>
      <trkpt lat="42.7201240" lon="1.9066640">
        <ele>1113.2</ele>
        <time>2020-07-22T11:52:48Z</time>
      </trkpt>
      <trkpt lat="42.7202100" lon="1.9066040">
        <ele>1111.8</ele>
        <time>2020-07-22T11:52:49Z</time>
      </trkpt>
      <trkpt lat="42.7202850" lon="1.9065240">
        <ele>1110.6</ele>
        <time>2020-07-22T11:52:50Z</time>
      </trkpt>
      <trkpt lat="42.7203560" lon="1.9064180">
        <ele>1109.6</ele>
        <time>2020-07-22T11:52:51Z</time>
      </trkpt>
      <trkpt lat="42.7204030" lon="1.9060980">
        <ele>1107.6</ele>
        <time>2020-07-22T11:52:53Z</time>
      </trkpt>
      <trkpt lat="42.7204150" lon="1.9059040">
        <ele>1106.4</ele>
        <time>2020-07-22T11:52:54Z</time>
      </trkpt>
      <trkpt lat="42.7204410" lon="1.9057260">
        <ele>1105.2</ele>
        <time>2020-07-22T11:52:55Z</time>
      </trkpt>
      <trkpt lat="42.7204820" lon="1.9055520">
        <ele>1104.2</ele>
        <time>2020-07-22T11:52:56Z</time>
      </trkpt>
      <trkpt lat="42.7205290" lon="1.9053880">
        <ele>1103.2</ele>
        <time>2020-07-22T11:52:57Z</time>
      </trkpt>
      <trkpt lat="42.7205890" lon="1.9052290">
        <ele>1102.4</ele>
        <time>2020-07-22T11:52:58Z</time>
      </trkpt>
      <trkpt lat="42.7206560" lon="1.9050770">
        <ele>1101.2</ele>
        <time>2020-07-22T11:52:59Z</time>
      </trkpt>
      <trkpt lat="42.7207380" lon="1.9049280">
        <ele>1099.8</ele>
        <time>2020-07-22T11:53:00Z</time>
      </trkpt>
      <trkpt lat="42.7208240" lon="1.9047880">
        <ele>1098.4</ele>
        <time>2020-07-22T11:53:01Z</time>
      </trkpt>
      <trkpt lat="42.7209100" lon="1.9046490">
        <ele>1097.2</ele>
        <time>2020-07-22T11:53:02Z</time>
      </trkpt>
      <trkpt lat="42.7210020" lon="1.9045140">
        <ele>1095.8</ele>
        <time>2020-07-22T11:53:03Z</time>
      </trkpt>
      <trkpt lat="42.7210910" lon="1.9043910">
        <ele>1094.6</ele>
        <time>2020-07-22T11:53:04Z</time>
      </trkpt>
      <trkpt lat="42.7212480" lon="1.9041620">
        <ele>1093.0</ele>
        <time>2020-07-22T11:53:06Z</time>
      </trkpt>
      <trkpt lat="42.7213170" lon="1.9040440">
        <ele>1092.4</ele>
        <time>2020-07-22T11:53:07Z</time>
      </trkpt>
      <trkpt lat="42.7214340" lon="1.9038040">
        <ele>1091.6</ele>
        <time>2020-07-22T11:53:09Z</time>
      </trkpt>
      <trkpt lat="42.7214850" lon="1.9035210">
        <ele>1090.8</ele>
        <time>2020-07-22T11:53:11Z</time>
      </trkpt>
      <trkpt lat="42.7214890" lon="1.9033720">
        <ele>1090.6</ele>
        <time>2020-07-22T11:53:12Z</time>
      </trkpt>
      <trkpt lat="42.7214800" lon="1.9030710">
        <ele>1089.4</ele>
        <time>2020-07-22T11:53:14Z</time>
      </trkpt>
      <trkpt lat="42.7214750" lon="1.9029130">
        <ele>1087.8</ele>
        <time>2020-07-22T11:53:15Z</time>
      </trkpt>
      <trkpt lat="42.7214730" lon="1.9027590">
        <ele>1086.4</ele>
        <time>2020-07-22T11:53:16Z</time>
      </trkpt>
      <trkpt lat="42.7214740" lon="1.9026000">
        <ele>1085.2</ele>
        <time>2020-07-22T11:53:17Z</time>
      </trkpt>
      <trkpt lat="42.7214980" lon="1.9024670">
        <ele>1084.6</ele>
        <time>2020-07-22T11:53:18Z</time>
      </trkpt>
      <trkpt lat="42.7215390" lon="1.9023470">
        <ele>1084.2</ele>
        <time>2020-07-22T11:53:19Z</time>
      </trkpt>
      <trkpt lat="42.7215910" lon="1.9022420">
        <ele>1084.2</ele>
        <time>2020-07-22T11:53:20Z</time>
      </trkpt>
      <trkpt lat="42.7217240" lon="1.9020770">
        <ele>1084.0</ele>
        <time>2020-07-22T11:53:22Z</time>
      </trkpt>
      <trkpt lat="42.7221510" lon="1.9016760">
        <ele>1084.0</ele>
        <time>2020-07-22T11:53:28Z</time>
      </trkpt>
      <trkpt lat="42.7222130" lon="1.9016000">
        <ele>1084.2</ele>
        <time>2020-07-22T11:53:29Z</time>
      </trkpt>
      <trkpt lat="42.7223270" lon="1.9014390">
        <ele>1084.6</ele>
        <time>2020-07-22T11:53:31Z</time>
      </trkpt>
      <trkpt lat="42.7223790" lon="1.9013470">
        <ele>1084.6</ele>
        <time>2020-07-22T11:53:32Z</time>
      </trkpt>
      <trkpt lat="42.7224220" lon="1.9012470">
        <ele>1084.6</ele>
        <time>2020-07-22T11:53:33Z</time>
      </trkpt>
      <trkpt lat="42.7225230" lon="1.9009330">
        <ele>1084.4</ele>
        <time>2020-07-22T11:53:36Z</time>
      </trkpt>
      <trkpt lat="42.7225220" lon="1.9007250">
        <ele>1084.4</ele>
        <time>2020-07-22T11:53:38Z</time>
      </trkpt>
      <trkpt lat="42.7225220" lon="1.9006200">
        <ele>1084.6</ele>
        <time>2020-07-22T11:53:39Z</time>
      </trkpt>
      <trkpt lat="42.7225640" lon="1.9003140">
        <ele>1085.2</ele>
        <time>2020-07-22T11:53:42Z</time>
      </trkpt>
      <trkpt lat="42.7226020" lon="1.9001020">
        <ele>1084.8</ele>
        <time>2020-07-22T11:53:44Z</time>
      </trkpt>
      <trkpt lat="42.7226200" lon="1.8999940">
        <ele>1084.0</ele>
        <time>2020-07-22T11:53:45Z</time>
      </trkpt>
      <trkpt lat="42.7226750" lon="1.8997970">
        <ele>1082.8</ele>
        <time>2020-07-22T11:53:47Z</time>
      </trkpt>
      <trkpt lat="42.7227640" lon="1.8996210">
        <ele>1082.0</ele>
        <time>2020-07-22T11:53:49Z</time>
      </trkpt>
      <trkpt lat="42.7228540" lon="1.8994320">
        <ele>1082.4</ele>
        <time>2020-07-22T11:53:51Z</time>
      </trkpt>
      <trkpt lat="42.7229560" lon="1.8991390">
        <ele>1082.0</ele>
        <time>2020-07-22T11:53:54Z</time>
      </trkpt>
      <trkpt lat="42.7230210" lon="1.8989450">
        <ele>1081.6</ele>
        <time>2020-07-22T11:53:56Z</time>
      </trkpt>
      <trkpt lat="42.7232190" lon="1.8983520">
        <ele>1080.4</ele>
        <time>2020-07-22T11:54:02Z</time>
      </trkpt>
      <trkpt lat="42.7232920" lon="1.8980430">
        <ele>1079.4</ele>
        <time>2020-07-22T11:54:05Z</time>
      </trkpt>
      <trkpt lat="42.7233270" lon="1.8979440">
        <ele>1079.2</ele>
        <time>2020-07-22T11:54:06Z</time>
      </trkpt>
      <trkpt lat="42.7234140" lon="1.8977560">
        <ele>1079.2</ele>
        <time>2020-07-22T11:54:08Z</time>
      </trkpt>
      <trkpt lat="42.7234970" lon="1.8975860">
        <ele>1079.4</ele>
        <time>2020-07-22T11:54:10Z</time>
      </trkpt>
      <trkpt lat="42.7236020" lon="1.8973270">
        <ele>1078.8</ele>
        <time>2020-07-22T11:54:13Z</time>
      </trkpt>
      <trkpt lat="42.7236300" lon="1.8972360">
        <ele>1078.0</ele>
        <time>2020-07-22T11:54:14Z</time>
      </trkpt>
      <trkpt lat="42.7236760" lon="1.8970550">
        <ele>1076.6</ele>
        <time>2020-07-22T11:54:16Z</time>
      </trkpt>
      <trkpt lat="42.7237210" lon="1.8968220">
        <ele>1076.2</ele>
        <time>2020-07-22T11:54:19Z</time>
      </trkpt>
      <trkpt lat="42.7237980" lon="1.8963680">
        <ele>1076.0</ele>
        <time>2020-07-22T11:54:25Z</time>
      </trkpt>
      <trkpt lat="42.7238010" lon="1.8962790">
        <ele>1075.6</ele>
        <time>2020-07-22T11:54:26Z</time>
      </trkpt>
      <trkpt lat="42.7237940" lon="1.8961840">
        <ele>1075.2</ele>
        <time>2020-07-22T11:54:27Z</time>
      </trkpt>
      <trkpt lat="42.7237620" lon="1.8959760">
        <ele>1074.2</ele>
        <time>2020-07-22T11:54:29Z</time>
      </trkpt>
      <trkpt lat="42.7237350" lon="1.8958680">
        <ele>1073.6</ele>
        <time>2020-07-22T11:54:30Z</time>
      </trkpt>
      <trkpt lat="42.7237060" lon="1.8957550">
        <ele>1073.0</ele>
        <time>2020-07-22T11:54:31Z</time>
      </trkpt>
      <trkpt lat="42.7236660" lon="1.8955130">
        <ele>1072.2</ele>
        <time>2020-07-22T11:54:33Z</time>
      </trkpt>
      <trkpt lat="42.7236580" lon="1.8953890">
        <ele>1071.6</ele>
        <time>2020-07-22T11:54:34Z</time>
      </trkpt>
      <trkpt lat="42.7236680" lon="1.8951310">
        <ele>1069.8</ele>
        <time>2020-07-22T11:54:36Z</time>
      </trkpt>
      <trkpt lat="42.7236990" lon="1.8948940">
        <ele>1068.6</ele>
        <time>2020-07-22T11:54:38Z</time>
      </trkpt>
      <trkpt lat="42.7237710" lon="1.8946110">
        <ele>1067.4</ele>
        <time>2020-07-22T11:54:41Z</time>
      </trkpt>
      <trkpt lat="42.7238070" lon="1.8945290">
        <ele>1067.2</ele>
        <time>2020-07-22T11:54:42Z</time>
      </trkpt>
      <trkpt lat="42.7239560" lon="1.8943170">
        <ele>1066.4</ele>
        <time>2020-07-22T11:54:45Z</time>
      </trkpt>
      <trkpt lat="42.7240060" lon="1.8942500">
        <ele>1066.0</ele>
        <time>2020-07-22T11:54:46Z</time>
      </trkpt>
      <trkpt lat="42.7240960" lon="1.8940940">
        <ele>1065.0</ele>
        <time>2020-07-22T11:54:48Z</time>
      </trkpt>
      <trkpt lat="42.7241500" lon="1.8939120">
        <ele>1064.8</ele>
        <time>2020-07-22T11:54:50Z</time>
      </trkpt>
      <trkpt lat="42.7242630" lon="1.8934530">
        <ele>1063.6</ele>
        <time>2020-07-22T11:54:55Z</time>
      </trkpt>
      <trkpt lat="42.7243400" lon="1.8932020">
        <ele>1062.4</ele>
        <time>2020-07-22T11:54:58Z</time>
      </trkpt>
      <trkpt lat="42.7244020" lon="1.8930630">
        <ele>1062.0</ele>
        <time>2020-07-22T11:55:00Z</time>
      </trkpt>
      <trkpt lat="42.7244370" lon="1.8930030">
        <ele>1062.2</ele>
        <time>2020-07-22T11:55:01Z</time>
      </trkpt>
      <trkpt lat="42.7244760" lon="1.8929490">
        <ele>1062.0</ele>
        <time>2020-07-22T11:55:02Z</time>
      </trkpt>
      <trkpt lat="42.7245160" lon="1.8929000">
        <ele>1062.0</ele>
        <time>2020-07-22T11:55:03Z</time>
      </trkpt>
      <trkpt lat="42.7245780" lon="1.8928060">
        <ele>1062.6</ele>
        <time>2020-07-22T11:55:05Z</time>
      </trkpt>
      <trkpt lat="42.7246080" lon="1.8927590">
        <ele>1063.0</ele>
        <time>2020-07-22T11:55:06Z</time>
      </trkpt>
      <trkpt lat="42.7246860" lon="1.8925980">
        <ele>1063.6</ele>
        <time>2020-07-22T11:55:09Z</time>
      </trkpt>
      <trkpt lat="42.7247380" lon="1.8924900">
        <ele>1063.8</ele>
        <time>2020-07-22T11:55:12Z</time>
      </trkpt>
      <trkpt lat="42.7246440" lon="1.8926540">
        <ele>1064.0</ele>
        <time>2020-07-22T11:55:13Z</time>
      </trkpt>
      <trkpt lat="42.7245470" lon="1.8928240">
        <ele>1063.2</ele>
        <time>2020-07-22T12:30:21Z</time>
      </trkpt>
      <trkpt lat="42.7244490" lon="1.8929930">
        <ele>1063.2</ele>
        <time>2020-07-22T12:30:22Z</time>
      </trkpt>
      <trkpt lat="42.7246170" lon="1.8927290">
        <ele>1064.0</ele>
        <time>2020-07-22T12:30:27Z</time>
      </trkpt>
      <trkpt lat="42.7247030" lon="1.8925270">
        <ele>1064.4</ele>
        <time>2020-07-22T12:30:30Z</time>
      </trkpt>
      <trkpt lat="42.7247260" lon="1.8924540">
        <ele>1064.6</ele>
        <time>2020-07-22T12:30:31Z</time>
      </trkpt>
      <trkpt lat="42.7247440" lon="1.8923790">
        <ele>1064.6</ele>
        <time>2020-07-22T12:30:32Z</time>
      </trkpt>
      <trkpt lat="42.7247590" lon="1.8923000">
        <ele>1064.6</ele>
        <time>2020-07-22T12:30:33Z</time>
      </trkpt>
      <trkpt lat="42.7247780" lon="1.8921460">
        <ele>1064.8</ele>
        <time>2020-07-22T12:30:35Z</time>
      </trkpt>
      <trkpt lat="42.7247770" lon="1.8920650">
        <ele>1064.8</ele>
        <time>2020-07-22T12:30:36Z</time>
      </trkpt>
      <trkpt lat="42.7247790" lon="1.8919150">
        <ele>1065.0</ele>
        <time>2020-07-22T12:30:38Z</time>
      </trkpt>
      <trkpt lat="42.7247690" lon="1.8916660">
        <ele>1065.2</ele>
        <time>2020-07-22T12:30:41Z</time>
      </trkpt>
      <trkpt lat="42.7247380" lon="1.8914670">
        <ele>1065.0</ele>
        <time>2020-07-22T12:30:43Z</time>
      </trkpt>
      <trkpt lat="42.7246630" lon="1.8911500">
        <ele>1064.4</ele>
        <time>2020-07-22T12:30:46Z</time>
      </trkpt>
      <trkpt lat="42.7246330" lon="1.8910490">
        <ele>1063.4</ele>
        <time>2020-07-22T12:30:47Z</time>
      </trkpt>
      <trkpt lat="42.7246030" lon="1.8909490">
        <ele>1062.2</ele>
        <time>2020-07-22T12:30:48Z</time>
      </trkpt>
      <trkpt lat="42.7245720" lon="1.8908460">
        <ele>1061.6</ele>
        <time>2020-07-22T12:30:49Z</time>
      </trkpt>
      <trkpt lat="42.7245430" lon="1.8907450">
        <ele>1061.2</ele>
        <time>2020-07-22T12:30:50Z</time>
      </trkpt>
      <trkpt lat="42.7244620" lon="1.8904460">
        <ele>1062.4</ele>
        <time>2020-07-22T12:30:53Z</time>
      </trkpt>
      <trkpt lat="42.7244290" lon="1.8902560">
        <ele>1063.2</ele>
        <time>2020-07-22T12:30:55Z</time>
      </trkpt>
      <trkpt lat="42.7244350" lon="1.8900780">
        <ele>1062.6</ele>
        <time>2020-07-22T12:30:57Z</time>
      </trkpt>
      <trkpt lat="42.7244740" lon="1.8899320">
        <ele>1060.8</ele>
        <time>2020-07-22T12:30:59Z</time>
      </trkpt>
      <trkpt lat="42.7245730" lon="1.8898410">
        <ele>1059.8</ele>
        <time>2020-07-22T12:31:01Z</time>
      </trkpt>
      <trkpt lat="42.7246330" lon="1.8898120">
        <ele>1059.8</ele>
        <time>2020-07-22T12:31:02Z</time>
      </trkpt>
      <trkpt lat="42.7247190" lon="1.8897910">
        <ele>1059.8</ele>
        <time>2020-07-22T12:31:03Z</time>
      </trkpt>
      <trkpt lat="42.7248810" lon="1.8897310">
        <ele>1059.8</ele>
        <time>2020-07-22T12:31:05Z</time>
      </trkpt>
      <trkpt lat="42.7252660" lon="1.8895560">
        <ele>1058.8</ele>
        <time>2020-07-22T12:31:09Z</time>
      </trkpt>
      <trkpt lat="42.7254040" lon="1.8894980">
        <ele>1057.2</ele>
        <time>2020-07-22T12:31:12Z</time>
      </trkpt>
      <trkpt lat="42.7254650" lon="1.8894580">
        <ele>1056.8</ele>
        <time>2020-07-22T12:31:13Z</time>
      </trkpt>
      <trkpt lat="42.7255550" lon="1.8893310">
        <ele>1056.6</ele>
        <time>2020-07-22T12:31:15Z</time>
      </trkpt>
      <trkpt lat="42.7255700" lon="1.8892600">
        <ele>1056.6</ele>
        <time>2020-07-22T12:31:16Z</time>
      </trkpt>
      <trkpt lat="42.7255300" lon="1.8891670">
        <ele>1056.8</ele>
        <time>2020-07-22T12:31:17Z</time>
      </trkpt>
      <trkpt lat="42.7254660" lon="1.8890370">
        <ele>1056.8</ele>
        <time>2020-07-22T12:31:18Z</time>
      </trkpt>
      <trkpt lat="42.7254410" lon="1.8889990">
        <ele>1057.0</ele>
        <time>2020-07-22T12:31:19Z</time>
      </trkpt>
      <trkpt lat="42.7253060" lon="1.8888000">
        <ele>1058.2</ele>
        <time>2020-07-22T12:31:22Z</time>
      </trkpt>
      <trkpt lat="42.7252710" lon="1.8887380">
        <ele>1058.6</ele>
        <time>2020-07-22T12:31:23Z</time>
      </trkpt>
      <trkpt lat="42.7252080" lon="1.8886270">
        <ele>1059.4</ele>
        <time>2020-07-22T12:31:25Z</time>
      </trkpt>
      <trkpt lat="42.7251210" lon="1.8884670">
        <ele>1060.6</ele>
        <time>2020-07-22T12:31:28Z</time>
      </trkpt>
      <trkpt lat="42.7250890" lon="1.8884190">
        <ele>1061.0</ele>
        <time>2020-07-22T12:31:29Z</time>
      </trkpt>
      <trkpt lat="42.7250200" lon="1.8883270">
        <ele>1062.0</ele>
        <time>2020-07-22T12:31:31Z</time>
      </trkpt>
      <trkpt lat="42.7249090" lon="1.8881690">
        <ele>1062.2</ele>
        <time>2020-07-22T12:31:34Z</time>
      </trkpt>
      <trkpt lat="42.7248410" lon="1.8880470">
        <ele>1062.2</ele>
        <time>2020-07-22T12:31:36Z</time>
      </trkpt>
      <trkpt lat="42.7246950" lon="1.8876160">
        <ele>1061.6</ele>
        <time>2020-07-22T12:31:42Z</time>
      </trkpt>
      <trkpt lat="42.7246220" lon="1.8872800">
        <ele>1061.4</ele>
        <time>2020-07-22T12:31:46Z</time>
      </trkpt>
      <trkpt lat="42.7245630" lon="1.8870330">
        <ele>1061.6</ele>
        <time>2020-07-22T12:31:49Z</time>
      </trkpt>
      <trkpt lat="42.7244650" lon="1.8866120">
        <ele>1061.6</ele>
        <time>2020-07-22T12:31:54Z</time>
      </trkpt>
      <trkpt lat="42.7244420" lon="1.8865190">
        <ele>1061.2</ele>
        <time>2020-07-22T12:31:55Z</time>
      </trkpt>
      <trkpt lat="42.7243920" lon="1.8863270">
        <ele>1060.8</ele>
        <time>2020-07-22T12:31:57Z</time>
      </trkpt>
      <trkpt lat="42.7242950" lon="1.8860310">
        <ele>1059.6</ele>
        <time>2020-07-22T12:32:00Z</time>
      </trkpt>
      <trkpt lat="42.7242540" lon="1.8859330">
        <ele>1059.2</ele>
        <time>2020-07-22T12:32:01Z</time>
      </trkpt>
      <trkpt lat="42.7242100" lon="1.8858360">
        <ele>1059.0</ele>
        <time>2020-07-22T12:32:02Z</time>
      </trkpt>
      <trkpt lat="42.7240100" lon="1.8854380">
        <ele>1058.8</ele>
        <time>2020-07-22T12:32:06Z</time>
      </trkpt>
      <trkpt lat="42.7239020" lon="1.8852340">
        <ele>1058.4</ele>
        <time>2020-07-22T12:32:08Z</time>
      </trkpt>
      <trkpt lat="42.7237170" lon="1.8849460">
        <ele>1057.4</ele>
        <time>2020-07-22T12:32:11Z</time>
      </trkpt>
      <trkpt lat="42.7236450" lon="1.8848750">
        <ele>1057.2</ele>
        <time>2020-07-22T12:32:12Z</time>
      </trkpt>
      <trkpt lat="42.7235630" lon="1.8848250">
        <ele>1057.0</ele>
        <time>2020-07-22T12:32:13Z</time>
      </trkpt>
      <trkpt lat="42.7233800" lon="1.8847500">
        <ele>1056.6</ele>
        <time>2020-07-22T12:32:15Z</time>
      </trkpt>
      <trkpt lat="42.7232880" lon="1.8847000">
        <ele>1056.4</ele>
        <time>2020-07-22T12:32:16Z</time>
      </trkpt>
      <trkpt lat="42.7231980" lon="1.8846380">
        <ele>1056.2</ele>
        <time>2020-07-22T12:32:17Z</time>
      </trkpt>
      <trkpt lat="42.7230230" lon="1.8844910">
        <ele>1055.6</ele>
        <time>2020-07-22T12:32:19Z</time>
      </trkpt>
      <trkpt lat="42.7229460" lon="1.8844140">
        <ele>1055.2</ele>
        <time>2020-07-22T12:32:20Z</time>
      </trkpt>
      <trkpt lat="42.7228820" lon="1.8843340">
        <ele>1054.4</ele>
        <time>2020-07-22T12:32:21Z</time>
      </trkpt>
      <trkpt lat="42.7228320" lon="1.8842520">
        <ele>1053.8</ele>
        <time>2020-07-22T12:32:22Z</time>
      </trkpt>
      <trkpt lat="42.7228120" lon="1.8841520">
        <ele>1053.2</ele>
        <time>2020-07-22T12:32:23Z</time>
      </trkpt>
      <trkpt lat="42.7228150" lon="1.8840490">
        <ele>1052.6</ele>
        <time>2020-07-22T12:32:24Z</time>
      </trkpt>
      <trkpt lat="42.7228420" lon="1.8839500">
        <ele>1052.2</ele>
        <time>2020-07-22T12:32:25Z</time>
      </trkpt>
      <trkpt lat="42.7229220" lon="1.8837670">
        <ele>1051.8</ele>
        <time>2020-07-22T12:32:27Z</time>
      </trkpt>
      <trkpt lat="42.7229570" lon="1.8836710">
        <ele>1051.4</ele>
        <time>2020-07-22T12:32:28Z</time>
      </trkpt>
      <trkpt lat="42.7229820" lon="1.8835680">
        <ele>1050.8</ele>
        <time>2020-07-22T12:32:29Z</time>
      </trkpt>
      <trkpt lat="42.7229600" lon="1.8834460">
        <ele>1050.2</ele>
        <time>2020-07-22T12:32:30Z</time>
      </trkpt>
      <trkpt lat="42.7229330" lon="1.8833340">
        <ele>1049.8</ele>
        <time>2020-07-22T12:32:31Z</time>
      </trkpt>
      <trkpt lat="42.7228860" lon="1.8832200">
        <ele>1049.2</ele>
        <time>2020-07-22T12:32:32Z</time>
      </trkpt>
      <trkpt lat="42.7228250" lon="1.8831140">
        <ele>1048.6</ele>
        <time>2020-07-22T12:32:33Z</time>
      </trkpt>
      <trkpt lat="42.7226730" lon="1.8829440">
        <ele>1047.8</ele>
        <time>2020-07-22T12:32:35Z</time>
      </trkpt>
      <trkpt lat="42.7225020" lon="1.8828150">
        <ele>1047.2</ele>
        <time>2020-07-22T12:32:36Z</time>
      </trkpt>
      <trkpt lat="42.7224100" lon="1.8827560">
        <ele>1046.8</ele>
        <time>2020-07-22T12:32:38Z</time>
      </trkpt>
      <trkpt lat="42.7222210" lon="1.8826420">
        <ele>1045.8</ele>
        <time>2020-07-22T12:32:40Z</time>
      </trkpt>
      <trkpt lat="42.7221330" lon="1.8825760">
        <ele>1045.0</ele>
        <time>2020-07-22T12:32:41Z</time>
      </trkpt>
      <trkpt lat="42.7220550" lon="1.8824960">
        <ele>1044.4</ele>
        <time>2020-07-22T12:32:42Z</time>
      </trkpt>
      <trkpt lat="42.7219930" lon="1.8823950">
        <ele>1043.6</ele>
        <time>2020-07-22T12:32:43Z</time>
      </trkpt>
      <trkpt lat="42.7219370" lon="1.8822840">
        <ele>1043.0</ele>
        <time>2020-07-22T12:32:44Z</time>
      </trkpt>
      <trkpt lat="42.7218830" lon="1.8821730">
        <ele>1042.4</ele>
        <time>2020-07-22T12:32:45Z</time>
      </trkpt>
      <trkpt lat="42.7218380" lon="1.8820490">
        <ele>1041.8</ele>
        <time>2020-07-22T12:32:46Z</time>
      </trkpt>
      <trkpt lat="42.7217580" lon="1.8817900">
        <ele>1040.6</ele>
        <time>2020-07-22T12:32:48Z</time>
      </trkpt>
      <trkpt lat="42.7217120" lon="1.8816620">
        <ele>1040.2</ele>
        <time>2020-07-22T12:32:49Z</time>
      </trkpt>
      <trkpt lat="42.7215950" lon="1.8814210">
        <ele>1039.0</ele>
        <time>2020-07-22T12:32:51Z</time>
      </trkpt>
      <trkpt lat="42.7215230" lon="1.8813140">
        <ele>1038.2</ele>
        <time>2020-07-22T12:32:52Z</time>
      </trkpt>
      <trkpt lat="42.7214460" lon="1.8812180">
        <ele>1037.4</ele>
        <time>2020-07-22T12:32:53Z</time>
      </trkpt>
      <trkpt lat="42.7213680" lon="1.8811390">
        <ele>1037.0</ele>
        <time>2020-07-22T12:32:54Z</time>
      </trkpt>
      <trkpt lat="42.7212340" lon="1.8810070">
        <ele>1036.2</ele>
        <time>2020-07-22T12:32:56Z</time>
      </trkpt>
      <trkpt lat="42.7211640" lon="1.8808350">
        <ele>1035.6</ele>
        <time>2020-07-22T12:32:58Z</time>
      </trkpt>
      <trkpt lat="42.7211710" lon="1.8807360">
        <ele>1035.2</ele>
        <time>2020-07-22T12:32:59Z</time>
      </trkpt>
      <trkpt lat="42.7211920" lon="1.8806340">
        <ele>1034.8</ele>
        <time>2020-07-22T12:33:00Z</time>
      </trkpt>
      <trkpt lat="42.7212420" lon="1.8804200">
        <ele>1033.8</ele>
        <time>2020-07-22T12:33:02Z</time>
      </trkpt>
      <trkpt lat="42.7212540" lon="1.8803120">
        <ele>1033.2</ele>
        <time>2020-07-22T12:33:03Z</time>
      </trkpt>
      <trkpt lat="42.7212050" lon="1.8800920">
        <ele>1032.0</ele>
        <time>2020-07-22T12:33:05Z</time>
      </trkpt>
      <trkpt lat="42.7210880" lon="1.8798970">
        <ele>1031.2</ele>
        <time>2020-07-22T12:33:07Z</time>
      </trkpt>
      <trkpt lat="42.7210170" lon="1.8798000">
        <ele>1030.8</ele>
        <time>2020-07-22T12:33:08Z</time>
      </trkpt>
      <trkpt lat="42.7208630" lon="1.8796110">
        <ele>1030.2</ele>
        <time>2020-07-22T12:33:10Z</time>
      </trkpt>
      <trkpt lat="42.7207830" lon="1.8795150">
        <ele>1029.6</ele>
        <time>2020-07-22T12:33:11Z</time>
      </trkpt>
      <trkpt lat="42.7206270" lon="1.8793150">
        <ele>1028.6</ele>
        <time>2020-07-22T12:33:13Z</time>
      </trkpt>
      <trkpt lat="42.7204710" lon="1.8791150">
        <ele>1027.4</ele>
        <time>2020-07-22T12:33:15Z</time>
      </trkpt>
      <trkpt lat="42.7202080" lon="1.8788470">
        <ele>1026.0</ele>
        <time>2020-07-22T12:33:18Z</time>
      </trkpt>
      <trkpt lat="42.7201080" lon="1.8787830">
        <ele>1025.2</ele>
        <time>2020-07-22T12:33:19Z</time>
      </trkpt>
      <trkpt lat="42.7200070" lon="1.8787330">
        <ele>1024.6</ele>
        <time>2020-07-22T12:33:20Z</time>
      </trkpt>
      <trkpt lat="42.7199190" lon="1.8786770">
        <ele>1024.2</ele>
        <time>2020-07-22T12:33:21Z</time>
      </trkpt>
      <trkpt lat="42.7198430" lon="1.8786170">
        <ele>1023.8</ele>
        <time>2020-07-22T12:33:22Z</time>
      </trkpt>
      <trkpt lat="42.7197830" lon="1.8785400">
        <ele>1023.4</ele>
        <time>2020-07-22T12:33:23Z</time>
      </trkpt>
      <trkpt lat="42.7197170" lon="1.8783320">
        <ele>1022.8</ele>
        <time>2020-07-22T12:33:25Z</time>
      </trkpt>
      <trkpt lat="42.7196920" lon="1.8780900">
        <ele>1022.2</ele>
        <time>2020-07-22T12:33:27Z</time>
      </trkpt>
      <trkpt lat="42.7196490" lon="1.8778290">
        <ele>1020.8</ele>
        <time>2020-07-22T12:33:29Z</time>
      </trkpt>
      <trkpt lat="42.7195950" lon="1.8775510">
        <ele>1019.4</ele>
        <time>2020-07-22T12:33:31Z</time>
      </trkpt>
      <trkpt lat="42.7195340" lon="1.8772640">
        <ele>1018.0</ele>
        <time>2020-07-22T12:33:33Z</time>
      </trkpt>
      <trkpt lat="42.7195110" lon="1.8771130">
        <ele>1017.4</ele>
        <time>2020-07-22T12:33:34Z</time>
      </trkpt>
      <trkpt lat="42.7194970" lon="1.8769560">
        <ele>1016.6</ele>
        <time>2020-07-22T12:33:35Z</time>
      </trkpt>
      <trkpt lat="42.7194750" lon="1.8766350">
        <ele>1014.4</ele>
        <time>2020-07-22T12:33:37Z</time>
      </trkpt>
      <trkpt lat="42.7194620" lon="1.8763110">
        <ele>1013.2</ele>
        <time>2020-07-22T12:33:39Z</time>
      </trkpt>
      <trkpt lat="42.7194310" lon="1.8760030">
        <ele>1011.8</ele>
        <time>2020-07-22T12:33:41Z</time>
      </trkpt>
      <trkpt lat="42.7194070" lon="1.8757270">
        <ele>1010.8</ele>
        <time>2020-07-22T12:33:43Z</time>
      </trkpt>
      <trkpt lat="42.7194120" lon="1.8755870">
        <ele>1010.4</ele>
        <time>2020-07-22T12:33:44Z</time>
      </trkpt>
      <trkpt lat="42.7194300" lon="1.8754480">
        <ele>1010.0</ele>
        <time>2020-07-22T12:33:45Z</time>
      </trkpt>
      <trkpt lat="42.7194490" lon="1.8753040">
        <ele>1009.2</ele>
        <time>2020-07-22T12:33:46Z</time>
      </trkpt>
      <trkpt lat="42.7195060" lon="1.8748730">
        <ele>1008.2</ele>
        <time>2020-07-22T12:33:49Z</time>
      </trkpt>
      <trkpt lat="42.7195380" lon="1.8745800">
        <ele>1006.6</ele>
        <time>2020-07-22T12:33:51Z</time>
      </trkpt>
      <trkpt lat="42.7195720" lon="1.8744400">
        <ele>1005.6</ele>
        <time>2020-07-22T12:33:52Z</time>
      </trkpt>
      <trkpt lat="42.7196160" lon="1.8743040">
        <ele>1005.0</ele>
        <time>2020-07-22T12:33:53Z</time>
      </trkpt>
      <trkpt lat="42.7196610" lon="1.8741730">
        <ele>1004.4</ele>
        <time>2020-07-22T12:33:54Z</time>
      </trkpt>
      <trkpt lat="42.7197020" lon="1.8740510">
        <ele>1003.8</ele>
        <time>2020-07-22T12:33:55Z</time>
      </trkpt>
      <trkpt lat="42.7197300" lon="1.8739340">
        <ele>1003.2</ele>
        <time>2020-07-22T12:33:56Z</time>
      </trkpt>
      <trkpt lat="42.7197330" lon="1.8738190">
        <ele>1002.6</ele>
        <time>2020-07-22T12:33:57Z</time>
      </trkpt>
      <trkpt lat="42.7197240" lon="1.8737140">
        <ele>1002.2</ele>
        <time>2020-07-22T12:33:58Z</time>
      </trkpt>
      <trkpt lat="42.7196650" lon="1.8735000">
        <ele>1001.8</ele>
        <time>2020-07-22T12:34:00Z</time>
      </trkpt>
      <trkpt lat="42.7196420" lon="1.8733840">
        <ele>1001.6</ele>
        <time>2020-07-22T12:34:01Z</time>
      </trkpt>
      <trkpt lat="42.7196230" lon="1.8731340">
        <ele>1000.6</ele>
        <time>2020-07-22T12:34:03Z</time>
      </trkpt>
      <trkpt lat="42.7196220" lon="1.8730090">
        <ele>1000.2</ele>
        <time>2020-07-22T12:34:04Z</time>
      </trkpt>
      <trkpt lat="42.7196130" lon="1.8726360">
        <ele>999.0</ele>
        <time>2020-07-22T12:34:07Z</time>
      </trkpt>
      <trkpt lat="42.7196010" lon="1.8723910">
        <ele>998.2</ele>
        <time>2020-07-22T12:34:09Z</time>
      </trkpt>
      <trkpt lat="42.7195980" lon="1.8722650">
        <ele>997.6</ele>
        <time>2020-07-22T12:34:10Z</time>
      </trkpt>
      <trkpt lat="42.7196020" lon="1.8720130">
        <ele>996.6</ele>
        <time>2020-07-22T12:34:12Z</time>
      </trkpt>
      <trkpt lat="42.7196230" lon="1.8717610">
        <ele>995.8</ele>
        <time>2020-07-22T12:34:14Z</time>
      </trkpt>
      <trkpt lat="42.7196310" lon="1.8716310">
        <ele>995.4</ele>
        <time>2020-07-22T12:34:15Z</time>
      </trkpt>
      <trkpt lat="42.7196360" lon="1.8715000">
        <ele>995.2</ele>
        <time>2020-07-22T12:34:16Z</time>
      </trkpt>
      <trkpt lat="42.7196310" lon="1.8713640">
        <ele>995.0</ele>
        <time>2020-07-22T12:34:17Z</time>
      </trkpt>
      <trkpt lat="42.7195990" lon="1.8710910">
        <ele>994.4</ele>
        <time>2020-07-22T12:34:19Z</time>
      </trkpt>
      <trkpt lat="42.7195840" lon="1.8709520">
        <ele>993.6</ele>
        <time>2020-07-22T12:34:20Z</time>
      </trkpt>
      <trkpt lat="42.7195790" lon="1.8708090">
        <ele>993.0</ele>
        <time>2020-07-22T12:34:21Z</time>
      </trkpt>
      <trkpt lat="42.7195770" lon="1.8705200">
        <ele>991.6</ele>
        <time>2020-07-22T12:34:23Z</time>
      </trkpt>
      <trkpt lat="42.7195590" lon="1.8702330">
        <ele>990.4</ele>
        <time>2020-07-22T12:34:25Z</time>
      </trkpt>
      <trkpt lat="42.7195310" lon="1.8699570">
        <ele>989.0</ele>
        <time>2020-07-22T12:34:27Z</time>
      </trkpt>
      <trkpt lat="42.7195320" lon="1.8698250">
        <ele>988.0</ele>
        <time>2020-07-22T12:34:28Z</time>
      </trkpt>
      <trkpt lat="42.7195770" lon="1.8695780">
        <ele>986.6</ele>
        <time>2020-07-22T12:34:30Z</time>
      </trkpt>
      <trkpt lat="42.7197820" lon="1.8691450">
        <ele>985.6</ele>
        <time>2020-07-22T12:34:34Z</time>
      </trkpt>
      <trkpt lat="42.7198400" lon="1.8690370">
        <ele>985.6</ele>
        <time>2020-07-22T12:34:35Z</time>
      </trkpt>
      <trkpt lat="42.7199330" lon="1.8688030">
        <ele>985.0</ele>
        <time>2020-07-22T12:34:37Z</time>
      </trkpt>
      <trkpt lat="42.7199560" lon="1.8686710">
        <ele>984.2</ele>
        <time>2020-07-22T12:34:38Z</time>
      </trkpt>
      <trkpt lat="42.7200250" lon="1.8682740">
        <ele>983.2</ele>
        <time>2020-07-22T12:34:41Z</time>
      </trkpt>
      <trkpt lat="42.7201050" lon="1.8678840">
        <ele>982.4</ele>
        <time>2020-07-22T12:34:44Z</time>
      </trkpt>
      <trkpt lat="42.7201490" lon="1.8677680">
        <ele>982.2</ele>
        <time>2020-07-22T12:34:45Z</time>
      </trkpt>
      <trkpt lat="42.7201990" lon="1.8676580">
        <ele>982.0</ele>
        <time>2020-07-22T12:34:46Z</time>
      </trkpt>
      <trkpt lat="42.7203320" lon="1.8673080">
        <ele>981.6</ele>
        <time>2020-07-22T12:34:49Z</time>
      </trkpt>
      <trkpt lat="42.7203570" lon="1.8671820">
        <ele>981.0</ele>
        <time>2020-07-22T12:34:50Z</time>
      </trkpt>
      <trkpt lat="42.7203710" lon="1.8670530">
        <ele>980.4</ele>
        <time>2020-07-22T12:34:51Z</time>
      </trkpt>
      <trkpt lat="42.7203850" lon="1.8667950">
        <ele>979.8</ele>
        <time>2020-07-22T12:34:53Z</time>
      </trkpt>
      <trkpt lat="42.7203700" lon="1.8665330">
        <ele>979.0</ele>
        <time>2020-07-22T12:34:55Z</time>
      </trkpt>
      <trkpt lat="42.7203470" lon="1.8664030">
        <ele>978.6</ele>
        <time>2020-07-22T12:34:56Z</time>
      </trkpt>
      <trkpt lat="42.7203120" lon="1.8662800">
        <ele>978.2</ele>
        <time>2020-07-22T12:34:57Z</time>
      </trkpt>
      <trkpt lat="42.7202840" lon="1.8661570">
        <ele>977.8</ele>
        <time>2020-07-22T12:34:58Z</time>
      </trkpt>
      <trkpt lat="42.7202640" lon="1.8660300">
        <ele>977.2</ele>
        <time>2020-07-22T12:34:59Z</time>
      </trkpt>
      <trkpt lat="42.7202560" lon="1.8657620">
        <ele>975.8</ele>
        <time>2020-07-22T12:35:01Z</time>
      </trkpt>
      <trkpt lat="42.7202610" lon="1.8654940">
        <ele>974.8</ele>
        <time>2020-07-22T12:35:03Z</time>
      </trkpt>
      <trkpt lat="42.7202530" lon="1.8653710">
        <ele>974.6</ele>
        <time>2020-07-22T12:35:04Z</time>
      </trkpt>
      <trkpt lat="42.7202380" lon="1.8652570">
        <ele>974.2</ele>
        <time>2020-07-22T12:35:05Z</time>
      </trkpt>
      <trkpt lat="42.7202240" lon="1.8651440">
        <ele>974.0</ele>
        <time>2020-07-22T12:35:06Z</time>
      </trkpt>
      <trkpt lat="42.7202180" lon="1.8647470">
        <ele>973.6</ele>
        <time>2020-07-22T12:35:09Z</time>
      </trkpt>
      <trkpt lat="42.7202180" lon="1.8647470">
        <ele>973.6</ele>
        <time>2020-07-22T12:35:10Z</time>
      </trkpt>
      <trkpt lat="42.7202580" lon="1.8645300">
        <ele>972.6</ele>
        <time>2020-07-22T12:35:13Z</time>
      </trkpt>
      <trkpt lat="42.7202730" lon="1.8644720">
        <ele>972.4</ele>
        <time>2020-07-22T12:35:14Z</time>
      </trkpt>
      <trkpt lat="42.7203590" lon="1.8641630">
        <ele>971.2</ele>
        <time>2020-07-22T12:35:19Z</time>
      </trkpt>
      <trkpt lat="42.7203990" lon="1.8640030">
        <ele>970.6</ele>
        <time>2020-07-22T12:35:21Z</time>
      </trkpt>
      <trkpt lat="42.7204470" lon="1.8638180">
        <ele>970.0</ele>
        <time>2020-07-22T12:35:23Z</time>
      </trkpt>
      <trkpt lat="42.7205210" lon="1.8635090">
        <ele>968.4</ele>
        <time>2020-07-22T12:35:26Z</time>
      </trkpt>
      <trkpt lat="42.7205950" lon="1.8631720">
        <ele>967.4</ele>
        <time>2020-07-22T12:35:29Z</time>
      </trkpt>
      <trkpt lat="42.7206030" lon="1.8630520">
        <ele>967.0</ele>
        <time>2020-07-22T12:35:30Z</time>
      </trkpt>
      <trkpt lat="42.7205970" lon="1.8629290">
        <ele>966.6</ele>
        <time>2020-07-22T12:35:31Z</time>
      </trkpt>
      <trkpt lat="42.7205760" lon="1.8628010">
        <ele>966.2</ele>
        <time>2020-07-22T12:35:32Z</time>
      </trkpt>
      <trkpt lat="42.7205080" lon="1.8625340">
        <ele>965.0</ele>
        <time>2020-07-22T12:35:34Z</time>
      </trkpt>
      <trkpt lat="42.7204790" lon="1.8624000">
        <ele>964.2</ele>
        <time>2020-07-22T12:35:35Z</time>
      </trkpt>
      <trkpt lat="42.7204520" lon="1.8622710">
        <ele>963.4</ele>
        <time>2020-07-22T12:35:36Z</time>
      </trkpt>
      <trkpt lat="42.7203420" lon="1.8617550">
        <ele>962.0</ele>
        <time>2020-07-22T12:35:40Z</time>
      </trkpt>
      <trkpt lat="42.7203250" lon="1.8616340">
        <ele>961.6</ele>
        <time>2020-07-22T12:35:41Z</time>
      </trkpt>
      <trkpt lat="42.7203240" lon="1.8613740">
        <ele>960.6</ele>
        <time>2020-07-22T12:35:43Z</time>
      </trkpt>
      <trkpt lat="42.7203370" lon="1.8612390">
        <ele>959.8</ele>
        <time>2020-07-22T12:35:44Z</time>
      </trkpt>
      <trkpt lat="42.7203610" lon="1.8611050">
        <ele>959.0</ele>
        <time>2020-07-22T12:35:45Z</time>
      </trkpt>
      <trkpt lat="42.7204430" lon="1.8608450">
        <ele>957.4</ele>
        <time>2020-07-22T12:35:47Z</time>
      </trkpt>
      <trkpt lat="42.7205400" lon="1.8605670">
        <ele>955.8</ele>
        <time>2020-07-22T12:35:49Z</time>
      </trkpt>
      <trkpt lat="42.7205740" lon="1.8604180">
        <ele>954.8</ele>
        <time>2020-07-22T12:35:50Z</time>
      </trkpt>
      <trkpt lat="42.7206160" lon="1.8602710">
        <ele>953.6</ele>
        <time>2020-07-22T12:35:51Z</time>
      </trkpt>
      <trkpt lat="42.7206750" lon="1.8601330">
        <ele>952.6</ele>
        <time>2020-07-22T12:35:52Z</time>
      </trkpt>
      <trkpt lat="42.7208250" lon="1.8598780">
        <ele>950.6</ele>
        <time>2020-07-22T12:35:54Z</time>
      </trkpt>
      <trkpt lat="42.7209620" lon="1.8596060">
        <ele>949.0</ele>
        <time>2020-07-22T12:35:56Z</time>
      </trkpt>
      <trkpt lat="42.7210860" lon="1.8593420">
        <ele>946.8</ele>
        <time>2020-07-22T12:35:58Z</time>
      </trkpt>
      <trkpt lat="42.7211550" lon="1.8592230">
        <ele>946.0</ele>
        <time>2020-07-22T12:35:59Z</time>
      </trkpt>
      <trkpt lat="42.7212330" lon="1.8591190">
        <ele>945.4</ele>
        <time>2020-07-22T12:36:00Z</time>
      </trkpt>
      <trkpt lat="42.7213250" lon="1.8590340">
        <ele>944.8</ele>
        <time>2020-07-22T12:36:01Z</time>
      </trkpt>
      <trkpt lat="42.7214400" lon="1.8589690">
        <ele>944.0</ele>
        <time>2020-07-22T12:36:02Z</time>
      </trkpt>
      <trkpt lat="42.7216580" lon="1.8588290">
        <ele>943.0</ele>
        <time>2020-07-22T12:36:04Z</time>
      </trkpt>
      <trkpt lat="42.7218790" lon="1.8586770">
        <ele>941.6</ele>
        <time>2020-07-22T12:36:06Z</time>
      </trkpt>
      <trkpt lat="42.7221000" lon="1.8585140">
        <ele>939.8</ele>
        <time>2020-07-22T12:36:08Z</time>
      </trkpt>
      <trkpt lat="42.7222920" lon="1.8583480">
        <ele>938.6</ele>
        <time>2020-07-22T12:36:10Z</time>
      </trkpt>
      <trkpt lat="42.7224970" lon="1.8581370">
        <ele>937.6</ele>
        <time>2020-07-22T12:36:13Z</time>
      </trkpt>
      <trkpt lat="42.7226110" lon="1.8579820">
        <ele>937.2</ele>
        <time>2020-07-22T12:36:16Z</time>
      </trkpt>
      <trkpt lat="42.7226660" lon="1.8578160">
        <ele>937.0</ele>
        <time>2020-07-22T12:36:20Z</time>
      </trkpt>
      <trkpt lat="42.7226310" lon="1.8577100">
        <ele>936.6</ele>
        <time>2020-07-22T12:36:22Z</time>
      </trkpt>
      <trkpt lat="42.7225990" lon="1.8576460">
        <ele>936.4</ele>
        <time>2020-07-22T12:36:23Z</time>
      </trkpt>
      <trkpt lat="42.7225740" lon="1.8575730">
        <ele>936.2</ele>
        <time>2020-07-22T12:36:24Z</time>
      </trkpt>
      <trkpt lat="42.7225680" lon="1.8573840">
        <ele>935.4</ele>
        <time>2020-07-22T12:36:26Z</time>
      </trkpt>
      <trkpt lat="42.7226380" lon="1.8571930">
        <ele>933.6</ele>
        <time>2020-07-22T12:36:28Z</time>
      </trkpt>
      <trkpt lat="42.7226920" lon="1.8571040">
        <ele>932.6</ele>
        <time>2020-07-22T12:36:29Z</time>
      </trkpt>
      <trkpt lat="42.7227500" lon="1.8570140">
        <ele>931.8</ele>
        <time>2020-07-22T12:36:30Z</time>
      </trkpt>
      <trkpt lat="42.7228770" lon="1.8568280">
        <ele>930.4</ele>
        <time>2020-07-22T12:36:31Z</time>
      </trkpt>
      <trkpt lat="42.7229310" lon="1.8567180">
        <ele>929.8</ele>
        <time>2020-07-22T12:36:33Z</time>
      </trkpt>
      <trkpt lat="42.7229660" lon="1.8565910">
        <ele>929.2</ele>
        <time>2020-07-22T12:36:34Z</time>
      </trkpt>
      <trkpt lat="42.7229780" lon="1.8564380">
        <ele>928.6</ele>
        <time>2020-07-22T12:36:35Z</time>
      </trkpt>
      <trkpt lat="42.7229780" lon="1.8562820">
        <ele>927.8</ele>
        <time>2020-07-22T12:36:36Z</time>
      </trkpt>
      <trkpt lat="42.7229780" lon="1.8561300">
        <ele>927.0</ele>
        <time>2020-07-22T12:36:37Z</time>
      </trkpt>
      <trkpt lat="42.7229790" lon="1.8559810">
        <ele>926.0</ele>
        <time>2020-07-22T12:36:38Z</time>
      </trkpt>
      <trkpt lat="42.7229870" lon="1.8558420">
        <ele>924.8</ele>
        <time>2020-07-22T12:36:39Z</time>
      </trkpt>
      <trkpt lat="42.7230020" lon="1.8557120">
        <ele>923.8</ele>
        <time>2020-07-22T12:36:40Z</time>
      </trkpt>
      <trkpt lat="42.7230240" lon="1.8555910">
        <ele>922.6</ele>
        <time>2020-07-22T12:36:41Z</time>
      </trkpt>
      <trkpt lat="42.7230370" lon="1.8554760">
        <ele>921.8</ele>
        <time>2020-07-22T12:36:42Z</time>
      </trkpt>
      <trkpt lat="42.7230310" lon="1.8553650">
        <ele>920.8</ele>
        <time>2020-07-22T12:36:43Z</time>
      </trkpt>
      <trkpt lat="42.7230080" lon="1.8552590">
        <ele>919.8</ele>
        <time>2020-07-22T12:36:44Z</time>
      </trkpt>
      <trkpt lat="42.7229880" lon="1.8551590">
        <ele>919.2</ele>
        <time>2020-07-22T12:36:45Z</time>
      </trkpt>
      <trkpt lat="42.7229880" lon="1.8550610">
        <ele>918.8</ele>
        <time>2020-07-22T12:36:46Z</time>
      </trkpt>
      <trkpt lat="42.7230100" lon="1.8549650">
        <ele>918.6</ele>
        <time>2020-07-22T12:36:47Z</time>
      </trkpt>
      <trkpt lat="42.7230440" lon="1.8548710">
        <ele>918.6</ele>
        <time>2020-07-22T12:36:48Z</time>
      </trkpt>
      <trkpt lat="42.7231110" lon="1.8546640">
        <ele>918.4</ele>
        <time>2020-07-22T12:36:50Z</time>
      </trkpt>
      <trkpt lat="42.7231380" lon="1.8545460">
        <ele>918.2</ele>
        <time>2020-07-22T12:36:51Z</time>
      </trkpt>
      <trkpt lat="42.7231630" lon="1.8544220">
        <ele>917.4</ele>
        <time>2020-07-22T12:36:52Z</time>
      </trkpt>
      <trkpt lat="42.7231860" lon="1.8542910">
        <ele>915.8</ele>
        <time>2020-07-22T12:36:53Z</time>
      </trkpt>
      <trkpt lat="42.7232060" lon="1.8541570">
        <ele>914.2</ele>
        <time>2020-07-22T12:36:54Z</time>
      </trkpt>
      <trkpt lat="42.7232180" lon="1.8540160">
        <ele>913.0</ele>
        <time>2020-07-22T12:36:55Z</time>
      </trkpt>
      <trkpt lat="42.7232250" lon="1.8538720">
        <ele>912.0</ele>
        <time>2020-07-22T12:36:56Z</time>
      </trkpt>
      <trkpt lat="42.7232230" lon="1.8537260">
        <ele>911.0</ele>
        <time>2020-07-22T12:36:57Z</time>
      </trkpt>
      <trkpt lat="42.7232080" lon="1.8535750">
        <ele>910.2</ele>
        <time>2020-07-22T12:36:58Z</time>
      </trkpt>
      <trkpt lat="42.7231840" lon="1.8534230">
        <ele>909.2</ele>
        <time>2020-07-22T12:36:59Z</time>
      </trkpt>
      <trkpt lat="42.7231580" lon="1.8532720">
        <ele>908.4</ele>
        <time>2020-07-22T12:37:00Z</time>
      </trkpt>
      <trkpt lat="42.7231330" lon="1.8531200">
        <ele>907.4</ele>
        <time>2020-07-22T12:37:01Z</time>
      </trkpt>
      <trkpt lat="42.7231140" lon="1.8529730">
        <ele>906.2</ele>
        <time>2020-07-22T12:37:02Z</time>
      </trkpt>
      <trkpt lat="42.7230940" lon="1.8528360">
        <ele>905.2</ele>
        <time>2020-07-22T12:37:03Z</time>
      </trkpt>
      <trkpt lat="42.7230650" lon="1.8527140">
        <ele>904.4</ele>
        <time>2020-07-22T12:37:04Z</time>
      </trkpt>
      <trkpt lat="42.7230250" lon="1.8526030">
        <ele>904.0</ele>
        <time>2020-07-22T12:37:05Z</time>
      </trkpt>
      <trkpt lat="42.7229480" lon="1.8523810">
        <ele>903.2</ele>
        <time>2020-07-22T12:37:07Z</time>
      </trkpt>
      <trkpt lat="42.7229320" lon="1.8522620">
        <ele>902.8</ele>
        <time>2020-07-22T12:37:08Z</time>
      </trkpt>
      <trkpt lat="42.7229120" lon="1.8520210">
        <ele>901.2</ele>
        <time>2020-07-22T12:37:09Z</time>
      </trkpt>
      <trkpt lat="42.7228980" lon="1.8519730">
        <ele>901.2</ele>
        <time>2020-07-22T12:37:10Z</time>
      </trkpt>
      <trkpt lat="42.7228830" lon="1.8519250">
        <ele>900.2</ele>
        <time>2020-07-22T12:37:11Z</time>
      </trkpt>
      <trkpt lat="42.7228380" lon="1.8518460">
        <ele>899.6</ele>
        <time>2020-07-22T12:37:12Z</time>
      </trkpt>
      <trkpt lat="42.7227750" lon="1.8517750">
        <ele>899.2</ele>
        <time>2020-07-22T12:37:13Z</time>
      </trkpt>
      <trkpt lat="42.7227010" lon="1.8516960">
        <ele>898.6</ele>
        <time>2020-07-22T12:37:14Z</time>
      </trkpt>
      <trkpt lat="42.7226440" lon="1.8516050">
        <ele>898.0</ele>
        <time>2020-07-22T12:37:15Z</time>
      </trkpt>
      <trkpt lat="42.7225960" lon="1.8515050">
        <ele>897.2</ele>
        <time>2020-07-22T12:37:16Z</time>
      </trkpt>
      <trkpt lat="42.7225410" lon="1.8514070">
        <ele>896.4</ele>
        <time>2020-07-22T12:37:17Z</time>
      </trkpt>
      <trkpt lat="42.7224670" lon="1.8513210">
        <ele>895.2</ele>
        <time>2020-07-22T12:37:18Z</time>
      </trkpt>
      <trkpt lat="42.7224020" lon="1.8512300">
        <ele>894.2</ele>
        <time>2020-07-22T12:37:19Z</time>
      </trkpt>
      <trkpt lat="42.7223560" lon="1.8511260">
        <ele>893.2</ele>
        <time>2020-07-22T12:37:20Z</time>
      </trkpt>
      <trkpt lat="42.7223300" lon="1.8510120">
        <ele>892.4</ele>
        <time>2020-07-22T12:37:21Z</time>
      </trkpt>
      <trkpt lat="42.7223280" lon="1.8508910">
        <ele>891.6</ele>
        <time>2020-07-22T12:37:22Z</time>
      </trkpt>
      <trkpt lat="42.7223720" lon="1.8506410">
        <ele>890.2</ele>
        <time>2020-07-22T12:37:24Z</time>
      </trkpt>
      <trkpt lat="42.7224630" lon="1.8502660">
        <ele>888.4</ele>
        <time>2020-07-22T12:37:27Z</time>
      </trkpt>
      <trkpt lat="42.7225270" lon="1.8500480">
        <ele>886.8</ele>
        <time>2020-07-22T12:37:29Z</time>
      </trkpt>
      <trkpt lat="42.7225630" lon="1.8499500">
        <ele>885.8</ele>
        <time>2020-07-22T12:37:30Z</time>
      </trkpt>
      <trkpt lat="42.7226040" lon="1.8498570">
        <ele>885.2</ele>
        <time>2020-07-22T12:37:31Z</time>
      </trkpt>
      <trkpt lat="42.7226790" lon="1.8496700">
        <ele>884.4</ele>
        <time>2020-07-22T12:37:33Z</time>
      </trkpt>
      <trkpt lat="42.7226920" lon="1.8495610">
        <ele>883.8</ele>
        <time>2020-07-22T12:37:34Z</time>
      </trkpt>
      <trkpt lat="42.7226910" lon="1.8494460">
        <ele>883.4</ele>
        <time>2020-07-22T12:37:35Z</time>
      </trkpt>
      <trkpt lat="42.7226830" lon="1.8493260">
        <ele>882.8</ele>
        <time>2020-07-22T12:37:36Z</time>
      </trkpt>
      <trkpt lat="42.7226680" lon="1.8490780">
        <ele>882.4</ele>
        <time>2020-07-22T12:37:38Z</time>
      </trkpt>
      <trkpt lat="42.7226270" lon="1.8486520">
        <ele>882.0</ele>
        <time>2020-07-22T12:37:41Z</time>
      </trkpt>
      <trkpt lat="42.7226080" lon="1.8485000">
        <ele>881.2</ele>
        <time>2020-07-22T12:37:42Z</time>
      </trkpt>
      <trkpt lat="42.7225940" lon="1.8483490">
        <ele>879.6</ele>
        <time>2020-07-22T12:37:43Z</time>
      </trkpt>
      <trkpt lat="42.7225810" lon="1.8481950">
        <ele>877.6</ele>
        <time>2020-07-22T12:37:44Z</time>
      </trkpt>
      <trkpt lat="42.7225690" lon="1.8480370">
        <ele>876.2</ele>
        <time>2020-07-22T12:37:45Z</time>
      </trkpt>
      <trkpt lat="42.7225540" lon="1.8478800">
        <ele>874.8</ele>
        <time>2020-07-22T12:37:46Z</time>
      </trkpt>
      <trkpt lat="42.7225390" lon="1.8477250">
        <ele>874.2</ele>
        <time>2020-07-22T12:37:47Z</time>
      </trkpt>
      <trkpt lat="42.7225280" lon="1.8475760">
        <ele>873.2</ele>
        <time>2020-07-22T12:37:48Z</time>
      </trkpt>
      <trkpt lat="42.7225310" lon="1.8472890">
        <ele>871.8</ele>
        <time>2020-07-22T12:37:50Z</time>
      </trkpt>
      <trkpt lat="42.7225470" lon="1.8471450">
        <ele>871.2</ele>
        <time>2020-07-22T12:37:51Z</time>
      </trkpt>
      <trkpt lat="42.7225750" lon="1.8470000">
        <ele>870.4</ele>
        <time>2020-07-22T12:37:52Z</time>
      </trkpt>
      <trkpt lat="42.7226630" lon="1.8467180">
        <ele>868.6</ele>
        <time>2020-07-22T12:37:54Z</time>
      </trkpt>
      <trkpt lat="42.7227540" lon="1.8464470">
        <ele>867.2</ele>
        <time>2020-07-22T12:37:56Z</time>
      </trkpt>
      <trkpt lat="42.7228370" lon="1.8462010">
        <ele>866.0</ele>
        <time>2020-07-22T12:37:58Z</time>
      </trkpt>
      <trkpt lat="42.7228820" lon="1.8460840">
        <ele>865.6</ele>
        <time>2020-07-22T12:37:59Z</time>
      </trkpt>
      <trkpt lat="42.7229290" lon="1.8459690">
        <ele>864.8</ele>
        <time>2020-07-22T12:38:00Z</time>
      </trkpt>
      <trkpt lat="42.7230350" lon="1.8457520">
        <ele>863.4</ele>
        <time>2020-07-22T12:38:02Z</time>
      </trkpt>
      <trkpt lat="42.7231750" lon="1.8455820">
        <ele>862.4</ele>
        <time>2020-07-22T12:38:04Z</time>
      </trkpt>
      <trkpt lat="42.7232500" lon="1.8454980">
        <ele>861.2</ele>
        <time>2020-07-22T12:38:05Z</time>
      </trkpt>
      <trkpt lat="42.7233220" lon="1.8454040">
        <ele>859.8</ele>
        <time>2020-07-22T12:38:06Z</time>
      </trkpt>
      <trkpt lat="42.7233930" lon="1.8453080">
        <ele>858.6</ele>
        <time>2020-07-22T12:38:07Z</time>
      </trkpt>
      <trkpt lat="42.7235280" lon="1.8451100">
        <ele>857.2</ele>
        <time>2020-07-22T12:38:09Z</time>
      </trkpt>
      <trkpt lat="42.7236740" lon="1.8449140">
        <ele>855.4</ele>
        <time>2020-07-22T12:38:11Z</time>
      </trkpt>
      <trkpt lat="42.7237460" lon="1.8448270">
        <ele>854.8</ele>
        <time>2020-07-22T12:38:12Z</time>
      </trkpt>
      <trkpt lat="42.7238820" lon="1.8446680">
        <ele>854.2</ele>
        <time>2020-07-22T12:38:14Z</time>
      </trkpt>
      <trkpt lat="42.7239980" lon="1.8445100">
        <ele>853.6</ele>
        <time>2020-07-22T12:38:16Z</time>
      </trkpt>
      <trkpt lat="42.7240620" lon="1.8443190">
        <ele>852.8</ele>
        <time>2020-07-22T12:38:18Z</time>
      </trkpt>
      <trkpt lat="42.7240520" lon="1.8440610">
        <ele>851.8</ele>
        <time>2020-07-22T12:38:20Z</time>
      </trkpt>
      <trkpt lat="42.7240590" lon="1.8439260">
        <ele>851.0</ele>
        <time>2020-07-22T12:38:21Z</time>
      </trkpt>
      <trkpt lat="42.7240700" lon="1.8437900">
        <ele>850.0</ele>
        <time>2020-07-22T12:38:22Z</time>
      </trkpt>
      <trkpt lat="42.7240650" lon="1.8436460">
        <ele>849.2</ele>
        <time>2020-07-22T12:38:23Z</time>
      </trkpt>
      <trkpt lat="42.7240470" lon="1.8435140">
        <ele>848.6</ele>
        <time>2020-07-22T12:38:24Z</time>
      </trkpt>
      <trkpt lat="42.7240100" lon="1.8433910">
        <ele>848.2</ele>
        <time>2020-07-22T12:38:25Z</time>
      </trkpt>
      <trkpt lat="42.7239090" lon="1.8431280">
        <ele>847.2</ele>
        <time>2020-07-22T12:38:27Z</time>
      </trkpt>
      <trkpt lat="42.7238630" lon="1.8429980">
        <ele>846.0</ele>
        <time>2020-07-22T12:38:28Z</time>
      </trkpt>
      <trkpt lat="42.7238260" lon="1.8428650">
        <ele>844.4</ele>
        <time>2020-07-22T12:38:29Z</time>
      </trkpt>
      <trkpt lat="42.7237930" lon="1.8427400">
        <ele>843.2</ele>
        <time>2020-07-22T12:38:30Z</time>
      </trkpt>
      <trkpt lat="42.7237630" lon="1.8426180">
        <ele>842.4</ele>
        <time>2020-07-22T12:38:31Z</time>
      </trkpt>
      <trkpt lat="42.7237500" lon="1.8424990">
        <ele>842.0</ele>
        <time>2020-07-22T12:38:32Z</time>
      </trkpt>
      <trkpt lat="42.7237560" lon="1.8423830">
        <ele>841.6</ele>
        <time>2020-07-22T12:38:33Z</time>
      </trkpt>
      <trkpt lat="42.7238310" lon="1.8420180">
        <ele>840.6</ele>
        <time>2020-07-22T12:38:36Z</time>
      </trkpt>
      <trkpt lat="42.7238590" lon="1.8418900">
        <ele>839.4</ele>
        <time>2020-07-22T12:38:37Z</time>
      </trkpt>
      <trkpt lat="42.7238870" lon="1.8417580">
        <ele>838.2</ele>
        <time>2020-07-22T12:38:38Z</time>
      </trkpt>
      <trkpt lat="42.7239570" lon="1.8415100">
        <ele>836.8</ele>
        <time>2020-07-22T12:38:40Z</time>
      </trkpt>
      <trkpt lat="42.7240710" lon="1.8412960">
        <ele>835.6</ele>
        <time>2020-07-22T12:38:42Z</time>
      </trkpt>
      <trkpt lat="42.7242120" lon="1.8411120">
        <ele>834.4</ele>
        <time>2020-07-22T12:38:44Z</time>
      </trkpt>
      <trkpt lat="42.7242770" lon="1.8410280">
        <ele>833.4</ele>
        <time>2020-07-22T12:38:45Z</time>
      </trkpt>
      <trkpt lat="42.7243360" lon="1.8409490">
        <ele>832.6</ele>
        <time>2020-07-22T12:38:46Z</time>
      </trkpt>
      <trkpt lat="42.7243870" lon="1.8408680">
        <ele>832.2</ele>
        <time>2020-07-22T12:38:47Z</time>
      </trkpt>
      <trkpt lat="42.7244250" lon="1.8406740">
        <ele>831.8</ele>
        <time>2020-07-22T12:38:49Z</time>
      </trkpt>
      <trkpt lat="42.7244050" lon="1.8405690">
        <ele>831.6</ele>
        <time>2020-07-22T12:38:50Z</time>
      </trkpt>
      <trkpt lat="42.7243710" lon="1.8404790">
        <ele>831.4</ele>
        <time>2020-07-22T12:38:51Z</time>
      </trkpt>
      <trkpt lat="42.7243240" lon="1.8404090">
        <ele>831.4</ele>
        <time>2020-07-22T12:38:52Z</time>
      </trkpt>
      <trkpt lat="42.7242660" lon="1.8403690">
        <ele>831.4</ele>
        <time>2020-07-22T12:38:53Z</time>
      </trkpt>
      <trkpt lat="42.7242070" lon="1.8403620">
        <ele>831.0</ele>
        <time>2020-07-22T12:38:54Z</time>
      </trkpt>
      <trkpt lat="42.7241400" lon="1.8403850">
        <ele>830.4</ele>
        <time>2020-07-22T12:38:55Z</time>
      </trkpt>
      <trkpt lat="42.7240150" lon="1.8405310">
        <ele>829.2</ele>
        <time>2020-07-22T12:38:57Z</time>
      </trkpt>
      <trkpt lat="42.7239120" lon="1.8407430">
        <ele>828.2</ele>
        <time>2020-07-22T12:38:59Z</time>
      </trkpt>
      <trkpt lat="42.7238670" lon="1.8408470">
        <ele>827.8</ele>
        <time>2020-07-22T12:39:00Z</time>
      </trkpt>
      <trkpt lat="42.7238220" lon="1.8409530">
        <ele>827.4</ele>
        <time>2020-07-22T12:39:01Z</time>
      </trkpt>
      <trkpt lat="42.7237750" lon="1.8410620">
        <ele>827.2</ele>
        <time>2020-07-22T12:39:02Z</time>
      </trkpt>
      <trkpt lat="42.7236760" lon="1.8412870">
        <ele>826.4</ele>
        <time>2020-07-22T12:39:04Z</time>
      </trkpt>
      <trkpt lat="42.7235650" lon="1.8415200">
        <ele>825.4</ele>
        <time>2020-07-22T12:39:06Z</time>
      </trkpt>
      <trkpt lat="42.7235090" lon="1.8416400">
        <ele>824.8</ele>
        <time>2020-07-22T12:39:07Z</time>
      </trkpt>
      <trkpt lat="42.7234530" lon="1.8417620">
        <ele>824.2</ele>
        <time>2020-07-22T12:39:08Z</time>
      </trkpt>
      <trkpt lat="42.7234070" lon="1.8418950">
        <ele>823.2</ele>
        <time>2020-07-22T12:39:09Z</time>
      </trkpt>
      <trkpt lat="42.7233140" lon="1.8421610">
        <ele>822.4</ele>
        <time>2020-07-22T12:39:11Z</time>
      </trkpt>
      <trkpt lat="42.7232860" lon="1.8423150">
        <ele>821.8</ele>
        <time>2020-07-22T12:39:12Z</time>
      </trkpt>
      <trkpt lat="42.7232450" lon="1.8426450">
        <ele>820.6</ele>
        <time>2020-07-22T12:39:14Z</time>
      </trkpt>
      <trkpt lat="42.7232030" lon="1.8429670">
        <ele>818.8</ele>
        <time>2020-07-22T12:39:16Z</time>
      </trkpt>
      <trkpt lat="42.7231710" lon="1.8432700">
        <ele>817.4</ele>
        <time>2020-07-22T12:39:18Z</time>
      </trkpt>
      <trkpt lat="42.7231410" lon="1.8435480">
        <ele>815.8</ele>
        <time>2020-07-22T12:39:20Z</time>
      </trkpt>
      <trkpt lat="42.7231250" lon="1.8436690">
        <ele>815.0</ele>
        <time>2020-07-22T12:39:21Z</time>
      </trkpt>
      <trkpt lat="42.7231040" lon="1.8437740">
        <ele>814.2</ele>
        <time>2020-07-22T12:39:22Z</time>
      </trkpt>
      <trkpt lat="42.7230660" lon="1.8438600">
        <ele>813.6</ele>
        <time>2020-07-22T12:39:23Z</time>
      </trkpt>
      <trkpt lat="42.7230130" lon="1.8439270">
        <ele>813.2</ele>
        <time>2020-07-22T12:39:24Z</time>
      </trkpt>
      <trkpt lat="42.7229380" lon="1.8439630">
        <ele>812.8</ele>
        <time>2020-07-22T12:39:25Z</time>
      </trkpt>
      <trkpt lat="42.7227760" lon="1.8440140">
        <ele>812.2</ele>
        <time>2020-07-22T12:39:27Z</time>
      </trkpt>
      <trkpt lat="42.7226950" lon="1.8440500">
        <ele>811.8</ele>
        <time>2020-07-22T12:39:28Z</time>
      </trkpt>
      <trkpt lat="42.7225490" lon="1.8441880">
        <ele>810.4</ele>
        <time>2020-07-22T12:39:30Z</time>
      </trkpt>
      <trkpt lat="42.7224200" lon="1.8443810">
        <ele>809.2</ele>
        <time>2020-07-22T12:39:32Z</time>
      </trkpt>
      <trkpt lat="42.7222890" lon="1.8445900">
        <ele>807.8</ele>
        <time>2020-07-22T12:39:34Z</time>
      </trkpt>
      <trkpt lat="42.7221420" lon="1.8447830">
        <ele>806.6</ele>
        <time>2020-07-22T12:39:36Z</time>
      </trkpt>
      <trkpt lat="42.7219670" lon="1.8449230">
        <ele>805.8</ele>
        <time>2020-07-22T12:39:38Z</time>
      </trkpt>
      <trkpt lat="42.7218780" lon="1.8449760">
        <ele>805.4</ele>
        <time>2020-07-22T12:39:39Z</time>
      </trkpt>
      <trkpt lat="42.7217260" lon="1.8451000">
        <ele>804.8</ele>
        <time>2020-07-22T12:39:41Z</time>
      </trkpt>
      <trkpt lat="42.7216630" lon="1.8451860">
        <ele>804.2</ele>
        <time>2020-07-22T12:39:42Z</time>
      </trkpt>
      <trkpt lat="42.7215430" lon="1.8453740">
        <ele>803.0</ele>
        <time>2020-07-22T12:39:44Z</time>
      </trkpt>
      <trkpt lat="42.7214440" lon="1.8455220">
        <ele>802.4</ele>
        <time>2020-07-22T12:39:46Z</time>
      </trkpt>
      <trkpt lat="42.7213570" lon="1.8455560">
        <ele>801.8</ele>
        <time>2020-07-22T12:39:48Z</time>
      </trkpt>
      <trkpt lat="42.7213450" lon="1.8454430">
        <ele>801.4</ele>
        <time>2020-07-22T12:39:50Z</time>
      </trkpt>
      <trkpt lat="42.7213700" lon="1.8453820">
        <ele>801.0</ele>
        <time>2020-07-22T12:39:51Z</time>
      </trkpt>
      <trkpt lat="42.7214200" lon="1.8453280">
        <ele>800.4</ele>
        <time>2020-07-22T12:39:52Z</time>
      </trkpt>
      <trkpt lat="42.7214690" lon="1.8452710">
        <ele>800.0</ele>
        <time>2020-07-22T12:39:53Z</time>
      </trkpt>
      <trkpt lat="42.7215110" lon="1.8451980">
        <ele>799.4</ele>
        <time>2020-07-22T12:39:54Z</time>
      </trkpt>
      <trkpt lat="42.7215630" lon="1.8450060">
        <ele>798.6</ele>
        <time>2020-07-22T12:39:56Z</time>
      </trkpt>
      <trkpt lat="42.7215700" lon="1.8448920">
        <ele>798.2</ele>
        <time>2020-07-22T12:39:57Z</time>
      </trkpt>
      <trkpt lat="42.7215780" lon="1.8446520">
        <ele>797.2</ele>
        <time>2020-07-22T12:39:59Z</time>
      </trkpt>
      <trkpt lat="42.7215850" lon="1.8445270">
        <ele>796.6</ele>
        <time>2020-07-22T12:40:00Z</time>
      </trkpt>
      <trkpt lat="42.7216020" lon="1.8444040">
        <ele>796.0</ele>
        <time>2020-07-22T12:40:01Z</time>
      </trkpt>
      <trkpt lat="42.7216770" lon="1.8441750">
        <ele>794.2</ele>
        <time>2020-07-22T12:40:03Z</time>
      </trkpt>
      <trkpt lat="42.7218190" lon="1.8440020">
        <ele>792.6</ele>
        <time>2020-07-22T12:40:05Z</time>
      </trkpt>
      <trkpt lat="42.7219020" lon="1.8439300">
        <ele>791.6</ele>
        <time>2020-07-22T12:40:06Z</time>
      </trkpt>
      <trkpt lat="42.7219830" lon="1.8438500">
        <ele>791.0</ele>
        <time>2020-07-22T12:40:07Z</time>
      </trkpt>
      <trkpt lat="42.7221170" lon="1.8436460">
        <ele>789.6</ele>
        <time>2020-07-22T12:40:09Z</time>
      </trkpt>
      <trkpt lat="42.7221980" lon="1.8434010">
        <ele>788.4</ele>
        <time>2020-07-22T12:40:11Z</time>
      </trkpt>
      <trkpt lat="42.7222360" lon="1.8432880">
        <ele>787.8</ele>
        <time>2020-07-22T12:40:12Z</time>
      </trkpt>
      <trkpt lat="42.7222860" lon="1.8431910">
        <ele>787.2</ele>
        <time>2020-07-22T12:40:13Z</time>
      </trkpt>
      <trkpt lat="42.7223500" lon="1.8431110">
        <ele>786.8</ele>
        <time>2020-07-22T12:40:14Z</time>
      </trkpt>
      <trkpt lat="42.7224250" lon="1.8430510">
        <ele>786.4</ele>
        <time>2020-07-22T12:40:15Z</time>
      </trkpt>
      <trkpt lat="42.7225070" lon="1.8429990">
        <ele>786.0</ele>
        <time>2020-07-22T12:40:16Z</time>
      </trkpt>
      <trkpt lat="42.7225780" lon="1.8429340">
        <ele>785.4</ele>
        <time>2020-07-22T12:40:17Z</time>
      </trkpt>
      <trkpt lat="42.7226370" lon="1.8428540">
        <ele>784.8</ele>
        <time>2020-07-22T12:40:18Z</time>
      </trkpt>
      <trkpt lat="42.7226810" lon="1.8427610">
        <ele>784.6</ele>
        <time>2020-07-22T12:40:19Z</time>
      </trkpt>
      <trkpt lat="42.7226910" lon="1.8426430">
        <ele>784.2</ele>
        <time>2020-07-22T12:40:20Z</time>
      </trkpt>
      <trkpt lat="42.7226700" lon="1.8425000">
        <ele>783.6</ele>
        <time>2020-07-22T12:40:21Z</time>
      </trkpt>
      <trkpt lat="42.7226450" lon="1.8423500">
        <ele>783.0</ele>
        <time>2020-07-22T12:40:22Z</time>
      </trkpt>
      <trkpt lat="42.7226420" lon="1.8422040">
        <ele>782.2</ele>
        <time>2020-07-22T12:40:23Z</time>
      </trkpt>
      <trkpt lat="42.7226540" lon="1.8420570">
        <ele>781.4</ele>
        <time>2020-07-22T12:40:24Z</time>
      </trkpt>
      <trkpt lat="42.7226740" lon="1.8419080">
        <ele>780.8</ele>
        <time>2020-07-22T12:40:25Z</time>
      </trkpt>
      <trkpt lat="42.7226970" lon="1.8417590">
        <ele>779.8</ele>
        <time>2020-07-22T12:40:26Z</time>
      </trkpt>
      <trkpt lat="42.7227260" lon="1.8416120">
        <ele>778.8</ele>
        <time>2020-07-22T12:40:27Z</time>
      </trkpt>
      <trkpt lat="42.7227930" lon="1.8413390">
        <ele>777.0</ele>
        <time>2020-07-22T12:40:29Z</time>
      </trkpt>
      <trkpt lat="42.7228320" lon="1.8412200">
        <ele>776.4</ele>
        <time>2020-07-22T12:40:30Z</time>
      </trkpt>
      <trkpt lat="42.7229370" lon="1.8410250">
        <ele>775.8</ele>
        <time>2020-07-22T12:40:32Z</time>
      </trkpt>
      <trkpt lat="42.7229960" lon="1.8409350">
        <ele>775.4</ele>
        <time>2020-07-22T12:40:33Z</time>
      </trkpt>
      <trkpt lat="42.7231090" lon="1.8407480">
        <ele>774.8</ele>
        <time>2020-07-22T12:40:35Z</time>
      </trkpt>
      <trkpt lat="42.7232090" lon="1.8405300">
        <ele>773.0</ele>
        <time>2020-07-22T12:40:37Z</time>
      </trkpt>
      <trkpt lat="42.7232640" lon="1.8404210">
        <ele>772.2</ele>
        <time>2020-07-22T12:40:38Z</time>
      </trkpt>
      <trkpt lat="42.7233240" lon="1.8403180">
        <ele>771.6</ele>
        <time>2020-07-22T12:40:39Z</time>
      </trkpt>
      <trkpt lat="42.7234460" lon="1.8401420">
        <ele>769.8</ele>
        <time>2020-07-22T12:40:41Z</time>
      </trkpt>
      <trkpt lat="42.7234940" lon="1.8400660">
        <ele>769.2</ele>
        <time>2020-07-22T12:40:42Z</time>
      </trkpt>
      <trkpt lat="42.7235170" lon="1.8399930">
        <ele>768.8</ele>
        <time>2020-07-22T12:40:43Z</time>
      </trkpt>
      <trkpt lat="42.7235100" lon="1.8399270">
        <ele>768.6</ele>
        <time>2020-07-22T12:40:44Z</time>
      </trkpt>
      <trkpt lat="42.7234940" lon="1.8398870">
        <ele>768.8</ele>
        <time>2020-07-22T12:40:45Z</time>
      </trkpt>
      <trkpt lat="42.7234270" lon="1.8398980">
        <ele>768.8</ele>
        <time>2020-07-22T12:40:47Z</time>
      </trkpt>
      <trkpt lat="42.7233630" lon="1.8400310">
        <ele>768.6</ele>
        <time>2020-07-22T12:40:49Z</time>
      </trkpt>
      <trkpt lat="42.7233240" lon="1.8401120">
        <ele>768.0</ele>
        <time>2020-07-22T12:40:50Z</time>
      </trkpt>
      <trkpt lat="42.7232820" lon="1.8401950">
        <ele>767.4</ele>
        <time>2020-07-22T12:40:51Z</time>
      </trkpt>
      <trkpt lat="42.7232380" lon="1.8402820">
        <ele>766.8</ele>
        <time>2020-07-22T12:40:52Z</time>
      </trkpt>
      <trkpt lat="42.7231900" lon="1.8403730">
        <ele>766.2</ele>
        <time>2020-07-22T12:40:53Z</time>
      </trkpt>
      <trkpt lat="42.7230900" lon="1.8405820">
        <ele>765.4</ele>
        <time>2020-07-22T12:40:55Z</time>
      </trkpt>
      <trkpt lat="42.7230300" lon="1.8406820">
        <ele>765.0</ele>
        <time>2020-07-22T12:40:56Z</time>
      </trkpt>
      <trkpt lat="42.7228840" lon="1.8408570">
        <ele>763.6</ele>
        <time>2020-07-22T12:40:58Z</time>
      </trkpt>
      <trkpt lat="42.7228030" lon="1.8409400">
        <ele>762.6</ele>
        <time>2020-07-22T12:40:59Z</time>
      </trkpt>
      <trkpt lat="42.7226200" lon="1.8411020">
        <ele>760.8</ele>
        <time>2020-07-22T12:41:01Z</time>
      </trkpt>
      <trkpt lat="42.7224650" lon="1.8413280">
        <ele>759.2</ele>
        <time>2020-07-22T12:41:03Z</time>
      </trkpt>
      <trkpt lat="42.7223910" lon="1.8414560">
        <ele>758.0</ele>
        <time>2020-07-22T12:41:04Z</time>
      </trkpt>
      <trkpt lat="42.7222570" lon="1.8417300">
        <ele>756.2</ele>
        <time>2020-07-22T12:41:06Z</time>
      </trkpt>
      <trkpt lat="42.7221990" lon="1.8418620">
        <ele>755.4</ele>
        <time>2020-07-22T12:41:07Z</time>
      </trkpt>
      <trkpt lat="42.7221530" lon="1.8419870">
        <ele>754.6</ele>
        <time>2020-07-22T12:41:08Z</time>
      </trkpt>
      <trkpt lat="42.7220860" lon="1.8422150">
        <ele>753.4</ele>
        <time>2020-07-22T12:41:09Z</time>
      </trkpt>
      <trkpt lat="42.7220680" lon="1.8422630">
        <ele>753.4</ele>
        <time>2020-07-22T12:41:10Z</time>
      </trkpt>
      <trkpt lat="42.7220490" lon="1.8423100">
        <ele>753.2</ele>
        <time>2020-07-22T12:41:11Z</time>
      </trkpt>
      <trkpt lat="42.7220170" lon="1.8424010">
        <ele>753.2</ele>
        <time>2020-07-22T12:41:12Z</time>
      </trkpt>
      <trkpt lat="42.7219650" lon="1.8424790">
        <ele>753.2</ele>
        <time>2020-07-22T12:41:13Z</time>
      </trkpt>
      <trkpt lat="42.7218900" lon="1.8425370">
        <ele>753.2</ele>
        <time>2020-07-22T12:41:14Z</time>
      </trkpt>
      <trkpt lat="42.7216550" lon="1.8427250">
        <ele>753.4</ele>
        <time>2020-07-22T12:41:17Z</time>
      </trkpt>
      <trkpt lat="42.7215670" lon="1.8427860">
        <ele>752.6</ele>
        <time>2020-07-22T12:41:18Z</time>
      </trkpt>
      <trkpt lat="42.7214760" lon="1.8428520">
        <ele>750.6</ele>
        <time>2020-07-22T12:41:19Z</time>
      </trkpt>
      <trkpt lat="42.7213870" lon="1.8429170">
        <ele>748.6</ele>
        <time>2020-07-22T12:41:20Z</time>
      </trkpt>
      <trkpt lat="42.7213000" lon="1.8429810">
        <ele>747.2</ele>
        <time>2020-07-22T12:41:21Z</time>
      </trkpt>
      <trkpt lat="42.7212180" lon="1.8430430">
        <ele>746.2</ele>
        <time>2020-07-22T12:41:22Z</time>
      </trkpt>
      <trkpt lat="42.7210510" lon="1.8431340">
        <ele>745.0</ele>
        <time>2020-07-22T12:41:24Z</time>
      </trkpt>
      <trkpt lat="42.7208530" lon="1.8431490">
        <ele>744.0</ele>
        <time>2020-07-22T12:41:26Z</time>
      </trkpt>
      <trkpt lat="42.7207480" lon="1.8431460">
        <ele>743.4</ele>
        <time>2020-07-22T12:41:27Z</time>
      </trkpt>
      <trkpt lat="42.7205490" lon="1.8431380">
        <ele>742.0</ele>
        <time>2020-07-22T12:41:29Z</time>
      </trkpt>
      <trkpt lat="42.7204580" lon="1.8431520">
        <ele>741.2</ele>
        <time>2020-07-22T12:41:30Z</time>
      </trkpt>
      <trkpt lat="42.7203710" lon="1.8431800">
        <ele>740.4</ele>
        <time>2020-07-22T12:41:31Z</time>
      </trkpt>
      <trkpt lat="42.7202900" lon="1.8432200">
        <ele>739.6</ele>
        <time>2020-07-22T12:41:32Z</time>
      </trkpt>
      <trkpt lat="42.7202100" lon="1.8432730">
        <ele>739.0</ele>
        <time>2020-07-22T12:41:33Z</time>
      </trkpt>
      <trkpt lat="42.7200600" lon="1.8433620">
        <ele>738.2</ele>
        <time>2020-07-22T12:41:35Z</time>
      </trkpt>
      <trkpt lat="42.7199810" lon="1.8433790">
        <ele>737.8</ele>
        <time>2020-07-22T12:41:36Z</time>
      </trkpt>
      <trkpt lat="42.7198980" lon="1.8433710">
        <ele>737.4</ele>
        <time>2020-07-22T12:41:37Z</time>
      </trkpt>
      <trkpt lat="42.7198260" lon="1.8433350">
        <ele>736.8</ele>
        <time>2020-07-22T12:41:38Z</time>
      </trkpt>
      <trkpt lat="42.7197640" lon="1.8432780">
        <ele>736.4</ele>
        <time>2020-07-22T12:41:39Z</time>
      </trkpt>
      <trkpt lat="42.7196780" lon="1.8431540">
        <ele>735.4</ele>
        <time>2020-07-22T12:41:41Z</time>
      </trkpt>
      <trkpt lat="42.7196640" lon="1.8430670">
        <ele>735.0</ele>
        <time>2020-07-22T12:41:42Z</time>
      </trkpt>
      <trkpt lat="42.7196600" lon="1.8429740">
        <ele>734.6</ele>
        <time>2020-07-22T12:41:43Z</time>
      </trkpt>
      <trkpt lat="42.7196640" lon="1.8428700">
        <ele>734.0</ele>
        <time>2020-07-22T12:41:44Z</time>
      </trkpt>
      <trkpt lat="42.7196740" lon="1.8427630">
        <ele>733.2</ele>
        <time>2020-07-22T12:41:45Z</time>
      </trkpt>
      <trkpt lat="42.7197250" lon="1.8424270">
        <ele>731.6</ele>
        <time>2020-07-22T12:41:48Z</time>
      </trkpt>
      <trkpt lat="42.7197520" lon="1.8423100">
        <ele>731.0</ele>
        <time>2020-07-22T12:41:49Z</time>
      </trkpt>
      <trkpt lat="42.7197810" lon="1.8421900">
        <ele>730.2</ele>
        <time>2020-07-22T12:41:50Z</time>
      </trkpt>
      <trkpt lat="42.7198500" lon="1.8419450">
        <ele>728.6</ele>
        <time>2020-07-22T12:41:52Z</time>
      </trkpt>
      <trkpt lat="42.7199250" lon="1.8416830">
        <ele>727.0</ele>
        <time>2020-07-22T12:41:54Z</time>
      </trkpt>
      <trkpt lat="42.7199640" lon="1.8415500">
        <ele>726.0</ele>
        <time>2020-07-22T12:41:55Z</time>
      </trkpt>
      <trkpt lat="42.7200010" lon="1.8414160">
        <ele>725.2</ele>
        <time>2020-07-22T12:41:56Z</time>
      </trkpt>
      <trkpt lat="42.7200670" lon="1.8411610">
        <ele>723.8</ele>
        <time>2020-07-22T12:41:58Z</time>
      </trkpt>
      <trkpt lat="42.7201330" lon="1.8409170">
        <ele>722.6</ele>
        <time>2020-07-22T12:42:00Z</time>
      </trkpt>
      <trkpt lat="42.7201650" lon="1.8407950">
        <ele>721.8</ele>
        <time>2020-07-22T12:42:01Z</time>
      </trkpt>
      <trkpt lat="42.7201950" lon="1.8406760">
        <ele>720.8</ele>
        <time>2020-07-22T12:42:02Z</time>
      </trkpt>
      <trkpt lat="42.7202530" lon="1.8404460">
        <ele>719.4</ele>
        <time>2020-07-22T12:42:04Z</time>
      </trkpt>
      <trkpt lat="42.7203110" lon="1.8402430">
        <ele>718.0</ele>
        <time>2020-07-22T12:42:06Z</time>
      </trkpt>
      <trkpt lat="42.7203380" lon="1.8401550">
        <ele>717.6</ele>
        <time>2020-07-22T12:42:07Z</time>
      </trkpt>
      <trkpt lat="42.7203600" lon="1.8400780">
        <ele>717.0</ele>
        <time>2020-07-22T12:42:08Z</time>
      </trkpt>
      <trkpt lat="42.7204130" lon="1.8398990">
        <ele>717.0</ele>
        <time>2020-07-22T12:42:11Z</time>
      </trkpt>
      <trkpt lat="42.7204370" lon="1.8398560">
        <ele>717.0</ele>
        <time>2020-07-22T12:42:12Z</time>
      </trkpt>
      <trkpt lat="42.7205280" lon="1.8397670">
        <ele>717.0</ele>
        <time>2020-07-22T12:42:15Z</time>
      </trkpt>
      <trkpt lat="42.7205540" lon="1.8396430">
        <ele>716.4</ele>
        <time>2020-07-22T12:42:17Z</time>
      </trkpt>
      <trkpt lat="42.7205590" lon="1.8395420">
        <ele>715.2</ele>
        <time>2020-07-22T12:44:26Z</time>
      </trkpt>
      <trkpt lat="42.7205630" lon="1.8394420">
        <ele>715.2</ele>
        <time>2020-07-22T12:44:27Z</time>
      </trkpt>
      <trkpt lat="42.7206900" lon="1.8392130">
        <ele>714.4</ele>
        <time>2020-07-22T12:44:31Z</time>
      </trkpt>
      <trkpt lat="42.7207250" lon="1.8391490">
        <ele>713.4</ele>
        <time>2020-07-22T12:44:32Z</time>
      </trkpt>
      <trkpt lat="42.7207610" lon="1.8390820">
        <ele>712.6</ele>
        <time>2020-07-22T12:44:33Z</time>
      </trkpt>
      <trkpt lat="42.7207970" lon="1.8390120">
        <ele>712.0</ele>
        <time>2020-07-22T12:44:34Z</time>
      </trkpt>
      <trkpt lat="42.7208350" lon="1.8389400">
        <ele>711.4</ele>
        <time>2020-07-22T12:44:35Z</time>
      </trkpt>
      <trkpt lat="42.7209090" lon="1.8388030">
        <ele>710.6</ele>
        <time>2020-07-22T12:44:37Z</time>
      </trkpt>
      <trkpt lat="42.7211130" lon="1.8384300">
        <ele>709.6</ele>
        <time>2020-07-22T12:44:43Z</time>
      </trkpt>
      <trkpt lat="42.7211480" lon="1.8383740">
        <ele>709.2</ele>
        <time>2020-07-22T12:44:44Z</time>
      </trkpt>
      <trkpt lat="42.7212570" lon="1.8382010">
        <ele>708.4</ele>
        <time>2020-07-22T12:44:47Z</time>
      </trkpt>
      <trkpt lat="42.7213590" lon="1.8380190">
        <ele>707.2</ele>
        <time>2020-07-22T12:44:50Z</time>
      </trkpt>
      <trkpt lat="42.7214740" lon="1.8378240">
        <ele>707.0</ele>
        <time>2020-07-22T12:44:53Z</time>
      </trkpt>
      <trkpt lat="42.7216320" lon="1.8375490">
        <ele>706.6</ele>
        <time>2020-07-22T12:44:57Z</time>
      </trkpt>
      <trkpt lat="42.7217590" lon="1.8373410">
        <ele>705.8</ele>
        <time>2020-07-22T12:45:00Z</time>
      </trkpt>
      <trkpt lat="42.7219210" lon="1.8370520">
        <ele>704.8</ele>
        <time>2020-07-22T12:45:04Z</time>
      </trkpt>
      <trkpt lat="42.7220570" lon="1.8368490">
        <ele>704.2</ele>
        <time>2020-07-22T12:45:07Z</time>
      </trkpt>
      <trkpt lat="42.7222740" lon="1.8365190">
        <ele>703.8</ele>
        <time>2020-07-22T12:45:12Z</time>
      </trkpt>
      <trkpt lat="42.7223060" lon="1.8364420">
        <ele>703.8</ele>
        <time>2020-07-22T12:45:13Z</time>
      </trkpt>
      <trkpt lat="42.7223900" lon="1.8363030">
        <ele>703.6</ele>
        <time>2020-07-22T12:45:15Z</time>
      </trkpt>
      <trkpt lat="42.7224780" lon="1.8361660">
        <ele>703.4</ele>
        <time>2020-07-22T12:45:17Z</time>
      </trkpt>
      <trkpt lat="42.7225650" lon="1.8360320">
        <ele>703.2</ele>
        <time>2020-07-22T12:45:19Z</time>
      </trkpt>
      <trkpt lat="42.7226110" lon="1.8359670">
        <ele>703.0</ele>
        <time>2020-07-22T12:45:20Z</time>
      </trkpt>
      <trkpt lat="42.7226590" lon="1.8359020">
        <ele>702.8</ele>
        <time>2020-07-22T12:45:21Z</time>
      </trkpt>
      <trkpt lat="42.7227060" lon="1.8358330">
        <ele>702.4</ele>
        <time>2020-07-22T12:45:22Z</time>
      </trkpt>
      <trkpt lat="42.7228460" lon="1.8355970">
        <ele>701.8</ele>
        <time>2020-07-22T12:45:25Z</time>
      </trkpt>
      <trkpt lat="42.7229470" lon="1.8354390">
        <ele>701.2</ele>
        <time>2020-07-22T12:45:27Z</time>
      </trkpt>
      <trkpt lat="42.7230970" lon="1.8351920">
        <ele>700.0</ele>
        <time>2020-07-22T12:45:30Z</time>
      </trkpt>
      <trkpt lat="42.7232400" lon="1.8349450">
        <ele>698.8</ele>
        <time>2020-07-22T12:45:33Z</time>
      </trkpt>
      <trkpt lat="42.7233240" lon="1.8347750">
        <ele>698.6</ele>
        <time>2020-07-22T12:45:35Z</time>
      </trkpt>
      <trkpt lat="42.7235000" lon="1.8344520">
        <ele>698.2</ele>
        <time>2020-07-22T12:45:39Z</time>
      </trkpt>
      <trkpt lat="42.7236740" lon="1.8341440">
        <ele>698.6</ele>
        <time>2020-07-22T12:45:43Z</time>
      </trkpt>
      <trkpt lat="42.7237170" lon="1.8340700">
        <ele>698.8</ele>
        <time>2020-07-22T12:45:44Z</time>
      </trkpt>
      <trkpt lat="42.7238010" lon="1.8339200">
        <ele>699.0</ele>
        <time>2020-07-22T12:45:46Z</time>
      </trkpt>
      <trkpt lat="42.7238910" lon="1.8337800">
        <ele>698.8</ele>
        <time>2020-07-22T12:45:48Z</time>
      </trkpt>
      <trkpt lat="42.7240270" lon="1.8335870">
        <ele>699.0</ele>
        <time>2020-07-22T12:45:51Z</time>
      </trkpt>
      <trkpt lat="42.7243010" lon="1.8332190">
        <ele>699.4</ele>
        <time>2020-07-22T12:45:57Z</time>
      </trkpt>
      <trkpt lat="42.7243930" lon="1.8330940">
        <ele>699.4</ele>
        <time>2020-07-22T12:45:59Z</time>
      </trkpt>
      <trkpt lat="42.7246600" lon="1.8327220">
        <ele>699.2</ele>
        <time>2020-07-22T12:46:05Z</time>
      </trkpt>
      <trkpt lat="42.7247510" lon="1.8325940">
        <ele>699.2</ele>
        <time>2020-07-22T12:46:07Z</time>
      </trkpt>
      <trkpt lat="42.7250360" lon="1.8322140">
        <ele>699.6</ele>
        <time>2020-07-22T12:46:13Z</time>
      </trkpt>
      <trkpt lat="42.7250830" lon="1.8321500">
        <ele>699.6</ele>
        <time>2020-07-22T12:46:14Z</time>
      </trkpt>
      <trkpt lat="42.7251310" lon="1.8320880">
        <ele>699.6</ele>
        <time>2020-07-22T12:46:15Z</time>
      </trkpt>
      <trkpt lat="42.7253170" lon="1.8318370">
        <ele>699.2</ele>
        <time>2020-07-22T12:46:19Z</time>
      </trkpt>
      <trkpt lat="42.7254090" lon="1.8317110">
        <ele>699.0</ele>
        <time>2020-07-22T12:46:21Z</time>
      </trkpt>
      <trkpt lat="42.7255870" lon="1.8314660">
        <ele>698.8</ele>
        <time>2020-07-22T12:46:25Z</time>
      </trkpt>
      <trkpt lat="42.7257310" lon="1.8312790">
        <ele>698.8</ele>
        <time>2020-07-22T12:46:28Z</time>
      </trkpt>
      <trkpt lat="42.7259370" lon="1.8310400">
        <ele>698.6</ele>
        <time>2020-07-22T12:46:32Z</time>
      </trkpt>
      <trkpt lat="42.7260950" lon="1.8308690">
        <ele>697.8</ele>
        <time>2020-07-22T12:46:35Z</time>
      </trkpt>
      <trkpt lat="42.7263130" lon="1.8306260">
        <ele>696.4</ele>
        <time>2020-07-22T12:46:39Z</time>
      </trkpt>
      <trkpt lat="42.7264240" lon="1.8304970">
        <ele>696.0</ele>
        <time>2020-07-22T12:46:41Z</time>
      </trkpt>
      <trkpt lat="42.7265910" lon="1.8302990">
        <ele>695.4</ele>
        <time>2020-07-22T12:46:44Z</time>
      </trkpt>
      <trkpt lat="42.7267570" lon="1.8300820">
        <ele>694.2</ele>
        <time>2020-07-22T12:46:47Z</time>
      </trkpt>
      <trkpt lat="42.7268610" lon="1.8299300">
        <ele>693.8</ele>
        <time>2020-07-22T12:46:49Z</time>
      </trkpt>
      <trkpt lat="42.7270160" lon="1.8296890">
        <ele>693.2</ele>
        <time>2020-07-22T12:46:52Z</time>
      </trkpt>
      <trkpt lat="42.7271170" lon="1.8295140">
        <ele>692.8</ele>
        <time>2020-07-22T12:46:54Z</time>
      </trkpt>
      <trkpt lat="42.7272140" lon="1.8293280">
        <ele>692.0</ele>
        <time>2020-07-22T12:46:56Z</time>
      </trkpt>
      <trkpt lat="42.7274900" lon="1.8287390">
        <ele>691.0</ele>
        <time>2020-07-22T12:47:02Z</time>
      </trkpt>
      <trkpt lat="42.7276620" lon="1.8283510">
        <ele>691.0</ele>
        <time>2020-07-22T12:47:06Z</time>
      </trkpt>
      <trkpt lat="42.7278370" lon="1.8279810">
        <ele>690.8</ele>
        <time>2020-07-22T12:47:10Z</time>
      </trkpt>
      <trkpt lat="42.7280980" lon="1.8274730">
        <ele>690.4</ele>
        <time>2020-07-22T12:47:16Z</time>
      </trkpt>
      <trkpt lat="42.7281780" lon="1.8273050">
        <ele>690.4</ele>
        <time>2020-07-22T12:47:18Z</time>
      </trkpt>
      <trkpt lat="42.7284300" lon="1.8268120">
        <ele>690.6</ele>
        <time>2020-07-22T12:47:24Z</time>
      </trkpt>
      <trkpt lat="42.7284720" lon="1.8267290">
        <ele>690.4</ele>
        <time>2020-07-22T12:47:25Z</time>
      </trkpt>
      <trkpt lat="42.7285140" lon="1.8266430">
        <ele>690.0</ele>
        <time>2020-07-22T12:47:26Z</time>
      </trkpt>
      <trkpt lat="42.7287340" lon="1.8261330">
        <ele>689.8</ele>
        <time>2020-07-22T12:47:32Z</time>
      </trkpt>
      <trkpt lat="42.7289510" lon="1.8256800">
        <ele>690.4</ele>
        <time>2020-07-22T12:47:38Z</time>
      </trkpt>
      <trkpt lat="42.7290220" lon="1.8255430">
        <ele>690.8</ele>
        <time>2020-07-22T12:47:40Z</time>
      </trkpt>
      <trkpt lat="42.7290550" lon="1.8254720">
        <ele>691.0</ele>
        <time>2020-07-22T12:47:41Z</time>
      </trkpt>
      <trkpt lat="42.7291760" lon="1.8251850">
        <ele>692.2</ele>
        <time>2020-07-22T12:47:45Z</time>
      </trkpt>
      <trkpt lat="42.7291990" lon="1.8251110">
        <ele>692.6</ele>
        <time>2020-07-22T12:47:46Z</time>
      </trkpt>
      <trkpt lat="42.7292240" lon="1.8250380">
        <ele>692.8</ele>
        <time>2020-07-22T12:47:47Z</time>
      </trkpt>
      <trkpt lat="42.7292750" lon="1.8248920">
        <ele>693.4</ele>
        <time>2020-07-22T12:47:49Z</time>
      </trkpt>
      <trkpt lat="42.7292980" lon="1.8248160">
        <ele>693.4</ele>
        <time>2020-07-22T12:47:50Z</time>
      </trkpt>
      <trkpt lat="42.7293900" lon="1.8245210">
        <ele>694.6</ele>
        <time>2020-07-22T12:47:54Z</time>
      </trkpt>
      <trkpt lat="42.7295050" lon="1.8240370">
        <ele>695.2</ele>
        <time>2020-07-22T12:48:00Z</time>
      </trkpt>
      <trkpt lat="42.7295230" lon="1.8239510">
        <ele>695.2</ele>
        <time>2020-07-22T12:48:01Z</time>
      </trkpt>
      <trkpt lat="42.7296190" lon="1.8235030">
        <ele>694.6</ele>
        <time>2020-07-22T12:48:06Z</time>
      </trkpt>
      <trkpt lat="42.7296710" lon="1.8232150">
        <ele>694.4</ele>
        <time>2020-07-22T12:48:09Z</time>
      </trkpt>
      <trkpt lat="42.7297090" lon="1.8229030">
        <ele>693.2</ele>
        <time>2020-07-22T12:48:12Z</time>
      </trkpt>
      <trkpt lat="42.7297320" lon="1.8226790">
        <ele>692.4</ele>
        <time>2020-07-22T12:48:14Z</time>
      </trkpt>
      <trkpt lat="42.7297400" lon="1.8225610">
        <ele>692.0</ele>
        <time>2020-07-22T12:48:15Z</time>
      </trkpt>
      <trkpt lat="42.7297470" lon="1.8223120">
        <ele>691.0</ele>
        <time>2020-07-22T12:48:17Z</time>
      </trkpt>
      <trkpt lat="42.7297510" lon="1.8221820">
        <ele>690.4</ele>
        <time>2020-07-22T12:48:18Z</time>
      </trkpt>
      <trkpt lat="42.7297510" lon="1.8219140">
        <ele>689.2</ele>
        <time>2020-07-22T12:48:20Z</time>
      </trkpt>
      <trkpt lat="42.7297480" lon="1.8217790">
        <ele>688.2</ele>
        <time>2020-07-22T12:48:21Z</time>
      </trkpt>
      <trkpt lat="42.7297400" lon="1.8216440">
        <ele>687.4</ele>
        <time>2020-07-22T12:48:22Z</time>
      </trkpt>
      <trkpt lat="42.7297310" lon="1.8215060">
        <ele>686.6</ele>
        <time>2020-07-22T12:48:23Z</time>
      </trkpt>
      <trkpt lat="42.7297200" lon="1.8213610">
        <ele>685.6</ele>
        <time>2020-07-22T12:48:24Z</time>
      </trkpt>
      <trkpt lat="42.7296960" lon="1.8210610">
        <ele>684.0</ele>
        <time>2020-07-22T12:48:26Z</time>
      </trkpt>
      <trkpt lat="42.7296670" lon="1.8207510">
        <ele>682.2</ele>
        <time>2020-07-22T12:48:28Z</time>
      </trkpt>
      <trkpt lat="42.7296380" lon="1.8204360">
        <ele>680.8</ele>
        <time>2020-07-22T12:48:30Z</time>
      </trkpt>
      <trkpt lat="42.7296090" lon="1.8201220">
        <ele>679.6</ele>
        <time>2020-07-22T12:48:32Z</time>
      </trkpt>
      <trkpt lat="42.7295780" lon="1.8198090">
        <ele>678.4</ele>
        <time>2020-07-22T12:48:34Z</time>
      </trkpt>
      <trkpt lat="42.7295410" lon="1.8194980">
        <ele>677.2</ele>
        <time>2020-07-22T12:48:36Z</time>
      </trkpt>
      <trkpt lat="42.7294440" lon="1.8189010">
        <ele>676.0</ele>
        <time>2020-07-22T12:48:40Z</time>
      </trkpt>
      <trkpt lat="42.7293520" lon="1.8184690">
        <ele>674.8</ele>
        <time>2020-07-22T12:48:43Z</time>
      </trkpt>
      <trkpt lat="42.7292290" lon="1.8179170">
        <ele>674.2</ele>
        <time>2020-07-22T12:48:47Z</time>
      </trkpt>
      <trkpt lat="42.7291550" lon="1.8175240">
        <ele>674.0</ele>
        <time>2020-07-22T12:48:50Z</time>
      </trkpt>
      <trkpt lat="42.7291150" lon="1.8171410">
        <ele>674.0</ele>
        <time>2020-07-22T12:48:53Z</time>
      </trkpt>
      <trkpt lat="42.7291180" lon="1.8170120">
        <ele>674.2</ele>
        <time>2020-07-22T12:48:54Z</time>
      </trkpt>
      <trkpt lat="42.7291610" lon="1.8166210">
        <ele>674.2</ele>
        <time>2020-07-22T12:48:57Z</time>
      </trkpt>
      <trkpt lat="42.7292160" lon="1.8163690">
        <ele>674.0</ele>
        <time>2020-07-22T12:48:59Z</time>
      </trkpt>
      <trkpt lat="42.7292860" lon="1.8161250">
        <ele>673.8</ele>
        <time>2020-07-22T12:49:01Z</time>
      </trkpt>
      <trkpt lat="42.7293220" lon="1.8160060">
        <ele>673.6</ele>
        <time>2020-07-22T12:49:02Z</time>
      </trkpt>
      <trkpt lat="42.7295280" lon="1.8152990">
        <ele>673.0</ele>
        <time>2020-07-22T12:49:08Z</time>
      </trkpt>
      <trkpt lat="42.7296080" lon="1.8150690">
        <ele>673.0</ele>
        <time>2020-07-22T12:49:09Z</time>
      </trkpt>
      <trkpt lat="42.7296080" lon="1.8150690">
        <ele>673.0</ele>
        <time>2020-07-22T12:49:10Z</time>
      </trkpt>
      <trkpt lat="42.7298420" lon="1.8143710">
        <ele>672.8</ele>
        <time>2020-07-22T12:49:16Z</time>
      </trkpt>
      <trkpt lat="42.7298780" lon="1.8142520">
        <ele>672.8</ele>
        <time>2020-07-22T12:49:17Z</time>
      </trkpt>
      <trkpt lat="42.7301100" lon="1.8135530">
        <ele>672.2</ele>
        <time>2020-07-22T12:49:23Z</time>
      </trkpt>
      <trkpt lat="42.7301840" lon="1.8133210">
        <ele>672.2</ele>
        <time>2020-07-22T12:49:25Z</time>
      </trkpt>
      <trkpt lat="42.7304070" lon="1.8126260">
        <ele>671.6</ele>
        <time>2020-07-22T12:49:31Z</time>
      </trkpt>
      <trkpt lat="42.7305200" lon="1.8122820">
        <ele>671.4</ele>
        <time>2020-07-22T12:49:34Z</time>
      </trkpt>
      <trkpt lat="42.7305580" lon="1.8121680">
        <ele>671.4</ele>
        <time>2020-07-22T12:49:35Z</time>
      </trkpt>
      <trkpt lat="42.7307370" lon="1.8116130">
        <ele>671.2</ele>
        <time>2020-07-22T12:49:40Z</time>
      </trkpt>
      <trkpt lat="42.7308440" lon="1.8112990">
        <ele>671.0</ele>
        <time>2020-07-22T12:49:43Z</time>
      </trkpt>
      <trkpt lat="42.7309930" lon="1.8108720">
        <ele>670.6</ele>
        <time>2020-07-22T12:49:47Z</time>
      </trkpt>
      <trkpt lat="42.7311420" lon="1.8104500">
        <ele>669.8</ele>
        <time>2020-07-22T12:49:51Z</time>
      </trkpt>
      <trkpt lat="42.7312470" lon="1.8101390">
        <ele>669.8</ele>
        <time>2020-07-22T12:49:54Z</time>
      </trkpt>
      <trkpt lat="42.7314230" lon="1.8095130">
        <ele>669.8</ele>
        <time>2020-07-22T12:50:00Z</time>
      </trkpt>
      <trkpt lat="42.7314900" lon="1.8091960">
        <ele>669.4</ele>
        <time>2020-07-22T12:50:03Z</time>
      </trkpt>
      <trkpt lat="42.7315580" lon="1.8087620">
        <ele>669.2</ele>
        <time>2020-07-22T12:50:07Z</time>
      </trkpt>
      <trkpt lat="42.7315810" lon="1.8080860">
        <ele>669.0</ele>
        <time>2020-07-22T12:50:13Z</time>
      </trkpt>
      <trkpt lat="42.7315580" lon="1.8076370">
        <ele>669.2</ele>
        <time>2020-07-22T12:50:17Z</time>
      </trkpt>
      <trkpt lat="42.7315310" lon="1.8070960">
        <ele>669.4</ele>
        <time>2020-07-22T12:50:22Z</time>
      </trkpt>
      <trkpt lat="42.7315160" lon="1.8068850">
        <ele>669.2</ele>
        <time>2020-07-22T12:50:24Z</time>
      </trkpt>
      <trkpt lat="42.7314780" lon="1.8062600">
        <ele>669.6</ele>
        <time>2020-07-22T12:50:30Z</time>
      </trkpt>
      <trkpt lat="42.7312590" lon="1.8052050">
        <ele>669.8</ele>
        <time>2020-07-22T12:51:34Z</time>
      </trkpt>
      <trkpt lat="42.7312640" lon="1.8051690">
        <ele>669.4</ele>
        <time>2020-07-22T12:51:35Z</time>
      </trkpt>
      <trkpt lat="42.7312860" lon="1.8051000">
        <ele>669.0</ele>
        <time>2020-07-22T12:51:36Z</time>
      </trkpt>
      <trkpt lat="42.7313460" lon="1.8049680">
        <ele>668.8</ele>
        <time>2020-07-22T12:51:38Z</time>
      </trkpt>
      <trkpt lat="42.7313760" lon="1.8049010">
        <ele>668.8</ele>
        <time>2020-07-22T12:51:39Z</time>
      </trkpt>
      <trkpt lat="42.7314780" lon="1.8046330">
        <ele>668.4</ele>
        <time>2020-07-22T12:51:43Z</time>
      </trkpt>
      <trkpt lat="42.7315380" lon="1.8044290">
        <ele>668.4</ele>
        <time>2020-07-22T12:51:46Z</time>
      </trkpt>
      <trkpt lat="42.7316300" lon="1.8040260">
        <ele>668.8</ele>
        <time>2020-07-22T12:51:52Z</time>
      </trkpt>
      <trkpt lat="42.7316520" lon="1.8039550">
        <ele>668.6</ele>
        <time>2020-07-22T12:51:53Z</time>
      </trkpt>
      <trkpt lat="42.7318440" lon="1.8034670">
        <ele>667.8</ele>
        <time>2020-07-22T12:51:59Z</time>
      </trkpt>
      <trkpt lat="42.7319340" lon="1.8032930">
        <ele>667.4</ele>
        <time>2020-07-22T12:52:01Z</time>
      </trkpt>
      <trkpt lat="42.7321380" lon="1.8029710">
        <ele>666.6</ele>
        <time>2020-07-22T12:52:05Z</time>
      </trkpt>
      <trkpt lat="42.7321920" lon="1.8028930">
        <ele>666.6</ele>
        <time>2020-07-22T12:52:06Z</time>
      </trkpt>
      <trkpt lat="42.7323520" lon="1.8026540">
        <ele>666.2</ele>
        <time>2020-07-22T12:52:09Z</time>
      </trkpt>
      <trkpt lat="42.7325140" lon="1.8024100">
        <ele>666.2</ele>
        <time>2020-07-22T12:52:12Z</time>
      </trkpt>
      <trkpt lat="42.7325690" lon="1.8023310">
        <ele>666.2</ele>
        <time>2020-07-22T12:52:13Z</time>
      </trkpt>
      <trkpt lat="42.7327300" lon="1.8021000">
        <ele>666.6</ele>
        <time>2020-07-22T12:52:16Z</time>
      </trkpt>
      <trkpt lat="42.7328780" lon="1.8018680">
        <ele>667.4</ele>
        <time>2020-07-22T12:52:19Z</time>
      </trkpt>
      <trkpt lat="42.7329710" lon="1.8017190">
        <ele>668.2</ele>
        <time>2020-07-22T12:52:21Z</time>
      </trkpt>
      <trkpt lat="42.7330160" lon="1.8016530">
        <ele>668.6</ele>
        <time>2020-07-22T12:52:22Z</time>
      </trkpt>
      <trkpt lat="42.7331080" lon="1.8015390">
        <ele>669.2</ele>
        <time>2020-07-22T12:52:24Z</time>
      </trkpt>
      <trkpt lat="42.7332110" lon="1.8014500">
        <ele>669.6</ele>
        <time>2020-07-22T12:52:26Z</time>
      </trkpt>
      <trkpt lat="42.7332640" lon="1.8014030">
        <ele>669.6</ele>
        <time>2020-07-22T12:52:27Z</time>
      </trkpt>
      <trkpt lat="42.7333160" lon="1.8013490">
        <ele>669.6</ele>
        <time>2020-07-22T12:52:28Z</time>
      </trkpt>
      <trkpt lat="42.7334090" lon="1.8012160">
        <ele>669.8</ele>
        <time>2020-07-22T12:52:30Z</time>
      </trkpt>
      <trkpt lat="42.7334480" lon="1.8011360">
        <ele>669.6</ele>
        <time>2020-07-22T12:52:31Z</time>
      </trkpt>
      <trkpt lat="42.7336310" lon="1.8006890">
        <ele>669.0</ele>
        <time>2020-07-22T12:52:36Z</time>
      </trkpt>
      <trkpt lat="42.7337250" lon="1.8004280">
        <ele>668.6</ele>
        <time>2020-07-22T12:52:39Z</time>
      </trkpt>
      <trkpt lat="42.7337930" lon="1.8001740">
        <ele>668.4</ele>
        <time>2020-07-22T12:52:42Z</time>
      </trkpt>
      <trkpt lat="42.7338310" lon="1.8000150">
        <ele>668.6</ele>
        <time>2020-07-22T12:52:44Z</time>
      </trkpt>
      <trkpt lat="42.7339200" lon="1.7997120">
        <ele>669.0</ele>
        <time>2020-07-22T12:52:48Z</time>
      </trkpt>
      <trkpt lat="42.7340000" lon="1.7994870">
        <ele>669.2</ele>
        <time>2020-07-22T12:52:51Z</time>
      </trkpt>
      <trkpt lat="42.7340680" lon="1.7992570">
        <ele>669.6</ele>
        <time>2020-07-22T12:52:54Z</time>
      </trkpt>
      <trkpt lat="42.7340910" lon="1.7991810">
        <ele>669.6</ele>
        <time>2020-07-22T12:52:55Z</time>
      </trkpt>
      <trkpt lat="42.7341170" lon="1.7991070">
        <ele>669.6</ele>
        <time>2020-07-22T12:52:56Z</time>
      </trkpt>
      <trkpt lat="42.7342070" lon="1.7988930">
        <ele>670.6</ele>
        <time>2020-07-22T12:52:59Z</time>
      </trkpt>
      <trkpt lat="42.7342400" lon="1.7988260">
        <ele>670.8</ele>
        <time>2020-07-22T12:53:00Z</time>
      </trkpt>
      <trkpt lat="42.7344570" lon="1.7984320">
        <ele>671.4</ele>
        <time>2020-07-22T12:53:06Z</time>
      </trkpt>
      <trkpt lat="42.7344860" lon="1.7983640">
        <ele>671.4</ele>
        <time>2020-07-22T12:53:07Z</time>
      </trkpt>
      <trkpt lat="42.7345540" lon="1.7981700">
        <ele>672.0</ele>
        <time>2020-07-22T12:53:09Z</time>
      </trkpt>
      <trkpt lat="42.7345720" lon="1.7980770">
        <ele>672.6</ele>
        <time>2020-07-22T12:53:12Z</time>
      </trkpt>
      <trkpt lat="42.7345710" lon="1.7979940">
        <ele>673.0</ele>
        <time>2020-07-22T12:53:16Z</time>
      </trkpt>
      <trkpt lat="42.7345660" lon="1.7979680">
        <ele>673.2</ele>
        <time>2020-07-22T12:53:17Z</time>
      </trkpt>
      <trkpt lat="42.7345740" lon="1.7978210">
        <ele>673.4</ele>
        <time>2020-07-22T12:53:21Z</time>
      </trkpt>
      <trkpt lat="42.7346210" lon="1.7975450">
        <ele>674.0</ele>
        <time>2020-07-22T12:53:27Z</time>
      </trkpt>
      <trkpt lat="42.7346370" lon="1.7974430">
        <ele>674.2</ele>
        <time>2020-07-22T12:53:29Z</time>
      </trkpt>
      <trkpt lat="42.7346600" lon="1.7972700">
        <ele>674.6</ele>
        <time>2020-07-22T12:53:32Z</time>
      </trkpt>
      <trkpt lat="42.7347030" lon="1.7970830">
        <ele>675.0</ele>
        <time>2020-07-22T12:53:35Z</time>
      </trkpt>
      <trkpt lat="42.7347510" lon="1.7968670">
        <ele>675.4</ele>
        <time>2020-07-22T12:53:38Z</time>
      </trkpt>
      <trkpt lat="42.7348190" lon="1.7965630">
        <ele>675.8</ele>
        <time>2020-07-22T12:53:42Z</time>
      </trkpt>
      <trkpt lat="42.7348410" lon="1.7964850">
        <ele>675.8</ele>
        <time>2020-07-22T12:53:43Z</time>
      </trkpt>
      <trkpt lat="42.7349640" lon="1.7961650">
        <ele>675.6</ele>
        <time>2020-07-22T12:53:47Z</time>
      </trkpt>
      <trkpt lat="42.7351740" lon="1.7956600">
        <ele>675.6</ele>
        <time>2020-07-22T12:53:53Z</time>
      </trkpt>
      <trkpt lat="42.7352300" lon="1.7953080">
        <ele>674.6</ele>
        <time>2020-07-22T12:53:57Z</time>
      </trkpt>
      <trkpt lat="42.7352440" lon="1.7952390">
        <ele>674.2</ele>
        <time>2020-07-22T12:53:58Z</time>
      </trkpt>
      <trkpt lat="42.7353260" lon="1.7950800">
        <ele>673.4</ele>
        <time>2020-07-22T12:54:01Z</time>
      </trkpt>
      <trkpt lat="42.7353660" lon="1.7950550">
        <ele>673.2</ele>
        <time>2020-07-22T12:54:02Z</time>
      </trkpt>
      <trkpt lat="42.7354100" lon="1.7950430">
        <ele>672.8</ele>
        <time>2020-07-22T12:54:03Z</time>
      </trkpt>
      <trkpt lat="42.7354610" lon="1.7950390">
        <ele>672.6</ele>
        <time>2020-07-22T12:54:04Z</time>
      </trkpt>
      <trkpt lat="42.7355160" lon="1.7950320">
        <ele>672.2</ele>
        <time>2020-07-22T12:54:05Z</time>
      </trkpt>
      <trkpt lat="42.7355780" lon="1.7950180">
        <ele>671.8</ele>
        <time>2020-07-22T12:54:06Z</time>
      </trkpt>
      <trkpt lat="42.7356430" lon="1.7949860">
        <ele>671.4</ele>
        <time>2020-07-22T12:54:07Z</time>
      </trkpt>
      <trkpt lat="42.7357070" lon="1.7949370">
        <ele>670.8</ele>
        <time>2020-07-22T12:54:08Z</time>
      </trkpt>
      <trkpt lat="42.7357680" lon="1.7948760">
        <ele>670.0</ele>
        <time>2020-07-22T12:54:09Z</time>
      </trkpt>
      <trkpt lat="42.7358300" lon="1.7948140">
        <ele>669.6</ele>
        <time>2020-07-22T12:54:10Z</time>
      </trkpt>
      <trkpt lat="42.7359960" lon="1.7946350">
        <ele>668.4</ele>
        <time>2020-07-22T12:54:13Z</time>
      </trkpt>
      <trkpt lat="42.7360920" lon="1.7944840">
        <ele>668.4</ele>
        <time>2020-07-22T12:54:16Z</time>
      </trkpt>
      <trkpt lat="42.7361040" lon="1.7944410">
        <ele>668.4</ele>
        <time>2020-07-22T12:54:17Z</time>
      </trkpt>
      <trkpt lat="42.7361150" lon="1.7941820">
        <ele>668.6</ele>
        <time>2020-07-22T12:54:22Z</time>
      </trkpt>
      <trkpt lat="42.7360500" lon="1.7940520">
        <ele>668.4</ele>
        <time>2020-07-22T12:54:24Z</time>
      </trkpt>
      <trkpt lat="42.7360120" lon="1.7939850">
        <ele>668.4</ele>
        <time>2020-07-22T12:54:25Z</time>
      </trkpt>
      <trkpt lat="42.7359770" lon="1.7939150">
        <ele>668.4</ele>
        <time>2020-07-22T12:54:26Z</time>
      </trkpt>
      <trkpt lat="42.7359350" lon="1.7937630">
        <ele>668.2</ele>
        <time>2020-07-22T12:54:28Z</time>
      </trkpt>
      <trkpt lat="42.7359230" lon="1.7936840">
        <ele>668.0</ele>
        <time>2020-07-22T12:54:29Z</time>
      </trkpt>
      <trkpt lat="42.7359020" lon="1.7934420">
        <ele>667.8</ele>
        <time>2020-07-22T12:54:32Z</time>
      </trkpt>
      <trkpt lat="42.7359270" lon="1.7932740">
        <ele>667.4</ele>
        <time>2020-07-22T12:54:34Z</time>
      </trkpt>
      <trkpt lat="42.7359460" lon="1.7931850">
        <ele>667.0</ele>
        <time>2020-07-22T12:54:35Z</time>
      </trkpt>
      <trkpt lat="42.7359710" lon="1.7930950">
        <ele>666.6</ele>
        <time>2020-07-22T12:54:36Z</time>
      </trkpt>
      <trkpt lat="42.7360490" lon="1.7929120">
        <ele>666.2</ele>
        <time>2020-07-22T12:54:38Z</time>
      </trkpt>
      <trkpt lat="42.7361830" lon="1.7926080">
        <ele>664.6</ele>
        <time>2020-07-22T12:54:41Z</time>
      </trkpt>
      <trkpt lat="42.7362850" lon="1.7923950">
        <ele>663.0</ele>
        <time>2020-07-22T12:54:43Z</time>
      </trkpt>
      <trkpt lat="42.7363450" lon="1.7922980">
        <ele>662.2</ele>
        <time>2020-07-22T12:54:44Z</time>
      </trkpt>
      <trkpt lat="42.7364130" lon="1.7922130">
        <ele>661.2</ele>
        <time>2020-07-22T12:54:45Z</time>
      </trkpt>
      <trkpt lat="42.7364950" lon="1.7921420">
        <ele>660.2</ele>
        <time>2020-07-22T12:54:46Z</time>
      </trkpt>
      <trkpt lat="42.7365810" lon="1.7920810">
        <ele>659.6</ele>
        <time>2020-07-22T12:54:47Z</time>
      </trkpt>
      <trkpt lat="42.7366740" lon="1.7920350">
        <ele>658.8</ele>
        <time>2020-07-22T12:54:48Z</time>
      </trkpt>
      <trkpt lat="42.7367690" lon="1.7919950">
        <ele>657.8</ele>
        <time>2020-07-22T12:54:49Z</time>
      </trkpt>
      <trkpt lat="42.7368630" lon="1.7919670">
        <ele>656.8</ele>
        <time>2020-07-22T12:54:50Z</time>
      </trkpt>
      <trkpt lat="42.7369580" lon="1.7919400">
        <ele>656.0</ele>
        <time>2020-07-22T12:54:51Z</time>
      </trkpt>
      <trkpt lat="42.7371550" lon="1.7919060">
        <ele>655.0</ele>
        <time>2020-07-22T12:54:53Z</time>
      </trkpt>
      <trkpt lat="42.7372550" lon="1.7919060">
        <ele>654.4</ele>
        <time>2020-07-22T12:54:54Z</time>
      </trkpt>
      <trkpt lat="42.7373500" lon="1.7919200">
        <ele>654.0</ele>
        <time>2020-07-22T12:54:55Z</time>
      </trkpt>
      <trkpt lat="42.7374310" lon="1.7919560">
        <ele>653.8</ele>
        <time>2020-07-22T12:54:56Z</time>
      </trkpt>
      <trkpt lat="42.7375670" lon="1.7920760">
        <ele>654.0</ele>
        <time>2020-07-22T12:54:58Z</time>
      </trkpt>
      <trkpt lat="42.7376710" lon="1.7922350">
        <ele>654.4</ele>
        <time>2020-07-22T12:55:00Z</time>
      </trkpt>
      <trkpt lat="42.7377530" lon="1.7923790">
        <ele>655.0</ele>
        <time>2020-07-22T12:55:02Z</time>
      </trkpt>
      <trkpt lat="42.7377870" lon="1.7924390">
        <ele>655.2</ele>
        <time>2020-07-22T12:55:03Z</time>
      </trkpt>
      <trkpt lat="42.7378540" lon="1.7925280">
        <ele>656.6</ele>
        <time>2020-07-22T12:55:05Z</time>
      </trkpt>
      <trkpt lat="42.7378850" lon="1.7925640">
        <ele>657.0</ele>
        <time>2020-07-22T12:55:06Z</time>
      </trkpt>
      <trkpt lat="42.7379160" lon="1.7925980">
        <ele>657.6</ele>
        <time>2020-07-22T12:55:07Z</time>
      </trkpt>
      <trkpt lat="42.7379650" lon="1.7927330">
        <ele>659.4</ele>
        <time>2020-07-22T12:55:09Z</time>
      </trkpt>
      <trkpt lat="42.7379650" lon="1.7927330">
        <ele>659.4</ele>
        <time>2020-07-22T12:55:10Z</time>
      </trkpt>
      <trkpt lat="42.7379430" lon="1.7928660">
        <ele>660.4</ele>
        <time>2020-07-22T12:55:13Z</time>
      </trkpt>
      <trkpt lat="42.7379320" lon="1.7929080">
        <ele>661.0</ele>
        <time>2020-07-22T12:55:14Z</time>
      </trkpt>
      <trkpt lat="42.7379220" lon="1.7929530">
        <ele>661.4</ele>
        <time>2020-07-22T12:55:15Z</time>
      </trkpt>
      <trkpt lat="42.7379630" lon="1.7931210">
        <ele>662.0</ele>
        <time>2020-07-22T12:55:19Z</time>
      </trkpt>
      <trkpt lat="42.7380220" lon="1.7931850">
        <ele>662.0</ele>
        <time>2020-07-22T12:55:21Z</time>
      </trkpt>
      <trkpt lat="42.7381500" lon="1.7932970">
        <ele>662.0</ele>
        <time>2020-07-22T12:55:25Z</time>
      </trkpt>
      <trkpt lat="42.7382170" lon="1.7933090">
        <ele>662.4</ele>
        <time>2020-07-22T12:55:27Z</time>
      </trkpt>
      <trkpt lat="42.7382750" lon="1.7932710">
        <ele>663.0</ele>
        <time>2020-07-22T12:55:29Z</time>
      </trkpt>
      <trkpt lat="42.7383580" lon="1.7931470">
        <ele>663.6</ele>
        <time>2020-07-22T12:55:33Z</time>
      </trkpt>
      <trkpt lat="42.7383880" lon="1.7931000">
        <ele>663.6</ele>
        <time>2020-07-22T12:55:35Z</time>
      </trkpt>
      <trkpt lat="42.7384760" lon="1.7929460">
        <ele>664.0</ele>
        <time>2020-07-22T12:55:41Z</time>
      </trkpt>
      <trkpt lat="42.7385150" lon="1.7928900">
        <ele>664.2</ele>
        <time>2020-07-22T12:55:43Z</time>
      </trkpt>
      <trkpt lat="42.7385530" lon="1.7928330">
        <ele>663.8</ele>
        <time>2020-07-22T12:56:19Z</time>
      </trkpt>
      <trkpt lat="42.7385920" lon="1.7927770">
        <ele>663.8</ele>
        <time>2020-07-22T12:56:20Z</time>
      </trkpt>
      <trkpt lat="42.7387270" lon="1.7925740">
        <ele>662.4</ele>
        <time>2020-07-22T12:56:24Z</time>
      </trkpt>
      <trkpt lat="42.7387650" lon="1.7925380">
        <ele>661.8</ele>
        <time>2020-07-22T12:56:25Z</time>
      </trkpt>
      <trkpt lat="42.7388250" lon="1.7925280">
        <ele>661.4</ele>
        <time>2020-07-22T12:56:27Z</time>
      </trkpt>
      <trkpt lat="42.7388480" lon="1.7925450">
        <ele>661.2</ele>
        <time>2020-07-22T12:56:28Z</time>
      </trkpt>
      <trkpt lat="42.7388740" lon="1.7926060">
        <ele>661.4</ele>
        <time>2020-07-22T12:56:30Z</time>
      </trkpt>
      <trkpt lat="42.7388700" lon="1.7926480">
        <ele>661.6</ele>
        <time>2020-07-22T12:56:31Z</time>
      </trkpt>
      <trkpt lat="42.7387700" lon="1.7927750">
        <ele>661.8</ele>
        <time>2020-07-22T12:56:35Z</time>
      </trkpt>
      <trkpt lat="42.7385970" lon="1.7930260">
        <ele>662.2</ele>
        <time>2020-07-22T12:56:40Z</time>
      </trkpt>
      <trkpt lat="42.7385620" lon="1.7930790">
        <ele>662.4</ele>
        <time>2020-07-22T12:56:41Z</time>
      </trkpt>
      <trkpt lat="42.7384510" lon="1.7932430">
        <ele>662.8</ele>
        <time>2020-07-22T12:56:44Z</time>
      </trkpt>
      <trkpt lat="42.7383750" lon="1.7933560">
        <ele>662.8</ele>
        <time>2020-07-22T12:56:46Z</time>
      </trkpt>
      <trkpt lat="42.7383010" lon="1.7934740">
        <ele>663.2</ele>
        <time>2020-07-22T12:56:48Z</time>
      </trkpt>
      <trkpt lat="42.7381390" lon="1.7937280">
        <ele>663.4</ele>
        <time>2020-07-22T12:56:52Z</time>
      </trkpt>
      <trkpt lat="42.7380570" lon="1.7938620">
        <ele>663.4</ele>
        <time>2020-07-22T12:56:54Z</time>
      </trkpt>
      <trkpt lat="42.7379740" lon="1.7939980">
        <ele>663.4</ele>
        <time>2020-07-22T12:56:56Z</time>
      </trkpt>
      <trkpt lat="42.7378040" lon="1.7942960">
        <ele>664.0</ele>
        <time>2020-07-22T12:57:00Z</time>
      </trkpt>
      <trkpt lat="42.7377250" lon="1.7944460">
        <ele>664.4</ele>
        <time>2020-07-22T12:57:02Z</time>
      </trkpt>
      <trkpt lat="42.7376580" lon="1.7946020">
        <ele>665.0</ele>
        <time>2020-07-22T12:57:04Z</time>
      </trkpt>
      <trkpt lat="42.7375940" lon="1.7947530">
        <ele>665.6</ele>
        <time>2020-07-22T12:57:06Z</time>
      </trkpt>
      <trkpt lat="42.7374840" lon="1.7950680">
        <ele>665.8</ele>
        <time>2020-07-22T12:57:09Z</time>
      </trkpt>
      <trkpt lat="42.7374840" lon="1.7950680">
        <ele>665.8</ele>
        <time>2020-07-22T12:57:10Z</time>
      </trkpt>
      <trkpt lat="42.7373340" lon="1.7955590">
        <ele>666.4</ele>
        <time>2020-07-22T12:57:16Z</time>
      </trkpt>
      <trkpt lat="42.7373130" lon="1.7956400">
        <ele>666.6</ele>
        <time>2020-07-22T12:57:17Z</time>
      </trkpt>
      <trkpt lat="42.7372940" lon="1.7957240">
        <ele>666.8</ele>
        <time>2020-07-22T12:57:18Z</time>
      </trkpt>
      <trkpt lat="42.7372120" lon="1.7961270">
        <ele>667.6</ele>
        <time>2020-07-22T12:57:23Z</time>
      </trkpt>
      <trkpt lat="42.7371570" lon="1.7963520">
        <ele>668.4</ele>
        <time>2020-07-22T12:57:26Z</time>
      </trkpt>
      <trkpt lat="42.7371410" lon="1.7964250">
        <ele>668.6</ele>
        <time>2020-07-22T12:57:27Z</time>
      </trkpt>
      <trkpt lat="42.7370940" lon="1.7966380">
        <ele>669.8</ele>
        <time>2020-07-22T12:57:30Z</time>
      </trkpt>
      <trkpt lat="42.7370380" lon="1.7969040">
        <ele>670.6</ele>
        <time>2020-07-22T12:57:34Z</time>
      </trkpt>
      <trkpt lat="42.7370240" lon="1.7969690">
        <ele>671.0</ele>
        <time>2020-07-22T12:57:35Z</time>
      </trkpt>
      <trkpt lat="42.7369540" lon="1.7972800">
        <ele>672.4</ele>
        <time>2020-07-22T12:57:40Z</time>
      </trkpt>
      <trkpt lat="42.7369320" lon="1.7973350">
        <ele>672.8</ele>
        <time>2020-07-22T12:57:41Z</time>
      </trkpt>
      <trkpt lat="42.7368380" lon="1.7975520">
        <ele>673.4</ele>
        <time>2020-07-22T12:57:45Z</time>
      </trkpt>
      <trkpt lat="42.7368170" lon="1.7976060">
        <ele>673.6</ele>
        <time>2020-07-22T12:57:46Z</time>
      </trkpt>
      <trkpt lat="42.7367940" lon="1.7976580">
        <ele>673.8</ele>
        <time>2020-07-22T12:57:47Z</time>
      </trkpt>
      <trkpt lat="42.7367710" lon="1.7977110">
        <ele>673.8</ele>
        <time>2020-07-22T12:57:48Z</time>
      </trkpt>
      <trkpt lat="42.7367460" lon="1.7977630">
        <ele>674.2</ele>
        <time>2020-07-22T12:57:49Z</time>
      </trkpt>
      <trkpt lat="42.7367180" lon="1.7978180">
        <ele>674.4</ele>
        <time>2020-07-22T12:57:50Z</time>
      </trkpt>
      <trkpt lat="42.7366190" lon="1.7980080">
        <ele>674.8</ele>
        <time>2020-07-22T12:57:53Z</time>
      </trkpt>
      <trkpt lat="42.7364520" lon="1.7983510">
        <ele>673.0</ele>
        <time>2020-07-22T12:57:57Z</time>
      </trkpt>
      <trkpt lat="42.7364010" lon="1.7984480">
        <ele>672.2</ele>
        <time>2020-07-22T12:57:58Z</time>
      </trkpt>
      <trkpt lat="42.7363460" lon="1.7985470">
        <ele>671.6</ele>
        <time>2020-07-22T12:57:59Z</time>
      </trkpt>
      <trkpt lat="42.7362290" lon="1.7987550">
        <ele>670.6</ele>
        <time>2020-07-22T12:58:01Z</time>
      </trkpt>
      <trkpt lat="42.7360470" lon="1.7990650">
        <ele>669.8</ele>
        <time>2020-07-22T12:58:04Z</time>
      </trkpt>
      <trkpt lat="42.7358690" lon="1.7993630">
        <ele>669.6</ele>
        <time>2020-07-22T12:58:07Z</time>
      </trkpt>
      <trkpt lat="42.7356690" lon="1.7997830">
        <ele>669.4</ele>
        <time>2020-07-22T12:58:11Z</time>
      </trkpt>
      <trkpt lat="42.7354850" lon="1.8002580">
        <ele>668.6</ele>
        <time>2020-07-22T12:58:15Z</time>
      </trkpt>
      <trkpt lat="42.7354380" lon="1.8003790">
        <ele>668.4</ele>
        <time>2020-07-22T12:58:16Z</time>
      </trkpt>
      <trkpt lat="42.7353900" lon="1.8004980">
        <ele>668.0</ele>
        <time>2020-07-22T12:58:17Z</time>
      </trkpt>
      <trkpt lat="42.7352050" lon="1.8009660">
        <ele>667.2</ele>
        <time>2020-07-22T12:58:21Z</time>
      </trkpt>
      <trkpt lat="42.7351170" lon="1.8011970">
        <ele>667.0</ele>
        <time>2020-07-22T12:58:23Z</time>
      </trkpt>
      <trkpt lat="42.7349000" lon="1.8017630">
        <ele>667.2</ele>
        <time>2020-07-22T12:58:28Z</time>
      </trkpt>
      <trkpt lat="42.7347330" lon="1.8022020">
        <ele>667.0</ele>
        <time>2020-07-22T12:58:32Z</time>
      </trkpt>
      <trkpt lat="42.7344780" lon="1.8028500">
        <ele>666.8</ele>
        <time>2020-07-22T12:58:38Z</time>
      </trkpt>
      <trkpt lat="42.7343580" lon="1.8031610">
        <ele>667.2</ele>
        <time>2020-07-22T12:58:41Z</time>
      </trkpt>
      <trkpt lat="42.7341340" lon="1.8037940">
        <ele>667.4</ele>
        <time>2020-07-22T12:58:47Z</time>
      </trkpt>
      <trkpt lat="42.7340330" lon="1.8041190">
        <ele>667.4</ele>
        <time>2020-07-22T12:58:50Z</time>
      </trkpt>
      <trkpt lat="42.7337990" lon="1.8047270">
        <ele>667.4</ele>
        <time>2020-07-22T12:58:56Z</time>
      </trkpt>
      <trkpt lat="42.7337600" lon="1.8048270">
        <ele>667.8</ele>
        <time>2020-07-22T12:58:57Z</time>
      </trkpt>
      <trkpt lat="42.7336070" lon="1.8052210">
        <ele>668.0</ele>
        <time>2020-07-22T12:59:01Z</time>
      </trkpt>
      <trkpt lat="42.7334600" lon="1.8055870">
        <ele>667.8</ele>
        <time>2020-07-22T12:59:05Z</time>
      </trkpt>
      <trkpt lat="42.7333630" lon="1.8057480">
        <ele>668.0</ele>
        <time>2020-07-22T12:59:07Z</time>
      </trkpt>
      <trkpt lat="42.7333110" lon="1.8058150">
        <ele>668.2</ele>
        <time>2020-07-22T12:59:08Z</time>
      </trkpt>
      <trkpt lat="42.7332040" lon="1.8059210">
        <ele>668.4</ele>
        <time>2020-07-22T12:59:09Z</time>
      </trkpt>
      <trkpt lat="42.7330960" lon="1.8060160">
        <ele>669.2</ele>
        <time>2020-07-22T12:59:12Z</time>
      </trkpt>
      <trkpt lat="42.7329770" lon="1.8061230">
        <ele>669.0</ele>
        <time>2020-07-22T12:59:14Z</time>
      </trkpt>
      <trkpt lat="42.7328560" lon="1.8062530">
        <ele>668.8</ele>
        <time>2020-07-22T12:59:16Z</time>
      </trkpt>
      <trkpt lat="42.7327380" lon="1.8063990">
        <ele>668.6</ele>
        <time>2020-07-22T12:59:18Z</time>
      </trkpt>
      <trkpt lat="42.7325250" lon="1.8067290">
        <ele>668.6</ele>
        <time>2020-07-22T12:59:22Z</time>
      </trkpt>
      <trkpt lat="42.7323110" lon="1.8070710">
        <ele>669.0</ele>
        <time>2020-07-22T12:59:26Z</time>
      </trkpt>
      <trkpt lat="42.7322110" lon="1.8072370">
        <ele>669.4</ele>
        <time>2020-07-22T12:59:28Z</time>
      </trkpt>
      <trkpt lat="42.7321210" lon="1.8074150">
        <ele>669.4</ele>
        <time>2020-07-22T12:59:30Z</time>
      </trkpt>
      <trkpt lat="42.7319110" lon="1.8079640">
        <ele>669.6</ele>
        <time>2020-07-22T12:59:36Z</time>
      </trkpt>
      <trkpt lat="42.7318460" lon="1.8081240">
        <ele>669.8</ele>
        <time>2020-07-22T12:59:38Z</time>
      </trkpt>
      <trkpt lat="42.7317620" lon="1.8082550">
        <ele>670.0</ele>
        <time>2020-07-22T12:59:40Z</time>
      </trkpt>
      <trkpt lat="42.7317150" lon="1.8083010">
        <ele>670.2</ele>
        <time>2020-07-22T12:59:41Z</time>
      </trkpt>
      <trkpt lat="42.7316680" lon="1.8083300">
        <ele>670.2</ele>
        <time>2020-07-22T12:59:42Z</time>
      </trkpt>
      <trkpt lat="42.7316270" lon="1.8083380">
        <ele>670.2</ele>
        <time>2020-07-22T12:59:43Z</time>
      </trkpt>
      <trkpt lat="42.7315990" lon="1.8083390">
        <ele>670.4</ele>
        <time>2020-07-22T12:59:44Z</time>
      </trkpt>
      <trkpt lat="42.7315390" lon="1.8080120">
        <ele>669.2</ele>
        <time>2020-07-22T13:02:11Z</time>
      </trkpt>
      <trkpt lat="42.7315380" lon="1.8079840">
        <ele>669.2</ele>
        <time>2020-07-22T13:02:12Z</time>
      </trkpt>
      <trkpt lat="42.7315380" lon="1.8078600">
        <ele>669.4</ele>
        <time>2020-07-22T13:02:14Z</time>
      </trkpt>
      <trkpt lat="42.7315360" lon="1.8076540">
        <ele>669.6</ele>
        <time>2020-07-22T13:02:17Z</time>
      </trkpt>
      <trkpt lat="42.7315340" lon="1.8075830">
        <ele>669.6</ele>
        <time>2020-07-22T13:02:18Z</time>
      </trkpt>
      <trkpt lat="42.7315320" lon="1.8075110">
        <ele>669.6</ele>
        <time>2020-07-22T13:02:19Z</time>
      </trkpt>
      <trkpt lat="42.7315320" lon="1.8074370">
        <ele>669.6</ele>
        <time>2020-07-22T13:02:20Z</time>
      </trkpt>
      <trkpt lat="42.7315300" lon="1.8073640">
        <ele>669.6</ele>
        <time>2020-07-22T13:02:21Z</time>
      </trkpt>
      <trkpt lat="42.7315300" lon="1.8072900">
        <ele>669.8</ele>
        <time>2020-07-22T13:02:22Z</time>
      </trkpt>
      <trkpt lat="42.7315180" lon="1.8069820">
        <ele>670.2</ele>
        <time>2020-07-22T13:02:26Z</time>
      </trkpt>
      <trkpt lat="42.7314990" lon="1.8065100">
        <ele>670.2</ele>
        <time>2020-07-22T13:02:32Z</time>
      </trkpt>
      <trkpt lat="42.7314950" lon="1.8063440">
        <ele>670.2</ele>
        <time>2020-07-22T13:02:34Z</time>
      </trkpt>
      <trkpt lat="42.7314740" lon="1.8059330">
        <ele>670.2</ele>
        <time>2020-07-22T13:02:39Z</time>
      </trkpt>
      <trkpt lat="42.7314320" lon="1.8057790">
        <ele>670.2</ele>
        <time>2020-07-22T13:02:41Z</time>
      </trkpt>
      <trkpt lat="42.7313170" lon="1.8055130">
        <ele>670.2</ele>
        <time>2020-07-22T13:02:45Z</time>
      </trkpt>
      <trkpt lat="42.7312940" lon="1.8054460">
        <ele>670.2</ele>
        <time>2020-07-22T13:02:46Z</time>
      </trkpt>
      <trkpt lat="42.7312790" lon="1.8053740">
        <ele>670.2</ele>
        <time>2020-07-22T13:02:47Z</time>
      </trkpt>
      <trkpt lat="42.7312710" lon="1.8052970">
        <ele>670.0</ele>
        <time>2020-07-22T13:02:48Z</time>
      </trkpt>
      <trkpt lat="42.7312860" lon="1.8051370">
        <ele>669.8</ele>
        <time>2020-07-22T13:02:50Z</time>
      </trkpt>
      <trkpt lat="42.7313130" lon="1.8050570">
        <ele>669.8</ele>
        <time>2020-07-22T13:02:51Z</time>
      </trkpt>
      <trkpt lat="42.7313440" lon="1.8049770">
        <ele>669.6</ele>
        <time>2020-07-22T13:02:52Z</time>
      </trkpt>
      <trkpt lat="42.7315140" lon="1.8044700">
        <ele>669.6</ele>
        <time>2020-07-22T13:02:58Z</time>
      </trkpt>
      <trkpt lat="42.7315370" lon="1.8043860">
        <ele>669.8</ele>
        <time>2020-07-22T13:02:59Z</time>
      </trkpt>
      <trkpt lat="42.7316380" lon="1.8039840">
        <ele>670.4</ele>
        <time>2020-07-22T13:03:04Z</time>
      </trkpt>
      <trkpt lat="42.7316880" lon="1.8038320">
        <ele>670.4</ele>
        <time>2020-07-22T13:03:06Z</time>
      </trkpt>
      <trkpt lat="42.7318170" lon="1.8035090">
        <ele>669.2</ele>
        <time>2020-07-22T13:03:09Z</time>
      </trkpt>
      <trkpt lat="42.7318950" lon="1.8033520">
        <ele>668.4</ele>
        <time>2020-07-22T13:03:12Z</time>
      </trkpt>
      <trkpt lat="42.7319810" lon="1.8032010">
        <ele>668.2</ele>
        <time>2020-07-22T13:03:14Z</time>
      </trkpt>
      <trkpt lat="42.7322430" lon="1.8027870">
        <ele>667.6</ele>
        <time>2020-07-22T13:03:20Z</time>
      </trkpt>
      <trkpt lat="42.7324550" lon="1.8024650">
        <ele>668.0</ele>
        <time>2020-07-22T13:03:25Z</time>
      </trkpt>
      <trkpt lat="42.7325790" lon="1.8022670">
        <ele>668.0</ele>
        <time>2020-07-22T13:03:28Z</time>
      </trkpt>
      <trkpt lat="42.7326750" lon="1.8021500">
        <ele>668.0</ele>
        <time>2020-07-22T13:03:30Z</time>
      </trkpt>
      <trkpt lat="42.7327210" lon="1.8020900">
        <ele>668.0</ele>
        <time>2020-07-22T13:03:31Z</time>
      </trkpt>
      <trkpt lat="42.7327640" lon="1.8020290">
        <ele>668.2</ele>
        <time>2020-07-22T13:03:32Z</time>
      </trkpt>
      <trkpt lat="42.7329400" lon="1.8017310">
        <ele>669.4</ele>
        <time>2020-07-22T13:03:37Z</time>
      </trkpt>
      <trkpt lat="42.7330040" lon="1.8016320">
        <ele>670.0</ele>
        <time>2020-07-22T13:03:39Z</time>
      </trkpt>
      <trkpt lat="42.7330380" lon="1.8015890">
        <ele>670.4</ele>
        <time>2020-07-22T13:03:40Z</time>
      </trkpt>
      <trkpt lat="42.7331870" lon="1.8014370">
        <ele>671.2</ele>
        <time>2020-07-22T13:03:44Z</time>
      </trkpt>
      <trkpt lat="42.7332320" lon="1.8014050">
        <ele>671.2</ele>
        <time>2020-07-22T13:03:45Z</time>
      </trkpt>
      <trkpt lat="42.7333220" lon="1.8013230">
        <ele>671.2</ele>
        <time>2020-07-22T13:03:47Z</time>
      </trkpt>
      <trkpt lat="42.7334020" lon="1.8012010">
        <ele>671.0</ele>
        <time>2020-07-22T13:03:49Z</time>
      </trkpt>
      <trkpt lat="42.7335380" lon="1.8008840">
        <ele>669.8</ele>
        <time>2020-07-22T13:03:53Z</time>
      </trkpt>
      <trkpt lat="42.7335750" lon="1.8008040">
        <ele>669.8</ele>
        <time>2020-07-22T13:03:54Z</time>
      </trkpt>
      <trkpt lat="42.7337100" lon="1.8004640">
        <ele>669.6</ele>
        <time>2020-07-22T13:03:58Z</time>
      </trkpt>
      <trkpt lat="42.7337640" lon="1.8002870">
        <ele>669.8</ele>
        <time>2020-07-22T13:04:00Z</time>
      </trkpt>
      <trkpt lat="42.7337890" lon="1.8001960">
        <ele>669.8</ele>
        <time>2020-07-22T13:04:01Z</time>
      </trkpt>
      <trkpt lat="42.7338880" lon="1.7998390">
        <ele>670.0</ele>
        <time>2020-07-22T13:04:05Z</time>
      </trkpt>
      <trkpt lat="42.7339160" lon="1.7997490">
        <ele>670.0</ele>
        <time>2020-07-22T13:04:06Z</time>
      </trkpt>
      <trkpt lat="42.7339480" lon="1.7996590">
        <ele>670.0</ele>
        <time>2020-07-22T13:04:07Z</time>
      </trkpt>
      <trkpt lat="42.7340100" lon="1.7994850">
        <ele>670.2</ele>
        <time>2020-07-22T13:04:09Z</time>
      </trkpt>
      <trkpt lat="42.7341030" lon="1.7991340">
        <ele>670.2</ele>
        <time>2020-07-22T13:04:13Z</time>
      </trkpt>
      <trkpt lat="42.7341290" lon="1.7990550">
        <ele>670.4</ele>
        <time>2020-07-22T13:04:14Z</time>
      </trkpt>
      <trkpt lat="42.7341930" lon="1.7989110">
        <ele>671.0</ele>
        <time>2020-07-22T13:04:16Z</time>
      </trkpt>
      <trkpt lat="42.7342310" lon="1.7988390">
        <ele>671.2</ele>
        <time>2020-07-22T13:04:17Z</time>
      </trkpt>
      <trkpt lat="42.7343040" lon="1.7986990">
        <ele>671.6</ele>
        <time>2020-07-22T13:04:19Z</time>
      </trkpt>
      <trkpt lat="42.7344790" lon="1.7983680">
        <ele>672.4</ele>
        <time>2020-07-22T13:04:24Z</time>
      </trkpt>
      <trkpt lat="42.7345030" lon="1.7983080">
        <ele>672.6</ele>
        <time>2020-07-22T13:04:25Z</time>
      </trkpt>
      <trkpt lat="42.7345230" lon="1.7982490">
        <ele>672.6</ele>
        <time>2020-07-22T13:04:26Z</time>
      </trkpt>
      <trkpt lat="42.7345490" lon="1.7981400">
        <ele>672.8</ele>
        <time>2020-07-22T13:04:28Z</time>
      </trkpt>
      <trkpt lat="42.7345570" lon="1.7980930">
        <ele>673.0</ele>
        <time>2020-07-22T13:04:29Z</time>
      </trkpt>
      <trkpt lat="42.7345670" lon="1.7979760">
        <ele>673.8</ele>
        <time>2020-07-22T13:04:32Z</time>
      </trkpt>
      <trkpt lat="42.7345720" lon="1.7978750">
        <ele>674.4</ele>
        <time>2020-07-22T13:04:34Z</time>
      </trkpt>
      <trkpt lat="42.7345910" lon="1.7976950">
        <ele>674.6</ele>
        <time>2020-07-22T13:04:37Z</time>
      </trkpt>
      <trkpt lat="42.7346120" lon="1.7975710">
        <ele>674.8</ele>
        <time>2020-07-22T13:04:39Z</time>
      </trkpt>
      <trkpt lat="42.7346330" lon="1.7974470">
        <ele>675.0</ele>
        <time>2020-07-22T13:04:41Z</time>
      </trkpt>
      <trkpt lat="42.7346970" lon="1.7971180">
        <ele>675.8</ele>
        <time>2020-07-22T13:04:46Z</time>
      </trkpt>
      <trkpt lat="42.7347110" lon="1.7970500">
        <ele>676.0</ele>
        <time>2020-07-22T13:04:47Z</time>
      </trkpt>
      <trkpt lat="42.7347490" lon="1.7968490">
        <ele>676.6</ele>
        <time>2020-07-22T13:04:50Z</time>
      </trkpt>
      <trkpt lat="42.7347610" lon="1.7967830">
        <ele>676.8</ele>
        <time>2020-07-22T13:04:51Z</time>
      </trkpt>
      <trkpt lat="42.7347880" lon="1.7966520">
        <ele>677.2</ele>
        <time>2020-07-22T13:04:53Z</time>
      </trkpt>
      <trkpt lat="42.7348590" lon="1.7963950">
        <ele>677.2</ele>
        <time>2020-07-22T13:04:57Z</time>
      </trkpt>
      <trkpt lat="42.7349100" lon="1.7962710">
        <ele>677.2</ele>
        <time>2020-07-22T13:04:59Z</time>
      </trkpt>
      <trkpt lat="42.7349400" lon="1.7962150">
        <ele>677.2</ele>
        <time>2020-07-22T13:05:00Z</time>
      </trkpt>
      <trkpt lat="42.7349690" lon="1.7961590">
        <ele>677.2</ele>
        <time>2020-07-22T13:05:01Z</time>
      </trkpt>
      <trkpt lat="42.7349960" lon="1.7961010">
        <ele>677.4</ele>
        <time>2020-07-22T13:05:02Z</time>
      </trkpt>
      <trkpt lat="42.7351600" lon="1.7957300">
        <ele>677.6</ele>
        <time>2020-07-22T13:05:08Z</time>
      </trkpt>
      <trkpt lat="42.7352000" lon="1.7955850">
        <ele>676.8</ele>
        <time>2020-07-22T13:05:09Z</time>
      </trkpt>
      <trkpt lat="42.7352410" lon="1.7953000">
        <ele>676.0</ele>
        <time>2020-07-22T13:05:14Z</time>
      </trkpt>
      <trkpt lat="42.7352520" lon="1.7952370">
        <ele>675.8</ele>
        <time>2020-07-22T13:05:15Z</time>
      </trkpt>
      <trkpt lat="42.7352920" lon="1.7951300">
        <ele>675.0</ele>
        <time>2020-07-22T13:05:17Z</time>
      </trkpt>
      <trkpt lat="42.7353760" lon="1.7950350">
        <ele>674.4</ele>
        <time>2020-07-22T13:05:20Z</time>
      </trkpt>
      <trkpt lat="42.7354630" lon="1.7950320">
        <ele>674.0</ele>
        <time>2020-07-22T13:05:22Z</time>
      </trkpt>
      <trkpt lat="42.7355650" lon="1.7950190">
        <ele>673.0</ele>
        <time>2020-07-22T13:05:24Z</time>
      </trkpt>
      <trkpt lat="42.7356150" lon="1.7950030">
        <ele>672.4</ele>
        <time>2020-07-22T13:05:25Z</time>
      </trkpt>
      <trkpt lat="42.7356670" lon="1.7949720">
        <ele>671.8</ele>
        <time>2020-07-22T13:05:26Z</time>
      </trkpt>
      <trkpt lat="42.7357560" lon="1.7948690">
        <ele>671.0</ele>
        <time>2020-07-22T13:05:28Z</time>
      </trkpt>
      <trkpt lat="42.7358510" lon="1.7947670">
        <ele>670.0</ele>
        <time>2020-07-22T13:05:30Z</time>
      </trkpt>
      <trkpt lat="42.7359790" lon="1.7946230">
        <ele>669.4</ele>
        <time>2020-07-22T13:05:33Z</time>
      </trkpt>
      <trkpt lat="42.7360110" lon="1.7945700">
        <ele>669.6</ele>
        <time>2020-07-22T13:05:34Z</time>
      </trkpt>
      <trkpt lat="42.7360900" lon="1.7943860">
        <ele>670.0</ele>
        <time>2020-07-22T13:05:38Z</time>
      </trkpt>
      <trkpt lat="42.7361050" lon="1.7942960">
        <ele>670.2</ele>
        <time>2020-07-22T13:05:40Z</time>
      </trkpt>
      <trkpt lat="42.7360990" lon="1.7941920">
        <ele>670.4</ele>
        <time>2020-07-22T13:05:42Z</time>
      </trkpt>
      <trkpt lat="42.7360740" lon="1.7941340">
        <ele>670.4</ele>
        <time>2020-07-22T13:05:43Z</time>
      </trkpt>
      <trkpt lat="42.7359570" lon="1.7938690">
        <ele>670.2</ele>
        <time>2020-07-22T13:05:47Z</time>
      </trkpt>
      <trkpt lat="42.7359370" lon="1.7937940">
        <ele>669.8</ele>
        <time>2020-07-22T13:05:48Z</time>
      </trkpt>
      <trkpt lat="42.7359020" lon="1.7934780">
        <ele>669.2</ele>
        <time>2020-07-22T13:05:52Z</time>
      </trkpt>
      <trkpt lat="42.7359080" lon="1.7933960">
        <ele>669.0</ele>
        <time>2020-07-22T13:05:53Z</time>
      </trkpt>
      <trkpt lat="42.7359220" lon="1.7933160">
        <ele>668.8</ele>
        <time>2020-07-22T13:05:54Z</time>
      </trkpt>
      <trkpt lat="42.7359520" lon="1.7930900">
        <ele>668.2</ele>
        <time>2020-07-22T13:05:57Z</time>
      </trkpt>
      <trkpt lat="42.7359940" lon="1.7929570">
        <ele>667.8</ele>
        <time>2020-07-22T13:05:59Z</time>
      </trkpt>
      <trkpt lat="42.7360600" lon="1.7927780">
        <ele>666.6</ele>
        <time>2020-07-22T13:06:03Z</time>
      </trkpt>
      <trkpt lat="42.7361210" lon="1.7926480">
        <ele>665.6</ele>
        <time>2020-07-22T13:06:06Z</time>
      </trkpt>
      <trkpt lat="42.7362120" lon="1.7924540">
        <ele>664.6</ele>
        <time>2020-07-22T13:06:10Z</time>
      </trkpt>
      <trkpt lat="42.7362410" lon="1.7923990">
        <ele>664.4</ele>
        <time>2020-07-22T13:06:11Z</time>
      </trkpt>
      <trkpt lat="42.7362730" lon="1.7923410">
        <ele>664.2</ele>
        <time>2020-07-22T13:06:12Z</time>
      </trkpt>
      <trkpt lat="42.7363090" lon="1.7922890">
        <ele>663.6</ele>
        <time>2020-07-22T13:06:13Z</time>
      </trkpt>
      <trkpt lat="42.7363480" lon="1.7922400">
        <ele>663.2</ele>
        <time>2020-07-22T13:06:14Z</time>
      </trkpt>
      <trkpt lat="42.7363900" lon="1.7921960">
        <ele>662.8</ele>
        <time>2020-07-22T13:06:15Z</time>
      </trkpt>
      <trkpt lat="42.7364350" lon="1.7921620">
        <ele>662.6</ele>
        <time>2020-07-22T13:06:16Z</time>
      </trkpt>
      <trkpt lat="42.7364780" lon="1.7921370">
        <ele>662.2</ele>
        <time>2020-07-22T13:06:17Z</time>
      </trkpt>
      <trkpt lat="42.7365500" lon="1.7921020">
        <ele>661.2</ele>
        <time>2020-07-22T13:06:19Z</time>
      </trkpt>
      <trkpt lat="42.7365820" lon="1.7920840">
        <ele>661.0</ele>
        <time>2020-07-22T13:06:20Z</time>
      </trkpt>
      <trkpt lat="42.7367170" lon="1.7920210">
        <ele>660.0</ele>
        <time>2020-07-22T13:06:24Z</time>
      </trkpt>
      <trkpt lat="42.7367860" lon="1.7919960">
        <ele>659.4</ele>
        <time>2020-07-22T13:06:26Z</time>
      </trkpt>
      <trkpt lat="42.7368460" lon="1.7919850">
        <ele>658.6</ele>
        <time>2020-07-22T13:06:28Z</time>
      </trkpt>
      <trkpt lat="42.7368800" lon="1.7919650">
        <ele>658.2</ele>
        <time>2020-07-22T13:06:30Z</time>
      </trkpt>
      <trkpt lat="42.7368860" lon="1.7919580">
        <ele>658.0</ele>
        <time>2020-07-22T13:06:31Z</time>
      </trkpt>
      <trkpt lat="42.7368930" lon="1.7919540">
        <ele>657.6</ele>
        <time>2020-07-22T13:06:32Z</time>
      </trkpt>
      <trkpt lat="42.7369170" lon="1.7919490">
        <ele>657.4</ele>
        <time>2020-07-22T13:06:34Z</time>
      </trkpt>
      <trkpt lat="42.7369620" lon="1.7919460">
        <ele>657.2</ele>
        <time>2020-07-22T13:06:37Z</time>
      </trkpt>
      <trkpt lat="42.7369270" lon="1.7919480">
        <ele>656.8</ele>
        <time>2020-07-22T13:06:42Z</time>
      </trkpt>
      <trkpt lat="42.7368010" lon="1.7919590">
        <ele>657.8</ele>
        <time>2020-07-22T13:06:48Z</time>
      </trkpt>
      <trkpt lat="42.7366750" lon="1.7919950">
        <ele>658.8</ele>
        <time>2020-07-22T13:06:52Z</time>
      </trkpt>
      <trkpt lat="42.7366000" lon="1.7920160">
        <ele>659.4</ele>
        <time>2020-07-22T13:06:55Z</time>
      </trkpt>
      <trkpt lat="42.7365690" lon="1.7920260">
        <ele>659.8</ele>
        <time>2020-07-22T13:06:57Z</time>
      </trkpt>
      <trkpt lat="42.7365450" lon="1.7920390">
        <ele>660.2</ele>
        <time>2020-07-22T13:06:59Z</time>
      </trkpt>
      <trkpt lat="42.7365300" lon="1.7920540">
        <ele>660.2</ele>
        <time>2020-07-22T13:07:00Z</time>
      </trkpt>
      <trkpt lat="42.7364270" lon="1.7921420">
        <ele>661.0</ele>
        <time>2020-07-22T13:07:05Z</time>
      </trkpt>
      <trkpt lat="42.7364040" lon="1.7921630">
        <ele>661.2</ele>
        <time>2020-07-22T13:07:06Z</time>
      </trkpt>
      <trkpt lat="42.7363080" lon="1.7922680">
        <ele>661.8</ele>
        <time>2020-07-22T13:07:09Z</time>
      </trkpt>
      <trkpt lat="42.7362860" lon="1.7922970">
        <ele>662.0</ele>
        <time>2020-07-22T13:07:11Z</time>
      </trkpt>
      <trkpt lat="42.7362470" lon="1.7923590">
        <ele>662.2</ele>
        <time>2020-07-22T13:07:13Z</time>
      </trkpt>
      <trkpt lat="42.7362060" lon="1.7924340">
        <ele>662.6</ele>
        <time>2020-07-22T13:07:15Z</time>
      </trkpt>
      <trkpt lat="42.7361690" lon="1.7925060">
        <ele>662.8</ele>
        <time>2020-07-22T13:07:17Z</time>
      </trkpt>
      <trkpt lat="42.7361530" lon="1.7925440">
        <ele>663.0</ele>
        <time>2020-07-22T13:07:18Z</time>
      </trkpt>
      <trkpt lat="42.7361360" lon="1.7925830">
        <ele>663.4</ele>
        <time>2020-07-22T13:07:19Z</time>
      </trkpt>
      <trkpt lat="42.7361020" lon="1.7926690">
        <ele>663.8</ele>
        <time>2020-07-22T13:07:21Z</time>
      </trkpt>
      <trkpt lat="42.7360460" lon="1.7927900">
        <ele>664.4</ele>
        <time>2020-07-22T13:07:24Z</time>
      </trkpt>
      <trkpt lat="42.7359990" lon="1.7928380">
        <ele>664.8</ele>
        <time>2020-07-22T13:07:26Z</time>
      </trkpt>
      <trkpt lat="42.7359440" lon="1.7928120">
        <ele>665.2</ele>
        <time>2020-07-22T13:07:28Z</time>
      </trkpt>
      <trkpt lat="42.7359210" lon="1.7927780">
        <ele>665.2</ele>
        <time>2020-07-22T13:07:29Z</time>
      </trkpt>
      <trkpt lat="42.7359010" lon="1.7927390">
        <ele>665.4</ele>
        <time>2020-07-22T13:07:30Z</time>
      </trkpt>
      <trkpt lat="42.7358320" lon="1.7925780">
        <ele>665.4</ele>
        <time>2020-07-22T13:07:33Z</time>
      </trkpt>
      <trkpt lat="42.7357030" lon="1.7922450">
        <ele>664.2</ele>
        <time>2020-07-22T13:07:38Z</time>
      </trkpt>
      <trkpt lat="42.7356710" lon="1.7921860">
        <ele>663.8</ele>
        <time>2020-07-22T13:07:39Z</time>
      </trkpt>
      <trkpt lat="42.7355510" lon="1.7920320">
        <ele>663.6</ele>
        <time>2020-07-22T13:07:42Z</time>
      </trkpt>
      <trkpt lat="42.7354700" lon="1.7919430">
        <ele>663.8</ele>
        <time>2020-07-22T13:07:44Z</time>
      </trkpt>
      <trkpt lat="42.7354310" lon="1.7918450">
        <ele>664.0</ele>
        <time>2020-07-22T13:07:46Z</time>
      </trkpt>
      <trkpt lat="42.7354220" lon="1.7918020">
        <ele>664.2</ele>
        <time>2020-07-22T13:07:47Z</time>
      </trkpt>
      <trkpt lat="42.7354010" lon="1.7916690">
        <ele>665.2</ele>
        <time>2020-07-22T13:07:51Z</time>
      </trkpt>
      <trkpt lat="42.7353910" lon="1.7916130">
        <ele>665.2</ele>
        <time>2020-07-22T13:07:53Z</time>
      </trkpt>
      <trkpt lat="42.7353260" lon="1.7915160">
        <ele>665.2</ele>
        <time>2020-07-22T13:07:58Z</time>
      </trkpt>
      <trkpt lat="42.7353330" lon="1.7914920">
        <ele>665.6</ele>
        <time>2020-07-22T13:08:03Z</time>
      </trkpt>
      <trkpt lat="42.7353120" lon="1.7914760">
        <ele>665.6</ele>
        <time>2020-07-22T13:08:05Z</time>
      </trkpt>
      <trkpt lat="42.7352580" lon="1.7914240">
        <ele>665.6</ele>
        <time>2020-07-22T13:08:08Z</time>
      </trkpt>
      <trkpt lat="42.7352220" lon="1.7913090">
        <ele>665.6</ele>
        <time>2020-07-22T13:08:11Z</time>
      </trkpt>
      <trkpt lat="42.7352290" lon="1.7912690">
        <ele>665.6</ele>
        <time>2020-07-22T13:08:12Z</time>
      </trkpt>
      <trkpt lat="42.7352460" lon="1.7912320">
        <ele>665.6</ele>
        <time>2020-07-22T13:08:13Z</time>
      </trkpt>
      <trkpt lat="42.7352850" lon="1.7911540">
        <ele>665.8</ele>
        <time>2020-07-22T13:08:15Z</time>
      </trkpt>
      <trkpt lat="42.7353560" lon="1.7910430">
        <ele>666.0</ele>
        <time>2020-07-22T13:08:18Z</time>
      </trkpt>
      <trkpt lat="42.7354420" lon="1.7908670">
        <ele>666.2</ele>
        <time>2020-07-22T13:08:22Z</time>
      </trkpt>
      <trkpt lat="42.7354870" lon="1.7907980">
        <ele>666.6</ele>
        <time>2020-07-22T13:08:24Z</time>
      </trkpt>
      <trkpt lat="42.7355530" lon="1.7907040">
        <ele>667.4</ele>
        <time>2020-07-22T13:08:28Z</time>
      </trkpt>
      <trkpt lat="42.7355590" lon="1.7906980">
        <ele>667.4</ele>
        <time>2020-07-22T13:08:29Z</time>
      </trkpt>
      <trkpt lat="42.7355530" lon="1.7906610">
        <ele>667.8</ele>
        <time>2020-07-22T13:08:35Z</time>
      </trkpt>
      <trkpt lat="42.7355600" lon="1.7906390">
        <ele>667.8</ele>
        <time>2020-07-22T13:08:38Z</time>
      </trkpt>
      <trkpt lat="42.7355660" lon="1.7906340">
        <ele>668.0</ele>
        <time>2020-07-22T13:08:39Z</time>
      </trkpt>
      <trkpt lat="42.7355820" lon="1.7906180">
        <ele>667.8</ele>
        <time>2020-07-22T13:08:41Z</time>
      </trkpt>
      <trkpt lat="42.7356020" lon="1.7906060">
        <ele>667.8</ele>
        <time>2020-07-22T13:08:43Z</time>
      </trkpt>
      <trkpt lat="42.7356260" lon="1.7905930">
        <ele>667.8</ele>
        <time>2020-07-22T13:08:46Z</time>
      </trkpt>
      <trkpt lat="42.7356270" lon="1.7905920">
        <ele>667.8</ele>
        <time>2020-07-22T13:08:47Z</time>
      </trkpt>
      <trkpt lat="42.7356370" lon="1.7905730">
        <ele>668.0</ele>
        <time>2020-07-22T13:08:50Z</time>
      </trkpt>
      <trkpt lat="42.7356390" lon="1.7905520">
        <ele>667.6</ele>
        <time>2020-07-22T13:08:54Z</time>
      </trkpt>
      <trkpt lat="42.7356410" lon="1.7905460">
        <ele>667.6</ele>
        <time>2020-07-22T13:08:56Z</time>
      </trkpt>
      <trkpt lat="42.7356440" lon="1.7905450">
        <ele>667.6</ele>
        <time>2020-07-22T13:09:00Z</time>
      </trkpt>
      <trkpt lat="42.7356470" lon="1.7905480">
        <ele>667.6</ele>
        <time>2020-07-22T13:09:06Z</time>
      </trkpt>
      <trkpt lat="42.7356720" lon="1.7905470">
        <ele>667.4</ele>
        <time>2020-07-22T13:09:12Z</time>
      </trkpt>
      <trkpt lat="42.7356830" lon="1.7905460">
        <ele>667.4</ele>
        <time>2020-07-22T13:09:13Z</time>
      </trkpt>
      <trkpt lat="42.7357020" lon="1.7905480">
        <ele>667.6</ele>
        <time>2020-07-22T13:09:14Z</time>
      </trkpt>
      <trkpt lat="42.7357850" lon="1.7905620">
        <ele>668.0</ele>
        <time>2020-07-22T13:09:17Z</time>
      </trkpt>
      <trkpt lat="42.7358590" lon="1.7905360">
        <ele>668.0</ele>
        <time>2020-07-22T13:09:19Z</time>
      </trkpt>
      <trkpt lat="42.7359370" lon="1.7904760">
        <ele>668.0</ele>
        <time>2020-07-22T13:09:21Z</time>
      </trkpt>
      <trkpt lat="42.7359730" lon="1.7904390">
        <ele>668.0</ele>
        <time>2020-07-22T13:09:22Z</time>
      </trkpt>
      <trkpt lat="42.7361810" lon="1.7902660">
        <ele>667.4</ele>
        <time>2020-07-22T13:09:27Z</time>
      </trkpt>
      <trkpt lat="42.7363630" lon="1.7901620">
        <ele>667.4</ele>
        <time>2020-07-22T13:09:30Z</time>
      </trkpt>
      <trkpt lat="42.7364370" lon="1.7901320">
        <ele>667.2</ele>
        <time>2020-07-22T13:09:31Z</time>
      </trkpt>
      <trkpt lat="42.7365140" lon="1.7901050">
        <ele>667.2</ele>
        <time>2020-07-22T13:09:32Z</time>
      </trkpt>
      <trkpt lat="42.7368440" lon="1.7900150">
        <ele>667.0</ele>
        <time>2020-07-22T13:09:36Z</time>
      </trkpt>
      <trkpt lat="42.7369260" lon="1.7899960">
        <ele>666.8</ele>
        <time>2020-07-22T13:09:37Z</time>
      </trkpt>
      <trkpt lat="42.7373500" lon="1.7898980">
        <ele>666.2</ele>
        <time>2020-07-22T13:09:42Z</time>
      </trkpt>
      <trkpt lat="42.7376160" lon="1.7898500">
        <ele>666.0</ele>
        <time>2020-07-22T13:09:45Z</time>
      </trkpt>
      <trkpt lat="42.7381570" lon="1.7897460">
        <ele>666.4</ele>
        <time>2020-07-22T13:09:51Z</time>
      </trkpt>
      <trkpt lat="42.7384180" lon="1.7896840">
        <ele>666.6</ele>
        <time>2020-07-22T13:09:54Z</time>
      </trkpt>
      <trkpt lat="42.7389310" lon="1.7894500">
        <ele>666.0</ele>
        <time>2020-07-22T13:10:00Z</time>
      </trkpt>
      <trkpt lat="42.7391610" lon="1.7892300">
        <ele>665.4</ele>
        <time>2020-07-22T13:10:03Z</time>
      </trkpt>
      <trkpt lat="42.7392270" lon="1.7891380">
        <ele>665.2</ele>
        <time>2020-07-22T13:10:04Z</time>
      </trkpt>
      <trkpt lat="42.7392900" lon="1.7890430">
        <ele>665.0</ele>
        <time>2020-07-22T13:10:05Z</time>
      </trkpt>
      <trkpt lat="42.7394470" lon="1.7887200">
        <ele>663.6</ele>
        <time>2020-07-22T13:10:08Z</time>
      </trkpt>
      <trkpt lat="42.7394880" lon="1.7885990">
        <ele>663.4</ele>
        <time>2020-07-22T13:10:09Z</time>
      </trkpt>
      <trkpt lat="42.7395810" lon="1.7882190">
        <ele>662.6</ele>
        <time>2020-07-22T13:10:12Z</time>
      </trkpt>
      <trkpt lat="42.7396020" lon="1.7880860">
        <ele>662.2</ele>
        <time>2020-07-22T13:10:13Z</time>
      </trkpt>
      <trkpt lat="42.7396410" lon="1.7878150">
        <ele>661.4</ele>
        <time>2020-07-22T13:10:15Z</time>
      </trkpt>
      <trkpt lat="42.7396750" lon="1.7875410">
        <ele>660.2</ele>
        <time>2020-07-22T13:10:17Z</time>
      </trkpt>
      <trkpt lat="42.7397080" lon="1.7872570">
        <ele>658.8</ele>
        <time>2020-07-22T13:10:19Z</time>
      </trkpt>
      <trkpt lat="42.7397270" lon="1.7871150">
        <ele>658.2</ele>
        <time>2020-07-22T13:10:20Z</time>
      </trkpt>
      <trkpt lat="42.7397440" lon="1.7869690">
        <ele>657.8</ele>
        <time>2020-07-22T13:10:21Z</time>
      </trkpt>
      <trkpt lat="42.7398020" lon="1.7865260">
        <ele>656.6</ele>
        <time>2020-07-22T13:10:24Z</time>
      </trkpt>
      <trkpt lat="42.7398970" lon="1.7860840">
        <ele>655.4</ele>
        <time>2020-07-22T13:10:27Z</time>
      </trkpt>
      <trkpt lat="42.7401480" lon="1.7854050">
        <ele>654.2</ele>
        <time>2020-07-22T13:10:32Z</time>
      </trkpt>
      <trkpt lat="42.7403520" lon="1.7850580">
        <ele>654.0</ele>
        <time>2020-07-22T13:10:35Z</time>
      </trkpt>
      <trkpt lat="42.7404890" lon="1.7848390">
        <ele>653.8</ele>
        <time>2020-07-22T13:10:37Z</time>
      </trkpt>
      <trkpt lat="42.7408310" lon="1.7843230">
        <ele>653.0</ele>
        <time>2020-07-22T13:10:42Z</time>
      </trkpt>
      <trkpt lat="42.7410380" lon="1.7840290">
        <ele>653.2</ele>
        <time>2020-07-22T13:10:45Z</time>
      </trkpt>
      <trkpt lat="42.7414140" lon="1.7834330">
        <ele>653.2</ele>
        <time>2020-07-22T13:10:51Z</time>
      </trkpt>
      <trkpt lat="42.7414690" lon="1.7833300">
        <ele>653.2</ele>
        <time>2020-07-22T13:10:52Z</time>
      </trkpt>
      <trkpt lat="42.7417600" lon="1.7826740">
        <ele>653.0</ele>
        <time>2020-07-22T13:10:58Z</time>
      </trkpt>
      <trkpt lat="42.7418050" lon="1.7825650">
        <ele>653.0</ele>
        <time>2020-07-22T13:10:59Z</time>
      </trkpt>
      <trkpt lat="42.7420770" lon="1.7819100">
        <ele>652.8</ele>
        <time>2020-07-22T13:11:05Z</time>
      </trkpt>
      <trkpt lat="42.7421200" lon="1.7818030">
        <ele>652.8</ele>
        <time>2020-07-22T13:11:06Z</time>
      </trkpt>
      <trkpt lat="42.7422080" lon="1.7815870">
        <ele>653.0</ele>
        <time>2020-07-22T13:11:08Z</time>
      </trkpt>
      <trkpt lat="42.7422960" lon="1.7813710">
        <ele>653.0</ele>
        <time>2020-07-22T13:11:10Z</time>
      </trkpt>
      <trkpt lat="42.7425170" lon="1.7808390">
        <ele>652.4</ele>
        <time>2020-07-22T13:11:15Z</time>
      </trkpt>
      <trkpt lat="42.7427400" lon="1.7803150">
        <ele>652.6</ele>
        <time>2020-07-22T13:11:20Z</time>
      </trkpt>
      <trkpt lat="42.7428220" lon="1.7801030">
        <ele>652.6</ele>
        <time>2020-07-22T13:11:22Z</time>
      </trkpt>
      <trkpt lat="42.7431110" lon="1.7795220">
        <ele>652.8</ele>
        <time>2020-07-22T13:11:28Z</time>
      </trkpt>
      <trkpt lat="42.7431670" lon="1.7794380">
        <ele>652.8</ele>
        <time>2020-07-22T13:11:29Z</time>
      </trkpt>
      <trkpt lat="42.7435360" lon="1.7790250">
        <ele>654.4</ele>
        <time>2020-07-22T13:11:35Z</time>
      </trkpt>
      <trkpt lat="42.7438220" lon="1.7787560">
        <ele>655.6</ele>
        <time>2020-07-22T13:11:40Z</time>
      </trkpt>
      <trkpt lat="42.7438780" lon="1.7787180">
        <ele>656.0</ele>
        <time>2020-07-22T13:11:41Z</time>
      </trkpt>
      <trkpt lat="42.7439890" lon="1.7786530">
        <ele>656.6</ele>
        <time>2020-07-22T13:11:43Z</time>
      </trkpt>
      <trkpt lat="42.7441940" lon="1.7785420">
        <ele>657.8</ele>
        <time>2020-07-22T13:11:47Z</time>
      </trkpt>
      <trkpt lat="42.7442420" lon="1.7785160">
        <ele>658.6</ele>
        <time>2020-07-22T13:11:48Z</time>
      </trkpt>
      <trkpt lat="42.7442880" lon="1.7784920">
        <ele>659.0</ele>
        <time>2020-07-22T13:11:49Z</time>
      </trkpt>
      <trkpt lat="42.7445010" lon="1.7783770">
        <ele>660.6</ele>
        <time>2020-07-22T13:11:54Z</time>
      </trkpt>
      <trkpt lat="42.7445430" lon="1.7783510">
        <ele>661.2</ele>
        <time>2020-07-22T13:11:55Z</time>
      </trkpt>
      <trkpt lat="42.7446230" lon="1.7782960">
        <ele>662.0</ele>
        <time>2020-07-22T13:11:57Z</time>
      </trkpt>
      <trkpt lat="42.7448590" lon="1.7780700">
        <ele>663.0</ele>
        <time>2020-07-22T13:12:03Z</time>
      </trkpt>
      <trkpt lat="42.7450900" lon="1.7777340">
        <ele>663.0</ele>
        <time>2020-07-22T13:12:09Z</time>
      </trkpt>
      <trkpt lat="42.7451280" lon="1.7776660">
        <ele>663.0</ele>
        <time>2020-07-22T13:12:10Z</time>
      </trkpt>
      <trkpt lat="42.7452060" lon="1.7775240">
        <ele>663.2</ele>
        <time>2020-07-22T13:12:12Z</time>
      </trkpt>
      <trkpt lat="42.7453710" lon="1.7772190">
        <ele>663.0</ele>
        <time>2020-07-22T13:12:16Z</time>
      </trkpt>
      <trkpt lat="42.7454630" lon="1.7770590">
        <ele>662.8</ele>
        <time>2020-07-22T13:12:18Z</time>
      </trkpt>
      <trkpt lat="42.7456730" lon="1.7767560">
        <ele>662.8</ele>
        <time>2020-07-22T13:12:22Z</time>
      </trkpt>
      <trkpt lat="42.7457840" lon="1.7766220">
        <ele>662.8</ele>
        <time>2020-07-22T13:12:24Z</time>
      </trkpt>
      <trkpt lat="42.7461570" lon="1.7762700">
        <ele>663.2</ele>
        <time>2020-07-22T13:12:30Z</time>
      </trkpt>
      <trkpt lat="42.7464250" lon="1.7760650">
        <ele>664.0</ele>
        <time>2020-07-22T13:12:34Z</time>
      </trkpt>
      <trkpt lat="42.7466300" lon="1.7759130">
        <ele>664.6</ele>
        <time>2020-07-22T13:12:37Z</time>
      </trkpt>
      <trkpt lat="42.7468950" lon="1.7757230">
        <ele>665.2</ele>
        <time>2020-07-22T13:12:41Z</time>
      </trkpt>
      <trkpt lat="42.7472180" lon="1.7754620">
        <ele>665.8</ele>
        <time>2020-07-22T13:12:46Z</time>
      </trkpt>
      <trkpt lat="42.7474810" lon="1.7752520">
        <ele>665.8</ele>
        <time>2020-07-22T13:12:50Z</time>
      </trkpt>
      <trkpt lat="42.7476920" lon="1.7750710">
        <ele>665.8</ele>
        <time>2020-07-22T13:12:53Z</time>
      </trkpt>
      <trkpt lat="42.7479820" lon="1.7748170">
        <ele>665.6</ele>
        <time>2020-07-22T13:12:57Z</time>
      </trkpt>
      <trkpt lat="42.7481270" lon="1.7746690">
        <ele>665.6</ele>
        <time>2020-07-22T13:12:59Z</time>
      </trkpt>
      <trkpt lat="42.7481920" lon="1.7745880">
        <ele>665.6</ele>
        <time>2020-07-22T13:13:00Z</time>
      </trkpt>
      <trkpt lat="42.7485490" lon="1.7740760">
        <ele>665.4</ele>
        <time>2020-07-22T13:13:06Z</time>
      </trkpt>
      <trkpt lat="42.7486090" lon="1.7739940">
        <ele>665.4</ele>
        <time>2020-07-22T13:13:07Z</time>
      </trkpt>
      <trkpt lat="42.7489490" lon="1.7735230">
        <ele>664.0</ele>
        <time>2020-07-22T13:13:13Z</time>
      </trkpt>
      <trkpt lat="42.7490700" lon="1.7733630">
        <ele>663.6</ele>
        <time>2020-07-22T13:13:15Z</time>
      </trkpt>
      <trkpt lat="42.7495100" lon="1.7729380">
        <ele>664.0</ele>
        <time>2020-07-22T13:13:21Z</time>
      </trkpt>
      <trkpt lat="42.7497000" lon="1.7728280">
        <ele>663.2</ele>
        <time>2020-07-22T13:13:23Z</time>
      </trkpt>
      <trkpt lat="42.7498030" lon="1.7727760">
        <ele>662.6</ele>
        <time>2020-07-22T13:13:24Z</time>
      </trkpt>
      <trkpt lat="42.7499100" lon="1.7727280">
        <ele>661.8</ele>
        <time>2020-07-22T13:13:25Z</time>
      </trkpt>
      <trkpt lat="42.7500230" lon="1.7726790">
        <ele>661.2</ele>
        <time>2020-07-22T13:13:26Z</time>
      </trkpt>
      <trkpt lat="42.7502610" lon="1.7725760">
        <ele>659.6</ele>
        <time>2020-07-22T13:13:28Z</time>
      </trkpt>
      <trkpt lat="42.7503820" lon="1.7725260">
        <ele>658.6</ele>
        <time>2020-07-22T13:13:29Z</time>
      </trkpt>
      <trkpt lat="42.7505040" lon="1.7724760">
        <ele>657.4</ele>
        <time>2020-07-22T13:13:30Z</time>
      </trkpt>
      <trkpt lat="42.7506280" lon="1.7724220">
        <ele>656.2</ele>
        <time>2020-07-22T13:13:31Z</time>
      </trkpt>
      <trkpt lat="42.7507530" lon="1.7723670">
        <ele>655.0</ele>
        <time>2020-07-22T13:13:32Z</time>
      </trkpt>
      <trkpt lat="42.7508800" lon="1.7723130">
        <ele>654.0</ele>
        <time>2020-07-22T13:13:33Z</time>
      </trkpt>
      <trkpt lat="42.7510080" lon="1.7722550">
        <ele>652.6</ele>
        <time>2020-07-22T13:13:34Z</time>
      </trkpt>
      <trkpt lat="42.7511380" lon="1.7721960">
        <ele>651.2</ele>
        <time>2020-07-22T13:13:35Z</time>
      </trkpt>
      <trkpt lat="42.7514070" lon="1.7720760">
        <ele>649.4</ele>
        <time>2020-07-22T13:13:37Z</time>
      </trkpt>
      <trkpt lat="42.7516860" lon="1.7719510">
        <ele>648.0</ele>
        <time>2020-07-22T13:13:39Z</time>
      </trkpt>
      <trkpt lat="42.7518270" lon="1.7718880">
        <ele>647.0</ele>
        <time>2020-07-22T13:13:40Z</time>
      </trkpt>
      <trkpt lat="42.7519650" lon="1.7718260">
        <ele>645.6</ele>
        <time>2020-07-22T13:13:41Z</time>
      </trkpt>
      <trkpt lat="42.7521010" lon="1.7717610">
        <ele>644.4</ele>
        <time>2020-07-22T13:13:42Z</time>
      </trkpt>
      <trkpt lat="42.7522400" lon="1.7716920">
        <ele>643.2</ele>
        <time>2020-07-22T13:13:43Z</time>
      </trkpt>
      <trkpt lat="42.7523790" lon="1.7716200">
        <ele>642.2</ele>
        <time>2020-07-22T13:13:44Z</time>
      </trkpt>
      <trkpt lat="42.7526580" lon="1.7714770">
        <ele>639.6</ele>
        <time>2020-07-22T13:13:46Z</time>
      </trkpt>
      <trkpt lat="42.7527980" lon="1.7714070">
        <ele>637.2</ele>
        <time>2020-07-22T13:13:47Z</time>
      </trkpt>
      <trkpt lat="42.7529400" lon="1.7713410">
        <ele>635.0</ele>
        <time>2020-07-22T13:13:48Z</time>
      </trkpt>
      <trkpt lat="42.7530820" lon="1.7712710">
        <ele>633.8</ele>
        <time>2020-07-22T13:13:49Z</time>
      </trkpt>
      <trkpt lat="42.7533690" lon="1.7711230">
        <ele>632.6</ele>
        <time>2020-07-22T13:13:51Z</time>
      </trkpt>
      <trkpt lat="42.7537960" lon="1.7709000">
        <ele>631.6</ele>
        <time>2020-07-22T13:13:54Z</time>
      </trkpt>
      <trkpt lat="42.7539370" lon="1.7708310">
        <ele>631.4</ele>
        <time>2020-07-22T13:13:55Z</time>
      </trkpt>
      <trkpt lat="42.7540770" lon="1.7707620">
        <ele>631.0</ele>
        <time>2020-07-22T13:13:56Z</time>
      </trkpt>
      <trkpt lat="42.7544620" lon="1.7705730">
        <ele>630.0</ele>
        <time>2020-07-22T13:13:59Z</time>
      </trkpt>
      <trkpt lat="42.7545830" lon="1.7705210">
        <ele>630.2</ele>
        <time>2020-07-22T13:14:00Z</time>
      </trkpt>
      <trkpt lat="42.7550520" lon="1.7703580">
        <ele>630.8</ele>
        <time>2020-07-22T13:14:04Z</time>
      </trkpt>
      <trkpt lat="42.7551650" lon="1.7703530">
        <ele>631.0</ele>
        <time>2020-07-22T13:14:05Z</time>
      </trkpt>
      <trkpt lat="42.7552720" lon="1.7703710">
        <ele>631.0</ele>
        <time>2020-07-22T13:14:06Z</time>
      </trkpt>
      <trkpt lat="42.7554800" lon="1.7704550">
        <ele>631.2</ele>
        <time>2020-07-22T13:14:08Z</time>
      </trkpt>
      <trkpt lat="42.7559840" lon="1.7706850">
        <ele>629.6</ele>
        <time>2020-07-22T13:14:13Z</time>
      </trkpt>
      <trkpt lat="42.7560890" lon="1.7707110">
        <ele>629.2</ele>
        <time>2020-07-22T13:14:14Z</time>
      </trkpt>
      <trkpt lat="42.7563090" lon="1.7707290">
        <ele>628.2</ele>
        <time>2020-07-22T13:14:16Z</time>
      </trkpt>
      <trkpt lat="42.7564190" lon="1.7707090">
        <ele>627.6</ele>
        <time>2020-07-22T13:14:17Z</time>
      </trkpt>
      <trkpt lat="42.7565270" lon="1.7706650">
        <ele>626.8</ele>
        <time>2020-07-22T13:14:18Z</time>
      </trkpt>
      <trkpt lat="42.7567420" lon="1.7705220">
        <ele>625.8</ele>
        <time>2020-07-22T13:14:20Z</time>
      </trkpt>
      <trkpt lat="42.7568440" lon="1.7704390">
        <ele>625.2</ele>
        <time>2020-07-22T13:14:21Z</time>
      </trkpt>
      <trkpt lat="42.7570540" lon="1.7702620">
        <ele>624.2</ele>
        <time>2020-07-22T13:14:23Z</time>
      </trkpt>
      <trkpt lat="42.7572560" lon="1.7700630">
        <ele>622.8</ele>
        <time>2020-07-22T13:14:25Z</time>
      </trkpt>
      <trkpt lat="42.7574630" lon="1.7698600">
        <ele>621.8</ele>
        <time>2020-07-22T13:14:27Z</time>
      </trkpt>
      <trkpt lat="42.7575670" lon="1.7697600">
        <ele>621.2</ele>
        <time>2020-07-22T13:14:28Z</time>
      </trkpt>
      <trkpt lat="42.7576710" lon="1.7696600">
        <ele>620.6</ele>
        <time>2020-07-22T13:14:29Z</time>
      </trkpt>
      <trkpt lat="42.7578750" lon="1.7694590">
        <ele>619.4</ele>
        <time>2020-07-22T13:14:31Z</time>
      </trkpt>
      <trkpt lat="42.7580810" lon="1.7692600">
        <ele>618.0</ele>
        <time>2020-07-22T13:14:33Z</time>
      </trkpt>
      <trkpt lat="42.7581840" lon="1.7691640">
        <ele>617.4</ele>
        <time>2020-07-22T13:14:34Z</time>
      </trkpt>
      <trkpt lat="42.7583870" lon="1.7689650">
        <ele>616.8</ele>
        <time>2020-07-22T13:14:36Z</time>
      </trkpt>
      <trkpt lat="42.7586750" lon="1.7686290">
        <ele>616.0</ele>
        <time>2020-07-22T13:14:39Z</time>
      </trkpt>
      <trkpt lat="42.7587700" lon="1.7685050">
        <ele>615.4</ele>
        <time>2020-07-22T13:14:40Z</time>
      </trkpt>
      <trkpt lat="42.7589460" lon="1.7682380">
        <ele>613.8</ele>
        <time>2020-07-22T13:14:42Z</time>
      </trkpt>
      <trkpt lat="42.7590250" lon="1.7680940">
        <ele>613.0</ele>
        <time>2020-07-22T13:14:43Z</time>
      </trkpt>
      <trkpt lat="42.7590960" lon="1.7679450">
        <ele>612.2</ele>
        <time>2020-07-22T13:14:44Z</time>
      </trkpt>
      <trkpt lat="42.7592190" lon="1.7676430">
        <ele>611.2</ele>
        <time>2020-07-22T13:14:46Z</time>
      </trkpt>
      <trkpt lat="42.7592750" lon="1.7674920">
        <ele>610.6</ele>
        <time>2020-07-22T13:14:47Z</time>
      </trkpt>
      <trkpt lat="42.7593300" lon="1.7673400">
        <ele>610.0</ele>
        <time>2020-07-22T13:14:48Z</time>
      </trkpt>
      <trkpt lat="42.7594260" lon="1.7670540">
        <ele>609.8</ele>
        <time>2020-07-22T13:14:50Z</time>
      </trkpt>
      <trkpt lat="42.7594690" lon="1.7669190">
        <ele>609.8</ele>
        <time>2020-07-22T13:14:51Z</time>
      </trkpt>
      <trkpt lat="42.7595120" lon="1.7667930">
        <ele>610.0</ele>
        <time>2020-07-22T13:14:52Z</time>
      </trkpt>
      <trkpt lat="42.7596340" lon="1.7664290">
        <ele>610.8</ele>
        <time>2020-07-22T13:14:55Z</time>
      </trkpt>
      <trkpt lat="42.7596750" lon="1.7663080">
        <ele>611.4</ele>
        <time>2020-07-22T13:14:56Z</time>
      </trkpt>
      <trkpt lat="42.7597980" lon="1.7659350">
        <ele>612.2</ele>
        <time>2020-07-22T13:14:59Z</time>
      </trkpt>
      <trkpt lat="42.7599190" lon="1.7655650">
        <ele>612.2</ele>
        <time>2020-07-22T13:15:02Z</time>
      </trkpt>
      <trkpt lat="42.7600040" lon="1.7653190">
        <ele>612.2</ele>
        <time>2020-07-22T13:15:04Z</time>
      </trkpt>
      <trkpt lat="42.7600480" lon="1.7651960">
        <ele>612.4</ele>
        <time>2020-07-22T13:15:05Z</time>
      </trkpt>
      <trkpt lat="42.7600900" lon="1.7650770">
        <ele>612.6</ele>
        <time>2020-07-22T13:15:06Z</time>
      </trkpt>
      <trkpt lat="42.7601670" lon="1.7648520">
        <ele>613.6</ele>
        <time>2020-07-22T13:15:08Z</time>
      </trkpt>
      <trkpt lat="42.7602360" lon="1.7646420">
        <ele>615.0</ele>
        <time>2020-07-22T13:15:09Z</time>
      </trkpt>
      <trkpt lat="42.7602890" lon="1.7644340">
        <ele>616.0</ele>
        <time>2020-07-22T13:15:12Z</time>
      </trkpt>
      <trkpt lat="42.7603080" lon="1.7643280">
        <ele>616.4</ele>
        <time>2020-07-22T13:15:13Z</time>
      </trkpt>
      <trkpt lat="42.7603210" lon="1.7642170">
        <ele>616.8</ele>
        <time>2020-07-22T13:15:14Z</time>
      </trkpt>
      <trkpt lat="42.7603390" lon="1.7639880">
        <ele>617.0</ele>
        <time>2020-07-22T13:15:16Z</time>
      </trkpt>
      <trkpt lat="42.7603480" lon="1.7638720">
        <ele>617.4</ele>
        <time>2020-07-22T13:15:17Z</time>
      </trkpt>
      <trkpt lat="42.7603550" lon="1.7637540">
        <ele>617.2</ele>
        <time>2020-07-22T13:15:18Z</time>
      </trkpt>
      <trkpt lat="42.7603610" lon="1.7633810">
        <ele>617.6</ele>
        <time>2020-07-22T13:15:21Z</time>
      </trkpt>
      <trkpt lat="42.7603810" lon="1.7629960">
        <ele>617.4</ele>
        <time>2020-07-22T13:15:24Z</time>
      </trkpt>
      <trkpt lat="42.7604340" lon="1.7624930">
        <ele>617.0</ele>
        <time>2020-07-22T13:15:28Z</time>
      </trkpt>
      <trkpt lat="42.7604650" lon="1.7623730">
        <ele>617.0</ele>
        <time>2020-07-22T13:15:29Z</time>
      </trkpt>
      <trkpt lat="42.7605120" lon="1.7622620">
        <ele>617.0</ele>
        <time>2020-07-22T13:15:30Z</time>
      </trkpt>
      <trkpt lat="42.7608350" lon="1.7617860">
        <ele>616.2</ele>
        <time>2020-07-22T13:15:35Z</time>
      </trkpt>
      <trkpt lat="42.7611330" lon="1.7613910">
        <ele>615.0</ele>
        <time>2020-07-22T13:15:39Z</time>
      </trkpt>
      <trkpt lat="42.7612650" lon="1.7611580">
        <ele>613.4</ele>
        <time>2020-07-22T13:15:41Z</time>
      </trkpt>
      <trkpt lat="42.7614130" lon="1.7607300">
        <ele>612.2</ele>
        <time>2020-07-22T13:15:44Z</time>
      </trkpt>
      <trkpt lat="42.7614600" lon="1.7605780">
        <ele>611.8</ele>
        <time>2020-07-22T13:15:45Z</time>
      </trkpt>
      <trkpt lat="42.7616050" lon="1.7601280">
        <ele>611.0</ele>
        <time>2020-07-22T13:15:48Z</time>
      </trkpt>
      <trkpt lat="42.7618580" lon="1.7594150">
        <ele>609.8</ele>
        <time>2020-07-22T13:15:53Z</time>
      </trkpt>
      <trkpt lat="42.7620490" lon="1.7588510">
        <ele>608.6</ele>
        <time>2020-07-22T13:15:57Z</time>
      </trkpt>
      <trkpt lat="42.7623060" lon="1.7581400">
        <ele>608.2</ele>
        <time>2020-07-22T13:16:02Z</time>
      </trkpt>
      <trkpt lat="42.7623610" lon="1.7579950">
        <ele>608.0</ele>
        <time>2020-07-22T13:16:03Z</time>
      </trkpt>
      <trkpt lat="42.7624170" lon="1.7578510">
        <ele>607.4</ele>
        <time>2020-07-22T13:16:04Z</time>
      </trkpt>
      <trkpt lat="42.7625320" lon="1.7575640">
        <ele>606.2</ele>
        <time>2020-07-22T13:16:06Z</time>
      </trkpt>
      <trkpt lat="42.7628200" lon="1.7568460">
        <ele>604.6</ele>
        <time>2020-07-22T13:16:11Z</time>
      </trkpt>
      <trkpt lat="42.7628790" lon="1.7567060">
        <ele>604.2</ele>
        <time>2020-07-22T13:16:12Z</time>
      </trkpt>
      <trkpt lat="42.7629370" lon="1.7565670">
        <ele>603.6</ele>
        <time>2020-07-22T13:16:13Z</time>
      </trkpt>
      <trkpt lat="42.7631730" lon="1.7560200">
        <ele>602.4</ele>
        <time>2020-07-22T13:16:17Z</time>
      </trkpt>
      <trkpt lat="42.7633500" lon="1.7556230">
        <ele>602.0</ele>
        <time>2020-07-22T13:16:20Z</time>
      </trkpt>
      <trkpt lat="42.7635600" lon="1.7550720">
        <ele>601.6</ele>
        <time>2020-07-22T13:16:24Z</time>
      </trkpt>
      <trkpt lat="42.7636440" lon="1.7547840">
        <ele>601.4</ele>
        <time>2020-07-22T13:16:26Z</time>
      </trkpt>
      <trkpt lat="42.7636830" lon="1.7546380">
        <ele>601.2</ele>
        <time>2020-07-22T13:16:27Z</time>
      </trkpt>
      <trkpt lat="42.7638300" lon="1.7540460">
        <ele>600.2</ele>
        <time>2020-07-22T13:16:31Z</time>
      </trkpt>
      <trkpt lat="42.7639450" lon="1.7536000">
        <ele>599.4</ele>
        <time>2020-07-22T13:16:34Z</time>
      </trkpt>
      <trkpt lat="42.7639830" lon="1.7534520">
        <ele>599.2</ele>
        <time>2020-07-22T13:16:35Z</time>
      </trkpt>
      <trkpt lat="42.7641650" lon="1.7528830">
        <ele>598.0</ele>
        <time>2020-07-22T13:16:39Z</time>
      </trkpt>
      <trkpt lat="42.7642160" lon="1.7527460">
        <ele>597.8</ele>
        <time>2020-07-22T13:16:40Z</time>
      </trkpt>
      <trkpt lat="42.7644930" lon="1.7520900">
        <ele>597.2</ele>
        <time>2020-07-22T13:16:45Z</time>
      </trkpt>
      <trkpt lat="42.7645470" lon="1.7519600">
        <ele>597.0</ele>
        <time>2020-07-22T13:16:46Z</time>
      </trkpt>
      <trkpt lat="42.7648160" lon="1.7513020">
        <ele>596.2</ele>
        <time>2020-07-22T13:16:51Z</time>
      </trkpt>
      <trkpt lat="42.7648700" lon="1.7511710">
        <ele>596.0</ele>
        <time>2020-07-22T13:16:52Z</time>
      </trkpt>
      <trkpt lat="42.7649790" lon="1.7509090">
        <ele>595.4</ele>
        <time>2020-07-22T13:16:54Z</time>
      </trkpt>
      <trkpt lat="42.7650290" lon="1.7507740">
        <ele>595.0</ele>
        <time>2020-07-22T13:16:55Z</time>
      </trkpt>
      <trkpt lat="42.7652940" lon="1.7501240">
        <ele>594.2</ele>
        <time>2020-07-22T13:17:00Z</time>
      </trkpt>
      <trkpt lat="42.7654050" lon="1.7498710">
        <ele>594.0</ele>
        <time>2020-07-22T13:17:02Z</time>
      </trkpt>
      <trkpt lat="42.7655030" lon="1.7496090">
        <ele>593.8</ele>
        <time>2020-07-22T13:17:04Z</time>
      </trkpt>
      <trkpt lat="42.7655560" lon="1.7494830">
        <ele>593.6</ele>
        <time>2020-07-22T13:17:05Z</time>
      </trkpt>
      <trkpt lat="42.7656950" lon="1.7491010">
        <ele>592.6</ele>
        <time>2020-07-22T13:17:08Z</time>
      </trkpt>
      <trkpt lat="42.7657620" lon="1.7488390">
        <ele>592.6</ele>
        <time>2020-07-22T13:17:09Z</time>
      </trkpt>
      <trkpt lat="42.7657680" lon="1.7487690">
        <ele>592.4</ele>
        <time>2020-07-22T13:17:10Z</time>
      </trkpt>
      <trkpt lat="42.7657740" lon="1.7486990">
        <ele>592.4</ele>
        <time>2020-07-22T13:17:11Z</time>
      </trkpt>
      <trkpt lat="42.7658110" lon="1.7482800">
        <ele>592.2</ele>
        <time>2020-07-22T13:17:14Z</time>
      </trkpt>
      <trkpt lat="42.7658290" lon="1.7474030">
        <ele>591.6</ele>
        <time>2020-07-22T13:17:20Z</time>
      </trkpt>
      <trkpt lat="42.7658380" lon="1.7471120">
        <ele>590.8</ele>
        <time>2020-07-22T13:17:22Z</time>
      </trkpt>
      <trkpt lat="42.7658800" lon="1.7466720">
        <ele>590.4</ele>
        <time>2020-07-22T13:17:25Z</time>
      </trkpt>
      <trkpt lat="42.7659380" lon="1.7463850">
        <ele>590.4</ele>
        <time>2020-07-22T13:17:27Z</time>
      </trkpt>
      <trkpt lat="42.7661180" lon="1.7458510">
        <ele>590.0</ele>
        <time>2020-07-22T13:17:31Z</time>
      </trkpt>
      <trkpt lat="42.7664650" lon="1.7451410">
        <ele>591.0</ele>
        <time>2020-07-22T13:17:37Z</time>
      </trkpt>
      <trkpt lat="42.7666940" lon="1.7446920">
        <ele>590.2</ele>
        <time>2020-07-22T13:17:41Z</time>
      </trkpt>
      <trkpt lat="42.7667990" lon="1.7444750">
        <ele>590.0</ele>
        <time>2020-07-22T13:17:43Z</time>
      </trkpt>
      <trkpt lat="42.7670410" lon="1.7439960">
        <ele>591.8</ele>
        <time>2020-07-22T13:17:48Z</time>
      </trkpt>
      <trkpt lat="42.7671750" lon="1.7437380">
        <ele>593.0</ele>
        <time>2020-07-22T13:17:51Z</time>
      </trkpt>
      <trkpt lat="42.7673140" lon="1.7435040">
        <ele>593.8</ele>
        <time>2020-07-22T13:17:54Z</time>
      </trkpt>
      <trkpt lat="42.7673620" lon="1.7434290">
        <ele>594.2</ele>
        <time>2020-07-22T13:17:55Z</time>
      </trkpt>
      <trkpt lat="42.7676060" lon="1.7430740">
        <ele>595.2</ele>
        <time>2020-07-22T13:18:00Z</time>
      </trkpt>
      <trkpt lat="42.7676960" lon="1.7429250">
        <ele>595.6</ele>
        <time>2020-07-22T13:18:02Z</time>
      </trkpt>
      <trkpt lat="42.7677410" lon="1.7428520">
        <ele>596.2</ele>
        <time>2020-07-22T13:18:03Z</time>
      </trkpt>
      <trkpt lat="42.7678850" lon="1.7426570">
        <ele>597.4</ele>
        <time>2020-07-22T13:18:06Z</time>
      </trkpt>
      <trkpt lat="42.7680240" lon="1.7424790">
        <ele>597.8</ele>
        <time>2020-07-22T13:18:09Z</time>
      </trkpt>
      <trkpt lat="42.7681090" lon="1.7423560">
        <ele>598.4</ele>
        <time>2020-07-22T13:18:11Z</time>
      </trkpt>
      <trkpt lat="42.7682650" lon="1.7420940">
        <ele>599.2</ele>
        <time>2020-07-22T13:18:15Z</time>
      </trkpt>
      <trkpt lat="42.7683000" lon="1.7420270">
        <ele>599.4</ele>
        <time>2020-07-22T13:18:16Z</time>
      </trkpt>
      <trkpt lat="42.7684150" lon="1.7417350">
        <ele>600.6</ele>
        <time>2020-07-22T13:18:20Z</time>
      </trkpt>
      <trkpt lat="42.7684520" lon="1.7415770">
        <ele>601.0</ele>
        <time>2020-07-22T13:18:22Z</time>
      </trkpt>
      <trkpt lat="42.7684780" lon="1.7413160">
        <ele>602.0</ele>
        <time>2020-07-22T13:18:25Z</time>
      </trkpt>
      <trkpt lat="42.7684810" lon="1.7410420">
        <ele>602.4</ele>
        <time>2020-07-22T13:18:28Z</time>
      </trkpt>
      <trkpt lat="42.7684920" lon="1.7404840">
        <ele>603.0</ele>
        <time>2020-07-22T13:18:34Z</time>
      </trkpt>
      <trkpt lat="42.7685070" lon="1.7403030">
        <ele>603.4</ele>
        <time>2020-07-22T13:18:36Z</time>
      </trkpt>
      <trkpt lat="42.7686020" lon="1.7397860">
        <ele>603.4</ele>
        <time>2020-07-22T13:18:42Z</time>
      </trkpt>
      <trkpt lat="42.7686470" lon="1.7396240">
        <ele>603.4</ele>
        <time>2020-07-22T13:18:44Z</time>
      </trkpt>
      <trkpt lat="42.7688120" lon="1.7391620">
        <ele>604.2</ele>
        <time>2020-07-22T13:18:50Z</time>
      </trkpt>
      <trkpt lat="42.7688440" lon="1.7390890">
        <ele>604.4</ele>
        <time>2020-07-22T13:18:51Z</time>
      </trkpt>
      <trkpt lat="42.7689860" lon="1.7388000">
        <ele>605.4</ele>
        <time>2020-07-22T13:18:55Z</time>
      </trkpt>
      <trkpt lat="42.7691430" lon="1.7385280">
        <ele>606.2</ele>
        <time>2020-07-22T13:18:59Z</time>
      </trkpt>
      <trkpt lat="42.7692240" lon="1.7383920">
        <ele>606.4</ele>
        <time>2020-07-22T13:19:01Z</time>
      </trkpt>
      <trkpt lat="42.7694100" lon="1.7380620">
        <ele>606.8</ele>
        <time>2020-07-22T13:19:06Z</time>
      </trkpt>
      <trkpt lat="42.7695420" lon="1.7377690">
        <ele>607.4</ele>
        <time>2020-07-22T13:19:10Z</time>
      </trkpt>
      <trkpt lat="42.7696540" lon="1.7375560">
        <ele>607.8</ele>
        <time>2020-07-22T13:19:13Z</time>
      </trkpt>
      <trkpt lat="42.7697670" lon="1.7373290">
        <ele>608.6</ele>
        <time>2020-07-22T13:19:16Z</time>
      </trkpt>
      <trkpt lat="42.7698960" lon="1.7371200">
        <ele>609.2</ele>
        <time>2020-07-22T13:19:19Z</time>
      </trkpt>
      <trkpt lat="42.7701290" lon="1.7368130">
        <ele>609.8</ele>
        <time>2020-07-22T13:19:24Z</time>
      </trkpt>
      <trkpt lat="42.7702220" lon="1.7366930">
        <ele>610.6</ele>
        <time>2020-07-22T13:19:26Z</time>
      </trkpt>
      <trkpt lat="42.7702670" lon="1.7366310">
        <ele>611.0</ele>
        <time>2020-07-22T13:19:27Z</time>
      </trkpt>
      <trkpt lat="42.7704580" lon="1.7363160">
        <ele>612.2</ele>
        <time>2020-07-22T13:19:32Z</time>
      </trkpt>
      <trkpt lat="42.7704880" lon="1.7362510">
        <ele>612.2</ele>
        <time>2020-07-22T13:19:33Z</time>
      </trkpt>
      <trkpt lat="42.7705910" lon="1.7358890">
        <ele>612.8</ele>
        <time>2020-07-22T13:19:38Z</time>
      </trkpt>
      <trkpt lat="42.7706010" lon="1.7358100">
        <ele>613.0</ele>
        <time>2020-07-22T13:19:39Z</time>
      </trkpt>
      <trkpt lat="42.7706020" lon="1.7357270">
        <ele>613.0</ele>
        <time>2020-07-22T13:19:40Z</time>
      </trkpt>
      <trkpt lat="42.7705950" lon="1.7353930">
        <ele>613.2</ele>
        <time>2020-07-22T13:19:44Z</time>
      </trkpt>
      <trkpt lat="42.7705670" lon="1.7352170">
        <ele>613.2</ele>
        <time>2020-07-22T13:19:46Z</time>
      </trkpt>
      <trkpt lat="42.7705010" lon="1.7349420">
        <ele>613.0</ele>
        <time>2020-07-22T13:19:49Z</time>
      </trkpt>
      <trkpt lat="42.7703810" lon="1.7344630">
        <ele>612.2</ele>
        <time>2020-07-22T13:19:54Z</time>
      </trkpt>
      <trkpt lat="42.7703410" lon="1.7342490">
        <ele>611.4</ele>
        <time>2020-07-22T13:19:56Z</time>
      </trkpt>
      <trkpt lat="42.7703230" lon="1.7341420">
        <ele>611.2</ele>
        <time>2020-07-22T13:19:57Z</time>
      </trkpt>
      <trkpt lat="42.7703060" lon="1.7336960">
        <ele>610.0</ele>
        <time>2020-07-22T13:20:01Z</time>
      </trkpt>
      <trkpt lat="42.7703570" lon="1.7333520">
        <ele>609.6</ele>
        <time>2020-07-22T13:20:04Z</time>
      </trkpt>
      <trkpt lat="42.7703830" lon="1.7332360">
        <ele>609.4</ele>
        <time>2020-07-22T13:20:05Z</time>
      </trkpt>
      <trkpt lat="42.7704410" lon="1.7329960">
        <ele>608.8</ele>
        <time>2020-07-22T13:20:07Z</time>
      </trkpt>
      <trkpt lat="42.7705100" lon="1.7327530">
        <ele>607.8</ele>
        <time>2020-07-22T13:20:09Z</time>
      </trkpt>
      <trkpt lat="42.7705820" lon="1.7325130">
        <ele>607.4</ele>
        <time>2020-07-22T13:20:11Z</time>
      </trkpt>
      <trkpt lat="42.7706780" lon="1.7321500">
        <ele>606.4</ele>
        <time>2020-07-22T13:20:14Z</time>
      </trkpt>
      <trkpt lat="42.7707200" lon="1.7319010">
        <ele>605.8</ele>
        <time>2020-07-22T13:20:16Z</time>
      </trkpt>
      <trkpt lat="42.7707340" lon="1.7317740">
        <ele>605.2</ele>
        <time>2020-07-22T13:20:17Z</time>
      </trkpt>
      <trkpt lat="42.7707900" lon="1.7311270">
        <ele>604.2</ele>
        <time>2020-07-22T13:20:22Z</time>
      </trkpt>
      <trkpt lat="42.7708190" lon="1.7307130">
        <ele>603.0</ele>
        <time>2020-07-22T13:20:25Z</time>
      </trkpt>
      <trkpt lat="42.7708490" lon="1.7302880">
        <ele>601.6</ele>
        <time>2020-07-22T13:20:28Z</time>
      </trkpt>
      <trkpt lat="42.7708720" lon="1.7300040">
        <ele>601.0</ele>
        <time>2020-07-22T13:20:30Z</time>
      </trkpt>
      <trkpt lat="42.7708940" lon="1.7297230">
        <ele>600.6</ele>
        <time>2020-07-22T13:20:32Z</time>
      </trkpt>
      <trkpt lat="42.7709240" lon="1.7292950">
        <ele>599.4</ele>
        <time>2020-07-22T13:20:35Z</time>
      </trkpt>
      <trkpt lat="42.7709390" lon="1.7289920">
        <ele>598.0</ele>
        <time>2020-07-22T13:20:37Z</time>
      </trkpt>
      <trkpt lat="42.7709450" lon="1.7288350">
        <ele>597.2</ele>
        <time>2020-07-22T13:20:38Z</time>
      </trkpt>
      <trkpt lat="42.7709540" lon="1.7286780">
        <ele>596.0</ele>
        <time>2020-07-22T13:20:39Z</time>
      </trkpt>
      <trkpt lat="42.7709620" lon="1.7285200">
        <ele>595.2</ele>
        <time>2020-07-22T13:20:40Z</time>
      </trkpt>
      <trkpt lat="42.7709700" lon="1.7283620">
        <ele>594.6</ele>
        <time>2020-07-22T13:20:41Z</time>
      </trkpt>
      <trkpt lat="42.7709790" lon="1.7282000">
        <ele>594.2</ele>
        <time>2020-07-22T13:20:42Z</time>
      </trkpt>
      <trkpt lat="42.7709960" lon="1.7278660">
        <ele>593.2</ele>
        <time>2020-07-22T13:20:44Z</time>
      </trkpt>
      <trkpt lat="42.7710050" lon="1.7276970">
        <ele>592.2</ele>
        <time>2020-07-22T13:20:45Z</time>
      </trkpt>
      <trkpt lat="42.7710150" lon="1.7275270">
        <ele>591.2</ele>
        <time>2020-07-22T13:20:46Z</time>
      </trkpt>
      <trkpt lat="42.7710350" lon="1.7271820">
        <ele>589.4</ele>
        <time>2020-07-22T13:20:48Z</time>
      </trkpt>
      <trkpt lat="42.7710530" lon="1.7268310">
        <ele>588.2</ele>
        <time>2020-07-22T13:20:50Z</time>
      </trkpt>
      <trkpt lat="42.7710780" lon="1.7264810">
        <ele>587.2</ele>
        <time>2020-07-22T13:20:52Z</time>
      </trkpt>
      <trkpt lat="42.7710900" lon="1.7263020">
        <ele>586.4</ele>
        <time>2020-07-22T13:20:53Z</time>
      </trkpt>
      <trkpt lat="42.7711000" lon="1.7261190">
        <ele>585.2</ele>
        <time>2020-07-22T13:20:54Z</time>
      </trkpt>
      <trkpt lat="42.7711100" lon="1.7259350">
        <ele>584.2</ele>
        <time>2020-07-22T13:20:55Z</time>
      </trkpt>
      <trkpt lat="42.7711350" lon="1.7255640">
        <ele>583.0</ele>
        <time>2020-07-22T13:20:57Z</time>
      </trkpt>
      <trkpt lat="42.7711600" lon="1.7251890">
        <ele>581.4</ele>
        <time>2020-07-22T13:20:59Z</time>
      </trkpt>
      <trkpt lat="42.7711720" lon="1.7250010">
        <ele>580.2</ele>
        <time>2020-07-22T13:21:00Z</time>
      </trkpt>
      <trkpt lat="42.7711830" lon="1.7248130">
        <ele>578.8</ele>
        <time>2020-07-22T13:21:01Z</time>
      </trkpt>
      <trkpt lat="42.7711940" lon="1.7246240">
        <ele>577.4</ele>
        <time>2020-07-22T13:21:02Z</time>
      </trkpt>
      <trkpt lat="42.7712190" lon="1.7242510">
        <ele>576.0</ele>
        <time>2020-07-22T13:21:04Z</time>
      </trkpt>
      <trkpt lat="42.7712520" lon="1.7237030">
        <ele>574.8</ele>
        <time>2020-07-22T13:21:07Z</time>
      </trkpt>
      <trkpt lat="42.7712640" lon="1.7235280">
        <ele>574.6</ele>
        <time>2020-07-22T13:21:08Z</time>
      </trkpt>
      <trkpt lat="42.7712960" lon="1.7230180">
        <ele>573.6</ele>
        <time>2020-07-22T13:21:11Z</time>
      </trkpt>
      <trkpt lat="42.7713400" lon="1.7223730">
        <ele>573.0</ele>
        <time>2020-07-22T13:21:15Z</time>
      </trkpt>
      <trkpt lat="42.7713580" lon="1.7220660">
        <ele>573.0</ele>
        <time>2020-07-22T13:21:17Z</time>
      </trkpt>
      <trkpt lat="42.7713680" lon="1.7219140">
        <ele>572.6</ele>
        <time>2020-07-22T13:21:18Z</time>
      </trkpt>
      <trkpt lat="42.7714110" lon="1.7213040">
        <ele>571.6</ele>
        <time>2020-07-22T13:21:22Z</time>
      </trkpt>
      <trkpt lat="42.7714210" lon="1.7211500">
        <ele>571.4</ele>
        <time>2020-07-22T13:21:23Z</time>
      </trkpt>
      <trkpt lat="42.7714300" lon="1.7209950">
        <ele>571.4</ele>
        <time>2020-07-22T13:21:24Z</time>
      </trkpt>
      <trkpt lat="42.7714850" lon="1.7202380">
        <ele>570.6</ele>
        <time>2020-07-22T13:21:29Z</time>
      </trkpt>
      <trkpt lat="42.7715190" lon="1.7197930">
        <ele>570.0</ele>
        <time>2020-07-22T13:21:32Z</time>
      </trkpt>
      <trkpt lat="42.7715350" lon="1.7195000">
        <ele>569.6</ele>
        <time>2020-07-22T13:21:34Z</time>
      </trkpt>
      <trkpt lat="42.7715740" lon="1.7187980">
        <ele>568.6</ele>
        <time>2020-07-22T13:21:39Z</time>
      </trkpt>
      <trkpt lat="42.7716240" lon="1.7179900">
        <ele>568.8</ele>
        <time>2020-07-22T13:21:45Z</time>
      </trkpt>
      <trkpt lat="42.7716310" lon="1.7178590">
        <ele>568.8</ele>
        <time>2020-07-22T13:21:46Z</time>
      </trkpt>
      <trkpt lat="42.7716380" lon="1.7177300">
        <ele>568.6</ele>
        <time>2020-07-22T13:21:47Z</time>
      </trkpt>
      <trkpt lat="42.7716730" lon="1.7172220">
        <ele>568.4</ele>
        <time>2020-07-22T13:21:51Z</time>
      </trkpt>
      <trkpt lat="42.7717020" lon="1.7168540">
        <ele>568.2</ele>
        <time>2020-07-22T13:21:54Z</time>
      </trkpt>
      <trkpt lat="42.7717130" lon="1.7167350">
        <ele>567.8</ele>
        <time>2020-07-22T13:21:55Z</time>
      </trkpt>
      <trkpt lat="42.7717230" lon="1.7166170">
        <ele>567.4</ele>
        <time>2020-07-22T13:21:56Z</time>
      </trkpt>
      <trkpt lat="42.7717720" lon="1.7159160">
        <ele>567.8</ele>
        <time>2020-07-22T13:22:02Z</time>
      </trkpt>
      <trkpt lat="42.7717930" lon="1.7155590">
        <ele>568.0</ele>
        <time>2020-07-22T13:22:05Z</time>
      </trkpt>
      <trkpt lat="42.7718370" lon="1.7148400">
        <ele>566.6</ele>
        <time>2020-07-22T13:22:11Z</time>
      </trkpt>
      <trkpt lat="42.7718770" lon="1.7141170">
        <ele>566.8</ele>
        <time>2020-07-22T13:22:17Z</time>
      </trkpt>
      <trkpt lat="42.7719250" lon="1.7133980">
        <ele>566.6</ele>
        <time>2020-07-22T13:22:23Z</time>
      </trkpt>
      <trkpt lat="42.7719400" lon="1.7131620">
        <ele>566.4</ele>
        <time>2020-07-22T13:22:25Z</time>
      </trkpt>
      <trkpt lat="42.7719820" lon="1.7124710">
        <ele>566.0</ele>
        <time>2020-07-22T13:22:31Z</time>
      </trkpt>
      <trkpt lat="42.7720070" lon="1.7121350">
        <ele>565.8</ele>
        <time>2020-07-22T13:22:34Z</time>
      </trkpt>
      <trkpt lat="42.7720510" lon="1.7115900">
        <ele>565.4</ele>
        <time>2020-07-22T13:22:39Z</time>
      </trkpt>
      <trkpt lat="42.7720840" lon="1.7111690">
        <ele>565.2</ele>
        <time>2020-07-22T13:22:43Z</time>
      </trkpt>
      <trkpt lat="42.7721190" lon="1.7105480">
        <ele>565.6</ele>
        <time>2020-07-22T13:22:49Z</time>
      </trkpt>
      <trkpt lat="42.7721250" lon="1.7104470">
        <ele>565.8</ele>
        <time>2020-07-22T13:22:50Z</time>
      </trkpt>
      <trkpt lat="42.7721450" lon="1.7101520">
        <ele>566.4</ele>
        <time>2020-07-22T13:22:53Z</time>
      </trkpt>
      <trkpt lat="42.7721730" lon="1.7097640">
        <ele>567.6</ele>
        <time>2020-07-22T13:22:57Z</time>
      </trkpt>
      <trkpt lat="42.7722180" lon="1.7092010">
        <ele>567.2</ele>
        <time>2020-07-22T13:23:03Z</time>
      </trkpt>
      <trkpt lat="42.7722270" lon="1.7091080">
        <ele>567.2</ele>
        <time>2020-07-22T13:23:04Z</time>
      </trkpt>
      <trkpt lat="42.7722990" lon="1.7085810">
        <ele>568.2</ele>
        <time>2020-07-22T13:23:10Z</time>
      </trkpt>
      <trkpt lat="42.7723110" lon="1.7085050">
        <ele>568.6</ele>
        <time>2020-07-22T13:23:11Z</time>
      </trkpt>
      <trkpt lat="42.7723390" lon="1.7083660">
        <ele>570.0</ele>
        <time>2020-07-22T13:23:13Z</time>
      </trkpt>
      <trkpt lat="42.7723690" lon="1.7082330">
        <ele>571.4</ele>
        <time>2020-07-22T13:23:15Z</time>
      </trkpt>
      <trkpt lat="42.7723820" lon="1.7081670">
        <ele>571.8</ele>
        <time>2020-07-22T13:23:16Z</time>
      </trkpt>
      <trkpt lat="42.7724170" lon="1.7080360">
        <ele>572.4</ele>
        <time>2020-07-22T13:23:18Z</time>
      </trkpt>
      <trkpt lat="42.7724550" lon="1.7078990">
        <ele>573.4</ele>
        <time>2020-07-22T13:23:20Z</time>
      </trkpt>
      <trkpt lat="42.7725320" lon="1.7076200">
        <ele>574.6</ele>
        <time>2020-07-22T13:23:24Z</time>
      </trkpt>
      <trkpt lat="42.7725500" lon="1.7075510">
        <ele>574.8</ele>
        <time>2020-07-22T13:23:25Z</time>
      </trkpt>
      <trkpt lat="42.7726270" lon="1.7072890">
        <ele>575.6</ele>
        <time>2020-07-22T13:23:29Z</time>
      </trkpt>
      <trkpt lat="42.7727050" lon="1.7070350">
        <ele>577.0</ele>
        <time>2020-07-22T13:23:33Z</time>
      </trkpt>
      <trkpt lat="42.7728210" lon="1.7066710">
        <ele>577.6</ele>
        <time>2020-07-22T13:23:39Z</time>
      </trkpt>
      <trkpt lat="42.7728560" lon="1.7065490">
        <ele>578.2</ele>
        <time>2020-07-22T13:23:41Z</time>
      </trkpt>
      <trkpt lat="42.7728870" lon="1.7064230">
        <ele>578.6</ele>
        <time>2020-07-22T13:23:43Z</time>
      </trkpt>
      <trkpt lat="42.7729740" lon="1.7060100">
        <ele>578.6</ele>
        <time>2020-07-22T13:23:49Z</time>
      </trkpt>
      <trkpt lat="42.7730050" lon="1.7058620">
        <ele>578.8</ele>
        <time>2020-07-22T13:23:51Z</time>
      </trkpt>
      <trkpt lat="42.7730520" lon="1.7056320">
        <ele>579.2</ele>
        <time>2020-07-22T13:23:54Z</time>
      </trkpt>
      <trkpt lat="42.7731420" lon="1.7051700">
        <ele>580.0</ele>
        <time>2020-07-22T13:24:00Z</time>
      </trkpt>
      <trkpt lat="42.7731550" lon="1.7050930">
        <ele>580.4</ele>
        <time>2020-07-22T13:24:01Z</time>
      </trkpt>
      <trkpt lat="42.7731710" lon="1.7050120">
        <ele>580.8</ele>
        <time>2020-07-22T13:24:02Z</time>
      </trkpt>
      <trkpt lat="42.7732630" lon="1.7045080">
        <ele>580.0</ele>
        <time>2020-07-22T13:24:08Z</time>
      </trkpt>
      <trkpt lat="42.7732990" lon="1.7043230">
        <ele>579.4</ele>
        <time>2020-07-22T13:24:10Z</time>
      </trkpt>
      <trkpt lat="42.7733150" lon="1.7042280">
        <ele>579.2</ele>
        <time>2020-07-22T13:24:11Z</time>
      </trkpt>
      <trkpt lat="42.7734230" lon="1.7036550">
        <ele>578.4</ele>
        <time>2020-07-22T13:24:17Z</time>
      </trkpt>
      <trkpt lat="42.7735280" lon="1.7030740">
        <ele>578.4</ele>
        <time>2020-07-22T13:24:23Z</time>
      </trkpt>
      <trkpt lat="42.7735750" lon="1.7027780">
        <ele>578.2</ele>
        <time>2020-07-22T13:24:26Z</time>
      </trkpt>
      <trkpt lat="42.7735890" lon="1.7026800">
        <ele>578.0</ele>
        <time>2020-07-22T13:24:27Z</time>
      </trkpt>
      <trkpt lat="42.7736450" lon="1.7022940">
        <ele>577.0</ele>
        <time>2020-07-22T13:24:31Z</time>
      </trkpt>
      <trkpt lat="42.7737010" lon="1.7018970">
        <ele>576.2</ele>
        <time>2020-07-22T13:24:35Z</time>
      </trkpt>
      <trkpt lat="42.7737940" lon="1.7012640">
        <ele>576.2</ele>
        <time>2020-07-22T13:24:41Z</time>
      </trkpt>
      <trkpt lat="42.7738160" lon="1.7011510">
        <ele>576.2</ele>
        <time>2020-07-22T13:24:42Z</time>
      </trkpt>
      <trkpt lat="42.7738430" lon="1.7010360">
        <ele>575.8</ele>
        <time>2020-07-22T13:24:43Z</time>
      </trkpt>
      <trkpt lat="42.7739620" lon="1.7006830">
        <ele>574.4</ele>
        <time>2020-07-22T13:24:46Z</time>
      </trkpt>
      <trkpt lat="42.7740770" lon="1.7004530">
        <ele>572.2</ele>
        <time>2020-07-22T13:24:48Z</time>
      </trkpt>
      <trkpt lat="42.7741400" lon="1.7003390">
        <ele>571.2</ele>
        <time>2020-07-22T13:24:49Z</time>
      </trkpt>
      <trkpt lat="42.7742660" lon="1.7001020">
        <ele>569.6</ele>
        <time>2020-07-22T13:24:51Z</time>
      </trkpt>
      <trkpt lat="42.7744510" lon="1.6997310">
        <ele>568.0</ele>
        <time>2020-07-22T13:24:54Z</time>
      </trkpt>
      <trkpt lat="42.7745740" lon="1.6994830">
        <ele>567.0</ele>
        <time>2020-07-22T13:24:56Z</time>
      </trkpt>
      <trkpt lat="42.7747000" lon="1.6992210">
        <ele>565.8</ele>
        <time>2020-07-22T13:24:58Z</time>
      </trkpt>
      <trkpt lat="42.7748300" lon="1.6989440">
        <ele>564.0</ele>
        <time>2020-07-22T13:25:00Z</time>
      </trkpt>
      <trkpt lat="42.7751000" lon="1.6983880">
        <ele>562.8</ele>
        <time>2020-07-22T13:25:04Z</time>
      </trkpt>
      <trkpt lat="42.7751650" lon="1.6982520">
        <ele>562.6</ele>
        <time>2020-07-22T13:25:05Z</time>
      </trkpt>
      <trkpt lat="42.7755060" lon="1.6975950">
        <ele>561.8</ele>
        <time>2020-07-22T13:25:09Z</time>
      </trkpt>
      <trkpt lat="42.7755740" lon="1.6974680">
        <ele>561.6</ele>
        <time>2020-07-22T13:25:11Z</time>
      </trkpt>
      <trkpt lat="42.7756450" lon="1.6973410">
        <ele>561.2</ele>
        <time>2020-07-22T13:25:12Z</time>
      </trkpt>
      <trkpt lat="42.7757990" lon="1.6970940">
        <ele>560.0</ele>
        <time>2020-07-22T13:25:14Z</time>
      </trkpt>
      <trkpt lat="42.7758850" lon="1.6969830">
        <ele>559.6</ele>
        <time>2020-07-22T13:25:15Z</time>
      </trkpt>
      <trkpt lat="42.7760700" lon="1.6968040">
        <ele>559.2</ele>
        <time>2020-07-22T13:25:17Z</time>
      </trkpt>
      <trkpt lat="42.7762570" lon="1.6966720">
        <ele>559.0</ele>
        <time>2020-07-22T13:25:19Z</time>
      </trkpt>
      <trkpt lat="42.7763510" lon="1.6966280">
        <ele>559.0</ele>
        <time>2020-07-22T13:25:20Z</time>
      </trkpt>
      <trkpt lat="42.7764430" lon="1.6965960">
        <ele>559.0</ele>
        <time>2020-07-22T13:25:21Z</time>
      </trkpt>
      <trkpt lat="42.7767150" lon="1.6965500">
        <ele>558.6</ele>
        <time>2020-07-22T13:25:24Z</time>
      </trkpt>
      <trkpt lat="42.7768860" lon="1.6965170">
        <ele>558.0</ele>
        <time>2020-07-22T13:25:26Z</time>
      </trkpt>
      <trkpt lat="42.7772950" lon="1.6964110">
        <ele>557.4</ele>
        <time>2020-07-22T13:25:31Z</time>
      </trkpt>
      <trkpt lat="42.7773720" lon="1.6963940">
        <ele>557.6</ele>
        <time>2020-07-22T13:25:32Z</time>
      </trkpt>
      <trkpt lat="42.7775160" lon="1.6963630">
        <ele>557.8</ele>
        <time>2020-07-22T13:25:34Z</time>
      </trkpt>
      <trkpt lat="42.7775850" lon="1.6963460">
        <ele>557.8</ele>
        <time>2020-07-22T13:25:35Z</time>
      </trkpt>
      <trkpt lat="42.7777830" lon="1.6962750">
        <ele>558.0</ele>
        <time>2020-07-22T13:25:38Z</time>
      </trkpt>
      <trkpt lat="42.7781940" lon="1.6961300">
        <ele>557.8</ele>
        <time>2020-07-22T13:25:44Z</time>
      </trkpt>
      <trkpt lat="42.7782660" lon="1.6961070">
        <ele>557.4</ele>
        <time>2020-07-22T13:25:45Z</time>
      </trkpt>
      <trkpt lat="42.7784080" lon="1.6960620">
        <ele>556.8</ele>
        <time>2020-07-22T13:25:47Z</time>
      </trkpt>
      <trkpt lat="42.7788080" lon="1.6959480">
        <ele>556.4</ele>
        <time>2020-07-22T13:25:53Z</time>
      </trkpt>
      <trkpt lat="42.7789270" lon="1.6958910">
        <ele>555.6</ele>
        <time>2020-07-22T13:25:55Z</time>
      </trkpt>
      <trkpt lat="42.7790390" lon="1.6957970">
        <ele>556.2</ele>
        <time>2020-07-22T13:25:57Z</time>
      </trkpt>
      <trkpt lat="42.7793920" lon="1.6954660">
        <ele>555.2</ele>
        <time>2020-07-22T13:26:03Z</time>
      </trkpt>
      <trkpt lat="42.7795160" lon="1.6953550">
        <ele>554.4</ele>
        <time>2020-07-22T13:26:05Z</time>
      </trkpt>
      <trkpt lat="42.7796380" lon="1.6952370">
        <ele>553.6</ele>
        <time>2020-07-22T13:26:07Z</time>
      </trkpt>
      <trkpt lat="42.7797660" lon="1.6951140">
        <ele>553.2</ele>
        <time>2020-07-22T13:26:09Z</time>
      </trkpt>
      <trkpt lat="42.7798980" lon="1.6949920">
        <ele>552.6</ele>
        <time>2020-07-22T13:26:11Z</time>
      </trkpt>
      <trkpt lat="42.7799640" lon="1.6949300">
        <ele>552.2</ele>
        <time>2020-07-22T13:26:12Z</time>
      </trkpt>
      <trkpt lat="42.7800340" lon="1.6948670">
        <ele>552.0</ele>
        <time>2020-07-22T13:26:13Z</time>
      </trkpt>
      <trkpt lat="42.7801040" lon="1.6948060">
        <ele>552.0</ele>
        <time>2020-07-22T13:26:14Z</time>
      </trkpt>
      <trkpt lat="42.7801750" lon="1.6947420">
        <ele>551.8</ele>
        <time>2020-07-22T13:26:15Z</time>
      </trkpt>
      <trkpt lat="42.7802460" lon="1.6946770">
        <ele>551.6</ele>
        <time>2020-07-22T13:26:16Z</time>
      </trkpt>
      <trkpt lat="42.7803170" lon="1.6946130">
        <ele>551.0</ele>
        <time>2020-07-22T13:26:17Z</time>
      </trkpt>
      <trkpt lat="42.7804550" lon="1.6944820">
        <ele>550.4</ele>
        <time>2020-07-22T13:26:19Z</time>
      </trkpt>
      <trkpt lat="42.7805210" lon="1.6944200">
        <ele>550.2</ele>
        <time>2020-07-22T13:26:20Z</time>
      </trkpt>
      <trkpt lat="42.7805850" lon="1.6943610">
        <ele>550.4</ele>
        <time>2020-07-22T13:26:21Z</time>
      </trkpt>
      <trkpt lat="42.7807080" lon="1.6942540">
        <ele>550.8</ele>
        <time>2020-07-22T13:26:23Z</time>
      </trkpt>
      <trkpt lat="42.7808950" lon="1.6941410">
        <ele>550.8</ele>
        <time>2020-07-22T13:26:26Z</time>
      </trkpt>
      <trkpt lat="42.7810820" lon="1.6940940">
        <ele>550.8</ele>
        <time>2020-07-22T13:26:29Z</time>
      </trkpt>
      <trkpt lat="42.7811440" lon="1.6940920">
        <ele>550.8</ele>
        <time>2020-07-22T13:26:30Z</time>
      </trkpt>
      <trkpt lat="42.7814190" lon="1.6940740">
        <ele>549.8</ele>
        <time>2020-07-22T13:26:34Z</time>
      </trkpt>
      <trkpt lat="42.7815740" lon="1.6940700">
        <ele>549.6</ele>
        <time>2020-07-22T13:26:36Z</time>
      </trkpt>
      <trkpt lat="42.7816540" lon="1.6940700">
        <ele>549.4</ele>
        <time>2020-07-22T13:26:37Z</time>
      </trkpt>
      <trkpt lat="42.7818230" lon="1.6940610">
        <ele>548.4</ele>
        <time>2020-07-22T13:26:39Z</time>
      </trkpt>
      <trkpt lat="42.7819960" lon="1.6940540">
        <ele>547.6</ele>
        <time>2020-07-22T13:26:41Z</time>
      </trkpt>
      <trkpt lat="42.7820870" lon="1.6940500">
        <ele>547.2</ele>
        <time>2020-07-22T13:26:42Z</time>
      </trkpt>
      <trkpt lat="42.7823560" lon="1.6940440">
        <ele>546.2</ele>
        <time>2020-07-22T13:26:45Z</time>
      </trkpt>
      <trkpt lat="42.7827110" lon="1.6940220">
        <ele>545.4</ele>
        <time>2020-07-22T13:26:49Z</time>
      </trkpt>
      <trkpt lat="42.7829670" lon="1.6939810">
        <ele>545.4</ele>
        <time>2020-07-22T13:26:52Z</time>
      </trkpt>
      <trkpt lat="42.7830480" lon="1.6939550">
        <ele>545.6</ele>
        <time>2020-07-22T13:26:53Z</time>
      </trkpt>
      <trkpt lat="42.7831260" lon="1.6939250">
        <ele>545.6</ele>
        <time>2020-07-22T13:26:54Z</time>
      </trkpt>
      <trkpt lat="42.7832030" lon="1.6938890">
        <ele>545.8</ele>
        <time>2020-07-22T13:26:55Z</time>
      </trkpt>
      <trkpt lat="42.7832750" lon="1.6938530">
        <ele>545.8</ele>
        <time>2020-07-22T13:26:56Z</time>
      </trkpt>
      <trkpt lat="42.7833430" lon="1.6938110">
        <ele>546.2</ele>
        <time>2020-07-22T13:26:57Z</time>
      </trkpt>
      <trkpt lat="42.7835190" lon="1.6936570">
        <ele>547.0</ele>
        <time>2020-07-22T13:27:00Z</time>
      </trkpt>
      <trkpt lat="42.7835670" lon="1.6936010">
        <ele>547.4</ele>
        <time>2020-07-22T13:27:01Z</time>
      </trkpt>
      <trkpt lat="42.7836140" lon="1.6935430">
        <ele>547.8</ele>
        <time>2020-07-22T13:27:02Z</time>
      </trkpt>
      <trkpt lat="42.7837300" lon="1.6933500">
        <ele>548.4</ele>
        <time>2020-07-22T13:27:05Z</time>
      </trkpt>
      <trkpt lat="42.7838830" lon="1.6929270">
        <ele>548.6</ele>
        <time>2020-07-22T13:27:11Z</time>
      </trkpt>
      <trkpt lat="42.7839000" lon="1.6928500">
        <ele>548.4</ele>
        <time>2020-07-22T13:27:12Z</time>
      </trkpt>
      <trkpt lat="42.7839630" lon="1.6923720">
        <ele>547.8</ele>
        <time>2020-07-22T13:27:18Z</time>
      </trkpt>
      <trkpt lat="42.7839860" lon="1.6922040">
        <ele>547.6</ele>
        <time>2020-07-22T13:27:20Z</time>
      </trkpt>
      <trkpt lat="42.7840510" lon="1.6918110">
        <ele>546.4</ele>
        <time>2020-07-22T13:27:25Z</time>
      </trkpt>
      <trkpt lat="42.7841120" lon="1.6913960">
        <ele>546.2</ele>
        <time>2020-07-22T13:27:31Z</time>
      </trkpt>
      <trkpt lat="42.7841240" lon="1.6913330">
        <ele>546.4</ele>
        <time>2020-07-22T13:27:32Z</time>
      </trkpt>
      <trkpt lat="42.7841960" lon="1.6909300">
        <ele>546.4</ele>
        <time>2020-07-22T13:27:38Z</time>
      </trkpt>
      <trkpt lat="42.7842110" lon="1.6908580">
        <ele>546.4</ele>
        <time>2020-07-22T13:27:39Z</time>
      </trkpt>
      <trkpt lat="42.7842660" lon="1.6906370">
        <ele>546.0</ele>
        <time>2020-07-22T13:27:42Z</time>
      </trkpt>
      <trkpt lat="42.7843140" lon="1.6904060">
        <ele>545.0</ele>
        <time>2020-07-22T13:27:45Z</time>
      </trkpt>
      <trkpt lat="42.7843300" lon="1.6903340">
        <ele>544.8</ele>
        <time>2020-07-22T13:27:46Z</time>
      </trkpt>
      <trkpt lat="42.7844060" lon="1.6899760">
        <ele>544.0</ele>
        <time>2020-07-22T13:27:51Z</time>
      </trkpt>
      <trkpt lat="42.7844310" lon="1.6898410">
        <ele>543.6</ele>
        <time>2020-07-22T13:27:53Z</time>
      </trkpt>
      <trkpt lat="42.7845160" lon="1.6894540">
        <ele>544.2</ele>
        <time>2020-07-22T13:27:59Z</time>
      </trkpt>
      <trkpt lat="42.7845950" lon="1.6892150">
        <ele>544.4</ele>
        <time>2020-07-22T13:28:04Z</time>
      </trkpt>
      <trkpt lat="42.7847240" lon="1.6889810">
        <ele>544.4</ele>
        <time>2020-07-22T13:28:09Z</time>
      </trkpt>
      <trkpt lat="42.7847770" lon="1.6888650">
        <ele>544.4</ele>
        <time>2020-07-22T13:28:11Z</time>
      </trkpt>
      <trkpt lat="42.7849160" lon="1.6885260">
        <ele>545.0</ele>
        <time>2020-07-22T13:28:17Z</time>
      </trkpt>
      <trkpt lat="42.7849600" lon="1.6884300">
        <ele>545.0</ele>
        <time>2020-07-22T13:28:19Z</time>
      </trkpt>
      <trkpt lat="42.7850190" lon="1.6883050">
        <ele>545.0</ele>
        <time>2020-07-22T13:28:22Z</time>
      </trkpt>
      <trkpt lat="42.7850470" lon="1.6882820">
        <ele>545.0</ele>
        <time>2020-07-22T13:28:23Z</time>
      </trkpt>
      <trkpt lat="42.7851140" lon="1.6882600">
        <ele>545.0</ele>
        <time>2020-07-22T13:28:25Z</time>
      </trkpt>
      <trkpt lat="42.7851980" lon="1.6882560">
        <ele>545.0</ele>
        <time>2020-07-22T13:28:27Z</time>
      </trkpt>
      <trkpt lat="42.7854750" lon="1.6882590">
        <ele>544.8</ele>
        <time>2020-07-22T13:28:33Z</time>
      </trkpt>
      <trkpt lat="42.7855210" lon="1.6882660">
        <ele>544.8</ele>
        <time>2020-07-22T13:28:34Z</time>
      </trkpt>
      <trkpt lat="42.7857460" lon="1.6883030">
        <ele>544.6</ele>
        <time>2020-07-22T13:28:39Z</time>
      </trkpt>
      <trkpt lat="42.7858160" lon="1.6883220">
        <ele>544.8</ele>
        <time>2020-07-22T13:28:41Z</time>
      </trkpt>
      <trkpt lat="42.7860160" lon="1.6883920">
        <ele>545.6</ele>
        <time>2020-07-22T13:28:47Z</time>
      </trkpt>
      <trkpt lat="42.7860740" lon="1.6884190">
        <ele>545.8</ele>
        <time>2020-07-22T13:28:49Z</time>
      </trkpt>
      <trkpt lat="42.7861770" lon="1.6884700">
        <ele>545.4</ele>
        <time>2020-07-22T13:28:52Z</time>
      </trkpt>
      <trkpt lat="42.7862190" lon="1.6884700">
        <ele>545.2</ele>
        <time>2020-07-22T13:28:53Z</time>
      </trkpt>
      <trkpt lat="42.7862570" lon="1.6884440">
        <ele>544.8</ele>
        <time>2020-07-22T13:28:54Z</time>
      </trkpt>
      <trkpt lat="42.7863200" lon="1.6883430">
        <ele>544.4</ele>
        <time>2020-07-22T13:28:56Z</time>
      </trkpt>
      <trkpt lat="42.7863460" lon="1.6882030">
        <ele>544.0</ele>
        <time>2020-07-22T13:28:58Z</time>
      </trkpt>
      <trkpt lat="42.7863550" lon="1.6881270">
        <ele>544.0</ele>
        <time>2020-07-22T13:28:59Z</time>
      </trkpt>
      <trkpt lat="42.7863630" lon="1.6880510">
        <ele>544.0</ele>
        <time>2020-07-22T13:29:00Z</time>
      </trkpt>
      <trkpt lat="42.7864310" lon="1.6875960">
        <ele>543.8</ele>
        <time>2020-07-22T13:29:06Z</time>
      </trkpt>
      <trkpt lat="42.7864410" lon="1.6875260">
        <ele>543.6</ele>
        <time>2020-07-22T13:29:07Z</time>
      </trkpt>
      <trkpt lat="42.7865110" lon="1.6871250">
        <ele>542.8</ele>
        <time>2020-07-22T13:29:13Z</time>
      </trkpt>
      <trkpt lat="42.7865350" lon="1.6870030">
        <ele>542.8</ele>
        <time>2020-07-22T13:29:15Z</time>
      </trkpt>
      <trkpt lat="42.7866000" lon="1.6866160">
        <ele>544.0</ele>
        <time>2020-07-22T13:29:21Z</time>
      </trkpt>
      <trkpt lat="42.7866180" lon="1.6864730">
        <ele>544.4</ele>
        <time>2020-07-22T13:29:23Z</time>
      </trkpt>
      <trkpt lat="42.7866630" lon="1.6862720">
        <ele>545.0</ele>
        <time>2020-07-22T13:29:26Z</time>
      </trkpt>
      <trkpt lat="42.7867060" lon="1.6860850">
        <ele>545.2</ele>
        <time>2020-07-22T13:29:29Z</time>
      </trkpt>
      <trkpt lat="42.7867350" lon="1.6859550">
        <ele>544.8</ele>
        <time>2020-07-22T13:29:31Z</time>
      </trkpt>
      <trkpt lat="42.7867730" lon="1.6857890">
        <ele>544.2</ele>
        <time>2020-07-22T13:29:34Z</time>
      </trkpt>
      <trkpt lat="42.7867820" lon="1.6857450">
        <ele>544.0</ele>
        <time>2020-07-22T13:29:35Z</time>
      </trkpt>
      <trkpt lat="42.7867910" lon="1.6857030">
        <ele>543.8</ele>
        <time>2020-07-22T13:29:36Z</time>
      </trkpt>
      <trkpt lat="42.7868440" lon="1.6854260">
        <ele>543.4</ele>
        <time>2020-07-22T13:29:41Z</time>
      </trkpt>
      <trkpt lat="42.7868760" lon="1.6853190">
        <ele>544.2</ele>
        <time>2020-07-22T13:29:43Z</time>
      </trkpt>
      <trkpt lat="42.7866540" lon="1.6861820">
        <ele>531.6</ele>
        <time>2020-07-23T06:30:58Z</time>
      </trkpt>
      <trkpt lat="42.7866470" lon="1.6862200">
        <ele>531.4</ele>
        <time>2020-07-23T06:30:59Z</time>
      </trkpt>
      <trkpt lat="42.7866400" lon="1.6862630">
        <ele>531.2</ele>
        <time>2020-07-23T06:31:00Z</time>
      </trkpt>
      <trkpt lat="42.7866320" lon="1.6863110">
        <ele>531.0</ele>
        <time>2020-07-23T06:31:01Z</time>
      </trkpt>
      <trkpt lat="42.7866120" lon="1.6864110">
        <ele>530.8</ele>
        <time>2020-07-23T06:31:03Z</time>
      </trkpt>
      <trkpt lat="42.7866000" lon="1.6864630">
        <ele>530.8</ele>
        <time>2020-07-23T06:31:04Z</time>
      </trkpt>
      <trkpt lat="42.7865410" lon="1.6867210">
        <ele>531.0</ele>
        <time>2020-07-23T06:31:09Z</time>
      </trkpt>
      <trkpt lat="42.7865180" lon="1.6868320">
        <ele>531.0</ele>
        <time>2020-07-23T06:31:11Z</time>
      </trkpt>
      <trkpt lat="42.7864550" lon="1.6871510">
        <ele>531.0</ele>
        <time>2020-07-23T06:31:17Z</time>
      </trkpt>
      <trkpt lat="42.7864100" lon="1.6874520">
        <ele>530.8</ele>
        <time>2020-07-23T06:31:22Z</time>
      </trkpt>
      <trkpt lat="42.7863980" lon="1.6875800">
        <ele>530.8</ele>
        <time>2020-07-23T06:31:24Z</time>
      </trkpt>
      <trkpt lat="42.7863450" lon="1.6879150">
        <ele>530.6</ele>
        <time>2020-07-23T06:31:29Z</time>
      </trkpt>
      <trkpt lat="42.7863310" lon="1.6879830">
        <ele>530.6</ele>
        <time>2020-07-23T06:31:30Z</time>
      </trkpt>
      <trkpt lat="42.7862900" lon="1.6882370">
        <ele>530.2</ele>
        <time>2020-07-23T06:31:34Z</time>
      </trkpt>
      <trkpt lat="42.7862620" lon="1.6884620">
        <ele>531.0</ele>
        <time>2020-07-23T06:31:39Z</time>
      </trkpt>
      <trkpt lat="42.7862670" lon="1.6885150">
        <ele>531.4</ele>
        <time>2020-07-23T06:31:41Z</time>
      </trkpt>
      <trkpt lat="42.7863000" lon="1.6885440">
        <ele>531.4</ele>
        <time>2020-07-23T06:31:43Z</time>
      </trkpt>
      <trkpt lat="42.7863290" lon="1.6885540">
        <ele>531.4</ele>
        <time>2020-07-23T06:31:44Z</time>
      </trkpt>
      <trkpt lat="42.7865460" lon="1.6886100">
        <ele>531.2</ele>
        <time>2020-07-23T06:31:49Z</time>
      </trkpt>
      <trkpt lat="42.7865910" lon="1.6886200">
        <ele>531.2</ele>
        <time>2020-07-23T06:31:50Z</time>
      </trkpt>
      <trkpt lat="42.7866400" lon="1.6886270">
        <ele>531.2</ele>
        <time>2020-07-23T06:31:51Z</time>
      </trkpt>
      <trkpt lat="42.7867390" lon="1.6886380">
        <ele>531.0</ele>
        <time>2020-07-23T06:31:53Z</time>
      </trkpt>
      <trkpt lat="42.7868960" lon="1.6886530">
        <ele>531.2</ele>
        <time>2020-07-23T06:31:56Z</time>
      </trkpt>
      <trkpt lat="42.7870680" lon="1.6886700">
        <ele>531.4</ele>
        <time>2020-07-23T06:31:59Z</time>
      </trkpt>
      <trkpt lat="42.7872260" lon="1.6887120">
        <ele>531.4</ele>
        <time>2020-07-23T06:32:02Z</time>
      </trkpt>
      <trkpt lat="42.7875620" lon="1.6888460">
        <ele>531.0</ele>
        <time>2020-07-23T06:32:08Z</time>
      </trkpt>
      <trkpt lat="42.7876100" lon="1.6888830">
        <ele>530.8</ele>
        <time>2020-07-23T06:32:09Z</time>
      </trkpt>
      <trkpt lat="42.7879250" lon="1.6891320">
        <ele>530.4</ele>
        <time>2020-07-23T06:32:15Z</time>
      </trkpt>
      <trkpt lat="42.7882360" lon="1.6894300">
        <ele>529.4</ele>
        <time>2020-07-23T06:32:21Z</time>
      </trkpt>
      <trkpt lat="42.7882830" lon="1.6894800">
        <ele>529.4</ele>
        <time>2020-07-23T06:32:22Z</time>
      </trkpt>
      <trkpt lat="42.7883310" lon="1.6895270">
        <ele>529.2</ele>
        <time>2020-07-23T06:32:23Z</time>
      </trkpt>
      <trkpt lat="42.7884770" lon="1.6896670">
        <ele>529.2</ele>
        <time>2020-07-23T06:32:26Z</time>
      </trkpt>
      <trkpt lat="42.7886080" lon="1.6898050">
        <ele>529.4</ele>
        <time>2020-07-23T06:32:29Z</time>
      </trkpt>
      <trkpt lat="42.7887970" lon="1.6899940">
        <ele>529.8</ele>
        <time>2020-07-23T06:32:34Z</time>
      </trkpt>
      <trkpt lat="42.7888670" lon="1.6900710">
        <ele>530.0</ele>
        <time>2020-07-23T06:32:36Z</time>
      </trkpt>
      <trkpt lat="42.7889990" lon="1.6902330">
        <ele>530.6</ele>
        <time>2020-07-23T06:32:40Z</time>
      </trkpt>
      <trkpt lat="42.7891300" lon="1.6903720">
        <ele>531.0</ele>
        <time>2020-07-23T06:32:44Z</time>
      </trkpt>
      <trkpt lat="42.7892430" lon="1.6904350">
        <ele>531.6</ele>
        <time>2020-07-23T06:32:47Z</time>
      </trkpt>
      <trkpt lat="42.7893260" lon="1.6904400">
        <ele>532.0</ele>
        <time>2020-07-23T06:32:49Z</time>
      </trkpt>
      <trkpt lat="42.7894420" lon="1.6904020">
        <ele>532.2</ele>
        <time>2020-07-23T06:32:52Z</time>
      </trkpt>
      <trkpt lat="42.7895160" lon="1.6903540">
        <ele>532.6</ele>
        <time>2020-07-23T06:32:54Z</time>
      </trkpt>
      <trkpt lat="42.7897520" lon="1.6901970">
        <ele>533.2</ele>
        <time>2020-07-23T06:33:00Z</time>
      </trkpt>
      <trkpt lat="42.7898280" lon="1.6901680">
        <ele>533.4</ele>
        <time>2020-07-23T06:33:02Z</time>
      </trkpt>
      <trkpt lat="42.7899050" lon="1.6901570">
        <ele>533.8</ele>
        <time>2020-07-23T06:33:04Z</time>
      </trkpt>
      <trkpt lat="42.7900740" lon="1.6901490">
        <ele>534.8</ele>
        <time>2020-07-23T06:33:08Z</time>
      </trkpt>
      <trkpt lat="42.7901150" lon="1.6901470">
        <ele>535.0</ele>
        <time>2020-07-23T06:33:09Z</time>
      </trkpt>
      <trkpt lat="42.7903200" lon="1.6901570">
        <ele>536.2</ele>
        <time>2020-07-23T06:33:14Z</time>
      </trkpt>
      <trkpt lat="42.7904330" lon="1.6901560">
        <ele>536.4</ele>
        <time>2020-07-23T06:33:17Z</time>
      </trkpt>
      <trkpt lat="42.7905480" lon="1.6901500">
        <ele>536.8</ele>
        <time>2020-07-23T06:33:20Z</time>
      </trkpt>
      <trkpt lat="42.7906560" lon="1.6901500">
        <ele>537.4</ele>
        <time>2020-07-23T06:33:23Z</time>
      </trkpt>
      <trkpt lat="42.7907460" lon="1.6901450">
        <ele>538.4</ele>
        <time>2020-07-23T06:33:26Z</time>
      </trkpt>
      <trkpt lat="42.7907760" lon="1.6901400">
        <ele>538.6</ele>
        <time>2020-07-23T06:33:27Z</time>
      </trkpt>
      <trkpt lat="42.7909390" lon="1.6901420">
        <ele>539.4</ele>
        <time>2020-07-23T06:33:33Z</time>
      </trkpt>
      <trkpt lat="42.7909670" lon="1.6901360">
        <ele>539.8</ele>
        <time>2020-07-23T06:33:34Z</time>
      </trkpt>
      <trkpt lat="42.7911450" lon="1.6900030">
        <ele>540.6</ele>
        <time>2020-07-23T06:33:39Z</time>
      </trkpt>
      <trkpt lat="42.7912520" lon="1.6898690">
        <ele>540.6</ele>
        <time>2020-07-23T06:33:42Z</time>
      </trkpt>
      <trkpt lat="42.7913780" lon="1.6896930">
        <ele>540.8</ele>
        <time>2020-07-23T06:33:46Z</time>
      </trkpt>
      <trkpt lat="42.7914420" lon="1.6896070">
        <ele>540.8</ele>
        <time>2020-07-23T06:33:48Z</time>
      </trkpt>
      <trkpt lat="42.7915110" lon="1.6895260">
        <ele>541.2</ele>
        <time>2020-07-23T06:33:50Z</time>
      </trkpt>
      <trkpt lat="42.7916020" lon="1.6893060">
        <ele>541.4</ele>
        <time>2020-07-23T06:33:54Z</time>
      </trkpt>
      <trkpt lat="42.7917110" lon="1.6890430">
        <ele>541.8</ele>
        <time>2020-07-23T06:33:59Z</time>
      </trkpt>
      <trkpt lat="42.7917680" lon="1.6889130">
        <ele>542.2</ele>
        <time>2020-07-23T06:34:02Z</time>
      </trkpt>
      <trkpt lat="42.7918710" lon="1.6888500">
        <ele>542.6</ele>
        <time>2020-07-23T06:34:05Z</time>
      </trkpt>
      <trkpt lat="42.7919080" lon="1.6888500">
        <ele>543.0</ele>
        <time>2020-07-23T06:34:06Z</time>
      </trkpt>
      <trkpt lat="42.7920510" lon="1.6888990">
        <ele>543.8</ele>
        <time>2020-07-23T06:34:10Z</time>
      </trkpt>
      <trkpt lat="42.7921160" lon="1.6889310">
        <ele>544.0</ele>
        <time>2020-07-23T06:34:12Z</time>
      </trkpt>
      <trkpt lat="42.7922510" lon="1.6889550">
        <ele>545.4</ele>
        <time>2020-07-23T06:34:59Z</time>
      </trkpt>
      <trkpt lat="42.7922730" lon="1.6889610">
        <ele>545.4</ele>
        <time>2020-07-23T06:35:00Z</time>
      </trkpt>
      <trkpt lat="42.7922910" lon="1.6889690">
        <ele>545.6</ele>
        <time>2020-07-23T06:35:01Z</time>
      </trkpt>
      <trkpt lat="42.7924140" lon="1.6889830">
        <ele>545.8</ele>
        <time>2020-07-23T06:35:05Z</time>
      </trkpt>
      <trkpt lat="42.7925190" lon="1.6889910">
        <ele>546.0</ele>
        <time>2020-07-23T06:35:08Z</time>
      </trkpt>
      <trkpt lat="42.7925840" lon="1.6889970">
        <ele>546.8</ele>
        <time>2020-07-23T06:35:10Z</time>
      </trkpt>
      <trkpt lat="42.7926170" lon="1.6890010">
        <ele>546.8</ele>
        <time>2020-07-23T06:35:11Z</time>
      </trkpt>
      <trkpt lat="42.7926790" lon="1.6890070">
        <ele>547.4</ele>
        <time>2020-07-23T06:35:13Z</time>
      </trkpt>
      <trkpt lat="42.7927430" lon="1.6890120">
        <ele>547.8</ele>
        <time>2020-07-23T06:35:15Z</time>
      </trkpt>
      <trkpt lat="42.7928980" lon="1.6890080">
        <ele>548.8</ele>
        <time>2020-07-23T06:35:20Z</time>
      </trkpt>
      <trkpt lat="42.7929290" lon="1.6890090">
        <ele>549.0</ele>
        <time>2020-07-23T06:35:21Z</time>
      </trkpt>
      <trkpt lat="42.7930190" lon="1.6890100">
        <ele>550.0</ele>
        <time>2020-07-23T06:35:24Z</time>
      </trkpt>
      <trkpt lat="42.7931040" lon="1.6890230">
        <ele>550.8</ele>
        <time>2020-07-23T06:35:27Z</time>
      </trkpt>
      <trkpt lat="42.7931580" lon="1.6890360">
        <ele>551.2</ele>
        <time>2020-07-23T06:35:29Z</time>
      </trkpt>
      <trkpt lat="42.7932630" lon="1.6890800">
        <ele>552.4</ele>
        <time>2020-07-23T06:35:33Z</time>
      </trkpt>
      <trkpt lat="42.7933440" lon="1.6891180">
        <ele>553.0</ele>
        <time>2020-07-23T06:35:36Z</time>
      </trkpt>
      <trkpt lat="42.7933690" lon="1.6891340">
        <ele>553.2</ele>
        <time>2020-07-23T06:35:37Z</time>
      </trkpt>
      <trkpt lat="42.7933940" lon="1.6891490">
        <ele>553.4</ele>
        <time>2020-07-23T06:35:38Z</time>
      </trkpt>
      <trkpt lat="42.7934880" lon="1.6892020">
        <ele>554.6</ele>
        <time>2020-07-23T06:35:42Z</time>
      </trkpt>
      <trkpt lat="42.7935370" lon="1.6892200">
        <ele>555.0</ele>
        <time>2020-07-23T06:35:44Z</time>
      </trkpt>
      <trkpt lat="42.7936470" lon="1.6892430">
        <ele>555.8</ele>
        <time>2020-07-23T06:35:48Z</time>
      </trkpt>
      <trkpt lat="42.7937250" lon="1.6892640">
        <ele>556.8</ele>
        <time>2020-07-23T06:35:51Z</time>
      </trkpt>
      <trkpt lat="42.7937500" lon="1.6892680">
        <ele>557.2</ele>
        <time>2020-07-23T06:35:52Z</time>
      </trkpt>
      <trkpt lat="42.7938340" lon="1.6892880">
        <ele>558.0</ele>
        <time>2020-07-23T06:35:55Z</time>
      </trkpt>
      <trkpt lat="42.7939740" lon="1.6893480">
        <ele>559.0</ele>
        <time>2020-07-23T06:36:00Z</time>
      </trkpt>
      <trkpt lat="42.7940830" lon="1.6894420">
        <ele>560.2</ele>
        <time>2020-07-23T06:36:05Z</time>
      </trkpt>
      <trkpt lat="42.7941060" lon="1.6894560">
        <ele>560.4</ele>
        <time>2020-07-23T06:36:06Z</time>
      </trkpt>
      <trkpt lat="42.7941840" lon="1.6894840">
        <ele>561.2</ele>
        <time>2020-07-23T06:36:09Z</time>
      </trkpt>
      <trkpt lat="42.7942690" lon="1.6895080">
        <ele>562.4</ele>
        <time>2020-07-23T06:36:12Z</time>
      </trkpt>
      <trkpt lat="42.7942980" lon="1.6895170">
        <ele>562.6</ele>
        <time>2020-07-23T06:36:13Z</time>
      </trkpt>
      <trkpt lat="42.7943750" lon="1.6895390">
        <ele>563.4</ele>
        <time>2020-07-23T06:36:16Z</time>
      </trkpt>
      <trkpt lat="42.7944490" lon="1.6895640">
        <ele>564.2</ele>
        <time>2020-07-23T06:36:19Z</time>
      </trkpt>
      <trkpt lat="42.7944760" lon="1.6895710">
        <ele>564.6</ele>
        <time>2020-07-23T06:36:20Z</time>
      </trkpt>
      <trkpt lat="42.7945310" lon="1.6895810">
        <ele>565.0</ele>
        <time>2020-07-23T06:36:22Z</time>
      </trkpt>
      <trkpt lat="42.7945830" lon="1.6895920">
        <ele>565.6</ele>
        <time>2020-07-23T06:36:24Z</time>
      </trkpt>
      <trkpt lat="42.7946100" lon="1.6896000">
        <ele>565.8</ele>
        <time>2020-07-23T06:36:25Z</time>
      </trkpt>
      <trkpt lat="42.7946870" lon="1.6896160">
        <ele>566.6</ele>
        <time>2020-07-23T06:36:28Z</time>
      </trkpt>
      <trkpt lat="42.7947380" lon="1.6896250">
        <ele>567.0</ele>
        <time>2020-07-23T06:36:30Z</time>
      </trkpt>
      <trkpt lat="42.7948400" lon="1.6896020">
        <ele>568.2</ele>
        <time>2020-07-23T06:36:34Z</time>
      </trkpt>
      <trkpt lat="42.7948650" lon="1.6895940">
        <ele>568.4</ele>
        <time>2020-07-23T06:36:35Z</time>
      </trkpt>
      <trkpt lat="42.7949650" lon="1.6895550">
        <ele>569.4</ele>
        <time>2020-07-23T06:36:39Z</time>
      </trkpt>
      <trkpt lat="42.7950560" lon="1.6895160">
        <ele>570.4</ele>
        <time>2020-07-23T06:36:43Z</time>
      </trkpt>
      <trkpt lat="42.7951790" lon="1.6894550">
        <ele>571.4</ele>
        <time>2020-07-23T06:36:49Z</time>
      </trkpt>
      <trkpt lat="42.7951980" lon="1.6894480">
        <ele>571.6</ele>
        <time>2020-07-23T06:36:50Z</time>
      </trkpt>
      <trkpt lat="42.7952980" lon="1.6894040">
        <ele>572.8</ele>
        <time>2020-07-23T06:36:55Z</time>
      </trkpt>
      <trkpt lat="42.7953910" lon="1.6893770">
        <ele>574.0</ele>
        <time>2020-07-23T06:36:59Z</time>
      </trkpt>
      <trkpt lat="42.7954660" lon="1.6893380">
        <ele>575.0</ele>
        <time>2020-07-23T06:37:03Z</time>
      </trkpt>
      <trkpt lat="42.7954850" lon="1.6893300">
        <ele>575.2</ele>
        <time>2020-07-23T06:37:04Z</time>
      </trkpt>
      <trkpt lat="42.7955390" lon="1.6893020">
        <ele>576.2</ele>
        <time>2020-07-23T06:37:07Z</time>
      </trkpt>
      <trkpt lat="42.7956260" lon="1.6892660">
        <ele>577.4</ele>
        <time>2020-07-23T06:37:11Z</time>
      </trkpt>
      <trkpt lat="42.7956490" lon="1.6892570">
        <ele>577.6</ele>
        <time>2020-07-23T06:37:12Z</time>
      </trkpt>
      <trkpt lat="42.7956950" lon="1.6892410">
        <ele>578.4</ele>
        <time>2020-07-23T06:37:14Z</time>
      </trkpt>
      <trkpt lat="42.7958040" lon="1.6892070">
        <ele>579.6</ele>
        <time>2020-07-23T06:37:19Z</time>
      </trkpt>
      <trkpt lat="42.7958730" lon="1.6891790">
        <ele>580.6</ele>
        <time>2020-07-23T06:37:22Z</time>
      </trkpt>
      <trkpt lat="42.7958930" lon="1.6891670">
        <ele>580.8</ele>
        <time>2020-07-23T06:37:23Z</time>
      </trkpt>
      <trkpt lat="42.7959390" lon="1.6891520">
        <ele>581.2</ele>
        <time>2020-07-23T06:37:25Z</time>
      </trkpt>
      <trkpt lat="42.7959980" lon="1.6891340">
        <ele>581.8</ele>
        <time>2020-07-23T06:37:28Z</time>
      </trkpt>
      <trkpt lat="42.7960390" lon="1.6891270">
        <ele>582.2</ele>
        <time>2020-07-23T06:37:30Z</time>
      </trkpt>
      <trkpt lat="42.7961090" lon="1.6891430">
        <ele>582.8</ele>
        <time>2020-07-23T06:37:33Z</time>
      </trkpt>
      <trkpt lat="42.7961910" lon="1.6891440">
        <ele>583.8</ele>
        <time>2020-07-23T06:37:37Z</time>
      </trkpt>
      <trkpt lat="42.7962130" lon="1.6891500">
        <ele>584.2</ele>
        <time>2020-07-23T06:37:38Z</time>
      </trkpt>
      <trkpt lat="42.7962810" lon="1.6891630">
        <ele>585.2</ele>
        <time>2020-07-23T06:37:41Z</time>
      </trkpt>
      <trkpt lat="42.7963390" lon="1.6891780">
        <ele>585.8</ele>
        <time>2020-07-23T06:37:44Z</time>
      </trkpt>
      <trkpt lat="42.7963860" lon="1.6891900">
        <ele>586.2</ele>
        <time>2020-07-23T06:37:46Z</time>
      </trkpt>
      <trkpt lat="42.7964550" lon="1.6891990">
        <ele>587.0</ele>
        <time>2020-07-23T06:37:49Z</time>
      </trkpt>
      <trkpt lat="42.7964790" lon="1.6892010">
        <ele>587.2</ele>
        <time>2020-07-23T06:37:50Z</time>
      </trkpt>
      <trkpt lat="42.7965260" lon="1.6892060">
        <ele>587.6</ele>
        <time>2020-07-23T06:37:52Z</time>
      </trkpt>
      <trkpt lat="42.7965800" lon="1.6892160">
        <ele>588.6</ele>
        <time>2020-07-23T06:37:55Z</time>
      </trkpt>
      <trkpt lat="42.7966600" lon="1.6892360">
        <ele>589.8</ele>
        <time>2020-07-23T06:37:59Z</time>
      </trkpt>
      <trkpt lat="42.7966760" lon="1.6892430">
        <ele>590.0</ele>
        <time>2020-07-23T06:38:00Z</time>
      </trkpt>
      <trkpt lat="42.7967550" lon="1.6892640">
        <ele>591.0</ele>
        <time>2020-07-23T06:38:04Z</time>
      </trkpt>
      <trkpt lat="42.7967940" lon="1.6892790">
        <ele>591.4</ele>
        <time>2020-07-23T06:38:06Z</time>
      </trkpt>
      <trkpt lat="42.7968490" lon="1.6893090">
        <ele>592.2</ele>
        <time>2020-07-23T06:38:09Z</time>
      </trkpt>
      <trkpt lat="42.7969440" lon="1.6893590">
        <ele>593.4</ele>
        <time>2020-07-23T06:38:14Z</time>
      </trkpt>
      <trkpt lat="42.7970520" lon="1.6894010">
        <ele>594.8</ele>
        <time>2020-07-23T06:38:19Z</time>
      </trkpt>
      <trkpt lat="42.7971130" lon="1.6894240">
        <ele>595.6</ele>
        <time>2020-07-23T06:38:22Z</time>
      </trkpt>
      <trkpt lat="42.7971330" lon="1.6894270">
        <ele>596.0</ele>
        <time>2020-07-23T06:38:23Z</time>
      </trkpt>
      <trkpt lat="42.7972180" lon="1.6894530">
        <ele>597.0</ele>
        <time>2020-07-23T06:38:27Z</time>
      </trkpt>
      <trkpt lat="42.7973000" lon="1.6894840">
        <ele>597.8</ele>
        <time>2020-07-23T06:38:31Z</time>
      </trkpt>
      <trkpt lat="42.7973400" lon="1.6894980">
        <ele>598.2</ele>
        <time>2020-07-23T06:38:33Z</time>
      </trkpt>
      <trkpt lat="42.7974280" lon="1.6895290">
        <ele>599.2</ele>
        <time>2020-07-23T06:38:37Z</time>
      </trkpt>
      <trkpt lat="42.7974910" lon="1.6895480">
        <ele>600.0</ele>
        <time>2020-07-23T06:38:40Z</time>
      </trkpt>
      <trkpt lat="42.7975100" lon="1.6895500">
        <ele>600.2</ele>
        <time>2020-07-23T06:38:41Z</time>
      </trkpt>
      <trkpt lat="42.7975950" lon="1.6895530">
        <ele>601.0</ele>
        <time>2020-07-23T06:38:45Z</time>
      </trkpt>
      <trkpt lat="42.7976360" lon="1.6895560">
        <ele>601.4</ele>
        <time>2020-07-23T06:38:47Z</time>
      </trkpt>
      <trkpt lat="42.7977290" lon="1.6895700">
        <ele>602.8</ele>
        <time>2020-07-23T06:38:52Z</time>
      </trkpt>
      <trkpt lat="42.7977470" lon="1.6895730">
        <ele>603.0</ele>
        <time>2020-07-23T06:38:53Z</time>
      </trkpt>
      <trkpt lat="42.7977670" lon="1.6895790">
        <ele>603.2</ele>
        <time>2020-07-23T06:38:54Z</time>
      </trkpt>
      <trkpt lat="42.7977880" lon="1.6895830">
        <ele>603.4</ele>
        <time>2020-07-23T06:38:55Z</time>
      </trkpt>
      <trkpt lat="42.7978530" lon="1.6895990">
        <ele>604.0</ele>
        <time>2020-07-23T06:38:58Z</time>
      </trkpt>
      <trkpt lat="42.7979350" lon="1.6896180">
        <ele>605.2</ele>
        <time>2020-07-23T06:39:02Z</time>
      </trkpt>
      <trkpt lat="42.7979530" lon="1.6896210">
        <ele>605.4</ele>
        <time>2020-07-23T06:39:03Z</time>
      </trkpt>
      <trkpt lat="42.7979700" lon="1.6896270">
        <ele>605.6</ele>
        <time>2020-07-23T06:39:04Z</time>
      </trkpt>
      <trkpt lat="42.7980170" lon="1.6896530">
        <ele>606.2</ele>
        <time>2020-07-23T06:39:07Z</time>
      </trkpt>
      <trkpt lat="42.7980700" lon="1.6896690">
        <ele>607.4</ele>
        <time>2020-07-23T06:39:11Z</time>
      </trkpt>
      <trkpt lat="42.7981000" lon="1.6896890">
        <ele>608.2</ele>
        <time>2020-07-23T06:39:14Z</time>
      </trkpt>
      <trkpt lat="42.7981110" lon="1.6896960">
        <ele>608.6</ele>
        <time>2020-07-23T06:39:15Z</time>
      </trkpt>
      <trkpt lat="42.7981630" lon="1.6897220">
        <ele>609.4</ele>
        <time>2020-07-23T06:39:19Z</time>
      </trkpt>
      <trkpt lat="42.7981890" lon="1.6897290">
        <ele>609.8</ele>
        <time>2020-07-23T06:39:21Z</time>
      </trkpt>
      <trkpt lat="42.7982670" lon="1.6897700">
        <ele>610.8</ele>
        <time>2020-07-23T06:39:27Z</time>
      </trkpt>
      <trkpt lat="42.7982780" lon="1.6897770">
        <ele>611.0</ele>
        <time>2020-07-23T06:39:28Z</time>
      </trkpt>
      <trkpt lat="42.7983460" lon="1.6898050">
        <ele>612.0</ele>
        <time>2020-07-23T06:39:33Z</time>
      </trkpt>
      <trkpt lat="42.7983670" lon="1.6898110">
        <ele>612.2</ele>
        <time>2020-07-23T06:39:34Z</time>
      </trkpt>
      <trkpt lat="42.7984430" lon="1.6898250">
        <ele>613.0</ele>
        <time>2020-07-23T06:39:37Z</time>
      </trkpt>
      <trkpt lat="42.7985430" lon="1.6898610">
        <ele>614.0</ele>
        <time>2020-07-23T06:39:41Z</time>
      </trkpt>
      <trkpt lat="42.7985580" lon="1.6898720">
        <ele>614.2</ele>
        <time>2020-07-23T06:39:42Z</time>
      </trkpt>
      <trkpt lat="42.7986190" lon="1.6899090">
        <ele>615.2</ele>
        <time>2020-07-23T06:39:46Z</time>
      </trkpt>
      <trkpt lat="42.7986870" lon="1.6899460">
        <ele>615.8</ele>
        <time>2020-07-23T06:39:49Z</time>
      </trkpt>
      <trkpt lat="42.7987510" lon="1.6899660">
        <ele>616.2</ele>
        <time>2020-07-23T06:39:53Z</time>
      </trkpt>
      <trkpt lat="42.7987630" lon="1.6899600">
        <ele>616.2</ele>
        <time>2020-07-23T06:39:54Z</time>
      </trkpt>
      <trkpt lat="42.7987850" lon="1.6899660">
        <ele>616.4</ele>
        <time>2020-07-23T06:39:56Z</time>
      </trkpt>
      <trkpt lat="42.7988030" lon="1.6899620">
        <ele>616.6</ele>
        <time>2020-07-23T06:39:58Z</time>
      </trkpt>
      <trkpt lat="42.7988290" lon="1.6899490">
        <ele>616.6</ele>
        <time>2020-07-23T06:39:59Z</time>
      </trkpt>
      <trkpt lat="42.7988590" lon="1.6898380">
        <ele>616.8</ele>
        <time>2020-07-23T06:40:03Z</time>
      </trkpt>
      <trkpt lat="42.7988230" lon="1.6896430">
        <ele>617.4</ele>
        <time>2020-07-23T06:40:09Z</time>
      </trkpt>
      <trkpt lat="42.7987750" lon="1.6895810">
        <ele>617.8</ele>
        <time>2020-07-23T06:40:12Z</time>
      </trkpt>
      <trkpt lat="42.7987420" lon="1.6895460">
        <ele>618.0</ele>
        <time>2020-07-23T06:40:14Z</time>
      </trkpt>
      <trkpt lat="42.7987250" lon="1.6895260">
        <ele>618.2</ele>
        <time>2020-07-23T06:40:15Z</time>
      </trkpt>
      <trkpt lat="42.7986870" lon="1.6894940">
        <ele>618.4</ele>
        <time>2020-07-23T06:40:17Z</time>
      </trkpt>
      <trkpt lat="42.7985980" lon="1.6894330">
        <ele>619.0</ele>
        <time>2020-07-23T06:40:21Z</time>
      </trkpt>
      <trkpt lat="42.7985140" lon="1.6893900">
        <ele>619.6</ele>
        <time>2020-07-23T06:40:24Z</time>
      </trkpt>
      <trkpt lat="42.7983880" lon="1.6893290">
        <ele>620.4</ele>
        <time>2020-07-23T06:40:28Z</time>
      </trkpt>
      <trkpt lat="42.7983360" lon="1.6892900">
        <ele>620.8</ele>
        <time>2020-07-23T06:40:30Z</time>
      </trkpt>
      <trkpt lat="42.7982420" lon="1.6892400">
        <ele>621.4</ele>
        <time>2020-07-23T06:40:34Z</time>
      </trkpt>
      <trkpt lat="42.7982220" lon="1.6892280">
        <ele>621.6</ele>
        <time>2020-07-23T06:40:35Z</time>
      </trkpt>
      <trkpt lat="42.7982030" lon="1.6892120">
        <ele>622.0</ele>
        <time>2020-07-23T06:40:36Z</time>
      </trkpt>
      <trkpt lat="42.7981250" lon="1.6891480">
        <ele>623.0</ele>
        <time>2020-07-23T06:40:40Z</time>
      </trkpt>
      <trkpt lat="42.7981230" lon="1.6891200">
        <ele>623.2</ele>
        <time>2020-07-23T06:40:41Z</time>
      </trkpt>
      <trkpt lat="42.7981150" lon="1.6890930">
        <ele>623.4</ele>
        <time>2020-07-23T06:40:42Z</time>
      </trkpt>
      <trkpt lat="42.7980590" lon="1.6889350">
        <ele>624.2</ele>
        <time>2020-07-23T06:40:48Z</time>
      </trkpt>
      <trkpt lat="42.7980540" lon="1.6889040">
        <ele>624.4</ele>
        <time>2020-07-23T06:40:49Z</time>
      </trkpt>
      <trkpt lat="42.7980400" lon="1.6887770">
        <ele>625.4</ele>
        <time>2020-07-23T06:40:53Z</time>
      </trkpt>
      <trkpt lat="42.7980220" lon="1.6886210">
        <ele>626.4</ele>
        <time>2020-07-23T06:40:58Z</time>
      </trkpt>
      <trkpt lat="42.7980190" lon="1.6885910">
        <ele>626.6</ele>
        <time>2020-07-23T06:40:59Z</time>
      </trkpt>
      <trkpt lat="42.7979990" lon="1.6884440">
        <ele>627.6</ele>
        <time>2020-07-23T06:41:04Z</time>
      </trkpt>
      <trkpt lat="42.7979950" lon="1.6883270">
        <ele>628.4</ele>
        <time>2020-07-23T06:41:08Z</time>
      </trkpt>
      <trkpt lat="42.7979950" lon="1.6882690">
        <ele>628.8</ele>
        <time>2020-07-23T06:41:10Z</time>
      </trkpt>
      <trkpt lat="42.7980340" lon="1.6881030">
        <ele>630.0</ele>
        <time>2020-07-23T06:41:15Z</time>
      </trkpt>
      <trkpt lat="42.7980510" lon="1.6880730">
        <ele>630.4</ele>
        <time>2020-07-23T06:41:16Z</time>
      </trkpt>
      <trkpt lat="42.7981160" lon="1.6879160">
        <ele>631.2</ele>
        <time>2020-07-23T06:41:21Z</time>
      </trkpt>
      <trkpt lat="42.7981430" lon="1.6878530">
        <ele>631.8</ele>
        <time>2020-07-23T06:41:23Z</time>
      </trkpt>
      <trkpt lat="42.7981860" lon="1.6877310">
        <ele>632.2</ele>
        <time>2020-07-23T06:41:27Z</time>
      </trkpt>
      <trkpt lat="42.7982140" lon="1.6876340">
        <ele>632.6</ele>
        <time>2020-07-23T06:41:30Z</time>
      </trkpt>
      <trkpt lat="42.7982480" lon="1.6875450">
        <ele>633.2</ele>
        <time>2020-07-23T06:41:33Z</time>
      </trkpt>
      <trkpt lat="42.7983030" lon="1.6874150">
        <ele>634.2</ele>
        <time>2020-07-23T06:41:38Z</time>
      </trkpt>
      <trkpt lat="42.7983830" lon="1.6873250">
        <ele>634.8</ele>
        <time>2020-07-23T06:41:43Z</time>
      </trkpt>
      <trkpt lat="42.7984220" lon="1.6873500">
        <ele>635.0</ele>
        <time>2020-07-23T06:41:45Z</time>
      </trkpt>
      <trkpt lat="42.7984330" lon="1.6873760">
        <ele>635.2</ele>
        <time>2020-07-23T06:41:46Z</time>
      </trkpt>
      <trkpt lat="42.7984380" lon="1.6874470">
        <ele>635.6</ele>
        <time>2020-07-23T06:41:48Z</time>
      </trkpt>
      <trkpt lat="42.7984280" lon="1.6874800">
        <ele>636.0</ele>
        <time>2020-07-23T06:41:49Z</time>
      </trkpt>
      <trkpt lat="42.7983870" lon="1.6875720">
        <ele>636.4</ele>
        <time>2020-07-23T06:41:52Z</time>
      </trkpt>
      <trkpt lat="42.7983420" lon="1.6876950">
        <ele>637.0</ele>
        <time>2020-07-23T06:41:56Z</time>
      </trkpt>
      <trkpt lat="42.7983280" lon="1.6877570">
        <ele>637.2</ele>
        <time>2020-07-23T06:41:58Z</time>
      </trkpt>
      <trkpt lat="42.7983200" lon="1.6878230">
        <ele>637.6</ele>
        <time>2020-07-23T06:42:00Z</time>
      </trkpt>
      <trkpt lat="42.7983170" lon="1.6878560">
        <ele>637.8</ele>
        <time>2020-07-23T06:42:01Z</time>
      </trkpt>
      <trkpt lat="42.7983170" lon="1.6879240">
        <ele>638.0</ele>
        <time>2020-07-23T06:42:03Z</time>
      </trkpt>
      <trkpt lat="42.7983300" lon="1.6880830">
        <ele>638.6</ele>
        <time>2020-07-23T06:42:08Z</time>
      </trkpt>
      <trkpt lat="42.7983260" lon="1.6881800">
        <ele>639.2</ele>
        <time>2020-07-23T06:42:11Z</time>
      </trkpt>
      <trkpt lat="42.7983240" lon="1.6882770">
        <ele>639.8</ele>
        <time>2020-07-23T06:42:14Z</time>
      </trkpt>
      <trkpt lat="42.7983390" lon="1.6884330">
        <ele>640.8</ele>
        <time>2020-07-23T06:42:19Z</time>
      </trkpt>
      <trkpt lat="42.7983950" lon="1.6885710">
        <ele>642.0</ele>
        <time>2020-07-23T06:42:25Z</time>
      </trkpt>
      <trkpt lat="42.7984070" lon="1.6885920">
        <ele>642.4</ele>
        <time>2020-07-23T06:42:26Z</time>
      </trkpt>
      <trkpt lat="42.7984450" lon="1.6886450">
        <ele>643.2</ele>
        <time>2020-07-23T06:42:29Z</time>
      </trkpt>
      <trkpt lat="42.7985230" lon="1.6887180">
        <ele>643.6</ele>
        <time>2020-07-23T06:42:33Z</time>
      </trkpt>
      <trkpt lat="42.7986310" lon="1.6888100">
        <ele>644.2</ele>
        <time>2020-07-23T06:42:38Z</time>
      </trkpt>
      <trkpt lat="42.7986960" lon="1.6888770">
        <ele>644.8</ele>
        <time>2020-07-23T06:42:42Z</time>
      </trkpt>
      <trkpt lat="42.7987270" lon="1.6889100">
        <ele>645.2</ele>
        <time>2020-07-23T06:42:44Z</time>
      </trkpt>
      <trkpt lat="42.7987440" lon="1.6889280">
        <ele>645.6</ele>
        <time>2020-07-23T06:42:45Z</time>
      </trkpt>
      <trkpt lat="42.7988290" lon="1.6890120">
        <ele>646.4</ele>
        <time>2020-07-23T06:42:50Z</time>
      </trkpt>
      <trkpt lat="42.7988660" lon="1.6890430">
        <ele>646.8</ele>
        <time>2020-07-23T06:42:52Z</time>
      </trkpt>
      <trkpt lat="42.7989680" lon="1.6891290">
        <ele>647.6</ele>
        <time>2020-07-23T06:42:58Z</time>
      </trkpt>
      <trkpt lat="42.7989860" lon="1.6891380">
        <ele>647.8</ele>
        <time>2020-07-23T06:42:59Z</time>
      </trkpt>
      <trkpt lat="42.7990840" lon="1.6891770">
        <ele>648.8</ele>
        <time>2020-07-23T06:43:03Z</time>
      </trkpt>
      <trkpt lat="42.7991080" lon="1.6891870">
        <ele>648.8</ele>
        <time>2020-07-23T06:43:04Z</time>
      </trkpt>
      <trkpt lat="42.7991500" lon="1.6891990">
        <ele>649.2</ele>
        <time>2020-07-23T06:43:06Z</time>
      </trkpt>
      <trkpt lat="42.7992470" lon="1.6892170">
        <ele>650.0</ele>
        <time>2020-07-23T06:43:10Z</time>
      </trkpt>
      <trkpt lat="42.7993260" lon="1.6892270">
        <ele>650.8</ele>
        <time>2020-07-23T06:43:14Z</time>
      </trkpt>
      <trkpt lat="42.7993530" lon="1.6892390">
        <ele>651.2</ele>
        <time>2020-07-23T06:43:17Z</time>
      </trkpt>
      <trkpt lat="42.7993790" lon="1.6892510">
        <ele>652.4</ele>
        <time>2020-07-23T06:43:21Z</time>
      </trkpt>
      <trkpt lat="42.7994060" lon="1.6892640">
        <ele>653.6</ele>
        <time>2020-07-23T06:43:26Z</time>
      </trkpt>
      <trkpt lat="42.7994320" lon="1.6892760">
        <ele>654.4</ele>
        <time>2020-07-23T06:43:32Z</time>
      </trkpt>
      <trkpt lat="42.7994590" lon="1.6892880">
        <ele>654.6</ele>
        <time>2020-07-23T06:43:33Z</time>
      </trkpt>
      <trkpt lat="42.7994850" lon="1.6893000">
        <ele>655.8</ele>
        <time>2020-07-23T06:43:39Z</time>
      </trkpt>
      <trkpt lat="42.7995120" lon="1.6893130">
        <ele>657.0</ele>
        <time>2020-07-23T06:43:45Z</time>
      </trkpt>
      <trkpt lat="42.7995380" lon="1.6893250">
        <ele>657.4</ele>
        <time>2020-07-23T06:43:47Z</time>
      </trkpt>
      <trkpt lat="42.7999630" lon="1.6895220">
        <ele>658.0</ele>
        <time>2020-07-23T06:43:51Z</time>
      </trkpt>
      <trkpt lat="42.7999760" lon="1.6895370">
        <ele>658.0</ele>
        <time>2020-07-23T06:43:52Z</time>
      </trkpt>
      <trkpt lat="42.7999850" lon="1.6895610">
        <ele>658.0</ele>
        <time>2020-07-23T06:43:53Z</time>
      </trkpt>
      <trkpt lat="42.8000530" lon="1.6896750">
        <ele>658.8</ele>
        <time>2020-07-23T06:43:59Z</time>
      </trkpt>
      <trkpt lat="42.8000650" lon="1.6896950">
        <ele>659.0</ele>
        <time>2020-07-23T06:44:00Z</time>
      </trkpt>
      <trkpt lat="42.8000780" lon="1.6897230">
        <ele>659.4</ele>
        <time>2020-07-23T06:44:01Z</time>
      </trkpt>
      <trkpt lat="42.8001360" lon="1.6897870">
        <ele>660.2</ele>
        <time>2020-07-23T06:44:04Z</time>
      </trkpt>
      <trkpt lat="42.8002500" lon="1.6898840">
        <ele>660.8</ele>
        <time>2020-07-23T06:44:09Z</time>
      </trkpt>
      <trkpt lat="42.8002500" lon="1.6898840">
        <ele>661.2</ele>
        <time>2020-07-23T06:44:12Z</time>
      </trkpt>
      <trkpt lat="42.8002500" lon="1.6898840">
        <ele>661.6</ele>
        <time>2020-07-23T06:44:15Z</time>
      </trkpt>
      <trkpt lat="42.8002500" lon="1.6898840">
        <ele>662.4</ele>
        <time>2020-07-23T06:44:19Z</time>
      </trkpt>
      <trkpt lat="42.8006520" lon="1.6902880">
        <ele>663.4</ele>
        <time>2020-07-23T06:44:25Z</time>
      </trkpt>
      <trkpt lat="42.8007320" lon="1.6903510">
        <ele>664.0</ele>
        <time>2020-07-23T06:44:28Z</time>
      </trkpt>
      <trkpt lat="42.8008010" lon="1.6904050">
        <ele>664.4</ele>
        <time>2020-07-23T06:44:31Z</time>
      </trkpt>
      <trkpt lat="42.8009140" lon="1.6904820">
        <ele>665.6</ele>
        <time>2020-07-23T06:44:36Z</time>
      </trkpt>
      <trkpt lat="42.8010090" lon="1.6905700">
        <ele>666.6</ele>
        <time>2020-07-23T06:44:41Z</time>
      </trkpt>
      <trkpt lat="42.8010690" lon="1.6906180">
        <ele>667.2</ele>
        <time>2020-07-23T06:44:44Z</time>
      </trkpt>
      <trkpt lat="42.8010980" lon="1.6906430">
        <ele>667.6</ele>
        <time>2020-07-23T06:44:46Z</time>
      </trkpt>
      <trkpt lat="42.8011690" lon="1.6907210">
        <ele>668.2</ele>
        <time>2020-07-23T06:44:51Z</time>
      </trkpt>
      <trkpt lat="42.8012030" lon="1.6907510">
        <ele>668.6</ele>
        <time>2020-07-23T06:44:53Z</time>
      </trkpt>
      <trkpt lat="42.8012850" lon="1.6908390">
        <ele>669.4</ele>
        <time>2020-07-23T06:44:58Z</time>
      </trkpt>
      <trkpt lat="42.8013040" lon="1.6908650">
        <ele>669.6</ele>
        <time>2020-07-23T06:44:59Z</time>
      </trkpt>
      <trkpt lat="42.8013860" lon="1.6909920">
        <ele>670.8</ele>
        <time>2020-07-23T06:45:04Z</time>
      </trkpt>
      <trkpt lat="42.8014380" lon="1.6910590">
        <ele>671.2</ele>
        <time>2020-07-23T06:45:07Z</time>
      </trkpt>
      <trkpt lat="42.8015540" lon="1.6911630">
        <ele>671.8</ele>
        <time>2020-07-23T06:45:12Z</time>
      </trkpt>
      <trkpt lat="42.8016140" lon="1.6912260">
        <ele>672.4</ele>
        <time>2020-07-23T06:45:15Z</time>
      </trkpt>
      <trkpt lat="42.8016780" lon="1.6913100">
        <ele>672.8</ele>
        <time>2020-07-23T06:45:19Z</time>
      </trkpt>
      <trkpt lat="42.8017430" lon="1.6913940">
        <ele>673.8</ele>
        <time>2020-07-23T06:45:23Z</time>
      </trkpt>
      <trkpt lat="42.8018010" lon="1.6914950">
        <ele>674.8</ele>
        <time>2020-07-23T06:45:28Z</time>
      </trkpt>
      <trkpt lat="42.8018320" lon="1.6915220">
        <ele>675.0</ele>
        <time>2020-07-23T06:45:30Z</time>
      </trkpt>
      <trkpt lat="42.8019000" lon="1.6916310">
        <ele>676.0</ele>
        <time>2020-07-23T06:45:35Z</time>
      </trkpt>
      <trkpt lat="42.8019230" lon="1.6916760">
        <ele>676.4</ele>
        <time>2020-07-23T06:45:37Z</time>
      </trkpt>
      <trkpt lat="42.8019710" lon="1.6917230">
        <ele>677.4</ele>
        <time>2020-07-23T06:45:40Z</time>
      </trkpt>
      <trkpt lat="42.8020380" lon="1.6917350">
        <ele>678.0</ele>
        <time>2020-07-23T06:45:43Z</time>
      </trkpt>
      <trkpt lat="42.8020720" lon="1.6917180">
        <ele>678.4</ele>
        <time>2020-07-23T06:45:45Z</time>
      </trkpt>
      <trkpt lat="42.8020680" lon="1.6916780">
        <ele>679.0</ele>
        <time>2020-07-23T06:45:47Z</time>
      </trkpt>
      <trkpt lat="42.8020450" lon="1.6916270">
        <ele>679.6</ele>
        <time>2020-07-23T06:45:49Z</time>
      </trkpt>
      <trkpt lat="42.8019680" lon="1.6914820">
        <ele>680.4</ele>
        <time>2020-07-23T06:45:54Z</time>
      </trkpt>
      <trkpt lat="42.8019470" lon="1.6914630">
        <ele>680.6</ele>
        <time>2020-07-23T06:45:55Z</time>
      </trkpt>
      <trkpt lat="42.8018810" lon="1.6913670">
        <ele>681.6</ele>
        <time>2020-07-23T06:45:59Z</time>
      </trkpt>
      <trkpt lat="42.8018210" lon="1.6912850">
        <ele>682.2</ele>
        <time>2020-07-23T06:46:02Z</time>
      </trkpt>
      <trkpt lat="42.8017100" lon="1.6911230">
        <ele>682.8</ele>
        <time>2020-07-23T06:46:08Z</time>
      </trkpt>
      <trkpt lat="42.8016840" lon="1.6910900">
        <ele>683.0</ele>
        <time>2020-07-23T06:46:09Z</time>
      </trkpt>
      <trkpt lat="42.8015940" lon="1.6909850">
        <ele>683.8</ele>
        <time>2020-07-23T06:46:13Z</time>
      </trkpt>
      <trkpt lat="42.8015750" lon="1.6909630">
        <ele>684.0</ele>
        <time>2020-07-23T06:46:14Z</time>
      </trkpt>
      <trkpt lat="42.8015340" lon="1.6909130">
        <ele>684.4</ele>
        <time>2020-07-23T06:46:16Z</time>
      </trkpt>
      <trkpt lat="42.8014960" lon="1.6908700">
        <ele>684.8</ele>
        <time>2020-07-23T06:46:18Z</time>
      </trkpt>
      <trkpt lat="42.8013900" lon="1.6906960">
        <ele>685.4</ele>
        <time>2020-07-23T06:46:24Z</time>
      </trkpt>
      <trkpt lat="42.8013400" lon="1.6906000">
        <ele>686.0</ele>
        <time>2020-07-23T06:46:27Z</time>
      </trkpt>
      <trkpt lat="42.8012610" lon="1.6904870">
        <ele>686.6</ele>
        <time>2020-07-23T06:46:31Z</time>
      </trkpt>
      <trkpt lat="42.8012220" lon="1.6904410">
        <ele>687.0</ele>
        <time>2020-07-23T06:46:33Z</time>
      </trkpt>
      <trkpt lat="42.8011110" lon="1.6903110">
        <ele>687.6</ele>
        <time>2020-07-23T06:46:39Z</time>
      </trkpt>
      <trkpt lat="42.8010900" lon="1.6902900">
        <ele>687.6</ele>
        <time>2020-07-23T06:46:40Z</time>
      </trkpt>
      <trkpt lat="42.8010250" lon="1.6902350">
        <ele>688.0</ele>
        <time>2020-07-23T06:46:43Z</time>
      </trkpt>
      <trkpt lat="42.8009750" lon="1.6901380">
        <ele>688.6</ele>
        <time>2020-07-23T06:46:47Z</time>
      </trkpt>
      <trkpt lat="42.8010140" lon="1.6900590">
        <ele>689.0</ele>
        <time>2020-07-23T06:46:50Z</time>
      </trkpt>
      <trkpt lat="42.8010380" lon="1.6900560">
        <ele>689.4</ele>
        <time>2020-07-23T06:46:51Z</time>
      </trkpt>
      <trkpt lat="42.8011160" lon="1.6900880">
        <ele>690.0</ele>
        <time>2020-07-23T06:46:54Z</time>
      </trkpt>
      <trkpt lat="42.8011340" lon="1.6901110">
        <ele>690.4</ele>
        <time>2020-07-23T06:46:55Z</time>
      </trkpt>
      <trkpt lat="42.8011520" lon="1.6901360">
        <ele>690.6</ele>
        <time>2020-07-23T06:46:56Z</time>
      </trkpt>
      <trkpt lat="42.8012180" lon="1.6902400">
        <ele>691.4</ele>
        <time>2020-07-23T06:47:00Z</time>
      </trkpt>
      <trkpt lat="42.8012940" lon="1.6903340">
        <ele>692.4</ele>
        <time>2020-07-23T06:47:04Z</time>
      </trkpt>
      <trkpt lat="42.8013190" lon="1.6903560">
        <ele>692.6</ele>
        <time>2020-07-23T06:47:05Z</time>
      </trkpt>
      <trkpt lat="42.8013620" lon="1.6904020">
        <ele>692.8</ele>
        <time>2020-07-23T06:47:07Z</time>
      </trkpt>
      <trkpt lat="42.8014260" lon="1.6904690">
        <ele>693.4</ele>
        <time>2020-07-23T06:47:10Z</time>
      </trkpt>
      <trkpt lat="42.8014480" lon="1.6904910">
        <ele>693.6</ele>
        <time>2020-07-23T06:47:11Z</time>
      </trkpt>
      <trkpt lat="42.8014700" lon="1.6905140">
        <ele>693.6</ele>
        <time>2020-07-23T06:47:12Z</time>
      </trkpt>
      <trkpt lat="42.8015520" lon="1.6906000">
        <ele>694.6</ele>
        <time>2020-07-23T06:47:16Z</time>
      </trkpt>
      <trkpt lat="42.8016610" lon="1.6906690">
        <ele>695.4</ele>
        <time>2020-07-23T06:47:20Z</time>
      </trkpt>
      <trkpt lat="42.8016980" lon="1.6907070">
        <ele>695.6</ele>
        <time>2020-07-23T06:47:22Z</time>
      </trkpt>
      <trkpt lat="42.8018460" lon="1.6907720">
        <ele>696.4</ele>
        <time>2020-07-23T06:47:27Z</time>
      </trkpt>
      <trkpt lat="42.8018850" lon="1.6908110">
        <ele>696.8</ele>
        <time>2020-07-23T06:47:29Z</time>
      </trkpt>
      <trkpt lat="42.8019800" lon="1.6909010">
        <ele>698.0</ele>
        <time>2020-07-23T06:47:34Z</time>
      </trkpt>
      <trkpt lat="42.8020780" lon="1.6910280">
        <ele>699.0</ele>
        <time>2020-07-23T06:47:40Z</time>
      </trkpt>
      <trkpt lat="42.8020980" lon="1.6910490">
        <ele>699.2</ele>
        <time>2020-07-23T06:47:41Z</time>
      </trkpt>
      <trkpt lat="42.8022150" lon="1.6911790">
        <ele>700.0</ele>
        <time>2020-07-23T06:47:47Z</time>
      </trkpt>
      <trkpt lat="42.8022360" lon="1.6912000">
        <ele>700.2</ele>
        <time>2020-07-23T06:47:48Z</time>
      </trkpt>
      <trkpt lat="42.8022770" lon="1.6912330">
        <ele>700.6</ele>
        <time>2020-07-23T06:47:50Z</time>
      </trkpt>
      <trkpt lat="42.8023320" lon="1.6912760">
        <ele>701.2</ele>
        <time>2020-07-23T06:47:53Z</time>
      </trkpt>
      <trkpt lat="42.8023680" lon="1.6913140">
        <ele>701.6</ele>
        <time>2020-07-23T06:47:55Z</time>
      </trkpt>
      <trkpt lat="42.8024440" lon="1.6913910">
        <ele>702.2</ele>
        <time>2020-07-23T06:47:59Z</time>
      </trkpt>
      <trkpt lat="42.8025640" lon="1.6915290">
        <ele>703.2</ele>
        <time>2020-07-23T06:48:05Z</time>
      </trkpt>
      <trkpt lat="42.8025800" lon="1.6915600">
        <ele>703.4</ele>
        <time>2020-07-23T06:48:06Z</time>
      </trkpt>
      <trkpt lat="42.8026520" lon="1.6917280">
        <ele>704.6</ele>
        <time>2020-07-23T06:48:12Z</time>
      </trkpt>
      <trkpt lat="42.8026620" lon="1.6917520">
        <ele>704.8</ele>
        <time>2020-07-23T06:48:13Z</time>
      </trkpt>
      <trkpt lat="42.8027230" lon="1.6918600">
        <ele>705.6</ele>
        <time>2020-07-23T06:48:18Z</time>
      </trkpt>
      <trkpt lat="42.8027340" lon="1.6918830">
        <ele>705.8</ele>
        <time>2020-07-23T06:48:19Z</time>
      </trkpt>
      <trkpt lat="42.8027710" lon="1.6919750">
        <ele>706.4</ele>
        <time>2020-07-23T06:48:23Z</time>
      </trkpt>
      <trkpt lat="42.8027970" lon="1.6920250">
        <ele>706.8</ele>
        <time>2020-07-23T06:48:25Z</time>
      </trkpt>
      <trkpt lat="42.8028780" lon="1.6922080">
        <ele>707.4</ele>
        <time>2020-07-23T06:48:31Z</time>
      </trkpt>
      <trkpt lat="42.8029260" lon="1.6922930">
        <ele>707.8</ele>
        <time>2020-07-23T06:48:34Z</time>
      </trkpt>
      <trkpt lat="42.8030260" lon="1.6924120">
        <ele>708.8</ele>
        <time>2020-07-23T06:48:39Z</time>
      </trkpt>
      <trkpt lat="42.8030460" lon="1.6924330">
        <ele>709.0</ele>
        <time>2020-07-23T06:48:40Z</time>
      </trkpt>
      <trkpt lat="42.8031830" lon="1.6925930">
        <ele>710.2</ele>
        <time>2020-07-23T06:48:46Z</time>
      </trkpt>
      <trkpt lat="42.8032910" lon="1.6926600">
        <ele>711.0</ele>
        <time>2020-07-23T06:48:51Z</time>
      </trkpt>
      <trkpt lat="42.8033090" lon="1.6926460">
        <ele>711.2</ele>
        <time>2020-07-23T06:48:52Z</time>
      </trkpt>
      <trkpt lat="42.8033110" lon="1.6926230">
        <ele>711.4</ele>
        <time>2020-07-23T06:48:53Z</time>
      </trkpt>
      <trkpt lat="42.8032940" lon="1.6925690">
        <ele>711.8</ele>
        <time>2020-07-23T06:48:55Z</time>
      </trkpt>
      <trkpt lat="42.8032620" lon="1.6925150">
        <ele>712.2</ele>
        <time>2020-07-23T06:48:57Z</time>
      </trkpt>
      <trkpt lat="42.8032010" lon="1.6924000">
        <ele>713.2</ele>
        <time>2020-07-23T06:49:01Z</time>
      </trkpt>
      <trkpt lat="42.8031880" lon="1.6923750">
        <ele>713.4</ele>
        <time>2020-07-23T06:49:02Z</time>
      </trkpt>
      <trkpt lat="42.8031090" lon="1.6922470">
        <ele>714.0</ele>
        <time>2020-07-23T06:49:08Z</time>
      </trkpt>
      <trkpt lat="42.8030730" lon="1.6921840">
        <ele>714.6</ele>
        <time>2020-07-23T06:49:11Z</time>
      </trkpt>
      <trkpt lat="42.8030260" lon="1.6920720">
        <ele>715.4</ele>
        <time>2020-07-23T06:49:15Z</time>
      </trkpt>
      <trkpt lat="42.8030100" lon="1.6920470">
        <ele>715.8</ele>
        <time>2020-07-23T06:49:16Z</time>
      </trkpt>
      <trkpt lat="42.8029670" lon="1.6919520">
        <ele>716.4</ele>
        <time>2020-07-23T06:49:19Z</time>
      </trkpt>
      <trkpt lat="42.8029560" lon="1.6919200">
        <ele>716.6</ele>
        <time>2020-07-23T06:49:20Z</time>
      </trkpt>
      <trkpt lat="42.8029410" lon="1.6918890">
        <ele>716.8</ele>
        <time>2020-07-23T06:49:21Z</time>
      </trkpt>
      <trkpt lat="42.8029150" lon="1.6918230">
        <ele>717.4</ele>
        <time>2020-07-23T06:49:23Z</time>
      </trkpt>
      <trkpt lat="42.8028850" lon="1.6917570">
        <ele>717.8</ele>
        <time>2020-07-23T06:49:25Z</time>
      </trkpt>
      <trkpt lat="42.8028320" lon="1.6916270">
        <ele>718.6</ele>
        <time>2020-07-23T06:49:29Z</time>
      </trkpt>
      <trkpt lat="42.8028190" lon="1.6916000">
        <ele>719.0</ele>
        <time>2020-07-23T06:49:30Z</time>
      </trkpt>
      <trkpt lat="42.8027420" lon="1.6914900">
        <ele>720.0</ele>
        <time>2020-07-23T06:49:35Z</time>
      </trkpt>
      <trkpt lat="42.8026740" lon="1.6914190">
        <ele>720.6</ele>
        <time>2020-07-23T06:49:39Z</time>
      </trkpt>
      <trkpt lat="42.8026300" lon="1.6913500">
        <ele>721.0</ele>
        <time>2020-07-23T06:49:42Z</time>
      </trkpt>
      <trkpt lat="42.8026030" lon="1.6913070">
        <ele>722.2</ele>
        <time>2020-07-23T06:49:47Z</time>
      </trkpt>
      <trkpt lat="42.8025760" lon="1.6912640">
        <ele>722.8</ele>
        <time>2020-07-23T06:49:53Z</time>
      </trkpt>
      <trkpt lat="42.8025490" lon="1.6912220">
        <ele>723.2</ele>
        <time>2020-07-23T06:49:56Z</time>
      </trkpt>
      <trkpt lat="42.8025220" lon="1.6911790">
        <ele>724.4</ele>
        <time>2020-07-23T06:49:59Z</time>
      </trkpt>
      <trkpt lat="42.8024950" lon="1.6911360">
        <ele>725.4</ele>
        <time>2020-07-23T06:50:04Z</time>
      </trkpt>
      <trkpt lat="42.8024680" lon="1.6910930">
        <ele>725.4</ele>
        <time>2020-07-23T06:50:05Z</time>
      </trkpt>
      <trkpt lat="42.8024410" lon="1.6910500">
        <ele>726.6</ele>
        <time>2020-07-23T06:50:11Z</time>
      </trkpt>
      <trkpt lat="42.8024140" lon="1.6910080">
        <ele>727.2</ele>
        <time>2020-07-23T06:50:13Z</time>
      </trkpt>
      <trkpt lat="42.8023870" lon="1.6909650">
        <ele>727.8</ele>
        <time>2020-07-23T06:50:16Z</time>
      </trkpt>
      <trkpt lat="42.8023600" lon="1.6909220">
        <ele>728.0</ele>
        <time>2020-07-23T06:50:17Z</time>
      </trkpt>
      <trkpt lat="42.8020900" lon="1.6904950">
        <ele>728.0</ele>
        <time>2020-07-23T06:50:18Z</time>
      </trkpt>
      <trkpt lat="42.8020560" lon="1.6904320">
        <ele>728.4</ele>
        <time>2020-07-23T06:50:21Z</time>
      </trkpt>
      <trkpt lat="42.8020230" lon="1.6903670">
        <ele>729.0</ele>
        <time>2020-07-23T06:50:24Z</time>
      </trkpt>
      <trkpt lat="42.8019720" lon="1.6902910">
        <ele>730.0</ele>
        <time>2020-07-23T06:50:28Z</time>
      </trkpt>
      <trkpt lat="42.8019610" lon="1.6902660">
        <ele>730.2</ele>
        <time>2020-07-23T06:50:29Z</time>
      </trkpt>
      <trkpt lat="42.8018950" lon="1.6901340">
        <ele>731.0</ele>
        <time>2020-07-23T06:50:35Z</time>
      </trkpt>
      <trkpt lat="42.8018630" lon="1.6900970">
        <ele>731.2</ele>
        <time>2020-07-23T06:50:37Z</time>
      </trkpt>
      <trkpt lat="42.8018370" lon="1.6900000">
        <ele>732.0</ele>
        <time>2020-07-23T06:50:41Z</time>
      </trkpt>
      <trkpt lat="42.8018470" lon="1.6899790">
        <ele>732.2</ele>
        <time>2020-07-23T06:50:42Z</time>
      </trkpt>
      <trkpt lat="42.8018620" lon="1.6899690">
        <ele>732.4</ele>
        <time>2020-07-23T06:50:43Z</time>
      </trkpt>
      <trkpt lat="42.8018770" lon="1.6899750">
        <ele>732.8</ele>
        <time>2020-07-23T06:50:44Z</time>
      </trkpt>
      <trkpt lat="42.8019290" lon="1.6900270">
        <ele>733.6</ele>
        <time>2020-07-23T06:50:47Z</time>
      </trkpt>
      <trkpt lat="42.8019590" lon="1.6900740">
        <ele>733.8</ele>
        <time>2020-07-23T06:50:49Z</time>
      </trkpt>
      <trkpt lat="42.8020210" lon="1.6901720">
        <ele>734.6</ele>
        <time>2020-07-23T06:50:53Z</time>
      </trkpt>
      <trkpt lat="42.8020610" lon="1.6902690">
        <ele>735.4</ele>
        <time>2020-07-23T06:50:57Z</time>
      </trkpt>
      <trkpt lat="42.8020860" lon="1.6903150">
        <ele>735.8</ele>
        <time>2020-07-23T06:50:59Z</time>
      </trkpt>
      <trkpt lat="42.8021500" lon="1.6904320">
        <ele>736.8</ele>
        <time>2020-07-23T06:51:04Z</time>
      </trkpt>
      <trkpt lat="42.8021580" lon="1.6904530">
        <ele>737.0</ele>
        <time>2020-07-23T06:51:05Z</time>
      </trkpt>
      <trkpt lat="42.8022150" lon="1.6905770">
        <ele>738.0</ele>
        <time>2020-07-23T06:51:11Z</time>
      </trkpt>
      <trkpt lat="42.8022260" lon="1.6906000">
        <ele>738.2</ele>
        <time>2020-07-23T06:51:12Z</time>
      </trkpt>
      <trkpt lat="42.8022810" lon="1.6906830">
        <ele>739.0</ele>
        <time>2020-07-23T06:51:16Z</time>
      </trkpt>
      <trkpt lat="42.8023710" lon="1.6907670">
        <ele>739.8</ele>
        <time>2020-07-23T06:51:20Z</time>
      </trkpt>
      <trkpt lat="42.8024030" lon="1.6908090">
        <ele>740.0</ele>
        <time>2020-07-23T06:51:22Z</time>
      </trkpt>
      <trkpt lat="42.8024810" lon="1.6909010">
        <ele>740.6</ele>
        <time>2020-07-23T06:51:27Z</time>
      </trkpt>
      <trkpt lat="42.8024810" lon="1.6909010">
        <ele>741.0</ele>
        <time>2020-07-23T06:51:29Z</time>
      </trkpt>
      <trkpt lat="42.8025790" lon="1.6909940">
        <ele>742.2</ele>
        <time>2020-07-23T06:51:33Z</time>
      </trkpt>
      <trkpt lat="42.8025790" lon="1.6909940">
        <ele>743.0</ele>
        <time>2020-07-23T06:51:39Z</time>
      </trkpt>
      <trkpt lat="42.8025790" lon="1.6909940">
        <ele>743.4</ele>
        <time>2020-07-23T06:51:41Z</time>
      </trkpt>
      <trkpt lat="42.8025790" lon="1.6909940">
        <ele>744.6</ele>
        <time>2020-07-23T06:51:46Z</time>
      </trkpt>
      <trkpt lat="42.8028060" lon="1.6912900">
        <ele>745.6</ele>
        <time>2020-07-23T06:51:50Z</time>
      </trkpt>
      <trkpt lat="42.8028140" lon="1.6913090">
        <ele>745.8</ele>
        <time>2020-07-23T06:51:51Z</time>
      </trkpt>
      <trkpt lat="42.8028240" lon="1.6913250">
        <ele>746.0</ele>
        <time>2020-07-23T06:51:52Z</time>
      </trkpt>
      <trkpt lat="42.8029540" lon="1.6914230">
        <ele>747.0</ele>
        <time>2020-07-23T06:51:58Z</time>
      </trkpt>
      <trkpt lat="42.8029720" lon="1.6914440">
        <ele>747.0</ele>
        <time>2020-07-23T06:51:59Z</time>
      </trkpt>
      <trkpt lat="42.8030970" lon="1.6915270">
        <ele>747.8</ele>
        <time>2020-07-23T06:52:05Z</time>
      </trkpt>
      <trkpt lat="42.8031190" lon="1.6915500">
        <ele>748.0</ele>
        <time>2020-07-23T06:52:06Z</time>
      </trkpt>
      <trkpt lat="42.8031980" lon="1.6916230">
        <ele>748.8</ele>
        <time>2020-07-23T06:52:10Z</time>
      </trkpt>
      <trkpt lat="42.8032430" lon="1.6916640">
        <ele>749.2</ele>
        <time>2020-07-23T06:52:12Z</time>
      </trkpt>
      <trkpt lat="42.8032920" lon="1.6916960">
        <ele>749.4</ele>
        <time>2020-07-23T06:52:14Z</time>
      </trkpt>
      <trkpt lat="42.8034210" lon="1.6917790">
        <ele>750.4</ele>
        <time>2020-07-23T06:52:19Z</time>
      </trkpt>
      <trkpt lat="42.8034870" lon="1.6918200">
        <ele>751.0</ele>
        <time>2020-07-23T06:52:22Z</time>
      </trkpt>
      <trkpt lat="42.8035230" lon="1.6918490">
        <ele>751.4</ele>
        <time>2020-07-23T06:52:24Z</time>
      </trkpt>
      <trkpt lat="42.8036320" lon="1.6919550">
        <ele>752.6</ele>
        <time>2020-07-23T06:52:30Z</time>
      </trkpt>
      <trkpt lat="42.8036710" lon="1.6919890">
        <ele>752.8</ele>
        <time>2020-07-23T06:52:32Z</time>
      </trkpt>
      <trkpt lat="42.8037640" lon="1.6920650">
        <ele>753.6</ele>
        <time>2020-07-23T06:52:37Z</time>
      </trkpt>
      <trkpt lat="42.8038110" lon="1.6921090">
        <ele>754.4</ele>
        <time>2020-07-23T06:52:40Z</time>
      </trkpt>
      <trkpt lat="42.8038300" lon="1.6921260">
        <ele>754.6</ele>
        <time>2020-07-23T06:52:41Z</time>
      </trkpt>
      <trkpt lat="42.8039610" lon="1.6922100">
        <ele>755.8</ele>
        <time>2020-07-23T06:52:47Z</time>
      </trkpt>
      <trkpt lat="42.8039820" lon="1.6922230">
        <ele>755.8</ele>
        <time>2020-07-23T06:52:48Z</time>
      </trkpt>
      <trkpt lat="42.8041180" lon="1.6922260">
        <ele>756.8</ele>
        <time>2020-07-23T06:52:53Z</time>
      </trkpt>
      <trkpt lat="42.8041430" lon="1.6922220">
        <ele>757.0</ele>
        <time>2020-07-23T06:52:54Z</time>
      </trkpt>
      <trkpt lat="42.8042630" lon="1.6922070">
        <ele>758.0</ele>
        <time>2020-07-23T06:52:59Z</time>
      </trkpt>
      <trkpt lat="42.8043490" lon="1.6922080">
        <ele>758.2</ele>
        <time>2020-07-23T06:53:02Z</time>
      </trkpt>
      <trkpt lat="42.8044380" lon="1.6921850">
        <ele>759.2</ele>
        <time>2020-07-23T06:53:06Z</time>
      </trkpt>
      <trkpt lat="42.8045210" lon="1.6921690">
        <ele>760.4</ele>
        <time>2020-07-23T06:53:10Z</time>
      </trkpt>
      <trkpt lat="42.8045450" lon="1.6921570">
        <ele>760.6</ele>
        <time>2020-07-23T06:53:11Z</time>
      </trkpt>
      <trkpt lat="42.8047080" lon="1.6921330">
        <ele>761.2</ele>
        <time>2020-07-23T06:53:17Z</time>
      </trkpt>
      <trkpt lat="42.8047480" lon="1.6921350">
        <ele>761.4</ele>
        <time>2020-07-23T06:53:18Z</time>
      </trkpt>
      <trkpt lat="42.8047780" lon="1.6921390">
        <ele>761.6</ele>
        <time>2020-07-23T06:53:19Z</time>
      </trkpt>
      <trkpt lat="42.8049180" lon="1.6921820">
        <ele>762.4</ele>
        <time>2020-07-23T06:53:25Z</time>
      </trkpt>
      <trkpt lat="42.8049410" lon="1.6922010">
        <ele>762.8</ele>
        <time>2020-07-23T06:53:26Z</time>
      </trkpt>
      <trkpt lat="42.8050110" lon="1.6923150">
        <ele>763.6</ele>
        <time>2020-07-23T06:53:31Z</time>
      </trkpt>
      <trkpt lat="42.8050200" lon="1.6923400">
        <ele>763.8</ele>
        <time>2020-07-23T06:53:32Z</time>
      </trkpt>
      <trkpt lat="42.8050820" lon="1.6924780">
        <ele>765.0</ele>
        <time>2020-07-23T06:53:38Z</time>
      </trkpt>
      <trkpt lat="42.8051660" lon="1.6925000">
        <ele>766.0</ele>
        <time>2020-07-23T06:53:43Z</time>
      </trkpt>
      <trkpt lat="42.8051790" lon="1.6924870">
        <ele>766.2</ele>
        <time>2020-07-23T06:53:44Z</time>
      </trkpt>
      <trkpt lat="42.8051890" lon="1.6924400">
        <ele>766.8</ele>
        <time>2020-07-23T06:53:46Z</time>
      </trkpt>
      <trkpt lat="42.8051880" lon="1.6924120">
        <ele>767.2</ele>
        <time>2020-07-23T06:53:47Z</time>
      </trkpt>
      <trkpt lat="42.8051840" lon="1.6922540">
        <ele>768.2</ele>
        <time>2020-07-23T06:53:52Z</time>
      </trkpt>
      <trkpt lat="42.8051670" lon="1.6921580">
        <ele>768.8</ele>
        <time>2020-07-23T06:53:55Z</time>
      </trkpt>
      <trkpt lat="42.8051600" lon="1.6920980">
        <ele>769.2</ele>
        <time>2020-07-23T06:53:57Z</time>
      </trkpt>
      <trkpt lat="42.8051540" lon="1.6920660">
        <ele>769.4</ele>
        <time>2020-07-23T06:53:58Z</time>
      </trkpt>
      <trkpt lat="42.8051450" lon="1.6920350">
        <ele>769.4</ele>
        <time>2020-07-23T06:53:59Z</time>
      </trkpt>
      <trkpt lat="42.8051060" lon="1.6919640">
        <ele>770.0</ele>
        <time>2020-07-23T06:54:02Z</time>
      </trkpt>
      <trkpt lat="42.8050810" lon="1.6919260">
        <ele>770.4</ele>
        <time>2020-07-23T06:54:04Z</time>
      </trkpt>
      <trkpt lat="42.8050180" lon="1.6918710">
        <ele>771.4</ele>
        <time>2020-07-23T06:54:08Z</time>
      </trkpt>
      <trkpt lat="42.8050050" lon="1.6918530">
        <ele>771.6</ele>
        <time>2020-07-23T06:54:09Z</time>
      </trkpt>
      <trkpt lat="42.8049750" lon="1.6918260">
        <ele>772.2</ele>
        <time>2020-07-23T06:54:11Z</time>
      </trkpt>
      <trkpt lat="42.8049170" lon="1.6917780">
        <ele>772.8</ele>
        <time>2020-07-23T06:54:14Z</time>
      </trkpt>
      <trkpt lat="42.8048080" lon="1.6917790">
        <ele>773.8</ele>
        <time>2020-07-23T06:54:19Z</time>
      </trkpt>
      <trkpt lat="42.8047870" lon="1.6917790">
        <ele>774.0</ele>
        <time>2020-07-23T06:54:20Z</time>
      </trkpt>
      <trkpt lat="42.8046280" lon="1.6917880">
        <ele>774.8</ele>
        <time>2020-07-23T06:54:26Z</time>
      </trkpt>
      <trkpt lat="42.8046020" lon="1.6917720">
        <ele>774.8</ele>
        <time>2020-07-23T06:54:27Z</time>
      </trkpt>
      <trkpt lat="42.8045770" lon="1.6917540">
        <ele>775.0</ele>
        <time>2020-07-23T06:54:28Z</time>
      </trkpt>
      <trkpt lat="42.8044360" lon="1.6916500">
        <ele>776.2</ele>
        <time>2020-07-23T06:54:34Z</time>
      </trkpt>
      <trkpt lat="42.8043570" lon="1.6915680">
        <ele>777.2</ele>
        <time>2020-07-23T06:54:38Z</time>
      </trkpt>
      <trkpt lat="42.8043350" lon="1.6915520">
        <ele>777.4</ele>
        <time>2020-07-23T06:54:39Z</time>
      </trkpt>
      <trkpt lat="42.8042660" lon="1.6915000">
        <ele>778.0</ele>
        <time>2020-07-23T06:54:42Z</time>
      </trkpt>
      <trkpt lat="42.8042240" lon="1.6914660">
        <ele>778.4</ele>
        <time>2020-07-23T06:54:44Z</time>
      </trkpt>
      <trkpt lat="42.8042040" lon="1.6914500">
        <ele>778.4</ele>
        <time>2020-07-23T06:54:45Z</time>
      </trkpt>
      <trkpt lat="42.8041230" lon="1.6913720">
        <ele>779.0</ele>
        <time>2020-07-23T06:54:49Z</time>
      </trkpt>
      <trkpt lat="42.8040940" lon="1.6913160">
        <ele>779.2</ele>
        <time>2020-07-23T06:54:51Z</time>
      </trkpt>
      <trkpt lat="42.8040860" lon="1.6912830">
        <ele>779.4</ele>
        <time>2020-07-23T06:54:52Z</time>
      </trkpt>
      <trkpt lat="42.8040980" lon="1.6912170">
        <ele>779.8</ele>
        <time>2020-07-23T06:54:54Z</time>
      </trkpt>
      <trkpt lat="42.8041390" lon="1.6912030">
        <ele>780.4</ele>
        <time>2020-07-23T06:54:56Z</time>
      </trkpt>
      <trkpt lat="42.8041630" lon="1.6912130">
        <ele>780.4</ele>
        <time>2020-07-23T06:54:57Z</time>
      </trkpt>
      <trkpt lat="42.8042940" lon="1.6913260">
        <ele>781.4</ele>
        <time>2020-07-23T06:55:03Z</time>
      </trkpt>
      <trkpt lat="42.8043620" lon="1.6913770">
        <ele>782.2</ele>
        <time>2020-07-23T06:55:07Z</time>
      </trkpt>
      <trkpt lat="42.8043790" lon="1.6913870">
        <ele>782.6</ele>
        <time>2020-07-23T06:55:08Z</time>
      </trkpt>
      <trkpt lat="42.8043970" lon="1.6913960">
        <ele>782.8</ele>
        <time>2020-07-23T06:55:09Z</time>
      </trkpt>
      <trkpt lat="42.8044560" lon="1.6914370">
        <ele>783.4</ele>
        <time>2020-07-23T06:55:12Z</time>
      </trkpt>
      <trkpt lat="42.8044740" lon="1.6914470">
        <ele>783.6</ele>
        <time>2020-07-23T06:55:13Z</time>
      </trkpt>
      <trkpt lat="42.8045270" lon="1.6914530">
        <ele>784.2</ele>
        <time>2020-07-23T06:55:16Z</time>
      </trkpt>
      <trkpt lat="42.8045700" lon="1.6914640">
        <ele>784.6</ele>
        <time>2020-07-23T06:55:18Z</time>
      </trkpt>
      <trkpt lat="42.8046870" lon="1.6914580">
        <ele>785.8</ele>
        <time>2020-07-23T06:55:23Z</time>
      </trkpt>
      <trkpt lat="42.8047930" lon="1.6914490">
        <ele>786.6</ele>
        <time>2020-07-23T06:55:27Z</time>
      </trkpt>
      <trkpt lat="42.8048190" lon="1.6914390">
        <ele>786.8</ele>
        <time>2020-07-23T06:55:28Z</time>
      </trkpt>
      <trkpt lat="42.8048710" lon="1.6914130">
        <ele>787.2</ele>
        <time>2020-07-23T06:55:30Z</time>
      </trkpt>
      <trkpt lat="42.8050270" lon="1.6913360">
        <ele>788.0</ele>
        <time>2020-07-23T06:55:36Z</time>
      </trkpt>
      <trkpt lat="42.8050750" lon="1.6913120">
        <ele>788.2</ele>
        <time>2020-07-23T06:55:38Z</time>
      </trkpt>
      <trkpt lat="42.8050960" lon="1.6912990">
        <ele>788.6</ele>
        <time>2020-07-23T06:55:39Z</time>
      </trkpt>
      <trkpt lat="42.8051440" lon="1.6912790">
        <ele>789.0</ele>
        <time>2020-07-23T06:55:41Z</time>
      </trkpt>
      <trkpt lat="42.8052310" lon="1.6912480">
        <ele>789.8</ele>
        <time>2020-07-23T06:55:45Z</time>
      </trkpt>
      <trkpt lat="42.8052950" lon="1.6912270">
        <ele>790.2</ele>
        <time>2020-07-23T06:55:48Z</time>
      </trkpt>
      <trkpt lat="42.8053700" lon="1.6912330">
        <ele>791.2</ele>
        <time>2020-07-23T06:55:52Z</time>
      </trkpt>
      <trkpt lat="42.8053880" lon="1.6912390">
        <ele>791.6</ele>
        <time>2020-07-23T06:55:53Z</time>
      </trkpt>
      <trkpt lat="42.8054440" lon="1.6912670">
        <ele>792.4</ele>
        <time>2020-07-23T06:55:56Z</time>
      </trkpt>
      <trkpt lat="42.8054800" lon="1.6912950">
        <ele>792.8</ele>
        <time>2020-07-23T06:55:58Z</time>
      </trkpt>
      <trkpt lat="42.8054980" lon="1.6913050">
        <ele>793.0</ele>
        <time>2020-07-23T06:55:59Z</time>
      </trkpt>
      <trkpt lat="42.8055180" lon="1.6913150">
        <ele>793.4</ele>
        <time>2020-07-23T06:56:00Z</time>
      </trkpt>
      <trkpt lat="42.8055860" lon="1.6913490">
        <ele>794.4</ele>
        <time>2020-07-23T06:56:04Z</time>
      </trkpt>
      <trkpt lat="42.8056520" lon="1.6913710">
        <ele>795.2</ele>
        <time>2020-07-23T06:56:08Z</time>
      </trkpt>
      <trkpt lat="42.8056660" lon="1.6913790">
        <ele>795.4</ele>
        <time>2020-07-23T06:56:09Z</time>
      </trkpt>
      <trkpt lat="42.8057390" lon="1.6914560">
        <ele>796.2</ele>
        <time>2020-07-23T06:56:14Z</time>
      </trkpt>
      <trkpt lat="42.8057640" lon="1.6915200">
        <ele>796.8</ele>
        <time>2020-07-23T06:56:16Z</time>
      </trkpt>
      <trkpt lat="42.8058190" lon="1.6916920">
        <ele>798.0</ele>
        <time>2020-07-23T06:56:21Z</time>
      </trkpt>
      <trkpt lat="42.8058240" lon="1.6917900">
        <ele>798.6</ele>
        <time>2020-07-23T06:56:24Z</time>
      </trkpt>
      <trkpt lat="42.8058130" lon="1.6919100">
        <ele>799.2</ele>
        <time>2020-07-23T06:56:27Z</time>
      </trkpt>
      <trkpt lat="42.8057980" lon="1.6920420">
        <ele>800.2</ele>
        <time>2020-07-23T06:56:31Z</time>
      </trkpt>
      <trkpt lat="42.8057890" lon="1.6921400">
        <ele>800.8</ele>
        <time>2020-07-23T06:56:34Z</time>
      </trkpt>
      <trkpt lat="42.8057800" lon="1.6922030">
        <ele>801.2</ele>
        <time>2020-07-23T06:56:36Z</time>
      </trkpt>
      <trkpt lat="42.8057810" lon="1.6923490">
        <ele>802.4</ele>
        <time>2020-07-23T06:56:41Z</time>
      </trkpt>
      <trkpt lat="42.8057780" lon="1.6924040">
        <ele>802.8</ele>
        <time>2020-07-23T06:56:43Z</time>
      </trkpt>
      <trkpt lat="42.8057750" lon="1.6924800">
        <ele>803.6</ele>
        <time>2020-07-23T06:56:46Z</time>
      </trkpt>
      <trkpt lat="42.8057740" lon="1.6926460">
        <ele>804.6</ele>
        <time>2020-07-23T06:56:52Z</time>
      </trkpt>
      <trkpt lat="42.8057680" lon="1.6926700">
        <ele>804.8</ele>
        <time>2020-07-23T06:56:53Z</time>
      </trkpt>
      <trkpt lat="42.8057650" lon="1.6928020">
        <ele>806.0</ele>
        <time>2020-07-23T06:56:58Z</time>
      </trkpt>
      <trkpt lat="42.8057640" lon="1.6928280">
        <ele>806.2</ele>
        <time>2020-07-23T06:56:59Z</time>
      </trkpt>
      <trkpt lat="42.8057780" lon="1.6930000">
        <ele>806.8</ele>
        <time>2020-07-23T06:57:05Z</time>
      </trkpt>
      <trkpt lat="42.8057860" lon="1.6930330">
        <ele>807.2</ele>
        <time>2020-07-23T06:57:06Z</time>
      </trkpt>
      <trkpt lat="42.8057940" lon="1.6930650">
        <ele>807.4</ele>
        <time>2020-07-23T06:57:07Z</time>
      </trkpt>
      <trkpt lat="42.8058440" lon="1.6931760">
        <ele>808.0</ele>
        <time>2020-07-23T06:57:11Z</time>
      </trkpt>
      <trkpt lat="42.8058980" lon="1.6932540">
        <ele>808.2</ele>
        <time>2020-07-23T06:57:14Z</time>
      </trkpt>
      <trkpt lat="42.8059670" lon="1.6933570">
        <ele>808.8</ele>
        <time>2020-07-23T06:57:18Z</time>
      </trkpt>
      <trkpt lat="42.8060120" lon="1.6934400">
        <ele>809.0</ele>
        <time>2020-07-23T06:57:21Z</time>
      </trkpt>
      <trkpt lat="42.8060250" lon="1.6934660">
        <ele>809.2</ele>
        <time>2020-07-23T06:57:22Z</time>
      </trkpt>
      <trkpt lat="42.8060380" lon="1.6934920">
        <ele>809.4</ele>
        <time>2020-07-23T06:57:23Z</time>
      </trkpt>
      <trkpt lat="42.8060850" lon="1.6936160">
        <ele>810.2</ele>
        <time>2020-07-23T06:57:27Z</time>
      </trkpt>
      <trkpt lat="42.8060960" lon="1.6936480">
        <ele>810.4</ele>
        <time>2020-07-23T06:57:28Z</time>
      </trkpt>
      <trkpt lat="42.8061050" lon="1.6936780">
        <ele>810.6</ele>
        <time>2020-07-23T06:57:29Z</time>
      </trkpt>
      <trkpt lat="42.8061250" lon="1.6937280">
        <ele>811.0</ele>
        <time>2020-07-23T06:57:31Z</time>
      </trkpt>
      <trkpt lat="42.8061720" lon="1.6937740">
        <ele>811.6</ele>
        <time>2020-07-23T06:57:34Z</time>
      </trkpt>
      <trkpt lat="42.8062020" lon="1.6937670">
        <ele>812.0</ele>
        <time>2020-07-23T06:57:36Z</time>
      </trkpt>
      <trkpt lat="42.8062130" lon="1.6937510">
        <ele>812.2</ele>
        <time>2020-07-23T06:57:37Z</time>
      </trkpt>
      <trkpt lat="42.8062270" lon="1.6937170">
        <ele>812.6</ele>
        <time>2020-07-23T06:57:39Z</time>
      </trkpt>
      <trkpt lat="42.8062230" lon="1.6936860">
        <ele>813.0</ele>
        <time>2020-07-23T06:57:40Z</time>
      </trkpt>
      <trkpt lat="42.8062010" lon="1.6936090">
        <ele>813.8</ele>
        <time>2020-07-23T06:57:43Z</time>
      </trkpt>
      <trkpt lat="42.8061900" lon="1.6935820">
        <ele>814.2</ele>
        <time>2020-07-23T06:57:44Z</time>
      </trkpt>
      <trkpt lat="42.8061650" lon="1.6935210">
        <ele>814.6</ele>
        <time>2020-07-23T06:57:46Z</time>
      </trkpt>
      <trkpt lat="42.8061350" lon="1.6934570">
        <ele>814.8</ele>
        <time>2020-07-23T06:57:48Z</time>
      </trkpt>
      <trkpt lat="42.8060790" lon="1.6933420">
        <ele>815.4</ele>
        <time>2020-07-23T06:57:52Z</time>
      </trkpt>
      <trkpt lat="42.8060370" lon="1.6932720">
        <ele>816.0</ele>
        <time>2020-07-23T06:57:55Z</time>
      </trkpt>
      <trkpt lat="42.8059790" lon="1.6931840">
        <ele>817.2</ele>
        <time>2020-07-23T06:57:59Z</time>
      </trkpt>
      <trkpt lat="42.8059420" lon="1.6930420">
        <ele>818.2</ele>
        <time>2020-07-23T06:58:04Z</time>
      </trkpt>
      <trkpt lat="42.8059440" lon="1.6929790">
        <ele>818.6</ele>
        <time>2020-07-23T06:58:06Z</time>
      </trkpt>
      <trkpt lat="42.8059880" lon="1.6928730">
        <ele>819.4</ele>
        <time>2020-07-23T06:58:10Z</time>
      </trkpt>
      <trkpt lat="42.8060220" lon="1.6928230">
        <ele>819.8</ele>
        <time>2020-07-23T06:58:12Z</time>
      </trkpt>
      <trkpt lat="42.8060840" lon="1.6927280">
        <ele>820.4</ele>
        <time>2020-07-23T06:58:16Z</time>
      </trkpt>
      <trkpt lat="42.8061150" lon="1.6926540">
        <ele>821.0</ele>
        <time>2020-07-23T06:58:19Z</time>
      </trkpt>
      <trkpt lat="42.8061310" lon="1.6926010">
        <ele>821.6</ele>
        <time>2020-07-23T06:58:21Z</time>
      </trkpt>
      <trkpt lat="42.8061560" lon="1.6923910">
        <ele>822.6</ele>
        <time>2020-07-23T06:58:27Z</time>
      </trkpt>
      <trkpt lat="42.8061700" lon="1.6921920">
        <ele>823.4</ele>
        <time>2020-07-23T06:58:33Z</time>
      </trkpt>
      <trkpt lat="42.8061690" lon="1.6921540">
        <ele>823.6</ele>
        <time>2020-07-23T06:58:34Z</time>
      </trkpt>
      <trkpt lat="42.8061690" lon="1.6921230">
        <ele>823.8</ele>
        <time>2020-07-23T06:58:35Z</time>
      </trkpt>
      <trkpt lat="42.8062140" lon="1.6920270">
        <ele>824.8</ele>
        <time>2020-07-23T06:58:39Z</time>
      </trkpt>
      <trkpt lat="42.8062410" lon="1.6920130">
        <ele>825.0</ele>
        <time>2020-07-23T06:58:40Z</time>
      </trkpt>
      <trkpt lat="42.8063010" lon="1.6920190">
        <ele>825.6</ele>
        <time>2020-07-23T06:58:43Z</time>
      </trkpt>
      <trkpt lat="42.8063060" lon="1.6920440">
        <ele>825.8</ele>
        <time>2020-07-23T06:58:44Z</time>
      </trkpt>
      <trkpt lat="42.8063020" lon="1.6922120">
        <ele>826.8</ele>
        <time>2020-07-23T06:58:49Z</time>
      </trkpt>
      <trkpt lat="42.8062990" lon="1.6922480">
        <ele>827.0</ele>
        <time>2020-07-23T06:58:50Z</time>
      </trkpt>
      <trkpt lat="42.8063000" lon="1.6923820">
        <ele>828.0</ele>
        <time>2020-07-23T06:58:54Z</time>
      </trkpt>
      <trkpt lat="42.8063020" lon="1.6924760">
        <ele>828.6</ele>
        <time>2020-07-23T06:58:57Z</time>
      </trkpt>
      <trkpt lat="42.8063030" lon="1.6925070">
        <ele>829.0</ele>
        <time>2020-07-23T06:58:58Z</time>
      </trkpt>
      <trkpt lat="42.8063060" lon="1.6925390">
        <ele>829.2</ele>
        <time>2020-07-23T06:58:59Z</time>
      </trkpt>
      <trkpt lat="42.8063700" lon="1.6927040">
        <ele>830.0</ele>
        <time>2020-07-23T06:59:05Z</time>
      </trkpt>
      <trkpt lat="42.8063890" lon="1.6927230">
        <ele>830.2</ele>
        <time>2020-07-23T06:59:06Z</time>
      </trkpt>
      <trkpt lat="42.8064660" lon="1.6927720">
        <ele>831.4</ele>
        <time>2020-07-23T06:59:10Z</time>
      </trkpt>
      <trkpt lat="42.8064890" lon="1.6927800">
        <ele>831.6</ele>
        <time>2020-07-23T06:59:11Z</time>
      </trkpt>
      <trkpt lat="42.8065770" lon="1.6928200">
        <ele>832.4</ele>
        <time>2020-07-23T06:59:15Z</time>
      </trkpt>
      <trkpt lat="42.8067000" lon="1.6928550">
        <ele>833.6</ele>
        <time>2020-07-23T06:59:20Z</time>
      </trkpt>
      <trkpt lat="42.8068590" lon="1.6929280">
        <ele>834.6</ele>
        <time>2020-07-23T06:59:26Z</time>
      </trkpt>
      <trkpt lat="42.8068890" lon="1.6929410">
        <ele>834.8</ele>
        <time>2020-07-23T06:59:27Z</time>
      </trkpt>
      <trkpt lat="42.8069190" lon="1.6929550">
        <ele>834.8</ele>
        <time>2020-07-23T06:59:28Z</time>
      </trkpt>
      <trkpt lat="42.8070320" lon="1.6930100">
        <ele>835.8</ele>
        <time>2020-07-23T06:59:32Z</time>
      </trkpt>
      <trkpt lat="42.8071380" lon="1.6930610">
        <ele>836.4</ele>
        <time>2020-07-23T06:59:36Z</time>
      </trkpt>
      <trkpt lat="42.8071640" lon="1.6930730">
        <ele>836.4</ele>
        <time>2020-07-23T06:59:37Z</time>
      </trkpt>
      <trkpt lat="42.8071900" lon="1.6930840">
        <ele>836.6</ele>
        <time>2020-07-23T06:59:38Z</time>
      </trkpt>
      <trkpt lat="42.8072170" lon="1.6930990">
        <ele>836.8</ele>
        <time>2020-07-23T06:59:39Z</time>
      </trkpt>
      <trkpt lat="42.8072400" lon="1.6931130">
        <ele>837.0</ele>
        <time>2020-07-23T06:59:40Z</time>
      </trkpt>
      <trkpt lat="42.8072700" lon="1.6931320">
        <ele>837.6</ele>
        <time>2020-07-23T06:59:43Z</time>
      </trkpt>
      <trkpt lat="42.8073950" lon="1.6931410">
        <ele>837.6</ele>
        <time>2020-07-23T07:00:37Z</time>
      </trkpt>
      <trkpt lat="42.8074280" lon="1.6931910">
        <ele>838.0</ele>
        <time>2020-07-23T07:00:40Z</time>
      </trkpt>
      <trkpt lat="42.8074410" lon="1.6932010">
        <ele>838.0</ele>
        <time>2020-07-23T07:00:41Z</time>
      </trkpt>
      <trkpt lat="42.8074740" lon="1.6932360">
        <ele>838.2</ele>
        <time>2020-07-23T07:00:43Z</time>
      </trkpt>
      <trkpt lat="42.8075200" lon="1.6932770">
        <ele>838.2</ele>
        <time>2020-07-23T07:00:45Z</time>
      </trkpt>
      <trkpt lat="42.8075800" lon="1.6933300">
        <ele>839.2</ele>
        <time>2020-07-23T07:00:48Z</time>
      </trkpt>
      <trkpt lat="42.8076830" lon="1.6933740">
        <ele>840.2</ele>
        <time>2020-07-23T07:00:53Z</time>
      </trkpt>
      <trkpt lat="42.8077760" lon="1.6934020">
        <ele>841.4</ele>
        <time>2020-07-23T07:00:57Z</time>
      </trkpt>
      <trkpt lat="42.8078440" lon="1.6934150">
        <ele>841.8</ele>
        <time>2020-07-23T07:01:00Z</time>
      </trkpt>
      <trkpt lat="42.8079830" lon="1.6934310">
        <ele>842.4</ele>
        <time>2020-07-23T07:01:05Z</time>
      </trkpt>
      <trkpt lat="42.8080130" lon="1.6934370">
        <ele>842.6</ele>
        <time>2020-07-23T07:01:06Z</time>
      </trkpt>
      <trkpt lat="42.8081360" lon="1.6934690">
        <ele>843.6</ele>
        <time>2020-07-23T07:01:10Z</time>
      </trkpt>
      <trkpt lat="42.8082110" lon="1.6935010">
        <ele>843.8</ele>
        <time>2020-07-23T07:01:13Z</time>
      </trkpt>
      <trkpt lat="42.8083620" lon="1.6935810">
        <ele>844.0</ele>
        <time>2020-07-23T07:01:19Z</time>
      </trkpt>
      <trkpt lat="42.8083880" lon="1.6935920">
        <ele>843.8</ele>
        <time>2020-07-23T07:01:20Z</time>
      </trkpt>
      <trkpt lat="42.8084110" lon="1.6936080">
        <ele>843.8</ele>
        <time>2020-07-23T07:01:21Z</time>
      </trkpt>
      <trkpt lat="42.8086850" lon="1.6937240">
        <ele>843.2</ele>
        <time>2020-07-23T07:02:43Z</time>
      </trkpt>
      <trkpt lat="42.8087250" lon="1.6937740">
        <ele>843.4</ele>
        <time>2020-07-23T07:02:45Z</time>
      </trkpt>
      <trkpt lat="42.8088620" lon="1.6939130">
        <ele>844.2</ele>
        <time>2020-07-23T07:02:51Z</time>
      </trkpt>
      <trkpt lat="42.8089260" lon="1.6939960">
        <ele>844.6</ele>
        <time>2020-07-23T07:02:54Z</time>
      </trkpt>
      <trkpt lat="42.8090400" lon="1.6941480">
        <ele>845.2</ele>
        <time>2020-07-23T07:02:59Z</time>
      </trkpt>
      <trkpt lat="42.8090960" lon="1.6942220">
        <ele>845.4</ele>
        <time>2020-07-23T07:03:01Z</time>
      </trkpt>
      <trkpt lat="42.8091210" lon="1.6942570">
        <ele>845.6</ele>
        <time>2020-07-23T07:03:02Z</time>
      </trkpt>
      <trkpt lat="42.8091500" lon="1.6942870">
        <ele>846.0</ele>
        <time>2020-07-23T07:03:03Z</time>
      </trkpt>
      <trkpt lat="42.8092060" lon="1.6943550">
        <ele>846.2</ele>
        <time>2020-07-23T07:03:05Z</time>
      </trkpt>
      <trkpt lat="42.8092320" lon="1.6943920">
        <ele>846.4</ele>
        <time>2020-07-23T07:03:06Z</time>
      </trkpt>
      <trkpt lat="42.8093250" lon="1.6945470">
        <ele>846.6</ele>
        <time>2020-07-23T07:03:10Z</time>
      </trkpt>
      <trkpt lat="42.8093450" lon="1.6945880">
        <ele>846.8</ele>
        <time>2020-07-23T07:03:11Z</time>
      </trkpt>
      <trkpt lat="42.8093660" lon="1.6946280">
        <ele>847.0</ele>
        <time>2020-07-23T07:03:12Z</time>
      </trkpt>
      <trkpt lat="42.8093990" lon="1.6946990">
        <ele>847.8</ele>
        <time>2020-07-23T07:03:14Z</time>
      </trkpt>
      <trkpt lat="42.8094880" lon="1.6948790">
        <ele>848.6</ele>
        <time>2020-07-23T07:03:19Z</time>
      </trkpt>
      <trkpt lat="42.8095000" lon="1.6949140">
        <ele>848.8</ele>
        <time>2020-07-23T07:03:20Z</time>
      </trkpt>
      <trkpt lat="42.8095170" lon="1.6949500">
        <ele>848.8</ele>
        <time>2020-07-23T07:03:21Z</time>
      </trkpt>
      <trkpt lat="42.8095900" lon="1.6950760">
        <ele>850.0</ele>
        <time>2020-07-23T07:03:25Z</time>
      </trkpt>
      <trkpt lat="42.8096250" lon="1.6951300">
        <ele>850.6</ele>
        <time>2020-07-23T07:03:27Z</time>
      </trkpt>
      <trkpt lat="42.8096620" lon="1.6951810">
        <ele>851.2</ele>
        <time>2020-07-23T07:03:29Z</time>
      </trkpt>
      <trkpt lat="42.8097090" lon="1.6953190">
        <ele>852.2</ele>
        <time>2020-07-23T07:03:34Z</time>
      </trkpt>
      <trkpt lat="42.8097220" lon="1.6953480">
        <ele>852.2</ele>
        <time>2020-07-23T07:03:35Z</time>
      </trkpt>
      <trkpt lat="42.8097870" lon="1.6955020">
        <ele>853.4</ele>
        <time>2020-07-23T07:03:40Z</time>
      </trkpt>
      <trkpt lat="42.8097990" lon="1.6955340">
        <ele>853.8</ele>
        <time>2020-07-23T07:03:41Z</time>
      </trkpt>
      <trkpt lat="42.8098250" lon="1.6955970">
        <ele>854.2</ele>
        <time>2020-07-23T07:03:43Z</time>
      </trkpt>
      <trkpt lat="42.8098380" lon="1.6956270">
        <ele>854.4</ele>
        <time>2020-07-23T07:03:44Z</time>
      </trkpt>
      <trkpt lat="42.8099050" lon="1.6957670">
        <ele>855.6</ele>
        <time>2020-07-23T07:03:49Z</time>
      </trkpt>
      <trkpt lat="42.8099710" lon="1.6958590">
        <ele>856.8</ele>
        <time>2020-07-23T07:03:53Z</time>
      </trkpt>
      <trkpt lat="42.8100620" lon="1.6959430">
        <ele>857.6</ele>
        <time>2020-07-23T07:03:58Z</time>
      </trkpt>
      <trkpt lat="42.8100800" lon="1.6959590">
        <ele>857.8</ele>
        <time>2020-07-23T07:03:59Z</time>
      </trkpt>
      <trkpt lat="42.8101450" lon="1.6960190">
        <ele>858.6</ele>
        <time>2020-07-23T07:04:03Z</time>
      </trkpt>
      <trkpt lat="42.8101620" lon="1.6960340">
        <ele>858.8</ele>
        <time>2020-07-23T07:04:04Z</time>
      </trkpt>
      <trkpt lat="42.8101820" lon="1.6960430">
        <ele>859.0</ele>
        <time>2020-07-23T07:04:05Z</time>
      </trkpt>
      <trkpt lat="42.8103150" lon="1.6961130">
        <ele>859.8</ele>
        <time>2020-07-23T07:04:11Z</time>
      </trkpt>
      <trkpt lat="42.8103420" lon="1.6961200">
        <ele>860.0</ele>
        <time>2020-07-23T07:04:12Z</time>
      </trkpt>
      <trkpt lat="42.8103680" lon="1.6961260">
        <ele>860.2</ele>
        <time>2020-07-23T07:04:13Z</time>
      </trkpt>
      <trkpt lat="42.8104620" lon="1.6961370">
        <ele>861.2</ele>
        <time>2020-07-23T07:04:17Z</time>
      </trkpt>
      <trkpt lat="42.8104850" lon="1.6961440">
        <ele>861.4</ele>
        <time>2020-07-23T07:04:18Z</time>
      </trkpt>
      <trkpt lat="42.8105580" lon="1.6961420">
        <ele>862.2</ele>
        <time>2020-07-23T07:04:21Z</time>
      </trkpt>
      <trkpt lat="42.8105840" lon="1.6961480">
        <ele>862.4</ele>
        <time>2020-07-23T07:04:22Z</time>
      </trkpt>
      <trkpt lat="42.8106840" lon="1.6961580">
        <ele>863.2</ele>
        <time>2020-07-23T07:04:26Z</time>
      </trkpt>
      <trkpt lat="42.8107020" lon="1.6961570">
        <ele>863.4</ele>
        <time>2020-07-23T07:04:27Z</time>
      </trkpt>
      <trkpt lat="42.8107220" lon="1.6961580">
        <ele>863.6</ele>
        <time>2020-07-23T07:04:28Z</time>
      </trkpt>
      <trkpt lat="42.8108260" lon="1.6961490">
        <ele>864.6</ele>
        <time>2020-07-23T07:04:32Z</time>
      </trkpt>
      <trkpt lat="42.8109340" lon="1.6961540">
        <ele>865.2</ele>
        <time>2020-07-23T07:04:36Z</time>
      </trkpt>
      <trkpt lat="42.8109820" lon="1.6961560">
        <ele>865.8</ele>
        <time>2020-07-23T07:04:38Z</time>
      </trkpt>
      <trkpt lat="42.8110760" lon="1.6961480">
        <ele>866.8</ele>
        <time>2020-07-23T07:04:42Z</time>
      </trkpt>
      <trkpt lat="42.8110990" lon="1.6961470">
        <ele>867.0</ele>
        <time>2020-07-23T07:04:43Z</time>
      </trkpt>
      <trkpt lat="42.8111860" lon="1.6961450">
        <ele>868.0</ele>
        <time>2020-07-23T07:04:47Z</time>
      </trkpt>
      <trkpt lat="42.8112580" lon="1.6961420">
        <ele>868.8</ele>
        <time>2020-07-23T07:04:50Z</time>
      </trkpt>
      <trkpt lat="42.8113030" lon="1.6961510">
        <ele>869.2</ele>
        <time>2020-07-23T07:04:52Z</time>
      </trkpt>
      <trkpt lat="42.8113980" lon="1.6961400">
        <ele>870.0</ele>
        <time>2020-07-23T07:04:56Z</time>
      </trkpt>
      <trkpt lat="42.8114210" lon="1.6961380">
        <ele>870.4</ele>
        <time>2020-07-23T07:04:57Z</time>
      </trkpt>
      <trkpt lat="42.8114890" lon="1.6961250">
        <ele>871.4</ele>
        <time>2020-07-23T07:05:00Z</time>
      </trkpt>
      <trkpt lat="42.8115110" lon="1.6961240">
        <ele>871.6</ele>
        <time>2020-07-23T07:05:01Z</time>
      </trkpt>
      <trkpt lat="42.8115620" lon="1.6961200">
        <ele>872.4</ele>
        <time>2020-07-23T07:05:04Z</time>
      </trkpt>
      <trkpt lat="42.8115790" lon="1.6961170">
        <ele>872.6</ele>
        <time>2020-07-23T07:05:05Z</time>
      </trkpt>
      <trkpt lat="42.8116960" lon="1.6961680">
        <ele>873.4</ele>
        <time>2020-07-23T07:05:11Z</time>
      </trkpt>
      <trkpt lat="42.8117140" lon="1.6961860">
        <ele>873.6</ele>
        <time>2020-07-23T07:05:12Z</time>
      </trkpt>
      <trkpt lat="42.8118340" lon="1.6962360">
        <ele>874.4</ele>
        <time>2020-07-23T07:05:17Z</time>
      </trkpt>
      <trkpt lat="42.8118900" lon="1.6962350">
        <ele>874.6</ele>
        <time>2020-07-23T07:05:19Z</time>
      </trkpt>
      <trkpt lat="42.8120050" lon="1.6961710">
        <ele>874.8</ele>
        <time>2020-07-23T07:05:23Z</time>
      </trkpt>
      <trkpt lat="42.8121710" lon="1.6959870">
        <ele>875.4</ele>
        <time>2020-07-23T07:05:29Z</time>
      </trkpt>
      <trkpt lat="42.8122000" lon="1.6959500">
        <ele>875.6</ele>
        <time>2020-07-23T07:05:30Z</time>
      </trkpt>
      <trkpt lat="42.8124080" lon="1.6957430">
        <ele>875.6</ele>
        <time>2020-07-23T07:05:36Z</time>
      </trkpt>
      <trkpt lat="42.8124450" lon="1.6957100">
        <ele>875.8</ele>
        <time>2020-07-23T07:05:37Z</time>
      </trkpt>
      <trkpt lat="42.8124840" lon="1.6956750">
        <ele>876.0</ele>
        <time>2020-07-23T07:05:38Z</time>
      </trkpt>
      <trkpt lat="42.8126040" lon="1.6955770">
        <ele>876.6</ele>
        <time>2020-07-23T07:05:41Z</time>
      </trkpt>
      <trkpt lat="42.8126420" lon="1.6955450">
        <ele>876.8</ele>
        <time>2020-07-23T07:05:42Z</time>
      </trkpt>
      <trkpt lat="42.8127610" lon="1.6954530">
        <ele>876.6</ele>
        <time>2020-07-23T07:05:45Z</time>
      </trkpt>
      <trkpt lat="42.8129720" lon="1.6953180">
        <ele>876.4</ele>
        <time>2020-07-23T07:05:50Z</time>
      </trkpt>
      <trkpt lat="42.8130660" lon="1.6952760">
        <ele>876.4</ele>
        <time>2020-07-23T07:05:52Z</time>
      </trkpt>
      <trkpt lat="42.8132790" lon="1.6951660">
        <ele>876.0</ele>
        <time>2020-07-23T07:05:56Z</time>
      </trkpt>
      <trkpt lat="42.8133900" lon="1.6950850">
        <ele>875.6</ele>
        <time>2020-07-23T07:05:58Z</time>
      </trkpt>
      <trkpt lat="42.8136150" lon="1.6949280">
        <ele>874.6</ele>
        <time>2020-07-23T07:06:02Z</time>
      </trkpt>
      <trkpt lat="42.8137320" lon="1.6948410">
        <ele>874.2</ele>
        <time>2020-07-23T07:06:04Z</time>
      </trkpt>
      <trkpt lat="42.8137920" lon="1.6948040">
        <ele>874.4</ele>
        <time>2020-07-23T07:06:05Z</time>
      </trkpt>
      <trkpt lat="42.8139150" lon="1.6947300">
        <ele>874.2</ele>
        <time>2020-07-23T07:06:07Z</time>
      </trkpt>
      <trkpt lat="42.8140840" lon="1.6946000">
        <ele>874.2</ele>
        <time>2020-07-23T07:06:10Z</time>
      </trkpt>
      <trkpt lat="42.8143400" lon="1.6943130">
        <ele>874.0</ele>
        <time>2020-07-23T07:06:15Z</time>
      </trkpt>
      <trkpt lat="42.8145790" lon="1.6939220">
        <ele>874.6</ele>
        <time>2020-07-23T07:06:21Z</time>
      </trkpt>
      <trkpt lat="42.8146190" lon="1.6938560">
        <ele>874.8</ele>
        <time>2020-07-23T07:06:22Z</time>
      </trkpt>
      <trkpt lat="42.8147300" lon="1.6936490">
        <ele>875.2</ele>
        <time>2020-07-23T07:06:25Z</time>
      </trkpt>
      <trkpt lat="42.8149370" lon="1.6933350">
        <ele>875.4</ele>
        <time>2020-07-23T07:06:30Z</time>
      </trkpt>
      <trkpt lat="42.8150790" lon="1.6931560">
        <ele>875.4</ele>
        <time>2020-07-23T07:06:33Z</time>
      </trkpt>
      <trkpt lat="42.8152450" lon="1.6930180">
        <ele>875.4</ele>
        <time>2020-07-23T07:06:36Z</time>
      </trkpt>
      <trkpt lat="42.8154190" lon="1.6928930">
        <ele>875.0</ele>
        <time>2020-07-23T07:06:39Z</time>
      </trkpt>
      <trkpt lat="42.8156300" lon="1.6926840">
        <ele>874.6</ele>
        <time>2020-07-23T07:06:43Z</time>
      </trkpt>
      <trkpt lat="42.8156980" lon="1.6925390">
        <ele>875.0</ele>
        <time>2020-07-23T07:06:45Z</time>
      </trkpt>
      <trkpt lat="42.8157500" lon="1.6923720">
        <ele>875.2</ele>
        <time>2020-07-23T07:06:47Z</time>
      </trkpt>
      <trkpt lat="42.8158260" lon="1.6922260">
        <ele>875.2</ele>
        <time>2020-07-23T07:06:49Z</time>
      </trkpt>
      <trkpt lat="42.8159150" lon="1.6920850">
        <ele>875.6</ele>
        <time>2020-07-23T07:06:51Z</time>
      </trkpt>
      <trkpt lat="42.8159550" lon="1.6920080">
        <ele>875.6</ele>
        <time>2020-07-23T07:06:52Z</time>
      </trkpt>
      <trkpt lat="42.8162190" lon="1.6915720">
        <ele>875.2</ele>
        <time>2020-07-23T07:06:58Z</time>
      </trkpt>
      <trkpt lat="42.8162740" lon="1.6915080">
        <ele>875.0</ele>
        <time>2020-07-23T07:06:59Z</time>
      </trkpt>
      <trkpt lat="42.8164360" lon="1.6913290">
        <ele>874.6</ele>
        <time>2020-07-23T07:07:02Z</time>
      </trkpt>
      <trkpt lat="42.8165730" lon="1.6911280">
        <ele>874.6</ele>
        <time>2020-07-23T07:07:05Z</time>
      </trkpt>
      <trkpt lat="42.8166090" lon="1.6910510">
        <ele>874.6</ele>
        <time>2020-07-23T07:07:06Z</time>
      </trkpt>
      <trkpt lat="42.8166670" lon="1.6908780">
        <ele>874.6</ele>
        <time>2020-07-23T07:07:08Z</time>
      </trkpt>
      <trkpt lat="42.8167370" lon="1.6905990">
        <ele>874.4</ele>
        <time>2020-07-23T07:07:11Z</time>
      </trkpt>
      <trkpt lat="42.8168930" lon="1.6901740">
        <ele>874.2</ele>
        <time>2020-07-23T07:07:16Z</time>
      </trkpt>
      <trkpt lat="42.8169380" lon="1.6901060">
        <ele>874.4</ele>
        <time>2020-07-23T07:07:17Z</time>
      </trkpt>
      <trkpt lat="42.8169890" lon="1.6900450">
        <ele>874.4</ele>
        <time>2020-07-23T07:07:18Z</time>
      </trkpt>
      <trkpt lat="42.8171520" lon="1.6898960">
        <ele>874.4</ele>
        <time>2020-07-23T07:07:21Z</time>
      </trkpt>
      <trkpt lat="42.8174470" lon="1.6896320">
        <ele>875.4</ele>
        <time>2020-07-23T07:07:27Z</time>
      </trkpt>
      <trkpt lat="42.8174910" lon="1.6895890">
        <ele>875.6</ele>
        <time>2020-07-23T07:07:28Z</time>
      </trkpt>
      <trkpt lat="42.8175350" lon="1.6895440">
        <ele>876.0</ele>
        <time>2020-07-23T07:07:29Z</time>
      </trkpt>
      <trkpt lat="42.8177390" lon="1.6893360">
        <ele>876.8</ele>
        <time>2020-07-23T07:07:34Z</time>
      </trkpt>
      <trkpt lat="42.8178560" lon="1.6892210">
        <ele>877.6</ele>
        <time>2020-07-23T07:07:37Z</time>
      </trkpt>
      <trkpt lat="42.8179360" lon="1.6891510">
        <ele>877.8</ele>
        <time>2020-07-23T07:07:39Z</time>
      </trkpt>
      <trkpt lat="42.8181690" lon="1.6889610">
        <ele>878.0</ele>
        <time>2020-07-23T07:07:45Z</time>
      </trkpt>
      <trkpt lat="42.8182070" lon="1.6889310">
        <ele>878.2</ele>
        <time>2020-07-23T07:07:46Z</time>
      </trkpt>
      <trkpt lat="42.8183960" lon="1.6887830">
        <ele>878.8</ele>
        <time>2020-07-23T07:07:51Z</time>
      </trkpt>
      <trkpt lat="42.8185400" lon="1.6886550">
        <ele>879.4</ele>
        <time>2020-07-23T07:07:55Z</time>
      </trkpt>
      <trkpt lat="42.8186050" lon="1.6885830">
        <ele>879.6</ele>
        <time>2020-07-23T07:07:57Z</time>
      </trkpt>
      <trkpt lat="42.8186630" lon="1.6885040">
        <ele>879.8</ele>
        <time>2020-07-23T07:07:59Z</time>
      </trkpt>
      <trkpt lat="42.8186920" lon="1.6884630">
        <ele>879.8</ele>
        <time>2020-07-23T07:08:00Z</time>
      </trkpt>
      <trkpt lat="42.8187220" lon="1.6884230">
        <ele>880.0</ele>
        <time>2020-07-23T07:08:01Z</time>
      </trkpt>
      <trkpt lat="42.8187510" lon="1.6883820">
        <ele>880.2</ele>
        <time>2020-07-23T07:08:02Z</time>
      </trkpt>
      <trkpt lat="42.8187800" lon="1.6883400">
        <ele>880.4</ele>
        <time>2020-07-23T07:08:03Z</time>
      </trkpt>
      <trkpt lat="42.8188370" lon="1.6882550">
        <ele>880.6</ele>
        <time>2020-07-23T07:08:05Z</time>
      </trkpt>
      <trkpt lat="42.8189540" lon="1.6880910">
        <ele>881.0</ele>
        <time>2020-07-23T07:08:09Z</time>
      </trkpt>
      <trkpt lat="42.8190410" lon="1.6879700">
        <ele>881.4</ele>
        <time>2020-07-23T07:08:12Z</time>
      </trkpt>
      <trkpt lat="42.8191780" lon="1.6877390">
        <ele>882.2</ele>
        <time>2020-07-23T07:08:17Z</time>
      </trkpt>
      <trkpt lat="42.8192260" lon="1.6876370">
        <ele>882.2</ele>
        <time>2020-07-23T07:08:19Z</time>
      </trkpt>
      <trkpt lat="42.8193600" lon="1.6873240">
        <ele>883.0</ele>
        <time>2020-07-23T07:08:25Z</time>
      </trkpt>
      <trkpt lat="42.8193790" lon="1.6872680">
        <ele>883.0</ele>
        <time>2020-07-23T07:08:26Z</time>
      </trkpt>
      <trkpt lat="42.8194030" lon="1.6872150">
        <ele>883.2</ele>
        <time>2020-07-23T07:08:27Z</time>
      </trkpt>
      <trkpt lat="42.8195350" lon="1.6869100">
        <ele>884.2</ele>
        <time>2020-07-23T07:08:33Z</time>
      </trkpt>
      <trkpt lat="42.8195570" lon="1.6868640">
        <ele>884.4</ele>
        <time>2020-07-23T07:08:34Z</time>
      </trkpt>
      <trkpt lat="42.8196990" lon="1.6865890">
        <ele>885.4</ele>
        <time>2020-07-23T07:08:40Z</time>
      </trkpt>
      <trkpt lat="42.8197510" lon="1.6865050">
        <ele>885.6</ele>
        <time>2020-07-23T07:08:42Z</time>
      </trkpt>
      <trkpt lat="42.8197810" lon="1.6864680">
        <ele>885.6</ele>
        <time>2020-07-23T07:08:43Z</time>
      </trkpt>
      <trkpt lat="42.8198980" lon="1.6862990">
        <ele>885.6</ele>
        <time>2020-07-23T07:08:47Z</time>
      </trkpt>
      <trkpt lat="42.8199660" lon="1.6862350">
        <ele>886.0</ele>
        <time>2020-07-23T07:08:49Z</time>
      </trkpt>
      <trkpt lat="42.8200770" lon="1.6861510">
        <ele>886.4</ele>
        <time>2020-07-23T07:08:52Z</time>
      </trkpt>
      <trkpt lat="42.8202640" lon="1.6860200">
        <ele>887.2</ele>
        <time>2020-07-23T07:08:57Z</time>
      </trkpt>
      <trkpt lat="42.8203010" lon="1.6859970">
        <ele>887.2</ele>
        <time>2020-07-23T07:08:58Z</time>
      </trkpt>
      <trkpt lat="42.8203350" lon="1.6859700">
        <ele>887.4</ele>
        <time>2020-07-23T07:08:59Z</time>
      </trkpt>
      <trkpt lat="42.8205390" lon="1.6857960">
        <ele>888.2</ele>
        <time>2020-07-23T07:09:05Z</time>
      </trkpt>
      <trkpt lat="42.8205720" lon="1.6857630">
        <ele>888.2</ele>
        <time>2020-07-23T07:09:06Z</time>
      </trkpt>
      <trkpt lat="42.8206390" lon="1.6856990">
        <ele>888.6</ele>
        <time>2020-07-23T07:09:08Z</time>
      </trkpt>
      <trkpt lat="42.8208150" lon="1.6854770">
        <ele>889.0</ele>
        <time>2020-07-23T07:09:14Z</time>
      </trkpt>
      <trkpt lat="42.8208960" lon="1.6853510">
        <ele>889.6</ele>
        <time>2020-07-23T07:09:17Z</time>
      </trkpt>
      <trkpt lat="42.8209740" lon="1.6851500">
        <ele>890.4</ele>
        <time>2020-07-23T07:09:21Z</time>
      </trkpt>
      <trkpt lat="42.8210170" lon="1.6850560">
        <ele>890.6</ele>
        <time>2020-07-23T07:09:23Z</time>
      </trkpt>
      <trkpt lat="42.8211050" lon="1.6848580">
        <ele>890.8</ele>
        <time>2020-07-23T07:09:27Z</time>
      </trkpt>
      <trkpt lat="42.8211530" lon="1.6847610">
        <ele>891.0</ele>
        <time>2020-07-23T07:09:29Z</time>
      </trkpt>
      <trkpt lat="42.8212380" lon="1.6845600">
        <ele>891.8</ele>
        <time>2020-07-23T07:09:33Z</time>
      </trkpt>
      <trkpt lat="42.8213710" lon="1.6843530">
        <ele>892.6</ele>
        <time>2020-07-23T07:09:38Z</time>
      </trkpt>
      <trkpt lat="42.8214000" lon="1.6843180">
        <ele>893.0</ele>
        <time>2020-07-23T07:09:39Z</time>
      </trkpt>
      <trkpt lat="42.8215260" lon="1.6841850">
        <ele>894.0</ele>
        <time>2020-07-23T07:09:43Z</time>
      </trkpt>
      <trkpt lat="42.8216640" lon="1.6840670">
        <ele>894.4</ele>
        <time>2020-07-23T07:09:47Z</time>
      </trkpt>
      <trkpt lat="42.8218850" lon="1.6838730">
        <ele>894.8</ele>
        <time>2020-07-23T07:09:53Z</time>
      </trkpt>
      <trkpt lat="42.8219620" lon="1.6838060">
        <ele>894.8</ele>
        <time>2020-07-23T07:09:55Z</time>
      </trkpt>
      <trkpt lat="42.8219990" lon="1.6837700">
        <ele>895.0</ele>
        <time>2020-07-23T07:09:56Z</time>
      </trkpt>
      <trkpt lat="42.8220970" lon="1.6836550">
        <ele>895.2</ele>
        <time>2020-07-23T07:09:59Z</time>
      </trkpt>
      <trkpt lat="42.8221970" lon="1.6835520">
        <ele>895.4</ele>
        <time>2020-07-23T07:10:02Z</time>
      </trkpt>
      <trkpt lat="42.8223410" lon="1.6834250">
        <ele>896.0</ele>
        <time>2020-07-23T07:10:06Z</time>
      </trkpt>
      <trkpt lat="42.8224950" lon="1.6833230">
        <ele>896.4</ele>
        <time>2020-07-23T07:10:10Z</time>
      </trkpt>
      <trkpt lat="42.8226640" lon="1.6832240">
        <ele>896.2</ele>
        <time>2020-07-23T07:10:14Z</time>
      </trkpt>
      <trkpt lat="42.8228020" lon="1.6831390">
        <ele>895.8</ele>
        <time>2020-07-23T07:10:17Z</time>
      </trkpt>
      <trkpt lat="42.8230920" lon="1.6829280">
        <ele>895.0</ele>
        <time>2020-07-23T07:10:23Z</time>
      </trkpt>
      <trkpt lat="42.8231470" lon="1.6828890">
        <ele>894.8</ele>
        <time>2020-07-23T07:10:24Z</time>
      </trkpt>
      <trkpt lat="42.8232040" lon="1.6828520">
        <ele>894.4</ele>
        <time>2020-07-23T07:10:25Z</time>
      </trkpt>
      <trkpt lat="42.8233800" lon="1.6827390">
        <ele>893.6</ele>
        <time>2020-07-23T07:10:28Z</time>
      </trkpt>
      <trkpt lat="42.8234350" lon="1.6826960">
        <ele>893.6</ele>
        <time>2020-07-23T07:10:29Z</time>
      </trkpt>
      <trkpt lat="42.8235890" lon="1.6825500">
        <ele>893.2</ele>
        <time>2020-07-23T07:10:32Z</time>
      </trkpt>
      <trkpt lat="42.8237450" lon="1.6823990">
        <ele>892.6</ele>
        <time>2020-07-23T07:10:35Z</time>
      </trkpt>
      <trkpt lat="42.8238480" lon="1.6822920">
        <ele>892.4</ele>
        <time>2020-07-23T07:10:37Z</time>
      </trkpt>
      <trkpt lat="42.8239590" lon="1.6821940">
        <ele>892.2</ele>
        <time>2020-07-23T07:10:39Z</time>
      </trkpt>
      <trkpt lat="42.8243040" lon="1.6819090">
        <ele>891.8</ele>
        <time>2020-07-23T07:10:45Z</time>
      </trkpt>
      <trkpt lat="42.8243620" lon="1.6818570">
        <ele>891.6</ele>
        <time>2020-07-23T07:10:46Z</time>
      </trkpt>
      <trkpt lat="42.8244190" lon="1.6818050">
        <ele>891.4</ele>
        <time>2020-07-23T07:10:47Z</time>
      </trkpt>
      <trkpt lat="42.8247450" lon="1.6814410">
        <ele>891.0</ele>
        <time>2020-07-23T07:10:53Z</time>
      </trkpt>
      <trkpt lat="42.8248010" lon="1.6813760">
        <ele>891.0</ele>
        <time>2020-07-23T07:10:54Z</time>
      </trkpt>
      <trkpt lat="42.8249980" lon="1.6812030">
        <ele>890.2</ele>
        <time>2020-07-23T07:10:57Z</time>
      </trkpt>
      <trkpt lat="42.8250730" lon="1.6811480">
        <ele>889.6</ele>
        <time>2020-07-23T07:10:58Z</time>
      </trkpt>
      <trkpt lat="42.8251520" lon="1.6810970">
        <ele>889.2</ele>
        <time>2020-07-23T07:10:59Z</time>
      </trkpt>
      <trkpt lat="42.8252330" lon="1.6810400">
        <ele>888.6</ele>
        <time>2020-07-23T07:11:00Z</time>
      </trkpt>
      <trkpt lat="42.8253180" lon="1.6809760">
        <ele>888.2</ele>
        <time>2020-07-23T07:11:01Z</time>
      </trkpt>
      <trkpt lat="42.8254040" lon="1.6809050">
        <ele>887.4</ele>
        <time>2020-07-23T07:11:02Z</time>
      </trkpt>
      <trkpt lat="42.8254910" lon="1.6808260">
        <ele>886.4</ele>
        <time>2020-07-23T07:11:03Z</time>
      </trkpt>
      <trkpt lat="42.8255730" lon="1.6807350">
        <ele>885.6</ele>
        <time>2020-07-23T07:11:04Z</time>
      </trkpt>
      <trkpt lat="42.8257360" lon="1.6805460">
        <ele>884.2</ele>
        <time>2020-07-23T07:11:06Z</time>
      </trkpt>
      <trkpt lat="42.8259070" lon="1.6803720">
        <ele>882.8</ele>
        <time>2020-07-23T07:11:08Z</time>
      </trkpt>
      <trkpt lat="42.8260890" lon="1.6802150">
        <ele>881.6</ele>
        <time>2020-07-23T07:11:10Z</time>
      </trkpt>
      <trkpt lat="42.8263600" lon="1.6799670">
        <ele>880.2</ele>
        <time>2020-07-23T07:11:13Z</time>
      </trkpt>
      <trkpt lat="42.8264410" lon="1.6798810">
        <ele>879.6</ele>
        <time>2020-07-23T07:11:14Z</time>
      </trkpt>
      <trkpt lat="42.8265190" lon="1.6797920">
        <ele>879.0</ele>
        <time>2020-07-23T07:11:15Z</time>
      </trkpt>
      <trkpt lat="42.8267500" lon="1.6795200">
        <ele>877.6</ele>
        <time>2020-07-23T07:11:18Z</time>
      </trkpt>
      <trkpt lat="42.8268340" lon="1.6794470">
        <ele>877.0</ele>
        <time>2020-07-23T07:11:19Z</time>
      </trkpt>
      <trkpt lat="42.8269250" lon="1.6793840">
        <ele>876.6</ele>
        <time>2020-07-23T07:11:20Z</time>
      </trkpt>
      <trkpt lat="42.8271130" lon="1.6792680">
        <ele>875.2</ele>
        <time>2020-07-23T07:11:22Z</time>
      </trkpt>
      <trkpt lat="42.8272970" lon="1.6791400">
        <ele>874.4</ele>
        <time>2020-07-23T07:11:24Z</time>
      </trkpt>
      <trkpt lat="42.8274740" lon="1.6789920">
        <ele>874.0</ele>
        <time>2020-07-23T07:11:26Z</time>
      </trkpt>
      <trkpt lat="42.8276450" lon="1.6788350">
        <ele>873.6</ele>
        <time>2020-07-23T07:11:28Z</time>
      </trkpt>
      <trkpt lat="42.8278060" lon="1.6786640">
        <ele>872.4</ele>
        <time>2020-07-23T07:11:30Z</time>
      </trkpt>
      <trkpt lat="42.8278880" lon="1.6785840">
        <ele>872.0</ele>
        <time>2020-07-23T07:11:31Z</time>
      </trkpt>
      <trkpt lat="42.8280610" lon="1.6784380">
        <ele>871.4</ele>
        <time>2020-07-23T07:11:33Z</time>
      </trkpt>
      <trkpt lat="42.8282270" lon="1.6782930">
        <ele>870.0</ele>
        <time>2020-07-23T07:11:35Z</time>
      </trkpt>
      <trkpt lat="42.8284480" lon="1.6780670">
        <ele>869.2</ele>
        <time>2020-07-23T07:11:38Z</time>
      </trkpt>
      <trkpt lat="42.8285650" lon="1.6779010">
        <ele>868.8</ele>
        <time>2020-07-23T07:11:40Z</time>
      </trkpt>
      <trkpt lat="42.8287440" lon="1.6776420">
        <ele>868.0</ele>
        <time>2020-07-23T07:11:43Z</time>
      </trkpt>
      <trkpt lat="42.8288170" lon="1.6775670">
        <ele>867.6</ele>
        <time>2020-07-23T07:11:44Z</time>
      </trkpt>
      <trkpt lat="42.8289000" lon="1.6775000">
        <ele>867.0</ele>
        <time>2020-07-23T07:11:45Z</time>
      </trkpt>
      <trkpt lat="42.8289860" lon="1.6774430">
        <ele>866.4</ele>
        <time>2020-07-23T07:11:46Z</time>
      </trkpt>
      <trkpt lat="42.8291630" lon="1.6773230">
        <ele>865.4</ele>
        <time>2020-07-23T07:11:48Z</time>
      </trkpt>
      <trkpt lat="42.8293350" lon="1.6771850">
        <ele>864.4</ele>
        <time>2020-07-23T07:11:50Z</time>
      </trkpt>
      <trkpt lat="42.8294120" lon="1.6771030">
        <ele>863.8</ele>
        <time>2020-07-23T07:11:51Z</time>
      </trkpt>
      <trkpt lat="42.8295510" lon="1.6769260">
        <ele>862.8</ele>
        <time>2020-07-23T07:11:53Z</time>
      </trkpt>
      <trkpt lat="42.8296190" lon="1.6768420">
        <ele>862.4</ele>
        <time>2020-07-23T07:11:54Z</time>
      </trkpt>
      <trkpt lat="42.8298420" lon="1.6766040">
        <ele>861.4</ele>
        <time>2020-07-23T07:11:57Z</time>
      </trkpt>
      <trkpt lat="42.8300060" lon="1.6764740">
        <ele>860.2</ele>
        <time>2020-07-23T07:11:59Z</time>
      </trkpt>
      <trkpt lat="42.8302590" lon="1.6762930">
        <ele>859.0</ele>
        <time>2020-07-23T07:12:02Z</time>
      </trkpt>
      <trkpt lat="42.8304980" lon="1.6761030">
        <ele>857.6</ele>
        <time>2020-07-23T07:12:05Z</time>
      </trkpt>
      <trkpt lat="42.8305790" lon="1.6760450">
        <ele>857.2</ele>
        <time>2020-07-23T07:12:06Z</time>
      </trkpt>
      <trkpt lat="42.8306660" lon="1.6760010">
        <ele>857.2</ele>
        <time>2020-07-23T07:12:07Z</time>
      </trkpt>
      <trkpt lat="42.8309220" lon="1.6758840">
        <ele>857.0</ele>
        <time>2020-07-23T07:12:10Z</time>
      </trkpt>
      <trkpt lat="42.8310030" lon="1.6758420">
        <ele>857.0</ele>
        <time>2020-07-23T07:12:11Z</time>
      </trkpt>
      <trkpt lat="42.8311660" lon="1.6757640">
        <ele>857.0</ele>
        <time>2020-07-23T07:12:13Z</time>
      </trkpt>
      <trkpt lat="42.8313950" lon="1.6756420">
        <ele>856.6</ele>
        <time>2020-07-23T07:12:16Z</time>
      </trkpt>
      <trkpt lat="42.8314660" lon="1.6755930">
        <ele>856.4</ele>
        <time>2020-07-23T07:12:17Z</time>
      </trkpt>
      <trkpt lat="42.8318440" lon="1.6752650">
        <ele>856.2</ele>
        <time>2020-07-23T07:12:23Z</time>
      </trkpt>
      <trkpt lat="42.8319810" lon="1.6752140">
        <ele>856.2</ele>
        <time>2020-07-23T07:12:25Z</time>
      </trkpt>
      <trkpt lat="42.8321320" lon="1.6752070">
        <ele>856.0</ele>
        <time>2020-07-23T07:12:27Z</time>
      </trkpt>
      <trkpt lat="42.8324470" lon="1.6751370">
        <ele>855.2</ele>
        <time>2020-07-23T07:12:31Z</time>
      </trkpt>
      <trkpt lat="42.8325310" lon="1.6751040">
        <ele>855.0</ele>
        <time>2020-07-23T07:12:32Z</time>
      </trkpt>
      <trkpt lat="42.8327820" lon="1.6749750">
        <ele>853.8</ele>
        <time>2020-07-23T07:12:35Z</time>
      </trkpt>
      <trkpt lat="42.8330400" lon="1.6748340">
        <ele>852.4</ele>
        <time>2020-07-23T07:12:38Z</time>
      </trkpt>
      <trkpt lat="42.8331320" lon="1.6747870">
        <ele>851.8</ele>
        <time>2020-07-23T07:12:39Z</time>
      </trkpt>
      <trkpt lat="42.8332220" lon="1.6747400">
        <ele>850.8</ele>
        <time>2020-07-23T07:12:40Z</time>
      </trkpt>
      <trkpt lat="42.8333120" lon="1.6746960">
        <ele>850.0</ele>
        <time>2020-07-23T07:12:41Z</time>
      </trkpt>
      <trkpt lat="42.8334050" lon="1.6746560">
        <ele>849.4</ele>
        <time>2020-07-23T07:12:42Z</time>
      </trkpt>
      <trkpt lat="42.8336830" lon="1.6745140">
        <ele>848.0</ele>
        <time>2020-07-23T07:12:45Z</time>
      </trkpt>
      <trkpt lat="42.8338700" lon="1.6744070">
        <ele>846.4</ele>
        <time>2020-07-23T07:12:47Z</time>
      </trkpt>
      <trkpt lat="42.8340540" lon="1.6742910">
        <ele>845.2</ele>
        <time>2020-07-23T07:12:49Z</time>
      </trkpt>
      <trkpt lat="42.8342230" lon="1.6741670">
        <ele>844.2</ele>
        <time>2020-07-23T07:12:51Z</time>
      </trkpt>
      <trkpt lat="42.8343030" lon="1.6741070">
        <ele>844.0</ele>
        <time>2020-07-23T07:12:52Z</time>
      </trkpt>
      <trkpt lat="42.8345910" lon="1.6738870">
        <ele>845.2</ele>
        <time>2020-07-23T07:12:56Z</time>
      </trkpt>
      <trkpt lat="42.8346600" lon="1.6738390">
        <ele>845.4</ele>
        <time>2020-07-23T07:12:57Z</time>
      </trkpt>
      <trkpt lat="42.8350560" lon="1.6735510">
        <ele>846.0</ele>
        <time>2020-07-23T07:13:03Z</time>
      </trkpt>
      <trkpt lat="42.8354260" lon="1.6732050">
        <ele>846.2</ele>
        <time>2020-07-23T07:13:09Z</time>
      </trkpt>
      <trkpt lat="42.8358060" lon="1.6729020">
        <ele>846.0</ele>
        <time>2020-07-23T07:13:15Z</time>
      </trkpt>
      <trkpt lat="42.8362200" lon="1.6727220">
        <ele>845.8</ele>
        <time>2020-07-23T07:13:21Z</time>
      </trkpt>
      <trkpt lat="42.8366330" lon="1.6725460">
        <ele>845.8</ele>
        <time>2020-07-23T07:13:27Z</time>
      </trkpt>
      <trkpt lat="42.8367020" lon="1.6725100">
        <ele>846.0</ele>
        <time>2020-07-23T07:13:28Z</time>
      </trkpt>
      <trkpt lat="42.8368210" lon="1.6724080">
        <ele>846.2</ele>
        <time>2020-07-23T07:13:30Z</time>
      </trkpt>
      <trkpt lat="42.8369190" lon="1.6722880">
        <ele>846.4</ele>
        <time>2020-07-23T07:13:32Z</time>
      </trkpt>
      <trkpt lat="42.8370870" lon="1.6720480">
        <ele>847.2</ele>
        <time>2020-07-23T07:13:36Z</time>
      </trkpt>
      <trkpt lat="42.8371580" lon="1.6719280">
        <ele>847.6</ele>
        <time>2020-07-23T07:13:38Z</time>
      </trkpt>
      <trkpt lat="42.8371910" lon="1.6718660">
        <ele>848.0</ele>
        <time>2020-07-23T07:13:39Z</time>
      </trkpt>
      <trkpt lat="42.8372280" lon="1.6718100">
        <ele>848.2</ele>
        <time>2020-07-23T07:13:40Z</time>
      </trkpt>
      <trkpt lat="42.8373310" lon="1.6716330">
        <ele>848.6</ele>
        <time>2020-07-23T07:13:43Z</time>
      </trkpt>
      <trkpt lat="42.8373720" lon="1.6715860">
        <ele>848.8</ele>
        <time>2020-07-23T07:13:44Z</time>
      </trkpt>
      <trkpt lat="42.8374180" lon="1.6715530">
        <ele>849.0</ele>
        <time>2020-07-23T07:13:45Z</time>
      </trkpt>
      <trkpt lat="42.8374680" lon="1.6715360">
        <ele>849.2</ele>
        <time>2020-07-23T07:13:46Z</time>
      </trkpt>
      <trkpt lat="42.8375730" lon="1.6715520">
        <ele>849.4</ele>
        <time>2020-07-23T07:13:48Z</time>
      </trkpt>
      <trkpt lat="42.8376530" lon="1.6716180">
        <ele>849.6</ele>
        <time>2020-07-23T07:13:50Z</time>
      </trkpt>
      <trkpt lat="42.8377110" lon="1.6716890">
        <ele>849.8</ele>
        <time>2020-07-23T07:13:52Z</time>
      </trkpt>
      <trkpt lat="42.8378190" lon="1.6718290">
        <ele>851.0</ele>
        <time>2020-07-23T07:13:57Z</time>
      </trkpt>
      <trkpt lat="42.8378380" lon="1.6718580">
        <ele>851.0</ele>
        <time>2020-07-23T07:13:58Z</time>
      </trkpt>
      <trkpt lat="42.8379580" lon="1.6719950">
        <ele>851.0</ele>
        <time>2020-07-23T07:14:04Z</time>
      </trkpt>
      <trkpt lat="42.8380780" lon="1.6720890">
        <ele>851.2</ele>
        <time>2020-07-23T07:14:10Z</time>
      </trkpt>
      <trkpt lat="42.8381070" lon="1.6721060">
        <ele>851.2</ele>
        <time>2020-07-23T07:14:11Z</time>
      </trkpt>
      <trkpt lat="42.8382960" lon="1.6721840">
        <ele>851.6</ele>
        <time>2020-07-23T07:14:16Z</time>
      </trkpt>
      <trkpt lat="42.8385580" lon="1.6721730">
        <ele>851.6</ele>
        <time>2020-07-23T07:14:22Z</time>
      </trkpt>
      <trkpt lat="42.8387910" lon="1.6721390">
        <ele>850.0</ele>
        <time>2020-07-23T07:14:26Z</time>
      </trkpt>
      <trkpt lat="42.8388550" lon="1.6721400">
        <ele>849.6</ele>
        <time>2020-07-23T07:14:27Z</time>
      </trkpt>
      <trkpt lat="42.8389230" lon="1.6721500">
        <ele>849.0</ele>
        <time>2020-07-23T07:14:28Z</time>
      </trkpt>
      <trkpt lat="42.8389890" lon="1.6721680">
        <ele>848.4</ele>
        <time>2020-07-23T07:14:29Z</time>
      </trkpt>
      <trkpt lat="42.8390560" lon="1.6721990">
        <ele>847.8</ele>
        <time>2020-07-23T07:14:30Z</time>
      </trkpt>
      <trkpt lat="42.8391190" lon="1.6722310">
        <ele>847.4</ele>
        <time>2020-07-23T07:14:31Z</time>
      </trkpt>
      <trkpt lat="42.8391750" lon="1.6722640">
        <ele>846.8</ele>
        <time>2020-07-23T07:14:32Z</time>
      </trkpt>
      <trkpt lat="42.8392240" lon="1.6722980">
        <ele>846.2</ele>
        <time>2020-07-23T07:14:33Z</time>
      </trkpt>
      <trkpt lat="42.8393140" lon="1.6723430">
        <ele>845.2</ele>
        <time>2020-07-23T07:14:35Z</time>
      </trkpt>
      <trkpt lat="42.8393730" lon="1.6723220">
        <ele>845.0</ele>
        <time>2020-07-23T07:14:36Z</time>
      </trkpt>
      <trkpt lat="42.8394230" lon="1.6722970">
        <ele>844.6</ele>
        <time>2020-07-23T07:14:37Z</time>
      </trkpt>
      <trkpt lat="42.8395730" lon="1.6721870">
        <ele>844.4</ele>
        <time>2020-07-23T07:14:40Z</time>
      </trkpt>
      <trkpt lat="42.8397080" lon="1.6721030">
        <ele>845.2</ele>
        <time>2020-07-23T07:14:43Z</time>
      </trkpt>
      <trkpt lat="42.8397780" lon="1.6720760">
        <ele>845.8</ele>
        <time>2020-07-23T07:14:45Z</time>
      </trkpt>
      <trkpt lat="42.8398110" lon="1.6720700">
        <ele>846.2</ele>
        <time>2020-07-23T07:14:46Z</time>
      </trkpt>
      <trkpt lat="42.8398780" lon="1.6720590">
        <ele>847.0</ele>
        <time>2020-07-23T07:14:48Z</time>
      </trkpt>
      <trkpt lat="42.8399080" lon="1.6720550">
        <ele>847.4</ele>
        <time>2020-07-23T07:14:49Z</time>
      </trkpt>
      <trkpt lat="42.8399360" lon="1.6720510">
        <ele>847.8</ele>
        <time>2020-07-23T07:14:50Z</time>
      </trkpt>
      <trkpt lat="42.8399900" lon="1.6720400">
        <ele>848.0</ele>
        <time>2020-07-23T07:14:52Z</time>
      </trkpt>
      <trkpt lat="42.8400450" lon="1.6720200">
        <ele>848.4</ele>
        <time>2020-07-23T07:14:54Z</time>
      </trkpt>
      <trkpt lat="42.8401400" lon="1.6719810">
        <ele>849.6</ele>
        <time>2020-07-23T07:14:58Z</time>
      </trkpt>
      <trkpt lat="42.8401580" lon="1.6719660">
        <ele>849.8</ele>
        <time>2020-07-23T07:14:59Z</time>
      </trkpt>
      <trkpt lat="42.8401900" lon="1.6719280">
        <ele>850.4</ele>
        <time>2020-07-23T07:15:01Z</time>
      </trkpt>
      <trkpt lat="42.8402020" lon="1.6719000">
        <ele>850.6</ele>
        <time>2020-07-23T07:15:02Z</time>
      </trkpt>
      <trkpt lat="42.8402200" lon="1.6718320">
        <ele>851.2</ele>
        <time>2020-07-23T07:15:04Z</time>
      </trkpt>
      <trkpt lat="42.8402280" lon="1.6717930">
        <ele>851.4</ele>
        <time>2020-07-23T07:15:05Z</time>
      </trkpt>
      <trkpt lat="42.8402430" lon="1.6717010">
        <ele>851.6</ele>
        <time>2020-07-23T07:15:07Z</time>
      </trkpt>
      <trkpt lat="42.8402850" lon="1.6715120">
        <ele>852.2</ele>
        <time>2020-07-23T07:15:11Z</time>
      </trkpt>
      <trkpt lat="42.8403060" lon="1.6713360">
        <ele>852.4</ele>
        <time>2020-07-23T07:15:14Z</time>
      </trkpt>
      <trkpt lat="42.8403310" lon="1.6711970">
        <ele>852.2</ele>
        <time>2020-07-23T07:15:16Z</time>
      </trkpt>
      <trkpt lat="42.8403990" lon="1.6707660">
        <ele>851.8</ele>
        <time>2020-07-23T07:15:22Z</time>
      </trkpt>
      <trkpt lat="42.8404010" lon="1.6705990">
        <ele>851.6</ele>
        <time>2020-07-23T07:15:24Z</time>
      </trkpt>
      <trkpt lat="42.8404230" lon="1.6704430">
        <ele>851.4</ele>
        <time>2020-07-23T07:15:26Z</time>
      </trkpt>
      <trkpt lat="42.8404960" lon="1.6702980">
        <ele>850.6</ele>
        <time>2020-07-23T07:15:28Z</time>
      </trkpt>
      <trkpt lat="42.8405990" lon="1.6701510">
        <ele>849.0</ele>
        <time>2020-07-23T07:15:30Z</time>
      </trkpt>
      <trkpt lat="42.8407160" lon="1.6700170">
        <ele>847.6</ele>
        <time>2020-07-23T07:15:32Z</time>
      </trkpt>
      <trkpt lat="42.8407820" lon="1.6699480">
        <ele>847.0</ele>
        <time>2020-07-23T07:15:33Z</time>
      </trkpt>
      <trkpt lat="42.8408510" lon="1.6698810">
        <ele>846.4</ele>
        <time>2020-07-23T07:15:34Z</time>
      </trkpt>
      <trkpt lat="42.8410040" lon="1.6697660">
        <ele>844.2</ele>
        <time>2020-07-23T07:15:36Z</time>
      </trkpt>
      <trkpt lat="42.8410890" lon="1.6697180">
        <ele>843.0</ele>
        <time>2020-07-23T07:15:37Z</time>
      </trkpt>
      <trkpt lat="42.8411730" lon="1.6696610">
        <ele>842.2</ele>
        <time>2020-07-23T07:15:38Z</time>
      </trkpt>
      <trkpt lat="42.8412570" lon="1.6696020">
        <ele>841.6</ele>
        <time>2020-07-23T07:15:39Z</time>
      </trkpt>
      <trkpt lat="42.8414360" lon="1.6694870">
        <ele>840.0</ele>
        <time>2020-07-23T07:15:41Z</time>
      </trkpt>
      <trkpt lat="42.8415230" lon="1.6694180">
        <ele>838.8</ele>
        <time>2020-07-23T07:15:42Z</time>
      </trkpt>
      <trkpt lat="42.8416950" lon="1.6692830">
        <ele>837.2</ele>
        <time>2020-07-23T07:15:44Z</time>
      </trkpt>
      <trkpt lat="42.8418670" lon="1.6691490">
        <ele>836.0</ele>
        <time>2020-07-23T07:15:46Z</time>
      </trkpt>
      <trkpt lat="42.8420370" lon="1.6690280">
        <ele>834.4</ele>
        <time>2020-07-23T07:15:48Z</time>
      </trkpt>
      <trkpt lat="42.8421170" lon="1.6689750">
        <ele>833.2</ele>
        <time>2020-07-23T07:15:49Z</time>
      </trkpt>
      <trkpt lat="42.8421920" lon="1.6689300">
        <ele>832.2</ele>
        <time>2020-07-23T07:15:50Z</time>
      </trkpt>
      <trkpt lat="42.8422630" lon="1.6688790">
        <ele>831.2</ele>
        <time>2020-07-23T07:15:51Z</time>
      </trkpt>
      <trkpt lat="42.8423310" lon="1.6688180">
        <ele>830.4</ele>
        <time>2020-07-23T07:15:52Z</time>
      </trkpt>
      <trkpt lat="42.8424710" lon="1.6686590">
        <ele>829.4</ele>
        <time>2020-07-23T07:15:54Z</time>
      </trkpt>
      <trkpt lat="42.8426220" lon="1.6684800">
        <ele>827.8</ele>
        <time>2020-07-23T07:15:56Z</time>
      </trkpt>
      <trkpt lat="42.8427690" lon="1.6682860">
        <ele>825.8</ele>
        <time>2020-07-23T07:15:58Z</time>
      </trkpt>
      <trkpt lat="42.8428380" lon="1.6681970">
        <ele>824.8</ele>
        <time>2020-07-23T07:15:59Z</time>
      </trkpt>
      <trkpt lat="42.8429730" lon="1.6680410">
        <ele>823.2</ele>
        <time>2020-07-23T07:16:01Z</time>
      </trkpt>
      <trkpt lat="42.8431190" lon="1.6679190">
        <ele>821.6</ele>
        <time>2020-07-23T07:16:03Z</time>
      </trkpt>
      <trkpt lat="42.8431920" lon="1.6678530">
        <ele>820.6</ele>
        <time>2020-07-23T07:16:04Z</time>
      </trkpt>
      <trkpt lat="42.8433330" lon="1.6677100">
        <ele>818.8</ele>
        <time>2020-07-23T07:16:06Z</time>
      </trkpt>
      <trkpt lat="42.8434850" lon="1.6676040">
        <ele>817.2</ele>
        <time>2020-07-23T07:16:08Z</time>
      </trkpt>
      <trkpt lat="42.8436500" lon="1.6675280">
        <ele>815.4</ele>
        <time>2020-07-23T07:16:10Z</time>
      </trkpt>
      <trkpt lat="42.8438170" lon="1.6674460">
        <ele>813.4</ele>
        <time>2020-07-23T07:16:12Z</time>
      </trkpt>
      <trkpt lat="42.8439030" lon="1.6674030">
        <ele>812.2</ele>
        <time>2020-07-23T07:16:13Z</time>
      </trkpt>
      <trkpt lat="42.8439860" lon="1.6673540">
        <ele>811.0</ele>
        <time>2020-07-23T07:16:14Z</time>
      </trkpt>
      <trkpt lat="42.8441410" lon="1.6672450">
        <ele>809.6</ele>
        <time>2020-07-23T07:16:16Z</time>
      </trkpt>
      <trkpt lat="42.8442820" lon="1.6671240">
        <ele>808.0</ele>
        <time>2020-07-23T07:16:18Z</time>
      </trkpt>
      <trkpt lat="42.8443490" lon="1.6670650">
        <ele>807.2</ele>
        <time>2020-07-23T07:16:19Z</time>
      </trkpt>
      <trkpt lat="42.8444210" lon="1.6670110">
        <ele>806.4</ele>
        <time>2020-07-23T07:16:20Z</time>
      </trkpt>
      <trkpt lat="42.8445760" lon="1.6669230">
        <ele>804.6</ele>
        <time>2020-07-23T07:16:22Z</time>
      </trkpt>
      <trkpt lat="42.8446550" lon="1.6668710">
        <ele>803.6</ele>
        <time>2020-07-23T07:16:23Z</time>
      </trkpt>
      <trkpt lat="42.8447350" lon="1.6668170">
        <ele>802.6</ele>
        <time>2020-07-23T07:16:24Z</time>
      </trkpt>
      <trkpt lat="42.8448150" lon="1.6667640">
        <ele>801.6</ele>
        <time>2020-07-23T07:16:25Z</time>
      </trkpt>
      <trkpt lat="42.8449800" lon="1.6666570">
        <ele>799.6</ele>
        <time>2020-07-23T07:16:27Z</time>
      </trkpt>
      <trkpt lat="42.8451410" lon="1.6665250">
        <ele>797.6</ele>
        <time>2020-07-23T07:16:29Z</time>
      </trkpt>
      <trkpt lat="42.8452720" lon="1.6663790">
        <ele>796.2</ele>
        <time>2020-07-23T07:16:31Z</time>
      </trkpt>
      <trkpt lat="42.8453230" lon="1.6663060">
        <ele>795.0</ele>
        <time>2020-07-23T07:16:32Z</time>
      </trkpt>
      <trkpt lat="42.8453700" lon="1.6662410">
        <ele>794.0</ele>
        <time>2020-07-23T07:16:33Z</time>
      </trkpt>
      <trkpt lat="42.8454090" lon="1.6661780">
        <ele>793.4</ele>
        <time>2020-07-23T07:16:34Z</time>
      </trkpt>
      <trkpt lat="42.8454350" lon="1.6661180">
        <ele>792.6</ele>
        <time>2020-07-23T07:16:35Z</time>
      </trkpt>
      <trkpt lat="42.8454360" lon="1.6660550">
        <ele>791.8</ele>
        <time>2020-07-23T07:16:36Z</time>
      </trkpt>
      <trkpt lat="42.8453600" lon="1.6659720">
        <ele>790.8</ele>
        <time>2020-07-23T07:16:38Z</time>
      </trkpt>
      <trkpt lat="42.8453010" lon="1.6659660">
        <ele>790.4</ele>
        <time>2020-07-23T07:16:39Z</time>
      </trkpt>
      <trkpt lat="42.8452360" lon="1.6659750">
        <ele>789.8</ele>
        <time>2020-07-23T07:16:40Z</time>
      </trkpt>
      <trkpt lat="42.8451680" lon="1.6659940">
        <ele>789.2</ele>
        <time>2020-07-23T07:16:41Z</time>
      </trkpt>
      <trkpt lat="42.8450280" lon="1.6660720">
        <ele>787.8</ele>
        <time>2020-07-23T07:16:43Z</time>
      </trkpt>
      <trkpt lat="42.8449520" lon="1.6661020">
        <ele>787.0</ele>
        <time>2020-07-23T07:16:44Z</time>
      </trkpt>
      <trkpt lat="42.8448760" lon="1.6661170">
        <ele>786.2</ele>
        <time>2020-07-23T07:16:45Z</time>
      </trkpt>
      <trkpt lat="42.8448060" lon="1.6661070">
        <ele>785.6</ele>
        <time>2020-07-23T07:16:46Z</time>
      </trkpt>
      <trkpt lat="42.8447310" lon="1.6660800">
        <ele>784.6</ele>
        <time>2020-07-23T07:16:47Z</time>
      </trkpt>
      <trkpt lat="42.8446490" lon="1.6660460">
        <ele>783.6</ele>
        <time>2020-07-23T07:16:48Z</time>
      </trkpt>
      <trkpt lat="42.8445650" lon="1.6660220">
        <ele>782.6</ele>
        <time>2020-07-23T07:16:49Z</time>
      </trkpt>
      <trkpt lat="42.8443910" lon="1.6660240">
        <ele>780.8</ele>
        <time>2020-07-23T07:16:51Z</time>
      </trkpt>
      <trkpt lat="42.8443020" lon="1.6660600">
        <ele>779.6</ele>
        <time>2020-07-23T07:16:52Z</time>
      </trkpt>
      <trkpt lat="42.8442100" lon="1.6661030">
        <ele>778.4</ele>
        <time>2020-07-23T07:16:53Z</time>
      </trkpt>
      <trkpt lat="42.8441180" lon="1.6661480">
        <ele>777.4</ele>
        <time>2020-07-23T07:16:54Z</time>
      </trkpt>
      <trkpt lat="42.8439480" lon="1.6662360">
        <ele>775.6</ele>
        <time>2020-07-23T07:16:56Z</time>
      </trkpt>
      <trkpt lat="42.8437980" lon="1.6663120">
        <ele>773.6</ele>
        <time>2020-07-23T07:16:58Z</time>
      </trkpt>
      <trkpt lat="42.8437220" lon="1.6663480">
        <ele>772.8</ele>
        <time>2020-07-23T07:16:59Z</time>
      </trkpt>
      <trkpt lat="42.8436450" lon="1.6663780">
        <ele>772.0</ele>
        <time>2020-07-23T07:17:00Z</time>
      </trkpt>
      <trkpt lat="42.8435660" lon="1.6664020">
        <ele>770.8</ele>
        <time>2020-07-23T07:17:01Z</time>
      </trkpt>
      <trkpt lat="42.8434780" lon="1.6664330">
        <ele>769.8</ele>
        <time>2020-07-23T07:17:02Z</time>
      </trkpt>
      <trkpt lat="42.8433130" lon="1.6664320">
        <ele>768.0</ele>
        <time>2020-07-23T07:17:04Z</time>
      </trkpt>
      <trkpt lat="42.8431380" lon="1.6663940">
        <ele>766.8</ele>
        <time>2020-07-23T07:17:06Z</time>
      </trkpt>
      <trkpt lat="42.8429550" lon="1.6663390">
        <ele>765.2</ele>
        <time>2020-07-23T07:17:08Z</time>
      </trkpt>
      <trkpt lat="42.8428710" lon="1.6663090">
        <ele>764.0</ele>
        <time>2020-07-23T07:17:09Z</time>
      </trkpt>
      <trkpt lat="42.8427960" lon="1.6662780">
        <ele>763.0</ele>
        <time>2020-07-23T07:17:10Z</time>
      </trkpt>
      <trkpt lat="42.8427340" lon="1.6662410">
        <ele>762.4</ele>
        <time>2020-07-23T07:17:11Z</time>
      </trkpt>
      <trkpt lat="42.8426830" lon="1.6661900">
        <ele>762.0</ele>
        <time>2020-07-23T07:17:12Z</time>
      </trkpt>
      <trkpt lat="42.8426400" lon="1.6661350">
        <ele>761.6</ele>
        <time>2020-07-23T07:17:13Z</time>
      </trkpt>
      <trkpt lat="42.8425950" lon="1.6659940">
        <ele>761.0</ele>
        <time>2020-07-23T07:17:15Z</time>
      </trkpt>
      <trkpt lat="42.8425930" lon="1.6659250">
        <ele>760.6</ele>
        <time>2020-07-23T07:17:16Z</time>
      </trkpt>
      <trkpt lat="42.8426150" lon="1.6658540">
        <ele>759.8</ele>
        <time>2020-07-23T07:17:17Z</time>
      </trkpt>
      <trkpt lat="42.8426610" lon="1.6657820">
        <ele>759.2</ele>
        <time>2020-07-23T07:17:18Z</time>
      </trkpt>
      <trkpt lat="42.8427170" lon="1.6657090">
        <ele>758.6</ele>
        <time>2020-07-23T07:17:19Z</time>
      </trkpt>
      <trkpt lat="42.8427810" lon="1.6656320">
        <ele>757.8</ele>
        <time>2020-07-23T07:17:20Z</time>
      </trkpt>
      <trkpt lat="42.8428510" lon="1.6655620">
        <ele>756.8</ele>
        <time>2020-07-23T07:17:21Z</time>
      </trkpt>
      <trkpt lat="42.8429190" lon="1.6654960">
        <ele>755.4</ele>
        <time>2020-07-23T07:17:22Z</time>
      </trkpt>
      <trkpt lat="42.8429770" lon="1.6654250">
        <ele>754.2</ele>
        <time>2020-07-23T07:17:23Z</time>
      </trkpt>
      <trkpt lat="42.8430330" lon="1.6653540">
        <ele>753.2</ele>
        <time>2020-07-23T07:17:24Z</time>
      </trkpt>
      <trkpt lat="42.8431290" lon="1.6651870">
        <ele>751.8</ele>
        <time>2020-07-23T07:17:26Z</time>
      </trkpt>
      <trkpt lat="42.8431930" lon="1.6649800">
        <ele>750.2</ele>
        <time>2020-07-23T07:17:28Z</time>
      </trkpt>
      <trkpt lat="42.8432190" lon="1.6648720">
        <ele>749.4</ele>
        <time>2020-07-23T07:17:29Z</time>
      </trkpt>
      <trkpt lat="42.8432440" lon="1.6647680">
        <ele>748.8</ele>
        <time>2020-07-23T07:17:30Z</time>
      </trkpt>
      <trkpt lat="42.8433030" lon="1.6645520">
        <ele>747.8</ele>
        <time>2020-07-23T07:17:32Z</time>
      </trkpt>
      <trkpt lat="42.8433350" lon="1.6644420">
        <ele>746.8</ele>
        <time>2020-07-23T07:17:33Z</time>
      </trkpt>
      <trkpt lat="42.8433660" lon="1.6643320">
        <ele>745.6</ele>
        <time>2020-07-23T07:17:34Z</time>
      </trkpt>
      <trkpt lat="42.8433930" lon="1.6642220">
        <ele>744.4</ele>
        <time>2020-07-23T07:17:35Z</time>
      </trkpt>
      <trkpt lat="42.8434080" lon="1.6640980">
        <ele>743.4</ele>
        <time>2020-07-23T07:17:36Z</time>
      </trkpt>
      <trkpt lat="42.8434440" lon="1.6638850">
        <ele>741.6</ele>
        <time>2020-07-23T07:17:38Z</time>
      </trkpt>
      <trkpt lat="42.8435090" lon="1.6637170">
        <ele>740.2</ele>
        <time>2020-07-23T07:17:40Z</time>
      </trkpt>
      <trkpt lat="42.8436270" lon="1.6636070">
        <ele>739.2</ele>
        <time>2020-07-23T07:17:42Z</time>
      </trkpt>
      <trkpt lat="42.8436930" lon="1.6635530">
        <ele>738.6</ele>
        <time>2020-07-23T07:17:43Z</time>
      </trkpt>
      <trkpt lat="42.8437520" lon="1.6634920">
        <ele>737.8</ele>
        <time>2020-07-23T07:17:44Z</time>
      </trkpt>
      <trkpt lat="42.8438380" lon="1.6633520">
        <ele>736.2</ele>
        <time>2020-07-23T07:17:46Z</time>
      </trkpt>
      <trkpt lat="42.8438530" lon="1.6631640">
        <ele>735.0</ele>
        <time>2020-07-23T07:17:48Z</time>
      </trkpt>
      <trkpt lat="42.8438450" lon="1.6630650">
        <ele>734.2</ele>
        <time>2020-07-23T07:17:49Z</time>
      </trkpt>
      <trkpt lat="42.8438250" lon="1.6629580">
        <ele>733.4</ele>
        <time>2020-07-23T07:17:50Z</time>
      </trkpt>
      <trkpt lat="42.8438150" lon="1.6628640">
        <ele>732.2</ele>
        <time>2020-07-23T07:17:51Z</time>
      </trkpt>
      <trkpt lat="42.8438040" lon="1.6627760">
        <ele>731.2</ele>
        <time>2020-07-23T07:17:52Z</time>
      </trkpt>
      <trkpt lat="42.8437800" lon="1.6627090">
        <ele>730.2</ele>
        <time>2020-07-23T07:17:53Z</time>
      </trkpt>
      <trkpt lat="42.8437350" lon="1.6626620">
        <ele>729.4</ele>
        <time>2020-07-23T07:17:54Z</time>
      </trkpt>
      <trkpt lat="42.8436830" lon="1.6626460">
        <ele>728.8</ele>
        <time>2020-07-23T07:17:55Z</time>
      </trkpt>
      <trkpt lat="42.8436240" lon="1.6626560">
        <ele>728.2</ele>
        <time>2020-07-23T07:17:56Z</time>
      </trkpt>
      <trkpt lat="42.8435630" lon="1.6626800">
        <ele>727.8</ele>
        <time>2020-07-23T07:17:57Z</time>
      </trkpt>
      <trkpt lat="42.8435020" lon="1.6627050">
        <ele>727.4</ele>
        <time>2020-07-23T07:17:58Z</time>
      </trkpt>
      <trkpt lat="42.8434580" lon="1.6627230">
        <ele>727.0</ele>
        <time>2020-07-23T07:17:59Z</time>
      </trkpt>
      <trkpt lat="42.8433720" lon="1.6626640">
        <ele>726.6</ele>
        <time>2020-07-23T07:18:01Z</time>
      </trkpt>
      <trkpt lat="42.8433720" lon="1.6625530">
        <ele>726.0</ele>
        <time>2020-07-23T07:18:03Z</time>
      </trkpt>
      <trkpt lat="42.8434040" lon="1.6624970">
        <ele>725.8</ele>
        <time>2020-07-23T07:18:04Z</time>
      </trkpt>
      <trkpt lat="42.8434430" lon="1.6624430">
        <ele>725.6</ele>
        <time>2020-07-23T07:18:05Z</time>
      </trkpt>
      <trkpt lat="42.8434940" lon="1.6623880">
        <ele>725.2</ele>
        <time>2020-07-23T07:18:06Z</time>
      </trkpt>
      <trkpt lat="42.8435500" lon="1.6623300">
        <ele>724.6</ele>
        <time>2020-07-23T07:18:07Z</time>
      </trkpt>
      <trkpt lat="42.8436600" lon="1.6622050">
        <ele>723.4</ele>
        <time>2020-07-23T07:18:09Z</time>
      </trkpt>
      <trkpt lat="42.8437150" lon="1.6621320">
        <ele>722.8</ele>
        <time>2020-07-23T07:18:10Z</time>
      </trkpt>
      <trkpt lat="42.8437810" lon="1.6620590">
        <ele>722.2</ele>
        <time>2020-07-23T07:18:11Z</time>
      </trkpt>
      <trkpt lat="42.8439280" lon="1.6619050">
        <ele>720.2</ele>
        <time>2020-07-23T07:18:13Z</time>
      </trkpt>
      <trkpt lat="42.8439970" lon="1.6618260">
        <ele>719.2</ele>
        <time>2020-07-23T07:18:14Z</time>
      </trkpt>
      <trkpt lat="42.8440700" lon="1.6617550">
        <ele>718.2</ele>
        <time>2020-07-23T07:18:15Z</time>
      </trkpt>
      <trkpt lat="42.8441430" lon="1.6616900">
        <ele>717.4</ele>
        <time>2020-07-23T07:18:16Z</time>
      </trkpt>
      <trkpt lat="42.8442920" lon="1.6615730">
        <ele>715.8</ele>
        <time>2020-07-23T07:18:18Z</time>
      </trkpt>
      <trkpt lat="42.8443740" lon="1.6615260">
        <ele>714.8</ele>
        <time>2020-07-23T07:18:19Z</time>
      </trkpt>
      <trkpt lat="42.8444610" lon="1.6614990">
        <ele>713.8</ele>
        <time>2020-07-23T07:18:20Z</time>
      </trkpt>
      <trkpt lat="42.8446390" lon="1.6614650">
        <ele>712.6</ele>
        <time>2020-07-23T07:18:22Z</time>
      </trkpt>
      <trkpt lat="42.8448220" lon="1.6614430">
        <ele>711.2</ele>
        <time>2020-07-23T07:18:24Z</time>
      </trkpt>
      <trkpt lat="42.8450830" lon="1.6613880">
        <ele>709.6</ele>
        <time>2020-07-23T07:18:27Z</time>
      </trkpt>
      <trkpt lat="42.8451660" lon="1.6613600">
        <ele>709.0</ele>
        <time>2020-07-23T07:18:28Z</time>
      </trkpt>
      <trkpt lat="42.8452460" lon="1.6613300">
        <ele>708.4</ele>
        <time>2020-07-23T07:18:29Z</time>
      </trkpt>
      <trkpt lat="42.8453940" lon="1.6612560">
        <ele>706.8</ele>
        <time>2020-07-23T07:18:31Z</time>
      </trkpt>
      <trkpt lat="42.8454670" lon="1.6612080">
        <ele>706.2</ele>
        <time>2020-07-23T07:18:32Z</time>
      </trkpt>
      <trkpt lat="42.8455420" lon="1.6611650">
        <ele>705.4</ele>
        <time>2020-07-23T07:18:33Z</time>
      </trkpt>
      <trkpt lat="42.8456190" lon="1.6611280">
        <ele>704.8</ele>
        <time>2020-07-23T07:18:34Z</time>
      </trkpt>
      <trkpt lat="42.8457010" lon="1.6611040">
        <ele>704.2</ele>
        <time>2020-07-23T07:18:35Z</time>
      </trkpt>
      <trkpt lat="42.8457860" lon="1.6610850">
        <ele>703.6</ele>
        <time>2020-07-23T07:18:36Z</time>
      </trkpt>
      <trkpt lat="42.8458730" lon="1.6610650">
        <ele>703.0</ele>
        <time>2020-07-23T07:18:37Z</time>
      </trkpt>
      <trkpt lat="42.8459580" lon="1.6610440">
        <ele>702.4</ele>
        <time>2020-07-23T07:18:38Z</time>
      </trkpt>
      <trkpt lat="42.8460390" lon="1.6610140">
        <ele>701.6</ele>
        <time>2020-07-23T07:18:39Z</time>
      </trkpt>
      <trkpt lat="42.8462650" lon="1.6608950">
        <ele>700.6</ele>
        <time>2020-07-23T07:18:42Z</time>
      </trkpt>
      <trkpt lat="42.8463350" lon="1.6608370">
        <ele>700.4</ele>
        <time>2020-07-23T07:18:43Z</time>
      </trkpt>
      <trkpt lat="42.8466330" lon="1.6605470">
        <ele>699.2</ele>
        <time>2020-07-23T07:18:47Z</time>
      </trkpt>
      <trkpt lat="42.8467050" lon="1.6604660">
        <ele>698.4</ele>
        <time>2020-07-23T07:18:48Z</time>
      </trkpt>
      <trkpt lat="42.8467760" lon="1.6603910">
        <ele>697.6</ele>
        <time>2020-07-23T07:18:49Z</time>
      </trkpt>
      <trkpt lat="42.8469220" lon="1.6602500">
        <ele>696.4</ele>
        <time>2020-07-23T07:18:51Z</time>
      </trkpt>
      <trkpt lat="42.8471450" lon="1.6600570">
        <ele>695.2</ele>
        <time>2020-07-23T07:18:54Z</time>
      </trkpt>
      <trkpt lat="42.8472040" lon="1.6599830">
        <ele>694.6</ele>
        <time>2020-07-23T07:18:55Z</time>
      </trkpt>
      <trkpt lat="42.8473140" lon="1.6598490">
        <ele>693.8</ele>
        <time>2020-07-23T07:18:57Z</time>
      </trkpt>
      <trkpt lat="42.8473720" lon="1.6597950">
        <ele>693.4</ele>
        <time>2020-07-23T07:18:58Z</time>
      </trkpt>
      <trkpt lat="42.8474320" lon="1.6597530">
        <ele>693.2</ele>
        <time>2020-07-23T07:18:59Z</time>
      </trkpt>
      <trkpt lat="42.8475540" lon="1.6596870">
        <ele>692.4</ele>
        <time>2020-07-23T07:19:01Z</time>
      </trkpt>
      <trkpt lat="42.8476140" lon="1.6596380">
        <ele>692.0</ele>
        <time>2020-07-23T07:19:02Z</time>
      </trkpt>
      <trkpt lat="42.8476690" lon="1.6595670">
        <ele>691.4</ele>
        <time>2020-07-23T07:19:03Z</time>
      </trkpt>
      <trkpt lat="42.8477760" lon="1.6594080">
        <ele>690.0</ele>
        <time>2020-07-23T07:19:05Z</time>
      </trkpt>
      <trkpt lat="42.8478260" lon="1.6593290">
        <ele>689.2</ele>
        <time>2020-07-23T07:19:06Z</time>
      </trkpt>
      <trkpt lat="42.8478830" lon="1.6592630">
        <ele>688.4</ele>
        <time>2020-07-23T07:19:07Z</time>
      </trkpt>
      <trkpt lat="42.8480150" lon="1.6591690">
        <ele>686.6</ele>
        <time>2020-07-23T07:19:09Z</time>
      </trkpt>
      <trkpt lat="42.8481500" lon="1.6591010">
        <ele>685.4</ele>
        <time>2020-07-23T07:19:11Z</time>
      </trkpt>
      <trkpt lat="42.8482120" lon="1.6590490">
        <ele>685.0</ele>
        <time>2020-07-23T07:19:12Z</time>
      </trkpt>
      <trkpt lat="42.8482680" lon="1.6589890">
        <ele>684.4</ele>
        <time>2020-07-23T07:19:13Z</time>
      </trkpt>
      <trkpt lat="42.8483170" lon="1.6589260">
        <ele>683.8</ele>
        <time>2020-07-23T07:19:14Z</time>
      </trkpt>
      <trkpt lat="42.8483500" lon="1.6588490">
        <ele>683.4</ele>
        <time>2020-07-23T07:19:15Z</time>
      </trkpt>
      <trkpt lat="42.8483850" lon="1.6587720">
        <ele>682.8</ele>
        <time>2020-07-23T07:19:16Z</time>
      </trkpt>
      <trkpt lat="42.8484210" lon="1.6586940">
        <ele>682.2</ele>
        <time>2020-07-23T07:19:17Z</time>
      </trkpt>
      <trkpt lat="42.8484840" lon="1.6585320">
        <ele>681.6</ele>
        <time>2020-07-23T07:19:19Z</time>
      </trkpt>
      <trkpt lat="42.8485400" lon="1.6583550">
        <ele>680.8</ele>
        <time>2020-07-23T07:19:21Z</time>
      </trkpt>
      <trkpt lat="42.8485740" lon="1.6582710">
        <ele>680.0</ele>
        <time>2020-07-23T07:19:22Z</time>
      </trkpt>
      <trkpt lat="42.8486140" lon="1.6581920">
        <ele>679.0</ele>
        <time>2020-07-23T07:19:23Z</time>
      </trkpt>
      <trkpt lat="42.8486620" lon="1.6581090">
        <ele>678.2</ele>
        <time>2020-07-23T07:19:24Z</time>
      </trkpt>
      <trkpt lat="42.8487880" lon="1.6579280">
        <ele>677.0</ele>
        <time>2020-07-23T07:19:26Z</time>
      </trkpt>
      <trkpt lat="42.8488540" lon="1.6578340">
        <ele>676.2</ele>
        <time>2020-07-23T07:19:27Z</time>
      </trkpt>
      <trkpt lat="42.8489240" lon="1.6577380">
        <ele>675.4</ele>
        <time>2020-07-23T07:19:28Z</time>
      </trkpt>
      <trkpt lat="42.8489840" lon="1.6576400">
        <ele>674.2</ele>
        <time>2020-07-23T07:19:29Z</time>
      </trkpt>
      <trkpt lat="42.8491010" lon="1.6574570">
        <ele>672.6</ele>
        <time>2020-07-23T07:19:31Z</time>
      </trkpt>
      <trkpt lat="42.8491560" lon="1.6573730">
        <ele>672.0</ele>
        <time>2020-07-23T07:19:32Z</time>
      </trkpt>
      <trkpt lat="42.8492040" lon="1.6572930">
        <ele>671.4</ele>
        <time>2020-07-23T07:19:33Z</time>
      </trkpt>
      <trkpt lat="42.8492420" lon="1.6572100">
        <ele>670.8</ele>
        <time>2020-07-23T07:19:34Z</time>
      </trkpt>
      <trkpt lat="42.8492600" lon="1.6570140">
        <ele>670.0</ele>
        <time>2020-07-23T07:19:36Z</time>
      </trkpt>
      <trkpt lat="42.8492110" lon="1.6567790">
        <ele>668.8</ele>
        <time>2020-07-23T07:19:38Z</time>
      </trkpt>
      <trkpt lat="42.8491910" lon="1.6566520">
        <ele>668.0</ele>
        <time>2020-07-23T07:19:39Z</time>
      </trkpt>
      <trkpt lat="42.8491790" lon="1.6565280">
        <ele>667.2</ele>
        <time>2020-07-23T07:19:40Z</time>
      </trkpt>
      <trkpt lat="42.8491790" lon="1.6562830">
        <ele>666.0</ele>
        <time>2020-07-23T07:19:42Z</time>
      </trkpt>
      <trkpt lat="42.8492000" lon="1.6561810">
        <ele>665.4</ele>
        <time>2020-07-23T07:19:43Z</time>
      </trkpt>
      <trkpt lat="42.8492290" lon="1.6560810">
        <ele>664.6</ele>
        <time>2020-07-23T07:19:44Z</time>
      </trkpt>
      <trkpt lat="42.8492760" lon="1.6559860">
        <ele>664.0</ele>
        <time>2020-07-23T07:19:45Z</time>
      </trkpt>
      <trkpt lat="42.8493250" lon="1.6559000">
        <ele>663.4</ele>
        <time>2020-07-23T07:19:46Z</time>
      </trkpt>
      <trkpt lat="42.8493810" lon="1.6558190">
        <ele>662.8</ele>
        <time>2020-07-23T07:19:47Z</time>
      </trkpt>
      <trkpt lat="42.8494930" lon="1.6556630">
        <ele>662.0</ele>
        <time>2020-07-23T07:19:49Z</time>
      </trkpt>
      <trkpt lat="42.8496060" lon="1.6555150">
        <ele>660.8</ele>
        <time>2020-07-23T07:19:51Z</time>
      </trkpt>
      <trkpt lat="42.8497150" lon="1.6553500">
        <ele>659.4</ele>
        <time>2020-07-23T07:19:53Z</time>
      </trkpt>
      <trkpt lat="42.8497620" lon="1.6552680">
        <ele>658.4</ele>
        <time>2020-07-23T07:19:54Z</time>
      </trkpt>
      <trkpt lat="42.8498160" lon="1.6550840">
        <ele>656.8</ele>
        <time>2020-07-23T07:19:56Z</time>
      </trkpt>
      <trkpt lat="42.8498230" lon="1.6548620">
        <ele>655.4</ele>
        <time>2020-07-23T07:19:58Z</time>
      </trkpt>
      <trkpt lat="42.8498030" lon="1.6547410">
        <ele>654.8</ele>
        <time>2020-07-23T07:19:59Z</time>
      </trkpt>
      <trkpt lat="42.8497790" lon="1.6546250">
        <ele>654.2</ele>
        <time>2020-07-23T07:20:00Z</time>
      </trkpt>
      <trkpt lat="42.8497120" lon="1.6544020">
        <ele>652.8</ele>
        <time>2020-07-23T07:20:02Z</time>
      </trkpt>
      <trkpt lat="42.8496760" lon="1.6542890">
        <ele>652.2</ele>
        <time>2020-07-23T07:20:03Z</time>
      </trkpt>
      <trkpt lat="42.8496300" lon="1.6541830">
        <ele>651.4</ele>
        <time>2020-07-23T07:20:04Z</time>
      </trkpt>
      <trkpt lat="42.8495840" lon="1.6540710">
        <ele>650.6</ele>
        <time>2020-07-23T07:20:05Z</time>
      </trkpt>
      <trkpt lat="42.8495340" lon="1.6539710">
        <ele>649.8</ele>
        <time>2020-07-23T07:20:06Z</time>
      </trkpt>
      <trkpt lat="42.8494240" lon="1.6537650">
        <ele>647.8</ele>
        <time>2020-07-23T07:20:08Z</time>
      </trkpt>
      <trkpt lat="42.8493110" lon="1.6535550">
        <ele>646.2</ele>
        <time>2020-07-23T07:20:10Z</time>
      </trkpt>
      <trkpt lat="42.8492000" lon="1.6533230">
        <ele>644.6</ele>
        <time>2020-07-23T07:20:12Z</time>
      </trkpt>
      <trkpt lat="42.8490900" lon="1.6530960">
        <ele>643.2</ele>
        <time>2020-07-23T07:20:14Z</time>
      </trkpt>
      <trkpt lat="42.8489760" lon="1.6528770">
        <ele>641.4</ele>
        <time>2020-07-23T07:20:16Z</time>
      </trkpt>
      <trkpt lat="42.8488510" lon="1.6526790">
        <ele>640.0</ele>
        <time>2020-07-23T07:20:18Z</time>
      </trkpt>
      <trkpt lat="42.8487770" lon="1.6525910">
        <ele>639.4</ele>
        <time>2020-07-23T07:20:19Z</time>
      </trkpt>
      <trkpt lat="42.8486950" lon="1.6525100">
        <ele>638.8</ele>
        <time>2020-07-23T07:20:20Z</time>
      </trkpt>
      <trkpt lat="42.8485120" lon="1.6523600">
        <ele>637.4</ele>
        <time>2020-07-23T07:20:22Z</time>
      </trkpt>
      <trkpt lat="42.8484160" lon="1.6522790">
        <ele>636.2</ele>
        <time>2020-07-23T07:20:23Z</time>
      </trkpt>
      <trkpt lat="42.8483170" lon="1.6521950">
        <ele>635.2</ele>
        <time>2020-07-23T07:20:24Z</time>
      </trkpt>
      <trkpt lat="42.8482220" lon="1.6521080">
        <ele>634.0</ele>
        <time>2020-07-23T07:20:25Z</time>
      </trkpt>
      <trkpt lat="42.8480390" lon="1.6519360">
        <ele>632.4</ele>
        <time>2020-07-23T07:20:27Z</time>
      </trkpt>
      <trkpt lat="42.8479570" lon="1.6518480">
        <ele>631.4</ele>
        <time>2020-07-23T07:20:28Z</time>
      </trkpt>
      <trkpt lat="42.8478750" lon="1.6517670">
        <ele>630.4</ele>
        <time>2020-07-23T07:20:29Z</time>
      </trkpt>
      <trkpt lat="42.8477910" lon="1.6516880">
        <ele>629.8</ele>
        <time>2020-07-23T07:20:30Z</time>
      </trkpt>
      <trkpt lat="42.8476020" lon="1.6515440">
        <ele>628.0</ele>
        <time>2020-07-23T07:20:32Z</time>
      </trkpt>
      <trkpt lat="42.8474030" lon="1.6514020">
        <ele>626.6</ele>
        <time>2020-07-23T07:20:34Z</time>
      </trkpt>
      <trkpt lat="42.8471920" lon="1.6512820">
        <ele>624.8</ele>
        <time>2020-07-23T07:20:36Z</time>
      </trkpt>
      <trkpt lat="42.8470920" lon="1.6512330">
        <ele>623.6</ele>
        <time>2020-07-23T07:20:37Z</time>
      </trkpt>
      <trkpt lat="42.8469950" lon="1.6511920">
        <ele>622.4</ele>
        <time>2020-07-23T07:20:38Z</time>
      </trkpt>
      <trkpt lat="42.8468980" lon="1.6511560">
        <ele>621.6</ele>
        <time>2020-07-23T07:20:39Z</time>
      </trkpt>
      <trkpt lat="42.8468010" lon="1.6511230">
        <ele>621.0</ele>
        <time>2020-07-23T07:20:40Z</time>
      </trkpt>
      <trkpt lat="42.8466270" lon="1.6510630">
        <ele>619.8</ele>
        <time>2020-07-23T07:20:42Z</time>
      </trkpt>
      <trkpt lat="42.8464990" lon="1.6509600">
        <ele>618.4</ele>
        <time>2020-07-23T07:20:44Z</time>
      </trkpt>
      <trkpt lat="42.8464410" lon="1.6508000">
        <ele>617.0</ele>
        <time>2020-07-23T07:20:46Z</time>
      </trkpt>
      <trkpt lat="42.8464270" lon="1.6506320">
        <ele>616.0</ele>
        <time>2020-07-23T07:20:48Z</time>
      </trkpt>
      <trkpt lat="42.8464440" lon="1.6505700">
        <ele>615.4</ele>
        <time>2020-07-23T07:20:49Z</time>
      </trkpt>
      <trkpt lat="42.8464810" lon="1.6504990">
        <ele>614.8</ele>
        <time>2020-07-23T07:20:50Z</time>
      </trkpt>
      <trkpt lat="42.8465280" lon="1.6504380">
        <ele>614.2</ele>
        <time>2020-07-23T07:20:51Z</time>
      </trkpt>
      <trkpt lat="42.8465910" lon="1.6503830">
        <ele>613.6</ele>
        <time>2020-07-23T07:20:52Z</time>
      </trkpt>
      <trkpt lat="42.8466570" lon="1.6503350">
        <ele>613.0</ele>
        <time>2020-07-23T07:20:53Z</time>
      </trkpt>
      <trkpt lat="42.8467290" lon="1.6502850">
        <ele>612.0</ele>
        <time>2020-07-23T07:20:54Z</time>
      </trkpt>
      <trkpt lat="42.8468040" lon="1.6502330">
        <ele>610.8</ele>
        <time>2020-07-23T07:20:55Z</time>
      </trkpt>
      <trkpt lat="42.8468840" lon="1.6501840">
        <ele>609.6</ele>
        <time>2020-07-23T07:20:56Z</time>
      </trkpt>
      <trkpt lat="42.8469620" lon="1.6501350">
        <ele>608.4</ele>
        <time>2020-07-23T07:20:57Z</time>
      </trkpt>
      <trkpt lat="42.8470460" lon="1.6500820">
        <ele>607.4</ele>
        <time>2020-07-23T07:20:58Z</time>
      </trkpt>
      <trkpt lat="42.8471390" lon="1.6500240">
        <ele>606.4</ele>
        <time>2020-07-23T07:20:59Z</time>
      </trkpt>
      <trkpt lat="42.8472300" lon="1.6499690">
        <ele>605.2</ele>
        <time>2020-07-23T07:21:00Z</time>
      </trkpt>
      <trkpt lat="42.8473220" lon="1.6499120">
        <ele>604.0</ele>
        <time>2020-07-23T07:21:01Z</time>
      </trkpt>
      <trkpt lat="42.8474170" lon="1.6498550">
        <ele>603.0</ele>
        <time>2020-07-23T07:21:02Z</time>
      </trkpt>
      <trkpt lat="42.8475150" lon="1.6497950">
        <ele>602.0</ele>
        <time>2020-07-23T07:21:03Z</time>
      </trkpt>
      <trkpt lat="42.8477140" lon="1.6496730">
        <ele>600.2</ele>
        <time>2020-07-23T07:21:05Z</time>
      </trkpt>
      <trkpt lat="42.8478120" lon="1.6496110">
        <ele>599.2</ele>
        <time>2020-07-23T07:21:06Z</time>
      </trkpt>
      <trkpt lat="42.8479100" lon="1.6495570">
        <ele>598.4</ele>
        <time>2020-07-23T07:21:07Z</time>
      </trkpt>
      <trkpt lat="42.8481000" lon="1.6494450">
        <ele>596.8</ele>
        <time>2020-07-23T07:21:09Z</time>
      </trkpt>
      <trkpt lat="42.8481930" lon="1.6493870">
        <ele>595.8</ele>
        <time>2020-07-23T07:21:10Z</time>
      </trkpt>
      <trkpt lat="42.8483770" lon="1.6492710">
        <ele>594.2</ele>
        <time>2020-07-23T07:21:12Z</time>
      </trkpt>
      <trkpt lat="42.8485580" lon="1.6491540">
        <ele>592.6</ele>
        <time>2020-07-23T07:21:14Z</time>
      </trkpt>
      <trkpt lat="42.8487320" lon="1.6490340">
        <ele>591.2</ele>
        <time>2020-07-23T07:21:16Z</time>
      </trkpt>
      <trkpt lat="42.8489080" lon="1.6489190">
        <ele>589.6</ele>
        <time>2020-07-23T07:21:18Z</time>
      </trkpt>
      <trkpt lat="42.8489980" lon="1.6488640">
        <ele>588.6</ele>
        <time>2020-07-23T07:21:19Z</time>
      </trkpt>
      <trkpt lat="42.8491860" lon="1.6487620">
        <ele>586.6</ele>
        <time>2020-07-23T07:21:21Z</time>
      </trkpt>
      <trkpt lat="42.8492840" lon="1.6487150">
        <ele>585.4</ele>
        <time>2020-07-23T07:21:22Z</time>
      </trkpt>
      <trkpt lat="42.8493850" lon="1.6486750">
        <ele>584.2</ele>
        <time>2020-07-23T07:21:23Z</time>
      </trkpt>
      <trkpt lat="42.8494920" lon="1.6486410">
        <ele>583.2</ele>
        <time>2020-07-23T07:21:24Z</time>
      </trkpt>
      <trkpt lat="42.8496020" lon="1.6486090">
        <ele>582.6</ele>
        <time>2020-07-23T07:21:25Z</time>
      </trkpt>
      <trkpt lat="42.8498320" lon="1.6485460">
        <ele>581.4</ele>
        <time>2020-07-23T07:21:27Z</time>
      </trkpt>
      <trkpt lat="42.8499470" lon="1.6485140">
        <ele>580.2</ele>
        <time>2020-07-23T07:21:28Z</time>
      </trkpt>
      <trkpt lat="42.8500600" lon="1.6484840">
        <ele>578.8</ele>
        <time>2020-07-23T07:21:29Z</time>
      </trkpt>
      <trkpt lat="42.8502880" lon="1.6484240">
        <ele>577.0</ele>
        <time>2020-07-23T07:21:31Z</time>
      </trkpt>
      <trkpt lat="42.8504040" lon="1.6483950">
        <ele>576.2</ele>
        <time>2020-07-23T07:21:32Z</time>
      </trkpt>
      <trkpt lat="42.8505210" lon="1.6483620">
        <ele>575.2</ele>
        <time>2020-07-23T07:21:33Z</time>
      </trkpt>
      <trkpt lat="42.8507470" lon="1.6482960">
        <ele>573.4</ele>
        <time>2020-07-23T07:21:35Z</time>
      </trkpt>
      <trkpt lat="42.8509660" lon="1.6482370">
        <ele>572.0</ele>
        <time>2020-07-23T07:21:37Z</time>
      </trkpt>
      <trkpt lat="42.8510730" lon="1.6482120">
        <ele>571.4</ele>
        <time>2020-07-23T07:21:38Z</time>
      </trkpt>
      <trkpt lat="42.8511760" lon="1.6481830">
        <ele>570.6</ele>
        <time>2020-07-23T07:21:39Z</time>
      </trkpt>
      <trkpt lat="42.8513670" lon="1.6481240">
        <ele>568.6</ele>
        <time>2020-07-23T07:21:41Z</time>
      </trkpt>
      <trkpt lat="42.8514570" lon="1.6480980">
        <ele>567.8</ele>
        <time>2020-07-23T07:21:42Z</time>
      </trkpt>
      <trkpt lat="42.8515400" lon="1.6480740">
        <ele>567.0</ele>
        <time>2020-07-23T07:21:43Z</time>
      </trkpt>
      <trkpt lat="42.8516930" lon="1.6480470">
        <ele>565.6</ele>
        <time>2020-07-23T07:21:45Z</time>
      </trkpt>
      <trkpt lat="42.8517660" lon="1.6480410">
        <ele>565.2</ele>
        <time>2020-07-23T07:21:46Z</time>
      </trkpt>
      <trkpt lat="42.8519030" lon="1.6480130">
        <ele>564.6</ele>
        <time>2020-07-23T07:21:48Z</time>
      </trkpt>
      <trkpt lat="42.8519680" lon="1.6479850">
        <ele>564.4</ele>
        <time>2020-07-23T07:21:49Z</time>
      </trkpt>
      <trkpt lat="42.8520330" lon="1.6479540">
        <ele>564.0</ele>
        <time>2020-07-23T07:21:50Z</time>
      </trkpt>
      <trkpt lat="42.8523100" lon="1.6478760">
        <ele>563.0</ele>
        <time>2020-07-23T07:21:54Z</time>
      </trkpt>
      <trkpt lat="42.8523730" lon="1.6478640">
        <ele>562.8</ele>
        <time>2020-07-23T07:21:55Z</time>
      </trkpt>
      <trkpt lat="42.8524300" lon="1.6478600">
        <ele>562.8</ele>
        <time>2020-07-23T07:21:56Z</time>
      </trkpt>
      <trkpt lat="42.8524790" lon="1.6478590">
        <ele>562.4</ele>
        <time>2020-07-23T07:21:57Z</time>
      </trkpt>
      <trkpt lat="42.8526750" lon="1.6478570">
        <ele>561.4</ele>
        <time>2020-07-23T07:25:41Z</time>
      </trkpt>
      <trkpt lat="42.8527040" lon="1.6478550">
        <ele>561.4</ele>
        <time>2020-07-23T07:25:42Z</time>
      </trkpt>
      <trkpt lat="42.8527750" lon="1.6478410">
        <ele>561.4</ele>
        <time>2020-07-23T07:25:44Z</time>
      </trkpt>
      <trkpt lat="42.8528200" lon="1.6478380">
        <ele>561.4</ele>
        <time>2020-07-23T07:25:45Z</time>
      </trkpt>
      <trkpt lat="42.8530970" lon="1.6478170">
        <ele>561.6</ele>
        <time>2020-07-23T07:25:51Z</time>
      </trkpt>
      <trkpt lat="42.8531830" lon="1.6478110">
        <ele>562.0</ele>
        <time>2020-07-23T07:25:53Z</time>
      </trkpt>
      <trkpt lat="42.8532250" lon="1.6478090">
        <ele>562.2</ele>
        <time>2020-07-23T07:25:54Z</time>
      </trkpt>
      <trkpt lat="42.8533090" lon="1.6478130">
        <ele>562.4</ele>
        <time>2020-07-23T07:25:56Z</time>
      </trkpt>
      <trkpt lat="42.8534260" lon="1.6478000">
        <ele>563.6</ele>
        <time>2020-07-23T07:25:59Z</time>
      </trkpt>
      <trkpt lat="42.8534580" lon="1.6477880">
        <ele>564.0</ele>
        <time>2020-07-23T07:26:00Z</time>
      </trkpt>
      <trkpt lat="42.8535190" lon="1.6477520">
        <ele>564.6</ele>
        <time>2020-07-23T07:26:02Z</time>
      </trkpt>
      <trkpt lat="42.8536220" lon="1.6476770">
        <ele>564.6</ele>
        <time>2020-07-23T07:26:05Z</time>
      </trkpt>
      <trkpt lat="42.8536560" lon="1.6476410">
        <ele>564.4</ele>
        <time>2020-07-23T07:26:06Z</time>
      </trkpt>
      <trkpt lat="42.8536850" lon="1.6475930">
        <ele>564.4</ele>
        <time>2020-07-23T07:26:07Z</time>
      </trkpt>
      <trkpt lat="42.8537120" lon="1.6474300">
        <ele>563.6</ele>
        <time>2020-07-23T07:26:09Z</time>
      </trkpt>
      <trkpt lat="42.8537290" lon="1.6473410">
        <ele>563.4</ele>
        <time>2020-07-23T07:26:10Z</time>
      </trkpt>
      <trkpt lat="42.8537560" lon="1.6471550">
        <ele>563.0</ele>
        <time>2020-07-23T07:26:12Z</time>
      </trkpt>
      <trkpt lat="42.8537650" lon="1.6470580">
        <ele>562.8</ele>
        <time>2020-07-23T07:26:13Z</time>
      </trkpt>
      <trkpt lat="42.8537700" lon="1.6469580">
        <ele>562.2</ele>
        <time>2020-07-23T07:26:14Z</time>
      </trkpt>
      <trkpt lat="42.8537880" lon="1.6466380">
        <ele>560.8</ele>
        <time>2020-07-23T07:26:17Z</time>
      </trkpt>
      <trkpt lat="42.8538050" lon="1.6463110">
        <ele>559.8</ele>
        <time>2020-07-23T07:26:20Z</time>
      </trkpt>
      <trkpt lat="42.8538050" lon="1.6461140">
        <ele>559.0</ele>
        <time>2020-07-23T07:26:22Z</time>
      </trkpt>
      <trkpt lat="42.8537970" lon="1.6460260">
        <ele>558.6</ele>
        <time>2020-07-23T07:26:23Z</time>
      </trkpt>
      <trkpt lat="42.8537850" lon="1.6458510">
        <ele>558.2</ele>
        <time>2020-07-23T07:26:25Z</time>
      </trkpt>
      <trkpt lat="42.8537860" lon="1.6457620">
        <ele>558.2</ele>
        <time>2020-07-23T07:26:26Z</time>
      </trkpt>
      <trkpt lat="42.8538170" lon="1.6455940">
        <ele>557.8</ele>
        <time>2020-07-23T07:26:28Z</time>
      </trkpt>
      <trkpt lat="42.8538430" lon="1.6455050">
        <ele>557.4</ele>
        <time>2020-07-23T07:26:29Z</time>
      </trkpt>
      <trkpt lat="42.8539170" lon="1.6452200">
        <ele>556.4</ele>
        <time>2020-07-23T07:26:32Z</time>
      </trkpt>
      <trkpt lat="42.8540050" lon="1.6448930">
        <ele>555.0</ele>
        <time>2020-07-23T07:26:35Z</time>
      </trkpt>
      <trkpt lat="42.8540970" lon="1.6446820">
        <ele>554.0</ele>
        <time>2020-07-23T07:26:37Z</time>
      </trkpt>
      <trkpt lat="42.8541960" lon="1.6444740">
        <ele>553.0</ele>
        <time>2020-07-23T07:26:39Z</time>
      </trkpt>
      <trkpt lat="42.8542370" lon="1.6443580">
        <ele>552.6</ele>
        <time>2020-07-23T07:26:40Z</time>
      </trkpt>
      <trkpt lat="42.8543030" lon="1.6441110">
        <ele>552.0</ele>
        <time>2020-07-23T07:26:42Z</time>
      </trkpt>
      <trkpt lat="42.8544300" lon="1.6437600">
        <ele>550.2</ele>
        <time>2020-07-23T07:26:45Z</time>
      </trkpt>
      <trkpt lat="42.8546030" lon="1.6434420">
        <ele>549.0</ele>
        <time>2020-07-23T07:26:48Z</time>
      </trkpt>
      <trkpt lat="42.8547220" lon="1.6432350">
        <ele>547.6</ele>
        <time>2020-07-23T07:26:50Z</time>
      </trkpt>
      <trkpt lat="42.8548280" lon="1.6430080">
        <ele>546.4</ele>
        <time>2020-07-23T07:26:52Z</time>
      </trkpt>
      <trkpt lat="42.8549070" lon="1.6427660">
        <ele>545.8</ele>
        <time>2020-07-23T07:26:54Z</time>
      </trkpt>
      <trkpt lat="42.8549300" lon="1.6426460">
        <ele>545.6</ele>
        <time>2020-07-23T07:26:55Z</time>
      </trkpt>
      <trkpt lat="42.8549230" lon="1.6424970">
        <ele>545.4</ele>
        <time>2020-07-23T07:26:56Z</time>
      </trkpt>
      <trkpt lat="42.8549090" lon="1.6422000">
        <ele>544.6</ele>
        <time>2020-07-23T07:26:58Z</time>
      </trkpt>
      <trkpt lat="42.8549100" lon="1.6420510">
        <ele>544.2</ele>
        <time>2020-07-23T07:26:59Z</time>
      </trkpt>
      <trkpt lat="42.8549210" lon="1.6419050">
        <ele>543.6</ele>
        <time>2020-07-23T07:27:00Z</time>
      </trkpt>
      <trkpt lat="42.8549430" lon="1.6417620">
        <ele>542.8</ele>
        <time>2020-07-23T07:27:01Z</time>
      </trkpt>
      <trkpt lat="42.8549790" lon="1.6416300">
        <ele>542.0</ele>
        <time>2020-07-23T07:27:02Z</time>
      </trkpt>
      <trkpt lat="42.8550280" lon="1.6415090">
        <ele>541.6</ele>
        <time>2020-07-23T07:27:03Z</time>
      </trkpt>
      <trkpt lat="42.8550860" lon="1.6413950">
        <ele>541.4</ele>
        <time>2020-07-23T07:27:04Z</time>
      </trkpt>
      <trkpt lat="42.8551530" lon="1.6412960">
        <ele>541.4</ele>
        <time>2020-07-23T07:27:05Z</time>
      </trkpt>
      <trkpt lat="42.8554680" lon="1.6407810">
        <ele>540.6</ele>
        <time>2020-07-23T07:27:10Z</time>
      </trkpt>
      <trkpt lat="42.8555750" lon="1.6405590">
        <ele>539.4</ele>
        <time>2020-07-23T07:27:12Z</time>
      </trkpt>
      <trkpt lat="42.8557460" lon="1.6402400">
        <ele>538.4</ele>
        <time>2020-07-23T07:27:15Z</time>
      </trkpt>
      <trkpt lat="42.8558160" lon="1.6401510">
        <ele>538.0</ele>
        <time>2020-07-23T07:27:16Z</time>
      </trkpt>
      <trkpt lat="42.8559000" lon="1.6400850">
        <ele>537.8</ele>
        <time>2020-07-23T07:27:17Z</time>
      </trkpt>
      <trkpt lat="42.8559870" lon="1.6400280">
        <ele>537.8</ele>
        <time>2020-07-23T07:27:18Z</time>
      </trkpt>
      <trkpt lat="42.8562430" lon="1.6398730">
        <ele>537.8</ele>
        <time>2020-07-23T07:27:21Z</time>
      </trkpt>
      <trkpt lat="42.8564130" lon="1.6397740">
        <ele>537.0</ele>
        <time>2020-07-23T07:27:23Z</time>
      </trkpt>
      <trkpt lat="42.8565760" lon="1.6396700">
        <ele>536.0</ele>
        <time>2020-07-23T07:27:25Z</time>
      </trkpt>
      <trkpt lat="42.8566490" lon="1.6396040">
        <ele>535.6</ele>
        <time>2020-07-23T07:27:26Z</time>
      </trkpt>
      <trkpt lat="42.8567160" lon="1.6395250">
        <ele>535.2</ele>
        <time>2020-07-23T07:27:27Z</time>
      </trkpt>
      <trkpt lat="42.8567730" lon="1.6394360">
        <ele>535.0</ele>
        <time>2020-07-23T07:27:28Z</time>
      </trkpt>
      <trkpt lat="42.8568540" lon="1.6392280">
        <ele>534.6</ele>
        <time>2020-07-23T07:27:30Z</time>
      </trkpt>
      <trkpt lat="42.8570180" lon="1.6386500">
        <ele>533.4</ele>
        <time>2020-07-23T07:27:35Z</time>
      </trkpt>
      <trkpt lat="42.8570600" lon="1.6385450">
        <ele>533.2</ele>
        <time>2020-07-23T07:27:36Z</time>
      </trkpt>
      <trkpt lat="42.8572730" lon="1.6381710">
        <ele>532.4</ele>
        <time>2020-07-23T07:27:40Z</time>
      </trkpt>
      <trkpt lat="42.8573280" lon="1.6380850">
        <ele>532.2</ele>
        <time>2020-07-23T07:27:41Z</time>
      </trkpt>
      <trkpt lat="42.8575420" lon="1.6375760">
        <ele>531.4</ele>
        <time>2020-07-23T07:27:46Z</time>
      </trkpt>
      <trkpt lat="42.8575760" lon="1.6374640">
        <ele>531.0</ele>
        <time>2020-07-23T07:27:47Z</time>
      </trkpt>
      <trkpt lat="42.8577340" lon="1.6368930">
        <ele>529.8</ele>
        <time>2020-07-23T07:27:52Z</time>
      </trkpt>
      <trkpt lat="42.8578020" lon="1.6366710">
        <ele>529.4</ele>
        <time>2020-07-23T07:27:54Z</time>
      </trkpt>
      <trkpt lat="42.8579060" lon="1.6363610">
        <ele>528.6</ele>
        <time>2020-07-23T07:27:57Z</time>
      </trkpt>
      <trkpt lat="42.8580000" lon="1.6360300">
        <ele>527.8</ele>
        <time>2020-07-23T07:28:00Z</time>
      </trkpt>
      <trkpt lat="42.8580310" lon="1.6359250">
        <ele>527.6</ele>
        <time>2020-07-23T07:28:01Z</time>
      </trkpt>
      <trkpt lat="42.8580690" lon="1.6358230">
        <ele>527.6</ele>
        <time>2020-07-23T07:28:02Z</time>
      </trkpt>
      <trkpt lat="42.8581610" lon="1.6356290">
        <ele>527.2</ele>
        <time>2020-07-23T07:28:04Z</time>
      </trkpt>
      <trkpt lat="42.8582230" lon="1.6355480">
        <ele>526.8</ele>
        <time>2020-07-23T07:28:05Z</time>
      </trkpt>
      <trkpt lat="42.8582800" lon="1.6354610">
        <ele>526.4</ele>
        <time>2020-07-23T07:28:06Z</time>
      </trkpt>
      <trkpt lat="42.8584280" lon="1.6351770">
        <ele>525.4</ele>
        <time>2020-07-23T07:28:09Z</time>
      </trkpt>
      <trkpt lat="42.8584630" lon="1.6350640">
        <ele>525.2</ele>
        <time>2020-07-23T07:28:10Z</time>
      </trkpt>
      <trkpt lat="42.8585820" lon="1.6347370">
        <ele>525.0</ele>
        <time>2020-07-23T07:28:13Z</time>
      </trkpt>
      <trkpt lat="42.8587500" lon="1.6343310">
        <ele>524.8</ele>
        <time>2020-07-23T07:28:17Z</time>
      </trkpt>
      <trkpt lat="42.8588400" lon="1.6341480">
        <ele>523.8</ele>
        <time>2020-07-23T07:28:19Z</time>
      </trkpt>
      <trkpt lat="42.8589050" lon="1.6339420">
        <ele>522.8</ele>
        <time>2020-07-23T07:28:21Z</time>
      </trkpt>
      <trkpt lat="42.8589370" lon="1.6338400">
        <ele>522.4</ele>
        <time>2020-07-23T07:28:22Z</time>
      </trkpt>
      <trkpt lat="42.8590500" lon="1.6335270">
        <ele>522.0</ele>
        <time>2020-07-23T07:28:25Z</time>
      </trkpt>
      <trkpt lat="42.8591680" lon="1.6333460">
        <ele>521.6</ele>
        <time>2020-07-23T07:28:27Z</time>
      </trkpt>
      <trkpt lat="42.8593030" lon="1.6331880">
        <ele>521.2</ele>
        <time>2020-07-23T07:28:29Z</time>
      </trkpt>
      <trkpt lat="42.8593750" lon="1.6331160">
        <ele>521.0</ele>
        <time>2020-07-23T07:28:30Z</time>
      </trkpt>
      <trkpt lat="42.8595200" lon="1.6329720">
        <ele>520.2</ele>
        <time>2020-07-23T07:28:32Z</time>
      </trkpt>
      <trkpt lat="42.8595890" lon="1.6328970">
        <ele>519.8</ele>
        <time>2020-07-23T07:28:33Z</time>
      </trkpt>
      <trkpt lat="42.8597560" lon="1.6326450">
        <ele>519.0</ele>
        <time>2020-07-23T07:28:36Z</time>
      </trkpt>
      <trkpt lat="42.8597930" lon="1.6325460">
        <ele>518.8</ele>
        <time>2020-07-23T07:28:37Z</time>
      </trkpt>
      <trkpt lat="42.8598210" lon="1.6324380">
        <ele>518.6</ele>
        <time>2020-07-23T07:28:38Z</time>
      </trkpt>
      <trkpt lat="42.8598670" lon="1.6322290">
        <ele>518.6</ele>
        <time>2020-07-23T07:28:40Z</time>
      </trkpt>
      <trkpt lat="42.8599100" lon="1.6320300">
        <ele>518.6</ele>
        <time>2020-07-23T07:28:42Z</time>
      </trkpt>
      <trkpt lat="42.8599860" lon="1.6316100">
        <ele>518.2</ele>
        <time>2020-07-23T07:28:46Z</time>
      </trkpt>
      <trkpt lat="42.8600210" lon="1.6313940">
        <ele>517.8</ele>
        <time>2020-07-23T07:28:48Z</time>
      </trkpt>
      <trkpt lat="42.8600790" lon="1.6310760">
        <ele>517.2</ele>
        <time>2020-07-23T07:28:51Z</time>
      </trkpt>
      <trkpt lat="42.8601000" lon="1.6309680">
        <ele>516.8</ele>
        <time>2020-07-23T07:28:52Z</time>
      </trkpt>
      <trkpt lat="42.8602190" lon="1.6305270">
        <ele>515.4</ele>
        <time>2020-07-23T07:28:56Z</time>
      </trkpt>
      <trkpt lat="42.8602610" lon="1.6304220">
        <ele>515.2</ele>
        <time>2020-07-23T07:28:57Z</time>
      </trkpt>
      <trkpt lat="42.8603530" lon="1.6302250">
        <ele>514.6</ele>
        <time>2020-07-23T07:28:59Z</time>
      </trkpt>
      <trkpt lat="42.8604010" lon="1.6301250">
        <ele>514.4</ele>
        <time>2020-07-23T07:29:00Z</time>
      </trkpt>
      <trkpt lat="42.8605020" lon="1.6299350">
        <ele>513.8</ele>
        <time>2020-07-23T07:29:02Z</time>
      </trkpt>
      <trkpt lat="42.8605480" lon="1.6298390">
        <ele>513.6</ele>
        <time>2020-07-23T07:29:03Z</time>
      </trkpt>
      <trkpt lat="42.8605920" lon="1.6297400">
        <ele>513.4</ele>
        <time>2020-07-23T07:29:04Z</time>
      </trkpt>
      <trkpt lat="42.8606680" lon="1.6295360">
        <ele>512.8</ele>
        <time>2020-07-23T07:29:06Z</time>
      </trkpt>
      <trkpt lat="42.8607280" lon="1.6293210">
        <ele>512.6</ele>
        <time>2020-07-23T07:29:08Z</time>
      </trkpt>
      <trkpt lat="42.8607870" lon="1.6291060">
        <ele>512.2</ele>
        <time>2020-07-23T07:29:10Z</time>
      </trkpt>
      <trkpt lat="42.8608930" lon="1.6286600">
        <ele>511.2</ele>
        <time>2020-07-23T07:29:14Z</time>
      </trkpt>
      <trkpt lat="42.8609490" lon="1.6284360">
        <ele>510.4</ele>
        <time>2020-07-23T07:29:16Z</time>
      </trkpt>
      <trkpt lat="42.8609780" lon="1.6283230">
        <ele>509.8</ele>
        <time>2020-07-23T07:29:17Z</time>
      </trkpt>
      <trkpt lat="42.8610800" lon="1.6279870">
        <ele>509.2</ele>
        <time>2020-07-23T07:29:20Z</time>
      </trkpt>
      <trkpt lat="42.8611140" lon="1.6278720">
        <ele>509.0</ele>
        <time>2020-07-23T07:29:21Z</time>
      </trkpt>
      <trkpt lat="42.8611580" lon="1.6277630">
        <ele>508.4</ele>
        <time>2020-07-23T07:29:22Z</time>
      </trkpt>
      <trkpt lat="42.8612660" lon="1.6275660">
        <ele>508.4</ele>
        <time>2020-07-23T07:29:24Z</time>
      </trkpt>
      <trkpt lat="42.8615820" lon="1.6271260">
        <ele>507.2</ele>
        <time>2020-07-23T07:29:29Z</time>
      </trkpt>
      <trkpt lat="42.8619660" lon="1.6266240">
        <ele>506.4</ele>
        <time>2020-07-23T07:29:35Z</time>
      </trkpt>
      <trkpt lat="42.8620760" lon="1.6264470">
        <ele>506.4</ele>
        <time>2020-07-23T07:29:37Z</time>
      </trkpt>
      <trkpt lat="42.8622510" lon="1.6260530">
        <ele>506.0</ele>
        <time>2020-07-23T07:29:41Z</time>
      </trkpt>
      <trkpt lat="42.8622960" lon="1.6259560">
        <ele>505.8</ele>
        <time>2020-07-23T07:29:42Z</time>
      </trkpt>
      <trkpt lat="42.8625650" lon="1.6253460">
        <ele>505.0</ele>
        <time>2020-07-23T07:29:48Z</time>
      </trkpt>
      <trkpt lat="42.8626130" lon="1.6252460">
        <ele>504.8</ele>
        <time>2020-07-23T07:29:49Z</time>
      </trkpt>
      <trkpt lat="42.8628010" lon="1.6248570">
        <ele>503.8</ele>
        <time>2020-07-23T07:29:53Z</time>
      </trkpt>
      <trkpt lat="42.8629840" lon="1.6244780">
        <ele>503.0</ele>
        <time>2020-07-23T07:29:57Z</time>
      </trkpt>
      <trkpt lat="42.8632470" lon="1.6238900">
        <ele>502.8</ele>
        <time>2020-07-23T07:30:03Z</time>
      </trkpt>
      <trkpt lat="42.8632910" lon="1.6237870">
        <ele>502.4</ele>
        <time>2020-07-23T07:30:04Z</time>
      </trkpt>
      <trkpt lat="42.8633360" lon="1.6236860">
        <ele>502.2</ele>
        <time>2020-07-23T07:30:05Z</time>
      </trkpt>
      <trkpt lat="42.8634780" lon="1.6232560">
        <ele>501.2</ele>
        <time>2020-07-23T07:30:09Z</time>
      </trkpt>
      <trkpt lat="42.8635010" lon="1.6231400">
        <ele>500.8</ele>
        <time>2020-07-23T07:30:10Z</time>
      </trkpt>
      <trkpt lat="42.8636100" lon="1.6226800">
        <ele>500.0</ele>
        <time>2020-07-23T07:30:14Z</time>
      </trkpt>
      <trkpt lat="42.8636520" lon="1.6225740">
        <ele>500.0</ele>
        <time>2020-07-23T07:30:15Z</time>
      </trkpt>
      <trkpt lat="42.8638650" lon="1.6221910">
        <ele>499.2</ele>
        <time>2020-07-23T07:30:19Z</time>
      </trkpt>
      <trkpt lat="42.8639310" lon="1.6221110">
        <ele>498.8</ele>
        <time>2020-07-23T07:30:20Z</time>
      </trkpt>
      <trkpt lat="42.8642270" lon="1.6218180">
        <ele>497.8</ele>
        <time>2020-07-23T07:30:24Z</time>
      </trkpt>
      <trkpt lat="42.8643020" lon="1.6217420">
        <ele>497.6</ele>
        <time>2020-07-23T07:30:25Z</time>
      </trkpt>
      <trkpt lat="42.8644400" lon="1.6215750">
        <ele>497.0</ele>
        <time>2020-07-23T07:30:27Z</time>
      </trkpt>
      <trkpt lat="42.8645470" lon="1.6213830">
        <ele>496.6</ele>
        <time>2020-07-23T07:30:29Z</time>
      </trkpt>
      <trkpt lat="42.8646330" lon="1.6211620">
        <ele>495.8</ele>
        <time>2020-07-23T07:30:31Z</time>
      </trkpt>
      <trkpt lat="42.8647070" lon="1.6209310">
        <ele>495.4</ele>
        <time>2020-07-23T07:30:33Z</time>
      </trkpt>
      <trkpt lat="42.8647470" lon="1.6208210">
        <ele>495.2</ele>
        <time>2020-07-23T07:30:34Z</time>
      </trkpt>
      <trkpt lat="42.8649860" lon="1.6201680">
        <ele>494.6</ele>
        <time>2020-07-23T07:30:40Z</time>
      </trkpt>
      <trkpt lat="42.8650260" lon="1.6200610">
        <ele>494.4</ele>
        <time>2020-07-23T07:30:41Z</time>
      </trkpt>
      <trkpt lat="42.8651070" lon="1.6198510">
        <ele>494.4</ele>
        <time>2020-07-23T07:30:43Z</time>
      </trkpt>
      <trkpt lat="42.8653150" lon="1.6193700">
        <ele>494.0</ele>
        <time>2020-07-23T07:30:48Z</time>
      </trkpt>
      <trkpt lat="42.8654310" lon="1.6192100">
        <ele>493.6</ele>
        <time>2020-07-23T07:30:50Z</time>
      </trkpt>
      <trkpt lat="42.8655600" lon="1.6190700">
        <ele>493.4</ele>
        <time>2020-07-23T07:30:52Z</time>
      </trkpt>
      <trkpt lat="42.8656880" lon="1.6189320">
        <ele>493.2</ele>
        <time>2020-07-23T07:30:54Z</time>
      </trkpt>
      <trkpt lat="42.8658660" lon="1.6187170">
        <ele>493.2</ele>
        <time>2020-07-23T07:30:57Z</time>
      </trkpt>
      <trkpt lat="42.8660280" lon="1.6185090">
        <ele>492.6</ele>
        <time>2020-07-23T07:31:00Z</time>
      </trkpt>
      <trkpt lat="42.8661360" lon="1.6183580">
        <ele>492.0</ele>
        <time>2020-07-23T07:31:02Z</time>
      </trkpt>
      <trkpt lat="42.8663230" lon="1.6180230">
        <ele>491.6</ele>
        <time>2020-07-23T07:31:06Z</time>
      </trkpt>
      <trkpt lat="42.8665310" lon="1.6175710">
        <ele>491.0</ele>
        <time>2020-07-23T07:31:11Z</time>
      </trkpt>
      <trkpt lat="42.8666110" lon="1.6173770">
        <ele>490.6</ele>
        <time>2020-07-23T07:31:13Z</time>
      </trkpt>
      <trkpt lat="42.8667680" lon="1.6169960">
        <ele>490.0</ele>
        <time>2020-07-23T07:31:17Z</time>
      </trkpt>
      <trkpt lat="42.8668850" lon="1.6167200">
        <ele>489.4</ele>
        <time>2020-07-23T07:31:20Z</time>
      </trkpt>
      <trkpt lat="42.8669640" lon="1.6165640">
        <ele>488.8</ele>
        <time>2020-07-23T07:31:22Z</time>
      </trkpt>
      <trkpt lat="42.8670470" lon="1.6164520">
        <ele>488.4</ele>
        <time>2020-07-23T07:31:24Z</time>
      </trkpt>
      <trkpt lat="42.8671660" lon="1.6164150">
        <ele>488.2</ele>
        <time>2020-07-23T07:31:26Z</time>
      </trkpt>
      <trkpt lat="42.8672250" lon="1.6164430">
        <ele>488.0</ele>
        <time>2020-07-23T07:31:27Z</time>
      </trkpt>
      <trkpt lat="42.8672810" lon="1.6164860">
        <ele>487.6</ele>
        <time>2020-07-23T07:31:28Z</time>
      </trkpt>
      <trkpt lat="42.8673280" lon="1.6165400">
        <ele>487.2</ele>
        <time>2020-07-23T07:31:29Z</time>
      </trkpt>
      <trkpt lat="42.8673740" lon="1.6166040">
        <ele>486.8</ele>
        <time>2020-07-23T07:31:30Z</time>
      </trkpt>
      <trkpt lat="42.8674190" lon="1.6166750">
        <ele>486.2</ele>
        <time>2020-07-23T07:31:31Z</time>
      </trkpt>
      <trkpt lat="42.8675440" lon="1.6168870">
        <ele>485.2</ele>
        <time>2020-07-23T07:31:34Z</time>
      </trkpt>
      <trkpt lat="42.8676140" lon="1.6170150">
        <ele>484.8</ele>
        <time>2020-07-23T07:31:36Z</time>
      </trkpt>
      <trkpt lat="42.8677320" lon="1.6173940">
        <ele>484.2</ele>
        <time>2020-07-23T07:31:41Z</time>
      </trkpt>
      <trkpt lat="42.8677460" lon="1.6174770">
        <ele>484.0</ele>
        <time>2020-07-23T07:31:42Z</time>
      </trkpt>
      <trkpt lat="42.8677680" lon="1.6177250">
        <ele>483.0</ele>
        <time>2020-07-23T07:31:45Z</time>
      </trkpt>
      <trkpt lat="42.8677830" lon="1.6178030">
        <ele>482.8</ele>
        <time>2020-07-23T07:31:46Z</time>
      </trkpt>
      <trkpt lat="42.8678080" lon="1.6178700">
        <ele>482.8</ele>
        <time>2020-07-23T07:31:47Z</time>
      </trkpt>
      <trkpt lat="42.8678450" lon="1.6179140">
        <ele>482.6</ele>
        <time>2020-07-23T07:31:48Z</time>
      </trkpt>
      <trkpt lat="42.8679330" lon="1.6179360">
        <ele>482.4</ele>
        <time>2020-07-23T07:31:50Z</time>
      </trkpt>
      <trkpt lat="42.8680070" lon="1.6179150">
        <ele>482.0</ele>
        <time>2020-07-23T07:31:52Z</time>
      </trkpt>
      <trkpt lat="42.8680460" lon="1.6178700">
        <ele>481.6</ele>
        <time>2020-07-23T07:31:54Z</time>
      </trkpt>
      <trkpt lat="42.8680450" lon="1.6176960">
        <ele>481.6</ele>
        <time>2020-07-23T07:31:57Z</time>
      </trkpt>
      <trkpt lat="42.8679910" lon="1.6175430">
        <ele>481.6</ele>
        <time>2020-07-23T07:31:59Z</time>
      </trkpt>
      <trkpt lat="42.8679540" lon="1.6174610">
        <ele>481.6</ele>
        <time>2020-07-23T07:32:00Z</time>
      </trkpt>
      <trkpt lat="42.8677860" lon="1.6171140">
        <ele>480.8</ele>
        <time>2020-07-23T07:32:04Z</time>
      </trkpt>
      <trkpt lat="42.8676530" lon="1.6168360">
        <ele>480.0</ele>
        <time>2020-07-23T07:32:07Z</time>
      </trkpt>
      <trkpt lat="42.8676100" lon="1.6167350">
        <ele>479.8</ele>
        <time>2020-07-23T07:32:08Z</time>
      </trkpt>
      <trkpt lat="42.8675230" lon="1.6165330">
        <ele>478.8</ele>
        <time>2020-07-23T07:32:10Z</time>
      </trkpt>
      <trkpt lat="42.8674780" lon="1.6164330">
        <ele>478.4</ele>
        <time>2020-07-23T07:32:11Z</time>
      </trkpt>
      <trkpt lat="42.8672800" lon="1.6160340">
        <ele>477.2</ele>
        <time>2020-07-23T07:32:15Z</time>
      </trkpt>
      <trkpt lat="42.8671650" lon="1.6158390">
        <ele>477.0</ele>
        <time>2020-07-23T07:32:17Z</time>
      </trkpt>
      <trkpt lat="42.8669750" lon="1.6155580">
        <ele>476.0</ele>
        <time>2020-07-23T07:32:20Z</time>
      </trkpt>
      <trkpt lat="42.8669050" lon="1.6154730">
        <ele>475.6</ele>
        <time>2020-07-23T07:32:21Z</time>
      </trkpt>
      <trkpt lat="42.8668270" lon="1.6153990">
        <ele>475.0</ele>
        <time>2020-07-23T07:32:22Z</time>
      </trkpt>
      <trkpt lat="42.8667450" lon="1.6153320">
        <ele>474.6</ele>
        <time>2020-07-23T07:32:23Z</time>
      </trkpt>
      <trkpt lat="42.8665770" lon="1.6152100">
        <ele>474.0</ele>
        <time>2020-07-23T07:32:25Z</time>
      </trkpt>
      <trkpt lat="42.8664980" lon="1.6151350">
        <ele>473.4</ele>
        <time>2020-07-23T07:32:26Z</time>
      </trkpt>
      <trkpt lat="42.8664270" lon="1.6150480">
        <ele>473.2</ele>
        <time>2020-07-23T07:32:27Z</time>
      </trkpt>
      <trkpt lat="42.8663640" lon="1.6149500">
        <ele>473.0</ele>
        <time>2020-07-23T07:32:28Z</time>
      </trkpt>
      <trkpt lat="42.8662540" lon="1.6147390">
        <ele>472.4</ele>
        <time>2020-07-23T07:32:30Z</time>
      </trkpt>
      <trkpt lat="42.8661000" lon="1.6144220">
        <ele>471.2</ele>
        <time>2020-07-23T07:32:33Z</time>
      </trkpt>
      <trkpt lat="42.8660490" lon="1.6143200">
        <ele>471.0</ele>
        <time>2020-07-23T07:32:34Z</time>
      </trkpt>
      <trkpt lat="42.8659990" lon="1.6142170">
        <ele>470.8</ele>
        <time>2020-07-23T07:32:35Z</time>
      </trkpt>
      <trkpt lat="42.8659020" lon="1.6140020">
        <ele>470.0</ele>
        <time>2020-07-23T07:32:37Z</time>
      </trkpt>
      <trkpt lat="42.8657290" lon="1.6135670">
        <ele>468.8</ele>
        <time>2020-07-23T07:32:41Z</time>
      </trkpt>
      <trkpt lat="42.8656860" lon="1.6134620">
        <ele>468.8</ele>
        <time>2020-07-23T07:32:42Z</time>
      </trkpt>
      <trkpt lat="42.8654450" lon="1.6128250">
        <ele>468.4</ele>
        <time>2020-07-23T07:32:48Z</time>
      </trkpt>
      <trkpt lat="42.8654030" lon="1.6127190">
        <ele>468.4</ele>
        <time>2020-07-23T07:32:49Z</time>
      </trkpt>
      <trkpt lat="42.8652880" lon="1.6124000">
        <ele>468.4</ele>
        <time>2020-07-23T07:32:52Z</time>
      </trkpt>
      <trkpt lat="42.8651630" lon="1.6119630">
        <ele>468.6</ele>
        <time>2020-07-23T07:32:56Z</time>
      </trkpt>
      <trkpt lat="42.8651350" lon="1.6118540">
        <ele>469.0</ele>
        <time>2020-07-23T07:32:57Z</time>
      </trkpt>
      <trkpt lat="42.8650860" lon="1.6116440">
        <ele>469.0</ele>
        <time>2020-07-23T07:32:59Z</time>
      </trkpt>
      <trkpt lat="42.8649920" lon="1.6112390">
        <ele>469.4</ele>
        <time>2020-07-23T07:33:03Z</time>
      </trkpt>
      <trkpt lat="42.8649270" lon="1.6109500">
        <ele>469.6</ele>
        <time>2020-07-23T07:33:06Z</time>
      </trkpt>
      <trkpt lat="42.8648640" lon="1.6106760">
        <ele>469.6</ele>
        <time>2020-07-23T07:33:09Z</time>
      </trkpt>
      <trkpt lat="42.8648430" lon="1.6105860">
        <ele>469.6</ele>
        <time>2020-07-23T07:33:10Z</time>
      </trkpt>
      <trkpt lat="42.8647650" lon="1.6102370">
        <ele>470.0</ele>
        <time>2020-07-23T07:33:14Z</time>
      </trkpt>
      <trkpt lat="42.8646680" lon="1.6098180">
        <ele>470.8</ele>
        <time>2020-07-23T07:33:19Z</time>
      </trkpt>
      <trkpt lat="42.8646310" lon="1.6096530">
        <ele>471.0</ele>
        <time>2020-07-23T07:33:21Z</time>
      </trkpt>
      <trkpt lat="42.8645280" lon="1.6091730">
        <ele>471.6</ele>
        <time>2020-07-23T07:33:27Z</time>
      </trkpt>
      <trkpt lat="42.8645110" lon="1.6090960">
        <ele>471.6</ele>
        <time>2020-07-23T07:33:28Z</time>
      </trkpt>
      <trkpt lat="42.8644230" lon="1.6087290">
        <ele>472.0</ele>
        <time>2020-07-23T07:33:33Z</time>
      </trkpt>
      <trkpt lat="42.8643740" lon="1.6085130">
        <ele>472.6</ele>
        <time>2020-07-23T07:33:36Z</time>
      </trkpt>
      <trkpt lat="42.8643090" lon="1.6082440">
        <ele>473.2</ele>
        <time>2020-07-23T07:33:40Z</time>
      </trkpt>
      <trkpt lat="42.8642430" lon="1.6079830">
        <ele>474.0</ele>
        <time>2020-07-23T07:33:44Z</time>
      </trkpt>
      <trkpt lat="42.8642250" lon="1.6079190">
        <ele>474.4</ele>
        <time>2020-07-23T07:33:45Z</time>
      </trkpt>
      <trkpt lat="42.8641150" lon="1.6075320">
        <ele>475.0</ele>
        <time>2020-07-23T07:33:51Z</time>
      </trkpt>
      <trkpt lat="42.8640940" lon="1.6074740">
        <ele>475.0</ele>
        <time>2020-07-23T07:33:52Z</time>
      </trkpt>
      <trkpt lat="42.8640360" lon="1.6072960">
        <ele>475.4</ele>
        <time>2020-07-23T07:33:55Z</time>
      </trkpt>
      <trkpt lat="42.8639180" lon="1.6070200">
        <ele>476.4</ele>
        <time>2020-07-23T07:34:00Z</time>
      </trkpt>
      <trkpt lat="42.8638950" lon="1.6069700">
        <ele>476.6</ele>
        <time>2020-07-23T07:34:01Z</time>
      </trkpt>
      <trkpt lat="42.8637700" lon="1.6067250">
        <ele>477.8</ele>
        <time>2020-07-23T07:34:06Z</time>
      </trkpt>
      <trkpt lat="42.8637140" lon="1.6066280">
        <ele>477.8</ele>
        <time>2020-07-23T07:34:08Z</time>
      </trkpt>
      <trkpt lat="42.8635440" lon="1.6063170">
        <ele>478.2</ele>
        <time>2020-07-23T07:34:14Z</time>
      </trkpt>
      <trkpt lat="42.8635140" lon="1.6062630">
        <ele>478.4</ele>
        <time>2020-07-23T07:34:15Z</time>
      </trkpt>
      <trkpt lat="42.8633620" lon="1.6059940">
        <ele>478.6</ele>
        <time>2020-07-23T07:34:20Z</time>
      </trkpt>
      <trkpt lat="42.8632660" lon="1.6058200">
        <ele>478.8</ele>
        <time>2020-07-23T07:34:23Z</time>
      </trkpt>
      <trkpt lat="42.8632320" lon="1.6057630">
        <ele>478.8</ele>
        <time>2020-07-23T07:34:24Z</time>
      </trkpt>
      <trkpt lat="42.8630110" lon="1.6054570">
        <ele>479.2</ele>
        <time>2020-07-23T07:34:30Z</time>
      </trkpt>
      <trkpt lat="42.8627670" lon="1.6051890">
        <ele>479.4</ele>
        <time>2020-07-23T07:34:36Z</time>
      </trkpt>
      <trkpt lat="42.8626800" lon="1.6051090">
        <ele>479.6</ele>
        <time>2020-07-23T07:34:38Z</time>
      </trkpt>
      <trkpt lat="42.8624460" lon="1.6049320">
        <ele>479.8</ele>
        <time>2020-07-23T07:34:43Z</time>
      </trkpt>
      <trkpt lat="42.8622950" lon="1.6048390">
        <ele>480.0</ele>
        <time>2020-07-23T07:34:46Z</time>
      </trkpt>
      <trkpt lat="42.8619790" lon="1.6046670">
        <ele>479.6</ele>
        <time>2020-07-23T07:34:52Z</time>
      </trkpt>
      <trkpt lat="42.8619250" lon="1.6046360">
        <ele>479.6</ele>
        <time>2020-07-23T07:34:53Z</time>
      </trkpt>
      <trkpt lat="42.8615910" lon="1.6044420">
        <ele>479.0</ele>
        <time>2020-07-23T07:34:59Z</time>
      </trkpt>
      <trkpt lat="42.8614230" lon="1.6043350">
        <ele>479.0</ele>
        <time>2020-07-23T07:35:02Z</time>
      </trkpt>
      <trkpt lat="42.8613090" lon="1.6042560">
        <ele>478.8</ele>
        <time>2020-07-23T07:35:04Z</time>
      </trkpt>
      <trkpt lat="42.8610310" lon="1.6040210">
        <ele>478.8</ele>
        <time>2020-07-23T07:35:10Z</time>
      </trkpt>
      <trkpt lat="42.8606440" lon="1.6036350">
        <ele>477.6</ele>
        <time>2020-07-23T07:35:16Z</time>
      </trkpt>
      <trkpt lat="42.8605330" lon="1.6035110">
        <ele>477.0</ele>
        <time>2020-07-23T07:35:18Z</time>
      </trkpt>
      <trkpt lat="42.8604200" lon="1.6033830">
        <ele>476.4</ele>
        <time>2020-07-23T07:35:20Z</time>
      </trkpt>
      <trkpt lat="42.8601890" lon="1.6031220">
        <ele>475.0</ele>
        <time>2020-07-23T07:35:24Z</time>
      </trkpt>
      <trkpt lat="42.8600060" lon="1.6029150">
        <ele>474.0</ele>
        <time>2020-07-23T07:35:27Z</time>
      </trkpt>
      <trkpt lat="42.8599420" lon="1.6028470">
        <ele>473.6</ele>
        <time>2020-07-23T07:35:28Z</time>
      </trkpt>
      <trkpt lat="42.8598100" lon="1.6027110">
        <ele>472.8</ele>
        <time>2020-07-23T07:35:30Z</time>
      </trkpt>
      <trkpt lat="42.8595240" lon="1.6024480">
        <ele>471.8</ele>
        <time>2020-07-23T07:35:34Z</time>
      </trkpt>
      <trkpt lat="42.8593720" lon="1.6023270">
        <ele>470.6</ele>
        <time>2020-07-23T07:35:36Z</time>
      </trkpt>
      <trkpt lat="42.8591360" lon="1.6021700">
        <ele>469.4</ele>
        <time>2020-07-23T07:35:39Z</time>
      </trkpt>
      <trkpt lat="42.8589810" lon="1.6020740">
        <ele>469.2</ele>
        <time>2020-07-23T07:35:41Z</time>
      </trkpt>
      <trkpt lat="42.8589040" lon="1.6020270">
        <ele>469.0</ele>
        <time>2020-07-23T07:35:42Z</time>
      </trkpt>
      <trkpt lat="42.8586730" lon="1.6019060">
        <ele>468.6</ele>
        <time>2020-07-23T07:35:45Z</time>
      </trkpt>
      <trkpt lat="42.8585150" lon="1.6018420">
        <ele>468.4</ele>
        <time>2020-07-23T07:35:47Z</time>
      </trkpt>
      <trkpt lat="42.8584370" lon="1.6018140">
        <ele>468.4</ele>
        <time>2020-07-23T07:35:48Z</time>
      </trkpt>
      <trkpt lat="42.8579990" lon="1.6016560">
        <ele>468.4</ele>
        <time>2020-07-23T07:35:54Z</time>
      </trkpt>
      <trkpt lat="42.8579280" lon="1.6016380">
        <ele>468.6</ele>
        <time>2020-07-23T07:35:55Z</time>
      </trkpt>
      <trkpt lat="42.8575180" lon="1.6015060">
        <ele>469.0</ele>
        <time>2020-07-23T07:36:01Z</time>
      </trkpt>
      <trkpt lat="42.8574510" lon="1.6014820">
        <ele>469.0</ele>
        <time>2020-07-23T07:36:02Z</time>
      </trkpt>
      <trkpt lat="42.8573200" lon="1.6014390">
        <ele>469.0</ele>
        <time>2020-07-23T07:36:04Z</time>
      </trkpt>
      <trkpt lat="42.8570690" lon="1.6013430">
        <ele>469.0</ele>
        <time>2020-07-23T07:36:08Z</time>
      </trkpt>
      <trkpt lat="42.8568910" lon="1.6012660">
        <ele>469.2</ele>
        <time>2020-07-23T07:36:11Z</time>
      </trkpt>
      <trkpt lat="42.8567160" lon="1.6011910">
        <ele>469.2</ele>
        <time>2020-07-23T07:36:14Z</time>
      </trkpt>
      <trkpt lat="42.8566020" lon="1.6011510">
        <ele>469.2</ele>
        <time>2020-07-23T07:36:16Z</time>
      </trkpt>
      <trkpt lat="42.8564880" lon="1.6011150">
        <ele>469.4</ele>
        <time>2020-07-23T07:36:18Z</time>
      </trkpt>
      <trkpt lat="42.8564310" lon="1.6011030">
        <ele>469.6</ele>
        <time>2020-07-23T07:36:19Z</time>
      </trkpt>
      <trkpt lat="42.8561260" lon="1.6011400">
        <ele>469.8</ele>
        <time>2020-07-23T07:36:24Z</time>
      </trkpt>
      <trkpt lat="42.8557720" lon="1.6013180">
        <ele>470.0</ele>
        <time>2020-07-23T07:36:30Z</time>
      </trkpt>
      <trkpt lat="42.8554310" lon="1.6015240">
        <ele>470.0</ele>
        <time>2020-07-23T07:36:36Z</time>
      </trkpt>
      <trkpt lat="42.8553730" lon="1.6015570">
        <ele>470.0</ele>
        <time>2020-07-23T07:36:37Z</time>
      </trkpt>
      <trkpt lat="42.8551480" lon="1.6016830">
        <ele>470.2</ele>
        <time>2020-07-23T07:36:41Z</time>
      </trkpt>
      <trkpt lat="42.8549800" lon="1.6017760">
        <ele>470.4</ele>
        <time>2020-07-23T07:36:44Z</time>
      </trkpt>
      <trkpt lat="42.8549240" lon="1.6018070">
        <ele>470.6</ele>
        <time>2020-07-23T07:36:45Z</time>
      </trkpt>
      <trkpt lat="42.8548670" lon="1.6018360">
        <ele>470.6</ele>
        <time>2020-07-23T07:36:46Z</time>
      </trkpt>
      <trkpt lat="42.8545220" lon="1.6020190">
        <ele>470.4</ele>
        <time>2020-07-23T07:36:52Z</time>
      </trkpt>
      <trkpt lat="42.8543560" lon="1.6021210">
        <ele>470.2</ele>
        <time>2020-07-23T07:36:55Z</time>
      </trkpt>
      <trkpt lat="42.8540200" lon="1.6023110">
        <ele>470.8</ele>
        <time>2020-07-23T07:37:01Z</time>
      </trkpt>
      <trkpt lat="42.8539060" lon="1.6023690">
        <ele>470.8</ele>
        <time>2020-07-23T07:37:03Z</time>
      </trkpt>
      <trkpt lat="42.8537350" lon="1.6024620">
        <ele>470.8</ele>
        <time>2020-07-23T07:37:06Z</time>
      </trkpt>
      <trkpt lat="42.8534430" lon="1.6026090">
        <ele>470.8</ele>
        <time>2020-07-23T07:37:11Z</time>
      </trkpt>
      <trkpt lat="42.8530900" lon="1.6027920">
        <ele>471.0</ele>
        <time>2020-07-23T07:37:17Z</time>
      </trkpt>
      <trkpt lat="42.8529740" lon="1.6028550">
        <ele>471.0</ele>
        <time>2020-07-23T07:37:19Z</time>
      </trkpt>
      <trkpt lat="42.8529170" lon="1.6028850">
        <ele>471.0</ele>
        <time>2020-07-23T07:37:20Z</time>
      </trkpt>
      <trkpt lat="42.8526880" lon="1.6030000">
        <ele>471.2</ele>
        <time>2020-07-23T07:37:24Z</time>
      </trkpt>
      <trkpt lat="42.8524740" lon="1.6031150">
        <ele>471.2</ele>
        <time>2020-07-23T07:37:28Z</time>
      </trkpt>
      <trkpt lat="42.8523310" lon="1.6031920">
        <ele>471.6</ele>
        <time>2020-07-23T07:37:31Z</time>
      </trkpt>
      <trkpt lat="42.8521410" lon="1.6032970">
        <ele>472.0</ele>
        <time>2020-07-23T07:37:35Z</time>
      </trkpt>
      <trkpt lat="42.8518230" lon="1.6034620">
        <ele>472.0</ele>
        <time>2020-07-23T07:37:41Z</time>
      </trkpt>
      <trkpt lat="42.8517690" lon="1.6034870">
        <ele>472.0</ele>
        <time>2020-07-23T07:37:42Z</time>
      </trkpt>
      <trkpt lat="42.8516630" lon="1.6035370">
        <ele>472.2</ele>
        <time>2020-07-23T07:37:44Z</time>
      </trkpt>
      <trkpt lat="42.8516120" lon="1.6035590">
        <ele>472.2</ele>
        <time>2020-07-23T07:37:45Z</time>
      </trkpt>
      <trkpt lat="42.8515100" lon="1.6036090">
        <ele>472.6</ele>
        <time>2020-07-23T07:37:47Z</time>
      </trkpt>
      <trkpt lat="42.8513580" lon="1.6036920">
        <ele>473.0</ele>
        <time>2020-07-23T07:37:50Z</time>
      </trkpt>
      <trkpt lat="42.8512040" lon="1.6037680">
        <ele>473.0</ele>
        <time>2020-07-23T07:37:53Z</time>
      </trkpt>
      <trkpt lat="42.8509950" lon="1.6038780">
        <ele>473.4</ele>
        <time>2020-07-23T07:37:57Z</time>
      </trkpt>
      <trkpt lat="42.8509440" lon="1.6039080">
        <ele>473.6</ele>
        <time>2020-07-23T07:37:58Z</time>
      </trkpt>
      <trkpt lat="42.8508930" lon="1.6039330">
        <ele>473.8</ele>
        <time>2020-07-23T07:37:59Z</time>
      </trkpt>
      <trkpt lat="42.8506950" lon="1.6040370">
        <ele>474.0</ele>
        <time>2020-07-23T07:38:03Z</time>
      </trkpt>
      <trkpt lat="42.8505000" lon="1.6041470">
        <ele>474.4</ele>
        <time>2020-07-23T07:38:07Z</time>
      </trkpt>
      <trkpt lat="42.8503060" lon="1.6042590">
        <ele>474.8</ele>
        <time>2020-07-23T07:38:11Z</time>
      </trkpt>
      <trkpt lat="42.8500550" lon="1.6043970">
        <ele>475.0</ele>
        <time>2020-07-23T07:38:16Z</time>
      </trkpt>
      <trkpt lat="42.8500040" lon="1.6044210">
        <ele>475.0</ele>
        <time>2020-07-23T07:38:17Z</time>
      </trkpt>
      <trkpt lat="42.8496980" lon="1.6045900">
        <ele>475.2</ele>
        <time>2020-07-23T07:38:23Z</time>
      </trkpt>
      <trkpt lat="42.8495920" lon="1.6046520">
        <ele>475.4</ele>
        <time>2020-07-23T07:38:25Z</time>
      </trkpt>
      <trkpt lat="42.8494280" lon="1.6047410">
        <ele>475.4</ele>
        <time>2020-07-23T07:38:28Z</time>
      </trkpt>
      <trkpt lat="42.8492710" lon="1.6048350">
        <ele>475.8</ele>
        <time>2020-07-23T07:38:31Z</time>
      </trkpt>
      <trkpt lat="42.8491730" lon="1.6048960">
        <ele>475.8</ele>
        <time>2020-07-23T07:38:33Z</time>
      </trkpt>
      <trkpt lat="42.8490210" lon="1.6049860">
        <ele>476.2</ele>
        <time>2020-07-23T07:38:36Z</time>
      </trkpt>
      <trkpt lat="42.8489000" lon="1.6050430">
        <ele>476.4</ele>
        <time>2020-07-23T07:38:39Z</time>
      </trkpt>
      <trkpt lat="42.8487140" lon="1.6051720">
        <ele>476.6</ele>
        <time>2020-07-23T07:38:44Z</time>
      </trkpt>
      <trkpt lat="42.8484590" lon="1.6053440">
        <ele>476.6</ele>
        <time>2020-07-23T07:38:50Z</time>
      </trkpt>
      <trkpt lat="42.8483630" lon="1.6053840">
        <ele>476.8</ele>
        <time>2020-07-23T07:38:52Z</time>
      </trkpt>
      <trkpt lat="42.8482660" lon="1.6054320">
        <ele>476.8</ele>
        <time>2020-07-23T07:38:54Z</time>
      </trkpt>
      <trkpt lat="42.8480380" lon="1.6055350">
        <ele>477.0</ele>
        <time>2020-07-23T07:38:59Z</time>
      </trkpt>
      <trkpt lat="42.8479460" lon="1.6055770">
        <ele>477.2</ele>
        <time>2020-07-23T07:39:01Z</time>
      </trkpt>
      <trkpt lat="42.8476940" lon="1.6057250">
        <ele>477.4</ele>
        <time>2020-07-23T07:39:07Z</time>
      </trkpt>
      <trkpt lat="42.8474430" lon="1.6058860">
        <ele>477.6</ele>
        <time>2020-07-23T07:39:13Z</time>
      </trkpt>
      <trkpt lat="42.8473880" lon="1.6058890">
        <ele>477.8</ele>
        <time>2020-07-23T07:39:14Z</time>
      </trkpt>
      <trkpt lat="42.8473310" lon="1.6058820">
        <ele>478.0</ele>
        <time>2020-07-23T07:39:15Z</time>
      </trkpt>
      <trkpt lat="42.8472780" lon="1.6058740">
        <ele>478.0</ele>
        <time>2020-07-23T07:39:16Z</time>
      </trkpt>
      <trkpt lat="42.8471820" lon="1.6058270">
        <ele>478.2</ele>
        <time>2020-07-23T07:39:18Z</time>
      </trkpt>
      <trkpt lat="42.8471120" lon="1.6057420">
        <ele>478.2</ele>
        <time>2020-07-23T07:39:20Z</time>
      </trkpt>
      <trkpt lat="42.8470600" lon="1.6056280">
        <ele>478.2</ele>
        <time>2020-07-23T07:39:22Z</time>
      </trkpt>
      <trkpt lat="42.8469550" lon="1.6052730">
        <ele>478.0</ele>
        <time>2020-07-23T07:39:28Z</time>
      </trkpt>
      <trkpt lat="42.8469420" lon="1.6052140">
        <ele>478.0</ele>
        <time>2020-07-23T07:39:29Z</time>
      </trkpt>
      <trkpt lat="42.8469300" lon="1.6050870">
        <ele>478.0</ele>
        <time>2020-07-23T07:39:31Z</time>
      </trkpt>
      <trkpt lat="42.8469400" lon="1.6050260">
        <ele>478.0</ele>
        <time>2020-07-23T07:39:32Z</time>
      </trkpt>
      <trkpt lat="42.8469610" lon="1.6049690">
        <ele>478.0</ele>
        <time>2020-07-23T07:39:33Z</time>
      </trkpt>
      <trkpt lat="42.8470860" lon="1.6047580">
        <ele>477.6</ele>
        <time>2020-07-23T07:39:37Z</time>
      </trkpt>
      <trkpt lat="42.8471440" lon="1.6046290">
        <ele>477.2</ele>
        <time>2020-07-23T07:39:39Z</time>
      </trkpt>
      <trkpt lat="42.8471700" lon="1.6045600">
        <ele>477.0</ele>
        <time>2020-07-23T07:39:40Z</time>
      </trkpt>
      <trkpt lat="42.8471970" lon="1.6044870">
        <ele>476.8</ele>
        <time>2020-07-23T07:39:41Z</time>
      </trkpt>
      <trkpt lat="42.8472520" lon="1.6043370">
        <ele>476.6</ele>
        <time>2020-07-23T07:39:43Z</time>
      </trkpt>
      <trkpt lat="42.8473400" lon="1.6041040">
        <ele>475.8</ele>
        <time>2020-07-23T07:39:46Z</time>
      </trkpt>
      <trkpt lat="42.8473680" lon="1.6040250">
        <ele>475.6</ele>
        <time>2020-07-23T07:39:47Z</time>
      </trkpt>
      <trkpt lat="42.8474270" lon="1.6038710">
        <ele>475.2</ele>
        <time>2020-07-23T07:39:49Z</time>
      </trkpt>
      <trkpt lat="42.8475320" lon="1.6036730">
        <ele>475.0</ele>
        <time>2020-07-23T07:39:52Z</time>
      </trkpt>
      <trkpt lat="42.8475960" lon="1.6035380">
        <ele>475.0</ele>
        <time>2020-07-23T07:39:54Z</time>
      </trkpt>
      <trkpt lat="42.8476210" lon="1.6033760">
        <ele>475.0</ele>
        <time>2020-07-23T07:39:56Z</time>
      </trkpt>
      <trkpt lat="42.8476210" lon="1.6032920">
        <ele>475.0</ele>
        <time>2020-07-23T07:39:57Z</time>
      </trkpt>
      <trkpt lat="42.8476180" lon="1.6032120">
        <ele>475.0</ele>
        <time>2020-07-23T07:39:58Z</time>
      </trkpt>
      <trkpt lat="42.8476090" lon="1.6031310">
        <ele>475.0</ele>
        <time>2020-07-23T07:39:59Z</time>
      </trkpt>
      <trkpt lat="42.8475960" lon="1.6030520">
        <ele>475.0</ele>
        <time>2020-07-23T07:40:00Z</time>
      </trkpt>
      <trkpt lat="42.8475260" lon="1.6027560">
        <ele>475.0</ele>
        <time>2020-07-23T07:40:04Z</time>
      </trkpt>
      <trkpt lat="42.8475060" lon="1.6025830">
        <ele>474.8</ele>
        <time>2020-07-23T07:40:07Z</time>
      </trkpt>
      <trkpt lat="42.8475150" lon="1.6025440">
        <ele>474.8</ele>
        <time>2020-07-23T07:40:08Z</time>
      </trkpt>
      <trkpt lat="42.8475210" lon="1.6024410">
        <ele>474.8</ele>
        <time>2020-07-23T07:40:11Z</time>
      </trkpt>
      <trkpt lat="42.8474580" lon="1.6024810">
        <ele>475.0</ele>
        <time>2020-07-23T07:40:14Z</time>
      </trkpt>
      <trkpt lat="42.8474700" lon="1.6026120">
        <ele>475.0</ele>
        <time>2020-07-23T07:40:17Z</time>
      </trkpt>
      <trkpt lat="42.8474540" lon="1.6027030">
        <ele>475.4</ele>
        <time>2020-07-23T07:40:21Z</time>
      </trkpt>
      <trkpt lat="42.8473170" lon="1.6027500">
        <ele>475.4</ele>
        <time>2020-07-23T07:40:25Z</time>
      </trkpt>
      <trkpt lat="42.8470050" lon="1.6028130">
        <ele>475.2</ele>
        <time>2020-07-23T07:40:31Z</time>
      </trkpt>
      <trkpt lat="42.8469520" lon="1.6028230">
        <ele>475.4</ele>
        <time>2020-07-23T07:40:32Z</time>
      </trkpt>
      <trkpt lat="42.8468440" lon="1.6028510">
        <ele>475.4</ele>
        <time>2020-07-23T07:40:34Z</time>
      </trkpt>
      <trkpt lat="42.8467880" lon="1.6028610">
        <ele>475.4</ele>
        <time>2020-07-23T07:40:35Z</time>
      </trkpt>
      <trkpt lat="42.8467320" lon="1.6028710">
        <ele>475.4</ele>
        <time>2020-07-23T07:40:36Z</time>
      </trkpt>
      <trkpt lat="42.8466760" lon="1.6028830">
        <ele>475.4</ele>
        <time>2020-07-23T07:40:37Z</time>
      </trkpt>
      <trkpt lat="42.8466210" lon="1.6028950">
        <ele>475.4</ele>
        <time>2020-07-23T07:40:38Z</time>
      </trkpt>
      <trkpt lat="42.8465660" lon="1.6029050">
        <ele>475.4</ele>
        <time>2020-07-23T07:40:39Z</time>
      </trkpt>
      <trkpt lat="42.8462510" lon="1.6029610">
        <ele>475.8</ele>
        <time>2020-07-23T07:40:45Z</time>
      </trkpt>
      <trkpt lat="42.8460920" lon="1.6029880">
        <ele>476.4</ele>
        <time>2020-07-23T07:40:48Z</time>
      </trkpt>
      <trkpt lat="42.8460020" lon="1.6029580">
        <ele>476.6</ele>
        <time>2020-07-23T07:40:50Z</time>
      </trkpt>
      <trkpt lat="42.8459720" lon="1.6029250">
        <ele>476.8</ele>
        <time>2020-07-23T07:40:51Z</time>
      </trkpt>
      <trkpt lat="42.8458900" lon="1.6027240">
        <ele>477.6</ele>
        <time>2020-07-23T07:40:56Z</time>
      </trkpt>
      <trkpt lat="42.8458760" lon="1.6026860">
        <ele>477.8</ele>
        <time>2020-07-23T07:40:57Z</time>
      </trkpt>
      <trkpt lat="42.8458250" lon="1.6025270">
        <ele>478.6</ele>
        <time>2020-07-23T07:41:01Z</time>
      </trkpt>
      <trkpt lat="42.8458100" lon="1.6024900">
        <ele>478.8</ele>
        <time>2020-07-23T07:41:02Z</time>
      </trkpt>
      <trkpt lat="42.8457980" lon="1.6023380">
        <ele>479.6</ele>
        <time>2020-07-23T07:41:07Z</time>
      </trkpt>
      <trkpt lat="42.8456270" lon="1.6018790">
        <ele>478.6</ele>
        <time>2020-07-23T07:43:52Z</time>
      </trkpt>
      <trkpt lat="42.8456170" lon="1.6018570">
        <ele>478.6</ele>
        <time>2020-07-23T07:43:53Z</time>
      </trkpt>
      <trkpt lat="42.8455950" lon="1.6018150">
        <ele>478.6</ele>
        <time>2020-07-23T07:43:54Z</time>
      </trkpt>
      <trkpt lat="42.8455590" lon="1.6017250">
        <ele>480.2</ele>
        <time>2020-07-23T07:43:56Z</time>
      </trkpt>
      <trkpt lat="42.8455420" lon="1.6016800">
        <ele>481.4</ele>
        <time>2020-07-23T07:43:57Z</time>
      </trkpt>
      <trkpt lat="42.8454890" lon="1.6015430">
        <ele>482.4</ele>
        <time>2020-07-23T07:44:00Z</time>
      </trkpt>
      <trkpt lat="42.8454710" lon="1.6014950">
        <ele>482.6</ele>
        <time>2020-07-23T07:44:01Z</time>
      </trkpt>
      <trkpt lat="42.8453480" lon="1.6012020">
        <ele>483.2</ele>
        <time>2020-07-23T07:44:07Z</time>
      </trkpt>
      <trkpt lat="42.8453320" lon="1.6011510">
        <ele>483.2</ele>
        <time>2020-07-23T07:44:08Z</time>
      </trkpt>
      <trkpt lat="42.8453130" lon="1.6010220">
        <ele>483.6</ele>
        <time>2020-07-23T07:44:11Z</time>
      </trkpt>
      <trkpt lat="42.8453270" lon="1.6009730">
        <ele>483.6</ele>
        <time>2020-07-23T07:44:12Z</time>
      </trkpt>
      <trkpt lat="42.8453940" lon="1.6008920">
        <ele>483.4</ele>
        <time>2020-07-23T07:44:14Z</time>
      </trkpt>
      <trkpt lat="42.8454400" lon="1.6008640">
        <ele>483.4</ele>
        <time>2020-07-23T07:44:15Z</time>
      </trkpt>
      <trkpt lat="42.8454900" lon="1.6008370">
        <ele>483.2</ele>
        <time>2020-07-23T07:44:16Z</time>
      </trkpt>
      <trkpt lat="42.8457640" lon="1.6006840">
        <ele>483.0</ele>
        <time>2020-07-23T07:44:21Z</time>
      </trkpt>
      <trkpt lat="42.8459930" lon="1.6005090">
        <ele>482.2</ele>
        <time>2020-07-23T07:44:25Z</time>
      </trkpt>
      <trkpt lat="42.8461370" lon="1.6004130">
        <ele>481.2</ele>
        <time>2020-07-23T07:44:27Z</time>
      </trkpt>
      <trkpt lat="42.8462130" lon="1.6003680">
        <ele>480.8</ele>
        <time>2020-07-23T07:44:28Z</time>
      </trkpt>
      <trkpt lat="42.8464610" lon="1.6002210">
        <ele>479.4</ele>
        <time>2020-07-23T07:44:31Z</time>
      </trkpt>
      <trkpt lat="42.8465480" lon="1.6001720">
        <ele>478.8</ele>
        <time>2020-07-23T07:44:32Z</time>
      </trkpt>
      <trkpt lat="42.8466400" lon="1.6001270">
        <ele>478.0</ele>
        <time>2020-07-23T07:44:33Z</time>
      </trkpt>
      <trkpt lat="42.8468300" lon="1.6000420">
        <ele>477.0</ele>
        <time>2020-07-23T07:44:35Z</time>
      </trkpt>
      <trkpt lat="42.8470230" lon="1.5999710">
        <ele>476.0</ele>
        <time>2020-07-23T07:44:37Z</time>
      </trkpt>
      <trkpt lat="42.8471200" lon="1.5999440">
        <ele>475.4</ele>
        <time>2020-07-23T07:44:38Z</time>
      </trkpt>
      <trkpt lat="42.8473120" lon="1.5999020">
        <ele>474.4</ele>
        <time>2020-07-23T07:44:40Z</time>
      </trkpt>
      <trkpt lat="42.8475910" lon="1.5998590">
        <ele>474.2</ele>
        <time>2020-07-23T07:44:43Z</time>
      </trkpt>
      <trkpt lat="42.8480990" lon="1.5997810">
        <ele>474.8</ele>
        <time>2020-07-23T07:44:49Z</time>
      </trkpt>
      <trkpt lat="42.8481780" lon="1.5997670">
        <ele>474.8</ele>
        <time>2020-07-23T07:44:50Z</time>
      </trkpt>
      <trkpt lat="42.8486440" lon="1.5996970">
        <ele>474.8</ele>
        <time>2020-07-23T07:44:56Z</time>
      </trkpt>
      <trkpt lat="42.8488720" lon="1.5996680">
        <ele>474.6</ele>
        <time>2020-07-23T07:44:59Z</time>
      </trkpt>
      <trkpt lat="42.8489480" lon="1.5996590">
        <ele>474.6</ele>
        <time>2020-07-23T07:45:00Z</time>
      </trkpt>
      <trkpt lat="42.8491680" lon="1.5996260">
        <ele>475.0</ele>
        <time>2020-07-23T07:45:03Z</time>
      </trkpt>
      <trkpt lat="42.8495340" lon="1.5995670">
        <ele>475.2</ele>
        <time>2020-07-23T07:45:08Z</time>
      </trkpt>
      <trkpt lat="42.8499250" lon="1.5994240">
        <ele>474.6</ele>
        <time>2020-07-23T07:45:14Z</time>
      </trkpt>
      <trkpt lat="42.8499850" lon="1.5994060">
        <ele>474.8</ele>
        <time>2020-07-23T07:45:15Z</time>
      </trkpt>
      <trkpt lat="42.8500470" lon="1.5993860">
        <ele>474.8</ele>
        <time>2020-07-23T07:45:16Z</time>
      </trkpt>
      <trkpt lat="42.8501030" lon="1.5993570">
        <ele>474.8</ele>
        <time>2020-07-23T07:45:17Z</time>
      </trkpt>
      <trkpt lat="42.8501520" lon="1.5993150">
        <ele>475.0</ele>
        <time>2020-07-23T07:45:18Z</time>
      </trkpt>
      <trkpt lat="42.8501860" lon="1.5992590">
        <ele>475.0</ele>
        <time>2020-07-23T07:45:19Z</time>
      </trkpt>
      <trkpt lat="42.8502180" lon="1.5991040">
        <ele>475.0</ele>
        <time>2020-07-23T07:45:21Z</time>
      </trkpt>
      <trkpt lat="42.8502590" lon="1.5986970">
        <ele>475.4</ele>
        <time>2020-07-23T07:45:26Z</time>
      </trkpt>
      <trkpt lat="42.8502810" lon="1.5986250">
        <ele>475.8</ele>
        <time>2020-07-23T07:45:27Z</time>
      </trkpt>
      <trkpt lat="42.8503700" lon="1.5983430">
        <ele>476.6</ele>
        <time>2020-07-23T07:45:31Z</time>
      </trkpt>
      <trkpt lat="42.8503940" lon="1.5982730">
        <ele>476.8</ele>
        <time>2020-07-23T07:45:32Z</time>
      </trkpt>
      <trkpt lat="42.8504650" lon="1.5980620">
        <ele>477.2</ele>
        <time>2020-07-23T07:45:35Z</time>
      </trkpt>
      <trkpt lat="42.8504870" lon="1.5979910">
        <ele>477.4</ele>
        <time>2020-07-23T07:45:36Z</time>
      </trkpt>
      <trkpt lat="42.8505320" lon="1.5978480">
        <ele>477.6</ele>
        <time>2020-07-23T07:45:38Z</time>
      </trkpt>
      <trkpt lat="42.8505790" lon="1.5977070">
        <ele>478.0</ele>
        <time>2020-07-23T07:45:40Z</time>
      </trkpt>
      <trkpt lat="42.8506690" lon="1.5974320">
        <ele>478.8</ele>
        <time>2020-07-23T07:45:44Z</time>
      </trkpt>
      <trkpt lat="42.8507540" lon="1.5971580">
        <ele>479.4</ele>
        <time>2020-07-23T07:45:48Z</time>
      </trkpt>
      <trkpt lat="42.8508410" lon="1.5968820">
        <ele>479.8</ele>
        <time>2020-07-23T07:45:52Z</time>
      </trkpt>
      <trkpt lat="42.8509690" lon="1.5964650">
        <ele>480.8</ele>
        <time>2020-07-23T07:45:58Z</time>
      </trkpt>
      <trkpt lat="42.8510370" lon="1.5962650">
        <ele>481.0</ele>
        <time>2020-07-23T07:46:01Z</time>
      </trkpt>
      <trkpt lat="42.8511530" lon="1.5959460">
        <ele>481.6</ele>
        <time>2020-07-23T07:46:06Z</time>
      </trkpt>
      <trkpt lat="42.8511990" lon="1.5958210">
        <ele>481.8</ele>
        <time>2020-07-23T07:46:08Z</time>
      </trkpt>
      <trkpt lat="42.8512410" lon="1.5956930">
        <ele>482.0</ele>
        <time>2020-07-23T07:46:10Z</time>
      </trkpt>
      <trkpt lat="42.8513070" lon="1.5954970">
        <ele>482.4</ele>
        <time>2020-07-23T07:46:13Z</time>
      </trkpt>
      <trkpt lat="42.8514360" lon="1.5951120">
        <ele>483.0</ele>
        <time>2020-07-23T07:46:19Z</time>
      </trkpt>
      <trkpt lat="42.8514970" lon="1.5949190">
        <ele>483.4</ele>
        <time>2020-07-23T07:46:22Z</time>
      </trkpt>
      <trkpt lat="42.8515710" lon="1.5947430">
        <ele>484.2</ele>
        <time>2020-07-23T07:46:25Z</time>
      </trkpt>
      <trkpt lat="42.8516620" lon="1.5945080">
        <ele>484.4</ele>
        <time>2020-07-23T07:46:29Z</time>
      </trkpt>
      <trkpt lat="42.8517440" lon="1.5942770">
        <ele>485.4</ele>
        <time>2020-07-23T07:46:33Z</time>
      </trkpt>
      <trkpt lat="42.8518210" lon="1.5940790">
        <ele>486.6</ele>
        <time>2020-07-23T07:46:37Z</time>
      </trkpt>
      <trkpt lat="42.8518910" lon="1.5938990">
        <ele>487.8</ele>
        <time>2020-07-23T07:46:41Z</time>
      </trkpt>
      <trkpt lat="42.8519470" lon="1.5937680">
        <ele>488.4</ele>
        <time>2020-07-23T07:46:44Z</time>
      </trkpt>
      <trkpt lat="42.8519830" lon="1.5936720">
        <ele>488.8</ele>
        <time>2020-07-23T07:46:46Z</time>
      </trkpt>
      <trkpt lat="42.8520370" lon="1.5935210">
        <ele>489.6</ele>
        <time>2020-07-23T07:46:49Z</time>
      </trkpt>
      <trkpt lat="42.8520570" lon="1.5934690">
        <ele>489.8</ele>
        <time>2020-07-23T07:46:50Z</time>
      </trkpt>
      <trkpt lat="42.8520950" lon="1.5933630">
        <ele>490.2</ele>
        <time>2020-07-23T07:46:52Z</time>
      </trkpt>
      <trkpt lat="42.8521320" lon="1.5932520">
        <ele>490.6</ele>
        <time>2020-07-23T07:46:54Z</time>
      </trkpt>
      <trkpt lat="42.8521520" lon="1.5931980">
        <ele>490.8</ele>
        <time>2020-07-23T07:46:55Z</time>
      </trkpt>
      <trkpt lat="42.8521920" lon="1.5930880">
        <ele>491.0</ele>
        <time>2020-07-23T07:46:57Z</time>
      </trkpt>
      <trkpt lat="42.8522510" lon="1.5929110">
        <ele>491.4</ele>
        <time>2020-07-23T07:47:00Z</time>
      </trkpt>
      <trkpt lat="42.8523140" lon="1.5927390">
        <ele>491.6</ele>
        <time>2020-07-23T07:47:03Z</time>
      </trkpt>
      <trkpt lat="42.8523560" lon="1.5926240">
        <ele>491.6</ele>
        <time>2020-07-23T07:47:05Z</time>
      </trkpt>
      <trkpt lat="42.8524190" lon="1.5924450">
        <ele>492.0</ele>
        <time>2020-07-23T07:47:08Z</time>
      </trkpt>
      <trkpt lat="42.8525010" lon="1.5922050">
        <ele>492.4</ele>
        <time>2020-07-23T07:47:12Z</time>
      </trkpt>
      <trkpt lat="42.8526360" lon="1.5918570">
        <ele>493.0</ele>
        <time>2020-07-23T07:47:18Z</time>
      </trkpt>
      <trkpt lat="42.8526640" lon="1.5918130">
        <ele>493.2</ele>
        <time>2020-07-23T07:47:19Z</time>
      </trkpt>
      <trkpt lat="42.8527290" lon="1.5917370">
        <ele>493.6</ele>
        <time>2020-07-23T07:47:21Z</time>
      </trkpt>
      <trkpt lat="42.8528150" lon="1.5916870">
        <ele>494.0</ele>
        <time>2020-07-23T07:47:23Z</time>
      </trkpt>
      <trkpt lat="42.8528660" lon="1.5916700">
        <ele>494.2</ele>
        <time>2020-07-23T07:47:24Z</time>
      </trkpt>
      <trkpt lat="42.8529170" lon="1.5916560">
        <ele>494.2</ele>
        <time>2020-07-23T07:47:25Z</time>
      </trkpt>
      <trkpt lat="42.8530250" lon="1.5916090">
        <ele>494.0</ele>
        <time>2020-07-23T07:47:27Z</time>
      </trkpt>
      <trkpt lat="42.8531300" lon="1.5915290">
        <ele>493.6</ele>
        <time>2020-07-23T07:47:29Z</time>
      </trkpt>
      <trkpt lat="42.8532240" lon="1.5914160">
        <ele>493.2</ele>
        <time>2020-07-23T07:47:31Z</time>
      </trkpt>
      <trkpt lat="42.8532620" lon="1.5913450">
        <ele>493.0</ele>
        <time>2020-07-23T07:47:32Z</time>
      </trkpt>
      <trkpt lat="42.8532940" lon="1.5912650">
        <ele>493.0</ele>
        <time>2020-07-23T07:47:33Z</time>
      </trkpt>
      <trkpt lat="42.8533330" lon="1.5910850">
        <ele>492.8</ele>
        <time>2020-07-23T07:47:35Z</time>
      </trkpt>
      <trkpt lat="42.8533330" lon="1.5908990">
        <ele>492.8</ele>
        <time>2020-07-23T07:47:37Z</time>
      </trkpt>
      <trkpt lat="42.8533010" lon="1.5907210">
        <ele>492.6</ele>
        <time>2020-07-23T07:47:39Z</time>
      </trkpt>
      <trkpt lat="42.8532390" lon="1.5905650">
        <ele>492.6</ele>
        <time>2020-07-23T07:47:41Z</time>
      </trkpt>
      <trkpt lat="42.8531530" lon="1.5904360">
        <ele>493.0</ele>
        <time>2020-07-23T07:47:43Z</time>
      </trkpt>
      <trkpt lat="42.8530810" lon="1.5903060">
        <ele>493.4</ele>
        <time>2020-07-23T07:47:45Z</time>
      </trkpt>
      <trkpt lat="42.8530720" lon="1.5901570">
        <ele>493.6</ele>
        <time>2020-07-23T07:47:47Z</time>
      </trkpt>
      <trkpt lat="42.8530830" lon="1.5900820">
        <ele>493.8</ele>
        <time>2020-07-23T07:47:48Z</time>
      </trkpt>
      <trkpt lat="42.8531030" lon="1.5900110">
        <ele>494.0</ele>
        <time>2020-07-23T07:47:49Z</time>
      </trkpt>
      <trkpt lat="42.8531910" lon="1.5898210">
        <ele>494.6</ele>
        <time>2020-07-23T07:47:52Z</time>
      </trkpt>
      <trkpt lat="42.8533910" lon="1.5894460">
        <ele>494.8</ele>
        <time>2020-07-23T07:47:58Z</time>
      </trkpt>
      <trkpt lat="42.8534530" lon="1.5893160">
        <ele>495.0</ele>
        <time>2020-07-23T07:48:00Z</time>
      </trkpt>
      <trkpt lat="42.8534800" lon="1.5892460">
        <ele>495.2</ele>
        <time>2020-07-23T07:48:01Z</time>
      </trkpt>
      <trkpt lat="42.8535770" lon="1.5889570">
        <ele>495.4</ele>
        <time>2020-07-23T07:48:05Z</time>
      </trkpt>
      <trkpt lat="42.8536530" lon="1.5887480">
        <ele>495.8</ele>
        <time>2020-07-23T07:48:08Z</time>
      </trkpt>
      <trkpt lat="42.8537010" lon="1.5886100">
        <ele>496.2</ele>
        <time>2020-07-23T07:48:10Z</time>
      </trkpt>
      <trkpt lat="42.8538280" lon="1.5882310">
        <ele>497.2</ele>
        <time>2020-07-23T07:48:16Z</time>
      </trkpt>
      <trkpt lat="42.8539180" lon="1.5879430">
        <ele>498.4</ele>
        <time>2020-07-23T07:48:21Z</time>
      </trkpt>
      <trkpt lat="42.8539570" lon="1.5878380">
        <ele>499.0</ele>
        <time>2020-07-23T07:48:23Z</time>
      </trkpt>
      <trkpt lat="42.8539970" lon="1.5877280">
        <ele>499.4</ele>
        <time>2020-07-23T07:48:25Z</time>
      </trkpt>
      <trkpt lat="42.8541170" lon="1.5873670">
        <ele>500.0</ele>
        <time>2020-07-23T07:48:31Z</time>
      </trkpt>
      <trkpt lat="42.8541410" lon="1.5873040">
        <ele>500.0</ele>
        <time>2020-07-23T07:48:32Z</time>
      </trkpt>
      <trkpt lat="42.8542460" lon="1.5870100">
        <ele>499.6</ele>
        <time>2020-07-23T07:48:36Z</time>
      </trkpt>
      <trkpt lat="42.8542780" lon="1.5869310">
        <ele>499.4</ele>
        <time>2020-07-23T07:48:37Z</time>
      </trkpt>
      <trkpt lat="42.8543070" lon="1.5868470">
        <ele>499.2</ele>
        <time>2020-07-23T07:48:38Z</time>
      </trkpt>
      <trkpt lat="42.8543970" lon="1.5865860">
        <ele>499.2</ele>
        <time>2020-07-23T07:48:41Z</time>
      </trkpt>
      <trkpt lat="42.8544950" lon="1.5863250">
        <ele>499.2</ele>
        <time>2020-07-23T07:48:44Z</time>
      </trkpt>
      <trkpt lat="42.8547380" lon="1.5858990">
        <ele>499.6</ele>
        <time>2020-07-23T07:48:50Z</time>
      </trkpt>
      <trkpt lat="42.8549180" lon="1.5856220">
        <ele>499.8</ele>
        <time>2020-07-23T07:48:54Z</time>
      </trkpt>
      <trkpt lat="42.8550540" lon="1.5854240">
        <ele>500.2</ele>
        <time>2020-07-23T07:48:57Z</time>
      </trkpt>
      <trkpt lat="42.8551890" lon="1.5852230">
        <ele>500.4</ele>
        <time>2020-07-23T07:49:00Z</time>
      </trkpt>
      <trkpt lat="42.8554750" lon="1.5848310">
        <ele>500.4</ele>
        <time>2020-07-23T07:49:06Z</time>
      </trkpt>
      <trkpt lat="42.8556190" lon="1.5846400">
        <ele>500.2</ele>
        <time>2020-07-23T07:49:09Z</time>
      </trkpt>
      <trkpt lat="42.8559160" lon="1.5843120">
        <ele>500.4</ele>
        <time>2020-07-23T07:49:15Z</time>
      </trkpt>
      <trkpt lat="42.8559700" lon="1.5842790">
        <ele>500.6</ele>
        <time>2020-07-23T07:49:16Z</time>
      </trkpt>
      <trkpt lat="42.8561310" lon="1.5842140">
        <ele>501.8</ele>
        <time>2020-07-23T07:49:19Z</time>
      </trkpt>
      <trkpt lat="42.8561830" lon="1.5841920">
        <ele>502.2</ele>
        <time>2020-07-23T07:49:20Z</time>
      </trkpt>
      <trkpt lat="42.8562770" lon="1.5841410">
        <ele>502.6</ele>
        <time>2020-07-23T07:49:22Z</time>
      </trkpt>
      <trkpt lat="42.8563650" lon="1.5840570">
        <ele>502.8</ele>
        <time>2020-07-23T07:49:24Z</time>
      </trkpt>
      <trkpt lat="42.8564060" lon="1.5840060">
        <ele>502.8</ele>
        <time>2020-07-23T07:49:25Z</time>
      </trkpt>
      <trkpt lat="42.8565860" lon="1.5836900">
        <ele>503.8</ele>
        <time>2020-07-23T07:49:31Z</time>
      </trkpt>
      <trkpt lat="42.8566060" lon="1.5836460">
        <ele>504.2</ele>
        <time>2020-07-23T07:49:32Z</time>
      </trkpt>
      <trkpt lat="42.8567330" lon="1.5834070">
        <ele>504.8</ele>
        <time>2020-07-23T07:49:37Z</time>
      </trkpt>
      <trkpt lat="42.8567890" lon="1.5833270">
        <ele>505.4</ele>
        <time>2020-07-23T07:49:39Z</time>
      </trkpt>
      <trkpt lat="42.8568770" lon="1.5832300">
        <ele>506.4</ele>
        <time>2020-07-23T07:49:42Z</time>
      </trkpt>
      <trkpt lat="42.8569480" lon="1.5831910">
        <ele>506.8</ele>
        <time>2020-07-23T07:49:44Z</time>
      </trkpt>
      <trkpt lat="42.8570520" lon="1.5831550">
        <ele>507.8</ele>
        <time>2020-07-23T07:49:47Z</time>
      </trkpt>
      <trkpt lat="42.8571530" lon="1.5831380">
        <ele>509.0</ele>
        <time>2020-07-23T07:49:50Z</time>
      </trkpt>
      <trkpt lat="42.8571830" lon="1.5831330">
        <ele>509.2</ele>
        <time>2020-07-23T07:49:51Z</time>
      </trkpt>
      <trkpt lat="42.8573060" lon="1.5831190">
        <ele>510.0</ele>
        <time>2020-07-23T07:49:55Z</time>
      </trkpt>
      <trkpt lat="42.8574500" lon="1.5830860">
        <ele>511.2</ele>
        <time>2020-07-23T07:50:00Z</time>
      </trkpt>
      <trkpt lat="42.8574770" lon="1.5830740">
        <ele>511.4</ele>
        <time>2020-07-23T07:50:01Z</time>
      </trkpt>
      <trkpt lat="42.8575600" lon="1.5830220">
        <ele>512.0</ele>
        <time>2020-07-23T07:50:04Z</time>
      </trkpt>
      <trkpt lat="42.8575860" lon="1.5830000">
        <ele>512.2</ele>
        <time>2020-07-23T07:50:05Z</time>
      </trkpt>
      <trkpt lat="42.8576100" lon="1.5829720">
        <ele>512.4</ele>
        <time>2020-07-23T07:50:06Z</time>
      </trkpt>
      <trkpt lat="42.8576550" lon="1.5829080">
        <ele>512.6</ele>
        <time>2020-07-23T07:50:08Z</time>
      </trkpt>
      <trkpt lat="42.8577160" lon="1.5828100">
        <ele>513.4</ele>
        <time>2020-07-23T07:50:11Z</time>
      </trkpt>
      <trkpt lat="42.8577320" lon="1.5827750">
        <ele>513.4</ele>
        <time>2020-07-23T07:50:12Z</time>
      </trkpt>
      <trkpt lat="42.8577790" lon="1.5826180">
        <ele>514.2</ele>
        <time>2020-07-23T07:50:16Z</time>
      </trkpt>
      <trkpt lat="42.8578030" lon="1.5825370">
        <ele>514.6</ele>
        <time>2020-07-23T07:50:18Z</time>
      </trkpt>
      <trkpt lat="42.8578620" lon="1.5823230">
        <ele>515.6</ele>
        <time>2020-07-23T07:50:23Z</time>
      </trkpt>
      <trkpt lat="42.8578740" lon="1.5822800">
        <ele>515.8</ele>
        <time>2020-07-23T07:50:24Z</time>
      </trkpt>
      <trkpt lat="42.8579520" lon="1.5820250">
        <ele>516.6</ele>
        <time>2020-07-23T07:50:30Z</time>
      </trkpt>
      <trkpt lat="42.8579810" lon="1.5819480">
        <ele>517.0</ele>
        <time>2020-07-23T07:50:32Z</time>
      </trkpt>
      <trkpt lat="42.8580290" lon="1.5818390">
        <ele>517.8</ele>
        <time>2020-07-23T07:50:35Z</time>
      </trkpt>
      <trkpt lat="42.8580930" lon="1.5816890">
        <ele>519.0</ele>
        <time>2020-07-23T07:50:39Z</time>
      </trkpt>
      <trkpt lat="42.8581590" lon="1.5815280">
        <ele>519.8</ele>
        <time>2020-07-23T07:50:43Z</time>
      </trkpt>
      <trkpt lat="42.8581760" lon="1.5814880">
        <ele>520.0</ele>
        <time>2020-07-23T07:50:44Z</time>
      </trkpt>
      <trkpt lat="42.8582100" lon="1.5814130">
        <ele>520.4</ele>
        <time>2020-07-23T07:50:46Z</time>
      </trkpt>
      <trkpt lat="42.8582290" lon="1.5813770">
        <ele>520.6</ele>
        <time>2020-07-23T07:50:47Z</time>
      </trkpt>
      <trkpt lat="42.8583100" lon="1.5811760">
        <ele>521.0</ele>
        <time>2020-07-23T07:50:52Z</time>
      </trkpt>
      <trkpt lat="42.8583590" lon="1.5810590">
        <ele>521.8</ele>
        <time>2020-07-23T07:50:55Z</time>
      </trkpt>
      <trkpt lat="42.8583880" lon="1.5809750">
        <ele>522.2</ele>
        <time>2020-07-23T07:50:57Z</time>
      </trkpt>
      <trkpt lat="42.8584330" lon="1.5808550">
        <ele>522.8</ele>
        <time>2020-07-23T07:51:00Z</time>
      </trkpt>
      <trkpt lat="42.8584640" lon="1.5807750">
        <ele>523.4</ele>
        <time>2020-07-23T07:51:02Z</time>
      </trkpt>
      <trkpt lat="42.8585270" lon="1.5806160">
        <ele>524.4</ele>
        <time>2020-07-23T07:51:06Z</time>
      </trkpt>
      <trkpt lat="42.8585640" lon="1.5804900">
        <ele>525.0</ele>
        <time>2020-07-23T07:51:09Z</time>
      </trkpt>
      <trkpt lat="42.8585830" lon="1.5804090">
        <ele>525.4</ele>
        <time>2020-07-23T07:51:11Z</time>
      </trkpt>
      <trkpt lat="42.8586200" lon="1.5801900">
        <ele>526.4</ele>
        <time>2020-07-23T07:51:16Z</time>
      </trkpt>
      <trkpt lat="42.8586260" lon="1.5801440">
        <ele>526.6</ele>
        <time>2020-07-23T07:51:17Z</time>
      </trkpt>
      <trkpt lat="42.8586350" lon="1.5799100">
        <ele>527.4</ele>
        <time>2020-07-23T07:51:22Z</time>
      </trkpt>
      <trkpt lat="42.8586370" lon="1.5798650">
        <ele>527.6</ele>
        <time>2020-07-23T07:51:23Z</time>
      </trkpt>
      <trkpt lat="42.8586480" lon="1.5796490">
        <ele>528.8</ele>
        <time>2020-07-23T07:51:28Z</time>
      </trkpt>
      <trkpt lat="42.8586510" lon="1.5795190">
        <ele>529.6</ele>
        <time>2020-07-23T07:51:31Z</time>
      </trkpt>
      <trkpt lat="42.8586510" lon="1.5794760">
        <ele>529.8</ele>
        <time>2020-07-23T07:51:32Z</time>
      </trkpt>
      <trkpt lat="42.8586690" lon="1.5792740">
        <ele>530.8</ele>
        <time>2020-07-23T07:51:37Z</time>
      </trkpt>
      <trkpt lat="42.8586790" lon="1.5790780">
        <ele>532.0</ele>
        <time>2020-07-23T07:51:42Z</time>
      </trkpt>
      <trkpt lat="42.8586910" lon="1.5789540">
        <ele>532.4</ele>
        <time>2020-07-23T07:51:45Z</time>
      </trkpt>
      <trkpt lat="42.8586930" lon="1.5789170">
        <ele>532.6</ele>
        <time>2020-07-23T07:51:46Z</time>
      </trkpt>
      <trkpt lat="42.8586960" lon="1.5788790">
        <ele>532.8</ele>
        <time>2020-07-23T07:51:47Z</time>
      </trkpt>
      <trkpt lat="42.8587010" lon="1.5788320">
        <ele>533.0</ele>
        <time>2020-07-23T07:51:48Z</time>
      </trkpt>
      <trkpt lat="42.8587310" lon="1.5785540">
        <ele>534.0</ele>
        <time>2020-07-23T07:51:54Z</time>
      </trkpt>
      <trkpt lat="42.8587590" lon="1.5783280">
        <ele>535.2</ele>
        <time>2020-07-23T07:51:59Z</time>
      </trkpt>
      <trkpt lat="42.8587460" lon="1.5782000">
        <ele>536.0</ele>
        <time>2020-07-23T07:52:02Z</time>
      </trkpt>
      <trkpt lat="42.8587360" lon="1.5781570">
        <ele>536.4</ele>
        <time>2020-07-23T07:52:03Z</time>
      </trkpt>
      <trkpt lat="42.8586450" lon="1.5779100">
        <ele>537.4</ele>
        <time>2020-07-23T07:52:09Z</time>
      </trkpt>
      <trkpt lat="42.8586290" lon="1.5778670">
        <ele>537.4</ele>
        <time>2020-07-23T07:52:10Z</time>
      </trkpt>
      <trkpt lat="42.8585410" lon="1.5776130">
        <ele>538.8</ele>
        <time>2020-07-23T07:52:16Z</time>
      </trkpt>
      <trkpt lat="42.8585310" lon="1.5775240">
        <ele>539.2</ele>
        <time>2020-07-23T07:52:18Z</time>
      </trkpt>
      <trkpt lat="42.8585330" lon="1.5774340">
        <ele>540.0</ele>
        <time>2020-07-23T07:52:20Z</time>
      </trkpt>
      <trkpt lat="42.8585440" lon="1.5773450">
        <ele>540.4</ele>
        <time>2020-07-23T07:52:22Z</time>
      </trkpt>
      <trkpt lat="42.8585760" lon="1.5772220">
        <ele>541.0</ele>
        <time>2020-07-23T07:52:25Z</time>
      </trkpt>
      <trkpt lat="42.8586350" lon="1.5771050">
        <ele>541.6</ele>
        <time>2020-07-23T07:52:28Z</time>
      </trkpt>
      <trkpt lat="42.8586970" lon="1.5769910">
        <ele>542.2</ele>
        <time>2020-07-23T07:52:31Z</time>
      </trkpt>
      <trkpt lat="42.8588180" lon="1.5767680">
        <ele>543.0</ele>
        <time>2020-07-23T07:52:37Z</time>
      </trkpt>
      <trkpt lat="42.8588370" lon="1.5767340">
        <ele>543.2</ele>
        <time>2020-07-23T07:52:38Z</time>
      </trkpt>
      <trkpt lat="42.8588760" lon="1.5766630">
        <ele>543.6</ele>
        <time>2020-07-23T07:52:40Z</time>
      </trkpt>
      <trkpt lat="42.8589160" lon="1.5765940">
        <ele>544.4</ele>
        <time>2020-07-23T07:52:42Z</time>
      </trkpt>
      <trkpt lat="42.8590280" lon="1.5764280">
        <ele>545.2</ele>
        <time>2020-07-23T07:52:47Z</time>
      </trkpt>
      <trkpt lat="42.8590540" lon="1.5764010">
        <ele>545.4</ele>
        <time>2020-07-23T07:52:48Z</time>
      </trkpt>
      <trkpt lat="42.8591410" lon="1.5763480">
        <ele>546.0</ele>
        <time>2020-07-23T07:52:51Z</time>
      </trkpt>
      <trkpt lat="42.8592030" lon="1.5763160">
        <ele>546.4</ele>
        <time>2020-07-23T07:52:53Z</time>
      </trkpt>
      <trkpt lat="42.8592340" lon="1.5763010">
        <ele>546.6</ele>
        <time>2020-07-23T07:52:54Z</time>
      </trkpt>
      <trkpt lat="42.8592660" lon="1.5762870">
        <ele>546.8</ele>
        <time>2020-07-23T07:52:55Z</time>
      </trkpt>
      <trkpt lat="42.8592960" lon="1.5762720">
        <ele>547.2</ele>
        <time>2020-07-23T07:52:56Z</time>
      </trkpt>
      <trkpt lat="42.8593250" lon="1.5762600">
        <ele>547.4</ele>
        <time>2020-07-23T07:52:57Z</time>
      </trkpt>
      <trkpt lat="42.8593480" lon="1.5762410">
        <ele>547.6</ele>
        <time>2020-07-23T07:52:58Z</time>
      </trkpt>
      <trkpt lat="42.8593660" lon="1.5762080">
        <ele>547.6</ele>
        <time>2020-07-23T07:52:59Z</time>
      </trkpt>
      <trkpt lat="42.8593780" lon="1.5760790">
        <ele>548.0</ele>
        <time>2020-07-23T07:53:02Z</time>
      </trkpt>
      <trkpt lat="42.8604220" lon="1.5728320">
        <ele>560.6</ele>
        <time>2020-07-23T07:56:50Z</time>
      </trkpt>
      <trkpt lat="42.8604480" lon="1.5728090">
        <ele>560.4</ele>
        <time>2020-07-23T07:56:51Z</time>
      </trkpt>
      <trkpt lat="42.8605390" lon="1.5727330">
        <ele>560.4</ele>
        <time>2020-07-23T07:56:54Z</time>
      </trkpt>
      <trkpt lat="42.8606110" lon="1.5726700">
        <ele>560.2</ele>
        <time>2020-07-23T07:56:56Z</time>
      </trkpt>
      <trkpt lat="42.8606490" lon="1.5726360">
        <ele>560.2</ele>
        <time>2020-07-23T07:56:57Z</time>
      </trkpt>
      <trkpt lat="42.8607320" lon="1.5725610">
        <ele>560.0</ele>
        <time>2020-07-23T07:56:59Z</time>
      </trkpt>
      <trkpt lat="42.8608230" lon="1.5724890">
        <ele>559.8</ele>
        <time>2020-07-23T07:57:01Z</time>
      </trkpt>
      <trkpt lat="42.8608700" lon="1.5724500">
        <ele>559.6</ele>
        <time>2020-07-23T07:57:02Z</time>
      </trkpt>
      <trkpt lat="42.8609650" lon="1.5723700">
        <ele>559.2</ele>
        <time>2020-07-23T07:57:04Z</time>
      </trkpt>
      <trkpt lat="42.8610600" lon="1.5722900">
        <ele>558.8</ele>
        <time>2020-07-23T07:57:06Z</time>
      </trkpt>
      <trkpt lat="42.8611050" lon="1.5722510">
        <ele>558.4</ele>
        <time>2020-07-23T07:57:07Z</time>
      </trkpt>
      <trkpt lat="42.8613300" lon="1.5720440">
        <ele>558.2</ele>
        <time>2020-07-23T07:57:12Z</time>
      </trkpt>
      <trkpt lat="42.8615070" lon="1.5718940">
        <ele>558.4</ele>
        <time>2020-07-23T07:57:16Z</time>
      </trkpt>
      <trkpt lat="42.8616700" lon="1.5717500">
        <ele>558.6</ele>
        <time>2020-07-23T07:57:20Z</time>
      </trkpt>
      <trkpt lat="42.8617460" lon="1.5716800">
        <ele>559.0</ele>
        <time>2020-07-23T07:57:22Z</time>
      </trkpt>
      <trkpt lat="42.8618220" lon="1.5716120">
        <ele>559.8</ele>
        <time>2020-07-23T07:57:24Z</time>
      </trkpt>
      <trkpt lat="42.8620040" lon="1.5714570">
        <ele>560.6</ele>
        <time>2020-07-23T07:57:29Z</time>
      </trkpt>
      <trkpt lat="42.8620410" lon="1.5714270">
        <ele>560.8</ele>
        <time>2020-07-23T07:57:30Z</time>
      </trkpt>
      <trkpt lat="42.8621790" lon="1.5713070">
        <ele>561.8</ele>
        <time>2020-07-23T07:57:34Z</time>
      </trkpt>
      <trkpt lat="42.8622120" lon="1.5712780">
        <ele>562.0</ele>
        <time>2020-07-23T07:57:35Z</time>
      </trkpt>
      <trkpt lat="42.8623490" lon="1.5711500">
        <ele>562.8</ele>
        <time>2020-07-23T07:57:40Z</time>
      </trkpt>
      <trkpt lat="42.8623770" lon="1.5711270">
        <ele>562.8</ele>
        <time>2020-07-23T07:57:41Z</time>
      </trkpt>
      <trkpt lat="42.8624060" lon="1.5711050">
        <ele>563.2</ele>
        <time>2020-07-23T07:57:42Z</time>
      </trkpt>
      <trkpt lat="42.8625980" lon="1.5709560">
        <ele>563.8</ele>
        <time>2020-07-23T07:57:48Z</time>
      </trkpt>
      <trkpt lat="42.8627290" lon="1.5708350">
        <ele>564.2</ele>
        <time>2020-07-23T07:57:52Z</time>
      </trkpt>
      <trkpt lat="42.8628370" lon="1.5707510">
        <ele>564.6</ele>
        <time>2020-07-23T07:57:55Z</time>
      </trkpt>
      <trkpt lat="42.8630410" lon="1.5705720">
        <ele>565.2</ele>
        <time>2020-07-23T07:58:01Z</time>
      </trkpt>
      <trkpt lat="42.8630810" lon="1.5705370">
        <ele>565.4</ele>
        <time>2020-07-23T07:58:02Z</time>
      </trkpt>
      <trkpt lat="42.8633010" lon="1.5703440">
        <ele>566.0</ele>
        <time>2020-07-23T07:58:08Z</time>
      </trkpt>
      <trkpt lat="42.8633800" lon="1.5702790">
        <ele>566.2</ele>
        <time>2020-07-23T07:58:10Z</time>
      </trkpt>
      <trkpt lat="42.8634570" lon="1.5702080">
        <ele>566.4</ele>
        <time>2020-07-23T07:58:12Z</time>
      </trkpt>
      <trkpt lat="42.8635750" lon="1.5700990">
        <ele>566.6</ele>
        <time>2020-07-23T07:58:15Z</time>
      </trkpt>
      <trkpt lat="42.8636150" lon="1.5700640">
        <ele>566.6</ele>
        <time>2020-07-23T07:58:16Z</time>
      </trkpt>
      <trkpt lat="42.8636580" lon="1.5700320">
        <ele>566.6</ele>
        <time>2020-07-23T07:58:17Z</time>
      </trkpt>
      <trkpt lat="42.8639200" lon="1.5698190">
        <ele>566.8</ele>
        <time>2020-07-23T07:58:23Z</time>
      </trkpt>
      <trkpt lat="42.8640620" lon="1.5697290">
        <ele>567.0</ele>
        <time>2020-07-23T07:58:26Z</time>
      </trkpt>
      <trkpt lat="42.8643300" lon="1.5695430">
        <ele>567.4</ele>
        <time>2020-07-23T07:58:32Z</time>
      </trkpt>
      <trkpt lat="42.8644210" lon="1.5694910">
        <ele>567.6</ele>
        <time>2020-07-23T07:58:34Z</time>
      </trkpt>
      <trkpt lat="42.8646620" lon="1.5693520">
        <ele>568.8</ele>
        <time>2020-07-23T07:58:40Z</time>
      </trkpt>
      <trkpt lat="42.8647020" lon="1.5693300">
        <ele>569.0</ele>
        <time>2020-07-23T07:58:41Z</time>
      </trkpt>
      <trkpt lat="42.8648690" lon="1.5692610">
        <ele>569.8</ele>
        <time>2020-07-23T07:58:45Z</time>
      </trkpt>
      <trkpt lat="42.8650420" lon="1.5692100">
        <ele>569.8</ele>
        <time>2020-07-23T07:58:49Z</time>
      </trkpt>
      <trkpt lat="42.8653120" lon="1.5690970">
        <ele>570.0</ele>
        <time>2020-07-23T07:58:55Z</time>
      </trkpt>
      <trkpt lat="42.8653590" lon="1.5690760">
        <ele>570.0</ele>
        <time>2020-07-23T07:58:56Z</time>
      </trkpt>
      <trkpt lat="42.8655250" lon="1.5690030">
        <ele>570.0</ele>
        <time>2020-07-23T07:59:00Z</time>
      </trkpt>
      <trkpt lat="42.8656030" lon="1.5689690">
        <ele>570.2</ele>
        <time>2020-07-23T07:59:02Z</time>
      </trkpt>
      <trkpt lat="42.8657510" lon="1.5688920">
        <ele>571.0</ele>
        <time>2020-07-23T07:59:06Z</time>
      </trkpt>
      <trkpt lat="42.8658890" lon="1.5688220">
        <ele>571.6</ele>
        <time>2020-07-23T07:59:10Z</time>
      </trkpt>
      <trkpt lat="42.8659210" lon="1.5688030">
        <ele>572.0</ele>
        <time>2020-07-23T07:59:11Z</time>
      </trkpt>
      <trkpt lat="42.8660130" lon="1.5687710">
        <ele>573.0</ele>
        <time>2020-07-23T07:59:14Z</time>
      </trkpt>
      <trkpt lat="42.8661050" lon="1.5687410">
        <ele>573.6</ele>
        <time>2020-07-23T07:59:17Z</time>
      </trkpt>
      <trkpt lat="42.8661660" lon="1.5687290">
        <ele>574.0</ele>
        <time>2020-07-23T07:59:19Z</time>
      </trkpt>
      <trkpt lat="42.8662580" lon="1.5687000">
        <ele>575.2</ele>
        <time>2020-07-23T07:59:22Z</time>
      </trkpt>
      <trkpt lat="42.8663750" lon="1.5686590">
        <ele>575.8</ele>
        <time>2020-07-23T07:59:26Z</time>
      </trkpt>
      <trkpt lat="42.8664340" lon="1.5686360">
        <ele>576.2</ele>
        <time>2020-07-23T07:59:28Z</time>
      </trkpt>
      <trkpt lat="42.8664970" lon="1.5686120">
        <ele>576.8</ele>
        <time>2020-07-23T07:59:30Z</time>
      </trkpt>
      <trkpt lat="42.8665300" lon="1.5685980">
        <ele>577.0</ele>
        <time>2020-07-23T07:59:31Z</time>
      </trkpt>
      <trkpt lat="42.8665920" lon="1.5685670">
        <ele>577.6</ele>
        <time>2020-07-23T07:59:33Z</time>
      </trkpt>
      <trkpt lat="42.8666760" lon="1.5685320">
        <ele>578.6</ele>
        <time>2020-07-23T07:59:36Z</time>
      </trkpt>
      <trkpt lat="42.8667310" lon="1.5685110">
        <ele>579.4</ele>
        <time>2020-07-23T07:59:38Z</time>
      </trkpt>
      <trkpt lat="42.8667550" lon="1.5684990">
        <ele>579.8</ele>
        <time>2020-07-23T07:59:39Z</time>
      </trkpt>
      <trkpt lat="42.8668800" lon="1.5684230">
        <ele>581.0</ele>
        <time>2020-07-23T07:59:44Z</time>
      </trkpt>
      <trkpt lat="42.8669100" lon="1.5684080">
        <ele>581.0</ele>
        <time>2020-07-23T07:59:45Z</time>
      </trkpt>
      <trkpt lat="42.8670190" lon="1.5683440">
        <ele>581.6</ele>
        <time>2020-07-23T07:59:49Z</time>
      </trkpt>
      <trkpt lat="42.8670820" lon="1.5683090">
        <ele>582.0</ele>
        <time>2020-07-23T07:59:51Z</time>
      </trkpt>
      <trkpt lat="42.8671090" lon="1.5682910">
        <ele>582.4</ele>
        <time>2020-07-23T07:59:52Z</time>
      </trkpt>
      <trkpt lat="42.8671920" lon="1.5682460">
        <ele>583.4</ele>
        <time>2020-07-23T07:59:55Z</time>
      </trkpt>
      <trkpt lat="42.8672460" lon="1.5682120">
        <ele>583.8</ele>
        <time>2020-07-23T07:59:57Z</time>
      </trkpt>
      <trkpt lat="42.8673260" lon="1.5681620">
        <ele>584.4</ele>
        <time>2020-07-23T08:00:00Z</time>
      </trkpt>
      <trkpt lat="42.8674610" lon="1.5680870">
        <ele>585.6</ele>
        <time>2020-07-23T08:00:05Z</time>
      </trkpt>
      <trkpt lat="42.8675630" lon="1.5680340">
        <ele>586.4</ele>
        <time>2020-07-23T08:00:09Z</time>
      </trkpt>
      <trkpt lat="42.8675890" lon="1.5680210">
        <ele>586.6</ele>
        <time>2020-07-23T08:00:10Z</time>
      </trkpt>
      <trkpt lat="42.8677560" lon="1.5679580">
        <ele>587.8</ele>
        <time>2020-07-23T08:00:16Z</time>
      </trkpt>
      <trkpt lat="42.8677860" lon="1.5679550">
        <ele>588.0</ele>
        <time>2020-07-23T08:00:17Z</time>
      </trkpt>
      <trkpt lat="42.8678430" lon="1.5679530">
        <ele>588.4</ele>
        <time>2020-07-23T08:00:19Z</time>
      </trkpt>
      <trkpt lat="42.8679000" lon="1.5679600">
        <ele>588.8</ele>
        <time>2020-07-23T08:00:21Z</time>
      </trkpt>
      <trkpt lat="42.8679740" lon="1.5679830">
        <ele>589.6</ele>
        <time>2020-07-23T08:00:24Z</time>
      </trkpt>
      <trkpt lat="42.8680230" lon="1.5680030">
        <ele>590.0</ele>
        <time>2020-07-23T08:00:26Z</time>
      </trkpt>
      <trkpt lat="42.8681790" lon="1.5680390">
        <ele>591.0</ele>
        <time>2020-07-23T08:00:32Z</time>
      </trkpt>
      <trkpt lat="42.8682940" lon="1.5680550">
        <ele>592.4</ele>
        <time>2020-07-23T08:00:36Z</time>
      </trkpt>
      <trkpt lat="42.8683760" lon="1.5680550">
        <ele>593.0</ele>
        <time>2020-07-23T08:00:39Z</time>
      </trkpt>
      <trkpt lat="42.8684290" lon="1.5680470">
        <ele>593.4</ele>
        <time>2020-07-23T08:00:41Z</time>
      </trkpt>
      <trkpt lat="42.8685260" lon="1.5680340">
        <ele>594.6</ele>
        <time>2020-07-23T08:00:45Z</time>
      </trkpt>
      <trkpt lat="42.8685730" lon="1.5680200">
        <ele>595.2</ele>
        <time>2020-07-23T08:00:47Z</time>
      </trkpt>
      <trkpt lat="42.8686200" lon="1.5679950">
        <ele>595.8</ele>
        <time>2020-07-23T08:00:49Z</time>
      </trkpt>
      <trkpt lat="42.8686440" lon="1.5679840">
        <ele>596.0</ele>
        <time>2020-07-23T08:00:50Z</time>
      </trkpt>
      <trkpt lat="42.8686680" lon="1.5679760">
        <ele>596.2</ele>
        <time>2020-07-23T08:00:51Z</time>
      </trkpt>
      <trkpt lat="42.8687180" lon="1.5679700">
        <ele>596.8</ele>
        <time>2020-07-23T08:00:53Z</time>
      </trkpt>
      <trkpt lat="42.8687450" lon="1.5679650">
        <ele>597.2</ele>
        <time>2020-07-23T08:00:54Z</time>
      </trkpt>
      <trkpt lat="42.8688170" lon="1.5679530">
        <ele>598.0</ele>
        <time>2020-07-23T08:00:57Z</time>
      </trkpt>
      <trkpt lat="42.8688830" lon="1.5679550">
        <ele>598.8</ele>
        <time>2020-07-23T08:01:00Z</time>
      </trkpt>
      <trkpt lat="42.8689020" lon="1.5679550">
        <ele>599.2</ele>
        <time>2020-07-23T08:01:01Z</time>
      </trkpt>
      <trkpt lat="42.8689560" lon="1.5679550">
        <ele>599.6</ele>
        <time>2020-07-23T08:01:04Z</time>
      </trkpt>
      <trkpt lat="42.8690020" lon="1.5679450">
        <ele>600.0</ele>
        <time>2020-07-23T08:01:06Z</time>
      </trkpt>
      <trkpt lat="42.8690290" lon="1.5679420">
        <ele>600.2</ele>
        <time>2020-07-23T08:01:07Z</time>
      </trkpt>
      <trkpt lat="42.8691630" lon="1.5679230">
        <ele>601.4</ele>
        <time>2020-07-23T08:01:12Z</time>
      </trkpt>
      <trkpt lat="42.8692950" lon="1.5678870">
        <ele>602.4</ele>
        <time>2020-07-23T08:01:17Z</time>
      </trkpt>
      <trkpt lat="42.8693210" lon="1.5678790">
        <ele>602.6</ele>
        <time>2020-07-23T08:01:18Z</time>
      </trkpt>
      <trkpt lat="42.8694010" lon="1.5678550">
        <ele>603.0</ele>
        <time>2020-07-23T08:01:21Z</time>
      </trkpt>
      <trkpt lat="42.8694540" lon="1.5678420">
        <ele>603.6</ele>
        <time>2020-07-23T08:01:23Z</time>
      </trkpt>
      <trkpt lat="42.8695810" lon="1.5678020">
        <ele>604.4</ele>
        <time>2020-07-23T08:01:28Z</time>
      </trkpt>
      <trkpt lat="42.8696050" lon="1.5677910">
        <ele>604.6</ele>
        <time>2020-07-23T08:01:29Z</time>
      </trkpt>
      <trkpt lat="42.8696980" lon="1.5677580">
        <ele>605.6</ele>
        <time>2020-07-23T08:01:33Z</time>
      </trkpt>
      <trkpt lat="42.8697580" lon="1.5677300">
        <ele>606.4</ele>
        <time>2020-07-23T08:01:36Z</time>
      </trkpt>
      <trkpt lat="42.8697780" lon="1.5677220">
        <ele>606.6</ele>
        <time>2020-07-23T08:01:37Z</time>
      </trkpt>
      <trkpt lat="42.8698170" lon="1.5677070">
        <ele>607.4</ele>
        <time>2020-07-23T08:01:39Z</time>
      </trkpt>
      <trkpt lat="42.8698340" lon="1.5676980">
        <ele>607.6</ele>
        <time>2020-07-23T08:01:40Z</time>
      </trkpt>
      <trkpt lat="42.8698900" lon="1.5676800">
        <ele>608.6</ele>
        <time>2020-07-23T08:01:43Z</time>
      </trkpt>
      <trkpt lat="42.8699090" lon="1.5676680">
        <ele>608.8</ele>
        <time>2020-07-23T08:01:44Z</time>
      </trkpt>
      <trkpt lat="42.8699620" lon="1.5676330">
        <ele>609.2</ele>
        <time>2020-07-23T08:01:47Z</time>
      </trkpt>
      <trkpt lat="42.8700200" lon="1.5676020">
        <ele>610.0</ele>
        <time>2020-07-23T08:01:50Z</time>
      </trkpt>
      <trkpt lat="42.8700570" lon="1.5675860">
        <ele>610.4</ele>
        <time>2020-07-23T08:01:52Z</time>
      </trkpt>
      <trkpt lat="42.8700940" lon="1.5675630">
        <ele>611.0</ele>
        <time>2020-07-23T08:01:54Z</time>
      </trkpt>
      <trkpt lat="42.8701780" lon="1.5675360">
        <ele>612.0</ele>
        <time>2020-07-23T08:01:58Z</time>
      </trkpt>
      <trkpt lat="42.8701980" lon="1.5675270">
        <ele>612.2</ele>
        <time>2020-07-23T08:01:59Z</time>
      </trkpt>
      <trkpt lat="42.8703200" lon="1.5675440">
        <ele>613.4</ele>
        <time>2020-07-23T08:02:04Z</time>
      </trkpt>
      <trkpt lat="42.8703650" lon="1.5675440">
        <ele>614.0</ele>
        <time>2020-07-23T08:02:06Z</time>
      </trkpt>
      <trkpt lat="42.8704480" lon="1.5675360">
        <ele>614.6</ele>
        <time>2020-07-23T08:02:10Z</time>
      </trkpt>
      <trkpt lat="42.8705280" lon="1.5675180">
        <ele>615.6</ele>
        <time>2020-07-23T08:02:14Z</time>
      </trkpt>
      <trkpt lat="42.8705470" lon="1.5675090">
        <ele>615.8</ele>
        <time>2020-07-23T08:02:15Z</time>
      </trkpt>
      <trkpt lat="42.8706060" lon="1.5674880">
        <ele>616.6</ele>
        <time>2020-07-23T08:02:18Z</time>
      </trkpt>
      <trkpt lat="42.8706750" lon="1.5674520">
        <ele>617.8</ele>
        <time>2020-07-23T08:02:22Z</time>
      </trkpt>
      <trkpt lat="42.8706940" lon="1.5674440">
        <ele>617.8</ele>
        <time>2020-07-23T08:02:23Z</time>
      </trkpt>
      <trkpt lat="42.8707800" lon="1.5673780">
        <ele>618.8</ele>
        <time>2020-07-23T08:02:28Z</time>
      </trkpt>
      <trkpt lat="42.8708160" lon="1.5673520">
        <ele>619.2</ele>
        <time>2020-07-23T08:02:30Z</time>
      </trkpt>
      <trkpt lat="42.8708790" lon="1.5673000">
        <ele>619.8</ele>
        <time>2020-07-23T08:02:33Z</time>
      </trkpt>
      <trkpt lat="42.8709410" lon="1.5672330">
        <ele>620.4</ele>
        <time>2020-07-23T08:02:36Z</time>
      </trkpt>
      <trkpt lat="42.8709770" lon="1.5671860">
        <ele>621.0</ele>
        <time>2020-07-23T08:02:38Z</time>
      </trkpt>
      <trkpt lat="42.8710430" lon="1.5670500">
        <ele>621.8</ele>
        <time>2020-07-23T08:02:43Z</time>
      </trkpt>
      <trkpt lat="42.8710560" lon="1.5670180">
        <ele>622.0</ele>
        <time>2020-07-23T08:02:44Z</time>
      </trkpt>
      <trkpt lat="42.8711290" lon="1.5668760">
        <ele>623.2</ele>
        <time>2020-07-23T08:02:49Z</time>
      </trkpt>
      <trkpt lat="42.8711510" lon="1.5668140">
        <ele>623.4</ele>
        <time>2020-07-23T08:02:51Z</time>
      </trkpt>
      <trkpt lat="42.8711950" lon="1.5666960">
        <ele>624.2</ele>
        <time>2020-07-23T08:02:55Z</time>
      </trkpt>
      <trkpt lat="42.8712220" lon="1.5666070">
        <ele>624.8</ele>
        <time>2020-07-23T08:02:58Z</time>
      </trkpt>
      <trkpt lat="42.8712490" lon="1.5664870">
        <ele>625.4</ele>
        <time>2020-07-23T08:03:02Z</time>
      </trkpt>
      <trkpt lat="42.8712750" lon="1.5663710">
        <ele>626.0</ele>
        <time>2020-07-23T08:03:06Z</time>
      </trkpt>
      <trkpt lat="42.8712820" lon="1.5663120">
        <ele>626.8</ele>
        <time>2020-07-23T08:03:08Z</time>
      </trkpt>
      <trkpt lat="42.8713090" lon="1.5661830">
        <ele>627.8</ele>
        <time>2020-07-23T08:03:12Z</time>
      </trkpt>
      <trkpt lat="42.8713160" lon="1.5661530">
        <ele>627.8</ele>
        <time>2020-07-23T08:03:13Z</time>
      </trkpt>
      <trkpt lat="42.8713510" lon="1.5660090">
        <ele>628.6</ele>
        <time>2020-07-23T08:03:18Z</time>
      </trkpt>
      <trkpt lat="42.8713590" lon="1.5659820">
        <ele>628.8</ele>
        <time>2020-07-23T08:03:19Z</time>
      </trkpt>
      <trkpt lat="42.8713800" lon="1.5658710">
        <ele>629.8</ele>
        <time>2020-07-23T08:03:23Z</time>
      </trkpt>
      <trkpt lat="42.8714090" lon="1.5657380">
        <ele>631.0</ele>
        <time>2020-07-23T08:03:28Z</time>
      </trkpt>
      <trkpt lat="42.8714320" lon="1.5656280">
        <ele>631.6</ele>
        <time>2020-07-23T08:03:32Z</time>
      </trkpt>
      <trkpt lat="42.8714390" lon="1.5655710">
        <ele>632.2</ele>
        <time>2020-07-23T08:03:34Z</time>
      </trkpt>
      <trkpt lat="42.8714710" lon="1.5654900">
        <ele>633.2</ele>
        <time>2020-07-23T08:03:37Z</time>
      </trkpt>
      <trkpt lat="42.8714900" lon="1.5654740">
        <ele>633.4</ele>
        <time>2020-07-23T08:03:38Z</time>
      </trkpt>
      <trkpt lat="42.8715810" lon="1.5653490">
        <ele>634.4</ele>
        <time>2020-07-23T08:03:43Z</time>
      </trkpt>
      <trkpt lat="42.8715980" lon="1.5653150">
        <ele>634.6</ele>
        <time>2020-07-23T08:03:44Z</time>
      </trkpt>
      <trkpt lat="42.8716620" lon="1.5652230">
        <ele>635.0</ele>
        <time>2020-07-23T08:03:47Z</time>
      </trkpt>
      <trkpt lat="42.8717080" lon="1.5651630">
        <ele>635.0</ele>
        <time>2020-07-23T08:03:49Z</time>
      </trkpt>
      <trkpt lat="42.8717330" lon="1.5651360">
        <ele>635.0</ele>
        <time>2020-07-23T08:03:50Z</time>
      </trkpt>
      <trkpt lat="42.8717850" lon="1.5650800">
        <ele>635.8</ele>
        <time>2020-07-23T08:03:52Z</time>
      </trkpt>
      <trkpt lat="42.8719080" lon="1.5649690">
        <ele>636.8</ele>
        <time>2020-07-23T08:03:56Z</time>
      </trkpt>
      <trkpt lat="42.8719410" lon="1.5649390">
        <ele>637.0</ele>
        <time>2020-07-23T08:03:57Z</time>
      </trkpt>
      <trkpt lat="42.8720080" lon="1.5648780">
        <ele>637.4</ele>
        <time>2020-07-23T08:03:59Z</time>
      </trkpt>
      <trkpt lat="42.8721460" lon="1.5647840">
        <ele>637.4</ele>
        <time>2020-07-23T08:04:03Z</time>
      </trkpt>
      <trkpt lat="42.8722950" lon="1.5646860">
        <ele>637.8</ele>
        <time>2020-07-23T08:04:07Z</time>
      </trkpt>
      <trkpt lat="42.8724440" lon="1.5645790">
        <ele>638.2</ele>
        <time>2020-07-23T08:04:11Z</time>
      </trkpt>
      <trkpt lat="42.8724830" lon="1.5645510">
        <ele>638.2</ele>
        <time>2020-07-23T08:04:12Z</time>
      </trkpt>
      <trkpt lat="42.8726840" lon="1.5644190">
        <ele>639.0</ele>
        <time>2020-07-23T08:04:17Z</time>
      </trkpt>
      <trkpt lat="42.8728360" lon="1.5643170">
        <ele>639.4</ele>
        <time>2020-07-23T08:04:21Z</time>
      </trkpt>
      <trkpt lat="42.8729900" lon="1.5642080">
        <ele>640.0</ele>
        <time>2020-07-23T08:04:25Z</time>
      </trkpt>
      <trkpt lat="42.8731640" lon="1.5640530">
        <ele>640.8</ele>
        <time>2020-07-23T08:04:30Z</time>
      </trkpt>
      <trkpt lat="42.8732590" lon="1.5639480">
        <ele>641.2</ele>
        <time>2020-07-23T08:04:33Z</time>
      </trkpt>
      <trkpt lat="42.8733590" lon="1.5638000">
        <ele>642.4</ele>
        <time>2020-07-23T08:04:37Z</time>
      </trkpt>
      <trkpt lat="42.8734140" lon="1.5636990">
        <ele>643.4</ele>
        <time>2020-07-23T08:04:40Z</time>
      </trkpt>
      <trkpt lat="42.8734940" lon="1.5635310">
        <ele>644.6</ele>
        <time>2020-07-23T08:04:45Z</time>
      </trkpt>
      <trkpt lat="42.8735100" lon="1.5634920">
        <ele>644.8</ele>
        <time>2020-07-23T08:04:46Z</time>
      </trkpt>
      <trkpt lat="42.8735570" lon="1.5633680">
        <ele>645.6</ele>
        <time>2020-07-23T08:04:49Z</time>
      </trkpt>
      <trkpt lat="42.8735830" lon="1.5632800">
        <ele>646.0</ele>
        <time>2020-07-23T08:04:51Z</time>
      </trkpt>
      <trkpt lat="42.8736190" lon="1.5631330">
        <ele>646.4</ele>
        <time>2020-07-23T08:04:54Z</time>
      </trkpt>
      <trkpt lat="42.8736320" lon="1.5630830">
        <ele>646.6</ele>
        <time>2020-07-23T08:04:55Z</time>
      </trkpt>
      <trkpt lat="42.8737140" lon="1.5627860">
        <ele>646.8</ele>
        <time>2020-07-23T08:05:01Z</time>
      </trkpt>
      <trkpt lat="42.8737480" lon="1.5626720">
        <ele>646.8</ele>
        <time>2020-07-23T08:05:03Z</time>
      </trkpt>
      <trkpt lat="42.8738850" lon="1.5623030">
        <ele>646.6</ele>
        <time>2020-07-23T08:05:09Z</time>
      </trkpt>
      <trkpt lat="42.8740290" lon="1.5620130">
        <ele>646.6</ele>
        <time>2020-07-23T08:05:14Z</time>
      </trkpt>
      <trkpt lat="42.8740880" lon="1.5619000">
        <ele>646.8</ele>
        <time>2020-07-23T08:05:16Z</time>
      </trkpt>
      <trkpt lat="42.8741960" lon="1.5617030">
        <ele>647.6</ele>
        <time>2020-07-23T08:05:20Z</time>
      </trkpt>
      <trkpt lat="42.8742700" lon="1.5615870">
        <ele>648.6</ele>
        <time>2020-07-23T08:05:23Z</time>
      </trkpt>
      <trkpt lat="42.8742940" lon="1.5615510">
        <ele>648.8</ele>
        <time>2020-07-23T08:05:24Z</time>
      </trkpt>
      <trkpt lat="42.8743830" lon="1.5614090">
        <ele>650.0</ele>
        <time>2020-07-23T08:05:28Z</time>
      </trkpt>
      <trkpt lat="42.8744230" lon="1.5613420">
        <ele>650.4</ele>
        <time>2020-07-23T08:05:30Z</time>
      </trkpt>
      <trkpt lat="42.8744820" lon="1.5612490">
        <ele>651.0</ele>
        <time>2020-07-23T08:05:33Z</time>
      </trkpt>
      <trkpt lat="42.8745540" lon="1.5611180">
        <ele>652.0</ele>
        <time>2020-07-23T08:05:37Z</time>
      </trkpt>
      <trkpt lat="42.8745710" lon="1.5610820">
        <ele>652.2</ele>
        <time>2020-07-23T08:05:38Z</time>
      </trkpt>
      <trkpt lat="42.8746550" lon="1.5608640">
        <ele>653.2</ele>
        <time>2020-07-23T08:05:44Z</time>
      </trkpt>
      <trkpt lat="42.8746650" lon="1.5608300">
        <ele>653.4</ele>
        <time>2020-07-23T08:05:45Z</time>
      </trkpt>
      <trkpt lat="42.8746860" lon="1.5607630">
        <ele>654.0</ele>
        <time>2020-07-23T08:05:47Z</time>
      </trkpt>
      <trkpt lat="42.8747090" lon="1.5606970">
        <ele>654.4</ele>
        <time>2020-07-23T08:05:49Z</time>
      </trkpt>
      <trkpt lat="42.8747480" lon="1.5605110">
        <ele>655.4</ele>
        <time>2020-07-23T08:05:54Z</time>
      </trkpt>
      <trkpt lat="42.8747910" lon="1.5602560">
        <ele>656.6</ele>
        <time>2020-07-23T08:06:00Z</time>
      </trkpt>
      <trkpt lat="42.8748250" lon="1.5601200">
        <ele>657.0</ele>
        <time>2020-07-23T08:06:03Z</time>
      </trkpt>
      <trkpt lat="42.8748640" lon="1.5599740">
        <ele>657.6</ele>
        <time>2020-07-23T08:06:06Z</time>
      </trkpt>
      <trkpt lat="42.8749030" lon="1.5598060">
        <ele>657.8</ele>
        <time>2020-07-23T08:06:09Z</time>
      </trkpt>
      <trkpt lat="42.8749190" lon="1.5597460">
        <ele>657.8</ele>
        <time>2020-07-23T08:06:10Z</time>
      </trkpt>
      <trkpt lat="42.8749350" lon="1.5596840">
        <ele>658.0</ele>
        <time>2020-07-23T08:06:11Z</time>
      </trkpt>
      <trkpt lat="42.8750110" lon="1.5593150">
        <ele>657.6</ele>
        <time>2020-07-23T08:06:17Z</time>
      </trkpt>
      <trkpt lat="42.8750270" lon="1.5591700">
        <ele>657.4</ele>
        <time>2020-07-23T08:06:19Z</time>
      </trkpt>
      <trkpt lat="42.8750320" lon="1.5587240">
        <ele>656.6</ele>
        <time>2020-07-23T08:06:24Z</time>
      </trkpt>
      <trkpt lat="42.8749820" lon="1.5581710">
        <ele>655.6</ele>
        <time>2020-07-23T08:06:29Z</time>
      </trkpt>
      <trkpt lat="42.8749690" lon="1.5580510">
        <ele>655.2</ele>
        <time>2020-07-23T08:06:30Z</time>
      </trkpt>
      <trkpt lat="42.8749510" lon="1.5578150">
        <ele>654.0</ele>
        <time>2020-07-23T08:06:32Z</time>
      </trkpt>
      <trkpt lat="42.8749380" lon="1.5575880">
        <ele>652.2</ele>
        <time>2020-07-23T08:06:34Z</time>
      </trkpt>
      <trkpt lat="42.8749310" lon="1.5574770">
        <ele>651.2</ele>
        <time>2020-07-23T08:06:35Z</time>
      </trkpt>
      <trkpt lat="42.8749280" lon="1.5573650">
        <ele>650.2</ele>
        <time>2020-07-23T08:06:36Z</time>
      </trkpt>
      <trkpt lat="42.8749240" lon="1.5571440">
        <ele>648.8</ele>
        <time>2020-07-23T08:06:38Z</time>
      </trkpt>
      <trkpt lat="42.8749310" lon="1.5569220">
        <ele>647.6</ele>
        <time>2020-07-23T08:06:40Z</time>
      </trkpt>
      <trkpt lat="42.8749450" lon="1.5568010">
        <ele>647.0</ele>
        <time>2020-07-23T08:06:41Z</time>
      </trkpt>
      <trkpt lat="42.8749540" lon="1.5566830">
        <ele>646.8</ele>
        <time>2020-07-23T08:06:42Z</time>
      </trkpt>
      <trkpt lat="42.8749640" lon="1.5565600">
        <ele>646.6</ele>
        <time>2020-07-23T08:06:43Z</time>
      </trkpt>
      <trkpt lat="42.8750330" lon="1.5560390">
        <ele>645.0</ele>
        <time>2020-07-23T08:06:47Z</time>
      </trkpt>
      <trkpt lat="42.8750560" lon="1.5559130">
        <ele>644.0</ele>
        <time>2020-07-23T08:06:48Z</time>
      </trkpt>
      <trkpt lat="42.8750830" lon="1.5556670">
        <ele>642.6</ele>
        <time>2020-07-23T08:06:50Z</time>
      </trkpt>
      <trkpt lat="42.8751360" lon="1.5553020">
        <ele>641.6</ele>
        <time>2020-07-23T08:06:53Z</time>
      </trkpt>
      <trkpt lat="42.8751670" lon="1.5551830">
        <ele>641.2</ele>
        <time>2020-07-23T08:06:54Z</time>
      </trkpt>
      <trkpt lat="42.8752740" lon="1.5546930">
        <ele>640.0</ele>
        <time>2020-07-23T08:06:58Z</time>
      </trkpt>
      <trkpt lat="42.8752840" lon="1.5545720">
        <ele>639.8</ele>
        <time>2020-07-23T08:06:59Z</time>
      </trkpt>
      <trkpt lat="42.8752650" lon="1.5540650">
        <ele>639.4</ele>
        <time>2020-07-23T08:07:03Z</time>
      </trkpt>
      <trkpt lat="42.8752500" lon="1.5539340">
        <ele>639.0</ele>
        <time>2020-07-23T08:07:04Z</time>
      </trkpt>
      <trkpt lat="42.8752120" lon="1.5536670">
        <ele>637.6</ele>
        <time>2020-07-23T08:07:06Z</time>
      </trkpt>
      <trkpt lat="42.8751860" lon="1.5533760">
        <ele>636.0</ele>
        <time>2020-07-23T08:07:08Z</time>
      </trkpt>
      <trkpt lat="42.8751870" lon="1.5532290">
        <ele>635.0</ele>
        <time>2020-07-23T08:07:09Z</time>
      </trkpt>
      <trkpt lat="42.8751980" lon="1.5530800">
        <ele>634.2</ele>
        <time>2020-07-23T08:07:10Z</time>
      </trkpt>
      <trkpt lat="42.8752290" lon="1.5527830">
        <ele>633.2</ele>
        <time>2020-07-23T08:07:12Z</time>
      </trkpt>
      <trkpt lat="42.8752450" lon="1.5526380">
        <ele>633.0</ele>
        <time>2020-07-23T08:07:13Z</time>
      </trkpt>
      <trkpt lat="42.8753020" lon="1.5520570">
        <ele>631.6</ele>
        <time>2020-07-23T08:07:17Z</time>
      </trkpt>
      <trkpt lat="42.8753460" lon="1.5516210">
        <ele>629.8</ele>
        <time>2020-07-23T08:07:20Z</time>
      </trkpt>
      <trkpt lat="42.8753850" lon="1.5513280">
        <ele>628.4</ele>
        <time>2020-07-23T08:07:22Z</time>
      </trkpt>
      <trkpt lat="42.8754330" lon="1.5510410">
        <ele>627.4</ele>
        <time>2020-07-23T08:07:24Z</time>
      </trkpt>
      <trkpt lat="42.8754810" lon="1.5507590">
        <ele>626.2</ele>
        <time>2020-07-23T08:07:26Z</time>
      </trkpt>
      <trkpt lat="42.8755180" lon="1.5506240">
        <ele>625.6</ele>
        <time>2020-07-23T08:07:27Z</time>
      </trkpt>
      <trkpt lat="42.8755640" lon="1.5504890">
        <ele>625.2</ele>
        <time>2020-07-23T08:07:28Z</time>
      </trkpt>
      <trkpt lat="42.8756850" lon="1.5502500">
        <ele>623.8</ele>
        <time>2020-07-23T08:07:30Z</time>
      </trkpt>
      <trkpt lat="42.8757790" lon="1.5501700">
        <ele>622.8</ele>
        <time>2020-07-23T08:07:31Z</time>
      </trkpt>
      <trkpt lat="42.8758670" lon="1.5500880">
        <ele>622.2</ele>
        <time>2020-07-23T08:07:32Z</time>
      </trkpt>
      <trkpt lat="42.8759700" lon="1.5500190">
        <ele>621.8</ele>
        <time>2020-07-23T08:07:33Z</time>
      </trkpt>
      <trkpt lat="42.8761710" lon="1.5499080">
        <ele>621.2</ele>
        <time>2020-07-23T08:07:35Z</time>
      </trkpt>
      <trkpt lat="42.8766850" lon="1.5496250">
        <ele>621.4</ele>
        <time>2020-07-23T08:07:41Z</time>
      </trkpt>
      <trkpt lat="42.8768720" lon="1.5495340">
        <ele>622.4</ele>
        <time>2020-07-23T08:07:44Z</time>
      </trkpt>
      <trkpt lat="42.8769620" lon="1.5494760">
        <ele>623.6</ele>
        <time>2020-07-23T08:07:46Z</time>
      </trkpt>
      <trkpt lat="42.8770390" lon="1.5494250">
        <ele>625.0</ele>
        <time>2020-07-23T08:07:48Z</time>
      </trkpt>
      <trkpt lat="42.8770740" lon="1.5493970">
        <ele>625.6</ele>
        <time>2020-07-23T08:07:49Z</time>
      </trkpt>
      <trkpt lat="42.8771050" lon="1.5493700">
        <ele>626.2</ele>
        <time>2020-07-23T08:07:50Z</time>
      </trkpt>
      <trkpt lat="42.8771380" lon="1.5493340">
        <ele>626.6</ele>
        <time>2020-07-23T08:07:51Z</time>
      </trkpt>
      <trkpt lat="42.8772290" lon="1.5492260">
        <ele>627.6</ele>
        <time>2020-07-23T08:07:54Z</time>
      </trkpt>
      <trkpt lat="42.8772560" lon="1.5491900">
        <ele>627.8</ele>
        <time>2020-07-23T08:07:55Z</time>
      </trkpt>
      <trkpt lat="42.8773340" lon="1.5490850">
        <ele>628.4</ele>
        <time>2020-07-23T08:07:58Z</time>
      </trkpt>
      <trkpt lat="42.8774070" lon="1.5490020">
        <ele>628.8</ele>
        <time>2020-07-23T08:08:01Z</time>
      </trkpt>
      <trkpt lat="42.8774550" lon="1.5489500">
        <ele>629.2</ele>
        <time>2020-07-23T08:08:03Z</time>
      </trkpt>
      <trkpt lat="42.8775260" lon="1.5488750">
        <ele>629.6</ele>
        <time>2020-07-23T08:08:06Z</time>
      </trkpt>
      <trkpt lat="42.8775500" lon="1.5488510">
        <ele>630.0</ele>
        <time>2020-07-23T08:08:07Z</time>
      </trkpt>
      <trkpt lat="42.8776410" lon="1.5487490">
        <ele>631.2</ele>
        <time>2020-07-23T08:08:11Z</time>
      </trkpt>
      <trkpt lat="42.8776840" lon="1.5486910">
        <ele>631.6</ele>
        <time>2020-07-23T08:08:13Z</time>
      </trkpt>
      <trkpt lat="42.8777420" lon="1.5485880">
        <ele>632.0</ele>
        <time>2020-07-23T08:08:16Z</time>
      </trkpt>
      <trkpt lat="42.8777590" lon="1.5485470">
        <ele>632.2</ele>
        <time>2020-07-23T08:08:17Z</time>
      </trkpt>
      <trkpt lat="42.8778290" lon="1.5483910">
        <ele>633.2</ele>
        <time>2020-07-23T08:08:21Z</time>
      </trkpt>
      <trkpt lat="42.8778460" lon="1.5483500">
        <ele>633.6</ele>
        <time>2020-07-23T08:08:22Z</time>
      </trkpt>
      <trkpt lat="42.8778910" lon="1.5482270">
        <ele>633.8</ele>
        <time>2020-07-23T08:08:25Z</time>
      </trkpt>
      <trkpt lat="42.8779340" lon="1.5481030">
        <ele>634.0</ele>
        <time>2020-07-23T08:08:28Z</time>
      </trkpt>
      <trkpt lat="42.8779670" lon="1.5480260">
        <ele>634.4</ele>
        <time>2020-07-23T08:08:30Z</time>
      </trkpt>
      <trkpt lat="42.8780070" lon="1.5479590">
        <ele>634.8</ele>
        <time>2020-07-23T08:08:32Z</time>
      </trkpt>
      <trkpt lat="42.8780460" lon="1.5478980">
        <ele>635.2</ele>
        <time>2020-07-23T08:08:34Z</time>
      </trkpt>
      <trkpt lat="42.8780930" lon="1.5478470">
        <ele>635.6</ele>
        <time>2020-07-23T08:08:36Z</time>
      </trkpt>
      <trkpt lat="42.8781860" lon="1.5477540">
        <ele>636.2</ele>
        <time>2020-07-23T08:08:40Z</time>
      </trkpt>
      <trkpt lat="42.8782320" lon="1.5477090">
        <ele>636.6</ele>
        <time>2020-07-23T08:08:42Z</time>
      </trkpt>
      <trkpt lat="42.8783260" lon="1.5476280">
        <ele>637.6</ele>
        <time>2020-07-23T08:08:46Z</time>
      </trkpt>
      <trkpt lat="42.8783470" lon="1.5476050">
        <ele>637.8</ele>
        <time>2020-07-23T08:08:47Z</time>
      </trkpt>
      <trkpt lat="42.8783930" lon="1.5475570">
        <ele>638.6</ele>
        <time>2020-07-23T08:08:49Z</time>
      </trkpt>
      <trkpt lat="42.8784350" lon="1.5475040">
        <ele>639.0</ele>
        <time>2020-07-23T08:08:51Z</time>
      </trkpt>
      <trkpt lat="42.8785650" lon="1.5473430">
        <ele>640.0</ele>
        <time>2020-07-23T08:08:57Z</time>
      </trkpt>
      <trkpt lat="42.8785850" lon="1.5473150">
        <ele>640.2</ele>
        <time>2020-07-23T08:08:58Z</time>
      </trkpt>
      <trkpt lat="42.8786480" lon="1.5472270">
        <ele>641.0</ele>
        <time>2020-07-23T08:09:01Z</time>
      </trkpt>
      <trkpt lat="42.8787590" lon="1.5470580">
        <ele>641.6</ele>
        <time>2020-07-23T08:09:06Z</time>
      </trkpt>
      <trkpt lat="42.8788110" lon="1.5470030">
        <ele>642.2</ele>
        <time>2020-07-23T08:09:08Z</time>
      </trkpt>
      <trkpt lat="42.8789590" lon="1.5468850">
        <ele>643.0</ele>
        <time>2020-07-23T08:09:13Z</time>
      </trkpt>
      <trkpt lat="42.8789890" lon="1.5468650">
        <ele>643.4</ele>
        <time>2020-07-23T08:09:14Z</time>
      </trkpt>
      <trkpt lat="42.8791410" lon="1.5467880">
        <ele>644.4</ele>
        <time>2020-07-23T08:09:19Z</time>
      </trkpt>
      <trkpt lat="42.8791970" lon="1.5467610">
        <ele>644.8</ele>
        <time>2020-07-23T08:09:21Z</time>
      </trkpt>
      <trkpt lat="42.8793050" lon="1.5467000">
        <ele>645.4</ele>
        <time>2020-07-23T08:09:25Z</time>
      </trkpt>
      <trkpt lat="42.8793800" lon="1.5466540">
        <ele>646.2</ele>
        <time>2020-07-23T08:09:28Z</time>
      </trkpt>
      <trkpt lat="42.8794060" lon="1.5466380">
        <ele>646.4</ele>
        <time>2020-07-23T08:09:29Z</time>
      </trkpt>
      <trkpt lat="42.8795180" lon="1.5465590">
        <ele>647.6</ele>
        <time>2020-07-23T08:09:34Z</time>
      </trkpt>
      <trkpt lat="42.8795430" lon="1.5465370">
        <ele>647.8</ele>
        <time>2020-07-23T08:09:35Z</time>
      </trkpt>
      <trkpt lat="42.8796640" lon="1.5464070">
        <ele>648.6</ele>
        <time>2020-07-23T08:09:40Z</time>
      </trkpt>
      <trkpt lat="42.8797360" lon="1.5463140">
        <ele>649.2</ele>
        <time>2020-07-23T08:09:43Z</time>
      </trkpt>
      <trkpt lat="42.8798080" lon="1.5462100">
        <ele>649.6</ele>
        <time>2020-07-23T08:09:46Z</time>
      </trkpt>
      <trkpt lat="42.8798850" lon="1.5460680">
        <ele>650.4</ele>
        <time>2020-07-23T08:09:50Z</time>
      </trkpt>
      <trkpt lat="42.8799000" lon="1.5460290">
        <ele>650.8</ele>
        <time>2020-07-23T08:09:51Z</time>
      </trkpt>
      <trkpt lat="42.8799610" lon="1.5458780">
        <ele>651.8</ele>
        <time>2020-07-23T08:09:55Z</time>
      </trkpt>
      <trkpt lat="42.8799860" lon="1.5458040">
        <ele>652.2</ele>
        <time>2020-07-23T08:09:57Z</time>
      </trkpt>
      <trkpt lat="42.8800350" lon="1.5455910">
        <ele>652.6</ele>
        <time>2020-07-23T08:10:03Z</time>
      </trkpt>
      <trkpt lat="42.8800420" lon="1.5455560">
        <ele>652.6</ele>
        <time>2020-07-23T08:10:04Z</time>
      </trkpt>
      <trkpt lat="42.8800560" lon="1.5454880">
        <ele>652.8</ele>
        <time>2020-07-23T08:10:06Z</time>
      </trkpt>
      <trkpt lat="42.8800650" lon="1.5454300">
        <ele>653.2</ele>
        <time>2020-07-23T08:10:08Z</time>
      </trkpt>
      <trkpt lat="42.8800690" lon="1.5454000">
        <ele>653.4</ele>
        <time>2020-07-23T08:10:09Z</time>
      </trkpt>
      <trkpt lat="42.8800730" lon="1.5453700">
        <ele>653.6</ele>
        <time>2020-07-23T08:10:10Z</time>
      </trkpt>
      <trkpt lat="42.8800750" lon="1.5453390">
        <ele>653.8</ele>
        <time>2020-07-23T08:10:11Z</time>
      </trkpt>
      <trkpt lat="42.8800810" lon="1.5452760">
        <ele>654.0</ele>
        <time>2020-07-23T08:10:13Z</time>
      </trkpt>
      <trkpt lat="42.8800810" lon="1.5450710">
        <ele>654.4</ele>
        <time>2020-07-23T08:10:19Z</time>
      </trkpt>
      <trkpt lat="42.8800840" lon="1.5449250">
        <ele>654.6</ele>
        <time>2020-07-23T08:10:23Z</time>
      </trkpt>
      <trkpt lat="42.8800800" lon="1.5448260">
        <ele>655.0</ele>
        <time>2020-07-23T08:10:25Z</time>
      </trkpt>
      <trkpt lat="42.8800790" lon="1.5447520">
        <ele>655.8</ele>
        <time>2020-07-23T08:10:27Z</time>
      </trkpt>
      <trkpt lat="42.8800770" lon="1.5446800">
        <ele>656.2</ele>
        <time>2020-07-23T08:10:29Z</time>
      </trkpt>
      <trkpt lat="42.8800650" lon="1.5445270">
        <ele>656.8</ele>
        <time>2020-07-23T08:10:33Z</time>
      </trkpt>
      <trkpt lat="42.8800620" lon="1.5444940">
        <ele>656.8</ele>
        <time>2020-07-23T08:10:34Z</time>
      </trkpt>
      <trkpt lat="42.8800590" lon="1.5444590">
        <ele>657.0</ele>
        <time>2020-07-23T08:10:35Z</time>
      </trkpt>
      <trkpt lat="42.8800540" lon="1.5443810">
        <ele>657.2</ele>
        <time>2020-07-23T08:10:37Z</time>
      </trkpt>
      <trkpt lat="42.8800430" lon="1.5443080">
        <ele>657.2</ele>
        <time>2020-07-23T08:10:39Z</time>
      </trkpt>
      <trkpt lat="42.8800080" lon="1.5441190">
        <ele>658.0</ele>
        <time>2020-07-23T08:10:44Z</time>
      </trkpt>
      <trkpt lat="42.8800010" lon="1.5440800">
        <ele>658.4</ele>
        <time>2020-07-23T08:10:45Z</time>
      </trkpt>
      <trkpt lat="42.8799740" lon="1.5439620">
        <ele>659.0</ele>
        <time>2020-07-23T08:10:48Z</time>
      </trkpt>
      <trkpt lat="42.8799640" lon="1.5439250">
        <ele>659.4</ele>
        <time>2020-07-23T08:10:49Z</time>
      </trkpt>
      <trkpt lat="42.8799270" lon="1.5438070">
        <ele>660.4</ele>
        <time>2020-07-23T08:10:52Z</time>
      </trkpt>
      <trkpt lat="42.8799150" lon="1.5437690">
        <ele>660.6</ele>
        <time>2020-07-23T08:10:53Z</time>
      </trkpt>
      <trkpt lat="42.8798470" lon="1.5435820">
        <ele>661.8</ele>
        <time>2020-07-23T08:10:58Z</time>
      </trkpt>
      <trkpt lat="42.8797790" lon="1.5434640">
        <ele>662.8</ele>
        <time>2020-07-23T08:11:02Z</time>
      </trkpt>
      <trkpt lat="42.8797450" lon="1.5434090">
        <ele>663.2</ele>
        <time>2020-07-23T08:11:04Z</time>
      </trkpt>
      <trkpt lat="42.8796610" lon="1.5432560">
        <ele>664.0</ele>
        <time>2020-07-23T08:11:09Z</time>
      </trkpt>
      <trkpt lat="42.8796240" lon="1.5431950">
        <ele>664.6</ele>
        <time>2020-07-23T08:11:11Z</time>
      </trkpt>
      <trkpt lat="42.8795590" lon="1.5431120">
        <ele>665.2</ele>
        <time>2020-07-23T08:11:14Z</time>
      </trkpt>
      <trkpt lat="42.8795170" lon="1.5430450">
        <ele>665.4</ele>
        <time>2020-07-23T08:11:16Z</time>
      </trkpt>
      <trkpt lat="42.8794960" lon="1.5430100">
        <ele>665.6</ele>
        <time>2020-07-23T08:11:17Z</time>
      </trkpt>
      <trkpt lat="42.8794290" lon="1.5429130">
        <ele>666.0</ele>
        <time>2020-07-23T08:11:20Z</time>
      </trkpt>
      <trkpt lat="42.8794070" lon="1.5428800">
        <ele>666.2</ele>
        <time>2020-07-23T08:11:21Z</time>
      </trkpt>
      <trkpt lat="42.8793860" lon="1.5428390">
        <ele>666.2</ele>
        <time>2020-07-23T08:11:22Z</time>
      </trkpt>
      <trkpt lat="42.8792550" lon="1.5426150">
        <ele>666.6</ele>
        <time>2020-07-23T08:11:27Z</time>
      </trkpt>
      <trkpt lat="42.8790970" lon="1.5422990">
        <ele>666.8</ele>
        <time>2020-07-23T08:11:33Z</time>
      </trkpt>
      <trkpt lat="42.8790720" lon="1.5422380">
        <ele>666.8</ele>
        <time>2020-07-23T08:11:34Z</time>
      </trkpt>
      <trkpt lat="42.8790480" lon="1.5421770">
        <ele>666.8</ele>
        <time>2020-07-23T08:11:35Z</time>
      </trkpt>
      <trkpt lat="42.8789130" lon="1.5417940">
        <ele>666.6</ele>
        <time>2020-07-23T08:11:41Z</time>
      </trkpt>
      <trkpt lat="42.8788570" lon="1.5416060">
        <ele>666.8</ele>
        <time>2020-07-23T08:11:44Z</time>
      </trkpt>
      <trkpt lat="42.8788020" lon="1.5413460">
        <ele>666.8</ele>
        <time>2020-07-23T08:11:48Z</time>
      </trkpt>
      <trkpt lat="42.8787550" lon="1.5410830">
        <ele>667.2</ele>
        <time>2020-07-23T08:11:52Z</time>
      </trkpt>
      <trkpt lat="42.8787440" lon="1.5410180">
        <ele>667.4</ele>
        <time>2020-07-23T08:11:53Z</time>
      </trkpt>
      <trkpt lat="42.8786680" lon="1.5406320">
        <ele>668.0</ele>
        <time>2020-07-23T08:11:59Z</time>
      </trkpt>
      <trkpt lat="42.8786520" lon="1.5405670">
        <ele>668.2</ele>
        <time>2020-07-23T08:12:00Z</time>
      </trkpt>
      <trkpt lat="42.8786380" lon="1.5405010">
        <ele>668.2</ele>
        <time>2020-07-23T08:12:01Z</time>
      </trkpt>
      <trkpt lat="42.8786130" lon="1.5403660">
        <ele>668.4</ele>
        <time>2020-07-23T08:12:03Z</time>
      </trkpt>
      <trkpt lat="42.8785550" lon="1.5400830">
        <ele>668.6</ele>
        <time>2020-07-23T08:12:07Z</time>
      </trkpt>
      <trkpt lat="42.8785120" lon="1.5398610">
        <ele>668.6</ele>
        <time>2020-07-23T08:12:10Z</time>
      </trkpt>
      <trkpt lat="42.8784220" lon="1.5394260">
        <ele>669.2</ele>
        <time>2020-07-23T08:12:16Z</time>
      </trkpt>
      <trkpt lat="42.8783340" lon="1.5389700">
        <ele>668.8</ele>
        <time>2020-07-23T08:12:22Z</time>
      </trkpt>
      <trkpt lat="42.8783050" lon="1.5388150">
        <ele>668.6</ele>
        <time>2020-07-23T08:12:24Z</time>
      </trkpt>
      <trkpt lat="42.8782460" lon="1.5382820">
        <ele>668.4</ele>
        <time>2020-07-23T08:12:30Z</time>
      </trkpt>
      <trkpt lat="42.8782410" lon="1.5381890">
        <ele>668.4</ele>
        <time>2020-07-23T08:12:31Z</time>
      </trkpt>
      <trkpt lat="42.8782360" lon="1.5376530">
        <ele>668.8</ele>
        <time>2020-07-23T08:12:37Z</time>
      </trkpt>
      <trkpt lat="42.8782380" lon="1.5375670">
        <ele>668.8</ele>
        <time>2020-07-23T08:12:38Z</time>
      </trkpt>
      <trkpt lat="42.8782440" lon="1.5370490">
        <ele>669.2</ele>
        <time>2020-07-23T08:12:44Z</time>
      </trkpt>
      <trkpt lat="42.8782470" lon="1.5368000">
        <ele>669.4</ele>
        <time>2020-07-23T08:12:47Z</time>
      </trkpt>
      <trkpt lat="42.8782490" lon="1.5367200">
        <ele>669.4</ele>
        <time>2020-07-23T08:12:48Z</time>
      </trkpt>
      <trkpt lat="42.8782610" lon="1.5362580">
        <ele>669.8</ele>
        <time>2020-07-23T08:12:54Z</time>
      </trkpt>
      <trkpt lat="42.8782660" lon="1.5360370">
        <ele>670.0</ele>
        <time>2020-07-23T08:12:57Z</time>
      </trkpt>
      <trkpt lat="42.8782670" lon="1.5359640">
        <ele>670.2</ele>
        <time>2020-07-23T08:12:58Z</time>
      </trkpt>
      <trkpt lat="42.8782710" lon="1.5358200">
        <ele>670.4</ele>
        <time>2020-07-23T08:13:00Z</time>
      </trkpt>
      <trkpt lat="42.8782810" lon="1.5354070">
        <ele>671.0</ele>
        <time>2020-07-23T08:13:06Z</time>
      </trkpt>
      <trkpt lat="42.8782830" lon="1.5353400">
        <ele>671.2</ele>
        <time>2020-07-23T08:13:07Z</time>
      </trkpt>
      <trkpt lat="42.8782850" lon="1.5352740">
        <ele>671.6</ele>
        <time>2020-07-23T08:13:08Z</time>
      </trkpt>
      <trkpt lat="42.8782900" lon="1.5349320">
        <ele>672.0</ele>
        <time>2020-07-23T08:13:13Z</time>
      </trkpt>
      <trkpt lat="42.8782940" lon="1.5347990">
        <ele>672.0</ele>
        <time>2020-07-23T08:13:15Z</time>
      </trkpt>
      <trkpt lat="42.8783050" lon="1.5346060">
        <ele>672.6</ele>
        <time>2020-07-23T08:13:18Z</time>
      </trkpt>
      <trkpt lat="42.8783180" lon="1.5344710">
        <ele>672.6</ele>
        <time>2020-07-23T08:13:20Z</time>
      </trkpt>
      <trkpt lat="42.8783280" lon="1.5343420">
        <ele>672.8</ele>
        <time>2020-07-23T08:13:22Z</time>
      </trkpt>
      <trkpt lat="42.8783350" lon="1.5342770">
        <ele>673.0</ele>
        <time>2020-07-23T08:13:23Z</time>
      </trkpt>
      <trkpt lat="42.8783810" lon="1.5339740">
        <ele>673.6</ele>
        <time>2020-07-23T08:13:28Z</time>
      </trkpt>
      <trkpt lat="42.8784030" lon="1.5338560">
        <ele>673.8</ele>
        <time>2020-07-23T08:13:30Z</time>
      </trkpt>
      <trkpt lat="42.8784320" lon="1.5335800">
        <ele>674.6</ele>
        <time>2020-07-23T08:13:35Z</time>
      </trkpt>
      <trkpt lat="42.8784160" lon="1.5335520">
        <ele>674.8</ele>
        <time>2020-07-23T08:13:36Z</time>
      </trkpt>
      <trkpt lat="42.8784030" lon="1.5336250">
        <ele>675.0</ele>
        <time>2020-07-23T08:15:08Z</time>
      </trkpt>
      <trkpt lat="42.8784230" lon="1.5335980">
        <ele>675.0</ele>
        <time>2020-07-23T08:15:09Z</time>
      </trkpt>
      <trkpt lat="42.8784780" lon="1.5334190">
        <ele>675.2</ele>
        <time>2020-07-23T08:15:13Z</time>
      </trkpt>
      <trkpt lat="42.8785330" lon="1.5330820">
        <ele>675.2</ele>
        <time>2020-07-23T08:15:19Z</time>
      </trkpt>
      <trkpt lat="42.8785510" lon="1.5329570">
        <ele>675.4</ele>
        <time>2020-07-23T08:15:21Z</time>
      </trkpt>
      <trkpt lat="42.8785910" lon="1.5326420">
        <ele>675.8</ele>
        <time>2020-07-23T08:15:26Z</time>
      </trkpt>
      <trkpt lat="42.8785950" lon="1.5325750">
        <ele>675.8</ele>
        <time>2020-07-23T08:15:27Z</time>
      </trkpt>
      <trkpt lat="42.8786120" lon="1.5323080">
        <ele>676.0</ele>
        <time>2020-07-23T08:15:31Z</time>
      </trkpt>
      <trkpt lat="42.8786130" lon="1.5322350">
        <ele>676.2</ele>
        <time>2020-07-23T08:15:32Z</time>
      </trkpt>
      <trkpt lat="42.8786090" lon="1.5320900">
        <ele>676.2</ele>
        <time>2020-07-23T08:15:34Z</time>
      </trkpt>
      <trkpt lat="42.8785690" lon="1.5316600">
        <ele>676.6</ele>
        <time>2020-07-23T08:15:40Z</time>
      </trkpt>
      <trkpt lat="42.8785470" lon="1.5315180">
        <ele>676.8</ele>
        <time>2020-07-23T08:15:42Z</time>
      </trkpt>
      <trkpt lat="42.8785350" lon="1.5314470">
        <ele>676.8</ele>
        <time>2020-07-23T08:15:43Z</time>
      </trkpt>
      <trkpt lat="42.8784790" lon="1.5311500">
        <ele>677.2</ele>
        <time>2020-07-23T08:15:47Z</time>
      </trkpt>
      <trkpt lat="42.8784650" lon="1.5310760">
        <ele>677.2</ele>
        <time>2020-07-23T08:15:48Z</time>
      </trkpt>
      <trkpt lat="42.8784490" lon="1.5310020">
        <ele>677.4</ele>
        <time>2020-07-23T08:15:49Z</time>
      </trkpt>
      <trkpt lat="42.8784130" lon="1.5308540">
        <ele>677.4</ele>
        <time>2020-07-23T08:15:51Z</time>
      </trkpt>
      <trkpt lat="42.8783150" lon="1.5303920">
        <ele>677.6</ele>
        <time>2020-07-23T08:15:57Z</time>
      </trkpt>
      <trkpt lat="42.8782990" lon="1.5303170">
        <ele>677.8</ele>
        <time>2020-07-23T08:15:58Z</time>
      </trkpt>
      <trkpt lat="42.8782820" lon="1.5302400">
        <ele>678.0</ele>
        <time>2020-07-23T08:15:59Z</time>
      </trkpt>
      <trkpt lat="42.8781810" lon="1.5297760">
        <ele>678.2</ele>
        <time>2020-07-23T08:16:05Z</time>
      </trkpt>
      <trkpt lat="42.8781330" lon="1.5295460">
        <ele>678.2</ele>
        <time>2020-07-23T08:16:08Z</time>
      </trkpt>
      <trkpt lat="42.8780650" lon="1.5290800">
        <ele>678.4</ele>
        <time>2020-07-23T08:16:14Z</time>
      </trkpt>
      <trkpt lat="42.8780520" lon="1.5289190">
        <ele>678.4</ele>
        <time>2020-07-23T08:16:16Z</time>
      </trkpt>
      <trkpt lat="42.8780610" lon="1.5284300">
        <ele>678.8</ele>
        <time>2020-07-23T08:16:22Z</time>
      </trkpt>
      <trkpt lat="42.8780710" lon="1.5283500">
        <ele>679.0</ele>
        <time>2020-07-23T08:16:23Z</time>
      </trkpt>
      <trkpt lat="42.8781430" lon="1.5278890">
        <ele>679.2</ele>
        <time>2020-07-23T08:16:29Z</time>
      </trkpt>
      <trkpt lat="42.8781720" lon="1.5277420">
        <ele>679.2</ele>
        <time>2020-07-23T08:16:31Z</time>
      </trkpt>
      <trkpt lat="42.8782380" lon="1.5273990">
        <ele>680.2</ele>
        <time>2020-07-23T08:16:36Z</time>
      </trkpt>
      <trkpt lat="42.8782750" lon="1.5271990">
        <ele>680.8</ele>
        <time>2020-07-23T08:16:39Z</time>
      </trkpt>
      <trkpt lat="42.8782890" lon="1.5271320">
        <ele>681.2</ele>
        <time>2020-07-23T08:16:40Z</time>
      </trkpt>
      <trkpt lat="42.8783040" lon="1.5270650">
        <ele>681.2</ele>
        <time>2020-07-23T08:16:41Z</time>
      </trkpt>
      <trkpt lat="42.8783550" lon="1.5267960">
        <ele>681.8</ele>
        <time>2020-07-23T08:16:45Z</time>
      </trkpt>
      <trkpt lat="42.8783670" lon="1.5267240">
        <ele>682.0</ele>
        <time>2020-07-23T08:16:46Z</time>
      </trkpt>
      <trkpt lat="42.8784390" lon="1.5263680">
        <ele>682.4</ele>
        <time>2020-07-23T08:16:51Z</time>
      </trkpt>
      <trkpt lat="42.8785000" lon="1.5260860">
        <ele>682.6</ele>
        <time>2020-07-23T08:16:55Z</time>
      </trkpt>
      <trkpt lat="42.8785760" lon="1.5256850">
        <ele>683.4</ele>
        <time>2020-07-23T08:17:01Z</time>
      </trkpt>
      <trkpt lat="42.8786010" lon="1.5255540">
        <ele>683.8</ele>
        <time>2020-07-23T08:17:03Z</time>
      </trkpt>
      <trkpt lat="42.8786290" lon="1.5254150">
        <ele>684.0</ele>
        <time>2020-07-23T08:17:05Z</time>
      </trkpt>
      <trkpt lat="42.8787080" lon="1.5250030">
        <ele>684.4</ele>
        <time>2020-07-23T08:17:11Z</time>
      </trkpt>
      <trkpt lat="42.8787220" lon="1.5249350">
        <ele>684.6</ele>
        <time>2020-07-23T08:17:12Z</time>
      </trkpt>
      <trkpt lat="42.8787620" lon="1.5247350">
        <ele>685.2</ele>
        <time>2020-07-23T08:17:15Z</time>
      </trkpt>
      <trkpt lat="42.8787850" lon="1.5246030">
        <ele>685.6</ele>
        <time>2020-07-23T08:17:17Z</time>
      </trkpt>
      <trkpt lat="42.8788650" lon="1.5242040">
        <ele>686.4</ele>
        <time>2020-07-23T08:17:23Z</time>
      </trkpt>
      <trkpt lat="42.8788780" lon="1.5241370">
        <ele>686.4</ele>
        <time>2020-07-23T08:17:24Z</time>
      </trkpt>
      <trkpt lat="42.8789050" lon="1.5240020">
        <ele>686.6</ele>
        <time>2020-07-23T08:17:26Z</time>
      </trkpt>
      <trkpt lat="42.8789790" lon="1.5236200">
        <ele>687.4</ele>
        <time>2020-07-23T08:17:32Z</time>
      </trkpt>
      <trkpt lat="42.8790900" lon="1.5230410">
        <ele>689.2</ele>
        <time>2020-07-23T08:18:29Z</time>
      </trkpt>
      <trkpt lat="42.8790990" lon="1.5230010">
        <ele>689.6</ele>
        <time>2020-07-23T08:18:30Z</time>
      </trkpt>
      <trkpt lat="42.8791210" lon="1.5229180">
        <ele>690.0</ele>
        <time>2020-07-23T08:18:32Z</time>
      </trkpt>
      <trkpt lat="42.8791520" lon="1.5227780">
        <ele>690.4</ele>
        <time>2020-07-23T08:18:35Z</time>
      </trkpt>
      <trkpt lat="42.8791890" lon="1.5225950">
        <ele>691.6</ele>
        <time>2020-07-23T08:18:39Z</time>
      </trkpt>
      <trkpt lat="42.8792210" lon="1.5223960">
        <ele>692.2</ele>
        <time>2020-07-23T08:18:43Z</time>
      </trkpt>
      <trkpt lat="42.8792500" lon="1.5222540">
        <ele>692.6</ele>
        <time>2020-07-23T08:18:46Z</time>
      </trkpt>
      <trkpt lat="42.8792870" lon="1.5220750">
        <ele>693.6</ele>
        <time>2020-07-23T08:18:50Z</time>
      </trkpt>
      <trkpt lat="42.8793020" lon="1.5219770">
        <ele>694.0</ele>
        <time>2020-07-23T08:18:52Z</time>
      </trkpt>
      <trkpt lat="42.8793360" lon="1.5217850">
        <ele>694.6</ele>
        <time>2020-07-23T08:18:56Z</time>
      </trkpt>
      <trkpt lat="42.8793880" lon="1.5215350">
        <ele>695.0</ele>
        <time>2020-07-23T08:19:01Z</time>
      </trkpt>
      <trkpt lat="42.8794280" lon="1.5213290">
        <ele>695.8</ele>
        <time>2020-07-23T08:19:05Z</time>
      </trkpt>
      <trkpt lat="42.8794690" lon="1.5211100">
        <ele>696.2</ele>
        <time>2020-07-23T08:19:09Z</time>
      </trkpt>
      <trkpt lat="42.8795380" lon="1.5207550">
        <ele>696.4</ele>
        <time>2020-07-23T08:19:15Z</time>
      </trkpt>
      <trkpt lat="42.8795630" lon="1.5206300">
        <ele>696.6</ele>
        <time>2020-07-23T08:19:17Z</time>
      </trkpt>
      <trkpt lat="42.8795890" lon="1.5205100">
        <ele>696.8</ele>
        <time>2020-07-23T08:19:19Z</time>
      </trkpt>
      <trkpt lat="42.8796660" lon="1.5201830">
        <ele>697.8</ele>
        <time>2020-07-23T08:19:25Z</time>
      </trkpt>
      <trkpt lat="42.8797060" lon="1.5200120">
        <ele>699.0</ele>
        <time>2020-07-23T08:19:29Z</time>
      </trkpt>
      <trkpt lat="42.8797230" lon="1.5198950">
        <ele>700.2</ele>
        <time>2020-07-23T08:19:32Z</time>
      </trkpt>
      <trkpt lat="42.8797340" lon="1.5198160">
        <ele>700.4</ele>
        <time>2020-07-23T08:19:34Z</time>
      </trkpt>
      <trkpt lat="42.8797480" lon="1.5196990">
        <ele>700.8</ele>
        <time>2020-07-23T08:19:37Z</time>
      </trkpt>
      <trkpt lat="42.8797580" lon="1.5196150">
        <ele>701.2</ele>
        <time>2020-07-23T08:19:39Z</time>
      </trkpt>
      <trkpt lat="42.8797760" lon="1.5194400">
        <ele>702.2</ele>
        <time>2020-07-23T08:19:43Z</time>
      </trkpt>
      <trkpt lat="42.8797880" lon="1.5191610">
        <ele>703.2</ele>
        <time>2020-07-23T08:19:49Z</time>
      </trkpt>
      <trkpt lat="42.8797930" lon="1.5190730">
        <ele>703.6</ele>
        <time>2020-07-23T08:19:51Z</time>
      </trkpt>
      <trkpt lat="42.8797960" lon="1.5190320">
        <ele>703.8</ele>
        <time>2020-07-23T08:19:52Z</time>
      </trkpt>
      <trkpt lat="42.8798040" lon="1.5189470">
        <ele>704.4</ele>
        <time>2020-07-23T08:19:54Z</time>
      </trkpt>
      <trkpt lat="42.8798250" lon="1.5187020">
        <ele>705.6</ele>
        <time>2020-07-23T08:20:00Z</time>
      </trkpt>
      <trkpt lat="42.8798450" lon="1.5186230">
        <ele>706.0</ele>
        <time>2020-07-23T08:20:02Z</time>
      </trkpt>
      <trkpt lat="42.8798850" lon="1.5184560">
        <ele>706.8</ele>
        <time>2020-07-23T08:20:06Z</time>
      </trkpt>
      <trkpt lat="42.8799510" lon="1.5183120">
        <ele>707.2</ele>
        <time>2020-07-23T08:20:10Z</time>
      </trkpt>
      <trkpt lat="42.8800270" lon="1.5181810">
        <ele>708.0</ele>
        <time>2020-07-23T08:20:14Z</time>
      </trkpt>
      <trkpt lat="42.8800860" lon="1.5180920">
        <ele>708.6</ele>
        <time>2020-07-23T08:20:17Z</time>
      </trkpt>
      <trkpt lat="42.8801260" lon="1.5180310">
        <ele>709.2</ele>
        <time>2020-07-23T08:20:19Z</time>
      </trkpt>
      <trkpt lat="42.8802470" lon="1.5178520">
        <ele>710.2</ele>
        <time>2020-07-23T08:20:25Z</time>
      </trkpt>
      <trkpt lat="42.8803220" lon="1.5177320">
        <ele>711.2</ele>
        <time>2020-07-23T08:20:29Z</time>
      </trkpt>
      <trkpt lat="42.8803390" lon="1.5177010">
        <ele>711.4</ele>
        <time>2020-07-23T08:20:30Z</time>
      </trkpt>
      <trkpt lat="42.8803560" lon="1.5176690">
        <ele>711.6</ele>
        <time>2020-07-23T08:20:31Z</time>
      </trkpt>
      <trkpt lat="42.8804130" lon="1.5175450">
        <ele>712.6</ele>
        <time>2020-07-23T08:20:35Z</time>
      </trkpt>
      <trkpt lat="42.8804220" lon="1.5175050">
        <ele>712.8</ele>
        <time>2020-07-23T08:20:36Z</time>
      </trkpt>
      <trkpt lat="42.8804350" lon="1.5172930">
        <ele>713.8</ele>
        <time>2020-07-23T08:20:41Z</time>
      </trkpt>
      <trkpt lat="42.8804310" lon="1.5172100">
        <ele>714.2</ele>
        <time>2020-07-23T08:20:43Z</time>
      </trkpt>
      <trkpt lat="42.8804130" lon="1.5170400">
        <ele>714.8</ele>
        <time>2020-07-23T08:20:47Z</time>
      </trkpt>
      <trkpt lat="42.8803690" lon="1.5168470">
        <ele>716.0</ele>
        <time>2020-07-23T08:20:52Z</time>
      </trkpt>
      <trkpt lat="42.8803070" lon="1.5167210">
        <ele>717.2</ele>
        <time>2020-07-23T08:20:56Z</time>
      </trkpt>
      <trkpt lat="42.8802360" lon="1.5166010">
        <ele>718.2</ele>
        <time>2020-07-23T08:21:00Z</time>
      </trkpt>
      <trkpt lat="42.8801820" lon="1.5164210">
        <ele>719.2</ele>
        <time>2020-07-23T08:21:05Z</time>
      </trkpt>
      <trkpt lat="42.8801580" lon="1.5163070">
        <ele>720.2</ele>
        <time>2020-07-23T08:21:08Z</time>
      </trkpt>
      <trkpt lat="42.8801500" lon="1.5162690">
        <ele>720.6</ele>
        <time>2020-07-23T08:21:09Z</time>
      </trkpt>
      <trkpt lat="42.8801030" lon="1.5160800">
        <ele>721.4</ele>
        <time>2020-07-23T08:21:14Z</time>
      </trkpt>
      <trkpt lat="42.8800940" lon="1.5160400">
        <ele>721.6</ele>
        <time>2020-07-23T08:21:15Z</time>
      </trkpt>
      <trkpt lat="42.8800810" lon="1.5159590">
        <ele>722.0</ele>
        <time>2020-07-23T08:21:17Z</time>
      </trkpt>
      <trkpt lat="42.8800660" lon="1.5158010">
        <ele>723.0</ele>
        <time>2020-07-23T08:21:21Z</time>
      </trkpt>
      <trkpt lat="42.8800540" lon="1.5156880">
        <ele>723.4</ele>
        <time>2020-07-23T08:21:24Z</time>
      </trkpt>
      <trkpt lat="42.8800580" lon="1.5156500">
        <ele>723.6</ele>
        <time>2020-07-23T08:21:25Z</time>
      </trkpt>
      <trkpt lat="42.8800550" lon="1.5155350">
        <ele>724.0</ele>
        <time>2020-07-23T08:21:28Z</time>
      </trkpt>
      <trkpt lat="42.8800550" lon="1.5154580">
        <ele>724.4</ele>
        <time>2020-07-23T08:21:30Z</time>
      </trkpt>
      <trkpt lat="42.8800570" lon="1.5154180">
        <ele>724.6</ele>
        <time>2020-07-23T08:21:31Z</time>
      </trkpt>
      <trkpt lat="42.8800530" lon="1.5152990">
        <ele>725.0</ele>
        <time>2020-07-23T08:21:34Z</time>
      </trkpt>
      <trkpt lat="42.8800540" lon="1.5151410">
        <ele>726.0</ele>
        <time>2020-07-23T08:21:38Z</time>
      </trkpt>
      <trkpt lat="42.8800550" lon="1.5151010">
        <ele>726.2</ele>
        <time>2020-07-23T08:21:39Z</time>
      </trkpt>
      <trkpt lat="42.8800590" lon="1.5149370">
        <ele>726.8</ele>
        <time>2020-07-23T08:21:43Z</time>
      </trkpt>
      <trkpt lat="42.8800590" lon="1.5148540">
        <ele>727.4</ele>
        <time>2020-07-23T08:21:45Z</time>
      </trkpt>
      <trkpt lat="42.8800700" lon="1.5147320">
        <ele>728.0</ele>
        <time>2020-07-23T08:21:48Z</time>
      </trkpt>
      <trkpt lat="42.8800840" lon="1.5146500">
        <ele>728.4</ele>
        <time>2020-07-23T08:21:50Z</time>
      </trkpt>
      <trkpt lat="42.8801440" lon="1.5144630">
        <ele>729.6</ele>
        <time>2020-07-23T08:21:55Z</time>
      </trkpt>
      <trkpt lat="42.8802210" lon="1.5143000">
        <ele>730.8</ele>
        <time>2020-07-23T08:22:00Z</time>
      </trkpt>
      <trkpt lat="42.8802570" lon="1.5142000">
        <ele>731.4</ele>
        <time>2020-07-23T08:22:03Z</time>
      </trkpt>
      <trkpt lat="42.8802790" lon="1.5141330">
        <ele>731.8</ele>
        <time>2020-07-23T08:22:05Z</time>
      </trkpt>
      <trkpt lat="42.8803350" lon="1.5139610">
        <ele>732.6</ele>
        <time>2020-07-23T08:22:10Z</time>
      </trkpt>
      <trkpt lat="42.8803430" lon="1.5139280">
        <ele>733.0</ele>
        <time>2020-07-23T08:22:11Z</time>
      </trkpt>
      <trkpt lat="42.8803710" lon="1.5138320">
        <ele>734.0</ele>
        <time>2020-07-23T08:22:14Z</time>
      </trkpt>
      <trkpt lat="42.8804000" lon="1.5137440">
        <ele>734.6</ele>
        <time>2020-07-23T08:22:17Z</time>
      </trkpt>
      <trkpt lat="42.8804240" lon="1.5136620">
        <ele>735.0</ele>
        <time>2020-07-23T08:22:20Z</time>
      </trkpt>
      <trkpt lat="42.8804860" lon="1.5135390">
        <ele>736.0</ele>
        <time>2020-07-23T08:22:25Z</time>
      </trkpt>
      <trkpt lat="42.8805000" lon="1.5135130">
        <ele>736.2</ele>
        <time>2020-07-23T08:22:26Z</time>
      </trkpt>
      <trkpt lat="42.8805550" lon="1.5134000">
        <ele>737.4</ele>
        <time>2020-07-23T08:22:30Z</time>
      </trkpt>
      <trkpt lat="42.8805790" lon="1.5133440">
        <ele>737.6</ele>
        <time>2020-07-23T08:22:32Z</time>
      </trkpt>
      <trkpt lat="42.8806230" lon="1.5131810">
        <ele>738.6</ele>
        <time>2020-07-23T08:22:38Z</time>
      </trkpt>
      <trkpt lat="42.8806430" lon="1.5131010">
        <ele>739.4</ele>
        <time>2020-07-23T08:22:41Z</time>
      </trkpt>
      <trkpt lat="42.8806470" lon="1.5130410">
        <ele>739.6</ele>
        <time>2020-07-23T08:22:43Z</time>
      </trkpt>
      <trkpt lat="42.8806650" lon="1.5128570">
        <ele>740.4</ele>
        <time>2020-07-23T08:22:49Z</time>
      </trkpt>
      <trkpt lat="42.8806770" lon="1.5127850">
        <ele>740.6</ele>
        <time>2020-07-23T08:22:51Z</time>
      </trkpt>
      <trkpt lat="42.8806840" lon="1.5125980">
        <ele>741.6</ele>
        <time>2020-07-23T08:22:56Z</time>
      </trkpt>
      <trkpt lat="42.8806840" lon="1.5125600">
        <ele>741.8</ele>
        <time>2020-07-23T08:22:57Z</time>
      </trkpt>
      <trkpt lat="42.8806960" lon="1.5123440">
        <ele>743.0</ele>
        <time>2020-07-23T08:23:03Z</time>
      </trkpt>
      <trkpt lat="42.8806980" lon="1.5123090">
        <ele>743.2</ele>
        <time>2020-07-23T08:23:04Z</time>
      </trkpt>
      <trkpt lat="42.8806970" lon="1.5121320">
        <ele>744.0</ele>
        <time>2020-07-23T08:23:09Z</time>
      </trkpt>
      <trkpt lat="42.8806980" lon="1.5120700">
        <ele>744.2</ele>
        <time>2020-07-23T08:23:11Z</time>
      </trkpt>
      <trkpt lat="42.8807090" lon="1.5119170">
        <ele>745.4</ele>
        <time>2020-07-23T08:23:16Z</time>
      </trkpt>
      <trkpt lat="42.8807170" lon="1.5118250">
        <ele>745.8</ele>
        <time>2020-07-23T08:23:19Z</time>
      </trkpt>
      <trkpt lat="42.8807420" lon="1.5117100">
        <ele>746.4</ele>
        <time>2020-07-23T08:23:23Z</time>
      </trkpt>
      <trkpt lat="42.8807710" lon="1.5115980">
        <ele>746.8</ele>
        <time>2020-07-23T08:23:27Z</time>
      </trkpt>
      <trkpt lat="42.8807880" lon="1.5115130">
        <ele>747.8</ele>
        <time>2020-07-23T08:23:30Z</time>
      </trkpt>
      <trkpt lat="42.8808150" lon="1.5113740">
        <ele>748.2</ele>
        <time>2020-07-23T08:23:34Z</time>
      </trkpt>
      <trkpt lat="42.8808260" lon="1.5112640">
        <ele>749.0</ele>
        <time>2020-07-23T08:23:37Z</time>
      </trkpt>
      <trkpt lat="42.8808280" lon="1.5111210">
        <ele>750.0</ele>
        <time>2020-07-23T08:23:41Z</time>
      </trkpt>
      <trkpt lat="42.8808300" lon="1.5110860">
        <ele>750.2</ele>
        <time>2020-07-23T08:23:42Z</time>
      </trkpt>
      <trkpt lat="42.8808270" lon="1.5108650">
        <ele>751.2</ele>
        <time>2020-07-23T08:23:48Z</time>
      </trkpt>
      <trkpt lat="42.8808190" lon="1.5107160">
        <ele>751.8</ele>
        <time>2020-07-23T08:23:52Z</time>
      </trkpt>
      <trkpt lat="42.8808150" lon="1.5106440">
        <ele>752.2</ele>
        <time>2020-07-23T08:23:54Z</time>
      </trkpt>
      <trkpt lat="42.8808040" lon="1.5104740">
        <ele>753.4</ele>
        <time>2020-07-23T08:23:59Z</time>
      </trkpt>
      <trkpt lat="42.8807960" lon="1.5103690">
        <ele>754.0</ele>
        <time>2020-07-23T08:24:02Z</time>
      </trkpt>
      <trkpt lat="42.8807970" lon="1.5102600">
        <ele>754.6</ele>
        <time>2020-07-23T08:24:05Z</time>
      </trkpt>
      <trkpt lat="42.8808010" lon="1.5101200">
        <ele>755.2</ele>
        <time>2020-07-23T08:24:09Z</time>
      </trkpt>
      <trkpt lat="42.8808060" lon="1.5100490">
        <ele>755.6</ele>
        <time>2020-07-23T08:24:11Z</time>
      </trkpt>
      <trkpt lat="42.8808240" lon="1.5098680">
        <ele>756.8</ele>
        <time>2020-07-23T08:24:16Z</time>
      </trkpt>
      <trkpt lat="42.8808340" lon="1.5098040">
        <ele>757.0</ele>
        <time>2020-07-23T08:24:18Z</time>
      </trkpt>
      <trkpt lat="42.8808640" lon="1.5096290">
        <ele>757.8</ele>
        <time>2020-07-23T08:24:23Z</time>
      </trkpt>
      <trkpt lat="42.8808740" lon="1.5095670">
        <ele>758.4</ele>
        <time>2020-07-23T08:24:25Z</time>
      </trkpt>
      <trkpt lat="42.8808820" lon="1.5095060">
        <ele>758.8</ele>
        <time>2020-07-23T08:24:27Z</time>
      </trkpt>
      <trkpt lat="42.8808910" lon="1.5094120">
        <ele>759.6</ele>
        <time>2020-07-23T08:24:30Z</time>
      </trkpt>
      <trkpt lat="42.8808940" lon="1.5093820">
        <ele>759.8</ele>
        <time>2020-07-23T08:24:31Z</time>
      </trkpt>
      <trkpt lat="42.8808950" lon="1.5093490">
        <ele>760.0</ele>
        <time>2020-07-23T08:24:32Z</time>
      </trkpt>
      <trkpt lat="42.8808990" lon="1.5092810">
        <ele>760.4</ele>
        <time>2020-07-23T08:24:34Z</time>
      </trkpt>
      <trkpt lat="42.8808990" lon="1.5091600">
        <ele>761.2</ele>
        <time>2020-07-23T08:24:38Z</time>
      </trkpt>
      <trkpt lat="42.8808970" lon="1.5091300">
        <ele>761.6</ele>
        <time>2020-07-23T08:24:39Z</time>
      </trkpt>
      <trkpt lat="42.8808710" lon="1.5089930">
        <ele>762.2</ele>
        <time>2020-07-23T08:24:43Z</time>
      </trkpt>
      <trkpt lat="42.8808350" lon="1.5088530">
        <ele>763.0</ele>
        <time>2020-07-23T08:24:47Z</time>
      </trkpt>
      <trkpt lat="42.8808240" lon="1.5088200">
        <ele>763.2</ele>
        <time>2020-07-23T08:24:48Z</time>
      </trkpt>
      <trkpt lat="42.8807660" lon="1.5086410">
        <ele>763.8</ele>
        <time>2020-07-23T08:24:54Z</time>
      </trkpt>
      <trkpt lat="42.8807240" lon="1.5085060">
        <ele>764.2</ele>
        <time>2020-07-23T08:24:58Z</time>
      </trkpt>
      <trkpt lat="42.8807040" lon="1.5084070">
        <ele>765.0</ele>
        <time>2020-07-23T08:25:01Z</time>
      </trkpt>
      <trkpt lat="42.8806850" lon="1.5083480">
        <ele>765.4</ele>
        <time>2020-07-23T08:25:03Z</time>
      </trkpt>
      <trkpt lat="42.8806600" lon="1.5082310">
        <ele>766.0</ele>
        <time>2020-07-23T08:25:07Z</time>
      </trkpt>
      <trkpt lat="42.8806440" lon="1.5081500">
        <ele>766.4</ele>
        <time>2020-07-23T08:25:10Z</time>
      </trkpt>
      <trkpt lat="42.8805850" lon="1.5079690">
        <ele>767.6</ele>
        <time>2020-07-23T08:25:16Z</time>
      </trkpt>
      <trkpt lat="42.8805850" lon="1.5079350">
        <ele>767.8</ele>
        <time>2020-07-23T08:25:17Z</time>
      </trkpt>
      <trkpt lat="42.8805810" lon="1.5078330">
        <ele>768.6</ele>
        <time>2020-07-23T08:25:20Z</time>
      </trkpt>
      <trkpt lat="42.8805970" lon="1.5077600">
        <ele>769.0</ele>
        <time>2020-07-23T08:25:22Z</time>
      </trkpt>
      <trkpt lat="42.8806190" lon="1.5076400">
        <ele>769.6</ele>
        <time>2020-07-23T08:25:26Z</time>
      </trkpt>
      <trkpt lat="42.8806150" lon="1.5076110">
        <ele>769.6</ele>
        <time>2020-07-23T08:25:27Z</time>
      </trkpt>
      <trkpt lat="42.8806120" lon="1.5074340">
        <ele>770.6</ele>
        <time>2020-07-23T08:25:33Z</time>
      </trkpt>
      <trkpt lat="42.8806160" lon="1.5072670">
        <ele>771.6</ele>
        <time>2020-07-23T08:25:39Z</time>
      </trkpt>
      <trkpt lat="42.8806150" lon="1.5072360">
        <ele>771.6</ele>
        <time>2020-07-23T08:25:40Z</time>
      </trkpt>
      <trkpt lat="42.8806290" lon="1.5070500">
        <ele>772.6</ele>
        <time>2020-07-23T08:25:46Z</time>
      </trkpt>
      <trkpt lat="42.8806310" lon="1.5070190">
        <ele>772.8</ele>
        <time>2020-07-23T08:25:47Z</time>
      </trkpt>
      <trkpt lat="42.8806280" lon="1.5069850">
        <ele>772.8</ele>
        <time>2020-07-23T08:25:48Z</time>
      </trkpt>
      <trkpt lat="42.8806210" lon="1.5069230">
        <ele>773.0</ele>
        <time>2020-07-23T08:25:50Z</time>
      </trkpt>
      <trkpt lat="42.8806180" lon="1.5068370">
        <ele>774.0</ele>
        <time>2020-07-23T08:25:53Z</time>
      </trkpt>
      <trkpt lat="42.8806090" lon="1.5066860">
        <ele>774.8</ele>
        <time>2020-07-23T08:25:58Z</time>
      </trkpt>
      <trkpt lat="42.8806080" lon="1.5066120">
        <ele>775.2</ele>
        <time>2020-07-23T08:26:00Z</time>
      </trkpt>
      <trkpt lat="42.8806110" lon="1.5064290">
        <ele>776.2</ele>
        <time>2020-07-23T08:26:05Z</time>
      </trkpt>
      <trkpt lat="42.8806130" lon="1.5063930">
        <ele>776.4</ele>
        <time>2020-07-23T08:26:06Z</time>
      </trkpt>
      <trkpt lat="42.8806350" lon="1.5061770">
        <ele>777.4</ele>
        <time>2020-07-23T08:26:12Z</time>
      </trkpt>
      <trkpt lat="42.8806390" lon="1.5061430">
        <ele>777.6</ele>
        <time>2020-07-23T08:26:13Z</time>
      </trkpt>
      <trkpt lat="42.8806550" lon="1.5060050">
        <ele>778.6</ele>
        <time>2020-07-23T08:26:17Z</time>
      </trkpt>
      <trkpt lat="42.8806650" lon="1.5058850">
        <ele>779.2</ele>
        <time>2020-07-23T08:26:21Z</time>
      </trkpt>
      <trkpt lat="42.8806410" lon="1.5057860">
        <ele>779.6</ele>
        <time>2020-07-23T08:26:24Z</time>
      </trkpt>
      <trkpt lat="42.8806020" lon="1.5056640">
        <ele>780.2</ele>
        <time>2020-07-23T08:26:28Z</time>
      </trkpt>
      <trkpt lat="42.8805710" lon="1.5056030">
        <ele>780.6</ele>
        <time>2020-07-23T08:26:30Z</time>
      </trkpt>
      <trkpt lat="42.8805370" lon="1.5055460">
        <ele>781.0</ele>
        <time>2020-07-23T08:26:32Z</time>
      </trkpt>
      <trkpt lat="42.8805090" lon="1.5054960">
        <ele>781.2</ele>
        <time>2020-07-23T08:26:34Z</time>
      </trkpt>
      <trkpt lat="42.8804550" lon="1.5053750">
        <ele>781.8</ele>
        <time>2020-07-23T08:26:38Z</time>
      </trkpt>
      <trkpt lat="42.8804180" lon="1.5052370">
        <ele>782.8</ele>
        <time>2020-07-23T08:26:42Z</time>
      </trkpt>
      <trkpt lat="42.8804150" lon="1.5052040">
        <ele>783.0</ele>
        <time>2020-07-23T08:26:43Z</time>
      </trkpt>
      <trkpt lat="42.8804430" lon="1.5050550">
        <ele>784.0</ele>
        <time>2020-07-23T08:26:48Z</time>
      </trkpt>
      <trkpt lat="42.8804520" lon="1.5050240">
        <ele>784.4</ele>
        <time>2020-07-23T08:26:49Z</time>
      </trkpt>
      <trkpt lat="42.8805240" lon="1.5048600">
        <ele>785.2</ele>
        <time>2020-07-23T08:26:55Z</time>
      </trkpt>
      <trkpt lat="42.8805360" lon="1.5048320">
        <ele>785.4</ele>
        <time>2020-07-23T08:26:56Z</time>
      </trkpt>
      <trkpt lat="42.8805820" lon="1.5046970">
        <ele>786.4</ele>
        <time>2020-07-23T08:27:00Z</time>
      </trkpt>
      <trkpt lat="42.8806130" lon="1.5045920">
        <ele>787.4</ele>
        <time>2020-07-23T08:27:03Z</time>
      </trkpt>
      <trkpt lat="42.8806240" lon="1.5045560">
        <ele>787.6</ele>
        <time>2020-07-23T08:27:04Z</time>
      </trkpt>
      <trkpt lat="42.8806630" lon="1.5044270">
        <ele>788.2</ele>
        <time>2020-07-23T08:27:08Z</time>
      </trkpt>
      <trkpt lat="42.8806840" lon="1.5043300">
        <ele>788.8</ele>
        <time>2020-07-23T08:27:11Z</time>
      </trkpt>
      <trkpt lat="42.8807040" lon="1.5042650">
        <ele>789.6</ele>
        <time>2020-07-23T08:27:13Z</time>
      </trkpt>
      <trkpt lat="42.8807170" lon="1.5042340">
        <ele>789.8</ele>
        <time>2020-07-23T08:27:14Z</time>
      </trkpt>
      <trkpt lat="42.8807890" lon="1.5040940">
        <ele>791.0</ele>
        <time>2020-07-23T08:27:19Z</time>
      </trkpt>
      <trkpt lat="42.8808060" lon="1.5040700">
        <ele>791.2</ele>
        <time>2020-07-23T08:27:20Z</time>
      </trkpt>
      <trkpt lat="42.8808820" lon="1.5039910">
        <ele>791.8</ele>
        <time>2020-07-23T08:27:24Z</time>
      </trkpt>
      <trkpt lat="42.8809010" lon="1.5039730">
        <ele>792.0</ele>
        <time>2020-07-23T08:27:25Z</time>
      </trkpt>
      <trkpt lat="42.8809700" lon="1.5039270">
        <ele>792.8</ele>
        <time>2020-07-23T08:27:28Z</time>
      </trkpt>
      <trkpt lat="42.8810160" lon="1.5038950">
        <ele>793.0</ele>
        <time>2020-07-23T08:27:30Z</time>
      </trkpt>
      <trkpt lat="42.8811340" lon="1.5038010">
        <ele>794.0</ele>
        <time>2020-07-23T08:27:35Z</time>
      </trkpt>
      <trkpt lat="42.8811830" lon="1.5037630">
        <ele>794.6</ele>
        <time>2020-07-23T08:27:37Z</time>
      </trkpt>
      <trkpt lat="42.8812570" lon="1.5037190">
        <ele>795.0</ele>
        <time>2020-07-23T08:27:40Z</time>
      </trkpt>
      <trkpt lat="42.8814040" lon="1.5036490">
        <ele>796.2</ele>
        <time>2020-07-23T08:27:46Z</time>
      </trkpt>
      <trkpt lat="42.8814260" lon="1.5036340">
        <ele>796.4</ele>
        <time>2020-07-23T08:27:47Z</time>
      </trkpt>
      <trkpt lat="42.8814930" lon="1.5035940">
        <ele>797.4</ele>
        <time>2020-07-23T08:27:50Z</time>
      </trkpt>
      <trkpt lat="42.8816030" lon="1.5035280">
        <ele>798.4</ele>
        <time>2020-07-23T08:27:55Z</time>
      </trkpt>
      <trkpt lat="42.8817120" lon="1.5034510">
        <ele>799.6</ele>
        <time>2020-07-23T08:28:00Z</time>
      </trkpt>
      <trkpt lat="42.8817810" lon="1.5034030">
        <ele>799.8</ele>
        <time>2020-07-23T08:28:03Z</time>
      </trkpt>
      <trkpt lat="42.8818950" lon="1.5033330">
        <ele>800.6</ele>
        <time>2020-07-23T08:28:08Z</time>
      </trkpt>
      <trkpt lat="42.8819650" lon="1.5032880">
        <ele>801.4</ele>
        <time>2020-07-23T08:28:11Z</time>
      </trkpt>
      <trkpt lat="42.8820320" lon="1.5032290">
        <ele>802.0</ele>
        <time>2020-07-23T08:28:14Z</time>
      </trkpt>
      <trkpt lat="42.8821040" lon="1.5031270">
        <ele>803.0</ele>
        <time>2020-07-23T08:28:18Z</time>
      </trkpt>
      <trkpt lat="42.8821430" lon="1.5030770">
        <ele>803.6</ele>
        <time>2020-07-23T08:28:20Z</time>
      </trkpt>
      <trkpt lat="42.8822160" lon="1.5029590">
        <ele>804.2</ele>
        <time>2020-07-23T08:28:24Z</time>
      </trkpt>
      <trkpt lat="42.8822780" lon="1.5028290">
        <ele>805.0</ele>
        <time>2020-07-23T08:28:28Z</time>
      </trkpt>
      <trkpt lat="42.8823100" lon="1.5027710">
        <ele>805.4</ele>
        <time>2020-07-23T08:28:30Z</time>
      </trkpt>
      <trkpt lat="42.8823690" lon="1.5026470">
        <ele>806.6</ele>
        <time>2020-07-23T08:28:34Z</time>
      </trkpt>
      <trkpt lat="42.8824130" lon="1.5025590">
        <ele>807.0</ele>
        <time>2020-07-23T08:28:37Z</time>
      </trkpt>
      <trkpt lat="42.8824680" lon="1.5024390">
        <ele>807.6</ele>
        <time>2020-07-23T08:28:41Z</time>
      </trkpt>
      <trkpt lat="42.8825060" lon="1.5023310">
        <ele>808.2</ele>
        <time>2020-07-23T08:28:44Z</time>
      </trkpt>
      <trkpt lat="42.8825370" lon="1.5022640">
        <ele>808.6</ele>
        <time>2020-07-23T08:28:46Z</time>
      </trkpt>
      <trkpt lat="42.8825510" lon="1.5022300">
        <ele>808.8</ele>
        <time>2020-07-23T08:28:47Z</time>
      </trkpt>
      <trkpt lat="42.8825880" lon="1.5021270">
        <ele>809.2</ele>
        <time>2020-07-23T08:28:50Z</time>
      </trkpt>
      <trkpt lat="42.8825960" lon="1.5020500">
        <ele>809.8</ele>
        <time>2020-07-23T08:28:52Z</time>
      </trkpt>
      <trkpt lat="42.8825600" lon="1.5018070">
        <ele>810.6</ele>
        <time>2020-07-23T08:28:58Z</time>
      </trkpt>
      <trkpt lat="42.8825410" lon="1.5017760">
        <ele>810.8</ele>
        <time>2020-07-23T08:28:59Z</time>
      </trkpt>
      <trkpt lat="42.8824540" lon="1.5017250">
        <ele>811.2</ele>
        <time>2020-07-23T08:29:02Z</time>
      </trkpt>
      <trkpt lat="42.8822790" lon="1.5017470">
        <ele>811.6</ele>
        <time>2020-07-23T08:29:08Z</time>
      </trkpt>
      <trkpt lat="42.8822180" lon="1.5017840">
        <ele>811.8</ele>
        <time>2020-07-23T08:29:10Z</time>
      </trkpt>
      <trkpt lat="42.8820940" lon="1.5018500">
        <ele>812.6</ele>
        <time>2020-07-23T08:29:14Z</time>
      </trkpt>
      <trkpt lat="42.8820580" lon="1.5018640">
        <ele>813.0</ele>
        <time>2020-07-23T08:29:15Z</time>
      </trkpt>
      <trkpt lat="42.8818590" lon="1.5018760">
        <ele>813.8</ele>
        <time>2020-07-23T08:29:20Z</time>
      </trkpt>
      <trkpt lat="42.8817850" lon="1.5018570">
        <ele>814.2</ele>
        <time>2020-07-23T08:29:22Z</time>
      </trkpt>
      <trkpt lat="42.8816630" lon="1.5017950">
        <ele>815.2</ele>
        <time>2020-07-23T08:29:26Z</time>
      </trkpt>
      <trkpt lat="42.8816380" lon="1.5017770">
        <ele>815.6</ele>
        <time>2020-07-23T08:29:27Z</time>
      </trkpt>
      <trkpt lat="42.8815110" lon="1.5016900">
        <ele>816.8</ele>
        <time>2020-07-23T08:29:32Z</time>
      </trkpt>
      <trkpt lat="42.8813920" lon="1.5016010">
        <ele>817.8</ele>
        <time>2020-07-23T08:29:37Z</time>
      </trkpt>
      <trkpt lat="42.8813670" lon="1.5015850">
        <ele>818.0</ele>
        <time>2020-07-23T08:29:38Z</time>
      </trkpt>
      <trkpt lat="42.8812940" lon="1.5015420">
        <ele>818.4</ele>
        <time>2020-07-23T08:29:41Z</time>
      </trkpt>
      <trkpt lat="42.8812480" lon="1.5015090">
        <ele>819.0</ele>
        <time>2020-07-23T08:29:43Z</time>
      </trkpt>
      <trkpt lat="42.8811590" lon="1.5014420">
        <ele>819.8</ele>
        <time>2020-07-23T08:29:47Z</time>
      </trkpt>
      <trkpt lat="42.8811340" lon="1.5014280">
        <ele>820.0</ele>
        <time>2020-07-23T08:29:48Z</time>
      </trkpt>
      <trkpt lat="42.8810070" lon="1.5013190">
        <ele>821.2</ele>
        <time>2020-07-23T08:29:54Z</time>
      </trkpt>
      <trkpt lat="42.8809390" lon="1.5012750">
        <ele>821.8</ele>
        <time>2020-07-23T08:29:57Z</time>
      </trkpt>
      <trkpt lat="42.8808970" lon="1.5012480">
        <ele>822.4</ele>
        <time>2020-07-23T08:29:59Z</time>
      </trkpt>
      <trkpt lat="42.8807670" lon="1.5011920">
        <ele>823.4</ele>
        <time>2020-07-23T08:30:05Z</time>
      </trkpt>
      <trkpt lat="42.8807430" lon="1.5011880">
        <ele>823.8</ele>
        <time>2020-07-23T08:30:06Z</time>
      </trkpt>
      <trkpt lat="42.8806710" lon="1.5011710">
        <ele>824.6</ele>
        <time>2020-07-23T08:30:09Z</time>
      </trkpt>
      <trkpt lat="42.8805600" lon="1.5011500">
        <ele>825.2</ele>
        <time>2020-07-23T08:30:14Z</time>
      </trkpt>
      <trkpt lat="42.8804880" lon="1.5011150">
        <ele>825.8</ele>
        <time>2020-07-23T08:30:17Z</time>
      </trkpt>
      <trkpt lat="42.8804370" lon="1.5010860">
        <ele>826.4</ele>
        <time>2020-07-23T08:30:19Z</time>
      </trkpt>
      <trkpt lat="42.8803720" lon="1.5010210">
        <ele>826.8</ele>
        <time>2020-07-23T08:30:22Z</time>
      </trkpt>
      <trkpt lat="42.8803000" lon="1.5009240">
        <ele>827.8</ele>
        <time>2020-07-23T08:30:26Z</time>
      </trkpt>
      <trkpt lat="42.8802840" lon="1.5008980">
        <ele>828.0</ele>
        <time>2020-07-23T08:30:27Z</time>
      </trkpt>
      <trkpt lat="42.8801770" lon="1.5007510">
        <ele>829.0</ele>
        <time>2020-07-23T08:30:33Z</time>
      </trkpt>
      <trkpt lat="42.8801610" lon="1.5007260">
        <ele>829.2</ele>
        <time>2020-07-23T08:30:34Z</time>
      </trkpt>
      <trkpt lat="42.8801250" lon="1.5006780">
        <ele>829.6</ele>
        <time>2020-07-23T08:30:36Z</time>
      </trkpt>
      <trkpt lat="42.8800710" lon="1.5006030">
        <ele>830.4</ele>
        <time>2020-07-23T08:30:39Z</time>
      </trkpt>
      <trkpt lat="42.8799980" lon="1.5005160">
        <ele>831.0</ele>
        <time>2020-07-23T08:30:43Z</time>
      </trkpt>
      <trkpt lat="42.8799810" lon="1.5004920">
        <ele>831.2</ele>
        <time>2020-07-23T08:30:44Z</time>
      </trkpt>
      <trkpt lat="42.8799650" lon="1.5004670">
        <ele>831.6</ele>
        <time>2020-07-23T08:30:45Z</time>
      </trkpt>
      <trkpt lat="42.8798870" lon="1.5003040">
        <ele>832.6</ele>
        <time>2020-07-23T08:30:51Z</time>
      </trkpt>
      <trkpt lat="42.8798750" lon="1.5002780">
        <ele>832.8</ele>
        <time>2020-07-23T08:30:52Z</time>
      </trkpt>
      <trkpt lat="42.8798060" lon="1.5001480">
        <ele>833.8</ele>
        <time>2020-07-23T08:30:57Z</time>
      </trkpt>
      <trkpt lat="42.8797570" lon="1.5000450">
        <ele>834.6</ele>
        <time>2020-07-23T08:31:01Z</time>
      </trkpt>
      <trkpt lat="42.8797490" lon="1.5000190">
        <ele>834.8</ele>
        <time>2020-07-23T08:31:02Z</time>
      </trkpt>
      <trkpt lat="42.8797550" lon="1.4998550">
        <ele>835.6</ele>
        <time>2020-07-23T08:31:07Z</time>
      </trkpt>
      <trkpt lat="42.8797680" lon="1.4998360">
        <ele>835.8</ele>
        <time>2020-07-23T08:31:08Z</time>
      </trkpt>
      <trkpt lat="42.8797860" lon="1.4998290">
        <ele>836.0</ele>
        <time>2020-07-23T08:31:09Z</time>
      </trkpt>
      <trkpt lat="42.8798090" lon="1.4998330">
        <ele>836.4</ele>
        <time>2020-07-23T08:31:10Z</time>
      </trkpt>
      <trkpt lat="42.8798720" lon="1.4998500">
        <ele>837.2</ele>
        <time>2020-07-23T08:31:12Z</time>
      </trkpt>
      <trkpt lat="42.8799810" lon="1.4999000">
        <ele>837.8</ele>
        <time>2020-07-23T08:31:16Z</time>
      </trkpt>
      <trkpt lat="42.8800030" lon="1.4999240">
        <ele>838.0</ele>
        <time>2020-07-23T08:31:17Z</time>
      </trkpt>
      <trkpt lat="42.8800260" lon="1.4999480">
        <ele>838.2</ele>
        <time>2020-07-23T08:31:18Z</time>
      </trkpt>
      <trkpt lat="42.8800740" lon="1.4999890">
        <ele>838.6</ele>
        <time>2020-07-23T08:31:20Z</time>
      </trkpt>
      <trkpt lat="42.8801210" lon="1.5000370">
        <ele>839.0</ele>
        <time>2020-07-23T08:31:22Z</time>
      </trkpt>
      <trkpt lat="42.8801440" lon="1.5000660">
        <ele>839.0</ele>
        <time>2020-07-23T08:31:23Z</time>
      </trkpt>
      <trkpt lat="42.8801960" lon="1.5001190">
        <ele>839.2</ele>
        <time>2020-07-23T08:31:25Z</time>
      </trkpt>
      <trkpt lat="42.8802770" lon="1.5001900">
        <ele>840.2</ele>
        <time>2020-07-23T08:31:28Z</time>
      </trkpt>
      <trkpt lat="42.8803020" lon="1.5002140">
        <ele>840.4</ele>
        <time>2020-07-23T08:31:29Z</time>
      </trkpt>
      <trkpt lat="42.8803740" lon="1.5002850">
        <ele>840.8</ele>
        <time>2020-07-23T08:31:32Z</time>
      </trkpt>
      <trkpt lat="42.8804460" lon="1.5003530">
        <ele>841.2</ele>
        <time>2020-07-23T08:31:35Z</time>
      </trkpt>
      <trkpt lat="42.8804910" lon="1.5004020">
        <ele>841.4</ele>
        <time>2020-07-23T08:31:37Z</time>
      </trkpt>
      <trkpt lat="42.8805780" lon="1.5004900">
        <ele>842.6</ele>
        <time>2020-07-23T08:31:41Z</time>
      </trkpt>
      <trkpt lat="42.8806850" lon="1.5005890">
        <ele>843.8</ele>
        <time>2020-07-23T08:31:46Z</time>
      </trkpt>
      <trkpt lat="42.8807480" lon="1.5006290">
        <ele>844.4</ele>
        <time>2020-07-23T08:31:49Z</time>
      </trkpt>
      <trkpt lat="42.8807970" lon="1.5006490">
        <ele>844.8</ele>
        <time>2020-07-23T08:31:51Z</time>
      </trkpt>
      <trkpt lat="42.8808930" lon="1.5006720">
        <ele>845.4</ele>
        <time>2020-07-23T08:31:55Z</time>
      </trkpt>
      <trkpt lat="42.8809600" lon="1.5006850">
        <ele>845.8</ele>
        <time>2020-07-23T08:31:58Z</time>
      </trkpt>
      <trkpt lat="42.8810450" lon="1.5006770">
        <ele>846.8</ele>
        <time>2020-07-23T08:32:02Z</time>
      </trkpt>
      <trkpt lat="42.8810640" lon="1.5006760">
        <ele>847.2</ele>
        <time>2020-07-23T08:32:03Z</time>
      </trkpt>
      <trkpt lat="42.8811400" lon="1.5006570">
        <ele>848.0</ele>
        <time>2020-07-23T08:32:07Z</time>
      </trkpt>
      <trkpt lat="42.8811840" lon="1.5006420">
        <ele>848.4</ele>
        <time>2020-07-23T08:32:09Z</time>
      </trkpt>
      <trkpt lat="42.8812600" lon="1.5005910">
        <ele>849.0</ele>
        <time>2020-07-23T08:32:13Z</time>
      </trkpt>
      <trkpt lat="42.8813210" lon="1.5005250">
        <ele>849.8</ele>
        <time>2020-07-23T08:32:17Z</time>
      </trkpt>
      <trkpt lat="42.8813690" lon="1.5004980">
        <ele>850.2</ele>
        <time>2020-07-23T08:32:19Z</time>
      </trkpt>
      <trkpt lat="42.8814460" lon="1.5004150">
        <ele>851.2</ele>
        <time>2020-07-23T08:32:23Z</time>
      </trkpt>
      <trkpt lat="42.8814700" lon="1.5003950">
        <ele>851.4</ele>
        <time>2020-07-23T08:32:24Z</time>
      </trkpt>
      <trkpt lat="42.8815430" lon="1.5003080">
        <ele>852.2</ele>
        <time>2020-07-23T08:32:28Z</time>
      </trkpt>
      <trkpt lat="42.8815970" lon="1.5002360">
        <ele>852.6</ele>
        <time>2020-07-23T08:32:31Z</time>
      </trkpt>
      <trkpt lat="42.8816630" lon="1.5001780">
        <ele>853.6</ele>
        <time>2020-07-23T08:32:34Z</time>
      </trkpt>
      <trkpt lat="42.8817670" lon="1.5001130">
        <ele>854.4</ele>
        <time>2020-07-23T08:32:38Z</time>
      </trkpt>
      <trkpt lat="42.8817940" lon="1.5000940">
        <ele>854.6</ele>
        <time>2020-07-23T08:32:39Z</time>
      </trkpt>
      <trkpt lat="42.8819220" lon="1.5000220">
        <ele>855.2</ele>
        <time>2020-07-23T08:32:44Z</time>
      </trkpt>
      <trkpt lat="42.8819690" lon="1.4999940">
        <ele>855.6</ele>
        <time>2020-07-23T08:32:46Z</time>
      </trkpt>
      <trkpt lat="42.8820590" lon="1.4999650">
        <ele>856.8</ele>
        <time>2020-07-23T08:32:50Z</time>
      </trkpt>
      <trkpt lat="42.8821020" lon="1.4999540">
        <ele>857.0</ele>
        <time>2020-07-23T08:32:52Z</time>
      </trkpt>
      <trkpt lat="42.8822200" lon="1.4999340">
        <ele>857.8</ele>
        <time>2020-07-23T08:32:57Z</time>
      </trkpt>
      <trkpt lat="42.8822910" lon="1.4998980">
        <ele>858.6</ele>
        <time>2020-07-23T08:33:00Z</time>
      </trkpt>
      <trkpt lat="42.8823130" lon="1.4998810">
        <ele>859.0</ele>
        <time>2020-07-23T08:33:01Z</time>
      </trkpt>
      <trkpt lat="42.8824240" lon="1.4998310">
        <ele>860.0</ele>
        <time>2020-07-23T08:33:06Z</time>
      </trkpt>
      <trkpt lat="42.8824680" lon="1.4998220">
        <ele>860.6</ele>
        <time>2020-07-23T08:33:08Z</time>
      </trkpt>
      <trkpt lat="42.8825120" lon="1.4998160">
        <ele>861.0</ele>
        <time>2020-07-23T08:33:10Z</time>
      </trkpt>
      <trkpt lat="42.8826210" lon="1.4997960">
        <ele>862.0</ele>
        <time>2020-07-23T08:33:15Z</time>
      </trkpt>
      <trkpt lat="42.8826610" lon="1.4997760">
        <ele>862.4</ele>
        <time>2020-07-23T08:33:17Z</time>
      </trkpt>
      <trkpt lat="42.8827690" lon="1.4997390">
        <ele>863.2</ele>
        <time>2020-07-23T08:33:23Z</time>
      </trkpt>
      <trkpt lat="42.8828390" lon="1.4997080">
        <ele>864.4</ele>
        <time>2020-07-23T08:33:26Z</time>
      </trkpt>
      <trkpt lat="42.8829260" lon="1.4996600">
        <ele>865.2</ele>
        <time>2020-07-23T08:33:30Z</time>
      </trkpt>
      <trkpt lat="42.8829460" lon="1.4996440">
        <ele>865.4</ele>
        <time>2020-07-23T08:33:31Z</time>
      </trkpt>
      <trkpt lat="42.8830650" lon="1.4995490">
        <ele>866.4</ele>
        <time>2020-07-23T08:33:37Z</time>
      </trkpt>
      <trkpt lat="42.8830830" lon="1.4995300">
        <ele>866.6</ele>
        <time>2020-07-23T08:33:38Z</time>
      </trkpt>
      <trkpt lat="42.8831010" lon="1.4995060">
        <ele>866.8</ele>
        <time>2020-07-23T08:33:39Z</time>
      </trkpt>
      <trkpt lat="42.8832110" lon="1.4993990">
        <ele>867.8</ele>
        <time>2020-07-23T08:33:44Z</time>
      </trkpt>
      <trkpt lat="42.8832450" lon="1.4993470">
        <ele>868.2</ele>
        <time>2020-07-23T08:33:46Z</time>
      </trkpt>
      <trkpt lat="42.8833240" lon="1.4992130">
        <ele>869.0</ele>
        <time>2020-07-23T08:33:51Z</time>
      </trkpt>
      <trkpt lat="42.8833890" lon="1.4991130">
        <ele>870.0</ele>
        <time>2020-07-23T08:33:55Z</time>
      </trkpt>
      <trkpt lat="42.8834700" lon="1.4989420">
        <ele>871.4</ele>
        <time>2020-07-23T08:34:01Z</time>
      </trkpt>
      <trkpt lat="42.8835280" lon="1.4988410">
        <ele>872.4</ele>
        <time>2020-07-23T08:34:05Z</time>
      </trkpt>
      <trkpt lat="42.8835860" lon="1.4987440">
        <ele>873.0</ele>
        <time>2020-07-23T08:34:09Z</time>
      </trkpt>
      <trkpt lat="42.8836300" lon="1.4986760">
        <ele>873.6</ele>
        <time>2020-07-23T08:34:12Z</time>
      </trkpt>
      <trkpt lat="42.8836930" lon="1.4985530">
        <ele>874.6</ele>
        <time>2020-07-23T08:34:17Z</time>
      </trkpt>
      <trkpt lat="42.8837080" lon="1.4985280">
        <ele>874.8</ele>
        <time>2020-07-23T08:34:18Z</time>
      </trkpt>
      <trkpt lat="42.8837590" lon="1.4984270">
        <ele>875.8</ele>
        <time>2020-07-23T08:34:22Z</time>
      </trkpt>
      <trkpt lat="42.8838110" lon="1.4982900">
        <ele>876.8</ele>
        <time>2020-07-23T08:34:27Z</time>
      </trkpt>
      <trkpt lat="42.8838190" lon="1.4982600">
        <ele>877.0</ele>
        <time>2020-07-23T08:34:28Z</time>
      </trkpt>
      <trkpt lat="42.8838760" lon="1.4981290">
        <ele>877.8</ele>
        <time>2020-07-23T08:34:33Z</time>
      </trkpt>
      <trkpt lat="42.8839130" lon="1.4980410">
        <ele>878.4</ele>
        <time>2020-07-23T08:34:36Z</time>
      </trkpt>
      <trkpt lat="42.8839520" lon="1.4979270">
        <ele>879.0</ele>
        <time>2020-07-23T08:34:40Z</time>
      </trkpt>
      <trkpt lat="42.8839830" lon="1.4978220">
        <ele>879.8</ele>
        <time>2020-07-23T08:34:44Z</time>
      </trkpt>
      <trkpt lat="42.8839990" lon="1.4977700">
        <ele>880.0</ele>
        <time>2020-07-23T08:34:46Z</time>
      </trkpt>
      <trkpt lat="42.8840450" lon="1.4976350">
        <ele>881.2</ele>
        <time>2020-07-23T08:34:51Z</time>
      </trkpt>
      <trkpt lat="42.8840550" lon="1.4976070">
        <ele>881.4</ele>
        <time>2020-07-23T08:34:52Z</time>
      </trkpt>
      <trkpt lat="42.8840830" lon="1.4974920">
        <ele>882.2</ele>
        <time>2020-07-23T08:34:56Z</time>
      </trkpt>
      <trkpt lat="42.8840960" lon="1.4974080">
        <ele>883.0</ele>
        <time>2020-07-23T08:34:59Z</time>
      </trkpt>
      <trkpt lat="42.8840980" lon="1.4973800">
        <ele>883.2</ele>
        <time>2020-07-23T08:35:00Z</time>
      </trkpt>
      <trkpt lat="42.8841010" lon="1.4973500">
        <ele>883.2</ele>
        <time>2020-07-23T08:35:01Z</time>
      </trkpt>
      <trkpt lat="42.8841030" lon="1.4973200">
        <ele>883.4</ele>
        <time>2020-07-23T08:35:02Z</time>
      </trkpt>
      <trkpt lat="42.8841030" lon="1.4972010">
        <ele>884.6</ele>
        <time>2020-07-23T08:35:06Z</time>
      </trkpt>
      <trkpt lat="42.8841040" lon="1.4971090">
        <ele>884.8</ele>
        <time>2020-07-23T08:35:09Z</time>
      </trkpt>
      <trkpt lat="42.8841070" lon="1.4970430">
        <ele>885.2</ele>
        <time>2020-07-23T08:35:11Z</time>
      </trkpt>
      <trkpt lat="42.8841100" lon="1.4969750">
        <ele>885.6</ele>
        <time>2020-07-23T08:35:13Z</time>
      </trkpt>
      <trkpt lat="42.8841010" lon="1.4968830">
        <ele>886.4</ele>
        <time>2020-07-23T08:35:16Z</time>
      </trkpt>
      <trkpt lat="42.8840920" lon="1.4968520">
        <ele>886.8</ele>
        <time>2020-07-23T08:35:17Z</time>
      </trkpt>
      <trkpt lat="42.8840800" lon="1.4967940">
        <ele>887.0</ele>
        <time>2020-07-23T08:35:19Z</time>
      </trkpt>
      <trkpt lat="42.8840720" lon="1.4967670">
        <ele>887.2</ele>
        <time>2020-07-23T08:35:20Z</time>
      </trkpt>
      <trkpt lat="42.8840460" lon="1.4967060">
        <ele>887.6</ele>
        <time>2020-07-23T08:35:22Z</time>
      </trkpt>
      <trkpt lat="42.8839950" lon="1.4965950">
        <ele>887.8</ele>
        <time>2020-07-23T08:35:25Z</time>
      </trkpt>
      <trkpt lat="42.8838940" lon="1.4964390">
        <ele>888.8</ele>
        <time>2020-07-23T08:35:31Z</time>
      </trkpt>
      <trkpt lat="42.8838770" lon="1.4964160">
        <ele>889.0</ele>
        <time>2020-07-23T08:35:32Z</time>
      </trkpt>
      <trkpt lat="42.8838330" lon="1.4963760">
        <ele>889.2</ele>
        <time>2020-07-23T08:35:34Z</time>
      </trkpt>
      <trkpt lat="42.8837390" lon="1.4962930">
        <ele>890.0</ele>
        <time>2020-07-23T08:35:39Z</time>
      </trkpt>
      <trkpt lat="42.8836920" lon="1.4962390">
        <ele>890.6</ele>
        <time>2020-07-23T08:35:42Z</time>
      </trkpt>
      <trkpt lat="42.8836530" lon="1.4961850">
        <ele>891.2</ele>
        <time>2020-07-23T08:35:45Z</time>
      </trkpt>
      <trkpt lat="42.8835930" lon="1.4960880">
        <ele>891.8</ele>
        <time>2020-07-23T08:35:50Z</time>
      </trkpt>
      <trkpt lat="42.8835840" lon="1.4960420">
        <ele>892.2</ele>
        <time>2020-07-23T08:35:52Z</time>
      </trkpt>
      <trkpt lat="42.8835870" lon="1.4959570">
        <ele>892.6</ele>
        <time>2020-07-23T08:35:55Z</time>
      </trkpt>
      <trkpt lat="42.8836590" lon="1.4957830">
        <ele>893.4</ele>
        <time>2020-07-23T08:36:00Z</time>
      </trkpt>
      <trkpt lat="42.8837950" lon="1.4957140">
        <ele>893.8</ele>
        <time>2020-07-23T08:36:05Z</time>
      </trkpt>
      <trkpt lat="42.8838860" lon="1.4957230">
        <ele>894.4</ele>
        <time>2020-07-23T08:36:08Z</time>
      </trkpt>
      <trkpt lat="42.8840590" lon="1.4957180">
        <ele>895.6</ele>
        <time>2020-07-23T08:36:14Z</time>
      </trkpt>
      <trkpt lat="42.8841980" lon="1.4956970">
        <ele>896.6</ele>
        <time>2020-07-23T08:36:19Z</time>
      </trkpt>
      <trkpt lat="42.8842820" lon="1.4956860">
        <ele>897.2</ele>
        <time>2020-07-23T08:36:22Z</time>
      </trkpt>
      <trkpt lat="42.8843390" lon="1.4956760">
        <ele>898.0</ele>
        <time>2020-07-23T08:36:24Z</time>
      </trkpt>
      <trkpt lat="42.8844950" lon="1.4956560">
        <ele>898.8</ele>
        <time>2020-07-23T08:36:30Z</time>
      </trkpt>
      <trkpt lat="42.8845230" lon="1.4956550">
        <ele>899.0</ele>
        <time>2020-07-23T08:36:31Z</time>
      </trkpt>
      <trkpt lat="42.8846080" lon="1.4956460">
        <ele>900.2</ele>
        <time>2020-07-23T08:36:34Z</time>
      </trkpt>
      <trkpt lat="42.8847060" lon="1.4956300">
        <ele>901.0</ele>
        <time>2020-07-23T08:36:38Z</time>
      </trkpt>
      <trkpt lat="42.8847290" lon="1.4956280">
        <ele>901.2</ele>
        <time>2020-07-23T08:36:39Z</time>
      </trkpt>
      <trkpt lat="42.8848700" lon="1.4955980">
        <ele>902.4</ele>
        <time>2020-07-23T08:36:45Z</time>
      </trkpt>
      <trkpt lat="42.8849470" lon="1.4955800">
        <ele>903.2</ele>
        <time>2020-07-23T08:36:48Z</time>
      </trkpt>
      <trkpt lat="42.8849760" lon="1.4955730">
        <ele>903.4</ele>
        <time>2020-07-23T08:36:49Z</time>
      </trkpt>
      <trkpt lat="42.8851360" lon="1.4955610">
        <ele>904.6</ele>
        <time>2020-07-23T08:36:55Z</time>
      </trkpt>
      <trkpt lat="42.8851840" lon="1.4955730">
        <ele>905.0</ele>
        <time>2020-07-23T08:36:57Z</time>
      </trkpt>
      <trkpt lat="42.8852290" lon="1.4955970">
        <ele>905.6</ele>
        <time>2020-07-23T08:36:59Z</time>
      </trkpt>
      <trkpt lat="42.8853320" lon="1.4956920">
        <ele>906.6</ele>
        <time>2020-07-23T08:37:04Z</time>
      </trkpt>
      <trkpt lat="42.8854210" lon="1.4958010">
        <ele>907.8</ele>
        <time>2020-07-23T08:37:09Z</time>
      </trkpt>
      <trkpt lat="42.8854570" lon="1.4958490">
        <ele>908.2</ele>
        <time>2020-07-23T08:37:11Z</time>
      </trkpt>
      <trkpt lat="42.8855330" lon="1.4959250">
        <ele>909.0</ele>
        <time>2020-07-23T08:37:15Z</time>
      </trkpt>
      <trkpt lat="42.8855940" lon="1.4959640">
        <ele>909.8</ele>
        <time>2020-07-23T08:37:18Z</time>
      </trkpt>
      <trkpt lat="42.8856320" lon="1.4959880">
        <ele>910.4</ele>
        <time>2020-07-23T08:37:20Z</time>
      </trkpt>
      <trkpt lat="42.8857380" lon="1.4959890">
        <ele>911.4</ele>
        <time>2020-07-23T08:37:24Z</time>
      </trkpt>
      <trkpt lat="42.8858420" lon="1.4959020">
        <ele>912.2</ele>
        <time>2020-07-23T08:37:29Z</time>
      </trkpt>
      <trkpt lat="42.8858580" lon="1.4958680">
        <ele>912.4</ele>
        <time>2020-07-23T08:37:30Z</time>
      </trkpt>
      <trkpt lat="42.8859420" lon="1.4956660">
        <ele>913.4</ele>
        <time>2020-07-23T08:37:36Z</time>
      </trkpt>
      <trkpt lat="42.8860090" lon="1.4955070">
        <ele>914.4</ele>
        <time>2020-07-23T08:37:41Z</time>
      </trkpt>
      <trkpt lat="42.8860210" lon="1.4954770">
        <ele>914.6</ele>
        <time>2020-07-23T08:37:42Z</time>
      </trkpt>
      <trkpt lat="42.8860510" lon="1.4954260">
        <ele>915.0</ele>
        <time>2020-07-23T08:37:44Z</time>
      </trkpt>
      <trkpt lat="42.8860940" lon="1.4953360">
        <ele>915.6</ele>
        <time>2020-07-23T08:37:47Z</time>
      </trkpt>
      <trkpt lat="42.8861570" lon="1.4952300">
        <ele>916.8</ele>
        <time>2020-07-23T08:37:51Z</time>
      </trkpt>
      <trkpt lat="42.8861940" lon="1.4951910">
        <ele>917.4</ele>
        <time>2020-07-23T08:37:53Z</time>
      </trkpt>
      <trkpt lat="42.8862800" lon="1.4951350">
        <ele>918.0</ele>
        <time>2020-07-23T08:37:57Z</time>
      </trkpt>
      <trkpt lat="42.8863210" lon="1.4951020">
        <ele>918.6</ele>
        <time>2020-07-23T08:37:59Z</time>
      </trkpt>
      <trkpt lat="42.8863820" lon="1.4950670">
        <ele>919.2</ele>
        <time>2020-07-23T08:38:02Z</time>
      </trkpt>
      <trkpt lat="42.8864420" lon="1.4950400">
        <ele>919.6</ele>
        <time>2020-07-23T08:38:05Z</time>
      </trkpt>
      <trkpt lat="42.8864980" lon="1.4950090">
        <ele>920.0</ele>
        <time>2020-07-23T08:38:08Z</time>
      </trkpt>
      <trkpt lat="42.8865480" lon="1.4949580">
        <ele>920.2</ele>
        <time>2020-07-23T08:38:11Z</time>
      </trkpt>
      <trkpt lat="42.8865800" lon="1.4949040">
        <ele>920.4</ele>
        <time>2020-07-23T08:38:13Z</time>
      </trkpt>
      <trkpt lat="42.8866740" lon="1.4947320">
        <ele>921.2</ele>
        <time>2020-07-23T08:38:19Z</time>
      </trkpt>
      <trkpt lat="42.8866850" lon="1.4946980">
        <ele>921.6</ele>
        <time>2020-07-23T08:38:20Z</time>
      </trkpt>
      <trkpt lat="42.8867350" lon="1.4945810">
        <ele>922.6</ele>
        <time>2020-07-23T08:38:24Z</time>
      </trkpt>
      <trkpt lat="42.8867890" lon="1.4944750">
        <ele>923.2</ele>
        <time>2020-07-23T08:38:28Z</time>
      </trkpt>
      <trkpt lat="42.8868440" lon="1.4943680">
        <ele>923.6</ele>
        <time>2020-07-23T08:38:32Z</time>
      </trkpt>
      <trkpt lat="42.8868560" lon="1.4943390">
        <ele>923.8</ele>
        <time>2020-07-23T08:38:33Z</time>
      </trkpt>
      <trkpt lat="42.8869050" lon="1.4942260">
        <ele>924.6</ele>
        <time>2020-07-23T08:38:37Z</time>
      </trkpt>
      <trkpt lat="42.8869550" lon="1.4941180">
        <ele>925.8</ele>
        <time>2020-07-23T08:38:41Z</time>
      </trkpt>
      <trkpt lat="42.8869630" lon="1.4940860">
        <ele>926.0</ele>
        <time>2020-07-23T08:38:42Z</time>
      </trkpt>
      <trkpt lat="42.8869840" lon="1.4939490">
        <ele>926.6</ele>
        <time>2020-07-23T08:38:46Z</time>
      </trkpt>
      <trkpt lat="42.8869900" lon="1.4938750">
        <ele>927.0</ele>
        <time>2020-07-23T08:38:48Z</time>
      </trkpt>
      <trkpt lat="42.8869910" lon="1.4938380">
        <ele>927.2</ele>
        <time>2020-07-23T08:38:49Z</time>
      </trkpt>
      <trkpt lat="42.8869910" lon="1.4936880">
        <ele>928.0</ele>
        <time>2020-07-23T08:38:53Z</time>
      </trkpt>
      <trkpt lat="42.8869980" lon="1.4936110">
        <ele>928.8</ele>
        <time>2020-07-23T08:38:55Z</time>
      </trkpt>
      <trkpt lat="42.8870100" lon="1.4935350">
        <ele>929.2</ele>
        <time>2020-07-23T08:38:57Z</time>
      </trkpt>
      <trkpt lat="42.8870680" lon="1.4933250">
        <ele>930.2</ele>
        <time>2020-07-23T08:39:03Z</time>
      </trkpt>
      <trkpt lat="42.8870800" lon="1.4932940">
        <ele>930.2</ele>
        <time>2020-07-23T08:39:04Z</time>
      </trkpt>
      <trkpt lat="42.8871660" lon="1.4931270">
        <ele>931.4</ele>
        <time>2020-07-23T08:39:10Z</time>
      </trkpt>
      <trkpt lat="42.8872130" lon="1.4930530">
        <ele>932.0</ele>
        <time>2020-07-23T08:39:13Z</time>
      </trkpt>
      <trkpt lat="42.8872590" lon="1.4929550">
        <ele>932.6</ele>
        <time>2020-07-23T08:39:16Z</time>
      </trkpt>
      <trkpt lat="42.8873150" lon="1.4928350">
        <ele>933.4</ele>
        <time>2020-07-23T08:39:20Z</time>
      </trkpt>
      <trkpt lat="42.8873430" lon="1.4927760">
        <ele>933.8</ele>
        <time>2020-07-23T08:39:22Z</time>
      </trkpt>
      <trkpt lat="42.8873920" lon="1.4926510">
        <ele>934.8</ele>
        <time>2020-07-23T08:39:26Z</time>
      </trkpt>
      <trkpt lat="42.8874080" lon="1.4925860">
        <ele>935.2</ele>
        <time>2020-07-23T08:39:28Z</time>
      </trkpt>
      <trkpt lat="42.8874170" lon="1.4925530">
        <ele>935.4</ele>
        <time>2020-07-23T08:39:29Z</time>
      </trkpt>
      <trkpt lat="42.8874370" lon="1.4924560">
        <ele>936.0</ele>
        <time>2020-07-23T08:39:32Z</time>
      </trkpt>
      <trkpt lat="42.8874510" lon="1.4923200">
        <ele>936.4</ele>
        <time>2020-07-23T08:39:36Z</time>
      </trkpt>
      <trkpt lat="42.8874500" lon="1.4921870">
        <ele>937.2</ele>
        <time>2020-07-23T08:39:40Z</time>
      </trkpt>
      <trkpt lat="42.8874350" lon="1.4920840">
        <ele>937.6</ele>
        <time>2020-07-23T08:39:43Z</time>
      </trkpt>
      <trkpt lat="42.8874220" lon="1.4919460">
        <ele>938.2</ele>
        <time>2020-07-23T08:39:47Z</time>
      </trkpt>
      <trkpt lat="42.8874210" lon="1.4918450">
        <ele>939.2</ele>
        <time>2020-07-23T08:39:50Z</time>
      </trkpt>
      <trkpt lat="42.8874240" lon="1.4917760">
        <ele>939.6</ele>
        <time>2020-07-23T08:39:52Z</time>
      </trkpt>
      <trkpt lat="42.8874380" lon="1.4916770">
        <ele>940.2</ele>
        <time>2020-07-23T08:39:55Z</time>
      </trkpt>
      <trkpt lat="42.8874750" lon="1.4914780">
        <ele>941.4</ele>
        <time>2020-07-23T08:40:01Z</time>
      </trkpt>
      <trkpt lat="42.8875010" lon="1.4913460">
        <ele>942.6</ele>
        <time>2020-07-23T08:40:05Z</time>
      </trkpt>
      <trkpt lat="42.8875090" lon="1.4912060">
        <ele>943.4</ele>
        <time>2020-07-23T08:40:09Z</time>
      </trkpt>
      <trkpt lat="42.8875160" lon="1.4911390">
        <ele>943.6</ele>
        <time>2020-07-23T08:40:11Z</time>
      </trkpt>
      <trkpt lat="42.8875020" lon="1.4909760">
        <ele>944.8</ele>
        <time>2020-07-23T08:40:16Z</time>
      </trkpt>
      <trkpt lat="42.8875000" lon="1.4909450">
        <ele>944.8</ele>
        <time>2020-07-23T08:40:17Z</time>
      </trkpt>
      <trkpt lat="42.8874780" lon="1.4908260">
        <ele>945.4</ele>
        <time>2020-07-23T08:40:21Z</time>
      </trkpt>
      <trkpt lat="42.8874660" lon="1.4907630">
        <ele>945.8</ele>
        <time>2020-07-23T08:40:23Z</time>
      </trkpt>
      <trkpt lat="42.8874630" lon="1.4907330">
        <ele>946.0</ele>
        <time>2020-07-23T08:40:24Z</time>
      </trkpt>
      <trkpt lat="42.8874370" lon="1.4905430">
        <ele>946.6</ele>
        <time>2020-07-23T08:40:30Z</time>
      </trkpt>
      <trkpt lat="42.8874340" lon="1.4905100">
        <ele>946.8</ele>
        <time>2020-07-23T08:40:31Z</time>
      </trkpt>
      <trkpt lat="42.8874300" lon="1.4904810">
        <ele>947.0</ele>
        <time>2020-07-23T08:40:32Z</time>
      </trkpt>
      <trkpt lat="42.8874200" lon="1.4903590">
        <ele>948.2</ele>
        <time>2020-07-23T08:40:36Z</time>
      </trkpt>
      <trkpt lat="42.8874170" lon="1.4902640">
        <ele>948.8</ele>
        <time>2020-07-23T08:40:39Z</time>
      </trkpt>
      <trkpt lat="42.8874240" lon="1.4901980">
        <ele>949.4</ele>
        <time>2020-07-23T08:40:41Z</time>
      </trkpt>
      <trkpt lat="42.8874510" lon="1.4900390">
        <ele>950.2</ele>
        <time>2020-07-23T08:40:46Z</time>
      </trkpt>
      <trkpt lat="42.8874620" lon="1.4899860">
        <ele>950.4</ele>
        <time>2020-07-23T08:40:48Z</time>
      </trkpt>
      <trkpt lat="42.8875040" lon="1.4898180">
        <ele>951.2</ele>
        <time>2020-07-23T08:40:54Z</time>
      </trkpt>
      <trkpt lat="42.8875240" lon="1.4897460">
        <ele>951.6</ele>
        <time>2020-07-23T08:40:56Z</time>
      </trkpt>
      <trkpt lat="42.8875550" lon="1.4896030">
        <ele>952.8</ele>
        <time>2020-07-23T08:41:00Z</time>
      </trkpt>
      <trkpt lat="42.8875650" lon="1.4895690">
        <ele>953.0</ele>
        <time>2020-07-23T08:41:01Z</time>
      </trkpt>
      <trkpt lat="42.8875930" lon="1.4894310">
        <ele>953.8</ele>
        <time>2020-07-23T08:41:05Z</time>
      </trkpt>
      <trkpt lat="42.8876270" lon="1.4892750">
        <ele>954.6</ele>
        <time>2020-07-23T08:41:10Z</time>
      </trkpt>
      <trkpt lat="42.8876350" lon="1.4892450">
        <ele>954.8</ele>
        <time>2020-07-23T08:41:11Z</time>
      </trkpt>
      <trkpt lat="42.8876750" lon="1.4890820">
        <ele>956.0</ele>
        <time>2020-07-23T08:41:16Z</time>
      </trkpt>
      <trkpt lat="42.8876950" lon="1.4889920">
        <ele>956.8</ele>
        <time>2020-07-23T08:41:19Z</time>
      </trkpt>
      <trkpt lat="42.8877140" lon="1.4889020">
        <ele>957.2</ele>
        <time>2020-07-23T08:41:22Z</time>
      </trkpt>
      <trkpt lat="42.8877670" lon="1.4887760">
        <ele>958.4</ele>
        <time>2020-07-23T08:41:27Z</time>
      </trkpt>
      <trkpt lat="42.8878400" lon="1.4887060">
        <ele>959.4</ele>
        <time>2020-07-23T08:41:31Z</time>
      </trkpt>
      <trkpt lat="42.8879000" lon="1.4886620">
        <ele>960.0</ele>
        <time>2020-07-23T08:41:34Z</time>
      </trkpt>
      <trkpt lat="42.8879230" lon="1.4886500">
        <ele>960.4</ele>
        <time>2020-07-23T08:41:35Z</time>
      </trkpt>
      <trkpt lat="42.8880280" lon="1.4885840">
        <ele>961.4</ele>
        <time>2020-07-23T08:41:40Z</time>
      </trkpt>
      <trkpt lat="42.8880630" lon="1.4885520">
        <ele>961.8</ele>
        <time>2020-07-23T08:41:42Z</time>
      </trkpt>
      <trkpt lat="42.8881490" lon="1.4884820">
        <ele>962.6</ele>
        <time>2020-07-23T08:41:46Z</time>
      </trkpt>
      <trkpt lat="42.8881910" lon="1.4884470">
        <ele>962.8</ele>
        <time>2020-07-23T08:41:48Z</time>
      </trkpt>
      <trkpt lat="42.8883010" lon="1.4883540">
        <ele>963.6</ele>
        <time>2020-07-23T08:41:53Z</time>
      </trkpt>
      <trkpt lat="42.8883620" lon="1.4882770">
        <ele>964.2</ele>
        <time>2020-07-23T08:41:56Z</time>
      </trkpt>
      <trkpt lat="42.8883960" lon="1.4882280">
        <ele>964.8</ele>
        <time>2020-07-23T08:41:58Z</time>
      </trkpt>
      <trkpt lat="42.8884680" lon="1.4881220">
        <ele>965.8</ele>
        <time>2020-07-23T08:42:02Z</time>
      </trkpt>
      <trkpt lat="42.8885020" lon="1.4880630">
        <ele>966.0</ele>
        <time>2020-07-23T08:42:04Z</time>
      </trkpt>
      <trkpt lat="42.8885620" lon="1.4879460">
        <ele>967.0</ele>
        <time>2020-07-23T08:42:08Z</time>
      </trkpt>
      <trkpt lat="42.8886250" lon="1.4878540">
        <ele>967.6</ele>
        <time>2020-07-23T08:42:12Z</time>
      </trkpt>
      <trkpt lat="42.8886580" lon="1.4878090">
        <ele>968.2</ele>
        <time>2020-07-23T08:42:14Z</time>
      </trkpt>
      <trkpt lat="42.8887390" lon="1.4876770">
        <ele>969.2</ele>
        <time>2020-07-23T08:42:19Z</time>
      </trkpt>
      <trkpt lat="42.8887560" lon="1.4876530">
        <ele>969.4</ele>
        <time>2020-07-23T08:42:20Z</time>
      </trkpt>
      <trkpt lat="42.8887740" lon="1.4876310">
        <ele>969.6</ele>
        <time>2020-07-23T08:42:21Z</time>
      </trkpt>
      <trkpt lat="42.8887910" lon="1.4876110">
        <ele>969.8</ele>
        <time>2020-07-23T08:42:22Z</time>
      </trkpt>
      <trkpt lat="42.8888260" lon="1.4875680">
        <ele>970.0</ele>
        <time>2020-07-23T08:42:24Z</time>
      </trkpt>
      <trkpt lat="42.8888810" lon="1.4875100">
        <ele>970.4</ele>
        <time>2020-07-23T08:42:27Z</time>
      </trkpt>
      <trkpt lat="42.8888980" lon="1.4874900">
        <ele>970.6</ele>
        <time>2020-07-23T08:42:28Z</time>
      </trkpt>
      <trkpt lat="42.8889660" lon="1.4874190">
        <ele>971.4</ele>
        <time>2020-07-23T08:42:32Z</time>
      </trkpt>
      <trkpt lat="42.8889950" lon="1.4873610">
        <ele>971.8</ele>
        <time>2020-07-23T08:42:34Z</time>
      </trkpt>
      <trkpt lat="42.8890230" lon="1.4872970">
        <ele>972.2</ele>
        <time>2020-07-23T08:42:36Z</time>
      </trkpt>
      <trkpt lat="42.8890540" lon="1.4872300">
        <ele>972.6</ele>
        <time>2020-07-23T08:42:38Z</time>
      </trkpt>
      <trkpt lat="42.8890990" lon="1.4870530">
        <ele>973.6</ele>
        <time>2020-07-23T08:42:43Z</time>
      </trkpt>
      <trkpt lat="42.8891080" lon="1.4870210">
        <ele>973.8</ele>
        <time>2020-07-23T08:42:44Z</time>
      </trkpt>
      <trkpt lat="42.8891250" lon="1.4869240">
        <ele>974.2</ele>
        <time>2020-07-23T08:42:47Z</time>
      </trkpt>
      <trkpt lat="42.8891260" lon="1.4868900">
        <ele>974.2</ele>
        <time>2020-07-23T08:42:48Z</time>
      </trkpt>
      <trkpt lat="42.8891260" lon="1.4867830">
        <ele>974.8</ele>
        <time>2020-07-23T08:42:51Z</time>
      </trkpt>
      <trkpt lat="42.8891260" lon="1.4867460">
        <ele>974.8</ele>
        <time>2020-07-23T08:42:52Z</time>
      </trkpt>
      <trkpt lat="42.8891270" lon="1.4865650">
        <ele>975.6</ele>
        <time>2020-07-23T08:42:57Z</time>
      </trkpt>
      <trkpt lat="42.8891300" lon="1.4864930">
        <ele>976.0</ele>
        <time>2020-07-23T08:42:59Z</time>
      </trkpt>
      <trkpt lat="42.8891710" lon="1.4863080">
        <ele>977.0</ele>
        <time>2020-07-23T08:43:05Z</time>
      </trkpt>
      <trkpt lat="42.8891830" lon="1.4862830">
        <ele>977.2</ele>
        <time>2020-07-23T08:43:06Z</time>
      </trkpt>
      <trkpt lat="42.8892530" lon="1.4861660">
        <ele>978.2</ele>
        <time>2020-07-23T08:43:11Z</time>
      </trkpt>
      <trkpt lat="42.8892930" lon="1.4861320">
        <ele>978.8</ele>
        <time>2020-07-23T08:43:13Z</time>
      </trkpt>
      <trkpt lat="42.8893750" lon="1.4860270">
        <ele>979.4</ele>
        <time>2020-07-23T08:43:18Z</time>
      </trkpt>
      <trkpt lat="42.8893920" lon="1.4860070">
        <ele>979.8</ele>
        <time>2020-07-23T08:43:19Z</time>
      </trkpt>
      <trkpt lat="42.8894440" lon="1.4859490">
        <ele>980.6</ele>
        <time>2020-07-23T08:43:22Z</time>
      </trkpt>
      <trkpt lat="42.8895110" lon="1.4858530">
        <ele>981.6</ele>
        <time>2020-07-23T08:43:26Z</time>
      </trkpt>
      <trkpt lat="42.8895280" lon="1.4858270">
        <ele>981.8</ele>
        <time>2020-07-23T08:43:27Z</time>
      </trkpt>
      <trkpt lat="42.8896100" lon="1.4856820">
        <ele>982.8</ele>
        <time>2020-07-23T08:43:32Z</time>
      </trkpt>
      <trkpt lat="42.8896530" lon="1.4855860">
        <ele>983.4</ele>
        <time>2020-07-23T08:43:35Z</time>
      </trkpt>
      <trkpt lat="42.8896840" lon="1.4855220">
        <ele>984.0</ele>
        <time>2020-07-23T08:43:37Z</time>
      </trkpt>
      <trkpt lat="42.8897150" lon="1.4854600">
        <ele>984.4</ele>
        <time>2020-07-23T08:43:39Z</time>
      </trkpt>
      <trkpt lat="42.8897290" lon="1.4854310">
        <ele>984.4</ele>
        <time>2020-07-23T08:43:40Z</time>
      </trkpt>
      <trkpt lat="42.8897430" lon="1.4853990">
        <ele>984.4</ele>
        <time>2020-07-23T08:43:41Z</time>
      </trkpt>
      <trkpt lat="42.8897580" lon="1.4853690">
        <ele>984.6</ele>
        <time>2020-07-23T08:43:42Z</time>
      </trkpt>
      <trkpt lat="42.8897880" lon="1.4853130">
        <ele>985.2</ele>
        <time>2020-07-23T08:43:44Z</time>
      </trkpt>
      <trkpt lat="42.8898050" lon="1.4852870">
        <ele>985.4</ele>
        <time>2020-07-23T08:43:45Z</time>
      </trkpt>
      <trkpt lat="42.8898580" lon="1.4852100">
        <ele>986.2</ele>
        <time>2020-07-23T08:43:48Z</time>
      </trkpt>
      <trkpt lat="42.8899510" lon="1.4851080">
        <ele>987.4</ele>
        <time>2020-07-23T08:43:53Z</time>
      </trkpt>
      <trkpt lat="42.8900860" lon="1.4850520">
        <ele>988.4</ele>
        <time>2020-07-23T08:43:59Z</time>
      </trkpt>
      <trkpt lat="42.8901090" lon="1.4850520">
        <ele>988.6</ele>
        <time>2020-07-23T08:44:00Z</time>
      </trkpt>
      <trkpt lat="42.8902390" lon="1.4850600">
        <ele>989.6</ele>
        <time>2020-07-23T08:44:05Z</time>
      </trkpt>
      <trkpt lat="42.8903160" lon="1.4850780">
        <ele>990.4</ele>
        <time>2020-07-23T08:44:08Z</time>
      </trkpt>
      <trkpt lat="42.8903400" lon="1.4850760">
        <ele>990.6</ele>
        <time>2020-07-23T08:44:09Z</time>
      </trkpt>
      <trkpt lat="42.8904050" lon="1.4850630">
        <ele>991.2</ele>
        <time>2020-07-23T08:44:12Z</time>
      </trkpt>
      <trkpt lat="42.8904640" lon="1.4850140">
        <ele>991.8</ele>
        <time>2020-07-23T08:44:15Z</time>
      </trkpt>
      <trkpt lat="42.8904960" lon="1.4849390">
        <ele>992.2</ele>
        <time>2020-07-23T08:44:18Z</time>
      </trkpt>
      <trkpt lat="42.8905280" lon="1.4847130">
        <ele>993.0</ele>
        <time>2020-07-23T08:44:24Z</time>
      </trkpt>
      <trkpt lat="42.8905380" lon="1.4846010">
        <ele>993.4</ele>
        <time>2020-07-23T08:44:27Z</time>
      </trkpt>
      <trkpt lat="42.8905480" lon="1.4845020">
        <ele>994.0</ele>
        <time>2020-07-23T08:44:30Z</time>
      </trkpt>
      <trkpt lat="42.8905520" lon="1.4844410">
        <ele>994.4</ele>
        <time>2020-07-23T08:44:32Z</time>
      </trkpt>
      <trkpt lat="42.8905600" lon="1.4842960">
        <ele>995.2</ele>
        <time>2020-07-23T08:44:37Z</time>
      </trkpt>
      <trkpt lat="42.8905720" lon="1.4842050">
        <ele>995.6</ele>
        <time>2020-07-23T08:44:40Z</time>
      </trkpt>
      <trkpt lat="42.8905840" lon="1.4840930">
        <ele>996.2</ele>
        <time>2020-07-23T08:44:43Z</time>
      </trkpt>
      <trkpt lat="42.8905960" lon="1.4839830">
        <ele>997.0</ele>
        <time>2020-07-23T08:44:46Z</time>
      </trkpt>
      <trkpt lat="42.8905990" lon="1.4839480">
        <ele>997.2</ele>
        <time>2020-07-23T08:44:47Z</time>
      </trkpt>
      <trkpt lat="42.8906120" lon="1.4837340">
        <ele>998.4</ele>
        <time>2020-07-23T08:44:53Z</time>
      </trkpt>
      <trkpt lat="42.8906100" lon="1.4836620">
        <ele>999.0</ele>
        <time>2020-07-23T08:44:55Z</time>
      </trkpt>
      <trkpt lat="42.8906040" lon="1.4835590">
        <ele>999.4</ele>
        <time>2020-07-23T08:44:58Z</time>
      </trkpt>
      <trkpt lat="42.8906070" lon="1.4833830">
        <ele>1000.4</ele>
        <time>2020-07-23T08:45:03Z</time>
      </trkpt>
      <trkpt lat="42.8906090" lon="1.4833490">
        <ele>1000.6</ele>
        <time>2020-07-23T08:45:04Z</time>
      </trkpt>
      <trkpt lat="42.8906230" lon="1.4832150">
        <ele>1001.6</ele>
        <time>2020-07-23T08:45:08Z</time>
      </trkpt>
      <trkpt lat="42.8906530" lon="1.4830600">
        <ele>1002.6</ele>
        <time>2020-07-23T08:45:13Z</time>
      </trkpt>
      <trkpt lat="42.8906600" lon="1.4830310">
        <ele>1002.8</ele>
        <time>2020-07-23T08:45:14Z</time>
      </trkpt>
      <trkpt lat="42.8906920" lon="1.4829110">
        <ele>1004.0</ele>
        <time>2020-07-23T08:45:18Z</time>
      </trkpt>
      <trkpt lat="42.8907200" lon="1.4828190">
        <ele>1004.4</ele>
        <time>2020-07-23T08:45:21Z</time>
      </trkpt>
      <trkpt lat="42.8907590" lon="1.4826580">
        <ele>1005.0</ele>
        <time>2020-07-23T08:45:26Z</time>
      </trkpt>
      <trkpt lat="42.8907710" lon="1.4826280">
        <ele>1005.2</ele>
        <time>2020-07-23T08:45:27Z</time>
      </trkpt>
      <trkpt lat="42.8908370" lon="1.4824820">
        <ele>1006.2</ele>
        <time>2020-07-23T08:45:32Z</time>
      </trkpt>
      <trkpt lat="42.8908650" lon="1.4824250">
        <ele>1006.6</ele>
        <time>2020-07-23T08:45:34Z</time>
      </trkpt>
      <trkpt lat="42.8909050" lon="1.4823370">
        <ele>1007.4</ele>
        <time>2020-07-23T08:45:37Z</time>
      </trkpt>
      <trkpt lat="42.8909620" lon="1.4822320">
        <ele>1008.6</ele>
        <time>2020-07-23T08:45:41Z</time>
      </trkpt>
      <trkpt lat="42.8909880" lon="1.4821770">
        <ele>1009.0</ele>
        <time>2020-07-23T08:45:43Z</time>
      </trkpt>
      <trkpt lat="42.8910280" lon="1.4820970">
        <ele>1009.8</ele>
        <time>2020-07-23T08:45:46Z</time>
      </trkpt>
      <trkpt lat="42.8910970" lon="1.4820010">
        <ele>1011.0</ele>
        <time>2020-07-23T08:45:50Z</time>
      </trkpt>
      <trkpt lat="42.8912040" lon="1.4818570">
        <ele>1012.0</ele>
        <time>2020-07-23T08:45:56Z</time>
      </trkpt>
      <trkpt lat="42.8912230" lon="1.4818400">
        <ele>1012.2</ele>
        <time>2020-07-23T08:45:57Z</time>
      </trkpt>
      <trkpt lat="42.8913450" lon="1.4817510">
        <ele>1013.0</ele>
        <time>2020-07-23T08:46:03Z</time>
      </trkpt>
      <trkpt lat="42.8913670" lon="1.4817370">
        <ele>1013.0</ele>
        <time>2020-07-23T08:46:04Z</time>
      </trkpt>
      <trkpt lat="42.8914300" lon="1.4816930">
        <ele>1013.8</ele>
        <time>2020-07-23T08:46:07Z</time>
      </trkpt>
      <trkpt lat="42.8915010" lon="1.4816740">
        <ele>1014.2</ele>
        <time>2020-07-23T08:46:10Z</time>
      </trkpt>
      <trkpt lat="42.8915240" lon="1.4816690">
        <ele>1014.2</ele>
        <time>2020-07-23T08:46:11Z</time>
      </trkpt>
      <trkpt lat="42.8915700" lon="1.4816610">
        <ele>1014.8</ele>
        <time>2020-07-23T08:46:13Z</time>
      </trkpt>
      <trkpt lat="42.8916150" lon="1.4816580">
        <ele>1015.2</ele>
        <time>2020-07-23T08:46:15Z</time>
      </trkpt>
      <trkpt lat="42.8916810" lon="1.4816550">
        <ele>1016.2</ele>
        <time>2020-07-23T08:46:18Z</time>
      </trkpt>
      <trkpt lat="42.8917260" lon="1.4816480">
        <ele>1016.6</ele>
        <time>2020-07-23T08:46:20Z</time>
      </trkpt>
      <trkpt lat="42.8918200" lon="1.4816390">
        <ele>1017.2</ele>
        <time>2020-07-23T08:46:24Z</time>
      </trkpt>
      <trkpt lat="42.8919080" lon="1.4816030">
        <ele>1017.6</ele>
        <time>2020-07-23T08:46:28Z</time>
      </trkpt>
      <trkpt lat="42.8919650" lon="1.4815490">
        <ele>1018.4</ele>
        <time>2020-07-23T08:46:31Z</time>
      </trkpt>
      <trkpt lat="42.8920120" lon="1.4814560">
        <ele>1019.0</ele>
        <time>2020-07-23T08:46:34Z</time>
      </trkpt>
      <trkpt lat="42.8920510" lon="1.4813660">
        <ele>1019.6</ele>
        <time>2020-07-23T08:46:37Z</time>
      </trkpt>
      <trkpt lat="42.8921170" lon="1.4812240">
        <ele>1020.8</ele>
        <time>2020-07-23T08:46:42Z</time>
      </trkpt>
      <trkpt lat="42.8921290" lon="1.4811970">
        <ele>1020.8</ele>
        <time>2020-07-23T08:46:43Z</time>
      </trkpt>
      <trkpt lat="42.8921540" lon="1.4811460">
        <ele>1021.2</ele>
        <time>2020-07-23T08:46:45Z</time>
      </trkpt>
      <trkpt lat="42.8921930" lon="1.4810660">
        <ele>1021.8</ele>
        <time>2020-07-23T08:46:48Z</time>
      </trkpt>
      <trkpt lat="42.8922420" lon="1.4809510">
        <ele>1022.6</ele>
        <time>2020-07-23T08:46:52Z</time>
      </trkpt>
      <trkpt lat="42.8922550" lon="1.4809210">
        <ele>1022.8</ele>
        <time>2020-07-23T08:46:53Z</time>
      </trkpt>
      <trkpt lat="42.8922810" lon="1.4808630">
        <ele>1023.2</ele>
        <time>2020-07-23T08:46:55Z</time>
      </trkpt>
      <trkpt lat="42.8923500" lon="1.4807450">
        <ele>1024.2</ele>
        <time>2020-07-23T08:46:59Z</time>
      </trkpt>
      <trkpt lat="42.8924450" lon="1.4805970">
        <ele>1025.2</ele>
        <time>2020-07-23T08:47:04Z</time>
      </trkpt>
      <trkpt lat="42.8925020" lon="1.4805110">
        <ele>1025.6</ele>
        <time>2020-07-23T08:47:07Z</time>
      </trkpt>
      <trkpt lat="42.8925530" lon="1.4804240">
        <ele>1026.2</ele>
        <time>2020-07-23T08:47:10Z</time>
      </trkpt>
      <trkpt lat="42.8925730" lon="1.4804010">
        <ele>1026.4</ele>
        <time>2020-07-23T08:47:11Z</time>
      </trkpt>
      <trkpt lat="42.8926360" lon="1.4803320">
        <ele>1027.0</ele>
        <time>2020-07-23T08:47:14Z</time>
      </trkpt>
      <trkpt lat="42.8926780" lon="1.4802840">
        <ele>1027.8</ele>
        <time>2020-07-23T08:47:16Z</time>
      </trkpt>
      <trkpt lat="42.8927020" lon="1.4802650">
        <ele>1028.0</ele>
        <time>2020-07-23T08:47:17Z</time>
      </trkpt>
      <trkpt lat="42.8927910" lon="1.4801940">
        <ele>1028.6</ele>
        <time>2020-07-23T08:47:21Z</time>
      </trkpt>
      <trkpt lat="42.8928140" lon="1.4801820">
        <ele>1028.8</ele>
        <time>2020-07-23T08:47:22Z</time>
      </trkpt>
      <trkpt lat="42.8929300" lon="1.4801480">
        <ele>1029.8</ele>
        <time>2020-07-23T08:47:27Z</time>
      </trkpt>
      <trkpt lat="42.8929760" lon="1.4801420">
        <ele>1030.2</ele>
        <time>2020-07-23T08:47:29Z</time>
      </trkpt>
      <trkpt lat="42.8930420" lon="1.4801380">
        <ele>1030.6</ele>
        <time>2020-07-23T08:47:32Z</time>
      </trkpt>
      <trkpt lat="42.8930810" lon="1.4801300">
        <ele>1031.0</ele>
        <time>2020-07-23T08:47:34Z</time>
      </trkpt>
      <trkpt lat="42.8932100" lon="1.4800820">
        <ele>1032.0</ele>
        <time>2020-07-23T08:47:40Z</time>
      </trkpt>
      <trkpt lat="42.8932380" lon="1.4800690">
        <ele>1032.2</ele>
        <time>2020-07-23T08:47:41Z</time>
      </trkpt>
      <trkpt lat="42.8933300" lon="1.4800250">
        <ele>1033.4</ele>
        <time>2020-07-23T08:47:45Z</time>
      </trkpt>
      <trkpt lat="42.8933710" lon="1.4800130">
        <ele>1033.6</ele>
        <time>2020-07-23T08:47:47Z</time>
      </trkpt>
      <trkpt lat="42.8933890" lon="1.4800000">
        <ele>1033.8</ele>
        <time>2020-07-23T08:47:48Z</time>
      </trkpt>
      <trkpt lat="42.8934260" lon="1.4799770">
        <ele>1034.2</ele>
        <time>2020-07-23T08:47:50Z</time>
      </trkpt>
      <trkpt lat="42.8934430" lon="1.4799560">
        <ele>1034.4</ele>
        <time>2020-07-23T08:47:51Z</time>
      </trkpt>
      <trkpt lat="42.8934730" lon="1.4799060">
        <ele>1034.8</ele>
        <time>2020-07-23T08:47:53Z</time>
      </trkpt>
      <trkpt lat="42.8935320" lon="1.4798000">
        <ele>1035.6</ele>
        <time>2020-07-23T08:47:57Z</time>
      </trkpt>
      <trkpt lat="42.8935500" lon="1.4797170">
        <ele>1036.0</ele>
        <time>2020-07-23T08:47:59Z</time>
      </trkpt>
      <trkpt lat="42.8935650" lon="1.4796390">
        <ele>1036.6</ele>
        <time>2020-07-23T08:48:01Z</time>
      </trkpt>
      <trkpt lat="42.8935760" lon="1.4795590">
        <ele>1037.2</ele>
        <time>2020-07-23T08:48:03Z</time>
      </trkpt>
      <trkpt lat="42.8935860" lon="1.4794800">
        <ele>1037.4</ele>
        <time>2020-07-23T08:48:05Z</time>
      </trkpt>
      <trkpt lat="42.8935840" lon="1.4793010">
        <ele>1037.6</ele>
        <time>2020-07-23T08:48:09Z</time>
      </trkpt>
      <trkpt lat="42.8935760" lon="1.4791250">
        <ele>1038.6</ele>
        <time>2020-07-23T08:48:13Z</time>
      </trkpt>
      <trkpt lat="42.8935740" lon="1.4790870">
        <ele>1038.8</ele>
        <time>2020-07-23T08:48:14Z</time>
      </trkpt>
      <trkpt lat="42.8935490" lon="1.4788670">
        <ele>1039.8</ele>
        <time>2020-07-23T08:48:20Z</time>
      </trkpt>
      <trkpt lat="42.8935450" lon="1.4788340">
        <ele>1039.8</ele>
        <time>2020-07-23T08:48:21Z</time>
      </trkpt>
      <trkpt lat="42.8935360" lon="1.4786240">
        <ele>1040.8</ele>
        <time>2020-07-23T08:48:27Z</time>
      </trkpt>
      <trkpt lat="42.8935350" lon="1.4785510">
        <ele>1041.2</ele>
        <time>2020-07-23T08:48:29Z</time>
      </trkpt>
      <trkpt lat="42.8935300" lon="1.4784830">
        <ele>1041.8</ele>
        <time>2020-07-23T08:48:31Z</time>
      </trkpt>
      <trkpt lat="42.8935280" lon="1.4784510">
        <ele>1042.0</ele>
        <time>2020-07-23T08:48:32Z</time>
      </trkpt>
      <trkpt lat="42.8935320" lon="1.4783220">
        <ele>1042.8</ele>
        <time>2020-07-23T08:48:36Z</time>
      </trkpt>
      <trkpt lat="42.8935370" lon="1.4782620">
        <ele>1043.0</ele>
        <time>2020-07-23T08:48:38Z</time>
      </trkpt>
      <trkpt lat="42.8935460" lon="1.4781650">
        <ele>1043.6</ele>
        <time>2020-07-23T08:48:41Z</time>
      </trkpt>
      <trkpt lat="42.8935600" lon="1.4780730">
        <ele>1044.2</ele>
        <time>2020-07-23T08:48:44Z</time>
      </trkpt>
      <trkpt lat="42.8935630" lon="1.4780450">
        <ele>1044.6</ele>
        <time>2020-07-23T08:48:45Z</time>
      </trkpt>
      <trkpt lat="42.8935730" lon="1.4779830">
        <ele>1045.4</ele>
        <time>2020-07-23T08:48:47Z</time>
      </trkpt>
      <trkpt lat="42.8935910" lon="1.4778160">
        <ele>1046.4</ele>
        <time>2020-07-23T08:48:52Z</time>
      </trkpt>
      <trkpt lat="42.8936000" lon="1.4777590">
        <ele>1047.0</ele>
        <time>2020-07-23T08:48:54Z</time>
      </trkpt>
      <trkpt lat="42.8936050" lon="1.4776940">
        <ele>1047.6</ele>
        <time>2020-07-23T08:48:56Z</time>
      </trkpt>
      <trkpt lat="42.8936360" lon="1.4775450">
        <ele>1048.6</ele>
        <time>2020-07-23T08:49:01Z</time>
      </trkpt>
      <trkpt lat="42.8936410" lon="1.4775100">
        <ele>1048.8</ele>
        <time>2020-07-23T08:49:02Z</time>
      </trkpt>
      <trkpt lat="42.8936510" lon="1.4774410">
        <ele>1049.0</ele>
        <time>2020-07-23T08:49:04Z</time>
      </trkpt>
      <trkpt lat="42.8936750" lon="1.4772580">
        <ele>1049.6</ele>
        <time>2020-07-23T08:49:09Z</time>
      </trkpt>
      <trkpt lat="42.8936980" lon="1.4770800">
        <ele>1050.8</ele>
        <time>2020-07-23T08:49:14Z</time>
      </trkpt>
      <trkpt lat="42.8937190" lon="1.4769540">
        <ele>1051.2</ele>
        <time>2020-07-23T08:49:18Z</time>
      </trkpt>
      <trkpt lat="42.8937240" lon="1.4768570">
        <ele>1051.8</ele>
        <time>2020-07-23T08:49:21Z</time>
      </trkpt>
      <trkpt lat="42.8937370" lon="1.4767850">
        <ele>1052.4</ele>
        <time>2020-07-23T08:49:23Z</time>
      </trkpt>
      <trkpt lat="42.8937420" lon="1.4767510">
        <ele>1053.0</ele>
        <time>2020-07-23T08:49:24Z</time>
      </trkpt>
      <trkpt lat="42.8937700" lon="1.4765520">
        <ele>1054.2</ele>
        <time>2020-07-23T08:49:30Z</time>
      </trkpt>
      <trkpt lat="42.8937770" lon="1.4765200">
        <ele>1054.4</ele>
        <time>2020-07-23T08:49:31Z</time>
      </trkpt>
      <trkpt lat="42.8937820" lon="1.4764540">
        <ele>1054.6</ele>
        <time>2020-07-23T08:49:33Z</time>
      </trkpt>
      <trkpt lat="42.8937960" lon="1.4763620">
        <ele>1055.4</ele>
        <time>2020-07-23T08:49:36Z</time>
      </trkpt>
      <trkpt lat="42.8938030" lon="1.4763000">
        <ele>1055.8</ele>
        <time>2020-07-23T08:49:38Z</time>
      </trkpt>
      <trkpt lat="42.8938260" lon="1.4762110">
        <ele>1056.4</ele>
        <time>2020-07-23T08:49:41Z</time>
      </trkpt>
      <trkpt lat="42.8938560" lon="1.4761310">
        <ele>1057.2</ele>
        <time>2020-07-23T08:49:44Z</time>
      </trkpt>
      <trkpt lat="42.8938870" lon="1.4760790">
        <ele>1057.6</ele>
        <time>2020-07-23T08:49:46Z</time>
      </trkpt>
      <trkpt lat="42.8939030" lon="1.4760520">
        <ele>1057.8</ele>
        <time>2020-07-23T08:49:47Z</time>
      </trkpt>
      <trkpt lat="42.8939380" lon="1.4760060">
        <ele>1058.2</ele>
        <time>2020-07-23T08:49:49Z</time>
      </trkpt>
      <trkpt lat="42.8939740" lon="1.4759670">
        <ele>1058.6</ele>
        <time>2020-07-23T08:49:51Z</time>
      </trkpt>
      <trkpt lat="42.8940500" lon="1.4758900">
        <ele>1059.2</ele>
        <time>2020-07-23T08:49:55Z</time>
      </trkpt>
      <trkpt lat="42.8941110" lon="1.4758430">
        <ele>1059.6</ele>
        <time>2020-07-23T08:49:58Z</time>
      </trkpt>
      <trkpt lat="42.8942140" lon="1.4757700">
        <ele>1060.6</ele>
        <time>2020-07-23T08:50:03Z</time>
      </trkpt>
      <trkpt lat="42.8942340" lon="1.4757560">
        <ele>1060.8</ele>
        <time>2020-07-23T08:50:04Z</time>
      </trkpt>
      <trkpt lat="42.8943570" lon="1.4756720">
        <ele>1061.8</ele>
        <time>2020-07-23T08:50:10Z</time>
      </trkpt>
      <trkpt lat="42.8943770" lon="1.4756570">
        <ele>1062.0</ele>
        <time>2020-07-23T08:50:11Z</time>
      </trkpt>
      <trkpt lat="42.8943970" lon="1.4756420">
        <ele>1062.4</ele>
        <time>2020-07-23T08:50:12Z</time>
      </trkpt>
      <trkpt lat="42.8944180" lon="1.4756300">
        <ele>1062.8</ele>
        <time>2020-07-23T08:50:13Z</time>
      </trkpt>
      <trkpt lat="42.8944620" lon="1.4756070">
        <ele>1063.2</ele>
        <time>2020-07-23T08:50:15Z</time>
      </trkpt>
      <trkpt lat="42.8945890" lon="1.4755320">
        <ele>1064.2</ele>
        <time>2020-07-23T08:50:21Z</time>
      </trkpt>
      <trkpt lat="42.8946080" lon="1.4755170">
        <ele>1064.4</ele>
        <time>2020-07-23T08:50:22Z</time>
      </trkpt>
      <trkpt lat="42.8947210" lon="1.4754100">
        <ele>1065.4</ele>
        <time>2020-07-23T08:50:28Z</time>
      </trkpt>
      <trkpt lat="42.8947370" lon="1.4753730">
        <ele>1065.4</ele>
        <time>2020-07-23T08:50:29Z</time>
      </trkpt>
      <trkpt lat="42.8947750" lon="1.4752110">
        <ele>1066.4</ele>
        <time>2020-07-23T08:50:33Z</time>
      </trkpt>
      <trkpt lat="42.8948030" lon="1.4751050">
        <ele>1067.4</ele>
        <time>2020-07-23T08:50:36Z</time>
      </trkpt>
      <trkpt lat="42.8948110" lon="1.4750680">
        <ele>1067.6</ele>
        <time>2020-07-23T08:50:37Z</time>
      </trkpt>
      <trkpt lat="42.8948600" lon="1.4748530">
        <ele>1068.4</ele>
        <time>2020-07-23T08:50:43Z</time>
      </trkpt>
      <trkpt lat="42.8948670" lon="1.4748180">
        <ele>1068.6</ele>
        <time>2020-07-23T08:50:44Z</time>
      </trkpt>
      <trkpt lat="42.8949040" lon="1.4746660">
        <ele>1069.6</ele>
        <time>2020-07-23T08:50:49Z</time>
      </trkpt>
      <trkpt lat="42.8949120" lon="1.4746130">
        <ele>1070.2</ele>
        <time>2020-07-23T08:50:51Z</time>
      </trkpt>
      <trkpt lat="42.8949250" lon="1.4745040">
        <ele>1070.8</ele>
        <time>2020-07-23T08:50:55Z</time>
      </trkpt>
      <trkpt lat="42.8949180" lon="1.4744340">
        <ele>1071.2</ele>
        <time>2020-07-23T08:50:58Z</time>
      </trkpt>
      <trkpt lat="42.8949220" lon="1.4743370">
        <ele>1072.0</ele>
        <time>2020-07-23T08:51:02Z</time>
      </trkpt>
      <trkpt lat="42.8949210" lon="1.4742560">
        <ele>1072.6</ele>
        <time>2020-07-23T08:51:05Z</time>
      </trkpt>
      <trkpt lat="42.8949230" lon="1.4742280">
        <ele>1072.8</ele>
        <time>2020-07-23T08:51:06Z</time>
      </trkpt>
      <trkpt lat="42.8949240" lon="1.4742020">
        <ele>1073.0</ele>
        <time>2020-07-23T08:51:07Z</time>
      </trkpt>
      <trkpt lat="42.8949110" lon="1.4740630">
        <ele>1073.6</ele>
        <time>2020-07-23T08:51:12Z</time>
      </trkpt>
      <trkpt lat="42.8949220" lon="1.4739310">
        <ele>1074.2</ele>
        <time>2020-07-23T08:51:16Z</time>
      </trkpt>
      <trkpt lat="42.8949350" lon="1.4738110">
        <ele>1075.2</ele>
        <time>2020-07-23T08:51:20Z</time>
      </trkpt>
      <trkpt lat="42.8949340" lon="1.4737400">
        <ele>1076.0</ele>
        <time>2020-07-23T08:51:22Z</time>
      </trkpt>
      <trkpt lat="42.8949270" lon="1.4736700">
        <ele>1076.2</ele>
        <time>2020-07-23T08:51:24Z</time>
      </trkpt>
      <trkpt lat="42.8949230" lon="1.4736370">
        <ele>1076.4</ele>
        <time>2020-07-23T08:51:25Z</time>
      </trkpt>
      <trkpt lat="42.8949170" lon="1.4735080">
        <ele>1077.2</ele>
        <time>2020-07-23T08:51:29Z</time>
      </trkpt>
      <trkpt lat="42.8949140" lon="1.4734770">
        <ele>1077.4</ele>
        <time>2020-07-23T08:51:30Z</time>
      </trkpt>
      <trkpt lat="42.8949150" lon="1.4733200">
        <ele>1078.4</ele>
        <time>2020-07-23T08:51:35Z</time>
      </trkpt>
      <trkpt lat="42.8949280" lon="1.4731890">
        <ele>1079.4</ele>
        <time>2020-07-23T08:51:39Z</time>
      </trkpt>
      <trkpt lat="42.8949300" lon="1.4731580">
        <ele>1079.6</ele>
        <time>2020-07-23T08:51:40Z</time>
      </trkpt>
      <trkpt lat="42.8949510" lon="1.4729990">
        <ele>1080.0</ele>
        <time>2020-07-23T08:51:45Z</time>
      </trkpt>
      <trkpt lat="42.8949580" lon="1.4729710">
        <ele>1080.2</ele>
        <time>2020-07-23T08:51:46Z</time>
      </trkpt>
      <trkpt lat="42.8949700" lon="1.4729150">
        <ele>1080.6</ele>
        <time>2020-07-23T08:51:48Z</time>
      </trkpt>
      <trkpt lat="42.8950160" lon="1.4727740">
        <ele>1081.8</ele>
        <time>2020-07-23T08:51:53Z</time>
      </trkpt>
      <trkpt lat="42.8950290" lon="1.4727400">
        <ele>1081.8</ele>
        <time>2020-07-23T08:51:54Z</time>
      </trkpt>
      <trkpt lat="42.8950860" lon="1.4726030">
        <ele>1082.8</ele>
        <time>2020-07-23T08:51:58Z</time>
      </trkpt>
      <trkpt lat="42.8951440" lon="1.4724640">
        <ele>1083.2</ele>
        <time>2020-07-23T08:52:02Z</time>
      </trkpt>
      <trkpt lat="42.8951850" lon="1.4723630">
        <ele>1084.0</ele>
        <time>2020-07-23T08:52:05Z</time>
      </trkpt>
      <trkpt lat="42.8952610" lon="1.4721640">
        <ele>1084.8</ele>
        <time>2020-07-23T08:52:11Z</time>
      </trkpt>
      <trkpt lat="42.8952900" lon="1.4720980">
        <ele>1085.0</ele>
        <time>2020-07-23T08:52:13Z</time>
      </trkpt>
      <trkpt lat="42.8953750" lon="1.4719230">
        <ele>1085.4</ele>
        <time>2020-07-23T08:52:19Z</time>
      </trkpt>
      <trkpt lat="42.8954220" lon="1.4718440">
        <ele>1086.0</ele>
        <time>2020-07-23T08:52:22Z</time>
      </trkpt>
      <trkpt lat="42.8954350" lon="1.4718170">
        <ele>1086.2</ele>
        <time>2020-07-23T08:52:23Z</time>
      </trkpt>
      <trkpt lat="42.8955010" lon="1.4716710">
        <ele>1087.2</ele>
        <time>2020-07-23T08:52:28Z</time>
      </trkpt>
      <trkpt lat="42.8955290" lon="1.4716080">
        <ele>1087.4</ele>
        <time>2020-07-23T08:52:30Z</time>
      </trkpt>
      <trkpt lat="42.8955970" lon="1.4714580">
        <ele>1088.0</ele>
        <time>2020-07-23T08:52:35Z</time>
      </trkpt>
      <trkpt lat="42.8956280" lon="1.4714120">
        <ele>1088.4</ele>
        <time>2020-07-23T08:52:37Z</time>
      </trkpt>
      <trkpt lat="42.8956440" lon="1.4713830">
        <ele>1088.6</ele>
        <time>2020-07-23T08:52:38Z</time>
      </trkpt>
      <trkpt lat="42.8956960" lon="1.4712220">
        <ele>1089.6</ele>
        <time>2020-07-23T08:52:43Z</time>
      </trkpt>
      <trkpt lat="42.8957050" lon="1.4711750">
        <ele>1089.8</ele>
        <time>2020-07-23T08:52:45Z</time>
      </trkpt>
      <trkpt lat="42.8956920" lon="1.4710050">
        <ele>1090.0</ele>
        <time>2020-07-23T08:52:50Z</time>
      </trkpt>
      <trkpt lat="42.8956870" lon="1.4708770">
        <ele>1090.2</ele>
        <time>2020-07-23T08:52:55Z</time>
      </trkpt>
      <trkpt lat="42.8956940" lon="1.4708290">
        <ele>1090.4</ele>
        <time>2020-07-23T08:52:57Z</time>
      </trkpt>
      <trkpt lat="42.8956980" lon="1.4708040">
        <ele>1090.6</ele>
        <time>2020-07-23T08:52:58Z</time>
      </trkpt>
      <trkpt lat="42.8956800" lon="1.4706560">
        <ele>1091.0</ele>
        <time>2020-07-23T08:53:03Z</time>
      </trkpt>
      <trkpt lat="42.8956620" lon="1.4705190">
        <ele>1091.6</ele>
        <time>2020-07-23T08:53:08Z</time>
      </trkpt>
      <trkpt lat="42.8956550" lon="1.4703900">
        <ele>1092.2</ele>
        <time>2020-07-23T08:53:12Z</time>
      </trkpt>
      <trkpt lat="42.8956230" lon="1.4702210">
        <ele>1092.8</ele>
        <time>2020-07-23T08:53:16Z</time>
      </trkpt>
      <trkpt lat="42.8955970" lon="1.4701270">
        <ele>1093.2</ele>
        <time>2020-07-23T08:53:18Z</time>
      </trkpt>
      <trkpt lat="42.8955710" lon="1.4699750">
        <ele>1093.8</ele>
        <time>2020-07-23T08:53:21Z</time>
      </trkpt>
      <trkpt lat="42.8955660" lon="1.4697840">
        <ele>1094.2</ele>
        <time>2020-07-23T08:53:25Z</time>
      </trkpt>
      <trkpt lat="42.8955640" lon="1.4695850">
        <ele>1095.0</ele>
        <time>2020-07-23T08:53:29Z</time>
      </trkpt>
      <trkpt lat="42.8955660" lon="1.4694530">
        <ele>1095.6</ele>
        <time>2020-07-23T08:53:32Z</time>
      </trkpt>
      <trkpt lat="42.8955580" lon="1.4692690">
        <ele>1096.0</ele>
        <time>2020-07-23T08:53:36Z</time>
      </trkpt>
      <trkpt lat="42.8955600" lon="1.4691390">
        <ele>1096.4</ele>
        <time>2020-07-23T08:53:39Z</time>
      </trkpt>
      <trkpt lat="42.8955630" lon="1.4689720">
        <ele>1097.2</ele>
        <time>2020-07-23T08:53:43Z</time>
      </trkpt>
      <trkpt lat="42.8955630" lon="1.4687960">
        <ele>1097.8</ele>
        <time>2020-07-23T08:53:47Z</time>
      </trkpt>
      <trkpt lat="42.8955680" lon="1.4687100">
        <ele>1098.2</ele>
        <time>2020-07-23T08:53:49Z</time>
      </trkpt>
      <trkpt lat="42.8956020" lon="1.4684880">
        <ele>1099.4</ele>
        <time>2020-07-23T08:53:54Z</time>
      </trkpt>
      <trkpt lat="42.8956640" lon="1.4681880">
        <ele>1100.2</ele>
        <time>2020-07-23T08:54:00Z</time>
      </trkpt>
      <trkpt lat="42.8956780" lon="1.4681380">
        <ele>1100.4</ele>
        <time>2020-07-23T08:54:01Z</time>
      </trkpt>
      <trkpt lat="42.8957850" lon="1.4678560">
        <ele>1101.4</ele>
        <time>2020-07-23T08:54:07Z</time>
      </trkpt>
      <trkpt lat="42.8958060" lon="1.4678120">
        <ele>1101.6</ele>
        <time>2020-07-23T08:54:08Z</time>
      </trkpt>
      <trkpt lat="42.8958700" lon="1.4676900">
        <ele>1102.6</ele>
        <time>2020-07-23T08:54:11Z</time>
      </trkpt>
      <trkpt lat="42.8959520" lon="1.4675250">
        <ele>1103.8</ele>
        <time>2020-07-23T08:54:15Z</time>
      </trkpt>
      <trkpt lat="42.8959660" lon="1.4674810">
        <ele>1104.0</ele>
        <time>2020-07-23T08:54:16Z</time>
      </trkpt>
      <trkpt lat="42.8960300" lon="1.4671960">
        <ele>1104.6</ele>
        <time>2020-07-23T08:54:22Z</time>
      </trkpt>
      <trkpt lat="42.8960350" lon="1.4671440">
        <ele>1104.6</ele>
        <time>2020-07-23T08:54:23Z</time>
      </trkpt>
      <trkpt lat="42.8960440" lon="1.4670330">
        <ele>1104.8</ele>
        <time>2020-07-23T08:54:25Z</time>
      </trkpt>
      <trkpt lat="42.8960500" lon="1.4668060">
        <ele>1106.0</ele>
        <time>2020-07-23T08:54:29Z</time>
      </trkpt>
      <trkpt lat="42.8960500" lon="1.4667490">
        <ele>1106.2</ele>
        <time>2020-07-23T08:54:30Z</time>
      </trkpt>
      <trkpt lat="42.8960750" lon="1.4664170">
        <ele>1107.0</ele>
        <time>2020-07-23T08:54:36Z</time>
      </trkpt>
      <trkpt lat="42.8960890" lon="1.4663150">
        <ele>1107.6</ele>
        <time>2020-07-23T08:54:38Z</time>
      </trkpt>
      <trkpt lat="42.8961050" lon="1.4662170">
        <ele>1108.4</ele>
        <time>2020-07-23T08:54:40Z</time>
      </trkpt>
      <trkpt lat="42.8961460" lon="1.4659300">
        <ele>1109.2</ele>
        <time>2020-07-23T08:54:46Z</time>
      </trkpt>
      <trkpt lat="42.8961540" lon="1.4658830">
        <ele>1109.4</ele>
        <time>2020-07-23T08:54:47Z</time>
      </trkpt>
      <trkpt lat="42.8961620" lon="1.4658370">
        <ele>1109.6</ele>
        <time>2020-07-23T08:54:48Z</time>
      </trkpt>
      <trkpt lat="42.8961830" lon="1.4656980">
        <ele>1110.4</ele>
        <time>2020-07-23T08:54:51Z</time>
      </trkpt>
      <trkpt lat="42.8962270" lon="1.4654700">
        <ele>1111.6</ele>
        <time>2020-07-23T08:54:56Z</time>
      </trkpt>
      <trkpt lat="42.8962990" lon="1.4652060">
        <ele>1112.0</ele>
        <time>2020-07-23T08:55:02Z</time>
      </trkpt>
      <trkpt lat="42.8963460" lon="1.4650360">
        <ele>1112.6</ele>
        <time>2020-07-23T08:55:06Z</time>
      </trkpt>
      <trkpt lat="42.8963570" lon="1.4649940">
        <ele>1112.6</ele>
        <time>2020-07-23T08:55:07Z</time>
      </trkpt>
      <trkpt lat="42.8963960" lon="1.4648650">
        <ele>1112.8</ele>
        <time>2020-07-23T08:55:10Z</time>
      </trkpt>
      <trkpt lat="42.8964250" lon="1.4647790">
        <ele>1113.4</ele>
        <time>2020-07-23T08:55:12Z</time>
      </trkpt>
      <trkpt lat="42.8964410" lon="1.4647350">
        <ele>1113.8</ele>
        <time>2020-07-23T08:55:13Z</time>
      </trkpt>
      <trkpt lat="42.8965070" lon="1.4645760">
        <ele>1114.8</ele>
        <time>2020-07-23T08:55:17Z</time>
      </trkpt>
      <trkpt lat="42.8965900" lon="1.4644370">
        <ele>1115.6</ele>
        <time>2020-07-23T08:55:21Z</time>
      </trkpt>
      <trkpt lat="42.8966120" lon="1.4644040">
        <ele>1115.8</ele>
        <time>2020-07-23T08:55:22Z</time>
      </trkpt>
      <trkpt lat="42.8967100" lon="1.4642700">
        <ele>1116.6</ele>
        <time>2020-07-23T08:55:26Z</time>
      </trkpt>
      <trkpt lat="42.8967330" lon="1.4642350">
        <ele>1117.0</ele>
        <time>2020-07-23T08:55:27Z</time>
      </trkpt>
      <trkpt lat="42.8967560" lon="1.4642000">
        <ele>1117.2</ele>
        <time>2020-07-23T08:55:28Z</time>
      </trkpt>
      <trkpt lat="42.8968420" lon="1.4640070">
        <ele>1118.0</ele>
        <time>2020-07-23T08:55:33Z</time>
      </trkpt>
      <trkpt lat="42.8968670" lon="1.4639220">
        <ele>1118.4</ele>
        <time>2020-07-23T08:55:35Z</time>
      </trkpt>
      <trkpt lat="42.8969030" lon="1.4637380">
        <ele>1119.2</ele>
        <time>2020-07-23T08:55:39Z</time>
      </trkpt>
      <trkpt lat="42.8969480" lon="1.4635580">
        <ele>1119.8</ele>
        <time>2020-07-23T08:55:43Z</time>
      </trkpt>
      <trkpt lat="42.8969800" lon="1.4634190">
        <ele>1120.2</ele>
        <time>2020-07-23T08:55:46Z</time>
      </trkpt>
      <trkpt lat="42.8970460" lon="1.4631270">
        <ele>1120.8</ele>
        <time>2020-07-23T08:55:52Z</time>
      </trkpt>
      <trkpt lat="42.8970810" lon="1.4629810">
        <ele>1121.4</ele>
        <time>2020-07-23T08:55:55Z</time>
      </trkpt>
      <trkpt lat="42.8970870" lon="1.4627870">
        <ele>1122.0</ele>
        <time>2020-07-23T08:55:59Z</time>
      </trkpt>
      <trkpt lat="42.8970490" lon="1.4625840">
        <ele>1122.4</ele>
        <time>2020-07-23T08:56:03Z</time>
      </trkpt>
      <trkpt lat="42.8969980" lon="1.4624310">
        <ele>1122.4</ele>
        <time>2020-07-23T08:56:06Z</time>
      </trkpt>
      <trkpt lat="42.8968670" lon="1.4621770">
        <ele>1122.6</ele>
        <time>2020-07-23T08:56:11Z</time>
      </trkpt>
      <trkpt lat="42.8968400" lon="1.4621290">
        <ele>1122.6</ele>
        <time>2020-07-23T08:56:12Z</time>
      </trkpt>
      <trkpt lat="42.8967790" lon="1.4619740">
        <ele>1123.2</ele>
        <time>2020-07-23T08:56:15Z</time>
      </trkpt>
      <trkpt lat="42.8967870" lon="1.4618570">
        <ele>1123.4</ele>
        <time>2020-07-23T08:56:17Z</time>
      </trkpt>
      <trkpt lat="42.8968390" lon="1.4617680">
        <ele>1123.8</ele>
        <time>2020-07-23T08:56:19Z</time>
      </trkpt>
      <trkpt lat="42.8968760" lon="1.4617440">
        <ele>1124.0</ele>
        <time>2020-07-23T08:56:20Z</time>
      </trkpt>
      <trkpt lat="42.8969160" lon="1.4617350">
        <ele>1124.2</ele>
        <time>2020-07-23T08:56:21Z</time>
      </trkpt>
      <trkpt lat="42.8969580" lon="1.4617390">
        <ele>1124.4</ele>
        <time>2020-07-23T08:56:22Z</time>
      </trkpt>
      <trkpt lat="42.8969970" lon="1.4617650">
        <ele>1124.8</ele>
        <time>2020-07-23T08:56:23Z</time>
      </trkpt>
      <trkpt lat="42.8970580" lon="1.4618490">
        <ele>1125.0</ele>
        <time>2020-07-23T08:56:25Z</time>
      </trkpt>
      <trkpt lat="42.8970970" lon="1.4619620">
        <ele>1125.2</ele>
        <time>2020-07-23T08:56:27Z</time>
      </trkpt>
      <trkpt lat="42.8971240" lon="1.4620890">
        <ele>1125.2</ele>
        <time>2020-07-23T08:56:29Z</time>
      </trkpt>
      <trkpt lat="42.8971480" lon="1.4622890">
        <ele>1125.8</ele>
        <time>2020-07-23T08:56:32Z</time>
      </trkpt>
      <trkpt lat="42.8971660" lon="1.4624250">
        <ele>1126.0</ele>
        <time>2020-07-23T08:56:34Z</time>
      </trkpt>
      <trkpt lat="42.8972170" lon="1.4628400">
        <ele>1126.4</ele>
        <time>2020-07-23T08:56:40Z</time>
      </trkpt>
      <trkpt lat="42.8972320" lon="1.4629800">
        <ele>1126.8</ele>
        <time>2020-07-23T08:56:42Z</time>
      </trkpt>
      <trkpt lat="42.8972360" lon="1.4630510">
        <ele>1127.0</ele>
        <time>2020-07-23T08:56:43Z</time>
      </trkpt>
      <trkpt lat="42.8972350" lon="1.4631930">
        <ele>1127.2</ele>
        <time>2020-07-23T08:56:45Z</time>
      </trkpt>
      <trkpt lat="42.8972270" lon="1.4632600">
        <ele>1127.4</ele>
        <time>2020-07-23T08:56:46Z</time>
      </trkpt>
      <trkpt lat="42.8972030" lon="1.4634560">
        <ele>1127.8</ele>
        <time>2020-07-23T08:56:49Z</time>
      </trkpt>
      <trkpt lat="42.8971900" lon="1.4635880">
        <ele>1128.0</ele>
        <time>2020-07-23T08:56:51Z</time>
      </trkpt>
      <trkpt lat="42.8971880" lon="1.4636570">
        <ele>1128.2</ele>
        <time>2020-07-23T08:56:52Z</time>
      </trkpt>
      <trkpt lat="42.8971440" lon="1.4640030">
        <ele>1128.8</ele>
        <time>2020-07-23T08:56:57Z</time>
      </trkpt>
      <trkpt lat="42.8970510" lon="1.4643600">
        <ele>1129.6</ele>
        <time>2020-07-23T08:57:03Z</time>
      </trkpt>
      <trkpt lat="42.8970310" lon="1.4644150">
        <ele>1129.8</ele>
        <time>2020-07-23T08:57:04Z</time>
      </trkpt>
      <trkpt lat="42.8969890" lon="1.4645180">
        <ele>1130.4</ele>
        <time>2020-07-23T08:57:06Z</time>
      </trkpt>
      <trkpt lat="42.8969270" lon="1.4646750">
        <ele>1131.0</ele>
        <time>2020-07-23T08:57:09Z</time>
      </trkpt>
      <trkpt lat="42.8968910" lon="1.4647810">
        <ele>1131.4</ele>
        <time>2020-07-23T08:57:11Z</time>
      </trkpt>
      <trkpt lat="42.8968650" lon="1.4648890">
        <ele>1131.6</ele>
        <time>2020-07-23T08:57:13Z</time>
      </trkpt>
      <trkpt lat="42.8968100" lon="1.4651110">
        <ele>1132.2</ele>
        <time>2020-07-23T08:57:17Z</time>
      </trkpt>
      <trkpt lat="42.8967900" lon="1.4652300">
        <ele>1132.8</ele>
        <time>2020-07-23T08:57:19Z</time>
      </trkpt>
      <trkpt lat="42.8967760" lon="1.4653470">
        <ele>1133.2</ele>
        <time>2020-07-23T08:57:21Z</time>
      </trkpt>
      <trkpt lat="42.8967690" lon="1.4656910">
        <ele>1133.8</ele>
        <time>2020-07-23T08:57:27Z</time>
      </trkpt>
      <trkpt lat="42.8967690" lon="1.4658500">
        <ele>1134.4</ele>
        <time>2020-07-23T08:57:30Z</time>
      </trkpt>
      <trkpt lat="42.8967760" lon="1.4661250">
        <ele>1135.4</ele>
        <time>2020-07-23T08:57:35Z</time>
      </trkpt>
      <trkpt lat="42.8967730" lon="1.4662340">
        <ele>1136.0</ele>
        <time>2020-07-23T08:57:37Z</time>
      </trkpt>
      <trkpt lat="42.8967690" lon="1.4663460">
        <ele>1136.4</ele>
        <time>2020-07-23T08:57:39Z</time>
      </trkpt>
      <trkpt lat="42.8967440" lon="1.4666220">
        <ele>1137.6</ele>
        <time>2020-07-23T08:57:44Z</time>
      </trkpt>
      <trkpt lat="42.8967350" lon="1.4667350">
        <ele>1138.0</ele>
        <time>2020-07-23T08:57:46Z</time>
      </trkpt>
      <trkpt lat="42.8966950" lon="1.4670640">
        <ele>1138.6</ele>
        <time>2020-07-23T08:57:52Z</time>
      </trkpt>
      <trkpt lat="42.8966620" lon="1.4673320">
        <ele>1139.8</ele>
        <time>2020-07-23T08:57:57Z</time>
      </trkpt>
      <trkpt lat="42.8966070" lon="1.4676500">
        <ele>1141.0</ele>
        <time>2020-07-23T08:58:03Z</time>
      </trkpt>
      <trkpt lat="42.8965950" lon="1.4677490">
        <ele>1141.4</ele>
        <time>2020-07-23T08:58:05Z</time>
      </trkpt>
      <trkpt lat="42.8965630" lon="1.4679350">
        <ele>1142.0</ele>
        <time>2020-07-23T08:58:09Z</time>
      </trkpt>
      <trkpt lat="42.8965430" lon="1.4680690">
        <ele>1142.4</ele>
        <time>2020-07-23T08:58:12Z</time>
      </trkpt>
      <trkpt lat="42.8965150" lon="1.4681970">
        <ele>1143.0</ele>
        <time>2020-07-23T08:58:15Z</time>
      </trkpt>
      <trkpt lat="42.8965070" lon="1.4684170">
        <ele>1144.2</ele>
        <time>2020-07-23T08:58:20Z</time>
      </trkpt>
      <trkpt lat="42.8965790" lon="1.4685650">
        <ele>1145.0</ele>
        <time>2020-07-23T08:58:24Z</time>
      </trkpt>
      <trkpt lat="42.8966030" lon="1.4685950">
        <ele>1145.0</ele>
        <time>2020-07-23T08:58:25Z</time>
      </trkpt>
      <trkpt lat="42.8966260" lon="1.4686210">
        <ele>1145.2</ele>
        <time>2020-07-23T08:58:26Z</time>
      </trkpt>
      <trkpt lat="42.8967010" lon="1.4687290">
        <ele>1145.6</ele>
        <time>2020-07-23T08:58:30Z</time>
      </trkpt>
      <trkpt lat="42.8967850" lon="1.4688980">
        <ele>1146.0</ele>
        <time>2020-07-23T08:58:34Z</time>
      </trkpt>
      <trkpt lat="42.8968200" lon="1.4689870">
        <ele>1146.4</ele>
        <time>2020-07-23T08:58:36Z</time>
      </trkpt>
      <trkpt lat="42.8969520" lon="1.4692250">
        <ele>1147.2</ele>
        <time>2020-07-23T08:58:42Z</time>
      </trkpt>
      <trkpt lat="42.8969850" lon="1.4692480">
        <ele>1147.4</ele>
        <time>2020-07-23T08:58:43Z</time>
      </trkpt>
      <trkpt lat="42.8970880" lon="1.4692620">
        <ele>1147.8</ele>
        <time>2020-07-23T08:58:46Z</time>
      </trkpt>
      <trkpt lat="42.8972820" lon="1.4691340">
        <ele>1148.6</ele>
        <time>2020-07-23T08:58:52Z</time>
      </trkpt>
      <trkpt lat="42.8973440" lon="1.4689930">
        <ele>1149.0</ele>
        <time>2020-07-23T08:58:55Z</time>
      </trkpt>
      <trkpt lat="42.8973500" lon="1.4689360">
        <ele>1149.0</ele>
        <time>2020-07-23T08:58:56Z</time>
      </trkpt>
      <trkpt lat="42.8973350" lon="1.4688200">
        <ele>1149.2</ele>
        <time>2020-07-23T08:58:58Z</time>
      </trkpt>
      <trkpt lat="42.8972930" lon="1.4687150">
        <ele>1149.6</ele>
        <time>2020-07-23T08:59:00Z</time>
      </trkpt>
      <trkpt lat="42.8972690" lon="1.4686680">
        <ele>1149.6</ele>
        <time>2020-07-23T08:59:01Z</time>
      </trkpt>
      <trkpt lat="42.8972390" lon="1.4686240">
        <ele>1150.0</ele>
        <time>2020-07-23T08:59:02Z</time>
      </trkpt>
      <trkpt lat="42.8970980" lon="1.4684800">
        <ele>1150.4</ele>
        <time>2020-07-23T08:59:06Z</time>
      </trkpt>
      <trkpt lat="42.8970180" lon="1.4684320">
        <ele>1150.4</ele>
        <time>2020-07-23T08:59:08Z</time>
      </trkpt>
      <trkpt lat="42.8969280" lon="1.4684070">
        <ele>1150.6</ele>
        <time>2020-07-23T08:59:10Z</time>
      </trkpt>
      <trkpt lat="42.8968840" lon="1.4683990">
        <ele>1150.6</ele>
        <time>2020-07-23T08:59:11Z</time>
      </trkpt>
      <trkpt lat="42.8968400" lon="1.4683880">
        <ele>1150.8</ele>
        <time>2020-07-23T08:59:12Z</time>
      </trkpt>
      <trkpt lat="42.8967550" lon="1.4683440">
        <ele>1151.0</ele>
        <time>2020-07-23T08:59:14Z</time>
      </trkpt>
      <trkpt lat="42.8967270" lon="1.4682980">
        <ele>1151.2</ele>
        <time>2020-07-23T08:59:15Z</time>
      </trkpt>
      <trkpt lat="42.8967130" lon="1.4682430">
        <ele>1151.4</ele>
        <time>2020-07-23T08:59:16Z</time>
      </trkpt>
      <trkpt lat="42.8967260" lon="1.4681220">
        <ele>1151.6</ele>
        <time>2020-07-23T08:59:18Z</time>
      </trkpt>
      <trkpt lat="42.8967410" lon="1.4680660">
        <ele>1152.0</ele>
        <time>2020-07-23T08:59:19Z</time>
      </trkpt>
      <trkpt lat="42.8967960" lon="1.4679210">
        <ele>1152.6</ele>
        <time>2020-07-23T08:59:22Z</time>
      </trkpt>
      <trkpt lat="42.8968900" lon="1.4676230">
        <ele>1153.4</ele>
        <time>2020-07-23T09:00:21Z</time>
      </trkpt>
      <trkpt lat="42.8969320" lon="1.4674690">
        <ele>1153.4</ele>
        <time>2020-07-23T09:00:25Z</time>
      </trkpt>
      <trkpt lat="42.8970340" lon="1.4671530">
        <ele>1154.8</ele>
        <time>2020-07-23T09:00:30Z</time>
      </trkpt>
      <trkpt lat="42.8970530" lon="1.4670880">
        <ele>1155.2</ele>
        <time>2020-07-23T09:00:31Z</time>
      </trkpt>
      <trkpt lat="42.8970740" lon="1.4670230">
        <ele>1155.4</ele>
        <time>2020-07-23T09:00:32Z</time>
      </trkpt>
      <trkpt lat="42.8971150" lon="1.4668920">
        <ele>1155.8</ele>
        <time>2020-07-23T09:00:34Z</time>
      </trkpt>
      <trkpt lat="42.8971740" lon="1.4667000">
        <ele>1157.0</ele>
        <time>2020-07-23T09:00:37Z</time>
      </trkpt>
      <trkpt lat="42.8971940" lon="1.4666380">
        <ele>1157.2</ele>
        <time>2020-07-23T09:00:38Z</time>
      </trkpt>
      <trkpt lat="42.8972110" lon="1.4665770">
        <ele>1157.4</ele>
        <time>2020-07-23T09:00:39Z</time>
      </trkpt>
      <trkpt lat="42.8972280" lon="1.4665170">
        <ele>1157.8</ele>
        <time>2020-07-23T09:00:40Z</time>
      </trkpt>
      <trkpt lat="42.8972460" lon="1.4664590">
        <ele>1158.2</ele>
        <time>2020-07-23T09:00:41Z</time>
      </trkpt>
      <trkpt lat="42.8972630" lon="1.4664020">
        <ele>1158.8</ele>
        <time>2020-07-23T09:00:42Z</time>
      </trkpt>
      <trkpt lat="42.8973340" lon="1.4661840">
        <ele>1159.4</ele>
        <time>2020-07-23T09:00:46Z</time>
      </trkpt>
      <trkpt lat="42.8974090" lon="1.4659710">
        <ele>1160.2</ele>
        <time>2020-07-23T09:00:50Z</time>
      </trkpt>
      <trkpt lat="42.8974290" lon="1.4659190">
        <ele>1160.4</ele>
        <time>2020-07-23T09:00:51Z</time>
      </trkpt>
      <trkpt lat="42.8975320" lon="1.4656660">
        <ele>1161.6</ele>
        <time>2020-07-23T09:00:56Z</time>
      </trkpt>
      <trkpt lat="42.8976210" lon="1.4654710">
        <ele>1162.2</ele>
        <time>2020-07-23T09:01:00Z</time>
      </trkpt>
      <trkpt lat="42.8976970" lon="1.4653270">
        <ele>1163.0</ele>
        <time>2020-07-23T09:01:03Z</time>
      </trkpt>
      <trkpt lat="42.8977480" lon="1.4652320">
        <ele>1163.4</ele>
        <time>2020-07-23T09:01:05Z</time>
      </trkpt>
      <trkpt lat="42.8977990" lon="1.4651290">
        <ele>1164.0</ele>
        <time>2020-07-23T09:01:07Z</time>
      </trkpt>
      <trkpt lat="42.8978260" lon="1.4650820">
        <ele>1164.2</ele>
        <time>2020-07-23T09:01:08Z</time>
      </trkpt>
      <trkpt lat="42.8978510" lon="1.4650320">
        <ele>1164.2</ele>
        <time>2020-07-23T09:01:09Z</time>
      </trkpt>
      <trkpt lat="42.8978980" lon="1.4649280">
        <ele>1164.6</ele>
        <time>2020-07-23T09:01:11Z</time>
      </trkpt>
      <trkpt lat="42.8979240" lon="1.4648740">
        <ele>1164.8</ele>
        <time>2020-07-23T09:01:12Z</time>
      </trkpt>
      <trkpt lat="42.8979490" lon="1.4648220">
        <ele>1165.0</ele>
        <time>2020-07-23T09:01:13Z</time>
      </trkpt>
      <trkpt lat="42.8980240" lon="1.4646690">
        <ele>1165.4</ele>
        <time>2020-07-23T09:01:16Z</time>
      </trkpt>
      <trkpt lat="42.8980750" lon="1.4645720">
        <ele>1166.4</ele>
        <time>2020-07-23T09:01:18Z</time>
      </trkpt>
      <trkpt lat="42.8981480" lon="1.4644170">
        <ele>1167.2</ele>
        <time>2020-07-23T09:01:21Z</time>
      </trkpt>
      <trkpt lat="42.8981990" lon="1.4643140">
        <ele>1167.4</ele>
        <time>2020-07-23T09:01:23Z</time>
      </trkpt>
      <trkpt lat="42.8983310" lon="1.4640650">
        <ele>1168.6</ele>
        <time>2020-07-23T09:01:28Z</time>
      </trkpt>
      <trkpt lat="42.8983890" lon="1.4639680">
        <ele>1169.0</ele>
        <time>2020-07-23T09:01:30Z</time>
      </trkpt>
      <trkpt lat="42.8984770" lon="1.4638270">
        <ele>1169.8</ele>
        <time>2020-07-23T09:01:33Z</time>
      </trkpt>
      <trkpt lat="42.8985750" lon="1.4636280">
        <ele>1170.4</ele>
        <time>2020-07-23T09:01:37Z</time>
      </trkpt>
      <trkpt lat="42.8985910" lon="1.4635750">
        <ele>1170.4</ele>
        <time>2020-07-23T09:01:38Z</time>
      </trkpt>
      <trkpt lat="42.8986030" lon="1.4635170">
        <ele>1170.8</ele>
        <time>2020-07-23T09:01:39Z</time>
      </trkpt>
      <trkpt lat="42.8986140" lon="1.4633990">
        <ele>1171.4</ele>
        <time>2020-07-23T09:01:41Z</time>
      </trkpt>
      <trkpt lat="42.8986070" lon="1.4632790">
        <ele>1171.8</ele>
        <time>2020-07-23T09:01:43Z</time>
      </trkpt>
      <trkpt lat="42.8985530" lon="1.4630450">
        <ele>1173.0</ele>
        <time>2020-07-23T09:01:47Z</time>
      </trkpt>
      <trkpt lat="42.8985160" lon="1.4629310">
        <ele>1173.4</ele>
        <time>2020-07-23T09:01:49Z</time>
      </trkpt>
      <trkpt lat="42.8984090" lon="1.4625990">
        <ele>1174.0</ele>
        <time>2020-07-23T09:01:55Z</time>
      </trkpt>
      <trkpt lat="42.8983760" lon="1.4624880">
        <ele>1174.4</ele>
        <time>2020-07-23T09:01:57Z</time>
      </trkpt>
      <trkpt lat="42.8983290" lon="1.4623200">
        <ele>1175.2</ele>
        <time>2020-07-23T09:02:00Z</time>
      </trkpt>
      <trkpt lat="42.8982360" lon="1.4620520">
        <ele>1176.2</ele>
        <time>2020-07-23T09:02:05Z</time>
      </trkpt>
      <trkpt lat="42.8982170" lon="1.4619990">
        <ele>1176.4</ele>
        <time>2020-07-23T09:02:06Z</time>
      </trkpt>
      <trkpt lat="42.8981070" lon="1.4616680">
        <ele>1177.4</ele>
        <time>2020-07-23T09:02:12Z</time>
      </trkpt>
      <trkpt lat="42.8980660" lon="1.4615000">
        <ele>1178.2</ele>
        <time>2020-07-23T09:02:15Z</time>
      </trkpt>
      <trkpt lat="42.8980550" lon="1.4614430">
        <ele>1178.6</ele>
        <time>2020-07-23T09:02:16Z</time>
      </trkpt>
      <trkpt lat="42.8979880" lon="1.4611630">
        <ele>1179.6</ele>
        <time>2020-07-23T09:02:21Z</time>
      </trkpt>
      <trkpt lat="42.8979730" lon="1.4610470">
        <ele>1180.2</ele>
        <time>2020-07-23T09:02:23Z</time>
      </trkpt>
      <trkpt lat="42.8979670" lon="1.4609300">
        <ele>1181.0</ele>
        <time>2020-07-23T09:02:25Z</time>
      </trkpt>
      <trkpt lat="42.8979750" lon="1.4608140">
        <ele>1181.6</ele>
        <time>2020-07-23T09:02:27Z</time>
      </trkpt>
      <trkpt lat="42.8979900" lon="1.4607590">
        <ele>1181.8</ele>
        <time>2020-07-23T09:02:28Z</time>
      </trkpt>
      <trkpt lat="42.8980130" lon="1.4607070">
        <ele>1182.0</ele>
        <time>2020-07-23T09:02:29Z</time>
      </trkpt>
      <trkpt lat="42.8980410" lon="1.4606630">
        <ele>1182.0</ele>
        <time>2020-07-23T09:02:30Z</time>
      </trkpt>
      <trkpt lat="42.8980750" lon="1.4606250">
        <ele>1182.2</ele>
        <time>2020-07-23T09:02:31Z</time>
      </trkpt>
      <trkpt lat="42.8981120" lon="1.4605950">
        <ele>1182.4</ele>
        <time>2020-07-23T09:02:32Z</time>
      </trkpt>
      <trkpt lat="42.8981520" lon="1.4605740">
        <ele>1182.4</ele>
        <time>2020-07-23T09:02:33Z</time>
      </trkpt>
      <trkpt lat="42.8982820" lon="1.4605420">
        <ele>1183.4</ele>
        <time>2020-07-23T09:02:36Z</time>
      </trkpt>
      <trkpt lat="42.8983240" lon="1.4605300">
        <ele>1183.6</ele>
        <time>2020-07-23T09:02:37Z</time>
      </trkpt>
      <trkpt lat="42.8984060" lon="1.4604910">
        <ele>1184.4</ele>
        <time>2020-07-23T09:02:39Z</time>
      </trkpt>
      <trkpt lat="42.8984780" lon="1.4604300">
        <ele>1185.0</ele>
        <time>2020-07-23T09:02:41Z</time>
      </trkpt>
      <trkpt lat="42.8985040" lon="1.4603860">
        <ele>1185.2</ele>
        <time>2020-07-23T09:02:42Z</time>
      </trkpt>
      <trkpt lat="42.8985160" lon="1.4602720">
        <ele>1185.4</ele>
        <time>2020-07-23T09:02:44Z</time>
      </trkpt>
      <trkpt lat="42.8984990" lon="1.4602120">
        <ele>1185.4</ele>
        <time>2020-07-23T09:02:45Z</time>
      </trkpt>
      <trkpt lat="42.8984750" lon="1.4601580">
        <ele>1185.6</ele>
        <time>2020-07-23T09:02:46Z</time>
      </trkpt>
      <trkpt lat="42.8983730" lon="1.4600210">
        <ele>1186.0</ele>
        <time>2020-07-23T09:02:49Z</time>
      </trkpt>
      <trkpt lat="42.8983010" lon="1.4599290">
        <ele>1186.4</ele>
        <time>2020-07-23T09:02:51Z</time>
      </trkpt>
      <trkpt lat="42.8982700" lon="1.4598760">
        <ele>1186.6</ele>
        <time>2020-07-23T09:02:52Z</time>
      </trkpt>
      <trkpt lat="42.8982460" lon="1.4598160">
        <ele>1186.8</ele>
        <time>2020-07-23T09:02:53Z</time>
      </trkpt>
      <trkpt lat="42.8982300" lon="1.4597540">
        <ele>1186.8</ele>
        <time>2020-07-23T09:02:54Z</time>
      </trkpt>
      <trkpt lat="42.8982200" lon="1.4596910">
        <ele>1187.2</ele>
        <time>2020-07-23T09:02:55Z</time>
      </trkpt>
      <trkpt lat="42.8982220" lon="1.4595670">
        <ele>1187.6</ele>
        <time>2020-07-23T09:02:57Z</time>
      </trkpt>
      <trkpt lat="42.8982310" lon="1.4595070">
        <ele>1188.0</ele>
        <time>2020-07-23T09:02:58Z</time>
      </trkpt>
      <trkpt lat="42.8982450" lon="1.4594490">
        <ele>1188.2</ele>
        <time>2020-07-23T09:02:59Z</time>
      </trkpt>
      <trkpt lat="42.8982990" lon="1.4593610">
        <ele>1188.6</ele>
        <time>2020-07-23T09:03:01Z</time>
      </trkpt>
      <trkpt lat="42.8983350" lon="1.4593310">
        <ele>1188.8</ele>
        <time>2020-07-23T09:03:02Z</time>
      </trkpt>
      <trkpt lat="42.8983750" lon="1.4593130">
        <ele>1189.2</ele>
        <time>2020-07-23T09:03:03Z</time>
      </trkpt>
      <trkpt lat="42.8984590" lon="1.4592970">
        <ele>1190.0</ele>
        <time>2020-07-23T09:03:05Z</time>
      </trkpt>
      <trkpt lat="42.8985030" lon="1.4592940">
        <ele>1190.2</ele>
        <time>2020-07-23T09:03:06Z</time>
      </trkpt>
      <trkpt lat="42.8987190" lon="1.4592720">
        <ele>1191.0</ele>
        <time>2020-07-23T09:03:11Z</time>
      </trkpt>
      <trkpt lat="42.8987590" lon="1.4592620">
        <ele>1191.2</ele>
        <time>2020-07-23T09:03:12Z</time>
      </trkpt>
      <trkpt lat="42.8988360" lon="1.4592230">
        <ele>1191.6</ele>
        <time>2020-07-23T09:03:14Z</time>
      </trkpt>
      <trkpt lat="42.8988710" lon="1.4591920">
        <ele>1191.8</ele>
        <time>2020-07-23T09:03:15Z</time>
      </trkpt>
      <trkpt lat="42.8989030" lon="1.4591530">
        <ele>1192.0</ele>
        <time>2020-07-23T09:03:16Z</time>
      </trkpt>
      <trkpt lat="42.8989940" lon="1.4590210">
        <ele>1192.6</ele>
        <time>2020-07-23T09:03:19Z</time>
      </trkpt>
      <trkpt lat="42.8990370" lon="1.4589110">
        <ele>1193.2</ele>
        <time>2020-07-23T09:03:21Z</time>
      </trkpt>
      <trkpt lat="42.8990590" lon="1.4587890">
        <ele>1193.4</ele>
        <time>2020-07-23T09:03:23Z</time>
      </trkpt>
      <trkpt lat="42.8990650" lon="1.4587280">
        <ele>1193.8</ele>
        <time>2020-07-23T09:03:24Z</time>
      </trkpt>
      <trkpt lat="42.8990660" lon="1.4586680">
        <ele>1194.0</ele>
        <time>2020-07-23T09:03:25Z</time>
      </trkpt>
      <trkpt lat="42.8990620" lon="1.4586080">
        <ele>1194.2</ele>
        <time>2020-07-23T09:03:26Z</time>
      </trkpt>
      <trkpt lat="42.8990370" lon="1.4584380">
        <ele>1194.6</ele>
        <time>2020-07-23T09:03:29Z</time>
      </trkpt>
      <trkpt lat="42.8989970" lon="1.4583450">
        <ele>1195.2</ele>
        <time>2020-07-23T09:03:31Z</time>
      </trkpt>
      <trkpt lat="42.8989310" lon="1.4582790">
        <ele>1195.8</ele>
        <time>2020-07-23T09:03:33Z</time>
      </trkpt>
      <trkpt lat="42.8988130" lon="1.4582080">
        <ele>1196.2</ele>
        <time>2020-07-23T09:03:36Z</time>
      </trkpt>
      <trkpt lat="42.8986960" lon="1.4581320">
        <ele>1197.2</ele>
        <time>2020-07-23T09:03:39Z</time>
      </trkpt>
      <trkpt lat="42.8986610" lon="1.4580960">
        <ele>1197.4</ele>
        <time>2020-07-23T09:03:40Z</time>
      </trkpt>
      <trkpt lat="42.8986330" lon="1.4580500">
        <ele>1197.6</ele>
        <time>2020-07-23T09:03:41Z</time>
      </trkpt>
      <trkpt lat="42.8986040" lon="1.4579440">
        <ele>1198.0</ele>
        <time>2020-07-23T09:03:43Z</time>
      </trkpt>
      <trkpt lat="42.8986160" lon="1.4578310">
        <ele>1198.4</ele>
        <time>2020-07-23T09:03:45Z</time>
      </trkpt>
      <trkpt lat="42.8986590" lon="1.4576600">
        <ele>1199.6</ele>
        <time>2020-07-23T09:03:48Z</time>
      </trkpt>
      <trkpt lat="42.8987690" lon="1.4573540">
        <ele>1200.8</ele>
        <time>2020-07-23T09:03:53Z</time>
      </trkpt>
      <trkpt lat="42.8988340" lon="1.4571640">
        <ele>1201.8</ele>
        <time>2020-07-23T09:03:56Z</time>
      </trkpt>
      <trkpt lat="42.8988550" lon="1.4571010">
        <ele>1202.2</ele>
        <time>2020-07-23T09:03:57Z</time>
      </trkpt>
      <trkpt lat="42.8989190" lon="1.4569130">
        <ele>1203.2</ele>
        <time>2020-07-23T09:04:00Z</time>
      </trkpt>
      <trkpt lat="42.8990100" lon="1.4566700">
        <ele>1204.2</ele>
        <time>2020-07-23T09:04:04Z</time>
      </trkpt>
      <trkpt lat="42.8991250" lon="1.4563770">
        <ele>1205.4</ele>
        <time>2020-07-23T09:04:09Z</time>
      </trkpt>
      <trkpt lat="42.8991430" lon="1.4563140">
        <ele>1205.4</ele>
        <time>2020-07-23T09:04:10Z</time>
      </trkpt>
      <trkpt lat="42.8991680" lon="1.4561820">
        <ele>1205.6</ele>
        <time>2020-07-23T09:04:12Z</time>
      </trkpt>
      <trkpt lat="42.8992010" lon="1.4559130">
        <ele>1206.8</ele>
        <time>2020-07-23T09:04:16Z</time>
      </trkpt>
      <trkpt lat="42.8992160" lon="1.4556570">
        <ele>1208.0</ele>
        <time>2020-07-23T09:04:20Z</time>
      </trkpt>
      <trkpt lat="42.8992170" lon="1.4555950">
        <ele>1208.2</ele>
        <time>2020-07-23T09:04:21Z</time>
      </trkpt>
      <trkpt lat="42.8992290" lon="1.4552320">
        <ele>1209.0</ele>
        <time>2020-07-23T09:04:27Z</time>
      </trkpt>
      <trkpt lat="42.8992320" lon="1.4551180">
        <ele>1209.6</ele>
        <time>2020-07-23T09:04:29Z</time>
      </trkpt>
      <trkpt lat="42.8992350" lon="1.4550030">
        <ele>1210.4</ele>
        <time>2020-07-23T09:04:31Z</time>
      </trkpt>
      <trkpt lat="42.8992370" lon="1.4548300">
        <ele>1211.4</ele>
        <time>2020-07-23T09:04:34Z</time>
      </trkpt>
      <trkpt lat="42.8992410" lon="1.4545910">
        <ele>1212.0</ele>
        <time>2020-07-23T09:04:38Z</time>
      </trkpt>
      <trkpt lat="42.8992530" lon="1.4544130">
        <ele>1212.6</ele>
        <time>2020-07-23T09:04:41Z</time>
      </trkpt>
      <trkpt lat="42.8992510" lon="1.4541770">
        <ele>1213.4</ele>
        <time>2020-07-23T09:04:45Z</time>
      </trkpt>
      <trkpt lat="42.8992430" lon="1.4540600">
        <ele>1213.8</ele>
        <time>2020-07-23T09:04:47Z</time>
      </trkpt>
      <trkpt lat="42.8991910" lon="1.4537270">
        <ele>1214.8</ele>
        <time>2020-07-23T09:04:53Z</time>
      </trkpt>
      <trkpt lat="42.8991100" lon="1.4534110">
        <ele>1215.8</ele>
        <time>2020-07-23T09:04:59Z</time>
      </trkpt>
      <trkpt lat="42.8990980" lon="1.4533590">
        <ele>1215.8</ele>
        <time>2020-07-23T09:05:00Z</time>
      </trkpt>
      <trkpt lat="42.8990860" lon="1.4533080">
        <ele>1216.0</ele>
        <time>2020-07-23T09:05:01Z</time>
      </trkpt>
      <trkpt lat="42.8990440" lon="1.4531580">
        <ele>1216.8</ele>
        <time>2020-07-23T09:05:04Z</time>
      </trkpt>
      <trkpt lat="42.8990110" lon="1.4529740">
        <ele>1217.8</ele>
        <time>2020-07-23T09:05:08Z</time>
      </trkpt>
      <trkpt lat="42.8990240" lon="1.4528600">
        <ele>1218.2</ele>
        <time>2020-07-23T09:05:11Z</time>
      </trkpt>
      <trkpt lat="42.8990450" lon="1.4528090">
        <ele>1218.2</ele>
        <time>2020-07-23T09:05:13Z</time>
      </trkpt>
      <trkpt lat="42.8990850" lon="1.4527650">
        <ele>1218.2</ele>
        <time>2020-07-23T09:05:16Z</time>
      </trkpt>
      <trkpt lat="42.8990790" lon="1.4527470">
        <ele>1218.2</ele>
        <time>2020-07-23T09:05:18Z</time>
      </trkpt>
      <trkpt lat="42.8990600" lon="1.4527590">
        <ele>1218.2</ele>
        <time>2020-07-23T09:05:20Z</time>
      </trkpt>
      <trkpt lat="42.8991360" lon="1.4534500">
        <ele>1215.0</ele>
        <time>2020-07-23T09:33:20Z</time>
      </trkpt>
      <trkpt lat="42.8991270" lon="1.4534300">
        <ele>1215.0</ele>
        <time>2020-07-23T09:33:21Z</time>
      </trkpt>
      <trkpt lat="42.8991220" lon="1.4534040">
        <ele>1215.0</ele>
        <time>2020-07-23T09:33:22Z</time>
      </trkpt>
      <trkpt lat="42.8991200" lon="1.4533730">
        <ele>1215.0</ele>
        <time>2020-07-23T09:33:23Z</time>
      </trkpt>
      <trkpt lat="42.8991130" lon="1.4533370">
        <ele>1214.8</ele>
        <time>2020-07-23T09:33:24Z</time>
      </trkpt>
      <trkpt lat="42.8991010" lon="1.4533030">
        <ele>1214.6</ele>
        <time>2020-07-23T09:33:25Z</time>
      </trkpt>
      <trkpt lat="42.8990680" lon="1.4531810">
        <ele>1214.2</ele>
        <time>2020-07-23T09:33:28Z</time>
      </trkpt>
      <trkpt lat="42.8990610" lon="1.4530950">
        <ele>1214.2</ele>
        <time>2020-07-23T09:33:30Z</time>
      </trkpt>
      <trkpt lat="42.8990850" lon="1.4529240">
        <ele>1215.0</ele>
        <time>2020-07-23T09:33:34Z</time>
      </trkpt>
      <trkpt lat="42.8991000" lon="1.4528860">
        <ele>1215.2</ele>
        <time>2020-07-23T09:33:35Z</time>
      </trkpt>
      <trkpt lat="42.8991160" lon="1.4528490">
        <ele>1215.4</ele>
        <time>2020-07-23T09:33:36Z</time>
      </trkpt>
      <trkpt lat="42.8991320" lon="1.4528140">
        <ele>1215.6</ele>
        <time>2020-07-23T09:33:37Z</time>
      </trkpt>
      <trkpt lat="42.8991720" lon="1.4527630">
        <ele>1215.8</ele>
        <time>2020-07-23T09:33:39Z</time>
      </trkpt>
      <trkpt lat="42.8992120" lon="1.4527190">
        <ele>1215.8</ele>
        <time>2020-07-23T09:33:41Z</time>
      </trkpt>
      <trkpt lat="42.8992380" lon="1.4527010">
        <ele>1216.0</ele>
        <time>2020-07-23T09:33:42Z</time>
      </trkpt>
      <trkpt lat="42.8993410" lon="1.4526500">
        <ele>1216.0</ele>
        <time>2020-07-23T09:33:45Z</time>
      </trkpt>
      <trkpt lat="42.8993810" lon="1.4526320">
        <ele>1216.0</ele>
        <time>2020-07-23T09:33:46Z</time>
      </trkpt>
      <trkpt lat="42.8994220" lon="1.4526150">
        <ele>1215.8</ele>
        <time>2020-07-23T09:33:47Z</time>
      </trkpt>
      <trkpt lat="42.8995110" lon="1.4525840">
        <ele>1215.6</ele>
        <time>2020-07-23T09:33:49Z</time>
      </trkpt>
      <trkpt lat="42.8996050" lon="1.4525390">
        <ele>1215.6</ele>
        <time>2020-07-23T09:33:51Z</time>
      </trkpt>
      <trkpt lat="42.8996480" lon="1.4525010">
        <ele>1215.6</ele>
        <time>2020-07-23T09:33:52Z</time>
      </trkpt>
      <trkpt lat="42.8996870" lon="1.4524510">
        <ele>1215.4</ele>
        <time>2020-07-23T09:33:53Z</time>
      </trkpt>
      <trkpt lat="42.8997470" lon="1.4523230">
        <ele>1215.2</ele>
        <time>2020-07-23T09:33:55Z</time>
      </trkpt>
      <trkpt lat="42.8997700" lon="1.4522500">
        <ele>1214.8</ele>
        <time>2020-07-23T09:33:56Z</time>
      </trkpt>
      <trkpt lat="42.8998080" lon="1.4520870">
        <ele>1214.4</ele>
        <time>2020-07-23T09:33:58Z</time>
      </trkpt>
      <trkpt lat="42.8998530" lon="1.4518150">
        <ele>1214.0</ele>
        <time>2020-07-23T09:34:01Z</time>
      </trkpt>
      <trkpt lat="42.8998730" lon="1.4517220">
        <ele>1213.8</ele>
        <time>2020-07-23T09:34:02Z</time>
      </trkpt>
      <trkpt lat="42.8998930" lon="1.4516250">
        <ele>1213.4</ele>
        <time>2020-07-23T09:34:03Z</time>
      </trkpt>
      <trkpt lat="42.8999140" lon="1.4515250">
        <ele>1213.0</ele>
        <time>2020-07-23T09:34:04Z</time>
      </trkpt>
      <trkpt lat="42.8999390" lon="1.4514230">
        <ele>1212.6</ele>
        <time>2020-07-23T09:34:05Z</time>
      </trkpt>
      <trkpt lat="42.8999860" lon="1.4512080">
        <ele>1212.0</ele>
        <time>2020-07-23T09:34:07Z</time>
      </trkpt>
      <trkpt lat="42.9000280" lon="1.4509770">
        <ele>1211.4</ele>
        <time>2020-07-23T09:34:09Z</time>
      </trkpt>
      <trkpt lat="42.9001620" lon="1.4505060">
        <ele>1210.2</ele>
        <time>2020-07-23T09:34:13Z</time>
      </trkpt>
      <trkpt lat="42.9003020" lon="1.4501780">
        <ele>1209.2</ele>
        <time>2020-07-23T09:34:16Z</time>
      </trkpt>
      <trkpt lat="42.9003750" lon="1.4499690">
        <ele>1208.8</ele>
        <time>2020-07-23T09:34:18Z</time>
      </trkpt>
      <trkpt lat="42.9004790" lon="1.4496700">
        <ele>1208.2</ele>
        <time>2020-07-23T09:34:21Z</time>
      </trkpt>
      <trkpt lat="42.9005160" lon="1.4495770">
        <ele>1207.8</ele>
        <time>2020-07-23T09:34:22Z</time>
      </trkpt>
      <trkpt lat="42.9005980" lon="1.4493920">
        <ele>1206.8</ele>
        <time>2020-07-23T09:34:24Z</time>
      </trkpt>
      <trkpt lat="42.9006330" lon="1.4492930">
        <ele>1206.4</ele>
        <time>2020-07-23T09:34:25Z</time>
      </trkpt>
      <trkpt lat="42.9006600" lon="1.4491870">
        <ele>1205.8</ele>
        <time>2020-07-23T09:34:26Z</time>
      </trkpt>
      <trkpt lat="42.9006770" lon="1.4489610">
        <ele>1204.6</ele>
        <time>2020-07-23T09:34:28Z</time>
      </trkpt>
      <trkpt lat="42.9006340" lon="1.4486000">
        <ele>1203.4</ele>
        <time>2020-07-23T09:34:31Z</time>
      </trkpt>
      <trkpt lat="42.9006290" lon="1.4484850">
        <ele>1203.2</ele>
        <time>2020-07-23T09:34:32Z</time>
      </trkpt>
      <trkpt lat="42.9006310" lon="1.4483670">
        <ele>1202.8</ele>
        <time>2020-07-23T09:34:33Z</time>
      </trkpt>
      <trkpt lat="42.9006550" lon="1.4481270">
        <ele>1202.4</ele>
        <time>2020-07-23T09:34:35Z</time>
      </trkpt>
      <trkpt lat="42.9006760" lon="1.4480060">
        <ele>1202.0</ele>
        <time>2020-07-23T09:34:36Z</time>
      </trkpt>
      <trkpt lat="42.9007310" lon="1.4477650">
        <ele>1201.4</ele>
        <time>2020-07-23T09:34:38Z</time>
      </trkpt>
      <trkpt lat="42.9008420" lon="1.4474030">
        <ele>1200.0</ele>
        <time>2020-07-23T09:34:41Z</time>
      </trkpt>
      <trkpt lat="42.9010420" lon="1.4469400">
        <ele>1198.4</ele>
        <time>2020-07-23T09:34:45Z</time>
      </trkpt>
      <trkpt lat="42.9010940" lon="1.4468190">
        <ele>1198.0</ele>
        <time>2020-07-23T09:34:46Z</time>
      </trkpt>
      <trkpt lat="42.9011930" lon="1.4465680">
        <ele>1196.8</ele>
        <time>2020-07-23T09:34:48Z</time>
      </trkpt>
      <trkpt lat="42.9012960" lon="1.4463100">
        <ele>1195.6</ele>
        <time>2020-07-23T09:34:50Z</time>
      </trkpt>
      <trkpt lat="42.9013970" lon="1.4460490">
        <ele>1194.2</ele>
        <time>2020-07-23T09:34:52Z</time>
      </trkpt>
      <trkpt lat="42.9014500" lon="1.4459200">
        <ele>1193.6</ele>
        <time>2020-07-23T09:34:53Z</time>
      </trkpt>
      <trkpt lat="42.9015050" lon="1.4458000">
        <ele>1193.2</ele>
        <time>2020-07-23T09:34:54Z</time>
      </trkpt>
      <trkpt lat="42.9015570" lon="1.4456890">
        <ele>1192.8</ele>
        <time>2020-07-23T09:34:55Z</time>
      </trkpt>
      <trkpt lat="42.9016710" lon="1.4455060">
        <ele>1191.8</ele>
        <time>2020-07-23T09:34:57Z</time>
      </trkpt>
      <trkpt lat="42.9018310" lon="1.4453940">
        <ele>1191.0</ele>
        <time>2020-07-23T09:34:59Z</time>
      </trkpt>
      <trkpt lat="42.9019180" lon="1.4453560">
        <ele>1190.6</ele>
        <time>2020-07-23T09:35:00Z</time>
      </trkpt>
      <trkpt lat="42.9020080" lon="1.4453260">
        <ele>1190.2</ele>
        <time>2020-07-23T09:35:01Z</time>
      </trkpt>
      <trkpt lat="42.9020990" lon="1.4453010">
        <ele>1189.8</ele>
        <time>2020-07-23T09:35:02Z</time>
      </trkpt>
      <trkpt lat="42.9021930" lon="1.4452830">
        <ele>1189.4</ele>
        <time>2020-07-23T09:35:03Z</time>
      </trkpt>
      <trkpt lat="42.9022890" lon="1.4452700">
        <ele>1189.0</ele>
        <time>2020-07-23T09:35:04Z</time>
      </trkpt>
      <trkpt lat="42.9024830" lon="1.4452480">
        <ele>1188.4</ele>
        <time>2020-07-23T09:35:06Z</time>
      </trkpt>
      <trkpt lat="42.9027760" lon="1.4452370">
        <ele>1187.2</ele>
        <time>2020-07-23T09:35:09Z</time>
      </trkpt>
      <trkpt lat="42.9028680" lon="1.4452360">
        <ele>1186.6</ele>
        <time>2020-07-23T09:35:10Z</time>
      </trkpt>
      <trkpt lat="42.9029570" lon="1.4452420">
        <ele>1186.2</ele>
        <time>2020-07-23T09:35:11Z</time>
      </trkpt>
      <trkpt lat="42.9030410" lon="1.4452570">
        <ele>1185.6</ele>
        <time>2020-07-23T09:35:12Z</time>
      </trkpt>
      <trkpt lat="42.9032020" lon="1.4453100">
        <ele>1184.4</ele>
        <time>2020-07-23T09:35:14Z</time>
      </trkpt>
      <trkpt lat="42.9032750" lon="1.4453420">
        <ele>1184.2</ele>
        <time>2020-07-23T09:35:15Z</time>
      </trkpt>
      <trkpt lat="42.9034170" lon="1.4453970">
        <ele>1183.8</ele>
        <time>2020-07-23T09:35:17Z</time>
      </trkpt>
      <trkpt lat="42.9035530" lon="1.4453750">
        <ele>1183.2</ele>
        <time>2020-07-23T09:35:19Z</time>
      </trkpt>
      <trkpt lat="42.9036420" lon="1.4452350">
        <ele>1182.2</ele>
        <time>2020-07-23T09:35:21Z</time>
      </trkpt>
      <trkpt lat="42.9036590" lon="1.4451330">
        <ele>1181.8</ele>
        <time>2020-07-23T09:35:22Z</time>
      </trkpt>
      <trkpt lat="42.9036630" lon="1.4450280">
        <ele>1181.6</ele>
        <time>2020-07-23T09:35:23Z</time>
      </trkpt>
      <trkpt lat="42.9036420" lon="1.4449100">
        <ele>1181.2</ele>
        <time>2020-07-23T09:35:24Z</time>
      </trkpt>
      <trkpt lat="42.9036030" lon="1.4447890">
        <ele>1181.0</ele>
        <time>2020-07-23T09:35:25Z</time>
      </trkpt>
      <trkpt lat="42.9035580" lon="1.4446730">
        <ele>1180.6</ele>
        <time>2020-07-23T09:35:26Z</time>
      </trkpt>
      <trkpt lat="42.9035080" lon="1.4445600">
        <ele>1180.4</ele>
        <time>2020-07-23T09:35:27Z</time>
      </trkpt>
      <trkpt lat="42.9034520" lon="1.4444510">
        <ele>1179.8</ele>
        <time>2020-07-23T09:35:28Z</time>
      </trkpt>
      <trkpt lat="42.9033950" lon="1.4443440">
        <ele>1179.2</ele>
        <time>2020-07-23T09:35:29Z</time>
      </trkpt>
      <trkpt lat="42.9032210" lon="1.4440060">
        <ele>1178.2</ele>
        <time>2020-07-23T09:35:32Z</time>
      </trkpt>
      <trkpt lat="42.9031070" lon="1.4437740">
        <ele>1176.8</ele>
        <time>2020-07-23T09:35:34Z</time>
      </trkpt>
      <trkpt lat="42.9029870" lon="1.4435500">
        <ele>1175.6</ele>
        <time>2020-07-23T09:35:36Z</time>
      </trkpt>
      <trkpt lat="42.9029320" lon="1.4434400">
        <ele>1175.4</ele>
        <time>2020-07-23T09:35:37Z</time>
      </trkpt>
      <trkpt lat="42.9028910" lon="1.4433250">
        <ele>1175.2</ele>
        <time>2020-07-23T09:35:38Z</time>
      </trkpt>
      <trkpt lat="42.9028580" lon="1.4432060">
        <ele>1174.6</ele>
        <time>2020-07-23T09:35:39Z</time>
      </trkpt>
      <trkpt lat="42.9028040" lon="1.4429680">
        <ele>1173.2</ele>
        <time>2020-07-23T09:35:41Z</time>
      </trkpt>
      <trkpt lat="42.9027590" lon="1.4427180">
        <ele>1172.6</ele>
        <time>2020-07-23T09:35:43Z</time>
      </trkpt>
      <trkpt lat="42.9027120" lon="1.4424630">
        <ele>1172.2</ele>
        <time>2020-07-23T09:35:45Z</time>
      </trkpt>
      <trkpt lat="42.9026970" lon="1.4423350">
        <ele>1171.8</ele>
        <time>2020-07-23T09:35:46Z</time>
      </trkpt>
      <trkpt lat="42.9026910" lon="1.4422070">
        <ele>1171.2</ele>
        <time>2020-07-23T09:35:47Z</time>
      </trkpt>
      <trkpt lat="42.9026930" lon="1.4420770">
        <ele>1170.8</ele>
        <time>2020-07-23T09:35:48Z</time>
      </trkpt>
      <trkpt lat="42.9026990" lon="1.4419430">
        <ele>1170.2</ele>
        <time>2020-07-23T09:35:49Z</time>
      </trkpt>
      <trkpt lat="42.9027120" lon="1.4418090">
        <ele>1169.6</ele>
        <time>2020-07-23T09:35:50Z</time>
      </trkpt>
      <trkpt lat="42.9027500" lon="1.4415400">
        <ele>1168.4</ele>
        <time>2020-07-23T09:35:52Z</time>
      </trkpt>
      <trkpt lat="42.9027680" lon="1.4414020">
        <ele>1168.0</ele>
        <time>2020-07-23T09:35:53Z</time>
      </trkpt>
      <trkpt lat="42.9028030" lon="1.4411250">
        <ele>1167.0</ele>
        <time>2020-07-23T09:35:55Z</time>
      </trkpt>
      <trkpt lat="42.9028560" lon="1.4408700">
        <ele>1166.0</ele>
        <time>2020-07-23T09:35:57Z</time>
      </trkpt>
      <trkpt lat="42.9028960" lon="1.4407560">
        <ele>1165.6</ele>
        <time>2020-07-23T09:35:58Z</time>
      </trkpt>
      <trkpt lat="42.9030040" lon="1.4405490">
        <ele>1165.2</ele>
        <time>2020-07-23T09:36:00Z</time>
      </trkpt>
      <trkpt lat="42.9031400" lon="1.4403960">
        <ele>1165.0</ele>
        <time>2020-07-23T09:36:02Z</time>
      </trkpt>
      <trkpt lat="42.9032830" lon="1.4403120">
        <ele>1164.2</ele>
        <time>2020-07-23T09:36:04Z</time>
      </trkpt>
      <trkpt lat="42.9033530" lon="1.4403000">
        <ele>1164.0</ele>
        <time>2020-07-23T09:36:05Z</time>
      </trkpt>
      <trkpt lat="42.9034200" lon="1.4403030">
        <ele>1163.6</ele>
        <time>2020-07-23T09:36:06Z</time>
      </trkpt>
      <trkpt lat="42.9035450" lon="1.4403930">
        <ele>1163.0</ele>
        <time>2020-07-23T09:36:08Z</time>
      </trkpt>
      <trkpt lat="42.9035930" lon="1.4404610">
        <ele>1162.8</ele>
        <time>2020-07-23T09:36:09Z</time>
      </trkpt>
      <trkpt lat="42.9036310" lon="1.4405460">
        <ele>1162.6</ele>
        <time>2020-07-23T09:36:10Z</time>
      </trkpt>
      <trkpt lat="42.9036790" lon="1.4406250">
        <ele>1162.2</ele>
        <time>2020-07-23T09:36:11Z</time>
      </trkpt>
      <trkpt lat="42.9037250" lon="1.4406920">
        <ele>1162.2</ele>
        <time>2020-07-23T09:36:12Z</time>
      </trkpt>
      <trkpt lat="42.9038440" lon="1.4407380">
        <ele>1161.6</ele>
        <time>2020-07-23T09:36:14Z</time>
      </trkpt>
      <trkpt lat="42.9039790" lon="1.4406340">
        <ele>1161.2</ele>
        <time>2020-07-23T09:36:16Z</time>
      </trkpt>
      <trkpt lat="42.9040710" lon="1.4404340">
        <ele>1160.8</ele>
        <time>2020-07-23T09:36:18Z</time>
      </trkpt>
      <trkpt lat="42.9041080" lon="1.4403230">
        <ele>1160.6</ele>
        <time>2020-07-23T09:36:19Z</time>
      </trkpt>
      <trkpt lat="42.9041350" lon="1.4402110">
        <ele>1160.2</ele>
        <time>2020-07-23T09:36:20Z</time>
      </trkpt>
      <trkpt lat="42.9041500" lon="1.4399710">
        <ele>1158.8</ele>
        <time>2020-07-23T09:36:22Z</time>
      </trkpt>
      <trkpt lat="42.9041220" lon="1.4397330">
        <ele>1157.6</ele>
        <time>2020-07-23T09:36:24Z</time>
      </trkpt>
      <trkpt lat="42.9040940" lon="1.4396140">
        <ele>1157.2</ele>
        <time>2020-07-23T09:36:25Z</time>
      </trkpt>
      <trkpt lat="42.9040260" lon="1.4393770">
        <ele>1156.4</ele>
        <time>2020-07-23T09:36:27Z</time>
      </trkpt>
      <trkpt lat="42.9039210" lon="1.4390130">
        <ele>1155.4</ele>
        <time>2020-07-23T09:36:30Z</time>
      </trkpt>
      <trkpt lat="42.9038960" lon="1.4388970">
        <ele>1154.8</ele>
        <time>2020-07-23T09:36:31Z</time>
      </trkpt>
      <trkpt lat="42.9038840" lon="1.4387800">
        <ele>1154.0</ele>
        <time>2020-07-23T09:36:32Z</time>
      </trkpt>
      <trkpt lat="42.9039180" lon="1.4385560">
        <ele>1153.2</ele>
        <time>2020-07-23T09:36:34Z</time>
      </trkpt>
      <trkpt lat="42.9040180" lon="1.4383690">
        <ele>1152.8</ele>
        <time>2020-07-23T09:36:36Z</time>
      </trkpt>
      <trkpt lat="42.9040750" lon="1.4382900">
        <ele>1152.6</ele>
        <time>2020-07-23T09:36:37Z</time>
      </trkpt>
      <trkpt lat="42.9041450" lon="1.4382260">
        <ele>1152.2</ele>
        <time>2020-07-23T09:36:38Z</time>
      </trkpt>
      <trkpt lat="42.9043070" lon="1.4381550">
        <ele>1151.4</ele>
        <time>2020-07-23T09:36:40Z</time>
      </trkpt>
      <trkpt lat="42.9043960" lon="1.4381440">
        <ele>1151.0</ele>
        <time>2020-07-23T09:36:41Z</time>
      </trkpt>
      <trkpt lat="42.9045750" lon="1.4381380">
        <ele>1150.2</ele>
        <time>2020-07-23T09:36:43Z</time>
      </trkpt>
      <trkpt lat="42.9046730" lon="1.4381400">
        <ele>1149.8</ele>
        <time>2020-07-23T09:36:44Z</time>
      </trkpt>
      <trkpt lat="42.9047600" lon="1.4381400">
        <ele>1149.6</ele>
        <time>2020-07-23T09:36:45Z</time>
      </trkpt>
      <trkpt lat="42.9048520" lon="1.4381410">
        <ele>1149.2</ele>
        <time>2020-07-23T09:36:46Z</time>
      </trkpt>
      <trkpt lat="42.9050330" lon="1.4381230">
        <ele>1148.4</ele>
        <time>2020-07-23T09:36:48Z</time>
      </trkpt>
      <trkpt lat="42.9051210" lon="1.4380870">
        <ele>1148.2</ele>
        <time>2020-07-23T09:36:49Z</time>
      </trkpt>
      <trkpt lat="42.9052050" lon="1.4380330">
        <ele>1148.0</ele>
        <time>2020-07-23T09:36:50Z</time>
      </trkpt>
      <trkpt lat="42.9052810" lon="1.4379680">
        <ele>1147.8</ele>
        <time>2020-07-23T09:36:51Z</time>
      </trkpt>
      <trkpt lat="42.9053310" lon="1.4378880">
        <ele>1147.6</ele>
        <time>2020-07-23T09:36:52Z</time>
      </trkpt>
      <trkpt lat="42.9053400" lon="1.4376670">
        <ele>1146.8</ele>
        <time>2020-07-23T09:36:54Z</time>
      </trkpt>
      <trkpt lat="42.9053290" lon="1.4372780">
        <ele>1145.4</ele>
        <time>2020-07-23T09:36:57Z</time>
      </trkpt>
      <trkpt lat="42.9053570" lon="1.4370160">
        <ele>1144.8</ele>
        <time>2020-07-23T09:36:59Z</time>
      </trkpt>
      <trkpt lat="42.9053550" lon="1.4368850">
        <ele>1144.4</ele>
        <time>2020-07-23T09:37:00Z</time>
      </trkpt>
      <trkpt lat="42.9053310" lon="1.4367670">
        <ele>1143.8</ele>
        <time>2020-07-23T09:37:01Z</time>
      </trkpt>
      <trkpt lat="42.9052900" lon="1.4366560">
        <ele>1143.4</ele>
        <time>2020-07-23T09:37:02Z</time>
      </trkpt>
      <trkpt lat="42.9051350" lon="1.4365090">
        <ele>1142.4</ele>
        <time>2020-07-23T09:37:04Z</time>
      </trkpt>
      <trkpt lat="42.9050440" lon="1.4364400">
        <ele>1142.2</ele>
        <time>2020-07-23T09:37:05Z</time>
      </trkpt>
      <trkpt lat="42.9049020" lon="1.4362910">
        <ele>1141.8</ele>
        <time>2020-07-23T09:37:07Z</time>
      </trkpt>
      <trkpt lat="42.9048530" lon="1.4362030">
        <ele>1141.4</ele>
        <time>2020-07-23T09:37:08Z</time>
      </trkpt>
      <trkpt lat="42.9048110" lon="1.4361040">
        <ele>1141.2</ele>
        <time>2020-07-23T09:37:09Z</time>
      </trkpt>
      <trkpt lat="42.9047230" lon="1.4359030">
        <ele>1140.6</ele>
        <time>2020-07-23T09:37:11Z</time>
      </trkpt>
      <trkpt lat="42.9046750" lon="1.4358150">
        <ele>1140.4</ele>
        <time>2020-07-23T09:37:12Z</time>
      </trkpt>
      <trkpt lat="42.9046220" lon="1.4357360">
        <ele>1140.2</ele>
        <time>2020-07-23T09:37:13Z</time>
      </trkpt>
      <trkpt lat="42.9045660" lon="1.4356630">
        <ele>1140.0</ele>
        <time>2020-07-23T09:37:14Z</time>
      </trkpt>
      <trkpt lat="42.9043830" lon="1.4354450">
        <ele>1139.4</ele>
        <time>2020-07-23T09:37:17Z</time>
      </trkpt>
      <trkpt lat="42.9042600" lon="1.4352950">
        <ele>1138.8</ele>
        <time>2020-07-23T09:37:19Z</time>
      </trkpt>
      <trkpt lat="42.9042070" lon="1.4352180">
        <ele>1138.4</ele>
        <time>2020-07-23T09:37:20Z</time>
      </trkpt>
      <trkpt lat="42.9041440" lon="1.4350360">
        <ele>1137.6</ele>
        <time>2020-07-23T09:37:22Z</time>
      </trkpt>
      <trkpt lat="42.9041260" lon="1.4348300">
        <ele>1137.0</ele>
        <time>2020-07-23T09:37:24Z</time>
      </trkpt>
      <trkpt lat="42.9041360" lon="1.4347240">
        <ele>1136.6</ele>
        <time>2020-07-23T09:37:25Z</time>
      </trkpt>
      <trkpt lat="42.9041530" lon="1.4346200">
        <ele>1136.4</ele>
        <time>2020-07-23T09:37:26Z</time>
      </trkpt>
      <trkpt lat="42.9042300" lon="1.4343120">
        <ele>1135.8</ele>
        <time>2020-07-23T09:37:29Z</time>
      </trkpt>
      <trkpt lat="42.9043170" lon="1.4341360">
        <ele>1135.4</ele>
        <time>2020-07-23T09:37:31Z</time>
      </trkpt>
      <trkpt lat="42.9044240" lon="1.4339740">
        <ele>1134.8</ele>
        <time>2020-07-23T09:37:33Z</time>
      </trkpt>
      <trkpt lat="42.9045320" lon="1.4338110">
        <ele>1134.4</ele>
        <time>2020-07-23T09:37:35Z</time>
      </trkpt>
      <trkpt lat="42.9048130" lon="1.4334040">
        <ele>1133.4</ele>
        <time>2020-07-23T09:37:40Z</time>
      </trkpt>
      <trkpt lat="42.9048710" lon="1.4333230">
        <ele>1133.0</ele>
        <time>2020-07-23T09:37:41Z</time>
      </trkpt>
      <trkpt lat="42.9049900" lon="1.4331610">
        <ele>1132.0</ele>
        <time>2020-07-23T09:37:43Z</time>
      </trkpt>
      <trkpt lat="42.9051380" lon="1.4330400">
        <ele>1131.4</ele>
        <time>2020-07-23T09:37:45Z</time>
      </trkpt>
      <trkpt lat="42.9053640" lon="1.4329290">
        <ele>1131.0</ele>
        <time>2020-07-23T09:37:48Z</time>
      </trkpt>
      <trkpt lat="42.9054290" lon="1.4329120">
        <ele>1131.0</ele>
        <time>2020-07-23T09:37:49Z</time>
      </trkpt>
      <trkpt lat="42.9054890" lon="1.4328860">
        <ele>1131.0</ele>
        <time>2020-07-23T09:37:50Z</time>
      </trkpt>
      <trkpt lat="42.9055830" lon="1.4327890">
        <ele>1130.8</ele>
        <time>2020-07-23T09:37:52Z</time>
      </trkpt>
      <trkpt lat="42.9056080" lon="1.4327080">
        <ele>1130.6</ele>
        <time>2020-07-23T09:37:53Z</time>
      </trkpt>
      <trkpt lat="42.9056280" lon="1.4326300">
        <ele>1130.2</ele>
        <time>2020-07-23T09:37:54Z</time>
      </trkpt>
      <trkpt lat="42.9055900" lon="1.4325280">
        <ele>1130.0</ele>
        <time>2020-07-23T09:37:55Z</time>
      </trkpt>
      <trkpt lat="42.9055410" lon="1.4324410">
        <ele>1129.8</ele>
        <time>2020-07-23T09:37:56Z</time>
      </trkpt>
      <trkpt lat="42.9054890" lon="1.4323560">
        <ele>1129.6</ele>
        <time>2020-07-23T09:37:57Z</time>
      </trkpt>
      <trkpt lat="42.9053750" lon="1.4321850">
        <ele>1129.0</ele>
        <time>2020-07-23T09:37:59Z</time>
      </trkpt>
      <trkpt lat="42.9053160" lon="1.4320980">
        <ele>1128.4</ele>
        <time>2020-07-23T09:38:00Z</time>
      </trkpt>
      <trkpt lat="42.9052550" lon="1.4320140">
        <ele>1127.8</ele>
        <time>2020-07-23T09:38:01Z</time>
      </trkpt>
      <trkpt lat="42.9050020" lon="1.4316920">
        <ele>1126.6</ele>
        <time>2020-07-23T09:38:05Z</time>
      </trkpt>
      <trkpt lat="42.9049280" lon="1.4316180">
        <ele>1126.2</ele>
        <time>2020-07-23T09:38:06Z</time>
      </trkpt>
      <trkpt lat="42.9047020" lon="1.4314360">
        <ele>1125.2</ele>
        <time>2020-07-23T09:38:09Z</time>
      </trkpt>
      <trkpt lat="42.9045740" lon="1.4313310">
        <ele>1124.6</ele>
        <time>2020-07-23T09:38:11Z</time>
      </trkpt>
      <trkpt lat="42.9045210" lon="1.4311640">
        <ele>1124.4</ele>
        <time>2020-07-23T09:38:13Z</time>
      </trkpt>
      <trkpt lat="42.9045230" lon="1.4309750">
        <ele>1124.4</ele>
        <time>2020-07-23T09:38:15Z</time>
      </trkpt>
      <trkpt lat="42.9045380" lon="1.4308860">
        <ele>1124.4</ele>
        <time>2020-07-23T09:38:16Z</time>
      </trkpt>
      <trkpt lat="42.9045570" lon="1.4307980">
        <ele>1124.2</ele>
        <time>2020-07-23T09:38:17Z</time>
      </trkpt>
      <trkpt lat="42.9045760" lon="1.4307100">
        <ele>1124.0</ele>
        <time>2020-07-23T09:38:18Z</time>
      </trkpt>
      <trkpt lat="42.9046140" lon="1.4305190">
        <ele>1123.2</ele>
        <time>2020-07-23T09:38:20Z</time>
      </trkpt>
      <trkpt lat="42.9046390" lon="1.4304220">
        <ele>1123.0</ele>
        <time>2020-07-23T09:38:21Z</time>
      </trkpt>
      <trkpt lat="42.9046730" lon="1.4303290">
        <ele>1122.8</ele>
        <time>2020-07-23T09:38:22Z</time>
      </trkpt>
      <trkpt lat="42.9047140" lon="1.4302380">
        <ele>1122.6</ele>
        <time>2020-07-23T09:38:23Z</time>
      </trkpt>
      <trkpt lat="42.9047640" lon="1.4301540">
        <ele>1122.4</ele>
        <time>2020-07-23T09:38:24Z</time>
      </trkpt>
      <trkpt lat="42.9049400" lon="1.4299300">
        <ele>1122.2</ele>
        <time>2020-07-23T09:38:27Z</time>
      </trkpt>
      <trkpt lat="42.9050600" lon="1.4297820">
        <ele>1121.8</ele>
        <time>2020-07-23T09:38:29Z</time>
      </trkpt>
      <trkpt lat="42.9052510" lon="1.4295610">
        <ele>1120.4</ele>
        <time>2020-07-23T09:38:32Z</time>
      </trkpt>
      <trkpt lat="42.9053230" lon="1.4295000">
        <ele>1120.0</ele>
        <time>2020-07-23T09:38:33Z</time>
      </trkpt>
      <trkpt lat="42.9053980" lon="1.4294520">
        <ele>1119.4</ele>
        <time>2020-07-23T09:38:34Z</time>
      </trkpt>
      <trkpt lat="42.9054800" lon="1.4294180">
        <ele>1118.8</ele>
        <time>2020-07-23T09:38:35Z</time>
      </trkpt>
      <trkpt lat="42.9055620" lon="1.4293910">
        <ele>1118.4</ele>
        <time>2020-07-23T09:38:36Z</time>
      </trkpt>
      <trkpt lat="42.9056420" lon="1.4293640">
        <ele>1118.0</ele>
        <time>2020-07-23T09:38:37Z</time>
      </trkpt>
      <trkpt lat="42.9058930" lon="1.4292700">
        <ele>1117.2</ele>
        <time>2020-07-23T09:38:40Z</time>
      </trkpt>
      <trkpt lat="42.9061600" lon="1.4291570">
        <ele>1116.2</ele>
        <time>2020-07-23T09:38:43Z</time>
      </trkpt>
      <trkpt lat="42.9064220" lon="1.4290370">
        <ele>1115.0</ele>
        <time>2020-07-23T09:38:46Z</time>
      </trkpt>
      <trkpt lat="42.9064960" lon="1.4289930">
        <ele>1114.8</ele>
        <time>2020-07-23T09:38:47Z</time>
      </trkpt>
      <trkpt lat="42.9066230" lon="1.4288390">
        <ele>1114.4</ele>
        <time>2020-07-23T09:38:49Z</time>
      </trkpt>
      <trkpt lat="42.9066560" lon="1.4287260">
        <ele>1114.0</ele>
        <time>2020-07-23T09:38:50Z</time>
      </trkpt>
      <trkpt lat="42.9066580" lon="1.4286040">
        <ele>1113.6</ele>
        <time>2020-07-23T09:38:51Z</time>
      </trkpt>
      <trkpt lat="42.9066040" lon="1.4283610">
        <ele>1112.6</ele>
        <time>2020-07-23T09:38:53Z</time>
      </trkpt>
      <trkpt lat="42.9065490" lon="1.4282560">
        <ele>1111.8</ele>
        <time>2020-07-23T09:38:54Z</time>
      </trkpt>
      <trkpt lat="42.9064760" lon="1.4281730">
        <ele>1111.4</ele>
        <time>2020-07-23T09:38:55Z</time>
      </trkpt>
      <trkpt lat="42.9063150" lon="1.4280430">
        <ele>1110.4</ele>
        <time>2020-07-23T09:38:57Z</time>
      </trkpt>
      <trkpt lat="42.9062480" lon="1.4279640">
        <ele>1110.0</ele>
        <time>2020-07-23T09:38:58Z</time>
      </trkpt>
      <trkpt lat="42.9062020" lon="1.4278670">
        <ele>1109.8</ele>
        <time>2020-07-23T09:38:59Z</time>
      </trkpt>
      <trkpt lat="42.9061770" lon="1.4277600">
        <ele>1109.4</ele>
        <time>2020-07-23T09:39:00Z</time>
      </trkpt>
      <trkpt lat="42.9061670" lon="1.4276470">
        <ele>1108.8</ele>
        <time>2020-07-23T09:39:01Z</time>
      </trkpt>
      <trkpt lat="42.9061590" lon="1.4275270">
        <ele>1108.2</ele>
        <time>2020-07-23T09:39:02Z</time>
      </trkpt>
      <trkpt lat="42.9061490" lon="1.4274030">
        <ele>1107.8</ele>
        <time>2020-07-23T09:39:03Z</time>
      </trkpt>
      <trkpt lat="42.9061280" lon="1.4271520">
        <ele>1107.0</ele>
        <time>2020-07-23T09:39:05Z</time>
      </trkpt>
      <trkpt lat="42.9061170" lon="1.4270240">
        <ele>1106.2</ele>
        <time>2020-07-23T09:39:06Z</time>
      </trkpt>
      <trkpt lat="42.9061080" lon="1.4267700">
        <ele>1105.0</ele>
        <time>2020-07-23T09:39:08Z</time>
      </trkpt>
      <trkpt lat="42.9061140" lon="1.4266450">
        <ele>1104.4</ele>
        <time>2020-07-23T09:39:09Z</time>
      </trkpt>
      <trkpt lat="42.9061650" lon="1.4264080">
        <ele>1103.6</ele>
        <time>2020-07-23T09:39:11Z</time>
      </trkpt>
      <trkpt lat="42.9062210" lon="1.4263080">
        <ele>1103.2</ele>
        <time>2020-07-23T09:39:12Z</time>
      </trkpt>
      <trkpt lat="42.9062820" lon="1.4262140">
        <ele>1102.6</ele>
        <time>2020-07-23T09:39:13Z</time>
      </trkpt>
      <trkpt lat="42.9065000" lon="1.4259630">
        <ele>1101.2</ele>
        <time>2020-07-23T09:39:16Z</time>
      </trkpt>
      <trkpt lat="42.9066590" lon="1.4258000">
        <ele>1100.0</ele>
        <time>2020-07-23T09:39:18Z</time>
      </trkpt>
      <trkpt lat="42.9068250" lon="1.4256300">
        <ele>1098.8</ele>
        <time>2020-07-23T09:39:20Z</time>
      </trkpt>
      <trkpt lat="42.9070100" lon="1.4254900">
        <ele>1097.8</ele>
        <time>2020-07-23T09:39:22Z</time>
      </trkpt>
      <trkpt lat="42.9073110" lon="1.4253290">
        <ele>1096.6</ele>
        <time>2020-07-23T09:39:25Z</time>
      </trkpt>
      <trkpt lat="42.9075100" lon="1.4252460">
        <ele>1095.4</ele>
        <time>2020-07-23T09:39:27Z</time>
      </trkpt>
      <trkpt lat="42.9076950" lon="1.4251770">
        <ele>1094.4</ele>
        <time>2020-07-23T09:39:29Z</time>
      </trkpt>
      <trkpt lat="42.9077830" lon="1.4251190">
        <ele>1094.0</ele>
        <time>2020-07-23T09:39:30Z</time>
      </trkpt>
      <trkpt lat="42.9078600" lon="1.4250470">
        <ele>1093.8</ele>
        <time>2020-07-23T09:39:31Z</time>
      </trkpt>
      <trkpt lat="42.9079320" lon="1.4248150">
        <ele>1093.0</ele>
        <time>2020-07-23T09:39:33Z</time>
      </trkpt>
      <trkpt lat="42.9079390" lon="1.4246760">
        <ele>1092.4</ele>
        <time>2020-07-23T09:39:34Z</time>
      </trkpt>
      <trkpt lat="42.9079400" lon="1.4245380">
        <ele>1091.8</ele>
        <time>2020-07-23T09:39:35Z</time>
      </trkpt>
      <trkpt lat="42.9079310" lon="1.4244000">
        <ele>1091.2</ele>
        <time>2020-07-23T09:39:36Z</time>
      </trkpt>
      <trkpt lat="42.9079020" lon="1.4242600">
        <ele>1090.6</ele>
        <time>2020-07-23T09:39:37Z</time>
      </trkpt>
      <trkpt lat="42.9078030" lon="1.4239740">
        <ele>1089.2</ele>
        <time>2020-07-23T09:39:39Z</time>
      </trkpt>
      <trkpt lat="42.9076880" lon="1.4237100">
        <ele>1087.8</ele>
        <time>2020-07-23T09:39:41Z</time>
      </trkpt>
      <trkpt lat="42.9074900" lon="1.4234830">
        <ele>1086.0</ele>
        <time>2020-07-23T09:39:43Z</time>
      </trkpt>
      <trkpt lat="42.9072820" lon="1.4233110">
        <ele>1085.0</ele>
        <time>2020-07-23T09:39:45Z</time>
      </trkpt>
      <trkpt lat="42.9071780" lon="1.4232400">
        <ele>1084.6</ele>
        <time>2020-07-23T09:39:46Z</time>
      </trkpt>
      <trkpt lat="42.9070690" lon="1.4231890">
        <ele>1084.0</ele>
        <time>2020-07-23T09:39:47Z</time>
      </trkpt>
      <trkpt lat="42.9069590" lon="1.4231650">
        <ele>1083.6</ele>
        <time>2020-07-23T09:39:48Z</time>
      </trkpt>
      <trkpt lat="42.9067460" lon="1.4231420">
        <ele>1083.0</ele>
        <time>2020-07-23T09:39:50Z</time>
      </trkpt>
      <trkpt lat="42.9066440" lon="1.4231230">
        <ele>1082.4</ele>
        <time>2020-07-23T09:39:51Z</time>
      </trkpt>
      <trkpt lat="42.9065470" lon="1.4230840">
        <ele>1081.8</ele>
        <time>2020-07-23T09:39:52Z</time>
      </trkpt>
      <trkpt lat="42.9064650" lon="1.4230110">
        <ele>1081.0</ele>
        <time>2020-07-23T09:39:53Z</time>
      </trkpt>
      <trkpt lat="42.9063930" lon="1.4229280">
        <ele>1080.2</ele>
        <time>2020-07-23T09:39:54Z</time>
      </trkpt>
      <trkpt lat="42.9063290" lon="1.4228370">
        <ele>1079.8</ele>
        <time>2020-07-23T09:39:55Z</time>
      </trkpt>
      <trkpt lat="42.9062820" lon="1.4227350">
        <ele>1079.4</ele>
        <time>2020-07-23T09:39:56Z</time>
      </trkpt>
      <trkpt lat="42.9062420" lon="1.4224980">
        <ele>1078.6</ele>
        <time>2020-07-23T09:39:58Z</time>
      </trkpt>
      <trkpt lat="42.9062420" lon="1.4223710">
        <ele>1078.2</ele>
        <time>2020-07-23T09:39:59Z</time>
      </trkpt>
      <trkpt lat="42.9062490" lon="1.4222470">
        <ele>1077.4</ele>
        <time>2020-07-23T09:40:00Z</time>
      </trkpt>
      <trkpt lat="42.9062740" lon="1.4219920">
        <ele>1075.8</ele>
        <time>2020-07-23T09:40:02Z</time>
      </trkpt>
      <trkpt lat="42.9063140" lon="1.4217410">
        <ele>1074.8</ele>
        <time>2020-07-23T09:40:04Z</time>
      </trkpt>
      <trkpt lat="42.9063710" lon="1.4213680">
        <ele>1073.6</ele>
        <time>2020-07-23T09:40:07Z</time>
      </trkpt>
      <trkpt lat="42.9064300" lon="1.4211450">
        <ele>1072.6</ele>
        <time>2020-07-23T09:40:09Z</time>
      </trkpt>
      <trkpt lat="42.9064650" lon="1.4210520">
        <ele>1072.4</ele>
        <time>2020-07-23T09:40:10Z</time>
      </trkpt>
      <trkpt lat="42.9065090" lon="1.4209780">
        <ele>1072.0</ele>
        <time>2020-07-23T09:40:11Z</time>
      </trkpt>
      <trkpt lat="42.9065590" lon="1.4209190">
        <ele>1071.8</ele>
        <time>2020-07-23T09:40:12Z</time>
      </trkpt>
      <trkpt lat="42.9066220" lon="1.4208790">
        <ele>1071.8</ele>
        <time>2020-07-23T09:40:13Z</time>
      </trkpt>
      <trkpt lat="42.9066880" lon="1.4208360">
        <ele>1071.4</ele>
        <time>2020-07-23T09:40:14Z</time>
      </trkpt>
      <trkpt lat="42.9067540" lon="1.4207780">
        <ele>1070.6</ele>
        <time>2020-07-23T09:40:15Z</time>
      </trkpt>
      <trkpt lat="42.9068170" lon="1.4207070">
        <ele>1070.2</ele>
        <time>2020-07-23T09:40:16Z</time>
      </trkpt>
      <trkpt lat="42.9068720" lon="1.4206190">
        <ele>1069.6</ele>
        <time>2020-07-23T09:40:17Z</time>
      </trkpt>
      <trkpt lat="42.9070020" lon="1.4204340">
        <ele>1068.6</ele>
        <time>2020-07-23T09:40:19Z</time>
      </trkpt>
      <trkpt lat="42.9070920" lon="1.4202410">
        <ele>1066.8</ele>
        <time>2020-07-23T09:40:21Z</time>
      </trkpt>
      <trkpt lat="42.9070980" lon="1.4200460">
        <ele>1065.4</ele>
        <time>2020-07-23T09:40:23Z</time>
      </trkpt>
      <trkpt lat="42.9070650" lon="1.4199400">
        <ele>1065.0</ele>
        <time>2020-07-23T09:40:24Z</time>
      </trkpt>
      <trkpt lat="42.9070370" lon="1.4197090">
        <ele>1064.0</ele>
        <time>2020-07-23T09:40:26Z</time>
      </trkpt>
      <trkpt lat="42.9070360" lon="1.4195820">
        <ele>1063.6</ele>
        <time>2020-07-23T09:40:27Z</time>
      </trkpt>
      <trkpt lat="42.9070360" lon="1.4193450">
        <ele>1062.4</ele>
        <time>2020-07-23T09:40:29Z</time>
      </trkpt>
      <trkpt lat="42.9069770" lon="1.4191280">
        <ele>1061.2</ele>
        <time>2020-07-23T09:40:31Z</time>
      </trkpt>
      <trkpt lat="42.9068590" lon="1.4189450">
        <ele>1059.8</ele>
        <time>2020-07-23T09:40:33Z</time>
      </trkpt>
      <trkpt lat="42.9067870" lon="1.4188740">
        <ele>1059.2</ele>
        <time>2020-07-23T09:40:34Z</time>
      </trkpt>
      <trkpt lat="42.9067300" lon="1.4188030">
        <ele>1058.6</ele>
        <time>2020-07-23T09:40:35Z</time>
      </trkpt>
      <trkpt lat="42.9066820" lon="1.4186230">
        <ele>1058.0</ele>
        <time>2020-07-23T09:40:37Z</time>
      </trkpt>
      <trkpt lat="42.9067010" lon="1.4184210">
        <ele>1057.4</ele>
        <time>2020-07-23T09:40:39Z</time>
      </trkpt>
      <trkpt lat="42.9067270" lon="1.4183190">
        <ele>1057.0</ele>
        <time>2020-07-23T09:40:40Z</time>
      </trkpt>
      <trkpt lat="42.9067950" lon="1.4181130">
        <ele>1055.8</ele>
        <time>2020-07-23T09:40:42Z</time>
      </trkpt>
      <trkpt lat="42.9068700" lon="1.4178980">
        <ele>1054.6</ele>
        <time>2020-07-23T09:40:44Z</time>
      </trkpt>
      <trkpt lat="42.9069090" lon="1.4177860">
        <ele>1054.2</ele>
        <time>2020-07-23T09:40:45Z</time>
      </trkpt>
      <trkpt lat="42.9069910" lon="1.4175520">
        <ele>1053.6</ele>
        <time>2020-07-23T09:40:47Z</time>
      </trkpt>
      <trkpt lat="42.9070790" lon="1.4173140">
        <ele>1052.2</ele>
        <time>2020-07-23T09:40:49Z</time>
      </trkpt>
      <trkpt lat="42.9071790" lon="1.4170800">
        <ele>1050.8</ele>
        <time>2020-07-23T09:40:51Z</time>
      </trkpt>
      <trkpt lat="42.9072330" lon="1.4169640">
        <ele>1050.0</ele>
        <time>2020-07-23T09:40:52Z</time>
      </trkpt>
      <trkpt lat="42.9072900" lon="1.4168500">
        <ele>1049.4</ele>
        <time>2020-07-23T09:40:53Z</time>
      </trkpt>
      <trkpt lat="42.9074230" lon="1.4166590">
        <ele>1048.6</ele>
        <time>2020-07-23T09:40:55Z</time>
      </trkpt>
      <trkpt lat="42.9074950" lon="1.4165820">
        <ele>1048.6</ele>
        <time>2020-07-23T09:40:56Z</time>
      </trkpt>
      <trkpt lat="42.9075760" lon="1.4165280">
        <ele>1048.2</ele>
        <time>2020-07-23T09:40:57Z</time>
      </trkpt>
      <trkpt lat="42.9077380" lon="1.4164500">
        <ele>1047.4</ele>
        <time>2020-07-23T09:40:59Z</time>
      </trkpt>
      <trkpt lat="42.9078160" lon="1.4164220">
        <ele>1046.8</ele>
        <time>2020-07-23T09:41:00Z</time>
      </trkpt>
      <trkpt lat="42.9079420" lon="1.4163390">
        <ele>1046.0</ele>
        <time>2020-07-23T09:41:02Z</time>
      </trkpt>
      <trkpt lat="42.9079790" lon="1.4162720">
        <ele>1045.6</ele>
        <time>2020-07-23T09:41:03Z</time>
      </trkpt>
      <trkpt lat="42.9079780" lon="1.4161890">
        <ele>1045.2</ele>
        <time>2020-07-23T09:41:04Z</time>
      </trkpt>
      <trkpt lat="42.9079490" lon="1.4161120">
        <ele>1044.8</ele>
        <time>2020-07-23T09:41:05Z</time>
      </trkpt>
      <trkpt lat="42.9079020" lon="1.4160360">
        <ele>1044.6</ele>
        <time>2020-07-23T09:41:06Z</time>
      </trkpt>
      <trkpt lat="42.9078400" lon="1.4159660">
        <ele>1044.2</ele>
        <time>2020-07-23T09:41:07Z</time>
      </trkpt>
      <trkpt lat="42.9077680" lon="1.4159080">
        <ele>1043.8</ele>
        <time>2020-07-23T09:41:08Z</time>
      </trkpt>
      <trkpt lat="42.9076890" lon="1.4158520">
        <ele>1043.2</ele>
        <time>2020-07-23T09:41:09Z</time>
      </trkpt>
      <trkpt lat="42.9076140" lon="1.4157880">
        <ele>1042.8</ele>
        <time>2020-07-23T09:41:10Z</time>
      </trkpt>
      <trkpt lat="42.9074720" lon="1.4156370">
        <ele>1041.8</ele>
        <time>2020-07-23T09:41:12Z</time>
      </trkpt>
      <trkpt lat="42.9073970" lon="1.4155640">
        <ele>1041.2</ele>
        <time>2020-07-23T09:41:13Z</time>
      </trkpt>
      <trkpt lat="42.9073150" lon="1.4155000">
        <ele>1040.8</ele>
        <time>2020-07-23T09:41:14Z</time>
      </trkpt>
      <trkpt lat="42.9071510" lon="1.4153820">
        <ele>1039.6</ele>
        <time>2020-07-23T09:41:16Z</time>
      </trkpt>
      <trkpt lat="42.9070790" lon="1.4153200">
        <ele>1038.8</ele>
        <time>2020-07-23T09:41:17Z</time>
      </trkpt>
      <trkpt lat="42.9070210" lon="1.4152390">
        <ele>1038.0</ele>
        <time>2020-07-23T09:41:18Z</time>
      </trkpt>
      <trkpt lat="42.9069690" lon="1.4151510">
        <ele>1037.4</ele>
        <time>2020-07-23T09:41:19Z</time>
      </trkpt>
      <trkpt lat="42.9069250" lon="1.4150540">
        <ele>1037.0</ele>
        <time>2020-07-23T09:41:20Z</time>
      </trkpt>
      <trkpt lat="42.9068780" lon="1.4149620">
        <ele>1036.6</ele>
        <time>2020-07-23T09:41:21Z</time>
      </trkpt>
      <trkpt lat="42.9068230" lon="1.4148750">
        <ele>1036.2</ele>
        <time>2020-07-23T09:41:22Z</time>
      </trkpt>
      <trkpt lat="42.9067600" lon="1.4147920">
        <ele>1035.6</ele>
        <time>2020-07-23T09:41:23Z</time>
      </trkpt>
      <trkpt lat="42.9066960" lon="1.4147090">
        <ele>1035.4</ele>
        <time>2020-07-23T09:41:24Z</time>
      </trkpt>
      <trkpt lat="42.9065770" lon="1.4145280">
        <ele>1034.6</ele>
        <time>2020-07-23T09:41:26Z</time>
      </trkpt>
      <trkpt lat="42.9064810" lon="1.4143440">
        <ele>1034.0</ele>
        <time>2020-07-23T09:41:28Z</time>
      </trkpt>
      <trkpt lat="42.9064240" lon="1.4142750">
        <ele>1033.6</ele>
        <time>2020-07-23T09:41:29Z</time>
      </trkpt>
      <trkpt lat="42.9063190" lon="1.4141310">
        <ele>1032.6</ele>
        <time>2020-07-23T09:41:31Z</time>
      </trkpt>
      <trkpt lat="42.9062780" lon="1.4140460">
        <ele>1032.0</ele>
        <time>2020-07-23T09:41:32Z</time>
      </trkpt>
      <trkpt lat="42.9062500" lon="1.4139510">
        <ele>1031.6</ele>
        <time>2020-07-23T09:41:33Z</time>
      </trkpt>
      <trkpt lat="42.9062410" lon="1.4137450">
        <ele>1030.8</ele>
        <time>2020-07-23T09:41:35Z</time>
      </trkpt>
      <trkpt lat="42.9062490" lon="1.4136380">
        <ele>1030.2</ele>
        <time>2020-07-23T09:41:36Z</time>
      </trkpt>
      <trkpt lat="42.9062750" lon="1.4134180">
        <ele>1029.2</ele>
        <time>2020-07-23T09:41:38Z</time>
      </trkpt>
      <trkpt lat="42.9062930" lon="1.4133040">
        <ele>1028.8</ele>
        <time>2020-07-23T09:41:39Z</time>
      </trkpt>
      <trkpt lat="42.9063120" lon="1.4131900">
        <ele>1028.4</ele>
        <time>2020-07-23T09:41:40Z</time>
      </trkpt>
      <trkpt lat="42.9063330" lon="1.4130730">
        <ele>1028.0</ele>
        <time>2020-07-23T09:41:41Z</time>
      </trkpt>
      <trkpt lat="42.9063960" lon="1.4127030">
        <ele>1026.6</ele>
        <time>2020-07-23T09:41:44Z</time>
      </trkpt>
      <trkpt lat="42.9064380" lon="1.4124580">
        <ele>1025.0</ele>
        <time>2020-07-23T09:41:46Z</time>
      </trkpt>
      <trkpt lat="42.9065360" lon="1.4121370">
        <ele>1023.8</ele>
        <time>2020-07-23T09:41:49Z</time>
      </trkpt>
      <trkpt lat="42.9065840" lon="1.4120340">
        <ele>1023.4</ele>
        <time>2020-07-23T09:41:50Z</time>
      </trkpt>
      <trkpt lat="42.9067680" lon="1.4117460">
        <ele>1022.6</ele>
        <time>2020-07-23T09:41:53Z</time>
      </trkpt>
      <trkpt lat="42.9068320" lon="1.4116560">
        <ele>1022.0</ele>
        <time>2020-07-23T09:41:54Z</time>
      </trkpt>
      <trkpt lat="42.9068950" lon="1.4115710">
        <ele>1021.2</ele>
        <time>2020-07-23T09:41:55Z</time>
      </trkpt>
      <trkpt lat="42.9070000" lon="1.4113920">
        <ele>1020.4</ele>
        <time>2020-07-23T09:41:57Z</time>
      </trkpt>
      <trkpt lat="42.9070180" lon="1.4112800">
        <ele>1020.0</ele>
        <time>2020-07-23T09:41:58Z</time>
      </trkpt>
      <trkpt lat="42.9070210" lon="1.4111710">
        <ele>1019.2</ele>
        <time>2020-07-23T09:41:59Z</time>
      </trkpt>
      <trkpt lat="42.9070000" lon="1.4110530">
        <ele>1018.6</ele>
        <time>2020-07-23T09:42:00Z</time>
      </trkpt>
      <trkpt lat="42.9069630" lon="1.4109210">
        <ele>1018.2</ele>
        <time>2020-07-23T09:42:01Z</time>
      </trkpt>
      <trkpt lat="42.9069280" lon="1.4107890">
        <ele>1018.0</ele>
        <time>2020-07-23T09:42:02Z</time>
      </trkpt>
      <trkpt lat="42.9068970" lon="1.4106610">
        <ele>1017.6</ele>
        <time>2020-07-23T09:42:03Z</time>
      </trkpt>
      <trkpt lat="42.9068650" lon="1.4104050">
        <ele>1016.2</ele>
        <time>2020-07-23T09:42:05Z</time>
      </trkpt>
      <trkpt lat="42.9068830" lon="1.4101420">
        <ele>1014.8</ele>
        <time>2020-07-23T09:42:07Z</time>
      </trkpt>
      <trkpt lat="42.9069060" lon="1.4100140">
        <ele>1014.4</ele>
        <time>2020-07-23T09:42:08Z</time>
      </trkpt>
      <trkpt lat="42.9069390" lon="1.4098930">
        <ele>1014.0</ele>
        <time>2020-07-23T09:42:09Z</time>
      </trkpt>
      <trkpt lat="42.9069750" lon="1.4097790">
        <ele>1013.6</ele>
        <time>2020-07-23T09:42:10Z</time>
      </trkpt>
      <trkpt lat="42.9070480" lon="1.4095640">
        <ele>1012.8</ele>
        <time>2020-07-23T09:42:12Z</time>
      </trkpt>
      <trkpt lat="42.9070720" lon="1.4094540">
        <ele>1012.4</ele>
        <time>2020-07-23T09:42:13Z</time>
      </trkpt>
      <trkpt lat="42.9070640" lon="1.4092330">
        <ele>1011.6</ele>
        <time>2020-07-23T09:42:15Z</time>
      </trkpt>
      <trkpt lat="42.9070250" lon="1.4091270">
        <ele>1011.0</ele>
        <time>2020-07-23T09:42:16Z</time>
      </trkpt>
      <trkpt lat="42.9069720" lon="1.4090280">
        <ele>1010.4</ele>
        <time>2020-07-23T09:42:17Z</time>
      </trkpt>
      <trkpt lat="42.9069150" lon="1.4089300">
        <ele>1010.0</ele>
        <time>2020-07-23T09:42:18Z</time>
      </trkpt>
      <trkpt lat="42.9068150" lon="1.4087300">
        <ele>1009.0</ele>
        <time>2020-07-23T09:42:20Z</time>
      </trkpt>
      <trkpt lat="42.9067850" lon="1.4086200">
        <ele>1008.6</ele>
        <time>2020-07-23T09:42:21Z</time>
      </trkpt>
      <trkpt lat="42.9067640" lon="1.4085050">
        <ele>1008.4</ele>
        <time>2020-07-23T09:42:22Z</time>
      </trkpt>
      <trkpt lat="42.9067480" lon="1.4082710">
        <ele>1007.4</ele>
        <time>2020-07-23T09:42:24Z</time>
      </trkpt>
      <trkpt lat="42.9067450" lon="1.4081510">
        <ele>1006.8</ele>
        <time>2020-07-23T09:42:25Z</time>
      </trkpt>
      <trkpt lat="42.9067460" lon="1.4080300">
        <ele>1006.2</ele>
        <time>2020-07-23T09:42:26Z</time>
      </trkpt>
      <trkpt lat="42.9067520" lon="1.4077930">
        <ele>1005.0</ele>
        <time>2020-07-23T09:42:28Z</time>
      </trkpt>
      <trkpt lat="42.9067830" lon="1.4074480">
        <ele>1004.2</ele>
        <time>2020-07-23T09:42:31Z</time>
      </trkpt>
      <trkpt lat="42.9068000" lon="1.4073360">
        <ele>1003.8</ele>
        <time>2020-07-23T09:42:32Z</time>
      </trkpt>
      <trkpt lat="42.9069120" lon="1.4068920">
        <ele>1002.4</ele>
        <time>2020-07-23T09:42:36Z</time>
      </trkpt>
      <trkpt lat="42.9069810" lon="1.4066030">
        <ele>1001.2</ele>
        <time>2020-07-23T09:42:39Z</time>
      </trkpt>
      <trkpt lat="42.9070150" lon="1.4064000">
        <ele>1000.6</ele>
        <time>2020-07-23T09:42:41Z</time>
      </trkpt>
      <trkpt lat="42.9070270" lon="1.4062930">
        <ele>1000.2</ele>
        <time>2020-07-23T09:42:42Z</time>
      </trkpt>
      <trkpt lat="42.9070360" lon="1.4060620">
        <ele>999.0</ele>
        <time>2020-07-23T09:42:44Z</time>
      </trkpt>
      <trkpt lat="42.9070370" lon="1.4058250">
        <ele>998.0</ele>
        <time>2020-07-23T09:42:46Z</time>
      </trkpt>
      <trkpt lat="42.9070350" lon="1.4057060">
        <ele>997.6</ele>
        <time>2020-07-23T09:42:47Z</time>
      </trkpt>
      <trkpt lat="42.9070320" lon="1.4054650">
        <ele>996.4</ele>
        <time>2020-07-23T09:42:49Z</time>
      </trkpt>
      <trkpt lat="42.9070360" lon="1.4052200">
        <ele>995.2</ele>
        <time>2020-07-23T09:42:51Z</time>
      </trkpt>
      <trkpt lat="42.9070630" lon="1.4049740">
        <ele>994.4</ele>
        <time>2020-07-23T09:42:53Z</time>
      </trkpt>
      <trkpt lat="42.9070900" lon="1.4048520">
        <ele>994.0</ele>
        <time>2020-07-23T09:42:54Z</time>
      </trkpt>
      <trkpt lat="42.9071260" lon="1.4047360">
        <ele>993.6</ele>
        <time>2020-07-23T09:42:55Z</time>
      </trkpt>
      <trkpt lat="42.9071710" lon="1.4046240">
        <ele>993.0</ele>
        <time>2020-07-23T09:42:56Z</time>
      </trkpt>
      <trkpt lat="42.9072230" lon="1.4045180">
        <ele>992.6</ele>
        <time>2020-07-23T09:42:57Z</time>
      </trkpt>
      <trkpt lat="42.9072820" lon="1.4044190">
        <ele>992.0</ele>
        <time>2020-07-23T09:42:58Z</time>
      </trkpt>
      <trkpt lat="42.9073470" lon="1.4043260">
        <ele>991.8</ele>
        <time>2020-07-23T09:42:59Z</time>
      </trkpt>
      <trkpt lat="42.9074830" lon="1.4041430">
        <ele>990.8</ele>
        <time>2020-07-23T09:43:01Z</time>
      </trkpt>
      <trkpt lat="42.9075420" lon="1.4040450">
        <ele>990.4</ele>
        <time>2020-07-23T09:43:02Z</time>
      </trkpt>
      <trkpt lat="42.9075900" lon="1.4039350">
        <ele>990.0</ele>
        <time>2020-07-23T09:43:03Z</time>
      </trkpt>
      <trkpt lat="42.9076520" lon="1.4036970">
        <ele>989.4</ele>
        <time>2020-07-23T09:43:05Z</time>
      </trkpt>
      <trkpt lat="42.9076790" lon="1.4034440">
        <ele>988.2</ele>
        <time>2020-07-23T09:43:07Z</time>
      </trkpt>
      <trkpt lat="42.9076730" lon="1.4031800">
        <ele>986.8</ele>
        <time>2020-07-23T09:43:09Z</time>
      </trkpt>
      <trkpt lat="42.9076450" lon="1.4029100">
        <ele>985.8</ele>
        <time>2020-07-23T09:43:11Z</time>
      </trkpt>
      <trkpt lat="42.9076000" lon="1.4025320">
        <ele>985.0</ele>
        <time>2020-07-23T09:43:14Z</time>
      </trkpt>
      <trkpt lat="42.9075700" lon="1.4024150">
        <ele>984.8</ele>
        <time>2020-07-23T09:43:15Z</time>
      </trkpt>
      <trkpt lat="42.9074780" lon="1.4021920">
        <ele>984.2</ele>
        <time>2020-07-23T09:43:17Z</time>
      </trkpt>
      <trkpt lat="42.9074250" lon="1.4020840">
        <ele>983.6</ele>
        <time>2020-07-23T09:43:18Z</time>
      </trkpt>
      <trkpt lat="42.9073090" lon="1.4018700">
        <ele>982.0</ele>
        <time>2020-07-23T09:43:20Z</time>
      </trkpt>
      <trkpt lat="42.9071360" lon="1.4015500">
        <ele>981.0</ele>
        <time>2020-07-23T09:43:23Z</time>
      </trkpt>
      <trkpt lat="42.9070240" lon="1.4011580">
        <ele>979.8</ele>
        <time>2020-07-23T09:43:26Z</time>
      </trkpt>
      <trkpt lat="42.9069940" lon="1.4010230">
        <ele>979.0</ele>
        <time>2020-07-23T09:43:27Z</time>
      </trkpt>
      <trkpt lat="42.9069600" lon="1.4008900">
        <ele>978.6</ele>
        <time>2020-07-23T09:43:28Z</time>
      </trkpt>
      <trkpt lat="42.9068830" lon="1.4006240">
        <ele>977.4</ele>
        <time>2020-07-23T09:43:30Z</time>
      </trkpt>
      <trkpt lat="42.9068240" lon="1.4003520">
        <ele>976.6</ele>
        <time>2020-07-23T09:43:32Z</time>
      </trkpt>
      <trkpt lat="42.9068080" lon="1.4002110">
        <ele>976.2</ele>
        <time>2020-07-23T09:43:33Z</time>
      </trkpt>
      <trkpt lat="42.9067970" lon="1.3999200">
        <ele>975.0</ele>
        <time>2020-07-23T09:43:35Z</time>
      </trkpt>
      <trkpt lat="42.9067950" lon="1.3997700">
        <ele>974.2</ele>
        <time>2020-07-23T09:43:36Z</time>
      </trkpt>
      <trkpt lat="42.9068010" lon="1.3996240">
        <ele>973.6</ele>
        <time>2020-07-23T09:43:37Z</time>
      </trkpt>
      <trkpt lat="42.9068180" lon="1.3993270">
        <ele>972.2</ele>
        <time>2020-07-23T09:43:39Z</time>
      </trkpt>
      <trkpt lat="42.9068440" lon="1.3990280">
        <ele>970.6</ele>
        <time>2020-07-23T09:43:41Z</time>
      </trkpt>
      <trkpt lat="42.9068890" lon="1.3987300">
        <ele>969.0</ele>
        <time>2020-07-23T09:43:43Z</time>
      </trkpt>
      <trkpt lat="42.9069550" lon="1.3984360">
        <ele>967.8</ele>
        <time>2020-07-23T09:43:45Z</time>
      </trkpt>
      <trkpt lat="42.9071080" lon="1.3980330">
        <ele>966.2</ele>
        <time>2020-07-23T09:43:48Z</time>
      </trkpt>
      <trkpt lat="42.9071700" lon="1.3979100">
        <ele>965.6</ele>
        <time>2020-07-23T09:43:49Z</time>
      </trkpt>
      <trkpt lat="42.9072300" lon="1.3977870">
        <ele>965.2</ele>
        <time>2020-07-23T09:43:50Z</time>
      </trkpt>
      <trkpt lat="42.9073230" lon="1.3975320">
        <ele>964.4</ele>
        <time>2020-07-23T09:43:52Z</time>
      </trkpt>
      <trkpt lat="42.9073510" lon="1.3973950">
        <ele>964.0</ele>
        <time>2020-07-23T09:43:53Z</time>
      </trkpt>
      <trkpt lat="42.9073680" lon="1.3972520">
        <ele>963.4</ele>
        <time>2020-07-23T09:43:54Z</time>
      </trkpt>
      <trkpt lat="42.9073720" lon="1.3971070">
        <ele>962.8</ele>
        <time>2020-07-23T09:43:55Z</time>
      </trkpt>
      <trkpt lat="42.9073680" lon="1.3969640">
        <ele>962.0</ele>
        <time>2020-07-23T09:43:56Z</time>
      </trkpt>
      <trkpt lat="42.9073550" lon="1.3968270">
        <ele>961.2</ele>
        <time>2020-07-23T09:43:57Z</time>
      </trkpt>
      <trkpt lat="42.9073310" lon="1.3966940">
        <ele>960.6</ele>
        <time>2020-07-23T09:43:58Z</time>
      </trkpt>
      <trkpt lat="42.9073030" lon="1.3965660">
        <ele>960.0</ele>
        <time>2020-07-23T09:43:59Z</time>
      </trkpt>
      <trkpt lat="42.9072690" lon="1.3964370">
        <ele>959.4</ele>
        <time>2020-07-23T09:44:00Z</time>
      </trkpt>
      <trkpt lat="42.9072440" lon="1.3963090">
        <ele>959.0</ele>
        <time>2020-07-23T09:44:01Z</time>
      </trkpt>
      <trkpt lat="42.9072120" lon="1.3959240">
        <ele>957.6</ele>
        <time>2020-07-23T09:44:04Z</time>
      </trkpt>
      <trkpt lat="42.9072600" lon="1.3956930">
        <ele>956.4</ele>
        <time>2020-07-23T09:44:06Z</time>
      </trkpt>
      <trkpt lat="42.9073070" lon="1.3955940">
        <ele>956.0</ele>
        <time>2020-07-23T09:44:07Z</time>
      </trkpt>
      <trkpt lat="42.9073670" lon="1.3955050">
        <ele>955.6</ele>
        <time>2020-07-23T09:44:08Z</time>
      </trkpt>
      <trkpt lat="42.9074350" lon="1.3954300">
        <ele>955.4</ele>
        <time>2020-07-23T09:44:09Z</time>
      </trkpt>
      <trkpt lat="42.9075040" lon="1.3953560">
        <ele>955.0</ele>
        <time>2020-07-23T09:44:10Z</time>
      </trkpt>
      <trkpt lat="42.9075620" lon="1.3952770">
        <ele>954.6</ele>
        <time>2020-07-23T09:44:11Z</time>
      </trkpt>
      <trkpt lat="42.9075980" lon="1.3951800">
        <ele>954.0</ele>
        <time>2020-07-23T09:44:12Z</time>
      </trkpt>
      <trkpt lat="42.9075930" lon="1.3950740">
        <ele>953.4</ele>
        <time>2020-07-23T09:44:13Z</time>
      </trkpt>
      <trkpt lat="42.9075670" lon="1.3949670">
        <ele>953.0</ele>
        <time>2020-07-23T09:44:14Z</time>
      </trkpt>
      <trkpt lat="42.9074820" lon="1.3947510">
        <ele>952.0</ele>
        <time>2020-07-23T09:44:16Z</time>
      </trkpt>
      <trkpt lat="42.9074290" lon="1.3946370">
        <ele>951.4</ele>
        <time>2020-07-23T09:44:17Z</time>
      </trkpt>
      <trkpt lat="42.9073320" lon="1.3944200">
        <ele>950.0</ele>
        <time>2020-07-23T09:44:19Z</time>
      </trkpt>
      <trkpt lat="42.9072470" lon="1.3942140">
        <ele>949.2</ele>
        <time>2020-07-23T09:44:21Z</time>
      </trkpt>
      <trkpt lat="42.9071970" lon="1.3941090">
        <ele>948.6</ele>
        <time>2020-07-23T09:44:22Z</time>
      </trkpt>
      <trkpt lat="42.9071520" lon="1.3939980">
        <ele>948.2</ele>
        <time>2020-07-23T09:44:23Z</time>
      </trkpt>
      <trkpt lat="42.9071040" lon="1.3937730">
        <ele>947.0</ele>
        <time>2020-07-23T09:44:25Z</time>
      </trkpt>
      <trkpt lat="42.9071150" lon="1.3935400">
        <ele>946.0</ele>
        <time>2020-07-23T09:44:27Z</time>
      </trkpt>
      <trkpt lat="42.9071380" lon="1.3934260">
        <ele>945.6</ele>
        <time>2020-07-23T09:44:28Z</time>
      </trkpt>
      <trkpt lat="42.9071730" lon="1.3933150">
        <ele>945.0</ele>
        <time>2020-07-23T09:44:29Z</time>
      </trkpt>
      <trkpt lat="42.9072100" lon="1.3932100">
        <ele>944.8</ele>
        <time>2020-07-23T09:44:30Z</time>
      </trkpt>
      <trkpt lat="42.9072630" lon="1.3930050">
        <ele>944.2</ele>
        <time>2020-07-23T09:44:32Z</time>
      </trkpt>
      <trkpt lat="42.9072520" lon="1.3927900">
        <ele>943.6</ele>
        <time>2020-07-23T09:44:34Z</time>
      </trkpt>
      <trkpt lat="42.9072200" lon="1.3926870">
        <ele>943.4</ele>
        <time>2020-07-23T09:44:35Z</time>
      </trkpt>
      <trkpt lat="42.9071730" lon="1.3925910">
        <ele>943.0</ele>
        <time>2020-07-23T09:44:36Z</time>
      </trkpt>
      <trkpt lat="42.9071170" lon="1.3925020">
        <ele>942.6</ele>
        <time>2020-07-23T09:44:37Z</time>
      </trkpt>
      <trkpt lat="42.9070610" lon="1.3924150">
        <ele>942.0</ele>
        <time>2020-07-23T09:44:38Z</time>
      </trkpt>
      <trkpt lat="42.9069490" lon="1.3922310">
        <ele>941.0</ele>
        <time>2020-07-23T09:44:40Z</time>
      </trkpt>
      <trkpt lat="42.9068370" lon="1.3920260">
        <ele>939.8</ele>
        <time>2020-07-23T09:44:42Z</time>
      </trkpt>
      <trkpt lat="42.9067860" lon="1.3919240">
        <ele>939.4</ele>
        <time>2020-07-23T09:44:43Z</time>
      </trkpt>
      <trkpt lat="42.9067090" lon="1.3917410">
        <ele>938.4</ele>
        <time>2020-07-23T09:44:45Z</time>
      </trkpt>
      <trkpt lat="42.9066620" lon="1.3915420">
        <ele>937.8</ele>
        <time>2020-07-23T09:44:47Z</time>
      </trkpt>
      <trkpt lat="42.9066220" lon="1.3913530">
        <ele>937.0</ele>
        <time>2020-07-23T09:44:49Z</time>
      </trkpt>
      <trkpt lat="42.9065610" lon="1.3911240">
        <ele>936.2</ele>
        <time>2020-07-23T09:44:52Z</time>
      </trkpt>
      <trkpt lat="42.9065440" lon="1.3910620">
        <ele>936.0</ele>
        <time>2020-07-23T09:44:53Z</time>
      </trkpt>
      <trkpt lat="42.9065300" lon="1.3910100">
        <ele>935.8</ele>
        <time>2020-07-23T09:44:54Z</time>
      </trkpt>
      <trkpt lat="42.9064980" lon="1.3909310">
        <ele>935.6</ele>
        <time>2020-07-23T09:44:56Z</time>
      </trkpt>
      <trkpt lat="42.9064650" lon="1.3907520">
        <ele>935.0</ele>
        <time>2020-07-23T09:45:00Z</time>
      </trkpt>
      <trkpt lat="42.9064640" lon="1.3906850">
        <ele>934.8</ele>
        <time>2020-07-23T09:45:01Z</time>
      </trkpt>
      <trkpt lat="42.9064710" lon="1.3905340">
        <ele>934.4</ele>
        <time>2020-07-23T09:45:03Z</time>
      </trkpt>
      <trkpt lat="42.9064980" lon="1.3903660">
        <ele>933.6</ele>
        <time>2020-07-23T09:45:05Z</time>
      </trkpt>
      <trkpt lat="42.9065220" lon="1.3902740">
        <ele>933.2</ele>
        <time>2020-07-23T09:45:06Z</time>
      </trkpt>
      <trkpt lat="42.9065900" lon="1.3900800">
        <ele>932.8</ele>
        <time>2020-07-23T09:45:08Z</time>
      </trkpt>
      <trkpt lat="42.9066290" lon="1.3899800">
        <ele>932.4</ele>
        <time>2020-07-23T09:45:09Z</time>
      </trkpt>
      <trkpt lat="42.9066720" lon="1.3898800">
        <ele>931.8</ele>
        <time>2020-07-23T09:45:10Z</time>
      </trkpt>
      <trkpt lat="42.9067180" lon="1.3897810">
        <ele>931.6</ele>
        <time>2020-07-23T09:45:11Z</time>
      </trkpt>
      <trkpt lat="42.9067660" lon="1.3896800">
        <ele>931.2</ele>
        <time>2020-07-23T09:45:12Z</time>
      </trkpt>
      <trkpt lat="42.9068710" lon="1.3894740">
        <ele>930.2</ele>
        <time>2020-07-23T09:45:14Z</time>
      </trkpt>
      <trkpt lat="42.9069920" lon="1.3892710">
        <ele>929.0</ele>
        <time>2020-07-23T09:45:16Z</time>
      </trkpt>
      <trkpt lat="42.9070530" lon="1.3891650">
        <ele>928.4</ele>
        <time>2020-07-23T09:45:17Z</time>
      </trkpt>
      <trkpt lat="42.9071160" lon="1.3890590">
        <ele>927.6</ele>
        <time>2020-07-23T09:45:18Z</time>
      </trkpt>
      <trkpt lat="42.9071760" lon="1.3889460">
        <ele>926.6</ele>
        <time>2020-07-23T09:45:19Z</time>
      </trkpt>
      <trkpt lat="42.9072940" lon="1.3887020">
        <ele>924.8</ele>
        <time>2020-07-23T09:45:21Z</time>
      </trkpt>
      <trkpt lat="42.9074060" lon="1.3884410">
        <ele>923.2</ele>
        <time>2020-07-23T09:45:23Z</time>
      </trkpt>
      <trkpt lat="42.9075250" lon="1.3881790">
        <ele>921.6</ele>
        <time>2020-07-23T09:45:25Z</time>
      </trkpt>
      <trkpt lat="42.9076600" lon="1.3879340">
        <ele>920.2</ele>
        <time>2020-07-23T09:45:27Z</time>
      </trkpt>
      <trkpt lat="42.9078070" lon="1.3876980">
        <ele>919.2</ele>
        <time>2020-07-23T09:45:29Z</time>
      </trkpt>
      <trkpt lat="42.9078800" lon="1.3875920">
        <ele>918.6</ele>
        <time>2020-07-23T09:45:30Z</time>
      </trkpt>
      <trkpt lat="42.9079570" lon="1.3875020">
        <ele>917.8</ele>
        <time>2020-07-23T09:45:31Z</time>
      </trkpt>
      <trkpt lat="42.9080450" lon="1.3874360">
        <ele>917.0</ele>
        <time>2020-07-23T09:45:32Z</time>
      </trkpt>
      <trkpt lat="42.9081330" lon="1.3873840">
        <ele>916.6</ele>
        <time>2020-07-23T09:45:33Z</time>
      </trkpt>
      <trkpt lat="42.9082770" lon="1.3873150">
        <ele>915.8</ele>
        <time>2020-07-23T09:45:35Z</time>
      </trkpt>
      <trkpt lat="42.9083650" lon="1.3873250">
        <ele>915.2</ele>
        <time>2020-07-23T09:45:36Z</time>
      </trkpt>
      <trkpt lat="42.9084480" lon="1.3873450">
        <ele>914.4</ele>
        <time>2020-07-23T09:45:37Z</time>
      </trkpt>
      <trkpt lat="42.9085990" lon="1.3874050">
        <ele>913.4</ele>
        <time>2020-07-23T09:45:39Z</time>
      </trkpt>
      <trkpt lat="42.9086590" lon="1.3874250">
        <ele>913.0</ele>
        <time>2020-07-23T09:45:40Z</time>
      </trkpt>
      <trkpt lat="42.9087150" lon="1.3874410">
        <ele>912.6</ele>
        <time>2020-07-23T09:45:41Z</time>
      </trkpt>
      <trkpt lat="42.9087760" lon="1.3874390">
        <ele>912.2</ele>
        <time>2020-07-23T09:45:42Z</time>
      </trkpt>
      <trkpt lat="42.9088290" lon="1.3874170">
        <ele>911.8</ele>
        <time>2020-07-23T09:45:43Z</time>
      </trkpt>
      <trkpt lat="42.9088980" lon="1.3873370">
        <ele>911.2</ele>
        <time>2020-07-23T09:45:45Z</time>
      </trkpt>
      <trkpt lat="42.9088690" lon="1.3872540">
        <ele>911.0</ele>
        <time>2020-07-23T09:45:46Z</time>
      </trkpt>
      <trkpt lat="42.9087960" lon="1.3870830">
        <ele>910.4</ele>
        <time>2020-07-23T09:45:48Z</time>
      </trkpt>
      <trkpt lat="42.9087280" lon="1.3869660">
        <ele>909.8</ele>
        <time>2020-07-23T09:45:49Z</time>
      </trkpt>
      <trkpt lat="42.9086760" lon="1.3868500">
        <ele>909.0</ele>
        <time>2020-07-23T09:45:50Z</time>
      </trkpt>
      <trkpt lat="42.9086410" lon="1.3867280">
        <ele>908.2</ele>
        <time>2020-07-23T09:45:51Z</time>
      </trkpt>
      <trkpt lat="42.9086300" lon="1.3866100">
        <ele>907.4</ele>
        <time>2020-07-23T09:45:52Z</time>
      </trkpt>
      <trkpt lat="42.9086460" lon="1.3864990">
        <ele>907.0</ele>
        <time>2020-07-23T09:45:53Z</time>
      </trkpt>
      <trkpt lat="42.9086800" lon="1.3863910">
        <ele>906.6</ele>
        <time>2020-07-23T09:45:54Z</time>
      </trkpt>
      <trkpt lat="42.9087300" lon="1.3862900">
        <ele>906.2</ele>
        <time>2020-07-23T09:45:55Z</time>
      </trkpt>
      <trkpt lat="42.9087940" lon="1.3861950">
        <ele>905.8</ele>
        <time>2020-07-23T09:45:56Z</time>
      </trkpt>
      <trkpt lat="42.9089310" lon="1.3860320">
        <ele>904.0</ele>
        <time>2020-07-23T09:45:58Z</time>
      </trkpt>
      <trkpt lat="42.9090700" lon="1.3859300">
        <ele>902.4</ele>
        <time>2020-07-23T09:46:00Z</time>
      </trkpt>
      <trkpt lat="42.9091270" lon="1.3858770">
        <ele>901.8</ele>
        <time>2020-07-23T09:46:01Z</time>
      </trkpt>
      <trkpt lat="42.9091660" lon="1.3858000">
        <ele>901.4</ele>
        <time>2020-07-23T09:46:02Z</time>
      </trkpt>
      <trkpt lat="42.9091790" lon="1.3857100">
        <ele>901.0</ele>
        <time>2020-07-23T09:46:03Z</time>
      </trkpt>
      <trkpt lat="42.9091630" lon="1.3856210">
        <ele>900.6</ele>
        <time>2020-07-23T09:46:04Z</time>
      </trkpt>
      <trkpt lat="42.9091170" lon="1.3855360">
        <ele>900.2</ele>
        <time>2020-07-23T09:46:05Z</time>
      </trkpt>
      <trkpt lat="42.9090330" lon="1.3854510">
        <ele>899.6</ele>
        <time>2020-07-23T09:46:06Z</time>
      </trkpt>
      <trkpt lat="42.9089480" lon="1.3853870">
        <ele>898.8</ele>
        <time>2020-07-23T09:46:07Z</time>
      </trkpt>
      <trkpt lat="42.9087650" lon="1.3852970">
        <ele>897.6</ele>
        <time>2020-07-23T09:46:09Z</time>
      </trkpt>
      <trkpt lat="42.9086800" lon="1.3852520">
        <ele>897.2</ele>
        <time>2020-07-23T09:46:10Z</time>
      </trkpt>
      <trkpt lat="42.9085630" lon="1.3851090">
        <ele>896.4</ele>
        <time>2020-07-23T09:46:12Z</time>
      </trkpt>
      <trkpt lat="42.9085390" lon="1.3848980">
        <ele>895.6</ele>
        <time>2020-07-23T09:46:14Z</time>
      </trkpt>
      <trkpt lat="42.9085480" lon="1.3847840">
        <ele>895.0</ele>
        <time>2020-07-23T09:46:15Z</time>
      </trkpt>
      <trkpt lat="42.9085700" lon="1.3846760">
        <ele>894.4</ele>
        <time>2020-07-23T09:46:16Z</time>
      </trkpt>
      <trkpt lat="42.9086050" lon="1.3845720">
        <ele>893.6</ele>
        <time>2020-07-23T09:46:17Z</time>
      </trkpt>
      <trkpt lat="42.9086600" lon="1.3844800">
        <ele>893.0</ele>
        <time>2020-07-23T09:46:18Z</time>
      </trkpt>
      <trkpt lat="42.9087250" lon="1.3843990">
        <ele>892.4</ele>
        <time>2020-07-23T09:46:19Z</time>
      </trkpt>
      <trkpt lat="42.9088780" lon="1.3842510">
        <ele>891.6</ele>
        <time>2020-07-23T09:46:21Z</time>
      </trkpt>
      <trkpt lat="42.9089590" lon="1.3841730">
        <ele>890.8</ele>
        <time>2020-07-23T09:46:22Z</time>
      </trkpt>
      <trkpt lat="42.9091120" lon="1.3839870">
        <ele>889.4</ele>
        <time>2020-07-23T09:46:24Z</time>
      </trkpt>
      <trkpt lat="42.9092580" lon="1.3837750">
        <ele>888.4</ele>
        <time>2020-07-23T09:46:26Z</time>
      </trkpt>
      <trkpt lat="42.9095150" lon="1.3834780">
        <ele>886.4</ele>
        <time>2020-07-23T09:46:29Z</time>
      </trkpt>
      <trkpt lat="42.9095960" lon="1.3833900">
        <ele>885.4</ele>
        <time>2020-07-23T09:46:30Z</time>
      </trkpt>
      <trkpt lat="42.9097310" lon="1.3832320">
        <ele>884.0</ele>
        <time>2020-07-23T09:46:32Z</time>
      </trkpt>
      <trkpt lat="42.9097400" lon="1.3831080">
        <ele>883.6</ele>
        <time>2020-07-23T09:46:33Z</time>
      </trkpt>
      <trkpt lat="42.9097230" lon="1.3828850">
        <ele>882.4</ele>
        <time>2020-07-23T09:46:35Z</time>
      </trkpt>
      <trkpt lat="42.9096820" lon="1.3827720">
        <ele>881.8</ele>
        <time>2020-07-23T09:46:36Z</time>
      </trkpt>
      <trkpt lat="42.9096350" lon="1.3826590">
        <ele>881.2</ele>
        <time>2020-07-23T09:46:37Z</time>
      </trkpt>
      <trkpt lat="42.9095620" lon="1.3824220">
        <ele>879.6</ele>
        <time>2020-07-23T09:46:39Z</time>
      </trkpt>
      <trkpt lat="42.9095530" lon="1.3821520">
        <ele>878.8</ele>
        <time>2020-07-23T09:46:41Z</time>
      </trkpt>
      <trkpt lat="42.9095660" lon="1.3820120">
        <ele>878.4</ele>
        <time>2020-07-23T09:46:42Z</time>
      </trkpt>
      <trkpt lat="42.9096050" lon="1.3817270">
        <ele>877.2</ele>
        <time>2020-07-23T09:46:44Z</time>
      </trkpt>
      <trkpt lat="42.9096090" lon="1.3815750">
        <ele>876.2</ele>
        <time>2020-07-23T09:46:45Z</time>
      </trkpt>
      <trkpt lat="42.9096000" lon="1.3814280">
        <ele>875.4</ele>
        <time>2020-07-23T09:46:46Z</time>
      </trkpt>
      <trkpt lat="42.9095780" lon="1.3812970">
        <ele>874.6</ele>
        <time>2020-07-23T09:46:47Z</time>
      </trkpt>
      <trkpt lat="42.9095310" lon="1.3811860">
        <ele>874.0</ele>
        <time>2020-07-23T09:46:48Z</time>
      </trkpt>
      <trkpt lat="42.9094380" lon="1.3810760">
        <ele>873.4</ele>
        <time>2020-07-23T09:46:49Z</time>
      </trkpt>
      <trkpt lat="42.9093410" lon="1.3810170">
        <ele>872.8</ele>
        <time>2020-07-23T09:46:50Z</time>
      </trkpt>
      <trkpt lat="42.9092380" lon="1.3809820">
        <ele>872.4</ele>
        <time>2020-07-23T09:46:51Z</time>
      </trkpt>
      <trkpt lat="42.9091390" lon="1.3809750">
        <ele>872.2</ele>
        <time>2020-07-23T09:46:52Z</time>
      </trkpt>
      <trkpt lat="42.9090370" lon="1.3809680">
        <ele>871.8</ele>
        <time>2020-07-23T09:46:53Z</time>
      </trkpt>
      <trkpt lat="42.9089320" lon="1.3809600">
        <ele>871.2</ele>
        <time>2020-07-23T09:46:54Z</time>
      </trkpt>
      <trkpt lat="42.9087380" lon="1.3809380">
        <ele>869.4</ele>
        <time>2020-07-23T09:46:56Z</time>
      </trkpt>
      <trkpt lat="42.9086410" lon="1.3809120">
        <ele>868.8</ele>
        <time>2020-07-23T09:46:57Z</time>
      </trkpt>
      <trkpt lat="42.9085460" lon="1.3808780">
        <ele>867.8</ele>
        <time>2020-07-23T09:46:58Z</time>
      </trkpt>
      <trkpt lat="42.9083480" lon="1.3808080">
        <ele>866.8</ele>
        <time>2020-07-23T09:47:00Z</time>
      </trkpt>
      <trkpt lat="42.9080370" lon="1.3807390">
        <ele>865.6</ele>
        <time>2020-07-23T09:47:03Z</time>
      </trkpt>
      <trkpt lat="42.9078210" lon="1.3807190">
        <ele>864.6</ele>
        <time>2020-07-23T09:47:05Z</time>
      </trkpt>
      <trkpt lat="42.9076180" lon="1.3806520">
        <ele>862.8</ele>
        <time>2020-07-23T09:47:07Z</time>
      </trkpt>
      <trkpt lat="42.9075250" lon="1.3806080">
        <ele>862.0</ele>
        <time>2020-07-23T09:47:08Z</time>
      </trkpt>
      <trkpt lat="42.9074390" lon="1.3805590">
        <ele>861.2</ele>
        <time>2020-07-23T09:47:09Z</time>
      </trkpt>
      <trkpt lat="42.9073640" lon="1.3805070">
        <ele>860.6</ele>
        <time>2020-07-23T09:47:10Z</time>
      </trkpt>
      <trkpt lat="42.9072970" lon="1.3804420">
        <ele>860.0</ele>
        <time>2020-07-23T09:47:11Z</time>
      </trkpt>
      <trkpt lat="42.9072420" lon="1.3803500">
        <ele>859.6</ele>
        <time>2020-07-23T09:47:12Z</time>
      </trkpt>
      <trkpt lat="42.9071940" lon="1.3801290">
        <ele>858.4</ele>
        <time>2020-07-23T09:47:14Z</time>
      </trkpt>
      <trkpt lat="42.9071910" lon="1.3798760">
        <ele>857.0</ele>
        <time>2020-07-23T09:47:16Z</time>
      </trkpt>
      <trkpt lat="42.9072140" lon="1.3796160">
        <ele>855.8</ele>
        <time>2020-07-23T09:47:18Z</time>
      </trkpt>
      <trkpt lat="42.9072540" lon="1.3793460">
        <ele>854.6</ele>
        <time>2020-07-23T09:47:20Z</time>
      </trkpt>
      <trkpt lat="42.9073110" lon="1.3790750">
        <ele>853.4</ele>
        <time>2020-07-23T09:47:22Z</time>
      </trkpt>
      <trkpt lat="42.9073470" lon="1.3789390">
        <ele>852.8</ele>
        <time>2020-07-23T09:47:23Z</time>
      </trkpt>
      <trkpt lat="42.9073930" lon="1.3788080">
        <ele>852.2</ele>
        <time>2020-07-23T09:47:24Z</time>
      </trkpt>
      <trkpt lat="42.9075080" lon="1.3785530">
        <ele>850.6</ele>
        <time>2020-07-23T09:47:26Z</time>
      </trkpt>
      <trkpt lat="42.9075780" lon="1.3784340">
        <ele>850.2</ele>
        <time>2020-07-23T09:47:27Z</time>
      </trkpt>
      <trkpt lat="42.9077290" lon="1.3782150">
        <ele>849.4</ele>
        <time>2020-07-23T09:47:29Z</time>
      </trkpt>
      <trkpt lat="42.9077980" lon="1.3781190">
        <ele>848.6</ele>
        <time>2020-07-23T09:47:30Z</time>
      </trkpt>
      <trkpt lat="42.9078540" lon="1.3780300">
        <ele>847.8</ele>
        <time>2020-07-23T09:47:31Z</time>
      </trkpt>
      <trkpt lat="42.9078930" lon="1.3779390">
        <ele>847.2</ele>
        <time>2020-07-23T09:47:32Z</time>
      </trkpt>
      <trkpt lat="42.9079070" lon="1.3777750">
        <ele>846.6</ele>
        <time>2020-07-23T09:47:34Z</time>
      </trkpt>
      <trkpt lat="42.9078430" lon="1.3776660">
        <ele>845.8</ele>
        <time>2020-07-23T09:47:36Z</time>
      </trkpt>
      <trkpt lat="42.9077900" lon="1.3776240">
        <ele>845.4</ele>
        <time>2020-07-23T09:47:37Z</time>
      </trkpt>
      <trkpt lat="42.9076350" lon="1.3775020">
        <ele>844.2</ele>
        <time>2020-07-23T09:47:40Z</time>
      </trkpt>
      <trkpt lat="42.9075510" lon="1.3774420">
        <ele>843.6</ele>
        <time>2020-07-23T09:47:42Z</time>
      </trkpt>
      <trkpt lat="42.9074780" lon="1.3774020">
        <ele>843.0</ele>
        <time>2020-07-23T09:47:44Z</time>
      </trkpt>
      <trkpt lat="42.9073540" lon="1.3773310">
        <ele>842.2</ele>
        <time>2020-07-23T09:47:48Z</time>
      </trkpt>
      <trkpt lat="42.9072700" lon="1.3772920">
        <ele>841.8</ele>
        <time>2020-07-23T09:47:51Z</time>
      </trkpt>
      <trkpt lat="42.9071870" lon="1.3772330">
        <ele>841.4</ele>
        <time>2020-07-23T09:47:54Z</time>
      </trkpt>
      <trkpt lat="42.9071020" lon="1.3771140">
        <ele>840.8</ele>
        <time>2020-07-23T09:47:57Z</time>
      </trkpt>
      <trkpt lat="42.9070880" lon="1.3770670">
        <ele>840.4</ele>
        <time>2020-07-23T09:47:58Z</time>
      </trkpt>
      <trkpt lat="42.9070730" lon="1.3769800">
        <ele>839.6</ele>
        <time>2020-07-23T09:48:00Z</time>
      </trkpt>
      <trkpt lat="42.9070740" lon="1.3768150">
        <ele>838.6</ele>
        <time>2020-07-23T09:48:04Z</time>
      </trkpt>
      <trkpt lat="42.9070840" lon="1.3767660">
        <ele>838.6</ele>
        <time>2020-07-23T09:48:05Z</time>
      </trkpt>
      <trkpt lat="42.9071000" lon="1.3767150">
        <ele>838.4</ele>
        <time>2020-07-23T09:48:06Z</time>
      </trkpt>
      <trkpt lat="42.9071400" lon="1.3765970">
        <ele>837.8</ele>
        <time>2020-07-23T09:48:08Z</time>
      </trkpt>
      <trkpt lat="42.9071640" lon="1.3765300">
        <ele>837.2</ele>
        <time>2020-07-23T09:48:09Z</time>
      </trkpt>
      <trkpt lat="42.9072450" lon="1.3762050">
        <ele>835.8</ele>
        <time>2020-07-23T09:48:13Z</time>
      </trkpt>
      <trkpt lat="42.9072520" lon="1.3761190">
        <ele>835.4</ele>
        <time>2020-07-23T09:48:14Z</time>
      </trkpt>
      <trkpt lat="42.9072520" lon="1.3759450">
        <ele>834.6</ele>
        <time>2020-07-23T09:48:16Z</time>
      </trkpt>
      <trkpt lat="42.9072660" lon="1.3756680">
        <ele>834.0</ele>
        <time>2020-07-23T09:48:19Z</time>
      </trkpt>
      <trkpt lat="42.9072880" lon="1.3755680">
        <ele>833.6</ele>
        <time>2020-07-23T09:48:20Z</time>
      </trkpt>
      <trkpt lat="42.9073200" lon="1.3754670">
        <ele>833.2</ele>
        <time>2020-07-23T09:48:21Z</time>
      </trkpt>
      <trkpt lat="42.9074240" lon="1.3752900">
        <ele>832.4</ele>
        <time>2020-07-23T09:48:23Z</time>
      </trkpt>
      <trkpt lat="42.9075260" lon="1.3751290">
        <ele>831.2</ele>
        <time>2020-07-23T09:48:25Z</time>
      </trkpt>
      <trkpt lat="42.9075460" lon="1.3750450">
        <ele>830.8</ele>
        <time>2020-07-23T09:48:26Z</time>
      </trkpt>
      <trkpt lat="42.9075420" lon="1.3749660">
        <ele>830.2</ele>
        <time>2020-07-23T09:48:27Z</time>
      </trkpt>
      <trkpt lat="42.9074990" lon="1.3749000">
        <ele>829.6</ele>
        <time>2020-07-23T09:48:28Z</time>
      </trkpt>
      <trkpt lat="42.9074330" lon="1.3748610">
        <ele>829.0</ele>
        <time>2020-07-23T09:48:29Z</time>
      </trkpt>
      <trkpt lat="42.9073630" lon="1.3748300">
        <ele>828.4</ele>
        <time>2020-07-23T09:48:30Z</time>
      </trkpt>
      <trkpt lat="42.9071970" lon="1.3747670">
        <ele>827.4</ele>
        <time>2020-07-23T09:48:32Z</time>
      </trkpt>
      <trkpt lat="42.9071080" lon="1.3747330">
        <ele>827.0</ele>
        <time>2020-07-23T09:48:33Z</time>
      </trkpt>
      <trkpt lat="42.9069180" lon="1.3746680">
        <ele>825.6</ele>
        <time>2020-07-23T09:48:35Z</time>
      </trkpt>
      <trkpt lat="42.9068160" lon="1.3746350">
        <ele>824.4</ele>
        <time>2020-07-23T09:48:36Z</time>
      </trkpt>
      <trkpt lat="42.9066170" lon="1.3745680">
        <ele>823.0</ele>
        <time>2020-07-23T09:48:38Z</time>
      </trkpt>
      <trkpt lat="42.9065190" lon="1.3745320">
        <ele>822.4</ele>
        <time>2020-07-23T09:48:39Z</time>
      </trkpt>
      <trkpt lat="42.9064260" lon="1.3744930">
        <ele>821.8</ele>
        <time>2020-07-23T09:48:40Z</time>
      </trkpt>
      <trkpt lat="42.9063430" lon="1.3744470">
        <ele>821.2</ele>
        <time>2020-07-23T09:48:41Z</time>
      </trkpt>
      <trkpt lat="42.9062730" lon="1.3743820">
        <ele>820.6</ele>
        <time>2020-07-23T09:48:42Z</time>
      </trkpt>
      <trkpt lat="42.9062190" lon="1.3742910">
        <ele>820.2</ele>
        <time>2020-07-23T09:48:43Z</time>
      </trkpt>
      <trkpt lat="42.9061520" lon="1.3740710">
        <ele>819.6</ele>
        <time>2020-07-23T09:48:45Z</time>
      </trkpt>
      <trkpt lat="42.9061080" lon="1.3737060">
        <ele>818.4</ele>
        <time>2020-07-23T09:48:48Z</time>
      </trkpt>
      <trkpt lat="42.9061010" lon="1.3735740">
        <ele>817.6</ele>
        <time>2020-07-23T09:48:49Z</time>
      </trkpt>
      <trkpt lat="42.9060980" lon="1.3734410">
        <ele>817.0</ele>
        <time>2020-07-23T09:48:50Z</time>
      </trkpt>
      <trkpt lat="42.9061120" lon="1.3731810">
        <ele>815.4</ele>
        <time>2020-07-23T09:48:52Z</time>
      </trkpt>
      <trkpt lat="42.9061350" lon="1.3730550">
        <ele>814.6</ele>
        <time>2020-07-23T09:48:53Z</time>
      </trkpt>
      <trkpt lat="42.9061680" lon="1.3729360">
        <ele>813.8</ele>
        <time>2020-07-23T09:48:54Z</time>
      </trkpt>
      <trkpt lat="42.9062530" lon="1.3727120">
        <ele>813.2</ele>
        <time>2020-07-23T09:48:56Z</time>
      </trkpt>
      <trkpt lat="42.9063120" lon="1.3726160">
        <ele>812.8</ele>
        <time>2020-07-23T09:48:57Z</time>
      </trkpt>
      <trkpt lat="42.9065200" lon="1.3723570">
        <ele>811.2</ele>
        <time>2020-07-23T09:49:00Z</time>
      </trkpt>
      <trkpt lat="42.9066030" lon="1.3722790">
        <ele>810.6</ele>
        <time>2020-07-23T09:49:01Z</time>
      </trkpt>
      <trkpt lat="42.9066890" lon="1.3722010">
        <ele>810.0</ele>
        <time>2020-07-23T09:49:02Z</time>
      </trkpt>
      <trkpt lat="42.9068620" lon="1.3720630">
        <ele>808.8</ele>
        <time>2020-07-23T09:49:04Z</time>
      </trkpt>
      <trkpt lat="42.9069420" lon="1.3720170">
        <ele>808.2</ele>
        <time>2020-07-23T09:49:05Z</time>
      </trkpt>
      <trkpt lat="42.9070150" lon="1.3719840">
        <ele>807.8</ele>
        <time>2020-07-23T09:49:06Z</time>
      </trkpt>
      <trkpt lat="42.9071220" lon="1.3718930">
        <ele>807.2</ele>
        <time>2020-07-23T09:49:08Z</time>
      </trkpt>
      <trkpt lat="42.9071500" lon="1.3718140">
        <ele>806.8</ele>
        <time>2020-07-23T09:49:09Z</time>
      </trkpt>
      <trkpt lat="42.9071550" lon="1.3717220">
        <ele>806.4</ele>
        <time>2020-07-23T09:49:10Z</time>
      </trkpt>
      <trkpt lat="42.9071410" lon="1.3716220">
        <ele>805.8</ele>
        <time>2020-07-23T09:49:11Z</time>
      </trkpt>
      <trkpt lat="42.9071210" lon="1.3715290">
        <ele>805.4</ele>
        <time>2020-07-23T09:49:12Z</time>
      </trkpt>
      <trkpt lat="42.9071150" lon="1.3713080">
        <ele>804.4</ele>
        <time>2020-07-23T09:49:14Z</time>
      </trkpt>
      <trkpt lat="42.9071390" lon="1.3711960">
        <ele>804.0</ele>
        <time>2020-07-23T09:49:15Z</time>
      </trkpt>
      <trkpt lat="42.9071760" lon="1.3710960">
        <ele>803.2</ele>
        <time>2020-07-23T09:49:16Z</time>
      </trkpt>
      <trkpt lat="42.9072210" lon="1.3710100">
        <ele>802.6</ele>
        <time>2020-07-23T09:49:17Z</time>
      </trkpt>
      <trkpt lat="42.9072690" lon="1.3709360">
        <ele>802.0</ele>
        <time>2020-07-23T09:49:18Z</time>
      </trkpt>
      <trkpt lat="42.9073840" lon="1.3708370">
        <ele>801.4</ele>
        <time>2020-07-23T09:49:20Z</time>
      </trkpt>
      <trkpt lat="42.9074450" lon="1.3708030">
        <ele>801.2</ele>
        <time>2020-07-23T09:49:21Z</time>
      </trkpt>
      <trkpt lat="42.9077130" lon="1.3705980">
        <ele>800.4</ele>
        <time>2020-07-23T09:49:26Z</time>
      </trkpt>
      <trkpt lat="42.9077050" lon="1.3704920">
        <ele>800.2</ele>
        <time>2020-07-23T09:49:27Z</time>
      </trkpt>
      <trkpt lat="42.9076480" lon="1.3703570">
        <ele>799.8</ele>
        <time>2020-07-23T09:49:29Z</time>
      </trkpt>
      <trkpt lat="42.9075210" lon="1.3703070">
        <ele>799.4</ele>
        <time>2020-07-23T09:49:31Z</time>
      </trkpt>
      <trkpt lat="42.9074490" lon="1.3703010">
        <ele>799.4</ele>
        <time>2020-07-23T09:49:32Z</time>
      </trkpt>
      <trkpt lat="42.9071140" lon="1.3702250">
        <ele>798.6</ele>
        <time>2020-07-23T09:49:36Z</time>
      </trkpt>
      <trkpt lat="42.9070270" lon="1.3702100">
        <ele>798.0</ele>
        <time>2020-07-23T09:49:37Z</time>
      </trkpt>
      <trkpt lat="42.9069390" lon="1.3701980">
        <ele>797.8</ele>
        <time>2020-07-23T09:49:38Z</time>
      </trkpt>
      <trkpt lat="42.9067660" lon="1.3701850">
        <ele>797.4</ele>
        <time>2020-07-23T09:49:40Z</time>
      </trkpt>
      <trkpt lat="42.9066790" lon="1.3701740">
        <ele>797.4</ele>
        <time>2020-07-23T09:49:41Z</time>
      </trkpt>
      <trkpt lat="42.9065940" lon="1.3701570">
        <ele>797.2</ele>
        <time>2020-07-23T09:49:42Z</time>
      </trkpt>
      <trkpt lat="42.9065080" lon="1.3701310">
        <ele>797.0</ele>
        <time>2020-07-23T09:49:43Z</time>
      </trkpt>
      <trkpt lat="42.9062470" lon="1.3700320">
        <ele>796.4</ele>
        <time>2020-07-23T09:49:46Z</time>
      </trkpt>
      <trkpt lat="42.9061640" lon="1.3699940">
        <ele>796.2</ele>
        <time>2020-07-23T09:49:47Z</time>
      </trkpt>
      <trkpt lat="42.9060810" lon="1.3699550">
        <ele>796.0</ele>
        <time>2020-07-23T09:49:48Z</time>
      </trkpt>
      <trkpt lat="42.9057500" lon="1.3697790">
        <ele>794.8</ele>
        <time>2020-07-23T09:49:52Z</time>
      </trkpt>
      <trkpt lat="42.9056760" lon="1.3697090">
        <ele>794.6</ele>
        <time>2020-07-23T09:49:53Z</time>
      </trkpt>
      <trkpt lat="42.9054750" lon="1.3694860">
        <ele>794.0</ele>
        <time>2020-07-23T09:49:56Z</time>
      </trkpt>
      <trkpt lat="42.9054180" lon="1.3694000">
        <ele>793.6</ele>
        <time>2020-07-23T09:49:57Z</time>
      </trkpt>
      <trkpt lat="42.9053700" lon="1.3693060">
        <ele>793.6</ele>
        <time>2020-07-23T09:49:58Z</time>
      </trkpt>
      <trkpt lat="42.9053300" lon="1.3692060">
        <ele>793.6</ele>
        <time>2020-07-23T09:49:59Z</time>
      </trkpt>
      <trkpt lat="42.9052390" lon="1.3688830">
        <ele>793.2</ele>
        <time>2020-07-23T09:50:02Z</time>
      </trkpt>
      <trkpt lat="42.9051390" lon="1.3687380">
        <ele>792.6</ele>
        <time>2020-07-23T09:50:04Z</time>
      </trkpt>
      <trkpt lat="42.9050680" lon="1.3686980">
        <ele>792.6</ele>
        <time>2020-07-23T09:50:05Z</time>
      </trkpt>
      <trkpt lat="42.9050050" lon="1.3687030">
        <ele>792.4</ele>
        <time>2020-07-23T09:50:06Z</time>
      </trkpt>
      <trkpt lat="42.9049400" lon="1.3687310">
        <ele>792.4</ele>
        <time>2020-07-23T09:50:07Z</time>
      </trkpt>
      <trkpt lat="42.9047970" lon="1.3687980">
        <ele>792.2</ele>
        <time>2020-07-23T09:50:09Z</time>
      </trkpt>
      <trkpt lat="42.9046390" lon="1.3688490">
        <ele>791.8</ele>
        <time>2020-07-23T09:50:11Z</time>
      </trkpt>
      <trkpt lat="42.9045590" lon="1.3688650">
        <ele>791.6</ele>
        <time>2020-07-23T09:50:12Z</time>
      </trkpt>
      <trkpt lat="42.9044780" lon="1.3688780">
        <ele>791.2</ele>
        <time>2020-07-23T09:50:13Z</time>
      </trkpt>
      <trkpt lat="42.9042490" lon="1.3688940">
        <ele>790.0</ele>
        <time>2020-07-23T09:50:16Z</time>
      </trkpt>
      <trkpt lat="42.9041750" lon="1.3688950">
        <ele>789.8</ele>
        <time>2020-07-23T09:50:17Z</time>
      </trkpt>
      <trkpt lat="42.9040350" lon="1.3688870">
        <ele>789.8</ele>
        <time>2020-07-23T09:50:19Z</time>
      </trkpt>
      <trkpt lat="42.9039080" lon="1.3688350">
        <ele>789.8</ele>
        <time>2020-07-23T09:50:21Z</time>
      </trkpt>
      <trkpt lat="42.9038030" lon="1.3687300">
        <ele>789.6</ele>
        <time>2020-07-23T09:50:23Z</time>
      </trkpt>
      <trkpt lat="42.9037680" lon="1.3686550">
        <ele>789.6</ele>
        <time>2020-07-23T09:50:24Z</time>
      </trkpt>
      <trkpt lat="42.9037450" lon="1.3685660">
        <ele>789.4</ele>
        <time>2020-07-23T09:50:25Z</time>
      </trkpt>
      <trkpt lat="42.9037160" lon="1.3683720">
        <ele>788.8</ele>
        <time>2020-07-23T09:50:27Z</time>
      </trkpt>
      <trkpt lat="42.9037060" lon="1.3682720">
        <ele>788.4</ele>
        <time>2020-07-23T09:50:28Z</time>
      </trkpt>
      <trkpt lat="42.9036780" lon="1.3680640">
        <ele>787.6</ele>
        <time>2020-07-23T09:50:30Z</time>
      </trkpt>
      <trkpt lat="42.9036290" lon="1.3678580">
        <ele>787.2</ele>
        <time>2020-07-23T09:50:32Z</time>
      </trkpt>
      <trkpt lat="42.9035950" lon="1.3677560">
        <ele>786.8</ele>
        <time>2020-07-23T09:50:33Z</time>
      </trkpt>
      <trkpt lat="42.9035570" lon="1.3676570">
        <ele>786.2</ele>
        <time>2020-07-23T09:50:34Z</time>
      </trkpt>
      <trkpt lat="42.9035090" lon="1.3675590">
        <ele>785.6</ele>
        <time>2020-07-23T09:50:35Z</time>
      </trkpt>
      <trkpt lat="42.9034560" lon="1.3674650">
        <ele>785.0</ele>
        <time>2020-07-23T09:50:36Z</time>
      </trkpt>
      <trkpt lat="42.9033990" lon="1.3673720">
        <ele>784.4</ele>
        <time>2020-07-23T09:50:37Z</time>
      </trkpt>
      <trkpt lat="42.9033430" lon="1.3672820">
        <ele>784.0</ele>
        <time>2020-07-23T09:50:38Z</time>
      </trkpt>
      <trkpt lat="42.9032940" lon="1.3671890">
        <ele>783.4</ele>
        <time>2020-07-23T09:50:39Z</time>
      </trkpt>
      <trkpt lat="42.9032450" lon="1.3669770">
        <ele>782.4</ele>
        <time>2020-07-23T09:50:41Z</time>
      </trkpt>
      <trkpt lat="42.9032490" lon="1.3667430">
        <ele>781.8</ele>
        <time>2020-07-23T09:50:43Z</time>
      </trkpt>
      <trkpt lat="42.9032620" lon="1.3666210">
        <ele>781.2</ele>
        <time>2020-07-23T09:50:44Z</time>
      </trkpt>
      <trkpt lat="42.9032780" lon="1.3664960">
        <ele>780.6</ele>
        <time>2020-07-23T09:50:45Z</time>
      </trkpt>
      <trkpt lat="42.9033000" lon="1.3663710">
        <ele>780.0</ele>
        <time>2020-07-23T09:50:46Z</time>
      </trkpt>
      <trkpt lat="42.9034000" lon="1.3659900">
        <ele>778.8</ele>
        <time>2020-07-23T09:50:49Z</time>
      </trkpt>
      <trkpt lat="42.9034510" lon="1.3658720">
        <ele>778.4</ele>
        <time>2020-07-23T09:50:50Z</time>
      </trkpt>
      <trkpt lat="42.9035050" lon="1.3657660">
        <ele>777.6</ele>
        <time>2020-07-23T09:50:51Z</time>
      </trkpt>
      <trkpt lat="42.9035490" lon="1.3656670">
        <ele>776.8</ele>
        <time>2020-07-23T09:50:52Z</time>
      </trkpt>
      <trkpt lat="42.9035740" lon="1.3655660">
        <ele>776.2</ele>
        <time>2020-07-23T09:50:53Z</time>
      </trkpt>
      <trkpt lat="42.9035540" lon="1.3653930">
        <ele>775.6</ele>
        <time>2020-07-23T09:50:55Z</time>
      </trkpt>
      <trkpt lat="42.9035060" lon="1.3653420">
        <ele>775.0</ele>
        <time>2020-07-23T09:50:56Z</time>
      </trkpt>
      <trkpt lat="42.9034410" lon="1.3653060">
        <ele>774.4</ele>
        <time>2020-07-23T09:50:57Z</time>
      </trkpt>
      <trkpt lat="42.9033670" lon="1.3652900">
        <ele>774.0</ele>
        <time>2020-07-23T09:50:58Z</time>
      </trkpt>
      <trkpt lat="42.9031950" lon="1.3652660">
        <ele>773.4</ele>
        <time>2020-07-23T09:51:00Z</time>
      </trkpt>
      <trkpt lat="42.9031060" lon="1.3652440">
        <ele>772.8</ele>
        <time>2020-07-23T09:51:01Z</time>
      </trkpt>
      <trkpt lat="42.9029450" lon="1.3651850">
        <ele>771.2</ele>
        <time>2020-07-23T09:51:03Z</time>
      </trkpt>
      <trkpt lat="42.9028810" lon="1.3651510">
        <ele>770.8</ele>
        <time>2020-07-23T09:51:04Z</time>
      </trkpt>
      <trkpt lat="42.9027830" lon="1.3650460">
        <ele>770.4</ele>
        <time>2020-07-23T09:51:06Z</time>
      </trkpt>
      <trkpt lat="42.9027490" lon="1.3649750">
        <ele>770.2</ele>
        <time>2020-07-23T09:51:07Z</time>
      </trkpt>
      <trkpt lat="42.9027230" lon="1.3648940">
        <ele>770.0</ele>
        <time>2020-07-23T09:51:08Z</time>
      </trkpt>
      <trkpt lat="42.9027070" lon="1.3648020">
        <ele>769.8</ele>
        <time>2020-07-23T09:51:09Z</time>
      </trkpt>
      <trkpt lat="42.9026960" lon="1.3647030">
        <ele>769.4</ele>
        <time>2020-07-23T09:51:10Z</time>
      </trkpt>
      <trkpt lat="42.9026840" lon="1.3646070">
        <ele>769.0</ele>
        <time>2020-07-23T09:51:11Z</time>
      </trkpt>
      <trkpt lat="42.9026490" lon="1.3644180">
        <ele>767.8</ele>
        <time>2020-07-23T09:51:13Z</time>
      </trkpt>
      <trkpt lat="42.9025750" lon="1.3642550">
        <ele>766.8</ele>
        <time>2020-07-23T09:51:15Z</time>
      </trkpt>
      <trkpt lat="42.9024660" lon="1.3641330">
        <ele>766.2</ele>
        <time>2020-07-23T09:51:17Z</time>
      </trkpt>
      <trkpt lat="42.9024020" lon="1.3640860">
        <ele>765.8</ele>
        <time>2020-07-23T09:51:18Z</time>
      </trkpt>
      <trkpt lat="42.9023320" lon="1.3640480">
        <ele>765.4</ele>
        <time>2020-07-23T09:51:19Z</time>
      </trkpt>
      <trkpt lat="42.9021050" lon="1.3639670">
        <ele>764.0</ele>
        <time>2020-07-23T09:51:22Z</time>
      </trkpt>
      <trkpt lat="42.9019660" lon="1.3639130">
        <ele>763.0</ele>
        <time>2020-07-23T09:51:24Z</time>
      </trkpt>
      <trkpt lat="42.9019020" lon="1.3637760">
        <ele>762.0</ele>
        <time>2020-07-23T09:51:26Z</time>
      </trkpt>
      <trkpt lat="42.9019030" lon="1.3636870">
        <ele>761.6</ele>
        <time>2020-07-23T09:51:27Z</time>
      </trkpt>
      <trkpt lat="42.9019150" lon="1.3635900">
        <ele>761.2</ele>
        <time>2020-07-23T09:51:28Z</time>
      </trkpt>
      <trkpt lat="42.9019370" lon="1.3634960">
        <ele>760.4</ele>
        <time>2020-07-23T09:51:29Z</time>
      </trkpt>
      <trkpt lat="42.9019940" lon="1.3633040">
        <ele>759.4</ele>
        <time>2020-07-23T09:51:31Z</time>
      </trkpt>
      <trkpt lat="42.9020630" lon="1.3631120">
        <ele>758.2</ele>
        <time>2020-07-23T09:51:33Z</time>
      </trkpt>
      <trkpt lat="42.9020850" lon="1.3630140">
        <ele>757.6</ele>
        <time>2020-07-23T09:51:34Z</time>
      </trkpt>
      <trkpt lat="42.9020860" lon="1.3629180">
        <ele>757.0</ele>
        <time>2020-07-23T09:51:35Z</time>
      </trkpt>
      <trkpt lat="42.9020700" lon="1.3628400">
        <ele>756.4</ele>
        <time>2020-07-23T09:51:36Z</time>
      </trkpt>
      <trkpt lat="42.9020380" lon="1.3627810">
        <ele>755.8</ele>
        <time>2020-07-23T09:51:37Z</time>
      </trkpt>
      <trkpt lat="42.9019920" lon="1.3627430">
        <ele>755.4</ele>
        <time>2020-07-23T09:51:38Z</time>
      </trkpt>
      <trkpt lat="42.9019440" lon="1.3627190">
        <ele>755.2</ele>
        <time>2020-07-23T09:51:39Z</time>
      </trkpt>
      <trkpt lat="42.9018790" lon="1.3627170">
        <ele>755.0</ele>
        <time>2020-07-23T09:51:40Z</time>
      </trkpt>
      <trkpt lat="42.9017370" lon="1.3627440">
        <ele>754.6</ele>
        <time>2020-07-23T09:51:42Z</time>
      </trkpt>
      <trkpt lat="42.9015720" lon="1.3627910">
        <ele>753.2</ele>
        <time>2020-07-23T09:51:44Z</time>
      </trkpt>
      <trkpt lat="42.9013800" lon="1.3628210">
        <ele>752.0</ele>
        <time>2020-07-23T09:51:46Z</time>
      </trkpt>
      <trkpt lat="42.9012820" lon="1.3628330">
        <ele>751.6</ele>
        <time>2020-07-23T09:51:47Z</time>
      </trkpt>
      <trkpt lat="42.9011840" lon="1.3628410">
        <ele>751.0</ele>
        <time>2020-07-23T09:51:48Z</time>
      </trkpt>
      <trkpt lat="42.9009970" lon="1.3628650">
        <ele>749.2</ele>
        <time>2020-07-23T09:51:50Z</time>
      </trkpt>
      <trkpt lat="42.9008190" lon="1.3629260">
        <ele>748.0</ele>
        <time>2020-07-23T09:51:52Z</time>
      </trkpt>
      <trkpt lat="42.9007330" lon="1.3629480">
        <ele>747.6</ele>
        <time>2020-07-23T09:51:53Z</time>
      </trkpt>
      <trkpt lat="42.9006460" lon="1.3629510">
        <ele>747.4</ele>
        <time>2020-07-23T09:51:54Z</time>
      </trkpt>
      <trkpt lat="42.9004780" lon="1.3628990">
        <ele>746.8</ele>
        <time>2020-07-23T09:51:56Z</time>
      </trkpt>
      <trkpt lat="42.9002480" lon="1.3627150">
        <ele>745.4</ele>
        <time>2020-07-23T09:51:59Z</time>
      </trkpt>
      <trkpt lat="42.9001690" lon="1.3626460">
        <ele>744.8</ele>
        <time>2020-07-23T09:52:00Z</time>
      </trkpt>
      <trkpt lat="42.9000860" lon="1.3625800">
        <ele>744.0</ele>
        <time>2020-07-23T09:52:01Z</time>
      </trkpt>
      <trkpt lat="42.8999090" lon="1.3624570">
        <ele>742.6</ele>
        <time>2020-07-23T09:52:03Z</time>
      </trkpt>
      <trkpt lat="42.8997190" lon="1.3623400">
        <ele>741.2</ele>
        <time>2020-07-23T09:52:05Z</time>
      </trkpt>
      <trkpt lat="42.8995280" lon="1.3622310">
        <ele>740.0</ele>
        <time>2020-07-23T09:52:07Z</time>
      </trkpt>
      <trkpt lat="42.8993520" lon="1.3621370">
        <ele>738.6</ele>
        <time>2020-07-23T09:52:09Z</time>
      </trkpt>
      <trkpt lat="42.8992810" lon="1.3620790">
        <ele>738.2</ele>
        <time>2020-07-23T09:52:10Z</time>
      </trkpt>
      <trkpt lat="42.8991800" lon="1.3619460">
        <ele>737.4</ele>
        <time>2020-07-23T09:52:12Z</time>
      </trkpt>
      <trkpt lat="42.8991800" lon="1.3618520">
        <ele>737.2</ele>
        <time>2020-07-23T09:52:13Z</time>
      </trkpt>
      <trkpt lat="42.8992040" lon="1.3617510">
        <ele>736.8</ele>
        <time>2020-07-23T09:52:14Z</time>
      </trkpt>
      <trkpt lat="42.8992430" lon="1.3616580">
        <ele>736.2</ele>
        <time>2020-07-23T09:52:15Z</time>
      </trkpt>
      <trkpt lat="42.8992950" lon="1.3615670">
        <ele>735.8</ele>
        <time>2020-07-23T09:52:16Z</time>
      </trkpt>
      <trkpt lat="42.8993560" lon="1.3614860">
        <ele>735.2</ele>
        <time>2020-07-23T09:52:17Z</time>
      </trkpt>
      <trkpt lat="42.8995730" lon="1.3612370">
        <ele>733.8</ele>
        <time>2020-07-23T09:52:20Z</time>
      </trkpt>
      <trkpt lat="42.8997490" lon="1.3609490">
        <ele>732.4</ele>
        <time>2020-07-23T09:52:23Z</time>
      </trkpt>
      <trkpt lat="42.8997750" lon="1.3608400">
        <ele>732.0</ele>
        <time>2020-07-23T09:52:24Z</time>
      </trkpt>
      <trkpt lat="42.8997890" lon="1.3607450">
        <ele>731.6</ele>
        <time>2020-07-23T09:52:25Z</time>
      </trkpt>
      <trkpt lat="42.8997760" lon="1.3606600">
        <ele>731.0</ele>
        <time>2020-07-23T09:52:26Z</time>
      </trkpt>
      <trkpt lat="42.8997380" lon="1.3605970">
        <ele>730.6</ele>
        <time>2020-07-23T09:52:27Z</time>
      </trkpt>
      <trkpt lat="42.8996180" lon="1.3605530">
        <ele>729.8</ele>
        <time>2020-07-23T09:52:29Z</time>
      </trkpt>
      <trkpt lat="42.8995110" lon="1.3606460">
        <ele>728.8</ele>
        <time>2020-07-23T09:52:31Z</time>
      </trkpt>
      <trkpt lat="42.8994590" lon="1.3607120">
        <ele>728.4</ele>
        <time>2020-07-23T09:52:32Z</time>
      </trkpt>
      <trkpt lat="42.8993270" lon="1.3608370">
        <ele>728.2</ele>
        <time>2020-07-23T09:52:34Z</time>
      </trkpt>
      <trkpt lat="42.8991670" lon="1.3609470">
        <ele>727.4</ele>
        <time>2020-07-23T09:52:36Z</time>
      </trkpt>
      <trkpt lat="42.8990000" lon="1.3610620">
        <ele>726.0</ele>
        <time>2020-07-23T09:52:38Z</time>
      </trkpt>
      <trkpt lat="42.8988330" lon="1.3611800">
        <ele>724.6</ele>
        <time>2020-07-23T09:52:40Z</time>
      </trkpt>
      <trkpt lat="42.8986560" lon="1.3612850">
        <ele>723.2</ele>
        <time>2020-07-23T09:52:42Z</time>
      </trkpt>
      <trkpt lat="42.8985580" lon="1.3613160">
        <ele>722.6</ele>
        <time>2020-07-23T09:52:43Z</time>
      </trkpt>
      <trkpt lat="42.8984510" lon="1.3613230">
        <ele>722.2</ele>
        <time>2020-07-23T09:52:44Z</time>
      </trkpt>
      <trkpt lat="42.8983370" lon="1.3613200">
        <ele>721.6</ele>
        <time>2020-07-23T09:52:45Z</time>
      </trkpt>
      <trkpt lat="42.8982380" lon="1.3613200">
        <ele>720.8</ele>
        <time>2020-07-23T09:52:46Z</time>
      </trkpt>
      <trkpt lat="42.8981470" lon="1.3613060">
        <ele>720.2</ele>
        <time>2020-07-23T09:52:47Z</time>
      </trkpt>
      <trkpt lat="42.8980620" lon="1.3612700">
        <ele>720.0</ele>
        <time>2020-07-23T09:52:48Z</time>
      </trkpt>
      <trkpt lat="42.8979890" lon="1.3612150">
        <ele>719.6</ele>
        <time>2020-07-23T09:52:49Z</time>
      </trkpt>
      <trkpt lat="42.8979220" lon="1.3611430">
        <ele>719.6</ele>
        <time>2020-07-23T09:52:50Z</time>
      </trkpt>
      <trkpt lat="42.8978600" lon="1.3610580">
        <ele>719.2</ele>
        <time>2020-07-23T09:52:51Z</time>
      </trkpt>
      <trkpt lat="42.8977960" lon="1.3609630">
        <ele>718.4</ele>
        <time>2020-07-23T09:52:52Z</time>
      </trkpt>
      <trkpt lat="42.8977270" lon="1.3608720">
        <ele>717.6</ele>
        <time>2020-07-23T09:52:53Z</time>
      </trkpt>
      <trkpt lat="42.8976490" lon="1.3607890">
        <ele>717.2</ele>
        <time>2020-07-23T09:52:54Z</time>
      </trkpt>
      <trkpt lat="42.8975650" lon="1.3607110">
        <ele>716.6</ele>
        <time>2020-07-23T09:52:55Z</time>
      </trkpt>
      <trkpt lat="42.8974800" lon="1.3606300">
        <ele>716.0</ele>
        <time>2020-07-23T09:52:56Z</time>
      </trkpt>
      <trkpt lat="42.8973930" lon="1.3605470">
        <ele>715.4</ele>
        <time>2020-07-23T09:52:57Z</time>
      </trkpt>
      <trkpt lat="42.8972150" lon="1.3603760">
        <ele>714.2</ele>
        <time>2020-07-23T09:52:59Z</time>
      </trkpt>
      <trkpt lat="42.8970220" lon="1.3602180">
        <ele>713.0</ele>
        <time>2020-07-23T09:53:01Z</time>
      </trkpt>
      <trkpt lat="42.8969210" lon="1.3601570">
        <ele>712.4</ele>
        <time>2020-07-23T09:53:02Z</time>
      </trkpt>
      <trkpt lat="42.8968110" lon="1.3601070">
        <ele>711.8</ele>
        <time>2020-07-23T09:53:03Z</time>
      </trkpt>
      <trkpt lat="42.8966980" lon="1.3600820">
        <ele>711.2</ele>
        <time>2020-07-23T09:53:04Z</time>
      </trkpt>
      <trkpt lat="42.8965860" lon="1.3600740">
        <ele>710.4</ele>
        <time>2020-07-23T09:53:05Z</time>
      </trkpt>
      <trkpt lat="42.8963530" lon="1.3601230">
        <ele>709.4</ele>
        <time>2020-07-23T09:53:07Z</time>
      </trkpt>
      <trkpt lat="42.8962350" lon="1.3601560">
        <ele>708.8</ele>
        <time>2020-07-23T09:53:08Z</time>
      </trkpt>
      <trkpt lat="42.8961160" lon="1.3601940">
        <ele>707.8</ele>
        <time>2020-07-23T09:53:09Z</time>
      </trkpt>
      <trkpt lat="42.8960000" lon="1.3602310">
        <ele>706.6</ele>
        <time>2020-07-23T09:53:10Z</time>
      </trkpt>
      <trkpt lat="42.8957940" lon="1.3602970">
        <ele>705.0</ele>
        <time>2020-07-23T09:53:12Z</time>
      </trkpt>
      <trkpt lat="42.8957080" lon="1.3603120">
        <ele>704.2</ele>
        <time>2020-07-23T09:53:13Z</time>
      </trkpt>
      <trkpt lat="42.8956290" lon="1.3603010">
        <ele>703.8</ele>
        <time>2020-07-23T09:53:14Z</time>
      </trkpt>
      <trkpt lat="42.8955590" lon="1.3602460">
        <ele>703.4</ele>
        <time>2020-07-23T09:53:15Z</time>
      </trkpt>
      <trkpt lat="42.8954450" lon="1.3600920">
        <ele>702.4</ele>
        <time>2020-07-23T09:53:17Z</time>
      </trkpt>
      <trkpt lat="42.8954010" lon="1.3599920">
        <ele>702.0</ele>
        <time>2020-07-23T09:53:18Z</time>
      </trkpt>
      <trkpt lat="42.8953770" lon="1.3598750">
        <ele>701.6</ele>
        <time>2020-07-23T09:53:19Z</time>
      </trkpt>
      <trkpt lat="42.8953650" lon="1.3597390">
        <ele>701.4</ele>
        <time>2020-07-23T09:53:20Z</time>
      </trkpt>
      <trkpt lat="42.8953720" lon="1.3596020">
        <ele>701.0</ele>
        <time>2020-07-23T09:53:21Z</time>
      </trkpt>
      <trkpt lat="42.8954270" lon="1.3593300">
        <ele>700.0</ele>
        <time>2020-07-23T09:53:23Z</time>
      </trkpt>
      <trkpt lat="42.8955030" lon="1.3590570">
        <ele>699.2</ele>
        <time>2020-07-23T09:53:25Z</time>
      </trkpt>
      <trkpt lat="42.8955350" lon="1.3589170">
        <ele>698.6</ele>
        <time>2020-07-23T09:53:26Z</time>
      </trkpt>
      <trkpt lat="42.8955660" lon="1.3586290">
        <ele>697.2</ele>
        <time>2020-07-23T09:53:28Z</time>
      </trkpt>
      <trkpt lat="42.8955540" lon="1.3584780">
        <ele>696.4</ele>
        <time>2020-07-23T09:53:29Z</time>
      </trkpt>
      <trkpt lat="42.8955420" lon="1.3583310">
        <ele>695.6</ele>
        <time>2020-07-23T09:53:30Z</time>
      </trkpt>
      <trkpt lat="42.8955270" lon="1.3580200">
        <ele>694.0</ele>
        <time>2020-07-23T09:53:32Z</time>
      </trkpt>
      <trkpt lat="42.8955330" lon="1.3578600">
        <ele>693.4</ele>
        <time>2020-07-23T09:53:33Z</time>
      </trkpt>
      <trkpt lat="42.8955450" lon="1.3576960">
        <ele>692.6</ele>
        <time>2020-07-23T09:53:34Z</time>
      </trkpt>
      <trkpt lat="42.8955600" lon="1.3575330">
        <ele>691.6</ele>
        <time>2020-07-23T09:53:35Z</time>
      </trkpt>
      <trkpt lat="42.8955820" lon="1.3572050">
        <ele>690.2</ele>
        <time>2020-07-23T09:53:37Z</time>
      </trkpt>
      <trkpt lat="42.8955830" lon="1.3570390">
        <ele>689.6</ele>
        <time>2020-07-23T09:53:38Z</time>
      </trkpt>
      <trkpt lat="42.8955780" lon="1.3568710">
        <ele>689.0</ele>
        <time>2020-07-23T09:53:39Z</time>
      </trkpt>
      <trkpt lat="42.8955700" lon="1.3565320">
        <ele>687.6</ele>
        <time>2020-07-23T09:53:41Z</time>
      </trkpt>
      <trkpt lat="42.8955710" lon="1.3563610">
        <ele>686.8</ele>
        <time>2020-07-23T09:53:42Z</time>
      </trkpt>
      <trkpt lat="42.8955770" lon="1.3561870">
        <ele>686.0</ele>
        <time>2020-07-23T09:53:43Z</time>
      </trkpt>
      <trkpt lat="42.8955690" lon="1.3558400">
        <ele>684.0</ele>
        <time>2020-07-23T09:53:45Z</time>
      </trkpt>
      <trkpt lat="42.8955440" lon="1.3554950">
        <ele>682.4</ele>
        <time>2020-07-23T09:53:47Z</time>
      </trkpt>
      <trkpt lat="42.8955010" lon="1.3551730">
        <ele>680.8</ele>
        <time>2020-07-23T09:53:49Z</time>
      </trkpt>
      <trkpt lat="42.8954580" lon="1.3550200">
        <ele>679.8</ele>
        <time>2020-07-23T09:53:50Z</time>
      </trkpt>
      <trkpt lat="42.8953960" lon="1.3548650">
        <ele>678.8</ele>
        <time>2020-07-23T09:53:51Z</time>
      </trkpt>
      <trkpt lat="42.8953340" lon="1.3547170">
        <ele>678.2</ele>
        <time>2020-07-23T09:53:52Z</time>
      </trkpt>
      <trkpt lat="42.8952250" lon="1.3544190">
        <ele>677.0</ele>
        <time>2020-07-23T09:53:54Z</time>
      </trkpt>
      <trkpt lat="42.8951820" lon="1.3542680">
        <ele>676.2</ele>
        <time>2020-07-23T09:53:55Z</time>
      </trkpt>
      <trkpt lat="42.8951390" lon="1.3541160">
        <ele>675.4</ele>
        <time>2020-07-23T09:53:56Z</time>
      </trkpt>
      <trkpt lat="42.8950510" lon="1.3538280">
        <ele>674.0</ele>
        <time>2020-07-23T09:53:58Z</time>
      </trkpt>
      <trkpt lat="42.8949960" lon="1.3537020">
        <ele>673.2</ele>
        <time>2020-07-23T09:53:59Z</time>
      </trkpt>
      <trkpt lat="42.8949190" lon="1.3535850">
        <ele>672.6</ele>
        <time>2020-07-23T09:54:00Z</time>
      </trkpt>
      <trkpt lat="42.8948320" lon="1.3534830">
        <ele>672.0</ele>
        <time>2020-07-23T09:54:01Z</time>
      </trkpt>
      <trkpt lat="42.8947450" lon="1.3533850">
        <ele>671.4</ele>
        <time>2020-07-23T09:54:02Z</time>
      </trkpt>
      <trkpt lat="42.8945840" lon="1.3531660">
        <ele>670.0</ele>
        <time>2020-07-23T09:54:04Z</time>
      </trkpt>
      <trkpt lat="42.8944730" lon="1.3528980">
        <ele>668.8</ele>
        <time>2020-07-23T09:54:06Z</time>
      </trkpt>
      <trkpt lat="42.8943800" lon="1.3526140">
        <ele>667.0</ele>
        <time>2020-07-23T09:54:08Z</time>
      </trkpt>
      <trkpt lat="42.8943290" lon="1.3524840">
        <ele>666.0</ele>
        <time>2020-07-23T09:54:09Z</time>
      </trkpt>
      <trkpt lat="42.8942670" lon="1.3523710">
        <ele>665.0</ele>
        <time>2020-07-23T09:54:10Z</time>
      </trkpt>
      <trkpt lat="42.8941890" lon="1.3522750">
        <ele>664.2</ele>
        <time>2020-07-23T09:54:11Z</time>
      </trkpt>
      <trkpt lat="42.8940230" lon="1.3521080">
        <ele>663.2</ele>
        <time>2020-07-23T09:54:13Z</time>
      </trkpt>
      <trkpt lat="42.8938830" lon="1.3519620">
        <ele>662.0</ele>
        <time>2020-07-23T09:54:15Z</time>
      </trkpt>
      <trkpt lat="42.8938220" lon="1.3517970">
        <ele>661.2</ele>
        <time>2020-07-23T09:54:17Z</time>
      </trkpt>
      <trkpt lat="42.8938370" lon="1.3517100">
        <ele>661.0</ele>
        <time>2020-07-23T09:54:18Z</time>
      </trkpt>
      <trkpt lat="42.8938700" lon="1.3516320">
        <ele>660.8</ele>
        <time>2020-07-23T09:54:19Z</time>
      </trkpt>
      <trkpt lat="42.8939990" lon="1.3515520">
        <ele>659.8</ele>
        <time>2020-07-23T09:54:21Z</time>
      </trkpt>
      <trkpt lat="42.8940820" lon="1.3515490">
        <ele>659.2</ele>
        <time>2020-07-23T09:54:22Z</time>
      </trkpt>
      <trkpt lat="42.8941760" lon="1.3515800">
        <ele>658.6</ele>
        <time>2020-07-23T09:54:23Z</time>
      </trkpt>
      <trkpt lat="42.8942960" lon="1.3516950">
        <ele>658.0</ele>
        <time>2020-07-23T09:54:24Z</time>
      </trkpt>
      <trkpt lat="42.8943670" lon="1.3518050">
        <ele>657.4</ele>
        <time>2020-07-23T09:54:25Z</time>
      </trkpt>
      <trkpt lat="42.8944290" lon="1.3519180">
        <ele>656.8</ele>
        <time>2020-07-23T09:54:26Z</time>
      </trkpt>
      <trkpt lat="42.8944810" lon="1.3520190">
        <ele>656.0</ele>
        <time>2020-07-23T09:54:27Z</time>
      </trkpt>
      <trkpt lat="42.8945800" lon="1.3521610">
        <ele>655.0</ele>
        <time>2020-07-23T09:54:29Z</time>
      </trkpt>
      <trkpt lat="42.8946410" lon="1.3522000">
        <ele>654.6</ele>
        <time>2020-07-23T09:54:30Z</time>
      </trkpt>
      <trkpt lat="42.8947230" lon="1.3521970">
        <ele>654.4</ele>
        <time>2020-07-23T09:54:31Z</time>
      </trkpt>
      <trkpt lat="42.8947970" lon="1.3521660">
        <ele>654.2</ele>
        <time>2020-07-23T09:54:32Z</time>
      </trkpt>
      <trkpt lat="42.8948440" lon="1.3521030">
        <ele>653.8</ele>
        <time>2020-07-23T09:54:33Z</time>
      </trkpt>
      <trkpt lat="42.8948660" lon="1.3520180">
        <ele>653.6</ele>
        <time>2020-07-23T09:54:34Z</time>
      </trkpt>
      <trkpt lat="42.8948750" lon="1.3519170">
        <ele>653.2</ele>
        <time>2020-07-23T09:54:35Z</time>
      </trkpt>
      <trkpt lat="42.8948480" lon="1.3516580">
        <ele>652.4</ele>
        <time>2020-07-23T09:54:37Z</time>
      </trkpt>
      <trkpt lat="42.8948030" lon="1.3514410">
        <ele>651.0</ele>
        <time>2020-07-23T09:54:39Z</time>
      </trkpt>
      <trkpt lat="42.8947340" lon="1.3513540">
        <ele>650.2</ele>
        <time>2020-07-23T09:54:40Z</time>
      </trkpt>
      <trkpt lat="42.8946610" lon="1.3512990">
        <ele>649.6</ele>
        <time>2020-07-23T09:54:41Z</time>
      </trkpt>
      <trkpt lat="42.8944890" lon="1.3512420">
        <ele>648.6</ele>
        <time>2020-07-23T09:54:43Z</time>
      </trkpt>
      <trkpt lat="42.8943970" lon="1.3512190">
        <ele>648.2</ele>
        <time>2020-07-23T09:54:44Z</time>
      </trkpt>
      <trkpt lat="42.8941090" lon="1.3511510">
        <ele>646.6</ele>
        <time>2020-07-23T09:54:47Z</time>
      </trkpt>
      <trkpt lat="42.8939130" lon="1.3510830">
        <ele>645.2</ele>
        <time>2020-07-23T09:54:49Z</time>
      </trkpt>
      <trkpt lat="42.8938150" lon="1.3510380">
        <ele>644.4</ele>
        <time>2020-07-23T09:54:50Z</time>
      </trkpt>
      <trkpt lat="42.8937200" lon="1.3509830">
        <ele>643.8</ele>
        <time>2020-07-23T09:54:51Z</time>
      </trkpt>
      <trkpt lat="42.8936260" lon="1.3509220">
        <ele>643.4</ele>
        <time>2020-07-23T09:54:52Z</time>
      </trkpt>
      <trkpt lat="42.8935360" lon="1.3508480">
        <ele>643.0</ele>
        <time>2020-07-23T09:54:53Z</time>
      </trkpt>
      <trkpt lat="42.8934510" lon="1.3507650">
        <ele>642.4</ele>
        <time>2020-07-23T09:54:54Z</time>
      </trkpt>
      <trkpt lat="42.8933690" lon="1.3506830">
        <ele>641.6</ele>
        <time>2020-07-23T09:54:55Z</time>
      </trkpt>
      <trkpt lat="42.8932940" lon="1.3505970">
        <ele>641.0</ele>
        <time>2020-07-23T09:54:56Z</time>
      </trkpt>
      <trkpt lat="42.8932310" lon="1.3505050">
        <ele>640.4</ele>
        <time>2020-07-23T09:54:57Z</time>
      </trkpt>
      <trkpt lat="42.8931870" lon="1.3503990">
        <ele>640.0</ele>
        <time>2020-07-23T09:54:58Z</time>
      </trkpt>
      <trkpt lat="42.8931750" lon="1.3502820">
        <ele>639.4</ele>
        <time>2020-07-23T09:54:59Z</time>
      </trkpt>
      <trkpt lat="42.8931720" lon="1.3501540">
        <ele>638.8</ele>
        <time>2020-07-23T09:55:00Z</time>
      </trkpt>
      <trkpt lat="42.8931370" lon="1.3499010">
        <ele>637.8</ele>
        <time>2020-07-23T09:55:02Z</time>
      </trkpt>
      <trkpt lat="42.8930860" lon="1.3497960">
        <ele>637.0</ele>
        <time>2020-07-23T09:55:03Z</time>
      </trkpt>
      <trkpt lat="42.8930160" lon="1.3497110">
        <ele>636.2</ele>
        <time>2020-07-23T09:55:04Z</time>
      </trkpt>
      <trkpt lat="42.8929340" lon="1.3496410">
        <ele>635.6</ele>
        <time>2020-07-23T09:55:05Z</time>
      </trkpt>
      <trkpt lat="42.8928440" lon="1.3495850">
        <ele>635.2</ele>
        <time>2020-07-23T09:55:06Z</time>
      </trkpt>
      <trkpt lat="42.8923100" lon="1.3492660">
        <ele>634.0</ele>
        <time>2020-07-23T09:55:12Z</time>
      </trkpt>
      <trkpt lat="42.8921470" lon="1.3491620">
        <ele>633.4</ele>
        <time>2020-07-23T09:55:14Z</time>
      </trkpt>
      <trkpt lat="42.8918640" lon="1.3489770">
        <ele>633.4</ele>
        <time>2020-07-23T09:55:18Z</time>
      </trkpt>
      <trkpt lat="42.8918050" lon="1.3489410">
        <ele>633.8</ele>
        <time>2020-07-23T09:55:19Z</time>
      </trkpt>
      <trkpt lat="42.8916550" lon="1.3488680">
        <ele>635.0</ele>
        <time>2020-07-23T09:55:22Z</time>
      </trkpt>
      <trkpt lat="42.8915740" lon="1.3488150">
        <ele>635.8</ele>
        <time>2020-07-23T09:55:24Z</time>
      </trkpt>
      <trkpt lat="42.8915380" lon="1.3487860">
        <ele>636.2</ele>
        <time>2020-07-23T09:55:25Z</time>
      </trkpt>
      <trkpt lat="42.8914210" lon="1.3487280">
        <ele>637.2</ele>
        <time>2020-07-23T09:55:29Z</time>
      </trkpt>
      <trkpt lat="42.8913760" lon="1.3486960">
        <ele>637.6</ele>
        <time>2020-07-23T09:55:31Z</time>
      </trkpt>
      <trkpt lat="42.8913180" lon="1.3486610">
        <ele>638.4</ele>
        <time>2020-07-23T09:55:34Z</time>
      </trkpt>
      <trkpt lat="42.8913010" lon="1.3486510">
        <ele>638.4</ele>
        <time>2020-07-23T09:55:35Z</time>
      </trkpt>
      <trkpt lat="42.8912360" lon="1.3485990">
        <ele>638.8</ele>
        <time>2020-07-23T09:55:39Z</time>
      </trkpt>
      <trkpt lat="42.8911660" lon="1.3485590">
        <ele>639.2</ele>
        <time>2020-07-23T09:55:42Z</time>
      </trkpt>
      <trkpt lat="42.8911130" lon="1.3485300">
        <ele>639.4</ele>
        <time>2020-07-23T09:55:44Z</time>
      </trkpt>
      <trkpt lat="42.8909800" lon="1.3484480">
        <ele>640.4</ele>
        <time>2020-07-23T09:55:49Z</time>
      </trkpt>
      <trkpt lat="42.8909530" lon="1.3484290">
        <ele>640.6</ele>
        <time>2020-07-23T09:55:50Z</time>
      </trkpt>
      <trkpt lat="42.8908680" lon="1.3483790">
        <ele>641.0</ele>
        <time>2020-07-23T09:55:53Z</time>
      </trkpt>
      <trkpt lat="42.8908400" lon="1.3483640">
        <ele>641.2</ele>
        <time>2020-07-23T09:55:54Z</time>
      </trkpt>
      <trkpt lat="42.8908110" lon="1.3483480">
        <ele>641.4</ele>
        <time>2020-07-23T09:55:55Z</time>
      </trkpt>
      <trkpt lat="42.8907840" lon="1.3483320">
        <ele>641.6</ele>
        <time>2020-07-23T09:55:56Z</time>
      </trkpt>
      <trkpt lat="42.8907310" lon="1.3483030">
        <ele>642.0</ele>
        <time>2020-07-23T09:55:58Z</time>
      </trkpt>
      <trkpt lat="42.8906530" lon="1.3482540">
        <ele>642.4</ele>
        <time>2020-07-23T09:56:01Z</time>
      </trkpt>
      <trkpt lat="42.8906000" lon="1.3482240">
        <ele>642.6</ele>
        <time>2020-07-23T09:56:03Z</time>
      </trkpt>
      <trkpt lat="42.8904800" lon="1.3481440">
        <ele>643.8</ele>
        <time>2020-07-23T09:56:08Z</time>
      </trkpt>
      <trkpt lat="42.8904580" lon="1.3481250">
        <ele>643.8</ele>
        <time>2020-07-23T09:56:09Z</time>
      </trkpt>
      <trkpt lat="42.8903260" lon="1.3480490">
        <ele>644.8</ele>
        <time>2020-07-23T09:56:15Z</time>
      </trkpt>
      <trkpt lat="42.8903040" lon="1.3480400">
        <ele>645.0</ele>
        <time>2020-07-23T09:56:16Z</time>
      </trkpt>
      <trkpt lat="42.8901760" lon="1.3479690">
        <ele>645.8</ele>
        <time>2020-07-23T09:56:22Z</time>
      </trkpt>
      <trkpt lat="42.8901300" lon="1.3479470">
        <ele>646.0</ele>
        <time>2020-07-23T09:56:24Z</time>
      </trkpt>
      <trkpt lat="42.8900150" lon="1.3478660">
        <ele>647.0</ele>
        <time>2020-07-23T09:56:29Z</time>
      </trkpt>
      <trkpt lat="42.8899210" lon="1.3478110">
        <ele>647.8</ele>
        <time>2020-07-23T09:56:33Z</time>
      </trkpt>
      <trkpt lat="42.8898990" lon="1.3477970">
        <ele>648.0</ele>
        <time>2020-07-23T09:56:34Z</time>
      </trkpt>
      <trkpt lat="42.8897860" lon="1.3477190">
        <ele>649.0</ele>
        <time>2020-07-23T09:56:39Z</time>
      </trkpt>
      <trkpt lat="42.8896960" lon="1.3476550">
        <ele>649.8</ele>
        <time>2020-07-23T09:56:43Z</time>
      </trkpt>
      <trkpt lat="42.8896750" lon="1.3476390">
        <ele>650.0</ele>
        <time>2020-07-23T09:56:44Z</time>
      </trkpt>
      <trkpt lat="42.8895690" lon="1.3475580">
        <ele>650.8</ele>
        <time>2020-07-23T09:56:49Z</time>
      </trkpt>
      <trkpt lat="42.8895440" lon="1.3475400">
        <ele>651.0</ele>
        <time>2020-07-23T09:56:50Z</time>
      </trkpt>
      <trkpt lat="42.8895190" lon="1.3475230">
        <ele>651.2</ele>
        <time>2020-07-23T09:56:51Z</time>
      </trkpt>
      <trkpt lat="42.8894710" lon="1.3474690">
        <ele>652.0</ele>
        <time>2020-07-23T09:56:54Z</time>
      </trkpt>
      <trkpt lat="42.8894580" lon="1.3474520">
        <ele>652.2</ele>
        <time>2020-07-23T09:56:55Z</time>
      </trkpt>
      <trkpt lat="42.8894480" lon="1.3474310">
        <ele>652.6</ele>
        <time>2020-07-23T09:56:56Z</time>
      </trkpt>
      <trkpt lat="42.8894470" lon="1.3472300">
        <ele>652.8</ele>
        <time>2020-07-23T09:57:02Z</time>
      </trkpt>
      <trkpt lat="42.8894530" lon="1.3470090">
        <ele>652.2</ele>
        <time>2020-07-23T09:57:08Z</time>
      </trkpt>
      <trkpt lat="42.8894640" lon="1.3468620">
        <ele>652.2</ele>
        <time>2020-07-23T09:57:11Z</time>
      </trkpt>
      <trkpt lat="42.8894660" lon="1.3467760">
        <ele>652.6</ele>
        <time>2020-07-23T09:58:13Z</time>
      </trkpt>
      <trkpt lat="42.8894670" lon="1.3466890">
        <ele>652.0</ele>
        <time>2020-07-23T09:58:14Z</time>
      </trkpt>
      <trkpt lat="42.8894790" lon="1.3465610">
        <ele>651.2</ele>
        <time>2020-07-23T09:58:16Z</time>
      </trkpt>
      <trkpt lat="42.8895060" lon="1.3463620">
        <ele>651.0</ele>
        <time>2020-07-23T09:58:19Z</time>
      </trkpt>
      <trkpt lat="42.8895170" lon="1.3462930">
        <ele>650.8</ele>
        <time>2020-07-23T09:58:20Z</time>
      </trkpt>
      <trkpt lat="42.8895400" lon="1.3461460">
        <ele>650.0</ele>
        <time>2020-07-23T09:58:22Z</time>
      </trkpt>
      <trkpt lat="42.8895880" lon="1.3458450">
        <ele>649.6</ele>
        <time>2020-07-23T09:58:26Z</time>
      </trkpt>
      <trkpt lat="42.8896060" lon="1.3457740">
        <ele>649.4</ele>
        <time>2020-07-23T09:58:27Z</time>
      </trkpt>
      <trkpt lat="42.8896270" lon="1.3457060">
        <ele>649.4</ele>
        <time>2020-07-23T09:58:28Z</time>
      </trkpt>
      <trkpt lat="42.8896740" lon="1.3455730">
        <ele>648.8</ele>
        <time>2020-07-23T09:58:30Z</time>
      </trkpt>
      <trkpt lat="42.8897800" lon="1.3453020">
        <ele>647.8</ele>
        <time>2020-07-23T09:58:34Z</time>
      </trkpt>
      <trkpt lat="42.8898050" lon="1.3452320">
        <ele>647.8</ele>
        <time>2020-07-23T09:58:35Z</time>
      </trkpt>
      <trkpt lat="42.8898310" lon="1.3451640">
        <ele>647.6</ele>
        <time>2020-07-23T09:58:36Z</time>
      </trkpt>
      <trkpt lat="42.8900140" lon="1.3447690">
        <ele>647.4</ele>
        <time>2020-07-23T09:58:42Z</time>
      </trkpt>
      <trkpt lat="42.8902190" lon="1.3443790">
        <ele>646.8</ele>
        <time>2020-07-23T09:58:48Z</time>
      </trkpt>
      <trkpt lat="42.8902550" lon="1.3443110">
        <ele>646.6</ele>
        <time>2020-07-23T09:58:49Z</time>
      </trkpt>
      <trkpt lat="42.8903960" lon="1.3440210">
        <ele>646.2</ele>
        <time>2020-07-23T09:58:53Z</time>
      </trkpt>
      <trkpt lat="42.8904630" lon="1.3438750">
        <ele>646.0</ele>
        <time>2020-07-23T09:58:55Z</time>
      </trkpt>
      <trkpt lat="42.8906720" lon="1.3434720">
        <ele>646.2</ele>
        <time>2020-07-23T09:59:01Z</time>
      </trkpt>
      <trkpt lat="42.8907030" lon="1.3434080">
        <ele>646.2</ele>
        <time>2020-07-23T09:59:02Z</time>
      </trkpt>
      <trkpt lat="42.8907970" lon="1.3432170">
        <ele>646.6</ele>
        <time>2020-07-23T09:59:05Z</time>
      </trkpt>
      <trkpt lat="42.8909180" lon="1.3429660">
        <ele>647.0</ele>
        <time>2020-07-23T09:59:09Z</time>
      </trkpt>
      <trkpt lat="42.8909540" lon="1.3429060">
        <ele>647.0</ele>
        <time>2020-07-23T09:59:10Z</time>
      </trkpt>
      <trkpt lat="42.8910600" lon="1.3427250">
        <ele>646.6</ele>
        <time>2020-07-23T09:59:13Z</time>
      </trkpt>
      <trkpt lat="42.8912100" lon="1.3424730">
        <ele>646.2</ele>
        <time>2020-07-23T09:59:17Z</time>
      </trkpt>
      <trkpt lat="42.8913210" lon="1.3422650">
        <ele>646.2</ele>
        <time>2020-07-23T09:59:20Z</time>
      </trkpt>
      <trkpt lat="42.8915160" lon="1.3419110">
        <ele>646.0</ele>
        <time>2020-07-23T09:59:25Z</time>
      </trkpt>
      <trkpt lat="42.8915900" lon="1.3417540">
        <ele>645.6</ele>
        <time>2020-07-23T09:59:27Z</time>
      </trkpt>
      <trkpt lat="42.8917470" lon="1.3414190">
        <ele>644.8</ele>
        <time>2020-07-23T09:59:31Z</time>
      </trkpt>
      <trkpt lat="42.8918300" lon="1.3412430">
        <ele>644.4</ele>
        <time>2020-07-23T09:59:33Z</time>
      </trkpt>
      <trkpt lat="42.8919650" lon="1.3409740">
        <ele>643.8</ele>
        <time>2020-07-23T09:59:36Z</time>
      </trkpt>
      <trkpt lat="42.8920460" lon="1.3408190">
        <ele>643.0</ele>
        <time>2020-07-23T09:59:38Z</time>
      </trkpt>
      <trkpt lat="42.8921630" lon="1.3406090">
        <ele>642.0</ele>
        <time>2020-07-23T09:59:41Z</time>
      </trkpt>
      <trkpt lat="42.8922070" lon="1.3405360">
        <ele>641.8</ele>
        <time>2020-07-23T09:59:42Z</time>
      </trkpt>
      <trkpt lat="42.8922990" lon="1.3403880">
        <ele>640.8</ele>
        <time>2020-07-23T09:59:44Z</time>
      </trkpt>
      <trkpt lat="42.8924300" lon="1.3401370">
        <ele>639.6</ele>
        <time>2020-07-23T09:59:47Z</time>
      </trkpt>
      <trkpt lat="42.8925100" lon="1.3399470">
        <ele>639.2</ele>
        <time>2020-07-23T09:59:49Z</time>
      </trkpt>
      <trkpt lat="42.8925460" lon="1.3398470">
        <ele>639.0</ele>
        <time>2020-07-23T09:59:50Z</time>
      </trkpt>
      <trkpt lat="42.8925760" lon="1.3397390">
        <ele>638.8</ele>
        <time>2020-07-23T09:59:51Z</time>
      </trkpt>
      <trkpt lat="42.8926320" lon="1.3395210">
        <ele>638.4</ele>
        <time>2020-07-23T09:59:53Z</time>
      </trkpt>
      <trkpt lat="42.8926570" lon="1.3394100">
        <ele>638.2</ele>
        <time>2020-07-23T09:59:54Z</time>
      </trkpt>
      <trkpt lat="42.8927290" lon="1.3391970">
        <ele>637.4</ele>
        <time>2020-07-23T09:59:56Z</time>
      </trkpt>
      <trkpt lat="42.8928390" lon="1.3390130">
        <ele>636.4</ele>
        <time>2020-07-23T09:59:58Z</time>
      </trkpt>
      <trkpt lat="42.8929100" lon="1.3389420">
        <ele>635.8</ele>
        <time>2020-07-23T09:59:59Z</time>
      </trkpt>
      <trkpt lat="42.8929960" lon="1.3389000">
        <ele>635.4</ele>
        <time>2020-07-23T10:00:00Z</time>
      </trkpt>
      <trkpt lat="42.8930830" lon="1.3388630">
        <ele>635.0</ele>
        <time>2020-07-23T10:00:01Z</time>
      </trkpt>
      <trkpt lat="42.8931720" lon="1.3388280">
        <ele>634.6</ele>
        <time>2020-07-23T10:00:02Z</time>
      </trkpt>
      <trkpt lat="42.8933400" lon="1.3387290">
        <ele>633.4</ele>
        <time>2020-07-23T10:00:04Z</time>
      </trkpt>
      <trkpt lat="42.8934130" lon="1.3386560">
        <ele>633.2</ele>
        <time>2020-07-23T10:00:05Z</time>
      </trkpt>
      <trkpt lat="42.8934760" lon="1.3385630">
        <ele>633.0</ele>
        <time>2020-07-23T10:00:06Z</time>
      </trkpt>
      <trkpt lat="42.8935760" lon="1.3383440">
        <ele>632.4</ele>
        <time>2020-07-23T10:00:08Z</time>
      </trkpt>
      <trkpt lat="42.8936620" lon="1.3381110">
        <ele>632.2</ele>
        <time>2020-07-23T10:00:10Z</time>
      </trkpt>
      <trkpt lat="42.8937450" lon="1.3378700">
        <ele>631.4</ele>
        <time>2020-07-23T10:00:12Z</time>
      </trkpt>
      <trkpt lat="42.8937840" lon="1.3377470">
        <ele>630.8</ele>
        <time>2020-07-23T10:00:13Z</time>
      </trkpt>
      <trkpt lat="42.8938210" lon="1.3376200">
        <ele>630.2</ele>
        <time>2020-07-23T10:00:14Z</time>
      </trkpt>
      <trkpt lat="42.8938560" lon="1.3374950">
        <ele>629.6</ele>
        <time>2020-07-23T10:00:15Z</time>
      </trkpt>
      <trkpt lat="42.8939040" lon="1.3372400">
        <ele>628.2</ele>
        <time>2020-07-23T10:00:17Z</time>
      </trkpt>
      <trkpt lat="42.8939030" lon="1.3371050">
        <ele>628.0</ele>
        <time>2020-07-23T10:00:18Z</time>
      </trkpt>
      <trkpt lat="42.8938900" lon="1.3369750">
        <ele>627.6</ele>
        <time>2020-07-23T10:00:19Z</time>
      </trkpt>
      <trkpt lat="42.8938310" lon="1.3367230">
        <ele>627.2</ele>
        <time>2020-07-23T10:00:21Z</time>
      </trkpt>
      <trkpt lat="42.8937480" lon="1.3364720">
        <ele>626.0</ele>
        <time>2020-07-23T10:00:23Z</time>
      </trkpt>
      <trkpt lat="42.8936750" lon="1.3362000">
        <ele>625.2</ele>
        <time>2020-07-23T10:00:25Z</time>
      </trkpt>
      <trkpt lat="42.8936540" lon="1.3360580">
        <ele>624.6</ele>
        <time>2020-07-23T10:00:26Z</time>
      </trkpt>
      <trkpt lat="42.8936470" lon="1.3359160">
        <ele>624.2</ele>
        <time>2020-07-23T10:00:27Z</time>
      </trkpt>
      <trkpt lat="42.8936570" lon="1.3357760">
        <ele>623.6</ele>
        <time>2020-07-23T10:00:28Z</time>
      </trkpt>
      <trkpt lat="42.8936740" lon="1.3356390">
        <ele>623.0</ele>
        <time>2020-07-23T10:00:29Z</time>
      </trkpt>
      <trkpt lat="42.8936940" lon="1.3355030">
        <ele>622.4</ele>
        <time>2020-07-23T10:00:30Z</time>
      </trkpt>
      <trkpt lat="42.8937380" lon="1.3352310">
        <ele>621.0</ele>
        <time>2020-07-23T10:00:32Z</time>
      </trkpt>
      <trkpt lat="42.8937880" lon="1.3349610">
        <ele>619.8</ele>
        <time>2020-07-23T10:00:34Z</time>
      </trkpt>
      <trkpt lat="42.8938420" lon="1.3346910">
        <ele>618.6</ele>
        <time>2020-07-23T10:00:36Z</time>
      </trkpt>
      <trkpt lat="42.8939010" lon="1.3344200">
        <ele>617.6</ele>
        <time>2020-07-23T10:00:38Z</time>
      </trkpt>
      <trkpt lat="42.8940120" lon="1.3340170">
        <ele>616.0</ele>
        <time>2020-07-23T10:00:41Z</time>
      </trkpt>
      <trkpt lat="42.8940770" lon="1.3337440">
        <ele>615.6</ele>
        <time>2020-07-23T10:00:43Z</time>
      </trkpt>
      <trkpt lat="42.8942090" lon="1.3332360">
        <ele>615.0</ele>
        <time>2020-07-23T10:00:47Z</time>
      </trkpt>
      <trkpt lat="42.8942580" lon="1.3329900">
        <ele>614.8</ele>
        <time>2020-07-23T10:00:49Z</time>
      </trkpt>
      <trkpt lat="42.8942840" lon="1.3328740">
        <ele>614.4</ele>
        <time>2020-07-23T10:00:50Z</time>
      </trkpt>
      <trkpt lat="42.8943800" lon="1.3325510">
        <ele>614.4</ele>
        <time>2020-07-23T10:00:53Z</time>
      </trkpt>
      <trkpt lat="42.8944190" lon="1.3324480">
        <ele>614.4</ele>
        <time>2020-07-23T10:00:54Z</time>
      </trkpt>
      <trkpt lat="42.8944630" lon="1.3323490">
        <ele>614.6</ele>
        <time>2020-07-23T10:00:55Z</time>
      </trkpt>
      <trkpt lat="42.8945680" lon="1.3321630">
        <ele>614.6</ele>
        <time>2020-07-23T10:00:57Z</time>
      </trkpt>
      <trkpt lat="42.8946280" lon="1.3320800">
        <ele>614.4</ele>
        <time>2020-07-23T10:00:58Z</time>
      </trkpt>
      <trkpt lat="42.8947570" lon="1.3319250">
        <ele>614.2</ele>
        <time>2020-07-23T10:01:00Z</time>
      </trkpt>
      <trkpt lat="42.8948270" lon="1.3318540">
        <ele>614.2</ele>
        <time>2020-07-23T10:01:01Z</time>
      </trkpt>
      <trkpt lat="42.8948990" lon="1.3317890">
        <ele>614.0</ele>
        <time>2020-07-23T10:01:02Z</time>
      </trkpt>
      <trkpt lat="42.8949730" lon="1.3317240">
        <ele>613.8</ele>
        <time>2020-07-23T10:01:03Z</time>
      </trkpt>
      <trkpt lat="42.8950460" lon="1.3316570">
        <ele>613.8</ele>
        <time>2020-07-23T10:01:04Z</time>
      </trkpt>
      <trkpt lat="42.8954720" lon="1.3312450">
        <ele>612.8</ele>
        <time>2020-07-23T10:01:10Z</time>
      </trkpt>
      <trkpt lat="42.8955410" lon="1.3311710">
        <ele>612.6</ele>
        <time>2020-07-23T10:01:11Z</time>
      </trkpt>
      <trkpt lat="42.8958350" lon="1.3309090">
        <ele>611.6</ele>
        <time>2020-07-23T10:01:15Z</time>
      </trkpt>
      <trkpt lat="42.8959790" lon="1.3307760">
        <ele>611.2</ele>
        <time>2020-07-23T10:01:17Z</time>
      </trkpt>
      <trkpt lat="42.8963310" lon="1.3304430">
        <ele>611.0</ele>
        <time>2020-07-23T10:01:22Z</time>
      </trkpt>
      <trkpt lat="42.8963990" lon="1.3303750">
        <ele>610.8</ele>
        <time>2020-07-23T10:01:23Z</time>
      </trkpt>
      <trkpt lat="42.8964670" lon="1.3303070">
        <ele>610.6</ele>
        <time>2020-07-23T10:01:24Z</time>
      </trkpt>
      <trkpt lat="42.8965320" lon="1.3302370">
        <ele>610.4</ele>
        <time>2020-07-23T10:01:25Z</time>
      </trkpt>
      <trkpt lat="42.8965850" lon="1.3301540">
        <ele>610.4</ele>
        <time>2020-07-23T10:01:26Z</time>
      </trkpt>
      <trkpt lat="42.8966240" lon="1.3300560">
        <ele>610.4</ele>
        <time>2020-07-23T10:01:27Z</time>
      </trkpt>
      <trkpt lat="42.8966520" lon="1.3299490">
        <ele>610.4</ele>
        <time>2020-07-23T10:01:28Z</time>
      </trkpt>
      <trkpt lat="42.8967100" lon="1.3296120">
        <ele>610.2</ele>
        <time>2020-07-23T10:01:31Z</time>
      </trkpt>
      <trkpt lat="42.8967840" lon="1.3291560">
        <ele>609.2</ele>
        <time>2020-07-23T10:01:35Z</time>
      </trkpt>
      <trkpt lat="42.8968430" lon="1.3288160">
        <ele>608.0</ele>
        <time>2020-07-23T10:01:38Z</time>
      </trkpt>
      <trkpt lat="42.8969040" lon="1.3284840">
        <ele>607.8</ele>
        <time>2020-07-23T10:01:41Z</time>
      </trkpt>
      <trkpt lat="42.8970090" lon="1.3279310">
        <ele>607.0</ele>
        <time>2020-07-23T10:01:46Z</time>
      </trkpt>
      <trkpt lat="42.8970990" lon="1.3274930">
        <ele>606.8</ele>
        <time>2020-07-23T10:01:50Z</time>
      </trkpt>
      <trkpt lat="42.8972340" lon="1.3269550">
        <ele>606.4</ele>
        <time>2020-07-23T10:01:55Z</time>
      </trkpt>
      <trkpt lat="42.8972640" lon="1.3268490">
        <ele>606.2</ele>
        <time>2020-07-23T10:01:56Z</time>
      </trkpt>
      <trkpt lat="42.8972940" lon="1.3267440">
        <ele>606.0</ele>
        <time>2020-07-23T10:01:57Z</time>
      </trkpt>
      <trkpt lat="42.8973250" lon="1.3266420">
        <ele>605.8</ele>
        <time>2020-07-23T10:01:58Z</time>
      </trkpt>
      <trkpt lat="42.8973590" lon="1.3265420">
        <ele>605.8</ele>
        <time>2020-07-23T10:01:59Z</time>
      </trkpt>
      <trkpt lat="42.8975580" lon="1.3259230">
        <ele>605.2</ele>
        <time>2020-07-23T10:02:05Z</time>
      </trkpt>
      <trkpt lat="42.8976150" lon="1.3257020">
        <ele>604.6</ele>
        <time>2020-07-23T10:02:07Z</time>
      </trkpt>
      <trkpt lat="42.8976440" lon="1.3255910">
        <ele>604.2</ele>
        <time>2020-07-23T10:02:08Z</time>
      </trkpt>
      <trkpt lat="42.8977380" lon="1.3252650">
        <ele>603.4</ele>
        <time>2020-07-23T10:02:11Z</time>
      </trkpt>
      <trkpt lat="42.8979190" lon="1.3246060">
        <ele>602.6</ele>
        <time>2020-07-23T10:02:17Z</time>
      </trkpt>
      <trkpt lat="42.8979470" lon="1.3244920">
        <ele>602.2</ele>
        <time>2020-07-23T10:02:18Z</time>
      </trkpt>
      <trkpt lat="42.8980600" lon="1.3238040">
        <ele>601.4</ele>
        <time>2020-07-23T10:02:24Z</time>
      </trkpt>
      <trkpt lat="42.8980540" lon="1.3234510">
        <ele>601.4</ele>
        <time>2020-07-23T10:02:27Z</time>
      </trkpt>
      <trkpt lat="42.8980260" lon="1.3232190">
        <ele>600.8</ele>
        <time>2020-07-23T10:02:29Z</time>
      </trkpt>
      <trkpt lat="42.8978940" lon="1.3226520">
        <ele>600.4</ele>
        <time>2020-07-23T10:02:34Z</time>
      </trkpt>
      <trkpt lat="42.8977260" lon="1.3222350">
        <ele>599.8</ele>
        <time>2020-07-23T10:02:38Z</time>
      </trkpt>
      <trkpt lat="42.8976770" lon="1.3221370">
        <ele>599.6</ele>
        <time>2020-07-23T10:02:39Z</time>
      </trkpt>
      <trkpt lat="42.8975330" lon="1.3218440">
        <ele>598.8</ele>
        <time>2020-07-23T10:02:42Z</time>
      </trkpt>
      <trkpt lat="42.8972510" lon="1.3212670">
        <ele>598.4</ele>
        <time>2020-07-23T10:02:48Z</time>
      </trkpt>
      <trkpt lat="42.8972080" lon="1.3211670">
        <ele>598.2</ele>
        <time>2020-07-23T10:02:49Z</time>
      </trkpt>
      <trkpt lat="42.8971310" lon="1.3209630">
        <ele>598.0</ele>
        <time>2020-07-23T10:02:51Z</time>
      </trkpt>
      <trkpt lat="42.8970700" lon="1.3207500">
        <ele>597.6</ele>
        <time>2020-07-23T10:02:53Z</time>
      </trkpt>
      <trkpt lat="42.8970450" lon="1.3206400">
        <ele>597.4</ele>
        <time>2020-07-23T10:02:54Z</time>
      </trkpt>
      <trkpt lat="42.8969650" lon="1.3199580">
        <ele>596.6</ele>
        <time>2020-07-23T10:03:00Z</time>
      </trkpt>
      <trkpt lat="42.8969610" lon="1.3197290">
        <ele>596.4</ele>
        <time>2020-07-23T10:03:02Z</time>
      </trkpt>
      <trkpt lat="42.8969930" lon="1.3193870">
        <ele>596.2</ele>
        <time>2020-07-23T10:03:05Z</time>
      </trkpt>
      <trkpt lat="42.8971390" lon="1.3188550">
        <ele>595.8</ele>
        <time>2020-07-23T10:03:10Z</time>
      </trkpt>
      <trkpt lat="42.8973530" lon="1.3183970">
        <ele>595.2</ele>
        <time>2020-07-23T10:03:15Z</time>
      </trkpt>
      <trkpt lat="42.8973990" lon="1.3183130">
        <ele>595.0</ele>
        <time>2020-07-23T10:03:16Z</time>
      </trkpt>
      <trkpt lat="42.8975270" lon="1.3180650">
        <ele>594.4</ele>
        <time>2020-07-23T10:03:19Z</time>
      </trkpt>
      <trkpt lat="42.8975670" lon="1.3179860">
        <ele>594.2</ele>
        <time>2020-07-23T10:03:20Z</time>
      </trkpt>
      <trkpt lat="42.8976850" lon="1.3177590">
        <ele>594.0</ele>
        <time>2020-07-23T10:03:23Z</time>
      </trkpt>
      <trkpt lat="42.8977580" lon="1.3175960">
        <ele>594.2</ele>
        <time>2020-07-23T10:03:25Z</time>
      </trkpt>
      <trkpt lat="42.8978490" lon="1.3173290">
        <ele>594.4</ele>
        <time>2020-07-23T10:03:28Z</time>
      </trkpt>
      <trkpt lat="42.8978730" lon="1.3172340">
        <ele>594.4</ele>
        <time>2020-07-23T10:03:29Z</time>
      </trkpt>
      <trkpt lat="42.8978950" lon="1.3171380">
        <ele>594.2</ele>
        <time>2020-07-23T10:03:30Z</time>
      </trkpt>
      <trkpt lat="42.8979410" lon="1.3168460">
        <ele>593.8</ele>
        <time>2020-07-23T10:03:33Z</time>
      </trkpt>
      <trkpt lat="42.8979580" lon="1.3166500">
        <ele>593.6</ele>
        <time>2020-07-23T10:03:35Z</time>
      </trkpt>
      <trkpt lat="42.8980040" lon="1.3161580">
        <ele>593.0</ele>
        <time>2020-07-23T10:03:40Z</time>
      </trkpt>
      <trkpt lat="42.8980240" lon="1.3159600">
        <ele>593.0</ele>
        <time>2020-07-23T10:03:42Z</time>
      </trkpt>
      <trkpt lat="42.8980760" lon="1.3154770">
        <ele>592.0</ele>
        <time>2020-07-23T10:03:47Z</time>
      </trkpt>
      <trkpt lat="42.8981190" lon="1.3151020">
        <ele>591.4</ele>
        <time>2020-07-23T10:03:51Z</time>
      </trkpt>
      <trkpt lat="42.8981480" lon="1.3146400">
        <ele>590.8</ele>
        <time>2020-07-23T10:03:56Z</time>
      </trkpt>
      <trkpt lat="42.8981580" lon="1.3144590">
        <ele>590.6</ele>
        <time>2020-07-23T10:03:58Z</time>
      </trkpt>
      <trkpt lat="42.8982100" lon="1.3140960">
        <ele>590.6</ele>
        <time>2020-07-23T10:04:02Z</time>
      </trkpt>
      <trkpt lat="42.8982290" lon="1.3139030">
        <ele>590.8</ele>
        <time>2020-07-23T10:04:04Z</time>
      </trkpt>
      <trkpt lat="42.8982420" lon="1.3138080">
        <ele>590.8</ele>
        <time>2020-07-23T10:04:05Z</time>
      </trkpt>
      <trkpt lat="42.8983100" lon="1.3133320">
        <ele>590.2</ele>
        <time>2020-07-23T10:04:10Z</time>
      </trkpt>
      <trkpt lat="42.8983350" lon="1.3131360">
        <ele>590.0</ele>
        <time>2020-07-23T10:04:12Z</time>
      </trkpt>
      <trkpt lat="42.8983470" lon="1.3130390">
        <ele>589.8</ele>
        <time>2020-07-23T10:04:13Z</time>
      </trkpt>
      <trkpt lat="42.8983990" lon="1.3127470">
        <ele>589.4</ele>
        <time>2020-07-23T10:04:16Z</time>
      </trkpt>
      <trkpt lat="42.8984570" lon="1.3124570">
        <ele>589.0</ele>
        <time>2020-07-23T10:04:19Z</time>
      </trkpt>
      <trkpt lat="42.8985840" lon="1.3118810">
        <ele>589.2</ele>
        <time>2020-07-23T10:04:25Z</time>
      </trkpt>
      <trkpt lat="42.8986530" lon="1.3115870">
        <ele>589.2</ele>
        <time>2020-07-23T10:04:28Z</time>
      </trkpt>
      <trkpt lat="42.8987360" lon="1.3111900">
        <ele>588.6</ele>
        <time>2020-07-23T10:04:32Z</time>
      </trkpt>
      <trkpt lat="42.8987950" lon="1.3108840">
        <ele>588.4</ele>
        <time>2020-07-23T10:04:35Z</time>
      </trkpt>
      <trkpt lat="42.8988350" lon="1.3106750">
        <ele>588.2</ele>
        <time>2020-07-23T10:04:37Z</time>
      </trkpt>
      <trkpt lat="42.8988990" lon="1.3103600">
        <ele>587.4</ele>
        <time>2020-07-23T10:04:40Z</time>
      </trkpt>
      <trkpt lat="42.8989210" lon="1.3102570">
        <ele>587.2</ele>
        <time>2020-07-23T10:04:41Z</time>
      </trkpt>
      <trkpt lat="42.8990630" lon="1.3096260">
        <ele>587.2</ele>
        <time>2020-07-23T10:04:47Z</time>
      </trkpt>
      <trkpt lat="42.8991320" lon="1.3092950">
        <ele>586.4</ele>
        <time>2020-07-23T10:04:50Z</time>
      </trkpt>
      <trkpt lat="42.8991920" lon="1.3090760">
        <ele>586.4</ele>
        <time>2020-07-23T10:04:52Z</time>
      </trkpt>
      <trkpt lat="42.8992760" lon="1.3088730">
        <ele>586.0</ele>
        <time>2020-07-23T10:04:54Z</time>
      </trkpt>
      <trkpt lat="42.8993310" lon="1.3087830">
        <ele>585.8</ele>
        <time>2020-07-23T10:04:55Z</time>
      </trkpt>
      <trkpt lat="42.8993940" lon="1.3087030">
        <ele>585.8</ele>
        <time>2020-07-23T10:04:56Z</time>
      </trkpt>
      <trkpt lat="42.8994630" lon="1.3086330">
        <ele>585.6</ele>
        <time>2020-07-23T10:04:57Z</time>
      </trkpt>
      <trkpt lat="42.8995350" lon="1.3085670">
        <ele>585.6</ele>
        <time>2020-07-23T10:04:58Z</time>
      </trkpt>
      <trkpt lat="42.8996060" lon="1.3084990">
        <ele>585.6</ele>
        <time>2020-07-23T10:04:59Z</time>
      </trkpt>
      <trkpt lat="42.8998050" lon="1.3082860">
        <ele>585.4</ele>
        <time>2020-07-23T10:05:02Z</time>
      </trkpt>
      <trkpt lat="42.8998610" lon="1.3082000">
        <ele>585.4</ele>
        <time>2020-07-23T10:05:03Z</time>
      </trkpt>
      <trkpt lat="42.8999120" lon="1.3081110">
        <ele>585.6</ele>
        <time>2020-07-23T10:05:04Z</time>
      </trkpt>
      <trkpt lat="42.8999530" lon="1.3080140">
        <ele>585.6</ele>
        <time>2020-07-23T10:05:05Z</time>
      </trkpt>
      <trkpt lat="42.8999890" lon="1.3078000">
        <ele>585.6</ele>
        <time>2020-07-23T10:05:07Z</time>
      </trkpt>
      <trkpt lat="42.8999460" lon="1.3073590">
        <ele>585.8</ele>
        <time>2020-07-23T10:05:11Z</time>
      </trkpt>
      <trkpt lat="42.8999380" lon="1.3071480">
        <ele>585.6</ele>
        <time>2020-07-23T10:05:13Z</time>
      </trkpt>
      <trkpt lat="42.8999620" lon="1.3069290">
        <ele>585.4</ele>
        <time>2020-07-23T10:05:15Z</time>
      </trkpt>
      <trkpt lat="42.9001260" lon="1.3062820">
        <ele>584.4</ele>
        <time>2020-07-23T10:05:21Z</time>
      </trkpt>
      <trkpt lat="42.9001580" lon="1.3061780">
        <ele>584.2</ele>
        <time>2020-07-23T10:05:22Z</time>
      </trkpt>
      <trkpt lat="42.9002860" lon="1.3056580">
        <ele>584.0</ele>
        <time>2020-07-23T10:05:27Z</time>
      </trkpt>
      <trkpt lat="42.9002930" lon="1.3055500">
        <ele>584.0</ele>
        <time>2020-07-23T10:05:28Z</time>
      </trkpt>
      <trkpt lat="42.9002830" lon="1.3053380">
        <ele>584.0</ele>
        <time>2020-07-23T10:05:30Z</time>
      </trkpt>
      <trkpt lat="42.9002680" lon="1.3052360">
        <ele>583.8</ele>
        <time>2020-07-23T10:05:31Z</time>
      </trkpt>
      <trkpt lat="42.9002450" lon="1.3051360">
        <ele>583.8</ele>
        <time>2020-07-23T10:05:32Z</time>
      </trkpt>
      <trkpt lat="42.9001640" lon="1.3048310">
        <ele>583.6</ele>
        <time>2020-07-23T10:05:35Z</time>
      </trkpt>
      <trkpt lat="42.9001490" lon="1.3047240">
        <ele>583.4</ele>
        <time>2020-07-23T10:05:36Z</time>
      </trkpt>
      <trkpt lat="42.9001410" lon="1.3046140">
        <ele>583.2</ele>
        <time>2020-07-23T10:05:37Z</time>
      </trkpt>
      <trkpt lat="42.9001440" lon="1.3043930">
        <ele>583.0</ele>
        <time>2020-07-23T10:05:39Z</time>
      </trkpt>
      <trkpt lat="42.9001800" lon="1.3040560">
        <ele>583.0</ele>
        <time>2020-07-23T10:05:42Z</time>
      </trkpt>
      <trkpt lat="42.9002960" lon="1.3035240">
        <ele>582.4</ele>
        <time>2020-07-23T10:05:47Z</time>
      </trkpt>
      <trkpt lat="42.9003540" lon="1.3033180">
        <ele>582.2</ele>
        <time>2020-07-23T10:05:49Z</time>
      </trkpt>
      <trkpt lat="42.9005200" lon="1.3028350">
        <ele>581.6</ele>
        <time>2020-07-23T10:05:54Z</time>
      </trkpt>
      <trkpt lat="42.9005630" lon="1.3027490">
        <ele>581.6</ele>
        <time>2020-07-23T10:05:55Z</time>
      </trkpt>
      <trkpt lat="42.9006600" lon="1.3025910">
        <ele>581.4</ele>
        <time>2020-07-23T10:05:57Z</time>
      </trkpt>
      <trkpt lat="42.9007680" lon="1.3024490">
        <ele>581.2</ele>
        <time>2020-07-23T10:05:59Z</time>
      </trkpt>
      <trkpt lat="42.9008260" lon="1.3023840">
        <ele>581.2</ele>
        <time>2020-07-23T10:06:00Z</time>
      </trkpt>
      <trkpt lat="42.9010430" lon="1.3021110">
        <ele>581.6</ele>
        <time>2020-07-23T10:06:04Z</time>
      </trkpt>
      <trkpt lat="42.9011120" lon="1.3019300">
        <ele>581.6</ele>
        <time>2020-07-23T10:06:06Z</time>
      </trkpt>
      <trkpt lat="42.9011750" lon="1.3015130">
        <ele>581.4</ele>
        <time>2020-07-23T10:06:10Z</time>
      </trkpt>
      <trkpt lat="42.9012380" lon="1.3012080">
        <ele>581.4</ele>
        <time>2020-07-23T10:06:13Z</time>
      </trkpt>
      <trkpt lat="42.9013010" lon="1.3010160">
        <ele>581.2</ele>
        <time>2020-07-23T10:06:15Z</time>
      </trkpt>
      <trkpt lat="42.9013650" lon="1.3008240">
        <ele>580.6</ele>
        <time>2020-07-23T10:06:17Z</time>
      </trkpt>
      <trkpt lat="42.9013990" lon="1.3006070">
        <ele>580.2</ele>
        <time>2020-07-23T10:06:19Z</time>
      </trkpt>
      <trkpt lat="42.9014110" lon="1.3004930">
        <ele>580.0</ele>
        <time>2020-07-23T10:06:20Z</time>
      </trkpt>
      <trkpt lat="42.9014460" lon="1.3000060">
        <ele>579.2</ele>
        <time>2020-07-23T10:06:24Z</time>
      </trkpt>
      <trkpt lat="42.9014590" lon="1.2998850">
        <ele>578.6</ele>
        <time>2020-07-23T10:06:25Z</time>
      </trkpt>
      <trkpt lat="42.9015360" lon="1.2994070">
        <ele>577.6</ele>
        <time>2020-07-23T10:06:29Z</time>
      </trkpt>
      <trkpt lat="42.9015530" lon="1.2992910">
        <ele>577.4</ele>
        <time>2020-07-23T10:06:30Z</time>
      </trkpt>
      <trkpt lat="42.9016860" lon="1.2985870">
        <ele>576.8</ele>
        <time>2020-07-23T10:06:36Z</time>
      </trkpt>
      <trkpt lat="42.9017080" lon="1.2984660">
        <ele>576.6</ele>
        <time>2020-07-23T10:06:37Z</time>
      </trkpt>
      <trkpt lat="42.9017330" lon="1.2983440">
        <ele>576.2</ele>
        <time>2020-07-23T10:06:38Z</time>
      </trkpt>
      <trkpt lat="42.9018880" lon="1.2976230">
        <ele>575.8</ele>
        <time>2020-07-23T10:06:44Z</time>
      </trkpt>
      <trkpt lat="42.9019200" lon="1.2975090">
        <ele>575.8</ele>
        <time>2020-07-23T10:06:45Z</time>
      </trkpt>
      <trkpt lat="42.9021570" lon="1.2968930">
        <ele>575.8</ele>
        <time>2020-07-23T10:06:51Z</time>
      </trkpt>
      <trkpt lat="42.9022700" lon="1.2967280">
        <ele>575.8</ele>
        <time>2020-07-23T10:06:53Z</time>
      </trkpt>
      <trkpt lat="42.9024140" lon="1.2965920">
        <ele>575.8</ele>
        <time>2020-07-23T10:06:55Z</time>
      </trkpt>
      <trkpt lat="42.9028510" lon="1.2962580">
        <ele>576.2</ele>
        <time>2020-07-23T10:07:01Z</time>
      </trkpt>
      <trkpt lat="42.9029210" lon="1.2962060">
        <ele>576.2</ele>
        <time>2020-07-23T10:07:02Z</time>
      </trkpt>
      <trkpt lat="42.9031020" lon="1.2960280">
        <ele>576.6</ele>
        <time>2020-07-23T10:07:05Z</time>
      </trkpt>
      <trkpt lat="42.9031850" lon="1.2958720">
        <ele>577.0</ele>
        <time>2020-07-23T10:07:07Z</time>
      </trkpt>
      <trkpt lat="42.9032360" lon="1.2956870">
        <ele>577.0</ele>
        <time>2020-07-23T10:07:09Z</time>
      </trkpt>
      <trkpt lat="42.9032630" lon="1.2955950">
        <ele>576.8</ele>
        <time>2020-07-23T10:07:10Z</time>
      </trkpt>
      <trkpt lat="42.9032920" lon="1.2955030">
        <ele>576.6</ele>
        <time>2020-07-23T10:07:11Z</time>
      </trkpt>
      <trkpt lat="42.9034550" lon="1.2949220">
        <ele>575.6</ele>
        <time>2020-07-23T10:07:17Z</time>
      </trkpt>
      <trkpt lat="42.9034850" lon="1.2948210">
        <ele>575.4</ele>
        <time>2020-07-23T10:07:18Z</time>
      </trkpt>
      <trkpt lat="42.9035150" lon="1.2947200">
        <ele>575.2</ele>
        <time>2020-07-23T10:07:19Z</time>
      </trkpt>
      <trkpt lat="42.9036280" lon="1.2941890">
        <ele>574.8</ele>
        <time>2020-07-23T10:07:24Z</time>
      </trkpt>
      <trkpt lat="42.9036400" lon="1.2939680">
        <ele>574.6</ele>
        <time>2020-07-23T10:07:26Z</time>
      </trkpt>
      <trkpt lat="42.9036180" lon="1.2937500">
        <ele>574.2</ele>
        <time>2020-07-23T10:07:28Z</time>
      </trkpt>
      <trkpt lat="42.9035870" lon="1.2936430">
        <ele>574.0</ele>
        <time>2020-07-23T10:07:29Z</time>
      </trkpt>
      <trkpt lat="42.9034780" lon="1.2933080">
        <ele>572.8</ele>
        <time>2020-07-23T10:07:32Z</time>
      </trkpt>
      <trkpt lat="42.9034070" lon="1.2930740">
        <ele>571.6</ele>
        <time>2020-07-23T10:07:34Z</time>
      </trkpt>
      <trkpt lat="42.9032580" lon="1.2924790">
        <ele>571.0</ele>
        <time>2020-07-23T10:07:39Z</time>
      </trkpt>
      <trkpt lat="42.9032420" lon="1.2921360">
        <ele>571.2</ele>
        <time>2020-07-23T10:07:42Z</time>
      </trkpt>
      <trkpt lat="42.9032550" lon="1.2920300">
        <ele>571.4</ele>
        <time>2020-07-23T10:07:43Z</time>
      </trkpt>
      <trkpt lat="42.9032910" lon="1.2919370">
        <ele>571.4</ele>
        <time>2020-07-23T10:07:44Z</time>
      </trkpt>
      <trkpt lat="42.9034000" lon="1.2917860">
        <ele>571.4</ele>
        <time>2020-07-23T10:07:46Z</time>
      </trkpt>
      <trkpt lat="42.9035720" lon="1.2917000">
        <ele>571.6</ele>
        <time>2020-07-23T10:07:48Z</time>
      </trkpt>
      <trkpt lat="42.9036520" lon="1.2916790">
        <ele>571.8</ele>
        <time>2020-07-23T10:07:49Z</time>
      </trkpt>
      <trkpt lat="42.9037280" lon="1.2916710">
        <ele>571.8</ele>
        <time>2020-07-23T10:07:50Z</time>
      </trkpt>
      <trkpt lat="42.9038840" lon="1.2916680">
        <ele>572.0</ele>
        <time>2020-07-23T10:07:52Z</time>
      </trkpt>
      <trkpt lat="42.9039630" lon="1.2916730">
        <ele>572.0</ele>
        <time>2020-07-23T10:07:53Z</time>
      </trkpt>
      <trkpt lat="42.9040420" lon="1.2916880">
        <ele>572.0</ele>
        <time>2020-07-23T10:07:54Z</time>
      </trkpt>
      <trkpt lat="42.9042680" lon="1.2917970">
        <ele>571.6</ele>
        <time>2020-07-23T10:07:57Z</time>
      </trkpt>
      <trkpt lat="42.9046470" lon="1.2920040">
        <ele>570.4</ele>
        <time>2020-07-23T10:08:02Z</time>
      </trkpt>
      <trkpt lat="42.9048000" lon="1.2920860">
        <ele>570.2</ele>
        <time>2020-07-23T10:08:04Z</time>
      </trkpt>
      <trkpt lat="42.9048780" lon="1.2921200">
        <ele>570.0</ele>
        <time>2020-07-23T10:08:05Z</time>
      </trkpt>
      <trkpt lat="42.9050300" lon="1.2921650">
        <ele>569.6</ele>
        <time>2020-07-23T10:08:07Z</time>
      </trkpt>
      <trkpt lat="42.9051110" lon="1.2921790">
        <ele>569.4</ele>
        <time>2020-07-23T10:08:08Z</time>
      </trkpt>
      <trkpt lat="42.9051900" lon="1.2921890">
        <ele>569.4</ele>
        <time>2020-07-23T10:08:09Z</time>
      </trkpt>
      <trkpt lat="42.9056700" lon="1.2922130">
        <ele>569.0</ele>
        <time>2020-07-23T10:08:15Z</time>
      </trkpt>
      <trkpt lat="42.9057550" lon="1.2922180">
        <ele>569.0</ele>
        <time>2020-07-23T10:08:16Z</time>
      </trkpt>
      <trkpt lat="42.9058380" lon="1.2922240">
        <ele>569.0</ele>
        <time>2020-07-23T10:08:17Z</time>
      </trkpt>
      <trkpt lat="42.9060770" lon="1.2922610">
        <ele>569.2</ele>
        <time>2020-07-23T10:08:20Z</time>
      </trkpt>
      <trkpt lat="42.9063030" lon="1.2923400">
        <ele>569.2</ele>
        <time>2020-07-23T10:08:23Z</time>
      </trkpt>
      <trkpt lat="42.9067330" lon="1.2924740">
        <ele>568.8</ele>
        <time>2020-07-23T10:08:29Z</time>
      </trkpt>
      <trkpt lat="42.9070230" lon="1.2925130">
        <ele>568.4</ele>
        <time>2020-07-23T10:08:33Z</time>
      </trkpt>
      <trkpt lat="42.9070980" lon="1.2925020">
        <ele>568.2</ele>
        <time>2020-07-23T10:08:34Z</time>
      </trkpt>
      <trkpt lat="42.9071750" lon="1.2924840">
        <ele>568.4</ele>
        <time>2020-07-23T10:08:35Z</time>
      </trkpt>
      <trkpt lat="42.9076240" lon="1.2923390">
        <ele>568.6</ele>
        <time>2020-07-23T10:08:41Z</time>
      </trkpt>
      <trkpt lat="42.9079910" lon="1.2920910">
        <ele>568.8</ele>
        <time>2020-07-23T10:08:46Z</time>
      </trkpt>
      <trkpt lat="42.9081740" lon="1.2918510">
        <ele>568.2</ele>
        <time>2020-07-23T10:08:49Z</time>
      </trkpt>
      <trkpt lat="42.9082230" lon="1.2917490">
        <ele>567.8</ele>
        <time>2020-07-23T10:08:50Z</time>
      </trkpt>
      <trkpt lat="42.9082770" lon="1.2916610">
        <ele>567.4</ele>
        <time>2020-07-23T10:08:51Z</time>
      </trkpt>
      <trkpt lat="42.9085780" lon="1.2911210">
        <ele>566.6</ele>
        <time>2020-07-23T10:08:57Z</time>
      </trkpt>
      <trkpt lat="42.9086150" lon="1.2910170">
        <ele>566.6</ele>
        <time>2020-07-23T10:08:58Z</time>
      </trkpt>
      <trkpt lat="42.9086710" lon="1.2907900">
        <ele>566.2</ele>
        <time>2020-07-23T10:09:00Z</time>
      </trkpt>
      <trkpt lat="42.9086950" lon="1.2906720">
        <ele>565.8</ele>
        <time>2020-07-23T10:09:01Z</time>
      </trkpt>
      <trkpt lat="42.9087270" lon="1.2904290">
        <ele>565.2</ele>
        <time>2020-07-23T10:09:03Z</time>
      </trkpt>
      <trkpt lat="42.9087490" lon="1.2903140">
        <ele>565.0</ele>
        <time>2020-07-23T10:09:04Z</time>
      </trkpt>
      <trkpt lat="42.9087830" lon="1.2900740">
        <ele>564.2</ele>
        <time>2020-07-23T10:09:06Z</time>
      </trkpt>
      <trkpt lat="42.9088150" lon="1.2898220">
        <ele>563.8</ele>
        <time>2020-07-23T10:09:08Z</time>
      </trkpt>
      <trkpt lat="42.9089650" lon="1.2892270">
        <ele>563.0</ele>
        <time>2020-07-23T10:09:13Z</time>
      </trkpt>
      <trkpt lat="42.9090760" lon="1.2888840">
        <ele>562.8</ele>
        <time>2020-07-23T10:09:16Z</time>
      </trkpt>
      <trkpt lat="42.9091780" lon="1.2885480">
        <ele>562.4</ele>
        <time>2020-07-23T10:09:19Z</time>
      </trkpt>
      <trkpt lat="42.9092060" lon="1.2884350">
        <ele>562.4</ele>
        <time>2020-07-23T10:09:20Z</time>
      </trkpt>
      <trkpt lat="42.9093930" lon="1.2877990">
        <ele>562.0</ele>
        <time>2020-07-23T10:09:26Z</time>
      </trkpt>
      <trkpt lat="42.9094230" lon="1.2876990">
        <ele>562.0</ele>
        <time>2020-07-23T10:09:27Z</time>
      </trkpt>
      <trkpt lat="42.9095150" lon="1.2874010">
        <ele>562.2</ele>
        <time>2020-07-23T10:09:30Z</time>
      </trkpt>
      <trkpt lat="42.9095550" lon="1.2873050">
        <ele>562.4</ele>
        <time>2020-07-23T10:09:31Z</time>
      </trkpt>
      <trkpt lat="42.9095950" lon="1.2872120">
        <ele>562.6</ele>
        <time>2020-07-23T10:09:32Z</time>
      </trkpt>
      <trkpt lat="42.9096650" lon="1.2870250">
        <ele>562.4</ele>
        <time>2020-07-23T10:09:34Z</time>
      </trkpt>
      <trkpt lat="42.9098020" lon="1.2866820">
        <ele>562.2</ele>
        <time>2020-07-23T10:09:38Z</time>
      </trkpt>
      <trkpt lat="42.9098660" lon="1.2865120">
        <ele>562.0</ele>
        <time>2020-07-23T10:09:40Z</time>
      </trkpt>
      <trkpt lat="42.9098970" lon="1.2864210">
        <ele>562.0</ele>
        <time>2020-07-23T10:09:41Z</time>
      </trkpt>
      <trkpt lat="42.9100400" lon="1.2859300">
        <ele>562.0</ele>
        <time>2020-07-23T10:09:46Z</time>
      </trkpt>
      <trkpt lat="42.9100850" lon="1.2857180">
        <ele>561.4</ele>
        <time>2020-07-23T10:09:48Z</time>
      </trkpt>
      <trkpt lat="42.9101670" lon="1.2852850">
        <ele>560.8</ele>
        <time>2020-07-23T10:09:52Z</time>
      </trkpt>
      <trkpt lat="42.9102620" lon="1.2848490">
        <ele>560.4</ele>
        <time>2020-07-23T10:09:56Z</time>
      </trkpt>
      <trkpt lat="42.9103240" lon="1.2845280">
        <ele>560.2</ele>
        <time>2020-07-23T10:09:59Z</time>
      </trkpt>
      <trkpt lat="42.9103790" lon="1.2838720">
        <ele>559.4</ele>
        <time>2020-07-23T10:10:05Z</time>
      </trkpt>
      <trkpt lat="42.9103830" lon="1.2837650">
        <ele>559.2</ele>
        <time>2020-07-23T10:10:06Z</time>
      </trkpt>
      <trkpt lat="42.9104280" lon="1.2831510">
        <ele>559.2</ele>
        <time>2020-07-23T10:10:12Z</time>
      </trkpt>
      <trkpt lat="42.9104350" lon="1.2830480">
        <ele>559.2</ele>
        <time>2020-07-23T10:10:13Z</time>
      </trkpt>
      <trkpt lat="42.9105190" lon="1.2826690">
        <ele>559.0</ele>
        <time>2020-07-23T10:10:17Z</time>
      </trkpt>
      <trkpt lat="42.9105750" lon="1.2824810">
        <ele>559.0</ele>
        <time>2020-07-23T10:10:19Z</time>
      </trkpt>
      <trkpt lat="42.9106300" lon="1.2822010">
        <ele>558.8</ele>
        <time>2020-07-23T10:10:22Z</time>
      </trkpt>
      <trkpt lat="42.9106200" lon="1.2819990">
        <ele>559.0</ele>
        <time>2020-07-23T10:10:24Z</time>
      </trkpt>
      <trkpt lat="42.9105580" lon="1.2816280">
        <ele>559.2</ele>
        <time>2020-07-23T10:10:28Z</time>
      </trkpt>
      <trkpt lat="42.9105230" lon="1.2815430">
        <ele>559.2</ele>
        <time>2020-07-23T10:10:29Z</time>
      </trkpt>
      <trkpt lat="42.9104830" lon="1.2814730">
        <ele>559.2</ele>
        <time>2020-07-23T10:10:30Z</time>
      </trkpt>
      <trkpt lat="42.9103790" lon="1.2813480">
        <ele>559.2</ele>
        <time>2020-07-23T10:10:32Z</time>
      </trkpt>
      <trkpt lat="42.9103220" lon="1.2812930">
        <ele>559.4</ele>
        <time>2020-07-23T10:10:33Z</time>
      </trkpt>
      <trkpt lat="42.9099690" lon="1.2810330">
        <ele>560.0</ele>
        <time>2020-07-23T10:10:39Z</time>
      </trkpt>
      <trkpt lat="42.9098340" lon="1.2809760">
        <ele>559.8</ele>
        <time>2020-07-23T10:10:41Z</time>
      </trkpt>
      <trkpt lat="42.9096920" lon="1.2809640">
        <ele>559.0</ele>
        <time>2020-07-23T10:10:43Z</time>
      </trkpt>
      <trkpt lat="42.9094770" lon="1.2809610">
        <ele>558.2</ele>
        <time>2020-07-23T10:10:46Z</time>
      </trkpt>
      <trkpt lat="42.9092600" lon="1.2809690">
        <ele>557.8</ele>
        <time>2020-07-23T10:10:49Z</time>
      </trkpt>
      <trkpt lat="42.9091900" lon="1.2809740">
        <ele>557.6</ele>
        <time>2020-07-23T10:10:50Z</time>
      </trkpt>
      <trkpt lat="42.9087820" lon="1.2809130">
        <ele>558.4</ele>
        <time>2020-07-23T10:10:56Z</time>
      </trkpt>
      <trkpt lat="42.9086080" lon="1.2808790">
        <ele>556.8</ele>
        <time>2020-07-23T10:10:59Z</time>
      </trkpt>
      <trkpt lat="42.9084230" lon="1.2808750">
        <ele>556.2</ele>
        <time>2020-07-23T10:11:02Z</time>
      </trkpt>
      <trkpt lat="42.9080540" lon="1.2807660">
        <ele>556.2</ele>
        <time>2020-07-23T10:11:08Z</time>
      </trkpt>
      <trkpt lat="42.9080050" lon="1.2807320">
        <ele>556.2</ele>
        <time>2020-07-23T10:11:09Z</time>
      </trkpt>
      <trkpt lat="42.9079530" lon="1.2806840">
        <ele>556.4</ele>
        <time>2020-07-23T10:11:10Z</time>
      </trkpt>
      <trkpt lat="42.9078490" lon="1.2805800">
        <ele>556.4</ele>
        <time>2020-07-23T10:11:12Z</time>
      </trkpt>
      <trkpt lat="42.9078060" lon="1.2805140">
        <ele>556.4</ele>
        <time>2020-07-23T10:11:13Z</time>
      </trkpt>
      <trkpt lat="42.9077420" lon="1.2803520">
        <ele>556.4</ele>
        <time>2020-07-23T10:11:15Z</time>
      </trkpt>
      <trkpt lat="42.9077280" lon="1.2802640">
        <ele>556.6</ele>
        <time>2020-07-23T10:11:16Z</time>
      </trkpt>
      <trkpt lat="42.9077240" lon="1.2801740">
        <ele>556.8</ele>
        <time>2020-07-23T10:11:17Z</time>
      </trkpt>
      <trkpt lat="42.9077240" lon="1.2800800">
        <ele>556.8</ele>
        <time>2020-07-23T10:11:18Z</time>
      </trkpt>
      <trkpt lat="42.9077340" lon="1.2799910">
        <ele>556.6</ele>
        <time>2020-07-23T10:11:19Z</time>
      </trkpt>
      <trkpt lat="42.9077490" lon="1.2799040">
        <ele>556.4</ele>
        <time>2020-07-23T10:11:20Z</time>
      </trkpt>
      <trkpt lat="42.9078050" lon="1.2797340">
        <ele>555.8</ele>
        <time>2020-07-23T10:11:22Z</time>
      </trkpt>
      <trkpt lat="42.9078500" lon="1.2796520">
        <ele>555.6</ele>
        <time>2020-07-23T10:11:23Z</time>
      </trkpt>
      <trkpt lat="42.9078940" lon="1.2795720">
        <ele>555.4</ele>
        <time>2020-07-23T10:11:24Z</time>
      </trkpt>
      <trkpt lat="42.9081500" lon="1.2790840">
        <ele>555.2</ele>
        <time>2020-07-23T10:11:30Z</time>
      </trkpt>
      <trkpt lat="42.9081880" lon="1.2790050">
        <ele>555.0</ele>
        <time>2020-07-23T10:11:31Z</time>
      </trkpt>
      <trkpt lat="42.9083530" lon="1.2785980">
        <ele>554.6</ele>
        <time>2020-07-23T10:11:36Z</time>
      </trkpt>
      <trkpt lat="42.9083850" lon="1.2785190">
        <ele>554.4</ele>
        <time>2020-07-23T10:11:37Z</time>
      </trkpt>
      <trkpt lat="42.9084480" lon="1.2783630">
        <ele>553.4</ele>
        <time>2020-07-23T10:11:39Z</time>
      </trkpt>
      <trkpt lat="42.9085710" lon="1.2781230">
        <ele>552.4</ele>
        <time>2020-07-23T10:11:42Z</time>
      </trkpt>
      <trkpt lat="42.9086160" lon="1.2780400">
        <ele>552.0</ele>
        <time>2020-07-23T10:11:43Z</time>
      </trkpt>
      <trkpt lat="42.9087470" lon="1.2777760">
        <ele>551.2</ele>
        <time>2020-07-23T10:11:46Z</time>
      </trkpt>
      <trkpt lat="42.9088540" lon="1.2774940">
        <ele>551.0</ele>
        <time>2020-07-23T10:11:49Z</time>
      </trkpt>
      <trkpt lat="42.9090540" lon="1.2769160">
        <ele>551.4</ele>
        <time>2020-07-23T10:11:55Z</time>
      </trkpt>
      <trkpt lat="42.9091330" lon="1.2766350">
        <ele>551.2</ele>
        <time>2020-07-23T10:11:58Z</time>
      </trkpt>
      <trkpt lat="42.9091650" lon="1.2764540">
        <ele>551.0</ele>
        <time>2020-07-23T10:12:00Z</time>
      </trkpt>
      <trkpt lat="42.9091700" lon="1.2763640">
        <ele>551.0</ele>
        <time>2020-07-23T10:12:01Z</time>
      </trkpt>
      <trkpt lat="42.9091650" lon="1.2762720">
        <ele>550.8</ele>
        <time>2020-07-23T10:12:02Z</time>
      </trkpt>
      <trkpt lat="42.9091510" lon="1.2761840">
        <ele>550.6</ele>
        <time>2020-07-23T10:12:03Z</time>
      </trkpt>
      <trkpt lat="42.9090970" lon="1.2760160">
        <ele>550.4</ele>
        <time>2020-07-23T10:12:05Z</time>
      </trkpt>
      <trkpt lat="42.9090140" lon="1.2758590">
        <ele>550.4</ele>
        <time>2020-07-23T10:12:07Z</time>
      </trkpt>
      <trkpt lat="42.9089630" lon="1.2757930">
        <ele>550.4</ele>
        <time>2020-07-23T10:12:08Z</time>
      </trkpt>
      <trkpt lat="42.9089080" lon="1.2757400">
        <ele>550.4</ele>
        <time>2020-07-23T10:12:09Z</time>
      </trkpt>
      <trkpt lat="42.9088440" lon="1.2757000">
        <ele>550.2</ele>
        <time>2020-07-23T10:12:10Z</time>
      </trkpt>
      <trkpt lat="42.9087080" lon="1.2756460">
        <ele>550.0</ele>
        <time>2020-07-23T10:12:12Z</time>
      </trkpt>
      <trkpt lat="42.9084930" lon="1.2755800">
        <ele>549.6</ele>
        <time>2020-07-23T10:12:15Z</time>
      </trkpt>
      <trkpt lat="42.9082260" lon="1.2754450">
        <ele>549.4</ele>
        <time>2020-07-23T10:12:19Z</time>
      </trkpt>
      <trkpt lat="42.9081630" lon="1.2753920">
        <ele>549.4</ele>
        <time>2020-07-23T10:12:20Z</time>
      </trkpt>
      <trkpt lat="42.9081060" lon="1.2753260">
        <ele>549.2</ele>
        <time>2020-07-23T10:12:21Z</time>
      </trkpt>
      <trkpt lat="42.9079500" lon="1.2750940">
        <ele>549.0</ele>
        <time>2020-07-23T10:12:24Z</time>
      </trkpt>
      <trkpt lat="42.9079070" lon="1.2750020">
        <ele>549.0</ele>
        <time>2020-07-23T10:12:25Z</time>
      </trkpt>
      <trkpt lat="42.9078730" lon="1.2749050">
        <ele>548.8</ele>
        <time>2020-07-23T10:12:26Z</time>
      </trkpt>
      <trkpt lat="42.9078320" lon="1.2746990">
        <ele>548.8</ele>
        <time>2020-07-23T10:12:28Z</time>
      </trkpt>
      <trkpt lat="42.9078330" lon="1.2744990">
        <ele>548.4</ele>
        <time>2020-07-23T10:12:30Z</time>
      </trkpt>
      <trkpt lat="42.9078790" lon="1.2743160">
        <ele>548.2</ele>
        <time>2020-07-23T10:12:32Z</time>
      </trkpt>
      <trkpt lat="42.9079740" lon="1.2741720">
        <ele>548.2</ele>
        <time>2020-07-23T10:12:34Z</time>
      </trkpt>
      <trkpt lat="42.9080420" lon="1.2741120">
        <ele>548.2</ele>
        <time>2020-07-23T10:12:35Z</time>
      </trkpt>
      <trkpt lat="42.9081230" lon="1.2740630">
        <ele>548.2</ele>
        <time>2020-07-23T10:12:36Z</time>
      </trkpt>
      <trkpt lat="42.9083430" lon="1.2739240">
        <ele>547.8</ele>
        <time>2020-07-23T10:12:39Z</time>
      </trkpt>
      <trkpt lat="42.9084680" lon="1.2738010">
        <ele>547.2</ele>
        <time>2020-07-23T10:12:41Z</time>
      </trkpt>
      <trkpt lat="42.9085130" lon="1.2737170">
        <ele>546.8</ele>
        <time>2020-07-23T10:12:42Z</time>
      </trkpt>
      <trkpt lat="42.9085350" lon="1.2736210">
        <ele>546.2</ele>
        <time>2020-07-23T10:12:43Z</time>
      </trkpt>
      <trkpt lat="42.9085330" lon="1.2735180">
        <ele>545.8</ele>
        <time>2020-07-23T10:12:44Z</time>
      </trkpt>
      <trkpt lat="42.9085170" lon="1.2734180">
        <ele>545.4</ele>
        <time>2020-07-23T10:12:45Z</time>
      </trkpt>
      <trkpt lat="42.9084930" lon="1.2733180">
        <ele>545.0</ele>
        <time>2020-07-23T10:12:46Z</time>
      </trkpt>
      <trkpt lat="42.9084480" lon="1.2731030">
        <ele>544.6</ele>
        <time>2020-07-23T10:12:48Z</time>
      </trkpt>
      <trkpt lat="42.9084160" lon="1.2727820">
        <ele>543.8</ele>
        <time>2020-07-23T10:12:51Z</time>
      </trkpt>
      <trkpt lat="42.9084220" lon="1.2726780">
        <ele>543.6</ele>
        <time>2020-07-23T10:12:52Z</time>
      </trkpt>
      <trkpt lat="42.9084310" lon="1.2724710">
        <ele>543.4</ele>
        <time>2020-07-23T10:12:54Z</time>
      </trkpt>
      <trkpt lat="42.9084530" lon="1.2723750">
        <ele>543.4</ele>
        <time>2020-07-23T10:12:55Z</time>
      </trkpt>
      <trkpt lat="42.9084810" lon="1.2722840">
        <ele>543.8</ele>
        <time>2020-07-23T10:12:56Z</time>
      </trkpt>
      <trkpt lat="42.9085130" lon="1.2721940">
        <ele>544.6</ele>
        <time>2020-07-23T10:12:57Z</time>
      </trkpt>
      <trkpt lat="42.9085570" lon="1.2721160">
        <ele>545.0</ele>
        <time>2020-07-23T10:12:58Z</time>
      </trkpt>
      <trkpt lat="42.9086970" lon="1.2719920">
        <ele>545.4</ele>
        <time>2020-07-23T10:13:00Z</time>
      </trkpt>
      <trkpt lat="42.9088480" lon="1.2719010">
        <ele>544.4</ele>
        <time>2020-07-23T10:13:02Z</time>
      </trkpt>
      <trkpt lat="42.9089310" lon="1.2718700">
        <ele>543.8</ele>
        <time>2020-07-23T10:13:03Z</time>
      </trkpt>
      <trkpt lat="42.9090080" lon="1.2718450">
        <ele>543.4</ele>
        <time>2020-07-23T10:13:04Z</time>
      </trkpt>
      <trkpt lat="42.9090870" lon="1.2718390">
        <ele>543.0</ele>
        <time>2020-07-23T10:13:05Z</time>
      </trkpt>
      <trkpt lat="42.9091690" lon="1.2718400">
        <ele>542.6</ele>
        <time>2020-07-23T10:13:06Z</time>
      </trkpt>
      <trkpt lat="42.9092500" lon="1.2718510">
        <ele>542.2</ele>
        <time>2020-07-23T10:13:07Z</time>
      </trkpt>
      <trkpt lat="42.9096840" lon="1.2719250">
        <ele>541.4</ele>
        <time>2020-07-23T10:13:12Z</time>
      </trkpt>
      <trkpt lat="42.9098560" lon="1.2719310">
        <ele>541.0</ele>
        <time>2020-07-23T10:13:14Z</time>
      </trkpt>
      <trkpt lat="42.9101850" lon="1.2719070">
        <ele>540.4</ele>
        <time>2020-07-23T10:13:18Z</time>
      </trkpt>
      <trkpt lat="42.9105430" lon="1.2717610">
        <ele>540.0</ele>
        <time>2020-07-23T10:13:23Z</time>
      </trkpt>
      <trkpt lat="42.9105980" lon="1.2717010">
        <ele>540.0</ele>
        <time>2020-07-23T10:13:24Z</time>
      </trkpt>
      <trkpt lat="42.9107040" lon="1.2715370">
        <ele>539.8</ele>
        <time>2020-07-23T10:13:26Z</time>
      </trkpt>
      <trkpt lat="42.9107680" lon="1.2713270">
        <ele>539.8</ele>
        <time>2020-07-23T10:13:28Z</time>
      </trkpt>
      <trkpt lat="42.9107870" lon="1.2712120">
        <ele>539.8</ele>
        <time>2020-07-23T10:13:29Z</time>
      </trkpt>
      <trkpt lat="42.9107990" lon="1.2710940">
        <ele>539.8</ele>
        <time>2020-07-23T10:13:30Z</time>
      </trkpt>
      <trkpt lat="42.9108130" lon="1.2708640">
        <ele>539.8</ele>
        <time>2020-07-23T10:13:32Z</time>
      </trkpt>
      <trkpt lat="42.9108090" lon="1.2707470">
        <ele>539.6</ele>
        <time>2020-07-23T10:13:33Z</time>
      </trkpt>
      <trkpt lat="42.9108030" lon="1.2705170">
        <ele>538.6</ele>
        <time>2020-07-23T10:13:35Z</time>
      </trkpt>
      <trkpt lat="42.9107690" lon="1.2700800">
        <ele>538.4</ele>
        <time>2020-07-23T10:13:39Z</time>
      </trkpt>
      <trkpt lat="42.9107350" lon="1.2696340">
        <ele>538.4</ele>
        <time>2020-07-23T10:13:43Z</time>
      </trkpt>
      <trkpt lat="42.9107550" lon="1.2695330">
        <ele>538.2</ele>
        <time>2020-07-23T10:13:44Z</time>
      </trkpt>
      <trkpt lat="42.9108020" lon="1.2694450">
        <ele>538.0</ele>
        <time>2020-07-23T10:13:45Z</time>
      </trkpt>
      <trkpt lat="42.9109160" lon="1.2692890">
        <ele>537.4</ele>
        <time>2020-07-23T10:13:47Z</time>
      </trkpt>
      <trkpt lat="42.9110630" lon="1.2691860">
        <ele>537.2</ele>
        <time>2020-07-23T10:13:49Z</time>
      </trkpt>
      <trkpt lat="42.9111420" lon="1.2691490">
        <ele>537.0</ele>
        <time>2020-07-23T10:13:50Z</time>
      </trkpt>
      <trkpt lat="42.9112920" lon="1.2690860">
        <ele>536.4</ele>
        <time>2020-07-23T10:13:52Z</time>
      </trkpt>
      <trkpt lat="42.9115090" lon="1.2689960">
        <ele>535.8</ele>
        <time>2020-07-23T10:13:55Z</time>
      </trkpt>
      <trkpt lat="42.9116460" lon="1.2689190">
        <ele>536.2</ele>
        <time>2020-07-23T10:13:57Z</time>
      </trkpt>
      <trkpt lat="42.9119290" lon="1.2687360">
        <ele>536.6</ele>
        <time>2020-07-23T10:14:01Z</time>
      </trkpt>
      <trkpt lat="42.9122360" lon="1.2683790">
        <ele>536.0</ele>
        <time>2020-07-23T10:14:06Z</time>
      </trkpt>
      <trkpt lat="42.9124190" lon="1.2681400">
        <ele>535.2</ele>
        <time>2020-07-23T10:14:09Z</time>
      </trkpt>
      <trkpt lat="42.9126550" lon="1.2678240">
        <ele>534.8</ele>
        <time>2020-07-23T10:14:13Z</time>
      </trkpt>
      <trkpt lat="42.9128960" lon="1.2675120">
        <ele>534.2</ele>
        <time>2020-07-23T10:14:17Z</time>
      </trkpt>
      <trkpt lat="42.9130210" lon="1.2673600">
        <ele>534.0</ele>
        <time>2020-07-23T10:14:19Z</time>
      </trkpt>
      <trkpt lat="42.9133630" lon="1.2670680">
        <ele>533.8</ele>
        <time>2020-07-23T10:14:24Z</time>
      </trkpt>
      <trkpt lat="42.9134380" lon="1.2670290">
        <ele>533.8</ele>
        <time>2020-07-23T10:14:25Z</time>
      </trkpt>
      <trkpt lat="42.9135090" lon="1.2669780">
        <ele>533.8</ele>
        <time>2020-07-23T10:14:26Z</time>
      </trkpt>
      <trkpt lat="42.9138540" lon="1.2667290">
        <ele>533.6</ele>
        <time>2020-07-23T10:14:31Z</time>
      </trkpt>
      <trkpt lat="42.9142020" lon="1.2664720">
        <ele>533.6</ele>
        <time>2020-07-23T10:14:36Z</time>
      </trkpt>
      <trkpt lat="42.9142690" lon="1.2664200">
        <ele>533.4</ele>
        <time>2020-07-23T10:14:37Z</time>
      </trkpt>
      <trkpt lat="42.9144030" lon="1.2663100">
        <ele>533.4</ele>
        <time>2020-07-23T10:14:39Z</time>
      </trkpt>
      <trkpt lat="42.9147550" lon="1.2659120">
        <ele>533.6</ele>
        <time>2020-07-23T10:14:45Z</time>
      </trkpt>
      <trkpt lat="42.9149840" lon="1.2655080">
        <ele>534.0</ele>
        <time>2020-07-23T10:14:50Z</time>
      </trkpt>
      <trkpt lat="42.9152620" lon="1.2650590">
        <ele>533.6</ele>
        <time>2020-07-23T10:14:56Z</time>
      </trkpt>
      <trkpt lat="42.9153100" lon="1.2649830">
        <ele>533.4</ele>
        <time>2020-07-23T10:14:57Z</time>
      </trkpt>
      <trkpt lat="42.9154370" lon="1.2647320">
        <ele>533.0</ele>
        <time>2020-07-23T10:15:00Z</time>
      </trkpt>
      <trkpt lat="42.9155230" lon="1.2644510">
        <ele>532.4</ele>
        <time>2020-07-23T10:15:03Z</time>
      </trkpt>
      <trkpt lat="42.9154880" lon="1.2642490">
        <ele>532.2</ele>
        <time>2020-07-23T10:15:05Z</time>
      </trkpt>
      <trkpt lat="42.9154370" lon="1.2641690">
        <ele>532.2</ele>
        <time>2020-07-23T10:15:06Z</time>
      </trkpt>
      <trkpt lat="42.9153690" lon="1.2641170">
        <ele>532.0</ele>
        <time>2020-07-23T10:15:07Z</time>
      </trkpt>
      <trkpt lat="42.9152080" lon="1.2640900">
        <ele>532.0</ele>
        <time>2020-07-23T10:15:09Z</time>
      </trkpt>
      <trkpt lat="42.9148480" lon="1.2641590">
        <ele>531.6</ele>
        <time>2020-07-23T10:15:13Z</time>
      </trkpt>
      <trkpt lat="42.9144930" lon="1.2642130">
        <ele>531.0</ele>
        <time>2020-07-23T10:15:17Z</time>
      </trkpt>
      <trkpt lat="42.9142560" lon="1.2642230">
        <ele>530.8</ele>
        <time>2020-07-23T10:15:20Z</time>
      </trkpt>
      <trkpt lat="42.9137930" lon="1.2641140">
        <ele>530.0</ele>
        <time>2020-07-23T10:15:26Z</time>
      </trkpt>
      <trkpt lat="42.9137170" lon="1.2640570">
        <ele>529.8</ele>
        <time>2020-07-23T10:15:27Z</time>
      </trkpt>
      <trkpt lat="42.9136410" lon="1.2639820">
        <ele>529.8</ele>
        <time>2020-07-23T10:15:28Z</time>
      </trkpt>
      <trkpt lat="42.9135780" lon="1.2639060">
        <ele>529.8</ele>
        <time>2020-07-23T10:15:29Z</time>
      </trkpt>
      <trkpt lat="42.9135190" lon="1.2638030">
        <ele>529.8</ele>
        <time>2020-07-23T10:15:30Z</time>
      </trkpt>
      <trkpt lat="42.9134410" lon="1.2635680">
        <ele>529.8</ele>
        <time>2020-07-23T10:15:32Z</time>
      </trkpt>
      <trkpt lat="42.9134320" lon="1.2633300">
        <ele>530.2</ele>
        <time>2020-07-23T10:15:34Z</time>
      </trkpt>
      <trkpt lat="42.9134490" lon="1.2632230">
        <ele>530.2</ele>
        <time>2020-07-23T10:15:35Z</time>
      </trkpt>
      <trkpt lat="42.9134770" lon="1.2631150">
        <ele>530.4</ele>
        <time>2020-07-23T10:15:36Z</time>
      </trkpt>
      <trkpt lat="42.9135640" lon="1.2627880">
        <ele>530.6</ele>
        <time>2020-07-23T10:15:39Z</time>
      </trkpt>
      <trkpt lat="42.9137970" lon="1.2622660">
        <ele>529.8</ele>
        <time>2020-07-23T10:15:44Z</time>
      </trkpt>
      <trkpt lat="42.9140350" lon="1.2616330">
        <ele>528.8</ele>
        <time>2020-07-23T10:15:50Z</time>
      </trkpt>
      <trkpt lat="42.9140690" lon="1.2614070">
        <ele>528.4</ele>
        <time>2020-07-23T10:15:52Z</time>
      </trkpt>
      <trkpt lat="42.9140620" lon="1.2611740">
        <ele>528.2</ele>
        <time>2020-07-23T10:15:54Z</time>
      </trkpt>
      <trkpt lat="42.9140080" lon="1.2609500">
        <ele>528.2</ele>
        <time>2020-07-23T10:15:56Z</time>
      </trkpt>
      <trkpt lat="42.9139760" lon="1.2608450">
        <ele>528.2</ele>
        <time>2020-07-23T10:15:57Z</time>
      </trkpt>
      <trkpt lat="42.9138680" lon="1.2605410">
        <ele>528.0</ele>
        <time>2020-07-23T10:16:00Z</time>
      </trkpt>
      <trkpt lat="42.9137690" lon="1.2603410">
        <ele>527.8</ele>
        <time>2020-07-23T10:16:02Z</time>
      </trkpt>
      <trkpt lat="42.9137300" lon="1.2602390">
        <ele>527.8</ele>
        <time>2020-07-23T10:16:03Z</time>
      </trkpt>
      <trkpt lat="42.9136720" lon="1.2600240">
        <ele>527.4</ele>
        <time>2020-07-23T10:16:05Z</time>
      </trkpt>
      <trkpt lat="42.9136720" lon="1.2599140">
        <ele>527.4</ele>
        <time>2020-07-23T10:16:06Z</time>
      </trkpt>
      <trkpt lat="42.9136840" lon="1.2598050">
        <ele>527.4</ele>
        <time>2020-07-23T10:16:07Z</time>
      </trkpt>
      <trkpt lat="42.9137560" lon="1.2595980">
        <ele>527.2</ele>
        <time>2020-07-23T10:16:09Z</time>
      </trkpt>
      <trkpt lat="42.9138620" lon="1.2594200">
        <ele>527.2</ele>
        <time>2020-07-23T10:16:11Z</time>
      </trkpt>
      <trkpt lat="42.9139290" lon="1.2593380">
        <ele>527.2</ele>
        <time>2020-07-23T10:16:12Z</time>
      </trkpt>
      <trkpt lat="42.9141500" lon="1.2589930">
        <ele>526.6</ele>
        <time>2020-07-23T10:16:16Z</time>
      </trkpt>
      <trkpt lat="42.9141760" lon="1.2588810">
        <ele>526.4</ele>
        <time>2020-07-23T10:16:17Z</time>
      </trkpt>
      <trkpt lat="42.9141990" lon="1.2587730">
        <ele>526.4</ele>
        <time>2020-07-23T10:16:18Z</time>
      </trkpt>
      <trkpt lat="42.9142160" lon="1.2586670">
        <ele>526.4</ele>
        <time>2020-07-23T10:16:19Z</time>
      </trkpt>
      <trkpt lat="42.9142160" lon="1.2584550">
        <ele>526.0</ele>
        <time>2020-07-23T10:16:21Z</time>
      </trkpt>
      <trkpt lat="42.9141660" lon="1.2582470">
        <ele>525.6</ele>
        <time>2020-07-23T10:16:23Z</time>
      </trkpt>
      <trkpt lat="42.9141350" lon="1.2581440">
        <ele>525.4</ele>
        <time>2020-07-23T10:16:24Z</time>
      </trkpt>
      <trkpt lat="42.9140570" lon="1.2579500">
        <ele>525.0</ele>
        <time>2020-07-23T10:16:26Z</time>
      </trkpt>
      <trkpt lat="42.9139720" lon="1.2577720">
        <ele>525.0</ele>
        <time>2020-07-23T10:16:28Z</time>
      </trkpt>
      <trkpt lat="42.9136780" lon="1.2572500">
        <ele>524.8</ele>
        <time>2020-07-23T10:16:34Z</time>
      </trkpt>
      <trkpt lat="42.9136450" lon="1.2571510">
        <ele>524.6</ele>
        <time>2020-07-23T10:16:35Z</time>
      </trkpt>
      <trkpt lat="42.9136010" lon="1.2569350">
        <ele>524.6</ele>
        <time>2020-07-23T10:16:37Z</time>
      </trkpt>
      <trkpt lat="42.9136020" lon="1.2567220">
        <ele>524.8</ele>
        <time>2020-07-23T10:16:39Z</time>
      </trkpt>
      <trkpt lat="42.9136150" lon="1.2565130">
        <ele>525.2</ele>
        <time>2020-07-23T10:16:41Z</time>
      </trkpt>
      <trkpt lat="42.9136340" lon="1.2563090">
        <ele>525.4</ele>
        <time>2020-07-23T10:16:43Z</time>
      </trkpt>
      <trkpt lat="42.9136620" lon="1.2561190">
        <ele>525.4</ele>
        <time>2020-07-23T10:16:45Z</time>
      </trkpt>
      <trkpt lat="42.9137430" lon="1.2557670">
        <ele>525.8</ele>
        <time>2020-07-23T10:16:49Z</time>
      </trkpt>
      <trkpt lat="42.9137480" lon="1.2556780">
        <ele>526.0</ele>
        <time>2020-07-23T10:16:50Z</time>
      </trkpt>
      <trkpt lat="42.9137290" lon="1.2556030">
        <ele>526.0</ele>
        <time>2020-07-23T10:16:51Z</time>
      </trkpt>
      <trkpt lat="42.9136620" lon="1.2554710">
        <ele>526.2</ele>
        <time>2020-07-23T10:16:53Z</time>
      </trkpt>
      <trkpt lat="42.9135720" lon="1.2553650">
        <ele>526.4</ele>
        <time>2020-07-23T10:16:55Z</time>
      </trkpt>
      <trkpt lat="42.9134830" lon="1.2552470">
        <ele>527.0</ele>
        <time>2020-07-23T10:16:57Z</time>
      </trkpt>
      <trkpt lat="42.9134050" lon="1.2551190">
        <ele>527.6</ele>
        <time>2020-07-23T10:16:59Z</time>
      </trkpt>
      <trkpt lat="42.9133380" lon="1.2549850">
        <ele>527.8</ele>
        <time>2020-07-23T10:17:01Z</time>
      </trkpt>
      <trkpt lat="42.9132830" lon="1.2548500">
        <ele>527.8</ele>
        <time>2020-07-23T10:17:03Z</time>
      </trkpt>
      <trkpt lat="42.9132290" lon="1.2546990">
        <ele>527.8</ele>
        <time>2020-07-23T10:17:05Z</time>
      </trkpt>
      <trkpt lat="42.9132010" lon="1.2546260">
        <ele>527.8</ele>
        <time>2020-07-23T10:17:06Z</time>
      </trkpt>
      <trkpt lat="42.9131190" lon="1.2545100">
        <ele>527.6</ele>
        <time>2020-07-23T10:17:08Z</time>
      </trkpt>
      <trkpt lat="42.9129960" lon="1.2544520">
        <ele>527.2</ele>
        <time>2020-07-23T10:17:10Z</time>
      </trkpt>
      <trkpt lat="42.9129240" lon="1.2544620">
        <ele>527.2</ele>
        <time>2020-07-23T10:17:11Z</time>
      </trkpt>
      <trkpt lat="42.9128530" lon="1.2544850">
        <ele>527.2</ele>
        <time>2020-07-23T10:17:12Z</time>
      </trkpt>
      <trkpt lat="42.9127260" lon="1.2545800">
        <ele>527.0</ele>
        <time>2020-07-23T10:17:14Z</time>
      </trkpt>
      <trkpt lat="42.9126710" lon="1.2546390">
        <ele>526.8</ele>
        <time>2020-07-23T10:17:15Z</time>
      </trkpt>
      <trkpt lat="42.9126180" lon="1.2546960">
        <ele>526.4</ele>
        <time>2020-07-23T10:17:16Z</time>
      </trkpt>
      <trkpt lat="42.9125160" lon="1.2547940">
        <ele>526.6</ele>
        <time>2020-07-23T10:17:18Z</time>
      </trkpt>
      <trkpt lat="42.9121810" lon="1.2549770">
        <ele>526.0</ele>
        <time>2020-07-23T10:18:19Z</time>
      </trkpt>
      <trkpt lat="42.9121530" lon="1.2549820">
        <ele>526.2</ele>
        <time>2020-07-23T10:18:20Z</time>
      </trkpt>
      <trkpt lat="42.9120460" lon="1.2549910">
        <ele>526.2</ele>
        <time>2020-07-23T10:18:23Z</time>
      </trkpt>
      <trkpt lat="42.9119990" lon="1.2549770">
        <ele>526.2</ele>
        <time>2020-07-23T10:18:24Z</time>
      </trkpt>
      <trkpt lat="42.9118220" lon="1.2548910">
        <ele>525.8</ele>
        <time>2020-07-23T10:18:27Z</time>
      </trkpt>
      <trkpt lat="42.9117700" lon="1.2548310">
        <ele>525.6</ele>
        <time>2020-07-23T10:18:28Z</time>
      </trkpt>
      <trkpt lat="42.9117250" lon="1.2547720">
        <ele>525.2</ele>
        <time>2020-07-23T10:18:29Z</time>
      </trkpt>
      <trkpt lat="42.9116680" lon="1.2546050">
        <ele>524.8</ele>
        <time>2020-07-23T10:18:31Z</time>
      </trkpt>
      <trkpt lat="42.9116760" lon="1.2544070">
        <ele>524.6</ele>
        <time>2020-07-23T10:18:33Z</time>
      </trkpt>
      <trkpt lat="42.9116870" lon="1.2543090">
        <ele>524.4</ele>
        <time>2020-07-23T10:18:34Z</time>
      </trkpt>
      <trkpt lat="42.9117040" lon="1.2542130">
        <ele>524.2</ele>
        <time>2020-07-23T10:18:35Z</time>
      </trkpt>
      <trkpt lat="42.9117230" lon="1.2541170">
        <ele>524.2</ele>
        <time>2020-07-23T10:18:36Z</time>
      </trkpt>
      <trkpt lat="42.9117530" lon="1.2538310">
        <ele>524.0</ele>
        <time>2020-07-23T10:18:39Z</time>
      </trkpt>
      <trkpt lat="42.9117360" lon="1.2536340">
        <ele>523.6</ele>
        <time>2020-07-23T10:18:41Z</time>
      </trkpt>
      <trkpt lat="42.9116600" lon="1.2534680">
        <ele>523.0</ele>
        <time>2020-07-23T10:18:43Z</time>
      </trkpt>
      <trkpt lat="42.9115310" lon="1.2533360">
        <ele>522.4</ele>
        <time>2020-07-23T10:18:45Z</time>
      </trkpt>
      <trkpt lat="42.9114670" lon="1.2532790">
        <ele>522.0</ele>
        <time>2020-07-23T10:18:46Z</time>
      </trkpt>
      <trkpt lat="42.9110680" lon="1.2529530">
        <ele>521.2</ele>
        <time>2020-07-23T10:18:52Z</time>
      </trkpt>
      <trkpt lat="42.9110070" lon="1.2528810">
        <ele>521.0</ele>
        <time>2020-07-23T10:18:53Z</time>
      </trkpt>
      <trkpt lat="42.9107910" lon="1.2525740">
        <ele>520.6</ele>
        <time>2020-07-23T10:18:57Z</time>
      </trkpt>
      <trkpt lat="42.9105250" lon="1.2522030">
        <ele>519.8</ele>
        <time>2020-07-23T10:19:02Z</time>
      </trkpt>
      <trkpt lat="42.9104700" lon="1.2521200">
        <ele>519.6</ele>
        <time>2020-07-23T10:19:03Z</time>
      </trkpt>
      <trkpt lat="42.9104240" lon="1.2520430">
        <ele>519.4</ele>
        <time>2020-07-23T10:19:04Z</time>
      </trkpt>
      <trkpt lat="42.9103740" lon="1.2519690">
        <ele>519.2</ele>
        <time>2020-07-23T10:19:05Z</time>
      </trkpt>
      <trkpt lat="42.9102090" lon="1.2517380">
        <ele>518.8</ele>
        <time>2020-07-23T10:19:08Z</time>
      </trkpt>
      <trkpt lat="42.9100280" lon="1.2515250">
        <ele>518.0</ele>
        <time>2020-07-23T10:19:11Z</time>
      </trkpt>
      <trkpt lat="42.9099080" lon="1.2513930">
        <ele>517.4</ele>
        <time>2020-07-23T10:19:13Z</time>
      </trkpt>
      <trkpt lat="42.9097150" lon="1.2512050">
        <ele>516.0</ele>
        <time>2020-07-23T10:19:16Z</time>
      </trkpt>
      <trkpt lat="42.9096460" lon="1.2511340">
        <ele>515.6</ele>
        <time>2020-07-23T10:19:17Z</time>
      </trkpt>
      <trkpt lat="42.9095030" lon="1.2509930">
        <ele>514.6</ele>
        <time>2020-07-23T10:19:19Z</time>
      </trkpt>
      <trkpt lat="42.9090550" lon="1.2505560">
        <ele>513.4</ele>
        <time>2020-07-23T10:19:25Z</time>
      </trkpt>
      <trkpt lat="42.9087120" lon="1.2502110">
        <ele>512.2</ele>
        <time>2020-07-23T10:19:30Z</time>
      </trkpt>
      <trkpt lat="42.9085170" lon="1.2500080">
        <ele>512.0</ele>
        <time>2020-07-23T10:19:33Z</time>
      </trkpt>
      <trkpt lat="42.9084530" lon="1.2499360">
        <ele>511.6</ele>
        <time>2020-07-23T10:19:34Z</time>
      </trkpt>
      <trkpt lat="42.9083160" lon="1.2497890">
        <ele>511.2</ele>
        <time>2020-07-23T10:19:36Z</time>
      </trkpt>
      <trkpt lat="42.9082450" lon="1.2497140">
        <ele>510.8</ele>
        <time>2020-07-23T10:19:37Z</time>
      </trkpt>
      <trkpt lat="42.9081010" lon="1.2495640">
        <ele>509.8</ele>
        <time>2020-07-23T10:19:39Z</time>
      </trkpt>
      <trkpt lat="42.9078140" lon="1.2492990">
        <ele>508.6</ele>
        <time>2020-07-23T10:19:43Z</time>
      </trkpt>
      <trkpt lat="42.9077390" lon="1.2492550">
        <ele>508.6</ele>
        <time>2020-07-23T10:19:44Z</time>
      </trkpt>
      <trkpt lat="42.9075810" lon="1.2492110">
        <ele>508.6</ele>
        <time>2020-07-23T10:19:46Z</time>
      </trkpt>
      <trkpt lat="42.9074990" lon="1.2492050">
        <ele>508.6</ele>
        <time>2020-07-23T10:19:47Z</time>
      </trkpt>
      <trkpt lat="42.9070680" lon="1.2492390">
        <ele>507.8</ele>
        <time>2020-07-23T10:19:52Z</time>
      </trkpt>
      <trkpt lat="42.9069830" lon="1.2492480">
        <ele>507.6</ele>
        <time>2020-07-23T10:19:53Z</time>
      </trkpt>
      <trkpt lat="42.9064610" lon="1.2493080">
        <ele>507.8</ele>
        <time>2020-07-23T10:19:59Z</time>
      </trkpt>
      <trkpt lat="42.9063770" lon="1.2493170">
        <ele>507.8</ele>
        <time>2020-07-23T10:20:00Z</time>
      </trkpt>
      <trkpt lat="42.9060440" lon="1.2493200">
        <ele>508.4</ele>
        <time>2020-07-23T10:20:04Z</time>
      </trkpt>
      <trkpt lat="42.9059680" lon="1.2492890">
        <ele>508.6</ele>
        <time>2020-07-23T10:20:05Z</time>
      </trkpt>
      <trkpt lat="42.9059000" lon="1.2492390">
        <ele>508.8</ele>
        <time>2020-07-23T10:20:06Z</time>
      </trkpt>
      <trkpt lat="42.9058040" lon="1.2490660">
        <ele>509.2</ele>
        <time>2020-07-23T10:20:08Z</time>
      </trkpt>
      <trkpt lat="42.9057150" lon="1.2487880">
        <ele>509.6</ele>
        <time>2020-07-23T10:20:11Z</time>
      </trkpt>
      <trkpt lat="42.9056620" lon="1.2486100">
        <ele>509.6</ele>
        <time>2020-07-23T10:20:13Z</time>
      </trkpt>
      <trkpt lat="42.9056360" lon="1.2485260">
        <ele>509.8</ele>
        <time>2020-07-23T10:20:14Z</time>
      </trkpt>
      <trkpt lat="42.9056120" lon="1.2484330">
        <ele>510.0</ele>
        <time>2020-07-23T10:20:15Z</time>
      </trkpt>
      <trkpt lat="42.9055850" lon="1.2483370">
        <ele>510.2</ele>
        <time>2020-07-23T10:20:16Z</time>
      </trkpt>
      <trkpt lat="42.9055560" lon="1.2482400">
        <ele>510.2</ele>
        <time>2020-07-23T10:20:17Z</time>
      </trkpt>
      <trkpt lat="42.9055270" lon="1.2481430">
        <ele>510.0</ele>
        <time>2020-07-23T10:20:18Z</time>
      </trkpt>
      <trkpt lat="42.9054710" lon="1.2479420">
        <ele>509.6</ele>
        <time>2020-07-23T10:20:20Z</time>
      </trkpt>
      <trkpt lat="42.9054240" lon="1.2477290">
        <ele>508.6</ele>
        <time>2020-07-23T10:20:22Z</time>
      </trkpt>
      <trkpt lat="42.9053430" lon="1.2473830">
        <ele>507.6</ele>
        <time>2020-07-23T10:20:25Z</time>
      </trkpt>
      <trkpt lat="42.9053080" lon="1.2472630">
        <ele>507.4</ele>
        <time>2020-07-23T10:20:26Z</time>
      </trkpt>
      <trkpt lat="42.9050830" lon="1.2466830">
        <ele>506.8</ele>
        <time>2020-07-23T10:20:31Z</time>
      </trkpt>
      <trkpt lat="42.9049050" lon="1.2461470">
        <ele>507.4</ele>
        <time>2020-07-23T10:20:36Z</time>
      </trkpt>
      <trkpt lat="42.9048880" lon="1.2459340">
        <ele>507.6</ele>
        <time>2020-07-23T10:20:38Z</time>
      </trkpt>
      <trkpt lat="42.9048950" lon="1.2458300">
        <ele>507.8</ele>
        <time>2020-07-23T10:20:39Z</time>
      </trkpt>
      <trkpt lat="42.9049110" lon="1.2457330">
        <ele>507.8</ele>
        <time>2020-07-23T10:20:40Z</time>
      </trkpt>
      <trkpt lat="42.9049700" lon="1.2454630">
        <ele>508.8</ele>
        <time>2020-07-23T10:20:43Z</time>
      </trkpt>
      <trkpt lat="42.9049980" lon="1.2451050">
        <ele>509.4</ele>
        <time>2020-07-23T10:20:47Z</time>
      </trkpt>
      <trkpt lat="42.9049880" lon="1.2450170">
        <ele>509.6</ele>
        <time>2020-07-23T10:20:48Z</time>
      </trkpt>
      <trkpt lat="42.9049660" lon="1.2449330">
        <ele>509.4</ele>
        <time>2020-07-23T10:20:49Z</time>
      </trkpt>
      <trkpt lat="42.9049110" lon="1.2447940">
        <ele>509.4</ele>
        <time>2020-07-23T10:20:51Z</time>
      </trkpt>
      <trkpt lat="42.9048730" lon="1.2447360">
        <ele>509.4</ele>
        <time>2020-07-23T10:20:52Z</time>
      </trkpt>
      <trkpt lat="42.9048240" lon="1.2446800">
        <ele>509.4</ele>
        <time>2020-07-23T10:20:53Z</time>
      </trkpt>
      <trkpt lat="42.9046620" lon="1.2445010">
        <ele>509.4</ele>
        <time>2020-07-23T10:20:56Z</time>
      </trkpt>
      <trkpt lat="42.9046100" lon="1.2444450">
        <ele>509.4</ele>
        <time>2020-07-23T10:20:57Z</time>
      </trkpt>
      <trkpt lat="42.9045180" lon="1.2443320">
        <ele>509.4</ele>
        <time>2020-07-23T10:21:00Z</time>
      </trkpt>
      <trkpt lat="42.9044940" lon="1.2443080">
        <ele>509.6</ele>
        <time>2020-07-23T10:21:02Z</time>
      </trkpt>
      <trkpt lat="42.9044280" lon="1.2442840">
        <ele>510.2</ele>
        <time>2020-07-23T10:21:17Z</time>
      </trkpt>
      <trkpt lat="42.9044110" lon="1.2442540">
        <ele>510.2</ele>
        <time>2020-07-23T10:21:18Z</time>
      </trkpt>
      <trkpt lat="42.9043470" lon="1.2440590">
        <ele>510.4</ele>
        <time>2020-07-23T10:21:22Z</time>
      </trkpt>
      <trkpt lat="42.9043060" lon="1.2439300">
        <ele>510.4</ele>
        <time>2020-07-23T10:21:24Z</time>
      </trkpt>
      <trkpt lat="42.9042240" lon="1.2436340">
        <ele>510.4</ele>
        <time>2020-07-23T10:21:28Z</time>
      </trkpt>
      <trkpt lat="42.9041080" lon="1.2432640">
        <ele>510.8</ele>
        <time>2020-07-23T10:21:33Z</time>
      </trkpt>
      <trkpt lat="42.9040730" lon="1.2431990">
        <ele>510.8</ele>
        <time>2020-07-23T10:21:34Z</time>
      </trkpt>
      <trkpt lat="42.9039940" lon="1.2430740">
        <ele>511.4</ele>
        <time>2020-07-23T10:21:36Z</time>
      </trkpt>
      <trkpt lat="42.9039040" lon="1.2429620">
        <ele>511.8</ele>
        <time>2020-07-23T10:21:38Z</time>
      </trkpt>
      <trkpt lat="42.9038560" lon="1.2429090">
        <ele>511.6</ele>
        <time>2020-07-23T10:21:39Z</time>
      </trkpt>
      <trkpt lat="42.9035370" lon="1.2426320">
        <ele>510.2</ele>
        <time>2020-07-23T10:21:45Z</time>
      </trkpt>
      <trkpt lat="42.9032650" lon="1.2424490">
        <ele>509.2</ele>
        <time>2020-07-23T10:21:49Z</time>
      </trkpt>
      <trkpt lat="42.9031930" lon="1.2424100">
        <ele>509.2</ele>
        <time>2020-07-23T10:21:50Z</time>
      </trkpt>
      <trkpt lat="42.9031130" lon="1.2423880">
        <ele>509.0</ele>
        <time>2020-07-23T10:21:51Z</time>
      </trkpt>
      <trkpt lat="42.9028800" lon="1.2423320">
        <ele>508.4</ele>
        <time>2020-07-23T10:21:54Z</time>
      </trkpt>
      <trkpt lat="42.9027940" lon="1.2422990">
        <ele>508.0</ele>
        <time>2020-07-23T10:21:55Z</time>
      </trkpt>
      <trkpt lat="42.9024580" lon="1.2421190">
        <ele>506.8</ele>
        <time>2020-07-23T10:21:59Z</time>
      </trkpt>
      <trkpt lat="42.9020770" lon="1.2418190">
        <ele>505.6</ele>
        <time>2020-07-23T10:22:04Z</time>
      </trkpt>
      <trkpt lat="42.9020020" lon="1.2417350">
        <ele>505.6</ele>
        <time>2020-07-23T10:22:05Z</time>
      </trkpt>
      <trkpt lat="42.9017760" lon="1.2414240">
        <ele>505.2</ele>
        <time>2020-07-23T10:22:09Z</time>
      </trkpt>
      <trkpt lat="42.9017170" lon="1.2413150">
        <ele>505.2</ele>
        <time>2020-07-23T10:22:10Z</time>
      </trkpt>
      <trkpt lat="42.9015760" lon="1.2409840">
        <ele>505.4</ele>
        <time>2020-07-23T10:22:13Z</time>
      </trkpt>
      <trkpt lat="42.9014140" lon="1.2403240">
        <ele>505.6</ele>
        <time>2020-07-23T10:22:19Z</time>
      </trkpt>
      <trkpt lat="42.9014060" lon="1.2402140">
        <ele>505.6</ele>
        <time>2020-07-23T10:22:20Z</time>
      </trkpt>
      <trkpt lat="42.9014120" lon="1.2397840">
        <ele>505.8</ele>
        <time>2020-07-23T10:22:24Z</time>
      </trkpt>
      <trkpt lat="42.9014330" lon="1.2395740">
        <ele>505.8</ele>
        <time>2020-07-23T10:22:26Z</time>
      </trkpt>
      <trkpt lat="42.9015080" lon="1.2393820">
        <ele>505.8</ele>
        <time>2020-07-23T10:22:28Z</time>
      </trkpt>
      <trkpt lat="42.9016240" lon="1.2392240">
        <ele>506.0</ele>
        <time>2020-07-23T10:22:30Z</time>
      </trkpt>
      <trkpt lat="42.9016920" lon="1.2391640">
        <ele>506.0</ele>
        <time>2020-07-23T10:22:31Z</time>
      </trkpt>
      <trkpt lat="42.9017660" lon="1.2391200">
        <ele>506.2</ele>
        <time>2020-07-23T10:22:32Z</time>
      </trkpt>
      <trkpt lat="42.9019190" lon="1.2390620">
        <ele>506.6</ele>
        <time>2020-07-23T10:22:34Z</time>
      </trkpt>
      <trkpt lat="42.9020700" lon="1.2389850">
        <ele>506.6</ele>
        <time>2020-07-23T10:22:36Z</time>
      </trkpt>
      <trkpt lat="42.9021400" lon="1.2389280">
        <ele>506.4</ele>
        <time>2020-07-23T10:22:37Z</time>
      </trkpt>
      <trkpt lat="42.9022070" lon="1.2388620">
        <ele>506.0</ele>
        <time>2020-07-23T10:22:38Z</time>
      </trkpt>
      <trkpt lat="42.9022580" lon="1.2387660">
        <ele>505.8</ele>
        <time>2020-07-23T10:22:39Z</time>
      </trkpt>
      <trkpt lat="42.9023330" lon="1.2385660">
        <ele>504.8</ele>
        <time>2020-07-23T10:22:41Z</time>
      </trkpt>
      <trkpt lat="42.9023600" lon="1.2384560">
        <ele>504.6</ele>
        <time>2020-07-23T10:22:42Z</time>
      </trkpt>
      <trkpt lat="42.9023950" lon="1.2382190">
        <ele>503.8</ele>
        <time>2020-07-23T10:22:44Z</time>
      </trkpt>
      <trkpt lat="42.9024080" lon="1.2380960">
        <ele>503.4</ele>
        <time>2020-07-23T10:22:45Z</time>
      </trkpt>
      <trkpt lat="42.9024130" lon="1.2377030">
        <ele>502.2</ele>
        <time>2020-07-23T10:22:48Z</time>
      </trkpt>
      <trkpt lat="42.9023980" lon="1.2375680">
        <ele>501.8</ele>
        <time>2020-07-23T10:22:49Z</time>
      </trkpt>
      <trkpt lat="42.9023730" lon="1.2374410">
        <ele>501.4</ele>
        <time>2020-07-23T10:22:50Z</time>
      </trkpt>
      <trkpt lat="42.9023400" lon="1.2373200">
        <ele>500.8</ele>
        <time>2020-07-23T10:22:51Z</time>
      </trkpt>
      <trkpt lat="42.9022490" lon="1.2371010">
        <ele>500.0</ele>
        <time>2020-07-23T10:22:53Z</time>
      </trkpt>
      <trkpt lat="42.9021920" lon="1.2370060">
        <ele>499.8</ele>
        <time>2020-07-23T10:22:54Z</time>
      </trkpt>
      <trkpt lat="42.9021120" lon="1.2369160">
        <ele>499.6</ele>
        <time>2020-07-23T10:22:55Z</time>
      </trkpt>
      <trkpt lat="42.9020330" lon="1.2368300">
        <ele>499.6</ele>
        <time>2020-07-23T10:22:56Z</time>
      </trkpt>
      <trkpt lat="42.9017040" lon="1.2365060">
        <ele>498.8</ele>
        <time>2020-07-23T10:23:00Z</time>
      </trkpt>
      <trkpt lat="42.9016210" lon="1.2364260">
        <ele>498.6</ele>
        <time>2020-07-23T10:23:01Z</time>
      </trkpt>
      <trkpt lat="42.9013160" lon="1.2361220">
        <ele>497.0</ele>
        <time>2020-07-23T10:23:05Z</time>
      </trkpt>
      <trkpt lat="42.9011750" lon="1.2359780">
        <ele>495.4</ele>
        <time>2020-07-23T10:23:07Z</time>
      </trkpt>
      <trkpt lat="42.9007690" lon="1.2354430">
        <ele>495.6</ele>
        <time>2020-07-23T10:23:13Z</time>
      </trkpt>
      <trkpt lat="42.9004190" lon="1.2349890">
        <ele>495.0</ele>
        <time>2020-07-23T10:23:18Z</time>
      </trkpt>
      <trkpt lat="42.9003520" lon="1.2348950">
        <ele>494.8</ele>
        <time>2020-07-23T10:23:19Z</time>
      </trkpt>
      <trkpt lat="42.9001620" lon="1.2345990">
        <ele>494.6</ele>
        <time>2020-07-23T10:23:22Z</time>
      </trkpt>
      <trkpt lat="42.9000010" lon="1.2342770">
        <ele>494.2</ele>
        <time>2020-07-23T10:23:25Z</time>
      </trkpt>
      <trkpt lat="42.8998780" lon="1.2339570">
        <ele>494.0</ele>
        <time>2020-07-23T10:23:28Z</time>
      </trkpt>
      <trkpt lat="42.8997410" lon="1.2336650">
        <ele>493.8</ele>
        <time>2020-07-23T10:23:31Z</time>
      </trkpt>
      <trkpt lat="42.8996930" lon="1.2335710">
        <ele>493.8</ele>
        <time>2020-07-23T10:23:32Z</time>
      </trkpt>
      <trkpt lat="42.8995920" lon="1.2333700">
        <ele>493.6</ele>
        <time>2020-07-23T10:23:34Z</time>
      </trkpt>
      <trkpt lat="42.8993980" lon="1.2329310">
        <ele>493.6</ele>
        <time>2020-07-23T10:23:38Z</time>
      </trkpt>
      <trkpt lat="42.8992070" lon="1.2324220">
        <ele>493.2</ele>
        <time>2020-07-23T10:23:43Z</time>
      </trkpt>
      <trkpt lat="42.8991290" lon="1.2322230">
        <ele>493.0</ele>
        <time>2020-07-23T10:23:45Z</time>
      </trkpt>
      <trkpt lat="42.8990570" lon="1.2320210">
        <ele>492.8</ele>
        <time>2020-07-23T10:23:47Z</time>
      </trkpt>
      <trkpt lat="42.8989950" lon="1.2318030">
        <ele>492.8</ele>
        <time>2020-07-23T10:23:49Z</time>
      </trkpt>
      <trkpt lat="42.8989720" lon="1.2316890">
        <ele>492.8</ele>
        <time>2020-07-23T10:23:50Z</time>
      </trkpt>
      <trkpt lat="42.8989640" lon="1.2315770">
        <ele>493.0</ele>
        <time>2020-07-23T10:23:51Z</time>
      </trkpt>
      <trkpt lat="42.8989830" lon="1.2313540">
        <ele>493.0</ele>
        <time>2020-07-23T10:23:53Z</time>
      </trkpt>
      <trkpt lat="42.8990080" lon="1.2312500">
        <ele>493.0</ele>
        <time>2020-07-23T10:23:54Z</time>
      </trkpt>
      <trkpt lat="42.8990360" lon="1.2311460">
        <ele>493.0</ele>
        <time>2020-07-23T10:23:55Z</time>
      </trkpt>
      <trkpt lat="42.8990680" lon="1.2310430">
        <ele>492.8</ele>
        <time>2020-07-23T10:23:56Z</time>
      </trkpt>
      <trkpt lat="42.8991550" lon="1.2308500">
        <ele>492.8</ele>
        <time>2020-07-23T10:23:58Z</time>
      </trkpt>
      <trkpt lat="42.8992200" lon="1.2307590">
        <ele>492.6</ele>
        <time>2020-07-23T10:23:59Z</time>
      </trkpt>
      <trkpt lat="42.8994190" lon="1.2305070">
        <ele>492.6</ele>
        <time>2020-07-23T10:24:02Z</time>
      </trkpt>
      <trkpt lat="42.8995680" lon="1.2303730">
        <ele>492.6</ele>
        <time>2020-07-23T10:24:04Z</time>
      </trkpt>
      <trkpt lat="42.8997050" lon="1.2302460">
        <ele>492.8</ele>
        <time>2020-07-23T10:24:06Z</time>
      </trkpt>
      <trkpt lat="42.9001000" lon="1.2298850">
        <ele>492.6</ele>
        <time>2020-07-23T10:24:12Z</time>
      </trkpt>
      <trkpt lat="42.9001650" lon="1.2298210">
        <ele>492.4</ele>
        <time>2020-07-23T10:24:13Z</time>
      </trkpt>
      <trkpt lat="42.9003030" lon="1.2297020">
        <ele>492.2</ele>
        <time>2020-07-23T10:24:15Z</time>
      </trkpt>
      <trkpt lat="42.9003760" lon="1.2296510">
        <ele>492.0</ele>
        <time>2020-07-23T10:24:16Z</time>
      </trkpt>
      <trkpt lat="42.9005320" lon="1.2295830">
        <ele>491.6</ele>
        <time>2020-07-23T10:24:18Z</time>
      </trkpt>
      <trkpt lat="42.9009410" lon="1.2295210">
        <ele>491.2</ele>
        <time>2020-07-23T10:24:23Z</time>
      </trkpt>
      <trkpt lat="42.9011870" lon="1.2295200">
        <ele>491.0</ele>
        <time>2020-07-23T10:24:26Z</time>
      </trkpt>
      <trkpt lat="42.9013510" lon="1.2294870">
        <ele>491.0</ele>
        <time>2020-07-23T10:24:28Z</time>
      </trkpt>
      <trkpt lat="42.9014270" lon="1.2294420">
        <ele>491.0</ele>
        <time>2020-07-23T10:24:29Z</time>
      </trkpt>
      <trkpt lat="42.9014980" lon="1.2293780">
        <ele>490.8</ele>
        <time>2020-07-23T10:24:30Z</time>
      </trkpt>
      <trkpt lat="42.9016070" lon="1.2292010">
        <ele>490.2</ele>
        <time>2020-07-23T10:24:32Z</time>
      </trkpt>
      <trkpt lat="42.9016450" lon="1.2290960">
        <ele>490.0</ele>
        <time>2020-07-23T10:24:33Z</time>
      </trkpt>
      <trkpt lat="42.9016710" lon="1.2289850">
        <ele>489.8</ele>
        <time>2020-07-23T10:24:34Z</time>
      </trkpt>
      <trkpt lat="42.9016820" lon="1.2288670">
        <ele>489.8</ele>
        <time>2020-07-23T10:24:35Z</time>
      </trkpt>
      <trkpt lat="42.9016810" lon="1.2287480">
        <ele>489.6</ele>
        <time>2020-07-23T10:24:36Z</time>
      </trkpt>
      <trkpt lat="42.9016410" lon="1.2285260">
        <ele>489.2</ele>
        <time>2020-07-23T10:24:38Z</time>
      </trkpt>
      <trkpt lat="42.9015700" lon="1.2283150">
        <ele>489.0</ele>
        <time>2020-07-23T10:24:40Z</time>
      </trkpt>
      <trkpt lat="42.9014730" lon="1.2281210">
        <ele>489.0</ele>
        <time>2020-07-23T10:24:42Z</time>
      </trkpt>
      <trkpt lat="42.9013180" lon="1.2278300">
        <ele>488.4</ele>
        <time>2020-07-23T10:24:45Z</time>
      </trkpt>
      <trkpt lat="42.9012310" lon="1.2276210">
        <ele>488.0</ele>
        <time>2020-07-23T10:24:47Z</time>
      </trkpt>
      <trkpt lat="42.9012030" lon="1.2275150">
        <ele>487.8</ele>
        <time>2020-07-23T10:24:48Z</time>
      </trkpt>
      <trkpt lat="42.9010550" lon="1.2269320">
        <ele>487.0</ele>
        <time>2020-07-23T10:24:53Z</time>
      </trkpt>
      <trkpt lat="42.9010290" lon="1.2268160">
        <ele>486.8</ele>
        <time>2020-07-23T10:24:54Z</time>
      </trkpt>
      <trkpt lat="42.9009170" lon="1.2262280">
        <ele>486.2</ele>
        <time>2020-07-23T10:24:59Z</time>
      </trkpt>
      <trkpt lat="42.9009070" lon="1.2261090">
        <ele>486.0</ele>
        <time>2020-07-23T10:25:00Z</time>
      </trkpt>
      <trkpt lat="42.9008860" lon="1.2258690">
        <ele>486.0</ele>
        <time>2020-07-23T10:25:02Z</time>
      </trkpt>
      <trkpt lat="42.9008790" lon="1.2256250">
        <ele>485.8</ele>
        <time>2020-07-23T10:25:04Z</time>
      </trkpt>
      <trkpt lat="42.9009280" lon="1.2252740">
        <ele>485.8</ele>
        <time>2020-07-23T10:25:07Z</time>
      </trkpt>
      <trkpt lat="42.9009720" lon="1.2251710">
        <ele>485.8</ele>
        <time>2020-07-23T10:25:08Z</time>
      </trkpt>
      <trkpt lat="42.9010250" lon="1.2250780">
        <ele>485.6</ele>
        <time>2020-07-23T10:25:09Z</time>
      </trkpt>
      <trkpt lat="42.9012170" lon="1.2248400">
        <ele>485.2</ele>
        <time>2020-07-23T10:25:12Z</time>
      </trkpt>
      <trkpt lat="42.9014170" lon="1.2245860">
        <ele>485.0</ele>
        <time>2020-07-23T10:25:15Z</time>
      </trkpt>
      <trkpt lat="42.9014750" lon="1.2245000">
        <ele>484.8</ele>
        <time>2020-07-23T10:25:16Z</time>
      </trkpt>
      <trkpt lat="42.9015370" lon="1.2244130">
        <ele>484.8</ele>
        <time>2020-07-23T10:25:17Z</time>
      </trkpt>
      <trkpt lat="42.9019100" lon="1.2238830">
        <ele>483.8</ele>
        <time>2020-07-23T10:25:23Z</time>
      </trkpt>
      <trkpt lat="42.9020870" lon="1.2236260">
        <ele>483.4</ele>
        <time>2020-07-23T10:25:26Z</time>
      </trkpt>
      <trkpt lat="42.9022590" lon="1.2233700">
        <ele>482.8</ele>
        <time>2020-07-23T10:25:29Z</time>
      </trkpt>
      <trkpt lat="42.9025230" lon="1.2229210">
        <ele>482.8</ele>
        <time>2020-07-23T10:25:34Z</time>
      </trkpt>
      <trkpt lat="42.9027470" lon="1.2225750">
        <ele>482.6</ele>
        <time>2020-07-23T10:25:38Z</time>
      </trkpt>
      <trkpt lat="42.9028070" lon="1.2224940">
        <ele>482.6</ele>
        <time>2020-07-23T10:25:39Z</time>
      </trkpt>
      <trkpt lat="42.9029370" lon="1.2223410">
        <ele>482.4</ele>
        <time>2020-07-23T10:25:41Z</time>
      </trkpt>
      <trkpt lat="42.9032100" lon="1.2220710">
        <ele>482.0</ele>
        <time>2020-07-23T10:25:45Z</time>
      </trkpt>
      <trkpt lat="42.9033460" lon="1.2219440">
        <ele>482.0</ele>
        <time>2020-07-23T10:25:47Z</time>
      </trkpt>
      <trkpt lat="42.9034800" lon="1.2218120">
        <ele>481.8</ele>
        <time>2020-07-23T10:25:49Z</time>
      </trkpt>
      <trkpt lat="42.9037870" lon="1.2214470">
        <ele>481.2</ele>
        <time>2020-07-23T10:25:54Z</time>
      </trkpt>
      <trkpt lat="42.9041600" lon="1.2209960">
        <ele>481.0</ele>
        <time>2020-07-23T10:26:00Z</time>
      </trkpt>
      <trkpt lat="42.9042260" lon="1.2209250">
        <ele>481.0</ele>
        <time>2020-07-23T10:26:01Z</time>
      </trkpt>
      <trkpt lat="42.9044300" lon="1.2207230">
        <ele>480.6</ele>
        <time>2020-07-23T10:26:04Z</time>
      </trkpt>
      <trkpt lat="42.9046330" lon="1.2205370">
        <ele>480.4</ele>
        <time>2020-07-23T10:26:07Z</time>
      </trkpt>
      <trkpt lat="42.9047000" lon="1.2204780">
        <ele>480.4</ele>
        <time>2020-07-23T10:26:08Z</time>
      </trkpt>
      <trkpt lat="42.9051020" lon="1.2200790">
        <ele>480.4</ele>
        <time>2020-07-23T10:26:14Z</time>
      </trkpt>
      <trkpt lat="42.9052370" lon="1.2199380">
        <ele>480.2</ele>
        <time>2020-07-23T10:26:16Z</time>
      </trkpt>
      <trkpt lat="42.9055190" lon="1.2196750">
        <ele>479.6</ele>
        <time>2020-07-23T10:26:20Z</time>
      </trkpt>
      <trkpt lat="42.9056640" lon="1.2195370">
        <ele>479.4</ele>
        <time>2020-07-23T10:26:22Z</time>
      </trkpt>
      <trkpt lat="42.9060940" lon="1.2191630">
        <ele>479.0</ele>
        <time>2020-07-23T10:26:28Z</time>
      </trkpt>
      <trkpt lat="42.9063160" lon="1.2189850">
        <ele>478.4</ele>
        <time>2020-07-23T10:26:31Z</time>
      </trkpt>
      <trkpt lat="42.9064610" lon="1.2188760">
        <ele>478.2</ele>
        <time>2020-07-23T10:26:33Z</time>
      </trkpt>
      <trkpt lat="42.9069160" lon="1.2185940">
        <ele>477.6</ele>
        <time>2020-07-23T10:26:39Z</time>
      </trkpt>
      <trkpt lat="42.9070660" lon="1.2184940">
        <ele>477.4</ele>
        <time>2020-07-23T10:26:41Z</time>
      </trkpt>
      <trkpt lat="42.9074190" lon="1.2182030">
        <ele>477.2</ele>
        <time>2020-07-23T10:26:46Z</time>
      </trkpt>
      <trkpt lat="42.9074790" lon="1.2181240">
        <ele>477.6</ele>
        <time>2020-07-23T10:26:47Z</time>
      </trkpt>
      <trkpt lat="42.9076420" lon="1.2178640">
        <ele>477.6</ele>
        <time>2020-07-23T10:26:50Z</time>
      </trkpt>
      <trkpt lat="42.9079420" lon="1.2173270">
        <ele>476.8</ele>
        <time>2020-07-23T10:26:56Z</time>
      </trkpt>
      <trkpt lat="42.9080420" lon="1.2171550">
        <ele>476.8</ele>
        <time>2020-07-23T10:26:58Z</time>
      </trkpt>
      <trkpt lat="42.9083490" lon="1.2166320">
        <ele>476.8</ele>
        <time>2020-07-23T10:27:04Z</time>
      </trkpt>
      <trkpt lat="42.9085890" lon="1.2162050">
        <ele>476.2</ele>
        <time>2020-07-23T10:27:09Z</time>
      </trkpt>
      <trkpt lat="42.9087210" lon="1.2159510">
        <ele>476.0</ele>
        <time>2020-07-23T10:27:12Z</time>
      </trkpt>
      <trkpt lat="42.9089240" lon="1.2154590">
        <ele>476.0</ele>
        <time>2020-07-23T10:27:18Z</time>
      </trkpt>
      <trkpt lat="42.9089470" lon="1.2153780">
        <ele>476.2</ele>
        <time>2020-07-23T10:27:19Z</time>
      </trkpt>
      <trkpt lat="42.9090330" lon="1.2151490">
        <ele>477.0</ele>
        <time>2020-07-23T10:27:22Z</time>
      </trkpt>
      <trkpt lat="42.9091010" lon="1.2150030">
        <ele>477.2</ele>
        <time>2020-07-23T10:27:24Z</time>
      </trkpt>
      <trkpt lat="42.9091560" lon="1.2148420">
        <ele>477.8</ele>
        <time>2020-07-23T10:27:26Z</time>
      </trkpt>
      <trkpt lat="42.9092170" lon="1.2145820">
        <ele>478.4</ele>
        <time>2020-07-23T10:27:29Z</time>
      </trkpt>
      <trkpt lat="42.9093960" lon="1.2141210">
        <ele>479.0</ele>
        <time>2020-07-23T10:27:35Z</time>
      </trkpt>
      <trkpt lat="42.9095120" lon="1.2139230">
        <ele>479.4</ele>
        <time>2020-07-23T10:27:38Z</time>
      </trkpt>
      <trkpt lat="42.9096500" lon="1.2137460">
        <ele>479.4</ele>
        <time>2020-07-23T10:27:41Z</time>
      </trkpt>
      <trkpt lat="42.9098580" lon="1.2135360">
        <ele>478.4</ele>
        <time>2020-07-23T10:27:45Z</time>
      </trkpt>
      <trkpt lat="42.9100020" lon="1.2133630">
        <ele>477.4</ele>
        <time>2020-07-23T10:27:48Z</time>
      </trkpt>
      <trkpt lat="42.9100810" lon="1.2132200">
        <ele>476.8</ele>
        <time>2020-07-23T10:27:50Z</time>
      </trkpt>
      <trkpt lat="42.9101520" lon="1.2130510">
        <ele>476.0</ele>
        <time>2020-07-23T10:27:52Z</time>
      </trkpt>
      <trkpt lat="42.9101910" lon="1.2129670">
        <ele>475.6</ele>
        <time>2020-07-23T10:27:53Z</time>
      </trkpt>
      <trkpt lat="42.9102550" lon="1.2127710">
        <ele>474.6</ele>
        <time>2020-07-23T10:27:55Z</time>
      </trkpt>
      <trkpt lat="42.9102850" lon="1.2126660">
        <ele>474.2</ele>
        <time>2020-07-23T10:27:56Z</time>
      </trkpt>
      <trkpt lat="42.9103130" lon="1.2125540">
        <ele>474.0</ele>
        <time>2020-07-23T10:27:57Z</time>
      </trkpt>
      <trkpt lat="42.9103520" lon="1.2123290">
        <ele>473.4</ele>
        <time>2020-07-23T10:27:59Z</time>
      </trkpt>
      <trkpt lat="42.9103860" lon="1.2120030">
        <ele>472.4</ele>
        <time>2020-07-23T10:28:02Z</time>
      </trkpt>
      <trkpt lat="42.9104000" lon="1.2119000">
        <ele>472.2</ele>
        <time>2020-07-23T10:28:03Z</time>
      </trkpt>
      <trkpt lat="42.9104530" lon="1.2113450">
        <ele>472.8</ele>
        <time>2020-07-23T10:28:08Z</time>
      </trkpt>
      <trkpt lat="42.9105430" lon="1.2109080">
        <ele>472.2</ele>
        <time>2020-07-23T10:28:12Z</time>
      </trkpt>
      <trkpt lat="42.9105920" lon="1.2107000">
        <ele>472.0</ele>
        <time>2020-07-23T10:28:14Z</time>
      </trkpt>
      <trkpt lat="42.9106370" lon="1.2104910">
        <ele>472.4</ele>
        <time>2020-07-23T10:28:16Z</time>
      </trkpt>
      <trkpt lat="42.9106860" lon="1.2102880">
        <ele>472.8</ele>
        <time>2020-07-23T10:28:18Z</time>
      </trkpt>
      <trkpt lat="42.9107330" lon="1.2100860">
        <ele>473.2</ele>
        <time>2020-07-23T10:28:20Z</time>
      </trkpt>
      <trkpt lat="42.9107590" lon="1.2099870">
        <ele>473.4</ele>
        <time>2020-07-23T10:28:21Z</time>
      </trkpt>
      <trkpt lat="42.9107830" lon="1.2098880">
        <ele>473.4</ele>
        <time>2020-07-23T10:28:22Z</time>
      </trkpt>
      <trkpt lat="42.9109780" lon="1.2093030">
        <ele>473.8</ele>
        <time>2020-07-23T10:28:28Z</time>
      </trkpt>
      <trkpt lat="42.9110710" lon="1.2091120">
        <ele>473.4</ele>
        <time>2020-07-23T10:28:30Z</time>
      </trkpt>
      <trkpt lat="42.9112710" lon="1.2087450">
        <ele>472.8</ele>
        <time>2020-07-23T10:28:34Z</time>
      </trkpt>
      <trkpt lat="42.9113760" lon="1.2085640">
        <ele>472.0</ele>
        <time>2020-07-23T10:28:36Z</time>
      </trkpt>
      <trkpt lat="42.9115840" lon="1.2081790">
        <ele>471.2</ele>
        <time>2020-07-23T10:28:40Z</time>
      </trkpt>
      <trkpt lat="42.9116370" lon="1.2080800">
        <ele>471.0</ele>
        <time>2020-07-23T10:28:41Z</time>
      </trkpt>
      <trkpt lat="42.9116890" lon="1.2079810">
        <ele>470.8</ele>
        <time>2020-07-23T10:28:42Z</time>
      </trkpt>
      <trkpt lat="42.9118400" lon="1.2076750">
        <ele>469.8</ele>
        <time>2020-07-23T10:28:45Z</time>
      </trkpt>
      <trkpt lat="42.9120100" lon="1.2072580">
        <ele>469.2</ele>
        <time>2020-07-23T10:28:49Z</time>
      </trkpt>
      <trkpt lat="42.9121070" lon="1.2069240">
        <ele>469.0</ele>
        <time>2020-07-23T10:28:52Z</time>
      </trkpt>
      <trkpt lat="42.9122360" lon="1.2064880">
        <ele>469.0</ele>
        <time>2020-07-23T10:28:56Z</time>
      </trkpt>
      <trkpt lat="42.9125170" lon="1.2059140">
        <ele>470.0</ele>
        <time>2020-07-23T10:29:02Z</time>
      </trkpt>
      <trkpt lat="42.9128520" lon="1.2053930">
        <ele>469.8</ele>
        <time>2020-07-23T10:29:08Z</time>
      </trkpt>
      <trkpt lat="42.9129580" lon="1.2052160">
        <ele>469.8</ele>
        <time>2020-07-23T10:29:10Z</time>
      </trkpt>
      <trkpt lat="42.9130770" lon="1.2050590">
        <ele>469.8</ele>
        <time>2020-07-23T10:29:12Z</time>
      </trkpt>
      <trkpt lat="42.9132690" lon="1.2048590">
        <ele>470.0</ele>
        <time>2020-07-23T10:29:15Z</time>
      </trkpt>
      <trkpt lat="42.9136790" lon="1.2045260">
        <ele>470.4</ele>
        <time>2020-07-23T10:29:21Z</time>
      </trkpt>
      <trkpt lat="42.9141530" lon="1.2043000">
        <ele>470.6</ele>
        <time>2020-07-23T10:29:27Z</time>
      </trkpt>
      <trkpt lat="42.9142290" lon="1.2042580">
        <ele>470.6</ele>
        <time>2020-07-23T10:29:28Z</time>
      </trkpt>
      <trkpt lat="42.9144500" lon="1.2041140">
        <ele>470.8</ele>
        <time>2020-07-23T10:29:31Z</time>
      </trkpt>
      <trkpt lat="42.9147220" lon="1.2039090">
        <ele>471.2</ele>
        <time>2020-07-23T10:29:35Z</time>
      </trkpt>
      <trkpt lat="42.9150570" lon="1.2035620">
        <ele>471.0</ele>
        <time>2020-07-23T10:29:40Z</time>
      </trkpt>
      <trkpt lat="42.9151130" lon="1.2034750">
        <ele>470.8</ele>
        <time>2020-07-23T10:29:41Z</time>
      </trkpt>
      <trkpt lat="42.9153570" lon="1.2030020">
        <ele>470.4</ele>
        <time>2020-07-23T10:29:46Z</time>
      </trkpt>
      <trkpt lat="42.9154180" lon="1.2027840">
        <ele>470.2</ele>
        <time>2020-07-23T10:29:48Z</time>
      </trkpt>
      <trkpt lat="42.9154460" lon="1.2025470">
        <ele>469.8</ele>
        <time>2020-07-23T10:29:50Z</time>
      </trkpt>
      <trkpt lat="42.9154290" lon="1.2020510">
        <ele>469.4</ele>
        <time>2020-07-23T10:29:54Z</time>
      </trkpt>
      <trkpt lat="42.9153780" lon="1.2016880">
        <ele>469.0</ele>
        <time>2020-07-23T10:29:57Z</time>
      </trkpt>
      <trkpt lat="42.9153570" lon="1.2015720">
        <ele>468.6</ele>
        <time>2020-07-23T10:29:58Z</time>
      </trkpt>
      <trkpt lat="42.9153050" lon="1.2013440">
        <ele>468.0</ele>
        <time>2020-07-23T10:30:00Z</time>
      </trkpt>
      <trkpt lat="42.9152640" lon="1.2012390">
        <ele>467.6</ele>
        <time>2020-07-23T10:30:01Z</time>
      </trkpt>
      <trkpt lat="42.9152180" lon="1.2011430">
        <ele>467.4</ele>
        <time>2020-07-23T10:30:02Z</time>
      </trkpt>
      <trkpt lat="42.9151690" lon="1.2010530">
        <ele>467.2</ele>
        <time>2020-07-23T10:30:03Z</time>
      </trkpt>
      <trkpt lat="42.9151140" lon="1.2009750">
        <ele>467.2</ele>
        <time>2020-07-23T10:30:04Z</time>
      </trkpt>
      <trkpt lat="42.9149390" lon="1.2007630">
        <ele>467.2</ele>
        <time>2020-07-23T10:30:07Z</time>
      </trkpt>
      <trkpt lat="42.9145930" lon="1.2003380">
        <ele>467.0</ele>
        <time>2020-07-23T10:30:13Z</time>
      </trkpt>
      <trkpt lat="42.9145400" lon="1.2002610">
        <ele>466.8</ele>
        <time>2020-07-23T10:30:14Z</time>
      </trkpt>
      <trkpt lat="42.9143370" lon="1.1999170">
        <ele>466.2</ele>
        <time>2020-07-23T10:30:18Z</time>
      </trkpt>
      <trkpt lat="42.9142340" lon="1.1997460">
        <ele>466.0</ele>
        <time>2020-07-23T10:30:20Z</time>
      </trkpt>
      <trkpt lat="42.9140810" lon="1.1994900">
        <ele>465.6</ele>
        <time>2020-07-23T10:30:23Z</time>
      </trkpt>
      <trkpt lat="42.9139750" lon="1.1993060">
        <ele>465.2</ele>
        <time>2020-07-23T10:30:25Z</time>
      </trkpt>
      <trkpt lat="42.9139260" lon="1.1992110">
        <ele>464.6</ele>
        <time>2020-07-23T10:30:26Z</time>
      </trkpt>
      <trkpt lat="42.9138840" lon="1.1991150">
        <ele>464.2</ele>
        <time>2020-07-23T10:30:27Z</time>
      </trkpt>
      <trkpt lat="42.9138380" lon="1.1990160">
        <ele>463.8</ele>
        <time>2020-07-23T10:30:28Z</time>
      </trkpt>
      <trkpt lat="42.9137530" lon="1.1988150">
        <ele>463.4</ele>
        <time>2020-07-23T10:30:30Z</time>
      </trkpt>
      <trkpt lat="42.9136010" lon="1.1984040">
        <ele>463.0</ele>
        <time>2020-07-23T10:30:34Z</time>
      </trkpt>
      <trkpt lat="42.9135260" lon="1.1981960">
        <ele>462.6</ele>
        <time>2020-07-23T10:30:36Z</time>
      </trkpt>
      <trkpt lat="42.9133540" lon="1.1975760">
        <ele>462.6</ele>
        <time>2020-07-23T10:30:42Z</time>
      </trkpt>
      <trkpt lat="42.9132730" lon="1.1970460">
        <ele>463.0</ele>
        <time>2020-07-23T10:30:47Z</time>
      </trkpt>
      <trkpt lat="42.9132720" lon="1.1968360">
        <ele>463.2</ele>
        <time>2020-07-23T10:30:49Z</time>
      </trkpt>
      <trkpt lat="42.9132510" lon="1.1961880">
        <ele>463.2</ele>
        <time>2020-07-23T10:30:55Z</time>
      </trkpt>
      <trkpt lat="42.9132490" lon="1.1960830">
        <ele>463.0</ele>
        <time>2020-07-23T10:30:56Z</time>
      </trkpt>
      <trkpt lat="42.9132540" lon="1.1954630">
        <ele>462.0</ele>
        <time>2020-07-23T10:31:02Z</time>
      </trkpt>
      <trkpt lat="42.9132560" lon="1.1953600">
        <ele>461.8</ele>
        <time>2020-07-23T10:31:03Z</time>
      </trkpt>
      <trkpt lat="42.9132600" lon="1.1952580">
        <ele>461.4</ele>
        <time>2020-07-23T10:31:04Z</time>
      </trkpt>
      <trkpt lat="42.9132650" lon="1.1948500">
        <ele>460.4</ele>
        <time>2020-07-23T10:31:08Z</time>
      </trkpt>
      <trkpt lat="42.9132860" lon="1.1945770">
        <ele>460.2</ele>
        <time>2020-07-23T10:31:11Z</time>
      </trkpt>
      <trkpt lat="42.9133050" lon="1.1944030">
        <ele>460.4</ele>
        <time>2020-07-23T10:31:13Z</time>
      </trkpt>
      <trkpt lat="42.9133650" lon="1.1938540">
        <ele>460.2</ele>
        <time>2020-07-23T10:31:19Z</time>
      </trkpt>
      <trkpt lat="42.9134760" lon="1.1932560">
        <ele>460.2</ele>
        <time>2020-07-23T10:31:25Z</time>
      </trkpt>
      <trkpt lat="42.9135040" lon="1.1931610">
        <ele>460.4</ele>
        <time>2020-07-23T10:31:26Z</time>
      </trkpt>
      <trkpt lat="42.9135930" lon="1.1928800">
        <ele>460.8</ele>
        <time>2020-07-23T10:31:29Z</time>
      </trkpt>
      <trkpt lat="42.9136600" lon="1.1926970">
        <ele>460.8</ele>
        <time>2020-07-23T10:31:31Z</time>
      </trkpt>
      <trkpt lat="42.9137380" lon="1.1925200">
        <ele>460.8</ele>
        <time>2020-07-23T10:31:33Z</time>
      </trkpt>
      <trkpt lat="42.9139920" lon="1.1921090">
        <ele>460.8</ele>
        <time>2020-07-23T10:31:38Z</time>
      </trkpt>
      <trkpt lat="42.9143050" lon="1.1916890">
        <ele>461.4</ele>
        <time>2020-07-23T10:31:44Z</time>
      </trkpt>
      <trkpt lat="42.9143590" lon="1.1916260">
        <ele>461.4</ele>
        <time>2020-07-23T10:31:45Z</time>
      </trkpt>
      <trkpt lat="42.9145360" lon="1.1914490">
        <ele>461.8</ele>
        <time>2020-07-23T10:31:48Z</time>
      </trkpt>
      <trkpt lat="42.9146750" lon="1.1913620">
        <ele>461.8</ele>
        <time>2020-07-23T10:31:50Z</time>
      </trkpt>
      <trkpt lat="42.9149080" lon="1.1912830">
        <ele>461.8</ele>
        <time>2020-07-23T10:31:53Z</time>
      </trkpt>
      <trkpt lat="42.9149890" lon="1.1912710">
        <ele>461.6</ele>
        <time>2020-07-23T10:31:54Z</time>
      </trkpt>
      <trkpt lat="42.9153990" lon="1.1913000">
        <ele>460.6</ele>
        <time>2020-07-23T10:31:59Z</time>
      </trkpt>
      <trkpt lat="42.9157320" lon="1.1913910">
        <ele>460.4</ele>
        <time>2020-07-23T10:32:03Z</time>
      </trkpt>
      <trkpt lat="42.9158150" lon="1.1914260">
        <ele>460.2</ele>
        <time>2020-07-23T10:32:04Z</time>
      </trkpt>
      <trkpt lat="42.9161400" lon="1.1916070">
        <ele>460.0</ele>
        <time>2020-07-23T10:32:08Z</time>
      </trkpt>
      <trkpt lat="42.9162980" lon="1.1917100">
        <ele>459.8</ele>
        <time>2020-07-23T10:32:10Z</time>
      </trkpt>
      <trkpt lat="42.9167480" lon="1.1920640">
        <ele>459.8</ele>
        <time>2020-07-23T10:32:16Z</time>
      </trkpt>
      <trkpt lat="42.9168170" lon="1.1921230">
        <ele>459.8</ele>
        <time>2020-07-23T10:32:17Z</time>
      </trkpt>
      <trkpt lat="42.9170290" lon="1.1922750">
        <ele>459.4</ele>
        <time>2020-07-23T10:32:20Z</time>
      </trkpt>
      <trkpt lat="42.9171780" lon="1.1923350">
        <ele>459.0</ele>
        <time>2020-07-23T10:32:22Z</time>
      </trkpt>
      <trkpt lat="42.9173280" lon="1.1923650">
        <ele>458.4</ele>
        <time>2020-07-23T10:32:24Z</time>
      </trkpt>
      <trkpt lat="42.9175520" lon="1.1923230">
        <ele>458.4</ele>
        <time>2020-07-23T10:32:27Z</time>
      </trkpt>
      <trkpt lat="42.9176210" lon="1.1922760">
        <ele>458.4</ele>
        <time>2020-07-23T10:32:28Z</time>
      </trkpt>
      <trkpt lat="42.9177500" lon="1.1921570">
        <ele>458.2</ele>
        <time>2020-07-23T10:32:30Z</time>
      </trkpt>
      <trkpt lat="42.9178090" lon="1.1920920">
        <ele>458.0</ele>
        <time>2020-07-23T10:32:31Z</time>
      </trkpt>
      <trkpt lat="42.9178590" lon="1.1920190">
        <ele>458.2</ele>
        <time>2020-07-23T10:32:32Z</time>
      </trkpt>
      <trkpt lat="42.9180340" lon="1.1917030">
        <ele>459.4</ele>
        <time>2020-07-23T10:32:36Z</time>
      </trkpt>
      <trkpt lat="42.9181530" lon="1.1912210">
        <ele>459.6</ele>
        <time>2020-07-23T10:32:41Z</time>
      </trkpt>
      <trkpt lat="42.9181960" lon="1.1910140">
        <ele>459.2</ele>
        <time>2020-07-23T10:32:43Z</time>
      </trkpt>
      <trkpt lat="42.9182180" lon="1.1909130">
        <ele>458.2</ele>
        <time>2020-07-23T10:32:44Z</time>
      </trkpt>
      <trkpt lat="42.9182640" lon="1.1907110">
        <ele>457.0</ele>
        <time>2020-07-23T10:32:46Z</time>
      </trkpt>
      <trkpt lat="42.9183510" lon="1.1903050">
        <ele>456.6</ele>
        <time>2020-07-23T10:32:50Z</time>
      </trkpt>
      <trkpt lat="42.9185250" lon="1.1897080">
        <ele>456.4</ele>
        <time>2020-07-23T10:32:56Z</time>
      </trkpt>
      <trkpt lat="42.9185700" lon="1.1896150">
        <ele>456.2</ele>
        <time>2020-07-23T10:32:57Z</time>
      </trkpt>
      <trkpt lat="42.9187390" lon="1.1893740">
        <ele>456.0</ele>
        <time>2020-07-23T10:33:00Z</time>
      </trkpt>
      <trkpt lat="42.9187980" lon="1.1893000">
        <ele>455.8</ele>
        <time>2020-07-23T10:33:01Z</time>
      </trkpt>
      <trkpt lat="42.9192180" lon="1.1889550">
        <ele>455.6</ele>
        <time>2020-07-23T10:33:07Z</time>
      </trkpt>
      <trkpt lat="42.9195450" lon="1.1888540">
        <ele>455.8</ele>
        <time>2020-07-23T10:33:11Z</time>
      </trkpt>
      <trkpt lat="42.9197860" lon="1.1888120">
        <ele>455.6</ele>
        <time>2020-07-23T10:33:14Z</time>
      </trkpt>
      <trkpt lat="42.9201900" lon="1.1887530">
        <ele>455.6</ele>
        <time>2020-07-23T10:33:19Z</time>
      </trkpt>
      <trkpt lat="42.9206740" lon="1.1886840">
        <ele>455.4</ele>
        <time>2020-07-23T10:33:25Z</time>
      </trkpt>
      <trkpt lat="42.9207540" lon="1.1886620">
        <ele>455.0</ele>
        <time>2020-07-23T10:33:26Z</time>
      </trkpt>
      <trkpt lat="42.9208320" lon="1.1886350">
        <ele>454.8</ele>
        <time>2020-07-23T10:33:27Z</time>
      </trkpt>
      <trkpt lat="42.9211950" lon="1.1884000">
        <ele>454.0</ele>
        <time>2020-07-23T10:33:32Z</time>
      </trkpt>
      <trkpt lat="42.9214110" lon="1.1882340">
        <ele>453.6</ele>
        <time>2020-07-23T10:33:35Z</time>
      </trkpt>
      <trkpt lat="42.9217020" lon="1.1880040">
        <ele>453.0</ele>
        <time>2020-07-23T10:33:39Z</time>
      </trkpt>
      <trkpt lat="42.9221150" lon="1.1875970">
        <ele>453.4</ele>
        <time>2020-07-23T10:33:45Z</time>
      </trkpt>
      <trkpt lat="42.9224480" lon="1.1872830">
        <ele>453.4</ele>
        <time>2020-07-23T10:33:50Z</time>
      </trkpt>
      <trkpt lat="42.9225680" lon="1.1871540">
        <ele>453.4</ele>
        <time>2020-07-23T10:33:52Z</time>
      </trkpt>
      <trkpt lat="42.9228280" lon="1.1869070">
        <ele>453.6</ele>
        <time>2020-07-23T10:33:56Z</time>
      </trkpt>
      <trkpt lat="42.9231830" lon="1.1864610">
        <ele>453.6</ele>
        <time>2020-07-23T10:34:02Z</time>
      </trkpt>
      <trkpt lat="42.9232270" lon="1.1863660">
        <ele>453.4</ele>
        <time>2020-07-23T10:34:03Z</time>
      </trkpt>
      <trkpt lat="42.9233150" lon="1.1861670">
        <ele>453.2</ele>
        <time>2020-07-23T10:34:05Z</time>
      </trkpt>
      <trkpt lat="42.9233540" lon="1.1860640">
        <ele>453.2</ele>
        <time>2020-07-23T10:34:06Z</time>
      </trkpt>
      <trkpt lat="42.9234670" lon="1.1856300">
        <ele>453.0</ele>
        <time>2020-07-23T10:34:10Z</time>
      </trkpt>
      <trkpt lat="42.9234880" lon="1.1855170">
        <ele>452.8</ele>
        <time>2020-07-23T10:34:11Z</time>
      </trkpt>
      <trkpt lat="42.9235270" lon="1.1852920">
        <ele>452.4</ele>
        <time>2020-07-23T10:34:13Z</time>
      </trkpt>
      <trkpt lat="42.9235580" lon="1.1850670">
        <ele>452.2</ele>
        <time>2020-07-23T10:34:15Z</time>
      </trkpt>
      <trkpt lat="42.9235800" lon="1.1848370">
        <ele>452.0</ele>
        <time>2020-07-23T10:34:17Z</time>
      </trkpt>
      <trkpt lat="42.9236140" lon="1.1844980">
        <ele>452.0</ele>
        <time>2020-07-23T10:34:20Z</time>
      </trkpt>
      <trkpt lat="42.9236260" lon="1.1843850">
        <ele>452.0</ele>
        <time>2020-07-23T10:34:21Z</time>
      </trkpt>
      <trkpt lat="42.9237200" lon="1.1838250">
        <ele>452.0</ele>
        <time>2020-07-23T10:34:26Z</time>
      </trkpt>
      <trkpt lat="42.9237590" lon="1.1837230">
        <ele>452.0</ele>
        <time>2020-07-23T10:34:27Z</time>
      </trkpt>
      <trkpt lat="42.9238530" lon="1.1835300">
        <ele>452.2</ele>
        <time>2020-07-23T10:34:29Z</time>
      </trkpt>
      <trkpt lat="42.9239080" lon="1.1834400">
        <ele>452.2</ele>
        <time>2020-07-23T10:34:30Z</time>
      </trkpt>
      <trkpt lat="42.9240400" lon="1.1832860">
        <ele>451.8</ele>
        <time>2020-07-23T10:34:32Z</time>
      </trkpt>
      <trkpt lat="42.9241950" lon="1.1831780">
        <ele>451.6</ele>
        <time>2020-07-23T10:34:34Z</time>
      </trkpt>
      <trkpt lat="42.9244650" lon="1.1830890">
        <ele>452.0</ele>
        <time>2020-07-23T10:34:37Z</time>
      </trkpt>
      <trkpt lat="42.9245610" lon="1.1830820">
        <ele>452.2</ele>
        <time>2020-07-23T10:34:38Z</time>
      </trkpt>
      <trkpt lat="42.9246540" lon="1.1830820">
        <ele>452.2</ele>
        <time>2020-07-23T10:34:39Z</time>
      </trkpt>
      <trkpt lat="42.9249240" lon="1.1831250">
        <ele>451.8</ele>
        <time>2020-07-23T10:34:42Z</time>
      </trkpt>
      <trkpt lat="42.9251740" lon="1.1832310">
        <ele>451.4</ele>
        <time>2020-07-23T10:34:45Z</time>
      </trkpt>
      <trkpt lat="42.9253330" lon="1.1833140">
        <ele>451.4</ele>
        <time>2020-07-23T10:34:47Z</time>
      </trkpt>
      <trkpt lat="42.9254890" lon="1.1833990">
        <ele>451.4</ele>
        <time>2020-07-23T10:34:49Z</time>
      </trkpt>
      <trkpt lat="42.9258560" lon="1.1836110">
        <ele>451.6</ele>
        <time>2020-07-23T10:34:54Z</time>
      </trkpt>
      <trkpt lat="42.9262960" lon="1.1838680">
        <ele>451.6</ele>
        <time>2020-07-23T10:35:00Z</time>
      </trkpt>
      <trkpt lat="42.9263690" lon="1.1839090">
        <ele>451.6</ele>
        <time>2020-07-23T10:35:01Z</time>
      </trkpt>
      <trkpt lat="42.9265900" lon="1.1840080">
        <ele>451.4</ele>
        <time>2020-07-23T10:35:04Z</time>
      </trkpt>
      <trkpt lat="42.9268290" lon="1.1840630">
        <ele>451.2</ele>
        <time>2020-07-23T10:35:07Z</time>
      </trkpt>
      <trkpt lat="42.9272620" lon="1.1840440">
        <ele>450.8</ele>
        <time>2020-07-23T10:35:12Z</time>
      </trkpt>
      <trkpt lat="42.9277640" lon="1.1839630">
        <ele>450.6</ele>
        <time>2020-07-23T10:35:18Z</time>
      </trkpt>
      <trkpt lat="42.9280990" lon="1.1838540">
        <ele>450.2</ele>
        <time>2020-07-23T10:35:22Z</time>
      </trkpt>
      <trkpt lat="42.9283420" lon="1.1837500">
        <ele>450.0</ele>
        <time>2020-07-23T10:35:25Z</time>
      </trkpt>
      <trkpt lat="42.9284980" lon="1.1836760">
        <ele>450.0</ele>
        <time>2020-07-23T10:35:27Z</time>
      </trkpt>
      <trkpt lat="42.9288060" lon="1.1835220">
        <ele>449.8</ele>
        <time>2020-07-23T10:35:31Z</time>
      </trkpt>
      <trkpt lat="42.9292550" lon="1.1831950">
        <ele>449.8</ele>
        <time>2020-07-23T10:35:37Z</time>
      </trkpt>
      <trkpt lat="42.9295570" lon="1.1827880">
        <ele>450.0</ele>
        <time>2020-07-23T10:35:42Z</time>
      </trkpt>
      <trkpt lat="42.9296030" lon="1.1826920">
        <ele>449.8</ele>
        <time>2020-07-23T10:35:43Z</time>
      </trkpt>
      <trkpt lat="42.9297130" lon="1.1823830">
        <ele>449.4</ele>
        <time>2020-07-23T10:35:46Z</time>
      </trkpt>
      <trkpt lat="42.9297720" lon="1.1821720">
        <ele>449.2</ele>
        <time>2020-07-23T10:35:48Z</time>
      </trkpt>
      <trkpt lat="42.9298900" lon="1.1817580">
        <ele>448.8</ele>
        <time>2020-07-23T10:35:52Z</time>
      </trkpt>
      <trkpt lat="42.9300630" lon="1.1811290">
        <ele>448.2</ele>
        <time>2020-07-23T10:35:58Z</time>
      </trkpt>
      <trkpt lat="42.9301200" lon="1.1809180">
        <ele>448.4</ele>
        <time>2020-07-23T10:36:00Z</time>
      </trkpt>
      <trkpt lat="42.9303400" lon="1.1803290">
        <ele>448.4</ele>
        <time>2020-07-23T10:36:06Z</time>
      </trkpt>
      <trkpt lat="42.9303950" lon="1.1802440">
        <ele>448.6</ele>
        <time>2020-07-23T10:36:07Z</time>
      </trkpt>
      <trkpt lat="42.9304570" lon="1.1801670">
        <ele>448.8</ele>
        <time>2020-07-23T10:36:08Z</time>
      </trkpt>
      <trkpt lat="42.9306600" lon="1.1799830">
        <ele>449.6</ele>
        <time>2020-07-23T10:36:11Z</time>
      </trkpt>
      <trkpt lat="42.9307280" lon="1.1799320">
        <ele>450.0</ele>
        <time>2020-07-23T10:36:12Z</time>
      </trkpt>
      <trkpt lat="42.9308580" lon="1.1798270">
        <ele>450.4</ele>
        <time>2020-07-23T10:36:14Z</time>
      </trkpt>
      <trkpt lat="42.9310470" lon="1.1796490">
        <ele>451.0</ele>
        <time>2020-07-23T10:36:17Z</time>
      </trkpt>
      <trkpt lat="42.9311080" lon="1.1795820">
        <ele>451.0</ele>
        <time>2020-07-23T10:36:18Z</time>
      </trkpt>
      <trkpt lat="42.9314300" lon="1.1791150">
        <ele>450.6</ele>
        <time>2020-07-23T10:36:24Z</time>
      </trkpt>
      <trkpt lat="42.9317190" lon="1.1786110">
        <ele>450.8</ele>
        <time>2020-07-23T10:36:30Z</time>
      </trkpt>
      <trkpt lat="42.9318190" lon="1.1784490">
        <ele>450.4</ele>
        <time>2020-07-23T10:36:32Z</time>
      </trkpt>
      <trkpt lat="42.9319100" lon="1.1782860">
        <ele>449.2</ele>
        <time>2020-07-23T10:36:34Z</time>
      </trkpt>
      <trkpt lat="42.9320100" lon="1.1781210">
        <ele>448.2</ele>
        <time>2020-07-23T10:36:36Z</time>
      </trkpt>
      <trkpt lat="42.9321150" lon="1.1779560">
        <ele>448.0</ele>
        <time>2020-07-23T10:36:38Z</time>
      </trkpt>
      <trkpt lat="42.9322280" lon="1.1777900">
        <ele>447.8</ele>
        <time>2020-07-23T10:36:40Z</time>
      </trkpt>
      <trkpt lat="42.9324190" lon="1.1775630">
        <ele>447.6</ele>
        <time>2020-07-23T10:36:43Z</time>
      </trkpt>
      <trkpt lat="42.9324910" lon="1.1774950">
        <ele>447.4</ele>
        <time>2020-07-23T10:36:44Z</time>
      </trkpt>
      <trkpt lat="42.9325680" lon="1.1774360">
        <ele>447.0</ele>
        <time>2020-07-23T10:36:45Z</time>
      </trkpt>
      <trkpt lat="42.9326510" lon="1.1773890">
        <ele>446.6</ele>
        <time>2020-07-23T10:36:46Z</time>
      </trkpt>
      <trkpt lat="42.9328360" lon="1.1773220">
        <ele>446.0</ele>
        <time>2020-07-23T10:36:48Z</time>
      </trkpt>
      <trkpt lat="42.9329320" lon="1.1773000">
        <ele>445.6</ele>
        <time>2020-07-23T10:36:49Z</time>
      </trkpt>
      <trkpt lat="42.9332240" lon="1.1772430">
        <ele>444.4</ele>
        <time>2020-07-23T10:36:52Z</time>
      </trkpt>
      <trkpt lat="42.9334180" lon="1.1771970">
        <ele>444.2</ele>
        <time>2020-07-23T10:36:54Z</time>
      </trkpt>
      <trkpt lat="42.9339870" lon="1.1770740">
        <ele>444.6</ele>
        <time>2020-07-23T10:37:00Z</time>
      </trkpt>
      <trkpt lat="42.9340800" lon="1.1770660">
        <ele>445.0</ele>
        <time>2020-07-23T10:37:01Z</time>
      </trkpt>
      <trkpt lat="42.9345480" lon="1.1771010">
        <ele>445.2</ele>
        <time>2020-07-23T10:37:06Z</time>
      </trkpt>
      <trkpt lat="42.9346370" lon="1.1771130">
        <ele>445.2</ele>
        <time>2020-07-23T10:37:07Z</time>
      </trkpt>
      <trkpt lat="42.9350820" lon="1.1771460">
        <ele>445.0</ele>
        <time>2020-07-23T10:37:12Z</time>
      </trkpt>
      <trkpt lat="42.9353350" lon="1.1771740">
        <ele>445.2</ele>
        <time>2020-07-23T10:37:15Z</time>
      </trkpt>
      <trkpt lat="42.9354170" lon="1.1771840">
        <ele>445.4</ele>
        <time>2020-07-23T10:37:16Z</time>
      </trkpt>
      <trkpt lat="42.9359070" lon="1.1772110">
        <ele>445.6</ele>
        <time>2020-07-23T10:37:22Z</time>
      </trkpt>
      <trkpt lat="42.9360670" lon="1.1771920">
        <ele>445.6</ele>
        <time>2020-07-23T10:37:24Z</time>
      </trkpt>
      <trkpt lat="42.9363790" lon="1.1771270">
        <ele>446.0</ele>
        <time>2020-07-23T10:37:28Z</time>
      </trkpt>
      <trkpt lat="42.9367950" lon="1.1769280">
        <ele>445.8</ele>
        <time>2020-07-23T10:37:34Z</time>
      </trkpt>
      <trkpt lat="42.9371910" lon="1.1766320">
        <ele>445.2</ele>
        <time>2020-07-23T10:37:40Z</time>
      </trkpt>
      <trkpt lat="42.9372580" lon="1.1765830">
        <ele>444.8</ele>
        <time>2020-07-23T10:37:41Z</time>
      </trkpt>
      <trkpt lat="42.9374730" lon="1.1764300">
        <ele>444.4</ele>
        <time>2020-07-23T10:37:44Z</time>
      </trkpt>
      <trkpt lat="42.9376940" lon="1.1762450">
        <ele>444.2</ele>
        <time>2020-07-23T10:37:47Z</time>
      </trkpt>
      <trkpt lat="42.9378360" lon="1.1761160">
        <ele>443.2</ele>
        <time>2020-07-23T10:37:49Z</time>
      </trkpt>
      <trkpt lat="42.9379670" lon="1.1759690">
        <ele>441.8</ele>
        <time>2020-07-23T10:37:51Z</time>
      </trkpt>
      <trkpt lat="42.9381070" lon="1.1758280">
        <ele>441.4</ele>
        <time>2020-07-23T10:37:53Z</time>
      </trkpt>
      <trkpt lat="42.9384150" lon="1.1756130">
        <ele>441.6</ele>
        <time>2020-07-23T10:37:57Z</time>
      </trkpt>
      <trkpt lat="42.9385020" lon="1.1755870">
        <ele>441.8</ele>
        <time>2020-07-23T10:37:58Z</time>
      </trkpt>
      <trkpt lat="42.9385900" lon="1.1755740">
        <ele>441.8</ele>
        <time>2020-07-23T10:37:59Z</time>
      </trkpt>
      <trkpt lat="42.9387640" lon="1.1755890">
        <ele>441.6</ele>
        <time>2020-07-23T10:38:01Z</time>
      </trkpt>
      <trkpt lat="42.9388490" lon="1.1756180">
        <ele>441.8</ele>
        <time>2020-07-23T10:38:02Z</time>
      </trkpt>
      <trkpt lat="42.9390070" lon="1.1757070">
        <ele>441.8</ele>
        <time>2020-07-23T10:38:04Z</time>
      </trkpt>
      <trkpt lat="42.9391480" lon="1.1758300">
        <ele>441.8</ele>
        <time>2020-07-23T10:38:06Z</time>
      </trkpt>
      <trkpt lat="42.9395840" lon="1.1762020">
        <ele>440.8</ele>
        <time>2020-07-23T10:38:12Z</time>
      </trkpt>
      <trkpt lat="42.9396580" lon="1.1762670">
        <ele>440.8</ele>
        <time>2020-07-23T10:38:13Z</time>
      </trkpt>
      <trkpt lat="42.9400130" lon="1.1766110">
        <ele>440.2</ele>
        <time>2020-07-23T10:38:18Z</time>
      </trkpt>
      <trkpt lat="42.9401570" lon="1.1767300">
        <ele>440.0</ele>
        <time>2020-07-23T10:38:20Z</time>
      </trkpt>
      <trkpt lat="42.9403720" lon="1.1768690">
        <ele>440.4</ele>
        <time>2020-07-23T10:38:23Z</time>
      </trkpt>
      <trkpt lat="42.9404460" lon="1.1768980">
        <ele>440.8</ele>
        <time>2020-07-23T10:38:24Z</time>
      </trkpt>
      <trkpt lat="42.9405890" lon="1.1769270">
        <ele>441.0</ele>
        <time>2020-07-23T10:38:26Z</time>
      </trkpt>
      <trkpt lat="42.9407360" lon="1.1769100">
        <ele>441.0</ele>
        <time>2020-07-23T10:38:28Z</time>
      </trkpt>
      <trkpt lat="42.9408080" lon="1.1768860">
        <ele>441.2</ele>
        <time>2020-07-23T10:38:29Z</time>
      </trkpt>
      <trkpt lat="42.9409510" lon="1.1768190">
        <ele>441.2</ele>
        <time>2020-07-23T10:38:31Z</time>
      </trkpt>
      <trkpt lat="42.9410200" lon="1.1767770">
        <ele>441.4</ele>
        <time>2020-07-23T10:38:32Z</time>
      </trkpt>
      <trkpt lat="42.9413310" lon="1.1765010">
        <ele>441.4</ele>
        <time>2020-07-23T10:38:37Z</time>
      </trkpt>
      <trkpt lat="42.9416790" lon="1.1761200">
        <ele>439.6</ele>
        <time>2020-07-23T10:38:43Z</time>
      </trkpt>
      <trkpt lat="42.9417930" lon="1.1759770">
        <ele>438.8</ele>
        <time>2020-07-23T10:38:45Z</time>
      </trkpt>
      <trkpt lat="42.9418990" lon="1.1758300">
        <ele>438.4</ele>
        <time>2020-07-23T10:38:47Z</time>
      </trkpt>
      <trkpt lat="42.9422010" lon="1.1753970">
        <ele>437.6</ele>
        <time>2020-07-23T10:38:53Z</time>
      </trkpt>
      <trkpt lat="42.9422520" lon="1.1753340">
        <ele>437.4</ele>
        <time>2020-07-23T10:38:54Z</time>
      </trkpt>
      <trkpt lat="42.9425420" lon="1.1750440">
        <ele>436.4</ele>
        <time>2020-07-23T10:38:59Z</time>
      </trkpt>
      <trkpt lat="42.9425990" lon="1.1749850">
        <ele>435.8</ele>
        <time>2020-07-23T10:39:00Z</time>
      </trkpt>
      <trkpt lat="42.9426520" lon="1.1749250">
        <ele>435.2</ele>
        <time>2020-07-23T10:39:01Z</time>
      </trkpt>
      <trkpt lat="42.9427490" lon="1.1747870">
        <ele>434.8</ele>
        <time>2020-07-23T10:39:03Z</time>
      </trkpt>
      <trkpt lat="42.9428280" lon="1.1746290">
        <ele>434.6</ele>
        <time>2020-07-23T10:39:05Z</time>
      </trkpt>
      <trkpt lat="42.9428830" lon="1.1744590">
        <ele>434.8</ele>
        <time>2020-07-23T10:39:07Z</time>
      </trkpt>
      <trkpt lat="42.9429520" lon="1.1742120">
        <ele>435.2</ele>
        <time>2020-07-23T10:39:10Z</time>
      </trkpt>
      <trkpt lat="42.9429790" lon="1.1741330">
        <ele>435.4</ele>
        <time>2020-07-23T10:39:11Z</time>
      </trkpt>
      <trkpt lat="42.9430210" lon="1.1739560">
        <ele>435.6</ele>
        <time>2020-07-23T10:39:13Z</time>
      </trkpt>
      <trkpt lat="42.9431270" lon="1.1736240">
        <ele>435.6</ele>
        <time>2020-07-23T10:39:17Z</time>
      </trkpt>
      <trkpt lat="42.9431590" lon="1.1735440">
        <ele>435.6</ele>
        <time>2020-07-23T10:39:18Z</time>
      </trkpt>
      <trkpt lat="42.9432430" lon="1.1734090">
        <ele>435.6</ele>
        <time>2020-07-23T10:39:20Z</time>
      </trkpt>
      <trkpt lat="42.9433410" lon="1.1733060">
        <ele>435.6</ele>
        <time>2020-07-23T10:39:22Z</time>
      </trkpt>
      <trkpt lat="42.9436540" lon="1.1729790">
        <ele>435.6</ele>
        <time>2020-07-23T10:39:28Z</time>
      </trkpt>
      <trkpt lat="42.9437070" lon="1.1729230">
        <ele>435.4</ele>
        <time>2020-07-23T10:39:29Z</time>
      </trkpt>
      <trkpt lat="42.9438210" lon="1.1728270">
        <ele>435.2</ele>
        <time>2020-07-23T10:39:31Z</time>
      </trkpt>
      <trkpt lat="42.9439170" lon="1.1727040">
        <ele>435.0</ele>
        <time>2020-07-23T10:39:33Z</time>
      </trkpt>
      <trkpt lat="42.9440560" lon="1.1725200">
        <ele>435.4</ele>
        <time>2020-07-23T10:39:36Z</time>
      </trkpt>
      <trkpt lat="42.9442780" lon="1.1720530">
        <ele>435.8</ele>
        <time>2020-07-23T10:39:42Z</time>
      </trkpt>
      <trkpt lat="42.9443180" lon="1.1719700">
        <ele>435.8</ele>
        <time>2020-07-23T10:39:43Z</time>
      </trkpt>
      <trkpt lat="42.9445990" lon="1.1714510">
        <ele>434.2</ele>
        <time>2020-07-23T10:39:49Z</time>
      </trkpt>
      <trkpt lat="42.9446520" lon="1.1713650">
        <ele>434.2</ele>
        <time>2020-07-23T10:39:50Z</time>
      </trkpt>
      <trkpt lat="42.9449800" lon="1.1708620">
        <ele>433.8</ele>
        <time>2020-07-23T10:39:56Z</time>
      </trkpt>
      <trkpt lat="42.9450340" lon="1.1707790">
        <ele>433.8</ele>
        <time>2020-07-23T10:39:57Z</time>
      </trkpt>
      <trkpt lat="42.9453660" lon="1.1703150">
        <ele>433.6</ele>
        <time>2020-07-23T10:40:03Z</time>
      </trkpt>
      <trkpt lat="42.9455490" lon="1.1701000">
        <ele>433.6</ele>
        <time>2020-07-23T10:40:06Z</time>
      </trkpt>
      <trkpt lat="42.9457440" lon="1.1699230">
        <ele>433.6</ele>
        <time>2020-07-23T10:40:09Z</time>
      </trkpt>
      <trkpt lat="42.9461230" lon="1.1696480">
        <ele>434.0</ele>
        <time>2020-07-23T10:40:15Z</time>
      </trkpt>
      <trkpt lat="42.9464900" lon="1.1695610">
        <ele>434.0</ele>
        <time>2020-07-23T10:40:20Z</time>
      </trkpt>
      <trkpt lat="42.9465670" lon="1.1695700">
        <ele>434.0</ele>
        <time>2020-07-23T10:40:21Z</time>
      </trkpt>
      <trkpt lat="42.9469840" lon="1.1696580">
        <ele>434.8</ele>
        <time>2020-07-23T10:40:27Z</time>
      </trkpt>
      <trkpt lat="42.9474150" lon="1.1697820">
        <ele>433.8</ele>
        <time>2020-07-23T10:40:33Z</time>
      </trkpt>
      <trkpt lat="42.9474920" lon="1.1698090">
        <ele>434.0</ele>
        <time>2020-07-23T10:40:34Z</time>
      </trkpt>
      <trkpt lat="42.9478050" lon="1.1699400">
        <ele>434.0</ele>
        <time>2020-07-23T10:40:38Z</time>
      </trkpt>
      <trkpt lat="42.9479640" lon="1.1700180">
        <ele>433.0</ele>
        <time>2020-07-23T10:40:40Z</time>
      </trkpt>
      <trkpt lat="42.9482040" lon="1.1701350">
        <ele>431.8</ele>
        <time>2020-07-23T10:40:43Z</time>
      </trkpt>
      <trkpt lat="42.9484430" lon="1.1702620">
        <ele>431.4</ele>
        <time>2020-07-23T10:40:46Z</time>
      </trkpt>
      <trkpt lat="42.9486090" lon="1.1703530">
        <ele>431.4</ele>
        <time>2020-07-23T10:40:48Z</time>
      </trkpt>
      <trkpt lat="42.9487690" lon="1.1704600">
        <ele>431.2</ele>
        <time>2020-07-23T10:40:50Z</time>
      </trkpt>
      <trkpt lat="42.9489990" lon="1.1706390">
        <ele>431.0</ele>
        <time>2020-07-23T10:40:53Z</time>
      </trkpt>
      <trkpt lat="42.9490730" lon="1.1707010">
        <ele>430.6</ele>
        <time>2020-07-23T10:40:54Z</time>
      </trkpt>
      <trkpt lat="42.9494280" lon="1.1710420">
        <ele>430.0</ele>
        <time>2020-07-23T10:40:59Z</time>
      </trkpt>
      <trkpt lat="42.9498240" lon="1.1715320">
        <ele>430.0</ele>
        <time>2020-07-23T10:41:05Z</time>
      </trkpt>
      <trkpt lat="42.9500220" lon="1.1719110">
        <ele>430.0</ele>
        <time>2020-07-23T10:41:09Z</time>
      </trkpt>
      <trkpt lat="42.9500620" lon="1.1720090">
        <ele>430.0</ele>
        <time>2020-07-23T10:41:10Z</time>
      </trkpt>
      <trkpt lat="42.9501750" lon="1.1723030">
        <ele>430.2</ele>
        <time>2020-07-23T10:41:13Z</time>
      </trkpt>
      <trkpt lat="42.9503190" lon="1.1726740">
        <ele>430.2</ele>
        <time>2020-07-23T10:41:17Z</time>
      </trkpt>
      <trkpt lat="42.9504030" lon="1.1729440">
        <ele>430.8</ele>
        <time>2020-07-23T10:41:20Z</time>
      </trkpt>
      <trkpt lat="42.9504460" lon="1.1731160">
        <ele>431.4</ele>
        <time>2020-07-23T10:41:22Z</time>
      </trkpt>
      <trkpt lat="42.9504670" lon="1.1731990">
        <ele>431.8</ele>
        <time>2020-07-23T10:41:23Z</time>
      </trkpt>
      <trkpt lat="42.9504870" lon="1.1732780">
        <ele>432.2</ele>
        <time>2020-07-23T10:41:24Z</time>
      </trkpt>
      <trkpt lat="42.9505090" lon="1.1733530">
        <ele>432.4</ele>
        <time>2020-07-23T10:41:25Z</time>
      </trkpt>
      <trkpt lat="42.9505640" lon="1.1734900">
        <ele>432.8</ele>
        <time>2020-07-23T10:41:27Z</time>
      </trkpt>
      <trkpt lat="42.9505970" lon="1.1735510">
        <ele>433.0</ele>
        <time>2020-07-23T10:41:28Z</time>
      </trkpt>
      <trkpt lat="42.9506900" lon="1.1736600">
        <ele>433.0</ele>
        <time>2020-07-23T10:41:30Z</time>
      </trkpt>
      <trkpt lat="42.9508020" lon="1.1737540">
        <ele>433.0</ele>
        <time>2020-07-23T10:41:32Z</time>
      </trkpt>
      <trkpt lat="42.9510520" lon="1.1739830">
        <ele>431.4</ele>
        <time>2020-07-23T10:41:36Z</time>
      </trkpt>
      <trkpt lat="42.9511860" lon="1.1741040">
        <ele>430.8</ele>
        <time>2020-07-23T10:41:38Z</time>
      </trkpt>
      <trkpt lat="42.9513840" lon="1.1742790">
        <ele>430.2</ele>
        <time>2020-07-23T10:41:41Z</time>
      </trkpt>
      <trkpt lat="42.9516850" lon="1.1745460">
        <ele>429.8</ele>
        <time>2020-07-23T10:41:46Z</time>
      </trkpt>
      <trkpt lat="42.9520470" lon="1.1748670">
        <ele>430.4</ele>
        <time>2020-07-23T10:41:52Z</time>
      </trkpt>
      <trkpt lat="42.9524300" lon="1.1752070">
        <ele>429.2</ele>
        <time>2020-07-23T10:41:58Z</time>
      </trkpt>
      <trkpt lat="42.9525630" lon="1.1753250">
        <ele>429.0</ele>
        <time>2020-07-23T10:42:00Z</time>
      </trkpt>
      <trkpt lat="42.9528310" lon="1.1755740">
        <ele>428.8</ele>
        <time>2020-07-23T10:42:04Z</time>
      </trkpt>
      <trkpt lat="42.9531630" lon="1.1758750">
        <ele>428.4</ele>
        <time>2020-07-23T10:42:09Z</time>
      </trkpt>
      <trkpt lat="42.9532970" lon="1.1759990">
        <ele>428.2</ele>
        <time>2020-07-23T10:42:11Z</time>
      </trkpt>
      <trkpt lat="42.9535470" lon="1.1762540">
        <ele>427.0</ele>
        <time>2020-07-23T10:42:15Z</time>
      </trkpt>
      <trkpt lat="42.9537900" lon="1.1764940">
        <ele>426.6</ele>
        <time>2020-07-23T10:42:19Z</time>
      </trkpt>
      <trkpt lat="42.9539330" lon="1.1765840">
        <ele>426.4</ele>
        <time>2020-07-23T10:42:21Z</time>
      </trkpt>
      <trkpt lat="42.9540980" lon="1.1766400">
        <ele>426.2</ele>
        <time>2020-07-23T10:42:23Z</time>
      </trkpt>
      <trkpt lat="42.9542560" lon="1.1766470">
        <ele>425.8</ele>
        <time>2020-07-23T10:42:25Z</time>
      </trkpt>
      <trkpt lat="42.9546610" lon="1.1765590">
        <ele>425.4</ele>
        <time>2020-07-23T10:42:30Z</time>
      </trkpt>
      <trkpt lat="42.9551000" lon="1.1763970">
        <ele>426.2</ele>
        <time>2020-07-23T10:42:36Z</time>
      </trkpt>
      <trkpt lat="42.9551640" lon="1.1763710">
        <ele>426.4</ele>
        <time>2020-07-23T10:42:37Z</time>
      </trkpt>
      <trkpt lat="42.9553600" lon="1.1763030">
        <ele>427.0</ele>
        <time>2020-07-23T10:42:40Z</time>
      </trkpt>
      <trkpt lat="42.9555440" lon="1.1762390">
        <ele>427.4</ele>
        <time>2020-07-23T10:42:43Z</time>
      </trkpt>
      <trkpt lat="42.9556680" lon="1.1761960">
        <ele>427.2</ele>
        <time>2020-07-23T10:42:45Z</time>
      </trkpt>
      <trkpt lat="42.9558030" lon="1.1761450">
        <ele>426.6</ele>
        <time>2020-07-23T10:42:47Z</time>
      </trkpt>
      <trkpt lat="42.9559400" lon="1.1760950">
        <ele>426.0</ele>
        <time>2020-07-23T10:42:49Z</time>
      </trkpt>
      <trkpt lat="42.9560840" lon="1.1760410">
        <ele>425.8</ele>
        <time>2020-07-23T10:42:51Z</time>
      </trkpt>
      <trkpt lat="42.9561580" lon="1.1760140">
        <ele>425.6</ele>
        <time>2020-07-23T10:42:52Z</time>
      </trkpt>
      <trkpt lat="42.9566230" lon="1.1758620">
        <ele>426.0</ele>
        <time>2020-07-23T10:42:58Z</time>
      </trkpt>
      <trkpt lat="42.9567770" lon="1.1758110">
        <ele>425.8</ele>
        <time>2020-07-23T10:43:00Z</time>
      </trkpt>
      <trkpt lat="42.9572550" lon="1.1756740">
        <ele>424.6</ele>
        <time>2020-07-23T10:43:06Z</time>
      </trkpt>
      <trkpt lat="42.9574950" lon="1.1756350">
        <ele>424.0</ele>
        <time>2020-07-23T10:43:09Z</time>
      </trkpt>
      <trkpt lat="42.9577420" lon="1.1755610">
        <ele>423.8</ele>
        <time>2020-07-23T10:43:12Z</time>
      </trkpt>
      <trkpt lat="42.9578250" lon="1.1755310">
        <ele>423.4</ele>
        <time>2020-07-23T10:43:13Z</time>
      </trkpt>
      <trkpt lat="42.9583010" lon="1.1753300">
        <ele>423.6</ele>
        <time>2020-07-23T10:43:19Z</time>
      </trkpt>
      <trkpt lat="42.9587460" lon="1.1751200">
        <ele>424.0</ele>
        <time>2020-07-23T10:43:25Z</time>
      </trkpt>
      <trkpt lat="42.9588920" lon="1.1750510">
        <ele>424.0</ele>
        <time>2020-07-23T10:43:27Z</time>
      </trkpt>
      <trkpt lat="42.9593340" lon="1.1748320">
        <ele>423.8</ele>
        <time>2020-07-23T10:43:33Z</time>
      </trkpt>
      <trkpt lat="42.9595570" lon="1.1747240">
        <ele>423.6</ele>
        <time>2020-07-23T10:43:36Z</time>
      </trkpt>
      <trkpt lat="42.9600000" lon="1.1745460">
        <ele>424.6</ele>
        <time>2020-07-23T10:43:42Z</time>
      </trkpt>
      <trkpt lat="42.9601390" lon="1.1744970">
        <ele>425.0</ele>
        <time>2020-07-23T10:43:44Z</time>
      </trkpt>
      <trkpt lat="42.9603770" lon="1.1743830">
        <ele>425.2</ele>
        <time>2020-07-23T10:43:48Z</time>
      </trkpt>
      <trkpt lat="42.9604290" lon="1.1743420">
        <ele>425.2</ele>
        <time>2020-07-23T10:43:49Z</time>
      </trkpt>
      <trkpt lat="42.9604780" lon="1.1742910">
        <ele>425.2</ele>
        <time>2020-07-23T10:43:50Z</time>
      </trkpt>
      <trkpt lat="42.9606700" lon="1.1740720">
        <ele>425.6</ele>
        <time>2020-07-23T10:43:54Z</time>
      </trkpt>
      <trkpt lat="42.9607200" lon="1.1740120">
        <ele>425.6</ele>
        <time>2020-07-23T10:43:55Z</time>
      </trkpt>
      <trkpt lat="42.9610510" lon="1.1736650">
        <ele>425.2</ele>
        <time>2020-07-23T10:44:01Z</time>
      </trkpt>
      <trkpt lat="42.9611100" lon="1.1736110">
        <ele>425.0</ele>
        <time>2020-07-23T10:44:02Z</time>
      </trkpt>
      <trkpt lat="42.9613550" lon="1.1733680">
        <ele>424.6</ele>
        <time>2020-07-23T10:44:06Z</time>
      </trkpt>
      <trkpt lat="42.9614810" lon="1.1732450">
        <ele>424.2</ele>
        <time>2020-07-23T10:44:08Z</time>
      </trkpt>
      <trkpt lat="42.9618020" lon="1.1729320">
        <ele>423.6</ele>
        <time>2020-07-23T10:44:13Z</time>
      </trkpt>
      <trkpt lat="42.9619940" lon="1.1727370">
        <ele>423.2</ele>
        <time>2020-07-23T10:44:16Z</time>
      </trkpt>
      <trkpt lat="42.9623690" lon="1.1723680">
        <ele>424.2</ele>
        <time>2020-07-23T10:44:22Z</time>
      </trkpt>
      <trkpt lat="42.9624930" lon="1.1722480">
        <ele>423.6</ele>
        <time>2020-07-23T10:44:24Z</time>
      </trkpt>
      <trkpt lat="42.9626880" lon="1.1720600">
        <ele>423.4</ele>
        <time>2020-07-23T10:44:27Z</time>
      </trkpt>
      <trkpt lat="42.9629410" lon="1.1718030">
        <ele>423.4</ele>
        <time>2020-07-23T10:44:31Z</time>
      </trkpt>
      <trkpt lat="42.9631320" lon="1.1716130">
        <ele>422.0</ele>
        <time>2020-07-23T10:44:34Z</time>
      </trkpt>
      <trkpt lat="42.9631960" lon="1.1715470">
        <ele>421.6</ele>
        <time>2020-07-23T10:44:35Z</time>
      </trkpt>
      <trkpt lat="42.9632590" lon="1.1714820">
        <ele>421.4</ele>
        <time>2020-07-23T10:44:36Z</time>
      </trkpt>
      <trkpt lat="42.9635620" lon="1.1711840">
        <ele>420.8</ele>
        <time>2020-07-23T10:44:41Z</time>
      </trkpt>
      <trkpt lat="42.9638940" lon="1.1708690">
        <ele>419.8</ele>
        <time>2020-07-23T10:44:47Z</time>
      </trkpt>
      <trkpt lat="42.9639440" lon="1.1708300">
        <ele>419.8</ele>
        <time>2020-07-23T10:44:48Z</time>
      </trkpt>
      <trkpt lat="42.9640410" lon="1.1707360">
        <ele>419.8</ele>
        <time>2020-07-23T10:44:50Z</time>
      </trkpt>
      <trkpt lat="42.9642390" lon="1.1705210">
        <ele>419.8</ele>
        <time>2020-07-23T10:44:54Z</time>
      </trkpt>
      <trkpt lat="42.9644440" lon="1.1703130">
        <ele>420.0</ele>
        <time>2020-07-23T10:44:58Z</time>
      </trkpt>
      <trkpt lat="42.9646090" lon="1.1701490">
        <ele>419.8</ele>
        <time>2020-07-23T10:45:01Z</time>
      </trkpt>
      <trkpt lat="42.9648520" lon="1.1699680">
        <ele>419.4</ele>
        <time>2020-07-23T10:45:05Z</time>
      </trkpt>
      <trkpt lat="42.9649650" lon="1.1698530">
        <ele>419.2</ele>
        <time>2020-07-23T10:45:07Z</time>
      </trkpt>
      <trkpt lat="42.9652670" lon="1.1696620">
        <ele>419.0</ele>
        <time>2020-07-23T10:45:12Z</time>
      </trkpt>
      <trkpt lat="42.9653850" lon="1.1695840">
        <ele>419.2</ele>
        <time>2020-07-23T10:45:14Z</time>
      </trkpt>
      <trkpt lat="42.9654420" lon="1.1695430">
        <ele>419.2</ele>
        <time>2020-07-23T10:45:15Z</time>
      </trkpt>
      <trkpt lat="42.9655480" lon="1.1694510">
        <ele>419.4</ele>
        <time>2020-07-23T10:45:17Z</time>
      </trkpt>
      <trkpt lat="42.9656550" lon="1.1693510">
        <ele>419.4</ele>
        <time>2020-07-23T10:45:19Z</time>
      </trkpt>
      <trkpt lat="42.9657640" lon="1.1692480">
        <ele>419.8</ele>
        <time>2020-07-23T10:45:21Z</time>
      </trkpt>
      <trkpt lat="42.9658180" lon="1.1691900">
        <ele>419.8</ele>
        <time>2020-07-23T10:45:22Z</time>
      </trkpt>
      <trkpt lat="42.9661110" lon="1.1688040">
        <ele>419.4</ele>
        <time>2020-07-23T10:45:28Z</time>
      </trkpt>
      <trkpt lat="42.9662010" lon="1.1686630">
        <ele>419.4</ele>
        <time>2020-07-23T10:45:30Z</time>
      </trkpt>
      <trkpt lat="42.9664400" lon="1.1681980">
        <ele>420.6</ele>
        <time>2020-07-23T10:45:36Z</time>
      </trkpt>
      <trkpt lat="42.9664770" lon="1.1681180">
        <ele>420.4</ele>
        <time>2020-07-23T10:45:37Z</time>
      </trkpt>
      <trkpt lat="42.9666960" lon="1.1676260">
        <ele>420.0</ele>
        <time>2020-07-23T10:45:43Z</time>
      </trkpt>
      <trkpt lat="42.9667320" lon="1.1675450">
        <ele>420.2</ele>
        <time>2020-07-23T10:45:44Z</time>
      </trkpt>
      <trkpt lat="42.9667710" lon="1.1674660">
        <ele>420.2</ele>
        <time>2020-07-23T10:45:45Z</time>
      </trkpt>
      <trkpt lat="42.9668480" lon="1.1673090">
        <ele>420.0</ele>
        <time>2020-07-23T10:45:47Z</time>
      </trkpt>
      <trkpt lat="42.9670660" lon="1.1668450">
        <ele>419.4</ele>
        <time>2020-07-23T10:45:53Z</time>
      </trkpt>
      <trkpt lat="42.9671020" lon="1.1667700">
        <ele>419.4</ele>
        <time>2020-07-23T10:45:54Z</time>
      </trkpt>
      <trkpt lat="42.9672840" lon="1.1663870">
        <ele>419.6</ele>
        <time>2020-07-23T10:45:59Z</time>
      </trkpt>
      <trkpt lat="42.9674320" lon="1.1660720">
        <ele>419.6</ele>
        <time>2020-07-23T10:46:03Z</time>
      </trkpt>
      <trkpt lat="42.9675430" lon="1.1658350">
        <ele>420.0</ele>
        <time>2020-07-23T10:46:06Z</time>
      </trkpt>
      <trkpt lat="42.9676530" lon="1.1656010">
        <ele>420.2</ele>
        <time>2020-07-23T10:46:09Z</time>
      </trkpt>
      <trkpt lat="42.9678770" lon="1.1651260">
        <ele>420.0</ele>
        <time>2020-07-23T10:46:15Z</time>
      </trkpt>
      <trkpt lat="42.9679480" lon="1.1649600">
        <ele>420.2</ele>
        <time>2020-07-23T10:46:17Z</time>
      </trkpt>
      <trkpt lat="42.9679840" lon="1.1648780">
        <ele>420.2</ele>
        <time>2020-07-23T10:46:18Z</time>
      </trkpt>
      <trkpt lat="42.9682090" lon="1.1644040">
        <ele>419.6</ele>
        <time>2020-07-23T10:46:24Z</time>
      </trkpt>
      <trkpt lat="42.9682890" lon="1.1642470">
        <ele>419.2</ele>
        <time>2020-07-23T10:46:26Z</time>
      </trkpt>
      <trkpt lat="42.9683300" lon="1.1641720">
        <ele>419.0</ele>
        <time>2020-07-23T10:46:27Z</time>
      </trkpt>
      <trkpt lat="42.9684080" lon="1.1640190">
        <ele>418.6</ele>
        <time>2020-07-23T10:46:29Z</time>
      </trkpt>
      <trkpt lat="42.9684460" lon="1.1639440">
        <ele>418.4</ele>
        <time>2020-07-23T10:46:30Z</time>
      </trkpt>
      <trkpt lat="42.9685860" lon="1.1636600">
        <ele>417.8</ele>
        <time>2020-07-23T10:46:34Z</time>
      </trkpt>
      <trkpt lat="42.9687570" lon="1.1633470">
        <ele>418.0</ele>
        <time>2020-07-23T10:46:39Z</time>
      </trkpt>
      <trkpt lat="42.9687900" lon="1.1632740">
        <ele>418.2</ele>
        <time>2020-07-23T10:46:40Z</time>
      </trkpt>
      <trkpt lat="42.9688220" lon="1.1631980">
        <ele>418.2</ele>
        <time>2020-07-23T10:46:41Z</time>
      </trkpt>
      <trkpt lat="42.9690360" lon="1.1627360">
        <ele>417.6</ele>
        <time>2020-07-23T10:46:47Z</time>
      </trkpt>
      <trkpt lat="42.9690740" lon="1.1626580">
        <ele>417.6</ele>
        <time>2020-07-23T10:46:48Z</time>
      </trkpt>
      <trkpt lat="42.9692900" lon="1.1621980">
        <ele>417.0</ele>
        <time>2020-07-23T10:46:54Z</time>
      </trkpt>
      <trkpt lat="42.9693250" lon="1.1621240">
        <ele>417.0</ele>
        <time>2020-07-23T10:46:55Z</time>
      </trkpt>
      <trkpt lat="42.9695240" lon="1.1617070">
        <ele>417.2</ele>
        <time>2020-07-23T10:47:01Z</time>
      </trkpt>
      <trkpt lat="42.9697310" lon="1.1612640">
        <ele>417.4</ele>
        <time>2020-07-23T10:47:07Z</time>
      </trkpt>
      <trkpt lat="42.9698030" lon="1.1611120">
        <ele>417.4</ele>
        <time>2020-07-23T10:47:09Z</time>
      </trkpt>
      <trkpt lat="42.9700120" lon="1.1606540">
        <ele>417.2</ele>
        <time>2020-07-23T10:47:15Z</time>
      </trkpt>
      <trkpt lat="42.9701220" lon="1.1604300">
        <ele>417.8</ele>
        <time>2020-07-23T10:47:18Z</time>
      </trkpt>
      <trkpt lat="42.9703430" lon="1.1599730">
        <ele>418.2</ele>
        <time>2020-07-23T10:47:24Z</time>
      </trkpt>
      <trkpt lat="42.9704160" lon="1.1598200">
        <ele>418.2</ele>
        <time>2020-07-23T10:47:26Z</time>
      </trkpt>
      <trkpt lat="42.9704910" lon="1.1596690">
        <ele>418.0</ele>
        <time>2020-07-23T10:47:28Z</time>
      </trkpt>
      <trkpt lat="42.9707090" lon="1.1592130">
        <ele>417.2</ele>
        <time>2020-07-23T10:47:34Z</time>
      </trkpt>
      <trkpt lat="42.9707470" lon="1.1591380">
        <ele>417.0</ele>
        <time>2020-07-23T10:47:35Z</time>
      </trkpt>
      <trkpt lat="42.9709690" lon="1.1586810">
        <ele>417.0</ele>
        <time>2020-07-23T10:47:41Z</time>
      </trkpt>
      <trkpt lat="42.9710810" lon="1.1584570">
        <ele>416.6</ele>
        <time>2020-07-23T10:47:44Z</time>
      </trkpt>
      <trkpt lat="42.9712930" lon="1.1580120">
        <ele>416.4</ele>
        <time>2020-07-23T10:47:50Z</time>
      </trkpt>
      <trkpt lat="42.9713260" lon="1.1579370">
        <ele>416.4</ele>
        <time>2020-07-23T10:47:51Z</time>
      </trkpt>
      <trkpt lat="42.9714320" lon="1.1577110">
        <ele>415.0</ele>
        <time>2020-07-23T10:47:54Z</time>
      </trkpt>
      <trkpt lat="42.9715400" lon="1.1574930">
        <ele>414.2</ele>
        <time>2020-07-23T10:47:57Z</time>
      </trkpt>
      <trkpt lat="42.9717540" lon="1.1570600">
        <ele>414.6</ele>
        <time>2020-07-23T10:48:03Z</time>
      </trkpt>
      <trkpt lat="42.9718260" lon="1.1569080">
        <ele>414.8</ele>
        <time>2020-07-23T10:48:05Z</time>
      </trkpt>
      <trkpt lat="42.9720410" lon="1.1564500">
        <ele>414.8</ele>
        <time>2020-07-23T10:48:11Z</time>
      </trkpt>
      <trkpt lat="42.9721470" lon="1.1562260">
        <ele>414.4</ele>
        <time>2020-07-23T10:48:14Z</time>
      </trkpt>
      <trkpt lat="42.9723660" lon="1.1557690">
        <ele>414.4</ele>
        <time>2020-07-23T10:48:20Z</time>
      </trkpt>
      <trkpt lat="42.9725080" lon="1.1554590">
        <ele>414.4</ele>
        <time>2020-07-23T10:48:24Z</time>
      </trkpt>
      <trkpt lat="42.9727250" lon="1.1550010">
        <ele>414.0</ele>
        <time>2020-07-23T10:48:30Z</time>
      </trkpt>
      <trkpt lat="42.9728660" lon="1.1547050">
        <ele>413.8</ele>
        <time>2020-07-23T10:48:34Z</time>
      </trkpt>
      <trkpt lat="42.9730040" lon="1.1544200">
        <ele>413.6</ele>
        <time>2020-07-23T10:48:38Z</time>
      </trkpt>
      <trkpt lat="42.9731080" lon="1.1542130">
        <ele>413.4</ele>
        <time>2020-07-23T10:48:41Z</time>
      </trkpt>
      <trkpt lat="42.9731790" lon="1.1540750">
        <ele>413.4</ele>
        <time>2020-07-23T10:48:43Z</time>
      </trkpt>
      <trkpt lat="42.9733880" lon="1.1536700">
        <ele>414.8</ele>
        <time>2020-07-23T10:48:49Z</time>
      </trkpt>
      <trkpt lat="42.9734900" lon="1.1534630">
        <ele>413.8</ele>
        <time>2020-07-23T10:48:52Z</time>
      </trkpt>
      <trkpt lat="42.9735530" lon="1.1533410">
        <ele>412.8</ele>
        <time>2020-07-23T10:48:54Z</time>
      </trkpt>
      <trkpt lat="42.9735850" lon="1.1532840">
        <ele>412.4</ele>
        <time>2020-07-23T10:48:55Z</time>
      </trkpt>
      <trkpt lat="42.9736660" lon="1.1532370">
        <ele>411.8</ele>
        <time>2020-07-23T10:48:57Z</time>
      </trkpt>
      <trkpt lat="42.9737540" lon="1.1532440">
        <ele>411.4</ele>
        <time>2020-07-23T10:48:59Z</time>
      </trkpt>
      <trkpt lat="42.9738290" lon="1.1532210">
        <ele>411.4</ele>
        <time>2020-07-23T10:49:01Z</time>
      </trkpt>
      <trkpt lat="42.9739020" lon="1.1531440">
        <ele>412.0</ele>
        <time>2020-07-23T10:49:05Z</time>
      </trkpt>
      <trkpt lat="42.9739010" lon="1.1529530">
        <ele>411.4</ele>
        <time>2020-07-23T10:49:58Z</time>
      </trkpt>
      <trkpt lat="42.9738970" lon="1.1529270">
        <ele>411.6</ele>
        <time>2020-07-23T10:49:59Z</time>
      </trkpt>
      <trkpt lat="42.9738720" lon="1.1527960">
        <ele>411.6</ele>
        <time>2020-07-23T10:50:01Z</time>
      </trkpt>
      <trkpt lat="42.9738780" lon="1.1526400">
        <ele>411.4</ele>
        <time>2020-07-23T10:50:03Z</time>
      </trkpt>
      <trkpt lat="42.9739930" lon="1.1523170">
        <ele>410.6</ele>
        <time>2020-07-23T10:50:07Z</time>
      </trkpt>
      <trkpt lat="42.9742190" lon="1.1518160">
        <ele>410.2</ele>
        <time>2020-07-23T10:50:13Z</time>
      </trkpt>
      <trkpt lat="42.9742920" lon="1.1516460">
        <ele>409.8</ele>
        <time>2020-07-23T10:50:15Z</time>
      </trkpt>
      <trkpt lat="42.9743280" lon="1.1515620">
        <ele>409.6</ele>
        <time>2020-07-23T10:50:16Z</time>
      </trkpt>
      <trkpt lat="42.9744780" lon="1.1512480">
        <ele>408.6</ele>
        <time>2020-07-23T10:50:20Z</time>
      </trkpt>
      <trkpt lat="42.9745870" lon="1.1510160">
        <ele>408.4</ele>
        <time>2020-07-23T10:50:23Z</time>
      </trkpt>
      <trkpt lat="42.9748150" lon="1.1505130">
        <ele>408.2</ele>
        <time>2020-07-23T10:50:29Z</time>
      </trkpt>
      <trkpt lat="42.9748940" lon="1.1503370">
        <ele>408.0</ele>
        <time>2020-07-23T10:50:31Z</time>
      </trkpt>
      <trkpt lat="42.9749750" lon="1.1501630">
        <ele>408.0</ele>
        <time>2020-07-23T10:50:33Z</time>
      </trkpt>
      <trkpt lat="42.9752310" lon="1.1496540">
        <ele>408.2</ele>
        <time>2020-07-23T10:50:39Z</time>
      </trkpt>
      <trkpt lat="42.9754300" lon="1.1493540">
        <ele>408.8</ele>
        <time>2020-07-23T10:50:43Z</time>
      </trkpt>
      <trkpt lat="42.9754810" lon="1.1492910">
        <ele>408.8</ele>
        <time>2020-07-23T10:50:44Z</time>
      </trkpt>
      <trkpt lat="42.9757390" lon="1.1490410">
        <ele>409.8</ele>
        <time>2020-07-23T10:50:49Z</time>
      </trkpt>
      <trkpt lat="42.9757880" lon="1.1489970">
        <ele>410.2</ele>
        <time>2020-07-23T10:50:50Z</time>
      </trkpt>
      <trkpt lat="42.9761110" lon="1.1487130">
        <ele>410.2</ele>
        <time>2020-07-23T10:50:56Z</time>
      </trkpt>
      <trkpt lat="42.9761710" lon="1.1486610">
        <ele>410.0</ele>
        <time>2020-07-23T10:50:57Z</time>
      </trkpt>
      <trkpt lat="42.9764980" lon="1.1484620">
        <ele>409.4</ele>
        <time>2020-07-23T10:51:02Z</time>
      </trkpt>
      <trkpt lat="42.9768600" lon="1.1482600">
        <ele>409.8</ele>
        <time>2020-07-23T10:51:08Z</time>
      </trkpt>
      <trkpt lat="42.9769170" lon="1.1482330">
        <ele>410.0</ele>
        <time>2020-07-23T10:51:09Z</time>
      </trkpt>
      <trkpt lat="42.9772270" lon="1.1480810">
        <ele>411.0</ele>
        <time>2020-07-23T10:51:15Z</time>
      </trkpt>
      <trkpt lat="42.9772710" lon="1.1480510">
        <ele>411.2</ele>
        <time>2020-07-23T10:51:16Z</time>
      </trkpt>
      <trkpt lat="42.9773560" lon="1.1479650">
        <ele>411.6</ele>
        <time>2020-07-23T10:51:18Z</time>
      </trkpt>
      <trkpt lat="42.9774760" lon="1.1478250">
        <ele>411.8</ele>
        <time>2020-07-23T10:51:21Z</time>
      </trkpt>
      <trkpt lat="42.9776080" lon="1.1475830">
        <ele>411.8</ele>
        <time>2020-07-23T10:51:25Z</time>
      </trkpt>
      <trkpt lat="42.9776350" lon="1.1475090">
        <ele>411.8</ele>
        <time>2020-07-23T10:51:26Z</time>
      </trkpt>
      <trkpt lat="42.9777230" lon="1.1472820">
        <ele>411.6</ele>
        <time>2020-07-23T10:51:29Z</time>
      </trkpt>
      <trkpt lat="42.9778620" lon="1.1469700">
        <ele>411.2</ele>
        <time>2020-07-23T10:51:33Z</time>
      </trkpt>
      <trkpt lat="42.9781270" lon="1.1464750">
        <ele>411.0</ele>
        <time>2020-07-23T10:51:39Z</time>
      </trkpt>
      <trkpt lat="42.9781730" lon="1.1463960">
        <ele>410.8</ele>
        <time>2020-07-23T10:51:40Z</time>
      </trkpt>
      <trkpt lat="42.9782650" lon="1.1462380">
        <ele>410.6</ele>
        <time>2020-07-23T10:51:42Z</time>
      </trkpt>
      <trkpt lat="42.9784540" lon="1.1459150">
        <ele>410.6</ele>
        <time>2020-07-23T10:51:46Z</time>
      </trkpt>
      <trkpt lat="42.9785950" lon="1.1456690">
        <ele>410.0</ele>
        <time>2020-07-23T10:51:49Z</time>
      </trkpt>
      <trkpt lat="42.9788700" lon="1.1451770">
        <ele>409.6</ele>
        <time>2020-07-23T10:51:55Z</time>
      </trkpt>
      <trkpt lat="42.9789630" lon="1.1450210">
        <ele>410.0</ele>
        <time>2020-07-23T10:51:57Z</time>
      </trkpt>
      <trkpt lat="42.9791570" lon="1.1447460">
        <ele>410.0</ele>
        <time>2020-07-23T10:52:01Z</time>
      </trkpt>
      <trkpt lat="42.9792750" lon="1.1446280">
        <ele>409.8</ele>
        <time>2020-07-23T10:52:03Z</time>
      </trkpt>
      <trkpt lat="42.9796720" lon="1.1442890">
        <ele>408.6</ele>
        <time>2020-07-23T10:52:09Z</time>
      </trkpt>
      <trkpt lat="42.9799640" lon="1.1441470">
        <ele>407.4</ele>
        <time>2020-07-23T10:52:13Z</time>
      </trkpt>
      <trkpt lat="42.9800380" lon="1.1441260">
        <ele>407.0</ele>
        <time>2020-07-23T10:52:14Z</time>
      </trkpt>
      <trkpt lat="42.9802390" lon="1.1440960">
        <ele>406.6</ele>
        <time>2020-07-23T10:52:17Z</time>
      </trkpt>
      <trkpt lat="42.9802960" lon="1.1440900">
        <ele>406.6</ele>
        <time>2020-07-23T10:52:18Z</time>
      </trkpt>
      <trkpt lat="42.9803510" lon="1.1440690">
        <ele>406.4</ele>
        <time>2020-07-23T10:52:19Z</time>
      </trkpt>
      <trkpt lat="42.9804350" lon="1.1439680">
        <ele>406.6</ele>
        <time>2020-07-23T10:52:21Z</time>
      </trkpt>
      <trkpt lat="42.9805330" lon="1.1437490">
        <ele>406.8</ele>
        <time>2020-07-23T10:52:24Z</time>
      </trkpt>
      <trkpt lat="42.9805730" lon="1.1436770">
        <ele>407.0</ele>
        <time>2020-07-23T10:52:25Z</time>
      </trkpt>
      <trkpt lat="42.9807040" lon="1.1434540">
        <ele>407.0</ele>
        <time>2020-07-23T10:52:28Z</time>
      </trkpt>
      <trkpt lat="42.9809130" lon="1.1431740">
        <ele>407.0</ele>
        <time>2020-07-23T10:52:32Z</time>
      </trkpt>
      <trkpt lat="42.9809710" lon="1.1431090">
        <ele>406.8</ele>
        <time>2020-07-23T10:52:33Z</time>
      </trkpt>
      <trkpt lat="42.9812790" lon="1.1428070">
        <ele>406.2</ele>
        <time>2020-07-23T10:52:38Z</time>
      </trkpt>
      <trkpt lat="42.9813440" lon="1.1427500">
        <ele>406.2</ele>
        <time>2020-07-23T10:52:39Z</time>
      </trkpt>
      <trkpt lat="42.9816120" lon="1.1425590">
        <ele>405.2</ele>
        <time>2020-07-23T10:52:43Z</time>
      </trkpt>
      <trkpt lat="42.9817490" lon="1.1424850">
        <ele>405.0</ele>
        <time>2020-07-23T10:52:45Z</time>
      </trkpt>
      <trkpt lat="42.9818190" lon="1.1424520">
        <ele>404.8</ele>
        <time>2020-07-23T10:52:46Z</time>
      </trkpt>
      <trkpt lat="42.9822490" lon="1.1423000">
        <ele>406.2</ele>
        <time>2020-07-23T10:52:52Z</time>
      </trkpt>
      <trkpt lat="42.9826770" lon="1.1421300">
        <ele>406.4</ele>
        <time>2020-07-23T10:52:58Z</time>
      </trkpt>
      <trkpt lat="42.9827460" lon="1.1420950">
        <ele>406.4</ele>
        <time>2020-07-23T10:52:59Z</time>
      </trkpt>
      <trkpt lat="42.9831640" lon="1.1419050">
        <ele>406.2</ele>
        <time>2020-07-23T10:53:05Z</time>
      </trkpt>
      <trkpt lat="42.9833060" lon="1.1418420">
        <ele>406.2</ele>
        <time>2020-07-23T10:53:07Z</time>
      </trkpt>
      <trkpt lat="42.9834480" lon="1.1417540">
        <ele>405.8</ele>
        <time>2020-07-23T10:53:10Z</time>
      </trkpt>
      <trkpt lat="42.9835040" lon="1.1417250">
        <ele>405.6</ele>
        <time>2020-07-23T10:53:13Z</time>
      </trkpt>
      <trkpt lat="42.9836480" lon="1.1416240">
        <ele>405.4</ele>
        <time>2020-07-23T10:53:38Z</time>
      </trkpt>
      <trkpt lat="42.9836660" lon="1.1416100">
        <ele>405.4</ele>
        <time>2020-07-23T10:53:39Z</time>
      </trkpt>
      <trkpt lat="42.9837500" lon="1.1415530">
        <ele>405.6</ele>
        <time>2020-07-23T10:53:41Z</time>
      </trkpt>
      <trkpt lat="42.9839400" lon="1.1414130">
        <ele>405.0</ele>
        <time>2020-07-23T10:53:45Z</time>
      </trkpt>
      <trkpt lat="42.9840960" lon="1.1412990">
        <ele>404.6</ele>
        <time>2020-07-23T10:53:48Z</time>
      </trkpt>
      <trkpt lat="42.9843800" lon="1.1410970">
        <ele>404.8</ele>
        <time>2020-07-23T10:53:53Z</time>
      </trkpt>
      <trkpt lat="42.9846900" lon="1.1408940">
        <ele>404.4</ele>
        <time>2020-07-23T10:53:58Z</time>
      </trkpt>
      <trkpt lat="42.9848170" lon="1.1408200">
        <ele>404.4</ele>
        <time>2020-07-23T10:54:00Z</time>
      </trkpt>
      <trkpt lat="42.9851840" lon="1.1405550">
        <ele>404.2</ele>
        <time>2020-07-23T10:54:06Z</time>
      </trkpt>
      <trkpt lat="42.9853660" lon="1.1404300">
        <ele>404.2</ele>
        <time>2020-07-23T10:54:09Z</time>
      </trkpt>
      <trkpt lat="42.9856990" lon="1.1401960">
        <ele>404.6</ele>
        <time>2020-07-23T10:54:15Z</time>
      </trkpt>
      <trkpt lat="42.9857500" lon="1.1401630">
        <ele>404.6</ele>
        <time>2020-07-23T10:54:16Z</time>
      </trkpt>
      <trkpt lat="42.9858040" lon="1.1401420">
        <ele>404.8</ele>
        <time>2020-07-23T10:54:17Z</time>
      </trkpt>
      <trkpt lat="42.9859070" lon="1.1401730">
        <ele>404.8</ele>
        <time>2020-07-23T10:54:19Z</time>
      </trkpt>
      <trkpt lat="42.9859700" lon="1.1402370">
        <ele>404.8</ele>
        <time>2020-07-23T10:54:21Z</time>
      </trkpt>
      <trkpt lat="42.9860260" lon="1.1403050">
        <ele>404.8</ele>
        <time>2020-07-23T10:54:23Z</time>
      </trkpt>
      <trkpt lat="42.9860630" lon="1.1403410">
        <ele>404.6</ele>
        <time>2020-07-23T10:54:24Z</time>
      </trkpt>
      <trkpt lat="42.9861590" lon="1.1403960">
        <ele>404.4</ele>
        <time>2020-07-23T10:54:26Z</time>
      </trkpt>
      <trkpt lat="42.9862190" lon="1.1404100">
        <ele>404.4</ele>
        <time>2020-07-23T10:54:27Z</time>
      </trkpt>
      <trkpt lat="42.9862830" lon="1.1404100">
        <ele>404.2</ele>
        <time>2020-07-23T10:54:28Z</time>
      </trkpt>
      <trkpt lat="42.9864180" lon="1.1403850">
        <ele>404.0</ele>
        <time>2020-07-23T10:54:30Z</time>
      </trkpt>
      <trkpt lat="42.9864870" lon="1.1403640">
        <ele>404.0</ele>
        <time>2020-07-23T10:54:31Z</time>
      </trkpt>
      <trkpt lat="42.9868870" lon="1.1402130">
        <ele>403.2</ele>
        <time>2020-07-23T10:54:37Z</time>
      </trkpt>
      <trkpt lat="42.9869540" lon="1.1401840">
        <ele>403.0</ele>
        <time>2020-07-23T10:54:38Z</time>
      </trkpt>
      <trkpt lat="42.9873500" lon="1.1400080">
        <ele>402.6</ele>
        <time>2020-07-23T10:54:44Z</time>
      </trkpt>
      <trkpt lat="42.9877620" lon="1.1398480">
        <ele>402.0</ele>
        <time>2020-07-23T10:54:50Z</time>
      </trkpt>
      <trkpt lat="42.9878310" lon="1.1398210">
        <ele>402.0</ele>
        <time>2020-07-23T10:54:51Z</time>
      </trkpt>
      <trkpt lat="42.9879060" lon="1.1397930">
        <ele>401.8</ele>
        <time>2020-07-23T10:54:52Z</time>
      </trkpt>
      <trkpt lat="42.9883280" lon="1.1396300">
        <ele>401.4</ele>
        <time>2020-07-23T10:54:58Z</time>
      </trkpt>
      <trkpt lat="42.9883970" lon="1.1395970">
        <ele>401.6</ele>
        <time>2020-07-23T10:54:59Z</time>
      </trkpt>
      <trkpt lat="42.9888030" lon="1.1394420">
        <ele>401.2</ele>
        <time>2020-07-23T10:55:05Z</time>
      </trkpt>
      <trkpt lat="42.9888700" lon="1.1394180">
        <ele>401.0</ele>
        <time>2020-07-23T10:55:06Z</time>
      </trkpt>
      <trkpt lat="42.9890100" lon="1.1393610">
        <ele>400.8</ele>
        <time>2020-07-23T10:55:08Z</time>
      </trkpt>
      <trkpt lat="42.9890810" lon="1.1393400">
        <ele>400.8</ele>
        <time>2020-07-23T10:55:09Z</time>
      </trkpt>
      <trkpt lat="42.9892970" lon="1.1392690">
        <ele>400.8</ele>
        <time>2020-07-23T10:55:12Z</time>
      </trkpt>
      <trkpt lat="42.9897420" lon="1.1390850">
        <ele>400.6</ele>
        <time>2020-07-23T10:55:18Z</time>
      </trkpt>
      <trkpt lat="42.9898170" lon="1.1390540">
        <ele>400.4</ele>
        <time>2020-07-23T10:55:19Z</time>
      </trkpt>
      <trkpt lat="42.9900470" lon="1.1389640">
        <ele>400.2</ele>
        <time>2020-07-23T10:55:22Z</time>
      </trkpt>
      <trkpt lat="42.9901220" lon="1.1389340">
        <ele>400.2</ele>
        <time>2020-07-23T10:55:23Z</time>
      </trkpt>
      <trkpt lat="42.9903400" lon="1.1388500">
        <ele>399.8</ele>
        <time>2020-07-23T10:55:26Z</time>
      </trkpt>
      <trkpt lat="42.9904790" lon="1.1387800">
        <ele>399.4</ele>
        <time>2020-07-23T10:55:28Z</time>
      </trkpt>
      <trkpt lat="42.9908610" lon="1.1384810">
        <ele>399.0</ele>
        <time>2020-07-23T10:55:34Z</time>
      </trkpt>
      <trkpt lat="42.9909860" lon="1.1383730">
        <ele>398.6</ele>
        <time>2020-07-23T10:55:36Z</time>
      </trkpt>
      <trkpt lat="42.9912940" lon="1.1381200">
        <ele>397.8</ele>
        <time>2020-07-23T10:55:41Z</time>
      </trkpt>
      <trkpt lat="42.9913590" lon="1.1380780">
        <ele>397.6</ele>
        <time>2020-07-23T10:55:42Z</time>
      </trkpt>
      <trkpt lat="42.9914250" lon="1.1380390">
        <ele>397.8</ele>
        <time>2020-07-23T10:55:43Z</time>
      </trkpt>
      <trkpt lat="42.9918410" lon="1.1378220">
        <ele>398.4</ele>
        <time>2020-07-23T10:55:49Z</time>
      </trkpt>
      <trkpt lat="42.9919820" lon="1.1377560">
        <ele>398.4</ele>
        <time>2020-07-23T10:55:51Z</time>
      </trkpt>
      <trkpt lat="42.9924080" lon="1.1375720">
        <ele>397.4</ele>
        <time>2020-07-23T10:55:57Z</time>
      </trkpt>
      <trkpt lat="42.9924750" lon="1.1375330">
        <ele>397.4</ele>
        <time>2020-07-23T10:55:58Z</time>
      </trkpt>
      <trkpt lat="42.9926740" lon="1.1374070">
        <ele>397.6</ele>
        <time>2020-07-23T10:56:01Z</time>
      </trkpt>
      <trkpt lat="42.9930290" lon="1.1372360">
        <ele>397.8</ele>
        <time>2020-07-23T10:56:06Z</time>
      </trkpt>
      <trkpt lat="42.9934590" lon="1.1370640">
        <ele>397.8</ele>
        <time>2020-07-23T10:56:12Z</time>
      </trkpt>
      <trkpt lat="42.9936100" lon="1.1370070">
        <ele>397.8</ele>
        <time>2020-07-23T10:56:14Z</time>
      </trkpt>
      <trkpt lat="42.9940520" lon="1.1368370">
        <ele>397.6</ele>
        <time>2020-07-23T10:56:20Z</time>
      </trkpt>
      <trkpt lat="42.9942740" lon="1.1367510">
        <ele>397.4</ele>
        <time>2020-07-23T10:56:23Z</time>
      </trkpt>
      <trkpt lat="42.9947200" lon="1.1365890">
        <ele>397.6</ele>
        <time>2020-07-23T10:56:29Z</time>
      </trkpt>
      <trkpt lat="42.9949380" lon="1.1365250">
        <ele>397.4</ele>
        <time>2020-07-23T10:56:32Z</time>
      </trkpt>
      <trkpt lat="42.9953900" lon="1.1364050">
        <ele>396.8</ele>
        <time>2020-07-23T10:56:38Z</time>
      </trkpt>
      <trkpt lat="42.9955410" lon="1.1363650">
        <ele>396.8</ele>
        <time>2020-07-23T10:56:40Z</time>
      </trkpt>
      <trkpt lat="42.9956870" lon="1.1363300">
        <ele>396.6</ele>
        <time>2020-07-23T10:56:42Z</time>
      </trkpt>
      <trkpt lat="42.9961280" lon="1.1362210">
        <ele>396.4</ele>
        <time>2020-07-23T10:56:48Z</time>
      </trkpt>
      <trkpt lat="42.9962750" lon="1.1361750">
        <ele>396.4</ele>
        <time>2020-07-23T10:56:50Z</time>
      </trkpt>
      <trkpt lat="42.9967120" lon="1.1360210">
        <ele>396.0</ele>
        <time>2020-07-23T10:56:56Z</time>
      </trkpt>
      <trkpt lat="42.9968590" lon="1.1359620">
        <ele>396.0</ele>
        <time>2020-07-23T10:56:58Z</time>
      </trkpt>
      <trkpt lat="42.9970780" lon="1.1358630">
        <ele>395.4</ele>
        <time>2020-07-23T10:57:01Z</time>
      </trkpt>
      <trkpt lat="42.9975230" lon="1.1356530">
        <ele>395.6</ele>
        <time>2020-07-23T10:57:07Z</time>
      </trkpt>
      <trkpt lat="42.9979600" lon="1.1354310">
        <ele>395.0</ele>
        <time>2020-07-23T10:57:13Z</time>
      </trkpt>
      <trkpt lat="42.9981060" lon="1.1353570">
        <ele>394.6</ele>
        <time>2020-07-23T10:57:15Z</time>
      </trkpt>
      <trkpt lat="42.9981790" lon="1.1353220">
        <ele>394.4</ele>
        <time>2020-07-23T10:57:16Z</time>
      </trkpt>
      <trkpt lat="42.9982530" lon="1.1352870">
        <ele>394.4</ele>
        <time>2020-07-23T10:57:17Z</time>
      </trkpt>
      <trkpt lat="42.9986940" lon="1.1351100">
        <ele>394.0</ele>
        <time>2020-07-23T10:57:23Z</time>
      </trkpt>
      <trkpt lat="42.9987690" lon="1.1350820">
        <ele>394.0</ele>
        <time>2020-07-23T10:57:24Z</time>
      </trkpt>
      <trkpt lat="42.9989200" lon="1.1350250">
        <ele>393.8</ele>
        <time>2020-07-23T10:57:26Z</time>
      </trkpt>
      <trkpt lat="42.9991420" lon="1.1349390">
        <ele>393.2</ele>
        <time>2020-07-23T10:57:29Z</time>
      </trkpt>
      <trkpt lat="42.9994460" lon="1.1348290">
        <ele>393.0</ele>
        <time>2020-07-23T10:57:33Z</time>
      </trkpt>
      <trkpt lat="42.9995890" lon="1.1347740">
        <ele>393.2</ele>
        <time>2020-07-23T10:57:35Z</time>
      </trkpt>
      <trkpt lat="42.9997250" lon="1.1347190">
        <ele>393.6</ele>
        <time>2020-07-23T10:57:37Z</time>
      </trkpt>
      <trkpt lat="42.9999120" lon="1.1346360">
        <ele>394.2</ele>
        <time>2020-07-23T10:57:40Z</time>
      </trkpt>
      <trkpt lat="43.0000860" lon="1.1345650">
        <ele>395.4</ele>
        <time>2020-07-23T10:57:43Z</time>
      </trkpt>
      <trkpt lat="43.0002890" lon="1.1344870">
        <ele>396.6</ele>
        <time>2020-07-23T10:57:47Z</time>
      </trkpt>
      <trkpt lat="43.0003700" lon="1.1345230">
        <ele>397.0</ele>
        <time>2020-07-23T10:57:49Z</time>
      </trkpt>
      <trkpt lat="43.0003880" lon="1.1345690">
        <ele>397.0</ele>
        <time>2020-07-23T10:57:50Z</time>
      </trkpt>
      <trkpt lat="43.0004170" lon="1.1347250">
        <ele>397.8</ele>
        <time>2020-07-23T10:57:53Z</time>
      </trkpt>
      <trkpt lat="43.0004590" lon="1.1349040">
        <ele>398.0</ele>
        <time>2020-07-23T10:57:57Z</time>
      </trkpt>
      <trkpt lat="43.0004880" lon="1.1350040">
        <ele>397.4</ele>
        <time>2020-07-23T10:57:59Z</time>
      </trkpt>
      <trkpt lat="43.0004890" lon="1.1351660">
        <ele>397.0</ele>
        <time>2020-07-23T10:58:02Z</time>
      </trkpt>
      <trkpt lat="43.0004140" lon="1.1353660">
        <ele>398.2</ele>
        <time>2020-07-23T10:58:07Z</time>
      </trkpt>
      <trkpt lat="43.0003500" lon="1.1354740">
        <ele>398.8</ele>
        <time>2020-07-23T10:58:11Z</time>
      </trkpt>
      <trkpt lat="43.0002590" lon="1.1344010">
        <ele>407.0</ele>
        <time>2020-07-24T07:08:11Z</time>
      </trkpt>
      <trkpt lat="43.0002130" lon="1.1344190">
        <ele>406.4</ele>
        <time>2020-07-24T07:08:12Z</time>
      </trkpt>
      <trkpt lat="43.0001610" lon="1.1344400">
        <ele>406.0</ele>
        <time>2020-07-24T07:08:13Z</time>
      </trkpt>
      <trkpt lat="43.0001040" lon="1.1344630">
        <ele>405.4</ele>
        <time>2020-07-24T07:08:14Z</time>
      </trkpt>
      <trkpt lat="43.0000440" lon="1.1344900">
        <ele>405.2</ele>
        <time>2020-07-24T07:08:15Z</time>
      </trkpt>
      <trkpt lat="42.9999800" lon="1.1345200">
        <ele>404.6</ele>
        <time>2020-07-24T07:08:16Z</time>
      </trkpt>
      <trkpt lat="42.9996240" lon="1.1346790">
        <ele>404.2</ele>
        <time>2020-07-24T07:08:21Z</time>
      </trkpt>
      <trkpt lat="42.9993230" lon="1.1348050">
        <ele>403.4</ele>
        <time>2020-07-24T07:08:25Z</time>
      </trkpt>
      <trkpt lat="42.9990060" lon="1.1349310">
        <ele>403.0</ele>
        <time>2020-07-24T07:08:29Z</time>
      </trkpt>
      <trkpt lat="42.9985340" lon="1.1350930">
        <ele>403.2</ele>
        <time>2020-07-24T07:08:35Z</time>
      </trkpt>
      <trkpt lat="42.9983850" lon="1.1351480">
        <ele>403.2</ele>
        <time>2020-07-24T07:08:37Z</time>
      </trkpt>
      <trkpt lat="42.9983140" lon="1.1351800">
        <ele>403.4</ele>
        <time>2020-07-24T07:08:38Z</time>
      </trkpt>
      <trkpt lat="42.9982420" lon="1.1352110">
        <ele>403.6</ele>
        <time>2020-07-24T07:08:39Z</time>
      </trkpt>
      <trkpt lat="42.9981700" lon="1.1352430">
        <ele>403.6</ele>
        <time>2020-07-24T07:08:40Z</time>
      </trkpt>
      <trkpt lat="42.9978160" lon="1.1354110">
        <ele>404.4</ele>
        <time>2020-07-24T07:08:45Z</time>
      </trkpt>
      <trkpt lat="42.9977460" lon="1.1354460">
        <ele>404.6</ele>
        <time>2020-07-24T07:08:46Z</time>
      </trkpt>
      <trkpt lat="42.9973320" lon="1.1356580">
        <ele>405.0</ele>
        <time>2020-07-24T07:08:52Z</time>
      </trkpt>
      <trkpt lat="42.9971930" lon="1.1357280">
        <ele>405.4</ele>
        <time>2020-07-24T07:08:54Z</time>
      </trkpt>
      <trkpt lat="42.9971220" lon="1.1357620">
        <ele>405.6</ele>
        <time>2020-07-24T07:08:55Z</time>
      </trkpt>
      <trkpt lat="42.9969800" lon="1.1358250">
        <ele>405.6</ele>
        <time>2020-07-24T07:08:57Z</time>
      </trkpt>
      <trkpt lat="42.9969080" lon="1.1358580">
        <ele>405.4</ele>
        <time>2020-07-24T07:08:58Z</time>
      </trkpt>
      <trkpt lat="42.9968360" lon="1.1358890">
        <ele>405.4</ele>
        <time>2020-07-24T07:08:59Z</time>
      </trkpt>
      <trkpt lat="42.9967630" lon="1.1359200">
        <ele>405.4</ele>
        <time>2020-07-24T07:09:00Z</time>
      </trkpt>
      <trkpt lat="42.9966890" lon="1.1359510">
        <ele>405.4</ele>
        <time>2020-07-24T07:09:01Z</time>
      </trkpt>
      <trkpt lat="42.9966150" lon="1.1359810">
        <ele>405.4</ele>
        <time>2020-07-24T07:09:02Z</time>
      </trkpt>
      <trkpt lat="42.9964700" lon="1.1360370">
        <ele>405.4</ele>
        <time>2020-07-24T07:09:04Z</time>
      </trkpt>
      <trkpt lat="42.9963970" lon="1.1360640">
        <ele>405.4</ele>
        <time>2020-07-24T07:09:05Z</time>
      </trkpt>
      <trkpt lat="42.9959620" lon="1.1361970">
        <ele>405.8</ele>
        <time>2020-07-24T07:09:11Z</time>
      </trkpt>
      <trkpt lat="42.9958150" lon="1.1362310">
        <ele>406.0</ele>
        <time>2020-07-24T07:09:13Z</time>
      </trkpt>
      <trkpt lat="42.9953750" lon="1.1363190">
        <ele>406.6</ele>
        <time>2020-07-24T07:09:19Z</time>
      </trkpt>
      <trkpt lat="42.9950810" lon="1.1363870">
        <ele>406.6</ele>
        <time>2020-07-24T07:09:23Z</time>
      </trkpt>
      <trkpt lat="42.9946520" lon="1.1364990">
        <ele>406.6</ele>
        <time>2020-07-24T07:09:29Z</time>
      </trkpt>
      <trkpt lat="42.9945130" lon="1.1365430">
        <ele>406.6</ele>
        <time>2020-07-24T07:09:31Z</time>
      </trkpt>
      <trkpt lat="42.9940870" lon="1.1366930">
        <ele>407.0</ele>
        <time>2020-07-24T07:09:37Z</time>
      </trkpt>
      <trkpt lat="42.9940190" lon="1.1367220">
        <ele>407.4</ele>
        <time>2020-07-24T07:09:38Z</time>
      </trkpt>
      <trkpt lat="42.9939500" lon="1.1367500">
        <ele>407.2</ele>
        <time>2020-07-24T07:09:39Z</time>
      </trkpt>
      <trkpt lat="42.9935310" lon="1.1369300">
        <ele>407.2</ele>
        <time>2020-07-24T07:09:45Z</time>
      </trkpt>
      <trkpt lat="42.9933890" lon="1.1369850">
        <ele>407.2</ele>
        <time>2020-07-24T07:09:47Z</time>
      </trkpt>
      <trkpt lat="42.9929650" lon="1.1371570">
        <ele>407.6</ele>
        <time>2020-07-24T07:09:53Z</time>
      </trkpt>
      <trkpt lat="42.9928260" lon="1.1372170">
        <ele>408.0</ele>
        <time>2020-07-24T07:09:55Z</time>
      </trkpt>
      <trkpt lat="42.9924120" lon="1.1374110">
        <ele>408.2</ele>
        <time>2020-07-24T07:10:01Z</time>
      </trkpt>
      <trkpt lat="42.9922090" lon="1.1375190">
        <ele>408.2</ele>
        <time>2020-07-24T07:10:04Z</time>
      </trkpt>
      <trkpt lat="42.9919480" lon="1.1376550">
        <ele>408.6</ele>
        <time>2020-07-24T07:10:08Z</time>
      </trkpt>
      <trkpt lat="42.9916930" lon="1.1377940">
        <ele>409.0</ele>
        <time>2020-07-24T07:10:12Z</time>
      </trkpt>
      <trkpt lat="42.9913090" lon="1.1380020">
        <ele>409.4</ele>
        <time>2020-07-24T07:10:18Z</time>
      </trkpt>
      <trkpt lat="42.9912430" lon="1.1380380">
        <ele>409.4</ele>
        <time>2020-07-24T07:10:19Z</time>
      </trkpt>
      <trkpt lat="42.9909260" lon="1.1382650">
        <ele>409.4</ele>
        <time>2020-07-24T07:10:24Z</time>
      </trkpt>
      <trkpt lat="42.9908640" lon="1.1383210">
        <ele>409.4</ele>
        <time>2020-07-24T07:10:25Z</time>
      </trkpt>
      <trkpt lat="42.9906130" lon="1.1385370">
        <ele>409.4</ele>
        <time>2020-07-24T07:10:29Z</time>
      </trkpt>
      <trkpt lat="42.9904870" lon="1.1386440">
        <ele>409.4</ele>
        <time>2020-07-24T07:10:31Z</time>
      </trkpt>
      <trkpt lat="42.9903520" lon="1.1387350">
        <ele>409.8</ele>
        <time>2020-07-24T07:10:33Z</time>
      </trkpt>
      <trkpt lat="42.9901470" lon="1.1388370">
        <ele>410.0</ele>
        <time>2020-07-24T07:10:36Z</time>
      </trkpt>
      <trkpt lat="42.9900090" lon="1.1388870">
        <ele>410.0</ele>
        <time>2020-07-24T07:10:38Z</time>
      </trkpt>
      <trkpt lat="42.9896060" lon="1.1390450">
        <ele>410.6</ele>
        <time>2020-07-24T07:10:44Z</time>
      </trkpt>
      <trkpt lat="42.9894720" lon="1.1390900">
        <ele>410.8</ele>
        <time>2020-07-24T07:10:46Z</time>
      </trkpt>
      <trkpt lat="42.9890870" lon="1.1392370">
        <ele>411.6</ele>
        <time>2020-07-24T07:10:52Z</time>
      </trkpt>
      <trkpt lat="42.9890240" lon="1.1392560">
        <ele>411.8</ele>
        <time>2020-07-24T07:10:53Z</time>
      </trkpt>
      <trkpt lat="42.9888910" lon="1.1393030">
        <ele>411.8</ele>
        <time>2020-07-24T07:10:55Z</time>
      </trkpt>
      <trkpt lat="42.9884870" lon="1.1394240">
        <ele>412.6</ele>
        <time>2020-07-24T07:11:01Z</time>
      </trkpt>
      <trkpt lat="42.9884200" lon="1.1394490">
        <ele>412.6</ele>
        <time>2020-07-24T07:11:02Z</time>
      </trkpt>
      <trkpt lat="42.9883550" lon="1.1394710">
        <ele>412.8</ele>
        <time>2020-07-24T07:11:03Z</time>
      </trkpt>
      <trkpt lat="42.9882900" lon="1.1394900">
        <ele>412.8</ele>
        <time>2020-07-24T07:11:04Z</time>
      </trkpt>
      <trkpt lat="42.9878980" lon="1.1396320">
        <ele>412.8</ele>
        <time>2020-07-24T07:11:10Z</time>
      </trkpt>
      <trkpt lat="42.9875770" lon="1.1397620">
        <ele>413.0</ele>
        <time>2020-07-24T07:11:15Z</time>
      </trkpt>
      <trkpt lat="42.9873860" lon="1.1398250">
        <ele>413.6</ele>
        <time>2020-07-24T07:11:18Z</time>
      </trkpt>
      <trkpt lat="42.9872650" lon="1.1398670">
        <ele>413.4</ele>
        <time>2020-07-24T07:11:20Z</time>
      </trkpt>
      <trkpt lat="42.9869800" lon="1.1399940">
        <ele>413.4</ele>
        <time>2020-07-24T07:11:25Z</time>
      </trkpt>
      <trkpt lat="42.9869250" lon="1.1400180">
        <ele>413.4</ele>
        <time>2020-07-24T07:11:26Z</time>
      </trkpt>
      <trkpt lat="42.9867110" lon="1.1401160">
        <ele>413.6</ele>
        <time>2020-07-24T07:11:30Z</time>
      </trkpt>
      <trkpt lat="42.9865920" lon="1.1401430">
        <ele>413.8</ele>
        <time>2020-07-24T07:11:32Z</time>
      </trkpt>
      <trkpt lat="42.9864750" lon="1.1401400">
        <ele>413.8</ele>
        <time>2020-07-24T07:11:34Z</time>
      </trkpt>
      <trkpt lat="42.9863700" lon="1.1401190">
        <ele>413.8</ele>
        <time>2020-07-24T07:11:36Z</time>
      </trkpt>
      <trkpt lat="42.9863210" lon="1.1401100">
        <ele>413.8</ele>
        <time>2020-07-24T07:11:37Z</time>
      </trkpt>
      <trkpt lat="42.9862180" lon="1.1400870">
        <ele>414.0</ele>
        <time>2020-07-24T07:11:39Z</time>
      </trkpt>
      <trkpt lat="42.9860140" lon="1.1400490">
        <ele>414.4</ele>
        <time>2020-07-24T07:11:43Z</time>
      </trkpt>
      <trkpt lat="42.9859640" lon="1.1400330">
        <ele>414.4</ele>
        <time>2020-07-24T07:11:44Z</time>
      </trkpt>
      <trkpt lat="42.9859170" lon="1.1400100">
        <ele>414.4</ele>
        <time>2020-07-24T07:11:45Z</time>
      </trkpt>
      <trkpt lat="42.9858730" lon="1.1399780">
        <ele>414.4</ele>
        <time>2020-07-24T07:11:46Z</time>
      </trkpt>
      <trkpt lat="42.9857960" lon="1.1398870">
        <ele>414.4</ele>
        <time>2020-07-24T07:11:48Z</time>
      </trkpt>
      <trkpt lat="42.9857630" lon="1.1398260">
        <ele>414.6</ele>
        <time>2020-07-24T07:11:49Z</time>
      </trkpt>
      <trkpt lat="42.9855840" lon="1.1394210">
        <ele>414.4</ele>
        <time>2020-07-24T07:11:55Z</time>
      </trkpt>
      <trkpt lat="42.9853890" lon="1.1389630">
        <ele>415.0</ele>
        <time>2020-07-24T07:12:01Z</time>
      </trkpt>
      <trkpt lat="42.9853550" lon="1.1388850">
        <ele>415.0</ele>
        <time>2020-07-24T07:12:02Z</time>
      </trkpt>
      <trkpt lat="42.9853210" lon="1.1388090">
        <ele>415.2</ele>
        <time>2020-07-24T07:12:03Z</time>
      </trkpt>
      <trkpt lat="42.9851410" lon="1.1383580">
        <ele>415.8</ele>
        <time>2020-07-24T07:12:09Z</time>
      </trkpt>
      <trkpt lat="42.9850520" lon="1.1381260">
        <ele>415.8</ele>
        <time>2020-07-24T07:12:12Z</time>
      </trkpt>
      <trkpt lat="42.9849380" lon="1.1377970">
        <ele>416.0</ele>
        <time>2020-07-24T07:12:16Z</time>
      </trkpt>
      <trkpt lat="42.9848570" lon="1.1375470">
        <ele>416.4</ele>
        <time>2020-07-24T07:12:19Z</time>
      </trkpt>
      <trkpt lat="42.9847670" lon="1.1373020">
        <ele>416.6</ele>
        <time>2020-07-24T07:12:22Z</time>
      </trkpt>
      <trkpt lat="42.9846120" lon="1.1368950">
        <ele>416.6</ele>
        <time>2020-07-24T07:12:27Z</time>
      </trkpt>
      <trkpt lat="42.9844560" lon="1.1364060">
        <ele>416.8</ele>
        <time>2020-07-24T07:12:33Z</time>
      </trkpt>
      <trkpt lat="42.9844300" lon="1.1363270">
        <ele>416.8</ele>
        <time>2020-07-24T07:12:34Z</time>
      </trkpt>
      <trkpt lat="42.9842450" lon="1.1358410">
        <ele>417.0</ele>
        <time>2020-07-24T07:12:40Z</time>
      </trkpt>
      <trkpt lat="42.9842110" lon="1.1357620">
        <ele>416.8</ele>
        <time>2020-07-24T07:12:41Z</time>
      </trkpt>
      <trkpt lat="42.9840790" lon="1.1354220">
        <ele>416.8</ele>
        <time>2020-07-24T07:12:45Z</time>
      </trkpt>
      <trkpt lat="42.9839610" lon="1.1350660">
        <ele>416.8</ele>
        <time>2020-07-24T07:12:49Z</time>
      </trkpt>
      <trkpt lat="42.9837700" lon="1.1345660">
        <ele>416.8</ele>
        <time>2020-07-24T07:12:55Z</time>
      </trkpt>
      <trkpt lat="42.9837090" lon="1.1344050">
        <ele>417.0</ele>
        <time>2020-07-24T07:12:57Z</time>
      </trkpt>
      <trkpt lat="42.9836160" lon="1.1341470">
        <ele>417.2</ele>
        <time>2020-07-24T07:13:00Z</time>
      </trkpt>
      <trkpt lat="42.9834750" lon="1.1338150">
        <ele>417.2</ele>
        <time>2020-07-24T07:13:04Z</time>
      </trkpt>
      <trkpt lat="42.9832890" lon="1.1333220">
        <ele>417.2</ele>
        <time>2020-07-24T07:13:10Z</time>
      </trkpt>
      <trkpt lat="42.9832170" lon="1.1331630">
        <ele>417.8</ele>
        <time>2020-07-24T07:13:12Z</time>
      </trkpt>
      <trkpt lat="42.9831370" lon="1.1330180">
        <ele>418.4</ele>
        <time>2020-07-24T07:13:14Z</time>
      </trkpt>
      <trkpt lat="42.9830410" lon="1.1328910">
        <ele>418.8</ele>
        <time>2020-07-24T07:13:16Z</time>
      </trkpt>
      <trkpt lat="42.9829920" lon="1.1328300">
        <ele>418.8</ele>
        <time>2020-07-24T07:13:17Z</time>
      </trkpt>
      <trkpt lat="42.9828900" lon="1.1327150">
        <ele>419.0</ele>
        <time>2020-07-24T07:13:19Z</time>
      </trkpt>
      <trkpt lat="42.9827930" lon="1.1325910">
        <ele>419.2</ele>
        <time>2020-07-24T07:13:21Z</time>
      </trkpt>
      <trkpt lat="42.9826580" lon="1.1324020">
        <ele>419.4</ele>
        <time>2020-07-24T07:13:24Z</time>
      </trkpt>
      <trkpt lat="42.9825650" lon="1.1322810">
        <ele>419.4</ele>
        <time>2020-07-24T07:13:26Z</time>
      </trkpt>
      <trkpt lat="42.9822630" lon="1.1319260">
        <ele>420.0</ele>
        <time>2020-07-24T07:13:32Z</time>
      </trkpt>
      <trkpt lat="42.9822110" lon="1.1318640">
        <ele>420.0</ele>
        <time>2020-07-24T07:13:33Z</time>
      </trkpt>
      <trkpt lat="42.9821090" lon="1.1317380">
        <ele>420.0</ele>
        <time>2020-07-24T07:13:35Z</time>
      </trkpt>
      <trkpt lat="42.9820060" lon="1.1316120">
        <ele>420.0</ele>
        <time>2020-07-24T07:13:37Z</time>
      </trkpt>
      <trkpt lat="42.9818470" lon="1.1314140">
        <ele>419.8</ele>
        <time>2020-07-24T07:13:40Z</time>
      </trkpt>
      <trkpt lat="42.9815670" lon="1.1311210">
        <ele>420.2</ele>
        <time>2020-07-24T07:13:45Z</time>
      </trkpt>
      <trkpt lat="42.9815090" lon="1.1310710">
        <ele>420.4</ele>
        <time>2020-07-24T07:13:46Z</time>
      </trkpt>
      <trkpt lat="42.9814510" lon="1.1310190">
        <ele>420.6</ele>
        <time>2020-07-24T07:13:47Z</time>
      </trkpt>
      <trkpt lat="42.9813290" lon="1.1309250">
        <ele>421.0</ele>
        <time>2020-07-24T07:13:49Z</time>
      </trkpt>
      <trkpt lat="42.9810460" lon="1.1306200">
        <ele>421.0</ele>
        <time>2020-07-24T07:13:54Z</time>
      </trkpt>
      <trkpt lat="42.9808010" lon="1.1302760">
        <ele>421.0</ele>
        <time>2020-07-24T07:13:59Z</time>
      </trkpt>
      <trkpt lat="42.9807550" lon="1.1302090">
        <ele>421.2</ele>
        <time>2020-07-24T07:14:00Z</time>
      </trkpt>
      <trkpt lat="42.9806750" lon="1.1300640">
        <ele>421.4</ele>
        <time>2020-07-24T07:14:02Z</time>
      </trkpt>
      <trkpt lat="42.9805320" lon="1.1297520">
        <ele>422.0</ele>
        <time>2020-07-24T07:14:06Z</time>
      </trkpt>
      <trkpt lat="42.9803990" lon="1.1294470">
        <ele>422.6</ele>
        <time>2020-07-24T07:14:10Z</time>
      </trkpt>
      <trkpt lat="42.9802300" lon="1.1290620">
        <ele>423.2</ele>
        <time>2020-07-24T07:14:15Z</time>
      </trkpt>
      <trkpt lat="42.9801620" lon="1.1289100">
        <ele>423.6</ele>
        <time>2020-07-24T07:14:17Z</time>
      </trkpt>
      <trkpt lat="42.9799590" lon="1.1284620">
        <ele>424.0</ele>
        <time>2020-07-24T07:14:23Z</time>
      </trkpt>
      <trkpt lat="42.9799240" lon="1.1283860">
        <ele>424.0</ele>
        <time>2020-07-24T07:14:24Z</time>
      </trkpt>
      <trkpt lat="42.9797850" lon="1.1280790">
        <ele>424.4</ele>
        <time>2020-07-24T07:14:28Z</time>
      </trkpt>
      <trkpt lat="42.9797090" lon="1.1279260">
        <ele>424.8</ele>
        <time>2020-07-24T07:14:30Z</time>
      </trkpt>
      <trkpt lat="42.9795420" lon="1.1276290">
        <ele>425.4</ele>
        <time>2020-07-24T07:14:34Z</time>
      </trkpt>
      <trkpt lat="42.9792980" lon="1.1271740">
        <ele>425.8</ele>
        <time>2020-07-24T07:14:40Z</time>
      </trkpt>
      <trkpt lat="42.9791760" lon="1.1269320">
        <ele>425.6</ele>
        <time>2020-07-24T07:14:43Z</time>
      </trkpt>
      <trkpt lat="42.9789440" lon="1.1264170">
        <ele>425.6</ele>
        <time>2020-07-24T07:14:49Z</time>
      </trkpt>
      <trkpt lat="42.9788320" lon="1.1261510">
        <ele>425.8</ele>
        <time>2020-07-24T07:14:52Z</time>
      </trkpt>
      <trkpt lat="42.9787230" lon="1.1258890">
        <ele>425.8</ele>
        <time>2020-07-24T07:14:55Z</time>
      </trkpt>
      <trkpt lat="42.9785050" lon="1.1253610">
        <ele>426.0</ele>
        <time>2020-07-24T07:15:01Z</time>
      </trkpt>
      <trkpt lat="42.9784700" lon="1.1252690">
        <ele>426.0</ele>
        <time>2020-07-24T07:15:02Z</time>
      </trkpt>
      <trkpt lat="42.9782670" lon="1.1247090">
        <ele>426.4</ele>
        <time>2020-07-24T07:15:08Z</time>
      </trkpt>
      <trkpt lat="42.9781560" lon="1.1244230">
        <ele>426.6</ele>
        <time>2020-07-24T07:15:11Z</time>
      </trkpt>
      <trkpt lat="42.9781200" lon="1.1243260">
        <ele>426.6</ele>
        <time>2020-07-24T07:15:12Z</time>
      </trkpt>
      <trkpt lat="42.9779640" lon="1.1238350">
        <ele>426.6</ele>
        <time>2020-07-24T07:15:17Z</time>
      </trkpt>
      <trkpt lat="42.9777890" lon="1.1232380">
        <ele>426.6</ele>
        <time>2020-07-24T07:15:23Z</time>
      </trkpt>
      <trkpt lat="42.9777320" lon="1.1230360">
        <ele>426.6</ele>
        <time>2020-07-24T07:15:25Z</time>
      </trkpt>
      <trkpt lat="42.9776360" lon="1.1227450">
        <ele>426.6</ele>
        <time>2020-07-24T07:15:28Z</time>
      </trkpt>
      <trkpt lat="42.9775080" lon="1.1224820">
        <ele>426.8</ele>
        <time>2020-07-24T07:15:31Z</time>
      </trkpt>
      <trkpt lat="42.9772050" lon="1.1220110">
        <ele>427.2</ele>
        <time>2020-07-24T07:15:37Z</time>
      </trkpt>
      <trkpt lat="42.9771150" lon="1.1218460">
        <ele>427.2</ele>
        <time>2020-07-24T07:15:39Z</time>
      </trkpt>
      <trkpt lat="42.9768650" lon="1.1213440">
        <ele>427.4</ele>
        <time>2020-07-24T07:15:45Z</time>
      </trkpt>
      <trkpt lat="42.9767700" lon="1.1211850">
        <ele>427.6</ele>
        <time>2020-07-24T07:15:47Z</time>
      </trkpt>
      <trkpt lat="42.9766620" lon="1.1210480">
        <ele>428.0</ele>
        <time>2020-07-24T07:15:49Z</time>
      </trkpt>
      <trkpt lat="42.9764730" lon="1.1208800">
        <ele>428.2</ele>
        <time>2020-07-24T07:15:52Z</time>
      </trkpt>
      <trkpt lat="42.9762610" lon="1.1207720">
        <ele>428.2</ele>
        <time>2020-07-24T07:15:55Z</time>
      </trkpt>
      <trkpt lat="42.9761880" lon="1.1207470">
        <ele>428.2</ele>
        <time>2020-07-24T07:15:56Z</time>
      </trkpt>
      <trkpt lat="42.9761140" lon="1.1207240">
        <ele>428.2</ele>
        <time>2020-07-24T07:15:57Z</time>
      </trkpt>
      <trkpt lat="42.9756630" lon="1.1206060">
        <ele>428.8</ele>
        <time>2020-07-24T07:16:03Z</time>
      </trkpt>
      <trkpt lat="42.9755900" lon="1.1205810">
        <ele>429.0</ele>
        <time>2020-07-24T07:16:04Z</time>
      </trkpt>
      <trkpt lat="42.9755160" lon="1.1205540">
        <ele>429.0</ele>
        <time>2020-07-24T07:16:05Z</time>
      </trkpt>
      <trkpt lat="42.9751570" lon="1.1204000">
        <ele>429.2</ele>
        <time>2020-07-24T07:16:10Z</time>
      </trkpt>
      <trkpt lat="42.9750180" lon="1.1203520">
        <ele>429.6</ele>
        <time>2020-07-24T07:16:12Z</time>
      </trkpt>
      <trkpt lat="42.9748750" lon="1.1203070">
        <ele>430.2</ele>
        <time>2020-07-24T07:16:14Z</time>
      </trkpt>
      <trkpt lat="42.9746560" lon="1.1202870">
        <ele>430.4</ele>
        <time>2020-07-24T07:16:17Z</time>
      </trkpt>
      <trkpt lat="42.9745160" lon="1.1203230">
        <ele>430.4</ele>
        <time>2020-07-24T07:16:19Z</time>
      </trkpt>
      <trkpt lat="42.9743080" lon="1.1204030">
        <ele>430.2</ele>
        <time>2020-07-24T07:16:22Z</time>
      </trkpt>
      <trkpt lat="42.9738950" lon="1.1206420">
        <ele>430.8</ele>
        <time>2020-07-24T07:16:28Z</time>
      </trkpt>
      <trkpt lat="42.9737510" lon="1.1207680">
        <ele>431.2</ele>
        <time>2020-07-24T07:16:30Z</time>
      </trkpt>
      <trkpt lat="42.9733340" lon="1.1208870">
        <ele>431.8</ele>
        <time>2020-07-24T07:16:36Z</time>
      </trkpt>
      <trkpt lat="42.9729930" lon="1.1208260">
        <ele>432.0</ele>
        <time>2020-07-24T07:16:41Z</time>
      </trkpt>
      <trkpt lat="42.9728610" lon="1.1207720">
        <ele>432.2</ele>
        <time>2020-07-24T07:16:43Z</time>
      </trkpt>
      <trkpt lat="42.9726190" lon="1.1206000">
        <ele>433.2</ele>
        <time>2020-07-24T07:16:47Z</time>
      </trkpt>
      <trkpt lat="42.9725650" lon="1.1205420">
        <ele>433.4</ele>
        <time>2020-07-24T07:16:48Z</time>
      </trkpt>
      <trkpt lat="42.9723740" lon="1.1202690">
        <ele>433.4</ele>
        <time>2020-07-24T07:16:52Z</time>
      </trkpt>
      <trkpt lat="42.9721780" lon="1.1197700">
        <ele>433.8</ele>
        <time>2020-07-24T07:16:58Z</time>
      </trkpt>
      <trkpt lat="42.9720990" lon="1.1193050">
        <ele>434.0</ele>
        <time>2020-07-24T07:17:03Z</time>
      </trkpt>
      <trkpt lat="42.9720300" lon="1.1187280">
        <ele>433.6</ele>
        <time>2020-07-24T07:17:09Z</time>
      </trkpt>
      <trkpt lat="42.9720070" lon="1.1185360">
        <ele>433.8</ele>
        <time>2020-07-24T07:17:11Z</time>
      </trkpt>
      <trkpt lat="42.9719710" lon="1.1182500">
        <ele>434.4</ele>
        <time>2020-07-24T07:17:14Z</time>
      </trkpt>
      <trkpt lat="42.9719070" lon="1.1176630">
        <ele>434.8</ele>
        <time>2020-07-24T07:17:20Z</time>
      </trkpt>
      <trkpt lat="42.9718970" lon="1.1175640">
        <ele>434.8</ele>
        <time>2020-07-24T07:17:21Z</time>
      </trkpt>
      <trkpt lat="42.9718190" lon="1.1169880">
        <ele>435.2</ele>
        <time>2020-07-24T07:17:27Z</time>
      </trkpt>
      <trkpt lat="42.9717620" lon="1.1164190">
        <ele>435.4</ele>
        <time>2020-07-24T07:17:33Z</time>
      </trkpt>
      <trkpt lat="42.9717250" lon="1.1161280">
        <ele>435.4</ele>
        <time>2020-07-24T07:17:36Z</time>
      </trkpt>
      <trkpt lat="42.9716720" lon="1.1157500">
        <ele>435.6</ele>
        <time>2020-07-24T07:17:40Z</time>
      </trkpt>
      <trkpt lat="42.9716030" lon="1.1151530">
        <ele>435.8</ele>
        <time>2020-07-24T07:17:46Z</time>
      </trkpt>
      <trkpt lat="42.9715960" lon="1.1150530">
        <ele>436.0</ele>
        <time>2020-07-24T07:17:47Z</time>
      </trkpt>
      <trkpt lat="42.9715690" lon="1.1147530">
        <ele>436.6</ele>
        <time>2020-07-24T07:17:50Z</time>
      </trkpt>
      <trkpt lat="42.9715190" lon="1.1141660">
        <ele>436.8</ele>
        <time>2020-07-24T07:17:56Z</time>
      </trkpt>
      <trkpt lat="42.9715120" lon="1.1140690">
        <ele>436.8</ele>
        <time>2020-07-24T07:17:57Z</time>
      </trkpt>
      <trkpt lat="42.9715040" lon="1.1139710">
        <ele>436.8</ele>
        <time>2020-07-24T07:17:58Z</time>
      </trkpt>
      <trkpt lat="42.9714560" lon="1.1134770">
        <ele>437.6</ele>
        <time>2020-07-24T07:18:03Z</time>
      </trkpt>
      <trkpt lat="42.9714260" lon="1.1132910">
        <ele>438.2</ele>
        <time>2020-07-24T07:18:05Z</time>
      </trkpt>
      <trkpt lat="42.9713850" lon="1.1131110">
        <ele>438.6</ele>
        <time>2020-07-24T07:18:07Z</time>
      </trkpt>
      <trkpt lat="42.9713580" lon="1.1130250">
        <ele>438.6</ele>
        <time>2020-07-24T07:18:08Z</time>
      </trkpt>
      <trkpt lat="42.9712630" lon="1.1127630">
        <ele>438.6</ele>
        <time>2020-07-24T07:18:11Z</time>
      </trkpt>
      <trkpt lat="42.9710570" lon="1.1122190">
        <ele>438.8</ele>
        <time>2020-07-24T07:18:17Z</time>
      </trkpt>
      <trkpt lat="42.9709810" lon="1.1120290">
        <ele>438.8</ele>
        <time>2020-07-24T07:18:19Z</time>
      </trkpt>
      <trkpt lat="42.9707480" lon="1.1114510">
        <ele>438.8</ele>
        <time>2020-07-24T07:18:25Z</time>
      </trkpt>
      <trkpt lat="42.9706700" lon="1.1112630">
        <ele>438.8</ele>
        <time>2020-07-24T07:18:27Z</time>
      </trkpt>
      <trkpt lat="42.9705560" lon="1.1109850">
        <ele>439.0</ele>
        <time>2020-07-24T07:18:30Z</time>
      </trkpt>
      <trkpt lat="42.9703690" lon="1.1105140">
        <ele>439.2</ele>
        <time>2020-07-24T07:18:35Z</time>
      </trkpt>
      <trkpt lat="42.9703310" lon="1.1104210">
        <ele>439.2</ele>
        <time>2020-07-24T07:18:36Z</time>
      </trkpt>
      <trkpt lat="42.9701030" lon="1.1098690">
        <ele>439.0</ele>
        <time>2020-07-24T07:18:42Z</time>
      </trkpt>
      <trkpt lat="42.9699910" lon="1.1095990">
        <ele>439.2</ele>
        <time>2020-07-24T07:18:45Z</time>
      </trkpt>
      <trkpt lat="42.9699190" lon="1.1094220">
        <ele>439.2</ele>
        <time>2020-07-24T07:18:47Z</time>
      </trkpt>
      <trkpt lat="42.9697450" lon="1.1089920">
        <ele>440.0</ele>
        <time>2020-07-24T07:18:52Z</time>
      </trkpt>
      <trkpt lat="42.9697110" lon="1.1089060">
        <ele>440.2</ele>
        <time>2020-07-24T07:18:53Z</time>
      </trkpt>
      <trkpt lat="42.9695080" lon="1.1083930">
        <ele>440.4</ele>
        <time>2020-07-24T07:18:59Z</time>
      </trkpt>
      <trkpt lat="42.9694360" lon="1.1082280">
        <ele>440.6</ele>
        <time>2020-07-24T07:19:01Z</time>
      </trkpt>
      <trkpt lat="42.9692260" lon="1.1077230">
        <ele>440.8</ele>
        <time>2020-07-24T07:19:07Z</time>
      </trkpt>
      <trkpt lat="42.9690570" lon="1.1073010">
        <ele>441.0</ele>
        <time>2020-07-24T07:19:12Z</time>
      </trkpt>
      <trkpt lat="42.9688600" lon="1.1067950">
        <ele>441.8</ele>
        <time>2020-07-24T07:19:18Z</time>
      </trkpt>
      <trkpt lat="42.9687940" lon="1.1066270">
        <ele>442.2</ele>
        <time>2020-07-24T07:19:20Z</time>
      </trkpt>
      <trkpt lat="42.9687250" lon="1.1064600">
        <ele>442.2</ele>
        <time>2020-07-24T07:19:22Z</time>
      </trkpt>
      <trkpt lat="42.9685270" lon="1.1059620">
        <ele>442.0</ele>
        <time>2020-07-24T07:19:28Z</time>
      </trkpt>
      <trkpt lat="42.9684290" lon="1.1057150">
        <ele>442.4</ele>
        <time>2020-07-24T07:19:31Z</time>
      </trkpt>
      <trkpt lat="42.9682370" lon="1.1052240">
        <ele>443.0</ele>
        <time>2020-07-24T07:19:37Z</time>
      </trkpt>
      <trkpt lat="42.9680760" lon="1.1048110">
        <ele>443.2</ele>
        <time>2020-07-24T07:19:42Z</time>
      </trkpt>
      <trkpt lat="42.9680480" lon="1.1047250">
        <ele>443.4</ele>
        <time>2020-07-24T07:19:43Z</time>
      </trkpt>
      <trkpt lat="42.9678990" lon="1.1041870">
        <ele>444.0</ele>
        <time>2020-07-24T07:19:49Z</time>
      </trkpt>
      <trkpt lat="42.9678770" lon="1.1040980">
        <ele>444.2</ele>
        <time>2020-07-24T07:19:50Z</time>
      </trkpt>
      <trkpt lat="42.9678550" lon="1.1040140">
        <ele>444.4</ele>
        <time>2020-07-24T07:19:51Z</time>
      </trkpt>
      <trkpt lat="42.9677550" lon="1.1036990">
        <ele>444.4</ele>
        <time>2020-07-24T07:19:55Z</time>
      </trkpt>
      <trkpt lat="42.9677210" lon="1.1036240">
        <ele>444.4</ele>
        <time>2020-07-24T07:19:56Z</time>
      </trkpt>
      <trkpt lat="42.9675620" lon="1.1033290">
        <ele>444.2</ele>
        <time>2020-07-24T07:20:00Z</time>
      </trkpt>
      <trkpt lat="42.9674310" lon="1.1031170">
        <ele>444.2</ele>
        <time>2020-07-24T07:20:03Z</time>
      </trkpt>
      <trkpt lat="42.9671730" lon="1.1026710">
        <ele>444.6</ele>
        <time>2020-07-24T07:20:09Z</time>
      </trkpt>
      <trkpt lat="42.9671050" lon="1.1025070">
        <ele>444.8</ele>
        <time>2020-07-24T07:20:11Z</time>
      </trkpt>
      <trkpt lat="42.9670520" lon="1.1023370">
        <ele>444.8</ele>
        <time>2020-07-24T07:20:13Z</time>
      </trkpt>
      <trkpt lat="42.9670220" lon="1.1021550">
        <ele>445.0</ele>
        <time>2020-07-24T07:20:15Z</time>
      </trkpt>
      <trkpt lat="42.9669980" lon="1.1019070">
        <ele>445.4</ele>
        <time>2020-07-24T07:20:18Z</time>
      </trkpt>
      <trkpt lat="42.9669780" lon="1.1018380">
        <ele>445.6</ele>
        <time>2020-07-24T07:20:19Z</time>
      </trkpt>
      <trkpt lat="42.9669180" lon="1.1016210">
        <ele>446.0</ele>
        <time>2020-07-24T07:20:22Z</time>
      </trkpt>
      <trkpt lat="42.9669030" lon="1.1014620">
        <ele>446.2</ele>
        <time>2020-07-24T07:20:24Z</time>
      </trkpt>
      <trkpt lat="42.9668880" lon="1.1013160">
        <ele>446.6</ele>
        <time>2020-07-24T07:20:26Z</time>
      </trkpt>
      <trkpt lat="42.9668470" lon="1.1010660">
        <ele>447.0</ele>
        <time>2020-07-24T07:20:30Z</time>
      </trkpt>
      <trkpt lat="42.9668130" lon="1.1007180">
        <ele>447.0</ele>
        <time>2020-07-24T07:20:35Z</time>
      </trkpt>
      <trkpt lat="42.9667610" lon="1.1002940">
        <ele>447.0</ele>
        <time>2020-07-24T07:20:40Z</time>
      </trkpt>
      <trkpt lat="42.9667230" lon="1.1000370">
        <ele>447.6</ele>
        <time>2020-07-24T07:20:43Z</time>
      </trkpt>
      <trkpt lat="42.9666390" lon="1.0995200">
        <ele>448.4</ele>
        <time>2020-07-24T07:20:49Z</time>
      </trkpt>
      <trkpt lat="42.9666110" lon="1.0993460">
        <ele>448.4</ele>
        <time>2020-07-24T07:20:51Z</time>
      </trkpt>
      <trkpt lat="42.9665800" lon="1.0991660">
        <ele>448.8</ele>
        <time>2020-07-24T07:20:53Z</time>
      </trkpt>
      <trkpt lat="42.9664650" lon="1.0986570">
        <ele>449.2</ele>
        <time>2020-07-24T07:20:59Z</time>
      </trkpt>
      <trkpt lat="42.9662860" lon="1.0982640">
        <ele>449.2</ele>
        <time>2020-07-24T07:21:04Z</time>
      </trkpt>
      <trkpt lat="42.9659960" lon="1.0977890">
        <ele>448.6</ele>
        <time>2020-07-24T07:21:10Z</time>
      </trkpt>
      <trkpt lat="42.9658960" lon="1.0976310">
        <ele>448.6</ele>
        <time>2020-07-24T07:21:12Z</time>
      </trkpt>
      <trkpt lat="42.9655850" lon="1.0971730">
        <ele>448.6</ele>
        <time>2020-07-24T07:21:18Z</time>
      </trkpt>
      <trkpt lat="42.9654820" lon="1.0970250">
        <ele>448.6</ele>
        <time>2020-07-24T07:21:20Z</time>
      </trkpt>
      <trkpt lat="42.9651730" lon="1.0965610">
        <ele>448.8</ele>
        <time>2020-07-24T07:21:26Z</time>
      </trkpt>
      <trkpt lat="42.9650230" lon="1.0963270">
        <ele>449.0</ele>
        <time>2020-07-24T07:21:29Z</time>
      </trkpt>
      <trkpt lat="42.9648790" lon="1.0961000">
        <ele>449.4</ele>
        <time>2020-07-24T07:21:32Z</time>
      </trkpt>
      <trkpt lat="42.9647870" lon="1.0959620">
        <ele>450.2</ele>
        <time>2020-07-24T07:21:34Z</time>
      </trkpt>
      <trkpt lat="42.9647050" lon="1.0958360">
        <ele>450.8</ele>
        <time>2020-07-24T07:21:36Z</time>
      </trkpt>
      <trkpt lat="42.9645000" lon="1.0955420">
        <ele>451.0</ele>
        <time>2020-07-24T07:21:41Z</time>
      </trkpt>
      <trkpt lat="42.9644070" lon="1.0954170">
        <ele>451.0</ele>
        <time>2020-07-24T07:21:43Z</time>
      </trkpt>
      <trkpt lat="42.9643590" lon="1.0953540">
        <ele>451.2</ele>
        <time>2020-07-24T07:21:44Z</time>
      </trkpt>
      <trkpt lat="42.9642160" lon="1.0951610">
        <ele>451.6</ele>
        <time>2020-07-24T07:21:47Z</time>
      </trkpt>
      <trkpt lat="42.9639880" lon="1.0948180">
        <ele>451.8</ele>
        <time>2020-07-24T07:21:52Z</time>
      </trkpt>
      <trkpt lat="42.9638540" lon="1.0945980">
        <ele>452.2</ele>
        <time>2020-07-24T07:21:55Z</time>
      </trkpt>
      <trkpt lat="42.9635860" lon="1.0941250">
        <ele>452.0</ele>
        <time>2020-07-24T07:22:01Z</time>
      </trkpt>
      <trkpt lat="42.9633100" lon="1.0936550">
        <ele>452.6</ele>
        <time>2020-07-24T07:22:07Z</time>
      </trkpt>
      <trkpt lat="42.9631710" lon="1.0934310">
        <ele>453.2</ele>
        <time>2020-07-24T07:22:10Z</time>
      </trkpt>
      <trkpt lat="42.9631230" lon="1.0933650">
        <ele>453.4</ele>
        <time>2020-07-24T07:22:11Z</time>
      </trkpt>
      <trkpt lat="42.9628590" lon="1.0930750">
        <ele>453.6</ele>
        <time>2020-07-24T07:22:16Z</time>
      </trkpt>
      <trkpt lat="42.9625620" lon="1.0927960">
        <ele>453.8</ele>
        <time>2020-07-24T07:22:21Z</time>
      </trkpt>
      <trkpt lat="42.9625170" lon="1.0927220">
        <ele>453.8</ele>
        <time>2020-07-24T07:22:22Z</time>
      </trkpt>
      <trkpt lat="42.9624820" lon="1.0926410">
        <ele>454.0</ele>
        <time>2020-07-24T07:22:23Z</time>
      </trkpt>
      <trkpt lat="42.9624050" lon="1.0924890">
        <ele>454.4</ele>
        <time>2020-07-24T07:22:25Z</time>
      </trkpt>
      <trkpt lat="42.9623590" lon="1.0924240">
        <ele>454.6</ele>
        <time>2020-07-24T07:22:26Z</time>
      </trkpt>
      <trkpt lat="42.9623120" lon="1.0923570">
        <ele>454.6</ele>
        <time>2020-07-24T07:22:27Z</time>
      </trkpt>
      <trkpt lat="42.9622070" lon="1.0921350">
        <ele>455.2</ele>
        <time>2020-07-24T07:22:30Z</time>
      </trkpt>
      <trkpt lat="42.9621470" lon="1.0919990">
        <ele>455.6</ele>
        <time>2020-07-24T07:22:32Z</time>
      </trkpt>
      <trkpt lat="42.9620650" lon="1.0918070">
        <ele>456.6</ele>
        <time>2020-07-24T07:22:35Z</time>
      </trkpt>
      <trkpt lat="42.9620400" lon="1.0917460">
        <ele>457.2</ele>
        <time>2020-07-24T07:22:36Z</time>
      </trkpt>
      <trkpt lat="42.9619930" lon="1.0916300">
        <ele>457.8</ele>
        <time>2020-07-24T07:22:38Z</time>
      </trkpt>
      <trkpt lat="42.9619260" lon="1.0914690">
        <ele>459.0</ele>
        <time>2020-07-24T07:22:41Z</time>
      </trkpt>
      <trkpt lat="42.9619070" lon="1.0914180">
        <ele>459.4</ele>
        <time>2020-07-24T07:22:42Z</time>
      </trkpt>
      <trkpt lat="42.9618740" lon="1.0913110">
        <ele>460.2</ele>
        <time>2020-07-24T07:22:44Z</time>
      </trkpt>
      <trkpt lat="42.9617940" lon="1.0909650">
        <ele>461.2</ele>
        <time>2020-07-24T07:22:50Z</time>
      </trkpt>
      <trkpt lat="42.9617820" lon="1.0909060">
        <ele>461.4</ele>
        <time>2020-07-24T07:22:51Z</time>
      </trkpt>
      <trkpt lat="42.9617610" lon="1.0907870">
        <ele>461.8</ele>
        <time>2020-07-24T07:22:53Z</time>
      </trkpt>
      <trkpt lat="42.9617140" lon="1.0905250">
        <ele>462.4</ele>
        <time>2020-07-24T07:22:57Z</time>
      </trkpt>
      <trkpt lat="42.9616900" lon="1.0903730">
        <ele>462.4</ele>
        <time>2020-07-24T07:22:59Z</time>
      </trkpt>
      <trkpt lat="42.9616620" lon="1.0902140">
        <ele>462.0</ele>
        <time>2020-07-24T07:23:01Z</time>
      </trkpt>
      <trkpt lat="42.9616480" lon="1.0901340">
        <ele>461.8</ele>
        <time>2020-07-24T07:23:02Z</time>
      </trkpt>
      <trkpt lat="42.9615700" lon="1.0896520">
        <ele>461.6</ele>
        <time>2020-07-24T07:23:08Z</time>
      </trkpt>
      <trkpt lat="42.9615350" lon="1.0892210">
        <ele>461.4</ele>
        <time>2020-07-24T07:23:13Z</time>
      </trkpt>
      <trkpt lat="42.9615210" lon="1.0890270">
        <ele>461.2</ele>
        <time>2020-07-24T07:23:15Z</time>
      </trkpt>
      <trkpt lat="42.9614890" lon="1.0887260">
        <ele>460.8</ele>
        <time>2020-07-24T07:23:18Z</time>
      </trkpt>
      <trkpt lat="42.9614510" lon="1.0885240">
        <ele>460.6</ele>
        <time>2020-07-24T07:23:20Z</time>
      </trkpt>
      <trkpt lat="42.9614230" lon="1.0884250">
        <ele>460.4</ele>
        <time>2020-07-24T07:23:21Z</time>
      </trkpt>
      <trkpt lat="42.9613200" lon="1.0881430">
        <ele>459.4</ele>
        <time>2020-07-24T07:23:24Z</time>
      </trkpt>
      <trkpt lat="42.9612280" lon="1.0879720">
        <ele>458.6</ele>
        <time>2020-07-24T07:23:26Z</time>
      </trkpt>
      <trkpt lat="42.9611210" lon="1.0877990">
        <ele>458.2</ele>
        <time>2020-07-24T07:23:28Z</time>
      </trkpt>
      <trkpt lat="42.9610120" lon="1.0876320">
        <ele>457.6</ele>
        <time>2020-07-24T07:23:30Z</time>
      </trkpt>
      <trkpt lat="42.9609570" lon="1.0875470">
        <ele>457.0</ele>
        <time>2020-07-24T07:23:31Z</time>
      </trkpt>
      <trkpt lat="42.9607890" lon="1.0872920">
        <ele>456.4</ele>
        <time>2020-07-24T07:23:34Z</time>
      </trkpt>
      <trkpt lat="42.9606780" lon="1.0871270">
        <ele>455.8</ele>
        <time>2020-07-24T07:23:36Z</time>
      </trkpt>
      <trkpt lat="42.9605500" lon="1.0869900">
        <ele>455.2</ele>
        <time>2020-07-24T07:23:38Z</time>
      </trkpt>
      <trkpt lat="42.9604080" lon="1.0868880">
        <ele>455.0</ele>
        <time>2020-07-24T07:23:40Z</time>
      </trkpt>
      <trkpt lat="42.9602500" lon="1.0868120">
        <ele>455.0</ele>
        <time>2020-07-24T07:23:42Z</time>
      </trkpt>
      <trkpt lat="42.9599980" lon="1.0867330">
        <ele>455.0</ele>
        <time>2020-07-24T07:23:45Z</time>
      </trkpt>
      <trkpt lat="42.9598330" lon="1.0866840">
        <ele>454.8</ele>
        <time>2020-07-24T07:23:47Z</time>
      </trkpt>
      <trkpt lat="42.9595800" lon="1.0866180">
        <ele>454.8</ele>
        <time>2020-07-24T07:23:50Z</time>
      </trkpt>
      <trkpt lat="42.9593470" lon="1.0865290">
        <ele>455.2</ele>
        <time>2020-07-24T07:23:53Z</time>
      </trkpt>
      <trkpt lat="42.9590510" lon="1.0863870">
        <ele>455.8</ele>
        <time>2020-07-24T07:23:57Z</time>
      </trkpt>
      <trkpt lat="42.9589150" lon="1.0862960">
        <ele>456.2</ele>
        <time>2020-07-24T07:23:59Z</time>
      </trkpt>
      <trkpt lat="42.9587980" lon="1.0861690">
        <ele>456.4</ele>
        <time>2020-07-24T07:24:01Z</time>
      </trkpt>
      <trkpt lat="42.9587020" lon="1.0860160">
        <ele>456.8</ele>
        <time>2020-07-24T07:24:03Z</time>
      </trkpt>
      <trkpt lat="42.9585500" lon="1.0855730">
        <ele>457.2</ele>
        <time>2020-07-24T07:24:08Z</time>
      </trkpt>
      <trkpt lat="42.9583580" lon="1.0851920">
        <ele>458.0</ele>
        <time>2020-07-24T07:24:13Z</time>
      </trkpt>
      <trkpt lat="42.9580970" lon="1.0848990">
        <ele>458.6</ele>
        <time>2020-07-24T07:24:18Z</time>
      </trkpt>
      <trkpt lat="42.9579810" lon="1.0848070">
        <ele>458.8</ele>
        <time>2020-07-24T07:24:20Z</time>
      </trkpt>
      <trkpt lat="42.9577880" lon="1.0846960">
        <ele>458.8</ele>
        <time>2020-07-24T07:24:23Z</time>
      </trkpt>
      <trkpt lat="42.9576480" lon="1.0846410">
        <ele>458.8</ele>
        <time>2020-07-24T07:24:25Z</time>
      </trkpt>
      <trkpt lat="42.9573680" lon="1.0845520">
        <ele>459.0</ele>
        <time>2020-07-24T07:24:29Z</time>
      </trkpt>
      <trkpt lat="42.9572980" lon="1.0845330">
        <ele>459.2</ele>
        <time>2020-07-24T07:24:30Z</time>
      </trkpt>
      <trkpt lat="42.9570830" lon="1.0844720">
        <ele>459.4</ele>
        <time>2020-07-24T07:24:33Z</time>
      </trkpt>
      <trkpt lat="42.9568100" lon="1.0843310">
        <ele>459.6</ele>
        <time>2020-07-24T07:24:37Z</time>
      </trkpt>
      <trkpt lat="42.9567500" lon="1.0842800">
        <ele>459.6</ele>
        <time>2020-07-24T07:24:38Z</time>
      </trkpt>
      <trkpt lat="42.9565310" lon="1.0840310">
        <ele>459.8</ele>
        <time>2020-07-24T07:24:42Z</time>
      </trkpt>
      <trkpt lat="42.9564820" lon="1.0839620">
        <ele>460.0</ele>
        <time>2020-07-24T07:24:43Z</time>
      </trkpt>
      <trkpt lat="42.9563360" lon="1.0837440">
        <ele>460.6</ele>
        <time>2020-07-24T07:24:46Z</time>
      </trkpt>
      <trkpt lat="42.9561950" lon="1.0835230">
        <ele>461.0</ele>
        <time>2020-07-24T07:24:49Z</time>
      </trkpt>
      <trkpt lat="42.9561470" lon="1.0834510">
        <ele>461.0</ele>
        <time>2020-07-24T07:24:50Z</time>
      </trkpt>
      <trkpt lat="42.9560490" lon="1.0833080">
        <ele>461.4</ele>
        <time>2020-07-24T07:24:52Z</time>
      </trkpt>
      <trkpt lat="42.9557680" lon="1.0828610">
        <ele>461.6</ele>
        <time>2020-07-24T07:24:58Z</time>
      </trkpt>
      <trkpt lat="42.9556860" lon="1.0826980">
        <ele>461.8</ele>
        <time>2020-07-24T07:25:00Z</time>
      </trkpt>
      <trkpt lat="42.9555780" lon="1.0824410">
        <ele>462.2</ele>
        <time>2020-07-24T07:25:03Z</time>
      </trkpt>
      <trkpt lat="42.9554040" lon="1.0820040">
        <ele>462.6</ele>
        <time>2020-07-24T07:25:08Z</time>
      </trkpt>
      <trkpt lat="42.9553350" lon="1.0818340">
        <ele>462.6</ele>
        <time>2020-07-24T07:25:10Z</time>
      </trkpt>
      <trkpt lat="42.9552640" lon="1.0816650">
        <ele>462.8</ele>
        <time>2020-07-24T07:25:12Z</time>
      </trkpt>
      <trkpt lat="42.9550710" lon="1.0812500">
        <ele>463.0</ele>
        <time>2020-07-24T07:25:17Z</time>
      </trkpt>
      <trkpt lat="42.9549460" lon="1.0810150">
        <ele>463.2</ele>
        <time>2020-07-24T07:25:20Z</time>
      </trkpt>
      <trkpt lat="42.9547670" lon="1.0807150">
        <ele>463.4</ele>
        <time>2020-07-24T07:25:24Z</time>
      </trkpt>
      <trkpt lat="42.9546330" lon="1.0804930">
        <ele>463.6</ele>
        <time>2020-07-24T07:25:27Z</time>
      </trkpt>
      <trkpt lat="42.9545530" lon="1.0803350">
        <ele>464.0</ele>
        <time>2020-07-24T07:25:29Z</time>
      </trkpt>
      <trkpt lat="42.9544760" lon="1.0801720">
        <ele>464.0</ele>
        <time>2020-07-24T07:25:31Z</time>
      </trkpt>
      <trkpt lat="42.9543820" lon="1.0799090">
        <ele>464.0</ele>
        <time>2020-07-24T07:25:34Z</time>
      </trkpt>
      <trkpt lat="42.9543420" lon="1.0797190">
        <ele>464.0</ele>
        <time>2020-07-24T07:25:36Z</time>
      </trkpt>
      <trkpt lat="42.9543260" lon="1.0796230">
        <ele>464.2</ele>
        <time>2020-07-24T07:25:37Z</time>
      </trkpt>
      <trkpt lat="42.9541960" lon="1.0791010">
        <ele>465.4</ele>
        <time>2020-07-24T07:25:43Z</time>
      </trkpt>
      <trkpt lat="42.9539890" lon="1.0787470">
        <ele>465.6</ele>
        <time>2020-07-24T07:25:48Z</time>
      </trkpt>
      <trkpt lat="42.9537870" lon="1.0784820">
        <ele>465.8</ele>
        <time>2020-07-24T07:25:52Z</time>
      </trkpt>
      <trkpt lat="42.9537420" lon="1.0784080">
        <ele>465.8</ele>
        <time>2020-07-24T07:25:53Z</time>
      </trkpt>
      <trkpt lat="42.9534650" lon="1.0779730">
        <ele>466.0</ele>
        <time>2020-07-24T07:25:59Z</time>
      </trkpt>
      <trkpt lat="42.9533660" lon="1.0778230">
        <ele>466.0</ele>
        <time>2020-07-24T07:26:01Z</time>
      </trkpt>
      <trkpt lat="42.9532160" lon="1.0776030">
        <ele>466.4</ele>
        <time>2020-07-24T07:26:04Z</time>
      </trkpt>
      <trkpt lat="42.9529610" lon="1.0772780">
        <ele>466.8</ele>
        <time>2020-07-24T07:26:09Z</time>
      </trkpt>
      <trkpt lat="42.9528060" lon="1.0770960">
        <ele>467.4</ele>
        <time>2020-07-24T07:26:12Z</time>
      </trkpt>
      <trkpt lat="42.9524980" lon="1.0767140">
        <ele>468.0</ele>
        <time>2020-07-24T07:26:18Z</time>
      </trkpt>
      <trkpt lat="42.9524490" lon="1.0766440">
        <ele>468.2</ele>
        <time>2020-07-24T07:26:19Z</time>
      </trkpt>
      <trkpt lat="42.9523550" lon="1.0765000">
        <ele>468.6</ele>
        <time>2020-07-24T07:26:21Z</time>
      </trkpt>
      <trkpt lat="42.9520590" lon="1.0760550">
        <ele>469.6</ele>
        <time>2020-07-24T07:26:27Z</time>
      </trkpt>
      <trkpt lat="42.9519570" lon="1.0759060">
        <ele>469.6</ele>
        <time>2020-07-24T07:26:29Z</time>
      </trkpt>
      <trkpt lat="42.9516360" lon="1.0754940">
        <ele>469.6</ele>
        <time>2020-07-24T07:26:35Z</time>
      </trkpt>
      <trkpt lat="42.9514590" lon="1.0752860">
        <ele>469.8</ele>
        <time>2020-07-24T07:26:38Z</time>
      </trkpt>
      <trkpt lat="42.9512800" lon="1.0750790">
        <ele>470.2</ele>
        <time>2020-07-24T07:26:41Z</time>
      </trkpt>
      <trkpt lat="42.9512220" lon="1.0750070">
        <ele>470.2</ele>
        <time>2020-07-24T07:26:42Z</time>
      </trkpt>
      <trkpt lat="42.9509980" lon="1.0746980">
        <ele>470.2</ele>
        <time>2020-07-24T07:26:46Z</time>
      </trkpt>
      <trkpt lat="42.9509470" lon="1.0746130">
        <ele>470.2</ele>
        <time>2020-07-24T07:26:47Z</time>
      </trkpt>
      <trkpt lat="42.9506740" lon="1.0740840">
        <ele>470.6</ele>
        <time>2020-07-24T07:26:53Z</time>
      </trkpt>
      <trkpt lat="42.9506350" lon="1.0739920">
        <ele>470.6</ele>
        <time>2020-07-24T07:26:54Z</time>
      </trkpt>
      <trkpt lat="42.9505990" lon="1.0739010">
        <ele>470.6</ele>
        <time>2020-07-24T07:26:55Z</time>
      </trkpt>
      <trkpt lat="42.9503660" lon="1.0733600">
        <ele>471.2</ele>
        <time>2020-07-24T07:27:01Z</time>
      </trkpt>
      <trkpt lat="42.9502840" lon="1.0731830">
        <ele>471.4</ele>
        <time>2020-07-24T07:27:03Z</time>
      </trkpt>
      <trkpt lat="42.9502030" lon="1.0730080">
        <ele>471.4</ele>
        <time>2020-07-24T07:27:05Z</time>
      </trkpt>
      <trkpt lat="42.9500390" lon="1.0726690">
        <ele>471.8</ele>
        <time>2020-07-24T07:27:09Z</time>
      </trkpt>
      <trkpt lat="42.9499150" lon="1.0724260">
        <ele>472.0</ele>
        <time>2020-07-24T07:27:12Z</time>
      </trkpt>
      <trkpt lat="42.9496550" lon="1.0720810">
        <ele>472.6</ele>
        <time>2020-07-24T07:27:17Z</time>
      </trkpt>
      <trkpt lat="42.9493010" lon="1.0717310">
        <ele>472.8</ele>
        <time>2020-07-24T07:27:23Z</time>
      </trkpt>
      <trkpt lat="42.9491790" lon="1.0716050">
        <ele>472.8</ele>
        <time>2020-07-24T07:27:25Z</time>
      </trkpt>
      <trkpt lat="42.9490110" lon="1.0714060">
        <ele>473.2</ele>
        <time>2020-07-24T07:27:28Z</time>
      </trkpt>
      <trkpt lat="42.9489590" lon="1.0713350">
        <ele>473.2</ele>
        <time>2020-07-24T07:27:29Z</time>
      </trkpt>
      <trkpt lat="42.9488630" lon="1.0711860">
        <ele>473.4</ele>
        <time>2020-07-24T07:27:31Z</time>
      </trkpt>
      <trkpt lat="42.9487030" lon="1.0708510">
        <ele>473.8</ele>
        <time>2020-07-24T07:27:35Z</time>
      </trkpt>
      <trkpt lat="42.9486390" lon="1.0706680">
        <ele>474.2</ele>
        <time>2020-07-24T07:27:37Z</time>
      </trkpt>
      <trkpt lat="42.9486120" lon="1.0705760">
        <ele>474.4</ele>
        <time>2020-07-24T07:27:38Z</time>
      </trkpt>
      <trkpt lat="42.9485870" lon="1.0704830">
        <ele>474.4</ele>
        <time>2020-07-24T07:27:39Z</time>
      </trkpt>
      <trkpt lat="42.9485310" lon="1.0701980">
        <ele>475.0</ele>
        <time>2020-07-24T07:27:42Z</time>
      </trkpt>
      <trkpt lat="42.9485170" lon="1.0701020">
        <ele>475.2</ele>
        <time>2020-07-24T07:27:43Z</time>
      </trkpt>
      <trkpt lat="42.9484640" lon="1.0697130">
        <ele>475.6</ele>
        <time>2020-07-24T07:27:47Z</time>
      </trkpt>
      <trkpt lat="42.9484380" lon="1.0695180">
        <ele>475.8</ele>
        <time>2020-07-24T07:27:49Z</time>
      </trkpt>
      <trkpt lat="42.9483900" lon="1.0692240">
        <ele>475.6</ele>
        <time>2020-07-24T07:27:52Z</time>
      </trkpt>
      <trkpt lat="42.9483110" lon="1.0688380">
        <ele>475.8</ele>
        <time>2020-07-24T07:27:56Z</time>
      </trkpt>
      <trkpt lat="42.9482690" lon="1.0685380">
        <ele>476.0</ele>
        <time>2020-07-24T07:27:59Z</time>
      </trkpt>
      <trkpt lat="42.9482620" lon="1.0684380">
        <ele>476.2</ele>
        <time>2020-07-24T07:28:00Z</time>
      </trkpt>
      <trkpt lat="42.9482710" lon="1.0678520">
        <ele>477.0</ele>
        <time>2020-07-24T07:28:06Z</time>
      </trkpt>
      <trkpt lat="42.9482710" lon="1.0677570">
        <ele>477.0</ele>
        <time>2020-07-24T07:28:07Z</time>
      </trkpt>
      <trkpt lat="42.9482530" lon="1.0672050">
        <ele>478.2</ele>
        <time>2020-07-24T07:28:13Z</time>
      </trkpt>
      <trkpt lat="42.9482410" lon="1.0668520">
        <ele>479.6</ele>
        <time>2020-07-24T07:28:17Z</time>
      </trkpt>
      <trkpt lat="42.9482470" lon="1.0665040">
        <ele>480.2</ele>
        <time>2020-07-24T07:28:21Z</time>
      </trkpt>
      <trkpt lat="42.9482270" lon="1.0659350">
        <ele>480.0</ele>
        <time>2020-07-24T07:28:27Z</time>
      </trkpt>
      <trkpt lat="42.9481790" lon="1.0653440">
        <ele>479.8</ele>
        <time>2020-07-24T07:28:33Z</time>
      </trkpt>
      <trkpt lat="42.9481520" lon="1.0650620">
        <ele>480.0</ele>
        <time>2020-07-24T07:28:36Z</time>
      </trkpt>
      <trkpt lat="42.9481170" lon="1.0646680">
        <ele>480.6</ele>
        <time>2020-07-24T07:28:40Z</time>
      </trkpt>
      <trkpt lat="42.9480760" lon="1.0642580">
        <ele>480.6</ele>
        <time>2020-07-24T07:28:44Z</time>
      </trkpt>
      <trkpt lat="42.9480010" lon="1.0636320">
        <ele>479.8</ele>
        <time>2020-07-24T07:28:50Z</time>
      </trkpt>
      <trkpt lat="42.9479770" lon="1.0634260">
        <ele>480.0</ele>
        <time>2020-07-24T07:28:52Z</time>
      </trkpt>
      <trkpt lat="42.9479010" lon="1.0628220">
        <ele>480.2</ele>
        <time>2020-07-24T07:28:58Z</time>
      </trkpt>
      <trkpt lat="42.9478430" lon="1.0625330">
        <ele>480.4</ele>
        <time>2020-07-24T07:29:01Z</time>
      </trkpt>
      <trkpt lat="42.9478000" lon="1.0623450">
        <ele>480.4</ele>
        <time>2020-07-24T07:29:03Z</time>
      </trkpt>
      <trkpt lat="42.9477190" lon="1.0618630">
        <ele>480.6</ele>
        <time>2020-07-24T07:29:08Z</time>
      </trkpt>
      <trkpt lat="42.9477350" lon="1.0616620">
        <ele>480.6</ele>
        <time>2020-07-24T07:29:10Z</time>
      </trkpt>
      <trkpt lat="42.9477590" lon="1.0615620">
        <ele>480.6</ele>
        <time>2020-07-24T07:29:11Z</time>
      </trkpt>
      <trkpt lat="42.9479060" lon="1.0609880">
        <ele>481.2</ele>
        <time>2020-07-24T07:29:17Z</time>
      </trkpt>
      <trkpt lat="42.9479270" lon="1.0608910">
        <ele>481.2</ele>
        <time>2020-07-24T07:29:18Z</time>
      </trkpt>
      <trkpt lat="42.9480300" lon="1.0604080">
        <ele>481.4</ele>
        <time>2020-07-24T07:29:23Z</time>
      </trkpt>
      <trkpt lat="42.9480800" lon="1.0602180">
        <ele>481.4</ele>
        <time>2020-07-24T07:29:25Z</time>
      </trkpt>
      <trkpt lat="42.9481060" lon="1.0601260">
        <ele>481.4</ele>
        <time>2020-07-24T07:29:26Z</time>
      </trkpt>
      <trkpt lat="42.9481540" lon="1.0599440">
        <ele>481.6</ele>
        <time>2020-07-24T07:29:28Z</time>
      </trkpt>
      <trkpt lat="42.9481760" lon="1.0598580">
        <ele>481.6</ele>
        <time>2020-07-24T07:29:29Z</time>
      </trkpt>
      <trkpt lat="42.9482310" lon="1.0596020">
        <ele>481.6</ele>
        <time>2020-07-24T07:29:32Z</time>
      </trkpt>
      <trkpt lat="42.9482810" lon="1.0593310">
        <ele>481.6</ele>
        <time>2020-07-24T07:29:35Z</time>
      </trkpt>
      <trkpt lat="42.9483260" lon="1.0590740">
        <ele>482.0</ele>
        <time>2020-07-24T07:29:38Z</time>
      </trkpt>
      <trkpt lat="42.9483320" lon="1.0589880">
        <ele>482.0</ele>
        <time>2020-07-24T07:29:39Z</time>
      </trkpt>
      <trkpt lat="42.9483220" lon="1.0588220">
        <ele>482.4</ele>
        <time>2020-07-24T07:29:41Z</time>
      </trkpt>
      <trkpt lat="42.9482870" lon="1.0586560">
        <ele>483.0</ele>
        <time>2020-07-24T07:29:43Z</time>
      </trkpt>
      <trkpt lat="42.9482090" lon="1.0584040">
        <ele>483.2</ele>
        <time>2020-07-24T07:29:46Z</time>
      </trkpt>
      <trkpt lat="42.9480210" lon="1.0580320">
        <ele>483.2</ele>
        <time>2020-07-24T07:29:51Z</time>
      </trkpt>
      <trkpt lat="42.9478650" lon="1.0577630">
        <ele>484.0</ele>
        <time>2020-07-24T07:29:55Z</time>
      </trkpt>
      <trkpt lat="42.9477250" lon="1.0574900">
        <ele>484.6</ele>
        <time>2020-07-24T07:29:59Z</time>
      </trkpt>
      <trkpt lat="42.9475940" lon="1.0572050">
        <ele>485.0</ele>
        <time>2020-07-24T07:30:03Z</time>
      </trkpt>
      <trkpt lat="42.9475650" lon="1.0571290">
        <ele>485.0</ele>
        <time>2020-07-24T07:30:04Z</time>
      </trkpt>
      <trkpt lat="42.9475170" lon="1.0569730">
        <ele>485.4</ele>
        <time>2020-07-24T07:30:06Z</time>
      </trkpt>
      <trkpt lat="42.9474810" lon="1.0568100">
        <ele>486.0</ele>
        <time>2020-07-24T07:30:08Z</time>
      </trkpt>
      <trkpt lat="42.9474140" lon="1.0564030">
        <ele>486.8</ele>
        <time>2020-07-24T07:30:13Z</time>
      </trkpt>
      <trkpt lat="42.9473720" lon="1.0558870">
        <ele>487.0</ele>
        <time>2020-07-24T07:30:19Z</time>
      </trkpt>
      <trkpt lat="42.9473650" lon="1.0557990">
        <ele>487.2</ele>
        <time>2020-07-24T07:30:20Z</time>
      </trkpt>
      <trkpt lat="42.9473600" lon="1.0557090">
        <ele>487.2</ele>
        <time>2020-07-24T07:30:21Z</time>
      </trkpt>
      <trkpt lat="42.9473230" lon="1.0551760">
        <ele>488.0</ele>
        <time>2020-07-24T07:30:27Z</time>
      </trkpt>
      <trkpt lat="42.9473120" lon="1.0550890">
        <ele>488.2</ele>
        <time>2020-07-24T07:30:28Z</time>
      </trkpt>
      <trkpt lat="42.9472820" lon="1.0549200">
        <ele>488.4</ele>
        <time>2020-07-24T07:30:30Z</time>
      </trkpt>
      <trkpt lat="42.9471610" lon="1.0544200">
        <ele>489.2</ele>
        <time>2020-07-24T07:30:36Z</time>
      </trkpt>
      <trkpt lat="42.9471430" lon="1.0543380">
        <ele>489.4</ele>
        <time>2020-07-24T07:30:37Z</time>
      </trkpt>
      <trkpt lat="42.9470170" lon="1.0538370">
        <ele>489.6</ele>
        <time>2020-07-24T07:30:43Z</time>
      </trkpt>
      <trkpt lat="42.9469720" lon="1.0536720">
        <ele>489.8</ele>
        <time>2020-07-24T07:30:45Z</time>
      </trkpt>
      <trkpt lat="42.9468690" lon="1.0531700">
        <ele>490.4</ele>
        <time>2020-07-24T07:30:51Z</time>
      </trkpt>
      <trkpt lat="42.9468470" lon="1.0529940">
        <ele>490.4</ele>
        <time>2020-07-24T07:30:53Z</time>
      </trkpt>
      <trkpt lat="42.9467800" lon="1.0524880">
        <ele>491.0</ele>
        <time>2020-07-24T07:30:59Z</time>
      </trkpt>
      <trkpt lat="42.9467600" lon="1.0523210">
        <ele>491.4</ele>
        <time>2020-07-24T07:31:01Z</time>
      </trkpt>
      <trkpt lat="42.9467490" lon="1.0522360">
        <ele>491.8</ele>
        <time>2020-07-24T07:31:02Z</time>
      </trkpt>
      <trkpt lat="42.9466940" lon="1.0518050">
        <ele>492.6</ele>
        <time>2020-07-24T07:31:07Z</time>
      </trkpt>
      <trkpt lat="42.9466750" lon="1.0515380">
        <ele>493.0</ele>
        <time>2020-07-24T07:31:10Z</time>
      </trkpt>
      <trkpt lat="42.9466790" lon="1.0513620">
        <ele>493.6</ele>
        <time>2020-07-24T07:31:12Z</time>
      </trkpt>
      <trkpt lat="42.9467330" lon="1.0510170">
        <ele>494.0</ele>
        <time>2020-07-24T07:31:16Z</time>
      </trkpt>
      <trkpt lat="42.9468480" lon="1.0506120">
        <ele>494.8</ele>
        <time>2020-07-24T07:31:21Z</time>
      </trkpt>
      <trkpt lat="42.9469200" lon="1.0503730">
        <ele>495.4</ele>
        <time>2020-07-24T07:31:24Z</time>
      </trkpt>
      <trkpt lat="42.9470230" lon="1.0498560">
        <ele>496.0</ele>
        <time>2020-07-24T07:31:30Z</time>
      </trkpt>
      <trkpt lat="42.9470030" lon="1.0494090">
        <ele>496.8</ele>
        <time>2020-07-24T07:31:35Z</time>
      </trkpt>
      <trkpt lat="42.9469410" lon="1.0490520">
        <ele>497.2</ele>
        <time>2020-07-24T07:31:39Z</time>
      </trkpt>
      <trkpt lat="42.9468930" lon="1.0488810">
        <ele>497.2</ele>
        <time>2020-07-24T07:31:41Z</time>
      </trkpt>
      <trkpt lat="42.9467460" lon="1.0483950">
        <ele>497.6</ele>
        <time>2020-07-24T07:31:47Z</time>
      </trkpt>
      <trkpt lat="42.9467230" lon="1.0483150">
        <ele>497.6</ele>
        <time>2020-07-24T07:31:48Z</time>
      </trkpt>
      <trkpt lat="42.9466190" lon="1.0479020">
        <ele>498.2</ele>
        <time>2020-07-24T07:31:53Z</time>
      </trkpt>
      <trkpt lat="42.9465590" lon="1.0476570">
        <ele>498.4</ele>
        <time>2020-07-24T07:31:56Z</time>
      </trkpt>
      <trkpt lat="42.9464970" lon="1.0474180">
        <ele>499.2</ele>
        <time>2020-07-24T07:31:59Z</time>
      </trkpt>
      <trkpt lat="42.9463860" lon="1.0470230">
        <ele>499.8</ele>
        <time>2020-07-24T07:32:04Z</time>
      </trkpt>
      <trkpt lat="42.9462880" lon="1.0466210">
        <ele>500.2</ele>
        <time>2020-07-24T07:32:09Z</time>
      </trkpt>
      <trkpt lat="42.9462490" lon="1.0463720">
        <ele>500.6</ele>
        <time>2020-07-24T07:32:12Z</time>
      </trkpt>
      <trkpt lat="42.9462170" lon="1.0460220">
        <ele>501.2</ele>
        <time>2020-07-24T07:32:16Z</time>
      </trkpt>
      <trkpt lat="42.9461920" lon="1.0456710">
        <ele>501.8</ele>
        <time>2020-07-24T07:32:20Z</time>
      </trkpt>
      <trkpt lat="42.9461640" lon="1.0452320">
        <ele>502.0</ele>
        <time>2020-07-24T07:32:25Z</time>
      </trkpt>
      <trkpt lat="42.9461540" lon="1.0450630">
        <ele>502.2</ele>
        <time>2020-07-24T07:32:27Z</time>
      </trkpt>
      <trkpt lat="42.9461480" lon="1.0449780">
        <ele>502.4</ele>
        <time>2020-07-24T07:32:28Z</time>
      </trkpt>
      <trkpt lat="42.9461030" lon="1.0444850">
        <ele>502.8</ele>
        <time>2020-07-24T07:32:34Z</time>
      </trkpt>
      <trkpt lat="42.9460990" lon="1.0444010">
        <ele>503.0</ele>
        <time>2020-07-24T07:32:35Z</time>
      </trkpt>
      <trkpt lat="42.9460950" lon="1.0440510">
        <ele>503.4</ele>
        <time>2020-07-24T07:32:39Z</time>
      </trkpt>
      <trkpt lat="42.9460830" lon="1.0437130">
        <ele>504.2</ele>
        <time>2020-07-24T07:32:43Z</time>
      </trkpt>
      <trkpt lat="42.9460750" lon="1.0436260">
        <ele>504.4</ele>
        <time>2020-07-24T07:32:44Z</time>
      </trkpt>
      <trkpt lat="42.9460160" lon="1.0432090">
        <ele>505.2</ele>
        <time>2020-07-24T07:32:49Z</time>
      </trkpt>
      <trkpt lat="42.9459840" lon="1.0430440">
        <ele>505.4</ele>
        <time>2020-07-24T07:32:51Z</time>
      </trkpt>
      <trkpt lat="42.9458420" lon="1.0425780">
        <ele>506.4</ele>
        <time>2020-07-24T07:32:57Z</time>
      </trkpt>
      <trkpt lat="42.9456890" lon="1.0423140">
        <ele>506.6</ele>
        <time>2020-07-24T07:33:01Z</time>
      </trkpt>
      <trkpt lat="42.9456010" lon="1.0421860">
        <ele>507.0</ele>
        <time>2020-07-24T07:33:03Z</time>
      </trkpt>
      <trkpt lat="42.9455140" lon="1.0420540">
        <ele>507.2</ele>
        <time>2020-07-24T07:33:05Z</time>
      </trkpt>
      <trkpt lat="42.9453260" lon="1.0417080">
        <ele>507.8</ele>
        <time>2020-07-24T07:33:10Z</time>
      </trkpt>
      <trkpt lat="42.9452940" lon="1.0416350">
        <ele>507.8</ele>
        <time>2020-07-24T07:33:11Z</time>
      </trkpt>
      <trkpt lat="42.9451520" lon="1.0412630">
        <ele>508.6</ele>
        <time>2020-07-24T07:33:16Z</time>
      </trkpt>
      <trkpt lat="42.9451250" lon="1.0411920">
        <ele>508.8</ele>
        <time>2020-07-24T07:33:17Z</time>
      </trkpt>
      <trkpt lat="42.9450400" lon="1.0409800">
        <ele>509.4</ele>
        <time>2020-07-24T07:33:20Z</time>
      </trkpt>
      <trkpt lat="42.9449740" lon="1.0408500">
        <ele>509.8</ele>
        <time>2020-07-24T07:33:22Z</time>
      </trkpt>
      <trkpt lat="42.9447900" lon="1.0405570">
        <ele>510.0</ele>
        <time>2020-07-24T07:33:27Z</time>
      </trkpt>
      <trkpt lat="42.9445260" lon="1.0401720">
        <ele>510.4</ele>
        <time>2020-07-24T07:33:33Z</time>
      </trkpt>
      <trkpt lat="42.9442630" lon="1.0398010">
        <ele>510.4</ele>
        <time>2020-07-24T07:33:39Z</time>
      </trkpt>
      <trkpt lat="42.9442200" lon="1.0397430">
        <ele>510.4</ele>
        <time>2020-07-24T07:33:40Z</time>
      </trkpt>
      <trkpt lat="42.9441350" lon="1.0396230">
        <ele>511.0</ele>
        <time>2020-07-24T07:33:42Z</time>
      </trkpt>
      <trkpt lat="42.9438740" lon="1.0392710">
        <ele>511.8</ele>
        <time>2020-07-24T07:33:48Z</time>
      </trkpt>
      <trkpt lat="42.9438330" lon="1.0392080">
        <ele>512.0</ele>
        <time>2020-07-24T07:33:49Z</time>
      </trkpt>
      <trkpt lat="42.9435830" lon="1.0388390">
        <ele>512.8</ele>
        <time>2020-07-24T07:33:55Z</time>
      </trkpt>
      <trkpt lat="42.9435430" lon="1.0387770">
        <ele>513.0</ele>
        <time>2020-07-24T07:33:56Z</time>
      </trkpt>
      <trkpt lat="42.9435020" lon="1.0387160">
        <ele>513.0</ele>
        <time>2020-07-24T07:33:57Z</time>
      </trkpt>
      <trkpt lat="42.9434620" lon="1.0386570">
        <ele>513.2</ele>
        <time>2020-07-24T07:33:58Z</time>
      </trkpt>
      <trkpt lat="42.9434200" lon="1.0386000">
        <ele>513.2</ele>
        <time>2020-07-24T07:33:59Z</time>
      </trkpt>
      <trkpt lat="42.9433750" lon="1.0385460">
        <ele>513.4</ele>
        <time>2020-07-24T07:34:00Z</time>
      </trkpt>
      <trkpt lat="42.9433300" lon="1.0384940">
        <ele>513.6</ele>
        <time>2020-07-24T07:34:01Z</time>
      </trkpt>
      <trkpt lat="42.9432350" lon="1.0383960">
        <ele>514.0</ele>
        <time>2020-07-24T07:34:03Z</time>
      </trkpt>
      <trkpt lat="42.9431830" lon="1.0383510">
        <ele>514.2</ele>
        <time>2020-07-24T07:34:04Z</time>
      </trkpt>
      <trkpt lat="42.9428630" lon="1.0381370">
        <ele>514.4</ele>
        <time>2020-07-24T07:34:10Z</time>
      </trkpt>
      <trkpt lat="42.9427570" lon="1.0380750">
        <ele>514.4</ele>
        <time>2020-07-24T07:34:12Z</time>
      </trkpt>
      <trkpt lat="42.9424370" lon="1.0378810">
        <ele>515.0</ele>
        <time>2020-07-24T07:34:18Z</time>
      </trkpt>
      <trkpt lat="42.9423370" lon="1.0378070">
        <ele>515.4</ele>
        <time>2020-07-24T07:34:20Z</time>
      </trkpt>
      <trkpt lat="42.9422850" lon="1.0377760">
        <ele>515.6</ele>
        <time>2020-07-24T07:34:21Z</time>
      </trkpt>
      <trkpt lat="42.9419770" lon="1.0375850">
        <ele>515.8</ele>
        <time>2020-07-24T07:34:27Z</time>
      </trkpt>
      <trkpt lat="42.9418750" lon="1.0375240">
        <ele>516.0</ele>
        <time>2020-07-24T07:34:29Z</time>
      </trkpt>
      <trkpt lat="42.9415640" lon="1.0373490">
        <ele>516.2</ele>
        <time>2020-07-24T07:34:35Z</time>
      </trkpt>
      <trkpt lat="42.9414670" lon="1.0372770">
        <ele>516.4</ele>
        <time>2020-07-24T07:34:37Z</time>
      </trkpt>
      <trkpt lat="42.9414160" lon="1.0372400">
        <ele>516.6</ele>
        <time>2020-07-24T07:34:38Z</time>
      </trkpt>
      <trkpt lat="42.9413650" lon="1.0372000">
        <ele>516.8</ele>
        <time>2020-07-24T07:34:39Z</time>
      </trkpt>
      <trkpt lat="42.9410770" lon="1.0369200">
        <ele>517.2</ele>
        <time>2020-07-24T07:34:45Z</time>
      </trkpt>
      <trkpt lat="42.9410310" lon="1.0368690">
        <ele>517.6</ele>
        <time>2020-07-24T07:34:46Z</time>
      </trkpt>
      <trkpt lat="42.9409880" lon="1.0368170">
        <ele>517.6</ele>
        <time>2020-07-24T07:34:47Z</time>
      </trkpt>
      <trkpt lat="42.9407580" lon="1.0364730">
        <ele>518.8</ele>
        <time>2020-07-24T07:34:53Z</time>
      </trkpt>
      <trkpt lat="42.9406100" lon="1.0362390">
        <ele>519.4</ele>
        <time>2020-07-24T07:34:57Z</time>
      </trkpt>
      <trkpt lat="42.9405280" lon="1.0361290">
        <ele>519.4</ele>
        <time>2020-07-24T07:34:59Z</time>
      </trkpt>
      <trkpt lat="42.9404390" lon="1.0360220">
        <ele>519.8</ele>
        <time>2020-07-24T07:35:01Z</time>
      </trkpt>
      <trkpt lat="42.9403460" lon="1.0359230">
        <ele>519.8</ele>
        <time>2020-07-24T07:35:03Z</time>
      </trkpt>
      <trkpt lat="42.9400470" lon="1.0356590">
        <ele>520.4</ele>
        <time>2020-07-24T07:35:09Z</time>
      </trkpt>
      <trkpt lat="42.9399960" lon="1.0356170">
        <ele>520.6</ele>
        <time>2020-07-24T07:35:10Z</time>
      </trkpt>
      <trkpt lat="42.9399010" lon="1.0355200">
        <ele>520.8</ele>
        <time>2020-07-24T07:35:12Z</time>
      </trkpt>
      <trkpt lat="42.9397430" lon="1.0353030">
        <ele>521.0</ele>
        <time>2020-07-24T07:35:16Z</time>
      </trkpt>
      <trkpt lat="42.9395550" lon="1.0349300">
        <ele>521.8</ele>
        <time>2020-07-24T07:35:22Z</time>
      </trkpt>
      <trkpt lat="42.9394980" lon="1.0347920">
        <ele>522.0</ele>
        <time>2020-07-24T07:35:24Z</time>
      </trkpt>
      <trkpt lat="42.9393190" lon="1.0343570">
        <ele>522.2</ele>
        <time>2020-07-24T07:35:30Z</time>
      </trkpt>
      <trkpt lat="42.9392890" lon="1.0342850">
        <ele>522.2</ele>
        <time>2020-07-24T07:35:31Z</time>
      </trkpt>
      <trkpt lat="42.9391090" lon="1.0338630">
        <ele>523.0</ele>
        <time>2020-07-24T07:35:37Z</time>
      </trkpt>
      <trkpt lat="42.9390240" lon="1.0336520">
        <ele>523.6</ele>
        <time>2020-07-24T07:35:40Z</time>
      </trkpt>
      <trkpt lat="42.9388310" lon="1.0332480">
        <ele>524.0</ele>
        <time>2020-07-24T07:35:46Z</time>
      </trkpt>
      <trkpt lat="42.9387530" lon="1.0331250">
        <ele>523.8</ele>
        <time>2020-07-24T07:35:48Z</time>
      </trkpt>
      <trkpt lat="42.9385340" lon="1.0328410">
        <ele>523.8</ele>
        <time>2020-07-24T07:35:53Z</time>
      </trkpt>
      <trkpt lat="42.9384850" lon="1.0327890">
        <ele>524.0</ele>
        <time>2020-07-24T07:35:54Z</time>
      </trkpt>
      <trkpt lat="42.9384340" lon="1.0327380">
        <ele>524.2</ele>
        <time>2020-07-24T07:35:55Z</time>
      </trkpt>
      <trkpt lat="42.9383290" lon="1.0326410">
        <ele>524.4</ele>
        <time>2020-07-24T07:35:57Z</time>
      </trkpt>
      <trkpt lat="42.9382170" lon="1.0325590">
        <ele>524.6</ele>
        <time>2020-07-24T07:35:59Z</time>
      </trkpt>
      <trkpt lat="42.9380400" lon="1.0324440">
        <ele>524.6</ele>
        <time>2020-07-24T07:36:02Z</time>
      </trkpt>
      <trkpt lat="42.9376990" lon="1.0321700">
        <ele>524.8</ele>
        <time>2020-07-24T07:36:08Z</time>
      </trkpt>
      <trkpt lat="42.9376480" lon="1.0321090">
        <ele>524.8</ele>
        <time>2020-07-24T07:36:09Z</time>
      </trkpt>
      <trkpt lat="42.9374010" lon="1.0316910">
        <ele>525.0</ele>
        <time>2020-07-24T07:36:15Z</time>
      </trkpt>
      <trkpt lat="42.9373700" lon="1.0316110">
        <ele>525.2</ele>
        <time>2020-07-24T07:36:16Z</time>
      </trkpt>
      <trkpt lat="42.9373420" lon="1.0315290">
        <ele>525.2</ele>
        <time>2020-07-24T07:36:17Z</time>
      </trkpt>
      <trkpt lat="42.9372910" lon="1.0313640">
        <ele>525.2</ele>
        <time>2020-07-24T07:36:19Z</time>
      </trkpt>
      <trkpt lat="42.9372680" lon="1.0312810">
        <ele>525.6</ele>
        <time>2020-07-24T07:36:20Z</time>
      </trkpt>
      <trkpt lat="42.9372460" lon="1.0311980">
        <ele>525.6</ele>
        <time>2020-07-24T07:36:21Z</time>
      </trkpt>
      <trkpt lat="42.9371160" lon="1.0308070">
        <ele>526.2</ele>
        <time>2020-07-24T07:36:26Z</time>
      </trkpt>
      <trkpt lat="42.9370320" lon="1.0305850">
        <ele>526.6</ele>
        <time>2020-07-24T07:36:29Z</time>
      </trkpt>
      <trkpt lat="42.9369230" lon="1.0303800">
        <ele>527.2</ele>
        <time>2020-07-24T07:36:32Z</time>
      </trkpt>
      <trkpt lat="42.9368830" lon="1.0303170">
        <ele>527.4</ele>
        <time>2020-07-24T07:36:33Z</time>
      </trkpt>
      <trkpt lat="42.9367950" lon="1.0301940">
        <ele>527.6</ele>
        <time>2020-07-24T07:36:35Z</time>
      </trkpt>
      <trkpt lat="42.9365670" lon="1.0298950">
        <ele>528.0</ele>
        <time>2020-07-24T07:36:40Z</time>
      </trkpt>
      <trkpt lat="42.9363840" lon="1.0296660">
        <ele>528.4</ele>
        <time>2020-07-24T07:36:44Z</time>
      </trkpt>
      <trkpt lat="42.9363390" lon="1.0296060">
        <ele>528.4</ele>
        <time>2020-07-24T07:36:45Z</time>
      </trkpt>
      <trkpt lat="42.9360630" lon="1.0292520">
        <ele>529.2</ele>
        <time>2020-07-24T07:36:51Z</time>
      </trkpt>
      <trkpt lat="42.9359630" lon="1.0291460">
        <ele>529.4</ele>
        <time>2020-07-24T07:36:53Z</time>
      </trkpt>
      <trkpt lat="42.9358620" lon="1.0290490">
        <ele>529.6</ele>
        <time>2020-07-24T07:36:55Z</time>
      </trkpt>
      <trkpt lat="42.9356990" lon="1.0289170">
        <ele>530.0</ele>
        <time>2020-07-24T07:36:58Z</time>
      </trkpt>
      <trkpt lat="42.9355810" lon="1.0288450">
        <ele>530.2</ele>
        <time>2020-07-24T07:37:00Z</time>
      </trkpt>
      <trkpt lat="42.9353410" lon="1.0287000">
        <ele>530.6</ele>
        <time>2020-07-24T07:37:04Z</time>
      </trkpt>
      <trkpt lat="42.9350940" lon="1.0285580">
        <ele>531.2</ele>
        <time>2020-07-24T07:37:08Z</time>
      </trkpt>
      <trkpt lat="42.9347460" lon="1.0283530">
        <ele>531.0</ele>
        <time>2020-07-24T07:37:14Z</time>
      </trkpt>
      <trkpt lat="42.9346290" lon="1.0282940">
        <ele>531.2</ele>
        <time>2020-07-24T07:37:16Z</time>
      </trkpt>
      <trkpt lat="42.9345720" lon="1.0282630">
        <ele>531.4</ele>
        <time>2020-07-24T07:37:17Z</time>
      </trkpt>
      <trkpt lat="42.9344580" lon="1.0281920">
        <ele>531.8</ele>
        <time>2020-07-24T07:37:19Z</time>
      </trkpt>
      <trkpt lat="42.9343440" lon="1.0281140">
        <ele>532.2</ele>
        <time>2020-07-24T07:37:21Z</time>
      </trkpt>
      <trkpt lat="42.9341110" lon="1.0279730">
        <ele>532.8</ele>
        <time>2020-07-24T07:37:25Z</time>
      </trkpt>
      <trkpt lat="42.9339950" lon="1.0279130">
        <ele>532.8</ele>
        <time>2020-07-24T07:37:27Z</time>
      </trkpt>
      <trkpt lat="42.9338810" lon="1.0278560">
        <ele>533.2</ele>
        <time>2020-07-24T07:37:29Z</time>
      </trkpt>
      <trkpt lat="42.9336990" lon="1.0277940">
        <ele>533.2</ele>
        <time>2020-07-24T07:37:32Z</time>
      </trkpt>
      <trkpt lat="42.9335080" lon="1.0277710">
        <ele>533.4</ele>
        <time>2020-07-24T07:37:35Z</time>
      </trkpt>
      <trkpt lat="42.9333150" lon="1.0277870">
        <ele>534.0</ele>
        <time>2020-07-24T07:37:38Z</time>
      </trkpt>
      <trkpt lat="42.9329340" lon="1.0279180">
        <ele>534.4</ele>
        <time>2020-07-24T07:37:44Z</time>
      </trkpt>
      <trkpt lat="42.9326200" lon="1.0280560">
        <ele>535.0</ele>
        <time>2020-07-24T07:37:49Z</time>
      </trkpt>
      <trkpt lat="42.9325570" lon="1.0280850">
        <ele>535.0</ele>
        <time>2020-07-24T07:37:50Z</time>
      </trkpt>
      <trkpt lat="42.9322450" lon="1.0282230">
        <ele>535.4</ele>
        <time>2020-07-24T07:37:55Z</time>
      </trkpt>
      <trkpt lat="42.9321830" lon="1.0282510">
        <ele>535.6</ele>
        <time>2020-07-24T07:37:56Z</time>
      </trkpt>
      <trkpt lat="42.9318730" lon="1.0283830">
        <ele>535.6</ele>
        <time>2020-07-24T07:38:01Z</time>
      </trkpt>
      <trkpt lat="42.9317480" lon="1.0284350">
        <ele>536.2</ele>
        <time>2020-07-24T07:38:03Z</time>
      </trkpt>
      <trkpt lat="42.9315640" lon="1.0285130">
        <ele>536.8</ele>
        <time>2020-07-24T07:38:06Z</time>
      </trkpt>
      <trkpt lat="42.9313270" lon="1.0286140">
        <ele>537.2</ele>
        <time>2020-07-24T07:38:10Z</time>
      </trkpt>
      <trkpt lat="42.9310510" lon="1.0287290">
        <ele>538.0</ele>
        <time>2020-07-24T07:38:15Z</time>
      </trkpt>
      <trkpt lat="42.9309420" lon="1.0287760">
        <ele>538.4</ele>
        <time>2020-07-24T07:38:17Z</time>
      </trkpt>
      <trkpt lat="42.9306120" lon="1.0289190">
        <ele>539.4</ele>
        <time>2020-07-24T07:38:23Z</time>
      </trkpt>
      <trkpt lat="42.9305590" lon="1.0289430">
        <ele>539.6</ele>
        <time>2020-07-24T07:38:24Z</time>
      </trkpt>
      <trkpt lat="42.9305060" lon="1.0289670">
        <ele>539.8</ele>
        <time>2020-07-24T07:38:25Z</time>
      </trkpt>
      <trkpt lat="42.9301960" lon="1.0290960">
        <ele>540.4</ele>
        <time>2020-07-24T07:38:31Z</time>
      </trkpt>
      <trkpt lat="42.9300960" lon="1.0291400">
        <ele>540.8</ele>
        <time>2020-07-24T07:38:33Z</time>
      </trkpt>
      <trkpt lat="42.9300460" lon="1.0291590">
        <ele>541.2</ele>
        <time>2020-07-24T07:38:34Z</time>
      </trkpt>
      <trkpt lat="42.9297340" lon="1.0292930">
        <ele>542.0</ele>
        <time>2020-07-24T07:38:40Z</time>
      </trkpt>
      <trkpt lat="42.9295820" lon="1.0293590">
        <ele>542.6</ele>
        <time>2020-07-24T07:38:43Z</time>
      </trkpt>
      <trkpt lat="42.9294330" lon="1.0294230">
        <ele>543.2</ele>
        <time>2020-07-24T07:38:46Z</time>
      </trkpt>
      <trkpt lat="42.9291840" lon="1.0295240">
        <ele>544.2</ele>
        <time>2020-07-24T07:38:51Z</time>
      </trkpt>
      <trkpt lat="42.9290400" lon="1.0295780">
        <ele>544.6</ele>
        <time>2020-07-24T07:38:54Z</time>
      </trkpt>
      <trkpt lat="42.9289950" lon="1.0295910">
        <ele>544.6</ele>
        <time>2020-07-24T07:38:55Z</time>
      </trkpt>
      <trkpt lat="42.9288570" lon="1.0295840">
        <ele>545.2</ele>
        <time>2020-07-24T07:38:59Z</time>
      </trkpt>
      <trkpt lat="42.9287810" lon="1.0294890">
        <ele>545.6</ele>
        <time>2020-07-24T07:39:04Z</time>
      </trkpt>
      <trkpt lat="42.9287510" lon="1.0293860">
        <ele>545.6</ele>
        <time>2020-07-24T07:39:06Z</time>
      </trkpt>
      <trkpt lat="42.9287340" lon="1.0293200">
        <ele>545.4</ele>
        <time>2020-07-24T07:39:07Z</time>
      </trkpt>
      <trkpt lat="42.9286760" lon="1.0290840">
        <ele>544.2</ele>
        <time>2020-07-24T07:39:10Z</time>
      </trkpt>
      <trkpt lat="42.9286300" lon="1.0288960">
        <ele>543.0</ele>
        <time>2020-07-24T07:39:12Z</time>
      </trkpt>
      <trkpt lat="42.9285470" lon="1.0285860">
        <ele>542.0</ele>
        <time>2020-07-24T07:39:15Z</time>
      </trkpt>
      <trkpt lat="42.9284940" lon="1.0283510">
        <ele>541.0</ele>
        <time>2020-07-24T07:39:17Z</time>
      </trkpt>
      <trkpt lat="42.9284350" lon="1.0281030">
        <ele>539.8</ele>
        <time>2020-07-24T07:39:19Z</time>
      </trkpt>
      <trkpt lat="42.9283710" lon="1.0278440">
        <ele>538.8</ele>
        <time>2020-07-24T07:39:21Z</time>
      </trkpt>
      <trkpt lat="42.9283380" lon="1.0277100">
        <ele>538.4</ele>
        <time>2020-07-24T07:39:22Z</time>
      </trkpt>
      <trkpt lat="42.9283040" lon="1.0275740">
        <ele>537.4</ele>
        <time>2020-07-24T07:39:23Z</time>
      </trkpt>
      <trkpt lat="42.9282700" lon="1.0274360">
        <ele>536.4</ele>
        <time>2020-07-24T07:39:24Z</time>
      </trkpt>
      <trkpt lat="42.9282000" lon="1.0271520">
        <ele>534.8</ele>
        <time>2020-07-24T07:39:26Z</time>
      </trkpt>
      <trkpt lat="42.9281290" lon="1.0268520">
        <ele>533.0</ele>
        <time>2020-07-24T07:39:28Z</time>
      </trkpt>
      <trkpt lat="42.9280550" lon="1.0265590">
        <ele>531.6</ele>
        <time>2020-07-24T07:39:30Z</time>
      </trkpt>
      <trkpt lat="42.9279770" lon="1.0262720">
        <ele>530.6</ele>
        <time>2020-07-24T07:39:32Z</time>
      </trkpt>
      <trkpt lat="42.9279390" lon="1.0261340">
        <ele>530.4</ele>
        <time>2020-07-24T07:39:33Z</time>
      </trkpt>
      <trkpt lat="42.9278400" lon="1.0257340">
        <ele>529.8</ele>
        <time>2020-07-24T07:39:36Z</time>
      </trkpt>
      <trkpt lat="42.9278140" lon="1.0256060">
        <ele>529.6</ele>
        <time>2020-07-24T07:39:37Z</time>
      </trkpt>
      <trkpt lat="42.9277700" lon="1.0251200">
        <ele>529.0</ele>
        <time>2020-07-24T07:39:41Z</time>
      </trkpt>
      <trkpt lat="42.9277580" lon="1.0247000">
        <ele>529.0</ele>
        <time>2020-07-24T07:39:45Z</time>
      </trkpt>
      <trkpt lat="42.9277620" lon="1.0245030">
        <ele>529.2</ele>
        <time>2020-07-24T07:39:47Z</time>
      </trkpt>
      <trkpt lat="42.9277830" lon="1.0243170">
        <ele>529.6</ele>
        <time>2020-07-24T07:39:49Z</time>
      </trkpt>
      <trkpt lat="42.9278310" lon="1.0241450">
        <ele>530.0</ele>
        <time>2020-07-24T07:39:51Z</time>
      </trkpt>
      <trkpt lat="42.9279450" lon="1.0238510">
        <ele>530.6</ele>
        <time>2020-07-24T07:39:55Z</time>
      </trkpt>
      <trkpt lat="42.9279900" lon="1.0237180">
        <ele>531.0</ele>
        <time>2020-07-24T07:39:57Z</time>
      </trkpt>
      <trkpt lat="42.9280420" lon="1.0234540">
        <ele>531.6</ele>
        <time>2020-07-24T07:40:01Z</time>
      </trkpt>
      <trkpt lat="42.9280530" lon="1.0233080">
        <ele>532.0</ele>
        <time>2020-07-24T07:40:03Z</time>
      </trkpt>
      <trkpt lat="42.9280470" lon="1.0231620">
        <ele>532.6</ele>
        <time>2020-07-24T07:40:05Z</time>
      </trkpt>
      <trkpt lat="42.9280340" lon="1.0230890">
        <ele>532.8</ele>
        <time>2020-07-24T07:40:06Z</time>
      </trkpt>
      <trkpt lat="42.9280050" lon="1.0229440">
        <ele>533.0</ele>
        <time>2020-07-24T07:40:08Z</time>
      </trkpt>
      <trkpt lat="42.9279880" lon="1.0228740">
        <ele>533.0</ele>
        <time>2020-07-24T07:40:09Z</time>
      </trkpt>
      <trkpt lat="42.9279450" lon="1.0227360">
        <ele>533.2</ele>
        <time>2020-07-24T07:40:11Z</time>
      </trkpt>
      <trkpt lat="42.9278230" lon="1.0224630">
        <ele>533.0</ele>
        <time>2020-07-24T07:40:15Z</time>
      </trkpt>
      <trkpt lat="42.9275860" lon="1.0220590">
        <ele>532.8</ele>
        <time>2020-07-24T07:40:21Z</time>
      </trkpt>
      <trkpt lat="42.9275440" lon="1.0219880">
        <ele>532.8</ele>
        <time>2020-07-24T07:40:22Z</time>
      </trkpt>
      <trkpt lat="42.9274230" lon="1.0217630">
        <ele>532.4</ele>
        <time>2020-07-24T07:40:25Z</time>
      </trkpt>
      <trkpt lat="42.9272120" lon="1.0213720">
        <ele>531.8</ele>
        <time>2020-07-24T07:40:30Z</time>
      </trkpt>
      <trkpt lat="42.9269470" lon="1.0208990">
        <ele>531.6</ele>
        <time>2020-07-24T07:40:36Z</time>
      </trkpt>
      <trkpt lat="42.9268180" lon="1.0206550">
        <ele>531.2</ele>
        <time>2020-07-24T07:40:39Z</time>
      </trkpt>
      <trkpt lat="42.9267820" lon="1.0205660">
        <ele>531.2</ele>
        <time>2020-07-24T07:40:40Z</time>
      </trkpt>
      <trkpt lat="42.9266780" lon="1.0200840">
        <ele>531.0</ele>
        <time>2020-07-24T07:40:45Z</time>
      </trkpt>
      <trkpt lat="42.9266450" lon="1.0194840">
        <ele>531.2</ele>
        <time>2020-07-24T07:40:51Z</time>
      </trkpt>
      <trkpt lat="42.9266380" lon="1.0193860">
        <ele>531.0</ele>
        <time>2020-07-24T07:40:52Z</time>
      </trkpt>
      <trkpt lat="42.9266090" lon="1.0188080">
        <ele>531.2</ele>
        <time>2020-07-24T07:40:58Z</time>
      </trkpt>
      <trkpt lat="42.9266090" lon="1.0185200">
        <ele>531.4</ele>
        <time>2020-07-24T07:41:01Z</time>
      </trkpt>
      <trkpt lat="42.9266310" lon="1.0182440">
        <ele>532.0</ele>
        <time>2020-07-24T07:41:04Z</time>
      </trkpt>
      <trkpt lat="42.9266850" lon="1.0179840">
        <ele>532.4</ele>
        <time>2020-07-24T07:41:07Z</time>
      </trkpt>
      <trkpt lat="42.9267510" lon="1.0177390">
        <ele>533.0</ele>
        <time>2020-07-24T07:41:10Z</time>
      </trkpt>
      <trkpt lat="42.9268460" lon="1.0174230">
        <ele>533.2</ele>
        <time>2020-07-24T07:41:14Z</time>
      </trkpt>
      <trkpt lat="42.9268950" lon="1.0172620">
        <ele>533.4</ele>
        <time>2020-07-24T07:41:16Z</time>
      </trkpt>
      <trkpt lat="42.9269480" lon="1.0171040">
        <ele>533.4</ele>
        <time>2020-07-24T07:41:18Z</time>
      </trkpt>
      <trkpt lat="42.9270560" lon="1.0168850">
        <ele>533.6</ele>
        <time>2020-07-24T07:41:21Z</time>
      </trkpt>
      <trkpt lat="42.9273320" lon="1.0164740">
        <ele>534.0</ele>
        <time>2020-07-24T07:41:27Z</time>
      </trkpt>
      <trkpt lat="42.9273740" lon="1.0163950">
        <ele>534.0</ele>
        <time>2020-07-24T07:41:28Z</time>
      </trkpt>
      <trkpt lat="42.9274930" lon="1.0160370">
        <ele>533.8</ele>
        <time>2020-07-24T07:41:32Z</time>
      </trkpt>
      <trkpt lat="42.9275080" lon="1.0159340">
        <ele>533.6</ele>
        <time>2020-07-24T07:41:33Z</time>
      </trkpt>
      <trkpt lat="42.9275150" lon="1.0158300">
        <ele>533.4</ele>
        <time>2020-07-24T07:41:34Z</time>
      </trkpt>
      <trkpt lat="42.9275040" lon="1.0156290">
        <ele>533.2</ele>
        <time>2020-07-24T07:41:36Z</time>
      </trkpt>
      <trkpt lat="42.9274860" lon="1.0155310">
        <ele>533.2</ele>
        <time>2020-07-24T07:41:37Z</time>
      </trkpt>
      <trkpt lat="42.9274610" lon="1.0154350">
        <ele>533.2</ele>
        <time>2020-07-24T07:41:38Z</time>
      </trkpt>
      <trkpt lat="42.9273480" lon="1.0151670">
        <ele>533.4</ele>
        <time>2020-07-24T07:41:41Z</time>
      </trkpt>
      <trkpt lat="42.9272150" lon="1.0149260">
        <ele>533.0</ele>
        <time>2020-07-24T07:41:44Z</time>
      </trkpt>
      <trkpt lat="42.9270240" lon="1.0146360">
        <ele>532.8</ele>
        <time>2020-07-24T07:41:48Z</time>
      </trkpt>
      <trkpt lat="42.9267690" lon="1.0142100">
        <ele>533.8</ele>
        <time>2020-07-24T07:41:54Z</time>
      </trkpt>
      <trkpt lat="42.9267000" lon="1.0140640">
        <ele>534.0</ele>
        <time>2020-07-24T07:41:56Z</time>
      </trkpt>
      <trkpt lat="42.9266070" lon="1.0138370">
        <ele>534.0</ele>
        <time>2020-07-24T07:41:59Z</time>
      </trkpt>
      <trkpt lat="42.9264640" lon="1.0134440">
        <ele>534.4</ele>
        <time>2020-07-24T07:42:04Z</time>
      </trkpt>
      <trkpt lat="42.9264360" lon="1.0133600">
        <ele>534.4</ele>
        <time>2020-07-24T07:42:05Z</time>
      </trkpt>
      <trkpt lat="42.9262640" lon="1.0128520">
        <ele>534.6</ele>
        <time>2020-07-24T07:42:11Z</time>
      </trkpt>
      <trkpt lat="42.9262340" lon="1.0127700">
        <ele>534.4</ele>
        <time>2020-07-24T07:42:12Z</time>
      </trkpt>
      <trkpt lat="42.9261430" lon="1.0125210">
        <ele>534.6</ele>
        <time>2020-07-24T07:42:15Z</time>
      </trkpt>
      <trkpt lat="42.9260000" lon="1.0120980">
        <ele>535.0</ele>
        <time>2020-07-24T07:42:20Z</time>
      </trkpt>
      <trkpt lat="42.9259540" lon="1.0119240">
        <ele>535.2</ele>
        <time>2020-07-24T07:42:22Z</time>
      </trkpt>
      <trkpt lat="42.9258620" lon="1.0114840">
        <ele>535.0</ele>
        <time>2020-07-24T07:42:27Z</time>
      </trkpt>
      <trkpt lat="42.9257820" lon="1.0110580">
        <ele>535.6</ele>
        <time>2020-07-24T07:42:32Z</time>
      </trkpt>
      <trkpt lat="42.9257380" lon="1.0108130">
        <ele>536.2</ele>
        <time>2020-07-24T07:42:35Z</time>
      </trkpt>
      <trkpt lat="42.9257000" lon="1.0105610">
        <ele>536.6</ele>
        <time>2020-07-24T07:42:38Z</time>
      </trkpt>
      <trkpt lat="42.9256610" lon="1.0102470">
        <ele>537.2</ele>
        <time>2020-07-24T07:42:42Z</time>
      </trkpt>
      <trkpt lat="42.9256460" lon="1.0100830">
        <ele>537.2</ele>
        <time>2020-07-24T07:42:44Z</time>
      </trkpt>
      <trkpt lat="42.9256350" lon="1.0098360">
        <ele>537.4</ele>
        <time>2020-07-24T07:42:47Z</time>
      </trkpt>
      <trkpt lat="42.9256290" lon="1.0097540">
        <ele>537.4</ele>
        <time>2020-07-24T07:42:48Z</time>
      </trkpt>
      <trkpt lat="42.9256230" lon="1.0096700">
        <ele>537.6</ele>
        <time>2020-07-24T07:42:49Z</time>
      </trkpt>
      <trkpt lat="42.9256170" lon="1.0095860">
        <ele>537.6</ele>
        <time>2020-07-24T07:42:50Z</time>
      </trkpt>
      <trkpt lat="42.9256120" lon="1.0095050">
        <ele>537.8</ele>
        <time>2020-07-24T07:42:51Z</time>
      </trkpt>
      <trkpt lat="42.9255980" lon="1.0092550">
        <ele>538.0</ele>
        <time>2020-07-24T07:42:54Z</time>
      </trkpt>
      <trkpt lat="42.9255930" lon="1.0091700">
        <ele>538.2</ele>
        <time>2020-07-24T07:42:55Z</time>
      </trkpt>
      <trkpt lat="42.9255700" lon="1.0087500">
        <ele>538.8</ele>
        <time>2020-07-24T07:43:00Z</time>
      </trkpt>
      <trkpt lat="42.9255640" lon="1.0086650">
        <ele>538.8</ele>
        <time>2020-07-24T07:43:01Z</time>
      </trkpt>
      <trkpt lat="42.9255550" lon="1.0084940">
        <ele>539.0</ele>
        <time>2020-07-24T07:43:03Z</time>
      </trkpt>
      <trkpt lat="42.9255420" lon="1.0083210">
        <ele>538.8</ele>
        <time>2020-07-24T07:43:05Z</time>
      </trkpt>
      <trkpt lat="42.9255220" lon="1.0080580">
        <ele>539.2</ele>
        <time>2020-07-24T07:43:08Z</time>
      </trkpt>
      <trkpt lat="42.9254970" lon="1.0076970">
        <ele>539.2</ele>
        <time>2020-07-24T07:43:12Z</time>
      </trkpt>
      <trkpt lat="42.9254840" lon="1.0075130">
        <ele>539.2</ele>
        <time>2020-07-24T07:43:14Z</time>
      </trkpt>
      <trkpt lat="42.9254700" lon="1.0073300">
        <ele>539.2</ele>
        <time>2020-07-24T07:43:16Z</time>
      </trkpt>
      <trkpt lat="42.9254450" lon="1.0069600">
        <ele>539.4</ele>
        <time>2020-07-24T07:43:20Z</time>
      </trkpt>
      <trkpt lat="42.9254320" lon="1.0067750">
        <ele>539.6</ele>
        <time>2020-07-24T07:43:22Z</time>
      </trkpt>
      <trkpt lat="42.9254260" lon="1.0066810">
        <ele>539.6</ele>
        <time>2020-07-24T07:43:23Z</time>
      </trkpt>
      <trkpt lat="42.9254220" lon="1.0065880">
        <ele>539.6</ele>
        <time>2020-07-24T07:43:24Z</time>
      </trkpt>
      <trkpt lat="42.9254170" lon="1.0064950">
        <ele>539.6</ele>
        <time>2020-07-24T07:43:25Z</time>
      </trkpt>
      <trkpt lat="42.9254130" lon="1.0064020">
        <ele>539.6</ele>
        <time>2020-07-24T07:43:26Z</time>
      </trkpt>
      <trkpt lat="42.9254090" lon="1.0063090">
        <ele>539.6</ele>
        <time>2020-07-24T07:43:27Z</time>
      </trkpt>
      <trkpt lat="42.9254030" lon="1.0058540">
        <ele>540.4</ele>
        <time>2020-07-24T07:43:32Z</time>
      </trkpt>
      <trkpt lat="42.9254140" lon="1.0054990">
        <ele>540.6</ele>
        <time>2020-07-24T07:43:36Z</time>
      </trkpt>
      <trkpt lat="42.9254330" lon="1.0050590">
        <ele>541.4</ele>
        <time>2020-07-24T07:43:41Z</time>
      </trkpt>
      <trkpt lat="42.9254620" lon="1.0046130">
        <ele>542.2</ele>
        <time>2020-07-24T07:43:46Z</time>
      </trkpt>
      <trkpt lat="42.9254870" lon="1.0043410">
        <ele>542.4</ele>
        <time>2020-07-24T07:43:49Z</time>
      </trkpt>
      <trkpt lat="42.9255240" lon="1.0039700">
        <ele>542.8</ele>
        <time>2020-07-24T07:43:53Z</time>
      </trkpt>
      <trkpt lat="42.9255340" lon="1.0038800">
        <ele>543.0</ele>
        <time>2020-07-24T07:43:54Z</time>
      </trkpt>
      <trkpt lat="42.9255580" lon="1.0037010">
        <ele>543.4</ele>
        <time>2020-07-24T07:43:56Z</time>
      </trkpt>
      <trkpt lat="42.9255710" lon="1.0036130">
        <ele>543.6</ele>
        <time>2020-07-24T07:43:57Z</time>
      </trkpt>
      <trkpt lat="42.9256610" lon="1.0031010">
        <ele>543.6</ele>
        <time>2020-07-24T07:44:03Z</time>
      </trkpt>
      <trkpt lat="42.9256770" lon="1.0030170">
        <ele>543.6</ele>
        <time>2020-07-24T07:44:04Z</time>
      </trkpt>
      <trkpt lat="42.9257120" lon="1.0028500">
        <ele>543.6</ele>
        <time>2020-07-24T07:44:06Z</time>
      </trkpt>
      <trkpt lat="42.9258020" lon="1.0024210">
        <ele>544.6</ele>
        <time>2020-07-24T07:44:11Z</time>
      </trkpt>
      <trkpt lat="42.9258430" lon="1.0022460">
        <ele>544.8</ele>
        <time>2020-07-24T07:44:13Z</time>
      </trkpt>
      <trkpt lat="42.9259800" lon="1.0017110">
        <ele>544.4</ele>
        <time>2020-07-24T07:44:19Z</time>
      </trkpt>
      <trkpt lat="42.9260410" lon="1.0015320">
        <ele>544.4</ele>
        <time>2020-07-24T07:44:21Z</time>
      </trkpt>
      <trkpt lat="42.9261500" lon="1.0012850">
        <ele>544.4</ele>
        <time>2020-07-24T07:44:24Z</time>
      </trkpt>
      <trkpt lat="42.9261890" lon="1.0012070">
        <ele>544.4</ele>
        <time>2020-07-24T07:44:25Z</time>
      </trkpt>
      <trkpt lat="42.9262740" lon="1.0010630">
        <ele>544.4</ele>
        <time>2020-07-24T07:44:27Z</time>
      </trkpt>
      <trkpt lat="42.9265400" lon="1.0006530">
        <ele>545.0</ele>
        <time>2020-07-24T07:44:33Z</time>
      </trkpt>
      <trkpt lat="42.9266780" lon="1.0004530">
        <ele>545.4</ele>
        <time>2020-07-24T07:44:36Z</time>
      </trkpt>
      <trkpt lat="42.9269520" lon="1.0000520">
        <ele>545.8</ele>
        <time>2020-07-24T07:44:42Z</time>
      </trkpt>
      <trkpt lat="42.9272170" lon="0.9996480">
        <ele>546.2</ele>
        <time>2020-07-24T07:44:48Z</time>
      </trkpt>
      <trkpt lat="42.9274800" lon="0.9992290">
        <ele>546.4</ele>
        <time>2020-07-24T07:44:54Z</time>
      </trkpt>
      <trkpt lat="42.9276040" lon="0.9990050">
        <ele>546.4</ele>
        <time>2020-07-24T07:44:57Z</time>
      </trkpt>
      <trkpt lat="42.9276810" lon="0.9988510">
        <ele>546.6</ele>
        <time>2020-07-24T07:44:59Z</time>
      </trkpt>
      <trkpt lat="42.9277170" lon="0.9987750">
        <ele>546.8</ele>
        <time>2020-07-24T07:45:00Z</time>
      </trkpt>
      <trkpt lat="42.9279300" lon="0.9983400">
        <ele>547.2</ele>
        <time>2020-07-24T07:45:06Z</time>
      </trkpt>
      <trkpt lat="42.9281250" lon="0.9979510">
        <ele>547.0</ele>
        <time>2020-07-24T07:45:12Z</time>
      </trkpt>
      <trkpt lat="42.9281630" lon="0.9978810">
        <ele>547.0</ele>
        <time>2020-07-24T07:45:13Z</time>
      </trkpt>
      <trkpt lat="42.9284070" lon="0.9974350">
        <ele>546.8</ele>
        <time>2020-07-24T07:45:19Z</time>
      </trkpt>
      <trkpt lat="42.9284980" lon="0.9972870">
        <ele>546.8</ele>
        <time>2020-07-24T07:45:21Z</time>
      </trkpt>
      <trkpt lat="42.9285940" lon="0.9971480">
        <ele>546.8</ele>
        <time>2020-07-24T07:45:23Z</time>
      </trkpt>
      <trkpt lat="42.9286410" lon="0.9970780">
        <ele>546.8</ele>
        <time>2020-07-24T07:45:24Z</time>
      </trkpt>
      <trkpt lat="42.9288820" lon="0.9967330">
        <ele>547.0</ele>
        <time>2020-07-24T07:45:29Z</time>
      </trkpt>
      <trkpt lat="42.9291820" lon="0.9963410">
        <ele>547.2</ele>
        <time>2020-07-24T07:45:35Z</time>
      </trkpt>
      <trkpt lat="42.9294230" lon="0.9960190">
        <ele>547.0</ele>
        <time>2020-07-24T07:45:40Z</time>
      </trkpt>
      <trkpt lat="42.9297200" lon="0.9956530">
        <ele>547.4</ele>
        <time>2020-07-24T07:45:46Z</time>
      </trkpt>
      <trkpt lat="42.9297680" lon="0.9955930">
        <ele>547.6</ele>
        <time>2020-07-24T07:45:47Z</time>
      </trkpt>
      <trkpt lat="42.9298630" lon="0.9954680">
        <ele>548.0</ele>
        <time>2020-07-24T07:45:49Z</time>
      </trkpt>
      <trkpt lat="42.9300270" lon="0.9951780">
        <ele>548.4</ele>
        <time>2020-07-24T07:45:53Z</time>
      </trkpt>
      <trkpt lat="42.9300900" lon="0.9950210">
        <ele>548.2</ele>
        <time>2020-07-24T07:45:55Z</time>
      </trkpt>
      <trkpt lat="42.9301620" lon="0.9947530">
        <ele>548.0</ele>
        <time>2020-07-24T07:45:58Z</time>
      </trkpt>
      <trkpt lat="42.9302320" lon="0.9942780">
        <ele>548.0</ele>
        <time>2020-07-24T07:46:03Z</time>
      </trkpt>
      <trkpt lat="42.9302740" lon="0.9940020">
        <ele>548.2</ele>
        <time>2020-07-24T07:46:06Z</time>
      </trkpt>
      <trkpt lat="42.9303370" lon="0.9936470">
        <ele>548.8</ele>
        <time>2020-07-24T07:46:10Z</time>
      </trkpt>
      <trkpt lat="42.9303900" lon="0.9934820">
        <ele>548.8</ele>
        <time>2020-07-24T07:46:12Z</time>
      </trkpt>
      <trkpt lat="42.9304640" lon="0.9933260">
        <ele>548.8</ele>
        <time>2020-07-24T07:46:14Z</time>
      </trkpt>
      <trkpt lat="42.9305110" lon="0.9932570">
        <ele>548.8</ele>
        <time>2020-07-24T07:46:15Z</time>
      </trkpt>
      <trkpt lat="42.9305660" lon="0.9931940">
        <ele>548.8</ele>
        <time>2020-07-24T07:46:16Z</time>
      </trkpt>
      <trkpt lat="42.9307270" lon="0.9930300">
        <ele>548.8</ele>
        <time>2020-07-24T07:46:19Z</time>
      </trkpt>
      <trkpt lat="42.9309420" lon="0.9928210">
        <ele>549.2</ele>
        <time>2020-07-24T07:46:23Z</time>
      </trkpt>
      <trkpt lat="42.9310660" lon="0.9926420">
        <ele>549.4</ele>
        <time>2020-07-24T07:46:26Z</time>
      </trkpt>
      <trkpt lat="42.9312370" lon="0.9924260">
        <ele>550.2</ele>
        <time>2020-07-24T07:46:30Z</time>
      </trkpt>
      <trkpt lat="42.9312870" lon="0.9923900">
        <ele>550.4</ele>
        <time>2020-07-24T07:46:31Z</time>
      </trkpt>
      <trkpt lat="42.9313380" lon="0.9923580">
        <ele>550.6</ele>
        <time>2020-07-24T07:46:32Z</time>
      </trkpt>
      <trkpt lat="42.9314950" lon="0.9922940">
        <ele>551.2</ele>
        <time>2020-07-24T07:46:35Z</time>
      </trkpt>
      <trkpt lat="42.9315500" lon="0.9922860">
        <ele>551.4</ele>
        <time>2020-07-24T07:46:36Z</time>
      </trkpt>
      <trkpt lat="42.9316520" lon="0.9922550">
        <ele>551.6</ele>
        <time>2020-07-24T07:46:38Z</time>
      </trkpt>
      <trkpt lat="42.9319010" lon="0.9921420">
        <ele>552.6</ele>
        <time>2020-07-24T07:46:43Z</time>
      </trkpt>
      <trkpt lat="42.9319780" lon="0.9920760">
        <ele>553.2</ele>
        <time>2020-07-24T07:46:45Z</time>
      </trkpt>
      <trkpt lat="42.9320410" lon="0.9919810">
        <ele>553.8</ele>
        <time>2020-07-24T07:46:47Z</time>
      </trkpt>
      <trkpt lat="42.9321130" lon="0.9918160">
        <ele>554.8</ele>
        <time>2020-07-24T07:46:50Z</time>
      </trkpt>
      <trkpt lat="42.9321570" lon="0.9916300">
        <ele>555.4</ele>
        <time>2020-07-24T07:46:53Z</time>
      </trkpt>
      <trkpt lat="42.9321690" lon="0.9915080">
        <ele>555.8</ele>
        <time>2020-07-24T07:46:55Z</time>
      </trkpt>
      <trkpt lat="42.9321960" lon="0.9912080">
        <ele>557.0</ele>
        <time>2020-07-24T07:47:00Z</time>
      </trkpt>
      <trkpt lat="42.9322200" lon="0.9909610">
        <ele>558.0</ele>
        <time>2020-07-24T07:47:04Z</time>
      </trkpt>
      <trkpt lat="42.9322600" lon="0.9907140">
        <ele>558.6</ele>
        <time>2020-07-24T07:47:08Z</time>
      </trkpt>
      <trkpt lat="42.9323120" lon="0.9904810">
        <ele>559.0</ele>
        <time>2020-07-24T07:47:12Z</time>
      </trkpt>
      <trkpt lat="42.9323190" lon="0.9904200">
        <ele>559.2</ele>
        <time>2020-07-24T07:47:13Z</time>
      </trkpt>
      <trkpt lat="42.9323210" lon="0.9903570">
        <ele>559.4</ele>
        <time>2020-07-24T07:47:14Z</time>
      </trkpt>
      <trkpt lat="42.9323080" lon="0.9901680">
        <ele>559.8</ele>
        <time>2020-07-24T07:47:17Z</time>
      </trkpt>
      <trkpt lat="42.9322790" lon="0.9899770">
        <ele>560.2</ele>
        <time>2020-07-24T07:47:20Z</time>
      </trkpt>
      <trkpt lat="42.9322320" lon="0.9897140">
        <ele>560.8</ele>
        <time>2020-07-24T07:47:24Z</time>
      </trkpt>
      <trkpt lat="42.9322200" lon="0.9896470">
        <ele>560.8</ele>
        <time>2020-07-24T07:47:25Z</time>
      </trkpt>
      <trkpt lat="42.9322100" lon="0.9895770">
        <ele>561.0</ele>
        <time>2020-07-24T07:47:26Z</time>
      </trkpt>
      <trkpt lat="42.9322010" lon="0.9895070">
        <ele>561.0</ele>
        <time>2020-07-24T07:47:27Z</time>
      </trkpt>
      <trkpt lat="42.9321930" lon="0.9894360">
        <ele>561.2</ele>
        <time>2020-07-24T07:47:28Z</time>
      </trkpt>
      <trkpt lat="42.9321840" lon="0.9893630">
        <ele>561.2</ele>
        <time>2020-07-24T07:47:29Z</time>
      </trkpt>
      <trkpt lat="42.9321730" lon="0.9892910">
        <ele>561.2</ele>
        <time>2020-07-24T07:47:30Z</time>
      </trkpt>
      <trkpt lat="42.9321620" lon="0.9892190">
        <ele>561.2</ele>
        <time>2020-07-24T07:47:31Z</time>
      </trkpt>
      <trkpt lat="42.9321530" lon="0.9891460">
        <ele>561.4</ele>
        <time>2020-07-24T07:47:32Z</time>
      </trkpt>
      <trkpt lat="42.9321430" lon="0.9890730">
        <ele>561.4</ele>
        <time>2020-07-24T07:47:33Z</time>
      </trkpt>
      <trkpt lat="42.9321200" lon="0.9889240">
        <ele>561.6</ele>
        <time>2020-07-24T07:47:35Z</time>
      </trkpt>
      <trkpt lat="42.9320690" lon="0.9884600">
        <ele>562.2</ele>
        <time>2020-07-24T07:47:41Z</time>
      </trkpt>
      <trkpt lat="42.9320640" lon="0.9882910">
        <ele>562.4</ele>
        <time>2020-07-24T07:47:43Z</time>
      </trkpt>
      <trkpt lat="42.9320830" lon="0.9877410">
        <ele>562.0</ele>
        <time>2020-07-24T07:47:49Z</time>
      </trkpt>
      <trkpt lat="42.9320910" lon="0.9876450">
        <ele>561.8</ele>
        <time>2020-07-24T07:47:50Z</time>
      </trkpt>
      <trkpt lat="42.9321350" lon="0.9870640">
        <ele>561.4</ele>
        <time>2020-07-24T07:47:56Z</time>
      </trkpt>
      <trkpt lat="42.9321370" lon="0.9868750">
        <ele>561.4</ele>
        <time>2020-07-24T07:47:58Z</time>
      </trkpt>
      <trkpt lat="42.9321270" lon="0.9866010">
        <ele>561.8</ele>
        <time>2020-07-24T07:48:01Z</time>
      </trkpt>
      <trkpt lat="42.9320830" lon="0.9861410">
        <ele>562.0</ele>
        <time>2020-07-24T07:48:06Z</time>
      </trkpt>
      <trkpt lat="42.9320300" lon="0.9855940">
        <ele>562.0</ele>
        <time>2020-07-24T07:48:12Z</time>
      </trkpt>
      <trkpt lat="42.9320220" lon="0.9854160">
        <ele>562.6</ele>
        <time>2020-07-24T07:48:14Z</time>
      </trkpt>
      <trkpt lat="42.9320210" lon="0.9853250">
        <ele>562.6</ele>
        <time>2020-07-24T07:48:15Z</time>
      </trkpt>
      <trkpt lat="42.9320670" lon="0.9847850">
        <ele>563.0</ele>
        <time>2020-07-24T07:48:21Z</time>
      </trkpt>
      <trkpt lat="42.9321320" lon="0.9843430">
        <ele>563.6</ele>
        <time>2020-07-24T07:48:26Z</time>
      </trkpt>
      <trkpt lat="42.9322120" lon="0.9838140">
        <ele>563.8</ele>
        <time>2020-07-24T07:48:32Z</time>
      </trkpt>
      <trkpt lat="42.9322250" lon="0.9837240">
        <ele>563.8</ele>
        <time>2020-07-24T07:48:33Z</time>
      </trkpt>
      <trkpt lat="42.9323450" lon="0.9831950">
        <ele>564.2</ele>
        <time>2020-07-24T07:48:39Z</time>
      </trkpt>
      <trkpt lat="42.9325170" lon="0.9827160">
        <ele>564.6</ele>
        <time>2020-07-24T07:48:45Z</time>
      </trkpt>
      <trkpt lat="42.9325800" lon="0.9825670">
        <ele>565.2</ele>
        <time>2020-07-24T07:48:47Z</time>
      </trkpt>
      <trkpt lat="42.9326400" lon="0.9824220">
        <ele>565.8</ele>
        <time>2020-07-24T07:48:49Z</time>
      </trkpt>
      <trkpt lat="42.9327680" lon="0.9820600">
        <ele>566.8</ele>
        <time>2020-07-24T07:48:54Z</time>
      </trkpt>
      <trkpt lat="42.9328090" lon="0.9819170">
        <ele>567.2</ele>
        <time>2020-07-24T07:48:56Z</time>
      </trkpt>
      <trkpt lat="42.9328600" lon="0.9817010">
        <ele>568.0</ele>
        <time>2020-07-24T07:48:59Z</time>
      </trkpt>
      <trkpt lat="42.9329360" lon="0.9813090">
        <ele>568.4</ele>
        <time>2020-07-24T07:49:04Z</time>
      </trkpt>
      <trkpt lat="42.9330160" lon="0.9808320">
        <ele>568.2</ele>
        <time>2020-07-24T07:49:10Z</time>
      </trkpt>
      <trkpt lat="42.9330310" lon="0.9807500">
        <ele>568.2</ele>
        <time>2020-07-24T07:49:11Z</time>
      </trkpt>
      <trkpt lat="42.9330960" lon="0.9803120">
        <ele>568.0</ele>
        <time>2020-07-24T07:49:16Z</time>
      </trkpt>
      <trkpt lat="42.9331450" lon="0.9799620">
        <ele>568.0</ele>
        <time>2020-07-24T07:49:20Z</time>
      </trkpt>
      <trkpt lat="42.9332380" lon="0.9794400">
        <ele>567.4</ele>
        <time>2020-07-24T07:49:26Z</time>
      </trkpt>
      <trkpt lat="42.9332720" lon="0.9792690">
        <ele>567.4</ele>
        <time>2020-07-24T07:49:28Z</time>
      </trkpt>
      <trkpt lat="42.9333100" lon="0.9790930">
        <ele>567.4</ele>
        <time>2020-07-24T07:49:30Z</time>
      </trkpt>
      <trkpt lat="42.9334590" lon="0.9785710">
        <ele>567.2</ele>
        <time>2020-07-24T07:49:36Z</time>
      </trkpt>
      <trkpt lat="42.9334970" lon="0.9784910">
        <ele>567.4</ele>
        <time>2020-07-24T07:49:37Z</time>
      </trkpt>
      <trkpt lat="42.9337520" lon="0.9780380">
        <ele>567.8</ele>
        <time>2020-07-24T07:49:43Z</time>
      </trkpt>
      <trkpt lat="42.9337970" lon="0.9779620">
        <ele>567.6</ele>
        <time>2020-07-24T07:49:44Z</time>
      </trkpt>
      <trkpt lat="42.9338880" lon="0.9778110">
        <ele>567.6</ele>
        <time>2020-07-24T07:49:46Z</time>
      </trkpt>
      <trkpt lat="42.9341700" lon="0.9773610">
        <ele>567.2</ele>
        <time>2020-07-24T07:49:52Z</time>
      </trkpt>
      <trkpt lat="42.9342660" lon="0.9772130">
        <ele>567.0</ele>
        <time>2020-07-24T07:49:54Z</time>
      </trkpt>
      <trkpt lat="42.9343150" lon="0.9771410">
        <ele>566.8</ele>
        <time>2020-07-24T07:49:55Z</time>
      </trkpt>
      <trkpt lat="42.9346360" lon="0.9767520">
        <ele>566.8</ele>
        <time>2020-07-24T07:50:01Z</time>
      </trkpt>
      <trkpt lat="42.9349850" lon="0.9764370">
        <ele>567.6</ele>
        <time>2020-07-24T07:50:07Z</time>
      </trkpt>
      <trkpt lat="42.9350920" lon="0.9763160">
        <ele>567.6</ele>
        <time>2020-07-24T07:50:09Z</time>
      </trkpt>
      <trkpt lat="42.9351760" lon="0.9761780">
        <ele>566.8</ele>
        <time>2020-07-24T07:50:11Z</time>
      </trkpt>
      <trkpt lat="42.9352410" lon="0.9760150">
        <ele>566.4</ele>
        <time>2020-07-24T07:50:13Z</time>
      </trkpt>
      <trkpt lat="42.9353890" lon="0.9754780">
        <ele>566.0</ele>
        <time>2020-07-24T07:50:19Z</time>
      </trkpt>
      <trkpt lat="42.9354250" lon="0.9752830">
        <ele>566.0</ele>
        <time>2020-07-24T07:50:21Z</time>
      </trkpt>
      <trkpt lat="42.9354640" lon="0.9751140">
        <ele>566.0</ele>
        <time>2020-07-24T07:50:23Z</time>
      </trkpt>
      <trkpt lat="42.9355280" lon="0.9748750">
        <ele>566.2</ele>
        <time>2020-07-24T07:50:26Z</time>
      </trkpt>
      <trkpt lat="42.9355490" lon="0.9747970">
        <ele>566.2</ele>
        <time>2020-07-24T07:50:27Z</time>
      </trkpt>
      <trkpt lat="42.9356490" lon="0.9743020">
        <ele>566.2</ele>
        <time>2020-07-24T07:50:33Z</time>
      </trkpt>
      <trkpt lat="42.9356670" lon="0.9742180">
        <ele>566.4</ele>
        <time>2020-07-24T07:50:34Z</time>
      </trkpt>
      <trkpt lat="42.9357650" lon="0.9737520">
        <ele>567.0</ele>
        <time>2020-07-24T07:50:40Z</time>
      </trkpt>
      <trkpt lat="42.9358000" lon="0.9735870">
        <ele>567.2</ele>
        <time>2020-07-24T07:50:42Z</time>
      </trkpt>
      <trkpt lat="42.9359110" lon="0.9730600">
        <ele>567.2</ele>
        <time>2020-07-24T07:50:48Z</time>
      </trkpt>
      <trkpt lat="42.9359430" lon="0.9728810">
        <ele>567.0</ele>
        <time>2020-07-24T07:50:50Z</time>
      </trkpt>
      <trkpt lat="42.9360450" lon="0.9723390">
        <ele>567.2</ele>
        <time>2020-07-24T07:50:56Z</time>
      </trkpt>
      <trkpt lat="42.9361010" lon="0.9720730">
        <ele>567.6</ele>
        <time>2020-07-24T07:50:59Z</time>
      </trkpt>
      <trkpt lat="42.9361920" lon="0.9716270">
        <ele>568.0</ele>
        <time>2020-07-24T07:51:04Z</time>
      </trkpt>
      <trkpt lat="42.9362820" lon="0.9711890">
        <ele>568.4</ele>
        <time>2020-07-24T07:51:09Z</time>
      </trkpt>
      <trkpt lat="42.9363940" lon="0.9706670">
        <ele>568.6</ele>
        <time>2020-07-24T07:51:15Z</time>
      </trkpt>
      <trkpt lat="42.9364480" lon="0.9704000">
        <ele>569.2</ele>
        <time>2020-07-24T07:51:18Z</time>
      </trkpt>
      <trkpt lat="42.9365600" lon="0.9698750">
        <ele>569.8</ele>
        <time>2020-07-24T07:51:24Z</time>
      </trkpt>
      <trkpt lat="42.9365960" lon="0.9696990">
        <ele>570.4</ele>
        <time>2020-07-24T07:51:26Z</time>
      </trkpt>
      <trkpt lat="42.9366770" lon="0.9692650">
        <ele>571.4</ele>
        <time>2020-07-24T07:51:31Z</time>
      </trkpt>
      <trkpt lat="42.9367680" lon="0.9688490">
        <ele>571.6</ele>
        <time>2020-07-24T07:51:36Z</time>
      </trkpt>
      <trkpt lat="42.9368160" lon="0.9686070">
        <ele>572.2</ele>
        <time>2020-07-24T07:51:39Z</time>
      </trkpt>
      <trkpt lat="42.9368350" lon="0.9685280">
        <ele>572.4</ele>
        <time>2020-07-24T07:51:40Z</time>
      </trkpt>
      <trkpt lat="42.9368960" lon="0.9682090">
        <ele>573.0</ele>
        <time>2020-07-24T07:51:44Z</time>
      </trkpt>
      <trkpt lat="42.9369560" lon="0.9679150">
        <ele>573.4</ele>
        <time>2020-07-24T07:51:48Z</time>
      </trkpt>
      <trkpt lat="42.9369690" lon="0.9678430">
        <ele>573.6</ele>
        <time>2020-07-24T07:51:49Z</time>
      </trkpt>
      <trkpt lat="42.9370060" lon="0.9676300">
        <ele>574.4</ele>
        <time>2020-07-24T07:51:52Z</time>
      </trkpt>
      <trkpt lat="42.9370180" lon="0.9675610">
        <ele>574.6</ele>
        <time>2020-07-24T07:51:53Z</time>
      </trkpt>
      <trkpt lat="42.9370270" lon="0.9674900">
        <ele>575.0</ele>
        <time>2020-07-24T07:51:54Z</time>
      </trkpt>
      <trkpt lat="42.9370380" lon="0.9673530">
        <ele>575.8</ele>
        <time>2020-07-24T07:51:56Z</time>
      </trkpt>
      <trkpt lat="42.9370400" lon="0.9671550">
        <ele>576.6</ele>
        <time>2020-07-24T07:51:59Z</time>
      </trkpt>
      <trkpt lat="42.9370380" lon="0.9670890">
        <ele>576.8</ele>
        <time>2020-07-24T07:52:00Z</time>
      </trkpt>
      <trkpt lat="42.9370160" lon="0.9667130">
        <ele>577.6</ele>
        <time>2020-07-24T07:52:06Z</time>
      </trkpt>
      <trkpt lat="42.9370080" lon="0.9666500">
        <ele>577.6</ele>
        <time>2020-07-24T07:52:07Z</time>
      </trkpt>
      <trkpt lat="42.9369920" lon="0.9665220">
        <ele>578.0</ele>
        <time>2020-07-24T07:52:09Z</time>
      </trkpt>
      <trkpt lat="42.9369560" lon="0.9661210">
        <ele>578.8</ele>
        <time>2020-07-24T07:52:15Z</time>
      </trkpt>
      <trkpt lat="42.9369480" lon="0.9660570">
        <ele>578.8</ele>
        <time>2020-07-24T07:52:16Z</time>
      </trkpt>
      <trkpt lat="42.9369260" lon="0.9656920">
        <ele>578.6</ele>
        <time>2020-07-24T07:52:21Z</time>
      </trkpt>
      <trkpt lat="42.9369210" lon="0.9656110">
        <ele>578.6</ele>
        <time>2020-07-24T07:52:22Z</time>
      </trkpt>
      <trkpt lat="42.9368880" lon="0.9650970">
        <ele>578.6</ele>
        <time>2020-07-24T07:52:28Z</time>
      </trkpt>
      <trkpt lat="42.9368720" lon="0.9649260">
        <ele>578.8</ele>
        <time>2020-07-24T07:52:30Z</time>
      </trkpt>
      <trkpt lat="42.9368530" lon="0.9647610">
        <ele>579.0</ele>
        <time>2020-07-24T07:52:32Z</time>
      </trkpt>
      <trkpt lat="42.9367630" lon="0.9642500">
        <ele>579.2</ele>
        <time>2020-07-24T07:52:38Z</time>
      </trkpt>
      <trkpt lat="42.9367460" lon="0.9641610">
        <ele>579.2</ele>
        <time>2020-07-24T07:52:39Z</time>
      </trkpt>
      <trkpt lat="42.9366230" lon="0.9636650">
        <ele>579.8</ele>
        <time>2020-07-24T07:52:45Z</time>
      </trkpt>
      <trkpt lat="42.9365580" lon="0.9635240">
        <ele>580.0</ele>
        <time>2020-07-24T07:52:47Z</time>
      </trkpt>
      <trkpt lat="42.9365230" lon="0.9634540">
        <ele>580.0</ele>
        <time>2020-07-24T07:52:48Z</time>
      </trkpt>
      <trkpt lat="42.9364860" lon="0.9633870">
        <ele>580.2</ele>
        <time>2020-07-24T07:52:49Z</time>
      </trkpt>
      <trkpt lat="42.9363060" lon="0.9631470">
        <ele>580.6</ele>
        <time>2020-07-24T07:52:53Z</time>
      </trkpt>
      <trkpt lat="42.9362080" lon="0.9630330">
        <ele>580.6</ele>
        <time>2020-07-24T07:52:55Z</time>
      </trkpt>
      <trkpt lat="42.9361660" lon="0.9628890">
        <ele>580.6</ele>
        <time>2020-07-24T07:52:57Z</time>
      </trkpt>
      <trkpt lat="42.9362240" lon="0.9627610">
        <ele>580.8</ele>
        <time>2020-07-24T07:52:59Z</time>
      </trkpt>
      <trkpt lat="42.9364020" lon="0.9626530">
        <ele>580.8</ele>
        <time>2020-07-24T07:53:02Z</time>
      </trkpt>
      <trkpt lat="42.9364680" lon="0.9626150">
        <ele>580.8</ele>
        <time>2020-07-24T07:53:03Z</time>
      </trkpt>
      <trkpt lat="42.9367900" lon="0.9623780">
        <ele>580.2</ele>
        <time>2020-07-24T07:53:08Z</time>
      </trkpt>
      <trkpt lat="42.9368480" lon="0.9623160">
        <ele>580.2</ele>
        <time>2020-07-24T07:53:09Z</time>
      </trkpt>
      <trkpt lat="42.9369970" lon="0.9621000">
        <ele>580.2</ele>
        <time>2020-07-24T07:53:12Z</time>
      </trkpt>
      <trkpt lat="42.9370360" lon="0.9620200">
        <ele>580.2</ele>
        <time>2020-07-24T07:53:13Z</time>
      </trkpt>
      <trkpt lat="42.9371480" lon="0.9616860">
        <ele>581.0</ele>
        <time>2020-07-24T07:53:17Z</time>
      </trkpt>
      <trkpt lat="42.9371650" lon="0.9615980">
        <ele>581.2</ele>
        <time>2020-07-24T07:53:18Z</time>
      </trkpt>
      <trkpt lat="42.9371900" lon="0.9612410">
        <ele>581.2</ele>
        <time>2020-07-24T07:53:22Z</time>
      </trkpt>
      <trkpt lat="42.9371930" lon="0.9610650">
        <ele>581.6</ele>
        <time>2020-07-24T07:53:24Z</time>
      </trkpt>
      <trkpt lat="42.9371900" lon="0.9608920">
        <ele>582.0</ele>
        <time>2020-07-24T07:53:26Z</time>
      </trkpt>
      <trkpt lat="42.9371840" lon="0.9603990">
        <ele>583.0</ele>
        <time>2020-07-24T07:53:32Z</time>
      </trkpt>
      <trkpt lat="42.9371840" lon="0.9603210">
        <ele>583.2</ele>
        <time>2020-07-24T07:53:33Z</time>
      </trkpt>
      <trkpt lat="42.9371880" lon="0.9599440">
        <ele>584.4</ele>
        <time>2020-07-24T07:53:38Z</time>
      </trkpt>
      <trkpt lat="42.9371910" lon="0.9597150">
        <ele>585.0</ele>
        <time>2020-07-24T07:53:41Z</time>
      </trkpt>
      <trkpt lat="42.9371870" lon="0.9595660">
        <ele>585.2</ele>
        <time>2020-07-24T07:53:43Z</time>
      </trkpt>
      <trkpt lat="42.9371850" lon="0.9594170">
        <ele>585.6</ele>
        <time>2020-07-24T07:53:45Z</time>
      </trkpt>
      <trkpt lat="42.9371840" lon="0.9592700">
        <ele>585.8</ele>
        <time>2020-07-24T07:53:47Z</time>
      </trkpt>
      <trkpt lat="42.9371830" lon="0.9591960">
        <ele>586.0</ele>
        <time>2020-07-24T07:53:48Z</time>
      </trkpt>
      <trkpt lat="42.9371770" lon="0.9591240">
        <ele>586.0</ele>
        <time>2020-07-24T07:53:49Z</time>
      </trkpt>
      <trkpt lat="42.9371750" lon="0.9589070">
        <ele>586.8</ele>
        <time>2020-07-24T07:53:52Z</time>
      </trkpt>
      <trkpt lat="42.9371790" lon="0.9588330">
        <ele>587.0</ele>
        <time>2020-07-24T07:53:53Z</time>
      </trkpt>
      <trkpt lat="42.9371910" lon="0.9586860">
        <ele>587.4</ele>
        <time>2020-07-24T07:53:55Z</time>
      </trkpt>
      <trkpt lat="42.9372180" lon="0.9583240">
        <ele>587.8</ele>
        <time>2020-07-24T07:54:00Z</time>
      </trkpt>
      <trkpt lat="42.9372260" lon="0.9582550">
        <ele>588.0</ele>
        <time>2020-07-24T07:54:01Z</time>
      </trkpt>
      <trkpt lat="42.9372370" lon="0.9580550">
        <ele>589.0</ele>
        <time>2020-07-24T07:54:04Z</time>
      </trkpt>
      <trkpt lat="42.9372340" lon="0.9578480">
        <ele>589.4</ele>
        <time>2020-07-24T07:54:07Z</time>
      </trkpt>
      <trkpt lat="42.9372150" lon="0.9577220">
        <ele>590.0</ele>
        <time>2020-07-24T07:54:09Z</time>
      </trkpt>
      <trkpt lat="42.9372100" lon="0.9576020">
        <ele>590.6</ele>
        <time>2020-07-24T07:54:11Z</time>
      </trkpt>
      <trkpt lat="42.9371800" lon="0.9574120">
        <ele>591.2</ele>
        <time>2020-07-24T07:54:14Z</time>
      </trkpt>
      <trkpt lat="42.9371640" lon="0.9573510">
        <ele>591.4</ele>
        <time>2020-07-24T07:54:15Z</time>
      </trkpt>
      <trkpt lat="42.9371280" lon="0.9572300">
        <ele>591.8</ele>
        <time>2020-07-24T07:54:17Z</time>
      </trkpt>
      <trkpt lat="42.9370620" lon="0.9570390">
        <ele>592.0</ele>
        <time>2020-07-24T07:54:20Z</time>
      </trkpt>
      <trkpt lat="42.9370340" lon="0.9569710">
        <ele>592.0</ele>
        <time>2020-07-24T07:54:21Z</time>
      </trkpt>
      <trkpt lat="42.9369700" lon="0.9568370">
        <ele>592.2</ele>
        <time>2020-07-24T07:54:23Z</time>
      </trkpt>
      <trkpt lat="42.9368340" lon="0.9565830">
        <ele>592.8</ele>
        <time>2020-07-24T07:54:27Z</time>
      </trkpt>
      <trkpt lat="42.9366750" lon="0.9562500">
        <ele>593.2</ele>
        <time>2020-07-24T07:54:32Z</time>
      </trkpt>
      <trkpt lat="42.9366230" lon="0.9560990">
        <ele>593.2</ele>
        <time>2020-07-24T07:54:34Z</time>
      </trkpt>
      <trkpt lat="42.9366040" lon="0.9560190">
        <ele>593.4</ele>
        <time>2020-07-24T07:54:35Z</time>
      </trkpt>
      <trkpt lat="42.9366010" lon="0.9558340">
        <ele>593.4</ele>
        <time>2020-07-24T07:54:37Z</time>
      </trkpt>
      <trkpt lat="42.9366030" lon="0.9557420">
        <ele>593.2</ele>
        <time>2020-07-24T07:54:38Z</time>
      </trkpt>
      <trkpt lat="42.9366750" lon="0.9552820">
        <ele>593.2</ele>
        <time>2020-07-24T07:54:43Z</time>
      </trkpt>
      <trkpt lat="42.9367010" lon="0.9551950">
        <ele>593.4</ele>
        <time>2020-07-24T07:54:44Z</time>
      </trkpt>
      <trkpt lat="42.9368070" lon="0.9549490">
        <ele>593.8</ele>
        <time>2020-07-24T07:54:47Z</time>
      </trkpt>
      <trkpt lat="42.9370560" lon="0.9544710">
        <ele>593.2</ele>
        <time>2020-07-24T07:54:53Z</time>
      </trkpt>
      <trkpt lat="42.9371420" lon="0.9543060">
        <ele>593.0</ele>
        <time>2020-07-24T07:54:55Z</time>
      </trkpt>
      <trkpt lat="42.9372710" lon="0.9540590">
        <ele>593.0</ele>
        <time>2020-07-24T07:54:58Z</time>
      </trkpt>
      <trkpt lat="42.9375160" lon="0.9536800">
        <ele>592.8</ele>
        <time>2020-07-24T07:55:03Z</time>
      </trkpt>
      <trkpt lat="42.9376700" lon="0.9534690">
        <ele>592.6</ele>
        <time>2020-07-24T07:55:06Z</time>
      </trkpt>
      <trkpt lat="42.9377710" lon="0.9533310">
        <ele>592.6</ele>
        <time>2020-07-24T07:55:08Z</time>
      </trkpt>
      <trkpt lat="42.9378490" lon="0.9531700">
        <ele>592.8</ele>
        <time>2020-07-24T07:55:10Z</time>
      </trkpt>
      <trkpt lat="42.9379510" lon="0.9527360">
        <ele>593.4</ele>
        <time>2020-07-24T07:55:15Z</time>
      </trkpt>
      <trkpt lat="42.9379710" lon="0.9524740">
        <ele>594.4</ele>
        <time>2020-07-24T07:55:18Z</time>
      </trkpt>
      <trkpt lat="42.9379440" lon="0.9522400">
        <ele>595.0</ele>
        <time>2020-07-24T07:55:21Z</time>
      </trkpt>
      <trkpt lat="42.9379160" lon="0.9520920">
        <ele>595.4</ele>
        <time>2020-07-24T07:55:23Z</time>
      </trkpt>
      <trkpt lat="42.9378300" lon="0.9518260">
        <ele>596.6</ele>
        <time>2020-07-24T07:55:27Z</time>
      </trkpt>
      <trkpt lat="42.9378010" lon="0.9517640">
        <ele>596.8</ele>
        <time>2020-07-24T07:55:28Z</time>
      </trkpt>
      <trkpt lat="42.9377410" lon="0.9516510">
        <ele>597.6</ele>
        <time>2020-07-24T07:55:30Z</time>
      </trkpt>
      <trkpt lat="42.9376240" lon="0.9514270">
        <ele>598.4</ele>
        <time>2020-07-24T07:55:34Z</time>
      </trkpt>
      <trkpt lat="42.9375980" lon="0.9513760">
        <ele>598.6</ele>
        <time>2020-07-24T07:55:35Z</time>
      </trkpt>
      <trkpt lat="42.9375700" lon="0.9513240">
        <ele>598.6</ele>
        <time>2020-07-24T07:55:36Z</time>
      </trkpt>
      <trkpt lat="42.9374800" lon="0.9511720">
        <ele>599.2</ele>
        <time>2020-07-24T07:55:39Z</time>
      </trkpt>
      <trkpt lat="42.9374470" lon="0.9510490">
        <ele>599.6</ele>
        <time>2020-07-24T07:55:41Z</time>
      </trkpt>
      <trkpt lat="42.9374350" lon="0.9509840">
        <ele>599.8</ele>
        <time>2020-07-24T07:55:42Z</time>
      </trkpt>
      <trkpt lat="42.9374160" lon="0.9507940">
        <ele>600.6</ele>
        <time>2020-07-24T07:55:45Z</time>
      </trkpt>
      <trkpt lat="42.9374150" lon="0.9507320">
        <ele>601.0</ele>
        <time>2020-07-24T07:55:46Z</time>
      </trkpt>
      <trkpt lat="42.9374160" lon="0.9506120">
        <ele>601.4</ele>
        <time>2020-07-24T07:55:48Z</time>
      </trkpt>
      <trkpt lat="42.9374220" lon="0.9505010">
        <ele>602.0</ele>
        <time>2020-07-24T07:55:50Z</time>
      </trkpt>
      <trkpt lat="42.9374220" lon="0.9503970">
        <ele>602.6</ele>
        <time>2020-07-24T07:55:52Z</time>
      </trkpt>
      <trkpt lat="42.9374300" lon="0.9502980">
        <ele>603.0</ele>
        <time>2020-07-24T07:55:54Z</time>
      </trkpt>
      <trkpt lat="42.9374340" lon="0.9502480">
        <ele>603.2</ele>
        <time>2020-07-24T07:55:55Z</time>
      </trkpt>
      <trkpt lat="42.9374320" lon="0.9500040">
        <ele>604.4</ele>
        <time>2020-07-24T07:56:00Z</time>
      </trkpt>
      <trkpt lat="42.9374260" lon="0.9498620">
        <ele>605.2</ele>
        <time>2020-07-24T07:56:03Z</time>
      </trkpt>
      <trkpt lat="42.9374210" lon="0.9497670">
        <ele>605.4</ele>
        <time>2020-07-24T07:56:05Z</time>
      </trkpt>
      <trkpt lat="42.9373690" lon="0.9495330">
        <ele>606.6</ele>
        <time>2020-07-24T07:56:10Z</time>
      </trkpt>
      <trkpt lat="42.9373410" lon="0.9493480">
        <ele>607.8</ele>
        <time>2020-07-24T07:56:14Z</time>
      </trkpt>
      <trkpt lat="42.9372980" lon="0.9491190">
        <ele>608.6</ele>
        <time>2020-07-24T07:56:19Z</time>
      </trkpt>
      <trkpt lat="42.9372940" lon="0.9490730">
        <ele>608.8</ele>
        <time>2020-07-24T07:56:20Z</time>
      </trkpt>
      <trkpt lat="42.9372430" lon="0.9488840">
        <ele>610.2</ele>
        <time>2020-07-24T07:56:24Z</time>
      </trkpt>
      <trkpt lat="42.9372150" lon="0.9486510">
        <ele>611.2</ele>
        <time>2020-07-24T07:56:29Z</time>
      </trkpt>
      <trkpt lat="42.9371910" lon="0.9484520">
        <ele>612.0</ele>
        <time>2020-07-24T07:56:33Z</time>
      </trkpt>
      <trkpt lat="42.9371820" lon="0.9484090">
        <ele>612.4</ele>
        <time>2020-07-24T07:56:34Z</time>
      </trkpt>
      <trkpt lat="42.9371760" lon="0.9483610">
        <ele>612.6</ele>
        <time>2020-07-24T07:56:35Z</time>
      </trkpt>
      <trkpt lat="42.9371700" lon="0.9483120">
        <ele>612.8</ele>
        <time>2020-07-24T07:56:36Z</time>
      </trkpt>
      <trkpt lat="42.9371630" lon="0.9482640">
        <ele>613.0</ele>
        <time>2020-07-24T07:56:37Z</time>
      </trkpt>
      <trkpt lat="42.9371490" lon="0.9481760">
        <ele>613.4</ele>
        <time>2020-07-24T07:56:39Z</time>
      </trkpt>
      <trkpt lat="42.9371450" lon="0.9481260">
        <ele>613.6</ele>
        <time>2020-07-24T07:56:40Z</time>
      </trkpt>
      <trkpt lat="42.9371350" lon="0.9480360">
        <ele>614.2</ele>
        <time>2020-07-24T07:56:42Z</time>
      </trkpt>
      <trkpt lat="42.9371020" lon="0.9479550">
        <ele>614.8</ele>
        <time>2020-07-24T07:56:44Z</time>
      </trkpt>
      <trkpt lat="42.9370510" lon="0.9478420">
        <ele>615.4</ele>
        <time>2020-07-24T07:56:47Z</time>
      </trkpt>
      <trkpt lat="42.9370160" lon="0.9477730">
        <ele>616.0</ele>
        <time>2020-07-24T07:56:49Z</time>
      </trkpt>
      <trkpt lat="42.9368870" lon="0.9476360">
        <ele>616.8</ele>
        <time>2020-07-24T07:56:54Z</time>
      </trkpt>
      <trkpt lat="42.9368540" lon="0.9476110">
        <ele>617.2</ele>
        <time>2020-07-24T07:56:55Z</time>
      </trkpt>
      <trkpt lat="42.9367260" lon="0.9475010">
        <ele>618.2</ele>
        <time>2020-07-24T07:56:59Z</time>
      </trkpt>
      <trkpt lat="42.9366590" lon="0.9474480">
        <ele>618.6</ele>
        <time>2020-07-24T07:57:01Z</time>
      </trkpt>
      <trkpt lat="42.9364610" lon="0.9473050">
        <ele>619.4</ele>
        <time>2020-07-24T07:57:07Z</time>
      </trkpt>
      <trkpt lat="42.9363290" lon="0.9472210">
        <ele>620.4</ele>
        <time>2020-07-24T07:57:11Z</time>
      </trkpt>
      <trkpt lat="42.9361960" lon="0.9471290">
        <ele>621.4</ele>
        <time>2020-07-24T07:57:15Z</time>
      </trkpt>
      <trkpt lat="42.9361640" lon="0.9471040">
        <ele>621.6</ele>
        <time>2020-07-24T07:57:16Z</time>
      </trkpt>
      <trkpt lat="42.9359720" lon="0.9469430">
        <ele>622.6</ele>
        <time>2020-07-24T07:57:22Z</time>
      </trkpt>
      <trkpt lat="42.9359140" lon="0.9468810">
        <ele>623.2</ele>
        <time>2020-07-24T07:57:24Z</time>
      </trkpt>
      <trkpt lat="42.9358270" lon="0.9467790">
        <ele>623.6</ele>
        <time>2020-07-24T07:57:27Z</time>
      </trkpt>
      <trkpt lat="42.9356970" lon="0.9466000">
        <ele>624.6</ele>
        <time>2020-07-24T07:57:32Z</time>
      </trkpt>
      <trkpt lat="42.9356740" lon="0.9465610">
        <ele>624.8</ele>
        <time>2020-07-24T07:57:33Z</time>
      </trkpt>
      <trkpt lat="42.9355410" lon="0.9463100">
        <ele>626.0</ele>
        <time>2020-07-24T07:57:39Z</time>
      </trkpt>
      <trkpt lat="42.9354990" lon="0.9462270">
        <ele>626.2</ele>
        <time>2020-07-24T07:57:41Z</time>
      </trkpt>
      <trkpt lat="42.9354310" lon="0.9460500">
        <ele>627.0</ele>
        <time>2020-07-24T07:57:45Z</time>
      </trkpt>
      <trkpt lat="42.9353800" lon="0.9458640">
        <ele>628.0</ele>
        <time>2020-07-24T07:57:49Z</time>
      </trkpt>
      <trkpt lat="42.9353690" lon="0.9458140">
        <ele>628.0</ele>
        <time>2020-07-24T07:57:50Z</time>
      </trkpt>
      <trkpt lat="42.9353320" lon="0.9455640">
        <ele>629.0</ele>
        <time>2020-07-24T07:57:55Z</time>
      </trkpt>
      <trkpt lat="42.9353280" lon="0.9455110">
        <ele>629.2</ele>
        <time>2020-07-24T07:57:56Z</time>
      </trkpt>
      <trkpt lat="42.9352930" lon="0.9452000">
        <ele>629.8</ele>
        <time>2020-07-24T07:58:02Z</time>
      </trkpt>
      <trkpt lat="42.9352850" lon="0.9450960">
        <ele>630.0</ele>
        <time>2020-07-24T07:58:04Z</time>
      </trkpt>
      <trkpt lat="42.9352770" lon="0.9450450">
        <ele>630.2</ele>
        <time>2020-07-24T07:58:05Z</time>
      </trkpt>
      <trkpt lat="42.9352490" lon="0.9448320">
        <ele>631.4</ele>
        <time>2020-07-24T07:58:09Z</time>
      </trkpt>
      <trkpt lat="42.9352210" lon="0.9446190">
        <ele>632.0</ele>
        <time>2020-07-24T07:58:13Z</time>
      </trkpt>
      <trkpt lat="42.9352160" lon="0.9445680">
        <ele>632.0</ele>
        <time>2020-07-24T07:58:14Z</time>
      </trkpt>
      <trkpt lat="42.9351950" lon="0.9444080">
        <ele>632.6</ele>
        <time>2020-07-24T07:58:17Z</time>
      </trkpt>
      <trkpt lat="42.9351750" lon="0.9441910">
        <ele>633.2</ele>
        <time>2020-07-24T07:58:21Z</time>
      </trkpt>
      <trkpt lat="42.9351850" lon="0.9440800">
        <ele>633.6</ele>
        <time>2020-07-24T07:58:23Z</time>
      </trkpt>
      <trkpt lat="42.9351950" lon="0.9440250">
        <ele>633.6</ele>
        <time>2020-07-24T07:58:24Z</time>
      </trkpt>
      <trkpt lat="42.9352200" lon="0.9438590">
        <ele>634.2</ele>
        <time>2020-07-24T07:58:27Z</time>
      </trkpt>
      <trkpt lat="42.9352360" lon="0.9438040">
        <ele>634.2</ele>
        <time>2020-07-24T07:58:28Z</time>
      </trkpt>
      <trkpt lat="42.9352650" lon="0.9437020">
        <ele>634.6</ele>
        <time>2020-07-24T07:58:30Z</time>
      </trkpt>
      <trkpt lat="42.9352780" lon="0.9436550">
        <ele>634.8</ele>
        <time>2020-07-24T07:58:31Z</time>
      </trkpt>
      <trkpt lat="42.9353420" lon="0.9435070">
        <ele>635.4</ele>
        <time>2020-07-24T07:58:35Z</time>
      </trkpt>
      <trkpt lat="42.9353850" lon="0.9434200">
        <ele>635.8</ele>
        <time>2020-07-24T07:58:37Z</time>
      </trkpt>
      <trkpt lat="42.9354630" lon="0.9432790">
        <ele>636.0</ele>
        <time>2020-07-24T07:58:40Z</time>
      </trkpt>
      <trkpt lat="42.9356230" lon="0.9429980">
        <ele>636.6</ele>
        <time>2020-07-24T07:58:46Z</time>
      </trkpt>
      <trkpt lat="42.9356720" lon="0.9429040">
        <ele>637.0</ele>
        <time>2020-07-24T07:58:48Z</time>
      </trkpt>
      <trkpt lat="42.9356930" lon="0.9428570">
        <ele>637.2</ele>
        <time>2020-07-24T07:58:49Z</time>
      </trkpt>
      <trkpt lat="42.9358410" lon="0.9425060">
        <ele>637.8</ele>
        <time>2020-07-24T07:58:55Z</time>
      </trkpt>
      <trkpt lat="42.9359220" lon="0.9423260">
        <ele>638.0</ele>
        <time>2020-07-24T07:58:58Z</time>
      </trkpt>
      <trkpt lat="42.9359500" lon="0.9422650">
        <ele>638.2</ele>
        <time>2020-07-24T07:58:59Z</time>
      </trkpt>
      <trkpt lat="42.9360520" lon="0.9420170">
        <ele>639.2</ele>
        <time>2020-07-24T07:59:03Z</time>
      </trkpt>
      <trkpt lat="42.9360760" lon="0.9419550">
        <ele>639.2</ele>
        <time>2020-07-24T07:59:04Z</time>
      </trkpt>
      <trkpt lat="42.9361370" lon="0.9417650">
        <ele>639.8</ele>
        <time>2020-07-24T07:59:07Z</time>
      </trkpt>
      <trkpt lat="42.9361560" lon="0.9416310">
        <ele>640.2</ele>
        <time>2020-07-24T07:59:09Z</time>
      </trkpt>
      <trkpt lat="42.9361560" lon="0.9415630">
        <ele>640.2</ele>
        <time>2020-07-24T07:59:10Z</time>
      </trkpt>
      <trkpt lat="42.9361450" lon="0.9414940">
        <ele>640.4</ele>
        <time>2020-07-24T07:59:11Z</time>
      </trkpt>
      <trkpt lat="42.9360980" lon="0.9413710">
        <ele>640.6</ele>
        <time>2020-07-24T07:59:13Z</time>
      </trkpt>
      <trkpt lat="42.9360620" lon="0.9413240">
        <ele>640.6</ele>
        <time>2020-07-24T07:59:14Z</time>
      </trkpt>
      <trkpt lat="42.9360130" lon="0.9412980">
        <ele>640.6</ele>
        <time>2020-07-24T07:59:15Z</time>
      </trkpt>
      <trkpt lat="42.9359110" lon="0.9412700">
        <ele>641.2</ele>
        <time>2020-07-24T07:59:17Z</time>
      </trkpt>
      <trkpt lat="42.9358080" lon="0.9412680">
        <ele>641.8</ele>
        <time>2020-07-24T07:59:19Z</time>
      </trkpt>
      <trkpt lat="42.9357090" lon="0.9412760">
        <ele>642.4</ele>
        <time>2020-07-24T07:59:21Z</time>
      </trkpt>
      <trkpt lat="42.9356150" lon="0.9412860">
        <ele>642.6</ele>
        <time>2020-07-24T07:59:23Z</time>
      </trkpt>
      <trkpt lat="42.9354750" lon="0.9412960">
        <ele>643.4</ele>
        <time>2020-07-24T07:59:26Z</time>
      </trkpt>
      <trkpt lat="42.9353450" lon="0.9412770">
        <ele>644.4</ele>
        <time>2020-07-24T07:59:29Z</time>
      </trkpt>
      <trkpt lat="42.9353020" lon="0.9412740">
        <ele>644.6</ele>
        <time>2020-07-24T07:59:30Z</time>
      </trkpt>
      <trkpt lat="42.9352140" lon="0.9412790">
        <ele>644.8</ele>
        <time>2020-07-24T07:59:32Z</time>
      </trkpt>
      <trkpt lat="42.9350530" lon="0.9412800">
        <ele>645.6</ele>
        <time>2020-07-24T07:59:36Z</time>
      </trkpt>
      <trkpt lat="42.9349520" lon="0.9412530">
        <ele>646.6</ele>
        <time>2020-07-24T07:59:39Z</time>
      </trkpt>
      <trkpt lat="42.9348540" lon="0.9411800">
        <ele>647.4</ele>
        <time>2020-07-24T07:59:42Z</time>
      </trkpt>
      <trkpt lat="42.9348220" lon="0.9411500">
        <ele>647.8</ele>
        <time>2020-07-24T07:59:43Z</time>
      </trkpt>
      <trkpt lat="42.9347650" lon="0.9410850">
        <ele>648.2</ele>
        <time>2020-07-24T07:59:45Z</time>
      </trkpt>
      <trkpt lat="42.9346940" lon="0.9409700">
        <ele>648.8</ele>
        <time>2020-07-24T07:59:48Z</time>
      </trkpt>
      <trkpt lat="42.9346740" lon="0.9409320">
        <ele>649.0</ele>
        <time>2020-07-24T07:59:49Z</time>
      </trkpt>
      <trkpt lat="42.9345970" lon="0.9407890">
        <ele>649.4</ele>
        <time>2020-07-24T07:59:53Z</time>
      </trkpt>
      <trkpt lat="42.9345610" lon="0.9406970">
        <ele>650.0</ele>
        <time>2020-07-24T07:59:55Z</time>
      </trkpt>
      <trkpt lat="42.9344960" lon="0.9405240">
        <ele>651.0</ele>
        <time>2020-07-24T07:59:59Z</time>
      </trkpt>
      <trkpt lat="42.9344420" lon="0.9403500">
        <ele>652.0</ele>
        <time>2020-07-24T08:00:03Z</time>
      </trkpt>
      <trkpt lat="42.9344280" lon="0.9403030">
        <ele>652.2</ele>
        <time>2020-07-24T08:00:04Z</time>
      </trkpt>
      <trkpt lat="42.9343590" lon="0.9400760">
        <ele>653.2</ele>
        <time>2020-07-24T08:00:09Z</time>
      </trkpt>
      <trkpt lat="42.9343120" lon="0.9399010">
        <ele>654.2</ele>
        <time>2020-07-24T08:00:13Z</time>
      </trkpt>
      <trkpt lat="42.9343020" lon="0.9398550">
        <ele>654.6</ele>
        <time>2020-07-24T08:00:14Z</time>
      </trkpt>
      <trkpt lat="42.9342940" lon="0.9398070">
        <ele>654.8</ele>
        <time>2020-07-24T08:00:15Z</time>
      </trkpt>
      <trkpt lat="42.9342770" lon="0.9396610">
        <ele>655.4</ele>
        <time>2020-07-24T08:00:18Z</time>
      </trkpt>
      <trkpt lat="42.9342610" lon="0.9395120">
        <ele>656.0</ele>
        <time>2020-07-24T08:00:21Z</time>
      </trkpt>
      <trkpt lat="42.9342570" lon="0.9394610">
        <ele>656.2</ele>
        <time>2020-07-24T08:00:22Z</time>
      </trkpt>
      <trkpt lat="42.9342500" lon="0.9393620">
        <ele>656.6</ele>
        <time>2020-07-24T08:00:24Z</time>
      </trkpt>
      <trkpt lat="42.9342410" lon="0.9392660">
        <ele>657.0</ele>
        <time>2020-07-24T08:00:26Z</time>
      </trkpt>
      <trkpt lat="42.9342240" lon="0.9390710">
        <ele>657.6</ele>
        <time>2020-07-24T08:00:30Z</time>
      </trkpt>
      <trkpt lat="42.9342220" lon="0.9389730">
        <ele>658.0</ele>
        <time>2020-07-24T08:00:32Z</time>
      </trkpt>
      <trkpt lat="42.9342130" lon="0.9387870">
        <ele>658.8</ele>
        <time>2020-07-24T08:00:36Z</time>
      </trkpt>
      <trkpt lat="42.9342000" lon="0.9385910">
        <ele>659.2</ele>
        <time>2020-07-24T08:00:40Z</time>
      </trkpt>
      <trkpt lat="42.9341940" lon="0.9384500">
        <ele>659.6</ele>
        <time>2020-07-24T08:00:43Z</time>
      </trkpt>
      <trkpt lat="42.9341920" lon="0.9384030">
        <ele>659.8</ele>
        <time>2020-07-24T08:00:44Z</time>
      </trkpt>
      <trkpt lat="42.9341760" lon="0.9381970">
        <ele>660.6</ele>
        <time>2020-07-24T08:00:48Z</time>
      </trkpt>
      <trkpt lat="42.9341630" lon="0.9380960">
        <ele>661.0</ele>
        <time>2020-07-24T08:00:50Z</time>
      </trkpt>
      <trkpt lat="42.9341410" lon="0.9377910">
        <ele>662.0</ele>
        <time>2020-07-24T08:00:56Z</time>
      </trkpt>
      <trkpt lat="42.9341370" lon="0.9377430">
        <ele>662.2</ele>
        <time>2020-07-24T08:00:57Z</time>
      </trkpt>
      <trkpt lat="42.9341240" lon="0.9375080">
        <ele>663.4</ele>
        <time>2020-07-24T08:01:02Z</time>
      </trkpt>
      <trkpt lat="42.9341180" lon="0.9374570">
        <ele>663.6</ele>
        <time>2020-07-24T08:01:03Z</time>
      </trkpt>
      <trkpt lat="42.9340950" lon="0.9373030">
        <ele>664.0</ele>
        <time>2020-07-24T08:01:06Z</time>
      </trkpt>
      <trkpt lat="42.9340870" lon="0.9372530">
        <ele>664.2</ele>
        <time>2020-07-24T08:01:07Z</time>
      </trkpt>
      <trkpt lat="42.9340660" lon="0.9371060">
        <ele>664.6</ele>
        <time>2020-07-24T08:01:10Z</time>
      </trkpt>
      <trkpt lat="42.9340480" lon="0.9370100">
        <ele>664.8</ele>
        <time>2020-07-24T08:01:12Z</time>
      </trkpt>
      <trkpt lat="42.9339610" lon="0.9367840">
        <ele>665.0</ele>
        <time>2020-07-24T08:01:17Z</time>
      </trkpt>
      <trkpt lat="42.9337840" lon="0.9364260">
        <ele>664.6</ele>
        <time>2020-07-24T08:01:23Z</time>
      </trkpt>
      <trkpt lat="42.9336270" lon="0.9360940">
        <ele>664.0</ele>
        <time>2020-07-24T08:01:28Z</time>
      </trkpt>
      <trkpt lat="42.9335220" lon="0.9358930">
        <ele>663.4</ele>
        <time>2020-07-24T08:01:31Z</time>
      </trkpt>
      <trkpt lat="42.9333020" lon="0.9354770">
        <ele>662.6</ele>
        <time>2020-07-24T08:01:37Z</time>
      </trkpt>
      <trkpt lat="42.9332250" lon="0.9353360">
        <ele>662.4</ele>
        <time>2020-07-24T08:01:39Z</time>
      </trkpt>
      <trkpt lat="42.9330070" lon="0.9349490">
        <ele>662.0</ele>
        <time>2020-07-24T08:01:45Z</time>
      </trkpt>
      <trkpt lat="42.9329090" lon="0.9347630">
        <ele>661.8</ele>
        <time>2020-07-24T08:01:48Z</time>
      </trkpt>
      <trkpt lat="42.9328040" lon="0.9345730">
        <ele>661.4</ele>
        <time>2020-07-24T08:01:51Z</time>
      </trkpt>
      <trkpt lat="42.9327020" lon="0.9343880">
        <ele>661.0</ele>
        <time>2020-07-24T08:01:54Z</time>
      </trkpt>
      <trkpt lat="42.9324730" lon="0.9339680">
        <ele>661.2</ele>
        <time>2020-07-24T08:02:00Z</time>
      </trkpt>
      <trkpt lat="42.9322320" lon="0.9334810">
        <ele>660.8</ele>
        <time>2020-07-24T08:02:06Z</time>
      </trkpt>
      <trkpt lat="42.9321890" lon="0.9334050">
        <ele>660.6</ele>
        <time>2020-07-24T08:02:07Z</time>
      </trkpt>
      <trkpt lat="42.9319360" lon="0.9330870">
        <ele>660.6</ele>
        <time>2020-07-24T08:02:12Z</time>
      </trkpt>
      <trkpt lat="42.9316260" lon="0.9327640">
        <ele>660.8</ele>
        <time>2020-07-24T08:02:18Z</time>
      </trkpt>
      <trkpt lat="42.9314280" lon="0.9325580">
        <ele>661.0</ele>
        <time>2020-07-24T08:02:22Z</time>
      </trkpt>
      <trkpt lat="42.9311460" lon="0.9322470">
        <ele>662.2</ele>
        <time>2020-07-24T08:02:28Z</time>
      </trkpt>
      <trkpt lat="42.9310540" lon="0.9321360">
        <ele>662.4</ele>
        <time>2020-07-24T08:02:30Z</time>
      </trkpt>
      <trkpt lat="42.9309680" lon="0.9320160">
        <ele>662.4</ele>
        <time>2020-07-24T08:02:32Z</time>
      </trkpt>
      <trkpt lat="42.9307170" lon="0.9316160">
        <ele>662.8</ele>
        <time>2020-07-24T08:02:38Z</time>
      </trkpt>
      <trkpt lat="42.9306760" lon="0.9315430">
        <ele>662.8</ele>
        <time>2020-07-24T08:02:39Z</time>
      </trkpt>
      <trkpt lat="42.9304160" lon="0.9311070">
        <ele>662.6</ele>
        <time>2020-07-24T08:02:45Z</time>
      </trkpt>
      <trkpt lat="42.9303250" lon="0.9309630">
        <ele>662.4</ele>
        <time>2020-07-24T08:02:47Z</time>
      </trkpt>
      <trkpt lat="42.9300650" lon="0.9305170">
        <ele>661.4</ele>
        <time>2020-07-24T08:02:53Z</time>
      </trkpt>
      <trkpt lat="42.9300160" lon="0.9304430">
        <ele>661.4</ele>
        <time>2020-07-24T08:02:54Z</time>
      </trkpt>
      <trkpt lat="42.9298360" lon="0.9301230">
        <ele>660.2</ele>
        <time>2020-07-24T08:02:58Z</time>
      </trkpt>
      <trkpt lat="42.9298030" lon="0.9300240">
        <ele>659.8</ele>
        <time>2020-07-24T08:02:59Z</time>
      </trkpt>
      <trkpt lat="42.9297770" lon="0.9299200">
        <ele>659.4</ele>
        <time>2020-07-24T08:03:00Z</time>
      </trkpt>
      <trkpt lat="42.9297610" lon="0.9298090">
        <ele>659.2</ele>
        <time>2020-07-24T08:03:01Z</time>
      </trkpt>
      <trkpt lat="42.9297490" lon="0.9296960">
        <ele>658.8</ele>
        <time>2020-07-24T08:03:02Z</time>
      </trkpt>
      <trkpt lat="42.9297440" lon="0.9294640">
        <ele>657.8</ele>
        <time>2020-07-24T08:03:04Z</time>
      </trkpt>
      <trkpt lat="42.9297890" lon="0.9292330">
        <ele>656.6</ele>
        <time>2020-07-24T08:03:06Z</time>
      </trkpt>
      <trkpt lat="42.9298320" lon="0.9291310">
        <ele>656.4</ele>
        <time>2020-07-24T08:03:07Z</time>
      </trkpt>
      <trkpt lat="42.9298860" lon="0.9290400">
        <ele>656.2</ele>
        <time>2020-07-24T08:03:08Z</time>
      </trkpt>
      <trkpt lat="42.9300270" lon="0.9288900">
        <ele>655.8</ele>
        <time>2020-07-24T08:03:10Z</time>
      </trkpt>
      <trkpt lat="42.9301950" lon="0.9287830">
        <ele>655.4</ele>
        <time>2020-07-24T08:03:12Z</time>
      </trkpt>
      <trkpt lat="42.9303710" lon="0.9286900">
        <ele>654.6</ele>
        <time>2020-07-24T08:03:14Z</time>
      </trkpt>
      <trkpt lat="42.9304600" lon="0.9286500">
        <ele>654.4</ele>
        <time>2020-07-24T08:03:15Z</time>
      </trkpt>
      <trkpt lat="42.9305530" lon="0.9286170">
        <ele>654.0</ele>
        <time>2020-07-24T08:03:16Z</time>
      </trkpt>
      <trkpt lat="42.9307450" lon="0.9285800">
        <ele>653.6</ele>
        <time>2020-07-24T08:03:18Z</time>
      </trkpt>
      <trkpt lat="42.9308410" lon="0.9285680">
        <ele>653.2</ele>
        <time>2020-07-24T08:03:19Z</time>
      </trkpt>
      <trkpt lat="42.9310410" lon="0.9285400">
        <ele>652.2</ele>
        <time>2020-07-24T08:03:21Z</time>
      </trkpt>
      <trkpt lat="42.9311350" lon="0.9285030">
        <ele>651.8</ele>
        <time>2020-07-24T08:03:22Z</time>
      </trkpt>
      <trkpt lat="42.9312240" lon="0.9284510">
        <ele>651.4</ele>
        <time>2020-07-24T08:03:23Z</time>
      </trkpt>
      <trkpt lat="42.9313920" lon="0.9283110">
        <ele>650.4</ele>
        <time>2020-07-24T08:03:25Z</time>
      </trkpt>
      <trkpt lat="42.9315580" lon="0.9281620">
        <ele>649.2</ele>
        <time>2020-07-24T08:03:27Z</time>
      </trkpt>
      <trkpt lat="42.9318070" lon="0.9279280">
        <ele>647.8</ele>
        <time>2020-07-24T08:03:30Z</time>
      </trkpt>
      <trkpt lat="42.9320230" lon="0.9276820">
        <ele>646.4</ele>
        <time>2020-07-24T08:03:33Z</time>
      </trkpt>
      <trkpt lat="42.9320750" lon="0.9275880">
        <ele>645.8</ele>
        <time>2020-07-24T08:03:34Z</time>
      </trkpt>
      <trkpt lat="42.9320880" lon="0.9273720">
        <ele>645.4</ele>
        <time>2020-07-24T08:03:36Z</time>
      </trkpt>
      <trkpt lat="42.9320490" lon="0.9272620">
        <ele>645.0</ele>
        <time>2020-07-24T08:03:37Z</time>
      </trkpt>
      <trkpt lat="42.9320060" lon="0.9271610">
        <ele>644.8</ele>
        <time>2020-07-24T08:03:38Z</time>
      </trkpt>
      <trkpt lat="42.9319580" lon="0.9270510">
        <ele>644.6</ele>
        <time>2020-07-24T08:03:39Z</time>
      </trkpt>
      <trkpt lat="42.9319200" lon="0.9269380">
        <ele>644.6</ele>
        <time>2020-07-24T08:03:40Z</time>
      </trkpt>
      <trkpt lat="42.9318750" lon="0.9267010">
        <ele>644.2</ele>
        <time>2020-07-24T08:03:42Z</time>
      </trkpt>
      <trkpt lat="42.9318670" lon="0.9265720">
        <ele>644.0</ele>
        <time>2020-07-24T08:03:43Z</time>
      </trkpt>
      <trkpt lat="42.9318920" lon="0.9262050">
        <ele>643.2</ele>
        <time>2020-07-24T08:03:46Z</time>
      </trkpt>
      <trkpt lat="42.9319070" lon="0.9260840">
        <ele>642.6</ele>
        <time>2020-07-24T08:03:47Z</time>
      </trkpt>
      <trkpt lat="42.9319730" lon="0.9256050">
        <ele>641.6</ele>
        <time>2020-07-24T08:03:51Z</time>
      </trkpt>
      <trkpt lat="42.9319980" lon="0.9253710">
        <ele>641.2</ele>
        <time>2020-07-24T08:03:53Z</time>
      </trkpt>
      <trkpt lat="42.9320140" lon="0.9251480">
        <ele>640.4</ele>
        <time>2020-07-24T08:03:55Z</time>
      </trkpt>
      <trkpt lat="42.9320790" lon="0.9246080">
        <ele>639.6</ele>
        <time>2020-07-24T08:04:00Z</time>
      </trkpt>
      <trkpt lat="42.9321100" lon="0.9243930">
        <ele>639.4</ele>
        <time>2020-07-24T08:04:02Z</time>
      </trkpt>
      <trkpt lat="42.9321570" lon="0.9240760">
        <ele>639.6</ele>
        <time>2020-07-24T08:04:05Z</time>
      </trkpt>
      <trkpt lat="42.9322060" lon="0.9237720">
        <ele>639.8</ele>
        <time>2020-07-24T08:04:08Z</time>
      </trkpt>
      <trkpt lat="42.9322450" lon="0.9235720">
        <ele>639.8</ele>
        <time>2020-07-24T08:04:10Z</time>
      </trkpt>
      <trkpt lat="42.9323490" lon="0.9231810">
        <ele>639.8</ele>
        <time>2020-07-24T08:04:14Z</time>
      </trkpt>
      <trkpt lat="42.9323760" lon="0.9230880">
        <ele>639.8</ele>
        <time>2020-07-24T08:04:15Z</time>
      </trkpt>
      <trkpt lat="42.9324960" lon="0.9225340">
        <ele>640.4</ele>
        <time>2020-07-24T08:04:21Z</time>
      </trkpt>
      <trkpt lat="42.9325110" lon="0.9224440">
        <ele>640.6</ele>
        <time>2020-07-24T08:04:22Z</time>
      </trkpt>
      <trkpt lat="42.9325820" lon="0.9220160">
        <ele>641.4</ele>
        <time>2020-07-24T08:04:27Z</time>
      </trkpt>
      <trkpt lat="42.9325950" lon="0.9219330">
        <ele>641.6</ele>
        <time>2020-07-24T08:04:28Z</time>
      </trkpt>
      <trkpt lat="42.9326380" lon="0.9216060">
        <ele>642.2</ele>
        <time>2020-07-24T08:04:32Z</time>
      </trkpt>
      <trkpt lat="42.9326500" lon="0.9214440">
        <ele>642.6</ele>
        <time>2020-07-24T08:04:34Z</time>
      </trkpt>
      <trkpt lat="42.9326590" lon="0.9212770">
        <ele>642.8</ele>
        <time>2020-07-24T08:04:36Z</time>
      </trkpt>
      <trkpt lat="42.9326660" lon="0.9211080">
        <ele>642.8</ele>
        <time>2020-07-24T08:04:38Z</time>
      </trkpt>
      <trkpt lat="42.9326700" lon="0.9206110">
        <ele>643.4</ele>
        <time>2020-07-24T08:04:44Z</time>
      </trkpt>
      <trkpt lat="42.9326690" lon="0.9205330">
        <ele>643.8</ele>
        <time>2020-07-24T08:04:45Z</time>
      </trkpt>
      <trkpt lat="42.9326410" lon="0.9202340">
        <ele>644.8</ele>
        <time>2020-07-24T08:04:49Z</time>
      </trkpt>
      <trkpt lat="42.9326120" lon="0.9200920">
        <ele>645.2</ele>
        <time>2020-07-24T08:04:51Z</time>
      </trkpt>
      <trkpt lat="42.9325960" lon="0.9200190">
        <ele>645.4</ele>
        <time>2020-07-24T08:04:52Z</time>
      </trkpt>
      <trkpt lat="42.9325740" lon="0.9199440">
        <ele>645.4</ele>
        <time>2020-07-24T08:04:53Z</time>
      </trkpt>
      <trkpt lat="42.9325080" lon="0.9197040">
        <ele>645.2</ele>
        <time>2020-07-24T08:04:56Z</time>
      </trkpt>
      <trkpt lat="42.9324290" lon="0.9194330">
        <ele>644.8</ele>
        <time>2020-07-24T08:04:59Z</time>
      </trkpt>
      <trkpt lat="42.9323530" lon="0.9191520">
        <ele>644.2</ele>
        <time>2020-07-24T08:05:02Z</time>
      </trkpt>
      <trkpt lat="42.9322850" lon="0.9188700">
        <ele>643.8</ele>
        <time>2020-07-24T08:05:05Z</time>
      </trkpt>
      <trkpt lat="42.9321770" lon="0.9183160">
        <ele>643.8</ele>
        <time>2020-07-24T08:05:11Z</time>
      </trkpt>
      <trkpt lat="42.9321260" lon="0.9179560">
        <ele>644.2</ele>
        <time>2020-07-24T08:05:15Z</time>
      </trkpt>
      <trkpt lat="42.9321130" lon="0.9177650">
        <ele>644.2</ele>
        <time>2020-07-24T08:05:17Z</time>
      </trkpt>
      <trkpt lat="42.9321190" lon="0.9174780">
        <ele>644.2</ele>
        <time>2020-07-24T08:05:20Z</time>
      </trkpt>
      <trkpt lat="42.9321370" lon="0.9171960">
        <ele>644.2</ele>
        <time>2020-07-24T08:05:23Z</time>
      </trkpt>
      <trkpt lat="42.9321340" lon="0.9167560">
        <ele>644.4</ele>
        <time>2020-07-24T08:05:28Z</time>
      </trkpt>
      <trkpt lat="42.9321190" lon="0.9166760">
        <ele>644.6</ele>
        <time>2020-07-24T08:05:29Z</time>
      </trkpt>
      <trkpt lat="42.9321000" lon="0.9165980">
        <ele>644.8</ele>
        <time>2020-07-24T08:05:30Z</time>
      </trkpt>
      <trkpt lat="42.9320720" lon="0.9165240">
        <ele>645.0</ele>
        <time>2020-07-24T08:05:31Z</time>
      </trkpt>
      <trkpt lat="42.9320020" lon="0.9163920">
        <ele>645.4</ele>
        <time>2020-07-24T08:05:33Z</time>
      </trkpt>
      <trkpt lat="42.9317860" lon="0.9161320">
        <ele>645.6</ele>
        <time>2020-07-24T08:05:38Z</time>
      </trkpt>
      <trkpt lat="42.9315650" lon="0.9159990">
        <ele>645.8</ele>
        <time>2020-07-24T08:05:42Z</time>
      </trkpt>
      <trkpt lat="42.9314490" lon="0.9159530">
        <ele>646.2</ele>
        <time>2020-07-24T08:05:44Z</time>
      </trkpt>
      <trkpt lat="42.9310980" lon="0.9158270">
        <ele>647.0</ele>
        <time>2020-07-24T08:05:50Z</time>
      </trkpt>
      <trkpt lat="42.9309220" lon="0.9157830">
        <ele>647.6</ele>
        <time>2020-07-24T08:05:53Z</time>
      </trkpt>
      <trkpt lat="42.9308640" lon="0.9157700">
        <ele>647.8</ele>
        <time>2020-07-24T08:05:54Z</time>
      </trkpt>
      <trkpt lat="42.9308060" lon="0.9157580">
        <ele>647.8</ele>
        <time>2020-07-24T08:05:55Z</time>
      </trkpt>
      <trkpt lat="42.9307480" lon="0.9157490">
        <ele>648.0</ele>
        <time>2020-07-24T08:05:56Z</time>
      </trkpt>
      <trkpt lat="42.9304620" lon="0.9157160">
        <ele>648.6</ele>
        <time>2020-07-24T08:06:01Z</time>
      </trkpt>
      <trkpt lat="42.9302420" lon="0.9156700">
        <ele>649.2</ele>
        <time>2020-07-24T08:06:05Z</time>
      </trkpt>
      <trkpt lat="42.9301900" lon="0.9156520">
        <ele>649.4</ele>
        <time>2020-07-24T08:06:06Z</time>
      </trkpt>
      <trkpt lat="42.9300880" lon="0.9156080">
        <ele>649.6</ele>
        <time>2020-07-24T08:06:08Z</time>
      </trkpt>
      <trkpt lat="42.9300380" lon="0.9155810">
        <ele>649.8</ele>
        <time>2020-07-24T08:06:09Z</time>
      </trkpt>
      <trkpt lat="42.9299440" lon="0.9155170">
        <ele>650.0</ele>
        <time>2020-07-24T08:06:11Z</time>
      </trkpt>
      <trkpt lat="42.9298550" lon="0.9154410">
        <ele>650.2</ele>
        <time>2020-07-24T08:06:13Z</time>
      </trkpt>
      <trkpt lat="42.9298140" lon="0.9153970">
        <ele>650.4</ele>
        <time>2020-07-24T08:06:14Z</time>
      </trkpt>
      <trkpt lat="42.9296780" lon="0.9152310">
        <ele>651.6</ele>
        <time>2020-07-24T08:06:18Z</time>
      </trkpt>
      <trkpt lat="42.9296230" lon="0.9151540">
        <ele>651.8</ele>
        <time>2020-07-24T08:06:20Z</time>
      </trkpt>
      <trkpt lat="42.9295540" lon="0.9150570">
        <ele>652.8</ele>
        <time>2020-07-24T08:06:23Z</time>
      </trkpt>
      <trkpt lat="42.9294900" lon="0.9149770">
        <ele>654.0</ele>
        <time>2020-07-24T08:06:26Z</time>
      </trkpt>
      <trkpt lat="42.9294710" lon="0.9149520">
        <ele>654.4</ele>
        <time>2020-07-24T08:06:27Z</time>
      </trkpt>
      <trkpt lat="42.9294140" lon="0.9148830">
        <ele>655.0</ele>
        <time>2020-07-24T08:06:30Z</time>
      </trkpt>
      <trkpt lat="42.9293960" lon="0.9148550">
        <ele>655.2</ele>
        <time>2020-07-24T08:06:31Z</time>
      </trkpt>
      <trkpt lat="42.9293380" lon="0.9147670">
        <ele>656.2</ele>
        <time>2020-07-24T08:06:34Z</time>
      </trkpt>
      <trkpt lat="42.9293190" lon="0.9147370">
        <ele>656.4</ele>
        <time>2020-07-24T08:06:35Z</time>
      </trkpt>
      <trkpt lat="42.9293040" lon="0.9147040">
        <ele>656.6</ele>
        <time>2020-07-24T08:06:36Z</time>
      </trkpt>
      <trkpt lat="42.9292710" lon="0.9145960">
        <ele>657.2</ele>
        <time>2020-07-24T08:06:39Z</time>
      </trkpt>
      <trkpt lat="42.9292550" lon="0.9145290">
        <ele>657.8</ele>
        <time>2020-07-24T08:06:41Z</time>
      </trkpt>
      <trkpt lat="42.9292490" lon="0.9144940">
        <ele>658.4</ele>
        <time>2020-07-24T08:06:42Z</time>
      </trkpt>
      <trkpt lat="42.9292370" lon="0.9143870">
        <ele>659.6</ele>
        <time>2020-07-24T08:06:45Z</time>
      </trkpt>
      <trkpt lat="42.9292260" lon="0.9142130">
        <ele>660.8</ele>
        <time>2020-07-24T08:06:50Z</time>
      </trkpt>
      <trkpt lat="42.9292280" lon="0.9140500">
        <ele>661.8</ele>
        <time>2020-07-24T08:06:54Z</time>
      </trkpt>
      <trkpt lat="42.9292340" lon="0.9139000">
        <ele>663.4</ele>
        <time>2020-07-24T08:06:58Z</time>
      </trkpt>
      <trkpt lat="42.9292370" lon="0.9136840">
        <ele>664.4</ele>
        <time>2020-07-24T08:07:03Z</time>
      </trkpt>
      <trkpt lat="42.9292370" lon="0.9135120">
        <ele>664.8</ele>
        <time>2020-07-24T08:07:07Z</time>
      </trkpt>
      <trkpt lat="42.9292370" lon="0.9133850">
        <ele>665.6</ele>
        <time>2020-07-24T08:07:10Z</time>
      </trkpt>
      <trkpt lat="42.9292330" lon="0.9132600">
        <ele>666.2</ele>
        <time>2020-07-24T08:07:13Z</time>
      </trkpt>
      <trkpt lat="42.9292260" lon="0.9131790">
        <ele>666.6</ele>
        <time>2020-07-24T08:07:15Z</time>
      </trkpt>
      <trkpt lat="42.9292100" lon="0.9130640">
        <ele>667.6</ele>
        <time>2020-07-24T08:07:18Z</time>
      </trkpt>
      <trkpt lat="42.9292010" lon="0.9130250">
        <ele>667.8</ele>
        <time>2020-07-24T08:07:19Z</time>
      </trkpt>
      <trkpt lat="42.9291470" lon="0.9128450">
        <ele>668.8</ele>
        <time>2020-07-24T08:07:24Z</time>
      </trkpt>
      <trkpt lat="42.9291360" lon="0.9128110">
        <ele>669.0</ele>
        <time>2020-07-24T08:07:25Z</time>
      </trkpt>
      <trkpt lat="42.9291280" lon="0.9127810">
        <ele>669.4</ele>
        <time>2020-07-24T08:07:26Z</time>
      </trkpt>
      <trkpt lat="42.9290880" lon="0.9126920">
        <ele>670.2</ele>
        <time>2020-07-24T08:07:29Z</time>
      </trkpt>
      <trkpt lat="42.9290410" lon="0.9125720">
        <ele>671.0</ele>
        <time>2020-07-24T08:07:33Z</time>
      </trkpt>
      <trkpt lat="42.9290280" lon="0.9125360">
        <ele>671.2</ele>
        <time>2020-07-24T08:07:34Z</time>
      </trkpt>
      <trkpt lat="42.9290000" lon="0.9124030">
        <ele>671.8</ele>
        <time>2020-07-24T08:07:37Z</time>
      </trkpt>
      <trkpt lat="42.9289800" lon="0.9122670">
        <ele>672.2</ele>
        <time>2020-07-24T08:07:40Z</time>
      </trkpt>
      <trkpt lat="42.9289760" lon="0.9122250">
        <ele>672.4</ele>
        <time>2020-07-24T08:07:41Z</time>
      </trkpt>
      <trkpt lat="42.9289610" lon="0.9120070">
        <ele>673.4</ele>
        <time>2020-07-24T08:07:46Z</time>
      </trkpt>
      <trkpt lat="42.9289530" lon="0.9118650">
        <ele>674.0</ele>
        <time>2020-07-24T08:07:49Z</time>
      </trkpt>
      <trkpt lat="42.9289340" lon="0.9116110">
        <ele>674.6</ele>
        <time>2020-07-24T08:07:54Z</time>
      </trkpt>
      <trkpt lat="42.9289270" lon="0.9115130">
        <ele>675.0</ele>
        <time>2020-07-24T08:07:56Z</time>
      </trkpt>
      <trkpt lat="42.9289080" lon="0.9113700">
        <ele>675.4</ele>
        <time>2020-07-24T08:07:59Z</time>
      </trkpt>
      <trkpt lat="42.9288950" lon="0.9112790">
        <ele>675.8</ele>
        <time>2020-07-24T08:08:01Z</time>
      </trkpt>
      <trkpt lat="42.9288450" lon="0.9110050">
        <ele>676.8</ele>
        <time>2020-07-24T08:08:07Z</time>
      </trkpt>
      <trkpt lat="42.9288320" lon="0.9109050">
        <ele>677.4</ele>
        <time>2020-07-24T08:08:09Z</time>
      </trkpt>
      <trkpt lat="42.9288190" lon="0.9108100">
        <ele>677.8</ele>
        <time>2020-07-24T08:08:11Z</time>
      </trkpt>
      <trkpt lat="42.9288130" lon="0.9107620">
        <ele>678.2</ele>
        <time>2020-07-24T08:08:12Z</time>
      </trkpt>
      <trkpt lat="42.9288030" lon="0.9106070">
        <ele>679.0</ele>
        <time>2020-07-24T08:08:15Z</time>
      </trkpt>
      <trkpt lat="42.9288150" lon="0.9104090">
        <ele>679.8</ele>
        <time>2020-07-24T08:08:19Z</time>
      </trkpt>
      <trkpt lat="42.9288280" lon="0.9103580">
        <ele>680.0</ele>
        <time>2020-07-24T08:08:20Z</time>
      </trkpt>
      <trkpt lat="42.9289260" lon="0.9100920">
        <ele>680.6</ele>
        <time>2020-07-24T08:08:25Z</time>
      </trkpt>
      <trkpt lat="42.9289570" lon="0.9100350">
        <ele>680.6</ele>
        <time>2020-07-24T08:08:26Z</time>
      </trkpt>
      <trkpt lat="42.9291390" lon="0.9097360">
        <ele>680.0</ele>
        <time>2020-07-24T08:08:31Z</time>
      </trkpt>
      <trkpt lat="42.9292870" lon="0.9094670">
        <ele>679.8</ele>
        <time>2020-07-24T08:08:35Z</time>
      </trkpt>
      <trkpt lat="42.9293850" lon="0.9092310">
        <ele>679.6</ele>
        <time>2020-07-24T08:08:38Z</time>
      </trkpt>
      <trkpt lat="42.9295040" lon="0.9089030">
        <ele>679.2</ele>
        <time>2020-07-24T08:08:42Z</time>
      </trkpt>
      <trkpt lat="42.9295370" lon="0.9088250">
        <ele>679.0</ele>
        <time>2020-07-24T08:08:43Z</time>
      </trkpt>
      <trkpt lat="42.9295700" lon="0.9087450">
        <ele>679.0</ele>
        <time>2020-07-24T08:08:44Z</time>
      </trkpt>
      <trkpt lat="42.9297080" lon="0.9082470">
        <ele>679.6</ele>
        <time>2020-07-24T08:08:50Z</time>
      </trkpt>
      <trkpt lat="42.9297320" lon="0.9080740">
        <ele>679.6</ele>
        <time>2020-07-24T08:08:52Z</time>
      </trkpt>
      <trkpt lat="42.9297190" lon="0.9079030">
        <ele>679.6</ele>
        <time>2020-07-24T08:08:54Z</time>
      </trkpt>
      <trkpt lat="42.9296630" lon="0.9077490">
        <ele>679.6</ele>
        <time>2020-07-24T08:08:56Z</time>
      </trkpt>
      <trkpt lat="42.9296230" lon="0.9076770">
        <ele>679.6</ele>
        <time>2020-07-24T08:08:57Z</time>
      </trkpt>
      <trkpt lat="42.9295770" lon="0.9076120">
        <ele>679.8</ele>
        <time>2020-07-24T08:08:58Z</time>
      </trkpt>
      <trkpt lat="42.9295330" lon="0.9075510">
        <ele>680.0</ele>
        <time>2020-07-24T08:08:59Z</time>
      </trkpt>
      <trkpt lat="42.9293880" lon="0.9072930">
        <ele>680.8</ele>
        <time>2020-07-24T08:09:03Z</time>
      </trkpt>
      <trkpt lat="42.9293500" lon="0.9071320">
        <ele>680.6</ele>
        <time>2020-07-24T08:09:05Z</time>
      </trkpt>
      <trkpt lat="42.9293440" lon="0.9070370">
        <ele>680.4</ele>
        <time>2020-07-24T08:09:06Z</time>
      </trkpt>
      <trkpt lat="42.9293350" lon="0.9069390">
        <ele>680.2</ele>
        <time>2020-07-24T08:09:07Z</time>
      </trkpt>
      <trkpt lat="42.9293310" lon="0.9068420">
        <ele>680.0</ele>
        <time>2020-07-24T08:09:08Z</time>
      </trkpt>
      <trkpt lat="42.9293610" lon="0.9066320">
        <ele>679.4</ele>
        <time>2020-07-24T08:09:10Z</time>
      </trkpt>
      <trkpt lat="42.9293940" lon="0.9065270">
        <ele>678.6</ele>
        <time>2020-07-24T08:09:11Z</time>
      </trkpt>
      <trkpt lat="42.9294440" lon="0.9064220">
        <ele>678.0</ele>
        <time>2020-07-24T08:09:12Z</time>
      </trkpt>
      <trkpt lat="42.9294980" lon="0.9063180">
        <ele>677.4</ele>
        <time>2020-07-24T08:09:13Z</time>
      </trkpt>
      <trkpt lat="42.9296130" lon="0.9061230">
        <ele>676.2</ele>
        <time>2020-07-24T08:09:15Z</time>
      </trkpt>
      <trkpt lat="42.9298010" lon="0.9058680">
        <ele>674.8</ele>
        <time>2020-07-24T08:09:18Z</time>
      </trkpt>
      <trkpt lat="42.9299660" lon="0.9056040">
        <ele>674.4</ele>
        <time>2020-07-24T08:09:21Z</time>
      </trkpt>
      <trkpt lat="42.9301090" lon="0.9053430">
        <ele>674.2</ele>
        <time>2020-07-24T08:09:24Z</time>
      </trkpt>
      <trkpt lat="42.9301370" lon="0.9051500">
        <ele>674.6</ele>
        <time>2020-07-24T08:09:26Z</time>
      </trkpt>
      <trkpt lat="42.9300900" lon="0.9049640">
        <ele>674.6</ele>
        <time>2020-07-24T08:09:28Z</time>
      </trkpt>
      <trkpt lat="42.9300460" lon="0.9048780">
        <ele>674.8</ele>
        <time>2020-07-24T08:09:29Z</time>
      </trkpt>
      <trkpt lat="42.9299450" lon="0.9047330">
        <ele>674.6</ele>
        <time>2020-07-24T08:09:31Z</time>
      </trkpt>
      <trkpt lat="42.9298880" lon="0.9046630">
        <ele>674.6</ele>
        <time>2020-07-24T08:09:32Z</time>
      </trkpt>
      <trkpt lat="42.9297770" lon="0.9045270">
        <ele>674.6</ele>
        <time>2020-07-24T08:09:34Z</time>
      </trkpt>
      <trkpt lat="42.9296600" lon="0.9044190">
        <ele>675.0</ele>
        <time>2020-07-24T08:09:36Z</time>
      </trkpt>
      <trkpt lat="42.9294790" lon="0.9042940">
        <ele>675.8</ele>
        <time>2020-07-24T08:09:39Z</time>
      </trkpt>
      <trkpt lat="42.9294250" lon="0.9042480">
        <ele>676.2</ele>
        <time>2020-07-24T08:09:40Z</time>
      </trkpt>
      <trkpt lat="42.9292790" lon="0.9041220">
        <ele>677.0</ele>
        <time>2020-07-24T08:09:43Z</time>
      </trkpt>
      <trkpt lat="42.9291550" lon="0.9039990">
        <ele>677.8</ele>
        <time>2020-07-24T08:09:46Z</time>
      </trkpt>
      <trkpt lat="42.9291160" lon="0.9039590">
        <ele>678.0</ele>
        <time>2020-07-24T08:09:47Z</time>
      </trkpt>
      <trkpt lat="42.9290090" lon="0.9038250">
        <ele>678.8</ele>
        <time>2020-07-24T08:09:50Z</time>
      </trkpt>
      <trkpt lat="42.9289770" lon="0.9037730">
        <ele>679.0</ele>
        <time>2020-07-24T08:09:51Z</time>
      </trkpt>
      <trkpt lat="42.9289200" lon="0.9036640">
        <ele>679.2</ele>
        <time>2020-07-24T08:09:53Z</time>
      </trkpt>
      <trkpt lat="42.9288970" lon="0.9036060">
        <ele>679.4</ele>
        <time>2020-07-24T08:09:54Z</time>
      </trkpt>
      <trkpt lat="42.9288500" lon="0.9034290">
        <ele>680.2</ele>
        <time>2020-07-24T08:09:57Z</time>
      </trkpt>
      <trkpt lat="42.9288410" lon="0.9033680">
        <ele>680.4</ele>
        <time>2020-07-24T08:09:58Z</time>
      </trkpt>
      <trkpt lat="42.9288310" lon="0.9032500">
        <ele>680.6</ele>
        <time>2020-07-24T08:10:00Z</time>
      </trkpt>
      <trkpt lat="42.9288310" lon="0.9030720">
        <ele>681.2</ele>
        <time>2020-07-24T08:10:03Z</time>
      </trkpt>
      <trkpt lat="42.9288350" lon="0.9030110">
        <ele>681.4</ele>
        <time>2020-07-24T08:10:04Z</time>
      </trkpt>
      <trkpt lat="42.9288640" lon="0.9027870">
        <ele>682.4</ele>
        <time>2020-07-24T08:10:08Z</time>
      </trkpt>
      <trkpt lat="42.9289030" lon="0.9026370">
        <ele>683.0</ele>
        <time>2020-07-24T08:10:11Z</time>
      </trkpt>
      <trkpt lat="42.9289350" lon="0.9025440">
        <ele>683.4</ele>
        <time>2020-07-24T08:10:13Z</time>
      </trkpt>
      <trkpt lat="42.9290030" lon="0.9023550">
        <ele>684.6</ele>
        <time>2020-07-24T08:10:17Z</time>
      </trkpt>
      <trkpt lat="42.9290210" lon="0.9023100">
        <ele>685.0</ele>
        <time>2020-07-24T08:10:18Z</time>
      </trkpt>
      <trkpt lat="42.9290750" lon="0.9021820">
        <ele>685.8</ele>
        <time>2020-07-24T08:10:21Z</time>
      </trkpt>
      <trkpt lat="42.9291550" lon="0.9020080">
        <ele>687.0</ele>
        <time>2020-07-24T08:10:25Z</time>
      </trkpt>
      <trkpt lat="42.9292280" lon="0.9018800">
        <ele>687.8</ele>
        <time>2020-07-24T08:10:28Z</time>
      </trkpt>
      <trkpt lat="42.9292500" lon="0.9018360">
        <ele>688.0</ele>
        <time>2020-07-24T08:10:29Z</time>
      </trkpt>
      <trkpt lat="42.9293670" lon="0.9015700">
        <ele>689.2</ele>
        <time>2020-07-24T08:10:35Z</time>
      </trkpt>
      <trkpt lat="42.9293780" lon="0.9015190">
        <ele>689.4</ele>
        <time>2020-07-24T08:10:36Z</time>
      </trkpt>
      <trkpt lat="42.9294040" lon="0.9013710">
        <ele>690.4</ele>
        <time>2020-07-24T08:10:39Z</time>
      </trkpt>
      <trkpt lat="42.9294200" lon="0.9011150">
        <ele>691.4</ele>
        <time>2020-07-24T08:10:44Z</time>
      </trkpt>
      <trkpt lat="42.9294180" lon="0.9009990">
        <ele>691.6</ele>
        <time>2020-07-24T08:10:46Z</time>
      </trkpt>
      <trkpt lat="42.9294070" lon="0.9008010">
        <ele>691.2</ele>
        <time>2020-07-24T08:10:49Z</time>
      </trkpt>
      <trkpt lat="42.9294060" lon="0.9006580">
        <ele>691.0</ele>
        <time>2020-07-24T08:10:51Z</time>
      </trkpt>
      <trkpt lat="42.9294040" lon="0.9004150">
        <ele>690.4</ele>
        <time>2020-07-24T08:10:54Z</time>
      </trkpt>
      <trkpt lat="42.9294110" lon="0.9001450">
        <ele>689.6</ele>
        <time>2020-07-24T08:10:57Z</time>
      </trkpt>
      <trkpt lat="42.9294140" lon="0.9000480">
        <ele>689.2</ele>
        <time>2020-07-24T08:10:58Z</time>
      </trkpt>
      <trkpt lat="42.9294350" lon="0.8997230">
        <ele>687.8</ele>
        <time>2020-07-24T08:11:01Z</time>
      </trkpt>
      <trkpt lat="42.9294420" lon="0.8994950">
        <ele>686.8</ele>
        <time>2020-07-24T08:11:03Z</time>
      </trkpt>
      <trkpt lat="42.9294310" lon="0.8992610">
        <ele>685.6</ele>
        <time>2020-07-24T08:11:05Z</time>
      </trkpt>
      <trkpt lat="42.9294090" lon="0.8990230">
        <ele>684.4</ele>
        <time>2020-07-24T08:11:07Z</time>
      </trkpt>
      <trkpt lat="42.9293950" lon="0.8989060">
        <ele>684.0</ele>
        <time>2020-07-24T08:11:08Z</time>
      </trkpt>
      <trkpt lat="42.9293860" lon="0.8987200">
        <ele>683.2</ele>
        <time>2020-07-24T08:11:10Z</time>
      </trkpt>
      <trkpt lat="42.9293870" lon="0.8986680">
        <ele>683.0</ele>
        <time>2020-07-24T08:11:11Z</time>
      </trkpt>
      <trkpt lat="42.9293870" lon="0.8986210">
        <ele>683.0</ele>
        <time>2020-07-24T08:11:13Z</time>
      </trkpt>
      <trkpt lat="42.9293450" lon="0.8985940">
        <ele>682.6</ele>
        <time>2020-07-24T08:11:58Z</time>
      </trkpt>
      <trkpt lat="42.9293390" lon="0.8985540">
        <ele>682.4</ele>
        <time>2020-07-24T08:11:59Z</time>
      </trkpt>
      <trkpt lat="42.9293150" lon="0.8983800">
        <ele>682.4</ele>
        <time>2020-07-24T08:12:02Z</time>
      </trkpt>
      <trkpt lat="42.9292860" lon="0.8982410">
        <ele>682.2</ele>
        <time>2020-07-24T08:12:04Z</time>
      </trkpt>
      <trkpt lat="42.9292650" lon="0.8981670">
        <ele>682.0</ele>
        <time>2020-07-24T08:12:05Z</time>
      </trkpt>
      <trkpt lat="42.9292150" lon="0.8980150">
        <ele>681.8</ele>
        <time>2020-07-24T08:12:07Z</time>
      </trkpt>
      <trkpt lat="42.9291830" lon="0.8979430">
        <ele>681.8</ele>
        <time>2020-07-24T08:12:08Z</time>
      </trkpt>
      <trkpt lat="42.9291000" lon="0.8978070">
        <ele>681.8</ele>
        <time>2020-07-24T08:12:10Z</time>
      </trkpt>
      <trkpt lat="42.9290570" lon="0.8977400">
        <ele>681.6</ele>
        <time>2020-07-24T08:12:11Z</time>
      </trkpt>
      <trkpt lat="42.9288820" lon="0.8974700">
        <ele>681.6</ele>
        <time>2020-07-24T08:12:15Z</time>
      </trkpt>
      <trkpt lat="42.9288100" lon="0.8973280">
        <ele>681.6</ele>
        <time>2020-07-24T08:12:17Z</time>
      </trkpt>
      <trkpt lat="42.9287790" lon="0.8972560">
        <ele>681.6</ele>
        <time>2020-07-24T08:12:18Z</time>
      </trkpt>
      <trkpt lat="42.9287510" lon="0.8971840">
        <ele>681.6</ele>
        <time>2020-07-24T08:12:19Z</time>
      </trkpt>
      <trkpt lat="42.9287260" lon="0.8971110">
        <ele>681.6</ele>
        <time>2020-07-24T08:12:20Z</time>
      </trkpt>
      <trkpt lat="42.9286540" lon="0.8968930">
        <ele>682.2</ele>
        <time>2020-07-24T08:12:23Z</time>
      </trkpt>
      <trkpt lat="42.9285630" lon="0.8965160">
        <ele>683.0</ele>
        <time>2020-07-24T08:12:28Z</time>
      </trkpt>
      <trkpt lat="42.9285610" lon="0.8964380">
        <ele>683.2</ele>
        <time>2020-07-24T08:12:29Z</time>
      </trkpt>
      <trkpt lat="42.9285700" lon="0.8963610">
        <ele>683.4</ele>
        <time>2020-07-24T08:12:30Z</time>
      </trkpt>
      <trkpt lat="42.9286160" lon="0.8961440">
        <ele>684.2</ele>
        <time>2020-07-24T08:12:33Z</time>
      </trkpt>
      <trkpt lat="42.9286890" lon="0.8959180">
        <ele>685.0</ele>
        <time>2020-07-24T08:12:37Z</time>
      </trkpt>
      <trkpt lat="42.9287040" lon="0.8958690">
        <ele>685.2</ele>
        <time>2020-07-24T08:12:38Z</time>
      </trkpt>
      <trkpt lat="42.9287170" lon="0.8958260">
        <ele>685.2</ele>
        <time>2020-07-24T08:12:39Z</time>
      </trkpt>
      <trkpt lat="42.9287310" lon="0.8957830">
        <ele>685.2</ele>
        <time>2020-07-24T08:12:40Z</time>
      </trkpt>
      <trkpt lat="42.9287820" lon="0.8956240">
        <ele>685.4</ele>
        <time>2020-07-24T08:12:43Z</time>
      </trkpt>
      <trkpt lat="42.9288140" lon="0.8955040">
        <ele>685.6</ele>
        <time>2020-07-24T08:12:45Z</time>
      </trkpt>
      <trkpt lat="42.9289470" lon="0.8951850">
        <ele>686.4</ele>
        <time>2020-07-24T08:12:51Z</time>
      </trkpt>
      <trkpt lat="42.9289730" lon="0.8951470">
        <ele>686.8</ele>
        <time>2020-07-24T08:12:52Z</time>
      </trkpt>
      <trkpt lat="42.9290480" lon="0.8950410">
        <ele>687.4</ele>
        <time>2020-07-24T08:12:55Z</time>
      </trkpt>
      <trkpt lat="42.9291410" lon="0.8948730">
        <ele>688.4</ele>
        <time>2020-07-24T08:12:59Z</time>
      </trkpt>
      <trkpt lat="42.9291700" lon="0.8948290">
        <ele>688.4</ele>
        <time>2020-07-24T08:13:00Z</time>
      </trkpt>
      <trkpt lat="42.9292060" lon="0.8947930">
        <ele>688.6</ele>
        <time>2020-07-24T08:13:01Z</time>
      </trkpt>
      <trkpt lat="42.9292480" lon="0.8947700">
        <ele>688.6</ele>
        <time>2020-07-24T08:13:02Z</time>
      </trkpt>
      <trkpt lat="42.9292930" lon="0.8947460">
        <ele>688.6</ele>
        <time>2020-07-24T08:13:03Z</time>
      </trkpt>
      <trkpt lat="42.9295630" lon="0.8946540">
        <ele>689.6</ele>
        <time>2020-07-24T08:13:09Z</time>
      </trkpt>
      <trkpt lat="42.9296040" lon="0.8946340">
        <ele>689.8</ele>
        <time>2020-07-24T08:13:10Z</time>
      </trkpt>
      <trkpt lat="42.9297600" lon="0.8945290">
        <ele>690.6</ele>
        <time>2020-07-24T08:13:14Z</time>
      </trkpt>
      <trkpt lat="42.9298000" lon="0.8945120">
        <ele>690.8</ele>
        <time>2020-07-24T08:13:15Z</time>
      </trkpt>
      <trkpt lat="42.9298750" lon="0.8944660">
        <ele>691.2</ele>
        <time>2020-07-24T08:13:17Z</time>
      </trkpt>
      <trkpt lat="42.9300630" lon="0.8943570">
        <ele>692.0</ele>
        <time>2020-07-24T08:13:22Z</time>
      </trkpt>
      <trkpt lat="42.9300990" lon="0.8943340">
        <ele>692.2</ele>
        <time>2020-07-24T08:13:23Z</time>
      </trkpt>
      <trkpt lat="42.9301650" lon="0.8942810">
        <ele>692.8</ele>
        <time>2020-07-24T08:13:25Z</time>
      </trkpt>
      <trkpt lat="42.9301970" lon="0.8942530">
        <ele>693.0</ele>
        <time>2020-07-24T08:13:26Z</time>
      </trkpt>
      <trkpt lat="42.9303470" lon="0.8940930">
        <ele>694.2</ele>
        <time>2020-07-24T08:13:31Z</time>
      </trkpt>
      <trkpt lat="42.9304290" lon="0.8939670">
        <ele>694.4</ele>
        <time>2020-07-24T08:13:34Z</time>
      </trkpt>
      <trkpt lat="42.9305130" lon="0.8937750">
        <ele>695.2</ele>
        <time>2020-07-24T08:13:38Z</time>
      </trkpt>
      <trkpt lat="42.9305520" lon="0.8936910">
        <ele>695.8</ele>
        <time>2020-07-24T08:13:40Z</time>
      </trkpt>
      <trkpt lat="42.9305710" lon="0.8936530">
        <ele>695.8</ele>
        <time>2020-07-24T08:13:41Z</time>
      </trkpt>
      <trkpt lat="42.9306570" lon="0.8934600">
        <ele>696.2</ele>
        <time>2020-07-24T08:13:46Z</time>
      </trkpt>
      <trkpt lat="42.9307040" lon="0.8933480">
        <ele>696.8</ele>
        <time>2020-07-24T08:13:49Z</time>
      </trkpt>
      <trkpt lat="42.9307390" lon="0.8932840">
        <ele>697.4</ele>
        <time>2020-07-24T08:13:51Z</time>
      </trkpt>
      <trkpt lat="42.9307600" lon="0.8932530">
        <ele>697.8</ele>
        <time>2020-07-24T08:13:52Z</time>
      </trkpt>
      <trkpt lat="42.9308160" lon="0.8931310">
        <ele>698.2</ele>
        <time>2020-07-24T08:13:56Z</time>
      </trkpt>
      <trkpt lat="42.9308460" lon="0.8930720">
        <ele>698.6</ele>
        <time>2020-07-24T08:13:58Z</time>
      </trkpt>
      <trkpt lat="42.9309060" lon="0.8928440">
        <ele>699.4</ele>
        <time>2020-07-24T08:14:04Z</time>
      </trkpt>
      <trkpt lat="42.9309170" lon="0.8928080">
        <ele>699.6</ele>
        <time>2020-07-24T08:14:05Z</time>
      </trkpt>
      <trkpt lat="42.9309250" lon="0.8926970">
        <ele>700.2</ele>
        <time>2020-07-24T08:14:08Z</time>
      </trkpt>
      <trkpt lat="42.9308960" lon="0.8926140">
        <ele>700.6</ele>
        <time>2020-07-24T08:14:10Z</time>
      </trkpt>
      <trkpt lat="42.9308840" lon="0.8925750">
        <ele>700.8</ele>
        <time>2020-07-24T08:14:11Z</time>
      </trkpt>
      <trkpt lat="42.9308530" lon="0.8924600">
        <ele>701.2</ele>
        <time>2020-07-24T08:14:14Z</time>
      </trkpt>
      <trkpt lat="42.9308420" lon="0.8924230">
        <ele>701.4</ele>
        <time>2020-07-24T08:14:15Z</time>
      </trkpt>
      <trkpt lat="42.9308070" lon="0.8922830">
        <ele>701.6</ele>
        <time>2020-07-24T08:14:19Z</time>
      </trkpt>
      <trkpt lat="42.9308070" lon="0.8922450">
        <ele>701.8</ele>
        <time>2020-07-24T08:14:20Z</time>
      </trkpt>
      <trkpt lat="42.9307800" lon="0.8919760">
        <ele>702.8</ele>
        <time>2020-07-24T08:14:26Z</time>
      </trkpt>
      <trkpt lat="42.9307750" lon="0.8919250">
        <ele>702.8</ele>
        <time>2020-07-24T08:14:27Z</time>
      </trkpt>
      <trkpt lat="42.9307720" lon="0.8918400">
        <ele>703.2</ele>
        <time>2020-07-24T08:14:29Z</time>
      </trkpt>
      <trkpt lat="42.9307770" lon="0.8917610">
        <ele>703.4</ele>
        <time>2020-07-24T08:14:31Z</time>
      </trkpt>
      <trkpt lat="42.9307980" lon="0.8916780">
        <ele>703.6</ele>
        <time>2020-07-24T08:14:33Z</time>
      </trkpt>
      <trkpt lat="42.9308290" lon="0.8915970">
        <ele>704.0</ele>
        <time>2020-07-24T08:14:35Z</time>
      </trkpt>
      <trkpt lat="42.9308820" lon="0.8914710">
        <ele>704.6</ele>
        <time>2020-07-24T08:14:38Z</time>
      </trkpt>
      <trkpt lat="42.9309240" lon="0.8913910">
        <ele>705.0</ele>
        <time>2020-07-24T08:14:40Z</time>
      </trkpt>
      <trkpt lat="42.9309480" lon="0.8913540">
        <ele>705.0</ele>
        <time>2020-07-24T08:14:41Z</time>
      </trkpt>
      <trkpt lat="42.9310220" lon="0.8912620">
        <ele>705.2</ele>
        <time>2020-07-24T08:14:44Z</time>
      </trkpt>
      <trkpt lat="42.9310510" lon="0.8911820">
        <ele>705.6</ele>
        <time>2020-07-24T08:14:46Z</time>
      </trkpt>
      <trkpt lat="42.9311340" lon="0.8911060">
        <ele>706.2</ele>
        <time>2020-07-24T08:14:49Z</time>
      </trkpt>
      <trkpt lat="42.9312390" lon="0.8910530">
        <ele>706.8</ele>
        <time>2020-07-24T08:14:52Z</time>
      </trkpt>
      <trkpt lat="42.9312700" lon="0.8910320">
        <ele>707.2</ele>
        <time>2020-07-24T08:14:53Z</time>
      </trkpt>
      <trkpt lat="42.9314240" lon="0.8909260">
        <ele>708.4</ele>
        <time>2020-07-24T08:14:58Z</time>
      </trkpt>
      <trkpt lat="42.9314490" lon="0.8908990">
        <ele>708.6</ele>
        <time>2020-07-24T08:14:59Z</time>
      </trkpt>
      <trkpt lat="42.9315300" lon="0.8908050">
        <ele>709.2</ele>
        <time>2020-07-24T08:15:02Z</time>
      </trkpt>
      <trkpt lat="42.9315550" lon="0.8907730">
        <ele>709.6</ele>
        <time>2020-07-24T08:15:03Z</time>
      </trkpt>
      <trkpt lat="42.9316360" lon="0.8906680">
        <ele>710.0</ele>
        <time>2020-07-24T08:15:06Z</time>
      </trkpt>
      <trkpt lat="42.9317380" lon="0.8905050">
        <ele>710.6</ele>
        <time>2020-07-24T08:15:10Z</time>
      </trkpt>
      <trkpt lat="42.9318220" lon="0.8903880">
        <ele>710.8</ele>
        <time>2020-07-24T08:15:13Z</time>
      </trkpt>
      <trkpt lat="42.9319530" lon="0.8901880">
        <ele>711.8</ele>
        <time>2020-07-24T08:15:18Z</time>
      </trkpt>
      <trkpt lat="42.9319800" lon="0.8901430">
        <ele>711.8</ele>
        <time>2020-07-24T08:15:19Z</time>
      </trkpt>
      <trkpt lat="42.9321270" lon="0.8899380">
        <ele>712.8</ele>
        <time>2020-07-24T08:15:24Z</time>
      </trkpt>
      <trkpt lat="42.9322120" lon="0.8898110">
        <ele>713.4</ele>
        <time>2020-07-24T08:15:27Z</time>
      </trkpt>
      <trkpt lat="42.9322700" lon="0.8897300">
        <ele>713.8</ele>
        <time>2020-07-24T08:15:29Z</time>
      </trkpt>
      <trkpt lat="42.9324060" lon="0.8895130">
        <ele>714.8</ele>
        <time>2020-07-24T08:15:34Z</time>
      </trkpt>
      <trkpt lat="42.9324660" lon="0.8894330">
        <ele>715.4</ele>
        <time>2020-07-24T08:15:36Z</time>
      </trkpt>
      <trkpt lat="42.9325290" lon="0.8893630">
        <ele>715.8</ele>
        <time>2020-07-24T08:15:38Z</time>
      </trkpt>
      <trkpt lat="42.9325640" lon="0.8893310">
        <ele>715.8</ele>
        <time>2020-07-24T08:15:39Z</time>
      </trkpt>
      <trkpt lat="42.9326950" lon="0.8892710">
        <ele>716.0</ele>
        <time>2020-07-24T08:15:42Z</time>
      </trkpt>
      <trkpt lat="42.9329110" lon="0.8892440">
        <ele>717.0</ele>
        <time>2020-07-24T08:15:47Z</time>
      </trkpt>
      <trkpt lat="42.9329540" lon="0.8892440">
        <ele>717.2</ele>
        <time>2020-07-24T08:15:48Z</time>
      </trkpt>
      <trkpt lat="42.9330400" lon="0.8892530">
        <ele>717.6</ele>
        <time>2020-07-24T08:15:50Z</time>
      </trkpt>
      <trkpt lat="42.9331250" lon="0.8892530">
        <ele>718.4</ele>
        <time>2020-07-24T08:15:52Z</time>
      </trkpt>
      <trkpt lat="42.9332890" lon="0.8892690">
        <ele>719.4</ele>
        <time>2020-07-24T08:15:56Z</time>
      </trkpt>
      <trkpt lat="42.9335140" lon="0.8892690">
        <ele>720.6</ele>
        <time>2020-07-24T08:16:02Z</time>
      </trkpt>
      <trkpt lat="42.9335520" lon="0.8892680">
        <ele>720.8</ele>
        <time>2020-07-24T08:16:03Z</time>
      </trkpt>
      <trkpt lat="42.9336260" lon="0.8892570">
        <ele>721.4</ele>
        <time>2020-07-24T08:16:05Z</time>
      </trkpt>
      <trkpt lat="42.9336620" lon="0.8892470">
        <ele>721.6</ele>
        <time>2020-07-24T08:16:06Z</time>
      </trkpt>
      <trkpt lat="42.9336990" lon="0.8892330">
        <ele>721.8</ele>
        <time>2020-07-24T08:16:07Z</time>
      </trkpt>
      <trkpt lat="42.9337730" lon="0.8891970">
        <ele>722.2</ele>
        <time>2020-07-24T08:16:09Z</time>
      </trkpt>
      <trkpt lat="42.9338100" lon="0.8891700">
        <ele>722.4</ele>
        <time>2020-07-24T08:16:10Z</time>
      </trkpt>
      <trkpt lat="42.9338790" lon="0.8891080">
        <ele>722.8</ele>
        <time>2020-07-24T08:16:12Z</time>
      </trkpt>
      <trkpt lat="42.9339170" lon="0.8890810">
        <ele>723.0</ele>
        <time>2020-07-24T08:16:13Z</time>
      </trkpt>
      <trkpt lat="42.9339520" lon="0.8890350">
        <ele>723.0</ele>
        <time>2020-07-24T08:16:14Z</time>
      </trkpt>
      <trkpt lat="42.9339990" lon="0.8889290">
        <ele>723.4</ele>
        <time>2020-07-24T08:16:16Z</time>
      </trkpt>
      <trkpt lat="42.9340150" lon="0.8888750">
        <ele>723.6</ele>
        <time>2020-07-24T08:16:17Z</time>
      </trkpt>
      <trkpt lat="42.9340270" lon="0.8888160">
        <ele>723.8</ele>
        <time>2020-07-24T08:16:18Z</time>
      </trkpt>
      <trkpt lat="42.9340350" lon="0.8887560">
        <ele>724.0</ele>
        <time>2020-07-24T08:16:19Z</time>
      </trkpt>
      <trkpt lat="42.9340390" lon="0.8886330">
        <ele>724.4</ele>
        <time>2020-07-24T08:16:21Z</time>
      </trkpt>
      <trkpt lat="42.9340420" lon="0.8885730">
        <ele>724.6</ele>
        <time>2020-07-24T08:16:22Z</time>
      </trkpt>
      <trkpt lat="42.9340550" lon="0.8884670">
        <ele>724.6</ele>
        <time>2020-07-24T08:16:24Z</time>
      </trkpt>
      <trkpt lat="42.9340680" lon="0.8884160">
        <ele>724.6</ele>
        <time>2020-07-24T08:16:25Z</time>
      </trkpt>
      <trkpt lat="42.9341020" lon="0.8883170">
        <ele>725.2</ele>
        <time>2020-07-24T08:16:27Z</time>
      </trkpt>
      <trkpt lat="42.9341210" lon="0.8882640">
        <ele>725.4</ele>
        <time>2020-07-24T08:16:28Z</time>
      </trkpt>
      <trkpt lat="42.9341450" lon="0.8882160">
        <ele>725.6</ele>
        <time>2020-07-24T08:16:29Z</time>
      </trkpt>
      <trkpt lat="42.9341680" lon="0.8881640">
        <ele>725.8</ele>
        <time>2020-07-24T08:16:30Z</time>
      </trkpt>
      <trkpt lat="42.9342720" lon="0.8880650">
        <ele>726.2</ele>
        <time>2020-07-24T08:16:33Z</time>
      </trkpt>
      <trkpt lat="42.9343120" lon="0.8880400">
        <ele>726.6</ele>
        <time>2020-07-24T08:16:34Z</time>
      </trkpt>
      <trkpt lat="42.9343870" lon="0.8879930">
        <ele>727.4</ele>
        <time>2020-07-24T08:16:36Z</time>
      </trkpt>
      <trkpt lat="42.9344270" lon="0.8879720">
        <ele>727.6</ele>
        <time>2020-07-24T08:16:37Z</time>
      </trkpt>
      <trkpt lat="42.9345350" lon="0.8878920">
        <ele>728.4</ele>
        <time>2020-07-24T08:16:40Z</time>
      </trkpt>
      <trkpt lat="42.9346010" lon="0.8878380">
        <ele>728.8</ele>
        <time>2020-07-24T08:16:42Z</time>
      </trkpt>
      <trkpt lat="42.9347630" lon="0.8877750">
        <ele>729.4</ele>
        <time>2020-07-24T08:16:46Z</time>
      </trkpt>
      <trkpt lat="42.9348820" lon="0.8877170">
        <ele>730.0</ele>
        <time>2020-07-24T08:16:49Z</time>
      </trkpt>
      <trkpt lat="42.9349220" lon="0.8876970">
        <ele>730.6</ele>
        <time>2020-07-24T08:16:50Z</time>
      </trkpt>
      <trkpt lat="42.9351260" lon="0.8875720">
        <ele>731.6</ele>
        <time>2020-07-24T08:16:56Z</time>
      </trkpt>
      <trkpt lat="42.9352180" lon="0.8874440">
        <ele>732.8</ele>
        <time>2020-07-24T08:16:59Z</time>
      </trkpt>
      <trkpt lat="42.9352390" lon="0.8873860">
        <ele>733.2</ele>
        <time>2020-07-24T08:17:00Z</time>
      </trkpt>
      <trkpt lat="42.9352760" lon="0.8872860">
        <ele>734.0</ele>
        <time>2020-07-24T08:17:02Z</time>
      </trkpt>
      <trkpt lat="42.9353350" lon="0.8871070">
        <ele>735.2</ele>
        <time>2020-07-24T08:17:06Z</time>
      </trkpt>
      <trkpt lat="42.9353520" lon="0.8870040">
        <ele>735.4</ele>
        <time>2020-07-24T08:17:08Z</time>
      </trkpt>
      <trkpt lat="42.9353660" lon="0.8868640">
        <ele>735.6</ele>
        <time>2020-07-24T08:17:11Z</time>
      </trkpt>
      <trkpt lat="42.9353660" lon="0.8868150">
        <ele>735.6</ele>
        <time>2020-07-24T08:17:12Z</time>
      </trkpt>
      <trkpt lat="42.9353650" lon="0.8867650">
        <ele>736.0</ele>
        <time>2020-07-24T08:17:13Z</time>
      </trkpt>
      <trkpt lat="42.9353630" lon="0.8867120">
        <ele>736.2</ele>
        <time>2020-07-24T08:17:14Z</time>
      </trkpt>
      <trkpt lat="42.9353580" lon="0.8866050">
        <ele>736.4</ele>
        <time>2020-07-24T08:17:16Z</time>
      </trkpt>
      <trkpt lat="42.9353400" lon="0.8862840">
        <ele>737.2</ele>
        <time>2020-07-24T08:17:22Z</time>
      </trkpt>
      <trkpt lat="42.9353340" lon="0.8862300">
        <ele>737.2</ele>
        <time>2020-07-24T08:17:23Z</time>
      </trkpt>
      <trkpt lat="42.9353310" lon="0.8861160">
        <ele>737.4</ele>
        <time>2020-07-24T08:17:25Z</time>
      </trkpt>
      <trkpt lat="42.9353430" lon="0.8859160">
        <ele>738.4</ele>
        <time>2020-07-24T08:17:29Z</time>
      </trkpt>
      <trkpt lat="42.9353700" lon="0.8858200">
        <ele>739.0</ele>
        <time>2020-07-24T08:17:31Z</time>
      </trkpt>
      <trkpt lat="42.9354350" lon="0.8856980">
        <ele>739.6</ele>
        <time>2020-07-24T08:17:34Z</time>
      </trkpt>
      <trkpt lat="42.9354910" lon="0.8856270">
        <ele>740.0</ele>
        <time>2020-07-24T08:17:36Z</time>
      </trkpt>
      <trkpt lat="42.9355880" lon="0.8855470">
        <ele>740.8</ele>
        <time>2020-07-24T08:17:39Z</time>
      </trkpt>
      <trkpt lat="42.9356590" lon="0.8855080">
        <ele>741.0</ele>
        <time>2020-07-24T08:17:41Z</time>
      </trkpt>
      <trkpt lat="42.9356950" lon="0.8854920">
        <ele>741.0</ele>
        <time>2020-07-24T08:17:42Z</time>
      </trkpt>
      <trkpt lat="42.9357320" lon="0.8854810">
        <ele>741.2</ele>
        <time>2020-07-24T08:17:43Z</time>
      </trkpt>
      <trkpt lat="42.9358420" lon="0.8854530">
        <ele>741.8</ele>
        <time>2020-07-24T08:17:46Z</time>
      </trkpt>
      <trkpt lat="42.9359490" lon="0.8854250">
        <ele>743.0</ele>
        <time>2020-07-24T08:17:49Z</time>
      </trkpt>
      <trkpt lat="42.9360790" lon="0.8853990">
        <ele>744.0</ele>
        <time>2020-07-24T08:17:53Z</time>
      </trkpt>
      <trkpt lat="42.9361130" lon="0.8853870">
        <ele>744.2</ele>
        <time>2020-07-24T08:17:54Z</time>
      </trkpt>
      <trkpt lat="42.9362090" lon="0.8853590">
        <ele>745.0</ele>
        <time>2020-07-24T08:17:57Z</time>
      </trkpt>
      <trkpt lat="42.9363340" lon="0.8853340">
        <ele>746.2</ele>
        <time>2020-07-24T08:18:01Z</time>
      </trkpt>
      <trkpt lat="42.9363960" lon="0.8853160">
        <ele>746.6</ele>
        <time>2020-07-24T08:18:03Z</time>
      </trkpt>
      <trkpt lat="42.9365460" lon="0.8852190">
        <ele>747.2</ele>
        <time>2020-07-24T08:18:08Z</time>
      </trkpt>
      <trkpt lat="42.9366040" lon="0.8851670">
        <ele>747.6</ele>
        <time>2020-07-24T08:18:10Z</time>
      </trkpt>
      <trkpt lat="42.9366610" lon="0.8850450">
        <ele>748.4</ele>
        <time>2020-07-24T08:18:13Z</time>
      </trkpt>
      <trkpt lat="42.9367420" lon="0.8848920">
        <ele>749.4</ele>
        <time>2020-07-24T08:18:17Z</time>
      </trkpt>
      <trkpt lat="42.9367620" lon="0.8848650">
        <ele>749.6</ele>
        <time>2020-07-24T08:18:18Z</time>
      </trkpt>
      <trkpt lat="42.9368520" lon="0.8847690">
        <ele>750.8</ele>
        <time>2020-07-24T08:18:22Z</time>
      </trkpt>
      <trkpt lat="42.9369050" lon="0.8847290">
        <ele>751.4</ele>
        <time>2020-07-24T08:18:24Z</time>
      </trkpt>
      <trkpt lat="42.9369300" lon="0.8847110">
        <ele>751.8</ele>
        <time>2020-07-24T08:18:25Z</time>
      </trkpt>
      <trkpt lat="42.9370850" lon="0.8846400">
        <ele>752.8</ele>
        <time>2020-07-24T08:18:30Z</time>
      </trkpt>
      <trkpt lat="42.9371470" lon="0.8846250">
        <ele>753.4</ele>
        <time>2020-07-24T08:18:32Z</time>
      </trkpt>
      <trkpt lat="42.9372360" lon="0.8846050">
        <ele>754.2</ele>
        <time>2020-07-24T08:18:35Z</time>
      </trkpt>
      <trkpt lat="42.9372940" lon="0.8845970">
        <ele>754.6</ele>
        <time>2020-07-24T08:18:37Z</time>
      </trkpt>
      <trkpt lat="42.9373790" lon="0.8845790">
        <ele>755.2</ele>
        <time>2020-07-24T08:18:40Z</time>
      </trkpt>
      <trkpt lat="42.9374960" lon="0.8845310">
        <ele>756.4</ele>
        <time>2020-07-24T08:18:44Z</time>
      </trkpt>
      <trkpt lat="42.9376200" lon="0.8844340">
        <ele>757.4</ele>
        <time>2020-07-24T08:18:48Z</time>
      </trkpt>
      <trkpt lat="42.9377070" lon="0.8843370">
        <ele>758.2</ele>
        <time>2020-07-24T08:18:51Z</time>
      </trkpt>
      <trkpt lat="42.9377340" lon="0.8843020">
        <ele>758.4</ele>
        <time>2020-07-24T08:18:52Z</time>
      </trkpt>
      <trkpt lat="42.9378470" lon="0.8841220">
        <ele>759.6</ele>
        <time>2020-07-24T08:18:57Z</time>
      </trkpt>
      <trkpt lat="42.9378630" lon="0.8840870">
        <ele>759.8</ele>
        <time>2020-07-24T08:18:58Z</time>
      </trkpt>
      <trkpt lat="42.9378800" lon="0.8840560">
        <ele>760.0</ele>
        <time>2020-07-24T08:18:59Z</time>
      </trkpt>
      <trkpt lat="42.9378930" lon="0.8840330">
        <ele>760.2</ele>
        <time>2020-07-24T08:19:00Z</time>
      </trkpt>
      <trkpt lat="42.9379200" lon="0.8839910">
        <ele>760.6</ele>
        <time>2020-07-24T08:19:02Z</time>
      </trkpt>
      <trkpt lat="42.9379960" lon="0.8838490">
        <ele>761.8</ele>
        <time>2020-07-24T08:19:07Z</time>
      </trkpt>
      <trkpt lat="42.9380630" lon="0.8836900">
        <ele>762.8</ele>
        <time>2020-07-24T08:19:12Z</time>
      </trkpt>
      <trkpt lat="42.9380750" lon="0.8836630">
        <ele>763.0</ele>
        <time>2020-07-24T08:19:13Z</time>
      </trkpt>
      <trkpt lat="42.9381050" lon="0.8836110">
        <ele>763.8</ele>
        <time>2020-07-24T08:19:15Z</time>
      </trkpt>
      <trkpt lat="42.9381690" lon="0.8835170">
        <ele>764.8</ele>
        <time>2020-07-24T08:19:19Z</time>
      </trkpt>
      <trkpt lat="42.9381840" lon="0.8834940">
        <ele>765.0</ele>
        <time>2020-07-24T08:19:20Z</time>
      </trkpt>
      <trkpt lat="42.9382090" lon="0.8834530">
        <ele>765.6</ele>
        <time>2020-07-24T08:19:22Z</time>
      </trkpt>
      <trkpt lat="42.9382200" lon="0.8834310">
        <ele>765.8</ele>
        <time>2020-07-24T08:19:23Z</time>
      </trkpt>
      <trkpt lat="42.9383140" lon="0.8833460">
        <ele>767.0</ele>
        <time>2020-07-24T08:19:28Z</time>
      </trkpt>
      <trkpt lat="42.9384220" lon="0.8833170">
        <ele>768.2</ele>
        <time>2020-07-24T08:19:32Z</time>
      </trkpt>
      <trkpt lat="42.9385660" lon="0.8833080">
        <ele>769.4</ele>
        <time>2020-07-24T08:19:38Z</time>
      </trkpt>
      <trkpt lat="42.9386370" lon="0.8832760">
        <ele>770.6</ele>
        <time>2020-07-24T08:19:42Z</time>
      </trkpt>
      <trkpt lat="42.9386800" lon="0.8832670">
        <ele>771.2</ele>
        <time>2020-07-24T08:19:44Z</time>
      </trkpt>
      <trkpt lat="42.9387230" lon="0.8832520">
        <ele>771.6</ele>
        <time>2020-07-24T08:19:46Z</time>
      </trkpt>
      <trkpt lat="42.9388260" lon="0.8832020">
        <ele>772.8</ele>
        <time>2020-07-24T08:19:51Z</time>
      </trkpt>
      <trkpt lat="42.9388830" lon="0.8831870">
        <ele>773.4</ele>
        <time>2020-07-24T08:19:54Z</time>
      </trkpt>
      <trkpt lat="42.9389070" lon="0.8831720">
        <ele>773.8</ele>
        <time>2020-07-24T08:19:55Z</time>
      </trkpt>
      <trkpt lat="42.9389780" lon="0.8831150">
        <ele>774.2</ele>
        <time>2020-07-24T08:19:58Z</time>
      </trkpt>
      <trkpt lat="42.9390240" lon="0.8830820">
        <ele>774.8</ele>
        <time>2020-07-24T08:20:00Z</time>
      </trkpt>
      <trkpt lat="42.9390670" lon="0.8830470">
        <ele>775.4</ele>
        <time>2020-07-24T08:20:02Z</time>
      </trkpt>
      <trkpt lat="42.9391000" lon="0.8830120">
        <ele>776.0</ele>
        <time>2020-07-24T08:20:04Z</time>
      </trkpt>
      <trkpt lat="42.9391820" lon="0.8828960">
        <ele>777.2</ele>
        <time>2020-07-24T08:20:09Z</time>
      </trkpt>
      <trkpt lat="42.9392030" lon="0.8828670">
        <ele>777.6</ele>
        <time>2020-07-24T08:20:10Z</time>
      </trkpt>
      <trkpt lat="42.9393040" lon="0.8827630">
        <ele>778.6</ele>
        <time>2020-07-24T08:20:15Z</time>
      </trkpt>
      <trkpt lat="42.9393470" lon="0.8827250">
        <ele>779.2</ele>
        <time>2020-07-24T08:20:17Z</time>
      </trkpt>
      <trkpt lat="42.9393960" lon="0.8826730">
        <ele>779.8</ele>
        <time>2020-07-24T08:20:19Z</time>
      </trkpt>
      <trkpt lat="42.9394580" lon="0.8826010">
        <ele>780.4</ele>
        <time>2020-07-24T08:20:22Z</time>
      </trkpt>
      <trkpt lat="42.9394930" lon="0.8825650">
        <ele>780.8</ele>
        <time>2020-07-24T08:20:24Z</time>
      </trkpt>
      <trkpt lat="42.9395080" lon="0.8825450">
        <ele>781.2</ele>
        <time>2020-07-24T08:20:25Z</time>
      </trkpt>
      <trkpt lat="42.9395370" lon="0.8825110">
        <ele>781.8</ele>
        <time>2020-07-24T08:20:27Z</time>
      </trkpt>
      <trkpt lat="42.9395690" lon="0.8824680">
        <ele>782.4</ele>
        <time>2020-07-24T08:20:30Z</time>
      </trkpt>
      <trkpt lat="42.9395840" lon="0.8824370">
        <ele>782.8</ele>
        <time>2020-07-24T08:20:32Z</time>
      </trkpt>
      <trkpt lat="42.9395950" lon="0.8824080">
        <ele>782.8</ele>
        <time>2020-07-24T08:20:34Z</time>
      </trkpt>
      <trkpt lat="42.9396190" lon="0.8823060">
        <ele>783.6</ele>
        <time>2020-07-24T08:20:40Z</time>
      </trkpt>
      <trkpt lat="42.9396240" lon="0.8822850">
        <ele>783.8</ele>
        <time>2020-07-24T08:20:41Z</time>
      </trkpt>
      <trkpt lat="42.9396300" lon="0.8822640">
        <ele>783.8</ele>
        <time>2020-07-24T08:20:42Z</time>
      </trkpt>
      <trkpt lat="42.9396370" lon="0.8822430">
        <ele>783.8</ele>
        <time>2020-07-24T08:20:43Z</time>
      </trkpt>
      <trkpt lat="42.9396840" lon="0.8821030">
        <ele>784.8</ele>
        <time>2020-07-24T08:20:49Z</time>
      </trkpt>
      <trkpt lat="42.9396910" lon="0.8820830">
        <ele>784.8</ele>
        <time>2020-07-24T08:20:50Z</time>
      </trkpt>
      <trkpt lat="42.9396980" lon="0.8820620">
        <ele>785.0</ele>
        <time>2020-07-24T08:20:51Z</time>
      </trkpt>
      <trkpt lat="42.9397600" lon="0.8819260">
        <ele>786.0</ele>
        <time>2020-07-24T08:20:57Z</time>
      </trkpt>
      <trkpt lat="42.9397700" lon="0.8819020">
        <ele>786.2</ele>
        <time>2020-07-24T08:20:58Z</time>
      </trkpt>
      <trkpt lat="42.9398050" lon="0.8818200">
        <ele>787.0</ele>
        <time>2020-07-24T08:21:01Z</time>
      </trkpt>
      <trkpt lat="42.9398790" lon="0.8816600">
        <ele>788.4</ele>
        <time>2020-07-24T08:21:06Z</time>
      </trkpt>
      <trkpt lat="42.9399200" lon="0.8815660">
        <ele>789.6</ele>
        <time>2020-07-24T08:21:09Z</time>
      </trkpt>
      <trkpt lat="42.9399940" lon="0.8813950">
        <ele>790.6</ele>
        <time>2020-07-24T08:21:14Z</time>
      </trkpt>
      <trkpt lat="42.9400160" lon="0.8813320">
        <ele>791.0</ele>
        <time>2020-07-24T08:21:16Z</time>
      </trkpt>
      <trkpt lat="42.9400710" lon="0.8812200">
        <ele>791.6</ele>
        <time>2020-07-24T08:21:20Z</time>
      </trkpt>
      <trkpt lat="42.9400940" lon="0.8811250">
        <ele>792.8</ele>
        <time>2020-07-24T08:21:23Z</time>
      </trkpt>
      <trkpt lat="42.9400950" lon="0.8810770">
        <ele>793.0</ele>
        <time>2020-07-24T08:21:24Z</time>
      </trkpt>
      <trkpt lat="42.9401200" lon="0.8809620">
        <ele>794.2</ele>
        <time>2020-07-24T08:21:27Z</time>
      </trkpt>
      <trkpt lat="42.9401560" lon="0.8808580">
        <ele>795.2</ele>
        <time>2020-07-24T08:21:30Z</time>
      </trkpt>
      <trkpt lat="42.9401730" lon="0.8808270">
        <ele>795.6</ele>
        <time>2020-07-24T08:21:31Z</time>
      </trkpt>
      <trkpt lat="42.9402200" lon="0.8807300">
        <ele>796.4</ele>
        <time>2020-07-24T08:21:34Z</time>
      </trkpt>
      <trkpt lat="42.9402780" lon="0.8806060">
        <ele>797.6</ele>
        <time>2020-07-24T08:21:38Z</time>
      </trkpt>
      <trkpt lat="42.9403140" lon="0.8805050">
        <ele>798.6</ele>
        <time>2020-07-24T08:21:41Z</time>
      </trkpt>
      <trkpt lat="42.9403260" lon="0.8804760">
        <ele>798.8</ele>
        <time>2020-07-24T08:21:42Z</time>
      </trkpt>
      <trkpt lat="42.9403770" lon="0.8803530">
        <ele>800.0</ele>
        <time>2020-07-24T08:21:46Z</time>
      </trkpt>
      <trkpt lat="42.9403990" lon="0.8802830">
        <ele>800.2</ele>
        <time>2020-07-24T08:21:48Z</time>
      </trkpt>
      <trkpt lat="42.9404090" lon="0.8802480">
        <ele>800.4</ele>
        <time>2020-07-24T08:21:49Z</time>
      </trkpt>
      <trkpt lat="42.9404260" lon="0.8801800">
        <ele>800.8</ele>
        <time>2020-07-24T08:21:51Z</time>
      </trkpt>
      <trkpt lat="42.9404300" lon="0.8801450">
        <ele>801.0</ele>
        <time>2020-07-24T08:21:52Z</time>
      </trkpt>
      <trkpt lat="42.9404450" lon="0.8799910">
        <ele>802.2</ele>
        <time>2020-07-24T08:21:56Z</time>
      </trkpt>
      <trkpt lat="42.9404520" lon="0.8799150">
        <ele>802.6</ele>
        <time>2020-07-24T08:21:58Z</time>
      </trkpt>
      <trkpt lat="42.9404670" lon="0.8798100">
        <ele>803.2</ele>
        <time>2020-07-24T08:22:01Z</time>
      </trkpt>
      <trkpt lat="42.9404730" lon="0.8796560">
        <ele>804.2</ele>
        <time>2020-07-24T08:22:05Z</time>
      </trkpt>
      <trkpt lat="42.9404760" lon="0.8795780">
        <ele>804.8</ele>
        <time>2020-07-24T08:22:07Z</time>
      </trkpt>
      <trkpt lat="42.9404830" lon="0.8795010">
        <ele>805.2</ele>
        <time>2020-07-24T08:22:09Z</time>
      </trkpt>
      <trkpt lat="42.9404820" lon="0.8793420">
        <ele>806.4</ele>
        <time>2020-07-24T08:22:13Z</time>
      </trkpt>
      <trkpt lat="42.9404820" lon="0.8792720">
        <ele>806.8</ele>
        <time>2020-07-24T08:22:15Z</time>
      </trkpt>
      <trkpt lat="42.9404730" lon="0.8791920">
        <ele>807.4</ele>
        <time>2020-07-24T08:22:17Z</time>
      </trkpt>
      <trkpt lat="42.9404310" lon="0.8789830">
        <ele>808.4</ele>
        <time>2020-07-24T08:22:22Z</time>
      </trkpt>
      <trkpt lat="42.9404270" lon="0.8789480">
        <ele>808.6</ele>
        <time>2020-07-24T08:22:23Z</time>
      </trkpt>
      <trkpt lat="42.9403940" lon="0.8788100">
        <ele>809.6</ele>
        <time>2020-07-24T08:22:27Z</time>
      </trkpt>
      <trkpt lat="42.9403520" lon="0.8787080">
        <ele>809.8</ele>
        <time>2020-07-24T08:22:30Z</time>
      </trkpt>
      <trkpt lat="42.9403390" lon="0.8786370">
        <ele>810.4</ele>
        <time>2020-07-24T08:22:32Z</time>
      </trkpt>
      <trkpt lat="42.9403350" lon="0.8786040">
        <ele>810.6</ele>
        <time>2020-07-24T08:22:33Z</time>
      </trkpt>
      <trkpt lat="42.9403320" lon="0.8784800">
        <ele>811.8</ele>
        <time>2020-07-24T08:22:37Z</time>
      </trkpt>
      <trkpt lat="42.9403340" lon="0.8782670">
        <ele>813.0</ele>
        <time>2020-07-24T08:22:43Z</time>
      </trkpt>
      <trkpt lat="42.9403540" lon="0.8781370">
        <ele>814.0</ele>
        <time>2020-07-24T08:22:46Z</time>
      </trkpt>
      <trkpt lat="42.9403700" lon="0.8780170">
        <ele>814.6</ele>
        <time>2020-07-24T08:22:49Z</time>
      </trkpt>
      <trkpt lat="42.9403880" lon="0.8779330">
        <ele>815.2</ele>
        <time>2020-07-24T08:22:51Z</time>
      </trkpt>
      <trkpt lat="42.9404060" lon="0.8777580">
        <ele>816.2</ele>
        <time>2020-07-24T08:22:55Z</time>
      </trkpt>
      <trkpt lat="42.9404080" lon="0.8777160">
        <ele>816.4</ele>
        <time>2020-07-24T08:22:56Z</time>
      </trkpt>
      <trkpt lat="42.9404190" lon="0.8775820">
        <ele>816.8</ele>
        <time>2020-07-24T08:22:59Z</time>
      </trkpt>
      <trkpt lat="42.9404140" lon="0.8774430">
        <ele>817.6</ele>
        <time>2020-07-24T08:23:02Z</time>
      </trkpt>
      <trkpt lat="42.9403990" lon="0.8773900">
        <ele>817.6</ele>
        <time>2020-07-24T08:23:03Z</time>
      </trkpt>
      <trkpt lat="42.9403890" lon="0.8773370">
        <ele>817.6</ele>
        <time>2020-07-24T08:23:04Z</time>
      </trkpt>
      <trkpt lat="42.9403830" lon="0.8772880">
        <ele>817.8</ele>
        <time>2020-07-24T08:23:05Z</time>
      </trkpt>
      <trkpt lat="42.9403730" lon="0.8772410">
        <ele>818.0</ele>
        <time>2020-07-24T08:23:06Z</time>
      </trkpt>
      <trkpt lat="42.9403630" lon="0.8771520">
        <ele>818.4</ele>
        <time>2020-07-24T08:23:08Z</time>
      </trkpt>
      <trkpt lat="42.9403630" lon="0.8771150">
        <ele>818.6</ele>
        <time>2020-07-24T08:23:09Z</time>
      </trkpt>
      <trkpt lat="42.9403460" lon="0.8769630">
        <ele>819.0</ele>
        <time>2020-07-24T08:23:13Z</time>
      </trkpt>
      <trkpt lat="42.9403000" lon="0.8768320">
        <ele>819.4</ele>
        <time>2020-07-24T08:23:16Z</time>
      </trkpt>
      <trkpt lat="42.9402680" lon="0.8767320">
        <ele>819.6</ele>
        <time>2020-07-24T08:23:18Z</time>
      </trkpt>
      <trkpt lat="42.9402500" lon="0.8766800">
        <ele>819.6</ele>
        <time>2020-07-24T08:23:19Z</time>
      </trkpt>
      <trkpt lat="42.9400690" lon="0.8762620">
        <ele>820.2</ele>
        <time>2020-07-24T08:23:25Z</time>
      </trkpt>
      <trkpt lat="42.9399870" lon="0.8761240">
        <ele>820.2</ele>
        <time>2020-07-24T08:23:27Z</time>
      </trkpt>
      <trkpt lat="42.9398680" lon="0.8759800">
        <ele>820.8</ele>
        <time>2020-07-24T08:23:30Z</time>
      </trkpt>
      <trkpt lat="42.9398310" lon="0.8759430">
        <ele>820.6</ele>
        <time>2020-07-24T08:23:31Z</time>
      </trkpt>
      <trkpt lat="42.9395710" lon="0.8756870">
        <ele>821.8</ele>
        <time>2020-07-24T08:23:37Z</time>
      </trkpt>
      <trkpt lat="42.9395270" lon="0.8756450">
        <ele>822.0</ele>
        <time>2020-07-24T08:23:38Z</time>
      </trkpt>
      <trkpt lat="42.9394350" lon="0.8755610">
        <ele>822.2</ele>
        <time>2020-07-24T08:23:40Z</time>
      </trkpt>
      <trkpt lat="42.9393000" lon="0.8754540">
        <ele>823.0</ele>
        <time>2020-07-24T08:23:43Z</time>
      </trkpt>
      <trkpt lat="42.9391240" lon="0.8753090">
        <ele>824.0</ele>
        <time>2020-07-24T08:23:47Z</time>
      </trkpt>
      <trkpt lat="42.9388560" lon="0.8750920">
        <ele>824.4</ele>
        <time>2020-07-24T08:23:53Z</time>
      </trkpt>
      <trkpt lat="42.9387600" lon="0.8750150">
        <ele>824.4</ele>
        <time>2020-07-24T08:23:55Z</time>
      </trkpt>
      <trkpt lat="42.9384670" lon="0.8748230">
        <ele>824.0</ele>
        <time>2020-07-24T08:24:00Z</time>
      </trkpt>
      <trkpt lat="42.9383490" lon="0.8747290">
        <ele>823.8</ele>
        <time>2020-07-24T08:24:02Z</time>
      </trkpt>
      <trkpt lat="42.9381860" lon="0.8745600">
        <ele>823.6</ele>
        <time>2020-07-24T08:24:05Z</time>
      </trkpt>
      <trkpt lat="42.9381460" lon="0.8744960">
        <ele>823.6</ele>
        <time>2020-07-24T08:24:06Z</time>
      </trkpt>
      <trkpt lat="42.9379080" lon="0.8740260">
        <ele>824.4</ele>
        <time>2020-07-24T08:24:12Z</time>
      </trkpt>
      <trkpt lat="42.9378760" lon="0.8739440">
        <ele>824.4</ele>
        <time>2020-07-24T08:24:13Z</time>
      </trkpt>
      <trkpt lat="42.9378150" lon="0.8736710">
        <ele>824.6</ele>
        <time>2020-07-24T08:24:16Z</time>
      </trkpt>
      <trkpt lat="42.9378100" lon="0.8734820">
        <ele>824.8</ele>
        <time>2020-07-24T08:24:18Z</time>
      </trkpt>
      <trkpt lat="42.9378360" lon="0.8732110">
        <ele>825.0</ele>
        <time>2020-07-24T08:24:21Z</time>
      </trkpt>
      <trkpt lat="42.9378470" lon="0.8731270">
        <ele>825.0</ele>
        <time>2020-07-24T08:24:22Z</time>
      </trkpt>
      <trkpt lat="42.9379440" lon="0.8726620">
        <ele>826.0</ele>
        <time>2020-07-24T08:24:28Z</time>
      </trkpt>
      <trkpt lat="42.9379540" lon="0.8725900">
        <ele>826.2</ele>
        <time>2020-07-24T08:24:29Z</time>
      </trkpt>
      <trkpt lat="42.9380050" lon="0.8723260">
        <ele>827.2</ele>
        <time>2020-07-24T08:24:33Z</time>
      </trkpt>
      <trkpt lat="42.9380280" lon="0.8721460">
        <ele>828.0</ele>
        <time>2020-07-24T08:24:36Z</time>
      </trkpt>
      <trkpt lat="42.9380340" lon="0.8720910">
        <ele>828.2</ele>
        <time>2020-07-24T08:24:37Z</time>
      </trkpt>
      <trkpt lat="42.9380400" lon="0.8720390">
        <ele>828.4</ele>
        <time>2020-07-24T08:24:38Z</time>
      </trkpt>
      <trkpt lat="42.9380520" lon="0.8719360">
        <ele>828.8</ele>
        <time>2020-07-24T08:24:40Z</time>
      </trkpt>
      <trkpt lat="42.9380560" lon="0.8718380">
        <ele>829.6</ele>
        <time>2020-07-24T08:24:42Z</time>
      </trkpt>
      <trkpt lat="42.9380660" lon="0.8717430">
        <ele>830.0</ele>
        <time>2020-07-24T08:24:44Z</time>
      </trkpt>
      <trkpt lat="42.9380740" lon="0.8715540">
        <ele>830.8</ele>
        <time>2020-07-24T08:24:48Z</time>
      </trkpt>
      <trkpt lat="42.9380960" lon="0.8713780">
        <ele>831.8</ele>
        <time>2020-07-24T08:24:52Z</time>
      </trkpt>
      <trkpt lat="42.9381010" lon="0.8713360">
        <ele>832.0</ele>
        <time>2020-07-24T08:24:53Z</time>
      </trkpt>
      <trkpt lat="42.9381180" lon="0.8712100">
        <ele>832.6</ele>
        <time>2020-07-24T08:24:56Z</time>
      </trkpt>
      <trkpt lat="42.9381250" lon="0.8711210">
        <ele>833.0</ele>
        <time>2020-07-24T08:24:58Z</time>
      </trkpt>
      <trkpt lat="42.9381410" lon="0.8709900">
        <ele>834.0</ele>
        <time>2020-07-24T08:25:01Z</time>
      </trkpt>
      <trkpt lat="42.9381500" lon="0.8708570">
        <ele>834.4</ele>
        <time>2020-07-24T08:25:04Z</time>
      </trkpt>
      <trkpt lat="42.9381590" lon="0.8707380">
        <ele>835.4</ele>
        <time>2020-07-24T08:25:07Z</time>
      </trkpt>
      <trkpt lat="42.9381740" lon="0.8705800">
        <ele>836.8</ele>
        <time>2020-07-24T08:25:11Z</time>
      </trkpt>
      <trkpt lat="42.9381780" lon="0.8705420">
        <ele>837.0</ele>
        <time>2020-07-24T08:25:12Z</time>
      </trkpt>
      <trkpt lat="42.9381990" lon="0.8703910">
        <ele>837.8</ele>
        <time>2020-07-24T08:25:15Z</time>
      </trkpt>
      <trkpt lat="42.9382240" lon="0.8702220">
        <ele>839.0</ele>
        <time>2020-07-24T08:25:19Z</time>
      </trkpt>
      <trkpt lat="42.9382710" lon="0.8700330">
        <ele>840.0</ele>
        <time>2020-07-24T08:25:24Z</time>
      </trkpt>
      <trkpt lat="42.9382940" lon="0.8699170">
        <ele>841.0</ele>
        <time>2020-07-24T08:25:27Z</time>
      </trkpt>
      <trkpt lat="42.9383050" lon="0.8698830">
        <ele>841.2</ele>
        <time>2020-07-24T08:25:28Z</time>
      </trkpt>
      <trkpt lat="42.9383660" lon="0.8695970">
        <ele>842.4</ele>
        <time>2020-07-24T08:25:34Z</time>
      </trkpt>
      <trkpt lat="42.9384010" lon="0.8694540">
        <ele>843.4</ele>
        <time>2020-07-24T08:25:37Z</time>
      </trkpt>
      <trkpt lat="42.9384670" lon="0.8692510">
        <ele>844.2</ele>
        <time>2020-07-24T08:25:41Z</time>
      </trkpt>
      <trkpt lat="42.9384870" lon="0.8692000">
        <ele>844.4</ele>
        <time>2020-07-24T08:25:42Z</time>
      </trkpt>
      <trkpt lat="42.9385430" lon="0.8690310">
        <ele>844.8</ele>
        <time>2020-07-24T08:25:45Z</time>
      </trkpt>
      <trkpt lat="42.9386130" lon="0.8688750">
        <ele>845.2</ele>
        <time>2020-07-24T08:25:48Z</time>
      </trkpt>
      <trkpt lat="42.9386590" lon="0.8687690">
        <ele>845.6</ele>
        <time>2020-07-24T08:25:50Z</time>
      </trkpt>
      <trkpt lat="42.9388270" lon="0.8684990">
        <ele>846.4</ele>
        <time>2020-07-24T08:25:56Z</time>
      </trkpt>
      <trkpt lat="42.9388850" lon="0.8684090">
        <ele>846.8</ele>
        <time>2020-07-24T08:25:58Z</time>
      </trkpt>
      <trkpt lat="42.9389930" lon="0.8682280">
        <ele>847.4</ele>
        <time>2020-07-24T08:26:02Z</time>
      </trkpt>
      <trkpt lat="42.9390760" lon="0.8680970">
        <ele>847.6</ele>
        <time>2020-07-24T08:26:05Z</time>
      </trkpt>
      <trkpt lat="42.9391340" lon="0.8680190">
        <ele>848.0</ele>
        <time>2020-07-24T08:26:07Z</time>
      </trkpt>
      <trkpt lat="42.9392490" lon="0.8678630">
        <ele>848.6</ele>
        <time>2020-07-24T08:26:11Z</time>
      </trkpt>
      <trkpt lat="42.9393040" lon="0.8677860">
        <ele>849.0</ele>
        <time>2020-07-24T08:26:13Z</time>
      </trkpt>
      <trkpt lat="42.9393300" lon="0.8677540">
        <ele>849.2</ele>
        <time>2020-07-24T08:26:14Z</time>
      </trkpt>
      <trkpt lat="42.9394220" lon="0.8676130">
        <ele>850.0</ele>
        <time>2020-07-24T08:26:54Z</time>
      </trkpt>
      <trkpt lat="42.9394380" lon="0.8675940">
        <ele>850.2</ele>
        <time>2020-07-24T08:26:55Z</time>
      </trkpt>
      <trkpt lat="42.9394590" lon="0.8675660">
        <ele>850.2</ele>
        <time>2020-07-24T08:26:56Z</time>
      </trkpt>
      <trkpt lat="42.9395080" lon="0.8674970">
        <ele>850.4</ele>
        <time>2020-07-24T08:26:58Z</time>
      </trkpt>
      <trkpt lat="42.9396750" lon="0.8672710">
        <ele>851.4</ele>
        <time>2020-07-24T08:27:04Z</time>
      </trkpt>
      <trkpt lat="42.9397280" lon="0.8671940">
        <ele>851.8</ele>
        <time>2020-07-24T08:27:06Z</time>
      </trkpt>
      <trkpt lat="42.9398070" lon="0.8670860">
        <ele>852.4</ele>
        <time>2020-07-24T08:27:09Z</time>
      </trkpt>
      <trkpt lat="42.9398910" lon="0.8670020">
        <ele>853.0</ele>
        <time>2020-07-24T08:27:12Z</time>
      </trkpt>
      <trkpt lat="42.9399170" lon="0.8669680">
        <ele>853.4</ele>
        <time>2020-07-24T08:27:13Z</time>
      </trkpt>
      <trkpt lat="42.9400620" lon="0.8667430">
        <ele>854.8</ele>
        <time>2020-07-24T08:27:19Z</time>
      </trkpt>
      <trkpt lat="42.9401040" lon="0.8666570">
        <ele>855.2</ele>
        <time>2020-07-24T08:27:21Z</time>
      </trkpt>
      <trkpt lat="42.9401440" lon="0.8665670">
        <ele>855.8</ele>
        <time>2020-07-24T08:27:23Z</time>
      </trkpt>
      <trkpt lat="42.9402650" lon="0.8663150">
        <ele>856.8</ele>
        <time>2020-07-24T08:27:29Z</time>
      </trkpt>
      <trkpt lat="42.9402900" lon="0.8662870">
        <ele>856.8</ele>
        <time>2020-07-24T08:27:30Z</time>
      </trkpt>
      <trkpt lat="42.9403140" lon="0.8662540">
        <ele>857.0</ele>
        <time>2020-07-24T08:27:31Z</time>
      </trkpt>
      <trkpt lat="42.9403850" lon="0.8661040">
        <ele>857.6</ele>
        <time>2020-07-24T08:27:35Z</time>
      </trkpt>
      <trkpt lat="42.9404220" lon="0.8660340">
        <ele>858.0</ele>
        <time>2020-07-24T08:27:37Z</time>
      </trkpt>
      <trkpt lat="42.9404460" lon="0.8660050">
        <ele>858.4</ele>
        <time>2020-07-24T08:27:38Z</time>
      </trkpt>
      <trkpt lat="42.9405340" lon="0.8659400">
        <ele>859.2</ele>
        <time>2020-07-24T08:27:41Z</time>
      </trkpt>
      <trkpt lat="42.9405630" lon="0.8659210">
        <ele>859.2</ele>
        <time>2020-07-24T08:27:42Z</time>
      </trkpt>
      <trkpt lat="42.9406160" lon="0.8658810">
        <ele>859.6</ele>
        <time>2020-07-24T08:27:44Z</time>
      </trkpt>
      <trkpt lat="42.9406650" lon="0.8658350">
        <ele>860.2</ele>
        <time>2020-07-24T08:27:46Z</time>
      </trkpt>
      <trkpt lat="42.9407130" lon="0.8657990">
        <ele>860.6</ele>
        <time>2020-07-24T08:27:48Z</time>
      </trkpt>
      <trkpt lat="42.9408230" lon="0.8657040">
        <ele>861.4</ele>
        <time>2020-07-24T08:27:53Z</time>
      </trkpt>
      <trkpt lat="42.9408850" lon="0.8656460">
        <ele>862.2</ele>
        <time>2020-07-24T08:27:56Z</time>
      </trkpt>
      <trkpt lat="42.9409020" lon="0.8656270">
        <ele>862.4</ele>
        <time>2020-07-24T08:27:57Z</time>
      </trkpt>
      <trkpt lat="42.9409870" lon="0.8655040">
        <ele>863.4</ele>
        <time>2020-07-24T08:28:02Z</time>
      </trkpt>
      <trkpt lat="42.9410010" lon="0.8654700">
        <ele>863.6</ele>
        <time>2020-07-24T08:28:03Z</time>
      </trkpt>
      <trkpt lat="42.9410630" lon="0.8653080">
        <ele>864.4</ele>
        <time>2020-07-24T08:28:08Z</time>
      </trkpt>
      <trkpt lat="42.9410760" lon="0.8652510">
        <ele>865.0</ele>
        <time>2020-07-24T08:28:10Z</time>
      </trkpt>
      <trkpt lat="42.9410930" lon="0.8651780">
        <ele>865.6</ele>
        <time>2020-07-24T08:28:13Z</time>
      </trkpt>
      <trkpt lat="42.9411400" lon="0.8650430">
        <ele>866.6</ele>
        <time>2020-07-24T08:28:18Z</time>
      </trkpt>
      <trkpt lat="42.9411480" lon="0.8650120">
        <ele>866.8</ele>
        <time>2020-07-24T08:28:19Z</time>
      </trkpt>
      <trkpt lat="42.9412100" lon="0.8649180">
        <ele>868.0</ele>
        <time>2020-07-24T08:28:23Z</time>
      </trkpt>
      <trkpt lat="42.9412290" lon="0.8649020">
        <ele>868.0</ele>
        <time>2020-07-24T08:28:24Z</time>
      </trkpt>
      <trkpt lat="42.9413550" lon="0.8648690">
        <ele>868.8</ele>
        <time>2020-07-24T08:28:29Z</time>
      </trkpt>
      <trkpt lat="42.9413800" lon="0.8648690">
        <ele>869.0</ele>
        <time>2020-07-24T08:28:30Z</time>
      </trkpt>
      <trkpt lat="42.9415170" lon="0.8648850">
        <ele>870.2</ele>
        <time>2020-07-24T08:28:36Z</time>
      </trkpt>
      <trkpt lat="42.9415550" lon="0.8648960">
        <ele>870.8</ele>
        <time>2020-07-24T08:28:38Z</time>
      </trkpt>
      <trkpt lat="42.9416020" lon="0.8649090">
        <ele>871.2</ele>
        <time>2020-07-24T08:28:41Z</time>
      </trkpt>
      <trkpt lat="42.9416210" lon="0.8649120">
        <ele>871.4</ele>
        <time>2020-07-24T08:28:42Z</time>
      </trkpt>
      <trkpt lat="42.9416750" lon="0.8649110">
        <ele>871.8</ele>
        <time>2020-07-24T08:28:45Z</time>
      </trkpt>
      <trkpt lat="42.9417360" lon="0.8649140">
        <ele>872.4</ele>
        <time>2020-07-24T08:28:48Z</time>
      </trkpt>
      <trkpt lat="42.9418480" lon="0.8649290">
        <ele>873.6</ele>
        <time>2020-07-24T08:28:53Z</time>
      </trkpt>
      <trkpt lat="42.9419330" lon="0.8649700">
        <ele>874.8</ele>
        <time>2020-07-24T08:28:57Z</time>
      </trkpt>
      <trkpt lat="42.9419930" lon="0.8650640">
        <ele>875.8</ele>
        <time>2020-07-24T08:29:01Z</time>
      </trkpt>
      <trkpt lat="42.9420300" lon="0.8652210">
        <ele>877.0</ele>
        <time>2020-07-24T08:29:06Z</time>
      </trkpt>
      <trkpt lat="42.9420530" lon="0.8653030">
        <ele>877.8</ele>
        <time>2020-07-24T08:29:09Z</time>
      </trkpt>
      <trkpt lat="42.9420830" lon="0.8653580">
        <ele>878.0</ele>
        <time>2020-07-24T08:29:11Z</time>
      </trkpt>
      <trkpt lat="42.9421510" lon="0.8654290">
        <ele>879.4</ele>
        <time>2020-07-24T08:29:14Z</time>
      </trkpt>
      <trkpt lat="42.9422750" lon="0.8654840">
        <ele>880.4</ele>
        <time>2020-07-24T08:29:19Z</time>
      </trkpt>
      <trkpt lat="42.9424010" lon="0.8654550">
        <ele>881.4</ele>
        <time>2020-07-24T08:29:24Z</time>
      </trkpt>
      <trkpt lat="42.9424230" lon="0.8654350">
        <ele>881.8</ele>
        <time>2020-07-24T08:29:25Z</time>
      </trkpt>
      <trkpt lat="42.9424860" lon="0.8653130">
        <ele>882.6</ele>
        <time>2020-07-24T08:29:29Z</time>
      </trkpt>
      <trkpt lat="42.9425130" lon="0.8652440">
        <ele>883.0</ele>
        <time>2020-07-24T08:29:31Z</time>
      </trkpt>
      <trkpt lat="42.9425360" lon="0.8651340">
        <ele>884.0</ele>
        <time>2020-07-24T08:29:34Z</time>
      </trkpt>
      <trkpt lat="42.9425620" lon="0.8650320">
        <ele>884.6</ele>
        <time>2020-07-24T08:29:37Z</time>
      </trkpt>
      <trkpt lat="42.9425800" lon="0.8649660">
        <ele>885.2</ele>
        <time>2020-07-24T08:29:39Z</time>
      </trkpt>
      <trkpt lat="42.9426070" lon="0.8648700">
        <ele>885.8</ele>
        <time>2020-07-24T08:29:42Z</time>
      </trkpt>
      <trkpt lat="42.9426280" lon="0.8648030">
        <ele>886.2</ele>
        <time>2020-07-24T08:29:44Z</time>
      </trkpt>
      <trkpt lat="42.9426440" lon="0.8647350">
        <ele>886.6</ele>
        <time>2020-07-24T08:29:46Z</time>
      </trkpt>
      <trkpt lat="42.9426850" lon="0.8645970">
        <ele>887.4</ele>
        <time>2020-07-24T08:29:50Z</time>
      </trkpt>
      <trkpt lat="42.9427170" lon="0.8644570">
        <ele>888.6</ele>
        <time>2020-07-24T08:29:54Z</time>
      </trkpt>
      <trkpt lat="42.9427370" lon="0.8643890">
        <ele>888.8</ele>
        <time>2020-07-24T08:29:56Z</time>
      </trkpt>
      <trkpt lat="42.9427560" lon="0.8643230">
        <ele>889.4</ele>
        <time>2020-07-24T08:29:58Z</time>
      </trkpt>
      <trkpt lat="42.9427670" lon="0.8642900">
        <ele>889.6</ele>
        <time>2020-07-24T08:29:59Z</time>
      </trkpt>
      <trkpt lat="42.9428050" lon="0.8641540">
        <ele>891.0</ele>
        <time>2020-07-24T08:30:03Z</time>
      </trkpt>
      <trkpt lat="42.9428130" lon="0.8641200">
        <ele>891.2</ele>
        <time>2020-07-24T08:30:04Z</time>
      </trkpt>
      <trkpt lat="42.9428360" lon="0.8640170">
        <ele>891.8</ele>
        <time>2020-07-24T08:30:07Z</time>
      </trkpt>
      <trkpt lat="42.9428390" lon="0.8639820">
        <ele>892.2</ele>
        <time>2020-07-24T08:30:08Z</time>
      </trkpt>
      <trkpt lat="42.9428420" lon="0.8639080">
        <ele>892.8</ele>
        <time>2020-07-24T08:30:10Z</time>
      </trkpt>
      <trkpt lat="42.9428390" lon="0.8638280">
        <ele>893.2</ele>
        <time>2020-07-24T08:30:12Z</time>
      </trkpt>
      <trkpt lat="42.9428370" lon="0.8637880">
        <ele>893.4</ele>
        <time>2020-07-24T08:30:13Z</time>
      </trkpt>
      <trkpt lat="42.9428340" lon="0.8637100">
        <ele>894.0</ele>
        <time>2020-07-24T08:30:15Z</time>
      </trkpt>
      <trkpt lat="42.9428350" lon="0.8636320">
        <ele>894.6</ele>
        <time>2020-07-24T08:30:17Z</time>
      </trkpt>
      <trkpt lat="42.9428590" lon="0.8635210">
        <ele>895.4</ele>
        <time>2020-07-24T08:30:20Z</time>
      </trkpt>
      <trkpt lat="42.9428820" lon="0.8634940">
        <ele>895.6</ele>
        <time>2020-07-24T08:30:21Z</time>
      </trkpt>
      <trkpt lat="42.9429460" lon="0.8634810">
        <ele>895.8</ele>
        <time>2020-07-24T08:30:23Z</time>
      </trkpt>
      <trkpt lat="42.9430250" lon="0.8635540">
        <ele>896.6</ele>
        <time>2020-07-24T08:30:26Z</time>
      </trkpt>
      <trkpt lat="42.9430380" lon="0.8635920">
        <ele>896.8</ele>
        <time>2020-07-24T08:30:27Z</time>
      </trkpt>
      <trkpt lat="42.9430710" lon="0.8638160">
        <ele>897.8</ele>
        <time>2020-07-24T08:30:32Z</time>
      </trkpt>
      <trkpt lat="42.9430810" lon="0.8639060">
        <ele>898.2</ele>
        <time>2020-07-24T08:30:34Z</time>
      </trkpt>
      <trkpt lat="42.9431050" lon="0.8640300">
        <ele>898.8</ele>
        <time>2020-07-24T08:30:37Z</time>
      </trkpt>
      <trkpt lat="42.9431630" lon="0.8641850">
        <ele>899.4</ele>
        <time>2020-07-24T08:30:41Z</time>
      </trkpt>
      <trkpt lat="42.9431900" lon="0.8642530">
        <ele>900.2</ele>
        <time>2020-07-24T08:30:43Z</time>
      </trkpt>
      <trkpt lat="42.9432480" lon="0.8643780">
        <ele>901.4</ele>
        <time>2020-07-24T08:30:47Z</time>
      </trkpt>
      <trkpt lat="42.9432730" lon="0.8644340">
        <ele>901.8</ele>
        <time>2020-07-24T08:30:49Z</time>
      </trkpt>
      <trkpt lat="42.9432980" lon="0.8644920">
        <ele>902.4</ele>
        <time>2020-07-24T08:30:51Z</time>
      </trkpt>
      <trkpt lat="42.9433330" lon="0.8645800">
        <ele>903.4</ele>
        <time>2020-07-24T08:30:54Z</time>
      </trkpt>
      <trkpt lat="42.9433830" lon="0.8646980">
        <ele>904.4</ele>
        <time>2020-07-24T08:30:58Z</time>
      </trkpt>
      <trkpt lat="42.9433950" lon="0.8647280">
        <ele>904.6</ele>
        <time>2020-07-24T08:30:59Z</time>
      </trkpt>
      <trkpt lat="42.9434500" lon="0.8648420">
        <ele>905.8</ele>
        <time>2020-07-24T08:31:03Z</time>
      </trkpt>
      <trkpt lat="42.9434930" lon="0.8649220">
        <ele>906.8</ele>
        <time>2020-07-24T08:31:06Z</time>
      </trkpt>
      <trkpt lat="42.9435200" lon="0.8649750">
        <ele>907.4</ele>
        <time>2020-07-24T08:31:08Z</time>
      </trkpt>
      <trkpt lat="42.9435680" lon="0.8650450">
        <ele>908.0</ele>
        <time>2020-07-24T08:31:11Z</time>
      </trkpt>
      <trkpt lat="42.9436110" lon="0.8651150">
        <ele>909.0</ele>
        <time>2020-07-24T08:31:14Z</time>
      </trkpt>
      <trkpt lat="42.9436400" lon="0.8651640">
        <ele>909.4</ele>
        <time>2020-07-24T08:31:16Z</time>
      </trkpt>
      <trkpt lat="42.9436890" lon="0.8652540">
        <ele>909.8</ele>
        <time>2020-07-24T08:31:20Z</time>
      </trkpt>
      <trkpt lat="42.9437140" lon="0.8652960">
        <ele>910.2</ele>
        <time>2020-07-24T08:31:22Z</time>
      </trkpt>
      <trkpt lat="42.9437630" lon="0.8653680">
        <ele>911.6</ele>
        <time>2020-07-24T08:31:25Z</time>
      </trkpt>
      <trkpt lat="42.9438290" lon="0.8654610">
        <ele>912.6</ele>
        <time>2020-07-24T08:31:29Z</time>
      </trkpt>
      <trkpt lat="42.9438650" lon="0.8655080">
        <ele>913.2</ele>
        <time>2020-07-24T08:31:31Z</time>
      </trkpt>
      <trkpt lat="42.9439290" lon="0.8656070">
        <ele>913.8</ele>
        <time>2020-07-24T08:31:35Z</time>
      </trkpt>
      <trkpt lat="42.9439890" lon="0.8656960">
        <ele>915.0</ele>
        <time>2020-07-24T08:31:39Z</time>
      </trkpt>
      <trkpt lat="42.9440180" lon="0.8657450">
        <ele>915.2</ele>
        <time>2020-07-24T08:31:41Z</time>
      </trkpt>
      <trkpt lat="42.9440860" lon="0.8658030">
        <ele>916.0</ele>
        <time>2020-07-24T08:31:44Z</time>
      </trkpt>
      <trkpt lat="42.9441510" lon="0.8658070">
        <ele>916.4</ele>
        <time>2020-07-24T08:31:46Z</time>
      </trkpt>
      <trkpt lat="42.9441850" lon="0.8658020">
        <ele>916.6</ele>
        <time>2020-07-24T08:31:47Z</time>
      </trkpt>
      <trkpt lat="42.9442150" lon="0.8657910">
        <ele>916.6</ele>
        <time>2020-07-24T08:31:48Z</time>
      </trkpt>
      <trkpt lat="42.9442420" lon="0.8657700">
        <ele>916.6</ele>
        <time>2020-07-24T08:31:49Z</time>
      </trkpt>
      <trkpt lat="42.9442840" lon="0.8657040">
        <ele>916.8</ele>
        <time>2020-07-24T08:31:51Z</time>
      </trkpt>
      <trkpt lat="42.9443000" lon="0.8656270">
        <ele>917.0</ele>
        <time>2020-07-24T08:31:53Z</time>
      </trkpt>
      <trkpt lat="42.9442960" lon="0.8655410">
        <ele>917.4</ele>
        <time>2020-07-24T08:31:55Z</time>
      </trkpt>
      <trkpt lat="42.9442660" lon="0.8654210">
        <ele>918.2</ele>
        <time>2020-07-24T08:31:58Z</time>
      </trkpt>
      <trkpt lat="42.9442030" lon="0.8652680">
        <ele>919.0</ele>
        <time>2020-07-24T08:32:02Z</time>
      </trkpt>
      <trkpt lat="42.9441720" lon="0.8651530">
        <ele>919.4</ele>
        <time>2020-07-24T08:32:05Z</time>
      </trkpt>
      <trkpt lat="42.9441570" lon="0.8650420">
        <ele>920.0</ele>
        <time>2020-07-24T08:32:08Z</time>
      </trkpt>
      <trkpt lat="42.9441570" lon="0.8649730">
        <ele>920.6</ele>
        <time>2020-07-24T08:32:10Z</time>
      </trkpt>
      <trkpt lat="42.9441710" lon="0.8648420">
        <ele>921.8</ele>
        <time>2020-07-24T08:32:14Z</time>
      </trkpt>
      <trkpt lat="42.9441890" lon="0.8647460">
        <ele>922.6</ele>
        <time>2020-07-24T08:32:17Z</time>
      </trkpt>
      <trkpt lat="42.9441950" lon="0.8647130">
        <ele>923.0</ele>
        <time>2020-07-24T08:32:18Z</time>
      </trkpt>
      <trkpt lat="42.9442040" lon="0.8646440">
        <ele>923.6</ele>
        <time>2020-07-24T08:32:20Z</time>
      </trkpt>
      <trkpt lat="42.9442130" lon="0.8645790">
        <ele>924.2</ele>
        <time>2020-07-24T08:32:22Z</time>
      </trkpt>
      <trkpt lat="42.9442260" lon="0.8644820">
        <ele>925.0</ele>
        <time>2020-07-24T08:32:25Z</time>
      </trkpt>
      <trkpt lat="42.9442310" lon="0.8644480">
        <ele>925.2</ele>
        <time>2020-07-24T08:32:26Z</time>
      </trkpt>
      <trkpt lat="42.9442490" lon="0.8643830">
        <ele>926.0</ele>
        <time>2020-07-24T08:32:28Z</time>
      </trkpt>
      <trkpt lat="42.9442640" lon="0.8643150">
        <ele>926.6</ele>
        <time>2020-07-24T08:32:30Z</time>
      </trkpt>
      <trkpt lat="42.9442720" lon="0.8642470">
        <ele>927.2</ele>
        <time>2020-07-24T08:32:32Z</time>
      </trkpt>
      <trkpt lat="42.9442800" lon="0.8641830">
        <ele>927.8</ele>
        <time>2020-07-24T08:32:34Z</time>
      </trkpt>
      <trkpt lat="42.9442920" lon="0.8640890">
        <ele>928.8</ele>
        <time>2020-07-24T08:32:37Z</time>
      </trkpt>
      <trkpt lat="42.9443040" lon="0.8640280">
        <ele>929.4</ele>
        <time>2020-07-24T08:32:39Z</time>
      </trkpt>
      <trkpt lat="42.9443150" lon="0.8639670">
        <ele>929.8</ele>
        <time>2020-07-24T08:32:41Z</time>
      </trkpt>
      <trkpt lat="42.9443220" lon="0.8639360">
        <ele>930.0</ele>
        <time>2020-07-24T08:32:42Z</time>
      </trkpt>
      <trkpt lat="42.9443310" lon="0.8638720">
        <ele>930.6</ele>
        <time>2020-07-24T08:32:44Z</time>
      </trkpt>
      <trkpt lat="42.9443370" lon="0.8638100">
        <ele>931.0</ele>
        <time>2020-07-24T08:32:46Z</time>
      </trkpt>
      <trkpt lat="42.9443540" lon="0.8637180">
        <ele>932.2</ele>
        <time>2020-07-24T08:32:49Z</time>
      </trkpt>
      <trkpt lat="42.9443610" lon="0.8636890">
        <ele>932.4</ele>
        <time>2020-07-24T08:32:50Z</time>
      </trkpt>
      <trkpt lat="42.9443940" lon="0.8635220">
        <ele>933.0</ele>
        <time>2020-07-24T08:32:56Z</time>
      </trkpt>
      <trkpt lat="42.9443990" lon="0.8634870">
        <ele>933.4</ele>
        <time>2020-07-24T08:32:57Z</time>
      </trkpt>
      <trkpt lat="42.9444160" lon="0.8633870">
        <ele>934.4</ele>
        <time>2020-07-24T08:33:00Z</time>
      </trkpt>
      <trkpt lat="42.9444210" lon="0.8633540">
        <ele>934.6</ele>
        <time>2020-07-24T08:33:01Z</time>
      </trkpt>
      <trkpt lat="42.9444390" lon="0.8632270">
        <ele>935.8</ele>
        <time>2020-07-24T08:33:05Z</time>
      </trkpt>
      <trkpt lat="42.9444430" lon="0.8631970">
        <ele>936.0</ele>
        <time>2020-07-24T08:33:06Z</time>
      </trkpt>
      <trkpt lat="42.9444590" lon="0.8631040">
        <ele>936.8</ele>
        <time>2020-07-24T08:33:09Z</time>
      </trkpt>
      <trkpt lat="42.9444700" lon="0.8630410">
        <ele>937.4</ele>
        <time>2020-07-24T08:33:11Z</time>
      </trkpt>
      <trkpt lat="42.9444740" lon="0.8630080">
        <ele>937.6</ele>
        <time>2020-07-24T08:33:12Z</time>
      </trkpt>
      <trkpt lat="42.9444770" lon="0.8629770">
        <ele>937.6</ele>
        <time>2020-07-24T08:33:13Z</time>
      </trkpt>
      <trkpt lat="42.9444830" lon="0.8629470">
        <ele>937.8</ele>
        <time>2020-07-24T08:33:14Z</time>
      </trkpt>
      <trkpt lat="42.9444890" lon="0.8629170">
        <ele>938.4</ele>
        <time>2020-07-24T08:33:15Z</time>
      </trkpt>
      <trkpt lat="42.9445030" lon="0.8628500">
        <ele>939.2</ele>
        <time>2020-07-24T08:33:17Z</time>
      </trkpt>
      <trkpt lat="42.9445110" lon="0.8628170">
        <ele>939.4</ele>
        <time>2020-07-24T08:33:18Z</time>
      </trkpt>
      <trkpt lat="42.9445330" lon="0.8627220">
        <ele>940.2</ele>
        <time>2020-07-24T08:33:21Z</time>
      </trkpt>
      <trkpt lat="42.9445460" lon="0.8626600">
        <ele>940.6</ele>
        <time>2020-07-24T08:33:23Z</time>
      </trkpt>
      <trkpt lat="42.9445930" lon="0.8625120">
        <ele>941.8</ele>
        <time>2020-07-24T08:33:28Z</time>
      </trkpt>
      <trkpt lat="42.9446010" lon="0.8624840">
        <ele>942.2</ele>
        <time>2020-07-24T08:33:29Z</time>
      </trkpt>
      <trkpt lat="42.9446210" lon="0.8624260">
        <ele>943.0</ele>
        <time>2020-07-24T08:33:31Z</time>
      </trkpt>
      <trkpt lat="42.9446310" lon="0.8623960">
        <ele>943.2</ele>
        <time>2020-07-24T08:33:32Z</time>
      </trkpt>
      <trkpt lat="42.9446660" lon="0.8623080">
        <ele>944.0</ele>
        <time>2020-07-24T08:33:35Z</time>
      </trkpt>
      <trkpt lat="42.9446870" lon="0.8622450">
        <ele>944.4</ele>
        <time>2020-07-24T08:33:37Z</time>
      </trkpt>
      <trkpt lat="42.9447210" lon="0.8621560">
        <ele>945.2</ele>
        <time>2020-07-24T08:33:40Z</time>
      </trkpt>
      <trkpt lat="42.9447300" lon="0.8621260">
        <ele>945.4</ele>
        <time>2020-07-24T08:33:41Z</time>
      </trkpt>
      <trkpt lat="42.9447760" lon="0.8620150">
        <ele>946.2</ele>
        <time>2020-07-24T08:33:45Z</time>
      </trkpt>
      <trkpt lat="42.9448220" lon="0.8619040">
        <ele>947.4</ele>
        <time>2020-07-24T08:33:49Z</time>
      </trkpt>
      <trkpt lat="42.9448470" lon="0.8618500">
        <ele>948.2</ele>
        <time>2020-07-24T08:33:51Z</time>
      </trkpt>
      <trkpt lat="42.9448610" lon="0.8618220">
        <ele>948.4</ele>
        <time>2020-07-24T08:33:52Z</time>
      </trkpt>
      <trkpt lat="42.9449090" lon="0.8617100">
        <ele>949.4</ele>
        <time>2020-07-24T08:33:56Z</time>
      </trkpt>
      <trkpt lat="42.9449350" lon="0.8616560">
        <ele>949.8</ele>
        <time>2020-07-24T08:33:58Z</time>
      </trkpt>
      <trkpt lat="42.9449690" lon="0.8615730">
        <ele>950.8</ele>
        <time>2020-07-24T08:34:01Z</time>
      </trkpt>
      <trkpt lat="42.9450170" lon="0.8614640">
        <ele>951.6</ele>
        <time>2020-07-24T08:34:05Z</time>
      </trkpt>
      <trkpt lat="42.9450300" lon="0.8614350">
        <ele>951.8</ele>
        <time>2020-07-24T08:34:06Z</time>
      </trkpt>
      <trkpt lat="42.9451010" lon="0.8612800">
        <ele>953.0</ele>
        <time>2020-07-24T08:34:12Z</time>
      </trkpt>
      <trkpt lat="42.9451080" lon="0.8612510">
        <ele>953.2</ele>
        <time>2020-07-24T08:34:13Z</time>
      </trkpt>
      <trkpt lat="42.9451130" lon="0.8610820">
        <ele>954.2</ele>
        <time>2020-07-24T08:34:18Z</time>
      </trkpt>
      <trkpt lat="42.9451080" lon="0.8610440">
        <ele>954.6</ele>
        <time>2020-07-24T08:34:19Z</time>
      </trkpt>
      <trkpt lat="42.9451010" lon="0.8609780">
        <ele>955.6</ele>
        <time>2020-07-24T08:34:21Z</time>
      </trkpt>
      <trkpt lat="42.9450670" lon="0.8608510">
        <ele>956.8</ele>
        <time>2020-07-24T08:34:25Z</time>
      </trkpt>
      <trkpt lat="42.9450460" lon="0.8607920">
        <ele>957.4</ele>
        <time>2020-07-24T08:34:27Z</time>
      </trkpt>
      <trkpt lat="42.9450090" lon="0.8607070">
        <ele>958.0</ele>
        <time>2020-07-24T08:34:30Z</time>
      </trkpt>
      <trkpt lat="42.9449870" lon="0.8606200">
        <ele>958.6</ele>
        <time>2020-07-24T08:34:33Z</time>
      </trkpt>
      <trkpt lat="42.9449820" lon="0.8605890">
        <ele>958.8</ele>
        <time>2020-07-24T08:34:34Z</time>
      </trkpt>
      <trkpt lat="42.9449750" lon="0.8605630">
        <ele>959.2</ele>
        <time>2020-07-24T08:34:35Z</time>
      </trkpt>
      <trkpt lat="42.9449700" lon="0.8605350">
        <ele>959.4</ele>
        <time>2020-07-24T08:34:36Z</time>
      </trkpt>
      <trkpt lat="42.9449640" lon="0.8605080">
        <ele>959.8</ele>
        <time>2020-07-24T08:34:37Z</time>
      </trkpt>
      <trkpt lat="42.9449570" lon="0.8604790">
        <ele>960.0</ele>
        <time>2020-07-24T08:34:38Z</time>
      </trkpt>
      <trkpt lat="42.9449500" lon="0.8604500">
        <ele>960.4</ele>
        <time>2020-07-24T08:34:39Z</time>
      </trkpt>
      <trkpt lat="42.9449390" lon="0.8603650">
        <ele>961.0</ele>
        <time>2020-07-24T08:34:42Z</time>
      </trkpt>
      <trkpt lat="42.9449380" lon="0.8603090">
        <ele>961.6</ele>
        <time>2020-07-24T08:34:44Z</time>
      </trkpt>
      <trkpt lat="42.9449340" lon="0.8601610">
        <ele>962.6</ele>
        <time>2020-07-24T08:34:49Z</time>
      </trkpt>
      <trkpt lat="42.9449280" lon="0.8601030">
        <ele>963.0</ele>
        <time>2020-07-24T08:34:51Z</time>
      </trkpt>
      <trkpt lat="42.9449260" lon="0.8600390">
        <ele>963.8</ele>
        <time>2020-07-24T08:34:53Z</time>
      </trkpt>
      <trkpt lat="42.9449230" lon="0.8599120">
        <ele>964.8</ele>
        <time>2020-07-24T08:34:57Z</time>
      </trkpt>
      <trkpt lat="42.9449190" lon="0.8598150">
        <ele>965.4</ele>
        <time>2020-07-24T08:35:00Z</time>
      </trkpt>
      <trkpt lat="42.9449060" lon="0.8597180">
        <ele>966.0</ele>
        <time>2020-07-24T08:35:03Z</time>
      </trkpt>
      <trkpt lat="42.9449040" lon="0.8596270">
        <ele>967.0</ele>
        <time>2020-07-24T08:35:06Z</time>
      </trkpt>
      <trkpt lat="42.9449030" lon="0.8595940">
        <ele>967.2</ele>
        <time>2020-07-24T08:35:07Z</time>
      </trkpt>
      <trkpt lat="42.9448790" lon="0.8594680">
        <ele>968.4</ele>
        <time>2020-07-24T08:35:11Z</time>
      </trkpt>
      <trkpt lat="42.9448600" lon="0.8594050">
        <ele>968.8</ele>
        <time>2020-07-24T08:35:13Z</time>
      </trkpt>
      <trkpt lat="42.9448080" lon="0.8592980">
        <ele>969.4</ele>
        <time>2020-07-24T08:35:17Z</time>
      </trkpt>
      <trkpt lat="42.9447430" lon="0.8591980">
        <ele>970.2</ele>
        <time>2020-07-24T08:35:21Z</time>
      </trkpt>
      <trkpt lat="42.9447270" lon="0.8591790">
        <ele>970.4</ele>
        <time>2020-07-24T08:35:22Z</time>
      </trkpt>
      <trkpt lat="42.9446300" lon="0.8590680">
        <ele>971.2</ele>
        <time>2020-07-24T08:35:27Z</time>
      </trkpt>
      <trkpt lat="42.9446140" lon="0.8590450">
        <ele>971.6</ele>
        <time>2020-07-24T08:35:28Z</time>
      </trkpt>
      <trkpt lat="42.9445620" lon="0.8589520">
        <ele>972.8</ele>
        <time>2020-07-24T08:35:32Z</time>
      </trkpt>
      <trkpt lat="42.9445370" lon="0.8588880">
        <ele>973.4</ele>
        <time>2020-07-24T08:35:35Z</time>
      </trkpt>
      <trkpt lat="42.9445310" lon="0.8588630">
        <ele>973.8</ele>
        <time>2020-07-24T08:35:36Z</time>
      </trkpt>
      <trkpt lat="42.9445270" lon="0.8588360">
        <ele>974.2</ele>
        <time>2020-07-24T08:35:37Z</time>
      </trkpt>
      <trkpt lat="42.9445210" lon="0.8587790">
        <ele>974.6</ele>
        <time>2020-07-24T08:35:39Z</time>
      </trkpt>
      <trkpt lat="42.9445240" lon="0.8587460">
        <ele>974.8</ele>
        <time>2020-07-24T08:35:40Z</time>
      </trkpt>
      <trkpt lat="42.9445270" lon="0.8587140">
        <ele>975.0</ele>
        <time>2020-07-24T08:35:41Z</time>
      </trkpt>
      <trkpt lat="42.9445290" lon="0.8586860">
        <ele>975.2</ele>
        <time>2020-07-24T08:35:42Z</time>
      </trkpt>
      <trkpt lat="42.9445250" lon="0.8586260">
        <ele>976.0</ele>
        <time>2020-07-24T08:35:44Z</time>
      </trkpt>
      <trkpt lat="42.9445300" lon="0.8584910">
        <ele>977.0</ele>
        <time>2020-07-24T08:35:49Z</time>
      </trkpt>
      <trkpt lat="42.9445330" lon="0.8584410">
        <ele>977.6</ele>
        <time>2020-07-24T08:35:51Z</time>
      </trkpt>
      <trkpt lat="42.9445340" lon="0.8584180">
        <ele>977.8</ele>
        <time>2020-07-24T08:35:52Z</time>
      </trkpt>
      <trkpt lat="42.9445420" lon="0.8583620">
        <ele>978.0</ele>
        <time>2020-07-24T08:35:54Z</time>
      </trkpt>
      <trkpt lat="42.9445420" lon="0.8583350">
        <ele>978.2</ele>
        <time>2020-07-24T08:35:55Z</time>
      </trkpt>
      <trkpt lat="42.9445440" lon="0.8583090">
        <ele>978.4</ele>
        <time>2020-07-24T08:35:56Z</time>
      </trkpt>
      <trkpt lat="42.9445420" lon="0.8582820">
        <ele>978.6</ele>
        <time>2020-07-24T08:35:57Z</time>
      </trkpt>
      <trkpt lat="42.9445390" lon="0.8582560">
        <ele>979.0</ele>
        <time>2020-07-24T08:35:58Z</time>
      </trkpt>
      <trkpt lat="42.9445340" lon="0.8582280">
        <ele>979.2</ele>
        <time>2020-07-24T08:35:59Z</time>
      </trkpt>
      <trkpt lat="42.9445220" lon="0.8581920">
        <ele>979.4</ele>
        <time>2020-07-24T08:36:00Z</time>
      </trkpt>
      <trkpt lat="42.9445250" lon="0.8580440">
        <ele>980.6</ele>
        <time>2020-07-24T08:36:05Z</time>
      </trkpt>
      <trkpt lat="42.9445260" lon="0.8579900">
        <ele>981.2</ele>
        <time>2020-07-24T08:36:07Z</time>
      </trkpt>
      <trkpt lat="42.9445370" lon="0.8578960">
        <ele>981.4</ele>
        <time>2020-07-24T08:36:10Z</time>
      </trkpt>
      <trkpt lat="42.9445400" lon="0.8578240">
        <ele>981.8</ele>
        <time>2020-07-24T08:36:12Z</time>
      </trkpt>
      <trkpt lat="42.9445400" lon="0.8577890">
        <ele>982.0</ele>
        <time>2020-07-24T08:36:13Z</time>
      </trkpt>
      <trkpt lat="42.9445360" lon="0.8576960">
        <ele>983.0</ele>
        <time>2020-07-24T08:36:16Z</time>
      </trkpt>
      <trkpt lat="42.9445330" lon="0.8576660">
        <ele>983.4</ele>
        <time>2020-07-24T08:36:17Z</time>
      </trkpt>
      <trkpt lat="42.9445380" lon="0.8575700">
        <ele>984.2</ele>
        <time>2020-07-24T08:36:20Z</time>
      </trkpt>
      <trkpt lat="42.9445370" lon="0.8574730">
        <ele>984.8</ele>
        <time>2020-07-24T08:36:23Z</time>
      </trkpt>
      <trkpt lat="42.9445430" lon="0.8574050">
        <ele>985.6</ele>
        <time>2020-07-24T08:36:25Z</time>
      </trkpt>
      <trkpt lat="42.9445480" lon="0.8573390">
        <ele>986.2</ele>
        <time>2020-07-24T08:36:27Z</time>
      </trkpt>
      <trkpt lat="42.9445500" lon="0.8572410">
        <ele>986.6</ele>
        <time>2020-07-24T08:36:30Z</time>
      </trkpt>
      <trkpt lat="42.9445880" lon="0.8571140">
        <ele>987.6</ele>
        <time>2020-07-24T08:36:34Z</time>
      </trkpt>
      <trkpt lat="42.9446060" lon="0.8570870">
        <ele>987.8</ele>
        <time>2020-07-24T08:36:35Z</time>
      </trkpt>
      <trkpt lat="42.9447020" lon="0.8570600">
        <ele>988.8</ele>
        <time>2020-07-24T08:36:39Z</time>
      </trkpt>
      <trkpt lat="42.9447610" lon="0.8571200">
        <ele>989.4</ele>
        <time>2020-07-24T08:36:42Z</time>
      </trkpt>
      <trkpt lat="42.9447850" lon="0.8571880">
        <ele>990.0</ele>
        <time>2020-07-24T08:36:44Z</time>
      </trkpt>
      <trkpt lat="42.9448290" lon="0.8573980">
        <ele>991.0</ele>
        <time>2020-07-24T08:36:49Z</time>
      </trkpt>
      <trkpt lat="42.9448670" lon="0.8575160">
        <ele>992.0</ele>
        <time>2020-07-24T08:36:52Z</time>
      </trkpt>
      <trkpt lat="42.9448810" lon="0.8575510">
        <ele>992.4</ele>
        <time>2020-07-24T08:36:53Z</time>
      </trkpt>
      <trkpt lat="42.9449470" lon="0.8576770">
        <ele>993.6</ele>
        <time>2020-07-24T08:36:57Z</time>
      </trkpt>
      <trkpt lat="42.9450090" lon="0.8577840">
        <ele>994.8</ele>
        <time>2020-07-24T08:37:01Z</time>
      </trkpt>
      <trkpt lat="42.9450890" lon="0.8579020">
        <ele>995.8</ele>
        <time>2020-07-24T08:37:06Z</time>
      </trkpt>
      <trkpt lat="42.9451210" lon="0.8579480">
        <ele>996.4</ele>
        <time>2020-07-24T08:37:08Z</time>
      </trkpt>
      <trkpt lat="42.9451520" lon="0.8580040">
        <ele>997.0</ele>
        <time>2020-07-24T08:37:10Z</time>
      </trkpt>
      <trkpt lat="42.9452010" lon="0.8580850">
        <ele>997.8</ele>
        <time>2020-07-24T08:37:13Z</time>
      </trkpt>
      <trkpt lat="42.9452280" lon="0.8581380">
        <ele>998.2</ele>
        <time>2020-07-24T08:37:15Z</time>
      </trkpt>
      <trkpt lat="42.9452680" lon="0.8582160">
        <ele>999.0</ele>
        <time>2020-07-24T08:37:18Z</time>
      </trkpt>
      <trkpt lat="42.9452810" lon="0.8582420">
        <ele>999.4</ele>
        <time>2020-07-24T08:37:19Z</time>
      </trkpt>
      <trkpt lat="42.9453290" lon="0.8583440">
        <ele>1000.2</ele>
        <time>2020-07-24T08:37:23Z</time>
      </trkpt>
      <trkpt lat="42.9453400" lon="0.8583690">
        <ele>1000.4</ele>
        <time>2020-07-24T08:37:24Z</time>
      </trkpt>
      <trkpt lat="42.9453910" lon="0.8584760">
        <ele>1001.6</ele>
        <time>2020-07-24T08:37:28Z</time>
      </trkpt>
      <trkpt lat="42.9454410" lon="0.8585530">
        <ele>1002.4</ele>
        <time>2020-07-24T08:37:31Z</time>
      </trkpt>
      <trkpt lat="42.9454580" lon="0.8585790">
        <ele>1002.6</ele>
        <time>2020-07-24T08:37:32Z</time>
      </trkpt>
      <trkpt lat="42.9454940" lon="0.8586290">
        <ele>1002.8</ele>
        <time>2020-07-24T08:37:34Z</time>
      </trkpt>
      <trkpt lat="42.9455190" lon="0.8586820">
        <ele>1003.8</ele>
        <time>2020-07-24T08:37:36Z</time>
      </trkpt>
      <trkpt lat="42.9455960" lon="0.8588170">
        <ele>1004.8</ele>
        <time>2020-07-24T08:37:41Z</time>
      </trkpt>
      <trkpt lat="42.9456470" lon="0.8589450">
        <ele>1006.0</ele>
        <time>2020-07-24T08:37:45Z</time>
      </trkpt>
      <trkpt lat="42.9456890" lon="0.8590410">
        <ele>1006.6</ele>
        <time>2020-07-24T08:37:48Z</time>
      </trkpt>
      <trkpt lat="42.9457200" lon="0.8591030">
        <ele>1007.2</ele>
        <time>2020-07-24T08:37:50Z</time>
      </trkpt>
      <trkpt lat="42.9457720" lon="0.8592320">
        <ele>1008.4</ele>
        <time>2020-07-24T08:37:54Z</time>
      </trkpt>
      <trkpt lat="42.9457940" lon="0.8592950">
        <ele>1008.8</ele>
        <time>2020-07-24T08:37:56Z</time>
      </trkpt>
      <trkpt lat="42.9458240" lon="0.8593780">
        <ele>1009.6</ele>
        <time>2020-07-24T08:37:59Z</time>
      </trkpt>
      <trkpt lat="42.9458460" lon="0.8594350">
        <ele>1010.6</ele>
        <time>2020-07-24T08:38:02Z</time>
      </trkpt>
      <trkpt lat="42.9458950" lon="0.8595880">
        <ele>1011.4</ele>
        <time>2020-07-24T08:38:08Z</time>
      </trkpt>
      <trkpt lat="42.9459220" lon="0.8596710">
        <ele>1011.8</ele>
        <time>2020-07-24T08:38:11Z</time>
      </trkpt>
      <trkpt lat="42.9459610" lon="0.8597960">
        <ele>1013.2</ele>
        <time>2020-07-24T08:38:15Z</time>
      </trkpt>
      <trkpt lat="42.9459820" lon="0.8598870">
        <ele>1014.2</ele>
        <time>2020-07-24T08:38:18Z</time>
      </trkpt>
      <trkpt lat="42.9459900" lon="0.8599190">
        <ele>1014.4</ele>
        <time>2020-07-24T08:38:19Z</time>
      </trkpt>
      <trkpt lat="42.9460260" lon="0.8600130">
        <ele>1015.0</ele>
        <time>2020-07-24T08:38:22Z</time>
      </trkpt>
      <trkpt lat="42.9460630" lon="0.8600690">
        <ele>1015.4</ele>
        <time>2020-07-24T08:38:24Z</time>
      </trkpt>
      <trkpt lat="42.9461180" lon="0.8600980">
        <ele>1015.8</ele>
        <time>2020-07-24T08:38:26Z</time>
      </trkpt>
      <trkpt lat="42.9461460" lon="0.8600990">
        <ele>1015.8</ele>
        <time>2020-07-24T08:38:27Z</time>
      </trkpt>
      <trkpt lat="42.9462270" lon="0.8600580">
        <ele>1016.0</ele>
        <time>2020-07-24T08:38:30Z</time>
      </trkpt>
      <trkpt lat="42.9462650" lon="0.8599100">
        <ele>1016.4</ele>
        <time>2020-07-24T08:38:34Z</time>
      </trkpt>
      <trkpt lat="42.9462100" lon="0.8597110">
        <ele>1017.4</ele>
        <time>2020-07-24T08:38:39Z</time>
      </trkpt>
      <trkpt lat="42.9461980" lon="0.8596720">
        <ele>1017.8</ele>
        <time>2020-07-24T08:38:40Z</time>
      </trkpt>
      <trkpt lat="42.9461420" lon="0.8594820">
        <ele>1019.2</ele>
        <time>2020-07-24T08:38:45Z</time>
      </trkpt>
      <trkpt lat="42.9461230" lon="0.8593730">
        <ele>1020.0</ele>
        <time>2020-07-24T08:38:48Z</time>
      </trkpt>
      <trkpt lat="42.9461190" lon="0.8593370">
        <ele>1020.2</ele>
        <time>2020-07-24T08:38:49Z</time>
      </trkpt>
      <trkpt lat="42.9461080" lon="0.8591890">
        <ele>1021.4</ele>
        <time>2020-07-24T08:38:53Z</time>
      </trkpt>
      <trkpt lat="42.9461100" lon="0.8590780">
        <ele>1022.2</ele>
        <time>2020-07-24T08:38:56Z</time>
      </trkpt>
      <trkpt lat="42.9461130" lon="0.8590430">
        <ele>1022.6</ele>
        <time>2020-07-24T08:38:57Z</time>
      </trkpt>
      <trkpt lat="42.9461280" lon="0.8588640">
        <ele>1023.8</ele>
        <time>2020-07-24T08:39:02Z</time>
      </trkpt>
      <trkpt lat="42.9461320" lon="0.8587610">
        <ele>1024.6</ele>
        <time>2020-07-24T08:39:05Z</time>
      </trkpt>
      <trkpt lat="42.9461330" lon="0.8587260">
        <ele>1025.0</ele>
        <time>2020-07-24T08:39:06Z</time>
      </trkpt>
      <trkpt lat="42.9461400" lon="0.8585910">
        <ele>1026.2</ele>
        <time>2020-07-24T08:39:10Z</time>
      </trkpt>
      <trkpt lat="42.9461520" lon="0.8584520">
        <ele>1027.2</ele>
        <time>2020-07-24T08:39:14Z</time>
      </trkpt>
      <trkpt lat="42.9461560" lon="0.8584180">
        <ele>1027.6</ele>
        <time>2020-07-24T08:39:15Z</time>
      </trkpt>
      <trkpt lat="42.9461610" lon="0.8583870">
        <ele>1027.8</ele>
        <time>2020-07-24T08:39:16Z</time>
      </trkpt>
      <trkpt lat="42.9461750" lon="0.8582850">
        <ele>1028.4</ele>
        <time>2020-07-24T08:39:19Z</time>
      </trkpt>
      <trkpt lat="42.9462060" lon="0.8581570">
        <ele>1029.2</ele>
        <time>2020-07-24T08:39:23Z</time>
      </trkpt>
      <trkpt lat="42.9462150" lon="0.8581270">
        <ele>1029.6</ele>
        <time>2020-07-24T08:39:24Z</time>
      </trkpt>
      <trkpt lat="42.9462540" lon="0.8579560">
        <ele>1030.6</ele>
        <time>2020-07-24T08:39:29Z</time>
      </trkpt>
      <trkpt lat="42.9462680" lon="0.8578750">
        <ele>1031.2</ele>
        <time>2020-07-24T08:39:31Z</time>
      </trkpt>
      <trkpt lat="42.9462730" lon="0.8578340">
        <ele>1031.6</ele>
        <time>2020-07-24T08:39:32Z</time>
      </trkpt>
      <trkpt lat="42.9462760" lon="0.8577920">
        <ele>1031.8</ele>
        <time>2020-07-24T08:39:33Z</time>
      </trkpt>
      <trkpt lat="42.9462810" lon="0.8576640">
        <ele>1032.8</ele>
        <time>2020-07-24T08:39:36Z</time>
      </trkpt>
      <trkpt lat="42.9462900" lon="0.8575020">
        <ele>1034.0</ele>
        <time>2020-07-24T08:39:40Z</time>
      </trkpt>
      <trkpt lat="42.9462920" lon="0.8573890">
        <ele>1035.4</ele>
        <time>2020-07-24T08:39:43Z</time>
      </trkpt>
      <trkpt lat="42.9462940" lon="0.8572360">
        <ele>1036.6</ele>
        <time>2020-07-24T08:39:47Z</time>
      </trkpt>
      <trkpt lat="42.9463000" lon="0.8571230">
        <ele>1037.6</ele>
        <time>2020-07-24T08:39:50Z</time>
      </trkpt>
      <trkpt lat="42.9463370" lon="0.8569320">
        <ele>1038.6</ele>
        <time>2020-07-24T08:39:55Z</time>
      </trkpt>
      <trkpt lat="42.9463430" lon="0.8568970">
        <ele>1038.8</ele>
        <time>2020-07-24T08:39:56Z</time>
      </trkpt>
      <trkpt lat="42.9463540" lon="0.8568220">
        <ele>1039.0</ele>
        <time>2020-07-24T08:39:58Z</time>
      </trkpt>
      <trkpt lat="42.9463560" lon="0.8567850">
        <ele>1039.4</ele>
        <time>2020-07-24T08:39:59Z</time>
      </trkpt>
      <trkpt lat="42.9463540" lon="0.8567470">
        <ele>1039.8</ele>
        <time>2020-07-24T08:40:00Z</time>
      </trkpt>
      <trkpt lat="42.9463330" lon="0.8566260">
        <ele>1041.0</ele>
        <time>2020-07-24T08:40:03Z</time>
      </trkpt>
      <trkpt lat="42.9463120" lon="0.8565550">
        <ele>1041.6</ele>
        <time>2020-07-24T08:40:05Z</time>
      </trkpt>
      <trkpt lat="42.9462730" lon="0.8564560">
        <ele>1042.2</ele>
        <time>2020-07-24T08:40:08Z</time>
      </trkpt>
      <trkpt lat="42.9462120" lon="0.8563310">
        <ele>1043.2</ele>
        <time>2020-07-24T08:40:12Z</time>
      </trkpt>
      <trkpt lat="42.9461810" lon="0.8562670">
        <ele>1043.8</ele>
        <time>2020-07-24T08:40:14Z</time>
      </trkpt>
      <trkpt lat="42.9461250" lon="0.8561330">
        <ele>1044.4</ele>
        <time>2020-07-24T08:40:18Z</time>
      </trkpt>
      <trkpt lat="42.9460790" lon="0.8559940">
        <ele>1045.2</ele>
        <time>2020-07-24T08:40:22Z</time>
      </trkpt>
      <trkpt lat="42.9460590" lon="0.8559110">
        <ele>1045.6</ele>
        <time>2020-07-24T08:40:24Z</time>
      </trkpt>
      <trkpt lat="42.9460290" lon="0.8557600">
        <ele>1046.6</ele>
        <time>2020-07-24T08:40:28Z</time>
      </trkpt>
      <trkpt lat="42.9460070" lon="0.8556560">
        <ele>1047.8</ele>
        <time>2020-07-24T08:40:31Z</time>
      </trkpt>
      <trkpt lat="42.9459910" lon="0.8555220">
        <ele>1049.0</ele>
        <time>2020-07-24T08:40:35Z</time>
      </trkpt>
      <trkpt lat="42.9459900" lon="0.8554870">
        <ele>1049.2</ele>
        <time>2020-07-24T08:40:36Z</time>
      </trkpt>
      <trkpt lat="42.9459860" lon="0.8554160">
        <ele>1050.0</ele>
        <time>2020-07-24T08:40:38Z</time>
      </trkpt>
      <trkpt lat="42.9459830" lon="0.8553810">
        <ele>1050.2</ele>
        <time>2020-07-24T08:40:39Z</time>
      </trkpt>
      <trkpt lat="42.9459740" lon="0.8552380">
        <ele>1051.2</ele>
        <time>2020-07-24T08:40:43Z</time>
      </trkpt>
      <trkpt lat="42.9459700" lon="0.8551620">
        <ele>1052.0</ele>
        <time>2020-07-24T08:40:45Z</time>
      </trkpt>
      <trkpt lat="42.9459670" lon="0.8551260">
        <ele>1052.4</ele>
        <time>2020-07-24T08:40:46Z</time>
      </trkpt>
      <trkpt lat="42.9459390" lon="0.8549920">
        <ele>1053.4</ele>
        <time>2020-07-24T08:40:50Z</time>
      </trkpt>
      <trkpt lat="42.9458880" lon="0.8548990">
        <ele>1054.0</ele>
        <time>2020-07-24T08:40:53Z</time>
      </trkpt>
      <trkpt lat="42.9458160" lon="0.8548420">
        <ele>1054.8</ele>
        <time>2020-07-24T08:40:56Z</time>
      </trkpt>
      <trkpt lat="42.9457360" lon="0.8548030">
        <ele>1055.6</ele>
        <time>2020-07-24T08:40:59Z</time>
      </trkpt>
      <trkpt lat="42.9457080" lon="0.8547890">
        <ele>1055.8</ele>
        <time>2020-07-24T08:41:00Z</time>
      </trkpt>
      <trkpt lat="42.9456100" lon="0.8547330">
        <ele>1056.8</ele>
        <time>2020-07-24T08:41:04Z</time>
      </trkpt>
      <trkpt lat="42.9455850" lon="0.8547150">
        <ele>1056.8</ele>
        <time>2020-07-24T08:41:05Z</time>
      </trkpt>
      <trkpt lat="42.9455590" lon="0.8547000">
        <ele>1057.0</ele>
        <time>2020-07-24T08:41:06Z</time>
      </trkpt>
      <trkpt lat="42.9455100" lon="0.8546680">
        <ele>1057.6</ele>
        <time>2020-07-24T08:41:08Z</time>
      </trkpt>
      <trkpt lat="42.9454610" lon="0.8546370">
        <ele>1058.2</ele>
        <time>2020-07-24T08:41:10Z</time>
      </trkpt>
      <trkpt lat="42.9453650" lon="0.8545580">
        <ele>1059.4</ele>
        <time>2020-07-24T08:41:14Z</time>
      </trkpt>
      <trkpt lat="42.9453360" lon="0.8545430">
        <ele>1059.8</ele>
        <time>2020-07-24T08:41:15Z</time>
      </trkpt>
      <trkpt lat="42.9452520" lon="0.8545010">
        <ele>1060.4</ele>
        <time>2020-07-24T08:41:18Z</time>
      </trkpt>
      <trkpt lat="42.9451420" lon="0.8544410">
        <ele>1061.4</ele>
        <time>2020-07-24T08:41:22Z</time>
      </trkpt>
      <trkpt lat="42.9451190" lon="0.8544150">
        <ele>1061.6</ele>
        <time>2020-07-24T08:41:23Z</time>
      </trkpt>
      <trkpt lat="42.9450750" lon="0.8543630">
        <ele>1062.0</ele>
        <time>2020-07-24T08:41:25Z</time>
      </trkpt>
      <trkpt lat="42.9449990" lon="0.8542570">
        <ele>1063.0</ele>
        <time>2020-07-24T08:41:29Z</time>
      </trkpt>
      <trkpt lat="42.9449830" lon="0.8542240">
        <ele>1063.4</ele>
        <time>2020-07-24T08:41:30Z</time>
      </trkpt>
      <trkpt lat="42.9449570" lon="0.8541550">
        <ele>1064.4</ele>
        <time>2020-07-24T08:41:32Z</time>
      </trkpt>
      <trkpt lat="42.9448940" lon="0.8540260">
        <ele>1065.4</ele>
        <time>2020-07-24T08:41:36Z</time>
      </trkpt>
      <trkpt lat="42.9448420" lon="0.8539010">
        <ele>1066.6</ele>
        <time>2020-07-24T08:41:41Z</time>
      </trkpt>
      <trkpt lat="42.9447530" lon="0.8538160">
        <ele>1065.8</ele>
        <time>2020-07-24T08:45:48Z</time>
      </trkpt>
      <trkpt lat="42.9448030" lon="0.8539160">
        <ele>1065.6</ele>
        <time>2020-07-24T08:45:53Z</time>
      </trkpt>
      <trkpt lat="42.9448030" lon="0.8538610">
        <ele>1065.8</ele>
        <time>2020-07-24T08:45:56Z</time>
      </trkpt>
      <trkpt lat="42.9447100" lon="0.8536410">
        <ele>1066.4</ele>
        <time>2020-07-24T08:46:02Z</time>
      </trkpt>
      <trkpt lat="42.9446310" lon="0.8534930">
        <ele>1066.0</ele>
        <time>2020-07-24T08:46:05Z</time>
      </trkpt>
      <trkpt lat="42.9445480" lon="0.8533690">
        <ele>1065.6</ele>
        <time>2020-07-24T08:46:07Z</time>
      </trkpt>
      <trkpt lat="42.9444990" lon="0.8533040">
        <ele>1065.2</ele>
        <time>2020-07-24T08:46:08Z</time>
      </trkpt>
      <trkpt lat="42.9444460" lon="0.8532300">
        <ele>1064.8</ele>
        <time>2020-07-24T08:46:09Z</time>
      </trkpt>
      <trkpt lat="42.9443300" lon="0.8530540">
        <ele>1064.2</ele>
        <time>2020-07-24T08:46:11Z</time>
      </trkpt>
      <trkpt lat="42.9441450" lon="0.8527470">
        <ele>1063.0</ele>
        <time>2020-07-24T08:46:14Z</time>
      </trkpt>
      <trkpt lat="42.9440220" lon="0.8525470">
        <ele>1061.6</ele>
        <time>2020-07-24T08:46:16Z</time>
      </trkpt>
      <trkpt lat="42.9439580" lon="0.8524530">
        <ele>1060.6</ele>
        <time>2020-07-24T08:46:17Z</time>
      </trkpt>
      <trkpt lat="42.9438920" lon="0.8523670">
        <ele>1060.0</ele>
        <time>2020-07-24T08:46:18Z</time>
      </trkpt>
      <trkpt lat="42.9438240" lon="0.8522920">
        <ele>1059.2</ele>
        <time>2020-07-24T08:46:19Z</time>
      </trkpt>
      <trkpt lat="42.9437540" lon="0.8522320">
        <ele>1058.4</ele>
        <time>2020-07-24T08:46:20Z</time>
      </trkpt>
      <trkpt lat="42.9436820" lon="0.8521810">
        <ele>1057.4</ele>
        <time>2020-07-24T08:46:21Z</time>
      </trkpt>
      <trkpt lat="42.9436060" lon="0.8521330">
        <ele>1056.6</ele>
        <time>2020-07-24T08:46:22Z</time>
      </trkpt>
      <trkpt lat="42.9434510" lon="0.8520120">
        <ele>1054.6</ele>
        <time>2020-07-24T08:46:24Z</time>
      </trkpt>
      <trkpt lat="42.9433780" lon="0.8519180">
        <ele>1053.4</ele>
        <time>2020-07-24T08:46:25Z</time>
      </trkpt>
      <trkpt lat="42.9433080" lon="0.8518150">
        <ele>1051.8</ele>
        <time>2020-07-24T08:46:26Z</time>
      </trkpt>
      <trkpt lat="42.9432360" lon="0.8517060">
        <ele>1050.6</ele>
        <time>2020-07-24T08:46:27Z</time>
      </trkpt>
      <trkpt lat="42.9431020" lon="0.8514670">
        <ele>1049.0</ele>
        <time>2020-07-24T08:46:29Z</time>
      </trkpt>
      <trkpt lat="42.9429910" lon="0.8512330">
        <ele>1047.6</ele>
        <time>2020-07-24T08:46:31Z</time>
      </trkpt>
      <trkpt lat="42.9428840" lon="0.8509900">
        <ele>1045.2</ele>
        <time>2020-07-24T08:46:33Z</time>
      </trkpt>
      <trkpt lat="42.9428300" lon="0.8508620">
        <ele>1043.4</ele>
        <time>2020-07-24T08:46:34Z</time>
      </trkpt>
      <trkpt lat="42.9427780" lon="0.8507390">
        <ele>1041.8</ele>
        <time>2020-07-24T08:46:35Z</time>
      </trkpt>
      <trkpt lat="42.9427290" lon="0.8506250">
        <ele>1040.2</ele>
        <time>2020-07-24T08:46:36Z</time>
      </trkpt>
      <trkpt lat="42.9426370" lon="0.8504140">
        <ele>1038.4</ele>
        <time>2020-07-24T08:46:38Z</time>
      </trkpt>
      <trkpt lat="42.9425720" lon="0.8502170">
        <ele>1036.6</ele>
        <time>2020-07-24T08:46:40Z</time>
      </trkpt>
      <trkpt lat="42.9425550" lon="0.8501250">
        <ele>1035.6</ele>
        <time>2020-07-24T08:46:41Z</time>
      </trkpt>
      <trkpt lat="42.9425510" lon="0.8500380">
        <ele>1034.4</ele>
        <time>2020-07-24T08:46:42Z</time>
      </trkpt>
      <trkpt lat="42.9425590" lon="0.8499530">
        <ele>1032.8</ele>
        <time>2020-07-24T08:46:43Z</time>
      </trkpt>
      <trkpt lat="42.9426070" lon="0.8498130">
        <ele>1031.2</ele>
        <time>2020-07-24T08:46:45Z</time>
      </trkpt>
      <trkpt lat="42.9426970" lon="0.8497500">
        <ele>1030.6</ele>
        <time>2020-07-24T08:46:47Z</time>
      </trkpt>
      <trkpt lat="42.9427890" lon="0.8497640">
        <ele>1030.0</ele>
        <time>2020-07-24T08:46:48Z</time>
      </trkpt>
      <trkpt lat="42.9428780" lon="0.8497850">
        <ele>1029.6</ele>
        <time>2020-07-24T08:46:49Z</time>
      </trkpt>
      <trkpt lat="42.9430670" lon="0.8498380">
        <ele>1028.8</ele>
        <time>2020-07-24T08:46:51Z</time>
      </trkpt>
      <trkpt lat="42.9433750" lon="0.8499030">
        <ele>1027.2</ele>
        <time>2020-07-24T08:46:54Z</time>
      </trkpt>
      <trkpt lat="42.9435790" lon="0.8499450">
        <ele>1025.6</ele>
        <time>2020-07-24T08:46:56Z</time>
      </trkpt>
      <trkpt lat="42.9436770" lon="0.8499640">
        <ele>1024.4</ele>
        <time>2020-07-24T08:46:57Z</time>
      </trkpt>
      <trkpt lat="42.9437710" lon="0.8499780">
        <ele>1023.0</ele>
        <time>2020-07-24T08:46:58Z</time>
      </trkpt>
      <trkpt lat="42.9438650" lon="0.8499790">
        <ele>1022.0</ele>
        <time>2020-07-24T08:46:59Z</time>
      </trkpt>
      <trkpt lat="42.9439620" lon="0.8499640">
        <ele>1020.8</ele>
        <time>2020-07-24T08:47:00Z</time>
      </trkpt>
      <trkpt lat="42.9440610" lon="0.8499400">
        <ele>1020.2</ele>
        <time>2020-07-24T08:47:01Z</time>
      </trkpt>
      <trkpt lat="42.9441570" lon="0.8499100">
        <ele>1019.4</ele>
        <time>2020-07-24T08:47:02Z</time>
      </trkpt>
      <trkpt lat="42.9442540" lon="0.8498620">
        <ele>1018.4</ele>
        <time>2020-07-24T08:47:03Z</time>
      </trkpt>
      <trkpt lat="42.9443230" lon="0.8497730">
        <ele>1017.4</ele>
        <time>2020-07-24T08:47:04Z</time>
      </trkpt>
      <trkpt lat="42.9443860" lon="0.8496670">
        <ele>1016.6</ele>
        <time>2020-07-24T08:47:05Z</time>
      </trkpt>
      <trkpt lat="42.9444330" lon="0.8495430">
        <ele>1016.2</ele>
        <time>2020-07-24T08:47:06Z</time>
      </trkpt>
      <trkpt lat="42.9444970" lon="0.8492620">
        <ele>1014.2</ele>
        <time>2020-07-24T08:47:08Z</time>
      </trkpt>
      <trkpt lat="42.9445180" lon="0.8491140">
        <ele>1013.2</ele>
        <time>2020-07-24T08:47:09Z</time>
      </trkpt>
      <trkpt lat="42.9445300" lon="0.8489600">
        <ele>1012.4</ele>
        <time>2020-07-24T08:47:10Z</time>
      </trkpt>
      <trkpt lat="42.9445330" lon="0.8486420">
        <ele>1010.8</ele>
        <time>2020-07-24T08:47:12Z</time>
      </trkpt>
      <trkpt lat="42.9445290" lon="0.8484810">
        <ele>1009.8</ele>
        <time>2020-07-24T08:47:13Z</time>
      </trkpt>
      <trkpt lat="42.9445280" lon="0.8481560">
        <ele>1007.8</ele>
        <time>2020-07-24T08:47:15Z</time>
      </trkpt>
      <trkpt lat="42.9445350" lon="0.8479970">
        <ele>1006.6</ele>
        <time>2020-07-24T08:47:16Z</time>
      </trkpt>
      <trkpt lat="42.9445460" lon="0.8478440">
        <ele>1005.2</ele>
        <time>2020-07-24T08:47:17Z</time>
      </trkpt>
      <trkpt lat="42.9445500" lon="0.8476890">
        <ele>1004.0</ele>
        <time>2020-07-24T08:47:18Z</time>
      </trkpt>
      <trkpt lat="42.9445550" lon="0.8475360">
        <ele>1002.4</ele>
        <time>2020-07-24T08:47:19Z</time>
      </trkpt>
      <trkpt lat="42.9445520" lon="0.8473790">
        <ele>1001.0</ele>
        <time>2020-07-24T08:47:20Z</time>
      </trkpt>
      <trkpt lat="42.9445380" lon="0.8472220">
        <ele>1000.0</ele>
        <time>2020-07-24T08:47:21Z</time>
      </trkpt>
      <trkpt lat="42.9445240" lon="0.8470680">
        <ele>998.8</ele>
        <time>2020-07-24T08:47:22Z</time>
      </trkpt>
      <trkpt lat="42.9445130" lon="0.8469130">
        <ele>997.8</ele>
        <time>2020-07-24T08:47:23Z</time>
      </trkpt>
      <trkpt lat="42.9445060" lon="0.8467570">
        <ele>996.4</ele>
        <time>2020-07-24T08:47:24Z</time>
      </trkpt>
      <trkpt lat="42.9445060" lon="0.8466050">
        <ele>995.0</ele>
        <time>2020-07-24T08:47:25Z</time>
      </trkpt>
      <trkpt lat="42.9445200" lon="0.8464540">
        <ele>993.8</ele>
        <time>2020-07-24T08:47:26Z</time>
      </trkpt>
      <trkpt lat="42.9445440" lon="0.8463100">
        <ele>992.6</ele>
        <time>2020-07-24T08:47:27Z</time>
      </trkpt>
      <trkpt lat="42.9445830" lon="0.8461740">
        <ele>991.2</ele>
        <time>2020-07-24T08:47:28Z</time>
      </trkpt>
      <trkpt lat="42.9446280" lon="0.8460440">
        <ele>989.8</ele>
        <time>2020-07-24T08:47:29Z</time>
      </trkpt>
      <trkpt lat="42.9446770" lon="0.8459290">
        <ele>988.6</ele>
        <time>2020-07-24T08:47:30Z</time>
      </trkpt>
      <trkpt lat="42.9447250" lon="0.8458220">
        <ele>987.6</ele>
        <time>2020-07-24T08:47:31Z</time>
      </trkpt>
      <trkpt lat="42.9447690" lon="0.8457120">
        <ele>986.0</ele>
        <time>2020-07-24T08:47:32Z</time>
      </trkpt>
      <trkpt lat="42.9448030" lon="0.8456040">
        <ele>984.6</ele>
        <time>2020-07-24T08:47:33Z</time>
      </trkpt>
      <trkpt lat="42.9448290" lon="0.8455010">
        <ele>983.4</ele>
        <time>2020-07-24T08:47:34Z</time>
      </trkpt>
      <trkpt lat="42.9448480" lon="0.8454050">
        <ele>982.0</ele>
        <time>2020-07-24T08:47:35Z</time>
      </trkpt>
      <trkpt lat="42.9448660" lon="0.8453130">
        <ele>980.8</ele>
        <time>2020-07-24T08:47:36Z</time>
      </trkpt>
      <trkpt lat="42.9448870" lon="0.8452170">
        <ele>980.0</ele>
        <time>2020-07-24T08:47:37Z</time>
      </trkpt>
      <trkpt lat="42.9449070" lon="0.8451150">
        <ele>979.4</ele>
        <time>2020-07-24T08:47:38Z</time>
      </trkpt>
      <trkpt lat="42.9449450" lon="0.8449140">
        <ele>978.2</ele>
        <time>2020-07-24T08:47:40Z</time>
      </trkpt>
      <trkpt lat="42.9449540" lon="0.8448160">
        <ele>977.4</ele>
        <time>2020-07-24T08:47:41Z</time>
      </trkpt>
      <trkpt lat="42.9449300" lon="0.8447130">
        <ele>976.4</ele>
        <time>2020-07-24T08:47:42Z</time>
      </trkpt>
      <trkpt lat="42.9448990" lon="0.8446140">
        <ele>975.2</ele>
        <time>2020-07-24T08:47:43Z</time>
      </trkpt>
      <trkpt lat="42.9448580" lon="0.8445090">
        <ele>974.4</ele>
        <time>2020-07-24T08:47:44Z</time>
      </trkpt>
      <trkpt lat="42.9448160" lon="0.8443970">
        <ele>973.6</ele>
        <time>2020-07-24T08:47:45Z</time>
      </trkpt>
      <trkpt lat="42.9447280" lon="0.8441720">
        <ele>972.4</ele>
        <time>2020-07-24T08:47:47Z</time>
      </trkpt>
      <trkpt lat="42.9446480" lon="0.8439200">
        <ele>970.8</ele>
        <time>2020-07-24T08:47:49Z</time>
      </trkpt>
      <trkpt lat="42.9446230" lon="0.8437930">
        <ele>969.8</ele>
        <time>2020-07-24T08:47:50Z</time>
      </trkpt>
      <trkpt lat="42.9446070" lon="0.8436720">
        <ele>969.0</ele>
        <time>2020-07-24T08:47:51Z</time>
      </trkpt>
      <trkpt lat="42.9445650" lon="0.8434400">
        <ele>966.8</ele>
        <time>2020-07-24T08:47:53Z</time>
      </trkpt>
      <trkpt lat="42.9445180" lon="0.8433310">
        <ele>965.6</ele>
        <time>2020-07-24T08:47:54Z</time>
      </trkpt>
      <trkpt lat="42.9444680" lon="0.8432230">
        <ele>964.4</ele>
        <time>2020-07-24T08:47:55Z</time>
      </trkpt>
      <trkpt lat="42.9444060" lon="0.8431280">
        <ele>963.4</ele>
        <time>2020-07-24T08:47:56Z</time>
      </trkpt>
      <trkpt lat="42.9443380" lon="0.8430370">
        <ele>962.4</ele>
        <time>2020-07-24T08:47:57Z</time>
      </trkpt>
      <trkpt lat="42.9442660" lon="0.8429500">
        <ele>961.6</ele>
        <time>2020-07-24T08:47:58Z</time>
      </trkpt>
      <trkpt lat="42.9441190" lon="0.8428200">
        <ele>960.0</ele>
        <time>2020-07-24T08:48:00Z</time>
      </trkpt>
      <trkpt lat="42.9440510" lon="0.8427720">
        <ele>959.0</ele>
        <time>2020-07-24T08:48:01Z</time>
      </trkpt>
      <trkpt lat="42.9439880" lon="0.8427270">
        <ele>957.8</ele>
        <time>2020-07-24T08:48:02Z</time>
      </trkpt>
      <trkpt lat="42.9439340" lon="0.8426690">
        <ele>956.4</ele>
        <time>2020-07-24T08:48:03Z</time>
      </trkpt>
      <trkpt lat="42.9438960" lon="0.8425870">
        <ele>955.2</ele>
        <time>2020-07-24T08:48:04Z</time>
      </trkpt>
      <trkpt lat="42.9438880" lon="0.8424850">
        <ele>954.2</ele>
        <time>2020-07-24T08:48:05Z</time>
      </trkpt>
      <trkpt lat="42.9439200" lon="0.8422630">
        <ele>952.4</ele>
        <time>2020-07-24T08:48:07Z</time>
      </trkpt>
      <trkpt lat="42.9439520" lon="0.8421670">
        <ele>951.8</ele>
        <time>2020-07-24T08:48:08Z</time>
      </trkpt>
      <trkpt lat="42.9439770" lon="0.8420590">
        <ele>951.2</ele>
        <time>2020-07-24T08:48:09Z</time>
      </trkpt>
      <trkpt lat="42.9439920" lon="0.8419400">
        <ele>950.8</ele>
        <time>2020-07-24T08:48:10Z</time>
      </trkpt>
      <trkpt lat="42.9439960" lon="0.8418110">
        <ele>950.2</ele>
        <time>2020-07-24T08:48:11Z</time>
      </trkpt>
      <trkpt lat="42.9439970" lon="0.8416780">
        <ele>949.4</ele>
        <time>2020-07-24T08:48:12Z</time>
      </trkpt>
      <trkpt lat="42.9439880" lon="0.8415510">
        <ele>948.4</ele>
        <time>2020-07-24T08:48:13Z</time>
      </trkpt>
      <trkpt lat="42.9439330" lon="0.8413120">
        <ele>946.8</ele>
        <time>2020-07-24T08:48:15Z</time>
      </trkpt>
      <trkpt lat="42.9438960" lon="0.8411850">
        <ele>946.0</ele>
        <time>2020-07-24T08:48:16Z</time>
      </trkpt>
      <trkpt lat="42.9438580" lon="0.8410720">
        <ele>945.0</ele>
        <time>2020-07-24T08:48:17Z</time>
      </trkpt>
      <trkpt lat="42.9438090" lon="0.8409680">
        <ele>943.8</ele>
        <time>2020-07-24T08:48:18Z</time>
      </trkpt>
      <trkpt lat="42.9437470" lon="0.8408730">
        <ele>942.8</ele>
        <time>2020-07-24T08:48:19Z</time>
      </trkpt>
      <trkpt lat="42.9436020" lon="0.8406960">
        <ele>941.4</ele>
        <time>2020-07-24T08:48:21Z</time>
      </trkpt>
      <trkpt lat="42.9434520" lon="0.8405160">
        <ele>939.8</ele>
        <time>2020-07-24T08:48:23Z</time>
      </trkpt>
      <trkpt lat="42.9433860" lon="0.8404130">
        <ele>938.6</ele>
        <time>2020-07-24T08:48:24Z</time>
      </trkpt>
      <trkpt lat="42.9433250" lon="0.8403000">
        <ele>937.4</ele>
        <time>2020-07-24T08:48:25Z</time>
      </trkpt>
      <trkpt lat="42.9432690" lon="0.8401830">
        <ele>936.4</ele>
        <time>2020-07-24T08:48:26Z</time>
      </trkpt>
      <trkpt lat="42.9432140" lon="0.8400600">
        <ele>935.6</ele>
        <time>2020-07-24T08:48:27Z</time>
      </trkpt>
      <trkpt lat="42.9431720" lon="0.8399330">
        <ele>934.8</ele>
        <time>2020-07-24T08:48:28Z</time>
      </trkpt>
      <trkpt lat="42.9431090" lon="0.8396920">
        <ele>932.8</ele>
        <time>2020-07-24T08:48:30Z</time>
      </trkpt>
      <trkpt lat="42.9430660" lon="0.8395860">
        <ele>931.4</ele>
        <time>2020-07-24T08:48:31Z</time>
      </trkpt>
      <trkpt lat="42.9430070" lon="0.8394940">
        <ele>929.8</ele>
        <time>2020-07-24T08:48:32Z</time>
      </trkpt>
      <trkpt lat="42.9429280" lon="0.8394330">
        <ele>928.4</ele>
        <time>2020-07-24T08:48:33Z</time>
      </trkpt>
      <trkpt lat="42.9428430" lon="0.8393780">
        <ele>927.6</ele>
        <time>2020-07-24T08:48:34Z</time>
      </trkpt>
      <trkpt lat="42.9427550" lon="0.8393260">
        <ele>926.8</ele>
        <time>2020-07-24T08:48:35Z</time>
      </trkpt>
      <trkpt lat="42.9425900" lon="0.8392380">
        <ele>925.0</ele>
        <time>2020-07-24T08:48:37Z</time>
      </trkpt>
      <trkpt lat="42.9425200" lon="0.8391980">
        <ele>923.2</ele>
        <time>2020-07-24T08:48:38Z</time>
      </trkpt>
      <trkpt lat="42.9424710" lon="0.8391460">
        <ele>921.6</ele>
        <time>2020-07-24T08:48:39Z</time>
      </trkpt>
      <trkpt lat="42.9424340" lon="0.8390880">
        <ele>920.6</ele>
        <time>2020-07-24T08:48:40Z</time>
      </trkpt>
      <trkpt lat="42.9424090" lon="0.8390330">
        <ele>919.4</ele>
        <time>2020-07-24T08:48:41Z</time>
      </trkpt>
      <trkpt lat="42.9424780" lon="0.8388730">
        <ele>918.0</ele>
        <time>2020-07-24T08:48:43Z</time>
      </trkpt>
      <trkpt lat="42.9425780" lon="0.8387540">
        <ele>917.2</ele>
        <time>2020-07-24T08:48:45Z</time>
      </trkpt>
      <trkpt lat="42.9426500" lon="0.8387160">
        <ele>916.8</ele>
        <time>2020-07-24T08:48:46Z</time>
      </trkpt>
      <trkpt lat="42.9427390" lon="0.8386820">
        <ele>916.2</ele>
        <time>2020-07-24T08:48:47Z</time>
      </trkpt>
      <trkpt lat="42.9428440" lon="0.8386290">
        <ele>915.6</ele>
        <time>2020-07-24T08:48:48Z</time>
      </trkpt>
      <trkpt lat="42.9429530" lon="0.8385830">
        <ele>915.2</ele>
        <time>2020-07-24T08:48:49Z</time>
      </trkpt>
      <trkpt lat="42.9430640" lon="0.8385520">
        <ele>914.4</ele>
        <time>2020-07-24T08:48:50Z</time>
      </trkpt>
      <trkpt lat="42.9432370" lon="0.8384730">
        <ele>912.8</ele>
        <time>2020-07-24T08:48:52Z</time>
      </trkpt>
      <trkpt lat="42.9432980" lon="0.8384160">
        <ele>912.0</ele>
        <time>2020-07-24T08:48:53Z</time>
      </trkpt>
      <trkpt lat="42.9433520" lon="0.8383220">
        <ele>911.2</ele>
        <time>2020-07-24T08:48:54Z</time>
      </trkpt>
      <trkpt lat="42.9433560" lon="0.8380990">
        <ele>909.6</ele>
        <time>2020-07-24T08:48:56Z</time>
      </trkpt>
      <trkpt lat="42.9432930" lon="0.8378400">
        <ele>908.4</ele>
        <time>2020-07-24T08:48:58Z</time>
      </trkpt>
      <trkpt lat="42.9432430" lon="0.8377130">
        <ele>907.6</ele>
        <time>2020-07-24T08:48:59Z</time>
      </trkpt>
      <trkpt lat="42.9431990" lon="0.8375970">
        <ele>906.8</ele>
        <time>2020-07-24T08:49:00Z</time>
      </trkpt>
      <trkpt lat="42.9431050" lon="0.8373720">
        <ele>906.0</ele>
        <time>2020-07-24T08:49:02Z</time>
      </trkpt>
      <trkpt lat="42.9430600" lon="0.8372630">
        <ele>905.2</ele>
        <time>2020-07-24T08:49:03Z</time>
      </trkpt>
      <trkpt lat="42.9430170" lon="0.8371610">
        <ele>904.0</ele>
        <time>2020-07-24T08:49:04Z</time>
      </trkpt>
      <trkpt lat="42.9429780" lon="0.8370630">
        <ele>902.8</ele>
        <time>2020-07-24T08:49:05Z</time>
      </trkpt>
      <trkpt lat="42.9429380" lon="0.8369700">
        <ele>901.6</ele>
        <time>2020-07-24T08:49:06Z</time>
      </trkpt>
      <trkpt lat="42.9429060" lon="0.8368640">
        <ele>900.6</ele>
        <time>2020-07-24T08:49:07Z</time>
      </trkpt>
      <trkpt lat="42.9428830" lon="0.8367470">
        <ele>899.4</ele>
        <time>2020-07-24T08:49:08Z</time>
      </trkpt>
      <trkpt lat="42.9428590" lon="0.8366290">
        <ele>898.4</ele>
        <time>2020-07-24T08:49:09Z</time>
      </trkpt>
      <trkpt lat="42.9428480" lon="0.8364960">
        <ele>897.6</ele>
        <time>2020-07-24T08:49:10Z</time>
      </trkpt>
      <trkpt lat="42.9428350" lon="0.8362240">
        <ele>896.6</ele>
        <time>2020-07-24T08:49:12Z</time>
      </trkpt>
      <trkpt lat="42.9428320" lon="0.8360930">
        <ele>895.8</ele>
        <time>2020-07-24T08:49:13Z</time>
      </trkpt>
      <trkpt lat="42.9428300" lon="0.8359760">
        <ele>894.6</ele>
        <time>2020-07-24T08:49:14Z</time>
      </trkpt>
      <trkpt lat="42.9428120" lon="0.8358730">
        <ele>893.2</ele>
        <time>2020-07-24T08:49:15Z</time>
      </trkpt>
      <trkpt lat="42.9427840" lon="0.8357880">
        <ele>892.2</ele>
        <time>2020-07-24T08:49:16Z</time>
      </trkpt>
      <trkpt lat="42.9427460" lon="0.8357100">
        <ele>891.4</ele>
        <time>2020-07-24T08:49:17Z</time>
      </trkpt>
      <trkpt lat="42.9426410" lon="0.8356470">
        <ele>889.8</ele>
        <time>2020-07-24T08:49:19Z</time>
      </trkpt>
      <trkpt lat="42.9425640" lon="0.8356420">
        <ele>887.8</ele>
        <time>2020-07-24T08:49:21Z</time>
      </trkpt>
      <trkpt lat="42.9425420" lon="0.8356450">
        <ele>886.8</ele>
        <time>2020-07-24T08:49:22Z</time>
      </trkpt>
      <trkpt lat="42.9424800" lon="0.8356880">
        <ele>885.8</ele>
        <time>2020-07-24T08:49:23Z</time>
      </trkpt>
      <trkpt lat="42.9424270" lon="0.8357210">
        <ele>883.4</ele>
        <time>2020-07-24T08:50:00Z</time>
      </trkpt>
      <trkpt lat="42.9423730" lon="0.8357550">
        <ele>883.4</ele>
        <time>2020-07-24T08:50:01Z</time>
      </trkpt>
      <trkpt lat="42.9421260" lon="0.8357220">
        <ele>882.6</ele>
        <time>2020-07-24T08:50:05Z</time>
      </trkpt>
      <trkpt lat="42.9420450" lon="0.8357120">
        <ele>882.4</ele>
        <time>2020-07-24T08:50:06Z</time>
      </trkpt>
      <trkpt lat="42.9419620" lon="0.8356940">
        <ele>882.4</ele>
        <time>2020-07-24T08:50:07Z</time>
      </trkpt>
      <trkpt lat="42.9418800" lon="0.8356770">
        <ele>882.2</ele>
        <time>2020-07-24T08:50:08Z</time>
      </trkpt>
      <trkpt lat="42.9417980" lon="0.8356160">
        <ele>881.6</ele>
        <time>2020-07-24T08:50:09Z</time>
      </trkpt>
      <trkpt lat="42.9416610" lon="0.8355030">
        <ele>880.6</ele>
        <time>2020-07-24T08:50:11Z</time>
      </trkpt>
      <trkpt lat="42.9416060" lon="0.8354530">
        <ele>879.6</ele>
        <time>2020-07-24T08:50:12Z</time>
      </trkpt>
      <trkpt lat="42.9415550" lon="0.8353940">
        <ele>878.6</ele>
        <time>2020-07-24T08:50:13Z</time>
      </trkpt>
      <trkpt lat="42.9415090" lon="0.8353310">
        <ele>878.0</ele>
        <time>2020-07-24T08:50:14Z</time>
      </trkpt>
      <trkpt lat="42.9414390" lon="0.8352220">
        <ele>876.6</ele>
        <time>2020-07-24T08:50:16Z</time>
      </trkpt>
      <trkpt lat="42.9414280" lon="0.8351860">
        <ele>875.8</ele>
        <time>2020-07-24T08:50:17Z</time>
      </trkpt>
      <trkpt lat="42.9414440" lon="0.8351630">
        <ele>875.2</ele>
        <time>2020-07-24T08:50:18Z</time>
      </trkpt>
      <trkpt lat="42.9414720" lon="0.8351710">
        <ele>874.4</ele>
        <time>2020-07-24T08:50:19Z</time>
      </trkpt>
      <trkpt lat="42.9415090" lon="0.8351800">
        <ele>874.0</ele>
        <time>2020-07-24T08:50:20Z</time>
      </trkpt>
      <trkpt lat="42.9415600" lon="0.8352110">
        <ele>873.4</ele>
        <time>2020-07-24T08:50:21Z</time>
      </trkpt>
      <trkpt lat="42.9416300" lon="0.8352440">
        <ele>873.0</ele>
        <time>2020-07-24T08:50:22Z</time>
      </trkpt>
      <trkpt lat="42.9417220" lon="0.8352450">
        <ele>872.6</ele>
        <time>2020-07-24T08:50:23Z</time>
      </trkpt>
      <trkpt lat="42.9419690" lon="0.8352720">
        <ele>871.4</ele>
        <time>2020-07-24T08:50:26Z</time>
      </trkpt>
      <trkpt lat="42.9421640" lon="0.8352230">
        <ele>870.0</ele>
        <time>2020-07-24T08:50:28Z</time>
      </trkpt>
      <trkpt lat="42.9422390" lon="0.8352010">
        <ele>869.4</ele>
        <time>2020-07-24T08:50:29Z</time>
      </trkpt>
      <trkpt lat="42.9423140" lon="0.8351810">
        <ele>868.4</ele>
        <time>2020-07-24T08:50:30Z</time>
      </trkpt>
      <trkpt lat="42.9423860" lon="0.8351580">
        <ele>867.4</ele>
        <time>2020-07-24T08:50:31Z</time>
      </trkpt>
      <trkpt lat="42.9425270" lon="0.8350960">
        <ele>865.4</ele>
        <time>2020-07-24T08:50:33Z</time>
      </trkpt>
      <trkpt lat="42.9426010" lon="0.8350510">
        <ele>864.4</ele>
        <time>2020-07-24T08:50:34Z</time>
      </trkpt>
      <trkpt lat="42.9426740" lon="0.8350160">
        <ele>863.4</ele>
        <time>2020-07-24T08:50:35Z</time>
      </trkpt>
      <trkpt lat="42.9427470" lon="0.8349670">
        <ele>862.2</ele>
        <time>2020-07-24T08:50:36Z</time>
      </trkpt>
      <trkpt lat="42.9428240" lon="0.8349220">
        <ele>860.8</ele>
        <time>2020-07-24T08:50:37Z</time>
      </trkpt>
      <trkpt lat="42.9428970" lon="0.8348780">
        <ele>859.6</ele>
        <time>2020-07-24T08:50:38Z</time>
      </trkpt>
      <trkpt lat="42.9429750" lon="0.8348290">
        <ele>858.8</ele>
        <time>2020-07-24T08:50:39Z</time>
      </trkpt>
      <trkpt lat="42.9430490" lon="0.8347780">
        <ele>857.6</ele>
        <time>2020-07-24T08:50:40Z</time>
      </trkpt>
      <trkpt lat="42.9431180" lon="0.8347260">
        <ele>856.4</ele>
        <time>2020-07-24T08:50:41Z</time>
      </trkpt>
      <trkpt lat="42.9431860" lon="0.8346720">
        <ele>855.0</ele>
        <time>2020-07-24T08:50:42Z</time>
      </trkpt>
      <trkpt lat="42.9432490" lon="0.8346100">
        <ele>853.8</ele>
        <time>2020-07-24T08:50:43Z</time>
      </trkpt>
      <trkpt lat="42.9433070" lon="0.8345520">
        <ele>852.6</ele>
        <time>2020-07-24T08:50:44Z</time>
      </trkpt>
      <trkpt lat="42.9433620" lon="0.8344930">
        <ele>851.2</ele>
        <time>2020-07-24T08:50:45Z</time>
      </trkpt>
      <trkpt lat="42.9434190" lon="0.8344250">
        <ele>850.0</ele>
        <time>2020-07-24T08:50:46Z</time>
      </trkpt>
      <trkpt lat="42.9434690" lon="0.8343220">
        <ele>848.8</ele>
        <time>2020-07-24T08:50:47Z</time>
      </trkpt>
      <trkpt lat="42.9435530" lon="0.8342180">
        <ele>847.6</ele>
        <time>2020-07-24T08:50:48Z</time>
      </trkpt>
      <trkpt lat="42.9436060" lon="0.8341340">
        <ele>846.4</ele>
        <time>2020-07-24T08:50:49Z</time>
      </trkpt>
      <trkpt lat="42.9436510" lon="0.8340380">
        <ele>845.4</ele>
        <time>2020-07-24T08:50:50Z</time>
      </trkpt>
      <trkpt lat="42.9436950" lon="0.8339290">
        <ele>844.8</ele>
        <time>2020-07-24T08:50:51Z</time>
      </trkpt>
      <trkpt lat="42.9438480" lon="0.8335540">
        <ele>843.4</ele>
        <time>2020-07-24T08:50:54Z</time>
      </trkpt>
      <trkpt lat="42.9439500" lon="0.8332970">
        <ele>842.0</ele>
        <time>2020-07-24T08:50:56Z</time>
      </trkpt>
      <trkpt lat="42.9440580" lon="0.8330400">
        <ele>840.2</ele>
        <time>2020-07-24T08:50:58Z</time>
      </trkpt>
      <trkpt lat="42.9441720" lon="0.8327870">
        <ele>838.6</ele>
        <time>2020-07-24T08:51:00Z</time>
      </trkpt>
      <trkpt lat="42.9442190" lon="0.8326690">
        <ele>837.4</ele>
        <time>2020-07-24T08:51:01Z</time>
      </trkpt>
      <trkpt lat="42.9442610" lon="0.8325620">
        <ele>835.8</ele>
        <time>2020-07-24T08:51:02Z</time>
      </trkpt>
      <trkpt lat="42.9443020" lon="0.8324570">
        <ele>834.0</ele>
        <time>2020-07-24T08:51:03Z</time>
      </trkpt>
      <trkpt lat="42.9443480" lon="0.8323580">
        <ele>832.4</ele>
        <time>2020-07-24T08:51:04Z</time>
      </trkpt>
      <trkpt lat="42.9444010" lon="0.8322670">
        <ele>831.4</ele>
        <time>2020-07-24T08:51:05Z</time>
      </trkpt>
      <trkpt lat="42.9444630" lon="0.8321860">
        <ele>830.4</ele>
        <time>2020-07-24T08:51:06Z</time>
      </trkpt>
      <trkpt lat="42.9445270" lon="0.8321110">
        <ele>829.2</ele>
        <time>2020-07-24T08:51:07Z</time>
      </trkpt>
      <trkpt lat="42.9445940" lon="0.8320380">
        <ele>828.2</ele>
        <time>2020-07-24T08:51:08Z</time>
      </trkpt>
      <trkpt lat="42.9447320" lon="0.8318990">
        <ele>826.2</ele>
        <time>2020-07-24T08:51:10Z</time>
      </trkpt>
      <trkpt lat="42.9448000" lon="0.8318270">
        <ele>825.2</ele>
        <time>2020-07-24T08:51:11Z</time>
      </trkpt>
      <trkpt lat="42.9448630" lon="0.8317500">
        <ele>824.0</ele>
        <time>2020-07-24T08:51:12Z</time>
      </trkpt>
      <trkpt lat="42.9449260" lon="0.8316720">
        <ele>822.6</ele>
        <time>2020-07-24T08:51:13Z</time>
      </trkpt>
      <trkpt lat="42.9449920" lon="0.8315930">
        <ele>821.0</ele>
        <time>2020-07-24T08:51:14Z</time>
      </trkpt>
      <trkpt lat="42.9450560" lon="0.8315150">
        <ele>819.6</ele>
        <time>2020-07-24T08:51:15Z</time>
      </trkpt>
      <trkpt lat="42.9451170" lon="0.8314330">
        <ele>818.0</ele>
        <time>2020-07-24T08:51:16Z</time>
      </trkpt>
      <trkpt lat="42.9451790" lon="0.8313550">
        <ele>816.4</ele>
        <time>2020-07-24T08:51:17Z</time>
      </trkpt>
      <trkpt lat="42.9452310" lon="0.8312670">
        <ele>815.0</ele>
        <time>2020-07-24T08:51:18Z</time>
      </trkpt>
      <trkpt lat="42.9452880" lon="0.8311890">
        <ele>813.4</ele>
        <time>2020-07-24T08:51:19Z</time>
      </trkpt>
      <trkpt lat="42.9453540" lon="0.8311370">
        <ele>811.6</ele>
        <time>2020-07-24T08:51:20Z</time>
      </trkpt>
      <trkpt lat="42.9454030" lon="0.8310630">
        <ele>810.0</ele>
        <time>2020-07-24T08:51:21Z</time>
      </trkpt>
      <trkpt lat="42.9454350" lon="0.8309680">
        <ele>808.6</ele>
        <time>2020-07-24T08:51:22Z</time>
      </trkpt>
      <trkpt lat="42.9454460" lon="0.8308510">
        <ele>807.4</ele>
        <time>2020-07-24T08:51:23Z</time>
      </trkpt>
      <trkpt lat="42.9454490" lon="0.8307260">
        <ele>806.6</ele>
        <time>2020-07-24T08:51:24Z</time>
      </trkpt>
      <trkpt lat="42.9454600" lon="0.8306030">
        <ele>805.8</ele>
        <time>2020-07-24T08:51:25Z</time>
      </trkpt>
      <trkpt lat="42.9455040" lon="0.8303380">
        <ele>804.6</ele>
        <time>2020-07-24T08:51:27Z</time>
      </trkpt>
      <trkpt lat="42.9455410" lon="0.8302000">
        <ele>804.0</ele>
        <time>2020-07-24T08:51:28Z</time>
      </trkpt>
      <trkpt lat="42.9455810" lon="0.8300610">
        <ele>803.4</ele>
        <time>2020-07-24T08:51:29Z</time>
      </trkpt>
      <trkpt lat="42.9456790" lon="0.8297890">
        <ele>802.2</ele>
        <time>2020-07-24T08:51:31Z</time>
      </trkpt>
      <trkpt lat="42.9457250" lon="0.8296610">
        <ele>801.0</ele>
        <time>2020-07-24T08:51:32Z</time>
      </trkpt>
      <trkpt lat="42.9457530" lon="0.8295320">
        <ele>799.4</ele>
        <time>2020-07-24T08:51:33Z</time>
      </trkpt>
      <trkpt lat="42.9457820" lon="0.8294050">
        <ele>797.8</ele>
        <time>2020-07-24T08:51:34Z</time>
      </trkpt>
      <trkpt lat="42.9457990" lon="0.8292760">
        <ele>796.6</ele>
        <time>2020-07-24T08:51:35Z</time>
      </trkpt>
      <trkpt lat="42.9458030" lon="0.8291450">
        <ele>795.2</ele>
        <time>2020-07-24T08:51:36Z</time>
      </trkpt>
      <trkpt lat="42.9457930" lon="0.8290150">
        <ele>794.0</ele>
        <time>2020-07-24T08:51:37Z</time>
      </trkpt>
      <trkpt lat="42.9457870" lon="0.8288900">
        <ele>792.8</ele>
        <time>2020-07-24T08:51:38Z</time>
      </trkpt>
      <trkpt lat="42.9457770" lon="0.8286610">
        <ele>791.2</ele>
        <time>2020-07-24T08:51:40Z</time>
      </trkpt>
      <trkpt lat="42.9458210" lon="0.8284400">
        <ele>789.8</ele>
        <time>2020-07-24T08:51:42Z</time>
      </trkpt>
      <trkpt lat="42.9458640" lon="0.8283350">
        <ele>788.6</ele>
        <time>2020-07-24T08:51:43Z</time>
      </trkpt>
      <trkpt lat="42.9459100" lon="0.8282340">
        <ele>787.4</ele>
        <time>2020-07-24T08:51:44Z</time>
      </trkpt>
      <trkpt lat="42.9459440" lon="0.8281320">
        <ele>786.2</ele>
        <time>2020-07-24T08:51:45Z</time>
      </trkpt>
      <trkpt lat="42.9459970" lon="0.8279120">
        <ele>785.0</ele>
        <time>2020-07-24T08:51:47Z</time>
      </trkpt>
      <trkpt lat="42.9460080" lon="0.8277990">
        <ele>784.2</ele>
        <time>2020-07-24T08:51:48Z</time>
      </trkpt>
      <trkpt lat="42.9460160" lon="0.8276940">
        <ele>783.2</ele>
        <time>2020-07-24T08:51:49Z</time>
      </trkpt>
      <trkpt lat="42.9460140" lon="0.8275920">
        <ele>782.2</ele>
        <time>2020-07-24T08:51:50Z</time>
      </trkpt>
      <trkpt lat="42.9460380" lon="0.8274080">
        <ele>780.6</ele>
        <time>2020-07-24T08:51:52Z</time>
      </trkpt>
      <trkpt lat="42.9460740" lon="0.8272430">
        <ele>778.6</ele>
        <time>2020-07-24T08:51:54Z</time>
      </trkpt>
      <trkpt lat="42.9461080" lon="0.8271730">
        <ele>777.6</ele>
        <time>2020-07-24T08:51:55Z</time>
      </trkpt>
      <trkpt lat="42.9461450" lon="0.8271130">
        <ele>776.6</ele>
        <time>2020-07-24T08:51:56Z</time>
      </trkpt>
      <trkpt lat="42.9461860" lon="0.8270770">
        <ele>775.4</ele>
        <time>2020-07-24T08:51:57Z</time>
      </trkpt>
      <trkpt lat="42.9462100" lon="0.8270500">
        <ele>774.2</ele>
        <time>2020-07-24T08:51:58Z</time>
      </trkpt>
      <trkpt lat="42.9462680" lon="0.8270000">
        <ele>772.8</ele>
        <time>2020-07-24T08:52:00Z</time>
      </trkpt>
      <trkpt lat="42.9462920" lon="0.8269840">
        <ele>772.2</ele>
        <time>2020-07-24T08:52:01Z</time>
      </trkpt>
      <trkpt lat="42.9463190" lon="0.8269850">
        <ele>771.6</ele>
        <time>2020-07-24T08:52:02Z</time>
      </trkpt>
      <trkpt lat="42.9463630" lon="0.8269790">
        <ele>770.8</ele>
        <time>2020-07-24T08:52:05Z</time>
      </trkpt>
      <trkpt lat="42.9463600" lon="0.8269740">
        <ele>770.6</ele>
        <time>2020-07-24T08:52:06Z</time>
      </trkpt>
      <trkpt lat="42.9463860" lon="0.8269680">
        <ele>770.2</ele>
        <time>2020-07-24T08:52:08Z</time>
      </trkpt>
      <trkpt lat="42.9463950" lon="0.8269700">
        <ele>770.2</ele>
        <time>2020-07-24T08:52:09Z</time>
      </trkpt>
      <trkpt lat="42.9464180" lon="0.8268020">
        <ele>770.0</ele>
        <time>2020-07-24T08:52:42Z</time>
      </trkpt>
      <trkpt lat="42.9465150" lon="0.8266200">
        <ele>769.2</ele>
        <time>2020-07-24T08:52:45Z</time>
      </trkpt>
      <trkpt lat="42.9465530" lon="0.8265390">
        <ele>768.8</ele>
        <time>2020-07-24T08:52:46Z</time>
      </trkpt>
      <trkpt lat="42.9466250" lon="0.8263470">
        <ele>768.0</ele>
        <time>2020-07-24T08:52:48Z</time>
      </trkpt>
      <trkpt lat="42.9467450" lon="0.8261760">
        <ele>767.4</ele>
        <time>2020-07-24T08:52:50Z</time>
      </trkpt>
      <trkpt lat="42.9468090" lon="0.8260780">
        <ele>766.8</ele>
        <time>2020-07-24T08:52:51Z</time>
      </trkpt>
      <trkpt lat="42.9469500" lon="0.8258800">
        <ele>765.4</ele>
        <time>2020-07-24T08:52:53Z</time>
      </trkpt>
      <trkpt lat="42.9470730" lon="0.8256560">
        <ele>764.6</ele>
        <time>2020-07-24T08:52:55Z</time>
      </trkpt>
      <trkpt lat="42.9471180" lon="0.8255280">
        <ele>764.0</ele>
        <time>2020-07-24T08:52:56Z</time>
      </trkpt>
      <trkpt lat="42.9472200" lon="0.8252960">
        <ele>762.4</ele>
        <time>2020-07-24T08:52:58Z</time>
      </trkpt>
      <trkpt lat="42.9472800" lon="0.8251910">
        <ele>761.4</ele>
        <time>2020-07-24T08:52:59Z</time>
      </trkpt>
      <trkpt lat="42.9473390" lon="0.8250940">
        <ele>760.6</ele>
        <time>2020-07-24T08:53:00Z</time>
      </trkpt>
      <trkpt lat="42.9474050" lon="0.8250050">
        <ele>760.0</ele>
        <time>2020-07-24T08:53:01Z</time>
      </trkpt>
      <trkpt lat="42.9474660" lon="0.8249120">
        <ele>759.6</ele>
        <time>2020-07-24T08:53:02Z</time>
      </trkpt>
      <trkpt lat="42.9475350" lon="0.8248260">
        <ele>759.0</ele>
        <time>2020-07-24T08:53:03Z</time>
      </trkpt>
      <trkpt lat="42.9476060" lon="0.8247380">
        <ele>758.0</ele>
        <time>2020-07-24T08:53:04Z</time>
      </trkpt>
      <trkpt lat="42.9476770" lon="0.8246510">
        <ele>757.0</ele>
        <time>2020-07-24T08:53:05Z</time>
      </trkpt>
      <trkpt lat="42.9477520" lon="0.8245690">
        <ele>755.8</ele>
        <time>2020-07-24T08:53:06Z</time>
      </trkpt>
      <trkpt lat="42.9479060" lon="0.8244370">
        <ele>753.6</ele>
        <time>2020-07-24T08:53:08Z</time>
      </trkpt>
      <trkpt lat="42.9479750" lon="0.8243740">
        <ele>752.2</ele>
        <time>2020-07-24T08:53:09Z</time>
      </trkpt>
      <trkpt lat="42.9480450" lon="0.8243090">
        <ele>751.0</ele>
        <time>2020-07-24T08:53:10Z</time>
      </trkpt>
      <trkpt lat="42.9481040" lon="0.8242220">
        <ele>749.8</ele>
        <time>2020-07-24T08:53:11Z</time>
      </trkpt>
      <trkpt lat="42.9481530" lon="0.8241080">
        <ele>748.6</ele>
        <time>2020-07-24T08:53:12Z</time>
      </trkpt>
      <trkpt lat="42.9482010" lon="0.8239940">
        <ele>747.6</ele>
        <time>2020-07-24T08:53:13Z</time>
      </trkpt>
      <trkpt lat="42.9482450" lon="0.8238880">
        <ele>746.6</ele>
        <time>2020-07-24T08:53:14Z</time>
      </trkpt>
      <trkpt lat="42.9482970" lon="0.8236490">
        <ele>744.8</ele>
        <time>2020-07-24T08:53:16Z</time>
      </trkpt>
      <trkpt lat="42.9483580" lon="0.8234330">
        <ele>743.6</ele>
        <time>2020-07-24T08:53:18Z</time>
      </trkpt>
      <trkpt lat="42.9483840" lon="0.8233370">
        <ele>742.8</ele>
        <time>2020-07-24T08:53:19Z</time>
      </trkpt>
      <trkpt lat="42.9484140" lon="0.8232490">
        <ele>741.8</ele>
        <time>2020-07-24T08:53:20Z</time>
      </trkpt>
      <trkpt lat="42.9484560" lon="0.8231750">
        <ele>740.8</ele>
        <time>2020-07-24T08:53:21Z</time>
      </trkpt>
      <trkpt lat="42.9485110" lon="0.8231090">
        <ele>739.8</ele>
        <time>2020-07-24T08:53:22Z</time>
      </trkpt>
      <trkpt lat="42.9485780" lon="0.8230530">
        <ele>739.2</ele>
        <time>2020-07-24T08:53:23Z</time>
      </trkpt>
      <trkpt lat="42.9487460" lon="0.8229260">
        <ele>737.4</ele>
        <time>2020-07-24T08:53:26Z</time>
      </trkpt>
      <trkpt lat="42.9487610" lon="0.8228560">
        <ele>736.4</ele>
        <time>2020-07-24T08:53:27Z</time>
      </trkpt>
      <trkpt lat="42.9487510" lon="0.8227690">
        <ele>735.2</ele>
        <time>2020-07-24T08:53:28Z</time>
      </trkpt>
      <trkpt lat="42.9487430" lon="0.8226860">
        <ele>734.4</ele>
        <time>2020-07-24T08:53:29Z</time>
      </trkpt>
      <trkpt lat="42.9487250" lon="0.8225840">
        <ele>734.0</ele>
        <time>2020-07-24T08:53:30Z</time>
      </trkpt>
      <trkpt lat="42.9487150" lon="0.8224730">
        <ele>733.4</ele>
        <time>2020-07-24T08:53:31Z</time>
      </trkpt>
      <trkpt lat="42.9487140" lon="0.8223540">
        <ele>732.8</ele>
        <time>2020-07-24T08:53:32Z</time>
      </trkpt>
      <trkpt lat="42.9487060" lon="0.8220910">
        <ele>731.8</ele>
        <time>2020-07-24T08:53:34Z</time>
      </trkpt>
      <trkpt lat="42.9487060" lon="0.8219610">
        <ele>731.4</ele>
        <time>2020-07-24T08:53:35Z</time>
      </trkpt>
      <trkpt lat="42.9486750" lon="0.8216770">
        <ele>730.6</ele>
        <time>2020-07-24T08:53:37Z</time>
      </trkpt>
      <trkpt lat="42.9486440" lon="0.8213720">
        <ele>729.6</ele>
        <time>2020-07-24T08:53:39Z</time>
      </trkpt>
      <trkpt lat="42.9486360" lon="0.8210780">
        <ele>727.8</ele>
        <time>2020-07-24T08:53:41Z</time>
      </trkpt>
      <trkpt lat="42.9486420" lon="0.8209280">
        <ele>726.6</ele>
        <time>2020-07-24T08:53:42Z</time>
      </trkpt>
      <trkpt lat="42.9486490" lon="0.8207750">
        <ele>725.6</ele>
        <time>2020-07-24T08:53:43Z</time>
      </trkpt>
      <trkpt lat="42.9486490" lon="0.8206200">
        <ele>724.8</ele>
        <time>2020-07-24T08:53:44Z</time>
      </trkpt>
      <trkpt lat="42.9486470" lon="0.8204630">
        <ele>724.0</ele>
        <time>2020-07-24T08:53:45Z</time>
      </trkpt>
      <trkpt lat="42.9486530" lon="0.8201620">
        <ele>722.0</ele>
        <time>2020-07-24T08:53:47Z</time>
      </trkpt>
      <trkpt lat="42.9486490" lon="0.8200210">
        <ele>720.8</ele>
        <time>2020-07-24T08:53:48Z</time>
      </trkpt>
      <trkpt lat="42.9486500" lon="0.8198900">
        <ele>719.6</ele>
        <time>2020-07-24T08:53:49Z</time>
      </trkpt>
      <trkpt lat="42.9486580" lon="0.8197650">
        <ele>718.0</ele>
        <time>2020-07-24T08:53:50Z</time>
      </trkpt>
      <trkpt lat="42.9486840" lon="0.8196380">
        <ele>716.4</ele>
        <time>2020-07-24T08:53:51Z</time>
      </trkpt>
      <trkpt lat="42.9487240" lon="0.8195140">
        <ele>714.8</ele>
        <time>2020-07-24T08:53:52Z</time>
      </trkpt>
      <trkpt lat="42.9487700" lon="0.8193910">
        <ele>713.8</ele>
        <time>2020-07-24T08:53:53Z</time>
      </trkpt>
      <trkpt lat="42.9488910" lon="0.8191780">
        <ele>712.0</ele>
        <time>2020-07-24T08:53:55Z</time>
      </trkpt>
      <trkpt lat="42.9489770" lon="0.8191040">
        <ele>711.2</ele>
        <time>2020-07-24T08:53:56Z</time>
      </trkpt>
      <trkpt lat="42.9490620" lon="0.8190340">
        <ele>710.2</ele>
        <time>2020-07-24T08:53:57Z</time>
      </trkpt>
      <trkpt lat="42.9492230" lon="0.8188810">
        <ele>708.6</ele>
        <time>2020-07-24T08:53:59Z</time>
      </trkpt>
      <trkpt lat="42.9493080" lon="0.8188240">
        <ele>707.4</ele>
        <time>2020-07-24T08:54:00Z</time>
      </trkpt>
      <trkpt lat="42.9494030" lon="0.8187810">
        <ele>705.8</ele>
        <time>2020-07-24T08:54:01Z</time>
      </trkpt>
      <trkpt lat="42.9494920" lon="0.8187610">
        <ele>704.4</ele>
        <time>2020-07-24T08:54:02Z</time>
      </trkpt>
      <trkpt lat="42.9495710" lon="0.8187560">
        <ele>703.0</ele>
        <time>2020-07-24T08:54:03Z</time>
      </trkpt>
      <trkpt lat="42.9496420" lon="0.8187590">
        <ele>701.4</ele>
        <time>2020-07-24T08:54:04Z</time>
      </trkpt>
      <trkpt lat="42.9496950" lon="0.8187640">
        <ele>700.0</ele>
        <time>2020-07-24T08:54:05Z</time>
      </trkpt>
      <trkpt lat="42.9497390" lon="0.8187670">
        <ele>698.4</ele>
        <time>2020-07-24T08:54:06Z</time>
      </trkpt>
      <trkpt lat="42.9500680" lon="0.8186870">
        <ele>691.2</ele>
        <time>2020-07-24T09:00:06Z</time>
      </trkpt>
      <trkpt lat="42.9500690" lon="0.8186890">
        <ele>691.2</ele>
        <time>2020-07-24T09:00:07Z</time>
      </trkpt>
      <trkpt lat="42.9501270" lon="0.8186550">
        <ele>689.8</ele>
        <time>2020-07-24T09:00:13Z</time>
      </trkpt>
      <trkpt lat="42.9501810" lon="0.8186070">
        <ele>689.4</ele>
        <time>2020-07-24T09:00:15Z</time>
      </trkpt>
      <trkpt lat="42.9502250" lon="0.8185710">
        <ele>689.0</ele>
        <time>2020-07-24T09:00:16Z</time>
      </trkpt>
      <trkpt lat="42.9502740" lon="0.8185320">
        <ele>688.6</ele>
        <time>2020-07-24T09:00:17Z</time>
      </trkpt>
      <trkpt lat="42.9503770" lon="0.8184530">
        <ele>687.8</ele>
        <time>2020-07-24T09:00:19Z</time>
      </trkpt>
      <trkpt lat="42.9504300" lon="0.8184170">
        <ele>687.2</ele>
        <time>2020-07-24T09:00:20Z</time>
      </trkpt>
      <trkpt lat="42.9505300" lon="0.8183410">
        <ele>685.8</ele>
        <time>2020-07-24T09:00:22Z</time>
      </trkpt>
      <trkpt lat="42.9505920" lon="0.8182250">
        <ele>684.8</ele>
        <time>2020-07-24T09:00:24Z</time>
      </trkpt>
      <trkpt lat="42.9506030" lon="0.8180680">
        <ele>683.0</ele>
        <time>2020-07-24T09:00:26Z</time>
      </trkpt>
      <trkpt lat="42.9505890" lon="0.8179740">
        <ele>682.0</ele>
        <time>2020-07-24T09:00:27Z</time>
      </trkpt>
      <trkpt lat="42.9505690" lon="0.8178820">
        <ele>680.8</ele>
        <time>2020-07-24T09:00:28Z</time>
      </trkpt>
      <trkpt lat="42.9505460" lon="0.8177960">
        <ele>679.6</ele>
        <time>2020-07-24T09:00:29Z</time>
      </trkpt>
      <trkpt lat="42.9505020" lon="0.8176290">
        <ele>677.8</ele>
        <time>2020-07-24T09:00:31Z</time>
      </trkpt>
      <trkpt lat="42.9504830" lon="0.8175600">
        <ele>677.0</ele>
        <time>2020-07-24T09:00:32Z</time>
      </trkpt>
      <trkpt lat="42.9504670" lon="0.8175030">
        <ele>676.2</ele>
        <time>2020-07-24T09:00:33Z</time>
      </trkpt>
      <trkpt lat="42.9504380" lon="0.8174000">
        <ele>675.2</ele>
        <time>2020-07-24T09:00:35Z</time>
      </trkpt>
      <trkpt lat="42.9504060" lon="0.8172920">
        <ele>674.2</ele>
        <time>2020-07-24T09:00:37Z</time>
      </trkpt>
      <trkpt lat="42.9503870" lon="0.8172260">
        <ele>673.4</ele>
        <time>2020-07-24T09:00:38Z</time>
      </trkpt>
      <trkpt lat="42.9503650" lon="0.8171430">
        <ele>672.6</ele>
        <time>2020-07-24T09:00:39Z</time>
      </trkpt>
      <trkpt lat="42.9503410" lon="0.8170500">
        <ele>672.0</ele>
        <time>2020-07-24T09:00:40Z</time>
      </trkpt>
      <trkpt lat="42.9503130" lon="0.8169490">
        <ele>671.2</ele>
        <time>2020-07-24T09:00:41Z</time>
      </trkpt>
      <trkpt lat="42.9502840" lon="0.8168480">
        <ele>670.2</ele>
        <time>2020-07-24T09:00:42Z</time>
      </trkpt>
      <trkpt lat="42.9502540" lon="0.8167490">
        <ele>669.2</ele>
        <time>2020-07-24T09:00:43Z</time>
      </trkpt>
      <trkpt lat="42.9502250" lon="0.8166510">
        <ele>668.2</ele>
        <time>2020-07-24T09:00:44Z</time>
      </trkpt>
      <trkpt lat="42.9501950" lon="0.8165570">
        <ele>667.2</ele>
        <time>2020-07-24T09:00:45Z</time>
      </trkpt>
      <trkpt lat="42.9501470" lon="0.8164760">
        <ele>666.4</ele>
        <time>2020-07-24T09:00:46Z</time>
      </trkpt>
      <trkpt lat="42.9500930" lon="0.8164010">
        <ele>665.8</ele>
        <time>2020-07-24T09:00:47Z</time>
      </trkpt>
      <trkpt lat="42.9499680" lon="0.8162710">
        <ele>664.0</ele>
        <time>2020-07-24T09:00:49Z</time>
      </trkpt>
      <trkpt lat="42.9498920" lon="0.8162260">
        <ele>662.8</ele>
        <time>2020-07-24T09:00:50Z</time>
      </trkpt>
      <trkpt lat="42.9498060" lon="0.8161850">
        <ele>661.8</ele>
        <time>2020-07-24T09:00:51Z</time>
      </trkpt>
      <trkpt lat="42.9497210" lon="0.8161480">
        <ele>660.6</ele>
        <time>2020-07-24T09:00:52Z</time>
      </trkpt>
      <trkpt lat="42.9496380" lon="0.8161180">
        <ele>659.6</ele>
        <time>2020-07-24T09:00:53Z</time>
      </trkpt>
      <trkpt lat="42.9494770" lon="0.8160800">
        <ele>657.6</ele>
        <time>2020-07-24T09:00:55Z</time>
      </trkpt>
      <trkpt lat="42.9494000" lon="0.8160770">
        <ele>656.4</ele>
        <time>2020-07-24T09:00:56Z</time>
      </trkpt>
      <trkpt lat="42.9493310" lon="0.8160770">
        <ele>655.4</ele>
        <time>2020-07-24T09:00:57Z</time>
      </trkpt>
      <trkpt lat="42.9492650" lon="0.8160890">
        <ele>654.6</ele>
        <time>2020-07-24T09:00:58Z</time>
      </trkpt>
      <trkpt lat="42.9491990" lon="0.8161310">
        <ele>653.8</ele>
        <time>2020-07-24T09:00:59Z</time>
      </trkpt>
      <trkpt lat="42.9491370" lon="0.8161790">
        <ele>653.0</ele>
        <time>2020-07-24T09:01:00Z</time>
      </trkpt>
      <trkpt lat="42.9490800" lon="0.8162210">
        <ele>652.2</ele>
        <time>2020-07-24T09:01:01Z</time>
      </trkpt>
      <trkpt lat="42.9489710" lon="0.8162800">
        <ele>650.6</ele>
        <time>2020-07-24T09:01:03Z</time>
      </trkpt>
      <trkpt lat="42.9489170" lon="0.8162980">
        <ele>650.0</ele>
        <time>2020-07-24T09:01:04Z</time>
      </trkpt>
      <trkpt lat="42.9488660" lon="0.8163020">
        <ele>649.2</ele>
        <time>2020-07-24T09:01:05Z</time>
      </trkpt>
      <trkpt lat="42.9488130" lon="0.8162930">
        <ele>648.8</ele>
        <time>2020-07-24T09:01:06Z</time>
      </trkpt>
      <trkpt lat="42.9487430" lon="0.8161910">
        <ele>648.0</ele>
        <time>2020-07-24T09:01:08Z</time>
      </trkpt>
      <trkpt lat="42.9487230" lon="0.8161250">
        <ele>647.6</ele>
        <time>2020-07-24T09:01:09Z</time>
      </trkpt>
      <trkpt lat="42.9487200" lon="0.8160520">
        <ele>647.2</ele>
        <time>2020-07-24T09:01:10Z</time>
      </trkpt>
      <trkpt lat="42.9487310" lon="0.8159820">
        <ele>647.0</ele>
        <time>2020-07-24T09:01:11Z</time>
      </trkpt>
      <trkpt lat="42.9487550" lon="0.8159120">
        <ele>646.8</ele>
        <time>2020-07-24T09:01:12Z</time>
      </trkpt>
      <trkpt lat="42.9488370" lon="0.8157840">
        <ele>646.4</ele>
        <time>2020-07-24T09:01:14Z</time>
      </trkpt>
      <trkpt lat="42.9489440" lon="0.8156680">
        <ele>646.0</ele>
        <time>2020-07-24T09:01:16Z</time>
      </trkpt>
      <trkpt lat="42.9490070" lon="0.8156190">
        <ele>645.8</ele>
        <time>2020-07-24T09:01:17Z</time>
      </trkpt>
      <trkpt lat="42.9490730" lon="0.8155760">
        <ele>645.4</ele>
        <time>2020-07-24T09:01:18Z</time>
      </trkpt>
      <trkpt lat="42.9492800" lon="0.8154570">
        <ele>644.8</ele>
        <time>2020-07-24T09:01:21Z</time>
      </trkpt>
      <trkpt lat="42.9494940" lon="0.8153420">
        <ele>644.2</ele>
        <time>2020-07-24T09:01:24Z</time>
      </trkpt>
      <trkpt lat="42.9497000" lon="0.8152370">
        <ele>644.2</ele>
        <time>2020-07-24T09:01:27Z</time>
      </trkpt>
      <trkpt lat="42.9499550" lon="0.8150600">
        <ele>644.4</ele>
        <time>2020-07-24T09:01:31Z</time>
      </trkpt>
      <trkpt lat="42.9500830" lon="0.8149560">
        <ele>644.4</ele>
        <time>2020-07-24T09:01:33Z</time>
      </trkpt>
      <trkpt lat="42.9502890" lon="0.8147960">
        <ele>644.0</ele>
        <time>2020-07-24T09:01:36Z</time>
      </trkpt>
      <trkpt lat="42.9503670" lon="0.8147600">
        <ele>643.6</ele>
        <time>2020-07-24T09:01:37Z</time>
      </trkpt>
      <trkpt lat="42.9504510" lon="0.8147410">
        <ele>643.4</ele>
        <time>2020-07-24T09:01:38Z</time>
      </trkpt>
      <trkpt lat="42.9506330" lon="0.8147390">
        <ele>642.6</ele>
        <time>2020-07-24T09:01:40Z</time>
      </trkpt>
      <trkpt lat="42.9507280" lon="0.8147560">
        <ele>642.0</ele>
        <time>2020-07-24T09:01:41Z</time>
      </trkpt>
      <trkpt lat="42.9508180" lon="0.8147840">
        <ele>641.2</ele>
        <time>2020-07-24T09:01:42Z</time>
      </trkpt>
      <trkpt lat="42.9509070" lon="0.8148220">
        <ele>640.6</ele>
        <time>2020-07-24T09:01:43Z</time>
      </trkpt>
      <trkpt lat="42.9509810" lon="0.8148850">
        <ele>640.0</ele>
        <time>2020-07-24T09:01:44Z</time>
      </trkpt>
      <trkpt lat="42.9510600" lon="0.8149500">
        <ele>639.6</ele>
        <time>2020-07-24T09:01:45Z</time>
      </trkpt>
      <trkpt lat="42.9512310" lon="0.8150640">
        <ele>638.4</ele>
        <time>2020-07-24T09:01:47Z</time>
      </trkpt>
      <trkpt lat="42.9513260" lon="0.8151060">
        <ele>637.6</ele>
        <time>2020-07-24T09:01:48Z</time>
      </trkpt>
      <trkpt lat="42.9514280" lon="0.8151390">
        <ele>636.8</ele>
        <time>2020-07-24T09:01:49Z</time>
      </trkpt>
      <trkpt lat="42.9515370" lon="0.8151580">
        <ele>636.0</ele>
        <time>2020-07-24T09:01:50Z</time>
      </trkpt>
      <trkpt lat="42.9516440" lon="0.8151590">
        <ele>635.4</ele>
        <time>2020-07-24T09:01:51Z</time>
      </trkpt>
      <trkpt lat="42.9518510" lon="0.8151380">
        <ele>634.0</ele>
        <time>2020-07-24T09:01:53Z</time>
      </trkpt>
      <trkpt lat="42.9520410" lon="0.8150590">
        <ele>632.6</ele>
        <time>2020-07-24T09:01:55Z</time>
      </trkpt>
      <trkpt lat="42.9521280" lon="0.8150030">
        <ele>632.0</ele>
        <time>2020-07-24T09:01:56Z</time>
      </trkpt>
      <trkpt lat="42.9522090" lon="0.8149400">
        <ele>631.4</ele>
        <time>2020-07-24T09:01:57Z</time>
      </trkpt>
      <trkpt lat="42.9523420" lon="0.8147930">
        <ele>630.6</ele>
        <time>2020-07-24T09:01:59Z</time>
      </trkpt>
      <trkpt lat="42.9523870" lon="0.8146890">
        <ele>630.2</ele>
        <time>2020-07-24T09:02:00Z</time>
      </trkpt>
      <trkpt lat="42.9524280" lon="0.8145780">
        <ele>629.8</ele>
        <time>2020-07-24T09:02:01Z</time>
      </trkpt>
      <trkpt lat="42.9524700" lon="0.8143260">
        <ele>629.2</ele>
        <time>2020-07-24T09:02:03Z</time>
      </trkpt>
      <trkpt lat="42.9524890" lon="0.8141810">
        <ele>629.0</ele>
        <time>2020-07-24T09:02:04Z</time>
      </trkpt>
      <trkpt lat="42.9525190" lon="0.8138790">
        <ele>627.2</ele>
        <time>2020-07-24T09:02:06Z</time>
      </trkpt>
      <trkpt lat="42.9525330" lon="0.8137260">
        <ele>626.0</ele>
        <time>2020-07-24T09:02:07Z</time>
      </trkpt>
      <trkpt lat="42.9525500" lon="0.8135750">
        <ele>624.8</ele>
        <time>2020-07-24T09:02:08Z</time>
      </trkpt>
      <trkpt lat="42.9525760" lon="0.8132810">
        <ele>622.8</ele>
        <time>2020-07-24T09:02:10Z</time>
      </trkpt>
      <trkpt lat="42.9526110" lon="0.8129940">
        <ele>621.2</ele>
        <time>2020-07-24T09:02:12Z</time>
      </trkpt>
      <trkpt lat="42.9526780" lon="0.8127350">
        <ele>620.4</ele>
        <time>2020-07-24T09:02:14Z</time>
      </trkpt>
      <trkpt lat="42.9527260" lon="0.8126090">
        <ele>620.0</ele>
        <time>2020-07-24T09:02:15Z</time>
      </trkpt>
      <trkpt lat="42.9527860" lon="0.8124920">
        <ele>619.4</ele>
        <time>2020-07-24T09:02:16Z</time>
      </trkpt>
      <trkpt lat="42.9528440" lon="0.8123780">
        <ele>618.8</ele>
        <time>2020-07-24T09:02:17Z</time>
      </trkpt>
      <trkpt lat="42.9529000" lon="0.8122680">
        <ele>618.4</ele>
        <time>2020-07-24T09:02:18Z</time>
      </trkpt>
      <trkpt lat="42.9529610" lon="0.8121710">
        <ele>617.6</ele>
        <time>2020-07-24T09:02:19Z</time>
      </trkpt>
      <trkpt lat="42.9530320" lon="0.8120960">
        <ele>617.0</ele>
        <time>2020-07-24T09:02:20Z</time>
      </trkpt>
      <trkpt lat="42.9531060" lon="0.8120270">
        <ele>616.6</ele>
        <time>2020-07-24T09:02:21Z</time>
      </trkpt>
      <trkpt lat="42.9531720" lon="0.8119560">
        <ele>616.2</ele>
        <time>2020-07-24T09:02:22Z</time>
      </trkpt>
      <trkpt lat="42.9532540" lon="0.8119120">
        <ele>615.8</ele>
        <time>2020-07-24T09:02:23Z</time>
      </trkpt>
      <trkpt lat="42.9533170" lon="0.8118560">
        <ele>615.4</ele>
        <time>2020-07-24T09:02:24Z</time>
      </trkpt>
      <trkpt lat="42.9534670" lon="0.8117850">
        <ele>615.2</ele>
        <time>2020-07-24T09:02:26Z</time>
      </trkpt>
      <trkpt lat="42.9537130" lon="0.8117230">
        <ele>616.0</ele>
        <time>2020-07-24T09:02:30Z</time>
      </trkpt>
      <trkpt lat="42.9537600" lon="0.8116940">
        <ele>616.4</ele>
        <time>2020-07-24T09:02:31Z</time>
      </trkpt>
      <trkpt lat="42.9538100" lon="0.8116690">
        <ele>616.6</ele>
        <time>2020-07-24T09:02:32Z</time>
      </trkpt>
      <trkpt lat="42.9538560" lon="0.8116190">
        <ele>616.8</ele>
        <time>2020-07-24T09:02:33Z</time>
      </trkpt>
      <trkpt lat="42.9538970" lon="0.8115600">
        <ele>616.8</ele>
        <time>2020-07-24T09:02:34Z</time>
      </trkpt>
      <trkpt lat="42.9539260" lon="0.8114940">
        <ele>616.8</ele>
        <time>2020-07-24T09:02:35Z</time>
      </trkpt>
      <trkpt lat="42.9539360" lon="0.8114200">
        <ele>616.4</ele>
        <time>2020-07-24T09:02:36Z</time>
      </trkpt>
      <trkpt lat="42.9539410" lon="0.8113430">
        <ele>616.2</ele>
        <time>2020-07-24T09:02:37Z</time>
      </trkpt>
      <trkpt lat="42.9539110" lon="0.8111560">
        <ele>615.6</ele>
        <time>2020-07-24T09:02:39Z</time>
      </trkpt>
      <trkpt lat="42.9538860" lon="0.8110530">
        <ele>615.4</ele>
        <time>2020-07-24T09:02:40Z</time>
      </trkpt>
      <trkpt lat="42.9538150" lon="0.8108370">
        <ele>614.2</ele>
        <time>2020-07-24T09:02:42Z</time>
      </trkpt>
      <trkpt lat="42.9537490" lon="0.8105990">
        <ele>612.8</ele>
        <time>2020-07-24T09:02:44Z</time>
      </trkpt>
      <trkpt lat="42.9537160" lon="0.8103400">
        <ele>611.0</ele>
        <time>2020-07-24T09:02:46Z</time>
      </trkpt>
      <trkpt lat="42.9537280" lon="0.8100680">
        <ele>609.4</ele>
        <time>2020-07-24T09:02:48Z</time>
      </trkpt>
      <trkpt lat="42.9537770" lon="0.8098180">
        <ele>608.8</ele>
        <time>2020-07-24T09:02:50Z</time>
      </trkpt>
      <trkpt lat="42.9538290" lon="0.8095850">
        <ele>608.6</ele>
        <time>2020-07-24T09:02:52Z</time>
      </trkpt>
      <trkpt lat="42.9539830" lon="0.8088700">
        <ele>608.8</ele>
        <time>2020-07-24T09:02:58Z</time>
      </trkpt>
      <trkpt lat="42.9540080" lon="0.8087470">
        <ele>608.4</ele>
        <time>2020-07-24T09:02:59Z</time>
      </trkpt>
      <trkpt lat="42.9540270" lon="0.8086210">
        <ele>608.2</ele>
        <time>2020-07-24T09:03:00Z</time>
      </trkpt>
      <trkpt lat="42.9540330" lon="0.8083660">
        <ele>607.4</ele>
        <time>2020-07-24T09:03:02Z</time>
      </trkpt>
      <trkpt lat="42.9540250" lon="0.8082490">
        <ele>607.2</ele>
        <time>2020-07-24T09:03:03Z</time>
      </trkpt>
      <trkpt lat="42.9540060" lon="0.8081320">
        <ele>607.0</ele>
        <time>2020-07-24T09:03:04Z</time>
      </trkpt>
      <trkpt lat="42.9539060" lon="0.8076640">
        <ele>607.0</ele>
        <time>2020-07-24T09:03:08Z</time>
      </trkpt>
      <trkpt lat="42.9538450" lon="0.8074440">
        <ele>607.2</ele>
        <time>2020-07-24T09:03:10Z</time>
      </trkpt>
      <trkpt lat="42.9538040" lon="0.8072360">
        <ele>607.2</ele>
        <time>2020-07-24T09:03:12Z</time>
      </trkpt>
      <trkpt lat="42.9537940" lon="0.8071340">
        <ele>607.2</ele>
        <time>2020-07-24T09:03:13Z</time>
      </trkpt>
      <trkpt lat="42.9537920" lon="0.8070400">
        <ele>607.4</ele>
        <time>2020-07-24T09:03:14Z</time>
      </trkpt>
      <trkpt lat="42.9538040" lon="0.8069470">
        <ele>607.6</ele>
        <time>2020-07-24T09:03:15Z</time>
      </trkpt>
      <trkpt lat="42.9538180" lon="0.8068590">
        <ele>607.8</ele>
        <time>2020-07-24T09:03:16Z</time>
      </trkpt>
      <trkpt lat="42.9538550" lon="0.8066960">
        <ele>608.2</ele>
        <time>2020-07-24T09:03:18Z</time>
      </trkpt>
      <trkpt lat="42.9538780" lon="0.8066200">
        <ele>608.4</ele>
        <time>2020-07-24T09:03:19Z</time>
      </trkpt>
      <trkpt lat="42.9539620" lon="0.8064150">
        <ele>609.8</ele>
        <time>2020-07-24T09:03:22Z</time>
      </trkpt>
      <trkpt lat="42.9539930" lon="0.8063490">
        <ele>610.2</ele>
        <time>2020-07-24T09:03:23Z</time>
      </trkpt>
      <trkpt lat="42.9540430" lon="0.8062420">
        <ele>610.8</ele>
        <time>2020-07-24T09:03:25Z</time>
      </trkpt>
      <trkpt lat="42.9540920" lon="0.8061450">
        <ele>611.6</ele>
        <time>2020-07-24T09:03:27Z</time>
      </trkpt>
      <trkpt lat="42.9541190" lon="0.8060990">
        <ele>611.8</ele>
        <time>2020-07-24T09:03:28Z</time>
      </trkpt>
      <trkpt lat="42.9541720" lon="0.8060090">
        <ele>612.2</ele>
        <time>2020-07-24T09:03:30Z</time>
      </trkpt>
      <trkpt lat="42.9541990" lon="0.8059670">
        <ele>612.4</ele>
        <time>2020-07-24T09:03:31Z</time>
      </trkpt>
      <trkpt lat="42.9542540" lon="0.8058820">
        <ele>613.0</ele>
        <time>2020-07-24T09:03:33Z</time>
      </trkpt>
      <trkpt lat="42.9543510" lon="0.8057080">
        <ele>614.2</ele>
        <time>2020-07-24T09:03:37Z</time>
      </trkpt>
      <trkpt lat="42.9544070" lon="0.8055460">
        <ele>615.4</ele>
        <time>2020-07-24T09:03:41Z</time>
      </trkpt>
      <trkpt lat="42.9544260" lon="0.8054640">
        <ele>615.6</ele>
        <time>2020-07-24T09:03:43Z</time>
      </trkpt>
      <trkpt lat="42.9544620" lon="0.8053460">
        <ele>616.6</ele>
        <time>2020-07-24T09:03:46Z</time>
      </trkpt>
      <trkpt lat="42.9545160" lon="0.8051550">
        <ele>617.8</ele>
        <time>2020-07-24T09:03:51Z</time>
      </trkpt>
      <trkpt lat="42.9545230" lon="0.8051120">
        <ele>618.2</ele>
        <time>2020-07-24T09:03:52Z</time>
      </trkpt>
      <trkpt lat="42.9545360" lon="0.8049860">
        <ele>618.8</ele>
        <time>2020-07-24T09:03:55Z</time>
      </trkpt>
      <trkpt lat="42.9545190" lon="0.8048660">
        <ele>619.4</ele>
        <time>2020-07-24T09:03:58Z</time>
      </trkpt>
      <trkpt lat="42.9544970" lon="0.8047810">
        <ele>620.0</ele>
        <time>2020-07-24T09:04:00Z</time>
      </trkpt>
      <trkpt lat="42.9544400" lon="0.8046570">
        <ele>620.8</ele>
        <time>2020-07-24T09:04:03Z</time>
      </trkpt>
      <trkpt lat="42.9544190" lon="0.8046170">
        <ele>621.0</ele>
        <time>2020-07-24T09:04:04Z</time>
      </trkpt>
      <trkpt lat="42.9543170" lon="0.8044660">
        <ele>622.2</ele>
        <time>2020-07-24T09:04:08Z</time>
      </trkpt>
      <trkpt lat="42.9542930" lon="0.8044290">
        <ele>622.2</ele>
        <time>2020-07-24T09:04:09Z</time>
      </trkpt>
      <trkpt lat="42.9541710" lon="0.8042510">
        <ele>623.2</ele>
        <time>2020-07-24T09:04:14Z</time>
      </trkpt>
      <trkpt lat="42.9541060" lon="0.8041470">
        <ele>623.6</ele>
        <time>2020-07-24T09:04:17Z</time>
      </trkpt>
      <trkpt lat="42.9540740" lon="0.8040580">
        <ele>624.2</ele>
        <time>2020-07-24T09:04:19Z</time>
      </trkpt>
      <trkpt lat="42.9540100" lon="0.8038830">
        <ele>625.2</ele>
        <time>2020-07-24T09:04:23Z</time>
      </trkpt>
      <trkpt lat="42.9539980" lon="0.8038330">
        <ele>625.4</ele>
        <time>2020-07-24T09:04:24Z</time>
      </trkpt>
      <trkpt lat="42.9540170" lon="0.8036710">
        <ele>625.6</ele>
        <time>2020-07-24T09:04:27Z</time>
      </trkpt>
      <trkpt lat="42.9540440" lon="0.8036400">
        <ele>625.6</ele>
        <time>2020-07-24T09:04:28Z</time>
      </trkpt>
      <trkpt lat="42.9541420" lon="0.8036080">
        <ele>625.6</ele>
        <time>2020-07-24T09:04:30Z</time>
      </trkpt>
      <trkpt lat="42.9542450" lon="0.8036300">
        <ele>625.6</ele>
        <time>2020-07-24T09:04:32Z</time>
      </trkpt>
      <trkpt lat="42.9543430" lon="0.8036840">
        <ele>625.6</ele>
        <time>2020-07-24T09:04:34Z</time>
      </trkpt>
      <trkpt lat="42.9546430" lon="0.8038990">
        <ele>625.6</ele>
        <time>2020-07-24T09:04:40Z</time>
      </trkpt>
      <trkpt lat="42.9546960" lon="0.8039290">
        <ele>625.8</ele>
        <time>2020-07-24T09:04:41Z</time>
      </trkpt>
      <trkpt lat="42.9548530" lon="0.8039910">
        <ele>626.0</ele>
        <time>2020-07-24T09:04:44Z</time>
      </trkpt>
      <trkpt lat="42.9549580" lon="0.8039740">
        <ele>626.0</ele>
        <time>2020-07-24T09:04:46Z</time>
      </trkpt>
      <trkpt lat="42.9551930" lon="0.8038230">
        <ele>625.4</ele>
        <time>2020-07-24T09:04:50Z</time>
      </trkpt>
      <trkpt lat="42.9553740" lon="0.8036440">
        <ele>624.4</ele>
        <time>2020-07-24T09:04:53Z</time>
      </trkpt>
      <trkpt lat="42.9554280" lon="0.8035760">
        <ele>623.8</ele>
        <time>2020-07-24T09:04:54Z</time>
      </trkpt>
      <trkpt lat="42.9554880" lon="0.8035020">
        <ele>623.2</ele>
        <time>2020-07-24T09:04:55Z</time>
      </trkpt>
      <trkpt lat="42.9555560" lon="0.8034210">
        <ele>622.4</ele>
        <time>2020-07-24T09:04:56Z</time>
      </trkpt>
      <trkpt lat="42.9556180" lon="0.8033390">
        <ele>621.4</ele>
        <time>2020-07-24T09:04:57Z</time>
      </trkpt>
      <trkpt lat="42.9556860" lon="0.8032560">
        <ele>620.4</ele>
        <time>2020-07-24T09:04:58Z</time>
      </trkpt>
      <trkpt lat="42.9557580" lon="0.8031770">
        <ele>619.4</ele>
        <time>2020-07-24T09:04:59Z</time>
      </trkpt>
      <trkpt lat="42.9558260" lon="0.8030950">
        <ele>618.6</ele>
        <time>2020-07-24T09:05:00Z</time>
      </trkpt>
      <trkpt lat="42.9559060" lon="0.8030340">
        <ele>617.8</ele>
        <time>2020-07-24T09:05:01Z</time>
      </trkpt>
      <trkpt lat="42.9559880" lon="0.8029860">
        <ele>617.4</ele>
        <time>2020-07-24T09:05:02Z</time>
      </trkpt>
      <trkpt lat="42.9560690" lon="0.8029540">
        <ele>616.8</ele>
        <time>2020-07-24T09:05:03Z</time>
      </trkpt>
      <trkpt lat="42.9562400" lon="0.8029430">
        <ele>616.2</ele>
        <time>2020-07-24T09:05:05Z</time>
      </trkpt>
      <trkpt lat="42.9563250" lon="0.8029450">
        <ele>615.8</ele>
        <time>2020-07-24T09:05:06Z</time>
      </trkpt>
      <trkpt lat="42.9565940" lon="0.8029980">
        <ele>615.0</ele>
        <time>2020-07-24T09:05:09Z</time>
      </trkpt>
      <trkpt lat="42.9567630" lon="0.8030210">
        <ele>614.4</ele>
        <time>2020-07-24T09:05:11Z</time>
      </trkpt>
      <trkpt lat="42.9569990" lon="0.8029800">
        <ele>613.8</ele>
        <time>2020-07-24T09:05:14Z</time>
      </trkpt>
      <trkpt lat="42.9571460" lon="0.8028980">
        <ele>613.2</ele>
        <time>2020-07-24T09:05:16Z</time>
      </trkpt>
      <trkpt lat="42.9572130" lon="0.8028360">
        <ele>612.6</ele>
        <time>2020-07-24T09:05:17Z</time>
      </trkpt>
      <trkpt lat="42.9573450" lon="0.8026790">
        <ele>611.2</ele>
        <time>2020-07-24T09:05:19Z</time>
      </trkpt>
      <trkpt lat="42.9574190" lon="0.8026010">
        <ele>610.6</ele>
        <time>2020-07-24T09:05:20Z</time>
      </trkpt>
      <trkpt lat="42.9575010" lon="0.8025230">
        <ele>609.8</ele>
        <time>2020-07-24T09:05:21Z</time>
      </trkpt>
      <trkpt lat="42.9576700" lon="0.8023690">
        <ele>608.6</ele>
        <time>2020-07-24T09:05:23Z</time>
      </trkpt>
      <trkpt lat="42.9578440" lon="0.8022320">
        <ele>607.4</ele>
        <time>2020-07-24T09:05:25Z</time>
      </trkpt>
      <trkpt lat="42.9580830" lon="0.8020780">
        <ele>606.2</ele>
        <time>2020-07-24T09:05:28Z</time>
      </trkpt>
      <trkpt lat="42.9582390" lon="0.8019700">
        <ele>606.2</ele>
        <time>2020-07-24T09:05:30Z</time>
      </trkpt>
      <trkpt lat="42.9583350" lon="0.8018570">
        <ele>606.4</ele>
        <time>2020-07-24T09:05:31Z</time>
      </trkpt>
      <trkpt lat="42.9584110" lon="0.8017400">
        <ele>606.6</ele>
        <time>2020-07-24T09:05:32Z</time>
      </trkpt>
      <trkpt lat="42.9584690" lon="0.8016230">
        <ele>606.8</ele>
        <time>2020-07-24T09:05:33Z</time>
      </trkpt>
      <trkpt lat="42.9588150" lon="0.8010530">
        <ele>605.6</ele>
        <time>2020-07-24T09:05:39Z</time>
      </trkpt>
      <trkpt lat="42.9588760" lon="0.8009650">
        <ele>605.2</ele>
        <time>2020-07-24T09:05:40Z</time>
      </trkpt>
      <trkpt lat="42.9589380" lon="0.8008710">
        <ele>604.8</ele>
        <time>2020-07-24T09:05:41Z</time>
      </trkpt>
      <trkpt lat="42.9590910" lon="0.8005740">
        <ele>603.6</ele>
        <time>2020-07-24T09:05:44Z</time>
      </trkpt>
      <trkpt lat="42.9591720" lon="0.8003670">
        <ele>603.2</ele>
        <time>2020-07-24T09:05:46Z</time>
      </trkpt>
      <trkpt lat="42.9592500" lon="0.8001550">
        <ele>602.4</ele>
        <time>2020-07-24T09:05:48Z</time>
      </trkpt>
      <trkpt lat="42.9593310" lon="0.7999480">
        <ele>601.4</ele>
        <time>2020-07-24T09:05:50Z</time>
      </trkpt>
      <trkpt lat="42.9594660" lon="0.7996400">
        <ele>600.0</ele>
        <time>2020-07-24T09:05:53Z</time>
      </trkpt>
      <trkpt lat="42.9596650" lon="0.7992630">
        <ele>599.0</ele>
        <time>2020-07-24T09:05:57Z</time>
      </trkpt>
      <trkpt lat="42.9597080" lon="0.7991660">
        <ele>598.8</ele>
        <time>2020-07-24T09:05:58Z</time>
      </trkpt>
      <trkpt lat="42.9598170" lon="0.7988710">
        <ele>597.8</ele>
        <time>2020-07-24T09:06:01Z</time>
      </trkpt>
      <trkpt lat="42.9598300" lon="0.7987580">
        <ele>597.6</ele>
        <time>2020-07-24T09:06:02Z</time>
      </trkpt>
      <trkpt lat="42.9598280" lon="0.7986440">
        <ele>597.4</ele>
        <time>2020-07-24T09:06:03Z</time>
      </trkpt>
      <trkpt lat="42.9598080" lon="0.7985260">
        <ele>597.0</ele>
        <time>2020-07-24T09:06:04Z</time>
      </trkpt>
      <trkpt lat="42.9597860" lon="0.7984080">
        <ele>596.6</ele>
        <time>2020-07-24T09:06:05Z</time>
      </trkpt>
      <trkpt lat="42.9597450" lon="0.7982840">
        <ele>596.2</ele>
        <time>2020-07-24T09:06:06Z</time>
      </trkpt>
      <trkpt lat="42.9596920" lon="0.7981650">
        <ele>595.6</ele>
        <time>2020-07-24T09:06:07Z</time>
      </trkpt>
      <trkpt lat="42.9595830" lon="0.7979410">
        <ele>594.2</ele>
        <time>2020-07-24T09:06:09Z</time>
      </trkpt>
      <trkpt lat="42.9595380" lon="0.7978330">
        <ele>593.6</ele>
        <time>2020-07-24T09:06:10Z</time>
      </trkpt>
      <trkpt lat="42.9594900" lon="0.7977200">
        <ele>593.0</ele>
        <time>2020-07-24T09:06:11Z</time>
      </trkpt>
      <trkpt lat="42.9594150" lon="0.7974930">
        <ele>591.4</ele>
        <time>2020-07-24T09:06:13Z</time>
      </trkpt>
      <trkpt lat="42.9593600" lon="0.7972620">
        <ele>589.8</ele>
        <time>2020-07-24T09:06:15Z</time>
      </trkpt>
      <trkpt lat="42.9593330" lon="0.7970410">
        <ele>588.8</ele>
        <time>2020-07-24T09:06:17Z</time>
      </trkpt>
      <trkpt lat="42.9593310" lon="0.7968550">
        <ele>588.4</ele>
        <time>2020-07-24T09:06:19Z</time>
      </trkpt>
      <trkpt lat="42.9593960" lon="0.7967710">
        <ele>588.4</ele>
        <time>2020-07-24T09:06:21Z</time>
      </trkpt>
      <trkpt lat="42.9594560" lon="0.7967720">
        <ele>588.2</ele>
        <time>2020-07-24T09:06:22Z</time>
      </trkpt>
      <trkpt lat="42.9595140" lon="0.7967900">
        <ele>588.0</ele>
        <time>2020-07-24T09:06:23Z</time>
      </trkpt>
      <trkpt lat="42.9595640" lon="0.7968250">
        <ele>587.6</ele>
        <time>2020-07-24T09:06:24Z</time>
      </trkpt>
      <trkpt lat="42.9596140" lon="0.7968630">
        <ele>587.2</ele>
        <time>2020-07-24T09:06:25Z</time>
      </trkpt>
      <trkpt lat="42.9596840" lon="0.7970030">
        <ele>586.4</ele>
        <time>2020-07-24T09:06:27Z</time>
      </trkpt>
      <trkpt lat="42.9597580" lon="0.7971780">
        <ele>585.8</ele>
        <time>2020-07-24T09:06:29Z</time>
      </trkpt>
      <trkpt lat="42.9598080" lon="0.7972430">
        <ele>585.4</ele>
        <time>2020-07-24T09:06:30Z</time>
      </trkpt>
      <trkpt lat="42.9598980" lon="0.7973510">
        <ele>584.2</ele>
        <time>2020-07-24T09:06:32Z</time>
      </trkpt>
      <trkpt lat="42.9599470" lon="0.7973900">
        <ele>583.6</ele>
        <time>2020-07-24T09:06:33Z</time>
      </trkpt>
      <trkpt lat="42.9600010" lon="0.7974230">
        <ele>583.0</ele>
        <time>2020-07-24T09:06:34Z</time>
      </trkpt>
      <trkpt lat="42.9601260" lon="0.7974860">
        <ele>581.4</ele>
        <time>2020-07-24T09:06:36Z</time>
      </trkpt>
      <trkpt lat="42.9602760" lon="0.7975360">
        <ele>580.4</ele>
        <time>2020-07-24T09:06:38Z</time>
      </trkpt>
      <trkpt lat="42.9604410" lon="0.7975570">
        <ele>579.2</ele>
        <time>2020-07-24T09:06:40Z</time>
      </trkpt>
      <trkpt lat="42.9606050" lon="0.7975590">
        <ele>578.0</ele>
        <time>2020-07-24T09:06:42Z</time>
      </trkpt>
      <trkpt lat="42.9606880" lon="0.7975490">
        <ele>577.4</ele>
        <time>2020-07-24T09:06:43Z</time>
      </trkpt>
      <trkpt lat="42.9607830" lon="0.7975280">
        <ele>576.8</ele>
        <time>2020-07-24T09:06:44Z</time>
      </trkpt>
      <trkpt lat="42.9608840" lon="0.7974860">
        <ele>576.4</ele>
        <time>2020-07-24T09:06:45Z</time>
      </trkpt>
      <trkpt lat="42.9609800" lon="0.7974460">
        <ele>576.2</ele>
        <time>2020-07-24T09:06:46Z</time>
      </trkpt>
      <trkpt lat="42.9610780" lon="0.7973830">
        <ele>576.0</ele>
        <time>2020-07-24T09:06:47Z</time>
      </trkpt>
      <trkpt lat="42.9611700" lon="0.7973290">
        <ele>575.8</ele>
        <time>2020-07-24T09:06:48Z</time>
      </trkpt>
      <trkpt lat="42.9612520" lon="0.7972690">
        <ele>575.6</ele>
        <time>2020-07-24T09:06:49Z</time>
      </trkpt>
      <trkpt lat="42.9614060" lon="0.7971420">
        <ele>575.4</ele>
        <time>2020-07-24T09:06:51Z</time>
      </trkpt>
      <trkpt lat="42.9615220" lon="0.7970010">
        <ele>575.4</ele>
        <time>2020-07-24T09:06:53Z</time>
      </trkpt>
      <trkpt lat="42.9616290" lon="0.7968730">
        <ele>575.4</ele>
        <time>2020-07-24T09:06:55Z</time>
      </trkpt>
      <trkpt lat="42.9617230" lon="0.7967350">
        <ele>575.8</ele>
        <time>2020-07-24T09:06:57Z</time>
      </trkpt>
      <trkpt lat="42.9618880" lon="0.7965670">
        <ele>576.2</ele>
        <time>2020-07-24T09:07:00Z</time>
      </trkpt>
      <trkpt lat="42.9620940" lon="0.7965210">
        <ele>576.8</ele>
        <time>2020-07-24T09:07:03Z</time>
      </trkpt>
      <trkpt lat="42.9622120" lon="0.7964850">
        <ele>577.0</ele>
        <time>2020-07-24T09:07:05Z</time>
      </trkpt>
      <trkpt lat="42.9623000" lon="0.7964150">
        <ele>577.4</ele>
        <time>2020-07-24T09:07:07Z</time>
      </trkpt>
      <trkpt lat="42.9623940" lon="0.7963550">
        <ele>578.0</ele>
        <time>2020-07-24T09:07:09Z</time>
      </trkpt>
      <trkpt lat="42.9624440" lon="0.7963310">
        <ele>578.4</ele>
        <time>2020-07-24T09:07:10Z</time>
      </trkpt>
      <trkpt lat="42.9625450" lon="0.7962940">
        <ele>579.2</ele>
        <time>2020-07-24T09:07:12Z</time>
      </trkpt>
      <trkpt lat="42.9625910" lon="0.7962660">
        <ele>579.4</ele>
        <time>2020-07-24T09:07:13Z</time>
      </trkpt>
      <trkpt lat="42.9626350" lon="0.7962300">
        <ele>579.8</ele>
        <time>2020-07-24T09:07:14Z</time>
      </trkpt>
      <trkpt lat="42.9627430" lon="0.7961500">
        <ele>580.2</ele>
        <time>2020-07-24T09:07:16Z</time>
      </trkpt>
      <trkpt lat="42.9628370" lon="0.7960790">
        <ele>580.4</ele>
        <time>2020-07-24T09:07:18Z</time>
      </trkpt>
      <trkpt lat="42.9629260" lon="0.7959540">
        <ele>580.2</ele>
        <time>2020-07-24T09:07:20Z</time>
      </trkpt>
      <trkpt lat="42.9630020" lon="0.7958070">
        <ele>579.8</ele>
        <time>2020-07-24T09:07:22Z</time>
      </trkpt>
      <trkpt lat="42.9631500" lon="0.7956240">
        <ele>579.2</ele>
        <time>2020-07-24T09:07:25Z</time>
      </trkpt>
      <trkpt lat="42.9632060" lon="0.7955650">
        <ele>579.0</ele>
        <time>2020-07-24T09:07:26Z</time>
      </trkpt>
      <trkpt lat="42.9632630" lon="0.7955050">
        <ele>578.8</ele>
        <time>2020-07-24T09:07:27Z</time>
      </trkpt>
      <trkpt lat="42.9633770" lon="0.7953620">
        <ele>578.0</ele>
        <time>2020-07-24T09:07:29Z</time>
      </trkpt>
      <trkpt lat="42.9635450" lon="0.7951210">
        <ele>576.8</ele>
        <time>2020-07-24T09:07:32Z</time>
      </trkpt>
      <trkpt lat="42.9636060" lon="0.7950500">
        <ele>576.4</ele>
        <time>2020-07-24T09:07:33Z</time>
      </trkpt>
      <trkpt lat="42.9637420" lon="0.7949250">
        <ele>575.6</ele>
        <time>2020-07-24T09:07:35Z</time>
      </trkpt>
      <trkpt lat="42.9638710" lon="0.7947870">
        <ele>575.0</ele>
        <time>2020-07-24T09:07:37Z</time>
      </trkpt>
      <trkpt lat="42.9639400" lon="0.7947140">
        <ele>574.6</ele>
        <time>2020-07-24T09:07:38Z</time>
      </trkpt>
      <trkpt lat="42.9640060" lon="0.7946390">
        <ele>574.0</ele>
        <time>2020-07-24T09:07:39Z</time>
      </trkpt>
      <trkpt lat="42.9641500" lon="0.7945140">
        <ele>572.4</ele>
        <time>2020-07-24T09:07:41Z</time>
      </trkpt>
      <trkpt lat="42.9643300" lon="0.7944420">
        <ele>570.6</ele>
        <time>2020-07-24T09:07:43Z</time>
      </trkpt>
      <trkpt lat="42.9644900" lon="0.7943850">
        <ele>569.4</ele>
        <time>2020-07-24T09:07:45Z</time>
      </trkpt>
      <trkpt lat="42.9646920" lon="0.7943730">
        <ele>568.4</ele>
        <time>2020-07-24T09:07:47Z</time>
      </trkpt>
      <trkpt lat="42.9649130" lon="0.7943740">
        <ele>566.8</ele>
        <time>2020-07-24T09:07:49Z</time>
      </trkpt>
      <trkpt lat="42.9651280" lon="0.7943740">
        <ele>565.0</ele>
        <time>2020-07-24T09:07:51Z</time>
      </trkpt>
      <trkpt lat="42.9652380" lon="0.7943740">
        <ele>564.4</ele>
        <time>2020-07-24T09:07:52Z</time>
      </trkpt>
      <trkpt lat="42.9653430" lon="0.7943710">
        <ele>563.6</ele>
        <time>2020-07-24T09:07:53Z</time>
      </trkpt>
      <trkpt lat="42.9654440" lon="0.7943700">
        <ele>562.4</ele>
        <time>2020-07-24T09:07:54Z</time>
      </trkpt>
      <trkpt lat="42.9655420" lon="0.7943710">
        <ele>561.2</ele>
        <time>2020-07-24T09:07:55Z</time>
      </trkpt>
      <trkpt lat="42.9656430" lon="0.7943800">
        <ele>560.0</ele>
        <time>2020-07-24T09:07:56Z</time>
      </trkpt>
      <trkpt lat="42.9657460" lon="0.7943920">
        <ele>559.0</ele>
        <time>2020-07-24T09:07:57Z</time>
      </trkpt>
      <trkpt lat="42.9658470" lon="0.7943980">
        <ele>558.4</ele>
        <time>2020-07-24T09:07:58Z</time>
      </trkpt>
      <trkpt lat="42.9659450" lon="0.7944110">
        <ele>557.8</ele>
        <time>2020-07-24T09:07:59Z</time>
      </trkpt>
      <trkpt lat="42.9661370" lon="0.7944430">
        <ele>556.6</ele>
        <time>2020-07-24T09:08:01Z</time>
      </trkpt>
      <trkpt lat="42.9663170" lon="0.7944720">
        <ele>555.2</ele>
        <time>2020-07-24T09:08:03Z</time>
      </trkpt>
      <trkpt lat="42.9664000" lon="0.7944770">
        <ele>554.6</ele>
        <time>2020-07-24T09:08:04Z</time>
      </trkpt>
      <trkpt lat="42.9664800" lon="0.7944590">
        <ele>554.0</ele>
        <time>2020-07-24T09:08:05Z</time>
      </trkpt>
      <trkpt lat="42.9666380" lon="0.7943830">
        <ele>552.4</ele>
        <time>2020-07-24T09:08:07Z</time>
      </trkpt>
      <trkpt lat="42.9667730" lon="0.7942880">
        <ele>551.2</ele>
        <time>2020-07-24T09:08:09Z</time>
      </trkpt>
      <trkpt lat="42.9668020" lon="0.7941720">
        <ele>550.4</ele>
        <time>2020-07-24T09:08:10Z</time>
      </trkpt>
      <trkpt lat="42.9668270" lon="0.7940550">
        <ele>549.6</ele>
        <time>2020-07-24T09:08:11Z</time>
      </trkpt>
      <trkpt lat="42.9668550" lon="0.7937930">
        <ele>548.0</ele>
        <time>2020-07-24T09:08:13Z</time>
      </trkpt>
      <trkpt lat="42.9668800" lon="0.7935120">
        <ele>547.0</ele>
        <time>2020-07-24T09:08:15Z</time>
      </trkpt>
      <trkpt lat="42.9669260" lon="0.7932320">
        <ele>546.0</ele>
        <time>2020-07-24T09:08:17Z</time>
      </trkpt>
      <trkpt lat="42.9669690" lon="0.7930940">
        <ele>545.4</ele>
        <time>2020-07-24T09:08:18Z</time>
      </trkpt>
      <trkpt lat="42.9670230" lon="0.7929610">
        <ele>544.8</ele>
        <time>2020-07-24T09:08:19Z</time>
      </trkpt>
      <trkpt lat="42.9671570" lon="0.7927120">
        <ele>543.0</ele>
        <time>2020-07-24T09:08:21Z</time>
      </trkpt>
      <trkpt lat="42.9673180" lon="0.7924920">
        <ele>541.4</ele>
        <time>2020-07-24T09:08:23Z</time>
      </trkpt>
      <trkpt lat="42.9674930" lon="0.7922710">
        <ele>539.6</ele>
        <time>2020-07-24T09:08:25Z</time>
      </trkpt>
      <trkpt lat="42.9676670" lon="0.7920500">
        <ele>537.8</ele>
        <time>2020-07-24T09:08:27Z</time>
      </trkpt>
      <trkpt lat="42.9677540" lon="0.7919370">
        <ele>536.8</ele>
        <time>2020-07-24T09:08:28Z</time>
      </trkpt>
      <trkpt lat="42.9678480" lon="0.7918340">
        <ele>535.6</ele>
        <time>2020-07-24T09:08:29Z</time>
      </trkpt>
      <trkpt lat="42.9679320" lon="0.7917230">
        <ele>534.4</ele>
        <time>2020-07-24T09:08:30Z</time>
      </trkpt>
      <trkpt lat="42.9681200" lon="0.7915460">
        <ele>532.8</ele>
        <time>2020-07-24T09:08:32Z</time>
      </trkpt>
      <trkpt lat="42.9682230" lon="0.7914740">
        <ele>532.4</ele>
        <time>2020-07-24T09:08:33Z</time>
      </trkpt>
      <trkpt lat="42.9683230" lon="0.7914040">
        <ele>532.0</ele>
        <time>2020-07-24T09:08:34Z</time>
      </trkpt>
      <trkpt lat="42.9684250" lon="0.7913370">
        <ele>531.6</ele>
        <time>2020-07-24T09:08:35Z</time>
      </trkpt>
      <trkpt lat="42.9685310" lon="0.7912700">
        <ele>531.2</ele>
        <time>2020-07-24T09:08:36Z</time>
      </trkpt>
      <trkpt lat="42.9686400" lon="0.7912160">
        <ele>530.8</ele>
        <time>2020-07-24T09:08:37Z</time>
      </trkpt>
      <trkpt lat="42.9687510" lon="0.7911770">
        <ele>530.4</ele>
        <time>2020-07-24T09:08:38Z</time>
      </trkpt>
      <trkpt lat="42.9688600" lon="0.7911580">
        <ele>530.0</ele>
        <time>2020-07-24T09:08:39Z</time>
      </trkpt>
      <trkpt lat="42.9689620" lon="0.7911590">
        <ele>529.6</ele>
        <time>2020-07-24T09:08:40Z</time>
      </trkpt>
      <trkpt lat="42.9690640" lon="0.7911730">
        <ele>529.4</ele>
        <time>2020-07-24T09:08:41Z</time>
      </trkpt>
      <trkpt lat="42.9691600" lon="0.7912020">
        <ele>529.2</ele>
        <time>2020-07-24T09:08:42Z</time>
      </trkpt>
      <trkpt lat="42.9694290" lon="0.7912970">
        <ele>528.8</ele>
        <time>2020-07-24T09:08:45Z</time>
      </trkpt>
      <trkpt lat="42.9696990" lon="0.7912840">
        <ele>528.6</ele>
        <time>2020-07-24T09:08:48Z</time>
      </trkpt>
      <trkpt lat="42.9697860" lon="0.7912610">
        <ele>528.6</ele>
        <time>2020-07-24T09:08:49Z</time>
      </trkpt>
      <trkpt lat="42.9699470" lon="0.7911960">
        <ele>528.2</ele>
        <time>2020-07-24T09:08:51Z</time>
      </trkpt>
      <trkpt lat="42.9701100" lon="0.7911140">
        <ele>528.0</ele>
        <time>2020-07-24T09:08:53Z</time>
      </trkpt>
      <trkpt lat="42.9701920" lon="0.7910720">
        <ele>527.8</ele>
        <time>2020-07-24T09:08:54Z</time>
      </trkpt>
      <trkpt lat="42.9705160" lon="0.7909170">
        <ele>527.6</ele>
        <time>2020-07-24T09:08:58Z</time>
      </trkpt>
      <trkpt lat="42.9706700" lon="0.7908500">
        <ele>527.2</ele>
        <time>2020-07-24T09:09:00Z</time>
      </trkpt>
      <trkpt lat="42.9707430" lon="0.7908230">
        <ele>527.0</ele>
        <time>2020-07-24T09:09:01Z</time>
      </trkpt>
      <trkpt lat="42.9709500" lon="0.7907370">
        <ele>526.6</ele>
        <time>2020-07-24T09:09:04Z</time>
      </trkpt>
      <trkpt lat="42.9711310" lon="0.7906580">
        <ele>526.4</ele>
        <time>2020-07-24T09:09:07Z</time>
      </trkpt>
      <trkpt lat="42.9714080" lon="0.7905540">
        <ele>526.0</ele>
        <time>2020-07-24T09:09:12Z</time>
      </trkpt>
      <trkpt lat="42.9715250" lon="0.7905160">
        <ele>525.4</ele>
        <time>2020-07-24T09:09:14Z</time>
      </trkpt>
      <trkpt lat="42.9716440" lon="0.7904900">
        <ele>525.2</ele>
        <time>2020-07-24T09:09:16Z</time>
      </trkpt>
      <trkpt lat="42.9718570" lon="0.7904400">
        <ele>525.0</ele>
        <time>2020-07-24T09:09:20Z</time>
      </trkpt>
      <trkpt lat="42.9719030" lon="0.7904240">
        <ele>525.0</ele>
        <time>2020-07-24T09:09:21Z</time>
      </trkpt>
      <trkpt lat="42.9719450" lon="0.7904020">
        <ele>525.0</ele>
        <time>2020-07-24T09:09:22Z</time>
      </trkpt>
      <trkpt lat="42.9720680" lon="0.7903270">
        <ele>524.8</ele>
        <time>2020-07-24T09:09:25Z</time>
      </trkpt>
      <trkpt lat="42.9721590" lon="0.7902640">
        <ele>524.8</ele>
        <time>2020-07-24T09:09:27Z</time>
      </trkpt>
      <trkpt lat="42.9722420" lon="0.7901870">
        <ele>524.8</ele>
        <time>2020-07-24T09:09:29Z</time>
      </trkpt>
      <trkpt lat="42.9724030" lon="0.7899720">
        <ele>524.4</ele>
        <time>2020-07-24T09:09:33Z</time>
      </trkpt>
      <trkpt lat="42.9725490" lon="0.7897990">
        <ele>523.8</ele>
        <time>2020-07-24T09:09:36Z</time>
      </trkpt>
      <trkpt lat="42.9727110" lon="0.7896380">
        <ele>523.6</ele>
        <time>2020-07-24T09:09:39Z</time>
      </trkpt>
      <trkpt lat="42.9730820" lon="0.7894150">
        <ele>523.4</ele>
        <time>2020-07-24T09:09:45Z</time>
      </trkpt>
      <trkpt lat="42.9732810" lon="0.7893170">
        <ele>522.6</ele>
        <time>2020-07-24T09:09:48Z</time>
      </trkpt>
      <trkpt lat="42.9735000" lon="0.7892120">
        <ele>521.2</ele>
        <time>2020-07-24T09:09:51Z</time>
      </trkpt>
      <trkpt lat="42.9735770" lon="0.7891800">
        <ele>521.0</ele>
        <time>2020-07-24T09:09:52Z</time>
      </trkpt>
      <trkpt lat="42.9737420" lon="0.7891040">
        <ele>519.8</ele>
        <time>2020-07-24T09:09:54Z</time>
      </trkpt>
      <trkpt lat="42.9740040" lon="0.7889850">
        <ele>518.2</ele>
        <time>2020-07-24T09:09:57Z</time>
      </trkpt>
      <trkpt lat="42.9740920" lon="0.7889450">
        <ele>517.6</ele>
        <time>2020-07-24T09:09:58Z</time>
      </trkpt>
      <trkpt lat="42.9746270" lon="0.7886850">
        <ele>517.2</ele>
        <time>2020-07-24T09:10:04Z</time>
      </trkpt>
      <trkpt lat="42.9747180" lon="0.7886590">
        <ele>517.0</ele>
        <time>2020-07-24T09:10:05Z</time>
      </trkpt>
      <trkpt lat="42.9749040" lon="0.7886540">
        <ele>516.4</ele>
        <time>2020-07-24T09:10:07Z</time>
      </trkpt>
      <trkpt lat="42.9749990" lon="0.7886770">
        <ele>516.2</ele>
        <time>2020-07-24T09:10:08Z</time>
      </trkpt>
      <trkpt lat="42.9752680" lon="0.7887930">
        <ele>515.4</ele>
        <time>2020-07-24T09:10:11Z</time>
      </trkpt>
      <trkpt lat="42.9753540" lon="0.7888410">
        <ele>515.2</ele>
        <time>2020-07-24T09:10:12Z</time>
      </trkpt>
      <trkpt lat="42.9757850" lon="0.7890580">
        <ele>514.0</ele>
        <time>2020-07-24T09:10:17Z</time>
      </trkpt>
      <trkpt lat="42.9759520" lon="0.7891520">
        <ele>513.4</ele>
        <time>2020-07-24T09:10:19Z</time>
      </trkpt>
      <trkpt lat="42.9762140" lon="0.7892450">
        <ele>513.2</ele>
        <time>2020-07-24T09:10:22Z</time>
      </trkpt>
      <trkpt lat="42.9763840" lon="0.7892660">
        <ele>513.0</ele>
        <time>2020-07-24T09:10:24Z</time>
      </trkpt>
      <trkpt lat="42.9766990" lon="0.7892160">
        <ele>513.2</ele>
        <time>2020-07-24T09:10:28Z</time>
      </trkpt>
      <trkpt lat="42.9767730" lon="0.7891830">
        <ele>513.4</ele>
        <time>2020-07-24T09:10:29Z</time>
      </trkpt>
      <trkpt lat="42.9771500" lon="0.7890150">
        <ele>514.6</ele>
        <time>2020-07-24T09:10:35Z</time>
      </trkpt>
      <trkpt lat="42.9772650" lon="0.7889660">
        <ele>515.0</ele>
        <time>2020-07-24T09:10:37Z</time>
      </trkpt>
      <trkpt lat="42.9774280" lon="0.7889190">
        <ele>515.6</ele>
        <time>2020-07-24T09:10:40Z</time>
      </trkpt>
      <trkpt lat="42.9775270" lon="0.7888970">
        <ele>516.2</ele>
        <time>2020-07-24T09:10:42Z</time>
      </trkpt>
      <trkpt lat="42.9776980" lon="0.7888700">
        <ele>517.2</ele>
        <time>2020-07-24T09:10:46Z</time>
      </trkpt>
      <trkpt lat="42.9779360" lon="0.7887590">
        <ele>518.4</ele>
        <time>2020-07-24T09:10:52Z</time>
      </trkpt>
      <trkpt lat="42.9779720" lon="0.7887300">
        <ele>518.6</ele>
        <time>2020-07-24T09:10:53Z</time>
      </trkpt>
      <trkpt lat="42.9781250" lon="0.7886170">
        <ele>519.4</ele>
        <time>2020-07-24T09:10:57Z</time>
      </trkpt>
      <trkpt lat="42.9782370" lon="0.7885400">
        <ele>520.0</ele>
        <time>2020-07-24T09:11:00Z</time>
      </trkpt>
      <trkpt lat="42.9783120" lon="0.7885010">
        <ele>520.6</ele>
        <time>2020-07-24T09:11:02Z</time>
      </trkpt>
      <trkpt lat="42.9785040" lon="0.7884160">
        <ele>521.6</ele>
        <time>2020-07-24T09:11:07Z</time>
      </trkpt>
      <trkpt lat="42.9785420" lon="0.7884070">
        <ele>522.0</ele>
        <time>2020-07-24T09:11:08Z</time>
      </trkpt>
      <trkpt lat="42.9786580" lon="0.7883900">
        <ele>522.8</ele>
        <time>2020-07-24T09:11:11Z</time>
      </trkpt>
      <trkpt lat="42.9787000" lon="0.7883920">
        <ele>523.0</ele>
        <time>2020-07-24T09:11:12Z</time>
      </trkpt>
      <trkpt lat="42.9787840" lon="0.7883970">
        <ele>523.4</ele>
        <time>2020-07-24T09:11:14Z</time>
      </trkpt>
      <trkpt lat="42.9788620" lon="0.7883990">
        <ele>524.0</ele>
        <time>2020-07-24T09:11:16Z</time>
      </trkpt>
      <trkpt lat="42.9790530" lon="0.7884370">
        <ele>525.0</ele>
        <time>2020-07-24T09:11:21Z</time>
      </trkpt>
      <trkpt lat="42.9790920" lon="0.7884450">
        <ele>525.4</ele>
        <time>2020-07-24T09:11:22Z</time>
      </trkpt>
      <trkpt lat="42.9792340" lon="0.7884800">
        <ele>526.2</ele>
        <time>2020-07-24T09:11:26Z</time>
      </trkpt>
      <trkpt lat="42.9793270" lon="0.7884940">
        <ele>527.0</ele>
        <time>2020-07-24T09:11:29Z</time>
      </trkpt>
      <trkpt lat="42.9793570" lon="0.7884990">
        <ele>527.4</ele>
        <time>2020-07-24T09:11:30Z</time>
      </trkpt>
      <trkpt lat="42.9794370" lon="0.7885070">
        <ele>528.4</ele>
        <time>2020-07-24T09:11:33Z</time>
      </trkpt>
      <trkpt lat="42.9795160" lon="0.7885210">
        <ele>528.8</ele>
        <time>2020-07-24T09:11:36Z</time>
      </trkpt>
      <trkpt lat="42.9796280" lon="0.7885340">
        <ele>529.6</ele>
        <time>2020-07-24T09:11:40Z</time>
      </trkpt>
      <trkpt lat="42.9797120" lon="0.7885460">
        <ele>530.4</ele>
        <time>2020-07-24T09:11:43Z</time>
      </trkpt>
      <trkpt lat="42.9797400" lon="0.7885470">
        <ele>530.6</ele>
        <time>2020-07-24T09:11:44Z</time>
      </trkpt>
      <trkpt lat="42.9798200" lon="0.7885400">
        <ele>531.2</ele>
        <time>2020-07-24T09:11:47Z</time>
      </trkpt>
      <trkpt lat="42.9798480" lon="0.7885390">
        <ele>531.6</ele>
        <time>2020-07-24T09:11:48Z</time>
      </trkpt>
      <trkpt lat="42.9799360" lon="0.7885420">
        <ele>532.2</ele>
        <time>2020-07-24T09:11:51Z</time>
      </trkpt>
      <trkpt lat="42.9799910" lon="0.7885490">
        <ele>532.8</ele>
        <time>2020-07-24T09:11:53Z</time>
      </trkpt>
      <trkpt lat="42.9801390" lon="0.7885530">
        <ele>533.8</ele>
        <time>2020-07-24T09:11:58Z</time>
      </trkpt>
      <trkpt lat="42.9801700" lon="0.7885550">
        <ele>534.2</ele>
        <time>2020-07-24T09:11:59Z</time>
      </trkpt>
      <trkpt lat="42.9802750" lon="0.7885630">
        <ele>535.4</ele>
        <time>2020-07-24T09:12:03Z</time>
      </trkpt>
      <trkpt lat="42.9803230" lon="0.7885600">
        <ele>536.0</ele>
        <time>2020-07-24T09:12:05Z</time>
      </trkpt>
      <trkpt lat="42.9803500" lon="0.7885510">
        <ele>536.4</ele>
        <time>2020-07-24T09:12:06Z</time>
      </trkpt>
      <trkpt lat="42.9804530" lon="0.7885210">
        <ele>537.4</ele>
        <time>2020-07-24T09:12:10Z</time>
      </trkpt>
      <trkpt lat="42.9805570" lon="0.7884730">
        <ele>538.2</ele>
        <time>2020-07-24T09:12:14Z</time>
      </trkpt>
      <trkpt lat="42.9805830" lon="0.7884630">
        <ele>538.4</ele>
        <time>2020-07-24T09:12:15Z</time>
      </trkpt>
      <trkpt lat="42.9807160" lon="0.7883960">
        <ele>539.6</ele>
        <time>2020-07-24T09:12:20Z</time>
      </trkpt>
      <trkpt lat="42.9807490" lon="0.7883870">
        <ele>540.0</ele>
        <time>2020-07-24T09:12:21Z</time>
      </trkpt>
      <trkpt lat="42.9808850" lon="0.7883470">
        <ele>540.6</ele>
        <time>2020-07-24T09:12:25Z</time>
      </trkpt>
      <trkpt lat="42.9809590" lon="0.7883250">
        <ele>540.8</ele>
        <time>2020-07-24T09:12:27Z</time>
      </trkpt>
      <trkpt lat="42.9810340" lon="0.7883010">
        <ele>541.0</ele>
        <time>2020-07-24T09:12:29Z</time>
      </trkpt>
      <trkpt lat="42.9811100" lon="0.7882820">
        <ele>541.4</ele>
        <time>2020-07-24T09:12:31Z</time>
      </trkpt>
      <trkpt lat="42.9811790" lon="0.7882610">
        <ele>541.8</ele>
        <time>2020-07-24T09:12:33Z</time>
      </trkpt>
      <trkpt lat="42.9813250" lon="0.7882400">
        <ele>542.4</ele>
        <time>2020-07-24T09:12:37Z</time>
      </trkpt>
      <trkpt lat="42.9814020" lon="0.7882410">
        <ele>542.6</ele>
        <time>2020-07-24T09:12:39Z</time>
      </trkpt>
      <trkpt lat="42.9815150" lon="0.7882470">
        <ele>542.8</ele>
        <time>2020-07-24T09:12:42Z</time>
      </trkpt>
      <trkpt lat="42.9816240" lon="0.7882220">
        <ele>543.6</ele>
        <time>2020-07-24T09:12:45Z</time>
      </trkpt>
      <trkpt lat="42.9816890" lon="0.7881820">
        <ele>544.0</ele>
        <time>2020-07-24T09:12:47Z</time>
      </trkpt>
      <trkpt lat="42.9817890" lon="0.7880830">
        <ele>544.4</ele>
        <time>2020-07-24T09:12:51Z</time>
      </trkpt>
      <trkpt lat="42.9818830" lon="0.7879410">
        <ele>545.0</ele>
        <time>2020-07-24T09:12:57Z</time>
      </trkpt>
      <trkpt lat="42.9818840" lon="0.7879090">
        <ele>545.0</ele>
        <time>2020-07-24T09:12:58Z</time>
      </trkpt>
      <trkpt lat="42.9818720" lon="0.7878680">
        <ele>545.0</ele>
        <time>2020-07-24T09:12:59Z</time>
      </trkpt>
      <trkpt lat="42.9818500" lon="0.7878310">
        <ele>545.2</ele>
        <time>2020-07-24T09:13:00Z</time>
      </trkpt>
      <trkpt lat="42.9818180" lon="0.7878010">
        <ele>545.2</ele>
        <time>2020-07-24T09:13:01Z</time>
      </trkpt>
      <trkpt lat="42.9816370" lon="0.7877050">
        <ele>546.2</ele>
        <time>2020-07-24T09:13:06Z</time>
      </trkpt>
      <trkpt lat="42.9815620" lon="0.7876730">
        <ele>546.4</ele>
        <time>2020-07-24T09:13:08Z</time>
      </trkpt>
      <trkpt lat="42.9814500" lon="0.7876240">
        <ele>547.0</ele>
        <time>2020-07-24T09:13:11Z</time>
      </trkpt>
      <trkpt lat="42.9814100" lon="0.7876070">
        <ele>547.2</ele>
        <time>2020-07-24T09:13:12Z</time>
      </trkpt>
      <trkpt lat="42.9813690" lon="0.7875910">
        <ele>547.4</ele>
        <time>2020-07-24T09:13:13Z</time>
      </trkpt>
      <trkpt lat="42.9812500" lon="0.7875410">
        <ele>548.4</ele>
        <time>2020-07-24T09:13:16Z</time>
      </trkpt>
      <trkpt lat="42.9812100" lon="0.7875230">
        <ele>548.6</ele>
        <time>2020-07-24T09:13:17Z</time>
      </trkpt>
      <trkpt lat="42.9810230" lon="0.7874360">
        <ele>549.4</ele>
        <time>2020-07-24T09:13:22Z</time>
      </trkpt>
      <trkpt lat="42.9808300" lon="0.7873480">
        <ele>550.6</ele>
        <time>2020-07-24T09:13:27Z</time>
      </trkpt>
      <trkpt lat="42.9807920" lon="0.7873300">
        <ele>550.8</ele>
        <time>2020-07-24T09:13:28Z</time>
      </trkpt>
      <trkpt lat="42.9806350" lon="0.7872590">
        <ele>551.8</ele>
        <time>2020-07-24T09:13:32Z</time>
      </trkpt>
      <trkpt lat="42.9805190" lon="0.7872070">
        <ele>552.4</ele>
        <time>2020-07-24T09:13:35Z</time>
      </trkpt>
      <trkpt lat="42.9804810" lon="0.7871880">
        <ele>552.6</ele>
        <time>2020-07-24T09:13:36Z</time>
      </trkpt>
      <trkpt lat="42.9804430" lon="0.7871680">
        <ele>552.8</ele>
        <time>2020-07-24T09:13:37Z</time>
      </trkpt>
      <trkpt lat="42.9804060" lon="0.7871460">
        <ele>553.0</ele>
        <time>2020-07-24T09:13:38Z</time>
      </trkpt>
      <trkpt lat="42.9803680" lon="0.7871250">
        <ele>553.2</ele>
        <time>2020-07-24T09:13:39Z</time>
      </trkpt>
      <trkpt lat="42.9802200" lon="0.7870430">
        <ele>553.8</ele>
        <time>2020-07-24T09:13:43Z</time>
      </trkpt>
      <trkpt lat="42.9801830" lon="0.7870220">
        <ele>554.0</ele>
        <time>2020-07-24T09:13:44Z</time>
      </trkpt>
      <trkpt lat="42.9801100" lon="0.7869770">
        <ele>554.4</ele>
        <time>2020-07-24T09:13:46Z</time>
      </trkpt>
      <trkpt lat="42.9799970" lon="0.7869240">
        <ele>555.2</ele>
        <time>2020-07-24T09:13:49Z</time>
      </trkpt>
      <trkpt lat="42.9799600" lon="0.7869060">
        <ele>555.4</ele>
        <time>2020-07-24T09:13:50Z</time>
      </trkpt>
      <trkpt lat="42.9798520" lon="0.7868510">
        <ele>555.8</ele>
        <time>2020-07-24T09:13:53Z</time>
      </trkpt>
      <trkpt lat="42.9797790" lon="0.7868100">
        <ele>556.2</ele>
        <time>2020-07-24T09:13:55Z</time>
      </trkpt>
      <trkpt lat="42.9797090" lon="0.7867670">
        <ele>556.4</ele>
        <time>2020-07-24T09:13:57Z</time>
      </trkpt>
      <trkpt lat="42.9795390" lon="0.7866440">
        <ele>557.2</ele>
        <time>2020-07-24T09:14:02Z</time>
      </trkpt>
      <trkpt lat="42.9794130" lon="0.7864660">
        <ele>558.4</ele>
        <time>2020-07-24T09:14:07Z</time>
      </trkpt>
      <trkpt lat="42.9793690" lon="0.7863840">
        <ele>558.8</ele>
        <time>2020-07-24T09:14:09Z</time>
      </trkpt>
      <trkpt lat="42.9792920" lon="0.7862020">
        <ele>559.4</ele>
        <time>2020-07-24T09:14:13Z</time>
      </trkpt>
      <trkpt lat="42.9792460" lon="0.7860560">
        <ele>560.0</ele>
        <time>2020-07-24T09:14:16Z</time>
      </trkpt>
      <trkpt lat="42.9792150" lon="0.7859020">
        <ele>560.6</ele>
        <time>2020-07-24T09:14:19Z</time>
      </trkpt>
      <trkpt lat="42.9791770" lon="0.7857440">
        <ele>561.2</ele>
        <time>2020-07-24T09:14:22Z</time>
      </trkpt>
      <trkpt lat="42.9791640" lon="0.7856930">
        <ele>561.4</ele>
        <time>2020-07-24T09:14:23Z</time>
      </trkpt>
      <trkpt lat="42.9791400" lon="0.7855870">
        <ele>561.6</ele>
        <time>2020-07-24T09:14:25Z</time>
      </trkpt>
      <trkpt lat="42.9790910" lon="0.7853950">
        <ele>562.8</ele>
        <time>2020-07-24T09:14:29Z</time>
      </trkpt>
      <trkpt lat="42.9790660" lon="0.7853060">
        <ele>563.2</ele>
        <time>2020-07-24T09:14:31Z</time>
      </trkpt>
      <trkpt lat="42.9790370" lon="0.7851220">
        <ele>564.0</ele>
        <time>2020-07-24T09:14:35Z</time>
      </trkpt>
      <trkpt lat="42.9790340" lon="0.7849800">
        <ele>564.8</ele>
        <time>2020-07-24T09:14:38Z</time>
      </trkpt>
      <trkpt lat="42.9790380" lon="0.7849300">
        <ele>565.2</ele>
        <time>2020-07-24T09:14:39Z</time>
      </trkpt>
      <trkpt lat="42.9790870" lon="0.7847070">
        <ele>565.8</ele>
        <time>2020-07-24T09:14:44Z</time>
      </trkpt>
      <trkpt lat="42.9791120" lon="0.7846250">
        <ele>566.4</ele>
        <time>2020-07-24T09:14:46Z</time>
      </trkpt>
      <trkpt lat="42.9791410" lon="0.7845480">
        <ele>566.8</ele>
        <time>2020-07-24T09:14:48Z</time>
      </trkpt>
      <trkpt lat="42.9791640" lon="0.7844630">
        <ele>567.2</ele>
        <time>2020-07-24T09:14:50Z</time>
      </trkpt>
      <trkpt lat="42.9791780" lon="0.7844210">
        <ele>567.4</ele>
        <time>2020-07-24T09:14:51Z</time>
      </trkpt>
      <trkpt lat="42.9792330" lon="0.7841860">
        <ele>568.2</ele>
        <time>2020-07-24T09:14:57Z</time>
      </trkpt>
      <trkpt lat="42.9792410" lon="0.7841450">
        <ele>568.2</ele>
        <time>2020-07-24T09:14:58Z</time>
      </trkpt>
      <trkpt lat="42.9792630" lon="0.7840650">
        <ele>568.4</ele>
        <time>2020-07-24T09:15:00Z</time>
      </trkpt>
      <trkpt lat="42.9793250" lon="0.7838180">
        <ele>569.4</ele>
        <time>2020-07-24T09:15:06Z</time>
      </trkpt>
      <trkpt lat="42.9793330" lon="0.7837760">
        <ele>569.6</ele>
        <time>2020-07-24T09:15:07Z</time>
      </trkpt>
      <trkpt lat="42.9793510" lon="0.7835130">
        <ele>570.4</ele>
        <time>2020-07-24T09:15:13Z</time>
      </trkpt>
      <trkpt lat="42.9793490" lon="0.7834640">
        <ele>570.4</ele>
        <time>2020-07-24T09:15:14Z</time>
      </trkpt>
      <trkpt lat="42.9793470" lon="0.7834150">
        <ele>570.6</ele>
        <time>2020-07-24T09:15:15Z</time>
      </trkpt>
      <trkpt lat="42.9793130" lon="0.7830930">
        <ele>571.4</ele>
        <time>2020-07-24T09:15:21Z</time>
      </trkpt>
      <trkpt lat="42.9793040" lon="0.7829860">
        <ele>571.8</ele>
        <time>2020-07-24T09:15:23Z</time>
      </trkpt>
      <trkpt lat="42.9792890" lon="0.7827030">
        <ele>572.0</ele>
        <time>2020-07-24T09:15:29Z</time>
      </trkpt>
      <trkpt lat="42.9792910" lon="0.7826890">
        <ele>572.2</ele>
        <time>2020-07-24T09:15:30Z</time>
      </trkpt>
      <trkpt lat="42.9791800" lon="0.7825620">
        <ele>571.0</ele>
        <time>2020-07-24T09:24:01Z</time>
      </trkpt>
      <trkpt lat="42.9791870" lon="0.7825190">
        <ele>571.0</ele>
        <time>2020-07-24T09:24:02Z</time>
      </trkpt>
      <trkpt lat="42.9791910" lon="0.7824720">
        <ele>571.0</ele>
        <time>2020-07-24T09:24:03Z</time>
      </trkpt>
      <trkpt lat="42.9791820" lon="0.7822290">
        <ele>571.8</ele>
        <time>2020-07-24T09:24:08Z</time>
      </trkpt>
      <trkpt lat="42.9791440" lon="0.7819510">
        <ele>572.8</ele>
        <time>2020-07-24T09:24:14Z</time>
      </trkpt>
      <trkpt lat="42.9791090" lon="0.7816140">
        <ele>573.4</ele>
        <time>2020-07-24T09:24:20Z</time>
      </trkpt>
      <trkpt lat="42.9791040" lon="0.7815080">
        <ele>573.8</ele>
        <time>2020-07-24T09:24:22Z</time>
      </trkpt>
      <trkpt lat="42.9791080" lon="0.7813540">
        <ele>574.2</ele>
        <time>2020-07-24T09:24:25Z</time>
      </trkpt>
      <trkpt lat="42.9791140" lon="0.7812230">
        <ele>574.2</ele>
        <time>2020-07-24T09:24:27Z</time>
      </trkpt>
      <trkpt lat="42.9791130" lon="0.7809570">
        <ele>574.6</ele>
        <time>2020-07-24T09:24:31Z</time>
      </trkpt>
      <trkpt lat="42.9791140" lon="0.7807510">
        <ele>575.0</ele>
        <time>2020-07-24T09:24:34Z</time>
      </trkpt>
      <trkpt lat="42.9791170" lon="0.7806070">
        <ele>575.4</ele>
        <time>2020-07-24T09:24:36Z</time>
      </trkpt>
      <trkpt lat="42.9791150" lon="0.7805310">
        <ele>575.6</ele>
        <time>2020-07-24T09:24:37Z</time>
      </trkpt>
      <trkpt lat="42.9791160" lon="0.7804600">
        <ele>576.0</ele>
        <time>2020-07-24T09:24:38Z</time>
      </trkpt>
      <trkpt lat="42.9791200" lon="0.7802640">
        <ele>576.8</ele>
        <time>2020-07-24T09:24:41Z</time>
      </trkpt>
      <trkpt lat="42.9791190" lon="0.7802000">
        <ele>577.0</ele>
        <time>2020-07-24T09:24:42Z</time>
      </trkpt>
      <trkpt lat="42.9791190" lon="0.7800710">
        <ele>577.4</ele>
        <time>2020-07-24T09:24:44Z</time>
      </trkpt>
      <trkpt lat="42.9791320" lon="0.7798820">
        <ele>578.0</ele>
        <time>2020-07-24T09:24:47Z</time>
      </trkpt>
      <trkpt lat="42.9791350" lon="0.7797540">
        <ele>578.8</ele>
        <time>2020-07-24T09:24:49Z</time>
      </trkpt>
      <trkpt lat="42.9791240" lon="0.7796190">
        <ele>579.2</ele>
        <time>2020-07-24T09:24:51Z</time>
      </trkpt>
      <trkpt lat="42.9791120" lon="0.7793700">
        <ele>579.6</ele>
        <time>2020-07-24T09:24:55Z</time>
      </trkpt>
      <trkpt lat="42.9790880" lon="0.7792430">
        <ele>580.2</ele>
        <time>2020-07-24T09:24:57Z</time>
      </trkpt>
      <trkpt lat="42.9790750" lon="0.7791820">
        <ele>580.4</ele>
        <time>2020-07-24T09:24:58Z</time>
      </trkpt>
      <trkpt lat="42.9790290" lon="0.7790040">
        <ele>580.8</ele>
        <time>2020-07-24T09:25:01Z</time>
      </trkpt>
      <trkpt lat="42.9789940" lon="0.7788870">
        <ele>581.4</ele>
        <time>2020-07-24T09:25:03Z</time>
      </trkpt>
      <trkpt lat="42.9789450" lon="0.7787160">
        <ele>582.4</ele>
        <time>2020-07-24T09:25:06Z</time>
      </trkpt>
      <trkpt lat="42.9788990" lon="0.7785530">
        <ele>583.4</ele>
        <time>2020-07-24T09:25:09Z</time>
      </trkpt>
      <trkpt lat="42.9788850" lon="0.7785000">
        <ele>583.6</ele>
        <time>2020-07-24T09:25:10Z</time>
      </trkpt>
      <trkpt lat="42.9787930" lon="0.7782370">
        <ele>584.6</ele>
        <time>2020-07-24T09:25:15Z</time>
      </trkpt>
      <trkpt lat="42.9787770" lon="0.7781840">
        <ele>584.8</ele>
        <time>2020-07-24T09:25:16Z</time>
      </trkpt>
      <trkpt lat="42.9787290" lon="0.7779730">
        <ele>585.8</ele>
        <time>2020-07-24T09:25:20Z</time>
      </trkpt>
      <trkpt lat="42.9787050" lon="0.7778680">
        <ele>586.2</ele>
        <time>2020-07-24T09:25:22Z</time>
      </trkpt>
      <trkpt lat="42.9786830" lon="0.7777010">
        <ele>587.0</ele>
        <time>2020-07-24T09:25:25Z</time>
      </trkpt>
      <trkpt lat="42.9786700" lon="0.7774800">
        <ele>587.8</ele>
        <time>2020-07-24T09:25:29Z</time>
      </trkpt>
      <trkpt lat="42.9786710" lon="0.7774260">
        <ele>588.2</ele>
        <time>2020-07-24T09:25:30Z</time>
      </trkpt>
      <trkpt lat="42.9786600" lon="0.7771540">
        <ele>589.2</ele>
        <time>2020-07-24T09:25:35Z</time>
      </trkpt>
      <trkpt lat="42.9786560" lon="0.7770450">
        <ele>589.8</ele>
        <time>2020-07-24T09:25:37Z</time>
      </trkpt>
      <trkpt lat="42.9786590" lon="0.7769390">
        <ele>590.4</ele>
        <time>2020-07-24T09:25:39Z</time>
      </trkpt>
      <trkpt lat="42.9786280" lon="0.7766850">
        <ele>591.4</ele>
        <time>2020-07-24T09:25:44Z</time>
      </trkpt>
      <trkpt lat="42.9785290" lon="0.7763710">
        <ele>592.4</ele>
        <time>2020-07-24T09:25:50Z</time>
      </trkpt>
      <trkpt lat="42.9785140" lon="0.7763180">
        <ele>592.6</ele>
        <time>2020-07-24T09:25:51Z</time>
      </trkpt>
      <trkpt lat="42.9785030" lon="0.7762620">
        <ele>592.6</ele>
        <time>2020-07-24T09:25:52Z</time>
      </trkpt>
      <trkpt lat="42.9784660" lon="0.7760950">
        <ele>593.6</ele>
        <time>2020-07-24T09:25:55Z</time>
      </trkpt>
      <trkpt lat="42.9784420" lon="0.7758620">
        <ele>594.4</ele>
        <time>2020-07-24T09:25:59Z</time>
      </trkpt>
      <trkpt lat="42.9784430" lon="0.7758090">
        <ele>594.6</ele>
        <time>2020-07-24T09:26:00Z</time>
      </trkpt>
      <trkpt lat="42.9784690" lon="0.7755390">
        <ele>595.8</ele>
        <time>2020-07-24T09:26:05Z</time>
      </trkpt>
      <trkpt lat="42.9785180" lon="0.7753300">
        <ele>597.0</ele>
        <time>2020-07-24T09:26:09Z</time>
      </trkpt>
      <trkpt lat="42.9785300" lon="0.7752140">
        <ele>597.6</ele>
        <time>2020-07-24T09:26:11Z</time>
      </trkpt>
      <trkpt lat="42.9785370" lon="0.7751020">
        <ele>598.2</ele>
        <time>2020-07-24T09:26:13Z</time>
      </trkpt>
      <trkpt lat="42.9785130" lon="0.7748800">
        <ele>599.2</ele>
        <time>2020-07-24T09:26:17Z</time>
      </trkpt>
      <trkpt lat="42.9784970" lon="0.7748260">
        <ele>599.4</ele>
        <time>2020-07-24T09:26:18Z</time>
      </trkpt>
      <trkpt lat="42.9784440" lon="0.7746650">
        <ele>599.8</ele>
        <time>2020-07-24T09:26:21Z</time>
      </trkpt>
      <trkpt lat="42.9784070" lon="0.7745530">
        <ele>600.2</ele>
        <time>2020-07-24T09:26:23Z</time>
      </trkpt>
      <trkpt lat="42.9783650" lon="0.7743390">
        <ele>601.4</ele>
        <time>2020-07-24T09:26:27Z</time>
      </trkpt>
      <trkpt lat="42.9783530" lon="0.7741670">
        <ele>602.0</ele>
        <time>2020-07-24T09:26:30Z</time>
      </trkpt>
      <trkpt lat="42.9783620" lon="0.7740510">
        <ele>602.6</ele>
        <time>2020-07-24T09:26:32Z</time>
      </trkpt>
      <trkpt lat="42.9784020" lon="0.7738910">
        <ele>603.2</ele>
        <time>2020-07-24T09:26:35Z</time>
      </trkpt>
      <trkpt lat="42.9784500" lon="0.7737940">
        <ele>603.8</ele>
        <time>2020-07-24T09:26:37Z</time>
      </trkpt>
      <trkpt lat="42.9785060" lon="0.7737080">
        <ele>604.4</ele>
        <time>2020-07-24T09:26:39Z</time>
      </trkpt>
      <trkpt lat="42.9785650" lon="0.7736200">
        <ele>604.8</ele>
        <time>2020-07-24T09:26:41Z</time>
      </trkpt>
      <trkpt lat="42.9786800" lon="0.7733780">
        <ele>606.0</ele>
        <time>2020-07-24T09:26:46Z</time>
      </trkpt>
      <trkpt lat="42.9786950" lon="0.7733220">
        <ele>606.0</ele>
        <time>2020-07-24T09:26:47Z</time>
      </trkpt>
      <trkpt lat="42.9787020" lon="0.7732610">
        <ele>606.2</ele>
        <time>2020-07-24T09:26:48Z</time>
      </trkpt>
      <trkpt lat="42.9787060" lon="0.7730840">
        <ele>606.8</ele>
        <time>2020-07-24T09:26:51Z</time>
      </trkpt>
      <trkpt lat="42.9786990" lon="0.7730250">
        <ele>607.0</ele>
        <time>2020-07-24T09:26:52Z</time>
      </trkpt>
      <trkpt lat="42.9786720" lon="0.7728500">
        <ele>607.8</ele>
        <time>2020-07-24T09:26:55Z</time>
      </trkpt>
      <trkpt lat="42.9786600" lon="0.7727900">
        <ele>608.2</ele>
        <time>2020-07-24T09:26:56Z</time>
      </trkpt>
      <trkpt lat="42.9785890" lon="0.7725480">
        <ele>609.2</ele>
        <time>2020-07-24T09:27:00Z</time>
      </trkpt>
      <trkpt lat="42.9785110" lon="0.7722190">
        <ele>610.6</ele>
        <time>2020-07-24T09:27:06Z</time>
      </trkpt>
      <trkpt lat="42.9785020" lon="0.7721670">
        <ele>611.0</ele>
        <time>2020-07-24T09:27:07Z</time>
      </trkpt>
      <trkpt lat="42.9784520" lon="0.7719050">
        <ele>611.8</ele>
        <time>2020-07-24T09:27:12Z</time>
      </trkpt>
      <trkpt lat="42.9784150" lon="0.7717480">
        <ele>612.6</ele>
        <time>2020-07-24T09:27:15Z</time>
      </trkpt>
      <trkpt lat="42.9783770" lon="0.7715800">
        <ele>612.8</ele>
        <time>2020-07-24T09:27:18Z</time>
      </trkpt>
      <trkpt lat="42.9783690" lon="0.7715260">
        <ele>613.0</ele>
        <time>2020-07-24T09:27:19Z</time>
      </trkpt>
      <trkpt lat="42.9783400" lon="0.7713670">
        <ele>613.4</ele>
        <time>2020-07-24T09:27:22Z</time>
      </trkpt>
      <trkpt lat="42.9782980" lon="0.7712160">
        <ele>613.6</ele>
        <time>2020-07-24T09:27:25Z</time>
      </trkpt>
      <trkpt lat="42.9782710" lon="0.7711140">
        <ele>613.6</ele>
        <time>2020-07-24T09:27:27Z</time>
      </trkpt>
      <trkpt lat="42.9782410" lon="0.7709710">
        <ele>613.6</ele>
        <time>2020-07-24T09:27:30Z</time>
      </trkpt>
      <trkpt lat="42.9781980" lon="0.7706920">
        <ele>613.6</ele>
        <time>2020-07-24T09:27:36Z</time>
      </trkpt>
      <trkpt lat="42.9781890" lon="0.7706040">
        <ele>613.4</ele>
        <time>2020-07-24T09:27:38Z</time>
      </trkpt>
      <trkpt lat="42.9781630" lon="0.7703210">
        <ele>613.2</ele>
        <time>2020-07-24T09:27:44Z</time>
      </trkpt>
      <trkpt lat="42.9781630" lon="0.7702080">
        <ele>613.2</ele>
        <time>2020-07-24T09:27:46Z</time>
      </trkpt>
      <trkpt lat="42.9781650" lon="0.7698170">
        <ele>612.4</ele>
        <time>2020-07-24T09:27:52Z</time>
      </trkpt>
      <trkpt lat="42.9781690" lon="0.7697420">
        <ele>612.2</ele>
        <time>2020-07-24T09:27:53Z</time>
      </trkpt>
      <trkpt lat="42.9781770" lon="0.7696670">
        <ele>612.0</ele>
        <time>2020-07-24T09:27:54Z</time>
      </trkpt>
      <trkpt lat="42.9782280" lon="0.7692540">
        <ele>610.8</ele>
        <time>2020-07-24T09:27:59Z</time>
      </trkpt>
      <trkpt lat="42.9782700" lon="0.7688910">
        <ele>609.6</ele>
        <time>2020-07-24T09:28:03Z</time>
      </trkpt>
      <trkpt lat="42.9782840" lon="0.7685930">
        <ele>609.0</ele>
        <time>2020-07-24T09:28:06Z</time>
      </trkpt>
      <trkpt lat="42.9783040" lon="0.7682870">
        <ele>608.4</ele>
        <time>2020-07-24T09:28:09Z</time>
      </trkpt>
      <trkpt lat="42.9783430" lon="0.7677360">
        <ele>607.2</ele>
        <time>2020-07-24T09:28:14Z</time>
      </trkpt>
      <trkpt lat="42.9783840" lon="0.7671660">
        <ele>606.2</ele>
        <time>2020-07-24T09:28:19Z</time>
      </trkpt>
      <trkpt lat="42.9784150" lon="0.7667120">
        <ele>605.2</ele>
        <time>2020-07-24T09:28:23Z</time>
      </trkpt>
      <trkpt lat="42.9784420" lon="0.7663800">
        <ele>605.0</ele>
        <time>2020-07-24T09:28:26Z</time>
      </trkpt>
      <trkpt lat="42.9784540" lon="0.7661600">
        <ele>605.0</ele>
        <time>2020-07-24T09:28:28Z</time>
      </trkpt>
      <trkpt lat="42.9784810" lon="0.7658440">
        <ele>604.8</ele>
        <time>2020-07-24T09:28:31Z</time>
      </trkpt>
      <trkpt lat="42.9785150" lon="0.7654430">
        <ele>604.8</ele>
        <time>2020-07-24T09:28:35Z</time>
      </trkpt>
      <trkpt lat="42.9785420" lon="0.7651570">
        <ele>604.8</ele>
        <time>2020-07-24T09:28:38Z</time>
      </trkpt>
      <trkpt lat="42.9785530" lon="0.7649720">
        <ele>604.8</ele>
        <time>2020-07-24T09:28:40Z</time>
      </trkpt>
      <trkpt lat="42.9785680" lon="0.7647040">
        <ele>604.8</ele>
        <time>2020-07-24T09:28:43Z</time>
      </trkpt>
      <trkpt lat="42.9785740" lon="0.7646150">
        <ele>604.8</ele>
        <time>2020-07-24T09:28:44Z</time>
      </trkpt>
      <trkpt lat="42.9785990" lon="0.7642410">
        <ele>604.4</ele>
        <time>2020-07-24T09:28:48Z</time>
      </trkpt>
      <trkpt lat="42.9786140" lon="0.7640460">
        <ele>604.2</ele>
        <time>2020-07-24T09:28:50Z</time>
      </trkpt>
      <trkpt lat="42.9786210" lon="0.7639490">
        <ele>604.2</ele>
        <time>2020-07-24T09:28:51Z</time>
      </trkpt>
      <trkpt lat="42.9786440" lon="0.7636350">
        <ele>604.2</ele>
        <time>2020-07-24T09:28:54Z</time>
      </trkpt>
      <trkpt lat="42.9786600" lon="0.7634190">
        <ele>604.0</ele>
        <time>2020-07-24T09:28:56Z</time>
      </trkpt>
      <trkpt lat="42.9786820" lon="0.7632020">
        <ele>603.8</ele>
        <time>2020-07-24T09:28:58Z</time>
      </trkpt>
      <trkpt lat="42.9787190" lon="0.7627790">
        <ele>603.0</ele>
        <time>2020-07-24T09:29:02Z</time>
      </trkpt>
      <trkpt lat="42.9787290" lon="0.7624590">
        <ele>602.6</ele>
        <time>2020-07-24T09:29:05Z</time>
      </trkpt>
      <trkpt lat="42.9787130" lon="0.7621240">
        <ele>601.6</ele>
        <time>2020-07-24T09:29:08Z</time>
      </trkpt>
      <trkpt lat="42.9786690" lon="0.7617820">
        <ele>600.0</ele>
        <time>2020-07-24T09:29:11Z</time>
      </trkpt>
      <trkpt lat="42.9786340" lon="0.7615520">
        <ele>598.8</ele>
        <time>2020-07-24T09:29:13Z</time>
      </trkpt>
      <trkpt lat="42.9785680" lon="0.7610880">
        <ele>597.8</ele>
        <time>2020-07-24T09:29:17Z</time>
      </trkpt>
      <trkpt lat="42.9784780" lon="0.7606130">
        <ele>597.0</ele>
        <time>2020-07-24T09:29:21Z</time>
      </trkpt>
      <trkpt lat="42.9783990" lon="0.7601330">
        <ele>596.4</ele>
        <time>2020-07-24T09:29:25Z</time>
      </trkpt>
      <trkpt lat="42.9783470" lon="0.7597870">
        <ele>595.2</ele>
        <time>2020-07-24T09:29:28Z</time>
      </trkpt>
      <trkpt lat="42.9783300" lon="0.7596760">
        <ele>595.0</ele>
        <time>2020-07-24T09:29:29Z</time>
      </trkpt>
      <trkpt lat="42.9782950" lon="0.7594620">
        <ele>594.8</ele>
        <time>2020-07-24T09:29:31Z</time>
      </trkpt>
      <trkpt lat="42.9782530" lon="0.7592490">
        <ele>594.8</ele>
        <time>2020-07-24T09:29:33Z</time>
      </trkpt>
      <trkpt lat="42.9782180" lon="0.7590420">
        <ele>594.8</ele>
        <time>2020-07-24T09:29:35Z</time>
      </trkpt>
      <trkpt lat="42.9781840" lon="0.7588390">
        <ele>594.4</ele>
        <time>2020-07-24T09:29:37Z</time>
      </trkpt>
      <trkpt lat="42.9781000" lon="0.7582520">
        <ele>595.4</ele>
        <time>2020-07-24T09:29:43Z</time>
      </trkpt>
      <trkpt lat="42.9780680" lon="0.7580570">
        <ele>595.6</ele>
        <time>2020-07-24T09:29:45Z</time>
      </trkpt>
      <trkpt lat="42.9780030" lon="0.7576570">
        <ele>594.0</ele>
        <time>2020-07-24T09:29:49Z</time>
      </trkpt>
      <trkpt lat="42.9779740" lon="0.7574550">
        <ele>593.0</ele>
        <time>2020-07-24T09:29:51Z</time>
      </trkpt>
      <trkpt lat="42.9779600" lon="0.7573520">
        <ele>592.4</ele>
        <time>2020-07-24T09:29:52Z</time>
      </trkpt>
      <trkpt lat="42.9779440" lon="0.7572480">
        <ele>591.8</ele>
        <time>2020-07-24T09:29:53Z</time>
      </trkpt>
      <trkpt lat="42.9779080" lon="0.7570350">
        <ele>591.2</ele>
        <time>2020-07-24T09:29:55Z</time>
      </trkpt>
      <trkpt lat="42.9778530" lon="0.7567110">
        <ele>590.0</ele>
        <time>2020-07-24T09:29:58Z</time>
      </trkpt>
      <trkpt lat="42.9778220" lon="0.7564860">
        <ele>589.4</ele>
        <time>2020-07-24T09:30:00Z</time>
      </trkpt>
      <trkpt lat="42.9777970" lon="0.7562510">
        <ele>589.4</ele>
        <time>2020-07-24T09:30:02Z</time>
      </trkpt>
      <trkpt lat="42.9777920" lon="0.7561330">
        <ele>589.4</ele>
        <time>2020-07-24T09:30:03Z</time>
      </trkpt>
      <trkpt lat="42.9778110" lon="0.7559010">
        <ele>589.4</ele>
        <time>2020-07-24T09:30:05Z</time>
      </trkpt>
      <trkpt lat="42.9778420" lon="0.7557930">
        <ele>589.2</ele>
        <time>2020-07-24T09:30:06Z</time>
      </trkpt>
      <trkpt lat="42.9778810" lon="0.7556900">
        <ele>588.8</ele>
        <time>2020-07-24T09:30:07Z</time>
      </trkpt>
      <trkpt lat="42.9779800" lon="0.7555050">
        <ele>588.0</ele>
        <time>2020-07-24T09:30:09Z</time>
      </trkpt>
      <trkpt lat="42.9780370" lon="0.7554230">
        <ele>587.8</ele>
        <time>2020-07-24T09:30:10Z</time>
      </trkpt>
      <trkpt lat="42.9780950" lon="0.7553450">
        <ele>587.6</ele>
        <time>2020-07-24T09:30:11Z</time>
      </trkpt>
      <trkpt lat="42.9784040" lon="0.7550020">
        <ele>587.2</ele>
        <time>2020-07-24T09:30:16Z</time>
      </trkpt>
      <trkpt lat="42.9785940" lon="0.7548160">
        <ele>586.6</ele>
        <time>2020-07-24T09:30:19Z</time>
      </trkpt>
      <trkpt lat="42.9788340" lon="0.7545290">
        <ele>586.0</ele>
        <time>2020-07-24T09:30:23Z</time>
      </trkpt>
      <trkpt lat="42.9789180" lon="0.7543480">
        <ele>585.8</ele>
        <time>2020-07-24T09:30:25Z</time>
      </trkpt>
      <trkpt lat="42.9789670" lon="0.7541410">
        <ele>585.4</ele>
        <time>2020-07-24T09:30:27Z</time>
      </trkpt>
      <trkpt lat="42.9789580" lon="0.7539190">
        <ele>585.2</ele>
        <time>2020-07-24T09:30:29Z</time>
      </trkpt>
      <trkpt lat="42.9789420" lon="0.7538070">
        <ele>584.8</ele>
        <time>2020-07-24T09:30:30Z</time>
      </trkpt>
      <trkpt lat="42.9788980" lon="0.7535860">
        <ele>584.6</ele>
        <time>2020-07-24T09:30:32Z</time>
      </trkpt>
      <trkpt lat="42.9788560" lon="0.7533560">
        <ele>584.4</ele>
        <time>2020-07-24T09:30:34Z</time>
      </trkpt>
      <trkpt lat="42.9788480" lon="0.7532360">
        <ele>584.2</ele>
        <time>2020-07-24T09:30:35Z</time>
      </trkpt>
      <trkpt lat="42.9788810" lon="0.7530030">
        <ele>583.8</ele>
        <time>2020-07-24T09:30:37Z</time>
      </trkpt>
      <trkpt lat="42.9789200" lon="0.7528930">
        <ele>583.4</ele>
        <time>2020-07-24T09:30:38Z</time>
      </trkpt>
      <trkpt lat="42.9789690" lon="0.7527940">
        <ele>583.2</ele>
        <time>2020-07-24T09:30:39Z</time>
      </trkpt>
      <trkpt lat="42.9790900" lon="0.7526390">
        <ele>582.8</ele>
        <time>2020-07-24T09:30:41Z</time>
      </trkpt>
      <trkpt lat="42.9791740" lon="0.7526000">
        <ele>582.8</ele>
        <time>2020-07-24T09:30:42Z</time>
      </trkpt>
      <trkpt lat="42.9792520" lon="0.7525660">
        <ele>582.6</ele>
        <time>2020-07-24T09:30:43Z</time>
      </trkpt>
      <trkpt lat="42.9793290" lon="0.7525460">
        <ele>582.4</ele>
        <time>2020-07-24T09:30:44Z</time>
      </trkpt>
      <trkpt lat="42.9794910" lon="0.7525300">
        <ele>582.0</ele>
        <time>2020-07-24T09:30:46Z</time>
      </trkpt>
      <trkpt lat="42.9797360" lon="0.7525290">
        <ele>581.6</ele>
        <time>2020-07-24T09:30:49Z</time>
      </trkpt>
      <trkpt lat="42.9798180" lon="0.7525200">
        <ele>581.4</ele>
        <time>2020-07-24T09:30:50Z</time>
      </trkpt>
      <trkpt lat="42.9801360" lon="0.7524190">
        <ele>580.8</ele>
        <time>2020-07-24T09:30:54Z</time>
      </trkpt>
      <trkpt lat="42.9802810" lon="0.7523060">
        <ele>580.6</ele>
        <time>2020-07-24T09:30:56Z</time>
      </trkpt>
      <trkpt lat="42.9804020" lon="0.7521580">
        <ele>580.0</ele>
        <time>2020-07-24T09:30:58Z</time>
      </trkpt>
      <trkpt lat="42.9804640" lon="0.7519610">
        <ele>579.6</ele>
        <time>2020-07-24T09:31:00Z</time>
      </trkpt>
      <trkpt lat="42.9804740" lon="0.7518550">
        <ele>579.4</ele>
        <time>2020-07-24T09:31:01Z</time>
      </trkpt>
      <trkpt lat="42.9804680" lon="0.7517470">
        <ele>579.2</ele>
        <time>2020-07-24T09:31:02Z</time>
      </trkpt>
      <trkpt lat="42.9804280" lon="0.7515210">
        <ele>579.0</ele>
        <time>2020-07-24T09:31:04Z</time>
      </trkpt>
      <trkpt lat="42.9802760" lon="0.7509520">
        <ele>578.6</ele>
        <time>2020-07-24T09:31:09Z</time>
      </trkpt>
      <trkpt lat="42.9802240" lon="0.7505920">
        <ele>578.2</ele>
        <time>2020-07-24T09:31:12Z</time>
      </trkpt>
      <trkpt lat="42.9802300" lon="0.7504710">
        <ele>578.0</ele>
        <time>2020-07-24T09:31:13Z</time>
      </trkpt>
      <trkpt lat="42.9802500" lon="0.7503520">
        <ele>577.6</ele>
        <time>2020-07-24T09:31:14Z</time>
      </trkpt>
      <trkpt lat="42.9802850" lon="0.7502380">
        <ele>577.2</ele>
        <time>2020-07-24T09:31:15Z</time>
      </trkpt>
      <trkpt lat="42.9803300" lon="0.7501320">
        <ele>577.0</ele>
        <time>2020-07-24T09:31:16Z</time>
      </trkpt>
      <trkpt lat="42.9803840" lon="0.7500340">
        <ele>576.6</ele>
        <time>2020-07-24T09:31:17Z</time>
      </trkpt>
      <trkpt lat="42.9804480" lon="0.7499460">
        <ele>576.2</ele>
        <time>2020-07-24T09:31:18Z</time>
      </trkpt>
      <trkpt lat="42.9805210" lon="0.7498700">
        <ele>576.0</ele>
        <time>2020-07-24T09:31:19Z</time>
      </trkpt>
      <trkpt lat="42.9806000" lon="0.7498070">
        <ele>575.8</ele>
        <time>2020-07-24T09:31:20Z</time>
      </trkpt>
      <trkpt lat="42.9806820" lon="0.7497550">
        <ele>575.6</ele>
        <time>2020-07-24T09:31:21Z</time>
      </trkpt>
      <trkpt lat="42.9807640" lon="0.7497150">
        <ele>575.4</ele>
        <time>2020-07-24T09:31:22Z</time>
      </trkpt>
      <trkpt lat="42.9808450" lon="0.7496920">
        <ele>575.4</ele>
        <time>2020-07-24T09:31:23Z</time>
      </trkpt>
      <trkpt lat="42.9811040" lon="0.7496430">
        <ele>574.4</ele>
        <time>2020-07-24T09:31:26Z</time>
      </trkpt>
      <trkpt lat="42.9813840" lon="0.7495890">
        <ele>573.4</ele>
        <time>2020-07-24T09:31:29Z</time>
      </trkpt>
      <trkpt lat="42.9814770" lon="0.7495680">
        <ele>573.0</ele>
        <time>2020-07-24T09:31:30Z</time>
      </trkpt>
      <trkpt lat="42.9818620" lon="0.7494360">
        <ele>572.2</ele>
        <time>2020-07-24T09:31:34Z</time>
      </trkpt>
      <trkpt lat="42.9819540" lon="0.7493860">
        <ele>571.8</ele>
        <time>2020-07-24T09:31:35Z</time>
      </trkpt>
      <trkpt lat="42.9821390" lon="0.7492680">
        <ele>570.8</ele>
        <time>2020-07-24T09:31:37Z</time>
      </trkpt>
      <trkpt lat="42.9824090" lon="0.7490480">
        <ele>569.2</ele>
        <time>2020-07-24T09:31:40Z</time>
      </trkpt>
      <trkpt lat="42.9825880" lon="0.7488790">
        <ele>568.2</ele>
        <time>2020-07-24T09:31:42Z</time>
      </trkpt>
      <trkpt lat="42.9828510" lon="0.7485900">
        <ele>566.6</ele>
        <time>2020-07-24T09:31:45Z</time>
      </trkpt>
      <trkpt lat="42.9829380" lon="0.7484910">
        <ele>566.0</ele>
        <time>2020-07-24T09:31:46Z</time>
      </trkpt>
      <trkpt lat="42.9830240" lon="0.7483900">
        <ele>565.2</ele>
        <time>2020-07-24T09:31:47Z</time>
      </trkpt>
      <trkpt lat="42.9832020" lon="0.7481860">
        <ele>564.0</ele>
        <time>2020-07-24T09:31:49Z</time>
      </trkpt>
      <trkpt lat="42.9833830" lon="0.7479850">
        <ele>562.6</ele>
        <time>2020-07-24T09:31:51Z</time>
      </trkpt>
      <trkpt lat="42.9835640" lon="0.7477780">
        <ele>561.4</ele>
        <time>2020-07-24T09:31:53Z</time>
      </trkpt>
      <trkpt lat="42.9836560" lon="0.7476740">
        <ele>560.6</ele>
        <time>2020-07-24T09:31:54Z</time>
      </trkpt>
      <trkpt lat="42.9837440" lon="0.7475710">
        <ele>559.8</ele>
        <time>2020-07-24T09:31:55Z</time>
      </trkpt>
      <trkpt lat="42.9839280" lon="0.7473920">
        <ele>558.2</ele>
        <time>2020-07-24T09:31:57Z</time>
      </trkpt>
      <trkpt lat="42.9841210" lon="0.7472550">
        <ele>557.4</ele>
        <time>2020-07-24T09:31:59Z</time>
      </trkpt>
      <trkpt lat="42.9842240" lon="0.7472060">
        <ele>556.6</ele>
        <time>2020-07-24T09:32:00Z</time>
      </trkpt>
      <trkpt lat="42.9844400" lon="0.7471350">
        <ele>555.2</ele>
        <time>2020-07-24T09:32:02Z</time>
      </trkpt>
      <trkpt lat="42.9845520" lon="0.7471060">
        <ele>554.6</ele>
        <time>2020-07-24T09:32:03Z</time>
      </trkpt>
      <trkpt lat="42.9846680" lon="0.7470790">
        <ele>553.8</ele>
        <time>2020-07-24T09:32:04Z</time>
      </trkpt>
      <trkpt lat="42.9849050" lon="0.7470380">
        <ele>552.6</ele>
        <time>2020-07-24T09:32:06Z</time>
      </trkpt>
      <trkpt lat="42.9851390" lon="0.7469970">
        <ele>551.2</ele>
        <time>2020-07-24T09:32:08Z</time>
      </trkpt>
      <trkpt lat="42.9852500" lon="0.7469710">
        <ele>550.8</ele>
        <time>2020-07-24T09:32:09Z</time>
      </trkpt>
      <trkpt lat="42.9853620" lon="0.7469410">
        <ele>550.0</ele>
        <time>2020-07-24T09:32:10Z</time>
      </trkpt>
      <trkpt lat="42.9855800" lon="0.7468580">
        <ele>549.0</ele>
        <time>2020-07-24T09:32:12Z</time>
      </trkpt>
      <trkpt lat="42.9858010" lon="0.7467450">
        <ele>548.2</ele>
        <time>2020-07-24T09:32:14Z</time>
      </trkpt>
      <trkpt lat="42.9859100" lon="0.7466710">
        <ele>547.6</ele>
        <time>2020-07-24T09:32:15Z</time>
      </trkpt>
      <trkpt lat="42.9861230" lon="0.7465020">
        <ele>546.2</ele>
        <time>2020-07-24T09:32:17Z</time>
      </trkpt>
      <trkpt lat="42.9862280" lon="0.7464140">
        <ele>545.6</ele>
        <time>2020-07-24T09:32:18Z</time>
      </trkpt>
      <trkpt lat="42.9863320" lon="0.7463220">
        <ele>545.0</ele>
        <time>2020-07-24T09:32:19Z</time>
      </trkpt>
      <trkpt lat="42.9866310" lon="0.7460240">
        <ele>543.6</ele>
        <time>2020-07-24T09:32:22Z</time>
      </trkpt>
      <trkpt lat="42.9868310" lon="0.7458290">
        <ele>542.6</ele>
        <time>2020-07-24T09:32:24Z</time>
      </trkpt>
      <trkpt lat="42.9869250" lon="0.7457260">
        <ele>542.0</ele>
        <time>2020-07-24T09:32:25Z</time>
      </trkpt>
      <trkpt lat="42.9870170" lon="0.7456220">
        <ele>541.2</ele>
        <time>2020-07-24T09:32:26Z</time>
      </trkpt>
      <trkpt lat="42.9870980" lon="0.7455070">
        <ele>540.0</ele>
        <time>2020-07-24T09:32:27Z</time>
      </trkpt>
      <trkpt lat="42.9871630" lon="0.7453810">
        <ele>539.0</ele>
        <time>2020-07-24T09:32:28Z</time>
      </trkpt>
      <trkpt lat="42.9872080" lon="0.7452400">
        <ele>538.0</ele>
        <time>2020-07-24T09:32:29Z</time>
      </trkpt>
      <trkpt lat="42.9872370" lon="0.7450940">
        <ele>537.2</ele>
        <time>2020-07-24T09:32:30Z</time>
      </trkpt>
      <trkpt lat="42.9872500" lon="0.7448010">
        <ele>535.8</ele>
        <time>2020-07-24T09:32:32Z</time>
      </trkpt>
      <trkpt lat="42.9872100" lon="0.7445200">
        <ele>534.2</ele>
        <time>2020-07-24T09:32:34Z</time>
      </trkpt>
      <trkpt lat="42.9871670" lon="0.7443960">
        <ele>533.6</ele>
        <time>2020-07-24T09:32:35Z</time>
      </trkpt>
      <trkpt lat="42.9870890" lon="0.7442670">
        <ele>533.2</ele>
        <time>2020-07-24T09:32:36Z</time>
      </trkpt>
      <trkpt lat="42.9868910" lon="0.7440420">
        <ele>532.2</ele>
        <time>2020-07-24T09:32:38Z</time>
      </trkpt>
      <trkpt lat="42.9866980" lon="0.7438540">
        <ele>530.8</ele>
        <time>2020-07-24T09:32:40Z</time>
      </trkpt>
      <trkpt lat="42.9866170" lon="0.7437480">
        <ele>530.2</ele>
        <time>2020-07-24T09:32:41Z</time>
      </trkpt>
      <trkpt lat="42.9865700" lon="0.7436250">
        <ele>529.8</ele>
        <time>2020-07-24T09:32:42Z</time>
      </trkpt>
      <trkpt lat="42.9865510" lon="0.7434900">
        <ele>529.4</ele>
        <time>2020-07-24T09:32:43Z</time>
      </trkpt>
      <trkpt lat="42.9865510" lon="0.7433490">
        <ele>529.0</ele>
        <time>2020-07-24T09:32:44Z</time>
      </trkpt>
      <trkpt lat="42.9865800" lon="0.7432140">
        <ele>528.6</ele>
        <time>2020-07-24T09:32:45Z</time>
      </trkpt>
      <trkpt lat="42.9866750" lon="0.7429670">
        <ele>527.2</ele>
        <time>2020-07-24T09:32:47Z</time>
      </trkpt>
      <trkpt lat="42.9868270" lon="0.7427800">
        <ele>525.8</ele>
        <time>2020-07-24T09:32:49Z</time>
      </trkpt>
      <trkpt lat="42.9869300" lon="0.7427200">
        <ele>525.2</ele>
        <time>2020-07-24T09:32:50Z</time>
      </trkpt>
      <trkpt lat="42.9870300" lon="0.7426560">
        <ele>524.4</ele>
        <time>2020-07-24T09:32:51Z</time>
      </trkpt>
      <trkpt lat="42.9872100" lon="0.7424920">
        <ele>523.0</ele>
        <time>2020-07-24T09:32:53Z</time>
      </trkpt>
      <trkpt lat="42.9872890" lon="0.7423880">
        <ele>522.4</ele>
        <time>2020-07-24T09:32:54Z</time>
      </trkpt>
      <trkpt lat="42.9873590" lon="0.7422760">
        <ele>522.0</ele>
        <time>2020-07-24T09:32:55Z</time>
      </trkpt>
      <trkpt lat="42.9874490" lon="0.7419950">
        <ele>521.2</ele>
        <time>2020-07-24T09:32:57Z</time>
      </trkpt>
      <trkpt lat="42.9874820" lon="0.7418420">
        <ele>520.6</ele>
        <time>2020-07-24T09:32:58Z</time>
      </trkpt>
      <trkpt lat="42.9875410" lon="0.7415380">
        <ele>519.6</ele>
        <time>2020-07-24T09:33:00Z</time>
      </trkpt>
      <trkpt lat="42.9875660" lon="0.7413830">
        <ele>519.0</ele>
        <time>2020-07-24T09:33:01Z</time>
      </trkpt>
      <trkpt lat="42.9876130" lon="0.7410760">
        <ele>517.8</ele>
        <time>2020-07-24T09:33:03Z</time>
      </trkpt>
      <trkpt lat="42.9876530" lon="0.7407840">
        <ele>516.4</ele>
        <time>2020-07-24T09:33:05Z</time>
      </trkpt>
      <trkpt lat="42.9876530" lon="0.7405020">
        <ele>515.0</ele>
        <time>2020-07-24T09:33:07Z</time>
      </trkpt>
      <trkpt lat="42.9875750" lon="0.7402380">
        <ele>513.6</ele>
        <time>2020-07-24T09:33:09Z</time>
      </trkpt>
      <trkpt lat="42.9875060" lon="0.7401250">
        <ele>513.0</ele>
        <time>2020-07-24T09:33:10Z</time>
      </trkpt>
      <trkpt lat="42.9874240" lon="0.7400260">
        <ele>512.4</ele>
        <time>2020-07-24T09:33:11Z</time>
      </trkpt>
      <trkpt lat="42.9872510" lon="0.7398490">
        <ele>511.2</ele>
        <time>2020-07-24T09:33:13Z</time>
      </trkpt>
      <trkpt lat="42.9870920" lon="0.7396320">
        <ele>510.8</ele>
        <time>2020-07-24T09:33:15Z</time>
      </trkpt>
      <trkpt lat="42.9870300" lon="0.7395030">
        <ele>510.4</ele>
        <time>2020-07-24T09:33:16Z</time>
      </trkpt>
      <trkpt lat="42.9869830" lon="0.7393650">
        <ele>510.0</ele>
        <time>2020-07-24T09:33:17Z</time>
      </trkpt>
      <trkpt lat="42.9869110" lon="0.7390720">
        <ele>508.6</ele>
        <time>2020-07-24T09:33:19Z</time>
      </trkpt>
      <trkpt lat="42.9868400" lon="0.7387750">
        <ele>506.8</ele>
        <time>2020-07-24T09:33:21Z</time>
      </trkpt>
      <trkpt lat="42.9867740" lon="0.7384810">
        <ele>505.6</ele>
        <time>2020-07-24T09:33:23Z</time>
      </trkpt>
      <trkpt lat="42.9866780" lon="0.7380680">
        <ele>504.6</ele>
        <time>2020-07-24T09:33:26Z</time>
      </trkpt>
      <trkpt lat="42.9866470" lon="0.7379360">
        <ele>504.4</ele>
        <time>2020-07-24T09:33:27Z</time>
      </trkpt>
      <trkpt lat="42.9865730" lon="0.7376940">
        <ele>504.2</ele>
        <time>2020-07-24T09:33:29Z</time>
      </trkpt>
      <trkpt lat="42.9865180" lon="0.7375930">
        <ele>504.0</ele>
        <time>2020-07-24T09:33:30Z</time>
      </trkpt>
      <trkpt lat="42.9864520" lon="0.7375080">
        <ele>504.0</ele>
        <time>2020-07-24T09:33:31Z</time>
      </trkpt>
      <trkpt lat="42.9863800" lon="0.7374370">
        <ele>504.0</ele>
        <time>2020-07-24T09:33:32Z</time>
      </trkpt>
      <trkpt lat="42.9863050" lon="0.7373750">
        <ele>504.0</ele>
        <time>2020-07-24T09:33:33Z</time>
      </trkpt>
      <trkpt lat="42.9861470" lon="0.7372790">
        <ele>504.0</ele>
        <time>2020-07-24T09:33:35Z</time>
      </trkpt>
      <trkpt lat="42.9859840" lon="0.7372140">
        <ele>504.2</ele>
        <time>2020-07-24T09:33:37Z</time>
      </trkpt>
      <trkpt lat="42.9857550" lon="0.7370960">
        <ele>504.8</ele>
        <time>2020-07-24T09:33:40Z</time>
      </trkpt>
      <trkpt lat="42.9856860" lon="0.7370390">
        <ele>505.0</ele>
        <time>2020-07-24T09:33:41Z</time>
      </trkpt>
      <trkpt lat="42.9856220" lon="0.7369740">
        <ele>505.2</ele>
        <time>2020-07-24T09:33:42Z</time>
      </trkpt>
      <trkpt lat="42.9855690" lon="0.7369010">
        <ele>505.4</ele>
        <time>2020-07-24T09:33:43Z</time>
      </trkpt>
      <trkpt lat="42.9855230" lon="0.7368230">
        <ele>505.4</ele>
        <time>2020-07-24T09:33:44Z</time>
      </trkpt>
      <trkpt lat="42.9854770" lon="0.7367400">
        <ele>505.4</ele>
        <time>2020-07-24T09:33:45Z</time>
      </trkpt>
      <trkpt lat="42.9854380" lon="0.7366520">
        <ele>505.6</ele>
        <time>2020-07-24T09:33:46Z</time>
      </trkpt>
      <trkpt lat="42.9853520" lon="0.7363930">
        <ele>505.6</ele>
        <time>2020-07-24T09:33:49Z</time>
      </trkpt>
      <trkpt lat="42.9853250" lon="0.7363110">
        <ele>505.8</ele>
        <time>2020-07-24T09:33:50Z</time>
      </trkpt>
      <trkpt lat="42.9853010" lon="0.7362390">
        <ele>505.8</ele>
        <time>2020-07-24T09:33:51Z</time>
      </trkpt>
      <trkpt lat="42.9852310" lon="0.7360440">
        <ele>506.8</ele>
        <time>2020-07-24T09:33:54Z</time>
      </trkpt>
      <trkpt lat="42.9851970" lon="0.7359300">
        <ele>507.2</ele>
        <time>2020-07-24T09:33:56Z</time>
      </trkpt>
      <trkpt lat="42.9851460" lon="0.7357500">
        <ele>507.8</ele>
        <time>2020-07-24T09:34:00Z</time>
      </trkpt>
      <trkpt lat="42.9851220" lon="0.7356820">
        <ele>508.0</ele>
        <time>2020-07-24T09:34:02Z</time>
      </trkpt>
      <trkpt lat="42.9850620" lon="0.7355070">
        <ele>508.8</ele>
        <time>2020-07-24T09:34:08Z</time>
      </trkpt>
      <trkpt lat="42.9850470" lon="0.7354690">
        <ele>508.8</ele>
        <time>2020-07-24T09:34:09Z</time>
      </trkpt>
      <trkpt lat="42.9849420" lon="0.7351710">
        <ele>509.2</ele>
        <time>2020-07-24T09:34:15Z</time>
      </trkpt>
      <trkpt lat="42.9849130" lon="0.7350630">
        <ele>509.4</ele>
        <time>2020-07-24T09:34:17Z</time>
      </trkpt>
      <trkpt lat="42.9848690" lon="0.7349070">
        <ele>509.8</ele>
        <time>2020-07-24T09:34:20Z</time>
      </trkpt>
      <trkpt lat="42.9848220" lon="0.7347410">
        <ele>510.2</ele>
        <time>2020-07-24T09:34:23Z</time>
      </trkpt>
      <trkpt lat="42.9847950" lon="0.7344420">
        <ele>510.8</ele>
        <time>2020-07-24T09:34:29Z</time>
      </trkpt>
      <trkpt lat="42.9847970" lon="0.7343870">
        <ele>511.0</ele>
        <time>2020-07-24T09:34:30Z</time>
      </trkpt>
      <trkpt lat="42.9848010" lon="0.7340700">
        <ele>512.0</ele>
        <time>2020-07-24T09:34:35Z</time>
      </trkpt>
      <trkpt lat="42.9848000" lon="0.7340020">
        <ele>512.0</ele>
        <time>2020-07-24T09:34:36Z</time>
      </trkpt>
      <trkpt lat="42.9848070" lon="0.7337950">
        <ele>512.4</ele>
        <time>2020-07-24T09:34:39Z</time>
      </trkpt>
      <trkpt lat="42.9848090" lon="0.7337250">
        <ele>512.4</ele>
        <time>2020-07-24T09:34:40Z</time>
      </trkpt>
      <trkpt lat="42.9848180" lon="0.7335890">
        <ele>512.6</ele>
        <time>2020-07-24T09:34:42Z</time>
      </trkpt>
      <trkpt lat="42.9848350" lon="0.7333900">
        <ele>513.2</ele>
        <time>2020-07-24T09:34:45Z</time>
      </trkpt>
      <trkpt lat="42.9848610" lon="0.7330630">
        <ele>514.2</ele>
        <time>2020-07-24T09:34:50Z</time>
      </trkpt>
      <trkpt lat="42.9848650" lon="0.7329940">
        <ele>514.2</ele>
        <time>2020-07-24T09:34:51Z</time>
      </trkpt>
      <trkpt lat="42.9848930" lon="0.7327380">
        <ele>514.8</ele>
        <time>2020-07-24T09:34:55Z</time>
      </trkpt>
      <trkpt lat="42.9849000" lon="0.7326760">
        <ele>515.0</ele>
        <time>2020-07-24T09:34:56Z</time>
      </trkpt>
      <trkpt lat="42.9849220" lon="0.7323590">
        <ele>515.4</ele>
        <time>2020-07-24T09:35:01Z</time>
      </trkpt>
      <trkpt lat="42.9849200" lon="0.7321610">
        <ele>515.6</ele>
        <time>2020-07-24T09:35:04Z</time>
      </trkpt>
      <trkpt lat="42.9848680" lon="0.7317390">
        <ele>515.6</ele>
        <time>2020-07-24T09:35:10Z</time>
      </trkpt>
      <trkpt lat="42.9847580" lon="0.7313690">
        <ele>515.6</ele>
        <time>2020-07-24T09:35:16Z</time>
      </trkpt>
      <trkpt lat="42.9847390" lon="0.7313200">
        <ele>516.2</ele>
        <time>2020-07-24T09:35:17Z</time>
      </trkpt>
      <trkpt lat="42.9847250" lon="0.7312740">
        <ele>516.6</ele>
        <time>2020-07-24T09:35:18Z</time>
      </trkpt>
      <trkpt lat="42.9845420" lon="0.7309620">
        <ele>516.4</ele>
        <time>2020-07-24T09:36:36Z</time>
      </trkpt>
      <trkpt lat="42.9845340" lon="0.7309390">
        <ele>516.4</ele>
        <time>2020-07-24T09:36:37Z</time>
      </trkpt>
      <trkpt lat="42.9844700" lon="0.7307420">
        <ele>517.4</ele>
        <time>2020-07-24T09:36:42Z</time>
      </trkpt>
      <trkpt lat="42.9844540" lon="0.7306950">
        <ele>517.6</ele>
        <time>2020-07-24T09:36:43Z</time>
      </trkpt>
      <trkpt lat="42.9844260" lon="0.7305940">
        <ele>518.0</ele>
        <time>2020-07-24T09:36:45Z</time>
      </trkpt>
      <trkpt lat="42.9844020" lon="0.7304920">
        <ele>518.6</ele>
        <time>2020-07-24T09:36:47Z</time>
      </trkpt>
      <trkpt lat="42.9843820" lon="0.7303410">
        <ele>519.4</ele>
        <time>2020-07-24T09:36:50Z</time>
      </trkpt>
      <trkpt lat="42.9843760" lon="0.7302370">
        <ele>519.8</ele>
        <time>2020-07-24T09:36:52Z</time>
      </trkpt>
      <trkpt lat="42.9843480" lon="0.7299620">
        <ele>520.8</ele>
        <time>2020-07-24T09:36:57Z</time>
      </trkpt>
      <trkpt lat="42.9843400" lon="0.7299070">
        <ele>521.0</ele>
        <time>2020-07-24T09:36:58Z</time>
      </trkpt>
      <trkpt lat="42.9843310" lon="0.7298000">
        <ele>521.4</ele>
        <time>2020-07-24T09:37:00Z</time>
      </trkpt>
      <trkpt lat="42.9843230" lon="0.7296920">
        <ele>522.0</ele>
        <time>2020-07-24T09:37:02Z</time>
      </trkpt>
      <trkpt lat="42.9842870" lon="0.7293760">
        <ele>523.0</ele>
        <time>2020-07-24T09:37:08Z</time>
      </trkpt>
      <trkpt lat="42.9842830" lon="0.7293280">
        <ele>523.2</ele>
        <time>2020-07-24T09:37:09Z</time>
      </trkpt>
      <trkpt lat="42.9842510" lon="0.7290740">
        <ele>524.2</ele>
        <time>2020-07-24T09:37:14Z</time>
      </trkpt>
      <trkpt lat="42.9842300" lon="0.7289710">
        <ele>524.6</ele>
        <time>2020-07-24T09:37:16Z</time>
      </trkpt>
      <trkpt lat="42.9841940" lon="0.7287620">
        <ele>525.4</ele>
        <time>2020-07-24T09:37:20Z</time>
      </trkpt>
      <trkpt lat="42.9841830" lon="0.7287110">
        <ele>525.6</ele>
        <time>2020-07-24T09:37:21Z</time>
      </trkpt>
      <trkpt lat="42.9841730" lon="0.7286600">
        <ele>525.6</ele>
        <time>2020-07-24T09:37:22Z</time>
      </trkpt>
      <trkpt lat="42.9841630" lon="0.7286100">
        <ele>525.8</ele>
        <time>2020-07-24T09:37:23Z</time>
      </trkpt>
      <trkpt lat="42.9841480" lon="0.7285580">
        <ele>526.2</ele>
        <time>2020-07-24T09:37:24Z</time>
      </trkpt>
      <trkpt lat="42.9841340" lon="0.7285050">
        <ele>526.4</ele>
        <time>2020-07-24T09:37:25Z</time>
      </trkpt>
      <trkpt lat="42.9840720" lon="0.7282480">
        <ele>527.4</ele>
        <time>2020-07-24T09:37:30Z</time>
      </trkpt>
      <trkpt lat="42.9840550" lon="0.7282000">
        <ele>527.6</ele>
        <time>2020-07-24T09:37:31Z</time>
      </trkpt>
      <trkpt lat="42.9839870" lon="0.7280100">
        <ele>528.4</ele>
        <time>2020-07-24T09:37:35Z</time>
      </trkpt>
      <trkpt lat="42.9839670" lon="0.7279670">
        <ele>528.8</ele>
        <time>2020-07-24T09:37:36Z</time>
      </trkpt>
      <trkpt lat="42.9839180" lon="0.7278850">
        <ele>529.2</ele>
        <time>2020-07-24T09:37:38Z</time>
      </trkpt>
      <trkpt lat="42.9838630" lon="0.7278030">
        <ele>529.4</ele>
        <time>2020-07-24T09:37:40Z</time>
      </trkpt>
      <trkpt lat="42.9838010" lon="0.7277230">
        <ele>529.8</ele>
        <time>2020-07-24T09:37:42Z</time>
      </trkpt>
      <trkpt lat="42.9837020" lon="0.7276120">
        <ele>530.2</ele>
        <time>2020-07-24T09:37:45Z</time>
      </trkpt>
      <trkpt lat="42.9835960" lon="0.7275060">
        <ele>531.0</ele>
        <time>2020-07-24T09:37:48Z</time>
      </trkpt>
      <trkpt lat="42.9835640" lon="0.7274680">
        <ele>531.2</ele>
        <time>2020-07-24T09:37:49Z</time>
      </trkpt>
      <trkpt lat="42.9835100" lon="0.7273820">
        <ele>531.8</ele>
        <time>2020-07-24T09:37:51Z</time>
      </trkpt>
      <trkpt lat="42.9834820" lon="0.7273390">
        <ele>532.2</ele>
        <time>2020-07-24T09:37:52Z</time>
      </trkpt>
      <trkpt lat="42.9834550" lon="0.7272990">
        <ele>532.6</ele>
        <time>2020-07-24T09:37:53Z</time>
      </trkpt>
      <trkpt lat="42.9834310" lon="0.7272540">
        <ele>532.8</ele>
        <time>2020-07-24T09:37:54Z</time>
      </trkpt>
      <trkpt lat="42.9833390" lon="0.7270740">
        <ele>533.4</ele>
        <time>2020-07-24T09:37:58Z</time>
      </trkpt>
      <trkpt lat="42.9833010" lon="0.7269720">
        <ele>534.0</ele>
        <time>2020-07-24T09:38:00Z</time>
      </trkpt>
      <trkpt lat="42.9832800" lon="0.7268670">
        <ele>534.6</ele>
        <time>2020-07-24T09:38:02Z</time>
      </trkpt>
      <trkpt lat="42.9832580" lon="0.7266510">
        <ele>535.6</ele>
        <time>2020-07-24T09:38:06Z</time>
      </trkpt>
      <trkpt lat="42.9832130" lon="0.7263150">
        <ele>536.6</ele>
        <time>2020-07-24T09:38:12Z</time>
      </trkpt>
      <trkpt lat="42.9832070" lon="0.7262570">
        <ele>536.8</ele>
        <time>2020-07-24T09:38:13Z</time>
      </trkpt>
      <trkpt lat="42.9831960" lon="0.7261450">
        <ele>537.2</ele>
        <time>2020-07-24T09:38:15Z</time>
      </trkpt>
      <trkpt lat="42.9831760" lon="0.7259330">
        <ele>537.8</ele>
        <time>2020-07-24T09:38:19Z</time>
      </trkpt>
      <trkpt lat="42.9831550" lon="0.7257780">
        <ele>538.4</ele>
        <time>2020-07-24T09:38:22Z</time>
      </trkpt>
      <trkpt lat="42.9831490" lon="0.7256730">
        <ele>539.0</ele>
        <time>2020-07-24T09:38:24Z</time>
      </trkpt>
      <trkpt lat="42.9831490" lon="0.7255750">
        <ele>539.8</ele>
        <time>2020-07-24T09:38:26Z</time>
      </trkpt>
      <trkpt lat="42.9831670" lon="0.7254730">
        <ele>540.2</ele>
        <time>2020-07-24T09:38:28Z</time>
      </trkpt>
      <trkpt lat="42.9832650" lon="0.7252160">
        <ele>541.4</ele>
        <time>2020-07-24T09:38:33Z</time>
      </trkpt>
      <trkpt lat="42.9832970" lon="0.7251100">
        <ele>541.8</ele>
        <time>2020-07-24T09:38:35Z</time>
      </trkpt>
      <trkpt lat="42.9833260" lon="0.7249490">
        <ele>542.6</ele>
        <time>2020-07-24T09:38:38Z</time>
      </trkpt>
      <trkpt lat="42.9833210" lon="0.7248490">
        <ele>543.2</ele>
        <time>2020-07-24T09:38:40Z</time>
      </trkpt>
      <trkpt lat="42.9832900" lon="0.7247570">
        <ele>543.6</ele>
        <time>2020-07-24T09:38:42Z</time>
      </trkpt>
      <trkpt lat="42.9832390" lon="0.7246610">
        <ele>544.0</ele>
        <time>2020-07-24T09:38:44Z</time>
      </trkpt>
      <trkpt lat="42.9832100" lon="0.7246130">
        <ele>544.2</ele>
        <time>2020-07-24T09:38:45Z</time>
      </trkpt>
      <trkpt lat="42.9831430" lon="0.7244740">
        <ele>544.8</ele>
        <time>2020-07-24T09:38:48Z</time>
      </trkpt>
      <trkpt lat="42.9831230" lon="0.7243190">
        <ele>545.6</ele>
        <time>2020-07-24T09:38:51Z</time>
      </trkpt>
      <trkpt lat="42.9831350" lon="0.7242130">
        <ele>546.0</ele>
        <time>2020-07-24T09:38:53Z</time>
      </trkpt>
      <trkpt lat="42.9831570" lon="0.7240500">
        <ele>546.8</ele>
        <time>2020-07-24T09:38:56Z</time>
      </trkpt>
      <trkpt lat="42.9831620" lon="0.7239960">
        <ele>547.0</ele>
        <time>2020-07-24T09:38:57Z</time>
      </trkpt>
      <trkpt lat="42.9831830" lon="0.7237700">
        <ele>548.0</ele>
        <time>2020-07-24T09:39:01Z</time>
      </trkpt>
      <trkpt lat="42.9831900" lon="0.7236500">
        <ele>548.2</ele>
        <time>2020-07-24T09:39:03Z</time>
      </trkpt>
      <trkpt lat="42.9831860" lon="0.7235270">
        <ele>548.6</ele>
        <time>2020-07-24T09:39:05Z</time>
      </trkpt>
      <trkpt lat="42.9831770" lon="0.7233550">
        <ele>549.6</ele>
        <time>2020-07-24T09:39:08Z</time>
      </trkpt>
      <trkpt lat="42.9831810" lon="0.7230150">
        <ele>550.8</ele>
        <time>2020-07-24T09:39:14Z</time>
      </trkpt>
      <trkpt lat="42.9831760" lon="0.7227450">
        <ele>551.8</ele>
        <time>2020-07-24T09:39:19Z</time>
      </trkpt>
      <trkpt lat="42.9831730" lon="0.7226410">
        <ele>552.0</ele>
        <time>2020-07-24T09:39:21Z</time>
      </trkpt>
      <trkpt lat="42.9831700" lon="0.7224830">
        <ele>553.0</ele>
        <time>2020-07-24T09:39:24Z</time>
      </trkpt>
      <trkpt lat="42.9831580" lon="0.7222730">
        <ele>554.0</ele>
        <time>2020-07-24T09:39:28Z</time>
      </trkpt>
      <trkpt lat="42.9831520" lon="0.7221730">
        <ele>554.2</ele>
        <time>2020-07-24T09:39:30Z</time>
      </trkpt>
      <trkpt lat="42.9830960" lon="0.7219060">
        <ele>555.2</ele>
        <time>2020-07-24T09:39:35Z</time>
      </trkpt>
      <trkpt lat="42.9830220" lon="0.7215810">
        <ele>556.6</ele>
        <time>2020-07-24T09:39:41Z</time>
      </trkpt>
      <trkpt lat="42.9829970" lon="0.7214780">
        <ele>557.0</ele>
        <time>2020-07-24T09:39:43Z</time>
      </trkpt>
      <trkpt lat="42.9829580" lon="0.7213110">
        <ele>557.6</ele>
        <time>2020-07-24T09:39:46Z</time>
      </trkpt>
      <trkpt lat="42.9829340" lon="0.7211890">
        <ele>558.0</ele>
        <time>2020-07-24T09:39:48Z</time>
      </trkpt>
      <trkpt lat="42.9828990" lon="0.7210840">
        <ele>558.4</ele>
        <time>2020-07-24T09:39:50Z</time>
      </trkpt>
      <trkpt lat="42.9828850" lon="0.7210330">
        <ele>558.8</ele>
        <time>2020-07-24T09:39:51Z</time>
      </trkpt>
      <trkpt lat="42.9828420" lon="0.7208220">
        <ele>559.8</ele>
        <time>2020-07-24T09:39:55Z</time>
      </trkpt>
      <trkpt lat="42.9828090" lon="0.7207340">
        <ele>560.2</ele>
        <time>2020-07-24T09:39:57Z</time>
      </trkpt>
      <trkpt lat="42.9827700" lon="0.7205590">
        <ele>561.2</ele>
        <time>2020-07-24T09:40:00Z</time>
      </trkpt>
      <trkpt lat="42.9827620" lon="0.7204260">
        <ele>561.6</ele>
        <time>2020-07-24T09:40:02Z</time>
      </trkpt>
      <trkpt lat="42.9827650" lon="0.7203050">
        <ele>562.0</ele>
        <time>2020-07-24T09:40:04Z</time>
      </trkpt>
      <trkpt lat="42.9827740" lon="0.7202500">
        <ele>562.2</ele>
        <time>2020-07-24T09:40:05Z</time>
      </trkpt>
      <trkpt lat="42.9827880" lon="0.7201970">
        <ele>562.4</ele>
        <time>2020-07-24T09:40:06Z</time>
      </trkpt>
      <trkpt lat="42.9828340" lon="0.7200990">
        <ele>562.6</ele>
        <time>2020-07-24T09:40:08Z</time>
      </trkpt>
      <trkpt lat="42.9828950" lon="0.7200250">
        <ele>563.2</ele>
        <time>2020-07-24T09:40:10Z</time>
      </trkpt>
      <trkpt lat="42.9829920" lon="0.7199230">
        <ele>564.0</ele>
        <time>2020-07-24T09:40:13Z</time>
      </trkpt>
      <trkpt lat="42.9830230" lon="0.7198850">
        <ele>564.2</ele>
        <time>2020-07-24T09:40:14Z</time>
      </trkpt>
      <trkpt lat="42.9830520" lon="0.7198390">
        <ele>564.4</ele>
        <time>2020-07-24T09:40:15Z</time>
      </trkpt>
      <trkpt lat="42.9830760" lon="0.7197900">
        <ele>564.4</ele>
        <time>2020-07-24T09:40:16Z</time>
      </trkpt>
      <trkpt lat="42.9831060" lon="0.7196830">
        <ele>564.8</ele>
        <time>2020-07-24T09:40:18Z</time>
      </trkpt>
      <trkpt lat="42.9831270" lon="0.7195750">
        <ele>565.4</ele>
        <time>2020-07-24T09:40:20Z</time>
      </trkpt>
      <trkpt lat="42.9831790" lon="0.7193020">
        <ele>566.6</ele>
        <time>2020-07-24T09:40:25Z</time>
      </trkpt>
      <trkpt lat="42.9831980" lon="0.7192500">
        <ele>566.8</ele>
        <time>2020-07-24T09:40:26Z</time>
      </trkpt>
      <trkpt lat="42.9832600" lon="0.7191010">
        <ele>567.2</ele>
        <time>2020-07-24T09:40:29Z</time>
      </trkpt>
      <trkpt lat="42.9832980" lon="0.7190050">
        <ele>567.8</ele>
        <time>2020-07-24T09:40:31Z</time>
      </trkpt>
      <trkpt lat="42.9833490" lon="0.7188650">
        <ele>568.6</ele>
        <time>2020-07-24T09:40:34Z</time>
      </trkpt>
      <trkpt lat="42.9833720" lon="0.7187620">
        <ele>569.0</ele>
        <time>2020-07-24T09:40:36Z</time>
      </trkpt>
      <trkpt lat="42.9834110" lon="0.7185070">
        <ele>570.0</ele>
        <time>2020-07-24T09:40:41Z</time>
      </trkpt>
      <trkpt lat="42.9834240" lon="0.7182870">
        <ele>571.2</ele>
        <time>2020-07-24T09:40:45Z</time>
      </trkpt>
      <trkpt lat="42.9834480" lon="0.7180710">
        <ele>571.8</ele>
        <time>2020-07-24T09:40:49Z</time>
      </trkpt>
      <trkpt lat="42.9834470" lon="0.7179600">
        <ele>572.2</ele>
        <time>2020-07-24T09:40:51Z</time>
      </trkpt>
      <trkpt lat="42.9834020" lon="0.7178010">
        <ele>572.6</ele>
        <time>2020-07-24T09:40:54Z</time>
      </trkpt>
      <trkpt lat="42.9833090" lon="0.7176930">
        <ele>573.4</ele>
        <time>2020-07-24T09:40:57Z</time>
      </trkpt>
      <trkpt lat="42.9832340" lon="0.7176300">
        <ele>573.8</ele>
        <time>2020-07-24T09:40:59Z</time>
      </trkpt>
      <trkpt lat="42.9831550" lon="0.7175820">
        <ele>574.4</ele>
        <time>2020-07-24T09:41:01Z</time>
      </trkpt>
      <trkpt lat="42.9831150" lon="0.7175620">
        <ele>574.6</ele>
        <time>2020-07-24T09:41:02Z</time>
      </trkpt>
      <trkpt lat="42.9829970" lon="0.7175420">
        <ele>575.0</ele>
        <time>2020-07-24T09:41:05Z</time>
      </trkpt>
      <trkpt lat="42.9829210" lon="0.7175520">
        <ele>575.6</ele>
        <time>2020-07-24T09:41:07Z</time>
      </trkpt>
      <trkpt lat="42.9828120" lon="0.7176100">
        <ele>576.4</ele>
        <time>2020-07-24T09:41:10Z</time>
      </trkpt>
      <trkpt lat="42.9827080" lon="0.7177110">
        <ele>576.8</ele>
        <time>2020-07-24T09:41:13Z</time>
      </trkpt>
      <trkpt lat="42.9826310" lon="0.7177870">
        <ele>577.2</ele>
        <time>2020-07-24T09:41:15Z</time>
      </trkpt>
      <trkpt lat="42.9825540" lon="0.7178500">
        <ele>577.4</ele>
        <time>2020-07-24T09:41:17Z</time>
      </trkpt>
      <trkpt lat="42.9824730" lon="0.7178770">
        <ele>577.6</ele>
        <time>2020-07-24T09:41:19Z</time>
      </trkpt>
      <trkpt lat="42.9824290" lon="0.7178810">
        <ele>577.6</ele>
        <time>2020-07-24T09:41:20Z</time>
      </trkpt>
      <trkpt lat="42.9823870" lon="0.7178800">
        <ele>577.8</ele>
        <time>2020-07-24T09:41:21Z</time>
      </trkpt>
      <trkpt lat="42.9823450" lon="0.7178660">
        <ele>578.0</ele>
        <time>2020-07-24T09:41:22Z</time>
      </trkpt>
      <trkpt lat="42.9823060" lon="0.7178410">
        <ele>578.2</ele>
        <time>2020-07-24T09:41:23Z</time>
      </trkpt>
      <trkpt lat="42.9822730" lon="0.7178010">
        <ele>578.4</ele>
        <time>2020-07-24T09:41:24Z</time>
      </trkpt>
      <trkpt lat="42.9822500" lon="0.7177490">
        <ele>578.6</ele>
        <time>2020-07-24T09:41:25Z</time>
      </trkpt>
      <trkpt lat="42.9822370" lon="0.7176360">
        <ele>579.2</ele>
        <time>2020-07-24T09:41:27Z</time>
      </trkpt>
      <trkpt lat="42.9822550" lon="0.7175200">
        <ele>579.8</ele>
        <time>2020-07-24T09:41:29Z</time>
      </trkpt>
      <trkpt lat="42.9822940" lon="0.7174130">
        <ele>580.4</ele>
        <time>2020-07-24T09:41:31Z</time>
      </trkpt>
      <trkpt lat="42.9823190" lon="0.7173620">
        <ele>580.6</ele>
        <time>2020-07-24T09:41:32Z</time>
      </trkpt>
      <trkpt lat="42.9824470" lon="0.7171240">
        <ele>581.6</ele>
        <time>2020-07-24T09:41:37Z</time>
      </trkpt>
      <trkpt lat="42.9825210" lon="0.7169810">
        <ele>582.2</ele>
        <time>2020-07-24T09:41:40Z</time>
      </trkpt>
      <trkpt lat="42.9825640" lon="0.7168840">
        <ele>582.8</ele>
        <time>2020-07-24T09:41:42Z</time>
      </trkpt>
      <trkpt lat="42.9826140" lon="0.7167290">
        <ele>583.6</ele>
        <time>2020-07-24T09:41:45Z</time>
      </trkpt>
      <trkpt lat="42.9826280" lon="0.7166770">
        <ele>583.8</ele>
        <time>2020-07-24T09:41:46Z</time>
      </trkpt>
      <trkpt lat="42.9826370" lon="0.7166230">
        <ele>584.2</ele>
        <time>2020-07-24T09:41:47Z</time>
      </trkpt>
      <trkpt lat="42.9826490" lon="0.7164530">
        <ele>584.8</ele>
        <time>2020-07-24T09:41:50Z</time>
      </trkpt>
      <trkpt lat="42.9826480" lon="0.7162290">
        <ele>585.6</ele>
        <time>2020-07-24T09:41:54Z</time>
      </trkpt>
      <trkpt lat="42.9826440" lon="0.7161730">
        <ele>585.8</ele>
        <time>2020-07-24T09:41:55Z</time>
      </trkpt>
      <trkpt lat="42.9826400" lon="0.7161160">
        <ele>586.2</ele>
        <time>2020-07-24T09:41:56Z</time>
      </trkpt>
      <trkpt lat="42.9826130" lon="0.7158480">
        <ele>587.2</ele>
        <time>2020-07-24T09:42:01Z</time>
      </trkpt>
      <trkpt lat="42.9826040" lon="0.7157420">
        <ele>587.8</ele>
        <time>2020-07-24T09:42:03Z</time>
      </trkpt>
      <trkpt lat="42.9825580" lon="0.7155290">
        <ele>588.4</ele>
        <time>2020-07-24T09:42:07Z</time>
      </trkpt>
      <trkpt lat="42.9825400" lon="0.7154770">
        <ele>588.6</ele>
        <time>2020-07-24T09:42:08Z</time>
      </trkpt>
      <trkpt lat="42.9825170" lon="0.7154300">
        <ele>588.8</ele>
        <time>2020-07-24T09:42:09Z</time>
      </trkpt>
      <trkpt lat="42.9824650" lon="0.7153390">
        <ele>589.0</ele>
        <time>2020-07-24T09:42:11Z</time>
      </trkpt>
      <trkpt lat="42.9824330" lon="0.7153010">
        <ele>589.4</ele>
        <time>2020-07-24T09:42:12Z</time>
      </trkpt>
      <trkpt lat="42.9823950" lon="0.7152780">
        <ele>589.8</ele>
        <time>2020-07-24T09:42:13Z</time>
      </trkpt>
      <trkpt lat="42.9823540" lon="0.7152660">
        <ele>590.0</ele>
        <time>2020-07-24T09:42:14Z</time>
      </trkpt>
      <trkpt lat="42.9822290" lon="0.7152600">
        <ele>590.4</ele>
        <time>2020-07-24T09:42:17Z</time>
      </trkpt>
      <trkpt lat="42.9821050" lon="0.7152680">
        <ele>590.8</ele>
        <time>2020-07-24T09:42:20Z</time>
      </trkpt>
      <trkpt lat="42.9820210" lon="0.7152690">
        <ele>591.4</ele>
        <time>2020-07-24T09:42:22Z</time>
      </trkpt>
      <trkpt lat="42.9819360" lon="0.7152530">
        <ele>592.0</ele>
        <time>2020-07-24T09:42:24Z</time>
      </trkpt>
      <trkpt lat="42.9818540" lon="0.7152250">
        <ele>592.4</ele>
        <time>2020-07-24T09:42:26Z</time>
      </trkpt>
      <trkpt lat="42.9817880" lon="0.7151640">
        <ele>592.8</ele>
        <time>2020-07-24T09:42:28Z</time>
      </trkpt>
      <trkpt lat="42.9817430" lon="0.7150750">
        <ele>593.2</ele>
        <time>2020-07-24T09:42:30Z</time>
      </trkpt>
      <trkpt lat="42.9817240" lon="0.7150230">
        <ele>593.6</ele>
        <time>2020-07-24T09:42:31Z</time>
      </trkpt>
      <trkpt lat="42.9816860" lon="0.7149190">
        <ele>594.6</ele>
        <time>2020-07-24T09:42:33Z</time>
      </trkpt>
      <trkpt lat="42.9816700" lon="0.7148670">
        <ele>594.8</ele>
        <time>2020-07-24T09:42:34Z</time>
      </trkpt>
      <trkpt lat="42.9816330" lon="0.7147130">
        <ele>595.4</ele>
        <time>2020-07-24T09:42:37Z</time>
      </trkpt>
      <trkpt lat="42.9816130" lon="0.7145420">
        <ele>596.0</ele>
        <time>2020-07-24T09:42:40Z</time>
      </trkpt>
      <trkpt lat="42.9816170" lon="0.7143640">
        <ele>596.6</ele>
        <time>2020-07-24T09:42:43Z</time>
      </trkpt>
      <trkpt lat="42.9816300" lon="0.7142520">
        <ele>597.2</ele>
        <time>2020-07-24T09:42:45Z</time>
      </trkpt>
      <trkpt lat="42.9816560" lon="0.7141470">
        <ele>598.0</ele>
        <time>2020-07-24T09:42:47Z</time>
      </trkpt>
      <trkpt lat="42.9816910" lon="0.7140460">
        <ele>598.4</ele>
        <time>2020-07-24T09:42:49Z</time>
      </trkpt>
      <trkpt lat="42.9818560" lon="0.7137990">
        <ele>599.4</ele>
        <time>2020-07-24T09:42:55Z</time>
      </trkpt>
      <trkpt lat="42.9818910" lon="0.7137690">
        <ele>599.4</ele>
        <time>2020-07-24T09:42:56Z</time>
      </trkpt>
      <trkpt lat="42.9820650" lon="0.7136380">
        <ele>600.6</ele>
        <time>2020-07-24T09:43:01Z</time>
      </trkpt>
      <trkpt lat="42.9821740" lon="0.7135750">
        <ele>601.2</ele>
        <time>2020-07-24T09:43:04Z</time>
      </trkpt>
      <trkpt lat="42.9822440" lon="0.7135400">
        <ele>601.8</ele>
        <time>2020-07-24T09:43:06Z</time>
      </trkpt>
      <trkpt lat="42.9823970" lon="0.7134110">
        <ele>602.8</ele>
        <time>2020-07-24T09:43:11Z</time>
      </trkpt>
      <trkpt lat="42.9825190" lon="0.7132310">
        <ele>603.8</ele>
        <time>2020-07-24T09:43:16Z</time>
      </trkpt>
      <trkpt lat="42.9825800" lon="0.7131190">
        <ele>604.0</ele>
        <time>2020-07-24T09:43:19Z</time>
      </trkpt>
      <trkpt lat="42.9825770" lon="0.7128940">
        <ele>605.0</ele>
        <time>2020-07-24T09:43:23Z</time>
      </trkpt>
      <trkpt lat="42.9825650" lon="0.7128300">
        <ele>605.2</ele>
        <time>2020-07-24T09:43:24Z</time>
      </trkpt>
      <trkpt lat="42.9825160" lon="0.7126100">
        <ele>606.0</ele>
        <time>2020-07-24T09:43:28Z</time>
      </trkpt>
      <trkpt lat="42.9824880" lon="0.7125190">
        <ele>606.4</ele>
        <time>2020-07-24T09:43:30Z</time>
      </trkpt>
      <trkpt lat="42.9823730" lon="0.7122870">
        <ele>607.2</ele>
        <time>2020-07-24T09:43:36Z</time>
      </trkpt>
      <trkpt lat="42.9821690" lon="0.7120510">
        <ele>608.2</ele>
        <time>2020-07-24T09:43:42Z</time>
      </trkpt>
      <trkpt lat="42.9821300" lon="0.7120110">
        <ele>608.6</ele>
        <time>2020-07-24T09:43:43Z</time>
      </trkpt>
      <trkpt lat="42.9820600" lon="0.7119330">
        <ele>609.6</ele>
        <time>2020-07-24T09:43:45Z</time>
      </trkpt>
      <trkpt lat="42.9818920" lon="0.7116760">
        <ele>610.4</ele>
        <time>2020-07-24T09:43:51Z</time>
      </trkpt>
      <trkpt lat="42.9818710" lon="0.7116270">
        <ele>610.8</ele>
        <time>2020-07-24T09:43:52Z</time>
      </trkpt>
      <trkpt lat="42.9817900" lon="0.7114310">
        <ele>611.4</ele>
        <time>2020-07-24T09:43:56Z</time>
      </trkpt>
      <trkpt lat="42.9817510" lon="0.7113280">
        <ele>611.8</ele>
        <time>2020-07-24T09:43:58Z</time>
      </trkpt>
      <trkpt lat="42.9817160" lon="0.7112270">
        <ele>612.2</ele>
        <time>2020-07-24T09:44:00Z</time>
      </trkpt>
      <trkpt lat="42.9816510" lon="0.7110270">
        <ele>613.0</ele>
        <time>2020-07-24T09:44:04Z</time>
      </trkpt>
      <trkpt lat="42.9816220" lon="0.7108310">
        <ele>614.0</ele>
        <time>2020-07-24T09:44:08Z</time>
      </trkpt>
      <trkpt lat="42.9816030" lon="0.7107310">
        <ele>614.4</ele>
        <time>2020-07-24T09:44:10Z</time>
      </trkpt>
      <trkpt lat="42.9815930" lon="0.7106780">
        <ele>614.4</ele>
        <time>2020-07-24T09:44:11Z</time>
      </trkpt>
      <trkpt lat="42.9815740" lon="0.7105220">
        <ele>615.0</ele>
        <time>2020-07-24T09:44:14Z</time>
      </trkpt>
      <trkpt lat="42.9815700" lon="0.7103710">
        <ele>615.6</ele>
        <time>2020-07-24T09:44:17Z</time>
      </trkpt>
      <trkpt lat="42.9815790" lon="0.7102750">
        <ele>616.0</ele>
        <time>2020-07-24T09:44:19Z</time>
      </trkpt>
      <trkpt lat="42.9816110" lon="0.7100380">
        <ele>617.2</ele>
        <time>2020-07-24T09:44:24Z</time>
      </trkpt>
      <trkpt lat="42.9816200" lon="0.7099910">
        <ele>617.4</ele>
        <time>2020-07-24T09:44:25Z</time>
      </trkpt>
      <trkpt lat="42.9816440" lon="0.7097090">
        <ele>618.2</ele>
        <time>2020-07-24T09:44:31Z</time>
      </trkpt>
      <trkpt lat="42.9816390" lon="0.7096630">
        <ele>618.4</ele>
        <time>2020-07-24T09:44:32Z</time>
      </trkpt>
      <trkpt lat="42.9816240" lon="0.7096210">
        <ele>618.6</ele>
        <time>2020-07-24T09:44:33Z</time>
      </trkpt>
      <trkpt lat="42.9815200" lon="0.7094190">
        <ele>619.6</ele>
        <time>2020-07-24T09:44:38Z</time>
      </trkpt>
      <trkpt lat="42.9814700" lon="0.7093430">
        <ele>620.2</ele>
        <time>2020-07-24T09:44:40Z</time>
      </trkpt>
      <trkpt lat="42.9814430" lon="0.7093080">
        <ele>620.4</ele>
        <time>2020-07-24T09:44:41Z</time>
      </trkpt>
      <trkpt lat="42.9813900" lon="0.7092350">
        <ele>620.8</ele>
        <time>2020-07-24T09:44:43Z</time>
      </trkpt>
      <trkpt lat="42.9812540" lon="0.7089820">
        <ele>621.8</ele>
        <time>2020-07-24T09:44:49Z</time>
      </trkpt>
      <trkpt lat="42.9811740" lon="0.7086850">
        <ele>622.6</ele>
        <time>2020-07-24T09:44:55Z</time>
      </trkpt>
      <trkpt lat="42.9811700" lon="0.7086350">
        <ele>623.0</ele>
        <time>2020-07-24T09:44:56Z</time>
      </trkpt>
      <trkpt lat="42.9811970" lon="0.7083480">
        <ele>624.2</ele>
        <time>2020-07-24T09:45:02Z</time>
      </trkpt>
      <trkpt lat="42.9812560" lon="0.7081300">
        <ele>625.0</ele>
        <time>2020-07-24T09:45:07Z</time>
      </trkpt>
      <trkpt lat="42.9812860" lon="0.7080470">
        <ele>625.4</ele>
        <time>2020-07-24T09:45:09Z</time>
      </trkpt>
      <trkpt lat="42.9813340" lon="0.7078670">
        <ele>626.4</ele>
        <time>2020-07-24T09:45:13Z</time>
      </trkpt>
      <trkpt lat="42.9813280" lon="0.7077180">
        <ele>627.2</ele>
        <time>2020-07-24T09:45:16Z</time>
      </trkpt>
      <trkpt lat="42.9812810" lon="0.7076160">
        <ele>627.6</ele>
        <time>2020-07-24T09:45:18Z</time>
      </trkpt>
      <trkpt lat="42.9812220" lon="0.7075310">
        <ele>628.2</ele>
        <time>2020-07-24T09:45:20Z</time>
      </trkpt>
      <trkpt lat="42.9811190" lon="0.7074590">
        <ele>628.8</ele>
        <time>2020-07-24T09:45:23Z</time>
      </trkpt>
      <trkpt lat="42.9810530" lon="0.7074240">
        <ele>629.4</ele>
        <time>2020-07-24T09:45:25Z</time>
      </trkpt>
      <trkpt lat="42.9809460" lon="0.7073760">
        <ele>629.8</ele>
        <time>2020-07-24T09:45:28Z</time>
      </trkpt>
      <trkpt lat="42.9808140" lon="0.7072720">
        <ele>630.0</ele>
        <time>2020-07-24T09:45:32Z</time>
      </trkpt>
      <trkpt lat="42.9807250" lon="0.7070790">
        <ele>631.0</ele>
        <time>2020-07-24T09:45:37Z</time>
      </trkpt>
      <trkpt lat="42.9807080" lon="0.7067890">
        <ele>632.0</ele>
        <time>2020-07-24T09:45:43Z</time>
      </trkpt>
      <trkpt lat="42.9807070" lon="0.7067390">
        <ele>632.2</ele>
        <time>2020-07-24T09:45:44Z</time>
      </trkpt>
      <trkpt lat="42.9807190" lon="0.7065490">
        <ele>633.2</ele>
        <time>2020-07-24T09:45:48Z</time>
      </trkpt>
      <trkpt lat="42.9807230" lon="0.7064090">
        <ele>633.6</ele>
        <time>2020-07-24T09:45:51Z</time>
      </trkpt>
      <trkpt lat="42.9807200" lon="0.7062260">
        <ele>634.4</ele>
        <time>2020-07-24T09:45:55Z</time>
      </trkpt>
      <trkpt lat="42.9806980" lon="0.7060990">
        <ele>635.0</ele>
        <time>2020-07-24T09:45:58Z</time>
      </trkpt>
      <trkpt lat="42.9806680" lon="0.7059530">
        <ele>635.6</ele>
        <time>2020-07-24T09:46:02Z</time>
      </trkpt>
      <trkpt lat="42.9806350" lon="0.7058260">
        <ele>636.2</ele>
        <time>2020-07-24T09:46:05Z</time>
      </trkpt>
      <trkpt lat="42.9805830" lon="0.7056880">
        <ele>636.6</ele>
        <time>2020-07-24T09:46:08Z</time>
      </trkpt>
      <trkpt lat="42.9805490" lon="0.7055480">
        <ele>637.4</ele>
        <time>2020-07-24T09:46:11Z</time>
      </trkpt>
      <trkpt lat="42.9805340" lon="0.7054510">
        <ele>637.8</ele>
        <time>2020-07-24T09:46:13Z</time>
      </trkpt>
      <trkpt lat="42.9805430" lon="0.7052150">
        <ele>638.6</ele>
        <time>2020-07-24T09:46:18Z</time>
      </trkpt>
      <trkpt lat="42.9805500" lon="0.7051680">
        <ele>639.0</ele>
        <time>2020-07-24T09:46:19Z</time>
      </trkpt>
      <trkpt lat="42.9805550" lon="0.7049140">
        <ele>640.0</ele>
        <time>2020-07-24T09:46:24Z</time>
      </trkpt>
      <trkpt lat="42.9805570" lon="0.7048650">
        <ele>640.2</ele>
        <time>2020-07-24T09:46:25Z</time>
      </trkpt>
      <trkpt lat="42.9805260" lon="0.7046600">
        <ele>641.0</ele>
        <time>2020-07-24T09:46:29Z</time>
      </trkpt>
      <trkpt lat="42.9804910" lon="0.7045560">
        <ele>641.4</ele>
        <time>2020-07-24T09:46:31Z</time>
      </trkpt>
      <trkpt lat="42.9803830" lon="0.7042810">
        <ele>642.0</ele>
        <time>2020-07-24T09:46:37Z</time>
      </trkpt>
      <trkpt lat="42.9803650" lon="0.7042400">
        <ele>642.4</ele>
        <time>2020-07-24T09:46:38Z</time>
      </trkpt>
      <trkpt lat="42.9803530" lon="0.7041970">
        <ele>642.6</ele>
        <time>2020-07-24T09:46:39Z</time>
      </trkpt>
      <trkpt lat="42.9803330" lon="0.7040240">
        <ele>643.6</ele>
        <time>2020-07-24T09:46:43Z</time>
      </trkpt>
      <trkpt lat="42.9803330" lon="0.7039800">
        <ele>643.6</ele>
        <time>2020-07-24T09:46:44Z</time>
      </trkpt>
      <trkpt lat="42.9803430" lon="0.7038180">
        <ele>644.2</ele>
        <time>2020-07-24T09:46:48Z</time>
      </trkpt>
      <trkpt lat="42.9803480" lon="0.7037220">
        <ele>644.6</ele>
        <time>2020-07-24T09:46:50Z</time>
      </trkpt>
      <trkpt lat="42.9803410" lon="0.7034360">
        <ele>645.6</ele>
        <time>2020-07-24T09:46:56Z</time>
      </trkpt>
      <trkpt lat="42.9803380" lon="0.7033910">
        <ele>645.8</ele>
        <time>2020-07-24T09:46:57Z</time>
      </trkpt>
      <trkpt lat="42.9803180" lon="0.7031580">
        <ele>647.0</ele>
        <time>2020-07-24T09:47:02Z</time>
      </trkpt>
      <trkpt lat="42.9802790" lon="0.7030140">
        <ele>647.6</ele>
        <time>2020-07-24T09:47:05Z</time>
      </trkpt>
      <trkpt lat="42.9802230" lon="0.7028710">
        <ele>648.0</ele>
        <time>2020-07-24T09:47:08Z</time>
      </trkpt>
      <trkpt lat="42.9801240" lon="0.7027140">
        <ele>648.4</ele>
        <time>2020-07-24T09:47:12Z</time>
      </trkpt>
      <trkpt lat="42.9799410" lon="0.7024920">
        <ele>648.8</ele>
        <time>2020-07-24T09:47:18Z</time>
      </trkpt>
      <trkpt lat="42.9799210" lon="0.7024400">
        <ele>649.0</ele>
        <time>2020-07-24T09:47:19Z</time>
      </trkpt>
      <trkpt lat="42.9799360" lon="0.7022410">
        <ele>650.2</ele>
        <time>2020-07-24T09:47:23Z</time>
      </trkpt>
      <trkpt lat="42.9800450" lon="0.7021730">
        <ele>651.0</ele>
        <time>2020-07-24T09:47:27Z</time>
      </trkpt>
      <trkpt lat="42.9801100" lon="0.7021920">
        <ele>651.4</ele>
        <time>2020-07-24T09:47:29Z</time>
      </trkpt>
      <trkpt lat="42.9801650" lon="0.7022520">
        <ele>652.2</ele>
        <time>2020-07-24T09:47:31Z</time>
      </trkpt>
      <trkpt lat="42.9802090" lon="0.7023370">
        <ele>652.6</ele>
        <time>2020-07-24T09:47:33Z</time>
      </trkpt>
      <trkpt lat="42.9802830" lon="0.7025170">
        <ele>653.0</ele>
        <time>2020-07-24T09:47:37Z</time>
      </trkpt>
      <trkpt lat="42.9803350" lon="0.7026520">
        <ele>653.4</ele>
        <time>2020-07-24T09:47:40Z</time>
      </trkpt>
      <trkpt lat="42.9803750" lon="0.7027400">
        <ele>653.6</ele>
        <time>2020-07-24T09:47:42Z</time>
      </trkpt>
      <trkpt lat="42.9804270" lon="0.7028700">
        <ele>654.2</ele>
        <time>2020-07-24T09:47:45Z</time>
      </trkpt>
      <trkpt lat="42.9804590" lon="0.7029470">
        <ele>654.8</ele>
        <time>2020-07-24T09:47:47Z</time>
      </trkpt>
      <trkpt lat="42.9805350" lon="0.7031380">
        <ele>655.4</ele>
        <time>2020-07-24T09:47:52Z</time>
      </trkpt>
      <trkpt lat="42.9805690" lon="0.7032130">
        <ele>655.8</ele>
        <time>2020-07-24T09:47:54Z</time>
      </trkpt>
      <trkpt lat="42.9806550" lon="0.7034240">
        <ele>656.8</ele>
        <time>2020-07-24T09:48:00Z</time>
      </trkpt>
      <trkpt lat="42.9806680" lon="0.7034640">
        <ele>657.0</ele>
        <time>2020-07-24T09:48:01Z</time>
      </trkpt>
      <trkpt lat="42.9807190" lon="0.7036300">
        <ele>658.0</ele>
        <time>2020-07-24T09:48:05Z</time>
      </trkpt>
      <trkpt lat="42.9807470" lon="0.7037140">
        <ele>658.4</ele>
        <time>2020-07-24T09:48:07Z</time>
      </trkpt>
      <trkpt lat="42.9808070" lon="0.7039570">
        <ele>659.2</ele>
        <time>2020-07-24T09:48:12Z</time>
      </trkpt>
      <trkpt lat="42.9808290" lon="0.7040510">
        <ele>659.8</ele>
        <time>2020-07-24T09:48:14Z</time>
      </trkpt>
      <trkpt lat="42.9808700" lon="0.7041860">
        <ele>660.2</ele>
        <time>2020-07-24T09:48:17Z</time>
      </trkpt>
      <trkpt lat="42.9809130" lon="0.7043810">
        <ele>660.6</ele>
        <time>2020-07-24T09:48:21Z</time>
      </trkpt>
      <trkpt lat="42.9809590" lon="0.7045760">
        <ele>661.6</ele>
        <time>2020-07-24T09:48:25Z</time>
      </trkpt>
      <trkpt lat="42.9809880" lon="0.7047830">
        <ele>662.4</ele>
        <time>2020-07-24T09:48:29Z</time>
      </trkpt>
      <trkpt lat="42.9809950" lon="0.7048310">
        <ele>662.8</ele>
        <time>2020-07-24T09:48:30Z</time>
      </trkpt>
      <trkpt lat="42.9810240" lon="0.7050790">
        <ele>664.0</ele>
        <time>2020-07-24T09:48:35Z</time>
      </trkpt>
      <trkpt lat="42.9810370" lon="0.7051750">
        <ele>664.2</ele>
        <time>2020-07-24T09:48:37Z</time>
      </trkpt>
      <trkpt lat="42.9810460" lon="0.7053030">
        <ele>664.6</ele>
        <time>2020-07-24T09:48:41Z</time>
      </trkpt>
      <trkpt lat="42.9810500" lon="0.7053270">
        <ele>664.6</ele>
        <time>2020-07-24T09:48:42Z</time>
      </trkpt>
      <trkpt lat="42.9810710" lon="0.7054250">
        <ele>665.0</ele>
        <time>2020-07-24T09:48:45Z</time>
      </trkpt>
      <trkpt lat="42.9810930" lon="0.7055140">
        <ele>665.4</ele>
        <time>2020-07-24T09:48:47Z</time>
      </trkpt>
      <trkpt lat="42.9811050" lon="0.7055650">
        <ele>665.6</ele>
        <time>2020-07-24T09:48:48Z</time>
      </trkpt>
      <trkpt lat="42.9811470" lon="0.7057020">
        <ele>666.0</ele>
        <time>2020-07-24T09:48:51Z</time>
      </trkpt>
      <trkpt lat="42.9811960" lon="0.7058800">
        <ele>666.8</ele>
        <time>2020-07-24T09:48:55Z</time>
      </trkpt>
      <trkpt lat="42.9812230" lon="0.7059660">
        <ele>667.2</ele>
        <time>2020-07-24T09:48:57Z</time>
      </trkpt>
      <trkpt lat="42.9813140" lon="0.7062280">
        <ele>668.0</ele>
        <time>2020-07-24T09:49:03Z</time>
      </trkpt>
      <trkpt lat="42.9813340" lon="0.7062670">
        <ele>668.2</ele>
        <time>2020-07-24T09:49:04Z</time>
      </trkpt>
      <trkpt lat="42.9813980" lon="0.7063770">
        <ele>669.2</ele>
        <time>2020-07-24T09:49:07Z</time>
      </trkpt>
      <trkpt lat="42.9814530" lon="0.7064250">
        <ele>669.6</ele>
        <time>2020-07-24T09:49:09Z</time>
      </trkpt>
      <trkpt lat="42.9816100" lon="0.7064770">
        <ele>670.4</ele>
        <time>2020-07-24T09:49:14Z</time>
      </trkpt>
      <trkpt lat="42.9816430" lon="0.7064810">
        <ele>670.8</ele>
        <time>2020-07-24T09:49:15Z</time>
      </trkpt>
      <trkpt lat="42.9817050" lon="0.7064890">
        <ele>671.4</ele>
        <time>2020-07-24T09:49:17Z</time>
      </trkpt>
      <trkpt lat="42.9818630" lon="0.7065220">
        <ele>672.2</ele>
        <time>2020-07-24T09:49:22Z</time>
      </trkpt>
      <trkpt lat="42.9819270" lon="0.7065670">
        <ele>672.6</ele>
        <time>2020-07-24T09:49:24Z</time>
      </trkpt>
      <trkpt lat="42.9820440" lon="0.7067030">
        <ele>673.0</ele>
        <time>2020-07-24T09:49:28Z</time>
      </trkpt>
      <trkpt lat="42.9821110" lon="0.7068820">
        <ele>673.8</ele>
        <time>2020-07-24T09:49:32Z</time>
      </trkpt>
      <trkpt lat="42.9821200" lon="0.7069310">
        <ele>674.0</ele>
        <time>2020-07-24T09:49:33Z</time>
      </trkpt>
      <trkpt lat="42.9821370" lon="0.7070770">
        <ele>674.8</ele>
        <time>2020-07-24T09:49:36Z</time>
      </trkpt>
      <trkpt lat="42.9821610" lon="0.7073100">
        <ele>675.8</ele>
        <time>2020-07-24T09:49:41Z</time>
      </trkpt>
      <trkpt lat="42.9821680" lon="0.7073620">
        <ele>676.2</ele>
        <time>2020-07-24T09:49:42Z</time>
      </trkpt>
      <trkpt lat="42.9821980" lon="0.7076050">
        <ele>677.2</ele>
        <time>2020-07-24T09:49:47Z</time>
      </trkpt>
      <trkpt lat="42.9822150" lon="0.7077480">
        <ele>677.6</ele>
        <time>2020-07-24T09:49:50Z</time>
      </trkpt>
      <trkpt lat="42.9822590" lon="0.7080350">
        <ele>678.2</ele>
        <time>2020-07-24T09:49:56Z</time>
      </trkpt>
      <trkpt lat="42.9823480" lon="0.7083150">
        <ele>679.4</ele>
        <time>2020-07-24T09:50:02Z</time>
      </trkpt>
      <trkpt lat="42.9824700" lon="0.7085100">
        <ele>680.6</ele>
        <time>2020-07-24T09:50:07Z</time>
      </trkpt>
      <trkpt lat="42.9825320" lon="0.7085630">
        <ele>680.8</ele>
        <time>2020-07-24T09:50:09Z</time>
      </trkpt>
      <trkpt lat="42.9827270" lon="0.7087030">
        <ele>681.6</ele>
        <time>2020-07-24T09:50:15Z</time>
      </trkpt>
      <trkpt lat="42.9827610" lon="0.7087230">
        <ele>681.8</ele>
        <time>2020-07-24T09:50:16Z</time>
      </trkpt>
      <trkpt lat="42.9828800" lon="0.7088210">
        <ele>682.6</ele>
        <time>2020-07-24T09:50:20Z</time>
      </trkpt>
      <trkpt lat="42.9829620" lon="0.7089160">
        <ele>683.4</ele>
        <time>2020-07-24T09:50:23Z</time>
      </trkpt>
      <trkpt lat="42.9830150" lon="0.7089770">
        <ele>683.8</ele>
        <time>2020-07-24T09:50:25Z</time>
      </trkpt>
      <trkpt lat="42.9831360" lon="0.7091740">
        <ele>685.0</ele>
        <time>2020-07-24T09:50:30Z</time>
      </trkpt>
      <trkpt lat="42.9831600" lon="0.7092170">
        <ele>685.2</ele>
        <time>2020-07-24T09:50:31Z</time>
      </trkpt>
      <trkpt lat="42.9832390" lon="0.7094070">
        <ele>686.2</ele>
        <time>2020-07-24T09:50:35Z</time>
      </trkpt>
      <trkpt lat="42.9832600" lon="0.7095010">
        <ele>686.4</ele>
        <time>2020-07-24T09:50:37Z</time>
      </trkpt>
      <trkpt lat="42.9832850" lon="0.7096310">
        <ele>687.2</ele>
        <time>2020-07-24T09:50:40Z</time>
      </trkpt>
      <trkpt lat="42.9833010" lon="0.7097790">
        <ele>687.6</ele>
        <time>2020-07-24T09:50:43Z</time>
      </trkpt>
      <trkpt lat="42.9833140" lon="0.7099290">
        <ele>688.2</ele>
        <time>2020-07-24T09:50:46Z</time>
      </trkpt>
      <trkpt lat="42.9833490" lon="0.7102450">
        <ele>689.2</ele>
        <time>2020-07-24T09:50:52Z</time>
      </trkpt>
      <trkpt lat="42.9834120" lon="0.7104420">
        <ele>690.4</ele>
        <time>2020-07-24T09:50:56Z</time>
      </trkpt>
      <trkpt lat="42.9834600" lon="0.7105230">
        <ele>690.8</ele>
        <time>2020-07-24T09:50:58Z</time>
      </trkpt>
      <trkpt lat="42.9836210" lon="0.7106280">
        <ele>691.4</ele>
        <time>2020-07-24T09:51:03Z</time>
      </trkpt>
      <trkpt lat="42.9837340" lon="0.7106490">
        <ele>692.2</ele>
        <time>2020-07-24T09:51:06Z</time>
      </trkpt>
      <trkpt lat="42.9837700" lon="0.7106540">
        <ele>692.4</ele>
        <time>2020-07-24T09:51:07Z</time>
      </trkpt>
      <trkpt lat="42.9838450" lon="0.7106610">
        <ele>693.0</ele>
        <time>2020-07-24T09:51:09Z</time>
      </trkpt>
      <trkpt lat="42.9839480" lon="0.7107130">
        <ele>693.6</ele>
        <time>2020-07-24T09:51:12Z</time>
      </trkpt>
      <trkpt lat="42.9840040" lon="0.7107720">
        <ele>694.0</ele>
        <time>2020-07-24T09:51:14Z</time>
      </trkpt>
      <trkpt lat="42.9840820" lon="0.7108650">
        <ele>694.6</ele>
        <time>2020-07-24T09:51:17Z</time>
      </trkpt>
      <trkpt lat="42.9842140" lon="0.7110360">
        <ele>695.6</ele>
        <time>2020-07-24T09:51:22Z</time>
      </trkpt>
      <trkpt lat="42.9842440" lon="0.7110730">
        <ele>695.8</ele>
        <time>2020-07-24T09:51:23Z</time>
      </trkpt>
      <trkpt lat="42.9844160" lon="0.7112710">
        <ele>696.8</ele>
        <time>2020-07-24T09:51:29Z</time>
      </trkpt>
      <trkpt lat="42.9844440" lon="0.7113020">
        <ele>697.2</ele>
        <time>2020-07-24T09:51:30Z</time>
      </trkpt>
      <trkpt lat="42.9845730" lon="0.7114820">
        <ele>698.0</ele>
        <time>2020-07-24T09:51:35Z</time>
      </trkpt>
      <trkpt lat="42.9846250" lon="0.7115600">
        <ele>698.0</ele>
        <time>2020-07-24T09:51:37Z</time>
      </trkpt>
      <trkpt lat="42.9847810" lon="0.7117890">
        <ele>699.2</ele>
        <time>2020-07-24T09:51:43Z</time>
      </trkpt>
      <trkpt lat="42.9848780" lon="0.7119490">
        <ele>700.2</ele>
        <time>2020-07-24T09:51:47Z</time>
      </trkpt>
      <trkpt lat="42.9849910" lon="0.7120810">
        <ele>701.4</ele>
        <time>2020-07-24T09:51:51Z</time>
      </trkpt>
      <trkpt lat="42.9850560" lon="0.7121400">
        <ele>702.2</ele>
        <time>2020-07-24T09:51:53Z</time>
      </trkpt>
      <trkpt lat="42.9851260" lon="0.7121900">
        <ele>702.4</ele>
        <time>2020-07-24T09:51:55Z</time>
      </trkpt>
      <trkpt lat="42.9852690" lon="0.7122840">
        <ele>702.8</ele>
        <time>2020-07-24T09:51:59Z</time>
      </trkpt>
      <trkpt lat="42.9853710" lon="0.7123560">
        <ele>703.4</ele>
        <time>2020-07-24T09:52:02Z</time>
      </trkpt>
      <trkpt lat="42.9854050" lon="0.7123780">
        <ele>703.6</ele>
        <time>2020-07-24T09:52:03Z</time>
      </trkpt>
      <trkpt lat="42.9855330" lon="0.7124650">
        <ele>704.4</ele>
        <time>2020-07-24T09:52:07Z</time>
      </trkpt>
      <trkpt lat="42.9855660" lon="0.7124870">
        <ele>704.6</ele>
        <time>2020-07-24T09:52:08Z</time>
      </trkpt>
      <trkpt lat="42.9855990" lon="0.7125080">
        <ele>704.8</ele>
        <time>2020-07-24T09:52:09Z</time>
      </trkpt>
      <trkpt lat="42.9857590" lon="0.7126200">
        <ele>705.8</ele>
        <time>2020-07-24T09:52:14Z</time>
      </trkpt>
      <trkpt lat="42.9857910" lon="0.7126390">
        <ele>706.2</ele>
        <time>2020-07-24T09:52:15Z</time>
      </trkpt>
      <trkpt lat="42.9859490" lon="0.7127410">
        <ele>707.0</ele>
        <time>2020-07-24T09:52:20Z</time>
      </trkpt>
      <trkpt lat="42.9860160" lon="0.7127730">
        <ele>707.4</ele>
        <time>2020-07-24T09:52:22Z</time>
      </trkpt>
      <trkpt lat="42.9860790" lon="0.7128080">
        <ele>707.8</ele>
        <time>2020-07-24T09:52:24Z</time>
      </trkpt>
      <trkpt lat="42.9861130" lon="0.7128280">
        <ele>708.0</ele>
        <time>2020-07-24T09:52:25Z</time>
      </trkpt>
      <trkpt lat="42.9862800" lon="0.7129150">
        <ele>708.8</ele>
        <time>2020-07-24T09:52:30Z</time>
      </trkpt>
      <trkpt lat="42.9863800" lon="0.7129470">
        <ele>709.2</ele>
        <time>2020-07-24T09:52:33Z</time>
      </trkpt>
      <trkpt lat="42.9864760" lon="0.7129650">
        <ele>710.2</ele>
        <time>2020-07-24T09:52:36Z</time>
      </trkpt>
      <trkpt lat="42.9865020" lon="0.7129660">
        <ele>710.4</ele>
        <time>2020-07-24T09:52:37Z</time>
      </trkpt>
      <trkpt lat="42.9865630" lon="0.7129600">
        <ele>710.8</ele>
        <time>2020-07-24T09:52:39Z</time>
      </trkpt>
      <trkpt lat="42.9866830" lon="0.7129580">
        <ele>711.6</ele>
        <time>2020-07-24T09:52:43Z</time>
      </trkpt>
      <trkpt lat="42.9868310" lon="0.7129850">
        <ele>712.6</ele>
        <time>2020-07-24T09:52:48Z</time>
      </trkpt>
      <trkpt lat="42.9868640" lon="0.7129830">
        <ele>712.8</ele>
        <time>2020-07-24T09:52:49Z</time>
      </trkpt>
      <trkpt lat="42.9870020" lon="0.7129870">
        <ele>713.2</ele>
        <time>2020-07-24T09:52:53Z</time>
      </trkpt>
      <trkpt lat="42.9871100" lon="0.7129750">
        <ele>713.6</ele>
        <time>2020-07-24T09:52:56Z</time>
      </trkpt>
      <trkpt lat="42.9871520" lon="0.7129670">
        <ele>713.8</ele>
        <time>2020-07-24T09:52:57Z</time>
      </trkpt>
      <trkpt lat="42.9871900" lon="0.7129580">
        <ele>714.2</ele>
        <time>2020-07-24T09:52:58Z</time>
      </trkpt>
      <trkpt lat="42.9873450" lon="0.7129150">
        <ele>714.8</ele>
        <time>2020-07-24T09:53:02Z</time>
      </trkpt>
      <trkpt lat="42.9873830" lon="0.7129050">
        <ele>715.0</ele>
        <time>2020-07-24T09:53:03Z</time>
      </trkpt>
      <trkpt lat="42.9875250" lon="0.7128780">
        <ele>715.6</ele>
        <time>2020-07-24T09:53:07Z</time>
      </trkpt>
      <trkpt lat="42.9875950" lon="0.7128680">
        <ele>716.2</ele>
        <time>2020-07-24T09:53:09Z</time>
      </trkpt>
      <trkpt lat="42.9876650" lon="0.7128580">
        <ele>716.6</ele>
        <time>2020-07-24T09:53:11Z</time>
      </trkpt>
      <trkpt lat="42.9878030" lon="0.7128540">
        <ele>717.2</ele>
        <time>2020-07-24T09:53:15Z</time>
      </trkpt>
      <trkpt lat="42.9878750" lon="0.7128620">
        <ele>717.6</ele>
        <time>2020-07-24T09:53:17Z</time>
      </trkpt>
      <trkpt lat="42.9879440" lon="0.7128650">
        <ele>717.8</ele>
        <time>2020-07-24T09:53:19Z</time>
      </trkpt>
      <trkpt lat="42.9880840" lon="0.7128780">
        <ele>718.4</ele>
        <time>2020-07-24T09:53:23Z</time>
      </trkpt>
      <trkpt lat="42.9881830" lon="0.7129000">
        <ele>719.0</ele>
        <time>2020-07-24T09:53:26Z</time>
      </trkpt>
      <trkpt lat="42.9882110" lon="0.7129010">
        <ele>719.2</ele>
        <time>2020-07-24T09:53:27Z</time>
      </trkpt>
      <trkpt lat="42.9882360" lon="0.7129010">
        <ele>719.4</ele>
        <time>2020-07-24T09:53:28Z</time>
      </trkpt>
      <trkpt lat="42.9883300" lon="0.7129150">
        <ele>720.4</ele>
        <time>2020-07-24T09:53:32Z</time>
      </trkpt>
      <trkpt lat="42.9885170" lon="0.7129170">
        <ele>720.2</ele>
        <time>2020-07-24T09:54:29Z</time>
      </trkpt>
      <trkpt lat="42.9885410" lon="0.7129160">
        <ele>720.2</ele>
        <time>2020-07-24T09:54:30Z</time>
      </trkpt>
      <trkpt lat="42.9885910" lon="0.7129170">
        <ele>720.6</ele>
        <time>2020-07-24T09:54:32Z</time>
      </trkpt>
      <trkpt lat="42.9886520" lon="0.7129060">
        <ele>721.0</ele>
        <time>2020-07-24T09:54:34Z</time>
      </trkpt>
      <trkpt lat="42.9887770" lon="0.7128320">
        <ele>721.8</ele>
        <time>2020-07-24T09:54:38Z</time>
      </trkpt>
      <trkpt lat="42.9888670" lon="0.7127520">
        <ele>722.8</ele>
        <time>2020-07-24T09:54:41Z</time>
      </trkpt>
      <trkpt lat="42.9888980" lon="0.7127240">
        <ele>723.0</ele>
        <time>2020-07-24T09:54:42Z</time>
      </trkpt>
      <trkpt lat="42.9889760" lon="0.7126230">
        <ele>723.6</ele>
        <time>2020-07-24T09:54:45Z</time>
      </trkpt>
      <trkpt lat="42.9890180" lon="0.7125380">
        <ele>723.8</ele>
        <time>2020-07-24T09:54:47Z</time>
      </trkpt>
      <trkpt lat="42.9890330" lon="0.7124930">
        <ele>724.0</ele>
        <time>2020-07-24T09:54:48Z</time>
      </trkpt>
      <trkpt lat="42.9890590" lon="0.7124080">
        <ele>724.2</ele>
        <time>2020-07-24T09:54:50Z</time>
      </trkpt>
      <trkpt lat="42.9891000" lon="0.7122710">
        <ele>725.0</ele>
        <time>2020-07-24T09:54:53Z</time>
      </trkpt>
      <trkpt lat="42.9891680" lon="0.7121070">
        <ele>726.2</ele>
        <time>2020-07-24T09:54:57Z</time>
      </trkpt>
      <trkpt lat="42.9892060" lon="0.7120280">
        <ele>726.6</ele>
        <time>2020-07-24T09:54:59Z</time>
      </trkpt>
      <trkpt lat="42.9892760" lon="0.7117930">
        <ele>727.4</ele>
        <time>2020-07-24T09:55:04Z</time>
      </trkpt>
      <trkpt lat="42.9892860" lon="0.7117380">
        <ele>727.6</ele>
        <time>2020-07-24T09:55:05Z</time>
      </trkpt>
      <trkpt lat="42.9893220" lon="0.7115960">
        <ele>728.4</ele>
        <time>2020-07-24T09:55:08Z</time>
      </trkpt>
      <trkpt lat="42.9893320" lon="0.7115410">
        <ele>728.6</ele>
        <time>2020-07-24T09:55:09Z</time>
      </trkpt>
      <trkpt lat="42.9893640" lon="0.7113810">
        <ele>729.0</ele>
        <time>2020-07-24T09:55:12Z</time>
      </trkpt>
      <trkpt lat="42.9893860" lon="0.7112640">
        <ele>729.4</ele>
        <time>2020-07-24T09:55:14Z</time>
      </trkpt>
      <trkpt lat="42.9893970" lon="0.7112110">
        <ele>729.6</ele>
        <time>2020-07-24T09:55:15Z</time>
      </trkpt>
      <trkpt lat="42.9894280" lon="0.7110150">
        <ele>730.6</ele>
        <time>2020-07-24T09:55:19Z</time>
      </trkpt>
      <trkpt lat="42.9894530" lon="0.7107780">
        <ele>731.8</ele>
        <time>2020-07-24T09:55:24Z</time>
      </trkpt>
      <trkpt lat="42.9894550" lon="0.7106800">
        <ele>732.0</ele>
        <time>2020-07-24T09:55:26Z</time>
      </trkpt>
      <trkpt lat="42.9894450" lon="0.7105220">
        <ele>732.8</ele>
        <time>2020-07-24T09:55:29Z</time>
      </trkpt>
      <trkpt lat="42.9894410" lon="0.7104310">
        <ele>733.2</ele>
        <time>2020-07-24T09:55:31Z</time>
      </trkpt>
      <trkpt lat="42.9894350" lon="0.7103440">
        <ele>733.4</ele>
        <time>2020-07-24T09:55:33Z</time>
      </trkpt>
      <trkpt lat="42.9894360" lon="0.7102080">
        <ele>733.8</ele>
        <time>2020-07-24T09:55:36Z</time>
      </trkpt>
      <trkpt lat="42.9894290" lon="0.7099970">
        <ele>735.0</ele>
        <time>2020-07-24T09:55:40Z</time>
      </trkpt>
      <trkpt lat="42.9893870" lon="0.7096770">
        <ele>736.0</ele>
        <time>2020-07-24T09:55:46Z</time>
      </trkpt>
      <trkpt lat="42.9893630" lon="0.7094990">
        <ele>737.0</ele>
        <time>2020-07-24T09:55:49Z</time>
      </trkpt>
      <trkpt lat="42.9893580" lon="0.7094430">
        <ele>737.2</ele>
        <time>2020-07-24T09:55:50Z</time>
      </trkpt>
      <trkpt lat="42.9893600" lon="0.7091630">
        <ele>738.4</ele>
        <time>2020-07-24T09:55:55Z</time>
      </trkpt>
      <trkpt lat="42.9893690" lon="0.7091140">
        <ele>738.6</ele>
        <time>2020-07-24T09:55:56Z</time>
      </trkpt>
      <trkpt lat="42.9894180" lon="0.7089270">
        <ele>739.4</ele>
        <time>2020-07-24T09:56:00Z</time>
      </trkpt>
      <trkpt lat="42.9894360" lon="0.7088300">
        <ele>739.8</ele>
        <time>2020-07-24T09:56:02Z</time>
      </trkpt>
      <trkpt lat="42.9894740" lon="0.7086810">
        <ele>740.6</ele>
        <time>2020-07-24T09:56:05Z</time>
      </trkpt>
      <trkpt lat="42.9895210" lon="0.7085460">
        <ele>741.0</ele>
        <time>2020-07-24T09:56:08Z</time>
      </trkpt>
      <trkpt lat="42.9895380" lon="0.7084960">
        <ele>741.2</ele>
        <time>2020-07-24T09:56:09Z</time>
      </trkpt>
      <trkpt lat="42.9895640" lon="0.7083970">
        <ele>741.4</ele>
        <time>2020-07-24T09:56:11Z</time>
      </trkpt>
      <trkpt lat="42.9896000" lon="0.7083190">
        <ele>741.6</ele>
        <time>2020-07-24T09:56:13Z</time>
      </trkpt>
      <trkpt lat="42.9896250" lon="0.7082800">
        <ele>741.6</ele>
        <time>2020-07-24T09:56:14Z</time>
      </trkpt>
      <trkpt lat="42.9896510" lon="0.7082490">
        <ele>741.8</ele>
        <time>2020-07-24T09:56:15Z</time>
      </trkpt>
      <trkpt lat="42.9896910" lon="0.7081770">
        <ele>742.2</ele>
        <time>2020-07-24T09:56:17Z</time>
      </trkpt>
      <trkpt lat="42.9897220" lon="0.7081160">
        <ele>742.6</ele>
        <time>2020-07-24T09:56:19Z</time>
      </trkpt>
      <trkpt lat="42.9897600" lon="0.7080600">
        <ele>743.2</ele>
        <time>2020-07-24T09:56:21Z</time>
      </trkpt>
      <trkpt lat="42.9898310" lon="0.7079370">
        <ele>743.8</ele>
        <time>2020-07-24T09:56:25Z</time>
      </trkpt>
      <trkpt lat="42.9898500" lon="0.7078960">
        <ele>744.2</ele>
        <time>2020-07-24T09:56:26Z</time>
      </trkpt>
      <trkpt lat="42.9899020" lon="0.7077980">
        <ele>744.8</ele>
        <time>2020-07-24T09:56:28Z</time>
      </trkpt>
      <trkpt lat="42.9899380" lon="0.7077060">
        <ele>745.0</ele>
        <time>2020-07-24T09:56:30Z</time>
      </trkpt>
      <trkpt lat="42.9899940" lon="0.7075720">
        <ele>745.8</ele>
        <time>2020-07-24T09:56:33Z</time>
      </trkpt>
      <trkpt lat="42.9900070" lon="0.7075260">
        <ele>746.0</ele>
        <time>2020-07-24T09:56:34Z</time>
      </trkpt>
      <trkpt lat="42.9900570" lon="0.7073760">
        <ele>746.6</ele>
        <time>2020-07-24T09:56:37Z</time>
      </trkpt>
      <trkpt lat="42.9900850" lon="0.7072790">
        <ele>747.0</ele>
        <time>2020-07-24T09:56:39Z</time>
      </trkpt>
      <trkpt lat="42.9901210" lon="0.7071260">
        <ele>747.4</ele>
        <time>2020-07-24T09:56:42Z</time>
      </trkpt>
      <trkpt lat="42.9901450" lon="0.7070280">
        <ele>747.6</ele>
        <time>2020-07-24T09:56:44Z</time>
      </trkpt>
      <trkpt lat="42.9901730" lon="0.7069350">
        <ele>748.0</ele>
        <time>2020-07-24T09:56:46Z</time>
      </trkpt>
      <trkpt lat="42.9902460" lon="0.7067510">
        <ele>749.2</ele>
        <time>2020-07-24T09:56:50Z</time>
      </trkpt>
      <trkpt lat="42.9902980" lon="0.7065200">
        <ele>750.0</ele>
        <time>2020-07-24T09:56:55Z</time>
      </trkpt>
      <trkpt lat="42.9903130" lon="0.7064260">
        <ele>750.4</ele>
        <time>2020-07-24T09:56:57Z</time>
      </trkpt>
      <trkpt lat="42.9903220" lon="0.7063760">
        <ele>750.8</ele>
        <time>2020-07-24T09:56:58Z</time>
      </trkpt>
      <trkpt lat="42.9903550" lon="0.7062270">
        <ele>751.6</ele>
        <time>2020-07-24T09:57:01Z</time>
      </trkpt>
      <trkpt lat="42.9903800" lon="0.7060130">
        <ele>751.8</ele>
        <time>2020-07-24T09:57:05Z</time>
      </trkpt>
      <trkpt lat="42.9903960" lon="0.7059190">
        <ele>752.2</ele>
        <time>2020-07-24T09:57:07Z</time>
      </trkpt>
      <trkpt lat="42.9904100" lon="0.7058330">
        <ele>752.8</ele>
        <time>2020-07-24T09:57:09Z</time>
      </trkpt>
      <trkpt lat="42.9904220" lon="0.7057610">
        <ele>753.2</ele>
        <time>2020-07-24T09:57:11Z</time>
      </trkpt>
      <trkpt lat="42.9904840" lon="0.7055390">
        <ele>753.8</ele>
        <time>2020-07-24T09:57:17Z</time>
      </trkpt>
      <trkpt lat="42.9905150" lon="0.7053850">
        <ele>755.0</ele>
        <time>2020-07-24T09:57:21Z</time>
      </trkpt>
      <trkpt lat="42.9905530" lon="0.7052490">
        <ele>755.8</ele>
        <time>2020-07-24T09:57:25Z</time>
      </trkpt>
      <trkpt lat="42.9905620" lon="0.7052140">
        <ele>756.2</ele>
        <time>2020-07-24T09:57:26Z</time>
      </trkpt>
      <trkpt lat="42.9905870" lon="0.7050820">
        <ele>756.8</ele>
        <time>2020-07-24T09:57:29Z</time>
      </trkpt>
      <trkpt lat="42.9906060" lon="0.7049970">
        <ele>757.2</ele>
        <time>2020-07-24T09:57:31Z</time>
      </trkpt>
      <trkpt lat="42.9906190" lon="0.7049570">
        <ele>757.2</ele>
        <time>2020-07-24T09:57:32Z</time>
      </trkpt>
      <trkpt lat="42.9907110" lon="0.7046950">
        <ele>758.2</ele>
        <time>2020-07-24T09:57:38Z</time>
      </trkpt>
      <trkpt lat="42.9907290" lon="0.7046550">
        <ele>758.4</ele>
        <time>2020-07-24T09:57:39Z</time>
      </trkpt>
      <trkpt lat="42.9908090" lon="0.7044810">
        <ele>759.2</ele>
        <time>2020-07-24T09:57:43Z</time>
      </trkpt>
      <trkpt lat="42.9908190" lon="0.7044270">
        <ele>759.6</ele>
        <time>2020-07-24T09:57:44Z</time>
      </trkpt>
      <trkpt lat="42.9908370" lon="0.7043750">
        <ele>759.8</ele>
        <time>2020-07-24T09:57:45Z</time>
      </trkpt>
      <trkpt lat="42.9908780" lon="0.7042330">
        <ele>760.8</ele>
        <time>2020-07-24T09:57:48Z</time>
      </trkpt>
      <trkpt lat="42.9908810" lon="0.7040930">
        <ele>761.6</ele>
        <time>2020-07-24T09:57:51Z</time>
      </trkpt>
      <trkpt lat="42.9908780" lon="0.7040080">
        <ele>761.8</ele>
        <time>2020-07-24T09:57:53Z</time>
      </trkpt>
      <trkpt lat="42.9908850" lon="0.7038960">
        <ele>762.4</ele>
        <time>2020-07-24T09:57:56Z</time>
      </trkpt>
      <trkpt lat="42.9908860" lon="0.7038570">
        <ele>762.4</ele>
        <time>2020-07-24T09:57:57Z</time>
      </trkpt>
      <trkpt lat="42.9908950" lon="0.7037620">
        <ele>762.8</ele>
        <time>2020-07-24T09:57:59Z</time>
      </trkpt>
      <trkpt lat="42.9909390" lon="0.7035610">
        <ele>763.8</ele>
        <time>2020-07-24T09:58:03Z</time>
      </trkpt>
      <trkpt lat="42.9909420" lon="0.7035070">
        <ele>764.0</ele>
        <time>2020-07-24T09:58:04Z</time>
      </trkpt>
      <trkpt lat="42.9910040" lon="0.7033090">
        <ele>765.0</ele>
        <time>2020-07-24T09:58:08Z</time>
      </trkpt>
      <trkpt lat="42.9910220" lon="0.7032690">
        <ele>765.2</ele>
        <time>2020-07-24T09:58:09Z</time>
      </trkpt>
      <trkpt lat="42.9911140" lon="0.7031820">
        <ele>765.8</ele>
        <time>2020-07-24T09:58:12Z</time>
      </trkpt>
      <trkpt lat="42.9912110" lon="0.7031060">
        <ele>766.2</ele>
        <time>2020-07-24T09:58:15Z</time>
      </trkpt>
      <trkpt lat="42.9913090" lon="0.7030060">
        <ele>766.8</ele>
        <time>2020-07-24T09:58:18Z</time>
      </trkpt>
      <trkpt lat="42.9913990" lon="0.7028950">
        <ele>767.4</ele>
        <time>2020-07-24T09:58:21Z</time>
      </trkpt>
      <trkpt lat="42.9914550" lon="0.7028160">
        <ele>767.6</ele>
        <time>2020-07-24T09:58:23Z</time>
      </trkpt>
      <trkpt lat="42.9915500" lon="0.7026330">
        <ele>768.6</ele>
        <time>2020-07-24T09:58:27Z</time>
      </trkpt>
      <trkpt lat="42.9915960" lon="0.7024760">
        <ele>769.0</ele>
        <time>2020-07-24T09:58:30Z</time>
      </trkpt>
      <trkpt lat="42.9916200" lon="0.7023310">
        <ele>769.8</ele>
        <time>2020-07-24T09:58:33Z</time>
      </trkpt>
      <trkpt lat="42.9916290" lon="0.7021810">
        <ele>770.2</ele>
        <time>2020-07-24T09:58:36Z</time>
      </trkpt>
      <trkpt lat="42.9916290" lon="0.7019890">
        <ele>771.0</ele>
        <time>2020-07-24T09:58:40Z</time>
      </trkpt>
      <trkpt lat="42.9916200" lon="0.7018430">
        <ele>771.6</ele>
        <time>2020-07-24T09:58:43Z</time>
      </trkpt>
      <trkpt lat="42.9916240" lon="0.7017570">
        <ele>772.0</ele>
        <time>2020-07-24T09:58:45Z</time>
      </trkpt>
      <trkpt lat="42.9916300" lon="0.7015530">
        <ele>773.2</ele>
        <time>2020-07-24T09:58:50Z</time>
      </trkpt>
      <trkpt lat="42.9916460" lon="0.7013330">
        <ele>774.0</ele>
        <time>2020-07-24T09:58:55Z</time>
      </trkpt>
      <trkpt lat="42.9916470" lon="0.7012880">
        <ele>774.2</ele>
        <time>2020-07-24T09:58:56Z</time>
      </trkpt>
      <trkpt lat="42.9916490" lon="0.7012460">
        <ele>774.4</ele>
        <time>2020-07-24T09:58:57Z</time>
      </trkpt>
      <trkpt lat="42.9916470" lon="0.7010780">
        <ele>775.4</ele>
        <time>2020-07-24T09:59:01Z</time>
      </trkpt>
      <trkpt lat="42.9916330" lon="0.7009240">
        <ele>775.8</ele>
        <time>2020-07-24T09:59:04Z</time>
      </trkpt>
      <trkpt lat="42.9916240" lon="0.7007670">
        <ele>776.6</ele>
        <time>2020-07-24T09:59:07Z</time>
      </trkpt>
      <trkpt lat="42.9916110" lon="0.7006150">
        <ele>777.4</ele>
        <time>2020-07-24T09:59:11Z</time>
      </trkpt>
      <trkpt lat="42.9916120" lon="0.7005710">
        <ele>777.8</ele>
        <time>2020-07-24T09:59:12Z</time>
      </trkpt>
      <trkpt lat="42.9915990" lon="0.7004180">
        <ele>778.4</ele>
        <time>2020-07-24T09:59:15Z</time>
      </trkpt>
      <trkpt lat="42.9915830" lon="0.7003080">
        <ele>778.8</ele>
        <time>2020-07-24T09:59:17Z</time>
      </trkpt>
      <trkpt lat="42.9915740" lon="0.7002540">
        <ele>779.0</ele>
        <time>2020-07-24T09:59:18Z</time>
      </trkpt>
      <trkpt lat="42.9915620" lon="0.7001950">
        <ele>779.0</ele>
        <time>2020-07-24T09:59:19Z</time>
      </trkpt>
      <trkpt lat="42.9915090" lon="0.6998960">
        <ele>780.0</ele>
        <time>2020-07-24T09:59:24Z</time>
      </trkpt>
      <trkpt lat="42.9915030" lon="0.6998340">
        <ele>780.2</ele>
        <time>2020-07-24T09:59:25Z</time>
      </trkpt>
      <trkpt lat="42.9914880" lon="0.6994910">
        <ele>781.0</ele>
        <time>2020-07-24T09:59:31Z</time>
      </trkpt>
      <trkpt lat="42.9915000" lon="0.6994360">
        <ele>781.0</ele>
        <time>2020-07-24T09:59:32Z</time>
      </trkpt>
      <trkpt lat="42.9915040" lon="0.6993760">
        <ele>781.0</ele>
        <time>2020-07-24T09:59:33Z</time>
      </trkpt>
      <trkpt lat="42.9915700" lon="0.6991600">
        <ele>782.2</ele>
        <time>2020-07-24T09:59:37Z</time>
      </trkpt>
      <trkpt lat="42.9915920" lon="0.6990520">
        <ele>782.8</ele>
        <time>2020-07-24T09:59:39Z</time>
      </trkpt>
      <trkpt lat="42.9916060" lon="0.6988910">
        <ele>783.4</ele>
        <time>2020-07-24T09:59:42Z</time>
      </trkpt>
      <trkpt lat="42.9915910" lon="0.6987370">
        <ele>784.0</ele>
        <time>2020-07-24T09:59:45Z</time>
      </trkpt>
      <trkpt lat="42.9915760" lon="0.6986380">
        <ele>784.4</ele>
        <time>2020-07-24T09:59:47Z</time>
      </trkpt>
      <trkpt lat="42.9915150" lon="0.6983290">
        <ele>785.2</ele>
        <time>2020-07-24T09:59:53Z</time>
      </trkpt>
      <trkpt lat="42.9915020" lon="0.6982760">
        <ele>785.4</ele>
        <time>2020-07-24T09:59:54Z</time>
      </trkpt>
      <trkpt lat="42.9914740" lon="0.6980280">
        <ele>786.2</ele>
        <time>2020-07-24T09:59:59Z</time>
      </trkpt>
      <trkpt lat="42.9914780" lon="0.6979250">
        <ele>786.6</ele>
        <time>2020-07-24T10:00:01Z</time>
      </trkpt>
      <trkpt lat="42.9914740" lon="0.6977260">
        <ele>787.6</ele>
        <time>2020-07-24T10:00:05Z</time>
      </trkpt>
      <trkpt lat="42.9914690" lon="0.6974260">
        <ele>788.6</ele>
        <time>2020-07-24T10:00:11Z</time>
      </trkpt>
      <trkpt lat="42.9914590" lon="0.6971290">
        <ele>789.4</ele>
        <time>2020-07-24T10:00:17Z</time>
      </trkpt>
      <trkpt lat="42.9914580" lon="0.6970780">
        <ele>789.8</ele>
        <time>2020-07-24T10:00:18Z</time>
      </trkpt>
      <trkpt lat="42.9914530" lon="0.6969750">
        <ele>790.2</ele>
        <time>2020-07-24T10:00:20Z</time>
      </trkpt>
      <trkpt lat="42.9914490" lon="0.6968240">
        <ele>791.0</ele>
        <time>2020-07-24T10:00:23Z</time>
      </trkpt>
      <trkpt lat="42.9914370" lon="0.6965120">
        <ele>792.0</ele>
        <time>2020-07-24T10:00:29Z</time>
      </trkpt>
      <trkpt lat="42.9914340" lon="0.6964610">
        <ele>792.2</ele>
        <time>2020-07-24T10:00:30Z</time>
      </trkpt>
      <trkpt lat="42.9914210" lon="0.6963090">
        <ele>793.0</ele>
        <time>2020-07-24T10:00:33Z</time>
      </trkpt>
      <trkpt lat="42.9914040" lon="0.6961050">
        <ele>793.4</ele>
        <time>2020-07-24T10:00:37Z</time>
      </trkpt>
      <trkpt lat="42.9913720" lon="0.6959120">
        <ele>794.0</ele>
        <time>2020-07-24T10:00:41Z</time>
      </trkpt>
      <trkpt lat="42.9913520" lon="0.6957590">
        <ele>794.8</ele>
        <time>2020-07-24T10:00:44Z</time>
      </trkpt>
      <trkpt lat="42.9913440" lon="0.6957070">
        <ele>795.2</ele>
        <time>2020-07-24T10:00:45Z</time>
      </trkpt>
      <trkpt lat="42.9912890" lon="0.6954250">
        <ele>796.2</ele>
        <time>2020-07-24T10:00:51Z</time>
      </trkpt>
      <trkpt lat="42.9912320" lon="0.6952040">
        <ele>797.6</ele>
        <time>2020-07-24T10:00:56Z</time>
      </trkpt>
      <trkpt lat="42.9912140" lon="0.6951090">
        <ele>797.8</ele>
        <time>2020-07-24T10:00:58Z</time>
      </trkpt>
      <trkpt lat="42.9912060" lon="0.6950600">
        <ele>798.0</ele>
        <time>2020-07-24T10:00:59Z</time>
      </trkpt>
      <trkpt lat="42.9911780" lon="0.6949100">
        <ele>798.6</ele>
        <time>2020-07-24T10:01:02Z</time>
      </trkpt>
      <trkpt lat="42.9911350" lon="0.6946490">
        <ele>799.6</ele>
        <time>2020-07-24T10:01:07Z</time>
      </trkpt>
      <trkpt lat="42.9911330" lon="0.6945970">
        <ele>799.8</ele>
        <time>2020-07-24T10:01:08Z</time>
      </trkpt>
      <trkpt lat="42.9911430" lon="0.6943940">
        <ele>800.6</ele>
        <time>2020-07-24T10:01:12Z</time>
      </trkpt>
      <trkpt lat="42.9911350" lon="0.6942630">
        <ele>801.0</ele>
        <time>2020-07-24T10:01:15Z</time>
      </trkpt>
      <trkpt lat="42.9910470" lon="0.6940630">
        <ele>801.6</ele>
        <time>2020-07-24T10:01:21Z</time>
      </trkpt>
      <trkpt lat="42.9910350" lon="0.6940330">
        <ele>801.8</ele>
        <time>2020-07-24T10:01:22Z</time>
      </trkpt>
      <trkpt lat="42.9910240" lon="0.6939610">
        <ele>802.2</ele>
        <time>2020-07-24T10:01:25Z</time>
      </trkpt>
      <trkpt lat="42.9910140" lon="0.6939480">
        <ele>802.2</ele>
        <time>2020-07-24T10:01:26Z</time>
      </trkpt>
      <trkpt lat="42.9910020" lon="0.6939620">
        <ele>802.2</ele>
        <time>2020-07-24T10:01:28Z</time>
      </trkpt>
      <trkpt lat="42.9910090" lon="0.6939800">
        <ele>802.0</ele>
        <time>2020-07-24T10:01:29Z</time>
      </trkpt>
      <trkpt lat="42.9910560" lon="0.6940580">
        <ele>801.8</ele>
        <time>2020-07-24T10:01:34Z</time>
      </trkpt>
      <trkpt lat="42.9910650" lon="0.6940580">
        <ele>801.8</ele>
        <time>2020-07-24T10:01:35Z</time>
      </trkpt>
      <trkpt lat="42.9910630" lon="0.6940400">
        <ele>801.6</ele>
        <time>2020-07-24T10:01:41Z</time>
      </trkpt>
      <trkpt lat="42.9910620" lon="0.6940390">
        <ele>802.0</ele>
        <time>2020-07-24T10:01:47Z</time>
      </trkpt>
      <trkpt lat="42.9910650" lon="0.6940490">
        <ele>802.0</ele>
        <time>2020-07-24T10:01:49Z</time>
      </trkpt>
      <trkpt lat="42.9910660" lon="0.6940620">
        <ele>802.0</ele>
        <time>2020-07-24T10:01:50Z</time>
      </trkpt>
      <trkpt lat="42.9910760" lon="0.6940550">
        <ele>801.8</ele>
        <time>2020-07-24T10:01:52Z</time>
      </trkpt>
      <trkpt lat="42.9911120" lon="0.6940610">
        <ele>801.6</ele>
        <time>2020-07-24T10:01:58Z</time>
      </trkpt>
      <trkpt lat="42.9911110" lon="0.6940630">
        <ele>801.6</ele>
        <time>2020-07-24T10:01:59Z</time>
      </trkpt>
      <trkpt lat="42.9911000" lon="0.6940490">
        <ele>801.4</ele>
        <time>2020-07-24T10:02:05Z</time>
      </trkpt>
      <trkpt lat="42.9910970" lon="0.6940470">
        <ele>801.4</ele>
        <time>2020-07-24T10:02:08Z</time>
      </trkpt>
      <trkpt lat="42.9910930" lon="0.6940540">
        <ele>801.6</ele>
        <time>2020-07-24T10:02:14Z</time>
      </trkpt>
      <trkpt lat="42.9910940" lon="0.6940540">
        <ele>801.4</ele>
        <time>2020-07-24T10:02:15Z</time>
      </trkpt>
      <trkpt lat="42.9910940" lon="0.6940540">
        <ele>801.4</ele>
        <time>2020-07-24T10:02:16Z</time>
      </trkpt>
      <trkpt lat="42.9910950" lon="0.6940560">
        <ele>801.4</ele>
        <time>2020-07-24T10:02:18Z</time>
      </trkpt>
      <trkpt lat="42.9910970" lon="0.6940660">
        <ele>801.4</ele>
        <time>2020-07-24T10:02:24Z</time>
      </trkpt>
      <trkpt lat="42.9911010" lon="0.6940750">
        <ele>801.2</ele>
        <time>2020-07-24T10:02:30Z</time>
      </trkpt>
      <trkpt lat="42.9911030" lon="0.6940840">
        <ele>801.2</ele>
        <time>2020-07-24T10:02:33Z</time>
      </trkpt>
      <trkpt lat="42.9911000" lon="0.6940850">
        <ele>801.2</ele>
        <time>2020-07-24T10:02:39Z</time>
      </trkpt>
      <trkpt lat="42.9910890" lon="0.6940880">
        <ele>801.2</ele>
        <time>2020-07-24T10:02:45Z</time>
      </trkpt>
      <trkpt lat="42.9910840" lon="0.6940980">
        <ele>801.2</ele>
        <time>2020-07-24T10:02:50Z</time>
      </trkpt>
      <trkpt lat="42.9910820" lon="0.6941000">
        <ele>801.2</ele>
        <time>2020-07-24T10:02:56Z</time>
      </trkpt>
      <trkpt lat="42.9910840" lon="0.6941020">
        <ele>801.2</ele>
        <time>2020-07-24T10:02:58Z</time>
      </trkpt>
      <trkpt lat="42.9910850" lon="0.6941010">
        <ele>801.2</ele>
        <time>2020-07-24T10:03:00Z</time>
      </trkpt>
      <trkpt lat="42.9910860" lon="0.6941000">
        <ele>801.2</ele>
        <time>2020-07-24T10:03:01Z</time>
      </trkpt>
      <trkpt lat="42.9910930" lon="0.6941050">
        <ele>801.2</ele>
        <time>2020-07-24T10:03:07Z</time>
      </trkpt>
      <trkpt lat="42.9910900" lon="0.6941080">
        <ele>801.2</ele>
        <time>2020-07-24T10:03:08Z</time>
      </trkpt>
      <trkpt lat="42.9910940" lon="0.6941070">
        <ele>801.2</ele>
        <time>2020-07-24T10:03:14Z</time>
      </trkpt>
      <trkpt lat="42.9910920" lon="0.6941030">
        <ele>801.2</ele>
        <time>2020-07-24T10:03:16Z</time>
      </trkpt>
      <trkpt lat="42.9910940" lon="0.6941040">
        <ele>801.2</ele>
        <time>2020-07-24T10:03:17Z</time>
      </trkpt>
      <trkpt lat="42.9910950" lon="0.6941020">
        <ele>801.2</ele>
        <time>2020-07-24T10:03:19Z</time>
      </trkpt>
      <trkpt lat="42.9910880" lon="0.6940930">
        <ele>801.2</ele>
        <time>2020-07-24T10:03:25Z</time>
      </trkpt>
      <trkpt lat="42.9910900" lon="0.6940870">
        <ele>801.2</ele>
        <time>2020-07-24T10:03:29Z</time>
      </trkpt>
      <trkpt lat="42.9910960" lon="0.6940720">
        <ele>801.2</ele>
        <time>2020-07-24T10:03:35Z</time>
      </trkpt>
      <trkpt lat="42.9911070" lon="0.6940630">
        <ele>801.2</ele>
        <time>2020-07-24T10:03:41Z</time>
      </trkpt>
      <trkpt lat="42.9910900" lon="0.6940520">
        <ele>801.2</ele>
        <time>2020-07-24T10:03:44Z</time>
      </trkpt>
      <trkpt lat="42.9910820" lon="0.6940460">
        <ele>801.2</ele>
        <time>2020-07-24T10:03:46Z</time>
      </trkpt>
      <trkpt lat="42.9909170" lon="0.6939990">
        <ele>801.2</ele>
        <time>2020-07-24T10:09:47Z</time>
      </trkpt>
      <trkpt lat="42.9908810" lon="0.6939150">
        <ele>801.2</ele>
        <time>2020-07-24T10:09:50Z</time>
      </trkpt>
      <trkpt lat="42.9907700" lon="0.6937680">
        <ele>801.8</ele>
        <time>2020-07-24T10:09:54Z</time>
      </trkpt>
      <trkpt lat="42.9905360" lon="0.6935270">
        <ele>801.8</ele>
        <time>2020-07-24T10:10:00Z</time>
      </trkpt>
      <trkpt lat="42.9904880" lon="0.6934910">
        <ele>801.6</ele>
        <time>2020-07-24T10:10:01Z</time>
      </trkpt>
      <trkpt lat="42.9903300" lon="0.6934010">
        <ele>800.6</ele>
        <time>2020-07-24T10:10:04Z</time>
      </trkpt>
      <trkpt lat="42.9902730" lon="0.6933860">
        <ele>800.2</ele>
        <time>2020-07-24T10:10:05Z</time>
      </trkpt>
      <trkpt lat="42.9902190" lon="0.6933800">
        <ele>799.8</ele>
        <time>2020-07-24T10:10:06Z</time>
      </trkpt>
      <trkpt lat="42.9901590" lon="0.6933820">
        <ele>799.6</ele>
        <time>2020-07-24T10:10:07Z</time>
      </trkpt>
      <trkpt lat="42.9900310" lon="0.6934090">
        <ele>799.0</ele>
        <time>2020-07-24T10:10:09Z</time>
      </trkpt>
      <trkpt lat="42.9898950" lon="0.6934720">
        <ele>798.4</ele>
        <time>2020-07-24T10:10:11Z</time>
      </trkpt>
      <trkpt lat="42.9897520" lon="0.6935570">
        <ele>797.6</ele>
        <time>2020-07-24T10:10:13Z</time>
      </trkpt>
      <trkpt lat="42.9896680" lon="0.6935840">
        <ele>797.2</ele>
        <time>2020-07-24T10:10:14Z</time>
      </trkpt>
      <trkpt lat="42.9895160" lon="0.6936010">
        <ele>796.0</ele>
        <time>2020-07-24T10:10:16Z</time>
      </trkpt>
      <trkpt lat="42.9893590" lon="0.6934550">
        <ele>795.2</ele>
        <time>2020-07-24T10:10:18Z</time>
      </trkpt>
      <trkpt lat="42.9892430" lon="0.6932600">
        <ele>794.4</ele>
        <time>2020-07-24T10:10:20Z</time>
      </trkpt>
      <trkpt lat="42.9891890" lon="0.6931610">
        <ele>794.0</ele>
        <time>2020-07-24T10:10:21Z</time>
      </trkpt>
      <trkpt lat="42.9890680" lon="0.6929650">
        <ele>793.2</ele>
        <time>2020-07-24T10:10:23Z</time>
      </trkpt>
      <trkpt lat="42.9889390" lon="0.6927550">
        <ele>792.4</ele>
        <time>2020-07-24T10:10:25Z</time>
      </trkpt>
      <trkpt lat="42.9888800" lon="0.6926350">
        <ele>792.0</ele>
        <time>2020-07-24T10:10:26Z</time>
      </trkpt>
      <trkpt lat="42.9887960" lon="0.6923850">
        <ele>791.0</ele>
        <time>2020-07-24T10:10:28Z</time>
      </trkpt>
      <trkpt lat="42.9887710" lon="0.6922450">
        <ele>790.4</ele>
        <time>2020-07-24T10:10:29Z</time>
      </trkpt>
      <trkpt lat="42.9887610" lon="0.6921010">
        <ele>789.6</ele>
        <time>2020-07-24T10:10:30Z</time>
      </trkpt>
      <trkpt lat="42.9888060" lon="0.6918370">
        <ele>788.2</ele>
        <time>2020-07-24T10:10:32Z</time>
      </trkpt>
      <trkpt lat="42.9888820" lon="0.6916010">
        <ele>787.2</ele>
        <time>2020-07-24T10:10:34Z</time>
      </trkpt>
      <trkpt lat="42.9888970" lon="0.6914790">
        <ele>786.4</ele>
        <time>2020-07-24T10:10:35Z</time>
      </trkpt>
      <trkpt lat="42.9888990" lon="0.6913550">
        <ele>785.8</ele>
        <time>2020-07-24T10:10:36Z</time>
      </trkpt>
      <trkpt lat="42.9888620" lon="0.6911100">
        <ele>784.8</ele>
        <time>2020-07-24T10:10:38Z</time>
      </trkpt>
      <trkpt lat="42.9888300" lon="0.6909860">
        <ele>784.4</ele>
        <time>2020-07-24T10:10:39Z</time>
      </trkpt>
      <trkpt lat="42.9887630" lon="0.6907430">
        <ele>783.4</ele>
        <time>2020-07-24T10:10:41Z</time>
      </trkpt>
      <trkpt lat="42.9887270" lon="0.6906210">
        <ele>782.8</ele>
        <time>2020-07-24T10:10:42Z</time>
      </trkpt>
      <trkpt lat="42.9886850" lon="0.6904960">
        <ele>782.4</ele>
        <time>2020-07-24T10:10:43Z</time>
      </trkpt>
      <trkpt lat="42.9886360" lon="0.6903690">
        <ele>781.8</ele>
        <time>2020-07-24T10:10:44Z</time>
      </trkpt>
      <trkpt lat="42.9885330" lon="0.6901100">
        <ele>780.4</ele>
        <time>2020-07-24T10:10:46Z</time>
      </trkpt>
      <trkpt lat="42.9884350" lon="0.6898520">
        <ele>779.6</ele>
        <time>2020-07-24T10:10:48Z</time>
      </trkpt>
      <trkpt lat="42.9883880" lon="0.6897290">
        <ele>779.0</ele>
        <time>2020-07-24T10:10:49Z</time>
      </trkpt>
      <trkpt lat="42.9883350" lon="0.6896160">
        <ele>778.4</ele>
        <time>2020-07-24T10:10:50Z</time>
      </trkpt>
      <trkpt lat="42.9882190" lon="0.6894160">
        <ele>777.4</ele>
        <time>2020-07-24T10:10:52Z</time>
      </trkpt>
      <trkpt lat="42.9881560" lon="0.6893340">
        <ele>776.8</ele>
        <time>2020-07-24T10:10:53Z</time>
      </trkpt>
      <trkpt lat="42.9880790" lon="0.6892740">
        <ele>776.4</ele>
        <time>2020-07-24T10:10:54Z</time>
      </trkpt>
      <trkpt lat="42.9879740" lon="0.6892320">
        <ele>775.8</ele>
        <time>2020-07-24T10:10:55Z</time>
      </trkpt>
      <trkpt lat="42.9878320" lon="0.6892200">
        <ele>775.2</ele>
        <time>2020-07-24T10:10:56Z</time>
      </trkpt>
      <trkpt lat="42.9877080" lon="0.6892050">
        <ele>774.8</ele>
        <time>2020-07-24T10:10:57Z</time>
      </trkpt>
      <trkpt lat="42.9875970" lon="0.6891800">
        <ele>774.2</ele>
        <time>2020-07-24T10:10:58Z</time>
      </trkpt>
      <trkpt lat="42.9874220" lon="0.6890570">
        <ele>773.0</ele>
        <time>2020-07-24T10:11:00Z</time>
      </trkpt>
      <trkpt lat="42.9873010" lon="0.6888590">
        <ele>772.0</ele>
        <time>2020-07-24T10:11:02Z</time>
      </trkpt>
      <trkpt lat="42.9872690" lon="0.6887450">
        <ele>771.6</ele>
        <time>2020-07-24T10:11:03Z</time>
      </trkpt>
      <trkpt lat="42.9872590" lon="0.6886280">
        <ele>771.2</ele>
        <time>2020-07-24T10:11:04Z</time>
      </trkpt>
      <trkpt lat="42.9872880" lon="0.6884040">
        <ele>770.6</ele>
        <time>2020-07-24T10:11:06Z</time>
      </trkpt>
      <trkpt lat="42.9873320" lon="0.6881780">
        <ele>769.6</ele>
        <time>2020-07-24T10:11:08Z</time>
      </trkpt>
      <trkpt lat="42.9873530" lon="0.6880630">
        <ele>769.0</ele>
        <time>2020-07-24T10:11:09Z</time>
      </trkpt>
      <trkpt lat="42.9873540" lon="0.6879390">
        <ele>768.4</ele>
        <time>2020-07-24T10:11:10Z</time>
      </trkpt>
      <trkpt lat="42.9873470" lon="0.6878140">
        <ele>767.8</ele>
        <time>2020-07-24T10:11:11Z</time>
      </trkpt>
      <trkpt lat="42.9873410" lon="0.6876920">
        <ele>767.2</ele>
        <time>2020-07-24T10:11:12Z</time>
      </trkpt>
      <trkpt lat="42.9873240" lon="0.6875660">
        <ele>766.4</ele>
        <time>2020-07-24T10:11:13Z</time>
      </trkpt>
      <trkpt lat="42.9873030" lon="0.6874400">
        <ele>765.8</ele>
        <time>2020-07-24T10:11:14Z</time>
      </trkpt>
      <trkpt lat="42.9872740" lon="0.6873110">
        <ele>765.4</ele>
        <time>2020-07-24T10:11:15Z</time>
      </trkpt>
      <trkpt lat="42.9871830" lon="0.6869070">
        <ele>763.8</ele>
        <time>2020-07-24T10:11:18Z</time>
      </trkpt>
      <trkpt lat="42.9870910" lon="0.6864780">
        <ele>762.4</ele>
        <time>2020-07-24T10:11:21Z</time>
      </trkpt>
      <trkpt lat="42.9870580" lon="0.6863370">
        <ele>761.8</ele>
        <time>2020-07-24T10:11:22Z</time>
      </trkpt>
      <trkpt lat="42.9870290" lon="0.6861980">
        <ele>761.0</ele>
        <time>2020-07-24T10:11:23Z</time>
      </trkpt>
      <trkpt lat="42.9868890" lon="0.6857950">
        <ele>759.8</ele>
        <time>2020-07-24T10:11:26Z</time>
      </trkpt>
      <trkpt lat="42.9868310" lon="0.6856670">
        <ele>759.4</ele>
        <time>2020-07-24T10:11:27Z</time>
      </trkpt>
      <trkpt lat="42.9867700" lon="0.6855390">
        <ele>758.6</ele>
        <time>2020-07-24T10:11:28Z</time>
      </trkpt>
      <trkpt lat="42.9866400" lon="0.6852910">
        <ele>757.2</ele>
        <time>2020-07-24T10:11:30Z</time>
      </trkpt>
      <trkpt lat="42.9865680" lon="0.6851730">
        <ele>756.4</ele>
        <time>2020-07-24T10:11:31Z</time>
      </trkpt>
      <trkpt lat="42.9864920" lon="0.6850610">
        <ele>755.6</ele>
        <time>2020-07-24T10:11:32Z</time>
      </trkpt>
      <trkpt lat="42.9862290" lon="0.6847660">
        <ele>754.2</ele>
        <time>2020-07-24T10:11:35Z</time>
      </trkpt>
      <trkpt lat="42.9860480" lon="0.6845860">
        <ele>752.6</ele>
        <time>2020-07-24T10:11:37Z</time>
      </trkpt>
      <trkpt lat="42.9859000" lon="0.6844440">
        <ele>751.6</ele>
        <time>2020-07-24T10:11:39Z</time>
      </trkpt>
      <trkpt lat="42.9858470" lon="0.6843880">
        <ele>751.4</ele>
        <time>2020-07-24T10:11:40Z</time>
      </trkpt>
      <trkpt lat="42.9857540" lon="0.6842910">
        <ele>751.0</ele>
        <time>2020-07-24T10:11:42Z</time>
      </trkpt>
      <trkpt lat="42.9856050" lon="0.6841470">
        <ele>750.4</ele>
        <time>2020-07-24T10:11:45Z</time>
      </trkpt>
      <trkpt lat="42.9854360" lon="0.6839420">
        <ele>749.2</ele>
        <time>2020-07-24T10:11:49Z</time>
      </trkpt>
      <trkpt lat="42.9854110" lon="0.6838230">
        <ele>748.2</ele>
        <time>2020-07-24T10:11:51Z</time>
      </trkpt>
      <trkpt lat="42.9854160" lon="0.6837740">
        <ele>747.6</ele>
        <time>2020-07-24T10:11:52Z</time>
      </trkpt>
      <trkpt lat="42.9854020" lon="0.6836960">
        <ele>747.0</ele>
        <time>2020-07-24T10:11:55Z</time>
      </trkpt>
      <trkpt lat="42.9854030" lon="0.6836950">
        <ele>747.0</ele>
        <time>2020-07-24T10:11:59Z</time>
      </trkpt>
      <trkpt lat="42.9854030" lon="0.6836930">
        <ele>747.0</ele>
        <time>2020-07-24T10:12:00Z</time>
      </trkpt>
      <trkpt lat="42.9854110" lon="0.6836990">
        <ele>747.0</ele>
        <time>2020-07-24T10:12:05Z</time>
      </trkpt>
      <trkpt lat="42.9821280" lon="0.6791040">
        <ele>719.4</ele>
        <time>2020-07-24T10:13:28Z</time>
      </trkpt>
      <trkpt lat="42.9821200" lon="0.6790620">
        <ele>719.4</ele>
        <time>2020-07-24T10:13:30Z</time>
      </trkpt>
      <trkpt lat="42.9821240" lon="0.6790470">
        <ele>719.4</ele>
        <time>2020-07-24T10:13:32Z</time>
      </trkpt>
      <trkpt lat="42.9821290" lon="0.6790470">
        <ele>719.2</ele>
        <time>2020-07-24T10:13:34Z</time>
      </trkpt>
      <trkpt lat="42.9819900" lon="0.6787860">
        <ele>718.0</ele>
        <time>2020-07-24T10:14:45Z</time>
      </trkpt>
      <trkpt lat="42.9820090" lon="0.6786620">
        <ele>718.0</ele>
        <time>2020-07-24T10:14:47Z</time>
      </trkpt>
      <trkpt lat="42.9820520" lon="0.6785200">
        <ele>717.4</ele>
        <time>2020-07-24T10:14:49Z</time>
      </trkpt>
      <trkpt lat="42.9821190" lon="0.6783460">
        <ele>716.8</ele>
        <time>2020-07-24T10:14:51Z</time>
      </trkpt>
      <trkpt lat="42.9821400" lon="0.6781430">
        <ele>715.8</ele>
        <time>2020-07-24T10:14:53Z</time>
      </trkpt>
      <trkpt lat="42.9821450" lon="0.6780450">
        <ele>715.4</ele>
        <time>2020-07-24T10:14:54Z</time>
      </trkpt>
      <trkpt lat="42.9821320" lon="0.6778530">
        <ele>715.0</ele>
        <time>2020-07-24T10:14:56Z</time>
      </trkpt>
      <trkpt lat="42.9820940" lon="0.6776780">
        <ele>713.8</ele>
        <time>2020-07-24T10:14:58Z</time>
      </trkpt>
      <trkpt lat="42.9820110" lon="0.6775100">
        <ele>712.6</ele>
        <time>2020-07-24T10:15:00Z</time>
      </trkpt>
      <trkpt lat="42.9819010" lon="0.6773730">
        <ele>711.8</ele>
        <time>2020-07-24T10:15:02Z</time>
      </trkpt>
      <trkpt lat="42.9818390" lon="0.6773040">
        <ele>711.4</ele>
        <time>2020-07-24T10:15:03Z</time>
      </trkpt>
      <trkpt lat="42.9815840" lon="0.6770880">
        <ele>710.0</ele>
        <time>2020-07-24T10:15:07Z</time>
      </trkpt>
      <trkpt lat="42.9812880" lon="0.6768940">
        <ele>708.8</ele>
        <time>2020-07-24T10:15:11Z</time>
      </trkpt>
      <trkpt lat="42.9811260" lon="0.6768040">
        <ele>707.0</ele>
        <time>2020-07-24T10:15:13Z</time>
      </trkpt>
      <trkpt lat="42.9809610" lon="0.6767170">
        <ele>705.8</ele>
        <time>2020-07-24T10:15:15Z</time>
      </trkpt>
      <trkpt lat="42.9807070" lon="0.6765520">
        <ele>704.4</ele>
        <time>2020-07-24T10:15:18Z</time>
      </trkpt>
      <trkpt lat="42.9806210" lon="0.6764860">
        <ele>703.8</ele>
        <time>2020-07-24T10:15:19Z</time>
      </trkpt>
      <trkpt lat="42.9805360" lon="0.6764130">
        <ele>703.2</ele>
        <time>2020-07-24T10:15:20Z</time>
      </trkpt>
      <trkpt lat="42.9802980" lon="0.6761890">
        <ele>702.0</ele>
        <time>2020-07-24T10:15:23Z</time>
      </trkpt>
      <trkpt lat="42.9801400" lon="0.6760140">
        <ele>700.4</ele>
        <time>2020-07-24T10:15:25Z</time>
      </trkpt>
      <trkpt lat="42.9800530" lon="0.6759120">
        <ele>699.6</ele>
        <time>2020-07-24T10:15:26Z</time>
      </trkpt>
      <trkpt lat="42.9799690" lon="0.6758080">
        <ele>698.8</ele>
        <time>2020-07-24T10:15:27Z</time>
      </trkpt>
      <trkpt lat="42.9798010" lon="0.6755740">
        <ele>697.6</ele>
        <time>2020-07-24T10:15:29Z</time>
      </trkpt>
      <trkpt lat="42.9796450" lon="0.6753460">
        <ele>696.6</ele>
        <time>2020-07-24T10:15:31Z</time>
      </trkpt>
      <trkpt lat="42.9794920" lon="0.6751060">
        <ele>695.2</ele>
        <time>2020-07-24T10:15:33Z</time>
      </trkpt>
      <trkpt lat="42.9793320" lon="0.6748650">
        <ele>694.0</ele>
        <time>2020-07-24T10:15:35Z</time>
      </trkpt>
      <trkpt lat="42.9790980" lon="0.6744930">
        <ele>692.4</ele>
        <time>2020-07-24T10:15:38Z</time>
      </trkpt>
      <trkpt lat="42.9789430" lon="0.6742440">
        <ele>691.0</ele>
        <time>2020-07-24T10:15:40Z</time>
      </trkpt>
      <trkpt lat="42.9787260" lon="0.6738810">
        <ele>689.6</ele>
        <time>2020-07-24T10:15:43Z</time>
      </trkpt>
      <trkpt lat="42.9785730" lon="0.6736270">
        <ele>688.2</ele>
        <time>2020-07-24T10:15:45Z</time>
      </trkpt>
      <trkpt lat="42.9784990" lon="0.6735060">
        <ele>687.4</ele>
        <time>2020-07-24T10:15:46Z</time>
      </trkpt>
      <trkpt lat="42.9784270" lon="0.6733870">
        <ele>687.0</ele>
        <time>2020-07-24T10:15:47Z</time>
      </trkpt>
      <trkpt lat="42.9782770" lon="0.6731620">
        <ele>685.6</ele>
        <time>2020-07-24T10:15:49Z</time>
      </trkpt>
      <trkpt lat="42.9780250" lon="0.6728470">
        <ele>684.2</ele>
        <time>2020-07-24T10:15:52Z</time>
      </trkpt>
      <trkpt lat="42.9777580" lon="0.6725740">
        <ele>682.6</ele>
        <time>2020-07-24T10:15:55Z</time>
      </trkpt>
      <trkpt lat="42.9775730" lon="0.6724150">
        <ele>681.4</ele>
        <time>2020-07-24T10:15:57Z</time>
      </trkpt>
      <trkpt lat="42.9774830" lon="0.6723410">
        <ele>681.0</ele>
        <time>2020-07-24T10:15:58Z</time>
      </trkpt>
      <trkpt lat="42.9773960" lon="0.6722770">
        <ele>680.6</ele>
        <time>2020-07-24T10:15:59Z</time>
      </trkpt>
      <trkpt lat="42.9773070" lon="0.6722180">
        <ele>680.4</ele>
        <time>2020-07-24T10:16:00Z</time>
      </trkpt>
      <trkpt lat="42.9771060" lon="0.6721300">
        <ele>679.2</ele>
        <time>2020-07-24T10:16:02Z</time>
      </trkpt>
      <trkpt lat="42.9768850" lon="0.6720900">
        <ele>678.0</ele>
        <time>2020-07-24T10:16:04Z</time>
      </trkpt>
      <trkpt lat="42.9767770" lon="0.6721050">
        <ele>677.2</ele>
        <time>2020-07-24T10:16:05Z</time>
      </trkpt>
      <trkpt lat="42.9766770" lon="0.6721160">
        <ele>676.6</ele>
        <time>2020-07-24T10:16:06Z</time>
      </trkpt>
      <trkpt lat="42.9764930" lon="0.6721030">
        <ele>675.6</ele>
        <time>2020-07-24T10:16:08Z</time>
      </trkpt>
      <trkpt lat="42.9764120" lon="0.6720690">
        <ele>675.2</ele>
        <time>2020-07-24T10:16:09Z</time>
      </trkpt>
      <trkpt lat="42.9763440" lon="0.6720260">
        <ele>674.8</ele>
        <time>2020-07-24T10:16:10Z</time>
      </trkpt>
      <trkpt lat="42.9762780" lon="0.6719730">
        <ele>674.4</ele>
        <time>2020-07-24T10:16:11Z</time>
      </trkpt>
      <trkpt lat="42.9761390" lon="0.6718640">
        <ele>673.4</ele>
        <time>2020-07-24T10:16:13Z</time>
      </trkpt>
      <trkpt lat="42.9760620" lon="0.6718040">
        <ele>672.8</ele>
        <time>2020-07-24T10:16:14Z</time>
      </trkpt>
      <trkpt lat="42.9758600" lon="0.6716590">
        <ele>671.8</ele>
        <time>2020-07-24T10:16:16Z</time>
      </trkpt>
      <trkpt lat="42.9756930" lon="0.6715280">
        <ele>670.6</ele>
        <time>2020-07-24T10:16:18Z</time>
      </trkpt>
      <trkpt lat="42.9755270" lon="0.6713890">
        <ele>669.0</ele>
        <time>2020-07-24T10:16:20Z</time>
      </trkpt>
      <trkpt lat="42.9753470" lon="0.6712700">
        <ele>667.8</ele>
        <time>2020-07-24T10:16:22Z</time>
      </trkpt>
      <trkpt lat="42.9752400" lon="0.6712140">
        <ele>667.4</ele>
        <time>2020-07-24T10:16:23Z</time>
      </trkpt>
      <trkpt lat="42.9751380" lon="0.6711750">
        <ele>667.0</ele>
        <time>2020-07-24T10:16:24Z</time>
      </trkpt>
      <trkpt lat="42.9750350" lon="0.6711320">
        <ele>666.4</ele>
        <time>2020-07-24T10:16:25Z</time>
      </trkpt>
      <trkpt lat="42.9748340" lon="0.6710300">
        <ele>665.0</ele>
        <time>2020-07-24T10:16:27Z</time>
      </trkpt>
      <trkpt lat="42.9747340" lon="0.6709720">
        <ele>664.4</ele>
        <time>2020-07-24T10:16:28Z</time>
      </trkpt>
      <trkpt lat="42.9746280" lon="0.6709070">
        <ele>663.6</ele>
        <time>2020-07-24T10:16:29Z</time>
      </trkpt>
      <trkpt lat="42.9744150" lon="0.6707950">
        <ele>662.0</ele>
        <time>2020-07-24T10:16:31Z</time>
      </trkpt>
      <trkpt lat="42.9741760" lon="0.6706990">
        <ele>660.8</ele>
        <time>2020-07-24T10:16:33Z</time>
      </trkpt>
      <trkpt lat="42.9740410" lon="0.6706610">
        <ele>660.4</ele>
        <time>2020-07-24T10:16:34Z</time>
      </trkpt>
      <trkpt lat="42.9739180" lon="0.6706440">
        <ele>660.0</ele>
        <time>2020-07-24T10:16:35Z</time>
      </trkpt>
      <trkpt lat="42.9737970" lon="0.6706390">
        <ele>659.6</ele>
        <time>2020-07-24T10:16:36Z</time>
      </trkpt>
      <trkpt lat="42.9736730" lon="0.6706440">
        <ele>659.0</ele>
        <time>2020-07-24T10:16:37Z</time>
      </trkpt>
      <trkpt lat="42.9735570" lon="0.6706440">
        <ele>658.2</ele>
        <time>2020-07-24T10:16:38Z</time>
      </trkpt>
      <trkpt lat="42.9733150" lon="0.6706090">
        <ele>656.6</ele>
        <time>2020-07-24T10:16:40Z</time>
      </trkpt>
      <trkpt lat="42.9732060" lon="0.6705800">
        <ele>655.8</ele>
        <time>2020-07-24T10:16:41Z</time>
      </trkpt>
      <trkpt lat="42.9730920" lon="0.6705330">
        <ele>655.2</ele>
        <time>2020-07-24T10:16:42Z</time>
      </trkpt>
      <trkpt lat="42.9728630" lon="0.6704560">
        <ele>654.0</ele>
        <time>2020-07-24T10:16:44Z</time>
      </trkpt>
      <trkpt lat="42.9726570" lon="0.6703990">
        <ele>653.0</ele>
        <time>2020-07-24T10:16:46Z</time>
      </trkpt>
      <trkpt lat="42.9725610" lon="0.6703480">
        <ele>652.6</ele>
        <time>2020-07-24T10:16:47Z</time>
      </trkpt>
      <trkpt lat="42.9724280" lon="0.6701610">
        <ele>651.8</ele>
        <time>2020-07-24T10:16:49Z</time>
      </trkpt>
      <trkpt lat="42.9724310" lon="0.6700350">
        <ele>651.4</ele>
        <time>2020-07-24T10:16:50Z</time>
      </trkpt>
      <trkpt lat="42.9724130" lon="0.6699180">
        <ele>651.2</ele>
        <time>2020-07-24T10:16:51Z</time>
      </trkpt>
      <trkpt lat="42.9723460" lon="0.6696980">
        <ele>650.2</ele>
        <time>2020-07-24T10:16:53Z</time>
      </trkpt>
      <trkpt lat="42.9722300" lon="0.6694990">
        <ele>648.6</ele>
        <time>2020-07-24T10:16:55Z</time>
      </trkpt>
      <trkpt lat="42.9720170" lon="0.6692710">
        <ele>647.4</ele>
        <time>2020-07-24T10:16:58Z</time>
      </trkpt>
      <trkpt lat="42.9719400" lon="0.6691990">
        <ele>647.0</ele>
        <time>2020-07-24T10:16:59Z</time>
      </trkpt>
      <trkpt lat="42.9718090" lon="0.6690310">
        <ele>646.0</ele>
        <time>2020-07-24T10:17:01Z</time>
      </trkpt>
      <trkpt lat="42.9717330" lon="0.6688280">
        <ele>645.4</ele>
        <time>2020-07-24T10:17:03Z</time>
      </trkpt>
      <trkpt lat="42.9717360" lon="0.6687060">
        <ele>645.0</ele>
        <time>2020-07-24T10:17:04Z</time>
      </trkpt>
      <trkpt lat="42.9717490" lon="0.6685860">
        <ele>644.4</ele>
        <time>2020-07-24T10:17:05Z</time>
      </trkpt>
      <trkpt lat="42.9717430" lon="0.6684590">
        <ele>644.2</ele>
        <time>2020-07-24T10:17:06Z</time>
      </trkpt>
      <trkpt lat="42.9717360" lon="0.6683350">
        <ele>643.8</ele>
        <time>2020-07-24T10:17:07Z</time>
      </trkpt>
      <trkpt lat="42.9717220" lon="0.6682140">
        <ele>643.4</ele>
        <time>2020-07-24T10:17:08Z</time>
      </trkpt>
      <trkpt lat="42.9716780" lon="0.6679880">
        <ele>642.2</ele>
        <time>2020-07-24T10:17:10Z</time>
      </trkpt>
      <trkpt lat="42.9716440" lon="0.6678800">
        <ele>641.8</ele>
        <time>2020-07-24T10:17:11Z</time>
      </trkpt>
      <trkpt lat="42.9715970" lon="0.6677750">
        <ele>641.0</ele>
        <time>2020-07-24T10:17:12Z</time>
      </trkpt>
      <trkpt lat="42.9715410" lon="0.6676780">
        <ele>640.2</ele>
        <time>2020-07-24T10:17:13Z</time>
      </trkpt>
      <trkpt lat="42.9714730" lon="0.6675910">
        <ele>639.8</ele>
        <time>2020-07-24T10:17:14Z</time>
      </trkpt>
      <trkpt lat="42.9713900" lon="0.6675100">
        <ele>639.4</ele>
        <time>2020-07-24T10:17:15Z</time>
      </trkpt>
      <trkpt lat="42.9713010" lon="0.6674320">
        <ele>639.0</ele>
        <time>2020-07-24T10:17:16Z</time>
      </trkpt>
      <trkpt lat="42.9712100" lon="0.6673510">
        <ele>638.2</ele>
        <time>2020-07-24T10:17:17Z</time>
      </trkpt>
      <trkpt lat="42.9710380" lon="0.6671700">
        <ele>636.8</ele>
        <time>2020-07-24T10:17:19Z</time>
      </trkpt>
      <trkpt lat="42.9708700" lon="0.6669830">
        <ele>635.8</ele>
        <time>2020-07-24T10:17:21Z</time>
      </trkpt>
      <trkpt lat="42.9707040" lon="0.6668080">
        <ele>634.4</ele>
        <time>2020-07-24T10:17:23Z</time>
      </trkpt>
      <trkpt lat="42.9705740" lon="0.6666470">
        <ele>633.4</ele>
        <time>2020-07-24T10:17:25Z</time>
      </trkpt>
      <trkpt lat="42.9705280" lon="0.6664580">
        <ele>632.8</ele>
        <time>2020-07-24T10:17:27Z</time>
      </trkpt>
      <trkpt lat="42.9705430" lon="0.6663550">
        <ele>632.6</ele>
        <time>2020-07-24T10:17:28Z</time>
      </trkpt>
      <trkpt lat="42.9705830" lon="0.6662620">
        <ele>632.4</ele>
        <time>2020-07-24T10:17:29Z</time>
      </trkpt>
      <trkpt lat="42.9706490" lon="0.6661930">
        <ele>632.2</ele>
        <time>2020-07-24T10:17:30Z</time>
      </trkpt>
      <trkpt lat="42.9707280" lon="0.6661530">
        <ele>631.8</ele>
        <time>2020-07-24T10:17:31Z</time>
      </trkpt>
      <trkpt lat="42.9708150" lon="0.6661560">
        <ele>631.4</ele>
        <time>2020-07-24T10:17:32Z</time>
      </trkpt>
      <trkpt lat="42.9709020" lon="0.6661970">
        <ele>630.6</ele>
        <time>2020-07-24T10:17:33Z</time>
      </trkpt>
      <trkpt lat="42.9709800" lon="0.6662690">
        <ele>630.0</ele>
        <time>2020-07-24T10:17:34Z</time>
      </trkpt>
      <trkpt lat="42.9711130" lon="0.6664360">
        <ele>629.2</ele>
        <time>2020-07-24T10:17:36Z</time>
      </trkpt>
      <trkpt lat="42.9712250" lon="0.6665980">
        <ele>628.6</ele>
        <time>2020-07-24T10:17:38Z</time>
      </trkpt>
      <trkpt lat="42.9712790" lon="0.6666750">
        <ele>628.2</ele>
        <time>2020-07-24T10:17:39Z</time>
      </trkpt>
      <trkpt lat="42.9714810" lon="0.6669990">
        <ele>626.8</ele>
        <time>2020-07-24T10:17:43Z</time>
      </trkpt>
      <trkpt lat="42.9715860" lon="0.6671750">
        <ele>625.8</ele>
        <time>2020-07-24T10:17:45Z</time>
      </trkpt>
      <trkpt lat="42.9716430" lon="0.6672620">
        <ele>625.4</ele>
        <time>2020-07-24T10:17:46Z</time>
      </trkpt>
      <trkpt lat="42.9718310" lon="0.6675190">
        <ele>624.4</ele>
        <time>2020-07-24T10:17:49Z</time>
      </trkpt>
      <trkpt lat="42.9718950" lon="0.6676150">
        <ele>624.0</ele>
        <time>2020-07-24T10:17:50Z</time>
      </trkpt>
      <trkpt lat="42.9719520" lon="0.6677220">
        <ele>623.4</ele>
        <time>2020-07-24T10:17:51Z</time>
      </trkpt>
      <trkpt lat="42.9720000" lon="0.6678370">
        <ele>623.0</ele>
        <time>2020-07-24T10:17:52Z</time>
      </trkpt>
      <trkpt lat="42.9720990" lon="0.6680800">
        <ele>622.0</ele>
        <time>2020-07-24T10:17:54Z</time>
      </trkpt>
      <trkpt lat="42.9721600" lon="0.6681890">
        <ele>621.6</ele>
        <time>2020-07-24T10:17:55Z</time>
      </trkpt>
      <trkpt lat="42.9723360" lon="0.6683330">
        <ele>620.6</ele>
        <time>2020-07-24T10:17:57Z</time>
      </trkpt>
      <trkpt lat="42.9725220" lon="0.6683600">
        <ele>619.2</ele>
        <time>2020-07-24T10:17:59Z</time>
      </trkpt>
      <trkpt lat="42.9727190" lon="0.6682620">
        <ele>618.2</ele>
        <time>2020-07-24T10:18:01Z</time>
      </trkpt>
      <trkpt lat="42.9728190" lon="0.6681850">
        <ele>617.6</ele>
        <time>2020-07-24T10:18:02Z</time>
      </trkpt>
      <trkpt lat="42.9730620" lon="0.6679860">
        <ele>616.2</ele>
        <time>2020-07-24T10:18:05Z</time>
      </trkpt>
      <trkpt lat="42.9732090" lon="0.6678670">
        <ele>615.8</ele>
        <time>2020-07-24T10:18:07Z</time>
      </trkpt>
      <trkpt lat="42.9733290" lon="0.6677600">
        <ele>615.2</ele>
        <time>2020-07-24T10:18:09Z</time>
      </trkpt>
      <trkpt lat="42.9734970" lon="0.6676100">
        <ele>614.4</ele>
        <time>2020-07-24T10:18:12Z</time>
      </trkpt>
      <trkpt lat="42.9735580" lon="0.6675600">
        <ele>613.8</ele>
        <time>2020-07-24T10:18:13Z</time>
      </trkpt>
      <trkpt lat="42.9736820" lon="0.6674530">
        <ele>612.8</ele>
        <time>2020-07-24T10:18:15Z</time>
      </trkpt>
      <trkpt lat="42.9738770" lon="0.6672800">
        <ele>611.2</ele>
        <time>2020-07-24T10:18:18Z</time>
      </trkpt>
      <trkpt lat="42.9740890" lon="0.6671040">
        <ele>610.0</ele>
        <time>2020-07-24T10:18:21Z</time>
      </trkpt>
      <trkpt lat="42.9744460" lon="0.6668250">
        <ele>609.2</ele>
        <time>2020-07-24T10:18:26Z</time>
      </trkpt>
      <trkpt lat="42.9745830" lon="0.6667050">
        <ele>609.0</ele>
        <time>2020-07-24T10:18:28Z</time>
      </trkpt>
      <trkpt lat="42.9749830" lon="0.6663430">
        <ele>609.0</ele>
        <time>2020-07-24T10:18:34Z</time>
      </trkpt>
      <trkpt lat="42.9750470" lon="0.6662840">
        <ele>609.0</ele>
        <time>2020-07-24T10:18:35Z</time>
      </trkpt>
      <trkpt lat="42.9754350" lon="0.6659670">
        <ele>609.2</ele>
        <time>2020-07-24T10:18:41Z</time>
      </trkpt>
      <trkpt lat="42.9755600" lon="0.6658640">
        <ele>609.4</ele>
        <time>2020-07-24T10:18:43Z</time>
      </trkpt>
      <trkpt lat="42.9759010" lon="0.6655950">
        <ele>609.6</ele>
        <time>2020-07-24T10:18:49Z</time>
      </trkpt>
      <trkpt lat="42.9759550" lon="0.6655550">
        <ele>609.6</ele>
        <time>2020-07-24T10:18:50Z</time>
      </trkpt>
      <trkpt lat="42.9762480" lon="0.6652530">
        <ele>609.4</ele>
        <time>2020-07-24T10:18:56Z</time>
      </trkpt>
      <trkpt lat="42.9762880" lon="0.6651860">
        <ele>609.4</ele>
        <time>2020-07-24T10:18:57Z</time>
      </trkpt>
      <trkpt lat="42.9764330" lon="0.6648940">
        <ele>609.6</ele>
        <time>2020-07-24T10:19:01Z</time>
      </trkpt>
      <trkpt lat="42.9765760" lon="0.6645480">
        <ele>608.0</ele>
        <time>2020-07-24T10:19:05Z</time>
      </trkpt>
      <trkpt lat="42.9766570" lon="0.6643540">
        <ele>607.2</ele>
        <time>2020-07-24T10:19:07Z</time>
      </trkpt>
      <trkpt lat="42.9766990" lon="0.6642530">
        <ele>607.0</ele>
        <time>2020-07-24T10:19:08Z</time>
      </trkpt>
      <trkpt lat="42.9768300" lon="0.6639400">
        <ele>605.8</ele>
        <time>2020-07-24T10:19:11Z</time>
      </trkpt>
      <trkpt lat="42.9769230" lon="0.6637200">
        <ele>604.4</ele>
        <time>2020-07-24T10:19:13Z</time>
      </trkpt>
      <trkpt lat="42.9769730" lon="0.6636080">
        <ele>603.6</ele>
        <time>2020-07-24T10:19:14Z</time>
      </trkpt>
      <trkpt lat="42.9770220" lon="0.6634960">
        <ele>603.0</ele>
        <time>2020-07-24T10:19:15Z</time>
      </trkpt>
      <trkpt lat="42.9771590" lon="0.6631390">
        <ele>602.0</ele>
        <time>2020-07-24T10:19:18Z</time>
      </trkpt>
      <trkpt lat="42.9772470" lon="0.6628890">
        <ele>601.2</ele>
        <time>2020-07-24T10:19:20Z</time>
      </trkpt>
      <trkpt lat="42.9772890" lon="0.6627600">
        <ele>600.6</ele>
        <time>2020-07-24T10:19:21Z</time>
      </trkpt>
      <trkpt lat="42.9773760" lon="0.6625020">
        <ele>599.4</ele>
        <time>2020-07-24T10:19:23Z</time>
      </trkpt>
      <trkpt lat="42.9774560" lon="0.6622550">
        <ele>598.4</ele>
        <time>2020-07-24T10:19:25Z</time>
      </trkpt>
      <trkpt lat="42.9775280" lon="0.6620260">
        <ele>596.8</ele>
        <time>2020-07-24T10:19:27Z</time>
      </trkpt>
      <trkpt lat="42.9775940" lon="0.6618200">
        <ele>595.8</ele>
        <time>2020-07-24T10:19:29Z</time>
      </trkpt>
      <trkpt lat="42.9776610" lon="0.6615470">
        <ele>594.4</ele>
        <time>2020-07-24T10:19:32Z</time>
      </trkpt>
      <trkpt lat="42.9776950" lon="0.6612640">
        <ele>593.6</ele>
        <time>2020-07-24T10:19:36Z</time>
      </trkpt>
      <trkpt lat="42.9776940" lon="0.6612010">
        <ele>593.4</ele>
        <time>2020-07-24T10:19:37Z</time>
      </trkpt>
      <trkpt lat="42.9776870" lon="0.6611370">
        <ele>593.2</ele>
        <time>2020-07-24T10:19:38Z</time>
      </trkpt>
      <trkpt lat="42.9776380" lon="0.6610030">
        <ele>592.8</ele>
        <time>2020-07-24T10:19:40Z</time>
      </trkpt>
      <trkpt lat="42.9776040" lon="0.6609400">
        <ele>592.8</ele>
        <time>2020-07-24T10:19:41Z</time>
      </trkpt>
      <trkpt lat="42.9775330" lon="0.6608290">
        <ele>592.8</ele>
        <time>2020-07-24T10:19:43Z</time>
      </trkpt>
      <trkpt lat="42.9774520" lon="0.6607390">
        <ele>592.4</ele>
        <time>2020-07-24T10:19:45Z</time>
      </trkpt>
      <trkpt lat="42.9774050" lon="0.6607040">
        <ele>592.2</ele>
        <time>2020-07-24T10:19:46Z</time>
      </trkpt>
      <trkpt lat="42.9772960" lon="0.6606420">
        <ele>591.2</ele>
        <time>2020-07-24T10:19:48Z</time>
      </trkpt>
      <trkpt lat="42.9772370" lon="0.6606210">
        <ele>591.0</ele>
        <time>2020-07-24T10:19:49Z</time>
      </trkpt>
      <trkpt lat="42.9771740" lon="0.6606120">
        <ele>590.6</ele>
        <time>2020-07-24T10:19:50Z</time>
      </trkpt>
      <trkpt lat="42.9771070" lon="0.6606130">
        <ele>590.4</ele>
        <time>2020-07-24T10:19:51Z</time>
      </trkpt>
      <trkpt lat="42.9769760" lon="0.6606340">
        <ele>590.0</ele>
        <time>2020-07-24T10:19:53Z</time>
      </trkpt>
      <trkpt lat="42.9768410" lon="0.6606640">
        <ele>589.4</ele>
        <time>2020-07-24T10:19:55Z</time>
      </trkpt>
      <trkpt lat="42.9766420" lon="0.6607500">
        <ele>588.8</ele>
        <time>2020-07-24T10:19:58Z</time>
      </trkpt>
      <trkpt lat="42.9765750" lon="0.6608000">
        <ele>588.2</ele>
        <time>2020-07-24T10:19:59Z</time>
      </trkpt>
      <trkpt lat="42.9765140" lon="0.6608650">
        <ele>587.8</ele>
        <time>2020-07-24T10:20:00Z</time>
      </trkpt>
      <trkpt lat="42.9764550" lon="0.6609400">
        <ele>587.2</ele>
        <time>2020-07-24T10:20:01Z</time>
      </trkpt>
      <trkpt lat="42.9763470" lon="0.6611070">
        <ele>585.8</ele>
        <time>2020-07-24T10:20:03Z</time>
      </trkpt>
      <trkpt lat="42.9762880" lon="0.6611850">
        <ele>585.2</ele>
        <time>2020-07-24T10:20:04Z</time>
      </trkpt>
      <trkpt lat="42.9761390" lon="0.6612780">
        <ele>584.6</ele>
        <time>2020-07-24T10:20:06Z</time>
      </trkpt>
      <trkpt lat="42.9759670" lon="0.6613050">
        <ele>584.2</ele>
        <time>2020-07-24T10:20:08Z</time>
      </trkpt>
      <trkpt lat="42.9758780" lon="0.6612980">
        <ele>584.0</ele>
        <time>2020-07-24T10:20:09Z</time>
      </trkpt>
      <trkpt lat="42.9756960" lon="0.6612710">
        <ele>583.6</ele>
        <time>2020-07-24T10:20:11Z</time>
      </trkpt>
      <trkpt lat="42.9755040" lon="0.6612520">
        <ele>582.4</ele>
        <time>2020-07-24T10:20:13Z</time>
      </trkpt>
      <trkpt lat="42.9753030" lon="0.6612430">
        <ele>581.2</ele>
        <time>2020-07-24T10:20:15Z</time>
      </trkpt>
      <trkpt lat="42.9751080" lon="0.6612710">
        <ele>580.0</ele>
        <time>2020-07-24T10:20:17Z</time>
      </trkpt>
      <trkpt lat="42.9749110" lon="0.6613310">
        <ele>579.0</ele>
        <time>2020-07-24T10:20:19Z</time>
      </trkpt>
      <trkpt lat="42.9747090" lon="0.6613530">
        <ele>578.2</ele>
        <time>2020-07-24T10:20:21Z</time>
      </trkpt>
      <trkpt lat="42.9746120" lon="0.6613420">
        <ele>577.8</ele>
        <time>2020-07-24T10:20:22Z</time>
      </trkpt>
      <trkpt lat="42.9745190" lon="0.6612970">
        <ele>577.6</ele>
        <time>2020-07-24T10:20:23Z</time>
      </trkpt>
      <trkpt lat="42.9744150" lon="0.6611460">
        <ele>577.0</ele>
        <time>2020-07-24T10:20:25Z</time>
      </trkpt>
      <trkpt lat="42.9744150" lon="0.6610420">
        <ele>576.6</ele>
        <time>2020-07-24T10:20:26Z</time>
      </trkpt>
      <trkpt lat="42.9744370" lon="0.6609350">
        <ele>576.2</ele>
        <time>2020-07-24T10:20:27Z</time>
      </trkpt>
      <trkpt lat="42.9745400" lon="0.6607500">
        <ele>575.6</ele>
        <time>2020-07-24T10:20:29Z</time>
      </trkpt>
      <trkpt lat="42.9746870" lon="0.6606450">
        <ele>574.8</ele>
        <time>2020-07-24T10:20:31Z</time>
      </trkpt>
      <trkpt lat="42.9747670" lon="0.6606100">
        <ele>574.6</ele>
        <time>2020-07-24T10:20:32Z</time>
      </trkpt>
      <trkpt lat="42.9749290" lon="0.6605550">
        <ele>574.0</ele>
        <time>2020-07-24T10:20:34Z</time>
      </trkpt>
      <trkpt lat="42.9750930" lon="0.6605060">
        <ele>573.4</ele>
        <time>2020-07-24T10:20:36Z</time>
      </trkpt>
      <trkpt lat="42.9751770" lon="0.6604830">
        <ele>572.8</ele>
        <time>2020-07-24T10:20:37Z</time>
      </trkpt>
      <trkpt lat="42.9752620" lon="0.6604620">
        <ele>572.0</ele>
        <time>2020-07-24T10:20:38Z</time>
      </trkpt>
      <trkpt lat="42.9755100" lon="0.6603900">
        <ele>570.8</ele>
        <time>2020-07-24T10:20:41Z</time>
      </trkpt>
      <trkpt lat="42.9757740" lon="0.6602720">
        <ele>569.4</ele>
        <time>2020-07-24T10:20:44Z</time>
      </trkpt>
      <trkpt lat="42.9758990" lon="0.6601170">
        <ele>568.2</ele>
        <time>2020-07-24T10:20:46Z</time>
      </trkpt>
      <trkpt lat="42.9758880" lon="0.6599630">
        <ele>567.8</ele>
        <time>2020-07-24T10:20:47Z</time>
      </trkpt>
      <trkpt lat="42.9758760" lon="0.6598270">
        <ele>567.4</ele>
        <time>2020-07-24T10:20:48Z</time>
      </trkpt>
      <trkpt lat="42.9758690" lon="0.6596960">
        <ele>567.0</ele>
        <time>2020-07-24T10:20:49Z</time>
      </trkpt>
      <trkpt lat="42.9758780" lon="0.6595630">
        <ele>566.4</ele>
        <time>2020-07-24T10:20:50Z</time>
      </trkpt>
      <trkpt lat="42.9759590" lon="0.6593110">
        <ele>565.4</ele>
        <time>2020-07-24T10:20:52Z</time>
      </trkpt>
      <trkpt lat="42.9760210" lon="0.6592010">
        <ele>564.8</ele>
        <time>2020-07-24T10:20:53Z</time>
      </trkpt>
      <trkpt lat="42.9760810" lon="0.6590990">
        <ele>564.4</ele>
        <time>2020-07-24T10:20:54Z</time>
      </trkpt>
      <trkpt lat="42.9761280" lon="0.6590050">
        <ele>564.0</ele>
        <time>2020-07-24T10:20:55Z</time>
      </trkpt>
      <trkpt lat="42.9761560" lon="0.6589100">
        <ele>563.8</ele>
        <time>2020-07-24T10:20:56Z</time>
      </trkpt>
      <trkpt lat="42.9761630" lon="0.6588170">
        <ele>563.4</ele>
        <time>2020-07-24T10:20:57Z</time>
      </trkpt>
      <trkpt lat="42.9761460" lon="0.6587210">
        <ele>563.2</ele>
        <time>2020-07-24T10:20:58Z</time>
      </trkpt>
      <trkpt lat="42.9761100" lon="0.6586290">
        <ele>562.8</ele>
        <time>2020-07-24T10:20:59Z</time>
      </trkpt>
      <trkpt lat="42.9760050" lon="0.6584960">
        <ele>562.6</ele>
        <time>2020-07-24T10:21:01Z</time>
      </trkpt>
      <trkpt lat="42.9759440" lon="0.6584610">
        <ele>562.4</ele>
        <time>2020-07-24T10:21:02Z</time>
      </trkpt>
      <trkpt lat="42.9758780" lon="0.6584480">
        <ele>562.2</ele>
        <time>2020-07-24T10:21:03Z</time>
      </trkpt>
      <trkpt lat="42.9757540" lon="0.6584920">
        <ele>561.8</ele>
        <time>2020-07-24T10:21:05Z</time>
      </trkpt>
      <trkpt lat="42.9754320" lon="0.6587590">
        <ele>561.0</ele>
        <time>2020-07-24T10:21:10Z</time>
      </trkpt>
      <trkpt lat="42.9753670" lon="0.6588120">
        <ele>560.8</ele>
        <time>2020-07-24T10:21:11Z</time>
      </trkpt>
      <trkpt lat="42.9750910" lon="0.6590590">
        <ele>559.6</ele>
        <time>2020-07-24T10:21:15Z</time>
      </trkpt>
      <trkpt lat="42.9750210" lon="0.6591250">
        <ele>559.4</ele>
        <time>2020-07-24T10:21:16Z</time>
      </trkpt>
      <trkpt lat="42.9748700" lon="0.6592600">
        <ele>558.0</ele>
        <time>2020-07-24T10:21:18Z</time>
      </trkpt>
      <trkpt lat="42.9747880" lon="0.6593190">
        <ele>556.6</ele>
        <time>2020-07-24T10:21:19Z</time>
      </trkpt>
      <trkpt lat="42.9747020" lon="0.6593690">
        <ele>555.8</ele>
        <time>2020-07-24T10:21:20Z</time>
      </trkpt>
      <trkpt lat="42.9746140" lon="0.6594100">
        <ele>555.2</ele>
        <time>2020-07-24T10:21:21Z</time>
      </trkpt>
      <trkpt lat="42.9742360" lon="0.6594990">
        <ele>553.8</ele>
        <time>2020-07-24T10:21:25Z</time>
      </trkpt>
      <trkpt lat="42.9739340" lon="0.6595150">
        <ele>552.2</ele>
        <time>2020-07-24T10:21:28Z</time>
      </trkpt>
      <trkpt lat="42.9737280" lon="0.6595340">
        <ele>550.8</ele>
        <time>2020-07-24T10:21:30Z</time>
      </trkpt>
      <trkpt lat="42.9734110" lon="0.6595490">
        <ele>549.2</ele>
        <time>2020-07-24T10:21:33Z</time>
      </trkpt>
      <trkpt lat="42.9732320" lon="0.6595730">
        <ele>548.0</ele>
        <time>2020-07-24T10:21:35Z</time>
      </trkpt>
      <trkpt lat="42.9731530" lon="0.6595980">
        <ele>547.6</ele>
        <time>2020-07-24T10:21:36Z</time>
      </trkpt>
      <trkpt lat="42.9730240" lon="0.6596870">
        <ele>547.0</ele>
        <time>2020-07-24T10:21:38Z</time>
      </trkpt>
      <trkpt lat="42.9729760" lon="0.6597550">
        <ele>546.6</ele>
        <time>2020-07-24T10:21:39Z</time>
      </trkpt>
      <trkpt lat="42.9729450" lon="0.6598420">
        <ele>546.4</ele>
        <time>2020-07-24T10:21:40Z</time>
      </trkpt>
      <trkpt lat="42.9729290" lon="0.6599380">
        <ele>546.4</ele>
        <time>2020-07-24T10:21:41Z</time>
      </trkpt>
      <trkpt lat="42.9729240" lon="0.6600470">
        <ele>546.0</ele>
        <time>2020-07-24T10:21:42Z</time>
      </trkpt>
      <trkpt lat="42.9729200" lon="0.6602790">
        <ele>545.0</ele>
        <time>2020-07-24T10:21:44Z</time>
      </trkpt>
      <trkpt lat="42.9729060" lon="0.6603980">
        <ele>544.4</ele>
        <time>2020-07-24T10:21:45Z</time>
      </trkpt>
      <trkpt lat="42.9728730" lon="0.6605080">
        <ele>544.0</ele>
        <time>2020-07-24T10:21:46Z</time>
      </trkpt>
      <trkpt lat="42.9728210" lon="0.6606080">
        <ele>543.8</ele>
        <time>2020-07-24T10:21:47Z</time>
      </trkpt>
      <trkpt lat="42.9727580" lon="0.6606930">
        <ele>543.4</ele>
        <time>2020-07-24T10:21:48Z</time>
      </trkpt>
      <trkpt lat="42.9726860" lon="0.6607690">
        <ele>543.0</ele>
        <time>2020-07-24T10:21:49Z</time>
      </trkpt>
      <trkpt lat="42.9725130" lon="0.6608600">
        <ele>542.0</ele>
        <time>2020-07-24T10:21:51Z</time>
      </trkpt>
      <trkpt lat="42.9724190" lon="0.6608850">
        <ele>541.6</ele>
        <time>2020-07-24T10:21:52Z</time>
      </trkpt>
      <trkpt lat="42.9722240" lon="0.6609000">
        <ele>540.4</ele>
        <time>2020-07-24T10:21:54Z</time>
      </trkpt>
      <trkpt lat="42.9721270" lon="0.6609010">
        <ele>539.6</ele>
        <time>2020-07-24T10:21:55Z</time>
      </trkpt>
      <trkpt lat="42.9720320" lon="0.6609040">
        <ele>538.8</ele>
        <time>2020-07-24T10:21:56Z</time>
      </trkpt>
      <trkpt lat="42.9718510" lon="0.6609240">
        <ele>537.8</ele>
        <time>2020-07-24T10:21:58Z</time>
      </trkpt>
      <trkpt lat="42.9717610" lon="0.6609510">
        <ele>537.4</ele>
        <time>2020-07-24T10:21:59Z</time>
      </trkpt>
      <trkpt lat="42.9716690" lon="0.6609800">
        <ele>537.0</ele>
        <time>2020-07-24T10:22:00Z</time>
      </trkpt>
      <trkpt lat="42.9715780" lon="0.6610200">
        <ele>536.8</ele>
        <time>2020-07-24T10:22:01Z</time>
      </trkpt>
      <trkpt lat="42.9714870" lon="0.6610630">
        <ele>536.6</ele>
        <time>2020-07-24T10:22:02Z</time>
      </trkpt>
      <trkpt lat="42.9712950" lon="0.6611450">
        <ele>535.4</ele>
        <time>2020-07-24T10:22:04Z</time>
      </trkpt>
      <trkpt lat="42.9711940" lon="0.6611730">
        <ele>534.6</ele>
        <time>2020-07-24T10:22:05Z</time>
      </trkpt>
      <trkpt lat="42.9710950" lon="0.6611940">
        <ele>534.0</ele>
        <time>2020-07-24T10:22:06Z</time>
      </trkpt>
      <trkpt lat="42.9709930" lon="0.6611980">
        <ele>533.6</ele>
        <time>2020-07-24T10:22:07Z</time>
      </trkpt>
      <trkpt lat="42.9707870" lon="0.6611590">
        <ele>532.8</ele>
        <time>2020-07-24T10:22:09Z</time>
      </trkpt>
      <trkpt lat="42.9705850" lon="0.6611040">
        <ele>531.4</ele>
        <time>2020-07-24T10:22:11Z</time>
      </trkpt>
      <trkpt lat="42.9703810" lon="0.6610470">
        <ele>530.4</ele>
        <time>2020-07-24T10:22:13Z</time>
      </trkpt>
      <trkpt lat="42.9700700" lon="0.6609850">
        <ele>528.8</ele>
        <time>2020-07-24T10:22:16Z</time>
      </trkpt>
      <trkpt lat="42.9697440" lon="0.6609680">
        <ele>527.2</ele>
        <time>2020-07-24T10:22:19Z</time>
      </trkpt>
      <trkpt lat="42.9695260" lon="0.6609840">
        <ele>525.8</ele>
        <time>2020-07-24T10:22:21Z</time>
      </trkpt>
      <trkpt lat="42.9693250" lon="0.6610250">
        <ele>524.4</ele>
        <time>2020-07-24T10:22:23Z</time>
      </trkpt>
      <trkpt lat="42.9690440" lon="0.6610600">
        <ele>523.2</ele>
        <time>2020-07-24T10:22:26Z</time>
      </trkpt>
      <trkpt lat="42.9687280" lon="0.6610010">
        <ele>522.0</ele>
        <time>2020-07-24T10:22:30Z</time>
      </trkpt>
      <trkpt lat="42.9684670" lon="0.6608420">
        <ele>521.0</ele>
        <time>2020-07-24T10:22:33Z</time>
      </trkpt>
      <trkpt lat="42.9683730" lon="0.6608100">
        <ele>520.4</ele>
        <time>2020-07-24T10:22:34Z</time>
      </trkpt>
      <trkpt lat="42.9682780" lon="0.6607970">
        <ele>519.8</ele>
        <time>2020-07-24T10:22:35Z</time>
      </trkpt>
      <trkpt lat="42.9680880" lon="0.6608050">
        <ele>518.6</ele>
        <time>2020-07-24T10:22:37Z</time>
      </trkpt>
      <trkpt lat="42.9679900" lon="0.6608150">
        <ele>518.2</ele>
        <time>2020-07-24T10:22:38Z</time>
      </trkpt>
      <trkpt lat="42.9677970" lon="0.6608390">
        <ele>517.4</ele>
        <time>2020-07-24T10:22:40Z</time>
      </trkpt>
      <trkpt lat="42.9675190" lon="0.6608560">
        <ele>516.2</ele>
        <time>2020-07-24T10:22:43Z</time>
      </trkpt>
      <trkpt lat="42.9674240" lon="0.6608490">
        <ele>515.6</ele>
        <time>2020-07-24T10:22:44Z</time>
      </trkpt>
      <trkpt lat="42.9673260" lon="0.6608370">
        <ele>515.0</ele>
        <time>2020-07-24T10:22:45Z</time>
      </trkpt>
      <trkpt lat="42.9672290" lon="0.6608280">
        <ele>514.6</ele>
        <time>2020-07-24T10:22:46Z</time>
      </trkpt>
      <trkpt lat="42.9670280" lon="0.6608150">
        <ele>513.8</ele>
        <time>2020-07-24T10:22:48Z</time>
      </trkpt>
      <trkpt lat="42.9668240" lon="0.6608300">
        <ele>512.2</ele>
        <time>2020-07-24T10:22:50Z</time>
      </trkpt>
      <trkpt lat="42.9667200" lon="0.6608440">
        <ele>511.6</ele>
        <time>2020-07-24T10:22:51Z</time>
      </trkpt>
      <trkpt lat="42.9666180" lon="0.6608650">
        <ele>511.0</ele>
        <time>2020-07-24T10:22:52Z</time>
      </trkpt>
      <trkpt lat="42.9664180" lon="0.6609270">
        <ele>509.8</ele>
        <time>2020-07-24T10:22:54Z</time>
      </trkpt>
      <trkpt lat="42.9663200" lon="0.6609520">
        <ele>509.6</ele>
        <time>2020-07-24T10:22:55Z</time>
      </trkpt>
      <trkpt lat="42.9661440" lon="0.6609890">
        <ele>508.8</ele>
        <time>2020-07-24T10:22:57Z</time>
      </trkpt>
      <trkpt lat="42.9659840" lon="0.6609840">
        <ele>508.2</ele>
        <time>2020-07-24T10:22:59Z</time>
      </trkpt>
      <trkpt lat="42.9658450" lon="0.6609560">
        <ele>507.4</ele>
        <time>2020-07-24T10:23:01Z</time>
      </trkpt>
      <trkpt lat="42.9657220" lon="0.6609040">
        <ele>506.4</ele>
        <time>2020-07-24T10:23:03Z</time>
      </trkpt>
      <trkpt lat="42.9656700" lon="0.6608690">
        <ele>506.2</ele>
        <time>2020-07-24T10:23:04Z</time>
      </trkpt>
      <trkpt lat="42.9655210" lon="0.6607710">
        <ele>505.6</ele>
        <time>2020-07-24T10:23:07Z</time>
      </trkpt>
      <trkpt lat="42.9654640" lon="0.6607280">
        <ele>505.4</ele>
        <time>2020-07-24T10:23:08Z</time>
      </trkpt>
      <trkpt lat="42.9654080" lon="0.6606810">
        <ele>505.0</ele>
        <time>2020-07-24T10:23:09Z</time>
      </trkpt>
      <trkpt lat="42.9653120" lon="0.6606090">
        <ele>504.2</ele>
        <time>2020-07-24T10:23:11Z</time>
      </trkpt>
      <trkpt lat="42.9652500" lon="0.6605310">
        <ele>503.8</ele>
        <time>2020-07-24T10:23:13Z</time>
      </trkpt>
      <trkpt lat="42.9652370" lon="0.6604060">
        <ele>503.2</ele>
        <time>2020-07-24T10:23:15Z</time>
      </trkpt>
      <trkpt lat="42.9652650" lon="0.6603440">
        <ele>502.6</ele>
        <time>2020-07-24T10:23:16Z</time>
      </trkpt>
      <trkpt lat="42.9653030" lon="0.6602900">
        <ele>502.2</ele>
        <time>2020-07-24T10:23:17Z</time>
      </trkpt>
      <trkpt lat="42.9654060" lon="0.6602230">
        <ele>501.6</ele>
        <time>2020-07-24T10:23:19Z</time>
      </trkpt>
      <trkpt lat="42.9656150" lon="0.6601700">
        <ele>500.8</ele>
        <time>2020-07-24T10:23:24Z</time>
      </trkpt>
      <trkpt lat="42.9656560" lon="0.6601750">
        <ele>500.8</ele>
        <time>2020-07-24T10:23:25Z</time>
      </trkpt>
      <trkpt lat="42.9658340" lon="0.6602300">
        <ele>501.2</ele>
        <time>2020-07-24T10:23:29Z</time>
      </trkpt>
      <trkpt lat="42.9658750" lon="0.6602460">
        <ele>501.2</ele>
        <time>2020-07-24T10:23:30Z</time>
      </trkpt>
      <trkpt lat="42.9660040" lon="0.6602810">
        <ele>501.0</ele>
        <time>2020-07-24T10:23:33Z</time>
      </trkpt>
      <trkpt lat="42.9661830" lon="0.6603070">
        <ele>500.6</ele>
        <time>2020-07-24T10:23:37Z</time>
      </trkpt>
      <trkpt lat="42.9664690" lon="0.6603210">
        <ele>500.2</ele>
        <time>2020-07-24T10:23:42Z</time>
      </trkpt>
      <trkpt lat="42.9665930" lon="0.6603300">
        <ele>500.4</ele>
        <time>2020-07-24T10:23:44Z</time>
      </trkpt>
      <trkpt lat="42.9668350" lon="0.6603610">
        <ele>500.6</ele>
        <time>2020-07-24T10:23:48Z</time>
      </trkpt>
      <trkpt lat="42.9671060" lon="0.6604220">
        <ele>501.4</ele>
        <time>2020-07-24T10:23:53Z</time>
      </trkpt>
      <trkpt lat="42.9671610" lon="0.6604330">
        <ele>501.4</ele>
        <time>2020-07-24T10:23:54Z</time>
      </trkpt>
      <trkpt lat="42.9672150" lon="0.6604440">
        <ele>501.6</ele>
        <time>2020-07-24T10:23:55Z</time>
      </trkpt>
      <trkpt lat="42.9672700" lon="0.6604520">
        <ele>501.8</ele>
        <time>2020-07-24T10:23:56Z</time>
      </trkpt>
      <trkpt lat="42.9675700" lon="0.6604630">
        <ele>503.0</ele>
        <time>2020-07-24T10:24:02Z</time>
      </trkpt>
      <trkpt lat="42.9678020" lon="0.6604390">
        <ele>503.8</ele>
        <time>2020-07-24T10:24:07Z</time>
      </trkpt>
      <trkpt lat="42.9678930" lon="0.6604040">
        <ele>504.2</ele>
        <time>2020-07-24T10:24:09Z</time>
      </trkpt>
      <trkpt lat="42.9681550" lon="0.6602980">
        <ele>504.8</ele>
        <time>2020-07-24T10:24:15Z</time>
      </trkpt>
      <trkpt lat="42.9681960" lon="0.6602780">
        <ele>504.8</ele>
        <time>2020-07-24T10:24:16Z</time>
      </trkpt>
      <trkpt lat="42.9683300" lon="0.6602350">
        <ele>505.2</ele>
        <time>2020-07-24T10:24:19Z</time>
      </trkpt>
      <trkpt lat="42.9685300" lon="0.6601660">
        <ele>505.4</ele>
        <time>2020-07-24T10:24:23Z</time>
      </trkpt>
      <trkpt lat="42.9688860" lon="0.6600380">
        <ele>504.6</ele>
        <time>2020-07-24T10:24:29Z</time>
      </trkpt>
      <trkpt lat="42.9689460" lon="0.6600200">
        <ele>504.4</ele>
        <time>2020-07-24T10:24:30Z</time>
      </trkpt>
      <trkpt lat="42.9690080" lon="0.6600000">
        <ele>504.2</ele>
        <time>2020-07-24T10:24:31Z</time>
      </trkpt>
      <trkpt lat="42.9693110" lon="0.6599270">
        <ele>503.6</ele>
        <time>2020-07-24T10:24:36Z</time>
      </trkpt>
      <trkpt lat="42.9696430" lon="0.6598040">
        <ele>504.2</ele>
        <time>2020-07-24T10:24:42Z</time>
      </trkpt>
      <trkpt lat="42.9697010" lon="0.6597820">
        <ele>504.4</ele>
        <time>2020-07-24T10:24:43Z</time>
      </trkpt>
      <trkpt lat="42.9700140" lon="0.6596040">
        <ele>505.2</ele>
        <time>2020-07-24T10:24:49Z</time>
      </trkpt>
      <trkpt lat="42.9700610" lon="0.6595680">
        <ele>505.2</ele>
        <time>2020-07-24T10:24:50Z</time>
      </trkpt>
      <trkpt lat="42.9703340" lon="0.6594320">
        <ele>504.4</ele>
        <time>2020-07-24T10:24:55Z</time>
      </trkpt>
      <trkpt lat="42.9703790" lon="0.6594040">
        <ele>504.0</ele>
        <time>2020-07-24T10:24:56Z</time>
      </trkpt>
      <trkpt lat="42.9704310" lon="0.6592900">
        <ele>503.4</ele>
        <time>2020-07-24T10:24:58Z</time>
      </trkpt>
      <trkpt lat="42.9704480" lon="0.6592180">
        <ele>503.2</ele>
        <time>2020-07-24T10:24:59Z</time>
      </trkpt>
      <trkpt lat="42.9704890" lon="0.6590600">
        <ele>502.4</ele>
        <time>2020-07-24T10:25:01Z</time>
      </trkpt>
      <trkpt lat="42.9705660" lon="0.6589280">
        <ele>502.0</ele>
        <time>2020-07-24T10:25:03Z</time>
      </trkpt>
      <trkpt lat="42.9707330" lon="0.6587020">
        <ele>500.8</ele>
        <time>2020-07-24T10:25:07Z</time>
      </trkpt>
      <trkpt lat="42.9707640" lon="0.6586410">
        <ele>500.4</ele>
        <time>2020-07-24T10:25:08Z</time>
      </trkpt>
      <trkpt lat="42.9707960" lon="0.6583890">
        <ele>499.8</ele>
        <time>2020-07-24T10:25:12Z</time>
      </trkpt>
      <trkpt lat="42.9707860" lon="0.6582370">
        <ele>499.6</ele>
        <time>2020-07-24T10:25:14Z</time>
      </trkpt>
      <trkpt lat="42.9707660" lon="0.6580420">
        <ele>498.6</ele>
        <time>2020-07-24T10:25:17Z</time>
      </trkpt>
      <trkpt lat="42.9707370" lon="0.6578590">
        <ele>497.6</ele>
        <time>2020-07-24T10:25:20Z</time>
      </trkpt>
      <trkpt lat="42.9707320" lon="0.6577960">
        <ele>496.8</ele>
        <time>2020-07-24T10:25:21Z</time>
      </trkpt>
      <trkpt lat="42.9707290" lon="0.6577350">
        <ele>496.2</ele>
        <time>2020-07-24T10:25:22Z</time>
      </trkpt>
      <trkpt lat="42.9707260" lon="0.6576690">
        <ele>495.4</ele>
        <time>2020-07-24T10:25:23Z</time>
      </trkpt>
      <trkpt lat="42.9707360" lon="0.6575970">
        <ele>494.8</ele>
        <time>2020-07-24T10:25:24Z</time>
      </trkpt>
      <trkpt lat="42.9707820" lon="0.6574240">
        <ele>493.6</ele>
        <time>2020-07-24T10:25:26Z</time>
      </trkpt>
      <trkpt lat="42.9708740" lon="0.6572350">
        <ele>491.8</ele>
        <time>2020-07-24T10:25:28Z</time>
      </trkpt>
      <trkpt lat="42.9709350" lon="0.6571420">
        <ele>490.8</ele>
        <time>2020-07-24T10:25:29Z</time>
      </trkpt>
      <trkpt lat="42.9710010" lon="0.6570510">
        <ele>489.8</ele>
        <time>2020-07-24T10:25:30Z</time>
      </trkpt>
      <trkpt lat="42.9710690" lon="0.6569560">
        <ele>488.8</ele>
        <time>2020-07-24T10:25:31Z</time>
      </trkpt>
      <trkpt lat="42.9711380" lon="0.6568610">
        <ele>487.8</ele>
        <time>2020-07-24T10:25:32Z</time>
      </trkpt>
      <trkpt lat="42.9712760" lon="0.6566800">
        <ele>486.6</ele>
        <time>2020-07-24T10:25:34Z</time>
      </trkpt>
      <trkpt lat="42.9713390" lon="0.6565920">
        <ele>486.6</ele>
        <time>2020-07-24T10:25:35Z</time>
      </trkpt>
      <trkpt lat="42.9716030" lon="0.6561910">
        <ele>486.8</ele>
        <time>2020-07-24T10:25:40Z</time>
      </trkpt>
      <trkpt lat="42.9717240" lon="0.6559870">
        <ele>487.8</ele>
        <time>2020-07-24T10:25:43Z</time>
      </trkpt>
      <trkpt lat="42.9718060" lon="0.6558660">
        <ele>488.4</ele>
        <time>2020-07-24T10:25:45Z</time>
      </trkpt>
      <trkpt lat="42.9718510" lon="0.6558100">
        <ele>488.6</ele>
        <time>2020-07-24T10:25:46Z</time>
      </trkpt>
      <trkpt lat="42.9721300" lon="0.6554790">
        <ele>488.8</ele>
        <time>2020-07-24T10:25:52Z</time>
      </trkpt>
      <trkpt lat="42.9722720" lon="0.6553140">
        <ele>489.0</ele>
        <time>2020-07-24T10:25:55Z</time>
      </trkpt>
      <trkpt lat="42.9723180" lon="0.6552590">
        <ele>489.0</ele>
        <time>2020-07-24T10:25:56Z</time>
      </trkpt>
      <trkpt lat="42.9724130" lon="0.6551540">
        <ele>489.0</ele>
        <time>2020-07-24T10:25:58Z</time>
      </trkpt>
      <trkpt lat="42.9725150" lon="0.6550640">
        <ele>488.8</ele>
        <time>2020-07-24T10:26:00Z</time>
      </trkpt>
      <trkpt lat="42.9726290" lon="0.6549970">
        <ele>488.4</ele>
        <time>2020-07-24T10:26:02Z</time>
      </trkpt>
      <trkpt lat="42.9727430" lon="0.6549390">
        <ele>488.2</ele>
        <time>2020-07-24T10:26:04Z</time>
      </trkpt>
      <trkpt lat="42.9727860" lon="0.6549090">
        <ele>487.8</ele>
        <time>2020-07-24T10:26:05Z</time>
      </trkpt>
      <trkpt lat="42.9728220" lon="0.6548810">
        <ele>487.6</ele>
        <time>2020-07-24T10:26:06Z</time>
      </trkpt>
      <trkpt lat="42.9728560" lon="0.6548510">
        <ele>487.6</ele>
        <time>2020-07-24T10:26:07Z</time>
      </trkpt>
      <trkpt lat="42.9728850" lon="0.6548140">
        <ele>487.6</ele>
        <time>2020-07-24T10:26:08Z</time>
      </trkpt>
      <trkpt lat="42.9729700" lon="0.6546770">
        <ele>486.8</ele>
        <time>2020-07-24T10:26:11Z</time>
      </trkpt>
      <trkpt lat="42.9729990" lon="0.6546170">
        <ele>486.6</ele>
        <time>2020-07-24T10:26:12Z</time>
      </trkpt>
      <trkpt lat="42.9730280" lon="0.6545470">
        <ele>486.2</ele>
        <time>2020-07-24T10:26:13Z</time>
      </trkpt>
      <trkpt lat="42.9730560" lon="0.6544730">
        <ele>485.6</ele>
        <time>2020-07-24T10:26:14Z</time>
      </trkpt>
      <trkpt lat="42.9730870" lon="0.6543980">
        <ele>485.0</ele>
        <time>2020-07-24T10:26:15Z</time>
      </trkpt>
      <trkpt lat="42.9731190" lon="0.6543210">
        <ele>484.4</ele>
        <time>2020-07-24T10:26:16Z</time>
      </trkpt>
      <trkpt lat="42.9731950" lon="0.6541620">
        <ele>483.8</ele>
        <time>2020-07-24T10:26:18Z</time>
      </trkpt>
      <trkpt lat="42.9733160" lon="0.6539010">
        <ele>482.8</ele>
        <time>2020-07-24T10:26:21Z</time>
      </trkpt>
      <trkpt lat="42.9733590" lon="0.6538120">
        <ele>482.4</ele>
        <time>2020-07-24T10:26:22Z</time>
      </trkpt>
      <trkpt lat="42.9734930" lon="0.6535430">
        <ele>481.4</ele>
        <time>2020-07-24T10:26:25Z</time>
      </trkpt>
      <trkpt lat="42.9736190" lon="0.6532830">
        <ele>480.6</ele>
        <time>2020-07-24T10:26:28Z</time>
      </trkpt>
      <trkpt lat="42.9736580" lon="0.6531990">
        <ele>480.2</ele>
        <time>2020-07-24T10:26:29Z</time>
      </trkpt>
      <trkpt lat="42.9738390" lon="0.6527130">
        <ele>480.4</ele>
        <time>2020-07-24T10:26:35Z</time>
      </trkpt>
      <trkpt lat="42.9739530" lon="0.6522370">
        <ele>481.0</ele>
        <time>2020-07-24T10:26:41Z</time>
      </trkpt>
      <trkpt lat="42.9739700" lon="0.6521640">
        <ele>481.4</ele>
        <time>2020-07-24T10:26:42Z</time>
      </trkpt>
      <trkpt lat="42.9740000" lon="0.6520280">
        <ele>481.8</ele>
        <time>2020-07-24T10:26:44Z</time>
      </trkpt>
      <trkpt lat="42.9740330" lon="0.6519070">
        <ele>482.2</ele>
        <time>2020-07-24T10:26:46Z</time>
      </trkpt>
      <trkpt lat="42.9740560" lon="0.6518610">
        <ele>482.4</ele>
        <time>2020-07-24T10:26:47Z</time>
      </trkpt>
      <trkpt lat="42.9741050" lon="0.6517790">
        <ele>482.8</ele>
        <time>2020-07-24T10:26:49Z</time>
      </trkpt>
      <trkpt lat="42.9741780" lon="0.6515790">
        <ele>483.6</ele>
        <time>2020-07-24T10:26:54Z</time>
      </trkpt>
      <trkpt lat="42.9741800" lon="0.6515560">
        <ele>483.8</ele>
        <time>2020-07-24T10:26:55Z</time>
      </trkpt>
      <trkpt lat="42.9741650" lon="0.6514290">
        <ele>484.0</ele>
        <time>2020-07-24T10:27:00Z</time>
      </trkpt>
      <trkpt lat="42.9741290" lon="0.6512810">
        <ele>484.8</ele>
        <time>2020-07-24T10:27:04Z</time>
      </trkpt>
      <trkpt lat="42.9740970" lon="0.6511850">
        <ele>484.8</ele>
        <time>2020-07-24T10:27:06Z</time>
      </trkpt>
      <trkpt lat="42.9740820" lon="0.6510430">
        <ele>484.6</ele>
        <time>2020-07-24T10:27:08Z</time>
      </trkpt>
      <trkpt lat="42.9740860" lon="0.6508810">
        <ele>484.0</ele>
        <time>2020-07-24T10:27:10Z</time>
      </trkpt>
      <trkpt lat="42.9741010" lon="0.6507150">
        <ele>483.4</ele>
        <time>2020-07-24T10:27:12Z</time>
      </trkpt>
      <trkpt lat="42.9741210" lon="0.6504510">
        <ele>482.8</ele>
        <time>2020-07-24T10:27:15Z</time>
      </trkpt>
      <trkpt lat="42.9741310" lon="0.6502840">
        <ele>482.2</ele>
        <time>2020-07-24T10:27:17Z</time>
      </trkpt>
      <trkpt lat="42.9741410" lon="0.6500570">
        <ele>482.2</ele>
        <time>2020-07-24T10:27:20Z</time>
      </trkpt>
      <trkpt lat="42.9741400" lon="0.6498070">
        <ele>482.0</ele>
        <time>2020-07-24T10:27:23Z</time>
      </trkpt>
      <trkpt lat="42.9741410" lon="0.6495310">
        <ele>481.4</ele>
        <time>2020-07-24T10:27:26Z</time>
      </trkpt>
      <trkpt lat="42.9741400" lon="0.6494370">
        <ele>481.2</ele>
        <time>2020-07-24T10:27:27Z</time>
      </trkpt>
      <trkpt lat="42.9741380" lon="0.6493420">
        <ele>481.0</ele>
        <time>2020-07-24T10:27:28Z</time>
      </trkpt>
      <trkpt lat="42.9741530" lon="0.6490550">
        <ele>480.6</ele>
        <time>2020-07-24T10:27:31Z</time>
      </trkpt>
      <trkpt lat="42.9742090" lon="0.6487740">
        <ele>480.0</ele>
        <time>2020-07-24T10:27:34Z</time>
      </trkpt>
      <trkpt lat="42.9742380" lon="0.6486860">
        <ele>479.6</ele>
        <time>2020-07-24T10:27:35Z</time>
      </trkpt>
      <trkpt lat="42.9742730" lon="0.6485990">
        <ele>479.4</ele>
        <time>2020-07-24T10:27:36Z</time>
      </trkpt>
      <trkpt lat="42.9743160" lon="0.6485190">
        <ele>479.2</ele>
        <time>2020-07-24T10:27:37Z</time>
      </trkpt>
      <trkpt lat="42.9744130" lon="0.6483770">
        <ele>478.8</ele>
        <time>2020-07-24T10:27:39Z</time>
      </trkpt>
      <trkpt lat="42.9744600" lon="0.6483070">
        <ele>478.6</ele>
        <time>2020-07-24T10:27:40Z</time>
      </trkpt>
      <trkpt lat="42.9745760" lon="0.6480810">
        <ele>478.2</ele>
        <time>2020-07-24T10:27:43Z</time>
      </trkpt>
      <trkpt lat="42.9746010" lon="0.6479980">
        <ele>478.0</ele>
        <time>2020-07-24T10:27:44Z</time>
      </trkpt>
      <trkpt lat="42.9746150" lon="0.6479150">
        <ele>478.0</ele>
        <time>2020-07-24T10:27:45Z</time>
      </trkpt>
      <trkpt lat="42.9746000" lon="0.6477440">
        <ele>478.0</ele>
        <time>2020-07-24T10:27:47Z</time>
      </trkpt>
      <trkpt lat="42.9745270" lon="0.6475920">
        <ele>478.2</ele>
        <time>2020-07-24T10:27:49Z</time>
      </trkpt>
      <trkpt lat="42.9744830" lon="0.6475230">
        <ele>478.2</ele>
        <time>2020-07-24T10:27:50Z</time>
      </trkpt>
      <trkpt lat="42.9743440" lon="0.6473330">
        <ele>477.8</ele>
        <time>2020-07-24T10:27:53Z</time>
      </trkpt>
      <trkpt lat="42.9742020" lon="0.6471780">
        <ele>477.2</ele>
        <time>2020-07-24T10:27:56Z</time>
      </trkpt>
      <trkpt lat="42.9741050" lon="0.6470530">
        <ele>477.2</ele>
        <time>2020-07-24T10:27:59Z</time>
      </trkpt>
      <trkpt lat="42.9740860" lon="0.6470130">
        <ele>477.4</ele>
        <time>2020-07-24T10:28:00Z</time>
      </trkpt>
      <trkpt lat="42.9740730" lon="0.6469470">
        <ele>477.4</ele>
        <time>2020-07-24T10:28:02Z</time>
      </trkpt>
      <trkpt lat="42.9739610" lon="0.6469140">
        <ele>477.4</ele>
        <time>2020-07-24T10:28:04Z</time>
      </trkpt>
      <trkpt lat="42.9738460" lon="0.6469080">
        <ele>477.2</ele>
        <time>2020-07-24T10:28:39Z</time>
      </trkpt>
      <trkpt lat="42.9737310" lon="0.6469030">
        <ele>477.2</ele>
        <time>2020-07-24T10:28:40Z</time>
      </trkpt>
      <trkpt lat="42.9735380" lon="0.6469560">
        <ele>477.0</ele>
        <time>2020-07-24T10:28:43Z</time>
      </trkpt>
      <trkpt lat="42.9733380" lon="0.6469940">
        <ele>477.0</ele>
        <time>2020-07-24T10:28:46Z</time>
      </trkpt>
      <trkpt lat="42.9732000" lon="0.6470120">
        <ele>477.2</ele>
        <time>2020-07-24T10:28:48Z</time>
      </trkpt>
      <trkpt lat="42.9728410" lon="0.6470240">
        <ele>477.8</ele>
        <time>2020-07-24T10:28:54Z</time>
      </trkpt>
      <trkpt lat="42.9727570" lon="0.6470140">
        <ele>478.0</ele>
        <time>2020-07-24T10:28:57Z</time>
      </trkpt>
      <trkpt lat="42.9724370" lon="0.6469340">
        <ele>478.0</ele>
        <time>2020-07-24T10:31:12Z</time>
      </trkpt>
      <trkpt lat="42.9723680" lon="0.6469330">
        <ele>477.8</ele>
        <time>2020-07-24T10:31:14Z</time>
      </trkpt>
      <trkpt lat="42.9722220" lon="0.6469280">
        <ele>477.0</ele>
        <time>2020-07-24T10:31:17Z</time>
      </trkpt>
      <trkpt lat="42.9721650" lon="0.6469290">
        <ele>477.0</ele>
        <time>2020-07-24T10:31:18Z</time>
      </trkpt>
      <trkpt lat="42.9718010" lon="0.6469280">
        <ele>477.0</ele>
        <time>2020-07-24T10:31:24Z</time>
      </trkpt>
      <trkpt lat="42.9716760" lon="0.6469260">
        <ele>476.8</ele>
        <time>2020-07-24T10:31:26Z</time>
      </trkpt>
      <trkpt lat="42.9716130" lon="0.6469260">
        <ele>476.8</ele>
        <time>2020-07-24T10:31:27Z</time>
      </trkpt>
      <trkpt lat="42.9715500" lon="0.6469260">
        <ele>476.6</ele>
        <time>2020-07-24T10:31:28Z</time>
      </trkpt>
      <trkpt lat="42.9714860" lon="0.6469270">
        <ele>476.8</ele>
        <time>2020-07-24T10:31:29Z</time>
      </trkpt>
      <trkpt lat="42.9714220" lon="0.6469270">
        <ele>477.0</ele>
        <time>2020-07-24T10:31:30Z</time>
      </trkpt>
      <trkpt lat="42.9713580" lon="0.6469270">
        <ele>477.2</ele>
        <time>2020-07-24T10:31:31Z</time>
      </trkpt>
      <trkpt lat="42.9710420" lon="0.6469230">
        <ele>477.0</ele>
        <time>2020-07-24T10:31:36Z</time>
      </trkpt>
      <trkpt lat="42.9709160" lon="0.6469230">
        <ele>477.2</ele>
        <time>2020-07-24T10:31:38Z</time>
      </trkpt>
      <trkpt lat="42.9705380" lon="0.6469220">
        <ele>477.0</ele>
        <time>2020-07-24T10:31:44Z</time>
      </trkpt>
      <trkpt lat="42.9702910" lon="0.6469180">
        <ele>477.0</ele>
        <time>2020-07-24T10:31:48Z</time>
      </trkpt>
      <trkpt lat="42.9700610" lon="0.6469140">
        <ele>477.6</ele>
        <time>2020-07-24T10:31:52Z</time>
      </trkpt>
      <trkpt lat="42.9700120" lon="0.6468950">
        <ele>477.8</ele>
        <time>2020-07-24T10:31:53Z</time>
      </trkpt>
      <trkpt lat="42.9699760" lon="0.6468560">
        <ele>477.8</ele>
        <time>2020-07-24T10:31:54Z</time>
      </trkpt>
      <trkpt lat="42.9699520" lon="0.6467430">
        <ele>477.8</ele>
        <time>2020-07-24T10:31:56Z</time>
      </trkpt>
      <trkpt lat="42.9699540" lon="0.6466810">
        <ele>477.8</ele>
        <time>2020-07-24T10:31:57Z</time>
      </trkpt>
      <trkpt lat="42.9699470" lon="0.6466230">
        <ele>477.8</ele>
        <time>2020-07-24T10:31:58Z</time>
      </trkpt>
      <trkpt lat="42.9698940" lon="0.6465430">
        <ele>477.8</ele>
        <time>2020-07-24T10:32:00Z</time>
      </trkpt>
      <trkpt lat="42.9698000" lon="0.6465220">
        <ele>478.0</ele>
        <time>2020-07-24T10:32:02Z</time>
      </trkpt>
      <trkpt lat="42.9696930" lon="0.6465200">
        <ele>478.0</ele>
        <time>2020-07-24T10:32:04Z</time>
      </trkpt>
      <trkpt lat="42.9695880" lon="0.6465210">
        <ele>478.0</ele>
        <time>2020-07-24T10:32:06Z</time>
      </trkpt>
      <trkpt lat="42.9694860" lon="0.6465260">
        <ele>478.0</ele>
        <time>2020-07-24T10:32:08Z</time>
      </trkpt>
      <trkpt lat="42.9693400" lon="0.6465480">
        <ele>477.8</ele>
        <time>2020-07-24T10:32:11Z</time>
      </trkpt>
      <trkpt lat="42.9692920" lon="0.6465500">
        <ele>477.8</ele>
        <time>2020-07-24T10:32:12Z</time>
      </trkpt>
      <trkpt lat="42.9690400" lon="0.6465490">
        <ele>478.4</ele>
        <time>2020-07-24T10:32:17Z</time>
      </trkpt>
      <trkpt lat="42.9689940" lon="0.6465710">
        <ele>478.4</ele>
        <time>2020-07-24T10:32:18Z</time>
      </trkpt>
      <trkpt lat="42.9689580" lon="0.6466120">
        <ele>478.6</ele>
        <time>2020-07-24T10:32:19Z</time>
      </trkpt>
      <trkpt lat="42.9689150" lon="0.6467420">
        <ele>478.4</ele>
        <time>2020-07-24T10:32:21Z</time>
      </trkpt>
      <trkpt lat="42.9688870" lon="0.6468050">
        <ele>478.2</ele>
        <time>2020-07-24T10:32:22Z</time>
      </trkpt>
      <trkpt lat="42.9687970" lon="0.6468820">
        <ele>478.2</ele>
        <time>2020-07-24T10:32:24Z</time>
      </trkpt>
      <trkpt lat="42.9686880" lon="0.6468960">
        <ele>478.2</ele>
        <time>2020-07-24T10:32:26Z</time>
      </trkpt>
      <trkpt lat="42.9685750" lon="0.6468830">
        <ele>478.4</ele>
        <time>2020-07-24T10:32:28Z</time>
      </trkpt>
      <trkpt lat="42.9683600" lon="0.6468670">
        <ele>478.4</ele>
        <time>2020-07-24T10:32:32Z</time>
      </trkpt>
      <trkpt lat="42.9682050" lon="0.6468630">
        <ele>478.6</ele>
        <time>2020-07-24T10:32:35Z</time>
      </trkpt>
      <trkpt lat="42.9681540" lon="0.6468620">
        <ele>478.8</ele>
        <time>2020-07-24T10:32:36Z</time>
      </trkpt>
      <trkpt lat="42.9681020" lon="0.6468620">
        <ele>478.8</ele>
        <time>2020-07-24T10:32:37Z</time>
      </trkpt>
      <trkpt lat="42.9680480" lon="0.6468590">
        <ele>478.8</ele>
        <time>2020-07-24T10:32:38Z</time>
      </trkpt>
      <trkpt lat="42.9678250" lon="0.6468160">
        <ele>479.0</ele>
        <time>2020-07-24T10:32:42Z</time>
      </trkpt>
      <trkpt lat="42.9674930" lon="0.6467260">
        <ele>478.6</ele>
        <time>2020-07-24T10:32:48Z</time>
      </trkpt>
      <trkpt lat="42.9673880" lon="0.6466950">
        <ele>478.8</ele>
        <time>2020-07-24T10:32:50Z</time>
      </trkpt>
      <trkpt lat="42.9673430" lon="0.6466670">
        <ele>478.8</ele>
        <time>2020-07-24T10:32:51Z</time>
      </trkpt>
      <trkpt lat="42.9672840" lon="0.6465640">
        <ele>479.0</ele>
        <time>2020-07-24T10:32:53Z</time>
      </trkpt>
      <trkpt lat="42.9672720" lon="0.6464250">
        <ele>479.2</ele>
        <time>2020-07-24T10:32:55Z</time>
      </trkpt>
      <trkpt lat="42.9672680" lon="0.6462690">
        <ele>479.4</ele>
        <time>2020-07-24T10:32:57Z</time>
      </trkpt>
      <trkpt lat="42.9672590" lon="0.6460280">
        <ele>479.4</ele>
        <time>2020-07-24T10:33:00Z</time>
      </trkpt>
      <trkpt lat="42.9672550" lon="0.6459500">
        <ele>479.4</ele>
        <time>2020-07-24T10:33:01Z</time>
      </trkpt>
      <trkpt lat="42.9672490" lon="0.6458750">
        <ele>479.6</ele>
        <time>2020-07-24T10:33:02Z</time>
      </trkpt>
      <trkpt lat="42.9672360" lon="0.6457320">
        <ele>479.8</ele>
        <time>2020-07-24T10:33:04Z</time>
      </trkpt>
      <trkpt lat="42.9672300" lon="0.6456630">
        <ele>479.8</ele>
        <time>2020-07-24T10:33:05Z</time>
      </trkpt>
      <trkpt lat="42.9672280" lon="0.6455910">
        <ele>479.8</ele>
        <time>2020-07-24T10:33:06Z</time>
      </trkpt>
      <trkpt lat="42.9672240" lon="0.6452670">
        <ele>479.8</ele>
        <time>2020-07-24T10:33:10Z</time>
      </trkpt>
      <trkpt lat="42.9672040" lon="0.6447250">
        <ele>479.8</ele>
        <time>2020-07-24T10:33:16Z</time>
      </trkpt>
      <trkpt lat="42.9671950" lon="0.6444480">
        <ele>479.8</ele>
        <time>2020-07-24T10:33:19Z</time>
      </trkpt>
      <trkpt lat="42.9671760" lon="0.6439050">
        <ele>479.8</ele>
        <time>2020-07-24T10:33:25Z</time>
      </trkpt>
      <trkpt lat="42.9671660" lon="0.6436510">
        <ele>479.6</ele>
        <time>2020-07-24T10:33:28Z</time>
      </trkpt>
      <trkpt lat="42.9671520" lon="0.6431320">
        <ele>479.8</ele>
        <time>2020-07-24T10:33:34Z</time>
      </trkpt>
      <trkpt lat="42.9671380" lon="0.6428740">
        <ele>480.0</ele>
        <time>2020-07-24T10:33:37Z</time>
      </trkpt>
      <trkpt lat="42.9671160" lon="0.6423430">
        <ele>479.8</ele>
        <time>2020-07-24T10:33:43Z</time>
      </trkpt>
      <trkpt lat="42.9670940" lon="0.6421650">
        <ele>479.8</ele>
        <time>2020-07-24T10:33:45Z</time>
      </trkpt>
      <trkpt lat="42.9669680" lon="0.6416540">
        <ele>479.2</ele>
        <time>2020-07-24T10:33:51Z</time>
      </trkpt>
      <trkpt lat="42.9669420" lon="0.6415710">
        <ele>479.2</ele>
        <time>2020-07-24T10:33:52Z</time>
      </trkpt>
      <trkpt lat="42.9667840" lon="0.6410760">
        <ele>479.0</ele>
        <time>2020-07-24T10:33:58Z</time>
      </trkpt>
      <trkpt lat="42.9667570" lon="0.6409960">
        <ele>479.0</ele>
        <time>2020-07-24T10:33:59Z</time>
      </trkpt>
      <trkpt lat="42.9666480" lon="0.6406950">
        <ele>479.2</ele>
        <time>2020-07-24T10:34:03Z</time>
      </trkpt>
      <trkpt lat="42.9665800" lon="0.6405600">
        <ele>479.2</ele>
        <time>2020-07-24T10:34:05Z</time>
      </trkpt>
      <trkpt lat="42.9664660" lon="0.6403780">
        <ele>479.2</ele>
        <time>2020-07-24T10:34:08Z</time>
      </trkpt>
      <trkpt lat="42.9663370" lon="0.6402110">
        <ele>479.0</ele>
        <time>2020-07-24T10:34:11Z</time>
      </trkpt>
      <trkpt lat="42.9661150" lon="0.6399150">
        <ele>478.8</ele>
        <time>2020-07-24T10:34:16Z</time>
      </trkpt>
      <trkpt lat="42.9660180" lon="0.6397780">
        <ele>478.4</ele>
        <time>2020-07-24T10:34:18Z</time>
      </trkpt>
      <trkpt lat="42.9657460" lon="0.6393980">
        <ele>479.4</ele>
        <time>2020-07-24T10:34:24Z</time>
      </trkpt>
      <trkpt lat="42.9657060" lon="0.6393370">
        <ele>479.8</ele>
        <time>2020-07-24T10:34:25Z</time>
      </trkpt>
      <trkpt lat="42.9656660" lon="0.6392770">
        <ele>480.0</ele>
        <time>2020-07-24T10:34:26Z</time>
      </trkpt>
      <trkpt lat="42.9654210" lon="0.6389260">
        <ele>480.2</ele>
        <time>2020-07-24T10:34:32Z</time>
      </trkpt>
      <trkpt lat="42.9653790" lon="0.6388590">
        <ele>480.0</ele>
        <time>2020-07-24T10:34:33Z</time>
      </trkpt>
      <trkpt lat="42.9653400" lon="0.6387840">
        <ele>480.0</ele>
        <time>2020-07-24T10:34:34Z</time>
      </trkpt>
      <trkpt lat="42.9653050" lon="0.6387000">
        <ele>480.0</ele>
        <time>2020-07-24T10:34:35Z</time>
      </trkpt>
      <trkpt lat="42.9652550" lon="0.6385180">
        <ele>479.2</ele>
        <time>2020-07-24T10:34:37Z</time>
      </trkpt>
      <trkpt lat="42.9652440" lon="0.6384210">
        <ele>478.8</ele>
        <time>2020-07-24T10:34:38Z</time>
      </trkpt>
      <trkpt lat="42.9652450" lon="0.6383210">
        <ele>478.6</ele>
        <time>2020-07-24T10:34:39Z</time>
      </trkpt>
      <trkpt lat="42.9652550" lon="0.6382260">
        <ele>478.4</ele>
        <time>2020-07-24T10:34:40Z</time>
      </trkpt>
      <trkpt lat="42.9653550" lon="0.6376600">
        <ele>478.4</ele>
        <time>2020-07-24T10:34:46Z</time>
      </trkpt>
      <trkpt lat="42.9654390" lon="0.6370910">
        <ele>477.8</ele>
        <time>2020-07-24T10:34:52Z</time>
      </trkpt>
      <trkpt lat="42.9654760" lon="0.6369000">
        <ele>478.0</ele>
        <time>2020-07-24T10:34:54Z</time>
      </trkpt>
      <trkpt lat="42.9655140" lon="0.6367030">
        <ele>477.8</ele>
        <time>2020-07-24T10:34:56Z</time>
      </trkpt>
      <trkpt lat="42.9655630" lon="0.6364070">
        <ele>477.8</ele>
        <time>2020-07-24T10:34:59Z</time>
      </trkpt>
      <trkpt lat="42.9655840" lon="0.6362090">
        <ele>477.6</ele>
        <time>2020-07-24T10:35:01Z</time>
      </trkpt>
      <trkpt lat="42.9656920" lon="0.6356320">
        <ele>477.8</ele>
        <time>2020-07-24T10:35:07Z</time>
      </trkpt>
      <trkpt lat="42.9657100" lon="0.6355370">
        <ele>477.8</ele>
        <time>2020-07-24T10:35:08Z</time>
      </trkpt>
      <trkpt lat="42.9657460" lon="0.6353450">
        <ele>478.0</ele>
        <time>2020-07-24T10:35:10Z</time>
      </trkpt>
      <trkpt lat="42.9658540" lon="0.6347690">
        <ele>477.6</ele>
        <time>2020-07-24T10:35:16Z</time>
      </trkpt>
      <trkpt lat="42.9659590" lon="0.6341840">
        <ele>477.8</ele>
        <time>2020-07-24T10:35:22Z</time>
      </trkpt>
      <trkpt lat="42.9659750" lon="0.6340870">
        <ele>477.8</ele>
        <time>2020-07-24T10:35:23Z</time>
      </trkpt>
      <trkpt lat="42.9660790" lon="0.6335020">
        <ele>477.8</ele>
        <time>2020-07-24T10:35:29Z</time>
      </trkpt>
      <trkpt lat="42.9661310" lon="0.6331240">
        <ele>478.2</ele>
        <time>2020-07-24T10:35:33Z</time>
      </trkpt>
      <trkpt lat="42.9661440" lon="0.6327650">
        <ele>479.0</ele>
        <time>2020-07-24T10:35:37Z</time>
      </trkpt>
      <trkpt lat="42.9661420" lon="0.6326800">
        <ele>479.2</ele>
        <time>2020-07-24T10:35:38Z</time>
      </trkpt>
      <trkpt lat="42.9661370" lon="0.6325100">
        <ele>479.6</ele>
        <time>2020-07-24T10:35:40Z</time>
      </trkpt>
      <trkpt lat="42.9661230" lon="0.6320050">
        <ele>479.8</ele>
        <time>2020-07-24T10:35:46Z</time>
      </trkpt>
      <trkpt lat="42.9661150" lon="0.6317480">
        <ele>479.8</ele>
        <time>2020-07-24T10:35:49Z</time>
      </trkpt>
      <trkpt lat="42.9661050" lon="0.6314890">
        <ele>480.0</ele>
        <time>2020-07-24T10:35:52Z</time>
      </trkpt>
      <trkpt lat="42.9660990" lon="0.6312270">
        <ele>480.2</ele>
        <time>2020-07-24T10:35:55Z</time>
      </trkpt>
      <trkpt lat="42.9660940" lon="0.6308790">
        <ele>480.4</ele>
        <time>2020-07-24T10:35:59Z</time>
      </trkpt>
      <trkpt lat="42.9660770" lon="0.6304220">
        <ele>480.6</ele>
        <time>2020-07-24T10:36:05Z</time>
      </trkpt>
      <trkpt lat="42.9660460" lon="0.6301030">
        <ele>480.6</ele>
        <time>2020-07-24T10:36:10Z</time>
      </trkpt>
      <trkpt lat="42.9660370" lon="0.6300430">
        <ele>480.6</ele>
        <time>2020-07-24T10:36:11Z</time>
      </trkpt>
      <trkpt lat="42.9660280" lon="0.6298340">
        <ele>480.6</ele>
        <time>2020-07-24T10:36:16Z</time>
      </trkpt>
      <trkpt lat="42.9660770" lon="0.6297460">
        <ele>480.4</ele>
        <time>2020-07-24T10:36:19Z</time>
      </trkpt>
      <trkpt lat="42.9661110" lon="0.6297220">
        <ele>480.2</ele>
        <time>2020-07-24T10:36:20Z</time>
      </trkpt>
      <trkpt lat="42.9663300" lon="0.6296090">
        <ele>479.6</ele>
        <time>2020-07-24T10:36:26Z</time>
      </trkpt>
      <trkpt lat="42.9663470" lon="0.6295660">
        <ele>479.6</ele>
        <time>2020-07-24T10:36:27Z</time>
      </trkpt>
      <trkpt lat="42.9663470" lon="0.6294530">
        <ele>480.0</ele>
        <time>2020-07-24T10:36:29Z</time>
      </trkpt>
      <trkpt lat="42.9663280" lon="0.6293160">
        <ele>480.4</ele>
        <time>2020-07-24T10:36:31Z</time>
      </trkpt>
      <trkpt lat="42.9663200" lon="0.6290950">
        <ele>480.4</ele>
        <time>2020-07-24T10:36:34Z</time>
      </trkpt>
      <trkpt lat="42.9663570" lon="0.6286400">
        <ele>480.4</ele>
        <time>2020-07-24T10:36:40Z</time>
      </trkpt>
      <trkpt lat="42.9663630" lon="0.6285660">
        <ele>480.4</ele>
        <time>2020-07-24T10:36:41Z</time>
      </trkpt>
      <trkpt lat="42.9663790" lon="0.6281080">
        <ele>480.6</ele>
        <time>2020-07-24T10:36:47Z</time>
      </trkpt>
      <trkpt lat="42.9663600" lon="0.6278730">
        <ele>480.8</ele>
        <time>2020-07-24T10:36:50Z</time>
      </trkpt>
      <trkpt lat="42.9663470" lon="0.6277160">
        <ele>481.0</ele>
        <time>2020-07-24T10:36:52Z</time>
      </trkpt>
      <trkpt lat="42.9663280" lon="0.6275600">
        <ele>480.8</ele>
        <time>2020-07-24T10:36:54Z</time>
      </trkpt>
      <trkpt lat="42.9663080" lon="0.6274020">
        <ele>480.8</ele>
        <time>2020-07-24T10:36:56Z</time>
      </trkpt>
      <trkpt lat="42.9662900" lon="0.6272460">
        <ele>480.6</ele>
        <time>2020-07-24T10:36:58Z</time>
      </trkpt>
      <trkpt lat="42.9662810" lon="0.6270910">
        <ele>480.6</ele>
        <time>2020-07-24T10:37:00Z</time>
      </trkpt>
      <trkpt lat="42.9662740" lon="0.6268600">
        <ele>480.8</ele>
        <time>2020-07-24T10:37:03Z</time>
      </trkpt>
      <trkpt lat="42.9662760" lon="0.6267850">
        <ele>480.8</ele>
        <time>2020-07-24T10:37:04Z</time>
      </trkpt>
      <trkpt lat="42.9662780" lon="0.6267110">
        <ele>480.8</ele>
        <time>2020-07-24T10:37:05Z</time>
      </trkpt>
      <trkpt lat="42.9662900" lon="0.6265620">
        <ele>481.2</ele>
        <time>2020-07-24T10:37:07Z</time>
      </trkpt>
      <trkpt lat="42.9663230" lon="0.6261930">
        <ele>481.4</ele>
        <time>2020-07-24T10:37:12Z</time>
      </trkpt>
      <trkpt lat="42.9663470" lon="0.6259810">
        <ele>481.4</ele>
        <time>2020-07-24T10:37:15Z</time>
      </trkpt>
      <trkpt lat="42.9663940" lon="0.6256280">
        <ele>481.4</ele>
        <time>2020-07-24T10:37:20Z</time>
      </trkpt>
      <trkpt lat="42.9664010" lon="0.6255560">
        <ele>481.4</ele>
        <time>2020-07-24T10:37:21Z</time>
      </trkpt>
      <trkpt lat="42.9664110" lon="0.6254030">
        <ele>481.6</ele>
        <time>2020-07-24T10:37:23Z</time>
      </trkpt>
      <trkpt lat="42.9664200" lon="0.6251670">
        <ele>481.6</ele>
        <time>2020-07-24T10:37:26Z</time>
      </trkpt>
      <trkpt lat="42.9664340" lon="0.6248540">
        <ele>482.4</ele>
        <time>2020-07-24T10:37:30Z</time>
      </trkpt>
      <trkpt lat="42.9664380" lon="0.6247770">
        <ele>482.6</ele>
        <time>2020-07-24T10:37:31Z</time>
      </trkpt>
      <trkpt lat="42.9664410" lon="0.6246990">
        <ele>482.6</ele>
        <time>2020-07-24T10:37:32Z</time>
      </trkpt>
      <trkpt lat="42.9664680" lon="0.6243950">
        <ele>482.8</ele>
        <time>2020-07-24T10:37:36Z</time>
      </trkpt>
      <trkpt lat="42.9665170" lon="0.6240940">
        <ele>482.2</ele>
        <time>2020-07-24T10:37:40Z</time>
      </trkpt>
      <trkpt lat="42.9665690" lon="0.6238890">
        <ele>482.2</ele>
        <time>2020-07-24T10:37:43Z</time>
      </trkpt>
      <trkpt lat="42.9666220" lon="0.6237640">
        <ele>482.2</ele>
        <time>2020-07-24T10:37:45Z</time>
      </trkpt>
      <trkpt lat="42.9666550" lon="0.6237070">
        <ele>482.4</ele>
        <time>2020-07-24T10:37:46Z</time>
      </trkpt>
      <trkpt lat="42.9666910" lon="0.6236570">
        <ele>482.6</ele>
        <time>2020-07-24T10:37:47Z</time>
      </trkpt>
      <trkpt lat="42.9667720" lon="0.6235740">
        <ele>482.6</ele>
        <time>2020-07-24T10:37:49Z</time>
      </trkpt>
      <trkpt lat="42.9668550" lon="0.6235010">
        <ele>482.8</ele>
        <time>2020-07-24T10:37:51Z</time>
      </trkpt>
      <trkpt lat="42.9669360" lon="0.6234290">
        <ele>483.0</ele>
        <time>2020-07-24T10:37:53Z</time>
      </trkpt>
      <trkpt lat="42.9670510" lon="0.6233220">
        <ele>483.4</ele>
        <time>2020-07-24T10:37:56Z</time>
      </trkpt>
      <trkpt lat="42.9671660" lon="0.6232160">
        <ele>483.8</ele>
        <time>2020-07-24T10:37:59Z</time>
      </trkpt>
      <trkpt lat="42.9672000" lon="0.6231750">
        <ele>484.0</ele>
        <time>2020-07-24T10:38:00Z</time>
      </trkpt>
      <trkpt lat="42.9672740" lon="0.6231030">
        <ele>484.4</ele>
        <time>2020-07-24T10:38:02Z</time>
      </trkpt>
      <trkpt lat="42.9674110" lon="0.6229600">
        <ele>485.2</ele>
        <time>2020-07-24T10:38:06Z</time>
      </trkpt>
      <trkpt lat="42.9675050" lon="0.6228450">
        <ele>485.6</ele>
        <time>2020-07-24T10:38:09Z</time>
      </trkpt>
      <trkpt lat="42.9676570" lon="0.6226310">
        <ele>486.2</ele>
        <time>2020-07-24T10:38:14Z</time>
      </trkpt>
      <trkpt lat="42.9677410" lon="0.6224920">
        <ele>486.4</ele>
        <time>2020-07-24T10:38:17Z</time>
      </trkpt>
      <trkpt lat="42.9677850" lon="0.6223930">
        <ele>486.8</ele>
        <time>2020-07-24T10:38:19Z</time>
      </trkpt>
      <trkpt lat="42.9678040" lon="0.6223410">
        <ele>487.0</ele>
        <time>2020-07-24T10:38:20Z</time>
      </trkpt>
      <trkpt lat="42.9678960" lon="0.6220730">
        <ele>487.8</ele>
        <time>2020-07-24T10:38:25Z</time>
      </trkpt>
      <trkpt lat="42.9679370" lon="0.6219620">
        <ele>487.8</ele>
        <time>2020-07-24T10:38:27Z</time>
      </trkpt>
      <trkpt lat="42.9679560" lon="0.6219070">
        <ele>488.0</ele>
        <time>2020-07-24T10:38:28Z</time>
      </trkpt>
      <trkpt lat="42.9679970" lon="0.6218010">
        <ele>488.0</ele>
        <time>2020-07-24T10:38:30Z</time>
      </trkpt>
      <trkpt lat="42.9680760" lon="0.6214930">
        <ele>488.2</ele>
        <time>2020-07-24T10:38:35Z</time>
      </trkpt>
      <trkpt lat="42.9680880" lon="0.6214250">
        <ele>488.2</ele>
        <time>2020-07-24T10:38:36Z</time>
      </trkpt>
      <trkpt lat="42.9680980" lon="0.6213590">
        <ele>488.2</ele>
        <time>2020-07-24T10:38:37Z</time>
      </trkpt>
      <trkpt lat="42.9681120" lon="0.6212260">
        <ele>488.6</ele>
        <time>2020-07-24T10:38:39Z</time>
      </trkpt>
      <trkpt lat="42.9681160" lon="0.6211580">
        <ele>489.0</ele>
        <time>2020-07-24T10:38:40Z</time>
      </trkpt>
      <trkpt lat="42.9681320" lon="0.6209520">
        <ele>489.4</ele>
        <time>2020-07-24T10:38:43Z</time>
      </trkpt>
      <trkpt lat="42.9681710" lon="0.6205250">
        <ele>489.6</ele>
        <time>2020-07-24T10:38:49Z</time>
      </trkpt>
      <trkpt lat="42.9682110" lon="0.6203230">
        <ele>489.4</ele>
        <time>2020-07-24T10:38:52Z</time>
      </trkpt>
      <trkpt lat="42.9683130" lon="0.6199260">
        <ele>489.6</ele>
        <time>2020-07-24T10:38:58Z</time>
      </trkpt>
      <trkpt lat="42.9683450" lon="0.6197930">
        <ele>489.8</ele>
        <time>2020-07-24T10:39:00Z</time>
      </trkpt>
      <trkpt lat="42.9683620" lon="0.6197270">
        <ele>490.0</ele>
        <time>2020-07-24T10:39:01Z</time>
      </trkpt>
      <trkpt lat="42.9684510" lon="0.6193310">
        <ele>490.6</ele>
        <time>2020-07-24T10:39:07Z</time>
      </trkpt>
      <trkpt lat="42.9684900" lon="0.6191380">
        <ele>490.6</ele>
        <time>2020-07-24T10:39:10Z</time>
      </trkpt>
      <trkpt lat="42.9685020" lon="0.6190730">
        <ele>490.8</ele>
        <time>2020-07-24T10:39:11Z</time>
      </trkpt>
      <trkpt lat="42.9685260" lon="0.6189390">
        <ele>491.2</ele>
        <time>2020-07-24T10:39:13Z</time>
      </trkpt>
      <trkpt lat="42.9686060" lon="0.6185350">
        <ele>492.0</ele>
        <time>2020-07-24T10:39:19Z</time>
      </trkpt>
      <trkpt lat="42.9686330" lon="0.6184000">
        <ele>491.6</ele>
        <time>2020-07-24T10:39:21Z</time>
      </trkpt>
      <trkpt lat="42.9686690" lon="0.6181960">
        <ele>491.6</ele>
        <time>2020-07-24T10:39:24Z</time>
      </trkpt>
      <trkpt lat="42.9687190" lon="0.6180040">
        <ele>492.2</ele>
        <time>2020-07-24T10:39:27Z</time>
      </trkpt>
      <trkpt lat="42.9687580" lon="0.6178810">
        <ele>492.6</ele>
        <time>2020-07-24T10:39:29Z</time>
      </trkpt>
      <trkpt lat="42.9687790" lon="0.6178210">
        <ele>492.8</ele>
        <time>2020-07-24T10:39:30Z</time>
      </trkpt>
      <trkpt lat="42.9688210" lon="0.6177050">
        <ele>493.0</ele>
        <time>2020-07-24T10:39:32Z</time>
      </trkpt>
      <trkpt lat="42.9688650" lon="0.6175870">
        <ele>493.4</ele>
        <time>2020-07-24T10:39:34Z</time>
      </trkpt>
      <trkpt lat="42.9689040" lon="0.6174690">
        <ele>493.4</ele>
        <time>2020-07-24T10:39:36Z</time>
      </trkpt>
      <trkpt lat="42.9689230" lon="0.6174100">
        <ele>493.6</ele>
        <time>2020-07-24T10:39:37Z</time>
      </trkpt>
      <trkpt lat="42.9690480" lon="0.6170830">
        <ele>494.2</ele>
        <time>2020-07-24T10:39:43Z</time>
      </trkpt>
      <trkpt lat="42.9691140" lon="0.6169220">
        <ele>494.4</ele>
        <time>2020-07-24T10:39:46Z</time>
      </trkpt>
      <trkpt lat="42.9692100" lon="0.6166530">
        <ele>495.0</ele>
        <time>2020-07-24T10:39:51Z</time>
      </trkpt>
      <trkpt lat="42.9692740" lon="0.6164290">
        <ele>495.4</ele>
        <time>2020-07-24T10:39:55Z</time>
      </trkpt>
      <trkpt lat="42.9693290" lon="0.6160760">
        <ele>496.4</ele>
        <time>2020-07-24T10:40:01Z</time>
      </trkpt>
      <trkpt lat="42.9693230" lon="0.6160030">
        <ele>496.6</ele>
        <time>2020-07-24T10:40:02Z</time>
      </trkpt>
      <trkpt lat="42.9693290" lon="0.6159450">
        <ele>496.6</ele>
        <time>2020-07-24T10:40:03Z</time>
      </trkpt>
      <trkpt lat="42.9693520" lon="0.6156520">
        <ele>497.0</ele>
        <time>2020-07-24T10:40:08Z</time>
      </trkpt>
      <trkpt lat="42.9693580" lon="0.6155910">
        <ele>497.2</ele>
        <time>2020-07-24T10:40:09Z</time>
      </trkpt>
      <trkpt lat="42.9693870" lon="0.6154780">
        <ele>497.6</ele>
        <time>2020-07-24T10:40:11Z</time>
      </trkpt>
      <trkpt lat="42.9694280" lon="0.6153760">
        <ele>498.2</ele>
        <time>2020-07-24T10:40:13Z</time>
      </trkpt>
      <trkpt lat="42.9694800" lon="0.6152930">
        <ele>498.6</ele>
        <time>2020-07-24T10:40:15Z</time>
      </trkpt>
      <trkpt lat="42.9695040" lon="0.6152570">
        <ele>498.8</ele>
        <time>2020-07-24T10:40:16Z</time>
      </trkpt>
      <trkpt lat="42.9695470" lon="0.6151860">
        <ele>499.8</ele>
        <time>2020-07-24T10:40:18Z</time>
      </trkpt>
      <trkpt lat="42.9696010" lon="0.6150140">
        <ele>500.6</ele>
        <time>2020-07-24T10:40:22Z</time>
      </trkpt>
      <trkpt lat="42.9696090" lon="0.6149680">
        <ele>500.6</ele>
        <time>2020-07-24T10:40:23Z</time>
      </trkpt>
      <trkpt lat="42.9694840" lon="0.6142590">
        <ele>499.0</ele>
        <time>2020-07-24T10:47:18Z</time>
      </trkpt>
      <trkpt lat="42.9694620" lon="0.6141790">
        <ele>499.0</ele>
        <time>2020-07-24T10:47:20Z</time>
      </trkpt>
      <trkpt lat="42.9694510" lon="0.6141330">
        <ele>499.2</ele>
        <time>2020-07-24T10:47:21Z</time>
      </trkpt>
      <trkpt lat="42.9694060" lon="0.6139980">
        <ele>501.0</ele>
        <time>2020-07-24T10:47:24Z</time>
      </trkpt>
      <trkpt lat="42.9693920" lon="0.6139570">
        <ele>501.2</ele>
        <time>2020-07-24T10:47:25Z</time>
      </trkpt>
      <trkpt lat="42.9693440" lon="0.6138960">
        <ele>501.6</ele>
        <time>2020-07-24T10:47:27Z</time>
      </trkpt>
      <trkpt lat="42.9692930" lon="0.6138060">
        <ele>502.0</ele>
        <time>2020-07-24T10:47:29Z</time>
      </trkpt>
      <trkpt lat="42.9692410" lon="0.6137280">
        <ele>502.2</ele>
        <time>2020-07-24T10:47:31Z</time>
      </trkpt>
      <trkpt lat="42.9691760" lon="0.6136460">
        <ele>502.2</ele>
        <time>2020-07-24T10:47:33Z</time>
      </trkpt>
      <trkpt lat="42.9691060" lon="0.6135600">
        <ele>502.2</ele>
        <time>2020-07-24T10:47:35Z</time>
      </trkpt>
      <trkpt lat="42.9690090" lon="0.6134360">
        <ele>502.8</ele>
        <time>2020-07-24T10:47:38Z</time>
      </trkpt>
      <trkpt lat="42.9689760" lon="0.6133970">
        <ele>503.0</ele>
        <time>2020-07-24T10:47:39Z</time>
      </trkpt>
      <trkpt lat="42.9689430" lon="0.6133540">
        <ele>503.2</ele>
        <time>2020-07-24T10:47:40Z</time>
      </trkpt>
      <trkpt lat="42.9689110" lon="0.6133100">
        <ele>503.2</ele>
        <time>2020-07-24T10:47:41Z</time>
      </trkpt>
      <trkpt lat="42.9687680" lon="0.6130640">
        <ele>503.6</ele>
        <time>2020-07-24T10:47:46Z</time>
      </trkpt>
      <trkpt lat="42.9686900" lon="0.6128480">
        <ele>504.2</ele>
        <time>2020-07-24T10:47:50Z</time>
      </trkpt>
      <trkpt lat="42.9686490" lon="0.6126780">
        <ele>504.8</ele>
        <time>2020-07-24T10:47:53Z</time>
      </trkpt>
      <trkpt lat="42.9685940" lon="0.6123850">
        <ele>505.4</ele>
        <time>2020-07-24T10:47:58Z</time>
      </trkpt>
      <trkpt lat="42.9685370" lon="0.6121000">
        <ele>506.6</ele>
        <time>2020-07-24T10:48:03Z</time>
      </trkpt>
      <trkpt lat="42.9685120" lon="0.6119860">
        <ele>506.8</ele>
        <time>2020-07-24T10:48:05Z</time>
      </trkpt>
      <trkpt lat="42.9685040" lon="0.6119280">
        <ele>507.0</ele>
        <time>2020-07-24T10:48:06Z</time>
      </trkpt>
      <trkpt lat="42.9684870" lon="0.6118140">
        <ele>507.2</ele>
        <time>2020-07-24T10:48:08Z</time>
      </trkpt>
      <trkpt lat="42.9684540" lon="0.6116420">
        <ele>507.4</ele>
        <time>2020-07-24T10:48:11Z</time>
      </trkpt>
      <trkpt lat="42.9684390" lon="0.6115840">
        <ele>507.8</ele>
        <time>2020-07-24T10:48:12Z</time>
      </trkpt>
      <trkpt lat="42.9683620" lon="0.6112240">
        <ele>508.4</ele>
        <time>2020-07-24T10:48:18Z</time>
      </trkpt>
      <trkpt lat="42.9683400" lon="0.6111020">
        <ele>508.6</ele>
        <time>2020-07-24T10:48:20Z</time>
      </trkpt>
      <trkpt lat="42.9683280" lon="0.6110410">
        <ele>509.0</ele>
        <time>2020-07-24T10:48:21Z</time>
      </trkpt>
      <trkpt lat="42.9682730" lon="0.6106780">
        <ele>510.0</ele>
        <time>2020-07-24T10:48:27Z</time>
      </trkpt>
      <trkpt lat="42.9682750" lon="0.6106150">
        <ele>510.0</ele>
        <time>2020-07-24T10:48:28Z</time>
      </trkpt>
      <trkpt lat="42.9682950" lon="0.6104350">
        <ele>511.2</ele>
        <time>2020-07-24T10:48:31Z</time>
      </trkpt>
      <trkpt lat="42.9683330" lon="0.6102230">
        <ele>512.0</ele>
        <time>2020-07-24T10:48:35Z</time>
      </trkpt>
      <trkpt lat="42.9683420" lon="0.6101720">
        <ele>512.4</ele>
        <time>2020-07-24T10:48:36Z</time>
      </trkpt>
      <trkpt lat="42.9683600" lon="0.6099140">
        <ele>513.4</ele>
        <time>2020-07-24T10:48:41Z</time>
      </trkpt>
      <trkpt lat="42.9683570" lon="0.6098640">
        <ele>513.6</ele>
        <time>2020-07-24T10:48:42Z</time>
      </trkpt>
      <trkpt lat="42.9683540" lon="0.6098150">
        <ele>513.8</ele>
        <time>2020-07-24T10:48:43Z</time>
      </trkpt>
      <trkpt lat="42.9683400" lon="0.6096710">
        <ele>514.6</ele>
        <time>2020-07-24T10:48:46Z</time>
      </trkpt>
      <trkpt lat="42.9683080" lon="0.6095330">
        <ele>515.0</ele>
        <time>2020-07-24T10:48:49Z</time>
      </trkpt>
      <trkpt lat="42.9682940" lon="0.6094860">
        <ele>515.2</ele>
        <time>2020-07-24T10:48:50Z</time>
      </trkpt>
      <trkpt lat="42.9682810" lon="0.6094400">
        <ele>515.6</ele>
        <time>2020-07-24T10:48:51Z</time>
      </trkpt>
      <trkpt lat="42.9682210" lon="0.6092170">
        <ele>516.8</ele>
        <time>2020-07-24T10:48:56Z</time>
      </trkpt>
      <trkpt lat="42.9681950" lon="0.6091310">
        <ele>517.4</ele>
        <time>2020-07-24T10:48:58Z</time>
      </trkpt>
      <trkpt lat="42.9681710" lon="0.6090480">
        <ele>518.0</ele>
        <time>2020-07-24T10:49:00Z</time>
      </trkpt>
      <trkpt lat="42.9681580" lon="0.6090040">
        <ele>518.4</ele>
        <time>2020-07-24T10:49:01Z</time>
      </trkpt>
      <trkpt lat="42.9681000" lon="0.6088350">
        <ele>519.0</ele>
        <time>2020-07-24T10:49:05Z</time>
      </trkpt>
      <trkpt lat="42.9680600" lon="0.6087630">
        <ele>519.4</ele>
        <time>2020-07-24T10:49:07Z</time>
      </trkpt>
      <trkpt lat="42.9679850" lon="0.6086020">
        <ele>520.2</ele>
        <time>2020-07-24T10:49:11Z</time>
      </trkpt>
      <trkpt lat="42.9678660" lon="0.6083830">
        <ele>521.4</ele>
        <time>2020-07-24T10:49:17Z</time>
      </trkpt>
      <trkpt lat="42.9677970" lon="0.6082310">
        <ele>522.4</ele>
        <time>2020-07-24T10:49:21Z</time>
      </trkpt>
      <trkpt lat="42.9677310" lon="0.6080270">
        <ele>523.6</ele>
        <time>2020-07-24T10:49:26Z</time>
      </trkpt>
      <trkpt lat="42.9676530" lon="0.6078250">
        <ele>524.8</ele>
        <time>2020-07-24T10:49:31Z</time>
      </trkpt>
      <trkpt lat="42.9676100" lon="0.6077050">
        <ele>525.4</ele>
        <time>2020-07-24T10:49:34Z</time>
      </trkpt>
      <trkpt lat="42.9675850" lon="0.6076160">
        <ele>525.8</ele>
        <time>2020-07-24T10:49:36Z</time>
      </trkpt>
      <trkpt lat="42.9675050" lon="0.6073630">
        <ele>527.0</ele>
        <time>2020-07-24T10:49:42Z</time>
      </trkpt>
      <trkpt lat="42.9674750" lon="0.6072890">
        <ele>527.4</ele>
        <time>2020-07-24T10:49:44Z</time>
      </trkpt>
      <trkpt lat="42.9674450" lon="0.6072060">
        <ele>528.0</ele>
        <time>2020-07-24T10:49:46Z</time>
      </trkpt>
      <trkpt lat="42.9673320" lon="0.6069910">
        <ele>529.0</ele>
        <time>2020-07-24T10:49:52Z</time>
      </trkpt>
      <trkpt lat="42.9673110" lon="0.6069580">
        <ele>529.2</ele>
        <time>2020-07-24T10:49:53Z</time>
      </trkpt>
      <trkpt lat="42.9672500" lon="0.6068550">
        <ele>529.8</ele>
        <time>2020-07-24T10:49:56Z</time>
      </trkpt>
      <trkpt lat="42.9672290" lon="0.6068200">
        <ele>530.2</ele>
        <time>2020-07-24T10:49:57Z</time>
      </trkpt>
      <trkpt lat="42.9671460" lon="0.6066720">
        <ele>531.0</ele>
        <time>2020-07-24T10:50:01Z</time>
      </trkpt>
      <trkpt lat="42.9671250" lon="0.6066370">
        <ele>531.4</ele>
        <time>2020-07-24T10:50:02Z</time>
      </trkpt>
      <trkpt lat="42.9670360" lon="0.6064510">
        <ele>532.4</ele>
        <time>2020-07-24T10:50:07Z</time>
      </trkpt>
      <trkpt lat="42.9670100" lon="0.6063660">
        <ele>532.8</ele>
        <time>2020-07-24T10:50:09Z</time>
      </trkpt>
      <trkpt lat="42.9669880" lon="0.6061880">
        <ele>533.6</ele>
        <time>2020-07-24T10:50:13Z</time>
      </trkpt>
      <trkpt lat="42.9669620" lon="0.6060540">
        <ele>534.6</ele>
        <time>2020-07-24T10:50:16Z</time>
      </trkpt>
      <trkpt lat="42.9669510" lon="0.6060070">
        <ele>534.8</ele>
        <time>2020-07-24T10:50:17Z</time>
      </trkpt>
      <trkpt lat="42.9669000" lon="0.6057780">
        <ele>535.8</ele>
        <time>2020-07-24T10:50:22Z</time>
      </trkpt>
      <trkpt lat="42.9668870" lon="0.6057360">
        <ele>536.2</ele>
        <time>2020-07-24T10:50:23Z</time>
      </trkpt>
      <trkpt lat="42.9668420" lon="0.6055650">
        <ele>536.8</ele>
        <time>2020-07-24T10:50:27Z</time>
      </trkpt>
      <trkpt lat="42.9668340" lon="0.6055170">
        <ele>537.0</ele>
        <time>2020-07-24T10:50:28Z</time>
      </trkpt>
      <trkpt lat="42.9668170" lon="0.6054180">
        <ele>537.4</ele>
        <time>2020-07-24T10:50:30Z</time>
      </trkpt>
      <trkpt lat="42.9668070" lon="0.6053130">
        <ele>538.0</ele>
        <time>2020-07-24T10:50:32Z</time>
      </trkpt>
      <trkpt lat="42.9668140" lon="0.6051090">
        <ele>538.8</ele>
        <time>2020-07-24T10:50:36Z</time>
      </trkpt>
      <trkpt lat="42.9668180" lon="0.6050580">
        <ele>539.2</ele>
        <time>2020-07-24T10:50:37Z</time>
      </trkpt>
      <trkpt lat="42.9668160" lon="0.6049230">
        <ele>540.0</ele>
        <time>2020-07-24T10:50:40Z</time>
      </trkpt>
      <trkpt lat="42.9668130" lon="0.6048410">
        <ele>540.2</ele>
        <time>2020-07-24T10:50:42Z</time>
      </trkpt>
      <trkpt lat="42.9667990" lon="0.6046320">
        <ele>541.4</ele>
        <time>2020-07-24T10:50:47Z</time>
      </trkpt>
      <trkpt lat="42.9667940" lon="0.6045370">
        <ele>541.8</ele>
        <time>2020-07-24T10:50:49Z</time>
      </trkpt>
      <trkpt lat="42.9667650" lon="0.6044110">
        <ele>542.4</ele>
        <time>2020-07-24T10:50:52Z</time>
      </trkpt>
      <trkpt lat="42.9667530" lon="0.6043670">
        <ele>542.6</ele>
        <time>2020-07-24T10:50:53Z</time>
      </trkpt>
      <trkpt lat="42.9667230" lon="0.6042390">
        <ele>543.6</ele>
        <time>2020-07-24T10:50:56Z</time>
      </trkpt>
      <trkpt lat="42.9667090" lon="0.6041970">
        <ele>543.6</ele>
        <time>2020-07-24T10:50:57Z</time>
      </trkpt>
      <trkpt lat="42.9666260" lon="0.6040140">
        <ele>544.6</ele>
        <time>2020-07-24T10:51:02Z</time>
      </trkpt>
      <trkpt lat="42.9666150" lon="0.6039760">
        <ele>545.0</ele>
        <time>2020-07-24T10:51:03Z</time>
      </trkpt>
      <trkpt lat="42.9665830" lon="0.6038490">
        <ele>545.8</ele>
        <time>2020-07-24T10:51:06Z</time>
      </trkpt>
      <trkpt lat="42.9665340" lon="0.6037340">
        <ele>546.2</ele>
        <time>2020-07-24T10:51:09Z</time>
      </trkpt>
      <trkpt lat="42.9665170" lon="0.6036970">
        <ele>546.4</ele>
        <time>2020-07-24T10:51:10Z</time>
      </trkpt>
      <trkpt lat="42.9664990" lon="0.6036670">
        <ele>546.6</ele>
        <time>2020-07-24T10:51:11Z</time>
      </trkpt>
      <trkpt lat="42.9664810" lon="0.6036340">
        <ele>546.8</ele>
        <time>2020-07-24T10:51:12Z</time>
      </trkpt>
      <trkpt lat="42.9663730" lon="0.6034730">
        <ele>547.8</ele>
        <time>2020-07-24T10:51:17Z</time>
      </trkpt>
      <trkpt lat="42.9663480" lon="0.6034410">
        <ele>548.0</ele>
        <time>2020-07-24T10:51:18Z</time>
      </trkpt>
      <trkpt lat="42.9662110" lon="0.6032900">
        <ele>549.0</ele>
        <time>2020-07-24T10:51:24Z</time>
      </trkpt>
      <trkpt lat="42.9661860" lon="0.6032610">
        <ele>549.2</ele>
        <time>2020-07-24T10:51:25Z</time>
      </trkpt>
      <trkpt lat="42.9661440" lon="0.6031920">
        <ele>549.6</ele>
        <time>2020-07-24T10:51:27Z</time>
      </trkpt>
      <trkpt lat="42.9661240" lon="0.6031560">
        <ele>549.8</ele>
        <time>2020-07-24T10:51:28Z</time>
      </trkpt>
      <trkpt lat="42.9660840" lon="0.6030790">
        <ele>550.4</ele>
        <time>2020-07-24T10:51:30Z</time>
      </trkpt>
      <trkpt lat="42.9660690" lon="0.6029810">
        <ele>551.0</ele>
        <time>2020-07-24T10:51:32Z</time>
      </trkpt>
      <trkpt lat="42.9660560" lon="0.6028800">
        <ele>551.4</ele>
        <time>2020-07-24T10:51:34Z</time>
      </trkpt>
      <trkpt lat="42.9660020" lon="0.6026360">
        <ele>552.6</ele>
        <time>2020-07-24T10:51:39Z</time>
      </trkpt>
      <trkpt lat="42.9659640" lon="0.6024990">
        <ele>553.4</ele>
        <time>2020-07-24T10:51:42Z</time>
      </trkpt>
      <trkpt lat="42.9659220" lon="0.6023600">
        <ele>553.6</ele>
        <time>2020-07-24T10:51:45Z</time>
      </trkpt>
      <trkpt lat="42.9658770" lon="0.6022240">
        <ele>554.2</ele>
        <time>2020-07-24T10:51:48Z</time>
      </trkpt>
      <trkpt lat="42.9658460" lon="0.6021300">
        <ele>554.4</ele>
        <time>2020-07-24T10:51:50Z</time>
      </trkpt>
      <trkpt lat="42.9658320" lon="0.6020850">
        <ele>554.6</ele>
        <time>2020-07-24T10:51:51Z</time>
      </trkpt>
      <trkpt lat="42.9657750" lon="0.6019150">
        <ele>555.8</ele>
        <time>2020-07-24T10:51:55Z</time>
      </trkpt>
      <trkpt lat="42.9657390" lon="0.6017830">
        <ele>556.2</ele>
        <time>2020-07-24T10:51:58Z</time>
      </trkpt>
      <trkpt lat="42.9657230" lon="0.6017390">
        <ele>556.6</ele>
        <time>2020-07-24T10:51:59Z</time>
      </trkpt>
      <trkpt lat="42.9657060" lon="0.6016990">
        <ele>557.0</ele>
        <time>2020-07-24T10:52:00Z</time>
      </trkpt>
      <trkpt lat="42.9656640" lon="0.6015700">
        <ele>557.6</ele>
        <time>2020-07-24T10:52:03Z</time>
      </trkpt>
      <trkpt lat="42.9656460" lon="0.6014680">
        <ele>558.0</ele>
        <time>2020-07-24T10:52:05Z</time>
      </trkpt>
      <trkpt lat="42.9656230" lon="0.6013700">
        <ele>558.6</ele>
        <time>2020-07-24T10:52:07Z</time>
      </trkpt>
      <trkpt lat="42.9655810" lon="0.6012400">
        <ele>559.2</ele>
        <time>2020-07-24T10:52:10Z</time>
      </trkpt>
      <trkpt lat="42.9655330" lon="0.6009250">
        <ele>560.2</ele>
        <time>2020-07-24T10:52:15Z</time>
      </trkpt>
      <trkpt lat="42.9655280" lon="0.6008300">
        <ele>560.4</ele>
        <time>2020-07-24T10:52:16Z</time>
      </trkpt>
      <trkpt lat="42.9655140" lon="0.6005130">
        <ele>561.2</ele>
        <time>2020-07-24T10:52:20Z</time>
      </trkpt>
      <trkpt lat="42.9655120" lon="0.6004510">
        <ele>561.2</ele>
        <time>2020-07-24T10:52:21Z</time>
      </trkpt>
      <trkpt lat="42.9655110" lon="0.6001650">
        <ele>562.2</ele>
        <time>2020-07-24T10:52:26Z</time>
      </trkpt>
      <trkpt lat="42.9655000" lon="0.6000210">
        <ele>562.8</ele>
        <time>2020-07-24T10:52:29Z</time>
      </trkpt>
      <trkpt lat="42.9655050" lon="0.5999310">
        <ele>563.0</ele>
        <time>2020-07-24T10:52:31Z</time>
      </trkpt>
      <trkpt lat="42.9655030" lon="0.5998420">
        <ele>563.4</ele>
        <time>2020-07-24T10:52:33Z</time>
      </trkpt>
      <trkpt lat="42.9654670" lon="0.5996510">
        <ele>564.4</ele>
        <time>2020-07-24T10:52:37Z</time>
      </trkpt>
      <trkpt lat="42.9654050" lon="0.5994620">
        <ele>565.4</ele>
        <time>2020-07-24T10:52:41Z</time>
      </trkpt>
      <trkpt lat="42.9653670" lon="0.5993300">
        <ele>566.0</ele>
        <time>2020-07-24T10:52:44Z</time>
      </trkpt>
      <trkpt lat="42.9653220" lon="0.5991150">
        <ele>566.6</ele>
        <time>2020-07-24T10:52:49Z</time>
      </trkpt>
      <trkpt lat="42.9653060" lon="0.5989700">
        <ele>567.2</ele>
        <time>2020-07-24T10:52:52Z</time>
      </trkpt>
      <trkpt lat="42.9652850" lon="0.5988250">
        <ele>567.6</ele>
        <time>2020-07-24T10:52:55Z</time>
      </trkpt>
      <trkpt lat="42.9652630" lon="0.5985390">
        <ele>568.6</ele>
        <time>2020-07-24T10:53:00Z</time>
      </trkpt>
      <trkpt lat="42.9652600" lon="0.5984830">
        <ele>568.8</ele>
        <time>2020-07-24T10:53:01Z</time>
      </trkpt>
      <trkpt lat="42.9652490" lon="0.5981630">
        <ele>570.0</ele>
        <time>2020-07-24T10:53:07Z</time>
      </trkpt>
      <trkpt lat="42.9652350" lon="0.5979040">
        <ele>571.0</ele>
        <time>2020-07-24T10:53:12Z</time>
      </trkpt>
      <trkpt lat="42.9652020" lon="0.5977540">
        <ele>571.4</ele>
        <time>2020-07-24T10:53:15Z</time>
      </trkpt>
      <trkpt lat="42.9651830" lon="0.5976330">
        <ele>571.6</ele>
        <time>2020-07-24T10:53:17Z</time>
      </trkpt>
      <trkpt lat="42.9651470" lon="0.5973610">
        <ele>571.8</ele>
        <time>2020-07-24T10:53:21Z</time>
      </trkpt>
      <trkpt lat="42.9651200" lon="0.5972290">
        <ele>572.0</ele>
        <time>2020-07-24T10:53:23Z</time>
      </trkpt>
      <trkpt lat="42.9650460" lon="0.5969120">
        <ele>573.0</ele>
        <time>2020-07-24T10:53:28Z</time>
      </trkpt>
      <trkpt lat="42.9650350" lon="0.5968480">
        <ele>573.2</ele>
        <time>2020-07-24T10:53:29Z</time>
      </trkpt>
      <trkpt lat="42.9649850" lon="0.5965760">
        <ele>574.2</ele>
        <time>2020-07-24T10:53:33Z</time>
      </trkpt>
      <trkpt lat="42.9649540" lon="0.5964280">
        <ele>574.6</ele>
        <time>2020-07-24T10:53:35Z</time>
      </trkpt>
      <trkpt lat="42.9648720" lon="0.5961560">
        <ele>575.4</ele>
        <time>2020-07-24T10:53:39Z</time>
      </trkpt>
      <trkpt lat="42.9648060" lon="0.5959850">
        <ele>575.8</ele>
        <time>2020-07-24T10:53:42Z</time>
      </trkpt>
      <trkpt lat="42.9647560" lon="0.5958140">
        <ele>576.4</ele>
        <time>2020-07-24T10:53:45Z</time>
      </trkpt>
      <trkpt lat="42.9647070" lon="0.5955660">
        <ele>577.2</ele>
        <time>2020-07-24T10:53:49Z</time>
      </trkpt>
      <trkpt lat="42.9647000" lon="0.5955010">
        <ele>577.8</ele>
        <time>2020-07-24T10:53:50Z</time>
      </trkpt>
      <trkpt lat="42.9646910" lon="0.5951370">
        <ele>578.8</ele>
        <time>2020-07-24T10:53:56Z</time>
      </trkpt>
      <trkpt lat="42.9646930" lon="0.5950800">
        <ele>579.0</ele>
        <time>2020-07-24T10:53:57Z</time>
      </trkpt>
      <trkpt lat="42.9647020" lon="0.5948530">
        <ele>580.0</ele>
        <time>2020-07-24T10:54:01Z</time>
      </trkpt>
      <trkpt lat="42.9646800" lon="0.5946880">
        <ele>580.4</ele>
        <time>2020-07-24T10:54:04Z</time>
      </trkpt>
      <trkpt lat="42.9646100" lon="0.5944830">
        <ele>581.0</ele>
        <time>2020-07-24T10:54:08Z</time>
      </trkpt>
      <trkpt lat="42.9645680" lon="0.5943920">
        <ele>581.4</ele>
        <time>2020-07-24T10:54:10Z</time>
      </trkpt>
      <trkpt lat="42.9644660" lon="0.5942140">
        <ele>582.0</ele>
        <time>2020-07-24T10:54:14Z</time>
      </trkpt>
      <trkpt lat="42.9643950" lon="0.5940590">
        <ele>583.0</ele>
        <time>2020-07-24T10:54:17Z</time>
      </trkpt>
      <trkpt lat="42.9643790" lon="0.5939990">
        <ele>583.2</ele>
        <time>2020-07-24T10:54:18Z</time>
      </trkpt>
      <trkpt lat="42.9643670" lon="0.5939360">
        <ele>583.4</ele>
        <time>2020-07-24T10:54:19Z</time>
      </trkpt>
      <trkpt lat="42.9643580" lon="0.5938030">
        <ele>583.6</ele>
        <time>2020-07-24T10:54:21Z</time>
      </trkpt>
      <trkpt lat="42.9643780" lon="0.5936690">
        <ele>583.8</ele>
        <time>2020-07-24T10:54:23Z</time>
      </trkpt>
      <trkpt lat="42.9644300" lon="0.5934850">
        <ele>584.0</ele>
        <time>2020-07-24T10:54:26Z</time>
      </trkpt>
      <trkpt lat="42.9644570" lon="0.5933550">
        <ele>583.8</ele>
        <time>2020-07-24T10:54:28Z</time>
      </trkpt>
      <trkpt lat="42.9644720" lon="0.5932220">
        <ele>584.4</ele>
        <time>2020-07-24T10:54:30Z</time>
      </trkpt>
      <trkpt lat="42.9644610" lon="0.5930940">
        <ele>584.6</ele>
        <time>2020-07-24T10:54:32Z</time>
      </trkpt>
      <trkpt lat="42.9644470" lon="0.5930330">
        <ele>584.6</ele>
        <time>2020-07-24T10:54:33Z</time>
      </trkpt>
      <trkpt lat="42.9644290" lon="0.5929750">
        <ele>584.6</ele>
        <time>2020-07-24T10:54:34Z</time>
      </trkpt>
      <trkpt lat="42.9643760" lon="0.5928730">
        <ele>584.8</ele>
        <time>2020-07-24T10:54:36Z</time>
      </trkpt>
      <trkpt lat="42.9643140" lon="0.5927990">
        <ele>585.0</ele>
        <time>2020-07-24T10:54:38Z</time>
      </trkpt>
      <trkpt lat="42.9642370" lon="0.5927380">
        <ele>585.4</ele>
        <time>2020-07-24T10:54:40Z</time>
      </trkpt>
      <trkpt lat="42.9640400" lon="0.5925900">
        <ele>586.0</ele>
        <time>2020-07-24T10:54:45Z</time>
      </trkpt>
      <trkpt lat="42.9638800" lon="0.5924330">
        <ele>586.6</ele>
        <time>2020-07-24T10:54:49Z</time>
      </trkpt>
      <trkpt lat="42.9638510" lon="0.5923840">
        <ele>586.6</ele>
        <time>2020-07-24T10:54:50Z</time>
      </trkpt>
      <trkpt lat="42.9638230" lon="0.5923300">
        <ele>586.6</ele>
        <time>2020-07-24T10:54:51Z</time>
      </trkpt>
      <trkpt lat="42.9637780" lon="0.5922080">
        <ele>587.0</ele>
        <time>2020-07-24T10:54:53Z</time>
      </trkpt>
      <trkpt lat="42.9637650" lon="0.5920720">
        <ele>587.4</ele>
        <time>2020-07-24T10:54:55Z</time>
      </trkpt>
      <trkpt lat="42.9637670" lon="0.5920040">
        <ele>587.6</ele>
        <time>2020-07-24T10:54:56Z</time>
      </trkpt>
      <trkpt lat="42.9637840" lon="0.5917940">
        <ele>588.0</ele>
        <time>2020-07-24T10:54:59Z</time>
      </trkpt>
      <trkpt lat="42.9637980" lon="0.5916510">
        <ele>588.2</ele>
        <time>2020-07-24T10:55:01Z</time>
      </trkpt>
      <trkpt lat="42.9638210" lon="0.5915110">
        <ele>588.2</ele>
        <time>2020-07-24T10:55:03Z</time>
      </trkpt>
      <trkpt lat="42.9638850" lon="0.5912520">
        <ele>588.8</ele>
        <time>2020-07-24T10:55:07Z</time>
      </trkpt>
      <trkpt lat="42.9638940" lon="0.5911900">
        <ele>589.0</ele>
        <time>2020-07-24T10:55:08Z</time>
      </trkpt>
      <trkpt lat="42.9638700" lon="0.5910160">
        <ele>589.8</ele>
        <time>2020-07-24T10:55:11Z</time>
      </trkpt>
      <trkpt lat="42.9638410" lon="0.5909570">
        <ele>590.0</ele>
        <time>2020-07-24T10:55:12Z</time>
      </trkpt>
      <trkpt lat="42.9638020" lon="0.5909030">
        <ele>590.0</ele>
        <time>2020-07-24T10:55:13Z</time>
      </trkpt>
      <trkpt lat="42.9637100" lon="0.5908180">
        <ele>590.4</ele>
        <time>2020-07-24T10:55:15Z</time>
      </trkpt>
      <trkpt lat="42.9636140" lon="0.5907680">
        <ele>590.6</ele>
        <time>2020-07-24T10:55:17Z</time>
      </trkpt>
      <trkpt lat="42.9634700" lon="0.5907200">
        <ele>591.0</ele>
        <time>2020-07-24T10:55:20Z</time>
      </trkpt>
      <trkpt lat="42.9634220" lon="0.5907140">
        <ele>591.0</ele>
        <time>2020-07-24T10:55:21Z</time>
      </trkpt>
      <trkpt lat="42.9631670" lon="0.5906910">
        <ele>592.0</ele>
        <time>2020-07-24T10:55:26Z</time>
      </trkpt>
      <trkpt lat="42.9631150" lon="0.5906750">
        <ele>592.2</ele>
        <time>2020-07-24T10:55:27Z</time>
      </trkpt>
      <trkpt lat="42.9628280" lon="0.5905430">
        <ele>593.2</ele>
        <time>2020-07-24T10:55:33Z</time>
      </trkpt>
      <trkpt lat="42.9627280" lon="0.5905350">
        <ele>593.4</ele>
        <time>2020-07-24T10:55:35Z</time>
      </trkpt>
      <trkpt lat="42.9626290" lon="0.5905690">
        <ele>593.6</ele>
        <time>2020-07-24T10:55:37Z</time>
      </trkpt>
      <trkpt lat="42.9624870" lon="0.5906480">
        <ele>594.0</ele>
        <time>2020-07-24T10:55:40Z</time>
      </trkpt>
      <trkpt lat="42.9623970" lon="0.5907080">
        <ele>594.4</ele>
        <time>2020-07-24T10:55:42Z</time>
      </trkpt>
      <trkpt lat="42.9623500" lon="0.5907380">
        <ele>594.4</ele>
        <time>2020-07-24T10:55:43Z</time>
      </trkpt>
      <trkpt lat="42.9621100" lon="0.5908420">
        <ele>595.0</ele>
        <time>2020-07-24T10:55:48Z</time>
      </trkpt>
      <trkpt lat="42.9620580" lon="0.5908450">
        <ele>595.0</ele>
        <time>2020-07-24T10:55:49Z</time>
      </trkpt>
      <trkpt lat="42.9619580" lon="0.5908290">
        <ele>595.2</ele>
        <time>2020-07-24T10:55:51Z</time>
      </trkpt>
      <trkpt lat="42.9619110" lon="0.5908140">
        <ele>595.4</ele>
        <time>2020-07-24T10:55:52Z</time>
      </trkpt>
      <trkpt lat="42.9618230" lon="0.5907710">
        <ele>595.6</ele>
        <time>2020-07-24T10:55:54Z</time>
      </trkpt>
      <trkpt lat="42.9617340" lon="0.5907410">
        <ele>596.2</ele>
        <time>2020-07-24T10:55:56Z</time>
      </trkpt>
      <trkpt lat="42.9616890" lon="0.5907320">
        <ele>596.6</ele>
        <time>2020-07-24T10:55:57Z</time>
      </trkpt>
      <trkpt lat="42.9615500" lon="0.5907310">
        <ele>597.2</ele>
        <time>2020-07-24T10:56:00Z</time>
      </trkpt>
      <trkpt lat="42.9614580" lon="0.5907410">
        <ele>597.6</ele>
        <time>2020-07-24T10:56:02Z</time>
      </trkpt>
      <trkpt lat="42.9612100" lon="0.5907730">
        <ele>598.4</ele>
        <time>2020-07-24T10:56:08Z</time>
      </trkpt>
      <trkpt lat="42.9611610" lon="0.5907780">
        <ele>598.6</ele>
        <time>2020-07-24T10:56:10Z</time>
      </trkpt>
      <trkpt lat="42.9611530" lon="0.5907930">
        <ele>598.6</ele>
        <time>2020-07-24T10:56:11Z</time>
      </trkpt>
      <trkpt lat="42.9611560" lon="0.5908020">
        <ele>598.8</ele>
        <time>2020-07-24T10:56:12Z</time>
      </trkpt>
      <trkpt lat="42.9611720" lon="0.5908040">
        <ele>598.8</ele>
        <time>2020-07-24T10:56:13Z</time>
      </trkpt>
      <trkpt lat="42.9611950" lon="0.5908000">
        <ele>598.8</ele>
        <time>2020-07-24T10:56:14Z</time>
      </trkpt>
      <trkpt lat="42.9616050" lon="0.5907240">
        <ele>596.6</ele>
        <time>2020-07-24T10:57:18Z</time>
      </trkpt>
      <trkpt lat="42.9615860" lon="0.5907320">
        <ele>596.8</ele>
        <time>2020-07-24T10:57:19Z</time>
      </trkpt>
      <trkpt lat="42.9614400" lon="0.5907520">
        <ele>597.4</ele>
        <time>2020-07-24T10:57:23Z</time>
      </trkpt>
      <trkpt lat="42.9613490" lon="0.5907600">
        <ele>597.8</ele>
        <time>2020-07-24T10:57:25Z</time>
      </trkpt>
      <trkpt lat="42.9612090" lon="0.5907790">
        <ele>598.2</ele>
        <time>2020-07-24T10:57:28Z</time>
      </trkpt>
      <trkpt lat="42.9610710" lon="0.5907980">
        <ele>598.8</ele>
        <time>2020-07-24T10:57:31Z</time>
      </trkpt>
      <trkpt lat="42.9610250" lon="0.5908010">
        <ele>599.0</ele>
        <time>2020-07-24T10:57:32Z</time>
      </trkpt>
      <trkpt lat="42.9608960" lon="0.5908100">
        <ele>599.6</ele>
        <time>2020-07-24T10:57:35Z</time>
      </trkpt>
      <trkpt lat="42.9608550" lon="0.5908110">
        <ele>599.8</ele>
        <time>2020-07-24T10:57:36Z</time>
      </trkpt>
      <trkpt lat="42.9607710" lon="0.5908100">
        <ele>600.4</ele>
        <time>2020-07-24T10:57:38Z</time>
      </trkpt>
      <trkpt lat="42.9607300" lon="0.5908100">
        <ele>600.8</ele>
        <time>2020-07-24T10:57:39Z</time>
      </trkpt>
      <trkpt lat="42.9606020" lon="0.5907930">
        <ele>601.2</ele>
        <time>2020-07-24T10:57:42Z</time>
      </trkpt>
      <trkpt lat="42.9605180" lon="0.5907600">
        <ele>601.6</ele>
        <time>2020-07-24T10:57:44Z</time>
      </trkpt>
      <trkpt lat="42.9604760" lon="0.5907370">
        <ele>601.8</ele>
        <time>2020-07-24T10:57:45Z</time>
      </trkpt>
      <trkpt lat="42.9604360" lon="0.5907090">
        <ele>602.0</ele>
        <time>2020-07-24T10:57:46Z</time>
      </trkpt>
      <trkpt lat="42.9603990" lon="0.5906740">
        <ele>602.2</ele>
        <time>2020-07-24T10:57:47Z</time>
      </trkpt>
      <trkpt lat="42.9603070" lon="0.5905500">
        <ele>602.6</ele>
        <time>2020-07-24T10:57:50Z</time>
      </trkpt>
      <trkpt lat="42.9602820" lon="0.5905040">
        <ele>603.0</ele>
        <time>2020-07-24T10:57:51Z</time>
      </trkpt>
      <trkpt lat="42.9601320" lon="0.5901980">
        <ele>604.0</ele>
        <time>2020-07-24T10:57:57Z</time>
      </trkpt>
      <trkpt lat="42.9601060" lon="0.5901420">
        <ele>604.2</ele>
        <time>2020-07-24T10:57:58Z</time>
      </trkpt>
      <trkpt lat="42.9600040" lon="0.5899120">
        <ele>604.6</ele>
        <time>2020-07-24T10:58:02Z</time>
      </trkpt>
      <trkpt lat="42.9598960" lon="0.5896710">
        <ele>604.8</ele>
        <time>2020-07-24T10:58:06Z</time>
      </trkpt>
      <trkpt lat="42.9598450" lon="0.5895490">
        <ele>605.0</ele>
        <time>2020-07-24T10:58:08Z</time>
      </trkpt>
      <trkpt lat="42.9596830" lon="0.5891840">
        <ele>605.8</ele>
        <time>2020-07-24T10:58:14Z</time>
      </trkpt>
      <trkpt lat="42.9596280" lon="0.5890620">
        <ele>606.0</ele>
        <time>2020-07-24T10:58:16Z</time>
      </trkpt>
      <trkpt lat="42.9595720" lon="0.5889410">
        <ele>606.4</ele>
        <time>2020-07-24T10:58:18Z</time>
      </trkpt>
      <trkpt lat="42.9594620" lon="0.5886960">
        <ele>607.0</ele>
        <time>2020-07-24T10:58:22Z</time>
      </trkpt>
      <trkpt lat="42.9593050" lon="0.5884140">
        <ele>607.4</ele>
        <time>2020-07-24T10:58:27Z</time>
      </trkpt>
      <trkpt lat="42.9591700" lon="0.5882260">
        <ele>608.4</ele>
        <time>2020-07-24T10:58:31Z</time>
      </trkpt>
      <trkpt lat="42.9590470" lon="0.5880500">
        <ele>609.4</ele>
        <time>2020-07-24T10:58:35Z</time>
      </trkpt>
      <trkpt lat="42.9590160" lon="0.5880050">
        <ele>609.4</ele>
        <time>2020-07-24T10:58:36Z</time>
      </trkpt>
      <trkpt lat="42.9589010" lon="0.5878300">
        <ele>610.6</ele>
        <time>2020-07-24T10:58:40Z</time>
      </trkpt>
      <trkpt lat="42.9588420" lon="0.5877460">
        <ele>611.4</ele>
        <time>2020-07-24T10:58:42Z</time>
      </trkpt>
      <trkpt lat="42.9588130" lon="0.5877040">
        <ele>611.8</ele>
        <time>2020-07-24T10:58:43Z</time>
      </trkpt>
      <trkpt lat="42.9587290" lon="0.5875780">
        <ele>612.6</ele>
        <time>2020-07-24T10:58:46Z</time>
      </trkpt>
      <trkpt lat="42.9586740" lon="0.5874940">
        <ele>612.8</ele>
        <time>2020-07-24T10:58:48Z</time>
      </trkpt>
      <trkpt lat="42.9586440" lon="0.5874540">
        <ele>613.0</ele>
        <time>2020-07-24T10:58:49Z</time>
      </trkpt>
      <trkpt lat="42.9586110" lon="0.5874170">
        <ele>613.2</ele>
        <time>2020-07-24T10:58:50Z</time>
      </trkpt>
      <trkpt lat="42.9585420" lon="0.5873470">
        <ele>613.6</ele>
        <time>2020-07-24T10:58:52Z</time>
      </trkpt>
      <trkpt lat="42.9585050" lon="0.5873180">
        <ele>613.8</ele>
        <time>2020-07-24T10:58:53Z</time>
      </trkpt>
      <trkpt lat="42.9584670" lon="0.5872910">
        <ele>614.0</ele>
        <time>2020-07-24T10:58:54Z</time>
      </trkpt>
      <trkpt lat="42.9583030" lon="0.5871900">
        <ele>614.6</ele>
        <time>2020-07-24T10:58:58Z</time>
      </trkpt>
      <trkpt lat="42.9581220" lon="0.5870880">
        <ele>614.8</ele>
        <time>2020-07-24T10:59:02Z</time>
      </trkpt>
      <trkpt lat="42.9578230" lon="0.5868930">
        <ele>614.8</ele>
        <time>2020-07-24T10:59:08Z</time>
      </trkpt>
      <trkpt lat="42.9577780" lon="0.5868430">
        <ele>614.8</ele>
        <time>2020-07-24T10:59:09Z</time>
      </trkpt>
      <trkpt lat="42.9577390" lon="0.5867850">
        <ele>614.8</ele>
        <time>2020-07-24T10:59:10Z</time>
      </trkpt>
      <trkpt lat="42.9577070" lon="0.5867190">
        <ele>614.8</ele>
        <time>2020-07-24T10:59:11Z</time>
      </trkpt>
      <trkpt lat="42.9576570" lon="0.5865730">
        <ele>614.8</ele>
        <time>2020-07-24T10:59:13Z</time>
      </trkpt>
      <trkpt lat="42.9575430" lon="0.5861800">
        <ele>614.8</ele>
        <time>2020-07-24T10:59:18Z</time>
      </trkpt>
      <trkpt lat="42.9574820" lon="0.5859300">
        <ele>614.8</ele>
        <time>2020-07-24T10:59:21Z</time>
      </trkpt>
      <trkpt lat="42.9573460" lon="0.5854260">
        <ele>614.8</ele>
        <time>2020-07-24T10:59:27Z</time>
      </trkpt>
      <trkpt lat="42.9572670" lon="0.5851010">
        <ele>615.0</ele>
        <time>2020-07-24T10:59:31Z</time>
      </trkpt>
      <trkpt lat="42.9571650" lon="0.5847460">
        <ele>616.4</ele>
        <time>2020-07-24T10:59:36Z</time>
      </trkpt>
      <trkpt lat="42.9571300" lon="0.5846220">
        <ele>617.0</ele>
        <time>2020-07-24T10:59:38Z</time>
      </trkpt>
      <trkpt lat="42.9571010" lon="0.5845010">
        <ele>617.6</ele>
        <time>2020-07-24T10:59:40Z</time>
      </trkpt>
      <trkpt lat="42.9570670" lon="0.5842590">
        <ele>618.4</ele>
        <time>2020-07-24T10:59:44Z</time>
      </trkpt>
      <trkpt lat="42.9570650" lon="0.5841950">
        <ele>618.6</ele>
        <time>2020-07-24T10:59:45Z</time>
      </trkpt>
      <trkpt lat="42.9570620" lon="0.5841300">
        <ele>618.8</ele>
        <time>2020-07-24T10:59:46Z</time>
      </trkpt>
      <trkpt lat="42.9570570" lon="0.5837480">
        <ele>619.2</ele>
        <time>2020-07-24T10:59:52Z</time>
      </trkpt>
      <trkpt lat="42.9570530" lon="0.5836260">
        <ele>619.6</ele>
        <time>2020-07-24T10:59:54Z</time>
      </trkpt>
      <trkpt lat="42.9570510" lon="0.5835670">
        <ele>619.8</ele>
        <time>2020-07-24T10:59:55Z</time>
      </trkpt>
      <trkpt lat="42.9570350" lon="0.5834490">
        <ele>620.0</ele>
        <time>2020-07-24T10:59:57Z</time>
      </trkpt>
      <trkpt lat="42.9570160" lon="0.5833170">
        <ele>620.2</ele>
        <time>2020-07-24T10:59:59Z</time>
      </trkpt>
      <trkpt lat="42.9570110" lon="0.5832470">
        <ele>620.0</ele>
        <time>2020-07-24T11:00:00Z</time>
      </trkpt>
      <trkpt lat="42.9569880" lon="0.5829220">
        <ele>618.6</ele>
        <time>2020-07-24T11:00:04Z</time>
      </trkpt>
      <trkpt lat="42.9569740" lon="0.5827400">
        <ele>617.8</ele>
        <time>2020-07-24T11:00:06Z</time>
      </trkpt>
      <trkpt lat="42.9569720" lon="0.5826450">
        <ele>617.4</ele>
        <time>2020-07-24T11:00:07Z</time>
      </trkpt>
      <trkpt lat="42.9569790" lon="0.5824610">
        <ele>616.4</ele>
        <time>2020-07-24T11:00:09Z</time>
      </trkpt>
      <trkpt lat="42.9569920" lon="0.5823730">
        <ele>616.2</ele>
        <time>2020-07-24T11:00:10Z</time>
      </trkpt>
      <trkpt lat="42.9570100" lon="0.5822910">
        <ele>615.8</ele>
        <time>2020-07-24T11:00:11Z</time>
      </trkpt>
      <trkpt lat="42.9571220" lon="0.5819140">
        <ele>615.2</ele>
        <time>2020-07-24T11:00:16Z</time>
      </trkpt>
      <trkpt lat="42.9572660" lon="0.5815840">
        <ele>615.2</ele>
        <time>2020-07-24T11:00:21Z</time>
      </trkpt>
      <trkpt lat="42.9573250" lon="0.5814470">
        <ele>615.0</ele>
        <time>2020-07-24T11:00:23Z</time>
      </trkpt>
      <trkpt lat="42.9574080" lon="0.5811590">
        <ele>614.2</ele>
        <time>2020-07-24T11:00:27Z</time>
      </trkpt>
      <trkpt lat="42.9574170" lon="0.5810830">
        <ele>614.2</ele>
        <time>2020-07-24T11:00:28Z</time>
      </trkpt>
      <trkpt lat="42.9574310" lon="0.5809250">
        <ele>614.6</ele>
        <time>2020-07-24T11:00:30Z</time>
      </trkpt>
      <trkpt lat="42.9574130" lon="0.5806840">
        <ele>615.0</ele>
        <time>2020-07-24T11:00:33Z</time>
      </trkpt>
      <trkpt lat="42.9573830" lon="0.5802280">
        <ele>615.2</ele>
        <time>2020-07-24T11:00:39Z</time>
      </trkpt>
      <trkpt lat="42.9573870" lon="0.5801480">
        <ele>615.2</ele>
        <time>2020-07-24T11:00:40Z</time>
      </trkpt>
      <trkpt lat="42.9574350" lon="0.5797560">
        <ele>615.6</ele>
        <time>2020-07-24T11:00:45Z</time>
      </trkpt>
      <trkpt lat="42.9574540" lon="0.5796130">
        <ele>615.8</ele>
        <time>2020-07-24T11:00:47Z</time>
      </trkpt>
      <trkpt lat="42.9574600" lon="0.5795430">
        <ele>616.0</ele>
        <time>2020-07-24T11:00:48Z</time>
      </trkpt>
      <trkpt lat="42.9574800" lon="0.5792290">
        <ele>617.2</ele>
        <time>2020-07-24T11:00:53Z</time>
      </trkpt>
      <trkpt lat="42.9574820" lon="0.5791680">
        <ele>617.6</ele>
        <time>2020-07-24T11:00:54Z</time>
      </trkpt>
      <trkpt lat="42.9574940" lon="0.5788280">
        <ele>618.0</ele>
        <time>2020-07-24T11:00:59Z</time>
      </trkpt>
      <trkpt lat="42.9574970" lon="0.5787540">
        <ele>617.8</ele>
        <time>2020-07-24T11:01:00Z</time>
      </trkpt>
      <trkpt lat="42.9575070" lon="0.5785250">
        <ele>617.4</ele>
        <time>2020-07-24T11:01:03Z</time>
      </trkpt>
      <trkpt lat="42.9575130" lon="0.5782740">
        <ele>617.0</ele>
        <time>2020-07-24T11:01:06Z</time>
      </trkpt>
      <trkpt lat="42.9575040" lon="0.5777710">
        <ele>616.6</ele>
        <time>2020-07-24T11:01:12Z</time>
      </trkpt>
      <trkpt lat="42.9575070" lon="0.5774860">
        <ele>615.8</ele>
        <time>2020-07-24T11:01:15Z</time>
      </trkpt>
      <trkpt lat="42.9575200" lon="0.5773850">
        <ele>615.4</ele>
        <time>2020-07-24T11:01:16Z</time>
      </trkpt>
      <trkpt lat="42.9575410" lon="0.5772860">
        <ele>615.0</ele>
        <time>2020-07-24T11:01:17Z</time>
      </trkpt>
      <trkpt lat="42.9575740" lon="0.5771900">
        <ele>614.4</ele>
        <time>2020-07-24T11:01:18Z</time>
      </trkpt>
      <trkpt lat="42.9576160" lon="0.5770970">
        <ele>614.0</ele>
        <time>2020-07-24T11:01:19Z</time>
      </trkpt>
      <trkpt lat="42.9577110" lon="0.5769300">
        <ele>613.4</ele>
        <time>2020-07-24T11:01:21Z</time>
      </trkpt>
      <trkpt lat="42.9579920" lon="0.5765320">
        <ele>613.8</ele>
        <time>2020-07-24T11:01:27Z</time>
      </trkpt>
      <trkpt lat="42.9580590" lon="0.5764150">
        <ele>614.0</ele>
        <time>2020-07-24T11:01:29Z</time>
      </trkpt>
      <trkpt lat="42.9581250" lon="0.5762150">
        <ele>614.4</ele>
        <time>2020-07-24T11:01:32Z</time>
      </trkpt>
      <trkpt lat="42.9581350" lon="0.5761360">
        <ele>614.4</ele>
        <time>2020-07-24T11:01:33Z</time>
      </trkpt>
      <trkpt lat="42.9581480" lon="0.5758750">
        <ele>613.6</ele>
        <time>2020-07-24T11:01:36Z</time>
      </trkpt>
      <trkpt lat="42.9581440" lon="0.5757810">
        <ele>613.4</ele>
        <time>2020-07-24T11:01:37Z</time>
      </trkpt>
      <trkpt lat="42.9581170" lon="0.5754600">
        <ele>612.2</ele>
        <time>2020-07-24T11:01:40Z</time>
      </trkpt>
      <trkpt lat="42.9581090" lon="0.5753470">
        <ele>612.0</ele>
        <time>2020-07-24T11:01:41Z</time>
      </trkpt>
      <trkpt lat="42.9581070" lon="0.5751200">
        <ele>611.0</ele>
        <time>2020-07-24T11:01:43Z</time>
      </trkpt>
      <trkpt lat="42.9581380" lon="0.5748840">
        <ele>610.2</ele>
        <time>2020-07-24T11:01:45Z</time>
      </trkpt>
      <trkpt lat="42.9581650" lon="0.5747690">
        <ele>609.8</ele>
        <time>2020-07-24T11:01:46Z</time>
      </trkpt>
      <trkpt lat="42.9582500" lon="0.5744260">
        <ele>608.6</ele>
        <time>2020-07-24T11:01:49Z</time>
      </trkpt>
      <trkpt lat="42.9583020" lon="0.5742040">
        <ele>607.6</ele>
        <time>2020-07-24T11:01:51Z</time>
      </trkpt>
      <trkpt lat="42.9583840" lon="0.5738760">
        <ele>606.4</ele>
        <time>2020-07-24T11:01:54Z</time>
      </trkpt>
      <trkpt lat="42.9584740" lon="0.5735420">
        <ele>605.2</ele>
        <time>2020-07-24T11:01:57Z</time>
      </trkpt>
      <trkpt lat="42.9585620" lon="0.5731960">
        <ele>604.0</ele>
        <time>2020-07-24T11:02:00Z</time>
      </trkpt>
      <trkpt lat="42.9586220" lon="0.5729680">
        <ele>603.6</ele>
        <time>2020-07-24T11:02:02Z</time>
      </trkpt>
      <trkpt lat="42.9588180" lon="0.5723490">
        <ele>603.6</ele>
        <time>2020-07-24T11:02:08Z</time>
      </trkpt>
      <trkpt lat="42.9588670" lon="0.5721770">
        <ele>603.6</ele>
        <time>2020-07-24T11:02:10Z</time>
      </trkpt>
      <trkpt lat="42.9588930" lon="0.5720110">
        <ele>604.0</ele>
        <time>2020-07-24T11:02:12Z</time>
      </trkpt>
      <trkpt lat="42.9589280" lon="0.5716220">
        <ele>604.8</ele>
        <time>2020-07-24T11:02:17Z</time>
      </trkpt>
      <trkpt lat="42.9589370" lon="0.5714650">
        <ele>604.8</ele>
        <time>2020-07-24T11:02:19Z</time>
      </trkpt>
      <trkpt lat="42.9589510" lon="0.5713050">
        <ele>605.0</ele>
        <time>2020-07-24T11:02:21Z</time>
      </trkpt>
      <trkpt lat="42.9590150" lon="0.5708140">
        <ele>604.8</ele>
        <time>2020-07-24T11:02:27Z</time>
      </trkpt>
      <trkpt lat="42.9590500" lon="0.5705790">
        <ele>604.0</ele>
        <time>2020-07-24T11:02:30Z</time>
      </trkpt>
      <trkpt lat="42.9590880" lon="0.5704340">
        <ele>603.4</ele>
        <time>2020-07-24T11:02:32Z</time>
      </trkpt>
      <trkpt lat="42.9591170" lon="0.5703650">
        <ele>603.0</ele>
        <time>2020-07-24T11:02:33Z</time>
      </trkpt>
      <trkpt lat="42.9591960" lon="0.5702400">
        <ele>603.0</ele>
        <time>2020-07-24T11:02:35Z</time>
      </trkpt>
      <trkpt lat="42.9593040" lon="0.5701650">
        <ele>603.2</ele>
        <time>2020-07-24T11:02:37Z</time>
      </trkpt>
      <trkpt lat="42.9593690" lon="0.5701460">
        <ele>603.0</ele>
        <time>2020-07-24T11:02:38Z</time>
      </trkpt>
      <trkpt lat="42.9595890" lon="0.5700900">
        <ele>601.8</ele>
        <time>2020-07-24T11:02:41Z</time>
      </trkpt>
      <trkpt lat="42.9597530" lon="0.5700470">
        <ele>600.4</ele>
        <time>2020-07-24T11:02:43Z</time>
      </trkpt>
      <trkpt lat="42.9598380" lon="0.5700230">
        <ele>599.4</ele>
        <time>2020-07-24T11:02:44Z</time>
      </trkpt>
      <trkpt lat="42.9600040" lon="0.5699770">
        <ele>597.8</ele>
        <time>2020-07-24T11:02:46Z</time>
      </trkpt>
      <trkpt lat="42.9600850" lon="0.5699560">
        <ele>597.2</ele>
        <time>2020-07-24T11:02:47Z</time>
      </trkpt>
      <trkpt lat="42.9601680" lon="0.5699350">
        <ele>596.6</ele>
        <time>2020-07-24T11:02:48Z</time>
      </trkpt>
      <trkpt lat="42.9602450" lon="0.5699020">
        <ele>596.0</ele>
        <time>2020-07-24T11:02:49Z</time>
      </trkpt>
      <trkpt lat="42.9603160" lon="0.5698600">
        <ele>595.4</ele>
        <time>2020-07-24T11:02:50Z</time>
      </trkpt>
      <trkpt lat="42.9603860" lon="0.5698130">
        <ele>595.0</ele>
        <time>2020-07-24T11:02:51Z</time>
      </trkpt>
      <trkpt lat="42.9604510" lon="0.5697580">
        <ele>594.4</ele>
        <time>2020-07-24T11:02:52Z</time>
      </trkpt>
      <trkpt lat="42.9605600" lon="0.5696150">
        <ele>593.4</ele>
        <time>2020-07-24T11:02:54Z</time>
      </trkpt>
      <trkpt lat="42.9606060" lon="0.5695300">
        <ele>592.8</ele>
        <time>2020-07-24T11:02:55Z</time>
      </trkpt>
      <trkpt lat="42.9606820" lon="0.5693520">
        <ele>591.8</ele>
        <time>2020-07-24T11:02:57Z</time>
      </trkpt>
      <trkpt lat="42.9607080" lon="0.5692600">
        <ele>591.0</ele>
        <time>2020-07-24T11:02:58Z</time>
      </trkpt>
      <trkpt lat="42.9607210" lon="0.5691610">
        <ele>590.4</ele>
        <time>2020-07-24T11:02:59Z</time>
      </trkpt>
      <trkpt lat="42.9607170" lon="0.5690650">
        <ele>589.8</ele>
        <time>2020-07-24T11:03:00Z</time>
      </trkpt>
      <trkpt lat="42.9606970" lon="0.5689730">
        <ele>588.8</ele>
        <time>2020-07-24T11:03:01Z</time>
      </trkpt>
      <trkpt lat="42.9606660" lon="0.5688840">
        <ele>588.8</ele>
        <time>2020-07-24T11:03:02Z</time>
      </trkpt>
      <trkpt lat="42.9605910" lon="0.5687210">
        <ele>587.8</ele>
        <time>2020-07-24T11:03:04Z</time>
      </trkpt>
      <trkpt lat="42.9605100" lon="0.5685770">
        <ele>587.0</ele>
        <time>2020-07-24T11:03:06Z</time>
      </trkpt>
      <trkpt lat="42.9604730" lon="0.5685220">
        <ele>586.8</ele>
        <time>2020-07-24T11:03:07Z</time>
      </trkpt>
      <trkpt lat="42.9603440" lon="0.5683760">
        <ele>586.0</ele>
        <time>2020-07-24T11:03:11Z</time>
      </trkpt>
      <trkpt lat="42.9602500" lon="0.5683660">
        <ele>585.8</ele>
        <time>2020-07-24T11:03:13Z</time>
      </trkpt>
      <trkpt lat="42.9601480" lon="0.5684010">
        <ele>586.0</ele>
        <time>2020-07-24T11:03:15Z</time>
      </trkpt>
      <trkpt lat="42.9600410" lon="0.5684220">
        <ele>586.2</ele>
        <time>2020-07-24T11:03:17Z</time>
      </trkpt>
      <trkpt lat="42.9599410" lon="0.5684070">
        <ele>586.4</ele>
        <time>2020-07-24T11:03:19Z</time>
      </trkpt>
      <trkpt lat="42.9598510" lon="0.5683500">
        <ele>586.6</ele>
        <time>2020-07-24T11:03:21Z</time>
      </trkpt>
      <trkpt lat="42.9597740" lon="0.5682620">
        <ele>586.6</ele>
        <time>2020-07-24T11:03:23Z</time>
      </trkpt>
      <trkpt lat="42.9595590" lon="0.5679290">
        <ele>587.0</ele>
        <time>2020-07-24T11:03:29Z</time>
      </trkpt>
      <trkpt lat="42.9594820" lon="0.5677930">
        <ele>587.0</ele>
        <time>2020-07-24T11:03:31Z</time>
      </trkpt>
      <trkpt lat="42.9569750" lon="0.5670760">
        <ele>591.6</ele>
        <time>2020-07-24T11:26:38Z</time>
      </trkpt>
      <trkpt lat="42.9569640" lon="0.5670720">
        <ele>591.6</ele>
        <time>2020-07-24T11:26:39Z</time>
      </trkpt>
      <trkpt lat="42.9569490" lon="0.5670780">
        <ele>591.6</ele>
        <time>2020-07-24T11:26:40Z</time>
      </trkpt>
      <trkpt lat="42.9569010" lon="0.5671000">
        <ele>592.2</ele>
        <time>2020-07-24T11:26:42Z</time>
      </trkpt>
      <trkpt lat="42.9568650" lon="0.5671070">
        <ele>592.6</ele>
        <time>2020-07-24T11:26:43Z</time>
      </trkpt>
      <trkpt lat="42.9567540" lon="0.5671350">
        <ele>593.8</ele>
        <time>2020-07-24T11:26:46Z</time>
      </trkpt>
      <trkpt lat="42.9566400" lon="0.5671610">
        <ele>594.6</ele>
        <time>2020-07-24T11:26:49Z</time>
      </trkpt>
      <trkpt lat="42.9566010" lon="0.5671730">
        <ele>594.8</ele>
        <time>2020-07-24T11:26:50Z</time>
      </trkpt>
      <trkpt lat="42.9565630" lon="0.5671860">
        <ele>595.0</ele>
        <time>2020-07-24T11:26:51Z</time>
      </trkpt>
      <trkpt lat="42.9565240" lon="0.5671970">
        <ele>595.2</ele>
        <time>2020-07-24T11:26:52Z</time>
      </trkpt>
      <trkpt lat="42.9562820" lon="0.5672420">
        <ele>595.6</ele>
        <time>2020-07-24T11:26:58Z</time>
      </trkpt>
      <trkpt lat="42.9562410" lon="0.5672440">
        <ele>595.8</ele>
        <time>2020-07-24T11:26:59Z</time>
      </trkpt>
      <trkpt lat="42.9562000" lon="0.5672450">
        <ele>596.0</ele>
        <time>2020-07-24T11:27:00Z</time>
      </trkpt>
      <trkpt lat="42.9561610" lon="0.5672430">
        <ele>596.2</ele>
        <time>2020-07-24T11:27:01Z</time>
      </trkpt>
      <trkpt lat="42.9559690" lon="0.5671840">
        <ele>597.0</ele>
        <time>2020-07-24T11:27:06Z</time>
      </trkpt>
      <trkpt lat="42.9558660" lon="0.5671240">
        <ele>597.2</ele>
        <time>2020-07-24T11:27:09Z</time>
      </trkpt>
      <trkpt lat="42.9557280" lon="0.5670540">
        <ele>598.0</ele>
        <time>2020-07-24T11:27:13Z</time>
      </trkpt>
      <trkpt lat="42.9556640" lon="0.5670100">
        <ele>598.4</ele>
        <time>2020-07-24T11:27:15Z</time>
      </trkpt>
      <trkpt lat="42.9555970" lon="0.5669740">
        <ele>598.8</ele>
        <time>2020-07-24T11:27:17Z</time>
      </trkpt>
      <trkpt lat="42.9555680" lon="0.5669450">
        <ele>598.8</ele>
        <time>2020-07-24T11:27:18Z</time>
      </trkpt>
      <trkpt lat="42.9555370" lon="0.5669170">
        <ele>598.8</ele>
        <time>2020-07-24T11:27:19Z</time>
      </trkpt>
      <trkpt lat="42.9555060" lon="0.5668870">
        <ele>598.8</ele>
        <time>2020-07-24T11:27:20Z</time>
      </trkpt>
      <trkpt lat="42.9554750" lon="0.5668610">
        <ele>599.0</ele>
        <time>2020-07-24T11:27:21Z</time>
      </trkpt>
      <trkpt lat="42.9554430" lon="0.5668320">
        <ele>599.2</ele>
        <time>2020-07-24T11:27:22Z</time>
      </trkpt>
      <trkpt lat="42.9553750" lon="0.5667760">
        <ele>599.4</ele>
        <time>2020-07-24T11:27:24Z</time>
      </trkpt>
      <trkpt lat="42.9552300" lon="0.5666960">
        <ele>600.6</ele>
        <time>2020-07-24T11:27:28Z</time>
      </trkpt>
      <trkpt lat="42.9550670" lon="0.5666670">
        <ele>601.6</ele>
        <time>2020-07-24T11:27:33Z</time>
      </trkpt>
      <trkpt lat="42.9549960" lon="0.5666820">
        <ele>601.8</ele>
        <time>2020-07-24T11:27:35Z</time>
      </trkpt>
      <trkpt lat="42.9548450" lon="0.5667190">
        <ele>602.6</ele>
        <time>2020-07-24T11:27:39Z</time>
      </trkpt>
      <trkpt lat="42.9547740" lon="0.5667330">
        <ele>603.0</ele>
        <time>2020-07-24T11:27:41Z</time>
      </trkpt>
      <trkpt lat="42.9547030" lon="0.5667500">
        <ele>603.6</ele>
        <time>2020-07-24T11:27:43Z</time>
      </trkpt>
      <trkpt lat="42.9546670" lon="0.5667560">
        <ele>604.0</ele>
        <time>2020-07-24T11:27:44Z</time>
      </trkpt>
      <trkpt lat="42.9544430" lon="0.5667900">
        <ele>605.0</ele>
        <time>2020-07-24T11:27:50Z</time>
      </trkpt>
      <trkpt lat="42.9543670" lon="0.5668100">
        <ele>605.2</ele>
        <time>2020-07-24T11:27:52Z</time>
      </trkpt>
      <trkpt lat="42.9542600" lon="0.5668480">
        <ele>606.2</ele>
        <time>2020-07-24T11:27:55Z</time>
      </trkpt>
      <trkpt lat="42.9541610" lon="0.5669030">
        <ele>606.8</ele>
        <time>2020-07-24T11:27:58Z</time>
      </trkpt>
      <trkpt lat="42.9540620" lon="0.5669600">
        <ele>607.4</ele>
        <time>2020-07-24T11:28:01Z</time>
      </trkpt>
      <trkpt lat="42.9539670" lon="0.5670350">
        <ele>608.0</ele>
        <time>2020-07-24T11:28:04Z</time>
      </trkpt>
      <trkpt lat="42.9539070" lon="0.5670940">
        <ele>608.2</ele>
        <time>2020-07-24T11:28:06Z</time>
      </trkpt>
      <trkpt lat="42.9538780" lon="0.5671260">
        <ele>608.4</ele>
        <time>2020-07-24T11:28:07Z</time>
      </trkpt>
      <trkpt lat="42.9537030" lon="0.5673170">
        <ele>609.2</ele>
        <time>2020-07-24T11:28:13Z</time>
      </trkpt>
      <trkpt lat="42.9536350" lon="0.5673640">
        <ele>609.4</ele>
        <time>2020-07-24T11:28:15Z</time>
      </trkpt>
      <trkpt lat="42.9535580" lon="0.5673870">
        <ele>610.0</ele>
        <time>2020-07-24T11:28:17Z</time>
      </trkpt>
      <trkpt lat="42.9535190" lon="0.5673940">
        <ele>610.2</ele>
        <time>2020-07-24T11:28:18Z</time>
      </trkpt>
      <trkpt lat="42.9534070" lon="0.5673990">
        <ele>610.6</ele>
        <time>2020-07-24T11:28:21Z</time>
      </trkpt>
      <trkpt lat="42.9532620" lon="0.5673850">
        <ele>611.8</ele>
        <time>2020-07-24T11:28:25Z</time>
      </trkpt>
      <trkpt lat="42.9531110" lon="0.5673860">
        <ele>613.0</ele>
        <time>2020-07-24T11:28:29Z</time>
      </trkpt>
      <trkpt lat="42.9530010" lon="0.5673800">
        <ele>613.8</ele>
        <time>2020-07-24T11:28:32Z</time>
      </trkpt>
      <trkpt lat="42.9529630" lon="0.5673760">
        <ele>614.0</ele>
        <time>2020-07-24T11:28:33Z</time>
      </trkpt>
      <trkpt lat="42.9528050" lon="0.5673360">
        <ele>615.0</ele>
        <time>2020-07-24T11:28:37Z</time>
      </trkpt>
      <trkpt lat="42.9527700" lon="0.5673180">
        <ele>615.2</ele>
        <time>2020-07-24T11:28:38Z</time>
      </trkpt>
      <trkpt lat="42.9526480" lon="0.5672050">
        <ele>616.4</ele>
        <time>2020-07-24T11:28:42Z</time>
      </trkpt>
      <trkpt lat="42.9525100" lon="0.5670330">
        <ele>617.4</ele>
        <time>2020-07-24T11:28:47Z</time>
      </trkpt>
      <trkpt lat="42.9524310" lon="0.5669270">
        <ele>618.4</ele>
        <time>2020-07-24T11:28:50Z</time>
      </trkpt>
      <trkpt lat="42.9524030" lon="0.5668950">
        <ele>618.6</ele>
        <time>2020-07-24T11:28:51Z</time>
      </trkpt>
      <trkpt lat="42.9522440" lon="0.5667940">
        <ele>619.8</ele>
        <time>2020-07-24T11:28:56Z</time>
      </trkpt>
      <trkpt lat="42.9520560" lon="0.5668520">
        <ele>620.6</ele>
        <time>2020-07-24T11:29:01Z</time>
      </trkpt>
      <trkpt lat="42.9520180" lon="0.5668730">
        <ele>620.8</ele>
        <time>2020-07-24T11:29:02Z</time>
      </trkpt>
      <trkpt lat="42.9519410" lon="0.5669180">
        <ele>621.2</ele>
        <time>2020-07-24T11:29:04Z</time>
      </trkpt>
      <trkpt lat="42.9517910" lon="0.5670240">
        <ele>621.4</ele>
        <time>2020-07-24T11:29:08Z</time>
      </trkpt>
      <trkpt lat="42.9517110" lon="0.5670620">
        <ele>622.2</ele>
        <time>2020-07-24T11:29:10Z</time>
      </trkpt>
      <trkpt lat="42.9515470" lon="0.5671130">
        <ele>623.2</ele>
        <time>2020-07-24T11:29:14Z</time>
      </trkpt>
      <trkpt lat="42.9515060" lon="0.5671170">
        <ele>623.4</ele>
        <time>2020-07-24T11:29:15Z</time>
      </trkpt>
      <trkpt lat="42.9513830" lon="0.5671120">
        <ele>624.2</ele>
        <time>2020-07-24T11:29:18Z</time>
      </trkpt>
      <trkpt lat="42.9513420" lon="0.5671070">
        <ele>624.4</ele>
        <time>2020-07-24T11:29:19Z</time>
      </trkpt>
      <trkpt lat="42.9511840" lon="0.5670830">
        <ele>625.2</ele>
        <time>2020-07-24T11:29:23Z</time>
      </trkpt>
      <trkpt lat="42.9511460" lon="0.5670760">
        <ele>625.4</ele>
        <time>2020-07-24T11:29:24Z</time>
      </trkpt>
      <trkpt lat="42.9511090" lon="0.5670710">
        <ele>625.4</ele>
        <time>2020-07-24T11:29:25Z</time>
      </trkpt>
      <trkpt lat="42.9509580" lon="0.5670490">
        <ele>626.4</ele>
        <time>2020-07-24T11:29:29Z</time>
      </trkpt>
      <trkpt lat="42.9508840" lon="0.5670350">
        <ele>627.0</ele>
        <time>2020-07-24T11:29:31Z</time>
      </trkpt>
      <trkpt lat="42.9508490" lon="0.5670290">
        <ele>627.2</ele>
        <time>2020-07-24T11:29:32Z</time>
      </trkpt>
      <trkpt lat="42.9508120" lon="0.5670260">
        <ele>627.6</ele>
        <time>2020-07-24T11:29:33Z</time>
      </trkpt>
      <trkpt lat="42.9507730" lon="0.5670240">
        <ele>628.0</ele>
        <time>2020-07-24T11:29:34Z</time>
      </trkpt>
      <trkpt lat="42.9506970" lon="0.5670210">
        <ele>628.4</ele>
        <time>2020-07-24T11:29:36Z</time>
      </trkpt>
      <trkpt lat="42.9506120" lon="0.5670510">
        <ele>628.6</ele>
        <time>2020-07-24T11:29:38Z</time>
      </trkpt>
      <trkpt lat="42.9505740" lon="0.5670630">
        <ele>628.8</ele>
        <time>2020-07-24T11:29:39Z</time>
      </trkpt>
      <trkpt lat="42.9504990" lon="0.5670960">
        <ele>629.2</ele>
        <time>2020-07-24T11:29:41Z</time>
      </trkpt>
      <trkpt lat="42.9504210" lon="0.5671320">
        <ele>629.6</ele>
        <time>2020-07-24T11:29:43Z</time>
      </trkpt>
      <trkpt lat="42.9503380" lon="0.5671710">
        <ele>629.8</ele>
        <time>2020-07-24T11:29:45Z</time>
      </trkpt>
      <trkpt lat="42.9501040" lon="0.5673050">
        <ele>630.4</ele>
        <time>2020-07-24T11:29:51Z</time>
      </trkpt>
      <trkpt lat="42.9500330" lon="0.5673630">
        <ele>631.0</ele>
        <time>2020-07-24T11:29:53Z</time>
      </trkpt>
      <trkpt lat="42.9499580" lon="0.5674190">
        <ele>631.4</ele>
        <time>2020-07-24T11:29:55Z</time>
      </trkpt>
      <trkpt lat="42.9498760" lon="0.5674360">
        <ele>631.6</ele>
        <time>2020-07-24T11:29:57Z</time>
      </trkpt>
      <trkpt lat="42.9498360" lon="0.5674190">
        <ele>631.8</ele>
        <time>2020-07-24T11:29:58Z</time>
      </trkpt>
      <trkpt lat="42.9498000" lon="0.5673920">
        <ele>632.0</ele>
        <time>2020-07-24T11:29:59Z</time>
      </trkpt>
      <trkpt lat="42.9497460" lon="0.5673050">
        <ele>632.6</ele>
        <time>2020-07-24T11:30:01Z</time>
      </trkpt>
      <trkpt lat="42.9496820" lon="0.5671690">
        <ele>633.2</ele>
        <time>2020-07-24T11:30:04Z</time>
      </trkpt>
      <trkpt lat="42.9495730" lon="0.5670330">
        <ele>634.0</ele>
        <time>2020-07-24T11:30:08Z</time>
      </trkpt>
      <trkpt lat="42.9495350" lon="0.5670140">
        <ele>634.4</ele>
        <time>2020-07-24T11:30:09Z</time>
      </trkpt>
      <trkpt lat="42.9494170" lon="0.5669750">
        <ele>635.4</ele>
        <time>2020-07-24T11:30:12Z</time>
      </trkpt>
      <trkpt lat="42.9493400" lon="0.5669620">
        <ele>635.8</ele>
        <time>2020-07-24T11:30:14Z</time>
      </trkpt>
      <trkpt lat="42.9492230" lon="0.5669270">
        <ele>636.4</ele>
        <time>2020-07-24T11:30:17Z</time>
      </trkpt>
      <trkpt lat="42.9490920" lon="0.5668670">
        <ele>637.6</ele>
        <time>2020-07-24T11:30:21Z</time>
      </trkpt>
      <trkpt lat="42.9489480" lon="0.5667680">
        <ele>638.8</ele>
        <time>2020-07-24T11:30:26Z</time>
      </trkpt>
      <trkpt lat="42.9488770" lon="0.5667350">
        <ele>639.4</ele>
        <time>2020-07-24T11:30:28Z</time>
      </trkpt>
      <trkpt lat="42.9488420" lon="0.5667230">
        <ele>639.8</ele>
        <time>2020-07-24T11:30:29Z</time>
      </trkpt>
      <trkpt lat="42.9487710" lon="0.5667010">
        <ele>640.4</ele>
        <time>2020-07-24T11:30:31Z</time>
      </trkpt>
      <trkpt lat="42.9487340" lon="0.5666920">
        <ele>640.4</ele>
        <time>2020-07-24T11:30:32Z</time>
      </trkpt>
      <trkpt lat="42.9486580" lon="0.5666700">
        <ele>640.8</ele>
        <time>2020-07-24T11:30:34Z</time>
      </trkpt>
      <trkpt lat="42.9485880" lon="0.5666500">
        <ele>641.2</ele>
        <time>2020-07-24T11:30:36Z</time>
      </trkpt>
      <trkpt lat="42.9484870" lon="0.5666490">
        <ele>641.8</ele>
        <time>2020-07-24T11:30:39Z</time>
      </trkpt>
      <trkpt lat="42.9484490" lon="0.5666530">
        <ele>642.0</ele>
        <time>2020-07-24T11:30:40Z</time>
      </trkpt>
      <trkpt lat="42.9483350" lon="0.5666720">
        <ele>642.6</ele>
        <time>2020-07-24T11:30:43Z</time>
      </trkpt>
      <trkpt lat="42.9482660" lon="0.5666890">
        <ele>643.0</ele>
        <time>2020-07-24T11:30:45Z</time>
      </trkpt>
      <trkpt lat="42.9480990" lon="0.5667650">
        <ele>644.2</ele>
        <time>2020-07-24T11:30:50Z</time>
      </trkpt>
      <trkpt lat="42.9480700" lon="0.5667830">
        <ele>644.6</ele>
        <time>2020-07-24T11:30:51Z</time>
      </trkpt>
      <trkpt lat="42.9479840" lon="0.5668460">
        <ele>645.4</ele>
        <time>2020-07-24T11:30:54Z</time>
      </trkpt>
      <trkpt lat="42.9478320" lon="0.5669470">
        <ele>646.2</ele>
        <time>2020-07-24T11:30:59Z</time>
      </trkpt>
      <trkpt lat="42.9477700" lon="0.5669910">
        <ele>646.6</ele>
        <time>2020-07-24T11:31:01Z</time>
      </trkpt>
      <trkpt lat="42.9476380" lon="0.5670660">
        <ele>647.8</ele>
        <time>2020-07-24T11:31:05Z</time>
      </trkpt>
      <trkpt lat="42.9475720" lon="0.5671020">
        <ele>648.4</ele>
        <time>2020-07-24T11:31:07Z</time>
      </trkpt>
      <trkpt lat="42.9474720" lon="0.5671510">
        <ele>648.8</ele>
        <time>2020-07-24T11:31:10Z</time>
      </trkpt>
      <trkpt lat="42.9474360" lon="0.5671670">
        <ele>649.0</ele>
        <time>2020-07-24T11:31:11Z</time>
      </trkpt>
      <trkpt lat="42.9474020" lon="0.5671810">
        <ele>649.2</ele>
        <time>2020-07-24T11:31:12Z</time>
      </trkpt>
      <trkpt lat="42.9473060" lon="0.5672310">
        <ele>649.8</ele>
        <time>2020-07-24T11:31:15Z</time>
      </trkpt>
      <trkpt lat="42.9472730" lon="0.5672450">
        <ele>650.0</ele>
        <time>2020-07-24T11:31:16Z</time>
      </trkpt>
      <trkpt lat="42.9470720" lon="0.5673070">
        <ele>651.4</ele>
        <time>2020-07-24T11:31:22Z</time>
      </trkpt>
      <trkpt lat="42.9470050" lon="0.5673210">
        <ele>651.8</ele>
        <time>2020-07-24T11:31:24Z</time>
      </trkpt>
      <trkpt lat="42.9469370" lon="0.5673330">
        <ele>652.2</ele>
        <time>2020-07-24T11:31:26Z</time>
      </trkpt>
      <trkpt lat="42.9469040" lon="0.5673430">
        <ele>652.4</ele>
        <time>2020-07-24T11:31:27Z</time>
      </trkpt>
      <trkpt lat="42.9467740" lon="0.5673540">
        <ele>653.4</ele>
        <time>2020-07-24T11:31:31Z</time>
      </trkpt>
      <trkpt lat="42.9467410" lon="0.5673570">
        <ele>653.6</ele>
        <time>2020-07-24T11:31:32Z</time>
      </trkpt>
      <trkpt lat="42.9465770" lon="0.5673550">
        <ele>654.8</ele>
        <time>2020-07-24T11:31:37Z</time>
      </trkpt>
      <trkpt lat="42.9465120" lon="0.5673620">
        <ele>655.4</ele>
        <time>2020-07-24T11:31:39Z</time>
      </trkpt>
      <trkpt lat="42.9464410" lon="0.5673720">
        <ele>656.0</ele>
        <time>2020-07-24T11:31:41Z</time>
      </trkpt>
      <trkpt lat="42.9462700" lon="0.5673870">
        <ele>656.4</ele>
        <time>2020-07-24T11:31:46Z</time>
      </trkpt>
      <trkpt lat="42.9462050" lon="0.5673820">
        <ele>656.6</ele>
        <time>2020-07-24T11:31:48Z</time>
      </trkpt>
      <trkpt lat="42.9461430" lon="0.5673610">
        <ele>657.0</ele>
        <time>2020-07-24T11:31:50Z</time>
      </trkpt>
      <trkpt lat="42.9460890" lon="0.5673170">
        <ele>657.6</ele>
        <time>2020-07-24T11:31:52Z</time>
      </trkpt>
      <trkpt lat="42.9460090" lon="0.5672060">
        <ele>658.2</ele>
        <time>2020-07-24T11:31:55Z</time>
      </trkpt>
      <trkpt lat="42.9459430" lon="0.5670960">
        <ele>658.8</ele>
        <time>2020-07-24T11:31:58Z</time>
      </trkpt>
      <trkpt lat="42.9459050" lon="0.5670160">
        <ele>659.4</ele>
        <time>2020-07-24T11:32:00Z</time>
      </trkpt>
      <trkpt lat="42.9457840" lon="0.5667880">
        <ele>660.4</ele>
        <time>2020-07-24T11:32:06Z</time>
      </trkpt>
      <trkpt lat="42.9457660" lon="0.5667440">
        <ele>660.6</ele>
        <time>2020-07-24T11:32:07Z</time>
      </trkpt>
      <trkpt lat="42.9456450" lon="0.5664870">
        <ele>661.8</ele>
        <time>2020-07-24T11:32:13Z</time>
      </trkpt>
      <trkpt lat="42.9456210" lon="0.5664470">
        <ele>662.2</ele>
        <time>2020-07-24T11:32:14Z</time>
      </trkpt>
      <trkpt lat="42.9454930" lon="0.5663280">
        <ele>663.0</ele>
        <time>2020-07-24T11:32:18Z</time>
      </trkpt>
      <trkpt lat="42.9454560" lon="0.5663180">
        <ele>663.4</ele>
        <time>2020-07-24T11:32:19Z</time>
      </trkpt>
      <trkpt lat="42.9453500" lon="0.5663350">
        <ele>664.2</ele>
        <time>2020-07-24T11:32:22Z</time>
      </trkpt>
      <trkpt lat="42.9452830" lon="0.5663590">
        <ele>664.6</ele>
        <time>2020-07-24T11:32:24Z</time>
      </trkpt>
      <trkpt lat="42.9452160" lon="0.5663860">
        <ele>665.2</ele>
        <time>2020-07-24T11:32:26Z</time>
      </trkpt>
      <trkpt lat="42.9450460" lon="0.5664380">
        <ele>666.4</ele>
        <time>2020-07-24T11:32:31Z</time>
      </trkpt>
      <trkpt lat="42.9450110" lon="0.5664520">
        <ele>666.6</ele>
        <time>2020-07-24T11:32:32Z</time>
      </trkpt>
      <trkpt lat="42.9449090" lon="0.5664900">
        <ele>667.6</ele>
        <time>2020-07-24T11:32:35Z</time>
      </trkpt>
      <trkpt lat="42.9447410" lon="0.5665510">
        <ele>668.6</ele>
        <time>2020-07-24T11:32:40Z</time>
      </trkpt>
      <trkpt lat="42.9445740" lon="0.5665310">
        <ele>669.8</ele>
        <time>2020-07-24T11:32:45Z</time>
      </trkpt>
      <trkpt lat="42.9444900" lon="0.5663860">
        <ele>670.8</ele>
        <time>2020-07-24T11:32:49Z</time>
      </trkpt>
      <trkpt lat="42.9444740" lon="0.5663490">
        <ele>671.0</ele>
        <time>2020-07-24T11:32:50Z</time>
      </trkpt>
      <trkpt lat="42.9443800" lon="0.5661790">
        <ele>672.2</ele>
        <time>2020-07-24T11:32:55Z</time>
      </trkpt>
      <trkpt lat="42.9443260" lon="0.5661270">
        <ele>672.6</ele>
        <time>2020-07-24T11:32:57Z</time>
      </trkpt>
      <trkpt lat="42.9442020" lon="0.5660460">
        <ele>673.4</ele>
        <time>2020-07-24T11:33:01Z</time>
      </trkpt>
      <trkpt lat="42.9441390" lon="0.5660090">
        <ele>673.8</ele>
        <time>2020-07-24T11:33:03Z</time>
      </trkpt>
      <trkpt lat="42.9440810" lon="0.5659750">
        <ele>674.4</ele>
        <time>2020-07-24T11:33:05Z</time>
      </trkpt>
      <trkpt lat="42.9440070" lon="0.5658950">
        <ele>675.0</ele>
        <time>2020-07-24T11:33:08Z</time>
      </trkpt>
      <trkpt lat="42.9439700" lon="0.5658320">
        <ele>675.4</ele>
        <time>2020-07-24T11:33:10Z</time>
      </trkpt>
      <trkpt lat="42.9439020" lon="0.5657320">
        <ele>676.4</ele>
        <time>2020-07-24T11:33:13Z</time>
      </trkpt>
      <trkpt lat="42.9438800" lon="0.5656950">
        <ele>676.6</ele>
        <time>2020-07-24T11:33:14Z</time>
      </trkpt>
      <trkpt lat="42.9437890" lon="0.5655490">
        <ele>677.6</ele>
        <time>2020-07-24T11:33:18Z</time>
      </trkpt>
      <trkpt lat="42.9437680" lon="0.5655190">
        <ele>677.8</ele>
        <time>2020-07-24T11:33:19Z</time>
      </trkpt>
      <trkpt lat="42.9437010" lon="0.5654230">
        <ele>678.4</ele>
        <time>2020-07-24T11:33:22Z</time>
      </trkpt>
      <trkpt lat="42.9436470" lon="0.5653590">
        <ele>679.0</ele>
        <time>2020-07-24T11:33:24Z</time>
      </trkpt>
      <trkpt lat="42.9435940" lon="0.5653050">
        <ele>679.6</ele>
        <time>2020-07-24T11:33:26Z</time>
      </trkpt>
      <trkpt lat="42.9435370" lon="0.5652520">
        <ele>680.0</ele>
        <time>2020-07-24T11:33:28Z</time>
      </trkpt>
      <trkpt lat="42.9434250" lon="0.5651580">
        <ele>681.2</ele>
        <time>2020-07-24T11:33:32Z</time>
      </trkpt>
      <trkpt lat="42.9433660" lon="0.5651170">
        <ele>681.8</ele>
        <time>2020-07-24T11:33:34Z</time>
      </trkpt>
      <trkpt lat="42.9433050" lon="0.5650880">
        <ele>682.4</ele>
        <time>2020-07-24T11:33:36Z</time>
      </trkpt>
      <trkpt lat="42.9431540" lon="0.5650100">
        <ele>683.4</ele>
        <time>2020-07-24T11:33:41Z</time>
      </trkpt>
      <trkpt lat="42.9430940" lon="0.5649750">
        <ele>683.8</ele>
        <time>2020-07-24T11:33:43Z</time>
      </trkpt>
      <trkpt lat="42.9430630" lon="0.5649570">
        <ele>684.0</ele>
        <time>2020-07-24T11:33:44Z</time>
      </trkpt>
      <trkpt lat="42.9429980" lon="0.5649280">
        <ele>684.6</ele>
        <time>2020-07-24T11:33:46Z</time>
      </trkpt>
      <trkpt lat="42.9429160" lon="0.5648590">
        <ele>685.4</ele>
        <time>2020-07-24T11:33:49Z</time>
      </trkpt>
      <trkpt lat="42.9428690" lon="0.5647920">
        <ele>685.8</ele>
        <time>2020-07-24T11:33:51Z</time>
      </trkpt>
      <trkpt lat="42.9428480" lon="0.5647570">
        <ele>686.0</ele>
        <time>2020-07-24T11:33:52Z</time>
      </trkpt>
      <trkpt lat="42.9428280" lon="0.5647210">
        <ele>686.2</ele>
        <time>2020-07-24T11:33:53Z</time>
      </trkpt>
      <trkpt lat="42.9427770" lon="0.5646100">
        <ele>686.8</ele>
        <time>2020-07-24T11:33:56Z</time>
      </trkpt>
      <trkpt lat="42.9427490" lon="0.5645400">
        <ele>687.4</ele>
        <time>2020-07-24T11:33:58Z</time>
      </trkpt>
      <trkpt lat="42.9426240" lon="0.5643560">
        <ele>688.0</ele>
        <time>2020-07-24T11:34:26Z</time>
      </trkpt>
      <trkpt lat="42.9425740" lon="0.5643140">
        <ele>688.2</ele>
        <time>2020-07-24T11:34:28Z</time>
      </trkpt>
      <trkpt lat="42.9425280" lon="0.5642590">
        <ele>688.6</ele>
        <time>2020-07-24T11:34:30Z</time>
      </trkpt>
      <trkpt lat="42.9424500" lon="0.5641690">
        <ele>689.0</ele>
        <time>2020-07-24T11:34:33Z</time>
      </trkpt>
      <trkpt lat="42.9423650" lon="0.5640840">
        <ele>689.6</ele>
        <time>2020-07-24T11:34:36Z</time>
      </trkpt>
      <trkpt lat="42.9423380" lon="0.5640540">
        <ele>690.0</ele>
        <time>2020-07-24T11:34:37Z</time>
      </trkpt>
      <trkpt lat="42.9421820" lon="0.5639330">
        <ele>691.2</ele>
        <time>2020-07-24T11:34:42Z</time>
      </trkpt>
      <trkpt lat="42.9421100" lon="0.5639160">
        <ele>691.4</ele>
        <time>2020-07-24T11:34:44Z</time>
      </trkpt>
      <trkpt lat="42.9419980" lon="0.5639270">
        <ele>692.0</ele>
        <time>2020-07-24T11:34:47Z</time>
      </trkpt>
      <trkpt lat="42.9419260" lon="0.5639370">
        <ele>692.4</ele>
        <time>2020-07-24T11:34:49Z</time>
      </trkpt>
      <trkpt lat="42.9418900" lon="0.5639420">
        <ele>692.6</ele>
        <time>2020-07-24T11:34:50Z</time>
      </trkpt>
      <trkpt lat="42.9417270" lon="0.5639380">
        <ele>693.4</ele>
        <time>2020-07-24T11:34:55Z</time>
      </trkpt>
      <trkpt lat="42.9416550" lon="0.5639150">
        <ele>693.8</ele>
        <time>2020-07-24T11:34:57Z</time>
      </trkpt>
      <trkpt lat="42.9414820" lon="0.5638530">
        <ele>694.2</ele>
        <time>2020-07-24T11:35:01Z</time>
      </trkpt>
      <trkpt lat="42.9413900" lon="0.5638610">
        <ele>694.2</ele>
        <time>2020-07-24T11:35:03Z</time>
      </trkpt>
      <trkpt lat="42.9412150" lon="0.5639310">
        <ele>694.6</ele>
        <time>2020-07-24T11:35:07Z</time>
      </trkpt>
      <trkpt lat="42.9411300" lon="0.5639720">
        <ele>695.0</ele>
        <time>2020-07-24T11:35:09Z</time>
      </trkpt>
      <trkpt lat="42.9409980" lon="0.5640060">
        <ele>695.8</ele>
        <time>2020-07-24T11:35:12Z</time>
      </trkpt>
      <trkpt lat="42.9408200" lon="0.5640190">
        <ele>696.6</ele>
        <time>2020-07-24T11:35:16Z</time>
      </trkpt>
      <trkpt lat="42.9407780" lon="0.5640120">
        <ele>696.6</ele>
        <time>2020-07-24T11:35:17Z</time>
      </trkpt>
      <trkpt lat="42.9407390" lon="0.5640040">
        <ele>696.8</ele>
        <time>2020-07-24T11:35:18Z</time>
      </trkpt>
      <trkpt lat="42.9406340" lon="0.5639530">
        <ele>697.6</ele>
        <time>2020-07-24T11:35:21Z</time>
      </trkpt>
      <trkpt lat="42.9405690" lon="0.5638930">
        <ele>698.0</ele>
        <time>2020-07-24T11:35:23Z</time>
      </trkpt>
      <trkpt lat="42.9404160" lon="0.5637410">
        <ele>699.0</ele>
        <time>2020-07-24T11:35:28Z</time>
      </trkpt>
      <trkpt lat="42.9403790" lon="0.5637060">
        <ele>699.0</ele>
        <time>2020-07-24T11:35:29Z</time>
      </trkpt>
      <trkpt lat="42.9402780" lon="0.5635580">
        <ele>700.0</ele>
        <time>2020-07-24T11:35:33Z</time>
      </trkpt>
      <trkpt lat="42.9402580" lon="0.5635160">
        <ele>700.2</ele>
        <time>2020-07-24T11:35:34Z</time>
      </trkpt>
      <trkpt lat="42.9402120" lon="0.5633410">
        <ele>701.0</ele>
        <time>2020-07-24T11:35:38Z</time>
      </trkpt>
      <trkpt lat="42.9402020" lon="0.5632510">
        <ele>701.4</ele>
        <time>2020-07-24T11:35:40Z</time>
      </trkpt>
      <trkpt lat="42.9401570" lon="0.5631170">
        <ele>702.4</ele>
        <time>2020-07-24T11:35:43Z</time>
      </trkpt>
      <trkpt lat="42.9401360" lon="0.5630740">
        <ele>702.8</ele>
        <time>2020-07-24T11:35:44Z</time>
      </trkpt>
      <trkpt lat="42.9400560" lon="0.5629510">
        <ele>703.6</ele>
        <time>2020-07-24T11:35:47Z</time>
      </trkpt>
      <trkpt lat="42.9399490" lon="0.5627780">
        <ele>704.2</ele>
        <time>2020-07-24T11:35:51Z</time>
      </trkpt>
      <trkpt lat="42.9398960" lon="0.5627080">
        <ele>704.8</ele>
        <time>2020-07-24T11:35:53Z</time>
      </trkpt>
      <trkpt lat="42.9397790" lon="0.5625650">
        <ele>705.8</ele>
        <time>2020-07-24T11:35:57Z</time>
      </trkpt>
      <trkpt lat="42.9397440" lon="0.5625290">
        <ele>705.8</ele>
        <time>2020-07-24T11:35:58Z</time>
      </trkpt>
      <trkpt lat="42.9397060" lon="0.5624960">
        <ele>706.0</ele>
        <time>2020-07-24T11:35:59Z</time>
      </trkpt>
      <trkpt lat="42.9396650" lon="0.5624680">
        <ele>706.2</ele>
        <time>2020-07-24T11:36:00Z</time>
      </trkpt>
      <trkpt lat="42.9396200" lon="0.5624490">
        <ele>706.4</ele>
        <time>2020-07-24T11:36:01Z</time>
      </trkpt>
      <trkpt lat="42.9395750" lon="0.5624350">
        <ele>706.6</ele>
        <time>2020-07-24T11:36:02Z</time>
      </trkpt>
      <trkpt lat="42.9394840" lon="0.5624260">
        <ele>706.8</ele>
        <time>2020-07-24T11:36:04Z</time>
      </trkpt>
      <trkpt lat="42.9393920" lon="0.5624330">
        <ele>707.0</ele>
        <time>2020-07-24T11:36:06Z</time>
      </trkpt>
      <trkpt lat="42.9393440" lon="0.5624440">
        <ele>707.0</ele>
        <time>2020-07-24T11:36:07Z</time>
      </trkpt>
      <trkpt lat="42.9390710" lon="0.5624740">
        <ele>708.0</ele>
        <time>2020-07-24T11:36:13Z</time>
      </trkpt>
      <trkpt lat="42.9389790" lon="0.5624660">
        <ele>708.4</ele>
        <time>2020-07-24T11:36:15Z</time>
      </trkpt>
      <trkpt lat="42.9388260" lon="0.5623860">
        <ele>708.8</ele>
        <time>2020-07-24T11:36:19Z</time>
      </trkpt>
      <trkpt lat="42.9387970" lon="0.5623550">
        <ele>709.0</ele>
        <time>2020-07-24T11:36:20Z</time>
      </trkpt>
      <trkpt lat="42.9387010" lon="0.5622150">
        <ele>709.8</ele>
        <time>2020-07-24T11:36:24Z</time>
      </trkpt>
      <trkpt lat="42.9386750" lon="0.5621790">
        <ele>710.2</ele>
        <time>2020-07-24T11:36:25Z</time>
      </trkpt>
      <trkpt lat="42.9385450" lon="0.5620520">
        <ele>711.2</ele>
        <time>2020-07-24T11:36:29Z</time>
      </trkpt>
      <trkpt lat="42.9385090" lon="0.5620220">
        <ele>711.4</ele>
        <time>2020-07-24T11:36:30Z</time>
      </trkpt>
      <trkpt lat="42.9383220" lon="0.5619170">
        <ele>712.4</ele>
        <time>2020-07-24T11:36:35Z</time>
      </trkpt>
      <trkpt lat="42.9382860" lon="0.5618990">
        <ele>712.6</ele>
        <time>2020-07-24T11:36:36Z</time>
      </trkpt>
      <trkpt lat="42.9380970" lon="0.5619000">
        <ele>713.4</ele>
        <time>2020-07-24T11:36:41Z</time>
      </trkpt>
      <trkpt lat="42.9380610" lon="0.5619210">
        <ele>713.4</ele>
        <time>2020-07-24T11:36:42Z</time>
      </trkpt>
      <trkpt lat="42.9379500" lon="0.5620550">
        <ele>714.4</ele>
        <time>2020-07-24T11:36:46Z</time>
      </trkpt>
      <trkpt lat="42.9379260" lon="0.5620930">
        <ele>714.6</ele>
        <time>2020-07-24T11:36:47Z</time>
      </trkpt>
      <trkpt lat="42.9377850" lon="0.5623130">
        <ele>715.8</ele>
        <time>2020-07-24T11:36:53Z</time>
      </trkpt>
      <trkpt lat="42.9376480" lon="0.5623080">
        <ele>716.4</ele>
        <time>2020-07-24T11:36:57Z</time>
      </trkpt>
      <trkpt lat="42.9375820" lon="0.5621870">
        <ele>717.0</ele>
        <time>2020-07-24T11:37:00Z</time>
      </trkpt>
      <trkpt lat="42.9375770" lon="0.5621250">
        <ele>717.4</ele>
        <time>2020-07-24T11:37:01Z</time>
      </trkpt>
      <trkpt lat="42.9375820" lon="0.5620080">
        <ele>718.0</ele>
        <time>2020-07-24T11:37:03Z</time>
      </trkpt>
      <trkpt lat="42.9375860" lon="0.5619530">
        <ele>718.2</ele>
        <time>2020-07-24T11:37:04Z</time>
      </trkpt>
      <trkpt lat="42.9376060" lon="0.5618500">
        <ele>718.4</ele>
        <time>2020-07-24T11:37:06Z</time>
      </trkpt>
      <trkpt lat="42.9376690" lon="0.5615740">
        <ele>719.0</ele>
        <time>2020-07-24T11:37:12Z</time>
      </trkpt>
      <trkpt lat="42.9376810" lon="0.5615350">
        <ele>719.4</ele>
        <time>2020-07-24T11:37:13Z</time>
      </trkpt>
      <trkpt lat="42.9377170" lon="0.5613540">
        <ele>720.4</ele>
        <time>2020-07-24T11:37:17Z</time>
      </trkpt>
      <trkpt lat="42.9376080" lon="0.5611460">
        <ele>720.8</ele>
        <time>2020-07-24T11:37:21Z</time>
      </trkpt>
      <trkpt lat="42.9375510" lon="0.5611050">
        <ele>721.0</ele>
        <time>2020-07-24T11:37:22Z</time>
      </trkpt>
      <trkpt lat="42.9374550" lon="0.5610510">
        <ele>721.6</ele>
        <time>2020-07-24T11:37:24Z</time>
      </trkpt>
      <trkpt lat="42.9373640" lon="0.5610170">
        <ele>722.0</ele>
        <time>2020-07-24T11:37:26Z</time>
      </trkpt>
      <trkpt lat="42.9372400" lon="0.5609900">
        <ele>722.6</ele>
        <time>2020-07-24T11:37:29Z</time>
      </trkpt>
      <trkpt lat="42.9370760" lon="0.5610210">
        <ele>723.4</ele>
        <time>2020-07-24T11:37:33Z</time>
      </trkpt>
      <trkpt lat="42.9370020" lon="0.5610350">
        <ele>723.8</ele>
        <time>2020-07-24T11:37:35Z</time>
      </trkpt>
      <trkpt lat="42.9369220" lon="0.5610440">
        <ele>724.2</ele>
        <time>2020-07-24T11:37:37Z</time>
      </trkpt>
      <trkpt lat="42.9368010" lon="0.5610410">
        <ele>724.8</ele>
        <time>2020-07-24T11:37:40Z</time>
      </trkpt>
      <trkpt lat="42.9367580" lon="0.5610410">
        <ele>725.0</ele>
        <time>2020-07-24T11:37:41Z</time>
      </trkpt>
      <trkpt lat="42.9365750" lon="0.5610890">
        <ele>725.2</ele>
        <time>2020-07-24T11:37:46Z</time>
      </trkpt>
      <trkpt lat="42.9365090" lon="0.5611690">
        <ele>725.2</ele>
        <time>2020-07-24T11:37:48Z</time>
      </trkpt>
      <trkpt lat="42.9364520" lon="0.5612720">
        <ele>725.4</ele>
        <time>2020-07-24T11:37:50Z</time>
      </trkpt>
      <trkpt lat="42.9363980" lon="0.5613740">
        <ele>726.0</ele>
        <time>2020-07-24T11:37:52Z</time>
      </trkpt>
      <trkpt lat="42.9363560" lon="0.5614870">
        <ele>726.4</ele>
        <time>2020-07-24T11:37:54Z</time>
      </trkpt>
      <trkpt lat="42.9363040" lon="0.5615820">
        <ele>726.8</ele>
        <time>2020-07-24T11:37:56Z</time>
      </trkpt>
      <trkpt lat="42.9362740" lon="0.5616190">
        <ele>727.0</ele>
        <time>2020-07-24T11:37:57Z</time>
      </trkpt>
      <trkpt lat="42.9362380" lon="0.5616420">
        <ele>727.2</ele>
        <time>2020-07-24T11:37:58Z</time>
      </trkpt>
      <trkpt lat="42.9361950" lon="0.5616510">
        <ele>727.4</ele>
        <time>2020-07-24T11:37:59Z</time>
      </trkpt>
      <trkpt lat="42.9361490" lon="0.5616560">
        <ele>727.6</ele>
        <time>2020-07-24T11:38:00Z</time>
      </trkpt>
      <trkpt lat="42.9360070" lon="0.5616620">
        <ele>728.2</ele>
        <time>2020-07-24T11:38:03Z</time>
      </trkpt>
      <trkpt lat="42.9357970" lon="0.5616990">
        <ele>728.6</ele>
        <time>2020-07-24T11:38:07Z</time>
      </trkpt>
      <trkpt lat="42.9354950" lon="0.5618290">
        <ele>729.2</ele>
        <time>2020-07-24T11:38:13Z</time>
      </trkpt>
      <trkpt lat="42.9354460" lon="0.5618510">
        <ele>729.4</ele>
        <time>2020-07-24T11:38:14Z</time>
      </trkpt>
      <trkpt lat="42.9353970" lon="0.5618720">
        <ele>729.8</ele>
        <time>2020-07-24T11:38:15Z</time>
      </trkpt>
      <trkpt lat="42.9353470" lon="0.5618820">
        <ele>730.0</ele>
        <time>2020-07-24T11:38:16Z</time>
      </trkpt>
      <trkpt lat="42.9352450" lon="0.5618760">
        <ele>730.4</ele>
        <time>2020-07-24T11:38:18Z</time>
      </trkpt>
      <trkpt lat="42.9351970" lon="0.5618570">
        <ele>730.6</ele>
        <time>2020-07-24T11:38:19Z</time>
      </trkpt>
      <trkpt lat="42.9351520" lon="0.5618280">
        <ele>730.8</ele>
        <time>2020-07-24T11:38:20Z</time>
      </trkpt>
      <trkpt lat="42.9350710" lon="0.5617490">
        <ele>731.2</ele>
        <time>2020-07-24T11:38:22Z</time>
      </trkpt>
      <trkpt lat="42.9350360" lon="0.5617010">
        <ele>731.4</ele>
        <time>2020-07-24T11:38:23Z</time>
      </trkpt>
      <trkpt lat="42.9349680" lon="0.5615950">
        <ele>731.8</ele>
        <time>2020-07-24T11:38:25Z</time>
      </trkpt>
      <trkpt lat="42.9347630" lon="0.5612690">
        <ele>732.2</ele>
        <time>2020-07-24T11:38:31Z</time>
      </trkpt>
      <trkpt lat="42.9346050" lon="0.5610610">
        <ele>732.8</ele>
        <time>2020-07-24T11:38:35Z</time>
      </trkpt>
      <trkpt lat="42.9345070" lon="0.5609930">
        <ele>733.0</ele>
        <time>2020-07-24T11:38:37Z</time>
      </trkpt>
      <trkpt lat="42.9344030" lon="0.5609580">
        <ele>733.2</ele>
        <time>2020-07-24T11:38:39Z</time>
      </trkpt>
      <trkpt lat="42.9342950" lon="0.5609760">
        <ele>733.4</ele>
        <time>2020-07-24T11:38:41Z</time>
      </trkpt>
      <trkpt lat="42.9341580" lon="0.5610080">
        <ele>733.8</ele>
        <time>2020-07-24T11:38:44Z</time>
      </trkpt>
      <trkpt lat="42.9339850" lon="0.5610390">
        <ele>734.8</ele>
        <time>2020-07-24T11:38:48Z</time>
      </trkpt>
      <trkpt lat="42.9339370" lon="0.5610480">
        <ele>735.0</ele>
        <time>2020-07-24T11:38:49Z</time>
      </trkpt>
      <trkpt lat="42.9338900" lon="0.5610470">
        <ele>735.4</ele>
        <time>2020-07-24T11:38:50Z</time>
      </trkpt>
      <trkpt lat="42.9337910" lon="0.5610240">
        <ele>736.0</ele>
        <time>2020-07-24T11:38:52Z</time>
      </trkpt>
      <trkpt lat="42.9337440" lon="0.5610030">
        <ele>736.4</ele>
        <time>2020-07-24T11:38:53Z</time>
      </trkpt>
      <trkpt lat="42.9334820" lon="0.5608270">
        <ele>737.2</ele>
        <time>2020-07-24T11:38:59Z</time>
      </trkpt>
      <trkpt lat="42.9334390" lon="0.5607930">
        <ele>737.2</ele>
        <time>2020-07-24T11:39:00Z</time>
      </trkpt>
      <trkpt lat="42.9331700" lon="0.5606140">
        <ele>737.8</ele>
        <time>2020-07-24T11:39:06Z</time>
      </trkpt>
      <trkpt lat="42.9330850" lon="0.5605460">
        <ele>738.0</ele>
        <time>2020-07-24T11:39:08Z</time>
      </trkpt>
      <trkpt lat="42.9330000" lon="0.5604820">
        <ele>738.2</ele>
        <time>2020-07-24T11:39:10Z</time>
      </trkpt>
      <trkpt lat="42.9328530" lon="0.5603740">
        <ele>738.6</ele>
        <time>2020-07-24T11:39:14Z</time>
      </trkpt>
      <trkpt lat="42.9327930" lon="0.5602900">
        <ele>739.2</ele>
        <time>2020-07-24T11:39:16Z</time>
      </trkpt>
      <trkpt lat="42.9327650" lon="0.5602460">
        <ele>739.6</ele>
        <time>2020-07-24T11:39:17Z</time>
      </trkpt>
      <trkpt lat="42.9326800" lon="0.5601500">
        <ele>740.8</ele>
        <time>2020-07-24T11:39:20Z</time>
      </trkpt>
      <trkpt lat="42.9326230" lon="0.5599870">
        <ele>741.8</ele>
        <time>2020-07-24T11:39:23Z</time>
      </trkpt>
      <trkpt lat="42.9325680" lon="0.5598530">
        <ele>742.2</ele>
        <time>2020-07-24T11:39:26Z</time>
      </trkpt>
      <trkpt lat="42.9325340" lon="0.5597760">
        <ele>742.4</ele>
        <time>2020-07-24T11:39:28Z</time>
      </trkpt>
      <trkpt lat="42.9324880" lon="0.5596610">
        <ele>743.0</ele>
        <time>2020-07-24T11:39:31Z</time>
      </trkpt>
      <trkpt lat="42.9324550" lon="0.5596050">
        <ele>743.4</ele>
        <time>2020-07-24T11:39:33Z</time>
      </trkpt>
      <trkpt lat="42.9324750" lon="0.5596850">
        <ele>743.0</ele>
        <time>2020-07-24T11:42:01Z</time>
      </trkpt>
      <trkpt lat="42.9324970" lon="0.5597150">
        <ele>743.0</ele>
        <time>2020-07-24T11:42:02Z</time>
      </trkpt>
      <trkpt lat="42.9325960" lon="0.5598880">
        <ele>742.0</ele>
        <time>2020-07-24T11:42:06Z</time>
      </trkpt>
      <trkpt lat="42.9326560" lon="0.5599950">
        <ele>741.2</ele>
        <time>2020-07-24T11:42:08Z</time>
      </trkpt>
      <trkpt lat="42.9326950" lon="0.5600470">
        <ele>741.0</ele>
        <time>2020-07-24T11:42:09Z</time>
      </trkpt>
      <trkpt lat="42.9327350" lon="0.5601060">
        <ele>740.8</ele>
        <time>2020-07-24T11:42:10Z</time>
      </trkpt>
      <trkpt lat="42.9327720" lon="0.5601720">
        <ele>740.6</ele>
        <time>2020-07-24T11:42:11Z</time>
      </trkpt>
      <trkpt lat="42.9328540" lon="0.5603090">
        <ele>739.8</ele>
        <time>2020-07-24T11:42:13Z</time>
      </trkpt>
      <trkpt lat="42.9329890" lon="0.5605150">
        <ele>738.4</ele>
        <time>2020-07-24T11:42:16Z</time>
      </trkpt>
      <trkpt lat="42.9330430" lon="0.5605690">
        <ele>738.2</ele>
        <time>2020-07-24T11:42:17Z</time>
      </trkpt>
      <trkpt lat="42.9331650" lon="0.5606580">
        <ele>737.8</ele>
        <time>2020-07-24T11:42:19Z</time>
      </trkpt>
      <trkpt lat="42.9332300" lon="0.5607040">
        <ele>737.8</ele>
        <time>2020-07-24T11:42:20Z</time>
      </trkpt>
      <trkpt lat="42.9332950" lon="0.5607480">
        <ele>738.0</ele>
        <time>2020-07-24T11:42:21Z</time>
      </trkpt>
      <trkpt lat="42.9333600" lon="0.5607920">
        <ele>737.8</ele>
        <time>2020-07-24T11:42:22Z</time>
      </trkpt>
      <trkpt lat="42.9334840" lon="0.5608820">
        <ele>737.4</ele>
        <time>2020-07-24T11:42:24Z</time>
      </trkpt>
      <trkpt lat="42.9338380" lon="0.5610600">
        <ele>736.4</ele>
        <time>2020-07-24T11:42:29Z</time>
      </trkpt>
      <trkpt lat="42.9339140" lon="0.5610670">
        <ele>736.2</ele>
        <time>2020-07-24T11:42:30Z</time>
      </trkpt>
      <trkpt lat="42.9339890" lon="0.5610620">
        <ele>736.0</ele>
        <time>2020-07-24T11:42:31Z</time>
      </trkpt>
      <trkpt lat="42.9340670" lon="0.5610510">
        <ele>735.8</ele>
        <time>2020-07-24T11:42:32Z</time>
      </trkpt>
      <trkpt lat="42.9342310" lon="0.5610100">
        <ele>735.2</ele>
        <time>2020-07-24T11:42:34Z</time>
      </trkpt>
      <trkpt lat="42.9343150" lon="0.5609870">
        <ele>734.8</ele>
        <time>2020-07-24T11:42:35Z</time>
      </trkpt>
      <trkpt lat="42.9343960" lon="0.5609750">
        <ele>734.4</ele>
        <time>2020-07-24T11:42:36Z</time>
      </trkpt>
      <trkpt lat="42.9345570" lon="0.5609940">
        <ele>733.8</ele>
        <time>2020-07-24T11:42:38Z</time>
      </trkpt>
      <trkpt lat="42.9347670" lon="0.5611440">
        <ele>732.6</ele>
        <time>2020-07-24T11:42:41Z</time>
      </trkpt>
      <trkpt lat="42.9348270" lon="0.5612050">
        <ele>732.4</ele>
        <time>2020-07-24T11:42:42Z</time>
      </trkpt>
      <trkpt lat="42.9348780" lon="0.5612790">
        <ele>732.2</ele>
        <time>2020-07-24T11:42:43Z</time>
      </trkpt>
      <trkpt lat="42.9350130" lon="0.5615430">
        <ele>731.4</ele>
        <time>2020-07-24T11:42:46Z</time>
      </trkpt>
      <trkpt lat="42.9350600" lon="0.5616490">
        <ele>731.4</ele>
        <time>2020-07-24T11:42:47Z</time>
      </trkpt>
      <trkpt lat="42.9351570" lon="0.5618000">
        <ele>731.0</ele>
        <time>2020-07-24T11:42:49Z</time>
      </trkpt>
      <trkpt lat="42.9352720" lon="0.5618750">
        <ele>730.8</ele>
        <time>2020-07-24T11:42:51Z</time>
      </trkpt>
      <trkpt lat="42.9354420" lon="0.5618560">
        <ele>730.6</ele>
        <time>2020-07-24T11:42:53Z</time>
      </trkpt>
      <trkpt lat="42.9355220" lon="0.5618300">
        <ele>730.4</ele>
        <time>2020-07-24T11:42:54Z</time>
      </trkpt>
      <trkpt lat="42.9358990" lon="0.5616770">
        <ele>729.8</ele>
        <time>2020-07-24T11:42:59Z</time>
      </trkpt>
      <trkpt lat="42.9359780" lon="0.5616610">
        <ele>729.6</ele>
        <time>2020-07-24T11:43:00Z</time>
      </trkpt>
      <trkpt lat="42.9361360" lon="0.5616480">
        <ele>729.2</ele>
        <time>2020-07-24T11:43:02Z</time>
      </trkpt>
      <trkpt lat="42.9362850" lon="0.5616210">
        <ele>728.6</ele>
        <time>2020-07-24T11:43:04Z</time>
      </trkpt>
      <trkpt lat="42.9363520" lon="0.5615820">
        <ele>728.4</ele>
        <time>2020-07-24T11:43:05Z</time>
      </trkpt>
      <trkpt lat="42.9364100" lon="0.5615240">
        <ele>728.0</ele>
        <time>2020-07-24T11:43:06Z</time>
      </trkpt>
      <trkpt lat="42.9365200" lon="0.5613780">
        <ele>727.4</ele>
        <time>2020-07-24T11:43:08Z</time>
      </trkpt>
      <trkpt lat="42.9365670" lon="0.5612990">
        <ele>727.0</ele>
        <time>2020-07-24T11:43:09Z</time>
      </trkpt>
      <trkpt lat="42.9366210" lon="0.5612250">
        <ele>726.4</ele>
        <time>2020-07-24T11:43:10Z</time>
      </trkpt>
      <trkpt lat="42.9367500" lon="0.5611340">
        <ele>725.8</ele>
        <time>2020-07-24T11:43:12Z</time>
      </trkpt>
      <trkpt lat="42.9370530" lon="0.5610770">
        <ele>724.6</ele>
        <time>2020-07-24T11:43:16Z</time>
      </trkpt>
      <trkpt lat="42.9372850" lon="0.5610410">
        <ele>723.6</ele>
        <time>2020-07-24T11:43:19Z</time>
      </trkpt>
      <trkpt lat="42.9373690" lon="0.5610470">
        <ele>723.4</ele>
        <time>2020-07-24T11:43:20Z</time>
      </trkpt>
      <trkpt lat="42.9374510" lon="0.5610640">
        <ele>723.2</ele>
        <time>2020-07-24T11:43:21Z</time>
      </trkpt>
      <trkpt lat="42.9375300" lon="0.5610940">
        <ele>722.8</ele>
        <time>2020-07-24T11:43:22Z</time>
      </trkpt>
      <trkpt lat="42.9376560" lon="0.5612020">
        <ele>722.6</ele>
        <time>2020-07-24T11:43:24Z</time>
      </trkpt>
      <trkpt lat="42.9377010" lon="0.5612880">
        <ele>722.2</ele>
        <time>2020-07-24T11:43:25Z</time>
      </trkpt>
      <trkpt lat="42.9377340" lon="0.5613800">
        <ele>722.0</ele>
        <time>2020-07-24T11:43:26Z</time>
      </trkpt>
      <trkpt lat="42.9377590" lon="0.5614710">
        <ele>721.6</ele>
        <time>2020-07-24T11:43:27Z</time>
      </trkpt>
      <trkpt lat="42.9377630" lon="0.5615830">
        <ele>721.2</ele>
        <time>2020-07-24T11:43:28Z</time>
      </trkpt>
      <trkpt lat="42.9377560" lon="0.5618030">
        <ele>720.6</ele>
        <time>2020-07-24T11:43:30Z</time>
      </trkpt>
      <trkpt lat="42.9377130" lon="0.5620160">
        <ele>720.0</ele>
        <time>2020-07-24T11:43:32Z</time>
      </trkpt>
      <trkpt lat="42.9377060" lon="0.5622110">
        <ele>719.4</ele>
        <time>2020-07-24T11:43:34Z</time>
      </trkpt>
      <trkpt lat="42.9377760" lon="0.5623320">
        <ele>719.0</ele>
        <time>2020-07-24T11:43:36Z</time>
      </trkpt>
      <trkpt lat="42.9378690" lon="0.5623500">
        <ele>718.2</ele>
        <time>2020-07-24T11:43:38Z</time>
      </trkpt>
      <trkpt lat="42.9379250" lon="0.5623250">
        <ele>717.8</ele>
        <time>2020-07-24T11:43:39Z</time>
      </trkpt>
      <trkpt lat="42.9379850" lon="0.5622730">
        <ele>717.4</ele>
        <time>2020-07-24T11:43:40Z</time>
      </trkpt>
      <trkpt lat="42.9380940" lon="0.5621220">
        <ele>717.0</ele>
        <time>2020-07-24T11:43:42Z</time>
      </trkpt>
      <trkpt lat="42.9381450" lon="0.5620470">
        <ele>716.6</ele>
        <time>2020-07-24T11:43:43Z</time>
      </trkpt>
      <trkpt lat="42.9382160" lon="0.5620030">
        <ele>716.2</ele>
        <time>2020-07-24T11:43:44Z</time>
      </trkpt>
      <trkpt lat="42.9382840" lon="0.5619850">
        <ele>715.8</ele>
        <time>2020-07-24T11:43:45Z</time>
      </trkpt>
      <trkpt lat="42.9383510" lon="0.5619800">
        <ele>715.4</ele>
        <time>2020-07-24T11:43:46Z</time>
      </trkpt>
      <trkpt lat="42.9385670" lon="0.5620430">
        <ele>714.4</ele>
        <time>2020-07-24T11:43:49Z</time>
      </trkpt>
      <trkpt lat="42.9386370" lon="0.5620890">
        <ele>714.0</ele>
        <time>2020-07-24T11:43:50Z</time>
      </trkpt>
      <trkpt lat="42.9387020" lon="0.5621480">
        <ele>713.6</ele>
        <time>2020-07-24T11:43:51Z</time>
      </trkpt>
      <trkpt lat="42.9388120" lon="0.5622950">
        <ele>712.8</ele>
        <time>2020-07-24T11:43:53Z</time>
      </trkpt>
      <trkpt lat="42.9389110" lon="0.5624570">
        <ele>711.6</ele>
        <time>2020-07-24T11:43:55Z</time>
      </trkpt>
      <trkpt lat="42.9389640" lon="0.5625230">
        <ele>711.0</ele>
        <time>2020-07-24T11:43:56Z</time>
      </trkpt>
      <trkpt lat="42.9390190" lon="0.5625820">
        <ele>710.4</ele>
        <time>2020-07-24T11:43:57Z</time>
      </trkpt>
      <trkpt lat="42.9390830" lon="0.5626250">
        <ele>710.0</ele>
        <time>2020-07-24T11:43:58Z</time>
      </trkpt>
      <trkpt lat="42.9392650" lon="0.5626010">
        <ele>709.2</ele>
        <time>2020-07-24T11:44:00Z</time>
      </trkpt>
      <trkpt lat="42.9393540" lon="0.5625750">
        <ele>708.8</ele>
        <time>2020-07-24T11:44:01Z</time>
      </trkpt>
      <trkpt lat="42.9395240" lon="0.5625220">
        <ele>708.0</ele>
        <time>2020-07-24T11:44:03Z</time>
      </trkpt>
      <trkpt lat="42.9396000" lon="0.5625120">
        <ele>707.8</ele>
        <time>2020-07-24T11:44:04Z</time>
      </trkpt>
      <trkpt lat="42.9396680" lon="0.5625260">
        <ele>707.6</ele>
        <time>2020-07-24T11:44:05Z</time>
      </trkpt>
      <trkpt lat="42.9397320" lon="0.5625700">
        <ele>707.4</ele>
        <time>2020-07-24T11:44:06Z</time>
      </trkpt>
      <trkpt lat="42.9397920" lon="0.5626220">
        <ele>707.2</ele>
        <time>2020-07-24T11:44:07Z</time>
      </trkpt>
      <trkpt lat="42.9398380" lon="0.5626960">
        <ele>707.0</ele>
        <time>2020-07-24T11:44:08Z</time>
      </trkpt>
      <trkpt lat="42.9398860" lon="0.5627680">
        <ele>706.8</ele>
        <time>2020-07-24T11:44:09Z</time>
      </trkpt>
      <trkpt lat="42.9400940" lon="0.5630810">
        <ele>705.4</ele>
        <time>2020-07-24T11:44:13Z</time>
      </trkpt>
      <trkpt lat="42.9401380" lon="0.5631750">
        <ele>704.8</ele>
        <time>2020-07-24T11:44:14Z</time>
      </trkpt>
      <trkpt lat="42.9401700" lon="0.5632810">
        <ele>704.2</ele>
        <time>2020-07-24T11:44:15Z</time>
      </trkpt>
      <trkpt lat="42.9402360" lon="0.5635070">
        <ele>702.8</ele>
        <time>2020-07-24T11:44:17Z</time>
      </trkpt>
      <trkpt lat="42.9402710" lon="0.5636160">
        <ele>702.2</ele>
        <time>2020-07-24T11:44:18Z</time>
      </trkpt>
      <trkpt lat="42.9403130" lon="0.5637160">
        <ele>701.6</ele>
        <time>2020-07-24T11:44:19Z</time>
      </trkpt>
      <trkpt lat="42.9403620" lon="0.5638020">
        <ele>701.0</ele>
        <time>2020-07-24T11:44:20Z</time>
      </trkpt>
      <trkpt lat="42.9404240" lon="0.5638730">
        <ele>700.2</ele>
        <time>2020-07-24T11:44:21Z</time>
      </trkpt>
      <trkpt lat="42.9404840" lon="0.5639470">
        <ele>699.6</ele>
        <time>2020-07-24T11:44:22Z</time>
      </trkpt>
      <trkpt lat="42.9405450" lon="0.5640170">
        <ele>699.2</ele>
        <time>2020-07-24T11:44:23Z</time>
      </trkpt>
      <trkpt lat="42.9406150" lon="0.5640670">
        <ele>699.0</ele>
        <time>2020-07-24T11:44:24Z</time>
      </trkpt>
      <trkpt lat="42.9406960" lon="0.5640970">
        <ele>698.6</ele>
        <time>2020-07-24T11:44:25Z</time>
      </trkpt>
      <trkpt lat="42.9408040" lon="0.5641070">
        <ele>698.2</ele>
        <time>2020-07-24T11:44:26Z</time>
      </trkpt>
      <trkpt lat="42.9409510" lon="0.5640930">
        <ele>698.0</ele>
        <time>2020-07-24T11:44:27Z</time>
      </trkpt>
      <trkpt lat="42.9410650" lon="0.5640670">
        <ele>697.8</ele>
        <time>2020-07-24T11:44:28Z</time>
      </trkpt>
      <trkpt lat="42.9412740" lon="0.5639870">
        <ele>696.8</ele>
        <time>2020-07-24T11:44:30Z</time>
      </trkpt>
      <trkpt lat="42.9414500" lon="0.5639170">
        <ele>695.4</ele>
        <time>2020-07-24T11:44:32Z</time>
      </trkpt>
      <trkpt lat="42.9416110" lon="0.5639350">
        <ele>694.6</ele>
        <time>2020-07-24T11:44:34Z</time>
      </trkpt>
      <trkpt lat="42.9416880" lon="0.5639630">
        <ele>694.4</ele>
        <time>2020-07-24T11:44:35Z</time>
      </trkpt>
      <trkpt lat="42.9417660" lon="0.5639920">
        <ele>694.2</ele>
        <time>2020-07-24T11:44:36Z</time>
      </trkpt>
      <trkpt lat="42.9419340" lon="0.5640180">
        <ele>693.8</ele>
        <time>2020-07-24T11:44:38Z</time>
      </trkpt>
      <trkpt lat="42.9421050" lon="0.5640080">
        <ele>693.4</ele>
        <time>2020-07-24T11:44:40Z</time>
      </trkpt>
      <trkpt lat="42.9421850" lon="0.5640170">
        <ele>693.0</ele>
        <time>2020-07-24T11:44:41Z</time>
      </trkpt>
      <trkpt lat="42.9423300" lon="0.5641000">
        <ele>692.2</ele>
        <time>2020-07-24T11:44:43Z</time>
      </trkpt>
      <trkpt lat="42.9424010" lon="0.5641640">
        <ele>692.0</ele>
        <time>2020-07-24T11:44:44Z</time>
      </trkpt>
      <trkpt lat="42.9425990" lon="0.5643850">
        <ele>691.2</ele>
        <time>2020-07-24T11:44:47Z</time>
      </trkpt>
      <trkpt lat="42.9426620" lon="0.5644690">
        <ele>690.6</ele>
        <time>2020-07-24T11:44:48Z</time>
      </trkpt>
      <trkpt lat="42.9427220" lon="0.5645640">
        <ele>689.8</ele>
        <time>2020-07-24T11:44:49Z</time>
      </trkpt>
      <trkpt lat="42.9427790" lon="0.5646670">
        <ele>689.2</ele>
        <time>2020-07-24T11:44:50Z</time>
      </trkpt>
      <trkpt lat="42.9428380" lon="0.5647730">
        <ele>688.6</ele>
        <time>2020-07-24T11:44:51Z</time>
      </trkpt>
      <trkpt lat="42.9428990" lon="0.5648730">
        <ele>688.2</ele>
        <time>2020-07-24T11:44:52Z</time>
      </trkpt>
      <trkpt lat="42.9429700" lon="0.5649590">
        <ele>687.8</ele>
        <time>2020-07-24T11:44:53Z</time>
      </trkpt>
      <trkpt lat="42.9431350" lon="0.5650790">
        <ele>686.4</ele>
        <time>2020-07-24T11:44:55Z</time>
      </trkpt>
      <trkpt lat="42.9433240" lon="0.5651790">
        <ele>685.0</ele>
        <time>2020-07-24T11:44:57Z</time>
      </trkpt>
      <trkpt lat="42.9435030" lon="0.5653050">
        <ele>683.6</ele>
        <time>2020-07-24T11:44:59Z</time>
      </trkpt>
      <trkpt lat="42.9436770" lon="0.5654770">
        <ele>681.8</ele>
        <time>2020-07-24T11:45:01Z</time>
      </trkpt>
      <trkpt lat="42.9437570" lon="0.5655810">
        <ele>680.8</ele>
        <time>2020-07-24T11:45:02Z</time>
      </trkpt>
      <trkpt lat="42.9438340" lon="0.5656890">
        <ele>679.8</ele>
        <time>2020-07-24T11:45:03Z</time>
      </trkpt>
      <trkpt lat="42.9439130" lon="0.5657940">
        <ele>679.0</ele>
        <time>2020-07-24T11:45:04Z</time>
      </trkpt>
      <trkpt lat="42.9440850" lon="0.5659800">
        <ele>677.0</ele>
        <time>2020-07-24T11:45:06Z</time>
      </trkpt>
      <trkpt lat="42.9441840" lon="0.5660550">
        <ele>676.2</ele>
        <time>2020-07-24T11:45:07Z</time>
      </trkpt>
      <trkpt lat="42.9442680" lon="0.5661300">
        <ele>675.4</ele>
        <time>2020-07-24T11:45:08Z</time>
      </trkpt>
      <trkpt lat="42.9443420" lon="0.5662170">
        <ele>674.6</ele>
        <time>2020-07-24T11:45:09Z</time>
      </trkpt>
      <trkpt lat="42.9444120" lon="0.5663140">
        <ele>674.2</ele>
        <time>2020-07-24T11:45:10Z</time>
      </trkpt>
      <trkpt lat="42.9444730" lon="0.5664180">
        <ele>673.8</ele>
        <time>2020-07-24T11:45:11Z</time>
      </trkpt>
      <trkpt lat="42.9446100" lon="0.5665810">
        <ele>673.0</ele>
        <time>2020-07-24T11:45:13Z</time>
      </trkpt>
      <trkpt lat="42.9446970" lon="0.5666180">
        <ele>672.4</ele>
        <time>2020-07-24T11:45:14Z</time>
      </trkpt>
      <trkpt lat="42.9447830" lon="0.5666240">
        <ele>672.2</ele>
        <time>2020-07-24T11:45:15Z</time>
      </trkpt>
      <trkpt lat="42.9448810" lon="0.5666050">
        <ele>671.8</ele>
        <time>2020-07-24T11:45:16Z</time>
      </trkpt>
      <trkpt lat="42.9449770" lon="0.5665780">
        <ele>671.4</ele>
        <time>2020-07-24T11:45:17Z</time>
      </trkpt>
      <trkpt lat="42.9450750" lon="0.5665480">
        <ele>670.6</ele>
        <time>2020-07-24T11:45:18Z</time>
      </trkpt>
      <trkpt lat="42.9452670" lon="0.5664710">
        <ele>669.0</ele>
        <time>2020-07-24T11:45:20Z</time>
      </trkpt>
      <trkpt lat="42.9454360" lon="0.5664050">
        <ele>667.6</ele>
        <time>2020-07-24T11:45:22Z</time>
      </trkpt>
      <trkpt lat="42.9455900" lon="0.5664520">
        <ele>666.4</ele>
        <time>2020-07-24T11:45:24Z</time>
      </trkpt>
      <trkpt lat="42.9457130" lon="0.5666070">
        <ele>665.6</ele>
        <time>2020-07-24T11:45:26Z</time>
      </trkpt>
      <trkpt lat="42.9457670" lon="0.5666970">
        <ele>665.4</ele>
        <time>2020-07-24T11:45:27Z</time>
      </trkpt>
      <trkpt lat="42.9458180" lon="0.5667920">
        <ele>665.2</ele>
        <time>2020-07-24T11:45:28Z</time>
      </trkpt>
      <trkpt lat="42.9460710" lon="0.5672880">
        <ele>663.2</ele>
        <time>2020-07-24T11:45:33Z</time>
      </trkpt>
      <trkpt lat="42.9461290" lon="0.5673610">
        <ele>661.6</ele>
        <time>2020-07-24T11:45:34Z</time>
      </trkpt>
      <trkpt lat="42.9462060" lon="0.5674090">
        <ele>660.6</ele>
        <time>2020-07-24T11:45:35Z</time>
      </trkpt>
      <trkpt lat="42.9462790" lon="0.5674390">
        <ele>659.6</ele>
        <time>2020-07-24T11:45:36Z</time>
      </trkpt>
      <trkpt lat="42.9463610" lon="0.5674490">
        <ele>659.0</ele>
        <time>2020-07-24T11:45:37Z</time>
      </trkpt>
      <trkpt lat="42.9465560" lon="0.5674480">
        <ele>658.2</ele>
        <time>2020-07-24T11:45:39Z</time>
      </trkpt>
      <trkpt lat="42.9466640" lon="0.5674460">
        <ele>657.6</ele>
        <time>2020-07-24T11:45:40Z</time>
      </trkpt>
      <trkpt lat="42.9468980" lon="0.5674280">
        <ele>656.6</ele>
        <time>2020-07-24T11:45:42Z</time>
      </trkpt>
      <trkpt lat="42.9470220" lon="0.5674100">
        <ele>656.2</ele>
        <time>2020-07-24T11:45:43Z</time>
      </trkpt>
      <trkpt lat="42.9471420" lon="0.5673880">
        <ele>655.4</ele>
        <time>2020-07-24T11:45:44Z</time>
      </trkpt>
      <trkpt lat="42.9473710" lon="0.5673010">
        <ele>653.6</ele>
        <time>2020-07-24T11:45:46Z</time>
      </trkpt>
      <trkpt lat="42.9474860" lon="0.5672460">
        <ele>652.8</ele>
        <time>2020-07-24T11:45:47Z</time>
      </trkpt>
      <trkpt lat="42.9475990" lon="0.5671850">
        <ele>652.0</ele>
        <time>2020-07-24T11:45:48Z</time>
      </trkpt>
      <trkpt lat="42.9478270" lon="0.5670530">
        <ele>650.4</ele>
        <time>2020-07-24T11:45:50Z</time>
      </trkpt>
      <trkpt lat="42.9480500" lon="0.5668970">
        <ele>648.8</ele>
        <time>2020-07-24T11:45:52Z</time>
      </trkpt>
      <trkpt lat="42.9482710" lon="0.5667420">
        <ele>647.2</ele>
        <time>2020-07-24T11:45:54Z</time>
      </trkpt>
      <trkpt lat="42.9484970" lon="0.5666410">
        <ele>646.0</ele>
        <time>2020-07-24T11:45:56Z</time>
      </trkpt>
      <trkpt lat="42.9486080" lon="0.5666180">
        <ele>645.4</ele>
        <time>2020-07-24T11:45:57Z</time>
      </trkpt>
      <trkpt lat="42.9487130" lon="0.5666080">
        <ele>644.8</ele>
        <time>2020-07-24T11:45:58Z</time>
      </trkpt>
      <trkpt lat="42.9488120" lon="0.5666150">
        <ele>644.0</ele>
        <time>2020-07-24T11:45:59Z</time>
      </trkpt>
      <trkpt lat="42.9489090" lon="0.5666480">
        <ele>643.4</ele>
        <time>2020-07-24T11:46:00Z</time>
      </trkpt>
      <trkpt lat="42.9490030" lon="0.5666980">
        <ele>642.8</ele>
        <time>2020-07-24T11:46:01Z</time>
      </trkpt>
      <trkpt lat="42.9490920" lon="0.5667550">
        <ele>642.2</ele>
        <time>2020-07-24T11:46:02Z</time>
      </trkpt>
      <trkpt lat="42.9492630" lon="0.5668670">
        <ele>641.4</ele>
        <time>2020-07-24T11:46:04Z</time>
      </trkpt>
      <trkpt lat="42.9493520" lon="0.5669090">
        <ele>640.8</ele>
        <time>2020-07-24T11:46:05Z</time>
      </trkpt>
      <trkpt lat="42.9495030" lon="0.5669790">
        <ele>639.2</ele>
        <time>2020-07-24T11:46:07Z</time>
      </trkpt>
      <trkpt lat="42.9495760" lon="0.5670270">
        <ele>638.6</ele>
        <time>2020-07-24T11:46:08Z</time>
      </trkpt>
      <trkpt lat="42.9496430" lon="0.5670900">
        <ele>638.0</ele>
        <time>2020-07-24T11:46:09Z</time>
      </trkpt>
      <trkpt lat="42.9496980" lon="0.5671690">
        <ele>637.6</ele>
        <time>2020-07-24T11:46:10Z</time>
      </trkpt>
      <trkpt lat="42.9497410" lon="0.5672570">
        <ele>637.2</ele>
        <time>2020-07-24T11:46:11Z</time>
      </trkpt>
      <trkpt lat="42.9497820" lon="0.5673410">
        <ele>636.6</ele>
        <time>2020-07-24T11:46:12Z</time>
      </trkpt>
      <trkpt lat="42.9498350" lon="0.5674100">
        <ele>635.8</ele>
        <time>2020-07-24T11:46:13Z</time>
      </trkpt>
      <trkpt lat="42.9498920" lon="0.5674550">
        <ele>635.2</ele>
        <time>2020-07-24T11:46:14Z</time>
      </trkpt>
      <trkpt lat="42.9499850" lon="0.5674610">
        <ele>634.8</ele>
        <time>2020-07-24T11:46:15Z</time>
      </trkpt>
      <trkpt lat="42.9500620" lon="0.5674310">
        <ele>634.6</ele>
        <time>2020-07-24T11:46:16Z</time>
      </trkpt>
      <trkpt lat="42.9501280" lon="0.5673780">
        <ele>634.4</ele>
        <time>2020-07-24T11:46:17Z</time>
      </trkpt>
      <trkpt lat="42.9502540" lon="0.5672760">
        <ele>634.2</ele>
        <time>2020-07-24T11:46:19Z</time>
      </trkpt>
      <trkpt lat="42.9503240" lon="0.5672340">
        <ele>634.0</ele>
        <time>2020-07-24T11:46:20Z</time>
      </trkpt>
      <trkpt lat="42.9505490" lon="0.5671280">
        <ele>632.8</ele>
        <time>2020-07-24T11:46:23Z</time>
      </trkpt>
      <trkpt lat="42.9506990" lon="0.5670820">
        <ele>632.0</ele>
        <time>2020-07-24T11:46:25Z</time>
      </trkpt>
      <trkpt lat="42.9507780" lon="0.5670780">
        <ele>631.6</ele>
        <time>2020-07-24T11:46:26Z</time>
      </trkpt>
      <trkpt lat="42.9510160" lon="0.5670870">
        <ele>630.4</ele>
        <time>2020-07-24T11:46:29Z</time>
      </trkpt>
      <trkpt lat="42.9510960" lon="0.5670950">
        <ele>629.8</ele>
        <time>2020-07-24T11:46:30Z</time>
      </trkpt>
      <trkpt lat="42.9511780" lon="0.5671080">
        <ele>629.2</ele>
        <time>2020-07-24T11:46:31Z</time>
      </trkpt>
      <trkpt lat="42.9513520" lon="0.5671380">
        <ele>627.8</ele>
        <time>2020-07-24T11:46:33Z</time>
      </trkpt>
      <trkpt lat="42.9515360" lon="0.5671400">
        <ele>626.4</ele>
        <time>2020-07-24T11:46:35Z</time>
      </trkpt>
      <trkpt lat="42.9517290" lon="0.5670920">
        <ele>625.6</ele>
        <time>2020-07-24T11:46:37Z</time>
      </trkpt>
      <trkpt lat="42.9518260" lon="0.5670450">
        <ele>625.2</ele>
        <time>2020-07-24T11:46:38Z</time>
      </trkpt>
      <trkpt lat="42.9521000" lon="0.5668980">
        <ele>623.8</ele>
        <time>2020-07-24T11:46:41Z</time>
      </trkpt>
      <trkpt lat="42.9521770" lon="0.5668550">
        <ele>623.4</ele>
        <time>2020-07-24T11:46:42Z</time>
      </trkpt>
      <trkpt lat="42.9522550" lon="0.5668410">
        <ele>623.2</ele>
        <time>2020-07-24T11:46:43Z</time>
      </trkpt>
      <trkpt lat="42.9523320" lon="0.5668520">
        <ele>622.8</ele>
        <time>2020-07-24T11:46:44Z</time>
      </trkpt>
      <trkpt lat="42.9524100" lon="0.5668920">
        <ele>622.4</ele>
        <time>2020-07-24T11:46:45Z</time>
      </trkpt>
      <trkpt lat="42.9524810" lon="0.5669550">
        <ele>622.2</ele>
        <time>2020-07-24T11:46:46Z</time>
      </trkpt>
      <trkpt lat="42.9526080" lon="0.5671100">
        <ele>621.0</ele>
        <time>2020-07-24T11:46:48Z</time>
      </trkpt>
      <trkpt lat="42.9527420" lon="0.5672720">
        <ele>619.2</ele>
        <time>2020-07-24T11:46:50Z</time>
      </trkpt>
      <trkpt lat="42.9528170" lon="0.5673430">
        <ele>618.4</ele>
        <time>2020-07-24T11:46:51Z</time>
      </trkpt>
      <trkpt lat="42.9528940" lon="0.5673990">
        <ele>617.8</ele>
        <time>2020-07-24T11:46:52Z</time>
      </trkpt>
      <trkpt lat="42.9529800" lon="0.5674370">
        <ele>617.0</ele>
        <time>2020-07-24T11:46:53Z</time>
      </trkpt>
      <trkpt lat="42.9530690" lon="0.5674560">
        <ele>616.4</ele>
        <time>2020-07-24T11:46:54Z</time>
      </trkpt>
      <trkpt lat="42.9531680" lon="0.5674430">
        <ele>616.0</ele>
        <time>2020-07-24T11:46:55Z</time>
      </trkpt>
      <trkpt lat="42.9533500" lon="0.5674500">
        <ele>615.0</ele>
        <time>2020-07-24T11:46:57Z</time>
      </trkpt>
      <trkpt lat="42.9535250" lon="0.5674590">
        <ele>613.6</ele>
        <time>2020-07-24T11:46:59Z</time>
      </trkpt>
      <trkpt lat="42.9536120" lon="0.5674480">
        <ele>612.8</ele>
        <time>2020-07-24T11:47:00Z</time>
      </trkpt>
      <trkpt lat="42.9536970" lon="0.5674120">
        <ele>612.2</ele>
        <time>2020-07-24T11:47:01Z</time>
      </trkpt>
      <trkpt lat="42.9537770" lon="0.5673580">
        <ele>611.8</ele>
        <time>2020-07-24T11:47:02Z</time>
      </trkpt>
      <trkpt lat="42.9539390" lon="0.5672090">
        <ele>611.2</ele>
        <time>2020-07-24T11:47:04Z</time>
      </trkpt>
      <trkpt lat="42.9540990" lon="0.5670560">
        <ele>610.0</ele>
        <time>2020-07-24T11:47:06Z</time>
      </trkpt>
      <trkpt lat="42.9542620" lon="0.5669370">
        <ele>608.8</ele>
        <time>2020-07-24T11:47:08Z</time>
      </trkpt>
      <trkpt lat="42.9544390" lon="0.5668610">
        <ele>607.8</ele>
        <time>2020-07-24T11:47:10Z</time>
      </trkpt>
      <trkpt lat="42.9546290" lon="0.5668220">
        <ele>606.4</ele>
        <time>2020-07-24T11:47:12Z</time>
      </trkpt>
      <trkpt lat="42.9548070" lon="0.5667840">
        <ele>605.8</ele>
        <time>2020-07-24T11:47:14Z</time>
      </trkpt>
      <trkpt lat="42.9548960" lon="0.5667600">
        <ele>605.4</ele>
        <time>2020-07-24T11:47:15Z</time>
      </trkpt>
      <trkpt lat="42.9552380" lon="0.5666930">
        <ele>604.0</ele>
        <time>2020-07-24T11:47:19Z</time>
      </trkpt>
      <trkpt lat="42.9553230" lon="0.5667100">
        <ele>603.6</ele>
        <time>2020-07-24T11:47:20Z</time>
      </trkpt>
      <trkpt lat="42.9554070" lon="0.5667500">
        <ele>603.0</ele>
        <time>2020-07-24T11:47:21Z</time>
      </trkpt>
      <trkpt lat="42.9555700" lon="0.5668710">
        <ele>602.0</ele>
        <time>2020-07-24T11:47:23Z</time>
      </trkpt>
      <trkpt lat="42.9557240" lon="0.5669920">
        <ele>600.8</ele>
        <time>2020-07-24T11:47:25Z</time>
      </trkpt>
      <trkpt lat="42.9559510" lon="0.5671570">
        <ele>599.8</ele>
        <time>2020-07-24T11:47:28Z</time>
      </trkpt>
      <trkpt lat="42.9560300" lon="0.5672010">
        <ele>599.4</ele>
        <time>2020-07-24T11:47:29Z</time>
      </trkpt>
      <trkpt lat="42.9561970" lon="0.5672570">
        <ele>598.6</ele>
        <time>2020-07-24T11:47:31Z</time>
      </trkpt>
      <trkpt lat="42.9563900" lon="0.5672590">
        <ele>598.0</ele>
        <time>2020-07-24T11:47:33Z</time>
      </trkpt>
      <trkpt lat="42.9566650" lon="0.5672060">
        <ele>597.4</ele>
        <time>2020-07-24T11:47:36Z</time>
      </trkpt>
      <trkpt lat="42.9568430" lon="0.5671600">
        <ele>596.4</ele>
        <time>2020-07-24T11:47:38Z</time>
      </trkpt>
      <trkpt lat="42.9569320" lon="0.5671360">
        <ele>596.0</ele>
        <time>2020-07-24T11:47:39Z</time>
      </trkpt>
      <trkpt lat="42.9571900" lon="0.5670880">
        <ele>594.8</ele>
        <time>2020-07-24T11:47:42Z</time>
      </trkpt>
      <trkpt lat="42.9574380" lon="0.5670460">
        <ele>594.0</ele>
        <time>2020-07-24T11:47:45Z</time>
      </trkpt>
      <trkpt lat="42.9575210" lon="0.5670320">
        <ele>593.6</ele>
        <time>2020-07-24T11:47:46Z</time>
      </trkpt>
      <trkpt lat="42.9577770" lon="0.5669970">
        <ele>592.6</ele>
        <time>2020-07-24T11:47:49Z</time>
      </trkpt>
      <trkpt lat="42.9578620" lon="0.5669970">
        <ele>592.4</ele>
        <time>2020-07-24T11:47:50Z</time>
      </trkpt>
      <trkpt lat="42.9580300" lon="0.5670250">
        <ele>591.6</ele>
        <time>2020-07-24T11:47:52Z</time>
      </trkpt>
      <trkpt lat="42.9581110" lon="0.5670470">
        <ele>591.4</ele>
        <time>2020-07-24T11:47:53Z</time>
      </trkpt>
      <trkpt lat="42.9583540" lon="0.5671290">
        <ele>591.0</ele>
        <time>2020-07-24T11:47:56Z</time>
      </trkpt>
      <trkpt lat="42.9585050" lon="0.5672000">
        <ele>591.0</ele>
        <time>2020-07-24T11:47:58Z</time>
      </trkpt>
      <trkpt lat="42.9585780" lon="0.5672470">
        <ele>590.8</ele>
        <time>2020-07-24T11:47:59Z</time>
      </trkpt>
      <trkpt lat="42.9586460" lon="0.5673010">
        <ele>590.6</ele>
        <time>2020-07-24T11:48:00Z</time>
      </trkpt>
      <trkpt lat="42.9587150" lon="0.5673480">
        <ele>590.4</ele>
        <time>2020-07-24T11:48:01Z</time>
      </trkpt>
      <trkpt lat="42.9587840" lon="0.5673860">
        <ele>589.8</ele>
        <time>2020-07-24T11:48:02Z</time>
      </trkpt>
      <trkpt lat="42.9588520" lon="0.5674090">
        <ele>589.4</ele>
        <time>2020-07-24T11:48:03Z</time>
      </trkpt>
      <trkpt lat="42.9589150" lon="0.5674190">
        <ele>589.2</ele>
        <time>2020-07-24T11:48:04Z</time>
      </trkpt>
      <trkpt lat="42.9589820" lon="0.5674170">
        <ele>589.0</ele>
        <time>2020-07-24T11:48:05Z</time>
      </trkpt>
      <trkpt lat="42.9590460" lon="0.5674130">
        <ele>588.8</ele>
        <time>2020-07-24T11:48:06Z</time>
      </trkpt>
      <trkpt lat="42.9591560" lon="0.5674190">
        <ele>588.2</ele>
        <time>2020-07-24T11:48:08Z</time>
      </trkpt>
      <trkpt lat="42.9592060" lon="0.5674360">
        <ele>587.8</ele>
        <time>2020-07-24T11:48:09Z</time>
      </trkpt>
      <trkpt lat="42.9592550" lon="0.5674540">
        <ele>587.6</ele>
        <time>2020-07-24T11:48:10Z</time>
      </trkpt>
      <trkpt lat="42.9593780" lon="0.5674800">
        <ele>587.2</ele>
        <time>2020-07-24T11:48:13Z</time>
      </trkpt>
      <trkpt lat="42.9594190" lon="0.5674660">
        <ele>587.2</ele>
        <time>2020-07-24T11:48:14Z</time>
      </trkpt>
      <trkpt lat="42.9594560" lon="0.5674380">
        <ele>587.2</ele>
        <time>2020-07-24T11:48:15Z</time>
      </trkpt>
      <trkpt lat="42.9595510" lon="0.5673680">
        <ele>587.6</ele>
        <time>2020-07-24T11:48:18Z</time>
      </trkpt>
      <trkpt lat="42.9595740" lon="0.5673530">
        <ele>587.8</ele>
        <time>2020-07-24T11:48:20Z</time>
      </trkpt>
      <trkpt lat="42.9594660" lon="0.5673520">
        <ele>587.8</ele>
        <time>2020-07-24T11:49:09Z</time>
      </trkpt>
      <trkpt lat="42.9594910" lon="0.5673300">
        <ele>587.8</ele>
        <time>2020-07-24T11:49:10Z</time>
      </trkpt>
      <trkpt lat="42.9595190" lon="0.5673040">
        <ele>587.8</ele>
        <time>2020-07-24T11:49:11Z</time>
      </trkpt>
      <trkpt lat="42.9595800" lon="0.5672450">
        <ele>588.2</ele>
        <time>2020-07-24T11:49:13Z</time>
      </trkpt>
      <trkpt lat="42.9596090" lon="0.5672140">
        <ele>588.4</ele>
        <time>2020-07-24T11:49:14Z</time>
      </trkpt>
      <trkpt lat="42.9596860" lon="0.5671220">
        <ele>588.8</ele>
        <time>2020-07-24T11:49:17Z</time>
      </trkpt>
      <trkpt lat="42.9597070" lon="0.5670910">
        <ele>589.0</ele>
        <time>2020-07-24T11:49:18Z</time>
      </trkpt>
      <trkpt lat="42.9597660" lon="0.5670050">
        <ele>590.0</ele>
        <time>2020-07-24T11:49:21Z</time>
      </trkpt>
      <trkpt lat="42.9598220" lon="0.5669230">
        <ele>590.8</ele>
        <time>2020-07-24T11:49:24Z</time>
      </trkpt>
      <trkpt lat="42.9598510" lon="0.5668740">
        <ele>591.0</ele>
        <time>2020-07-24T11:49:26Z</time>
      </trkpt>
      <trkpt lat="42.9598640" lon="0.5668520">
        <ele>591.4</ele>
        <time>2020-07-24T11:49:27Z</time>
      </trkpt>
      <trkpt lat="42.9598740" lon="0.5668290">
        <ele>591.6</ele>
        <time>2020-07-24T11:49:28Z</time>
      </trkpt>
      <trkpt lat="42.9598840" lon="0.5668080">
        <ele>592.0</ele>
        <time>2020-07-24T11:49:29Z</time>
      </trkpt>
      <trkpt lat="42.9598980" lon="0.5667850">
        <ele>592.2</ele>
        <time>2020-07-24T11:49:30Z</time>
      </trkpt>
      <trkpt lat="42.9599330" lon="0.5667140">
        <ele>592.8</ele>
        <time>2020-07-24T11:49:33Z</time>
      </trkpt>
      <trkpt lat="42.9599630" lon="0.5666550">
        <ele>593.2</ele>
        <time>2020-07-24T11:49:35Z</time>
      </trkpt>
      <trkpt lat="42.9599720" lon="0.5666270">
        <ele>593.4</ele>
        <time>2020-07-24T11:49:36Z</time>
      </trkpt>
      <trkpt lat="42.9600250" lon="0.5665190">
        <ele>593.8</ele>
        <time>2020-07-24T11:49:40Z</time>
      </trkpt>
      <trkpt lat="42.9600700" lon="0.5664300">
        <ele>594.4</ele>
        <time>2020-07-24T11:49:43Z</time>
      </trkpt>
      <trkpt lat="42.9600870" lon="0.5664000">
        <ele>594.6</ele>
        <time>2020-07-24T11:49:44Z</time>
      </trkpt>
      <trkpt lat="42.9601060" lon="0.5663750">
        <ele>595.0</ele>
        <time>2020-07-24T11:49:45Z</time>
      </trkpt>
      <trkpt lat="42.9601250" lon="0.5663490">
        <ele>595.2</ele>
        <time>2020-07-24T11:49:46Z</time>
      </trkpt>
      <trkpt lat="42.9601430" lon="0.5663240">
        <ele>595.6</ele>
        <time>2020-07-24T11:49:47Z</time>
      </trkpt>
      <trkpt lat="42.9601640" lon="0.5662970">
        <ele>595.6</ele>
        <time>2020-07-24T11:49:48Z</time>
      </trkpt>
      <trkpt lat="42.9601810" lon="0.5662680">
        <ele>595.8</ele>
        <time>2020-07-24T11:49:49Z</time>
      </trkpt>
      <trkpt lat="42.9602350" lon="0.5661890">
        <ele>596.6</ele>
        <time>2020-07-24T11:49:52Z</time>
      </trkpt>
      <trkpt lat="42.9602530" lon="0.5661660">
        <ele>596.8</ele>
        <time>2020-07-24T11:49:53Z</time>
      </trkpt>
      <trkpt lat="42.9603790" lon="0.5660620">
        <ele>597.8</ele>
        <time>2020-07-24T11:49:58Z</time>
      </trkpt>
      <trkpt lat="42.9605200" lon="0.5660240">
        <ele>598.8</ele>
        <time>2020-07-24T11:50:03Z</time>
      </trkpt>
      <trkpt lat="42.9605760" lon="0.5660120">
        <ele>599.4</ele>
        <time>2020-07-24T11:50:05Z</time>
      </trkpt>
      <trkpt lat="42.9606810" lon="0.5659790">
        <ele>600.0</ele>
        <time>2020-07-24T11:50:09Z</time>
      </trkpt>
      <trkpt lat="42.9607060" lon="0.5659650">
        <ele>600.0</ele>
        <time>2020-07-24T11:50:10Z</time>
      </trkpt>
      <trkpt lat="42.9607500" lon="0.5659380">
        <ele>600.4</ele>
        <time>2020-07-24T11:50:12Z</time>
      </trkpt>
      <trkpt lat="42.9607860" lon="0.5659000">
        <ele>600.8</ele>
        <time>2020-07-24T11:50:14Z</time>
      </trkpt>
      <trkpt lat="42.9608080" lon="0.5658470">
        <ele>601.0</ele>
        <time>2020-07-24T11:50:16Z</time>
      </trkpt>
      <trkpt lat="42.9608140" lon="0.5658180">
        <ele>601.0</ele>
        <time>2020-07-24T11:50:17Z</time>
      </trkpt>
      <trkpt lat="42.9608170" lon="0.5657860">
        <ele>601.0</ele>
        <time>2020-07-24T11:50:18Z</time>
      </trkpt>
      <trkpt lat="42.9608160" lon="0.5657080">
        <ele>601.4</ele>
        <time>2020-07-24T11:50:21Z</time>
      </trkpt>
      <trkpt lat="42.9608130" lon="0.5656750">
        <ele>601.8</ele>
        <time>2020-07-24T11:50:23Z</time>
      </trkpt>
      <trkpt lat="42.9608120" lon="0.5656650">
        <ele>602.0</ele>
        <time>2020-07-24T11:50:24Z</time>
      </trkpt>
      <trkpt lat="42.9607680" lon="0.5655930">
        <ele>602.2</ele>
        <time>2020-07-24T11:50:50Z</time>
      </trkpt>
      <trkpt lat="42.9607270" lon="0.5655650">
        <ele>602.4</ele>
        <time>2020-07-24T11:50:52Z</time>
      </trkpt>
      <trkpt lat="42.9606470" lon="0.5655200">
        <ele>603.0</ele>
        <time>2020-07-24T11:50:55Z</time>
      </trkpt>
      <trkpt lat="42.9605830" lon="0.5655110">
        <ele>603.2</ele>
        <time>2020-07-24T11:50:57Z</time>
      </trkpt>
      <trkpt lat="42.9604090" lon="0.5654900">
        <ele>604.4</ele>
        <time>2020-07-24T11:51:02Z</time>
      </trkpt>
      <trkpt lat="42.9602730" lon="0.5654550">
        <ele>605.6</ele>
        <time>2020-07-24T11:51:06Z</time>
      </trkpt>
      <trkpt lat="42.9601120" lon="0.5653950">
        <ele>606.6</ele>
        <time>2020-07-24T11:51:11Z</time>
      </trkpt>
      <trkpt lat="42.9600150" lon="0.5653520">
        <ele>607.2</ele>
        <time>2020-07-24T11:51:14Z</time>
      </trkpt>
      <trkpt lat="42.9599490" lon="0.5653230">
        <ele>607.6</ele>
        <time>2020-07-24T11:51:16Z</time>
      </trkpt>
      <trkpt lat="42.9597930" lon="0.5652340">
        <ele>609.0</ele>
        <time>2020-07-24T11:51:21Z</time>
      </trkpt>
      <trkpt lat="42.9597340" lon="0.5652010">
        <ele>609.4</ele>
        <time>2020-07-24T11:51:23Z</time>
      </trkpt>
      <trkpt lat="42.9596550" lon="0.5651340">
        <ele>610.0</ele>
        <time>2020-07-24T11:51:26Z</time>
      </trkpt>
      <trkpt lat="42.9595550" lon="0.5650360">
        <ele>610.6</ele>
        <time>2020-07-24T11:51:30Z</time>
      </trkpt>
      <trkpt lat="42.9595080" lon="0.5649850">
        <ele>611.2</ele>
        <time>2020-07-24T11:51:32Z</time>
      </trkpt>
      <trkpt lat="42.9594390" lon="0.5648880">
        <ele>612.4</ele>
        <time>2020-07-24T11:51:36Z</time>
      </trkpt>
      <trkpt lat="42.9594280" lon="0.5648710">
        <ele>612.6</ele>
        <time>2020-07-24T11:51:37Z</time>
      </trkpt>
      <trkpt lat="42.9593480" lon="0.5647420">
        <ele>613.2</ele>
        <time>2020-07-24T11:51:42Z</time>
      </trkpt>
      <trkpt lat="42.9593320" lon="0.5647100">
        <ele>613.4</ele>
        <time>2020-07-24T11:51:43Z</time>
      </trkpt>
      <trkpt lat="42.9593160" lon="0.5646760">
        <ele>613.6</ele>
        <time>2020-07-24T11:51:44Z</time>
      </trkpt>
      <trkpt lat="42.9592520" lon="0.5645430">
        <ele>614.6</ele>
        <time>2020-07-24T11:51:48Z</time>
      </trkpt>
      <trkpt lat="42.9592070" lon="0.5644490">
        <ele>615.8</ele>
        <time>2020-07-24T11:51:51Z</time>
      </trkpt>
      <trkpt lat="42.9591910" lon="0.5644180">
        <ele>616.0</ele>
        <time>2020-07-24T11:51:52Z</time>
      </trkpt>
      <trkpt lat="42.9591750" lon="0.5643880">
        <ele>616.2</ele>
        <time>2020-07-24T11:51:53Z</time>
      </trkpt>
      <trkpt lat="42.9591040" lon="0.5642620">
        <ele>616.8</ele>
        <time>2020-07-24T11:51:57Z</time>
      </trkpt>
      <trkpt lat="42.9590130" lon="0.5640960">
        <ele>618.0</ele>
        <time>2020-07-24T11:52:02Z</time>
      </trkpt>
      <trkpt lat="42.9589200" lon="0.5639310">
        <ele>619.0</ele>
        <time>2020-07-24T11:52:07Z</time>
      </trkpt>
      <trkpt lat="42.9589020" lon="0.5638990">
        <ele>619.4</ele>
        <time>2020-07-24T11:52:08Z</time>
      </trkpt>
      <trkpt lat="42.9588510" lon="0.5638020">
        <ele>620.2</ele>
        <time>2020-07-24T11:52:11Z</time>
      </trkpt>
      <trkpt lat="42.9588330" lon="0.5637720">
        <ele>620.4</ele>
        <time>2020-07-24T11:52:12Z</time>
      </trkpt>
      <trkpt lat="42.9587540" lon="0.5636120">
        <ele>621.4</ele>
        <time>2020-07-24T11:52:17Z</time>
      </trkpt>
      <trkpt lat="42.9587230" lon="0.5635490">
        <ele>622.0</ele>
        <time>2020-07-24T11:52:19Z</time>
      </trkpt>
      <trkpt lat="42.9586970" lon="0.5634800">
        <ele>622.6</ele>
        <time>2020-07-24T11:52:21Z</time>
      </trkpt>
      <trkpt lat="42.9586540" lon="0.5632980">
        <ele>623.6</ele>
        <time>2020-07-24T11:52:26Z</time>
      </trkpt>
      <trkpt lat="42.9586520" lon="0.5632580">
        <ele>623.8</ele>
        <time>2020-07-24T11:52:27Z</time>
      </trkpt>
      <trkpt lat="42.9586860" lon="0.5630670">
        <ele>625.0</ele>
        <time>2020-07-24T11:52:32Z</time>
      </trkpt>
      <trkpt lat="42.9586980" lon="0.5630330">
        <ele>625.2</ele>
        <time>2020-07-24T11:52:33Z</time>
      </trkpt>
      <trkpt lat="42.9587320" lon="0.5629220">
        <ele>626.2</ele>
        <time>2020-07-24T11:52:36Z</time>
      </trkpt>
      <trkpt lat="42.9587940" lon="0.5627060">
        <ele>627.2</ele>
        <time>2020-07-24T11:52:42Z</time>
      </trkpt>
      <trkpt lat="42.9588120" lon="0.5626360">
        <ele>627.8</ele>
        <time>2020-07-24T11:52:44Z</time>
      </trkpt>
      <trkpt lat="42.9588250" lon="0.5625610">
        <ele>628.4</ele>
        <time>2020-07-24T11:52:46Z</time>
      </trkpt>
      <trkpt lat="42.9588220" lon="0.5623680">
        <ele>629.4</ele>
        <time>2020-07-24T11:52:51Z</time>
      </trkpt>
      <trkpt lat="42.9587890" lon="0.5622210">
        <ele>630.6</ele>
        <time>2020-07-24T11:52:55Z</time>
      </trkpt>
      <trkpt lat="42.9587470" lon="0.5621170">
        <ele>631.4</ele>
        <time>2020-07-24T11:52:58Z</time>
      </trkpt>
      <trkpt lat="42.9587130" lon="0.5620550">
        <ele>631.8</ele>
        <time>2020-07-24T11:53:00Z</time>
      </trkpt>
      <trkpt lat="42.9586820" lon="0.5619890">
        <ele>632.4</ele>
        <time>2020-07-24T11:53:02Z</time>
      </trkpt>
      <trkpt lat="42.9586510" lon="0.5619200">
        <ele>633.0</ele>
        <time>2020-07-24T11:53:04Z</time>
      </trkpt>
      <trkpt lat="42.9586270" lon="0.5618460">
        <ele>633.4</ele>
        <time>2020-07-24T11:53:06Z</time>
      </trkpt>
      <trkpt lat="42.9585890" lon="0.5617240">
        <ele>634.2</ele>
        <time>2020-07-24T11:53:09Z</time>
      </trkpt>
      <trkpt lat="42.9585370" lon="0.5614760">
        <ele>635.6</ele>
        <time>2020-07-24T11:53:15Z</time>
      </trkpt>
      <trkpt lat="42.9585230" lon="0.5613910">
        <ele>636.0</ele>
        <time>2020-07-24T11:53:17Z</time>
      </trkpt>
      <trkpt lat="42.9585110" lon="0.5613070">
        <ele>636.6</ele>
        <time>2020-07-24T11:53:19Z</time>
      </trkpt>
      <trkpt lat="42.9584930" lon="0.5611380">
        <ele>637.6</ele>
        <time>2020-07-24T11:53:23Z</time>
      </trkpt>
      <trkpt lat="42.9584840" lon="0.5610590">
        <ele>638.0</ele>
        <time>2020-07-24T11:53:25Z</time>
      </trkpt>
      <trkpt lat="42.9584580" lon="0.5609480">
        <ele>638.4</ele>
        <time>2020-07-24T11:53:28Z</time>
      </trkpt>
      <trkpt lat="42.9584490" lon="0.5609120">
        <ele>638.6</ele>
        <time>2020-07-24T11:53:29Z</time>
      </trkpt>
      <trkpt lat="42.9583970" lon="0.5607730">
        <ele>639.6</ele>
        <time>2020-07-24T11:53:33Z</time>
      </trkpt>
      <trkpt lat="42.9583820" lon="0.5607400">
        <ele>639.6</ele>
        <time>2020-07-24T11:53:34Z</time>
      </trkpt>
      <trkpt lat="42.9582910" lon="0.5605970">
        <ele>641.0</ele>
        <time>2020-07-24T11:53:39Z</time>
      </trkpt>
      <trkpt lat="42.9582710" lon="0.5605680">
        <ele>641.2</ele>
        <time>2020-07-24T11:53:40Z</time>
      </trkpt>
      <trkpt lat="42.9581760" lon="0.5604600">
        <ele>642.2</ele>
        <time>2020-07-24T11:53:44Z</time>
      </trkpt>
      <trkpt lat="42.9580760" lon="0.5603490">
        <ele>643.4</ele>
        <time>2020-07-24T11:53:48Z</time>
      </trkpt>
      <trkpt lat="42.9580500" lon="0.5603250">
        <ele>643.6</ele>
        <time>2020-07-24T11:53:49Z</time>
      </trkpt>
      <trkpt lat="42.9579450" lon="0.5602230">
        <ele>644.6</ele>
        <time>2020-07-24T11:53:53Z</time>
      </trkpt>
      <trkpt lat="42.9578240" lon="0.5601060">
        <ele>645.4</ele>
        <time>2020-07-24T11:53:58Z</time>
      </trkpt>
      <trkpt lat="42.9577730" lon="0.5600600">
        <ele>645.8</ele>
        <time>2020-07-24T11:54:00Z</time>
      </trkpt>
      <trkpt lat="42.9576930" lon="0.5599500">
        <ele>647.0</ele>
        <time>2020-07-24T11:54:04Z</time>
      </trkpt>
      <trkpt lat="42.9576720" lon="0.5599220">
        <ele>647.2</ele>
        <time>2020-07-24T11:54:05Z</time>
      </trkpt>
      <trkpt lat="42.9576200" lon="0.5598180">
        <ele>648.0</ele>
        <time>2020-07-24T11:54:08Z</time>
      </trkpt>
      <trkpt lat="42.9575660" lon="0.5596730">
        <ele>648.6</ele>
        <time>2020-07-24T11:54:12Z</time>
      </trkpt>
      <trkpt lat="42.9575420" lon="0.5595990">
        <ele>649.0</ele>
        <time>2020-07-24T11:54:14Z</time>
      </trkpt>
      <trkpt lat="42.9574780" lon="0.5593780">
        <ele>650.4</ele>
        <time>2020-07-24T11:54:20Z</time>
      </trkpt>
      <trkpt lat="42.9574470" lon="0.5592710">
        <ele>651.4</ele>
        <time>2020-07-24T11:54:23Z</time>
      </trkpt>
      <trkpt lat="42.9574370" lon="0.5592340">
        <ele>651.6</ele>
        <time>2020-07-24T11:54:24Z</time>
      </trkpt>
      <trkpt lat="42.9573720" lon="0.5590580">
        <ele>652.8</ele>
        <time>2020-07-24T11:54:29Z</time>
      </trkpt>
      <trkpt lat="42.9573610" lon="0.5590240">
        <ele>653.0</ele>
        <time>2020-07-24T11:54:30Z</time>
      </trkpt>
      <trkpt lat="42.9573290" lon="0.5589380">
        <ele>654.0</ele>
        <time>2020-07-24T11:54:33Z</time>
      </trkpt>
      <trkpt lat="42.9572990" lon="0.5588360">
        <ele>654.8</ele>
        <time>2020-07-24T11:54:36Z</time>
      </trkpt>
      <trkpt lat="42.9572660" lon="0.5587710">
        <ele>655.2</ele>
        <time>2020-07-24T11:54:38Z</time>
      </trkpt>
      <trkpt lat="42.9571590" lon="0.5586530">
        <ele>655.8</ele>
        <time>2020-07-24T11:54:42Z</time>
      </trkpt>
      <trkpt lat="42.9571040" lon="0.5586110">
        <ele>656.6</ele>
        <time>2020-07-24T11:54:44Z</time>
      </trkpt>
      <trkpt lat="42.9569800" lon="0.5585480">
        <ele>657.4</ele>
        <time>2020-07-24T11:54:48Z</time>
      </trkpt>
      <trkpt lat="42.9569480" lon="0.5585350">
        <ele>657.6</ele>
        <time>2020-07-24T11:54:49Z</time>
      </trkpt>
      <trkpt lat="42.9567610" lon="0.5585160">
        <ele>658.6</ele>
        <time>2020-07-24T11:54:55Z</time>
      </trkpt>
      <trkpt lat="42.9567320" lon="0.5585330">
        <ele>658.8</ele>
        <time>2020-07-24T11:54:56Z</time>
      </trkpt>
      <trkpt lat="42.9567040" lon="0.5585430">
        <ele>659.0</ele>
        <time>2020-07-24T11:54:57Z</time>
      </trkpt>
      <trkpt lat="42.9565710" lon="0.5585760">
        <ele>659.8</ele>
        <time>2020-07-24T11:55:01Z</time>
      </trkpt>
      <trkpt lat="42.9564570" lon="0.5584970">
        <ele>661.0</ele>
        <time>2020-07-24T11:55:05Z</time>
      </trkpt>
      <trkpt lat="42.9563910" lon="0.5583480">
        <ele>662.2</ele>
        <time>2020-07-24T11:55:09Z</time>
      </trkpt>
      <trkpt lat="42.9563610" lon="0.5582690">
        <ele>662.6</ele>
        <time>2020-07-24T11:55:11Z</time>
      </trkpt>
      <trkpt lat="42.9563360" lon="0.5580860">
        <ele>663.2</ele>
        <time>2020-07-24T11:55:15Z</time>
      </trkpt>
      <trkpt lat="42.9563310" lon="0.5579960">
        <ele>663.6</ele>
        <time>2020-07-24T11:55:17Z</time>
      </trkpt>
      <trkpt lat="42.9563750" lon="0.5578220">
        <ele>664.2</ele>
        <time>2020-07-24T11:55:21Z</time>
      </trkpt>
      <trkpt lat="42.9564000" lon="0.5577870">
        <ele>664.4</ele>
        <time>2020-07-24T11:55:22Z</time>
      </trkpt>
      <trkpt lat="42.9564970" lon="0.5576470">
        <ele>665.4</ele>
        <time>2020-07-24T11:55:26Z</time>
      </trkpt>
      <trkpt lat="42.9565680" lon="0.5574610">
        <ele>665.8</ele>
        <time>2020-07-24T11:55:30Z</time>
      </trkpt>
      <trkpt lat="42.9565830" lon="0.5572920">
        <ele>666.0</ele>
        <time>2020-07-24T11:55:33Z</time>
      </trkpt>
      <trkpt lat="42.9565840" lon="0.5571640">
        <ele>666.0</ele>
        <time>2020-07-24T11:55:35Z</time>
      </trkpt>
      <trkpt lat="42.9566000" lon="0.5569280">
        <ele>666.4</ele>
        <time>2020-07-24T11:55:39Z</time>
      </trkpt>
      <trkpt lat="42.9566150" lon="0.5567370">
        <ele>667.0</ele>
        <time>2020-07-24T11:55:42Z</time>
      </trkpt>
      <trkpt lat="42.9566090" lon="0.5566120">
        <ele>667.0</ele>
        <time>2020-07-24T11:55:44Z</time>
      </trkpt>
      <trkpt lat="42.9565720" lon="0.5564720">
        <ele>667.2</ele>
        <time>2020-07-24T11:55:46Z</time>
      </trkpt>
      <trkpt lat="42.9565420" lon="0.5563990">
        <ele>667.4</ele>
        <time>2020-07-24T11:55:47Z</time>
      </trkpt>
      <trkpt lat="42.9565050" lon="0.5563280">
        <ele>667.4</ele>
        <time>2020-07-24T11:55:48Z</time>
      </trkpt>
      <trkpt lat="42.9563730" lon="0.5560570">
        <ele>667.8</ele>
        <time>2020-07-24T11:55:52Z</time>
      </trkpt>
      <trkpt lat="42.9562060" lon="0.5556570">
        <ele>668.2</ele>
        <time>2020-07-24T11:55:58Z</time>
      </trkpt>
      <trkpt lat="42.9561220" lon="0.5553740">
        <ele>668.6</ele>
        <time>2020-07-24T11:56:02Z</time>
      </trkpt>
      <trkpt lat="42.9560680" lon="0.5550970">
        <ele>669.6</ele>
        <time>2020-07-24T11:56:06Z</time>
      </trkpt>
      <trkpt lat="42.9560590" lon="0.5550260">
        <ele>669.8</ele>
        <time>2020-07-24T11:56:07Z</time>
      </trkpt>
      <trkpt lat="42.9560410" lon="0.5548120">
        <ele>670.4</ele>
        <time>2020-07-24T11:56:10Z</time>
      </trkpt>
      <trkpt lat="42.9560520" lon="0.5546680">
        <ele>670.6</ele>
        <time>2020-07-24T11:56:12Z</time>
      </trkpt>
      <trkpt lat="42.9560620" lon="0.5545970">
        <ele>670.8</ele>
        <time>2020-07-24T11:56:13Z</time>
      </trkpt>
      <trkpt lat="42.9560750" lon="0.5545270">
        <ele>670.8</ele>
        <time>2020-07-24T11:56:14Z</time>
      </trkpt>
      <trkpt lat="42.9561060" lon="0.5541790">
        <ele>671.4</ele>
        <time>2020-07-24T11:56:19Z</time>
      </trkpt>
      <trkpt lat="42.9561060" lon="0.5541080">
        <ele>671.4</ele>
        <time>2020-07-24T11:56:20Z</time>
      </trkpt>
      <trkpt lat="42.9560930" lon="0.5539640">
        <ele>671.6</ele>
        <time>2020-07-24T11:56:22Z</time>
      </trkpt>
      <trkpt lat="42.9560520" lon="0.5538190">
        <ele>671.6</ele>
        <time>2020-07-24T11:56:24Z</time>
      </trkpt>
      <trkpt lat="42.9560170" lon="0.5537470">
        <ele>671.6</ele>
        <time>2020-07-24T11:56:25Z</time>
      </trkpt>
      <trkpt lat="42.9559360" lon="0.5536140">
        <ele>671.8</ele>
        <time>2020-07-24T11:56:27Z</time>
      </trkpt>
      <trkpt lat="42.9558860" lon="0.5535570">
        <ele>672.0</ele>
        <time>2020-07-24T11:56:28Z</time>
      </trkpt>
      <trkpt lat="42.9558330" lon="0.5535040">
        <ele>672.0</ele>
        <time>2020-07-24T11:56:29Z</time>
      </trkpt>
      <trkpt lat="42.9555180" lon="0.5531740">
        <ele>672.0</ele>
        <time>2020-07-24T11:56:35Z</time>
      </trkpt>
      <trkpt lat="42.9553780" lon="0.5530080">
        <ele>672.2</ele>
        <time>2020-07-24T11:56:38Z</time>
      </trkpt>
      <trkpt lat="42.9552530" lon="0.5528330">
        <ele>673.0</ele>
        <time>2020-07-24T11:56:41Z</time>
      </trkpt>
      <trkpt lat="42.9551550" lon="0.5526230">
        <ele>673.2</ele>
        <time>2020-07-24T11:56:44Z</time>
      </trkpt>
      <trkpt lat="42.9549900" lon="0.5522000">
        <ele>673.6</ele>
        <time>2020-07-24T11:56:50Z</time>
      </trkpt>
      <trkpt lat="42.9549620" lon="0.5521280">
        <ele>673.6</ele>
        <time>2020-07-24T11:56:51Z</time>
      </trkpt>
      <trkpt lat="42.9548730" lon="0.5519100">
        <ele>673.6</ele>
        <time>2020-07-24T11:56:54Z</time>
      </trkpt>
      <trkpt lat="42.9548030" lon="0.5516660">
        <ele>673.6</ele>
        <time>2020-07-24T11:56:57Z</time>
      </trkpt>
      <trkpt lat="42.9547910" lon="0.5515770">
        <ele>673.6</ele>
        <time>2020-07-24T11:56:58Z</time>
      </trkpt>
      <trkpt lat="42.9547770" lon="0.5513100">
        <ele>674.2</ele>
        <time>2020-07-24T11:57:01Z</time>
      </trkpt>
      <trkpt lat="42.9547890" lon="0.5511380">
        <ele>674.4</ele>
        <time>2020-07-24T11:57:03Z</time>
      </trkpt>
      <trkpt lat="42.9548330" lon="0.5508890">
        <ele>675.0</ele>
        <time>2020-07-24T11:57:06Z</time>
      </trkpt>
      <trkpt lat="42.9548810" lon="0.5507360">
        <ele>675.2</ele>
        <time>2020-07-24T11:57:08Z</time>
      </trkpt>
      <trkpt lat="42.9550610" lon="0.5503970">
        <ele>675.6</ele>
        <time>2020-07-24T11:57:13Z</time>
      </trkpt>
      <trkpt lat="42.9551910" lon="0.5501980">
        <ele>676.2</ele>
        <time>2020-07-24T11:57:16Z</time>
      </trkpt>
      <trkpt lat="42.9553680" lon="0.5499660">
        <ele>677.2</ele>
        <time>2020-07-24T11:57:20Z</time>
      </trkpt>
      <trkpt lat="42.9554080" lon="0.5499070">
        <ele>677.4</ele>
        <time>2020-07-24T11:57:21Z</time>
      </trkpt>
      <trkpt lat="42.9554940" lon="0.5497020">
        <ele>677.6</ele>
        <time>2020-07-24T11:57:24Z</time>
      </trkpt>
      <trkpt lat="42.9555060" lon="0.5496270">
        <ele>677.8</ele>
        <time>2020-07-24T11:57:25Z</time>
      </trkpt>
      <trkpt lat="42.9555140" lon="0.5495480">
        <ele>678.0</ele>
        <time>2020-07-24T11:57:26Z</time>
      </trkpt>
      <trkpt lat="42.9555050" lon="0.5492940">
        <ele>678.4</ele>
        <time>2020-07-24T11:57:29Z</time>
      </trkpt>
      <trkpt lat="42.9554990" lon="0.5492070">
        <ele>678.4</ele>
        <time>2020-07-24T11:57:30Z</time>
      </trkpt>
      <trkpt lat="42.9554920" lon="0.5490320">
        <ele>678.6</ele>
        <time>2020-07-24T11:57:32Z</time>
      </trkpt>
      <trkpt lat="42.9555140" lon="0.5486110">
        <ele>678.8</ele>
        <time>2020-07-24T11:57:37Z</time>
      </trkpt>
      <trkpt lat="42.9555310" lon="0.5484580">
        <ele>679.4</ele>
        <time>2020-07-24T11:57:39Z</time>
      </trkpt>
      <trkpt lat="42.9555400" lon="0.5483860">
        <ele>679.6</ele>
        <time>2020-07-24T11:57:40Z</time>
      </trkpt>
      <trkpt lat="42.9555620" lon="0.5482480">
        <ele>680.0</ele>
        <time>2020-07-24T11:57:42Z</time>
      </trkpt>
      <trkpt lat="42.9555760" lon="0.5481850">
        <ele>680.2</ele>
        <time>2020-07-24T11:57:43Z</time>
      </trkpt>
      <trkpt lat="42.9555870" lon="0.5481240">
        <ele>680.6</ele>
        <time>2020-07-24T11:57:44Z</time>
      </trkpt>
      <trkpt lat="42.9556070" lon="0.5479280">
        <ele>681.6</ele>
        <time>2020-07-24T11:57:47Z</time>
      </trkpt>
      <trkpt lat="42.9556310" lon="0.5477260">
        <ele>682.2</ele>
        <time>2020-07-24T11:57:50Z</time>
      </trkpt>
      <trkpt lat="42.9556460" lon="0.5474960">
        <ele>682.8</ele>
        <time>2020-07-24T11:57:53Z</time>
      </trkpt>
      <trkpt lat="42.9556890" lon="0.5471010">
        <ele>683.2</ele>
        <time>2020-07-24T11:57:58Z</time>
      </trkpt>
      <trkpt lat="42.9557470" lon="0.5465740">
        <ele>682.8</ele>
        <time>2020-07-24T11:58:04Z</time>
      </trkpt>
      <trkpt lat="42.9557100" lon="0.5460300">
        <ele>683.0</ele>
        <time>2020-07-24T11:58:10Z</time>
      </trkpt>
      <trkpt lat="42.9557140" lon="0.5458600">
        <ele>683.2</ele>
        <time>2020-07-24T11:58:12Z</time>
      </trkpt>
      <trkpt lat="42.9557390" lon="0.5454620">
        <ele>684.0</ele>
        <time>2020-07-24T11:58:17Z</time>
      </trkpt>
      <trkpt lat="42.9557460" lon="0.5451610">
        <ele>684.8</ele>
        <time>2020-07-24T11:58:21Z</time>
      </trkpt>
      <trkpt lat="42.9557500" lon="0.5450860">
        <ele>685.0</ele>
        <time>2020-07-24T11:58:22Z</time>
      </trkpt>
      <trkpt lat="42.9557660" lon="0.5449310">
        <ele>685.6</ele>
        <time>2020-07-24T11:58:24Z</time>
      </trkpt>
      <trkpt lat="42.9558440" lon="0.5445180">
        <ele>685.8</ele>
        <time>2020-07-24T11:58:29Z</time>
      </trkpt>
      <trkpt lat="42.9558680" lon="0.5444330">
        <ele>685.6</ele>
        <time>2020-07-24T11:58:30Z</time>
      </trkpt>
      <trkpt lat="42.9559090" lon="0.5442590">
        <ele>685.6</ele>
        <time>2020-07-24T11:58:32Z</time>
      </trkpt>
      <trkpt lat="42.9559620" lon="0.5439020">
        <ele>685.8</ele>
        <time>2020-07-24T11:58:36Z</time>
      </trkpt>
      <trkpt lat="42.9559540" lon="0.5437190">
        <ele>685.8</ele>
        <time>2020-07-24T11:58:38Z</time>
      </trkpt>
      <trkpt lat="42.9559160" lon="0.5435440">
        <ele>685.6</ele>
        <time>2020-07-24T11:58:40Z</time>
      </trkpt>
      <trkpt lat="42.9558190" lon="0.5433070">
        <ele>685.4</ele>
        <time>2020-07-24T11:58:43Z</time>
      </trkpt>
      <trkpt lat="42.9557350" lon="0.5431670">
        <ele>685.4</ele>
        <time>2020-07-24T11:58:45Z</time>
      </trkpt>
      <trkpt lat="42.9554650" lon="0.5427650">
        <ele>685.8</ele>
        <time>2020-07-24T11:58:51Z</time>
      </trkpt>
      <trkpt lat="42.9554270" lon="0.5426930">
        <ele>685.8</ele>
        <time>2020-07-24T11:58:52Z</time>
      </trkpt>
      <trkpt lat="42.9552220" lon="0.5422130">
        <ele>686.2</ele>
        <time>2020-07-24T11:58:58Z</time>
      </trkpt>
      <trkpt lat="42.9551970" lon="0.5421270">
        <ele>686.4</ele>
        <time>2020-07-24T11:58:59Z</time>
      </trkpt>
      <trkpt lat="42.9550630" lon="0.5416030">
        <ele>686.8</ele>
        <time>2020-07-24T11:59:05Z</time>
      </trkpt>
      <trkpt lat="42.9549970" lon="0.5413610">
        <ele>686.8</ele>
        <time>2020-07-24T11:59:08Z</time>
      </trkpt>
      <trkpt lat="42.9549340" lon="0.5411270">
        <ele>687.2</ele>
        <time>2020-07-24T11:59:11Z</time>
      </trkpt>
      <trkpt lat="42.9548310" lon="0.5407480">
        <ele>688.2</ele>
        <time>2020-07-24T11:59:16Z</time>
      </trkpt>
      <trkpt lat="42.9548120" lon="0.5406730">
        <ele>688.6</ele>
        <time>2020-07-24T11:59:17Z</time>
      </trkpt>
      <trkpt lat="42.9546870" lon="0.5402280">
        <ele>689.4</ele>
        <time>2020-07-24T11:59:23Z</time>
      </trkpt>
      <trkpt lat="42.9546020" lon="0.5399410">
        <ele>689.8</ele>
        <time>2020-07-24T11:59:27Z</time>
      </trkpt>
      <trkpt lat="42.9544540" lon="0.5395100">
        <ele>690.4</ele>
        <time>2020-07-24T11:59:33Z</time>
      </trkpt>
      <trkpt lat="42.9544290" lon="0.5394380">
        <ele>690.4</ele>
        <time>2020-07-24T11:59:34Z</time>
      </trkpt>
      <trkpt lat="42.9543420" lon="0.5392260">
        <ele>690.8</ele>
        <time>2020-07-24T11:59:37Z</time>
      </trkpt>
      <trkpt lat="42.9542250" lon="0.5389450">
        <ele>691.4</ele>
        <time>2020-07-24T11:59:41Z</time>
      </trkpt>
      <trkpt lat="42.9541230" lon="0.5387410">
        <ele>691.8</ele>
        <time>2020-07-24T11:59:44Z</time>
      </trkpt>
      <trkpt lat="42.9539010" lon="0.5383290">
        <ele>692.2</ele>
        <time>2020-07-24T11:59:50Z</time>
      </trkpt>
      <trkpt lat="42.9538320" lon="0.5381780">
        <ele>692.0</ele>
        <time>2020-07-24T11:59:52Z</time>
      </trkpt>
      <trkpt lat="42.9536390" lon="0.5377270">
        <ele>691.8</ele>
        <time>2020-07-24T11:59:58Z</time>
      </trkpt>
      <trkpt lat="42.9535610" lon="0.5375970">
        <ele>692.0</ele>
        <time>2020-07-24T12:00:00Z</time>
      </trkpt>
      <trkpt lat="42.9534260" lon="0.5374270">
        <ele>692.6</ele>
        <time>2020-07-24T12:00:03Z</time>
      </trkpt>
      <trkpt lat="42.9532960" lon="0.5372760">
        <ele>693.4</ele>
        <time>2020-07-24T12:00:06Z</time>
      </trkpt>
      <trkpt lat="42.9532560" lon="0.5372320">
        <ele>693.8</ele>
        <time>2020-07-24T12:00:07Z</time>
      </trkpt>
      <trkpt lat="42.9531220" lon="0.5370840">
        <ele>695.0</ele>
        <time>2020-07-24T12:00:11Z</time>
      </trkpt>
      <trkpt lat="42.9530900" lon="0.5370520">
        <ele>695.2</ele>
        <time>2020-07-24T12:00:12Z</time>
      </trkpt>
      <trkpt lat="42.9530280" lon="0.5370110">
        <ele>696.2</ele>
        <time>2020-07-24T12:00:14Z</time>
      </trkpt>
      <trkpt lat="42.9529550" lon="0.5369410">
        <ele>695.8</ele>
        <time>2020-07-24T12:02:38Z</time>
      </trkpt>
      <trkpt lat="42.9529320" lon="0.5369250">
        <ele>695.8</ele>
        <time>2020-07-24T12:02:39Z</time>
      </trkpt>
      <trkpt lat="42.9527820" lon="0.5367440">
        <ele>696.8</ele>
        <time>2020-07-24T12:02:44Z</time>
      </trkpt>
      <trkpt lat="42.9527260" lon="0.5366500">
        <ele>697.0</ele>
        <time>2020-07-24T12:02:46Z</time>
      </trkpt>
      <trkpt lat="42.9527030" lon="0.5365870">
        <ele>696.8</ele>
        <time>2020-07-24T12:02:47Z</time>
      </trkpt>
      <trkpt lat="42.9526880" lon="0.5365160">
        <ele>696.8</ele>
        <time>2020-07-24T12:02:48Z</time>
      </trkpt>
      <trkpt lat="42.9526950" lon="0.5363620">
        <ele>697.0</ele>
        <time>2020-07-24T12:02:50Z</time>
      </trkpt>
      <trkpt lat="42.9527200" lon="0.5362110">
        <ele>697.2</ele>
        <time>2020-07-24T12:02:52Z</time>
      </trkpt>
      <trkpt lat="42.9527430" lon="0.5360590">
        <ele>697.2</ele>
        <time>2020-07-24T12:02:54Z</time>
      </trkpt>
      <trkpt lat="42.9527510" lon="0.5356720">
        <ele>697.4</ele>
        <time>2020-07-24T12:02:59Z</time>
      </trkpt>
      <trkpt lat="42.9527200" lon="0.5353760">
        <ele>698.0</ele>
        <time>2020-07-24T12:03:03Z</time>
      </trkpt>
      <trkpt lat="42.9526840" lon="0.5352260">
        <ele>698.0</ele>
        <time>2020-07-24T12:03:05Z</time>
      </trkpt>
      <trkpt lat="42.9525750" lon="0.5348500">
        <ele>698.2</ele>
        <time>2020-07-24T12:03:10Z</time>
      </trkpt>
      <trkpt lat="42.9525450" lon="0.5347810">
        <ele>698.2</ele>
        <time>2020-07-24T12:03:11Z</time>
      </trkpt>
      <trkpt lat="42.9524680" lon="0.5346560">
        <ele>698.6</ele>
        <time>2020-07-24T12:03:13Z</time>
      </trkpt>
      <trkpt lat="42.9523800" lon="0.5345430">
        <ele>699.0</ele>
        <time>2020-07-24T12:03:15Z</time>
      </trkpt>
      <trkpt lat="42.9523330" lon="0.5344930">
        <ele>699.2</ele>
        <time>2020-07-24T12:03:16Z</time>
      </trkpt>
      <trkpt lat="42.9522880" lon="0.5344450">
        <ele>699.4</ele>
        <time>2020-07-24T12:03:17Z</time>
      </trkpt>
      <trkpt lat="42.9519860" lon="0.5342010">
        <ele>700.4</ele>
        <time>2020-07-24T12:03:23Z</time>
      </trkpt>
      <trkpt lat="42.9518180" lon="0.5340910">
        <ele>700.4</ele>
        <time>2020-07-24T12:03:26Z</time>
      </trkpt>
      <trkpt lat="42.9517120" lon="0.5340190">
        <ele>700.8</ele>
        <time>2020-07-24T12:03:28Z</time>
      </trkpt>
      <trkpt lat="42.9516600" lon="0.5339800">
        <ele>701.0</ele>
        <time>2020-07-24T12:03:29Z</time>
      </trkpt>
      <trkpt lat="42.9515600" lon="0.5338950">
        <ele>701.6</ele>
        <time>2020-07-24T12:03:31Z</time>
      </trkpt>
      <trkpt lat="42.9515180" lon="0.5338380">
        <ele>702.0</ele>
        <time>2020-07-24T12:03:32Z</time>
      </trkpt>
      <trkpt lat="42.9513940" lon="0.5336780">
        <ele>702.4</ele>
        <time>2020-07-24T12:03:35Z</time>
      </trkpt>
      <trkpt lat="42.9513200" lon="0.5335650">
        <ele>702.6</ele>
        <time>2020-07-24T12:03:37Z</time>
      </trkpt>
      <trkpt lat="42.9512910" lon="0.5335000">
        <ele>702.8</ele>
        <time>2020-07-24T12:03:38Z</time>
      </trkpt>
      <trkpt lat="42.9512380" lon="0.5333580">
        <ele>703.2</ele>
        <time>2020-07-24T12:03:40Z</time>
      </trkpt>
      <trkpt lat="42.9512170" lon="0.5332840">
        <ele>703.4</ele>
        <time>2020-07-24T12:03:41Z</time>
      </trkpt>
      <trkpt lat="42.9511850" lon="0.5331400">
        <ele>703.6</ele>
        <time>2020-07-24T12:03:43Z</time>
      </trkpt>
      <trkpt lat="42.9511690" lon="0.5330680">
        <ele>704.0</ele>
        <time>2020-07-24T12:03:44Z</time>
      </trkpt>
      <trkpt lat="42.9511440" lon="0.5329200">
        <ele>704.6</ele>
        <time>2020-07-24T12:03:46Z</time>
      </trkpt>
      <trkpt lat="42.9510930" lon="0.5325460">
        <ele>705.0</ele>
        <time>2020-07-24T12:03:51Z</time>
      </trkpt>
      <trkpt lat="42.9510800" lon="0.5324010">
        <ele>705.4</ele>
        <time>2020-07-24T12:03:53Z</time>
      </trkpt>
      <trkpt lat="42.9510630" lon="0.5321900">
        <ele>706.2</ele>
        <time>2020-07-24T12:03:56Z</time>
      </trkpt>
      <trkpt lat="42.9510640" lon="0.5321180">
        <ele>706.4</ele>
        <time>2020-07-24T12:03:57Z</time>
      </trkpt>
      <trkpt lat="42.9510680" lon="0.5319750">
        <ele>706.6</ele>
        <time>2020-07-24T12:03:59Z</time>
      </trkpt>
      <trkpt lat="42.9510720" lon="0.5315300">
        <ele>707.2</ele>
        <time>2020-07-24T12:04:05Z</time>
      </trkpt>
      <trkpt lat="42.9510720" lon="0.5314560">
        <ele>707.6</ele>
        <time>2020-07-24T12:04:06Z</time>
      </trkpt>
      <trkpt lat="42.9510660" lon="0.5313040">
        <ele>708.0</ele>
        <time>2020-07-24T12:04:08Z</time>
      </trkpt>
      <trkpt lat="42.9510550" lon="0.5312300">
        <ele>708.4</ele>
        <time>2020-07-24T12:04:09Z</time>
      </trkpt>
      <trkpt lat="42.9510360" lon="0.5311590">
        <ele>708.8</ele>
        <time>2020-07-24T12:04:10Z</time>
      </trkpt>
      <trkpt lat="42.9510090" lon="0.5310930">
        <ele>708.8</ele>
        <time>2020-07-24T12:04:11Z</time>
      </trkpt>
      <trkpt lat="42.9509770" lon="0.5310310">
        <ele>709.0</ele>
        <time>2020-07-24T12:04:12Z</time>
      </trkpt>
      <trkpt lat="42.9508330" lon="0.5307270">
        <ele>709.0</ele>
        <time>2020-07-24T12:04:17Z</time>
      </trkpt>
      <trkpt lat="42.9508180" lon="0.5306560">
        <ele>709.2</ele>
        <time>2020-07-24T12:04:18Z</time>
      </trkpt>
      <trkpt lat="42.9508110" lon="0.5305850">
        <ele>709.6</ele>
        <time>2020-07-24T12:04:19Z</time>
      </trkpt>
      <trkpt lat="42.9508040" lon="0.5305130">
        <ele>709.8</ele>
        <time>2020-07-24T12:04:20Z</time>
      </trkpt>
      <trkpt lat="42.9507930" lon="0.5302980">
        <ele>710.4</ele>
        <time>2020-07-24T12:04:23Z</time>
      </trkpt>
      <trkpt lat="42.9507930" lon="0.5302270">
        <ele>710.8</ele>
        <time>2020-07-24T12:04:24Z</time>
      </trkpt>
      <trkpt lat="42.9507920" lon="0.5301570">
        <ele>711.0</ele>
        <time>2020-07-24T12:04:25Z</time>
      </trkpt>
      <trkpt lat="42.9507750" lon="0.5297280">
        <ele>712.2</ele>
        <time>2020-07-24T12:04:31Z</time>
      </trkpt>
      <trkpt lat="42.9507610" lon="0.5296570">
        <ele>712.4</ele>
        <time>2020-07-24T12:04:32Z</time>
      </trkpt>
      <trkpt lat="42.9507420" lon="0.5295880">
        <ele>712.4</ele>
        <time>2020-07-24T12:04:33Z</time>
      </trkpt>
      <trkpt lat="42.9506380" lon="0.5293150">
        <ele>713.0</ele>
        <time>2020-07-24T12:04:37Z</time>
      </trkpt>
      <trkpt lat="42.9505670" lon="0.5291900">
        <ele>713.4</ele>
        <time>2020-07-24T12:04:39Z</time>
      </trkpt>
      <trkpt lat="42.9504740" lon="0.5290860">
        <ele>713.4</ele>
        <time>2020-07-24T12:04:41Z</time>
      </trkpt>
      <trkpt lat="42.9503180" lon="0.5289620">
        <ele>713.8</ele>
        <time>2020-07-24T12:04:44Z</time>
      </trkpt>
      <trkpt lat="42.9499890" lon="0.5287210">
        <ele>714.4</ele>
        <time>2020-07-24T12:04:50Z</time>
      </trkpt>
      <trkpt lat="42.9499410" lon="0.5286700">
        <ele>714.6</ele>
        <time>2020-07-24T12:04:51Z</time>
      </trkpt>
      <trkpt lat="42.9498200" lon="0.5284860">
        <ele>714.8</ele>
        <time>2020-07-24T12:04:54Z</time>
      </trkpt>
      <trkpt lat="42.9497600" lon="0.5283430">
        <ele>715.2</ele>
        <time>2020-07-24T12:04:56Z</time>
      </trkpt>
      <trkpt lat="42.9496850" lon="0.5281190">
        <ele>715.8</ele>
        <time>2020-07-24T12:04:59Z</time>
      </trkpt>
      <trkpt lat="42.9496320" lon="0.5279750">
        <ele>716.2</ele>
        <time>2020-07-24T12:05:01Z</time>
      </trkpt>
      <trkpt lat="42.9495650" lon="0.5278320">
        <ele>716.2</ele>
        <time>2020-07-24T12:05:03Z</time>
      </trkpt>
      <trkpt lat="42.9494850" lon="0.5276940">
        <ele>716.4</ele>
        <time>2020-07-24T12:05:05Z</time>
      </trkpt>
      <trkpt lat="42.9493830" lon="0.5275900">
        <ele>716.4</ele>
        <time>2020-07-24T12:05:07Z</time>
      </trkpt>
      <trkpt lat="42.9492770" lon="0.5275100">
        <ele>717.0</ele>
        <time>2020-07-24T12:05:09Z</time>
      </trkpt>
      <trkpt lat="42.9490670" lon="0.5273580">
        <ele>718.2</ele>
        <time>2020-07-24T12:05:13Z</time>
      </trkpt>
      <trkpt lat="42.9490210" lon="0.5273170">
        <ele>718.2</ele>
        <time>2020-07-24T12:05:14Z</time>
      </trkpt>
      <trkpt lat="42.9488420" lon="0.5271400">
        <ele>719.2</ele>
        <time>2020-07-24T12:05:18Z</time>
      </trkpt>
      <trkpt lat="42.9488030" lon="0.5270930">
        <ele>719.4</ele>
        <time>2020-07-24T12:05:19Z</time>
      </trkpt>
      <trkpt lat="42.9487240" lon="0.5270050">
        <ele>719.8</ele>
        <time>2020-07-24T12:05:21Z</time>
      </trkpt>
      <trkpt lat="42.9486850" lon="0.5269650">
        <ele>720.0</ele>
        <time>2020-07-24T12:05:22Z</time>
      </trkpt>
      <trkpt lat="42.9486110" lon="0.5268870">
        <ele>720.6</ele>
        <time>2020-07-24T12:05:24Z</time>
      </trkpt>
      <trkpt lat="42.9484990" lon="0.5267800">
        <ele>721.8</ele>
        <time>2020-07-24T12:05:27Z</time>
      </trkpt>
      <trkpt lat="42.9484310" lon="0.5267090">
        <ele>722.4</ele>
        <time>2020-07-24T12:05:29Z</time>
      </trkpt>
      <trkpt lat="42.9483590" lon="0.5266320">
        <ele>722.8</ele>
        <time>2020-07-24T12:05:31Z</time>
      </trkpt>
      <trkpt lat="42.9481630" lon="0.5264460">
        <ele>723.8</ele>
        <time>2020-07-24T12:05:36Z</time>
      </trkpt>
      <trkpt lat="42.9481260" lon="0.5264100">
        <ele>724.2</ele>
        <time>2020-07-24T12:05:37Z</time>
      </trkpt>
      <trkpt lat="42.9480170" lon="0.5263060">
        <ele>725.0</ele>
        <time>2020-07-24T12:05:40Z</time>
      </trkpt>
      <trkpt lat="42.9478660" lon="0.5261170">
        <ele>726.0</ele>
        <time>2020-07-24T12:05:45Z</time>
      </trkpt>
      <trkpt lat="42.9478370" lon="0.5260790">
        <ele>726.0</ele>
        <time>2020-07-24T12:05:46Z</time>
      </trkpt>
      <trkpt lat="42.9477300" lon="0.5259310">
        <ele>727.0</ele>
        <time>2020-07-24T12:05:50Z</time>
      </trkpt>
      <trkpt lat="42.9477010" lon="0.5258980">
        <ele>727.4</ele>
        <time>2020-07-24T12:05:51Z</time>
      </trkpt>
      <trkpt lat="42.9476740" lon="0.5258670">
        <ele>727.8</ele>
        <time>2020-07-24T12:05:52Z</time>
      </trkpt>
      <trkpt lat="42.9476240" lon="0.5258070">
        <ele>728.4</ele>
        <time>2020-07-24T12:05:54Z</time>
      </trkpt>
      <trkpt lat="42.9474630" lon="0.5256470">
        <ele>729.4</ele>
        <time>2020-07-24T12:06:00Z</time>
      </trkpt>
      <trkpt lat="42.9472520" lon="0.5255030">
        <ele>730.2</ele>
        <time>2020-07-24T12:06:05Z</time>
      </trkpt>
      <trkpt lat="42.9471960" lon="0.5254690">
        <ele>730.4</ele>
        <time>2020-07-24T12:06:06Z</time>
      </trkpt>
      <trkpt lat="42.9471480" lon="0.5254350">
        <ele>730.6</ele>
        <time>2020-07-24T12:06:07Z</time>
      </trkpt>
      <trkpt lat="42.9467920" lon="0.5253100">
        <ele>730.8</ele>
        <time>2020-07-24T12:06:12Z</time>
      </trkpt>
      <trkpt lat="42.9466710" lon="0.5252920">
        <ele>731.0</ele>
        <time>2020-07-24T12:06:14Z</time>
      </trkpt>
      <trkpt lat="42.9464930" lon="0.5252960">
        <ele>731.2</ele>
        <time>2020-07-24T12:06:17Z</time>
      </trkpt>
      <trkpt lat="42.9464380" lon="0.5252920">
        <ele>731.4</ele>
        <time>2020-07-24T12:06:18Z</time>
      </trkpt>
      <trkpt lat="42.9461460" lon="0.5251530">
        <ele>731.4</ele>
        <time>2020-07-24T12:06:23Z</time>
      </trkpt>
      <trkpt lat="42.9460550" lon="0.5250450">
        <ele>731.4</ele>
        <time>2020-07-24T12:06:25Z</time>
      </trkpt>
      <trkpt lat="42.9459760" lon="0.5249090">
        <ele>731.2</ele>
        <time>2020-07-24T12:06:27Z</time>
      </trkpt>
      <trkpt lat="42.9458340" lon="0.5246110">
        <ele>731.0</ele>
        <time>2020-07-24T12:06:31Z</time>
      </trkpt>
      <trkpt lat="42.9457230" lon="0.5243960">
        <ele>731.6</ele>
        <time>2020-07-24T12:06:34Z</time>
      </trkpt>
      <trkpt lat="42.9456980" lon="0.5243220">
        <ele>731.6</ele>
        <time>2020-07-24T12:06:35Z</time>
      </trkpt>
      <trkpt lat="42.9456460" lon="0.5240860">
        <ele>732.0</ele>
        <time>2020-07-24T12:06:38Z</time>
      </trkpt>
      <trkpt lat="42.9455990" lon="0.5237100">
        <ele>732.8</ele>
        <time>2020-07-24T12:06:43Z</time>
      </trkpt>
      <trkpt lat="42.9455830" lon="0.5235660">
        <ele>733.2</ele>
        <time>2020-07-24T12:06:45Z</time>
      </trkpt>
      <trkpt lat="42.9455760" lon="0.5234970">
        <ele>733.6</ele>
        <time>2020-07-24T12:06:46Z</time>
      </trkpt>
      <trkpt lat="42.9455700" lon="0.5234280">
        <ele>733.8</ele>
        <time>2020-07-24T12:06:47Z</time>
      </trkpt>
      <trkpt lat="42.9455370" lon="0.5232310">
        <ele>734.4</ele>
        <time>2020-07-24T12:06:50Z</time>
      </trkpt>
      <trkpt lat="42.9455110" lon="0.5231020">
        <ele>735.0</ele>
        <time>2020-07-24T12:06:52Z</time>
      </trkpt>
      <trkpt lat="42.9454950" lon="0.5230400">
        <ele>735.2</ele>
        <time>2020-07-24T12:06:53Z</time>
      </trkpt>
      <trkpt lat="42.9454730" lon="0.5229810">
        <ele>735.2</ele>
        <time>2020-07-24T12:06:54Z</time>
      </trkpt>
      <trkpt lat="42.9453620" lon="0.5227740">
        <ele>736.0</ele>
        <time>2020-07-24T12:06:58Z</time>
      </trkpt>
      <trkpt lat="42.9452340" lon="0.5226060">
        <ele>737.2</ele>
        <time>2020-07-24T12:07:02Z</time>
      </trkpt>
      <trkpt lat="42.9451050" lon="0.5224630">
        <ele>738.6</ele>
        <time>2020-07-24T12:07:06Z</time>
      </trkpt>
      <trkpt lat="42.9449930" lon="0.5223230">
        <ele>739.8</ele>
        <time>2020-07-24T12:07:10Z</time>
      </trkpt>
      <trkpt lat="42.9449390" lon="0.5222380">
        <ele>740.4</ele>
        <time>2020-07-24T12:07:12Z</time>
      </trkpt>
      <trkpt lat="42.9448980" lon="0.5221500">
        <ele>740.6</ele>
        <time>2020-07-24T12:07:14Z</time>
      </trkpt>
      <trkpt lat="42.9448840" lon="0.5221030">
        <ele>740.8</ele>
        <time>2020-07-24T12:07:15Z</time>
      </trkpt>
      <trkpt lat="42.9448690" lon="0.5220500">
        <ele>741.0</ele>
        <time>2020-07-24T12:07:16Z</time>
      </trkpt>
      <trkpt lat="42.9448450" lon="0.5219420">
        <ele>741.2</ele>
        <time>2020-07-24T12:07:18Z</time>
      </trkpt>
      <trkpt lat="42.9448330" lon="0.5218860">
        <ele>741.4</ele>
        <time>2020-07-24T12:07:19Z</time>
      </trkpt>
      <trkpt lat="42.9448180" lon="0.5217780">
        <ele>742.0</ele>
        <time>2020-07-24T12:07:21Z</time>
      </trkpt>
      <trkpt lat="42.9448050" lon="0.5215640">
        <ele>743.2</ele>
        <time>2020-07-24T12:07:25Z</time>
      </trkpt>
      <trkpt lat="42.9447720" lon="0.5213480">
        <ele>743.8</ele>
        <time>2020-07-24T12:07:29Z</time>
      </trkpt>
      <trkpt lat="42.9447400" lon="0.5212400">
        <ele>744.4</ele>
        <time>2020-07-24T12:07:31Z</time>
      </trkpt>
      <trkpt lat="42.9447020" lon="0.5211370">
        <ele>745.2</ele>
        <time>2020-07-24T12:07:33Z</time>
      </trkpt>
      <trkpt lat="42.9446600" lon="0.5210900">
        <ele>745.4</ele>
        <time>2020-07-24T12:07:34Z</time>
      </trkpt>
      <trkpt lat="42.9446260" lon="0.5210430">
        <ele>745.6</ele>
        <time>2020-07-24T12:07:35Z</time>
      </trkpt>
      <trkpt lat="42.9445910" lon="0.5209980">
        <ele>746.0</ele>
        <time>2020-07-24T12:07:36Z</time>
      </trkpt>
      <trkpt lat="42.9444920" lon="0.5208710">
        <ele>746.6</ele>
        <time>2020-07-24T12:07:39Z</time>
      </trkpt>
      <trkpt lat="42.9444560" lon="0.5208360">
        <ele>747.0</ele>
        <time>2020-07-24T12:07:40Z</time>
      </trkpt>
      <trkpt lat="42.9443870" lon="0.5207640">
        <ele>747.8</ele>
        <time>2020-07-24T12:07:42Z</time>
      </trkpt>
      <trkpt lat="42.9442420" lon="0.5206450">
        <ele>748.6</ele>
        <time>2020-07-24T12:07:46Z</time>
      </trkpt>
      <trkpt lat="42.9442060" lon="0.5206160">
        <ele>748.8</ele>
        <time>2020-07-24T12:07:47Z</time>
      </trkpt>
      <trkpt lat="42.9440930" lon="0.5205480">
        <ele>749.4</ele>
        <time>2020-07-24T12:07:50Z</time>
      </trkpt>
      <trkpt lat="42.9439850" lon="0.5204920">
        <ele>750.0</ele>
        <time>2020-07-24T12:07:53Z</time>
      </trkpt>
      <trkpt lat="42.9439510" lon="0.5204730">
        <ele>750.2</ele>
        <time>2020-07-24T12:07:54Z</time>
      </trkpt>
      <trkpt lat="42.9438470" lon="0.5204060">
        <ele>751.0</ele>
        <time>2020-07-24T12:07:57Z</time>
      </trkpt>
      <trkpt lat="42.9438140" lon="0.5203850">
        <ele>751.2</ele>
        <time>2020-07-24T12:07:58Z</time>
      </trkpt>
      <trkpt lat="42.9437180" lon="0.5203270">
        <ele>752.0</ele>
        <time>2020-07-24T12:08:01Z</time>
      </trkpt>
      <trkpt lat="42.9436880" lon="0.5203080">
        <ele>752.4</ele>
        <time>2020-07-24T12:08:02Z</time>
      </trkpt>
      <trkpt lat="42.9436200" lon="0.5202850">
        <ele>752.8</ele>
        <time>2020-07-24T12:08:04Z</time>
      </trkpt>
      <trkpt lat="42.9435230" lon="0.5202580">
        <ele>753.4</ele>
        <time>2020-07-24T12:08:07Z</time>
      </trkpt>
      <trkpt lat="42.9434910" lon="0.5202500">
        <ele>753.6</ele>
        <time>2020-07-24T12:08:08Z</time>
      </trkpt>
      <trkpt lat="42.9433590" lon="0.5202090">
        <ele>754.8</ele>
        <time>2020-07-24T12:08:12Z</time>
      </trkpt>
      <trkpt lat="42.9431990" lon="0.5201720">
        <ele>755.8</ele>
        <time>2020-07-24T12:08:17Z</time>
      </trkpt>
      <trkpt lat="42.9430130" lon="0.5201300">
        <ele>756.8</ele>
        <time>2020-07-24T12:08:23Z</time>
      </trkpt>
      <trkpt lat="42.9429820" lon="0.5201180">
        <ele>757.0</ele>
        <time>2020-07-24T12:08:24Z</time>
      </trkpt>
      <trkpt lat="42.9429220" lon="0.5200970">
        <ele>757.6</ele>
        <time>2020-07-24T12:08:26Z</time>
      </trkpt>
      <trkpt lat="42.9428650" lon="0.5200650">
        <ele>758.2</ele>
        <time>2020-07-24T12:08:28Z</time>
      </trkpt>
      <trkpt lat="42.9427000" lon="0.5199580">
        <ele>759.4</ele>
        <time>2020-07-24T12:08:33Z</time>
      </trkpt>
      <trkpt lat="42.9424870" lon="0.5198390">
        <ele>759.8</ele>
        <time>2020-07-24T12:08:39Z</time>
      </trkpt>
      <trkpt lat="42.9424150" lon="0.5198240">
        <ele>760.2</ele>
        <time>2020-07-24T12:08:41Z</time>
      </trkpt>
      <trkpt lat="42.9423800" lon="0.5198240">
        <ele>760.6</ele>
        <time>2020-07-24T12:08:42Z</time>
      </trkpt>
      <trkpt lat="42.9421970" lon="0.5197900">
        <ele>761.4</ele>
        <time>2020-07-24T12:08:47Z</time>
      </trkpt>
      <trkpt lat="42.9421470" lon="0.5197510">
        <ele>761.4</ele>
        <time>2020-07-24T12:08:48Z</time>
      </trkpt>
      <trkpt lat="42.9421030" lon="0.5197010">
        <ele>761.4</ele>
        <time>2020-07-24T12:08:49Z</time>
      </trkpt>
      <trkpt lat="42.9420160" lon="0.5195910">
        <ele>761.4</ele>
        <time>2020-07-24T12:08:51Z</time>
      </trkpt>
      <trkpt lat="42.9419780" lon="0.5195300">
        <ele>761.2</ele>
        <time>2020-07-24T12:08:52Z</time>
      </trkpt>
      <trkpt lat="42.9418200" lon="0.5192100">
        <ele>761.6</ele>
        <time>2020-07-24T12:08:57Z</time>
      </trkpt>
      <trkpt lat="42.9417970" lon="0.5191450">
        <ele>761.8</ele>
        <time>2020-07-24T12:08:58Z</time>
      </trkpt>
      <trkpt lat="42.9416470" lon="0.5187530">
        <ele>762.4</ele>
        <time>2020-07-24T12:09:04Z</time>
      </trkpt>
      <trkpt lat="42.9415520" lon="0.5185590">
        <ele>762.8</ele>
        <time>2020-07-24T12:09:07Z</time>
      </trkpt>
      <trkpt lat="42.9415100" lon="0.5185000">
        <ele>762.8</ele>
        <time>2020-07-24T12:09:08Z</time>
      </trkpt>
      <trkpt lat="42.9414620" lon="0.5184440">
        <ele>763.0</ele>
        <time>2020-07-24T12:09:09Z</time>
      </trkpt>
      <trkpt lat="42.9413560" lon="0.5183500">
        <ele>763.2</ele>
        <time>2020-07-24T12:09:11Z</time>
      </trkpt>
      <trkpt lat="42.9412670" lon="0.5182960">
        <ele>763.2</ele>
        <time>2020-07-24T12:09:13Z</time>
      </trkpt>
      <trkpt lat="42.9410530" lon="0.5182210">
        <ele>764.0</ele>
        <time>2020-07-24T12:09:17Z</time>
      </trkpt>
      <trkpt lat="42.9409920" lon="0.5181970">
        <ele>764.2</ele>
        <time>2020-07-24T12:09:18Z</time>
      </trkpt>
      <trkpt lat="42.9408060" lon="0.5181530">
        <ele>764.8</ele>
        <time>2020-07-24T12:09:21Z</time>
      </trkpt>
      <trkpt lat="42.9407520" lon="0.5181550">
        <ele>765.0</ele>
        <time>2020-07-24T12:09:22Z</time>
      </trkpt>
      <trkpt lat="42.9407020" lon="0.5181580">
        <ele>765.4</ele>
        <time>2020-07-24T12:09:23Z</time>
      </trkpt>
      <trkpt lat="42.9406080" lon="0.5181580">
        <ele>766.0</ele>
        <time>2020-07-24T12:09:25Z</time>
      </trkpt>
      <trkpt lat="42.9404870" lon="0.5181260">
        <ele>766.4</ele>
        <time>2020-07-24T12:09:28Z</time>
      </trkpt>
      <trkpt lat="42.9404420" lon="0.5181070">
        <ele>766.8</ele>
        <time>2020-07-24T12:09:29Z</time>
      </trkpt>
      <trkpt lat="42.9403490" lon="0.5180750">
        <ele>767.2</ele>
        <time>2020-07-24T12:09:31Z</time>
      </trkpt>
      <trkpt lat="42.9401790" lon="0.5180580">
        <ele>768.2</ele>
        <time>2020-07-24T12:09:35Z</time>
      </trkpt>
      <trkpt lat="42.9401400" lon="0.5180590">
        <ele>768.4</ele>
        <time>2020-07-24T12:09:36Z</time>
      </trkpt>
      <trkpt lat="42.9399780" lon="0.5180640">
        <ele>769.4</ele>
        <time>2020-07-24T12:09:40Z</time>
      </trkpt>
      <trkpt lat="42.9398590" lon="0.5180690">
        <ele>769.8</ele>
        <time>2020-07-24T12:09:43Z</time>
      </trkpt>
      <trkpt lat="42.9396030" lon="0.5180100">
        <ele>770.6</ele>
        <time>2020-07-24T12:09:49Z</time>
      </trkpt>
      <trkpt lat="42.9395580" lon="0.5180010">
        <ele>770.8</ele>
        <time>2020-07-24T12:09:50Z</time>
      </trkpt>
      <trkpt lat="42.9393800" lon="0.5179690">
        <ele>772.0</ele>
        <time>2020-07-24T12:09:54Z</time>
      </trkpt>
      <trkpt lat="42.9391960" lon="0.5179150">
        <ele>772.6</ele>
        <time>2020-07-24T12:09:58Z</time>
      </trkpt>
      <trkpt lat="42.9390710" lon="0.5178690">
        <ele>773.0</ele>
        <time>2020-07-24T12:10:01Z</time>
      </trkpt>
      <trkpt lat="42.9389040" lon="0.5178070">
        <ele>774.0</ele>
        <time>2020-07-24T12:10:05Z</time>
      </trkpt>
      <trkpt lat="42.9387350" lon="0.5177390">
        <ele>774.4</ele>
        <time>2020-07-24T12:10:09Z</time>
      </trkpt>
      <trkpt lat="42.9385800" lon="0.5176480">
        <ele>775.2</ele>
        <time>2020-07-24T12:10:13Z</time>
      </trkpt>
      <trkpt lat="42.9385380" lon="0.5176310">
        <ele>775.4</ele>
        <time>2020-07-24T12:10:14Z</time>
      </trkpt>
      <trkpt lat="42.9384940" lon="0.5176230">
        <ele>775.8</ele>
        <time>2020-07-24T12:10:15Z</time>
      </trkpt>
      <trkpt lat="42.9384120" lon="0.5176000">
        <ele>776.4</ele>
        <time>2020-07-24T12:10:17Z</time>
      </trkpt>
      <trkpt lat="42.9381650" lon="0.5175800">
        <ele>777.2</ele>
        <time>2020-07-24T12:10:23Z</time>
      </trkpt>
      <trkpt lat="42.9381240" lon="0.5175890">
        <ele>777.6</ele>
        <time>2020-07-24T12:10:24Z</time>
      </trkpt>
      <trkpt lat="42.9380820" lon="0.5175900">
        <ele>778.0</ele>
        <time>2020-07-24T12:10:25Z</time>
      </trkpt>
      <trkpt lat="42.9380010" lon="0.5175660">
        <ele>778.4</ele>
        <time>2020-07-24T12:10:27Z</time>
      </trkpt>
      <trkpt lat="42.9379610" lon="0.5175420">
        <ele>778.6</ele>
        <time>2020-07-24T12:10:28Z</time>
      </trkpt>
      <trkpt lat="42.9379230" lon="0.5175030">
        <ele>778.8</ele>
        <time>2020-07-24T12:10:29Z</time>
      </trkpt>
      <trkpt lat="42.9378200" lon="0.5173880">
        <ele>779.2</ele>
        <time>2020-07-24T12:10:32Z</time>
      </trkpt>
      <trkpt lat="42.9377940" lon="0.5173430">
        <ele>779.4</ele>
        <time>2020-07-24T12:10:33Z</time>
      </trkpt>
      <trkpt lat="42.9377220" lon="0.5172030">
        <ele>779.8</ele>
        <time>2020-07-24T12:10:36Z</time>
      </trkpt>
      <trkpt lat="42.9376420" lon="0.5170230">
        <ele>780.8</ele>
        <time>2020-07-24T12:10:40Z</time>
      </trkpt>
      <trkpt lat="42.9376280" lon="0.5169740">
        <ele>781.0</ele>
        <time>2020-07-24T12:10:41Z</time>
      </trkpt>
      <trkpt lat="42.9375740" lon="0.5167760">
        <ele>781.6</ele>
        <time>2020-07-24T12:10:45Z</time>
      </trkpt>
      <trkpt lat="42.9375510" lon="0.5166720">
        <ele>782.0</ele>
        <time>2020-07-24T12:10:47Z</time>
      </trkpt>
      <trkpt lat="42.9375240" lon="0.5165710">
        <ele>782.2</ele>
        <time>2020-07-24T12:10:49Z</time>
      </trkpt>
      <trkpt lat="42.9374790" lon="0.5164160">
        <ele>783.2</ele>
        <time>2020-07-24T12:10:52Z</time>
      </trkpt>
      <trkpt lat="42.9374610" lon="0.5163680">
        <ele>783.4</ele>
        <time>2020-07-24T12:10:53Z</time>
      </trkpt>
      <trkpt lat="42.9374410" lon="0.5163210">
        <ele>783.4</ele>
        <time>2020-07-24T12:10:54Z</time>
      </trkpt>
      <trkpt lat="42.9373190" lon="0.5160980">
        <ele>784.4</ele>
        <time>2020-07-24T12:10:59Z</time>
      </trkpt>
      <trkpt lat="42.9372620" lon="0.5160080">
        <ele>784.6</ele>
        <time>2020-07-24T12:11:01Z</time>
      </trkpt>
      <trkpt lat="42.9370780" lon="0.5157670">
        <ele>785.4</ele>
        <time>2020-07-24T12:11:07Z</time>
      </trkpt>
      <trkpt lat="42.9370510" lon="0.5157250">
        <ele>785.6</ele>
        <time>2020-07-24T12:11:08Z</time>
      </trkpt>
      <trkpt lat="42.9370190" lon="0.5156850">
        <ele>785.6</ele>
        <time>2020-07-24T12:11:09Z</time>
      </trkpt>
      <trkpt lat="42.9369530" lon="0.5156190">
        <ele>786.0</ele>
        <time>2020-07-24T12:11:11Z</time>
      </trkpt>
      <trkpt lat="42.9368820" lon="0.5155610">
        <ele>786.6</ele>
        <time>2020-07-24T12:11:13Z</time>
      </trkpt>
      <trkpt lat="42.9367770" lon="0.5154670">
        <ele>787.6</ele>
        <time>2020-07-24T12:11:16Z</time>
      </trkpt>
      <trkpt lat="42.9367450" lon="0.5154340">
        <ele>787.8</ele>
        <time>2020-07-24T12:11:17Z</time>
      </trkpt>
      <trkpt lat="42.9366100" lon="0.5152510">
        <ele>788.6</ele>
        <time>2020-07-24T12:11:22Z</time>
      </trkpt>
      <trkpt lat="42.9365850" lon="0.5152110">
        <ele>789.0</ele>
        <time>2020-07-24T12:11:23Z</time>
      </trkpt>
      <trkpt lat="42.9364410" lon="0.5149550">
        <ele>790.2</ele>
        <time>2020-07-24T12:11:29Z</time>
      </trkpt>
      <trkpt lat="42.9364170" lon="0.5149130">
        <ele>790.4</ele>
        <time>2020-07-24T12:11:30Z</time>
      </trkpt>
      <trkpt lat="42.9363630" lon="0.5147720">
        <ele>791.2</ele>
        <time>2020-07-24T12:11:33Z</time>
      </trkpt>
      <trkpt lat="42.9363210" lon="0.5146080">
        <ele>791.6</ele>
        <time>2020-07-24T12:11:36Z</time>
      </trkpt>
      <trkpt lat="42.9362760" lon="0.5143840">
        <ele>792.4</ele>
        <time>2020-07-24T12:11:40Z</time>
      </trkpt>
      <trkpt lat="42.9362420" lon="0.5140920">
        <ele>793.2</ele>
        <time>2020-07-24T12:11:45Z</time>
      </trkpt>
      <trkpt lat="42.9362130" lon="0.5139740">
        <ele>793.4</ele>
        <time>2020-07-24T12:11:47Z</time>
      </trkpt>
      <trkpt lat="42.9361040" lon="0.5137150">
        <ele>794.2</ele>
        <time>2020-07-24T12:11:52Z</time>
      </trkpt>
      <trkpt lat="42.9360500" lon="0.5136510">
        <ele>794.4</ele>
        <time>2020-07-24T12:11:54Z</time>
      </trkpt>
      <trkpt lat="42.9359440" lon="0.5135800">
        <ele>794.8</ele>
        <time>2020-07-24T12:11:57Z</time>
      </trkpt>
      <trkpt lat="42.9357970" lon="0.5134460">
        <ele>795.6</ele>
        <time>2020-07-24T12:12:01Z</time>
      </trkpt>
      <trkpt lat="42.9356950" lon="0.5133170">
        <ele>796.0</ele>
        <time>2020-07-24T12:12:04Z</time>
      </trkpt>
      <trkpt lat="42.9356140" lon="0.5131640">
        <ele>796.8</ele>
        <time>2020-07-24T12:12:07Z</time>
      </trkpt>
      <trkpt lat="42.9355130" lon="0.5129530">
        <ele>797.2</ele>
        <time>2020-07-24T12:12:11Z</time>
      </trkpt>
      <trkpt lat="42.9353900" lon="0.5127480">
        <ele>797.6</ele>
        <time>2020-07-24T12:12:15Z</time>
      </trkpt>
      <trkpt lat="42.9353390" lon="0.5127050">
        <ele>798.0</ele>
        <time>2020-07-24T12:12:16Z</time>
      </trkpt>
      <trkpt lat="42.9352390" lon="0.5126290">
        <ele>798.6</ele>
        <time>2020-07-24T12:12:18Z</time>
      </trkpt>
      <trkpt lat="42.9351000" lon="0.5125590">
        <ele>799.0</ele>
        <time>2020-07-24T12:12:21Z</time>
      </trkpt>
      <trkpt lat="42.9350530" lon="0.5125520">
        <ele>799.2</ele>
        <time>2020-07-24T12:12:22Z</time>
      </trkpt>
      <trkpt lat="42.9347990" lon="0.5125000">
        <ele>800.2</ele>
        <time>2020-07-24T12:12:28Z</time>
      </trkpt>
      <trkpt lat="42.9347620" lon="0.5124770">
        <ele>800.4</ele>
        <time>2020-07-24T12:12:29Z</time>
      </trkpt>
      <trkpt lat="42.9346420" lon="0.5123210">
        <ele>800.8</ele>
        <time>2020-07-24T12:12:33Z</time>
      </trkpt>
      <trkpt lat="42.9345420" lon="0.5121820">
        <ele>801.2</ele>
        <time>2020-07-24T12:12:36Z</time>
      </trkpt>
      <trkpt lat="42.9343740" lon="0.5119980">
        <ele>801.8</ele>
        <time>2020-07-24T12:12:40Z</time>
      </trkpt>
      <trkpt lat="42.9342530" lon="0.5118670">
        <ele>802.2</ele>
        <time>2020-07-24T12:12:43Z</time>
      </trkpt>
      <trkpt lat="42.9341210" lon="0.5116580">
        <ele>802.8</ele>
        <time>2020-07-24T12:12:47Z</time>
      </trkpt>
      <trkpt lat="42.9339470" lon="0.5114250">
        <ele>803.4</ele>
        <time>2020-07-24T12:12:52Z</time>
      </trkpt>
      <trkpt lat="42.9338490" lon="0.5113090">
        <ele>804.0</ele>
        <time>2020-07-24T12:12:55Z</time>
      </trkpt>
      <trkpt lat="42.9336570" lon="0.5110740">
        <ele>804.4</ele>
        <time>2020-07-24T12:13:00Z</time>
      </trkpt>
      <trkpt lat="42.9335920" lon="0.5109560">
        <ele>804.4</ele>
        <time>2020-07-24T12:13:02Z</time>
      </trkpt>
      <trkpt lat="42.9333430" lon="0.5106260">
        <ele>804.8</ele>
        <time>2020-07-24T12:13:08Z</time>
      </trkpt>
      <trkpt lat="42.9332860" lon="0.5105460">
        <ele>805.2</ele>
        <time>2020-07-24T12:13:10Z</time>
      </trkpt>
      <trkpt lat="42.9332620" lon="0.5105250">
        <ele>805.6</ele>
        <time>2020-07-24T12:13:12Z</time>
      </trkpt>
      <trkpt lat="42.9331320" lon="0.5103050">
        <ele>805.8</ele>
        <time>2020-07-24T12:14:11Z</time>
      </trkpt>
      <trkpt lat="42.9330050" lon="0.5101560">
        <ele>806.6</ele>
        <time>2020-07-24T12:14:15Z</time>
      </trkpt>
      <trkpt lat="42.9329220" lon="0.5100790">
        <ele>807.0</ele>
        <time>2020-07-24T12:14:17Z</time>
      </trkpt>
      <trkpt lat="42.9328440" lon="0.5100060">
        <ele>807.8</ele>
        <time>2020-07-24T12:14:19Z</time>
      </trkpt>
      <trkpt lat="42.9326970" lon="0.5098630">
        <ele>808.8</ele>
        <time>2020-07-24T12:14:23Z</time>
      </trkpt>
      <trkpt lat="42.9326590" lon="0.5098360">
        <ele>809.2</ele>
        <time>2020-07-24T12:14:24Z</time>
      </trkpt>
      <trkpt lat="42.9326200" lon="0.5098110">
        <ele>809.6</ele>
        <time>2020-07-24T12:14:25Z</time>
      </trkpt>
      <trkpt lat="42.9325770" lon="0.5097900">
        <ele>810.0</ele>
        <time>2020-07-24T12:14:26Z</time>
      </trkpt>
      <trkpt lat="42.9324420" lon="0.5097340">
        <ele>810.6</ele>
        <time>2020-07-24T12:14:29Z</time>
      </trkpt>
      <trkpt lat="42.9323460" lon="0.5097220">
        <ele>810.8</ele>
        <time>2020-07-24T12:14:31Z</time>
      </trkpt>
      <trkpt lat="42.9322960" lon="0.5097230">
        <ele>810.8</ele>
        <time>2020-07-24T12:14:32Z</time>
      </trkpt>
      <trkpt lat="42.9321450" lon="0.5097600">
        <ele>810.8</ele>
        <time>2020-07-24T12:14:35Z</time>
      </trkpt>
      <trkpt lat="42.9320970" lon="0.5097960">
        <ele>811.0</ele>
        <time>2020-07-24T12:14:36Z</time>
      </trkpt>
      <trkpt lat="42.9320520" lon="0.5098430">
        <ele>811.2</ele>
        <time>2020-07-24T12:14:37Z</time>
      </trkpt>
      <trkpt lat="42.9319670" lon="0.5099480">
        <ele>811.4</ele>
        <time>2020-07-24T12:14:39Z</time>
      </trkpt>
      <trkpt lat="42.9319330" lon="0.5100070">
        <ele>811.4</ele>
        <time>2020-07-24T12:14:40Z</time>
      </trkpt>
      <trkpt lat="42.9319050" lon="0.5100730">
        <ele>811.6</ele>
        <time>2020-07-24T12:14:41Z</time>
      </trkpt>
      <trkpt lat="42.9316930" lon="0.5103650">
        <ele>811.6</ele>
        <time>2020-07-24T12:14:46Z</time>
      </trkpt>
      <trkpt lat="42.9314310" lon="0.5105730">
        <ele>812.0</ele>
        <time>2020-07-24T12:14:51Z</time>
      </trkpt>
      <trkpt lat="42.9313790" lon="0.5105950">
        <ele>812.2</ele>
        <time>2020-07-24T12:14:52Z</time>
      </trkpt>
      <trkpt lat="42.9312690" lon="0.5106050">
        <ele>812.8</ele>
        <time>2020-07-24T12:14:54Z</time>
      </trkpt>
      <trkpt lat="42.9312130" lon="0.5105970">
        <ele>813.0</ele>
        <time>2020-07-24T12:14:55Z</time>
      </trkpt>
      <trkpt lat="42.9311560" lon="0.5105800">
        <ele>813.4</ele>
        <time>2020-07-24T12:14:56Z</time>
      </trkpt>
      <trkpt lat="42.9309310" lon="0.5104730">
        <ele>814.4</ele>
        <time>2020-07-24T12:15:00Z</time>
      </trkpt>
      <trkpt lat="42.9307080" lon="0.5103900">
        <ele>815.6</ele>
        <time>2020-07-24T12:15:05Z</time>
      </trkpt>
      <trkpt lat="42.9306690" lon="0.5103680">
        <ele>815.8</ele>
        <time>2020-07-24T12:15:06Z</time>
      </trkpt>
      <trkpt lat="42.9306300" lon="0.5103410">
        <ele>816.0</ele>
        <time>2020-07-24T12:15:07Z</time>
      </trkpt>
      <trkpt lat="42.9305110" lon="0.5102310">
        <ele>816.2</ele>
        <time>2020-07-24T12:15:10Z</time>
      </trkpt>
      <trkpt lat="42.9304740" lon="0.5101850">
        <ele>816.2</ele>
        <time>2020-07-24T12:15:11Z</time>
      </trkpt>
      <trkpt lat="42.9304420" lon="0.5101310">
        <ele>816.2</ele>
        <time>2020-07-24T12:15:12Z</time>
      </trkpt>
      <trkpt lat="42.9304150" lon="0.5100720">
        <ele>816.2</ele>
        <time>2020-07-24T12:15:13Z</time>
      </trkpt>
      <trkpt lat="42.9303450" lon="0.5098090">
        <ele>816.2</ele>
        <time>2020-07-24T12:15:17Z</time>
      </trkpt>
      <trkpt lat="42.9302970" lon="0.5096780">
        <ele>816.2</ele>
        <time>2020-07-24T12:15:19Z</time>
      </trkpt>
      <trkpt lat="42.9301870" lon="0.5095200">
        <ele>816.2</ele>
        <time>2020-07-24T12:15:22Z</time>
      </trkpt>
      <trkpt lat="42.9300110" lon="0.5093750">
        <ele>816.6</ele>
        <time>2020-07-24T12:15:26Z</time>
      </trkpt>
      <trkpt lat="42.9299190" lon="0.5093250">
        <ele>816.8</ele>
        <time>2020-07-24T12:15:28Z</time>
      </trkpt>
      <trkpt lat="42.9298150" lon="0.5092960">
        <ele>817.0</ele>
        <time>2020-07-24T12:15:30Z</time>
      </trkpt>
      <trkpt lat="42.9296540" lon="0.5092800">
        <ele>817.6</ele>
        <time>2020-07-24T12:15:33Z</time>
      </trkpt>
      <trkpt lat="42.9296030" lon="0.5092820">
        <ele>817.8</ele>
        <time>2020-07-24T12:15:34Z</time>
      </trkpt>
      <trkpt lat="42.9293860" lon="0.5092580">
        <ele>818.6</ele>
        <time>2020-07-24T12:15:39Z</time>
      </trkpt>
      <trkpt lat="42.9293410" lon="0.5092350">
        <ele>818.6</ele>
        <time>2020-07-24T12:15:40Z</time>
      </trkpt>
      <trkpt lat="42.9292580" lon="0.5091840">
        <ele>818.8</ele>
        <time>2020-07-24T12:15:42Z</time>
      </trkpt>
      <trkpt lat="42.9291530" lon="0.5091410">
        <ele>819.2</ele>
        <time>2020-07-24T12:15:44Z</time>
      </trkpt>
      <trkpt lat="42.9290040" lon="0.5090960">
        <ele>820.2</ele>
        <time>2020-07-24T12:15:47Z</time>
      </trkpt>
      <trkpt lat="42.9288900" lon="0.5090740">
        <ele>821.0</ele>
        <time>2020-07-24T12:15:50Z</time>
      </trkpt>
      <trkpt lat="42.9288480" lon="0.5090760">
        <ele>821.2</ele>
        <time>2020-07-24T12:15:51Z</time>
      </trkpt>
      <trkpt lat="42.9286980" lon="0.5091180">
        <ele>822.0</ele>
        <time>2020-07-24T12:15:55Z</time>
      </trkpt>
      <trkpt lat="42.9286570" lon="0.5091520">
        <ele>822.4</ele>
        <time>2020-07-24T12:15:56Z</time>
      </trkpt>
      <trkpt lat="42.9285480" lon="0.5092690">
        <ele>823.6</ele>
        <time>2020-07-24T12:15:59Z</time>
      </trkpt>
      <trkpt lat="42.9285150" lon="0.5093120">
        <ele>823.8</ele>
        <time>2020-07-24T12:16:00Z</time>
      </trkpt>
      <trkpt lat="42.9284440" lon="0.5094030">
        <ele>824.4</ele>
        <time>2020-07-24T12:16:02Z</time>
      </trkpt>
      <trkpt lat="42.9284160" lon="0.5094480">
        <ele>824.6</ele>
        <time>2020-07-24T12:16:03Z</time>
      </trkpt>
      <trkpt lat="42.9283150" lon="0.5095850">
        <ele>825.6</ele>
        <time>2020-07-24T12:16:06Z</time>
      </trkpt>
      <trkpt lat="42.9281670" lon="0.5097430">
        <ele>826.8</ele>
        <time>2020-07-24T12:16:10Z</time>
      </trkpt>
      <trkpt lat="42.9280500" lon="0.5098460">
        <ele>827.4</ele>
        <time>2020-07-24T12:16:13Z</time>
      </trkpt>
      <trkpt lat="42.9279560" lon="0.5099090">
        <ele>827.8</ele>
        <time>2020-07-24T12:16:15Z</time>
      </trkpt>
      <trkpt lat="42.9278670" lon="0.5099880">
        <ele>828.0</ele>
        <time>2020-07-24T12:16:17Z</time>
      </trkpt>
      <trkpt lat="42.9277780" lon="0.5100700">
        <ele>828.2</ele>
        <time>2020-07-24T12:16:19Z</time>
      </trkpt>
      <trkpt lat="42.9277000" lon="0.5101610">
        <ele>828.2</ele>
        <time>2020-07-24T12:16:21Z</time>
      </trkpt>
      <trkpt lat="42.9276270" lon="0.5102630">
        <ele>828.4</ele>
        <time>2020-07-24T12:16:23Z</time>
      </trkpt>
      <trkpt lat="42.9275670" lon="0.5103770">
        <ele>828.6</ele>
        <time>2020-07-24T12:16:25Z</time>
      </trkpt>
      <trkpt lat="42.9275060" lon="0.5104890">
        <ele>829.0</ele>
        <time>2020-07-24T12:16:27Z</time>
      </trkpt>
      <trkpt lat="42.9272890" lon="0.5107820">
        <ele>829.4</ele>
        <time>2020-07-24T12:16:33Z</time>
      </trkpt>
      <trkpt lat="42.9272160" lon="0.5108700">
        <ele>830.0</ele>
        <time>2020-07-24T12:16:35Z</time>
      </trkpt>
      <trkpt lat="42.9270720" lon="0.5110190">
        <ele>831.0</ele>
        <time>2020-07-24T12:16:39Z</time>
      </trkpt>
      <trkpt lat="42.9270460" lon="0.5110570">
        <ele>831.4</ele>
        <time>2020-07-24T12:16:40Z</time>
      </trkpt>
      <trkpt lat="42.9270210" lon="0.5110970">
        <ele>831.6</ele>
        <time>2020-07-24T12:16:41Z</time>
      </trkpt>
      <trkpt lat="42.9269030" lon="0.5112560">
        <ele>832.2</ele>
        <time>2020-07-24T12:16:45Z</time>
      </trkpt>
      <trkpt lat="42.9268550" lon="0.5113360">
        <ele>832.6</ele>
        <time>2020-07-24T12:16:47Z</time>
      </trkpt>
      <trkpt lat="42.9268330" lon="0.5113850">
        <ele>832.8</ele>
        <time>2020-07-24T12:16:48Z</time>
      </trkpt>
      <trkpt lat="42.9267980" lon="0.5114220">
        <ele>833.0</ele>
        <time>2020-07-24T12:16:49Z</time>
      </trkpt>
      <trkpt lat="42.9267660" lon="0.5114630">
        <ele>833.4</ele>
        <time>2020-07-24T12:16:50Z</time>
      </trkpt>
      <trkpt lat="42.9265720" lon="0.5116680">
        <ele>834.2</ele>
        <time>2020-07-24T12:16:55Z</time>
      </trkpt>
      <trkpt lat="42.9265330" lon="0.5117110">
        <ele>834.4</ele>
        <time>2020-07-24T12:16:56Z</time>
      </trkpt>
      <trkpt lat="42.9264760" lon="0.5117420">
        <ele>834.4</ele>
        <time>2020-07-24T12:16:57Z</time>
      </trkpt>
      <trkpt lat="42.9264210" lon="0.5117650">
        <ele>834.6</ele>
        <time>2020-07-24T12:16:58Z</time>
      </trkpt>
      <trkpt lat="42.9263000" lon="0.5117790">
        <ele>835.0</ele>
        <time>2020-07-24T12:17:00Z</time>
      </trkpt>
      <trkpt lat="42.9261410" lon="0.5117890">
        <ele>835.2</ele>
        <time>2020-07-24T12:17:03Z</time>
      </trkpt>
      <trkpt lat="42.9260450" lon="0.5117570">
        <ele>835.4</ele>
        <time>2020-07-24T12:17:05Z</time>
      </trkpt>
      <trkpt lat="42.9260010" lon="0.5117310">
        <ele>835.4</ele>
        <time>2020-07-24T12:17:06Z</time>
      </trkpt>
      <trkpt lat="42.9259600" lon="0.5116980">
        <ele>835.6</ele>
        <time>2020-07-24T12:17:07Z</time>
      </trkpt>
      <trkpt lat="42.9259200" lon="0.5116560">
        <ele>835.8</ele>
        <time>2020-07-24T12:17:08Z</time>
      </trkpt>
      <trkpt lat="42.9258670" lon="0.5116070">
        <ele>836.0</ele>
        <time>2020-07-24T12:17:09Z</time>
      </trkpt>
      <trkpt lat="42.9258180" lon="0.5115660">
        <ele>836.2</ele>
        <time>2020-07-24T12:17:10Z</time>
      </trkpt>
      <trkpt lat="42.9257770" lon="0.5115190">
        <ele>836.4</ele>
        <time>2020-07-24T12:17:11Z</time>
      </trkpt>
      <trkpt lat="42.9257360" lon="0.5114710">
        <ele>836.6</ele>
        <time>2020-07-24T12:17:12Z</time>
      </trkpt>
      <trkpt lat="42.9255830" lon="0.5112990">
        <ele>837.4</ele>
        <time>2020-07-24T12:17:16Z</time>
      </trkpt>
      <trkpt lat="42.9255460" lon="0.5112590">
        <ele>837.8</ele>
        <time>2020-07-24T12:17:17Z</time>
      </trkpt>
      <trkpt lat="42.9254110" lon="0.5110860">
        <ele>838.6</ele>
        <time>2020-07-24T12:17:21Z</time>
      </trkpt>
      <trkpt lat="42.9253760" lon="0.5109490">
        <ele>838.8</ele>
        <time>2020-07-24T12:17:23Z</time>
      </trkpt>
      <trkpt lat="42.9253560" lon="0.5108070">
        <ele>839.0</ele>
        <time>2020-07-24T12:17:25Z</time>
      </trkpt>
      <trkpt lat="42.9253410" lon="0.5107420">
        <ele>839.0</ele>
        <time>2020-07-24T12:17:26Z</time>
      </trkpt>
      <trkpt lat="42.9253130" lon="0.5106890">
        <ele>839.2</ele>
        <time>2020-07-24T12:17:27Z</time>
      </trkpt>
      <trkpt lat="42.9252770" lon="0.5106490">
        <ele>839.4</ele>
        <time>2020-07-24T12:17:28Z</time>
      </trkpt>
      <trkpt lat="42.9251760" lon="0.5106090">
        <ele>839.6</ele>
        <time>2020-07-24T12:17:30Z</time>
      </trkpt>
      <trkpt lat="42.9250490" lon="0.5105790">
        <ele>840.2</ele>
        <time>2020-07-24T12:17:33Z</time>
      </trkpt>
      <trkpt lat="42.9249780" lon="0.5105670">
        <ele>841.4</ele>
        <time>2020-07-24T12:17:35Z</time>
      </trkpt>
      <trkpt lat="42.9247900" lon="0.5105620">
        <ele>842.2</ele>
        <time>2020-07-24T12:17:41Z</time>
      </trkpt>
      <trkpt lat="42.9247080" lon="0.5105500">
        <ele>842.4</ele>
        <time>2020-07-24T12:17:44Z</time>
      </trkpt>
      <trkpt lat="42.9246610" lon="0.5105520">
        <ele>842.6</ele>
        <time>2020-07-24T12:17:46Z</time>
      </trkpt>
      <trkpt lat="42.9246240" lon="0.5105550">
        <ele>843.2</ele>
        <time>2020-07-24T12:17:48Z</time>
      </trkpt>
      <trkpt lat="42.9245830" lon="0.5105660">
        <ele>843.4</ele>
        <time>2020-07-24T12:17:51Z</time>
      </trkpt>
      <trkpt lat="42.9245550" lon="0.5105640">
        <ele>843.6</ele>
        <time>2020-07-24T12:17:53Z</time>
      </trkpt>
      <trkpt lat="42.9245410" lon="0.5105670">
        <ele>843.8</ele>
        <time>2020-07-24T12:17:54Z</time>
      </trkpt>
      <trkpt lat="42.9245250" lon="0.5105740">
        <ele>843.8</ele>
        <time>2020-07-24T12:17:55Z</time>
      </trkpt>
      <trkpt lat="42.9244880" lon="0.5105830">
        <ele>844.0</ele>
        <time>2020-07-24T12:17:57Z</time>
      </trkpt>
      <trkpt lat="42.9244270" lon="0.5106080">
        <ele>844.2</ele>
        <time>2020-07-24T12:17:59Z</time>
      </trkpt>
      <trkpt lat="42.9243110" lon="0.5106830">
        <ele>844.8</ele>
        <time>2020-07-24T12:18:03Z</time>
      </trkpt>
      <trkpt lat="42.9242630" lon="0.5107270">
        <ele>845.2</ele>
        <time>2020-07-24T12:18:05Z</time>
      </trkpt>
      <trkpt lat="42.9242210" lon="0.5107700">
        <ele>846.0</ele>
        <time>2020-07-24T12:18:07Z</time>
      </trkpt>
      <trkpt lat="42.9241840" lon="0.5108170">
        <ele>847.0</ele>
        <time>2020-07-24T12:18:09Z</time>
      </trkpt>
      <trkpt lat="42.9241320" lon="0.5108980">
        <ele>848.2</ele>
        <time>2020-07-24T12:18:12Z</time>
      </trkpt>
      <trkpt lat="42.9240940" lon="0.5109490">
        <ele>848.6</ele>
        <time>2020-07-24T12:18:14Z</time>
      </trkpt>
      <trkpt lat="42.9240360" lon="0.5110180">
        <ele>849.2</ele>
        <time>2020-07-24T12:18:17Z</time>
      </trkpt>
      <trkpt lat="42.9239530" lon="0.5111140">
        <ele>850.2</ele>
        <time>2020-07-24T12:18:22Z</time>
      </trkpt>
      <trkpt lat="42.9238770" lon="0.5111630">
        <ele>851.6</ele>
        <time>2020-07-24T12:18:26Z</time>
      </trkpt>
      <trkpt lat="42.9238340" lon="0.5111750">
        <ele>852.4</ele>
        <time>2020-07-24T12:18:28Z</time>
      </trkpt>
      <trkpt lat="42.9238110" lon="0.5111820">
        <ele>852.8</ele>
        <time>2020-07-24T12:18:29Z</time>
      </trkpt>
      <trkpt lat="42.9237880" lon="0.5111910">
        <ele>853.0</ele>
        <time>2020-07-24T12:18:30Z</time>
      </trkpt>
      <trkpt lat="42.9236440" lon="0.5112080">
        <ele>854.0</ele>
        <time>2020-07-24T12:18:36Z</time>
      </trkpt>
      <trkpt lat="42.9236200" lon="0.5112120">
        <ele>854.4</ele>
        <time>2020-07-24T12:18:37Z</time>
      </trkpt>
      <trkpt lat="42.9235510" lon="0.5112080">
        <ele>855.2</ele>
        <time>2020-07-24T12:18:40Z</time>
      </trkpt>
      <trkpt lat="42.9235050" lon="0.5111960">
        <ele>855.8</ele>
        <time>2020-07-24T12:18:42Z</time>
      </trkpt>
      <trkpt lat="42.9234810" lon="0.5111910">
        <ele>856.2</ele>
        <time>2020-07-24T12:18:43Z</time>
      </trkpt>
      <trkpt lat="42.9234570" lon="0.5111860">
        <ele>856.6</ele>
        <time>2020-07-24T12:18:44Z</time>
      </trkpt>
      <trkpt lat="42.9233890" lon="0.5111690">
        <ele>857.6</ele>
        <time>2020-07-24T12:18:47Z</time>
      </trkpt>
      <trkpt lat="42.9233660" lon="0.5111630">
        <ele>857.6</ele>
        <time>2020-07-24T12:18:48Z</time>
      </trkpt>
      <trkpt lat="42.9233210" lon="0.5111460">
        <ele>858.0</ele>
        <time>2020-07-24T12:18:50Z</time>
      </trkpt>
      <trkpt lat="42.9232990" lon="0.5111400">
        <ele>858.2</ele>
        <time>2020-07-24T12:18:51Z</time>
      </trkpt>
      <trkpt lat="42.9232550" lon="0.5111300">
        <ele>859.0</ele>
        <time>2020-07-24T12:18:53Z</time>
      </trkpt>
      <trkpt lat="42.9231600" lon="0.5111040">
        <ele>860.2</ele>
        <time>2020-07-24T12:18:57Z</time>
      </trkpt>
      <trkpt lat="42.9230930" lon="0.5110900">
        <ele>860.8</ele>
        <time>2020-07-24T12:19:00Z</time>
      </trkpt>
      <trkpt lat="42.9230470" lon="0.5110800">
        <ele>861.2</ele>
        <time>2020-07-24T12:19:02Z</time>
      </trkpt>
      <trkpt lat="42.9229770" lon="0.5110600">
        <ele>862.4</ele>
        <time>2020-07-24T12:19:05Z</time>
      </trkpt>
      <trkpt lat="42.9228840" lon="0.5110410">
        <ele>863.4</ele>
        <time>2020-07-24T12:19:09Z</time>
      </trkpt>
      <trkpt lat="42.9227890" lon="0.5110110">
        <ele>864.6</ele>
        <time>2020-07-24T12:19:13Z</time>
      </trkpt>
      <trkpt lat="42.9227270" lon="0.5109810">
        <ele>864.8</ele>
        <time>2020-07-24T12:19:16Z</time>
      </trkpt>
      <trkpt lat="42.9227060" lon="0.5109700">
        <ele>865.0</ele>
        <time>2020-07-24T12:19:17Z</time>
      </trkpt>
      <trkpt lat="42.9226300" lon="0.5109180">
        <ele>865.8</ele>
        <time>2020-07-24T12:19:21Z</time>
      </trkpt>
      <trkpt lat="42.9226090" lon="0.5109040">
        <ele>866.0</ele>
        <time>2020-07-24T12:19:22Z</time>
      </trkpt>
      <trkpt lat="42.9225910" lon="0.5108860">
        <ele>866.4</ele>
        <time>2020-07-24T12:19:23Z</time>
      </trkpt>
      <trkpt lat="42.9225710" lon="0.5108740">
        <ele>866.8</ele>
        <time>2020-07-24T12:19:24Z</time>
      </trkpt>
      <trkpt lat="42.9224730" lon="0.5108160">
        <ele>868.0</ele>
        <time>2020-07-24T12:19:29Z</time>
      </trkpt>
      <trkpt lat="42.9224090" lon="0.5108000">
        <ele>869.0</ele>
        <time>2020-07-24T12:19:32Z</time>
      </trkpt>
      <trkpt lat="42.9223850" lon="0.5108020">
        <ele>869.4</ele>
        <time>2020-07-24T12:19:33Z</time>
      </trkpt>
      <trkpt lat="42.9223220" lon="0.5107890">
        <ele>870.4</ele>
        <time>2020-07-24T12:19:36Z</time>
      </trkpt>
      <trkpt lat="42.9222600" lon="0.5107970">
        <ele>871.4</ele>
        <time>2020-07-24T12:19:39Z</time>
      </trkpt>
      <trkpt lat="42.9221830" lon="0.5108130">
        <ele>872.6</ele>
        <time>2020-07-24T12:19:43Z</time>
      </trkpt>
      <trkpt lat="42.9221000" lon="0.5108320">
        <ele>873.6</ele>
        <time>2020-07-24T12:19:47Z</time>
      </trkpt>
      <trkpt lat="42.9219900" lon="0.5108450">
        <ele>874.8</ele>
        <time>2020-07-24T12:19:52Z</time>
      </trkpt>
      <trkpt lat="42.9219200" lon="0.5108560">
        <ele>875.8</ele>
        <time>2020-07-24T12:19:55Z</time>
      </trkpt>
      <trkpt lat="42.9219000" lon="0.5108630">
        <ele>876.0</ele>
        <time>2020-07-24T12:19:56Z</time>
      </trkpt>
      <trkpt lat="42.9218050" lon="0.5109350">
        <ele>877.2</ele>
        <time>2020-07-24T12:20:01Z</time>
      </trkpt>
      <trkpt lat="42.9217500" lon="0.5110110">
        <ele>878.2</ele>
        <time>2020-07-24T12:20:05Z</time>
      </trkpt>
      <trkpt lat="42.9217340" lon="0.5110320">
        <ele>878.6</ele>
        <time>2020-07-24T12:20:06Z</time>
      </trkpt>
      <trkpt lat="42.9216780" lon="0.5110790">
        <ele>879.4</ele>
        <time>2020-07-24T12:20:09Z</time>
      </trkpt>
      <trkpt lat="42.9215990" lon="0.5111240">
        <ele>880.8</ele>
        <time>2020-07-24T12:20:13Z</time>
      </trkpt>
      <trkpt lat="42.9215620" lon="0.5111510">
        <ele>881.2</ele>
        <time>2020-07-24T12:20:15Z</time>
      </trkpt>
      <trkpt lat="42.9215430" lon="0.5111640">
        <ele>881.4</ele>
        <time>2020-07-24T12:20:16Z</time>
      </trkpt>
      <trkpt lat="42.9215210" lon="0.5111750">
        <ele>881.8</ele>
        <time>2020-07-24T12:20:17Z</time>
      </trkpt>
      <trkpt lat="42.9214990" lon="0.5111860">
        <ele>882.0</ele>
        <time>2020-07-24T12:20:18Z</time>
      </trkpt>
      <trkpt lat="42.9214370" lon="0.5112170">
        <ele>883.0</ele>
        <time>2020-07-24T12:20:21Z</time>
      </trkpt>
      <trkpt lat="42.9213780" lon="0.5112540">
        <ele>883.6</ele>
        <time>2020-07-24T12:20:24Z</time>
      </trkpt>
      <trkpt lat="42.9213250" lon="0.5112880">
        <ele>884.2</ele>
        <time>2020-07-24T12:20:27Z</time>
      </trkpt>
      <trkpt lat="42.9212440" lon="0.5113390">
        <ele>885.4</ele>
        <time>2020-07-24T12:20:31Z</time>
      </trkpt>
      <trkpt lat="42.9211670" lon="0.5114130">
        <ele>886.4</ele>
        <time>2020-07-24T12:20:36Z</time>
      </trkpt>
      <trkpt lat="42.9210960" lon="0.5114300">
        <ele>887.2</ele>
        <time>2020-07-24T12:20:39Z</time>
      </trkpt>
      <trkpt lat="42.9210730" lon="0.5114330">
        <ele>887.6</ele>
        <time>2020-07-24T12:20:40Z</time>
      </trkpt>
      <trkpt lat="42.9209540" lon="0.5114440">
        <ele>888.8</ele>
        <time>2020-07-24T12:20:45Z</time>
      </trkpt>
      <trkpt lat="42.9209090" lon="0.5114430">
        <ele>889.4</ele>
        <time>2020-07-24T12:20:47Z</time>
      </trkpt>
      <trkpt lat="42.9208770" lon="0.5114470">
        <ele>889.6</ele>
        <time>2020-07-24T12:20:49Z</time>
      </trkpt>
      <trkpt lat="42.9208590" lon="0.5114560">
        <ele>889.8</ele>
        <time>2020-07-24T12:20:50Z</time>
      </trkpt>
      <trkpt lat="42.9208110" lon="0.5114800">
        <ele>890.4</ele>
        <time>2020-07-24T12:20:53Z</time>
      </trkpt>
      <trkpt lat="42.9207730" lon="0.5114920">
        <ele>890.8</ele>
        <time>2020-07-24T12:20:55Z</time>
      </trkpt>
      <trkpt lat="42.9206890" lon="0.5115100">
        <ele>891.8</ele>
        <time>2020-07-24T12:20:59Z</time>
      </trkpt>
      <trkpt lat="42.9206470" lon="0.5115250">
        <ele>892.4</ele>
        <time>2020-07-24T12:21:01Z</time>
      </trkpt>
      <trkpt lat="42.9205850" lon="0.5115320">
        <ele>893.0</ele>
        <time>2020-07-24T12:21:04Z</time>
      </trkpt>
      <trkpt lat="42.9205200" lon="0.5115500">
        <ele>894.0</ele>
        <time>2020-07-24T12:21:07Z</time>
      </trkpt>
      <trkpt lat="42.9204280" lon="0.5115530">
        <ele>895.0</ele>
        <time>2020-07-24T12:21:11Z</time>
      </trkpt>
      <trkpt lat="42.9203430" lon="0.5115480">
        <ele>896.2</ele>
        <time>2020-07-24T12:21:15Z</time>
      </trkpt>
      <trkpt lat="42.9202840" lon="0.5115130">
        <ele>896.8</ele>
        <time>2020-07-24T12:21:18Z</time>
      </trkpt>
      <trkpt lat="42.9202420" lon="0.5114900">
        <ele>897.4</ele>
        <time>2020-07-24T12:21:20Z</time>
      </trkpt>
      <trkpt lat="42.9201200" lon="0.5114550">
        <ele>898.6</ele>
        <time>2020-07-24T12:21:25Z</time>
      </trkpt>
      <trkpt lat="42.9200920" lon="0.5114550">
        <ele>898.8</ele>
        <time>2020-07-24T12:21:26Z</time>
      </trkpt>
      <trkpt lat="42.9200640" lon="0.5114530">
        <ele>899.0</ele>
        <time>2020-07-24T12:21:27Z</time>
      </trkpt>
      <trkpt lat="42.9199790" lon="0.5114690">
        <ele>899.8</ele>
        <time>2020-07-24T12:21:30Z</time>
      </trkpt>
      <trkpt lat="42.9199080" lon="0.5115210">
        <ele>900.2</ele>
        <time>2020-07-24T12:21:33Z</time>
      </trkpt>
      <trkpt lat="42.9198650" lon="0.5115670">
        <ele>900.8</ele>
        <time>2020-07-24T12:21:35Z</time>
      </trkpt>
      <trkpt lat="42.9197740" lon="0.5116490">
        <ele>901.8</ele>
        <time>2020-07-24T12:21:39Z</time>
      </trkpt>
      <trkpt lat="42.9197230" lon="0.5116780">
        <ele>902.4</ele>
        <time>2020-07-24T12:21:41Z</time>
      </trkpt>
      <trkpt lat="42.9196240" lon="0.5117520">
        <ele>903.0</ele>
        <time>2020-07-24T12:21:45Z</time>
      </trkpt>
      <trkpt lat="42.9195750" lon="0.5118150">
        <ele>903.4</ele>
        <time>2020-07-24T12:21:48Z</time>
      </trkpt>
      <trkpt lat="42.9195060" lon="0.5119010">
        <ele>903.8</ele>
        <time>2020-07-24T12:21:53Z</time>
      </trkpt>
      <trkpt lat="42.9195110" lon="0.5119270">
        <ele>903.8</ele>
        <time>2020-07-24T12:23:41Z</time>
      </trkpt>
      <trkpt lat="42.9195060" lon="0.5119320">
        <ele>903.8</ele>
        <time>2020-07-24T12:23:42Z</time>
      </trkpt>
      <trkpt lat="42.9194820" lon="0.5119570">
        <ele>903.8</ele>
        <time>2020-07-24T12:23:44Z</time>
      </trkpt>
      <trkpt lat="42.9194530" lon="0.5119770">
        <ele>904.0</ele>
        <time>2020-07-24T12:23:46Z</time>
      </trkpt>
      <trkpt lat="42.9194300" lon="0.5119800">
        <ele>904.0</ele>
        <time>2020-07-24T12:23:47Z</time>
      </trkpt>
      <trkpt lat="42.9193390" lon="0.5119490">
        <ele>904.4</ele>
        <time>2020-07-24T12:23:50Z</time>
      </trkpt>
      <trkpt lat="42.9193060" lon="0.5119320">
        <ele>904.6</ele>
        <time>2020-07-24T12:23:51Z</time>
      </trkpt>
      <trkpt lat="42.9192740" lon="0.5119130">
        <ele>904.6</ele>
        <time>2020-07-24T12:23:52Z</time>
      </trkpt>
      <trkpt lat="42.9192400" lon="0.5118950">
        <ele>905.0</ele>
        <time>2020-07-24T12:23:53Z</time>
      </trkpt>
      <trkpt lat="42.9192060" lon="0.5118750">
        <ele>905.2</ele>
        <time>2020-07-24T12:23:54Z</time>
      </trkpt>
      <trkpt lat="42.9190480" lon="0.5117650">
        <ele>906.0</ele>
        <time>2020-07-24T12:23:59Z</time>
      </trkpt>
      <trkpt lat="42.9188600" lon="0.5117920">
        <ele>906.2</ele>
        <time>2020-07-24T12:24:04Z</time>
      </trkpt>
      <trkpt lat="42.9187780" lon="0.5118700">
        <ele>906.0</ele>
        <time>2020-07-24T12:24:06Z</time>
      </trkpt>
      <trkpt lat="42.9186600" lon="0.5120220">
        <ele>906.0</ele>
        <time>2020-07-24T12:24:09Z</time>
      </trkpt>
      <trkpt lat="42.9184630" lon="0.5123810">
        <ele>906.0</ele>
        <time>2020-07-24T12:24:15Z</time>
      </trkpt>
      <trkpt lat="42.9184380" lon="0.5124460">
        <ele>906.2</ele>
        <time>2020-07-24T12:24:16Z</time>
      </trkpt>
      <trkpt lat="42.9184140" lon="0.5125120">
        <ele>906.4</ele>
        <time>2020-07-24T12:24:17Z</time>
      </trkpt>
      <trkpt lat="42.9183260" lon="0.5128600">
        <ele>907.4</ele>
        <time>2020-07-24T12:24:22Z</time>
      </trkpt>
      <trkpt lat="42.9182690" lon="0.5129800">
        <ele>907.6</ele>
        <time>2020-07-24T12:24:24Z</time>
      </trkpt>
      <trkpt lat="42.9181650" lon="0.5130150">
        <ele>907.6</ele>
        <time>2020-07-24T12:24:26Z</time>
      </trkpt>
      <trkpt lat="42.9180750" lon="0.5129440">
        <ele>907.8</ele>
        <time>2020-07-24T12:24:28Z</time>
      </trkpt>
      <trkpt lat="42.9180470" lon="0.5128830">
        <ele>907.8</ele>
        <time>2020-07-24T12:24:29Z</time>
      </trkpt>
      <trkpt lat="42.9180230" lon="0.5128120">
        <ele>907.8</ele>
        <time>2020-07-24T12:24:30Z</time>
      </trkpt>
      <trkpt lat="42.9179360" lon="0.5125940">
        <ele>907.8</ele>
        <time>2020-07-24T12:24:33Z</time>
      </trkpt>
      <trkpt lat="42.9178950" lon="0.5125280">
        <ele>907.8</ele>
        <time>2020-07-24T12:24:34Z</time>
      </trkpt>
      <trkpt lat="42.9178490" lon="0.5124670">
        <ele>907.8</ele>
        <time>2020-07-24T12:24:35Z</time>
      </trkpt>
      <trkpt lat="42.9176450" lon="0.5122460">
        <ele>907.4</ele>
        <time>2020-07-24T12:24:39Z</time>
      </trkpt>
      <trkpt lat="42.9175470" lon="0.5121390">
        <ele>907.4</ele>
        <time>2020-07-24T12:24:41Z</time>
      </trkpt>
      <trkpt lat="42.9174510" lon="0.5120340">
        <ele>907.6</ele>
        <time>2020-07-24T12:24:43Z</time>
      </trkpt>
      <trkpt lat="42.9173570" lon="0.5119280">
        <ele>907.4</ele>
        <time>2020-07-24T12:24:45Z</time>
      </trkpt>
      <trkpt lat="42.9172080" lon="0.5117790">
        <ele>907.6</ele>
        <time>2020-07-24T12:24:48Z</time>
      </trkpt>
      <trkpt lat="42.9170380" lon="0.5116420">
        <ele>907.4</ele>
        <time>2020-07-24T12:24:51Z</time>
      </trkpt>
      <trkpt lat="42.9169170" lon="0.5116070">
        <ele>907.4</ele>
        <time>2020-07-24T12:24:53Z</time>
      </trkpt>
      <trkpt lat="42.9166980" lon="0.5117270">
        <ele>908.2</ele>
        <time>2020-07-24T12:24:57Z</time>
      </trkpt>
      <trkpt lat="42.9166570" lon="0.5117530">
        <ele>908.6</ele>
        <time>2020-07-24T12:24:58Z</time>
      </trkpt>
      <trkpt lat="42.9165440" lon="0.5118200">
        <ele>909.8</ele>
        <time>2020-07-24T12:25:01Z</time>
      </trkpt>
      <trkpt lat="42.9164650" lon="0.5118420">
        <ele>910.2</ele>
        <time>2020-07-24T12:25:03Z</time>
      </trkpt>
      <trkpt lat="42.9163800" lon="0.5118720">
        <ele>910.8</ele>
        <time>2020-07-24T12:25:05Z</time>
      </trkpt>
      <trkpt lat="42.9161790" lon="0.5119860">
        <ele>912.0</ele>
        <time>2020-07-24T12:25:10Z</time>
      </trkpt>
      <trkpt lat="42.9161410" lon="0.5120070">
        <ele>912.2</ele>
        <time>2020-07-24T12:25:11Z</time>
      </trkpt>
      <trkpt lat="42.9160000" lon="0.5120860">
        <ele>913.2</ele>
        <time>2020-07-24T12:25:15Z</time>
      </trkpt>
      <trkpt lat="42.9158840" lon="0.5121360">
        <ele>914.4</ele>
        <time>2020-07-24T12:25:19Z</time>
      </trkpt>
      <trkpt lat="42.9158590" lon="0.5121450">
        <ele>914.6</ele>
        <time>2020-07-24T12:25:20Z</time>
      </trkpt>
      <trkpt lat="42.9158080" lon="0.5121560">
        <ele>915.0</ele>
        <time>2020-07-24T12:25:22Z</time>
      </trkpt>
      <trkpt lat="42.9157270" lon="0.5121840">
        <ele>915.6</ele>
        <time>2020-07-24T12:25:25Z</time>
      </trkpt>
      <trkpt lat="42.9156790" lon="0.5122210">
        <ele>916.0</ele>
        <time>2020-07-24T12:25:27Z</time>
      </trkpt>
      <trkpt lat="42.9156300" lon="0.5122620">
        <ele>916.6</ele>
        <time>2020-07-24T12:25:29Z</time>
      </trkpt>
      <trkpt lat="42.9155530" lon="0.5123240">
        <ele>917.6</ele>
        <time>2020-07-24T12:25:32Z</time>
      </trkpt>
      <trkpt lat="42.9155050" lon="0.5123540">
        <ele>918.2</ele>
        <time>2020-07-24T12:25:34Z</time>
      </trkpt>
      <trkpt lat="42.9154400" lon="0.5123940">
        <ele>918.8</ele>
        <time>2020-07-24T12:25:37Z</time>
      </trkpt>
      <trkpt lat="42.9153250" lon="0.5124810">
        <ele>920.0</ele>
        <time>2020-07-24T12:25:42Z</time>
      </trkpt>
      <trkpt lat="42.9152500" lon="0.5125510">
        <ele>920.6</ele>
        <time>2020-07-24T12:25:45Z</time>
      </trkpt>
      <trkpt lat="42.9151680" lon="0.5126150">
        <ele>921.0</ele>
        <time>2020-07-24T12:25:48Z</time>
      </trkpt>
      <trkpt lat="42.9151140" lon="0.5126360">
        <ele>921.6</ele>
        <time>2020-07-24T12:25:50Z</time>
      </trkpt>
      <trkpt lat="42.9150350" lon="0.5126520">
        <ele>922.2</ele>
        <time>2020-07-24T12:25:53Z</time>
      </trkpt>
      <trkpt lat="42.9148910" lon="0.5127460">
        <ele>923.0</ele>
        <time>2020-07-24T12:25:58Z</time>
      </trkpt>
      <trkpt lat="42.9148650" lon="0.5127700">
        <ele>923.4</ele>
        <time>2020-07-24T12:25:59Z</time>
      </trkpt>
      <trkpt lat="42.9147280" lon="0.5128190">
        <ele>924.6</ele>
        <time>2020-07-24T12:26:04Z</time>
      </trkpt>
      <trkpt lat="42.9147010" lon="0.5128210">
        <ele>924.8</ele>
        <time>2020-07-24T12:26:05Z</time>
      </trkpt>
      <trkpt lat="42.9146760" lon="0.5128200">
        <ele>925.0</ele>
        <time>2020-07-24T12:26:06Z</time>
      </trkpt>
      <trkpt lat="42.9145970" lon="0.5128460">
        <ele>925.6</ele>
        <time>2020-07-24T12:26:09Z</time>
      </trkpt>
      <trkpt lat="42.9145220" lon="0.5128630">
        <ele>926.2</ele>
        <time>2020-07-24T12:26:12Z</time>
      </trkpt>
      <trkpt lat="42.9144780" lon="0.5128600">
        <ele>926.8</ele>
        <time>2020-07-24T12:26:14Z</time>
      </trkpt>
      <trkpt lat="42.9143530" lon="0.5129280">
        <ele>928.0</ele>
        <time>2020-07-24T12:26:19Z</time>
      </trkpt>
      <trkpt lat="42.9142950" lon="0.5130010">
        <ele>929.0</ele>
        <time>2020-07-24T12:26:23Z</time>
      </trkpt>
      <trkpt lat="42.9142930" lon="0.5130240">
        <ele>929.2</ele>
        <time>2020-07-24T12:26:24Z</time>
      </trkpt>
      <trkpt lat="42.9143150" lon="0.5131840">
        <ele>930.6</ele>
        <time>2020-07-24T12:26:29Z</time>
      </trkpt>
      <trkpt lat="42.9143220" lon="0.5132170">
        <ele>930.8</ele>
        <time>2020-07-24T12:26:30Z</time>
      </trkpt>
      <trkpt lat="42.9143290" lon="0.5132830">
        <ele>931.4</ele>
        <time>2020-07-24T12:26:32Z</time>
      </trkpt>
      <trkpt lat="42.9143290" lon="0.5133150">
        <ele>931.6</ele>
        <time>2020-07-24T12:26:33Z</time>
      </trkpt>
      <trkpt lat="42.9143110" lon="0.5134030">
        <ele>932.4</ele>
        <time>2020-07-24T12:26:36Z</time>
      </trkpt>
      <trkpt lat="42.9143000" lon="0.5134280">
        <ele>932.8</ele>
        <time>2020-07-24T12:26:37Z</time>
      </trkpt>
      <trkpt lat="42.9142760" lon="0.5134760">
        <ele>933.4</ele>
        <time>2020-07-24T12:26:39Z</time>
      </trkpt>
      <trkpt lat="42.9142540" lon="0.5135210">
        <ele>933.8</ele>
        <time>2020-07-24T12:26:41Z</time>
      </trkpt>
      <trkpt lat="42.9141580" lon="0.5136180">
        <ele>935.0</ele>
        <time>2020-07-24T12:26:46Z</time>
      </trkpt>
      <trkpt lat="42.9140860" lon="0.5136300">
        <ele>936.0</ele>
        <time>2020-07-24T12:26:49Z</time>
      </trkpt>
      <trkpt lat="42.9140390" lon="0.5136070">
        <ele>936.8</ele>
        <time>2020-07-24T12:26:51Z</time>
      </trkpt>
      <trkpt lat="42.9140170" lon="0.5135960">
        <ele>937.0</ele>
        <time>2020-07-24T12:26:52Z</time>
      </trkpt>
      <trkpt lat="42.9140170" lon="0.5135960">
        <ele>937.6</ele>
        <time>2020-07-24T12:26:55Z</time>
      </trkpt>
      <trkpt lat="42.9139030" lon="0.5135430">
        <ele>938.0</ele>
        <time>2020-07-24T12:26:57Z</time>
      </trkpt>
      <trkpt lat="42.9138550" lon="0.5135300">
        <ele>938.4</ele>
        <time>2020-07-24T12:26:59Z</time>
      </trkpt>
      <trkpt lat="42.9138080" lon="0.5135070">
        <ele>939.2</ele>
        <time>2020-07-24T12:27:01Z</time>
      </trkpt>
      <trkpt lat="42.9137870" lon="0.5134910">
        <ele>939.6</ele>
        <time>2020-07-24T12:27:02Z</time>
      </trkpt>
      <trkpt lat="42.9137650" lon="0.5134790">
        <ele>939.8</ele>
        <time>2020-07-24T12:27:03Z</time>
      </trkpt>
      <trkpt lat="42.9137450" lon="0.5134700">
        <ele>940.0</ele>
        <time>2020-07-24T12:27:04Z</time>
      </trkpt>
      <trkpt lat="42.9137290" lon="0.5134580">
        <ele>940.4</ele>
        <time>2020-07-24T12:27:05Z</time>
      </trkpt>
      <trkpt lat="42.9136660" lon="0.5134370">
        <ele>941.0</ele>
        <time>2020-07-24T12:27:08Z</time>
      </trkpt>
      <trkpt lat="42.9135920" lon="0.5134210">
        <ele>941.4</ele>
        <time>2020-07-24T12:27:11Z</time>
      </trkpt>
      <trkpt lat="42.9135450" lon="0.5134040">
        <ele>942.6</ele>
        <time>2020-07-24T12:27:13Z</time>
      </trkpt>
      <trkpt lat="42.9134780" lon="0.5133920">
        <ele>943.6</ele>
        <time>2020-07-24T12:27:16Z</time>
      </trkpt>
      <trkpt lat="42.9134550" lon="0.5133910">
        <ele>944.0</ele>
        <time>2020-07-24T12:27:17Z</time>
      </trkpt>
      <trkpt lat="42.9133840" lon="0.5134110">
        <ele>945.0</ele>
        <time>2020-07-24T12:27:20Z</time>
      </trkpt>
      <trkpt lat="42.9133590" lon="0.5134150">
        <ele>945.2</ele>
        <time>2020-07-24T12:27:21Z</time>
      </trkpt>
      <trkpt lat="42.9132630" lon="0.5134440">
        <ele>946.0</ele>
        <time>2020-07-24T12:27:25Z</time>
      </trkpt>
      <trkpt lat="42.9132220" lon="0.5134710">
        <ele>946.6</ele>
        <time>2020-07-24T12:27:27Z</time>
      </trkpt>
      <trkpt lat="42.9132040" lon="0.5134910">
        <ele>947.0</ele>
        <time>2020-07-24T12:27:28Z</time>
      </trkpt>
      <trkpt lat="42.9131680" lon="0.5135330">
        <ele>947.6</ele>
        <time>2020-07-24T12:27:30Z</time>
      </trkpt>
      <trkpt lat="42.9130840" lon="0.5136370">
        <ele>948.8</ele>
        <time>2020-07-24T12:27:35Z</time>
      </trkpt>
      <trkpt lat="42.9130630" lon="0.5136540">
        <ele>949.0</ele>
        <time>2020-07-24T12:27:36Z</time>
      </trkpt>
      <trkpt lat="42.9129880" lon="0.5137350">
        <ele>950.0</ele>
        <time>2020-07-24T12:27:40Z</time>
      </trkpt>
      <trkpt lat="42.9129280" lon="0.5137870">
        <ele>951.0</ele>
        <time>2020-07-24T12:27:43Z</time>
      </trkpt>
      <trkpt lat="42.9128460" lon="0.5138570">
        <ele>952.2</ele>
        <time>2020-07-24T12:27:47Z</time>
      </trkpt>
      <trkpt lat="42.9127850" lon="0.5138960">
        <ele>952.8</ele>
        <time>2020-07-24T12:27:50Z</time>
      </trkpt>
      <trkpt lat="42.9127620" lon="0.5139060">
        <ele>953.0</ele>
        <time>2020-07-24T12:27:51Z</time>
      </trkpt>
      <trkpt lat="42.9127400" lon="0.5139140">
        <ele>953.2</ele>
        <time>2020-07-24T12:27:52Z</time>
      </trkpt>
      <trkpt lat="42.9125960" lon="0.5139780">
        <ele>954.2</ele>
        <time>2020-07-24T12:27:58Z</time>
      </trkpt>
      <trkpt lat="42.9125760" lon="0.5139970">
        <ele>954.4</ele>
        <time>2020-07-24T12:27:59Z</time>
      </trkpt>
      <trkpt lat="42.9125190" lon="0.5140470">
        <ele>955.0</ele>
        <time>2020-07-24T12:28:02Z</time>
      </trkpt>
      <trkpt lat="42.9124800" lon="0.5140860">
        <ele>955.4</ele>
        <time>2020-07-24T12:28:04Z</time>
      </trkpt>
      <trkpt lat="42.9124200" lon="0.5141450">
        <ele>956.4</ele>
        <time>2020-07-24T12:28:07Z</time>
      </trkpt>
      <trkpt lat="42.9123990" lon="0.5141650">
        <ele>956.6</ele>
        <time>2020-07-24T12:28:08Z</time>
      </trkpt>
      <trkpt lat="42.9123450" lon="0.5143660">
        <ele>957.8</ele>
        <time>2020-07-24T12:28:13Z</time>
      </trkpt>
      <trkpt lat="42.9123440" lon="0.5144050">
        <ele>958.0</ele>
        <time>2020-07-24T12:28:14Z</time>
      </trkpt>
      <trkpt lat="42.9123480" lon="0.5145160">
        <ele>959.0</ele>
        <time>2020-07-24T12:28:17Z</time>
      </trkpt>
      <trkpt lat="42.9123460" lon="0.5146720">
        <ele>960.0</ele>
        <time>2020-07-24T12:28:22Z</time>
      </trkpt>
      <trkpt lat="42.9123440" lon="0.5147110">
        <ele>960.4</ele>
        <time>2020-07-24T12:28:23Z</time>
      </trkpt>
      <trkpt lat="42.9123240" lon="0.5147750">
        <ele>961.0</ele>
        <time>2020-07-24T12:28:25Z</time>
      </trkpt>
      <trkpt lat="42.9123100" lon="0.5148060">
        <ele>961.4</ele>
        <time>2020-07-24T12:28:26Z</time>
      </trkpt>
      <trkpt lat="42.9122940" lon="0.5148360">
        <ele>961.6</ele>
        <time>2020-07-24T12:28:27Z</time>
      </trkpt>
      <trkpt lat="42.9122730" lon="0.5148610">
        <ele>961.8</ele>
        <time>2020-07-24T12:28:28Z</time>
      </trkpt>
      <trkpt lat="42.9122310" lon="0.5149100">
        <ele>962.2</ele>
        <time>2020-07-24T12:28:30Z</time>
      </trkpt>
      <trkpt lat="42.9122100" lon="0.5149310">
        <ele>962.4</ele>
        <time>2020-07-24T12:28:31Z</time>
      </trkpt>
      <trkpt lat="42.9120980" lon="0.5149580">
        <ele>963.6</ele>
        <time>2020-07-24T12:28:35Z</time>
      </trkpt>
      <trkpt lat="42.9119890" lon="0.5149310">
        <ele>964.6</ele>
        <time>2020-07-24T12:28:39Z</time>
      </trkpt>
      <trkpt lat="42.9119210" lon="0.5149160">
        <ele>965.2</ele>
        <time>2020-07-24T12:28:42Z</time>
      </trkpt>
      <trkpt lat="42.9118780" lon="0.5149090">
        <ele>965.8</ele>
        <time>2020-07-24T12:28:44Z</time>
      </trkpt>
      <trkpt lat="42.9117860" lon="0.5149080">
        <ele>967.0</ele>
        <time>2020-07-24T12:28:49Z</time>
      </trkpt>
      <trkpt lat="42.9117700" lon="0.5149130">
        <ele>967.4</ele>
        <time>2020-07-24T12:28:50Z</time>
      </trkpt>
      <trkpt lat="42.9117220" lon="0.5149190">
        <ele>967.8</ele>
        <time>2020-07-24T12:28:53Z</time>
      </trkpt>
      <trkpt lat="42.9116770" lon="0.5149210">
        <ele>968.2</ele>
        <time>2020-07-24T12:28:56Z</time>
      </trkpt>
      <trkpt lat="42.9116490" lon="0.5149240">
        <ele>968.6</ele>
        <time>2020-07-24T12:28:58Z</time>
      </trkpt>
      <trkpt lat="42.9116340" lon="0.5149260">
        <ele>968.8</ele>
        <time>2020-07-24T12:28:59Z</time>
      </trkpt>
      <trkpt lat="42.9115640" lon="0.5149250">
        <ele>969.4</ele>
        <time>2020-07-24T12:29:03Z</time>
      </trkpt>
      <trkpt lat="42.9115310" lon="0.5149170">
        <ele>970.0</ele>
        <time>2020-07-24T12:29:05Z</time>
      </trkpt>
      <trkpt lat="42.9114830" lon="0.5148950">
        <ele>970.6</ele>
        <time>2020-07-24T12:29:08Z</time>
      </trkpt>
      <trkpt lat="42.9114300" lon="0.5148800">
        <ele>970.8</ele>
        <time>2020-07-24T12:29:11Z</time>
      </trkpt>
      <trkpt lat="42.9113770" lon="0.5148500">
        <ele>971.8</ele>
        <time>2020-07-24T12:29:14Z</time>
      </trkpt>
      <trkpt lat="42.9112730" lon="0.5148170">
        <ele>972.6</ele>
        <time>2020-07-24T12:29:20Z</time>
      </trkpt>
      <trkpt lat="42.9112360" lon="0.5148130">
        <ele>972.8</ele>
        <time>2020-07-24T12:29:22Z</time>
      </trkpt>
      <trkpt lat="42.9111650" lon="0.5148370">
        <ele>974.0</ele>
        <time>2020-07-24T12:29:26Z</time>
      </trkpt>
      <trkpt lat="42.9110750" lon="0.5148510">
        <ele>975.0</ele>
        <time>2020-07-24T12:29:31Z</time>
      </trkpt>
      <trkpt lat="42.9110440" lon="0.5148390">
        <ele>975.6</ele>
        <time>2020-07-24T12:29:33Z</time>
      </trkpt>
      <trkpt lat="42.9109810" lon="0.5148240">
        <ele>976.2</ele>
        <time>2020-07-24T12:29:37Z</time>
      </trkpt>
      <trkpt lat="42.9109350" lon="0.5148180">
        <ele>977.0</ele>
        <time>2020-07-24T12:29:40Z</time>
      </trkpt>
      <trkpt lat="42.9109070" lon="0.5147980">
        <ele>977.4</ele>
        <time>2020-07-24T12:29:42Z</time>
      </trkpt>
      <trkpt lat="42.9108370" lon="0.5147640">
        <ele>978.6</ele>
        <time>2020-07-24T12:29:47Z</time>
      </trkpt>
      <trkpt lat="42.9108240" lon="0.5147590">
        <ele>978.8</ele>
        <time>2020-07-24T12:29:48Z</time>
      </trkpt>
      <trkpt lat="42.9107760" lon="0.5147440">
        <ele>979.6</ele>
        <time>2020-07-24T12:29:52Z</time>
      </trkpt>
      <trkpt lat="42.9107650" lon="0.5147460">
        <ele>979.8</ele>
        <time>2020-07-24T12:29:53Z</time>
      </trkpt>
      <trkpt lat="42.9107330" lon="0.5147320">
        <ele>980.4</ele>
        <time>2020-07-24T12:29:56Z</time>
      </trkpt>
      <trkpt lat="42.9106890" lon="0.5147260">
        <ele>980.8</ele>
        <time>2020-07-24T12:29:59Z</time>
      </trkpt>
      <trkpt lat="42.9106510" lon="0.5147440">
        <ele>981.2</ele>
        <time>2020-07-24T12:30:02Z</time>
      </trkpt>
      <trkpt lat="42.9105880" lon="0.5147880">
        <ele>982.0</ele>
        <time>2020-07-24T12:30:06Z</time>
      </trkpt>
      <trkpt lat="42.9105470" lon="0.5148090">
        <ele>982.4</ele>
        <time>2020-07-24T12:30:08Z</time>
      </trkpt>
      <trkpt lat="42.9104980" lon="0.5148270">
        <ele>983.0</ele>
        <time>2020-07-24T12:30:10Z</time>
      </trkpt>
      <trkpt lat="42.9104560" lon="0.5148420">
        <ele>983.6</ele>
        <time>2020-07-24T12:30:12Z</time>
      </trkpt>
      <trkpt lat="42.9104380" lon="0.5148470">
        <ele>983.6</ele>
        <time>2020-07-24T12:30:13Z</time>
      </trkpt>
      <trkpt lat="42.9104060" lon="0.5148720">
        <ele>984.2</ele>
        <time>2020-07-24T12:30:15Z</time>
      </trkpt>
      <trkpt lat="42.9103560" lon="0.5149040">
        <ele>985.4</ele>
        <time>2020-07-24T12:30:18Z</time>
      </trkpt>
      <trkpt lat="42.9103170" lon="0.5149220">
        <ele>986.2</ele>
        <time>2020-07-24T12:30:20Z</time>
      </trkpt>
      <trkpt lat="42.9102970" lon="0.5149250">
        <ele>986.6</ele>
        <time>2020-07-24T12:30:21Z</time>
      </trkpt>
      <trkpt lat="42.9102000" lon="0.5149250">
        <ele>987.8</ele>
        <time>2020-07-24T12:30:26Z</time>
      </trkpt>
      <trkpt lat="42.9101620" lon="0.5149320">
        <ele>988.2</ele>
        <time>2020-07-24T12:30:28Z</time>
      </trkpt>
      <trkpt lat="42.9101220" lon="0.5149370">
        <ele>988.4</ele>
        <time>2020-07-24T12:30:30Z</time>
      </trkpt>
      <trkpt lat="42.9100800" lon="0.5149500">
        <ele>989.2</ele>
        <time>2020-07-24T12:30:32Z</time>
      </trkpt>
      <trkpt lat="42.9100590" lon="0.5149570">
        <ele>989.4</ele>
        <time>2020-07-24T12:30:33Z</time>
      </trkpt>
      <trkpt lat="42.9100160" lon="0.5149640">
        <ele>989.8</ele>
        <time>2020-07-24T12:30:35Z</time>
      </trkpt>
      <trkpt lat="42.9099760" lon="0.5149670">
        <ele>990.4</ele>
        <time>2020-07-24T12:30:37Z</time>
      </trkpt>
      <trkpt lat="42.9098860" lon="0.5149620">
        <ele>991.4</ele>
        <time>2020-07-24T12:30:42Z</time>
      </trkpt>
      <trkpt lat="42.9098000" lon="0.5149140">
        <ele>992.6</ele>
        <time>2020-07-24T12:30:46Z</time>
      </trkpt>
      <trkpt lat="42.9097200" lon="0.5148730">
        <ele>993.4</ele>
        <time>2020-07-24T12:30:49Z</time>
      </trkpt>
      <trkpt lat="42.9096970" lon="0.5148600">
        <ele>993.6</ele>
        <time>2020-07-24T12:30:50Z</time>
      </trkpt>
      <trkpt lat="42.9095770" lon="0.5147980">
        <ele>994.8</ele>
        <time>2020-07-24T12:30:56Z</time>
      </trkpt>
      <trkpt lat="42.9095590" lon="0.5147850">
        <ele>995.0</ele>
        <time>2020-07-24T12:30:57Z</time>
      </trkpt>
      <trkpt lat="42.9094700" lon="0.5147400">
        <ele>996.0</ele>
        <time>2020-07-24T12:31:01Z</time>
      </trkpt>
      <trkpt lat="42.9094270" lon="0.5147130">
        <ele>996.6</ele>
        <time>2020-07-24T12:31:03Z</time>
      </trkpt>
      <trkpt lat="42.9093870" lon="0.5146900">
        <ele>997.2</ele>
        <time>2020-07-24T12:31:05Z</time>
      </trkpt>
      <trkpt lat="42.9092780" lon="0.5146680">
        <ele>998.4</ele>
        <time>2020-07-24T12:31:10Z</time>
      </trkpt>
      <trkpt lat="42.9092550" lon="0.5146640">
        <ele>998.6</ele>
        <time>2020-07-24T12:31:11Z</time>
      </trkpt>
      <trkpt lat="42.9091870" lon="0.5146560">
        <ele>999.6</ele>
        <time>2020-07-24T12:31:14Z</time>
      </trkpt>
      <trkpt lat="42.9090980" lon="0.5146470">
        <ele>1000.4</ele>
        <time>2020-07-24T12:31:18Z</time>
      </trkpt>
      <trkpt lat="42.9090530" lon="0.5146420">
        <ele>1001.0</ele>
        <time>2020-07-24T12:31:20Z</time>
      </trkpt>
      <trkpt lat="42.9089880" lon="0.5146280">
        <ele>1002.0</ele>
        <time>2020-07-24T12:31:23Z</time>
      </trkpt>
      <trkpt lat="42.9088860" lon="0.5146230">
        <ele>1003.0</ele>
        <time>2020-07-24T12:31:28Z</time>
      </trkpt>
      <trkpt lat="42.9087720" lon="0.5146080">
        <ele>1003.8</ele>
        <time>2020-07-24T12:31:34Z</time>
      </trkpt>
      <trkpt lat="42.9087380" lon="0.5146020">
        <ele>1004.2</ele>
        <time>2020-07-24T12:31:36Z</time>
      </trkpt>
      <trkpt lat="42.9087190" lon="0.5145950">
        <ele>1004.4</ele>
        <time>2020-07-24T12:31:37Z</time>
      </trkpt>
      <trkpt lat="42.9086240" lon="0.5145300">
        <ele>1005.2</ele>
        <time>2020-07-24T12:31:42Z</time>
      </trkpt>
      <trkpt lat="42.9085780" lon="0.5145050">
        <ele>1005.6</ele>
        <time>2020-07-24T12:31:44Z</time>
      </trkpt>
      <trkpt lat="42.9085140" lon="0.5144170">
        <ele>1006.2</ele>
        <time>2020-07-24T12:31:48Z</time>
      </trkpt>
      <trkpt lat="42.9084810" lon="0.5143720">
        <ele>1006.8</ele>
        <time>2020-07-24T12:31:50Z</time>
      </trkpt>
      <trkpt lat="42.9084290" lon="0.5143120">
        <ele>1007.4</ele>
        <time>2020-07-24T12:31:53Z</time>
      </trkpt>
      <trkpt lat="42.9083600" lon="0.5142440">
        <ele>1008.4</ele>
        <time>2020-07-24T12:31:57Z</time>
      </trkpt>
      <trkpt lat="42.9082810" lon="0.5141330">
        <ele>1009.6</ele>
        <time>2020-07-24T12:32:03Z</time>
      </trkpt>
      <trkpt lat="42.9082210" lon="0.5140020">
        <ele>1010.6</ele>
        <time>2020-07-24T12:32:09Z</time>
      </trkpt>
      <trkpt lat="42.9081790" lon="0.5138640">
        <ele>1011.6</ele>
        <time>2020-07-24T12:32:15Z</time>
      </trkpt>
      <trkpt lat="42.9081700" lon="0.5138410">
        <ele>1012.0</ele>
        <time>2020-07-24T12:32:16Z</time>
      </trkpt>
      <trkpt lat="42.9081490" lon="0.5138000">
        <ele>1012.6</ele>
        <time>2020-07-24T12:32:18Z</time>
      </trkpt>
      <trkpt lat="42.9081380" lon="0.5137490">
        <ele>1013.2</ele>
        <time>2020-07-24T12:32:20Z</time>
      </trkpt>
      <trkpt lat="42.9081230" lon="0.5136160">
        <ele>1014.4</ele>
        <time>2020-07-24T12:32:25Z</time>
      </trkpt>
      <trkpt lat="42.9081180" lon="0.5135330">
        <ele>1015.6</ele>
        <time>2020-07-24T12:32:28Z</time>
      </trkpt>
      <trkpt lat="42.9081240" lon="0.5133730">
        <ele>1016.4</ele>
        <time>2020-07-24T12:32:33Z</time>
      </trkpt>
      <trkpt lat="42.9081230" lon="0.5133440">
        <ele>1016.6</ele>
        <time>2020-07-24T12:32:34Z</time>
      </trkpt>
      <trkpt lat="42.9080680" lon="0.5131970">
        <ele>1017.8</ele>
        <time>2020-07-24T12:32:39Z</time>
      </trkpt>
      <trkpt lat="42.9079890" lon="0.5130740">
        <ele>1018.8</ele>
        <time>2020-07-24T12:32:44Z</time>
      </trkpt>
      <trkpt lat="42.9079270" lon="0.5130360">
        <ele>1019.4</ele>
        <time>2020-07-24T12:32:47Z</time>
      </trkpt>
      <trkpt lat="42.9078860" lon="0.5130040">
        <ele>1020.0</ele>
        <time>2020-07-24T12:32:49Z</time>
      </trkpt>
      <trkpt lat="42.9077860" lon="0.5129390">
        <ele>1020.8</ele>
        <time>2020-07-24T12:32:54Z</time>
      </trkpt>
      <trkpt lat="42.9077660" lon="0.5129280">
        <ele>1021.0</ele>
        <time>2020-07-24T12:32:55Z</time>
      </trkpt>
      <trkpt lat="42.9076960" lon="0.5128740">
        <ele>1022.0</ele>
        <time>2020-07-24T12:32:59Z</time>
      </trkpt>
      <trkpt lat="42.9076800" lon="0.5128600">
        <ele>1022.2</ele>
        <time>2020-07-24T12:33:00Z</time>
      </trkpt>
      <trkpt lat="42.9076660" lon="0.5128440">
        <ele>1022.6</ele>
        <time>2020-07-24T12:33:01Z</time>
      </trkpt>
      <trkpt lat="42.9076490" lon="0.5128330">
        <ele>1023.0</ele>
        <time>2020-07-24T12:33:02Z</time>
      </trkpt>
      <trkpt lat="42.9076330" lon="0.5128240">
        <ele>1023.0</ele>
        <time>2020-07-24T12:33:03Z</time>
      </trkpt>
      <trkpt lat="42.9075730" lon="0.5127740">
        <ele>1023.4</ele>
        <time>2020-07-24T12:33:07Z</time>
      </trkpt>
      <trkpt lat="42.9075030" lon="0.5127320">
        <ele>1024.2</ele>
        <time>2020-07-24T12:33:11Z</time>
      </trkpt>
      <trkpt lat="42.9074810" lon="0.5127310">
        <ele>1024.6</ele>
        <time>2020-07-24T12:33:12Z</time>
      </trkpt>
      <trkpt lat="42.9074260" lon="0.5126960">
        <ele>1025.2</ele>
        <time>2020-07-24T12:33:15Z</time>
      </trkpt>
      <trkpt lat="42.9073510" lon="0.5126550">
        <ele>1026.4</ele>
        <time>2020-07-24T12:33:19Z</time>
      </trkpt>
      <trkpt lat="42.9073090" lon="0.5126350">
        <ele>1026.8</ele>
        <time>2020-07-24T12:33:21Z</time>
      </trkpt>
      <trkpt lat="42.9072510" lon="0.5125940">
        <ele>1027.4</ele>
        <time>2020-07-24T12:33:24Z</time>
      </trkpt>
      <trkpt lat="42.9071890" lon="0.5125660">
        <ele>1028.0</ele>
        <time>2020-07-24T12:33:27Z</time>
      </trkpt>
      <trkpt lat="42.9071330" lon="0.5125470">
        <ele>1028.8</ele>
        <time>2020-07-24T12:33:30Z</time>
      </trkpt>
      <trkpt lat="42.9070710" lon="0.5125580">
        <ele>1029.6</ele>
        <time>2020-07-24T12:33:33Z</time>
      </trkpt>
      <trkpt lat="42.9070310" lon="0.5125740">
        <ele>1029.8</ele>
        <time>2020-07-24T12:33:35Z</time>
      </trkpt>
      <trkpt lat="42.9069500" lon="0.5126180">
        <ele>1030.6</ele>
        <time>2020-07-24T12:33:39Z</time>
      </trkpt>
      <trkpt lat="42.9069300" lon="0.5126310">
        <ele>1030.8</ele>
        <time>2020-07-24T12:33:40Z</time>
      </trkpt>
      <trkpt lat="42.9069090" lon="0.5126420">
        <ele>1030.8</ele>
        <time>2020-07-24T12:33:41Z</time>
      </trkpt>
      <trkpt lat="42.9068030" lon="0.5126730">
        <ele>1031.8</ele>
        <time>2020-07-24T12:33:47Z</time>
      </trkpt>
      <trkpt lat="42.9066930" lon="0.5126720">
        <ele>1033.2</ele>
        <time>2020-07-24T12:33:52Z</time>
      </trkpt>
      <trkpt lat="42.9066750" lon="0.5126690">
        <ele>1033.6</ele>
        <time>2020-07-24T12:33:53Z</time>
      </trkpt>
      <trkpt lat="42.9066240" lon="0.5126610">
        <ele>1034.4</ele>
        <time>2020-07-24T12:33:56Z</time>
      </trkpt>
      <trkpt lat="42.9065230" lon="0.5126250">
        <ele>1035.6</ele>
        <time>2020-07-24T12:34:01Z</time>
      </trkpt>
      <trkpt lat="42.9065000" lon="0.5126060">
        <ele>1035.8</ele>
        <time>2020-07-24T12:34:02Z</time>
      </trkpt>
      <trkpt lat="42.9064720" lon="0.5125960">
        <ele>1036.0</ele>
        <time>2020-07-24T12:34:03Z</time>
      </trkpt>
      <trkpt lat="42.9064150" lon="0.5125670">
        <ele>1036.4</ele>
        <time>2020-07-24T12:34:05Z</time>
      </trkpt>
      <trkpt lat="42.9063890" lon="0.5125590">
        <ele>1036.6</ele>
        <time>2020-07-24T12:34:06Z</time>
      </trkpt>
      <trkpt lat="42.9063070" lon="0.5125420">
        <ele>1037.6</ele>
        <time>2020-07-24T12:34:09Z</time>
      </trkpt>
      <trkpt lat="42.9062780" lon="0.5125420">
        <ele>1037.8</ele>
        <time>2020-07-24T12:34:10Z</time>
      </trkpt>
      <trkpt lat="42.9061500" lon="0.5125490">
        <ele>1039.0</ele>
        <time>2020-07-24T12:34:14Z</time>
      </trkpt>
      <trkpt lat="42.9060570" lon="0.5125420">
        <ele>1039.8</ele>
        <time>2020-07-24T12:34:17Z</time>
      </trkpt>
      <trkpt lat="42.9060280" lon="0.5125390">
        <ele>1040.4</ele>
        <time>2020-07-24T12:34:18Z</time>
      </trkpt>
      <trkpt lat="42.9059390" lon="0.5125220">
        <ele>1041.6</ele>
        <time>2020-07-24T12:34:21Z</time>
      </trkpt>
      <trkpt lat="42.9058320" lon="0.5125110">
        <ele>1042.2</ele>
        <time>2020-07-24T12:34:25Z</time>
      </trkpt>
      <trkpt lat="42.9058030" lon="0.5125100">
        <ele>1042.6</ele>
        <time>2020-07-24T12:34:26Z</time>
      </trkpt>
      <trkpt lat="42.9056880" lon="0.5125090">
        <ele>1043.8</ele>
        <time>2020-07-24T12:34:30Z</time>
      </trkpt>
      <trkpt lat="42.9056330" lon="0.5125150">
        <ele>1044.4</ele>
        <time>2020-07-24T12:34:32Z</time>
      </trkpt>
      <trkpt lat="42.9055520" lon="0.5125410">
        <ele>1045.0</ele>
        <time>2020-07-24T12:34:35Z</time>
      </trkpt>
      <trkpt lat="42.9054070" lon="0.5125830">
        <ele>1046.2</ele>
        <time>2020-07-24T12:34:40Z</time>
      </trkpt>
      <trkpt lat="42.9052860" lon="0.5125690">
        <ele>1047.2</ele>
        <time>2020-07-24T12:34:44Z</time>
      </trkpt>
      <trkpt lat="42.9051340" lon="0.5125380">
        <ele>1048.6</ele>
        <time>2020-07-24T12:34:49Z</time>
      </trkpt>
      <trkpt lat="42.9049800" lon="0.5124640">
        <ele>1049.6</ele>
        <time>2020-07-24T12:34:54Z</time>
      </trkpt>
      <trkpt lat="42.9049550" lon="0.5124390">
        <ele>1049.8</ele>
        <time>2020-07-24T12:34:55Z</time>
      </trkpt>
      <trkpt lat="42.9048270" lon="0.5122930">
        <ele>1050.6</ele>
        <time>2020-07-24T12:35:00Z</time>
      </trkpt>
      <trkpt lat="42.9047860" lon="0.5122260">
        <ele>1051.2</ele>
        <time>2020-07-24T12:35:02Z</time>
      </trkpt>
      <trkpt lat="42.9047300" lon="0.5120800">
        <ele>1052.0</ele>
        <time>2020-07-24T12:35:06Z</time>
      </trkpt>
      <trkpt lat="42.9047210" lon="0.5120330">
        <ele>1052.4</ele>
        <time>2020-07-24T12:35:08Z</time>
      </trkpt>
      <trkpt lat="42.9047170" lon="0.5120170">
        <ele>1052.6</ele>
        <time>2020-07-24T12:35:09Z</time>
      </trkpt>
      <trkpt lat="42.9046960" lon="0.5120320">
        <ele>1052.8</ele>
        <time>2020-07-24T12:35:12Z</time>
      </trkpt>
      <trkpt lat="42.9046970" lon="0.5120610">
        <ele>1053.0</ele>
        <time>2020-07-24T12:35:13Z</time>
      </trkpt>
      <trkpt lat="42.9047010" lon="0.5121000">
        <ele>1053.0</ele>
        <time>2020-07-24T12:35:14Z</time>
      </trkpt>
      <trkpt lat="42.9047260" lon="0.5121750">
        <ele>1052.8</ele>
        <time>2020-07-24T12:35:16Z</time>
      </trkpt>
      <trkpt lat="42.9047530" lon="0.5122200">
        <ele>1052.4</ele>
        <time>2020-07-24T12:35:18Z</time>
      </trkpt>
      <trkpt lat="42.9047690" lon="0.5122110">
        <ele>1052.0</ele>
        <time>2020-07-24T12:35:20Z</time>
      </trkpt>
      <trkpt lat="42.9047600" lon="0.5121960">
        <ele>1052.0</ele>
        <time>2020-07-24T12:35:21Z</time>
      </trkpt>
      <trkpt lat="42.9047530" lon="0.5121810">
        <ele>1052.0</ele>
        <time>2020-07-24T12:35:22Z</time>
      </trkpt>
      <trkpt lat="42.9047420" lon="0.5121600">
        <ele>1052.0</ele>
        <time>2020-07-24T12:35:24Z</time>
      </trkpt>
      <trkpt lat="42.9047340" lon="0.5121360">
        <ele>1052.2</ele>
        <time>2020-07-24T12:35:26Z</time>
      </trkpt>
      <trkpt lat="42.9047190" lon="0.5121170">
        <ele>1052.4</ele>
        <time>2020-07-24T12:35:29Z</time>
      </trkpt>
      <trkpt lat="42.9047160" lon="0.5121060">
        <ele>1052.4</ele>
        <time>2020-07-24T12:35:30Z</time>
      </trkpt>
      <trkpt lat="42.9047120" lon="0.5120660">
        <ele>1052.6</ele>
        <time>2020-07-24T12:35:33Z</time>
      </trkpt>
      <trkpt lat="42.9047300" lon="0.5120510">
        <ele>1052.8</ele>
        <time>2020-07-24T12:35:36Z</time>
      </trkpt>
      <trkpt lat="42.9047590" lon="0.5121600">
        <ele>1052.6</ele>
        <time>2020-07-24T12:35:40Z</time>
      </trkpt>
      <trkpt lat="42.9047910" lon="0.5122620">
        <ele>1052.0</ele>
        <time>2020-07-24T12:35:44Z</time>
      </trkpt>
      <trkpt lat="42.9047810" lon="0.5122450">
        <ele>1051.8</ele>
        <time>2020-07-24T12:35:46Z</time>
      </trkpt>
      <trkpt lat="42.9047520" lon="0.5122210">
        <ele>1051.8</ele>
        <time>2020-07-24T12:35:48Z</time>
      </trkpt>
      <trkpt lat="42.9047250" lon="0.5121810">
        <ele>1052.0</ele>
        <time>2020-07-24T12:35:51Z</time>
      </trkpt>
      <trkpt lat="42.9047150" lon="0.5121470">
        <ele>1052.2</ele>
        <time>2020-07-24T12:35:53Z</time>
      </trkpt>
      <trkpt lat="42.9047030" lon="0.5121110">
        <ele>1052.4</ele>
        <time>2020-07-24T12:35:55Z</time>
      </trkpt>
      <trkpt lat="42.9047200" lon="0.5120070">
        <ele>1052.8</ele>
        <time>2020-07-24T12:36:00Z</time>
      </trkpt>
      <trkpt lat="42.9047380" lon="0.5119420">
        <ele>1053.0</ele>
        <time>2020-07-24T12:36:02Z</time>
      </trkpt>
      <trkpt lat="42.9047800" lon="0.5117850">
        <ele>1053.6</ele>
        <time>2020-07-24T12:36:06Z</time>
      </trkpt>
      <trkpt lat="42.9048100" lon="0.5117050">
        <ele>1054.2</ele>
        <time>2020-07-24T12:36:08Z</time>
      </trkpt>
      <trkpt lat="42.9048610" lon="0.5115950">
        <ele>1055.4</ele>
        <time>2020-07-24T12:36:11Z</time>
      </trkpt>
      <trkpt lat="42.9048980" lon="0.5115210">
        <ele>1055.6</ele>
        <time>2020-07-24T12:36:13Z</time>
      </trkpt>
      <trkpt lat="42.9049650" lon="0.5113870">
        <ele>1056.4</ele>
        <time>2020-07-24T12:36:17Z</time>
      </trkpt>
      <trkpt lat="42.9050270" lon="0.5112710">
        <ele>1057.4</ele>
        <time>2020-07-24T12:36:20Z</time>
      </trkpt>
      <trkpt lat="42.9050510" lon="0.5112260">
        <ele>1057.6</ele>
        <time>2020-07-24T12:36:21Z</time>
      </trkpt>
      <trkpt lat="42.9051740" lon="0.5109820">
        <ele>1058.8</ele>
        <time>2020-07-24T12:36:26Z</time>
      </trkpt>
      <trkpt lat="42.9052140" lon="0.5108770">
        <ele>1059.6</ele>
        <time>2020-07-24T12:36:28Z</time>
      </trkpt>
      <trkpt lat="42.9052330" lon="0.5108230">
        <ele>1060.0</ele>
        <time>2020-07-24T12:36:29Z</time>
      </trkpt>
      <trkpt lat="42.9052880" lon="0.5106710">
        <ele>1061.0</ele>
        <time>2020-07-24T12:36:32Z</time>
      </trkpt>
      <trkpt lat="42.9053160" lon="0.5105650">
        <ele>1061.4</ele>
        <time>2020-07-24T12:36:34Z</time>
      </trkpt>
      <trkpt lat="42.9053250" lon="0.5105130">
        <ele>1061.6</ele>
        <time>2020-07-24T12:36:35Z</time>
      </trkpt>
      <trkpt lat="42.9053470" lon="0.5104080">
        <ele>1062.2</ele>
        <time>2020-07-24T12:36:37Z</time>
      </trkpt>
      <trkpt lat="42.9053720" lon="0.5102030">
        <ele>1063.4</ele>
        <time>2020-07-24T12:36:41Z</time>
      </trkpt>
      <trkpt lat="42.9053550" lon="0.5100910">
        <ele>1063.8</ele>
        <time>2020-07-24T12:36:43Z</time>
      </trkpt>
      <trkpt lat="42.9052690" lon="0.5098160">
        <ele>1064.4</ele>
        <time>2020-07-24T12:36:48Z</time>
      </trkpt>
      <trkpt lat="42.9052270" lon="0.5097150">
        <ele>1064.8</ele>
        <time>2020-07-24T12:36:50Z</time>
      </trkpt>
      <trkpt lat="42.9051880" lon="0.5096130">
        <ele>1065.0</ele>
        <time>2020-07-24T12:36:52Z</time>
      </trkpt>
      <trkpt lat="42.9051230" lon="0.5094100">
        <ele>1065.4</ele>
        <time>2020-07-24T12:36:56Z</time>
      </trkpt>
      <trkpt lat="42.9050840" lon="0.5093140">
        <ele>1065.8</ele>
        <time>2020-07-24T12:36:58Z</time>
      </trkpt>
      <trkpt lat="42.9050050" lon="0.5091070">
        <ele>1066.6</ele>
        <time>2020-07-24T12:37:02Z</time>
      </trkpt>
      <trkpt lat="42.9049150" lon="0.5088550">
        <ele>1067.2</ele>
        <time>2020-07-24T12:37:07Z</time>
      </trkpt>
      <trkpt lat="42.9048540" lon="0.5087030">
        <ele>1067.6</ele>
        <time>2020-07-24T12:37:10Z</time>
      </trkpt>
      <trkpt lat="42.9047680" lon="0.5085840">
        <ele>1068.2</ele>
        <time>2020-07-24T12:37:13Z</time>
      </trkpt>
      <trkpt lat="42.9046400" lon="0.5084640">
        <ele>1068.4</ele>
        <time>2020-07-24T12:37:17Z</time>
      </trkpt>
      <trkpt lat="42.9045630" lon="0.5084270">
        <ele>1068.6</ele>
        <time>2020-07-24T12:37:19Z</time>
      </trkpt>
      <trkpt lat="42.9044460" lon="0.5083660">
        <ele>1068.6</ele>
        <time>2020-07-24T12:37:22Z</time>
      </trkpt>
      <trkpt lat="42.9042720" lon="0.5082390">
        <ele>1069.8</ele>
        <time>2020-07-24T12:37:27Z</time>
      </trkpt>
      <trkpt lat="42.9041600" lon="0.5081330">
        <ele>1070.6</ele>
        <time>2020-07-24T12:37:32Z</time>
      </trkpt>
      <trkpt lat="42.9041230" lon="0.5080720">
        <ele>1070.8</ele>
        <time>2020-07-24T12:37:34Z</time>
      </trkpt>
      <trkpt lat="42.9040780" lon="0.5079490">
        <ele>1071.6</ele>
        <time>2020-07-24T12:37:37Z</time>
      </trkpt>
      <trkpt lat="42.9040700" lon="0.5078090">
        <ele>1072.0</ele>
        <time>2020-07-24T12:37:40Z</time>
      </trkpt>
      <trkpt lat="42.9040640" lon="0.5077410">
        <ele>1072.0</ele>
        <time>2020-07-24T12:37:42Z</time>
      </trkpt>
      <trkpt lat="42.9040460" lon="0.5077060">
        <ele>1072.0</ele>
        <time>2020-07-24T12:37:43Z</time>
      </trkpt>
      <trkpt lat="42.9039650" lon="0.5076490">
        <ele>1072.2</ele>
        <time>2020-07-24T12:37:46Z</time>
      </trkpt>
      <trkpt lat="42.9038250" lon="0.5076960">
        <ele>1073.0</ele>
        <time>2020-07-24T12:37:51Z</time>
      </trkpt>
      <trkpt lat="42.9038070" lon="0.5077090">
        <ele>1073.0</ele>
        <time>2020-07-24T12:37:52Z</time>
      </trkpt>
      <trkpt lat="42.9037870" lon="0.5077330">
        <ele>1073.6</ele>
        <time>2020-07-24T12:37:55Z</time>
      </trkpt>
      <trkpt lat="42.9037990" lon="0.5077230">
        <ele>1073.8</ele>
        <time>2020-07-24T12:37:57Z</time>
      </trkpt>
      <trkpt lat="42.9038290" lon="0.5076750">
        <ele>1073.8</ele>
        <time>2020-07-24T12:37:59Z</time>
      </trkpt>
      <trkpt lat="42.9038930" lon="0.5076470">
        <ele>1073.6</ele>
        <time>2020-07-24T12:38:01Z</time>
      </trkpt>
      <trkpt lat="42.9039360" lon="0.5076580">
        <ele>1073.4</ele>
        <time>2020-07-24T12:38:02Z</time>
      </trkpt>
      <trkpt lat="42.9039640" lon="0.5076850">
        <ele>1073.2</ele>
        <time>2020-07-24T12:38:03Z</time>
      </trkpt>
      <trkpt lat="42.9039940" lon="0.5077310">
        <ele>1072.8</ele>
        <time>2020-07-24T12:38:05Z</time>
      </trkpt>
      <trkpt lat="42.9039930" lon="0.5077350">
        <ele>1072.0</ele>
        <time>2020-07-24T12:38:08Z</time>
      </trkpt>
      <trkpt lat="42.9039870" lon="0.5077340">
        <ele>1071.8</ele>
        <time>2020-07-24T12:38:11Z</time>
      </trkpt>
      <trkpt lat="42.9039800" lon="0.5077190">
        <ele>1071.2</ele>
        <time>2020-07-24T12:38:17Z</time>
      </trkpt>
      <trkpt lat="42.9039880" lon="0.5077480">
        <ele>1071.2</ele>
        <time>2020-07-24T12:38:19Z</time>
      </trkpt>
      <trkpt lat="42.9039990" lon="0.5077700">
        <ele>1071.2</ele>
        <time>2020-07-24T12:38:20Z</time>
      </trkpt>
      <trkpt lat="42.9040020" lon="0.5077880">
        <ele>1071.2</ele>
        <time>2020-07-24T12:38:21Z</time>
      </trkpt>
      <trkpt lat="42.9040080" lon="0.5078040">
        <ele>1071.4</ele>
        <time>2020-07-24T12:38:22Z</time>
      </trkpt>
      <trkpt lat="42.9040100" lon="0.5078170">
        <ele>1071.8</ele>
        <time>2020-07-24T12:38:25Z</time>
      </trkpt>
      <trkpt lat="42.9040120" lon="0.5078160">
        <ele>1071.8</ele>
        <time>2020-07-24T12:38:26Z</time>
      </trkpt>
      <trkpt lat="42.9040190" lon="0.5078050">
        <ele>1072.0</ele>
        <time>2020-07-24T12:38:32Z</time>
      </trkpt>
      <trkpt lat="42.9040220" lon="0.5077780">
        <ele>1072.0</ele>
        <time>2020-07-24T12:38:35Z</time>
      </trkpt>
      <trkpt lat="42.9039970" lon="0.5077370">
        <ele>1071.4</ele>
        <time>2020-07-24T12:38:39Z</time>
      </trkpt>
      <trkpt lat="42.9039890" lon="0.5077140">
        <ele>1071.2</ele>
        <time>2020-07-24T12:38:41Z</time>
      </trkpt>
      <trkpt lat="42.9039970" lon="0.5077090">
        <ele>1071.2</ele>
        <time>2020-07-24T12:38:44Z</time>
      </trkpt>
      <trkpt lat="42.9040210" lon="0.5077370">
        <ele>1071.0</ele>
        <time>2020-07-24T12:38:50Z</time>
      </trkpt>
      <trkpt lat="42.9040120" lon="0.5077360">
        <ele>1070.8</ele>
        <time>2020-07-24T12:38:51Z</time>
      </trkpt>
      <trkpt lat="42.9040080" lon="0.5077260">
        <ele>1070.8</ele>
        <time>2020-07-24T12:38:52Z</time>
      </trkpt>
      <trkpt lat="42.9039880" lon="0.5077000">
        <ele>1071.2</ele>
        <time>2020-07-24T12:38:58Z</time>
      </trkpt>
      <trkpt lat="42.9039910" lon="0.5076920">
        <ele>1071.4</ele>
        <time>2020-07-24T12:39:00Z</time>
      </trkpt>
      <trkpt lat="42.9039990" lon="0.5076580">
        <ele>1071.6</ele>
        <time>2020-07-24T12:39:05Z</time>
      </trkpt>
      <trkpt lat="42.9039570" lon="0.5076110">
        <ele>1071.6</ele>
        <time>2020-07-24T12:39:07Z</time>
      </trkpt>
      <trkpt lat="42.9039270" lon="0.5075960">
        <ele>1071.6</ele>
        <time>2020-07-24T12:39:08Z</time>
      </trkpt>
      <trkpt lat="42.9038040" lon="0.5076260">
        <ele>1072.2</ele>
        <time>2020-07-24T12:39:12Z</time>
      </trkpt>
      <trkpt lat="42.9037090" lon="0.5077600">
        <ele>1073.2</ele>
        <time>2020-07-24T12:39:16Z</time>
      </trkpt>
      <trkpt lat="42.9036600" lon="0.5078380">
        <ele>1073.6</ele>
        <time>2020-07-24T12:39:18Z</time>
      </trkpt>
      <trkpt lat="42.9036200" lon="0.5079170">
        <ele>1074.2</ele>
        <time>2020-07-24T12:39:20Z</time>
      </trkpt>
      <trkpt lat="42.9035990" lon="0.5079520">
        <ele>1074.4</ele>
        <time>2020-07-24T12:39:21Z</time>
      </trkpt>
      <trkpt lat="42.9035740" lon="0.5079820">
        <ele>1074.8</ele>
        <time>2020-07-24T12:39:22Z</time>
      </trkpt>
      <trkpt lat="42.9035520" lon="0.5080120">
        <ele>1075.0</ele>
        <time>2020-07-24T12:39:23Z</time>
      </trkpt>
      <trkpt lat="42.9035310" lon="0.5080460">
        <ele>1075.2</ele>
        <time>2020-07-24T12:39:24Z</time>
      </trkpt>
      <trkpt lat="42.9034200" lon="0.5083090">
        <ele>1075.4</ele>
        <time>2020-07-24T12:39:30Z</time>
      </trkpt>
      <trkpt lat="42.9033980" lon="0.5083510">
        <ele>1075.6</ele>
        <time>2020-07-24T12:39:31Z</time>
      </trkpt>
      <trkpt lat="42.9032870" lon="0.5085390">
        <ele>1076.6</ele>
        <time>2020-07-24T12:39:36Z</time>
      </trkpt>
      <trkpt lat="42.9032340" lon="0.5086190">
        <ele>1076.8</ele>
        <time>2020-07-24T12:39:38Z</time>
      </trkpt>
      <trkpt lat="42.9031830" lon="0.5086920">
        <ele>1077.2</ele>
        <time>2020-07-24T12:39:40Z</time>
      </trkpt>
      <trkpt lat="42.9031550" lon="0.5087270">
        <ele>1077.6</ele>
        <time>2020-07-24T12:39:41Z</time>
      </trkpt>
      <trkpt lat="42.9030320" lon="0.5088200">
        <ele>1078.8</ele>
        <time>2020-07-24T12:39:45Z</time>
      </trkpt>
      <trkpt lat="42.9029110" lon="0.5088270">
        <ele>1079.8</ele>
        <time>2020-07-24T12:39:49Z</time>
      </trkpt>
      <trkpt lat="42.9028850" lon="0.5088280">
        <ele>1080.0</ele>
        <time>2020-07-24T12:39:50Z</time>
      </trkpt>
      <trkpt lat="42.9027550" lon="0.5088140">
        <ele>1080.8</ele>
        <time>2020-07-24T12:39:54Z</time>
      </trkpt>
      <trkpt lat="42.9026020" lon="0.5087660">
        <ele>1081.2</ele>
        <time>2020-07-24T12:39:58Z</time>
      </trkpt>
      <trkpt lat="42.9024980" lon="0.5087140">
        <ele>1082.0</ele>
        <time>2020-07-24T12:40:01Z</time>
      </trkpt>
      <trkpt lat="42.9023620" lon="0.5086040">
        <ele>1082.8</ele>
        <time>2020-07-24T12:40:05Z</time>
      </trkpt>
      <trkpt lat="42.9023000" lon="0.5085380">
        <ele>1083.0</ele>
        <time>2020-07-24T12:40:07Z</time>
      </trkpt>
      <trkpt lat="42.9021270" lon="0.5084020">
        <ele>1084.0</ele>
        <time>2020-07-24T12:40:12Z</time>
      </trkpt>
      <trkpt lat="42.9020950" lon="0.5083720">
        <ele>1084.4</ele>
        <time>2020-07-24T12:40:13Z</time>
      </trkpt>
      <trkpt lat="42.9019650" lon="0.5082530">
        <ele>1085.4</ele>
        <time>2020-07-24T12:40:17Z</time>
      </trkpt>
      <trkpt lat="42.9018990" lon="0.5081920">
        <ele>1085.6</ele>
        <time>2020-07-24T12:40:19Z</time>
      </trkpt>
      <trkpt lat="42.9017880" lon="0.5081170">
        <ele>1085.8</ele>
        <time>2020-07-24T12:40:22Z</time>
      </trkpt>
      <trkpt lat="42.9016280" lon="0.5080680">
        <ele>1086.4</ele>
        <time>2020-07-24T12:40:26Z</time>
      </trkpt>
      <trkpt lat="42.9015490" lon="0.5080640">
        <ele>1086.8</ele>
        <time>2020-07-24T12:40:28Z</time>
      </trkpt>
      <trkpt lat="42.9013620" lon="0.5080500">
        <ele>1087.4</ele>
        <time>2020-07-24T12:40:33Z</time>
      </trkpt>
      <trkpt lat="42.9012620" lon="0.5080490">
        <ele>1088.0</ele>
        <time>2020-07-24T12:40:36Z</time>
      </trkpt>
      <trkpt lat="42.9012060" lon="0.5080520">
        <ele>1088.6</ele>
        <time>2020-07-24T12:40:38Z</time>
      </trkpt>
      <trkpt lat="42.9010780" lon="0.5080900">
        <ele>1089.6</ele>
        <time>2020-07-24T12:40:42Z</time>
      </trkpt>
      <trkpt lat="42.9009100" lon="0.5081330">
        <ele>1090.8</ele>
        <time>2020-07-24T12:40:47Z</time>
      </trkpt>
      <trkpt lat="42.9008760" lon="0.5081330">
        <ele>1090.8</ele>
        <time>2020-07-24T12:40:48Z</time>
      </trkpt>
      <trkpt lat="42.9008080" lon="0.5081300">
        <ele>1091.2</ele>
        <time>2020-07-24T12:40:50Z</time>
      </trkpt>
      <trkpt lat="42.9007720" lon="0.5081290">
        <ele>1091.4</ele>
        <time>2020-07-24T12:40:51Z</time>
      </trkpt>
      <trkpt lat="42.9007080" lon="0.5081350">
        <ele>1091.8</ele>
        <time>2020-07-24T12:40:53Z</time>
      </trkpt>
      <trkpt lat="42.9005310" lon="0.5080540">
        <ele>1092.8</ele>
        <time>2020-07-24T12:40:58Z</time>
      </trkpt>
      <trkpt lat="42.9004910" lon="0.5080330">
        <ele>1093.0</ele>
        <time>2020-07-24T12:40:59Z</time>
      </trkpt>
      <trkpt lat="42.9004150" lon="0.5079820">
        <ele>1093.4</ele>
        <time>2020-07-24T12:41:01Z</time>
      </trkpt>
      <trkpt lat="42.9003440" lon="0.5079340">
        <ele>1093.4</ele>
        <time>2020-07-24T12:41:03Z</time>
      </trkpt>
      <trkpt lat="42.9003080" lon="0.5079160">
        <ele>1093.6</ele>
        <time>2020-07-24T12:41:04Z</time>
      </trkpt>
      <trkpt lat="42.9002730" lon="0.5079030">
        <ele>1093.6</ele>
        <time>2020-07-24T12:41:05Z</time>
      </trkpt>
      <trkpt lat="42.9002390" lon="0.5078850">
        <ele>1093.6</ele>
        <time>2020-07-24T12:41:06Z</time>
      </trkpt>
      <trkpt lat="42.9002070" lon="0.5078700">
        <ele>1093.6</ele>
        <time>2020-07-24T12:41:07Z</time>
      </trkpt>
      <trkpt lat="42.9001740" lon="0.5078600">
        <ele>1093.8</ele>
        <time>2020-07-24T12:41:08Z</time>
      </trkpt>
      <trkpt lat="42.9001400" lon="0.5078470">
        <ele>1094.0</ele>
        <time>2020-07-24T12:41:09Z</time>
      </trkpt>
      <trkpt lat="42.8999930" lon="0.5077690">
        <ele>1095.2</ele>
        <time>2020-07-24T12:41:13Z</time>
      </trkpt>
      <trkpt lat="42.8999180" lon="0.5077380">
        <ele>1095.8</ele>
        <time>2020-07-24T12:41:15Z</time>
      </trkpt>
      <trkpt lat="42.8998400" lon="0.5077010">
        <ele>1096.4</ele>
        <time>2020-07-24T12:41:17Z</time>
      </trkpt>
      <trkpt lat="42.8996870" lon="0.5075740">
        <ele>1097.2</ele>
        <time>2020-07-24T12:41:22Z</time>
      </trkpt>
      <trkpt lat="42.8996770" lon="0.5075690">
        <ele>1097.4</ele>
        <time>2020-07-24T12:41:23Z</time>
      </trkpt>
      <trkpt lat="42.8996770" lon="0.5075690">
        <ele>1097.4</ele>
        <time>2020-07-24T12:41:24Z</time>
      </trkpt>
      <trkpt lat="42.8996830" lon="0.5075770">
        <ele>1097.4</ele>
        <time>2020-07-24T12:41:25Z</time>
      </trkpt>
      <trkpt lat="42.8996960" lon="0.5075860">
        <ele>1097.4</ele>
        <time>2020-07-24T12:41:26Z</time>
      </trkpt>
      <trkpt lat="42.8997160" lon="0.5075880">
        <ele>1097.4</ele>
        <time>2020-07-24T12:41:27Z</time>
      </trkpt>
      <trkpt lat="42.8997390" lon="0.5075890">
        <ele>1097.2</ele>
        <time>2020-07-24T12:41:28Z</time>
      </trkpt>
      <trkpt lat="42.8998080" lon="0.5076030">
        <ele>1097.2</ele>
        <time>2020-07-24T12:41:31Z</time>
      </trkpt>
      <trkpt lat="42.8998950" lon="0.5076400">
        <ele>1096.6</ele>
        <time>2020-07-24T12:41:37Z</time>
      </trkpt>
      <trkpt lat="42.8998990" lon="0.5076530">
        <ele>1096.6</ele>
        <time>2020-07-24T12:41:38Z</time>
      </trkpt>
      <trkpt lat="42.8998820" lon="0.5076550">
        <ele>1096.6</ele>
        <time>2020-07-24T12:41:40Z</time>
      </trkpt>
      <trkpt lat="42.8998710" lon="0.5076480">
        <ele>1096.6</ele>
        <time>2020-07-24T12:41:41Z</time>
      </trkpt>
      <trkpt lat="42.8998510" lon="0.5076600">
        <ele>1096.8</ele>
        <time>2020-07-24T12:41:47Z</time>
      </trkpt>
      <trkpt lat="42.8998380" lon="0.5076430">
        <ele>1096.6</ele>
        <time>2020-07-24T12:41:52Z</time>
      </trkpt>
      <trkpt lat="42.8997970" lon="0.5076270">
        <ele>1096.6</ele>
        <time>2020-07-24T12:41:55Z</time>
      </trkpt>
      <trkpt lat="42.8997530" lon="0.5075830">
        <ele>1096.6</ele>
        <time>2020-07-24T12:42:01Z</time>
      </trkpt>
      <trkpt lat="42.8997580" lon="0.5075750">
        <ele>1096.6</ele>
        <time>2020-07-24T12:42:03Z</time>
      </trkpt>
      <trkpt lat="42.8998030" lon="0.5076130">
        <ele>1096.4</ele>
        <time>2020-07-24T12:42:09Z</time>
      </trkpt>
      <trkpt lat="42.8998090" lon="0.5076300">
        <ele>1096.4</ele>
        <time>2020-07-24T12:42:10Z</time>
      </trkpt>
      <trkpt lat="42.8997810" lon="0.5076200">
        <ele>1096.4</ele>
        <time>2020-07-24T12:42:13Z</time>
      </trkpt>
      <trkpt lat="42.8997670" lon="0.5076170">
        <ele>1096.4</ele>
        <time>2020-07-24T12:42:14Z</time>
      </trkpt>
      <trkpt lat="42.8996950" lon="0.5075790">
        <ele>1097.0</ele>
        <time>2020-07-24T12:42:20Z</time>
      </trkpt>
      <trkpt lat="42.8996710" lon="0.5075630">
        <ele>1097.2</ele>
        <time>2020-07-24T12:42:22Z</time>
      </trkpt>
      <trkpt lat="42.8996380" lon="0.5075300">
        <ele>1097.2</ele>
        <time>2020-07-24T12:42:24Z</time>
      </trkpt>
      <trkpt lat="42.8995430" lon="0.5074660">
        <ele>1097.4</ele>
        <time>2020-07-24T12:42:28Z</time>
      </trkpt>
      <trkpt lat="42.8995130" lon="0.5074540">
        <ele>1097.6</ele>
        <time>2020-07-24T12:42:29Z</time>
      </trkpt>
      <trkpt lat="42.8994240" lon="0.5074160">
        <ele>1097.6</ele>
        <time>2020-07-24T12:42:32Z</time>
      </trkpt>
      <trkpt lat="42.8993930" lon="0.5074060">
        <ele>1097.6</ele>
        <time>2020-07-24T12:42:33Z</time>
      </trkpt>
      <trkpt lat="42.8993640" lon="0.5073920">
        <ele>1097.8</ele>
        <time>2020-07-24T12:42:34Z</time>
      </trkpt>
      <trkpt lat="42.8992070" lon="0.5072520">
        <ele>1098.6</ele>
        <time>2020-07-24T12:42:40Z</time>
      </trkpt>
      <trkpt lat="42.8991500" lon="0.5071110">
        <ele>1099.6</ele>
        <time>2020-07-24T12:42:44Z</time>
      </trkpt>
      <trkpt lat="42.8991160" lon="0.5069600">
        <ele>1100.4</ele>
        <time>2020-07-24T12:42:48Z</time>
      </trkpt>
      <trkpt lat="42.8991150" lon="0.5069200">
        <ele>1100.8</ele>
        <time>2020-07-24T12:42:49Z</time>
      </trkpt>
      <trkpt lat="42.8991220" lon="0.5068800">
        <ele>1100.8</ele>
        <time>2020-07-24T12:42:50Z</time>
      </trkpt>
      <trkpt lat="42.8991470" lon="0.5068030">
        <ele>1101.2</ele>
        <time>2020-07-24T12:42:52Z</time>
      </trkpt>
      <trkpt lat="42.8991670" lon="0.5067720">
        <ele>1101.4</ele>
        <time>2020-07-24T12:42:53Z</time>
      </trkpt>
      <trkpt lat="42.8992220" lon="0.5067360">
        <ele>1101.6</ele>
        <time>2020-07-24T12:42:55Z</time>
      </trkpt>
      <trkpt lat="42.8992480" lon="0.5067420">
        <ele>1102.0</ele>
        <time>2020-07-24T12:42:56Z</time>
      </trkpt>
      <trkpt lat="42.8993030" lon="0.5068040">
        <ele>1103.2</ele>
        <time>2020-07-24T12:42:59Z</time>
      </trkpt>
      <trkpt lat="42.8993140" lon="0.5068300">
        <ele>1103.6</ele>
        <time>2020-07-24T12:43:00Z</time>
      </trkpt>
      <trkpt lat="42.8993370" lon="0.5069200">
        <ele>1104.4</ele>
        <time>2020-07-24T12:43:03Z</time>
      </trkpt>
      <trkpt lat="42.8993630" lon="0.5070200">
        <ele>1105.4</ele>
        <time>2020-07-24T12:43:06Z</time>
      </trkpt>
      <trkpt lat="42.8993890" lon="0.5070930">
        <ele>1106.0</ele>
        <time>2020-07-24T12:43:08Z</time>
      </trkpt>
      <trkpt lat="42.8994300" lon="0.5071540">
        <ele>1106.6</ele>
        <time>2020-07-24T12:43:10Z</time>
      </trkpt>
      <trkpt lat="42.8995140" lon="0.5072260">
        <ele>1107.0</ele>
        <time>2020-07-24T12:43:13Z</time>
      </trkpt>
      <trkpt lat="42.8995700" lon="0.5072610">
        <ele>1107.6</ele>
        <time>2020-07-24T12:43:15Z</time>
      </trkpt>
      <trkpt lat="42.8996740" lon="0.5073120">
        <ele>1108.8</ele>
        <time>2020-07-24T12:43:19Z</time>
      </trkpt>
      <trkpt lat="42.8997330" lon="0.5073240">
        <ele>1109.4</ele>
        <time>2020-07-24T12:43:21Z</time>
      </trkpt>
      <trkpt lat="42.8997860" lon="0.5073350">
        <ele>1110.0</ele>
        <time>2020-07-24T12:43:23Z</time>
      </trkpt>
      <trkpt lat="42.8998900" lon="0.5073440">
        <ele>1111.0</ele>
        <time>2020-07-24T12:43:28Z</time>
      </trkpt>
      <trkpt lat="42.8999080" lon="0.5073420">
        <ele>1111.4</ele>
        <time>2020-07-24T12:43:29Z</time>
      </trkpt>
      <trkpt lat="42.9000140" lon="0.5073360">
        <ele>1112.4</ele>
        <time>2020-07-24T12:43:34Z</time>
      </trkpt>
      <trkpt lat="42.9000310" lon="0.5073380">
        <ele>1112.8</ele>
        <time>2020-07-24T12:43:35Z</time>
      </trkpt>
      <trkpt lat="42.9000900" lon="0.5073400">
        <ele>1113.6</ele>
        <time>2020-07-24T12:43:38Z</time>
      </trkpt>
      <trkpt lat="42.9001680" lon="0.5073600">
        <ele>1114.6</ele>
        <time>2020-07-24T12:43:41Z</time>
      </trkpt>
      <trkpt lat="42.9002650" lon="0.5073870">
        <ele>1115.8</ele>
        <time>2020-07-24T12:43:45Z</time>
      </trkpt>
      <trkpt lat="42.9003530" lon="0.5074300">
        <ele>1116.8</ele>
        <time>2020-07-24T12:43:49Z</time>
      </trkpt>
      <trkpt lat="42.9003740" lon="0.5074390">
        <ele>1117.0</ele>
        <time>2020-07-24T12:43:50Z</time>
      </trkpt>
      <trkpt lat="42.9004560" lon="0.5074770">
        <ele>1118.4</ele>
        <time>2020-07-24T12:43:54Z</time>
      </trkpt>
      <trkpt lat="42.9004920" lon="0.5074980">
        <ele>1118.8</ele>
        <time>2020-07-24T12:43:56Z</time>
      </trkpt>
      <trkpt lat="42.9005320" lon="0.5075140">
        <ele>1119.4</ele>
        <time>2020-07-24T12:43:58Z</time>
      </trkpt>
      <trkpt lat="42.9006340" lon="0.5075140">
        <ele>1120.8</ele>
        <time>2020-07-24T12:44:03Z</time>
      </trkpt>
      <trkpt lat="42.9006500" lon="0.5075140">
        <ele>1121.2</ele>
        <time>2020-07-24T12:44:04Z</time>
      </trkpt>
      <trkpt lat="42.9007110" lon="0.5074870">
        <ele>1122.0</ele>
        <time>2020-07-24T12:44:07Z</time>
      </trkpt>
      <trkpt lat="42.9008090" lon="0.5074270">
        <ele>1122.8</ele>
        <time>2020-07-24T12:44:11Z</time>
      </trkpt>
      <trkpt lat="42.9008330" lon="0.5074070">
        <ele>1123.2</ele>
        <time>2020-07-24T12:44:12Z</time>
      </trkpt>
      <trkpt lat="42.9009340" lon="0.5073230">
        <ele>1124.4</ele>
        <time>2020-07-24T12:44:17Z</time>
      </trkpt>
      <trkpt lat="42.9009500" lon="0.5073080">
        <ele>1124.6</ele>
        <time>2020-07-24T12:44:18Z</time>
      </trkpt>
      <trkpt lat="42.9010290" lon="0.5072420">
        <ele>1125.4</ele>
        <time>2020-07-24T12:44:22Z</time>
      </trkpt>
      <trkpt lat="42.9010990" lon="0.5072140">
        <ele>1126.0</ele>
        <time>2020-07-24T12:44:25Z</time>
      </trkpt>
      <trkpt lat="42.9011440" lon="0.5071940">
        <ele>1126.6</ele>
        <time>2020-07-24T12:44:27Z</time>
      </trkpt>
      <trkpt lat="42.9012720" lon="0.5071950">
        <ele>1127.6</ele>
        <time>2020-07-24T12:44:32Z</time>
      </trkpt>
      <trkpt lat="42.9012940" lon="0.5071950">
        <ele>1128.0</ele>
        <time>2020-07-24T12:44:33Z</time>
      </trkpt>
      <trkpt lat="42.9013590" lon="0.5071920">
        <ele>1128.8</ele>
        <time>2020-07-24T12:44:36Z</time>
      </trkpt>
      <trkpt lat="42.9014530" lon="0.5071980">
        <ele>1130.0</ele>
        <time>2020-07-24T12:44:40Z</time>
      </trkpt>
      <trkpt lat="42.9014770" lon="0.5071990">
        <ele>1130.4</ele>
        <time>2020-07-24T12:44:41Z</time>
      </trkpt>
      <trkpt lat="42.9015400" lon="0.5072080">
        <ele>1131.0</ele>
        <time>2020-07-24T12:44:44Z</time>
      </trkpt>
      <trkpt lat="42.9016100" lon="0.5072170">
        <ele>1131.4</ele>
        <time>2020-07-24T12:44:47Z</time>
      </trkpt>
      <trkpt lat="42.9016330" lon="0.5072200">
        <ele>1131.6</ele>
        <time>2020-07-24T12:44:48Z</time>
      </trkpt>
      <trkpt lat="42.9016810" lon="0.5072340">
        <ele>1132.2</ele>
        <time>2020-07-24T12:44:50Z</time>
      </trkpt>
      <trkpt lat="42.9017750" lon="0.5072720">
        <ele>1133.4</ele>
        <time>2020-07-24T12:44:54Z</time>
      </trkpt>
      <trkpt lat="42.9017950" lon="0.5072800">
        <ele>1133.6</ele>
        <time>2020-07-24T12:44:55Z</time>
      </trkpt>
      <trkpt lat="42.9018810" lon="0.5073280">
        <ele>1134.4</ele>
        <time>2020-07-24T12:44:59Z</time>
      </trkpt>
      <trkpt lat="42.9019580" lon="0.5073580">
        <ele>1135.2</ele>
        <time>2020-07-24T12:45:03Z</time>
      </trkpt>
      <trkpt lat="42.9020000" lon="0.5073730">
        <ele>1135.6</ele>
        <time>2020-07-24T12:45:05Z</time>
      </trkpt>
      <trkpt lat="42.9020620" lon="0.5074010">
        <ele>1136.8</ele>
        <time>2020-07-24T12:45:08Z</time>
      </trkpt>
      <trkpt lat="42.9021510" lon="0.5074410">
        <ele>1137.4</ele>
        <time>2020-07-24T12:45:12Z</time>
      </trkpt>
      <trkpt lat="42.9021770" lon="0.5074510">
        <ele>1137.8</ele>
        <time>2020-07-24T12:45:13Z</time>
      </trkpt>
      <trkpt lat="42.9022760" lon="0.5074770">
        <ele>1139.0</ele>
        <time>2020-07-24T12:45:17Z</time>
      </trkpt>
      <trkpt lat="42.9023470" lon="0.5074950">
        <ele>1139.8</ele>
        <time>2020-07-24T12:45:20Z</time>
      </trkpt>
      <trkpt lat="42.9023900" lon="0.5075150">
        <ele>1140.2</ele>
        <time>2020-07-24T12:45:22Z</time>
      </trkpt>
      <trkpt lat="42.9024930" lon="0.5075370">
        <ele>1141.0</ele>
        <time>2020-07-24T12:45:26Z</time>
      </trkpt>
      <trkpt lat="42.9025430" lon="0.5075480">
        <ele>1141.4</ele>
        <time>2020-07-24T12:45:28Z</time>
      </trkpt>
      <trkpt lat="42.9026360" lon="0.5075510">
        <ele>1142.6</ele>
        <time>2020-07-24T12:45:32Z</time>
      </trkpt>
      <trkpt lat="42.9026590" lon="0.5075380">
        <ele>1142.8</ele>
        <time>2020-07-24T12:45:33Z</time>
      </trkpt>
      <trkpt lat="42.9026920" lon="0.5074960">
        <ele>1143.6</ele>
        <time>2020-07-24T12:45:35Z</time>
      </trkpt>
      <trkpt lat="42.9027040" lon="0.5074700">
        <ele>1143.8</ele>
        <time>2020-07-24T12:45:36Z</time>
      </trkpt>
      <trkpt lat="42.9027180" lon="0.5074150">
        <ele>1144.4</ele>
        <time>2020-07-24T12:45:38Z</time>
      </trkpt>
      <trkpt lat="42.9027150" lon="0.5073870">
        <ele>1144.6</ele>
        <time>2020-07-24T12:45:39Z</time>
      </trkpt>
      <trkpt lat="42.9026760" lon="0.5073460">
        <ele>1145.0</ele>
        <time>2020-07-24T12:45:41Z</time>
      </trkpt>
      <trkpt lat="42.9026480" lon="0.5073360">
        <ele>1145.2</ele>
        <time>2020-07-24T12:45:42Z</time>
      </trkpt>
      <trkpt lat="42.9024760" lon="0.5073140">
        <ele>1146.0</ele>
        <time>2020-07-24T12:45:48Z</time>
      </trkpt>
      <trkpt lat="42.9024460" lon="0.5073110">
        <ele>1146.0</ele>
        <time>2020-07-24T12:45:49Z</time>
      </trkpt>
      <trkpt lat="42.9024150" lon="0.5073100">
        <ele>1146.2</ele>
        <time>2020-07-24T12:45:50Z</time>
      </trkpt>
      <trkpt lat="42.9023290" lon="0.5073050">
        <ele>1147.0</ele>
        <time>2020-07-24T12:45:53Z</time>
      </trkpt>
      <trkpt lat="42.9023010" lon="0.5072980">
        <ele>1147.4</ele>
        <time>2020-07-24T12:45:54Z</time>
      </trkpt>
      <trkpt lat="42.9022750" lon="0.5072880">
        <ele>1147.6</ele>
        <time>2020-07-24T12:45:55Z</time>
      </trkpt>
      <trkpt lat="42.9022260" lon="0.5072660">
        <ele>1148.0</ele>
        <time>2020-07-24T12:45:57Z</time>
      </trkpt>
      <trkpt lat="42.9022030" lon="0.5072510">
        <ele>1148.2</ele>
        <time>2020-07-24T12:45:58Z</time>
      </trkpt>
      <trkpt lat="42.9020980" lon="0.5071680">
        <ele>1149.2</ele>
        <time>2020-07-24T12:46:03Z</time>
      </trkpt>
      <trkpt lat="42.9020790" lon="0.5071500">
        <ele>1149.4</ele>
        <time>2020-07-24T12:46:04Z</time>
      </trkpt>
      <trkpt lat="42.9020070" lon="0.5070770">
        <ele>1150.2</ele>
        <time>2020-07-24T12:46:08Z</time>
      </trkpt>
      <trkpt lat="42.9019560" lon="0.5070150">
        <ele>1151.4</ele>
        <time>2020-07-24T12:46:11Z</time>
      </trkpt>
      <trkpt lat="42.9019230" lon="0.5069740">
        <ele>1151.8</ele>
        <time>2020-07-24T12:46:13Z</time>
      </trkpt>
      <trkpt lat="42.9018720" lon="0.5069140">
        <ele>1152.4</ele>
        <time>2020-07-24T12:46:16Z</time>
      </trkpt>
      <trkpt lat="42.9017980" lon="0.5068380">
        <ele>1153.4</ele>
        <time>2020-07-24T12:46:20Z</time>
      </trkpt>
      <trkpt lat="42.9017430" lon="0.5067870">
        <ele>1154.4</ele>
        <time>2020-07-24T12:46:23Z</time>
      </trkpt>
      <trkpt lat="42.9017260" lon="0.5067700">
        <ele>1154.8</ele>
        <time>2020-07-24T12:46:24Z</time>
      </trkpt>
      <trkpt lat="42.9016620" lon="0.5067360">
        <ele>1155.8</ele>
        <time>2020-07-24T12:46:27Z</time>
      </trkpt>
      <trkpt lat="42.9016030" lon="0.5067030">
        <ele>1156.6</ele>
        <time>2020-07-24T12:46:30Z</time>
      </trkpt>
      <trkpt lat="42.9015810" lon="0.5066950">
        <ele>1156.8</ele>
        <time>2020-07-24T12:46:31Z</time>
      </trkpt>
      <trkpt lat="42.9015170" lon="0.5066640">
        <ele>1157.6</ele>
        <time>2020-07-24T12:46:34Z</time>
      </trkpt>
      <trkpt lat="42.9014960" lon="0.5066530">
        <ele>1158.0</ele>
        <time>2020-07-24T12:46:35Z</time>
      </trkpt>
      <trkpt lat="42.9014540" lon="0.5066310">
        <ele>1158.4</ele>
        <time>2020-07-24T12:46:37Z</time>
      </trkpt>
      <trkpt lat="42.9014320" lon="0.5066190">
        <ele>1158.6</ele>
        <time>2020-07-24T12:46:38Z</time>
      </trkpt>
      <trkpt lat="42.9013940" lon="0.5065940">
        <ele>1159.2</ele>
        <time>2020-07-24T12:46:40Z</time>
      </trkpt>
      <trkpt lat="42.9013240" lon="0.5065450">
        <ele>1160.2</ele>
        <time>2020-07-24T12:46:44Z</time>
      </trkpt>
      <trkpt lat="42.9013090" lon="0.5065300">
        <ele>1160.4</ele>
        <time>2020-07-24T12:46:45Z</time>
      </trkpt>
      <trkpt lat="42.9012760" lon="0.5065080">
        <ele>1160.6</ele>
        <time>2020-07-24T12:46:47Z</time>
      </trkpt>
      <trkpt lat="42.9012600" lon="0.5064950">
        <ele>1160.6</ele>
        <time>2020-07-24T12:46:48Z</time>
      </trkpt>
      <trkpt lat="42.9012020" lon="0.5064830">
        <ele>1161.0</ele>
        <time>2020-07-24T12:46:50Z</time>
      </trkpt>
      <trkpt lat="42.9011470" lon="0.5064770">
        <ele>1161.8</ele>
        <time>2020-07-24T12:46:52Z</time>
      </trkpt>
      <trkpt lat="42.9010700" lon="0.5064680">
        <ele>1163.0</ele>
        <time>2020-07-24T12:46:55Z</time>
      </trkpt>
      <trkpt lat="42.9009450" lon="0.5064870">
        <ele>1164.0</ele>
        <time>2020-07-24T12:47:00Z</time>
      </trkpt>
      <trkpt lat="42.9009210" lon="0.5064960">
        <ele>1164.2</ele>
        <time>2020-07-24T12:47:01Z</time>
      </trkpt>
      <trkpt lat="42.9008170" lon="0.5065510">
        <ele>1165.2</ele>
        <time>2020-07-24T12:47:06Z</time>
      </trkpt>
      <trkpt lat="42.9007760" lon="0.5065740">
        <ele>1165.6</ele>
        <time>2020-07-24T12:47:08Z</time>
      </trkpt>
      <trkpt lat="42.9007090" lon="0.5066160">
        <ele>1166.6</ele>
        <time>2020-07-24T12:47:11Z</time>
      </trkpt>
      <trkpt lat="42.9005850" lon="0.5066530">
        <ele>1167.6</ele>
        <time>2020-07-24T12:47:16Z</time>
      </trkpt>
      <trkpt lat="42.9005300" lon="0.5066530">
        <ele>1168.0</ele>
        <time>2020-07-24T12:47:18Z</time>
      </trkpt>
      <trkpt lat="42.9004450" lon="0.5066060">
        <ele>1168.8</ele>
        <time>2020-07-24T12:47:21Z</time>
      </trkpt>
      <trkpt lat="42.9004240" lon="0.5065790">
        <ele>1169.2</ele>
        <time>2020-07-24T12:47:22Z</time>
      </trkpt>
      <trkpt lat="42.9003930" lon="0.5065140">
        <ele>1170.0</ele>
        <time>2020-07-24T12:47:24Z</time>
      </trkpt>
      <trkpt lat="42.9003520" lon="0.5064190">
        <ele>1170.6</ele>
        <time>2020-07-24T12:47:27Z</time>
      </trkpt>
      <trkpt lat="42.9003160" lon="0.5063220">
        <ele>1170.8</ele>
        <time>2020-07-24T12:47:30Z</time>
      </trkpt>
      <trkpt lat="42.9002970" lon="0.5062570">
        <ele>1171.0</ele>
        <time>2020-07-24T12:47:32Z</time>
      </trkpt>
      <trkpt lat="42.9002610" lon="0.5061280">
        <ele>1172.4</ele>
        <time>2020-07-24T12:47:36Z</time>
      </trkpt>
      <trkpt lat="42.9002350" lon="0.5060410">
        <ele>1173.2</ele>
        <time>2020-07-24T12:47:39Z</time>
      </trkpt>
      <trkpt lat="42.9002250" lon="0.5060150">
        <ele>1173.6</ele>
        <time>2020-07-24T12:47:40Z</time>
      </trkpt>
      <trkpt lat="42.9001890" lon="0.5059000">
        <ele>1174.8</ele>
        <time>2020-07-24T12:47:44Z</time>
      </trkpt>
      <trkpt lat="42.9001490" lon="0.5057860">
        <ele>1176.0</ele>
        <time>2020-07-24T12:47:48Z</time>
      </trkpt>
      <trkpt lat="42.9001410" lon="0.5057600">
        <ele>1176.2</ele>
        <time>2020-07-24T12:47:49Z</time>
      </trkpt>
      <trkpt lat="42.9001030" lon="0.5056390">
        <ele>1177.2</ele>
        <time>2020-07-24T12:47:53Z</time>
      </trkpt>
      <trkpt lat="42.9000830" lon="0.5055720">
        <ele>1177.8</ele>
        <time>2020-07-24T12:47:55Z</time>
      </trkpt>
      <trkpt lat="42.9000650" lon="0.5055030">
        <ele>1178.2</ele>
        <time>2020-07-24T12:47:57Z</time>
      </trkpt>
      <trkpt lat="42.9000430" lon="0.5054000">
        <ele>1179.4</ele>
        <time>2020-07-24T12:48:00Z</time>
      </trkpt>
      <trkpt lat="42.9000100" lon="0.5053060">
        <ele>1180.6</ele>
        <time>2020-07-24T12:48:03Z</time>
      </trkpt>
      <trkpt lat="42.8999730" lon="0.5051930">
        <ele>1181.8</ele>
        <time>2020-07-24T12:48:07Z</time>
      </trkpt>
      <trkpt lat="42.8999550" lon="0.5051090">
        <ele>1182.6</ele>
        <time>2020-07-24T12:48:10Z</time>
      </trkpt>
      <trkpt lat="42.8999510" lon="0.5050820">
        <ele>1182.8</ele>
        <time>2020-07-24T12:48:11Z</time>
      </trkpt>
      <trkpt lat="42.8999370" lon="0.5050330">
        <ele>1183.2</ele>
        <time>2020-07-24T12:48:13Z</time>
      </trkpt>
      <trkpt lat="42.8999300" lon="0.5050080">
        <ele>1183.4</ele>
        <time>2020-07-24T12:48:14Z</time>
      </trkpt>
      <trkpt lat="42.8999030" lon="0.5049010">
        <ele>1183.8</ele>
        <time>2020-07-24T12:48:18Z</time>
      </trkpt>
      <trkpt lat="42.8998980" lon="0.5048710">
        <ele>1184.2</ele>
        <time>2020-07-24T12:48:19Z</time>
      </trkpt>
      <trkpt lat="42.8998760" lon="0.5047840">
        <ele>1185.2</ele>
        <time>2020-07-24T12:48:22Z</time>
      </trkpt>
      <trkpt lat="42.8998560" lon="0.5046990">
        <ele>1186.2</ele>
        <time>2020-07-24T12:48:25Z</time>
      </trkpt>
      <trkpt lat="42.8998490" lon="0.5046720">
        <ele>1186.4</ele>
        <time>2020-07-24T12:48:26Z</time>
      </trkpt>
      <trkpt lat="42.8998290" lon="0.5045940">
        <ele>1187.4</ele>
        <time>2020-07-24T12:48:29Z</time>
      </trkpt>
      <trkpt lat="42.8998000" lon="0.5044550">
        <ele>1188.4</ele>
        <time>2020-07-24T12:48:34Z</time>
      </trkpt>
      <trkpt lat="42.8997900" lon="0.5043980">
        <ele>1188.8</ele>
        <time>2020-07-24T12:48:36Z</time>
      </trkpt>
      <trkpt lat="42.8997610" lon="0.5043150">
        <ele>1189.4</ele>
        <time>2020-07-24T12:48:39Z</time>
      </trkpt>
      <trkpt lat="42.8997320" lon="0.5042360">
        <ele>1189.8</ele>
        <time>2020-07-24T12:48:42Z</time>
      </trkpt>
      <trkpt lat="42.8997080" lon="0.5041470">
        <ele>1190.8</ele>
        <time>2020-07-24T12:48:45Z</time>
      </trkpt>
      <trkpt lat="42.8996810" lon="0.5040280">
        <ele>1191.6</ele>
        <time>2020-07-24T12:48:49Z</time>
      </trkpt>
      <trkpt lat="42.8996670" lon="0.5040000">
        <ele>1191.8</ele>
        <time>2020-07-24T12:48:50Z</time>
      </trkpt>
      <trkpt lat="42.8996310" lon="0.5039110">
        <ele>1192.8</ele>
        <time>2020-07-24T12:48:53Z</time>
      </trkpt>
      <trkpt lat="42.8996060" lon="0.5038490">
        <ele>1193.6</ele>
        <time>2020-07-24T12:48:55Z</time>
      </trkpt>
      <trkpt lat="42.8995790" lon="0.5037900">
        <ele>1194.0</ele>
        <time>2020-07-24T12:48:57Z</time>
      </trkpt>
      <trkpt lat="42.8995240" lon="0.5036320">
        <ele>1195.0</ele>
        <time>2020-07-24T12:49:02Z</time>
      </trkpt>
      <trkpt lat="42.8994830" lon="0.5035420">
        <ele>1196.0</ele>
        <time>2020-07-24T12:49:05Z</time>
      </trkpt>
      <trkpt lat="42.8994710" lon="0.5035150">
        <ele>1196.2</ele>
        <time>2020-07-24T12:49:06Z</time>
      </trkpt>
      <trkpt lat="42.8994010" lon="0.5033560">
        <ele>1197.4</ele>
        <time>2020-07-24T12:49:12Z</time>
      </trkpt>
      <trkpt lat="42.8993800" lon="0.5032960">
        <ele>1197.6</ele>
        <time>2020-07-24T12:49:14Z</time>
      </trkpt>
      <trkpt lat="42.8993610" lon="0.5032390">
        <ele>1198.4</ele>
        <time>2020-07-24T12:49:16Z</time>
      </trkpt>
      <trkpt lat="42.8993260" lon="0.5031540">
        <ele>1199.6</ele>
        <time>2020-07-24T12:49:19Z</time>
      </trkpt>
      <trkpt lat="42.8993010" lon="0.5030970">
        <ele>1200.2</ele>
        <time>2020-07-24T12:49:21Z</time>
      </trkpt>
      <trkpt lat="42.8992710" lon="0.5030450">
        <ele>1200.8</ele>
        <time>2020-07-24T12:49:23Z</time>
      </trkpt>
      <trkpt lat="42.8992170" lon="0.5029240">
        <ele>1201.4</ele>
        <time>2020-07-24T12:49:28Z</time>
      </trkpt>
      <trkpt lat="42.8991670" lon="0.5028480">
        <ele>1201.8</ele>
        <time>2020-07-24T12:49:32Z</time>
      </trkpt>
      <trkpt lat="42.8991300" lon="0.5027840">
        <ele>1202.6</ele>
        <time>2020-07-24T12:49:35Z</time>
      </trkpt>
      <trkpt lat="42.8991110" lon="0.5027360">
        <ele>1203.2</ele>
        <time>2020-07-24T12:49:37Z</time>
      </trkpt>
      <trkpt lat="42.8990950" lon="0.5026860">
        <ele>1203.8</ele>
        <time>2020-07-24T12:49:39Z</time>
      </trkpt>
      <trkpt lat="42.8990850" lon="0.5026380">
        <ele>1204.2</ele>
        <time>2020-07-24T12:49:41Z</time>
      </trkpt>
      <trkpt lat="42.8990710" lon="0.5025660">
        <ele>1204.8</ele>
        <time>2020-07-24T12:49:44Z</time>
      </trkpt>
      <trkpt lat="42.8990570" lon="0.5025190">
        <ele>1205.2</ele>
        <time>2020-07-24T12:49:46Z</time>
      </trkpt>
      <trkpt lat="42.8990340" lon="0.5024320">
        <ele>1206.4</ele>
        <time>2020-07-24T12:49:49Z</time>
      </trkpt>
      <trkpt lat="42.8990160" lon="0.5023760">
        <ele>1207.2</ele>
        <time>2020-07-24T12:49:51Z</time>
      </trkpt>
      <trkpt lat="42.8990050" lon="0.5023510">
        <ele>1207.4</ele>
        <time>2020-07-24T12:49:52Z</time>
      </trkpt>
      <trkpt lat="42.8989400" lon="0.5022290">
        <ele>1208.6</ele>
        <time>2020-07-24T12:49:57Z</time>
      </trkpt>
      <trkpt lat="42.8988890" lon="0.5021750">
        <ele>1209.0</ele>
        <time>2020-07-24T12:50:00Z</time>
      </trkpt>
      <trkpt lat="42.8988310" lon="0.5021200">
        <ele>1209.6</ele>
        <time>2020-07-24T12:50:03Z</time>
      </trkpt>
      <trkpt lat="42.8987610" lon="0.5020050">
        <ele>1210.4</ele>
        <time>2020-07-24T12:50:08Z</time>
      </trkpt>
      <trkpt lat="42.8987280" lon="0.5019670">
        <ele>1210.8</ele>
        <time>2020-07-24T12:50:10Z</time>
      </trkpt>
      <trkpt lat="42.8986680" lon="0.5018810">
        <ele>1212.0</ele>
        <time>2020-07-24T12:50:14Z</time>
      </trkpt>
      <trkpt lat="42.8986220" lon="0.5018220">
        <ele>1212.8</ele>
        <time>2020-07-24T12:50:17Z</time>
      </trkpt>
      <trkpt lat="42.8986030" lon="0.5017950">
        <ele>1213.2</ele>
        <time>2020-07-24T12:50:19Z</time>
      </trkpt>
      <trkpt lat="42.8985560" lon="0.5017150">
        <ele>1213.8</ele>
        <time>2020-07-24T12:50:23Z</time>
      </trkpt>
      <trkpt lat="42.8985250" lon="0.5016710">
        <ele>1214.2</ele>
        <time>2020-07-24T12:50:25Z</time>
      </trkpt>
      <trkpt lat="42.8984850" lon="0.5015930">
        <ele>1214.8</ele>
        <time>2020-07-24T12:50:29Z</time>
      </trkpt>
      <trkpt lat="42.8984410" lon="0.5015330">
        <ele>1215.2</ele>
        <time>2020-07-24T12:50:32Z</time>
      </trkpt>
      <trkpt lat="42.8983970" lon="0.5014530">
        <ele>1216.2</ele>
        <time>2020-07-24T12:50:35Z</time>
      </trkpt>
      <trkpt lat="42.8983800" lon="0.5014270">
        <ele>1216.6</ele>
        <time>2020-07-24T12:50:36Z</time>
      </trkpt>
      <trkpt lat="42.8983130" lon="0.5013210">
        <ele>1217.6</ele>
        <time>2020-07-24T12:50:40Z</time>
      </trkpt>
      <trkpt lat="42.8982620" lon="0.5012500">
        <ele>1218.2</ele>
        <time>2020-07-24T12:50:43Z</time>
      </trkpt>
      <trkpt lat="42.8982280" lon="0.5012060">
        <ele>1218.6</ele>
        <time>2020-07-24T12:50:45Z</time>
      </trkpt>
      <trkpt lat="42.8981720" lon="0.5010890">
        <ele>1220.0</ele>
        <time>2020-07-24T12:50:50Z</time>
      </trkpt>
      <trkpt lat="42.8981530" lon="0.5010390">
        <ele>1220.4</ele>
        <time>2020-07-24T12:50:52Z</time>
      </trkpt>
      <trkpt lat="42.8981010" lon="0.5009480">
        <ele>1221.0</ele>
        <time>2020-07-24T12:50:56Z</time>
      </trkpt>
      <trkpt lat="42.8980600" lon="0.5008340">
        <ele>1222.2</ele>
        <time>2020-07-24T12:51:00Z</time>
      </trkpt>
      <trkpt lat="42.8980000" lon="0.5006610">
        <ele>1223.0</ele>
        <time>2020-07-24T12:51:06Z</time>
      </trkpt>
      <trkpt lat="42.8979910" lon="0.5006350">
        <ele>1223.2</ele>
        <time>2020-07-24T12:51:07Z</time>
      </trkpt>
      <trkpt lat="42.8979580" lon="0.5005250">
        <ele>1224.4</ele>
        <time>2020-07-24T12:51:11Z</time>
      </trkpt>
      <trkpt lat="42.8979290" lon="0.5004130">
        <ele>1225.6</ele>
        <time>2020-07-24T12:51:15Z</time>
      </trkpt>
      <trkpt lat="42.8979260" lon="0.5003830">
        <ele>1225.8</ele>
        <time>2020-07-24T12:51:16Z</time>
      </trkpt>
      <trkpt lat="42.8979000" lon="0.5002440">
        <ele>1226.8</ele>
        <time>2020-07-24T12:51:21Z</time>
      </trkpt>
      <trkpt lat="42.8978810" lon="0.5001880">
        <ele>1227.4</ele>
        <time>2020-07-24T12:51:23Z</time>
      </trkpt>
      <trkpt lat="42.8978700" lon="0.5001640">
        <ele>1227.6</ele>
        <time>2020-07-24T12:51:24Z</time>
      </trkpt>
      <trkpt lat="42.8978580" lon="0.5001380">
        <ele>1227.8</ele>
        <time>2020-07-24T12:51:25Z</time>
      </trkpt>
      <trkpt lat="42.8978350" lon="0.5000180">
        <ele>1228.8</ele>
        <time>2020-07-24T12:51:29Z</time>
      </trkpt>
      <trkpt lat="42.8978110" lon="0.4998620">
        <ele>1230.2</ele>
        <time>2020-07-24T12:51:34Z</time>
      </trkpt>
      <trkpt lat="42.8977990" lon="0.4998350">
        <ele>1230.4</ele>
        <time>2020-07-24T12:51:35Z</time>
      </trkpt>
      <trkpt lat="42.8976990" lon="0.4997200">
        <ele>1231.2</ele>
        <time>2020-07-24T12:51:40Z</time>
      </trkpt>
      <trkpt lat="42.8976740" lon="0.4997040">
        <ele>1231.4</ele>
        <time>2020-07-24T12:51:41Z</time>
      </trkpt>
      <trkpt lat="42.8976210" lon="0.4996800">
        <ele>1232.0</ele>
        <time>2020-07-24T12:51:43Z</time>
      </trkpt>
      <trkpt lat="42.8975600" lon="0.4996580">
        <ele>1232.6</ele>
        <time>2020-07-24T12:51:45Z</time>
      </trkpt>
      <trkpt lat="42.8974970" lon="0.4996290">
        <ele>1233.0</ele>
        <time>2020-07-24T12:51:47Z</time>
      </trkpt>
      <trkpt lat="42.8974010" lon="0.4995820">
        <ele>1233.2</ele>
        <time>2020-07-24T12:51:50Z</time>
      </trkpt>
      <trkpt lat="42.8972880" lon="0.4994820">
        <ele>1233.6</ele>
        <time>2020-07-24T12:51:54Z</time>
      </trkpt>
      <trkpt lat="42.8972590" lon="0.4994540">
        <ele>1233.6</ele>
        <time>2020-07-24T12:51:55Z</time>
      </trkpt>
      <trkpt lat="42.8970980" lon="0.4992980">
        <ele>1234.8</ele>
        <time>2020-07-24T12:52:01Z</time>
      </trkpt>
      <trkpt lat="42.8970430" lon="0.4992540">
        <ele>1235.6</ele>
        <time>2020-07-24T12:52:03Z</time>
      </trkpt>
      <trkpt lat="42.8970150" lon="0.4992360">
        <ele>1236.0</ele>
        <time>2020-07-24T12:52:04Z</time>
      </trkpt>
      <trkpt lat="42.8969860" lon="0.4992180">
        <ele>1236.2</ele>
        <time>2020-07-24T12:52:05Z</time>
      </trkpt>
      <trkpt lat="42.8968990" lon="0.4991730">
        <ele>1236.8</ele>
        <time>2020-07-24T12:52:08Z</time>
      </trkpt>
      <trkpt lat="42.8968390" lon="0.4991480">
        <ele>1237.0</ele>
        <time>2020-07-24T12:52:10Z</time>
      </trkpt>
      <trkpt lat="42.8967810" lon="0.4991240">
        <ele>1237.4</ele>
        <time>2020-07-24T12:52:12Z</time>
      </trkpt>
      <trkpt lat="42.8966420" lon="0.4990470">
        <ele>1238.0</ele>
        <time>2020-07-24T12:52:17Z</time>
      </trkpt>
      <trkpt lat="42.8966160" lon="0.4990300">
        <ele>1238.2</ele>
        <time>2020-07-24T12:52:18Z</time>
      </trkpt>
      <trkpt lat="42.8965900" lon="0.4990120">
        <ele>1238.6</ele>
        <time>2020-07-24T12:52:19Z</time>
      </trkpt>
      <trkpt lat="42.8964940" lon="0.4989320">
        <ele>1239.4</ele>
        <time>2020-07-24T12:52:23Z</time>
      </trkpt>
      <trkpt lat="42.8964030" lon="0.4988300">
        <ele>1240.2</ele>
        <time>2020-07-24T12:52:27Z</time>
      </trkpt>
      <trkpt lat="42.8963620" lon="0.4987760">
        <ele>1240.4</ele>
        <time>2020-07-24T12:52:29Z</time>
      </trkpt>
      <trkpt lat="42.8962880" lon="0.4986600">
        <ele>1241.0</ele>
        <time>2020-07-24T12:52:33Z</time>
      </trkpt>
      <trkpt lat="42.8962110" lon="0.4985260">
        <ele>1241.6</ele>
        <time>2020-07-24T12:52:37Z</time>
      </trkpt>
      <trkpt lat="42.8961460" lon="0.4984390">
        <ele>1242.4</ele>
        <time>2020-07-24T12:52:40Z</time>
      </trkpt>
      <trkpt lat="42.8960770" lon="0.4983650">
        <ele>1242.6</ele>
        <time>2020-07-24T12:52:43Z</time>
      </trkpt>
      <trkpt lat="42.8960270" lon="0.4983210">
        <ele>1242.8</ele>
        <time>2020-07-24T12:52:45Z</time>
      </trkpt>
      <trkpt lat="42.8959510" lon="0.4982620">
        <ele>1243.4</ele>
        <time>2020-07-24T12:52:48Z</time>
      </trkpt>
      <trkpt lat="42.8959270" lon="0.4982420">
        <ele>1243.6</ele>
        <time>2020-07-24T12:52:49Z</time>
      </trkpt>
      <trkpt lat="42.8959020" lon="0.4982210">
        <ele>1243.8</ele>
        <time>2020-07-24T12:52:50Z</time>
      </trkpt>
      <trkpt lat="42.8958080" lon="0.4981160">
        <ele>1245.0</ele>
        <time>2020-07-24T12:52:54Z</time>
      </trkpt>
      <trkpt lat="42.8957670" lon="0.4980570">
        <ele>1245.2</ele>
        <time>2020-07-24T12:52:56Z</time>
      </trkpt>
      <trkpt lat="42.8956820" lon="0.4979320">
        <ele>1246.0</ele>
        <time>2020-07-24T12:53:00Z</time>
      </trkpt>
      <trkpt lat="42.8956060" lon="0.4978320">
        <ele>1246.2</ele>
        <time>2020-07-24T12:53:03Z</time>
      </trkpt>
      <trkpt lat="42.8954160" lon="0.4976980">
        <ele>1245.8</ele>
        <time>2020-07-24T12:53:09Z</time>
      </trkpt>
      <trkpt lat="42.8953370" lon="0.4976750">
        <ele>1245.8</ele>
        <time>2020-07-24T12:53:11Z</time>
      </trkpt>
      <trkpt lat="42.8952460" lon="0.4976720">
        <ele>1245.8</ele>
        <time>2020-07-24T12:53:13Z</time>
      </trkpt>
      <trkpt lat="42.8951960" lon="0.4976800">
        <ele>1245.6</ele>
        <time>2020-07-24T12:53:14Z</time>
      </trkpt>
      <trkpt lat="42.8951460" lon="0.4977020">
        <ele>1245.6</ele>
        <time>2020-07-24T12:53:15Z</time>
      </trkpt>
      <trkpt lat="42.8950570" lon="0.4977900">
        <ele>1245.0</ele>
        <time>2020-07-24T12:53:17Z</time>
      </trkpt>
      <trkpt lat="42.8950180" lon="0.4978510">
        <ele>1244.8</ele>
        <time>2020-07-24T12:53:18Z</time>
      </trkpt>
      <trkpt lat="42.8949520" lon="0.4979980">
        <ele>1244.0</ele>
        <time>2020-07-24T12:53:20Z</time>
      </trkpt>
      <trkpt lat="42.8949330" lon="0.4980790">
        <ele>1243.6</ele>
        <time>2020-07-24T12:53:21Z</time>
      </trkpt>
      <trkpt lat="42.8949250" lon="0.4981580">
        <ele>1243.4</ele>
        <time>2020-07-24T12:53:22Z</time>
      </trkpt>
      <trkpt lat="42.8949320" lon="0.4983010">
        <ele>1243.0</ele>
        <time>2020-07-24T12:53:24Z</time>
      </trkpt>
      <trkpt lat="42.8949440" lon="0.4983630">
        <ele>1243.2</ele>
        <time>2020-07-24T12:53:25Z</time>
      </trkpt>
      <trkpt lat="42.8949590" lon="0.4984210">
        <ele>1243.8</ele>
        <time>2020-07-24T12:53:26Z</time>
      </trkpt>
      <trkpt lat="42.8949940" lon="0.4985310">
        <ele>1244.8</ele>
        <time>2020-07-24T12:53:28Z</time>
      </trkpt>
      <trkpt lat="42.8950750" lon="0.4987380">
        <ele>1246.0</ele>
        <time>2020-07-24T12:53:32Z</time>
      </trkpt>
      <trkpt lat="42.8951810" lon="0.4989800">
        <ele>1247.2</ele>
        <time>2020-07-24T12:53:37Z</time>
      </trkpt>
      <trkpt lat="42.8952670" lon="0.4991610">
        <ele>1248.4</ele>
        <time>2020-07-24T12:53:41Z</time>
      </trkpt>
      <trkpt lat="42.8953860" lon="0.4994090">
        <ele>1249.4</ele>
        <time>2020-07-24T12:53:46Z</time>
      </trkpt>
      <trkpt lat="42.8954100" lon="0.4994600">
        <ele>1249.6</ele>
        <time>2020-07-24T12:53:47Z</time>
      </trkpt>
      <trkpt lat="42.8955100" lon="0.4996700">
        <ele>1250.0</ele>
        <time>2020-07-24T12:53:51Z</time>
      </trkpt>
      <trkpt lat="42.8956710" lon="0.4999580">
        <ele>1250.6</ele>
        <time>2020-07-24T12:53:57Z</time>
      </trkpt>
      <trkpt lat="42.8957190" lon="0.5000490">
        <ele>1251.0</ele>
        <time>2020-07-24T12:53:59Z</time>
      </trkpt>
      <trkpt lat="42.8958490" lon="0.5002740">
        <ele>1251.8</ele>
        <time>2020-07-24T12:54:04Z</time>
      </trkpt>
      <trkpt lat="42.8959080" lon="0.5004160">
        <ele>1252.4</ele>
        <time>2020-07-24T12:54:07Z</time>
      </trkpt>
      <trkpt lat="42.8959260" lon="0.5004670">
        <ele>1252.8</ele>
        <time>2020-07-24T12:54:08Z</time>
      </trkpt>
      <trkpt lat="42.8959640" lon="0.5005740">
        <ele>1253.4</ele>
        <time>2020-07-24T12:54:10Z</time>
      </trkpt>
      <trkpt lat="42.8960660" lon="0.5008570">
        <ele>1254.0</ele>
        <time>2020-07-24T12:54:15Z</time>
      </trkpt>
      <trkpt lat="42.8960820" lon="0.5009130">
        <ele>1254.2</ele>
        <time>2020-07-24T12:54:16Z</time>
      </trkpt>
      <trkpt lat="42.8961690" lon="0.5012440">
        <ele>1255.2</ele>
        <time>2020-07-24T12:54:22Z</time>
      </trkpt>
      <trkpt lat="42.8962050" lon="0.5013540">
        <ele>1255.6</ele>
        <time>2020-07-24T12:54:24Z</time>
      </trkpt>
      <trkpt lat="42.8962270" lon="0.5015260">
        <ele>1256.2</ele>
        <time>2020-07-24T12:54:27Z</time>
      </trkpt>
      <trkpt lat="42.8962290" lon="0.5015860">
        <ele>1256.4</ele>
        <time>2020-07-24T12:54:28Z</time>
      </trkpt>
      <trkpt lat="42.8962230" lon="0.5017060">
        <ele>1256.6</ele>
        <time>2020-07-24T12:54:30Z</time>
      </trkpt>
      <trkpt lat="42.8961310" lon="0.5020460">
        <ele>1256.8</ele>
        <time>2020-07-24T12:54:36Z</time>
      </trkpt>
      <trkpt lat="42.8961100" lon="0.5020950">
        <ele>1257.0</ele>
        <time>2020-07-24T12:54:37Z</time>
      </trkpt>
      <trkpt lat="42.8960580" lon="0.5021890">
        <ele>1257.4</ele>
        <time>2020-07-24T12:54:39Z</time>
      </trkpt>
      <trkpt lat="42.8959980" lon="0.5022720">
        <ele>1258.0</ele>
        <time>2020-07-24T12:54:41Z</time>
      </trkpt>
      <trkpt lat="42.8959650" lon="0.5023080">
        <ele>1258.2</ele>
        <time>2020-07-24T12:54:42Z</time>
      </trkpt>
      <trkpt lat="42.8958940" lon="0.5023690">
        <ele>1258.4</ele>
        <time>2020-07-24T12:54:44Z</time>
      </trkpt>
      <trkpt lat="42.8958530" lon="0.5023960">
        <ele>1258.4</ele>
        <time>2020-07-24T12:54:45Z</time>
      </trkpt>
      <trkpt lat="42.8958150" lon="0.5024310">
        <ele>1258.4</ele>
        <time>2020-07-24T12:54:46Z</time>
      </trkpt>
      <trkpt lat="42.8957480" lon="0.5025140">
        <ele>1258.6</ele>
        <time>2020-07-24T12:54:48Z</time>
      </trkpt>
      <trkpt lat="42.8957200" lon="0.5025590">
        <ele>1258.8</ele>
        <time>2020-07-24T12:54:49Z</time>
      </trkpt>
      <trkpt lat="42.8956950" lon="0.5026050">
        <ele>1258.8</ele>
        <time>2020-07-24T12:54:50Z</time>
      </trkpt>
      <trkpt lat="42.8956300" lon="0.5027540">
        <ele>1259.4</ele>
        <time>2020-07-24T12:54:53Z</time>
      </trkpt>
      <trkpt lat="42.8956130" lon="0.5028030">
        <ele>1260.0</ele>
        <time>2020-07-24T12:54:54Z</time>
      </trkpt>
      <trkpt lat="42.8955840" lon="0.5029940">
        <ele>1260.6</ele>
        <time>2020-07-24T12:54:57Z</time>
      </trkpt>
      <trkpt lat="42.8955640" lon="0.5031860">
        <ele>1260.6</ele>
        <time>2020-07-24T12:55:00Z</time>
      </trkpt>
      <trkpt lat="42.8955600" lon="0.5032480">
        <ele>1260.6</ele>
        <time>2020-07-24T12:55:01Z</time>
      </trkpt>
      <trkpt lat="42.8955600" lon="0.5035540">
        <ele>1260.8</ele>
        <time>2020-07-24T12:55:06Z</time>
      </trkpt>
      <trkpt lat="42.8955650" lon="0.5036730">
        <ele>1261.2</ele>
        <time>2020-07-24T12:55:08Z</time>
      </trkpt>
      <trkpt lat="42.8955670" lon="0.5038470">
        <ele>1261.6</ele>
        <time>2020-07-24T12:55:11Z</time>
      </trkpt>
      <trkpt lat="42.8955590" lon="0.5039600">
        <ele>1261.6</ele>
        <time>2020-07-24T12:55:13Z</time>
      </trkpt>
      <trkpt lat="42.8955260" lon="0.5040700">
        <ele>1262.0</ele>
        <time>2020-07-24T12:55:15Z</time>
      </trkpt>
      <trkpt lat="42.8954440" lon="0.5042150">
        <ele>1262.6</ele>
        <time>2020-07-24T12:55:18Z</time>
      </trkpt>
      <trkpt lat="42.8953440" lon="0.5043390">
        <ele>1263.2</ele>
        <time>2020-07-24T12:55:21Z</time>
      </trkpt>
      <trkpt lat="42.8953020" lon="0.5043720">
        <ele>1263.4</ele>
        <time>2020-07-24T12:55:22Z</time>
      </trkpt>
      <trkpt lat="42.8952210" lon="0.5044450">
        <ele>1263.6</ele>
        <time>2020-07-24T12:55:24Z</time>
      </trkpt>
      <trkpt lat="42.8951430" lon="0.5045080">
        <ele>1263.8</ele>
        <time>2020-07-24T12:55:26Z</time>
      </trkpt>
      <trkpt lat="42.8951050" lon="0.5045350">
        <ele>1263.8</ele>
        <time>2020-07-24T12:55:27Z</time>
      </trkpt>
      <trkpt lat="42.8949460" lon="0.5046460">
        <ele>1264.4</ele>
        <time>2020-07-24T12:55:31Z</time>
      </trkpt>
      <trkpt lat="42.8949050" lon="0.5046660">
        <ele>1264.6</ele>
        <time>2020-07-24T12:55:32Z</time>
      </trkpt>
      <trkpt lat="42.8948630" lon="0.5046820">
        <ele>1265.0</ele>
        <time>2020-07-24T12:55:33Z</time>
      </trkpt>
      <trkpt lat="42.8946980" lon="0.5047430">
        <ele>1265.8</ele>
        <time>2020-07-24T12:55:37Z</time>
      </trkpt>
      <trkpt lat="42.8945660" lon="0.5047580">
        <ele>1265.8</ele>
        <time>2020-07-24T12:55:40Z</time>
      </trkpt>
      <trkpt lat="42.8943530" lon="0.5048090">
        <ele>1266.8</ele>
        <time>2020-07-24T12:55:45Z</time>
      </trkpt>
      <trkpt lat="42.8942760" lon="0.5048490">
        <ele>1267.2</ele>
        <time>2020-07-24T12:55:47Z</time>
      </trkpt>
      <trkpt lat="42.8941660" lon="0.5048560">
        <ele>1267.6</ele>
        <time>2020-07-24T12:55:50Z</time>
      </trkpt>
      <trkpt lat="42.8941470" lon="0.5048180">
        <ele>1267.8</ele>
        <time>2020-07-24T12:55:51Z</time>
      </trkpt>
      <trkpt lat="42.8941440" lon="0.5047730">
        <ele>1268.0</ele>
        <time>2020-07-24T12:55:52Z</time>
      </trkpt>
      <trkpt lat="42.8941770" lon="0.5047010">
        <ele>1268.8</ele>
        <time>2020-07-24T12:55:54Z</time>
      </trkpt>
      <trkpt lat="42.8942050" lon="0.5046820">
        <ele>1269.2</ele>
        <time>2020-07-24T12:55:55Z</time>
      </trkpt>
      <trkpt lat="42.8942630" lon="0.5046510">
        <ele>1269.8</ele>
        <time>2020-07-24T12:55:57Z</time>
      </trkpt>
      <trkpt lat="42.8943230" lon="0.5046230">
        <ele>1270.0</ele>
        <time>2020-07-24T12:55:59Z</time>
      </trkpt>
      <trkpt lat="42.8943820" lon="0.5045890">
        <ele>1270.4</ele>
        <time>2020-07-24T12:56:01Z</time>
      </trkpt>
      <trkpt lat="42.8944380" lon="0.5045550">
        <ele>1270.8</ele>
        <time>2020-07-24T12:56:03Z</time>
      </trkpt>
      <trkpt lat="42.8945150" lon="0.5045090">
        <ele>1271.4</ele>
        <time>2020-07-24T12:56:06Z</time>
      </trkpt>
      <trkpt lat="42.8945400" lon="0.5044960">
        <ele>1271.6</ele>
        <time>2020-07-24T12:56:07Z</time>
      </trkpt>
      <trkpt lat="42.8945880" lon="0.5044650">
        <ele>1272.2</ele>
        <time>2020-07-24T12:56:09Z</time>
      </trkpt>
      <trkpt lat="42.8946370" lon="0.5044290">
        <ele>1272.6</ele>
        <time>2020-07-24T12:56:11Z</time>
      </trkpt>
      <trkpt lat="42.8947050" lon="0.5043630">
        <ele>1273.4</ele>
        <time>2020-07-24T12:56:14Z</time>
      </trkpt>
      <trkpt lat="42.8947500" lon="0.5043110">
        <ele>1274.0</ele>
        <time>2020-07-24T12:56:16Z</time>
      </trkpt>
      <trkpt lat="42.8948540" lon="0.5042290">
        <ele>1275.0</ele>
        <time>2020-07-24T12:56:20Z</time>
      </trkpt>
      <trkpt lat="42.8949180" lon="0.5041570">
        <ele>1275.6</ele>
        <time>2020-07-24T12:56:23Z</time>
      </trkpt>
      <trkpt lat="42.8949860" lon="0.5040830">
        <ele>1276.2</ele>
        <time>2020-07-24T12:56:26Z</time>
      </trkpt>
      <trkpt lat="42.8950810" lon="0.5039460">
        <ele>1277.4</ele>
        <time>2020-07-24T12:56:31Z</time>
      </trkpt>
      <trkpt lat="42.8950930" lon="0.5039120">
        <ele>1277.6</ele>
        <time>2020-07-24T12:56:32Z</time>
      </trkpt>
      <trkpt lat="42.8951540" lon="0.5038060">
        <ele>1278.6</ele>
        <time>2020-07-24T12:56:36Z</time>
      </trkpt>
      <trkpt lat="42.8951800" lon="0.5037480">
        <ele>1278.8</ele>
        <time>2020-07-24T12:56:38Z</time>
      </trkpt>
      <trkpt lat="42.8952320" lon="0.5036350">
        <ele>1279.8</ele>
        <time>2020-07-24T12:56:42Z</time>
      </trkpt>
      <trkpt lat="42.8952660" lon="0.5035570">
        <ele>1280.8</ele>
        <time>2020-07-24T12:56:45Z</time>
      </trkpt>
      <trkpt lat="42.8952760" lon="0.5035320">
        <ele>1281.2</ele>
        <time>2020-07-24T12:56:46Z</time>
      </trkpt>
      <trkpt lat="42.8952900" lon="0.5034410">
        <ele>1281.8</ele>
        <time>2020-07-24T12:56:49Z</time>
      </trkpt>
      <trkpt lat="42.8952930" lon="0.5034120">
        <ele>1282.2</ele>
        <time>2020-07-24T12:56:50Z</time>
      </trkpt>
      <trkpt lat="42.8952850" lon="0.5033090">
        <ele>1282.8</ele>
        <time>2020-07-24T12:56:53Z</time>
      </trkpt>
      <trkpt lat="42.8952870" lon="0.5032510">
        <ele>1283.4</ele>
        <time>2020-07-24T12:56:55Z</time>
      </trkpt>
      <trkpt lat="42.8952780" lon="0.5031260">
        <ele>1284.4</ele>
        <time>2020-07-24T12:56:59Z</time>
      </trkpt>
      <trkpt lat="42.8952720" lon="0.5030920">
        <ele>1284.6</ele>
        <time>2020-07-24T12:57:00Z</time>
      </trkpt>
      <trkpt lat="42.8952710" lon="0.5029700">
        <ele>1285.2</ele>
        <time>2020-07-24T12:57:04Z</time>
      </trkpt>
      <trkpt lat="42.8952890" lon="0.5029120">
        <ele>1285.6</ele>
        <time>2020-07-24T12:57:06Z</time>
      </trkpt>
      <trkpt lat="42.8953150" lon="0.5027840">
        <ele>1286.8</ele>
        <time>2020-07-24T12:57:10Z</time>
      </trkpt>
      <trkpt lat="42.8953340" lon="0.5026110">
        <ele>1288.0</ele>
        <time>2020-07-24T12:57:15Z</time>
      </trkpt>
      <trkpt lat="42.8953600" lon="0.5024730">
        <ele>1289.0</ele>
        <time>2020-07-24T12:57:19Z</time>
      </trkpt>
      <trkpt lat="42.8953650" lon="0.5024350">
        <ele>1289.2</ele>
        <time>2020-07-24T12:57:20Z</time>
      </trkpt>
      <trkpt lat="42.8953860" lon="0.5023680">
        <ele>1289.6</ele>
        <time>2020-07-24T12:57:22Z</time>
      </trkpt>
      <trkpt lat="42.8953940" lon="0.5023330">
        <ele>1289.8</ele>
        <time>2020-07-24T12:57:23Z</time>
      </trkpt>
      <trkpt lat="42.8954070" lon="0.5022620">
        <ele>1290.2</ele>
        <time>2020-07-24T12:57:25Z</time>
      </trkpt>
      <trkpt lat="42.8954390" lon="0.5020940">
        <ele>1291.4</ele>
        <time>2020-07-24T12:57:30Z</time>
      </trkpt>
      <trkpt lat="42.8954560" lon="0.5020250">
        <ele>1291.8</ele>
        <time>2020-07-24T12:57:32Z</time>
      </trkpt>
      <trkpt lat="42.8954600" lon="0.5019530">
        <ele>1292.4</ele>
        <time>2020-07-24T12:57:34Z</time>
      </trkpt>
      <trkpt lat="42.8954090" lon="0.5017130">
        <ele>1293.8</ele>
        <time>2020-07-24T12:57:40Z</time>
      </trkpt>
      <trkpt lat="42.8953910" lon="0.5016740">
        <ele>1294.0</ele>
        <time>2020-07-24T12:57:41Z</time>
      </trkpt>
      <trkpt lat="42.8953560" lon="0.5016060">
        <ele>1294.8</ele>
        <time>2020-07-24T12:57:43Z</time>
      </trkpt>
      <trkpt lat="42.8952770" lon="0.5015210">
        <ele>1295.6</ele>
        <time>2020-07-24T12:57:47Z</time>
      </trkpt>
      <trkpt lat="42.8952510" lon="0.5015080">
        <ele>1295.8</ele>
        <time>2020-07-24T12:57:48Z</time>
      </trkpt>
      <trkpt lat="42.8951770" lon="0.5015010">
        <ele>1297.0</ele>
        <time>2020-07-24T12:57:51Z</time>
      </trkpt>
      <trkpt lat="42.8951340" lon="0.5015270">
        <ele>1297.6</ele>
        <time>2020-07-24T12:57:53Z</time>
      </trkpt>
      <trkpt lat="42.8951010" lon="0.5015750">
        <ele>1298.0</ele>
        <time>2020-07-24T12:57:55Z</time>
      </trkpt>
      <trkpt lat="42.8950660" lon="0.5016900">
        <ele>1298.6</ele>
        <time>2020-07-24T12:57:58Z</time>
      </trkpt>
      <trkpt lat="42.8950550" lon="0.5017680">
        <ele>1299.2</ele>
        <time>2020-07-24T12:58:00Z</time>
      </trkpt>
      <trkpt lat="42.8950370" lon="0.5019750">
        <ele>1300.2</ele>
        <time>2020-07-24T12:58:05Z</time>
      </trkpt>
      <trkpt lat="42.8950290" lon="0.5020160">
        <ele>1300.2</ele>
        <time>2020-07-24T12:58:06Z</time>
      </trkpt>
      <trkpt lat="42.8949950" lon="0.5021230">
        <ele>1301.0</ele>
        <time>2020-07-24T12:58:09Z</time>
      </trkpt>
      <trkpt lat="42.8949640" lon="0.5021870">
        <ele>1301.4</ele>
        <time>2020-07-24T12:58:11Z</time>
      </trkpt>
      <trkpt lat="42.8949280" lon="0.5022430">
        <ele>1301.8</ele>
        <time>2020-07-24T12:58:13Z</time>
      </trkpt>
      <trkpt lat="42.8948800" lon="0.5023220">
        <ele>1302.6</ele>
        <time>2020-07-24T12:58:16Z</time>
      </trkpt>
      <trkpt lat="42.8948020" lon="0.5024600">
        <ele>1303.8</ele>
        <time>2020-07-24T12:58:21Z</time>
      </trkpt>
      <trkpt lat="42.8946970" lon="0.5026150">
        <ele>1304.8</ele>
        <time>2020-07-24T12:58:27Z</time>
      </trkpt>
      <trkpt lat="42.8946690" lon="0.5026610">
        <ele>1305.2</ele>
        <time>2020-07-24T12:58:29Z</time>
      </trkpt>
      <trkpt lat="42.8946120" lon="0.5027520">
        <ele>1306.0</ele>
        <time>2020-07-24T12:58:33Z</time>
      </trkpt>
      <trkpt lat="42.8945970" lon="0.5027720">
        <ele>1306.4</ele>
        <time>2020-07-24T12:58:34Z</time>
      </trkpt>
      <trkpt lat="42.8945690" lon="0.5028150">
        <ele>1307.2</ele>
        <time>2020-07-24T12:58:36Z</time>
      </trkpt>
      <trkpt lat="42.8944970" lon="0.5028750">
        <ele>1308.2</ele>
        <time>2020-07-24T12:58:40Z</time>
      </trkpt>
      <trkpt lat="42.8944750" lon="0.5028780">
        <ele>1308.6</ele>
        <time>2020-07-24T12:58:41Z</time>
      </trkpt>
      <trkpt lat="42.8944520" lon="0.5028750">
        <ele>1308.8</ele>
        <time>2020-07-24T12:58:42Z</time>
      </trkpt>
      <trkpt lat="42.8944110" lon="0.5028470">
        <ele>1309.4</ele>
        <time>2020-07-24T12:58:44Z</time>
      </trkpt>
      <trkpt lat="42.8943780" lon="0.5027990">
        <ele>1309.8</ele>
        <time>2020-07-24T12:58:46Z</time>
      </trkpt>
      <trkpt lat="42.8943630" lon="0.5027020">
        <ele>1310.4</ele>
        <time>2020-07-24T12:58:49Z</time>
      </trkpt>
      <trkpt lat="42.8943660" lon="0.5026680">
        <ele>1310.6</ele>
        <time>2020-07-24T12:58:50Z</time>
      </trkpt>
      <trkpt lat="42.8943740" lon="0.5026330">
        <ele>1311.0</ele>
        <time>2020-07-24T12:58:51Z</time>
      </trkpt>
      <trkpt lat="42.8944080" lon="0.5025440">
        <ele>1311.6</ele>
        <time>2020-07-24T12:58:54Z</time>
      </trkpt>
      <trkpt lat="42.8944640" lon="0.5023980">
        <ele>1312.6</ele>
        <time>2020-07-24T12:58:59Z</time>
      </trkpt>
      <trkpt lat="42.8944760" lon="0.5023700">
        <ele>1312.8</ele>
        <time>2020-07-24T12:59:00Z</time>
      </trkpt>
      <trkpt lat="42.8945160" lon="0.5022460">
        <ele>1313.6</ele>
        <time>2020-07-24T12:59:04Z</time>
      </trkpt>
      <trkpt lat="42.8945350" lon="0.5021770">
        <ele>1313.8</ele>
        <time>2020-07-24T12:59:06Z</time>
      </trkpt>
      <trkpt lat="42.8945600" lon="0.5019750">
        <ele>1315.0</ele>
        <time>2020-07-24T12:59:12Z</time>
      </trkpt>
      <trkpt lat="42.8945520" lon="0.5019100">
        <ele>1315.4</ele>
        <time>2020-07-24T12:59:14Z</time>
      </trkpt>
      <trkpt lat="42.8944950" lon="0.5017880">
        <ele>1316.2</ele>
        <time>2020-07-24T12:59:18Z</time>
      </trkpt>
      <trkpt lat="42.8944620" lon="0.5017290">
        <ele>1316.6</ele>
        <time>2020-07-24T12:59:20Z</time>
      </trkpt>
      <trkpt lat="42.8944130" lon="0.5016450">
        <ele>1317.2</ele>
        <time>2020-07-24T12:59:23Z</time>
      </trkpt>
      <trkpt lat="42.8943280" lon="0.5015090">
        <ele>1318.2</ele>
        <time>2020-07-24T12:59:28Z</time>
      </trkpt>
      <trkpt lat="42.8943130" lon="0.5014800">
        <ele>1318.6</ele>
        <time>2020-07-24T12:59:29Z</time>
      </trkpt>
      <trkpt lat="42.8942150" lon="0.5013210">
        <ele>1319.6</ele>
        <time>2020-07-24T12:59:35Z</time>
      </trkpt>
      <trkpt lat="42.8941950" lon="0.5012980">
        <ele>1319.8</ele>
        <time>2020-07-24T12:59:36Z</time>
      </trkpt>
      <trkpt lat="42.8940870" lon="0.5012060">
        <ele>1321.0</ele>
        <time>2020-07-24T12:59:41Z</time>
      </trkpt>
      <trkpt lat="42.8940390" lon="0.5011850">
        <ele>1322.0</ele>
        <time>2020-07-24T12:59:43Z</time>
      </trkpt>
      <trkpt lat="42.8940140" lon="0.5011750">
        <ele>1322.4</ele>
        <time>2020-07-24T12:59:44Z</time>
      </trkpt>
      <trkpt lat="42.8939620" lon="0.5011560">
        <ele>1322.8</ele>
        <time>2020-07-24T12:59:46Z</time>
      </trkpt>
      <trkpt lat="42.8939090" lon="0.5011430">
        <ele>1323.4</ele>
        <time>2020-07-24T12:59:48Z</time>
      </trkpt>
      <trkpt lat="42.8938550" lon="0.5011380">
        <ele>1323.8</ele>
        <time>2020-07-24T12:59:50Z</time>
      </trkpt>
      <trkpt lat="42.8938020" lon="0.5011350">
        <ele>1324.4</ele>
        <time>2020-07-24T12:59:52Z</time>
      </trkpt>
      <trkpt lat="42.8937200" lon="0.5011240">
        <ele>1325.0</ele>
        <time>2020-07-24T12:59:55Z</time>
      </trkpt>
      <trkpt lat="42.8936470" lon="0.5010690">
        <ele>1325.4</ele>
        <time>2020-07-24T12:59:58Z</time>
      </trkpt>
      <trkpt lat="42.8936190" lon="0.5010030">
        <ele>1325.6</ele>
        <time>2020-07-24T13:00:00Z</time>
      </trkpt>
      <trkpt lat="42.8936100" lon="0.5009320">
        <ele>1325.8</ele>
        <time>2020-07-24T13:00:02Z</time>
      </trkpt>
      <trkpt lat="42.8936630" lon="0.5007440">
        <ele>1326.6</ele>
        <time>2020-07-24T13:00:07Z</time>
      </trkpt>
      <trkpt lat="42.8937530" lon="0.5005630">
        <ele>1327.6</ele>
        <time>2020-07-24T13:00:12Z</time>
      </trkpt>
      <trkpt lat="42.8937700" lon="0.5005270">
        <ele>1328.0</ele>
        <time>2020-07-24T13:00:13Z</time>
      </trkpt>
      <trkpt lat="42.8938270" lon="0.5004290">
        <ele>1328.8</ele>
        <time>2020-07-24T13:00:16Z</time>
      </trkpt>
      <trkpt lat="42.8938910" lon="0.5003590">
        <ele>1329.2</ele>
        <time>2020-07-24T13:00:19Z</time>
      </trkpt>
      <trkpt lat="42.8939590" lon="0.5002970">
        <ele>1329.8</ele>
        <time>2020-07-24T13:00:22Z</time>
      </trkpt>
      <trkpt lat="42.8939860" lon="0.5002740">
        <ele>1330.0</ele>
        <time>2020-07-24T13:00:23Z</time>
      </trkpt>
      <trkpt lat="42.8940660" lon="0.5001980">
        <ele>1330.8</ele>
        <time>2020-07-24T13:00:26Z</time>
      </trkpt>
      <trkpt lat="42.8940860" lon="0.5001620">
        <ele>1331.2</ele>
        <time>2020-07-24T13:00:27Z</time>
      </trkpt>
      <trkpt lat="42.8941110" lon="0.5000820">
        <ele>1331.8</ele>
        <time>2020-07-24T13:00:29Z</time>
      </trkpt>
      <trkpt lat="42.8941090" lon="0.5000400">
        <ele>1332.0</ele>
        <time>2020-07-24T13:00:30Z</time>
      </trkpt>
      <trkpt lat="42.8940700" lon="0.4999290">
        <ele>1332.2</ele>
        <time>2020-07-24T13:00:33Z</time>
      </trkpt>
      <trkpt lat="42.8940510" lon="0.4998950">
        <ele>1332.4</ele>
        <time>2020-07-24T13:00:34Z</time>
      </trkpt>
      <trkpt lat="42.8939650" lon="0.4997800">
        <ele>1333.8</ele>
        <time>2020-07-24T13:00:38Z</time>
      </trkpt>
      <trkpt lat="42.8939440" lon="0.4997510">
        <ele>1334.0</ele>
        <time>2020-07-24T13:00:39Z</time>
      </trkpt>
      <trkpt lat="42.8938280" lon="0.4996380">
        <ele>1334.8</ele>
        <time>2020-07-24T13:00:44Z</time>
      </trkpt>
      <trkpt lat="42.8937440" lon="0.4995370">
        <ele>1336.0</ele>
        <time>2020-07-24T13:00:48Z</time>
      </trkpt>
      <trkpt lat="42.8936430" lon="0.4994140">
        <ele>1337.2</ele>
        <time>2020-07-24T13:00:53Z</time>
      </trkpt>
      <trkpt lat="42.8936100" lon="0.4993750">
        <ele>1337.8</ele>
        <time>2020-07-24T13:00:55Z</time>
      </trkpt>
      <trkpt lat="42.8935510" lon="0.4993080">
        <ele>1338.4</ele>
        <time>2020-07-24T13:00:58Z</time>
      </trkpt>
      <trkpt lat="42.8935310" lon="0.4992810">
        <ele>1338.6</ele>
        <time>2020-07-24T13:00:59Z</time>
      </trkpt>
      <trkpt lat="42.8934620" lon="0.4991810">
        <ele>1339.6</ele>
        <time>2020-07-24T13:01:03Z</time>
      </trkpt>
      <trkpt lat="42.8934140" lon="0.4991100">
        <ele>1340.2</ele>
        <time>2020-07-24T13:01:06Z</time>
      </trkpt>
      <trkpt lat="42.8933990" lon="0.4990880">
        <ele>1340.6</ele>
        <time>2020-07-24T13:01:07Z</time>
      </trkpt>
      <trkpt lat="42.8933440" lon="0.4990000">
        <ele>1341.6</ele>
        <time>2020-07-24T13:01:11Z</time>
      </trkpt>
      <trkpt lat="42.8933220" lon="0.4989510">
        <ele>1341.6</ele>
        <time>2020-07-24T13:01:13Z</time>
      </trkpt>
      <trkpt lat="42.8933100" lon="0.4989260">
        <ele>1341.8</ele>
        <time>2020-07-24T13:01:14Z</time>
      </trkpt>
      <trkpt lat="42.8932310" lon="0.4987790">
        <ele>1343.0</ele>
        <time>2020-07-24T13:01:20Z</time>
      </trkpt>
      <trkpt lat="42.8932170" lon="0.4987510">
        <ele>1343.0</ele>
        <time>2020-07-24T13:01:21Z</time>
      </trkpt>
      <trkpt lat="42.8931740" lon="0.4986460">
        <ele>1344.0</ele>
        <time>2020-07-24T13:01:25Z</time>
      </trkpt>
      <trkpt lat="42.8931540" lon="0.4985410">
        <ele>1345.0</ele>
        <time>2020-07-24T13:01:29Z</time>
      </trkpt>
      <trkpt lat="42.8931510" lon="0.4985150">
        <ele>1345.2</ele>
        <time>2020-07-24T13:01:30Z</time>
      </trkpt>
      <trkpt lat="42.8931280" lon="0.4984130">
        <ele>1346.2</ele>
        <time>2020-07-24T13:01:34Z</time>
      </trkpt>
      <trkpt lat="42.8931130" lon="0.4983500">
        <ele>1346.8</ele>
        <time>2020-07-24T13:01:36Z</time>
      </trkpt>
      <trkpt lat="42.8931010" lon="0.4982900">
        <ele>1347.4</ele>
        <time>2020-07-24T13:01:38Z</time>
      </trkpt>
      <trkpt lat="42.8930430" lon="0.4981320">
        <ele>1348.0</ele>
        <time>2020-07-24T13:01:42Z</time>
      </trkpt>
      <trkpt lat="42.8930090" lon="0.4980650">
        <ele>1348.6</ele>
        <time>2020-07-24T13:01:44Z</time>
      </trkpt>
      <trkpt lat="42.8929670" lon="0.4980120">
        <ele>1348.8</ele>
        <time>2020-07-24T13:01:46Z</time>
      </trkpt>
      <trkpt lat="42.8929020" lon="0.4979410">
        <ele>1349.4</ele>
        <time>2020-07-24T13:01:49Z</time>
      </trkpt>
      <trkpt lat="42.8928820" lon="0.4979190">
        <ele>1349.6</ele>
        <time>2020-07-24T13:01:50Z</time>
      </trkpt>
      <trkpt lat="42.8928040" lon="0.4978280">
        <ele>1350.2</ele>
        <time>2020-07-24T13:01:54Z</time>
      </trkpt>
      <trkpt lat="42.8927810" lon="0.4977980">
        <ele>1350.2</ele>
        <time>2020-07-24T13:01:55Z</time>
      </trkpt>
      <trkpt lat="42.8927600" lon="0.4977660">
        <ele>1350.4</ele>
        <time>2020-07-24T13:01:56Z</time>
      </trkpt>
      <trkpt lat="42.8927170" lon="0.4977110">
        <ele>1350.8</ele>
        <time>2020-07-24T13:01:58Z</time>
      </trkpt>
      <trkpt lat="42.8926560" lon="0.4976320">
        <ele>1352.0</ele>
        <time>2020-07-24T13:02:01Z</time>
      </trkpt>
      <trkpt lat="42.8925880" lon="0.4975320">
        <ele>1353.2</ele>
        <time>2020-07-24T13:02:05Z</time>
      </trkpt>
      <trkpt lat="42.8925720" lon="0.4975070">
        <ele>1353.4</ele>
        <time>2020-07-24T13:02:06Z</time>
      </trkpt>
      <trkpt lat="42.8925420" lon="0.4974550">
        <ele>1354.0</ele>
        <time>2020-07-24T13:02:08Z</time>
      </trkpt>
      <trkpt lat="42.8925300" lon="0.4974310">
        <ele>1354.2</ele>
        <time>2020-07-24T13:02:09Z</time>
      </trkpt>
      <trkpt lat="42.8924770" lon="0.4973390">
        <ele>1355.2</ele>
        <time>2020-07-24T13:02:13Z</time>
      </trkpt>
      <trkpt lat="42.8924620" lon="0.4973180">
        <ele>1355.4</ele>
        <time>2020-07-24T13:02:14Z</time>
      </trkpt>
      <trkpt lat="42.8923780" lon="0.4971650">
        <ele>1356.6</ele>
        <time>2020-07-24T13:02:20Z</time>
      </trkpt>
      <trkpt lat="42.8923040" lon="0.4970180">
        <ele>1357.6</ele>
        <time>2020-07-24T13:02:26Z</time>
      </trkpt>
      <trkpt lat="42.8922920" lon="0.4969960">
        <ele>1357.8</ele>
        <time>2020-07-24T13:02:27Z</time>
      </trkpt>
      <trkpt lat="42.8922570" lon="0.4969260">
        <ele>1358.4</ele>
        <time>2020-07-24T13:02:30Z</time>
      </trkpt>
      <trkpt lat="42.8922380" lon="0.4968760">
        <ele>1358.8</ele>
        <time>2020-07-24T13:02:32Z</time>
      </trkpt>
      <trkpt lat="42.8922130" lon="0.4968340">
        <ele>1359.4</ele>
        <time>2020-07-24T13:02:34Z</time>
      </trkpt>
      <trkpt lat="42.8921950" lon="0.4968230">
        <ele>1359.6</ele>
        <time>2020-07-24T13:02:35Z</time>
      </trkpt>
      <trkpt lat="42.8921560" lon="0.4967660">
        <ele>1360.0</ele>
        <time>2020-07-24T13:02:38Z</time>
      </trkpt>
      <trkpt lat="42.8921240" lon="0.4966840">
        <ele>1360.8</ele>
        <time>2020-07-24T13:02:42Z</time>
      </trkpt>
      <trkpt lat="42.8921110" lon="0.4966680">
        <ele>1361.0</ele>
        <time>2020-07-24T13:02:43Z</time>
      </trkpt>
      <trkpt lat="42.8920510" lon="0.4965560">
        <ele>1362.0</ele>
        <time>2020-07-24T13:02:49Z</time>
      </trkpt>
      <trkpt lat="42.8920390" lon="0.4965410">
        <ele>1362.2</ele>
        <time>2020-07-24T13:02:50Z</time>
      </trkpt>
      <trkpt lat="42.8919820" lon="0.4964100">
        <ele>1363.4</ele>
        <time>2020-07-24T13:02:56Z</time>
      </trkpt>
      <trkpt lat="42.8919240" lon="0.4962790">
        <ele>1364.4</ele>
        <time>2020-07-24T13:03:02Z</time>
      </trkpt>
      <trkpt lat="42.8919130" lon="0.4962580">
        <ele>1364.4</ele>
        <time>2020-07-24T13:03:03Z</time>
      </trkpt>
      <trkpt lat="42.8918950" lon="0.4962270">
        <ele>1364.8</ele>
        <time>2020-07-24T13:03:05Z</time>
      </trkpt>
      <trkpt lat="42.8918360" lon="0.4961430">
        <ele>1365.6</ele>
        <time>2020-07-24T13:03:09Z</time>
      </trkpt>
      <trkpt lat="42.8917860" lon="0.4960870">
        <ele>1367.0</ele>
        <time>2020-07-24T13:03:12Z</time>
      </trkpt>
      <trkpt lat="42.8916890" lon="0.4959890">
        <ele>1368.2</ele>
        <time>2020-07-24T13:03:18Z</time>
      </trkpt>
      <trkpt lat="42.8916650" lon="0.4959590">
        <ele>1368.6</ele>
        <time>2020-07-24T13:03:20Z</time>
      </trkpt>
      <trkpt lat="42.8916150" lon="0.4959030">
        <ele>1369.2</ele>
        <time>2020-07-24T13:03:24Z</time>
      </trkpt>
      <trkpt lat="42.8915700" lon="0.4958340">
        <ele>1370.4</ele>
        <time>2020-07-24T13:03:28Z</time>
      </trkpt>
      <trkpt lat="42.8915210" lon="0.4957510">
        <ele>1371.6</ele>
        <time>2020-07-24T13:03:33Z</time>
      </trkpt>
      <trkpt lat="42.8915060" lon="0.4957050">
        <ele>1372.0</ele>
        <time>2020-07-24T13:03:35Z</time>
      </trkpt>
      <trkpt lat="42.8914750" lon="0.4956700">
        <ele>1372.6</ele>
        <time>2020-07-24T13:03:37Z</time>
      </trkpt>
      <trkpt lat="42.8914120" lon="0.4956010">
        <ele>1373.2</ele>
        <time>2020-07-24T13:03:41Z</time>
      </trkpt>
      <trkpt lat="42.8913750" lon="0.4955860">
        <ele>1373.8</ele>
        <time>2020-07-24T13:03:43Z</time>
      </trkpt>
      <trkpt lat="42.8913140" lon="0.4955940">
        <ele>1374.4</ele>
        <time>2020-07-24T13:03:46Z</time>
      </trkpt>
      <trkpt lat="42.8912770" lon="0.4956130">
        <ele>1374.8</ele>
        <time>2020-07-24T13:03:48Z</time>
      </trkpt>
      <trkpt lat="42.8912650" lon="0.4956340">
        <ele>1375.0</ele>
        <time>2020-07-24T13:03:49Z</time>
      </trkpt>
      <trkpt lat="42.8912540" lon="0.4956960">
        <ele>1375.6</ele>
        <time>2020-07-24T13:03:51Z</time>
      </trkpt>
      <trkpt lat="42.8912580" lon="0.4957980">
        <ele>1376.2</ele>
        <time>2020-07-24T13:03:54Z</time>
      </trkpt>
      <trkpt lat="42.8912670" lon="0.4958770">
        <ele>1377.0</ele>
        <time>2020-07-24T13:03:57Z</time>
      </trkpt>
      <trkpt lat="42.8912710" lon="0.4959290">
        <ele>1377.2</ele>
        <time>2020-07-24T13:03:59Z</time>
      </trkpt>
      <trkpt lat="42.8913190" lon="0.4960330">
        <ele>1378.0</ele>
        <time>2020-07-24T13:04:04Z</time>
      </trkpt>
      <trkpt lat="42.8913410" lon="0.4960720">
        <ele>1378.2</ele>
        <time>2020-07-24T13:04:06Z</time>
      </trkpt>
      <trkpt lat="42.8914010" lon="0.4961610">
        <ele>1379.4</ele>
        <time>2020-07-24T13:04:11Z</time>
      </trkpt>
      <trkpt lat="42.8914130" lon="0.4961780">
        <ele>1379.6</ele>
        <time>2020-07-24T13:04:12Z</time>
      </trkpt>
      <trkpt lat="42.8915010" lon="0.4962640">
        <ele>1380.6</ele>
        <time>2020-07-24T13:04:18Z</time>
      </trkpt>
      <trkpt lat="42.8915140" lon="0.4962790">
        <ele>1380.8</ele>
        <time>2020-07-24T13:04:19Z</time>
      </trkpt>
      <trkpt lat="42.8915860" lon="0.4963610">
        <ele>1381.6</ele>
        <time>2020-07-24T13:04:24Z</time>
      </trkpt>
      <trkpt lat="42.8916290" lon="0.4964260">
        <ele>1382.6</ele>
        <time>2020-07-24T13:04:27Z</time>
      </trkpt>
      <trkpt lat="42.8916400" lon="0.4964470">
        <ele>1382.8</ele>
        <time>2020-07-24T13:04:28Z</time>
      </trkpt>
      <trkpt lat="42.8917180" lon="0.4965870">
        <ele>1384.0</ele>
        <time>2020-07-24T13:04:34Z</time>
      </trkpt>
      <trkpt lat="42.8917510" lon="0.4966650">
        <ele>1384.6</ele>
        <time>2020-07-24T13:04:37Z</time>
      </trkpt>
      <trkpt lat="42.8917710" lon="0.4967200">
        <ele>1385.2</ele>
        <time>2020-07-24T13:04:39Z</time>
      </trkpt>
      <trkpt lat="42.8917990" lon="0.4967970">
        <ele>1386.2</ele>
        <time>2020-07-24T13:04:42Z</time>
      </trkpt>
      <trkpt lat="42.8918320" lon="0.4969030">
        <ele>1387.2</ele>
        <time>2020-07-24T13:04:46Z</time>
      </trkpt>
      <trkpt lat="42.8918400" lon="0.4969310">
        <ele>1387.4</ele>
        <time>2020-07-24T13:04:47Z</time>
      </trkpt>
      <trkpt lat="42.8918640" lon="0.4970260">
        <ele>1388.2</ele>
        <time>2020-07-24T13:04:51Z</time>
      </trkpt>
      <trkpt lat="42.8918750" lon="0.4970690">
        <ele>1388.6</ele>
        <time>2020-07-24T13:04:53Z</time>
      </trkpt>
      <trkpt lat="42.8918790" lon="0.4971210">
        <ele>1388.8</ele>
        <time>2020-07-24T13:04:59Z</time>
      </trkpt>
      <trkpt lat="42.8918560" lon="0.4971470">
        <ele>1389.2</ele>
        <time>2020-07-24T13:05:05Z</time>
      </trkpt>
      <trkpt lat="42.8918340" lon="0.4971500">
        <ele>1389.2</ele>
        <time>2020-07-24T13:05:10Z</time>
      </trkpt>
      <trkpt lat="42.8918220" lon="0.4971530">
        <ele>1389.2</ele>
        <time>2020-07-24T13:05:16Z</time>
      </trkpt>
      <trkpt lat="42.8918210" lon="0.4971310">
        <ele>1389.0</ele>
        <time>2020-07-24T13:05:22Z</time>
      </trkpt>
      <trkpt lat="42.8918190" lon="0.4971220">
        <ele>1388.8</ele>
        <time>2020-07-24T13:05:24Z</time>
      </trkpt>
      <trkpt lat="42.8918160" lon="0.4971220">
        <ele>1388.8</ele>
        <time>2020-07-24T13:05:30Z</time>
      </trkpt>
      <trkpt lat="42.8918200" lon="0.4971290">
        <ele>1388.6</ele>
        <time>2020-07-24T13:05:36Z</time>
      </trkpt>
      <trkpt lat="42.8918200" lon="0.4971270">
        <ele>1388.6</ele>
        <time>2020-07-24T13:05:37Z</time>
      </trkpt>
      <trkpt lat="42.8918240" lon="0.4971060">
        <ele>1388.4</ele>
        <time>2020-07-24T13:05:43Z</time>
      </trkpt>
      <trkpt lat="42.8918290" lon="0.4971230">
        <ele>1388.6</ele>
        <time>2020-07-24T13:05:48Z</time>
      </trkpt>
      <trkpt lat="42.8918300" lon="0.4971250">
        <ele>1388.6</ele>
        <time>2020-07-24T13:05:50Z</time>
      </trkpt>
      <trkpt lat="42.8918300" lon="0.4971240">
        <ele>1388.6</ele>
        <time>2020-07-24T13:05:51Z</time>
      </trkpt>
      <trkpt lat="42.8918380" lon="0.4971210">
        <ele>1388.6</ele>
        <time>2020-07-24T13:05:56Z</time>
      </trkpt>
      <trkpt lat="42.8918240" lon="0.4971180">
        <ele>1388.2</ele>
        <time>2020-07-24T13:06:02Z</time>
      </trkpt>
      <trkpt lat="42.8918230" lon="0.4971190">
        <ele>1388.0</ele>
        <time>2020-07-24T13:06:04Z</time>
      </trkpt>
      <trkpt lat="42.8918330" lon="0.4971210">
        <ele>1388.4</ele>
        <time>2020-07-24T13:06:10Z</time>
      </trkpt>
      <trkpt lat="42.8918130" lon="0.4971190">
        <ele>1388.6</ele>
        <time>2020-07-24T13:06:16Z</time>
      </trkpt>
      <trkpt lat="42.8918160" lon="0.4971260">
        <ele>1388.8</ele>
        <time>2020-07-24T13:06:19Z</time>
      </trkpt>
      <trkpt lat="42.8918160" lon="0.4971360">
        <ele>1388.6</ele>
        <time>2020-07-24T13:06:25Z</time>
      </trkpt>
      <trkpt lat="42.8918220" lon="0.4971250">
        <ele>1388.2</ele>
        <time>2020-07-24T13:06:30Z</time>
      </trkpt>
      <trkpt lat="42.8918190" lon="0.4971170">
        <ele>1388.2</ele>
        <time>2020-07-24T13:06:33Z</time>
      </trkpt>
      <trkpt lat="42.8918180" lon="0.4971230">
        <ele>1388.0</ele>
        <time>2020-07-24T13:06:35Z</time>
      </trkpt>
      <trkpt lat="42.8918230" lon="0.4971400">
        <ele>1387.8</ele>
        <time>2020-07-24T13:06:41Z</time>
      </trkpt>
      <trkpt lat="42.8918250" lon="0.4971480">
        <ele>1387.6</ele>
        <time>2020-07-24T13:06:47Z</time>
      </trkpt>
      <trkpt lat="42.8918260" lon="0.4971480">
        <ele>1387.6</ele>
        <time>2020-07-24T13:06:48Z</time>
      </trkpt>
      <trkpt lat="42.8918260" lon="0.4971480">
        <ele>1387.6</ele>
        <time>2020-07-24T13:06:49Z</time>
      </trkpt>
      <trkpt lat="42.8918280" lon="0.4971550">
        <ele>1387.6</ele>
        <time>2020-07-24T13:06:53Z</time>
      </trkpt>
      <trkpt lat="42.8918370" lon="0.4971600">
        <ele>1387.6</ele>
        <time>2020-07-24T13:06:55Z</time>
      </trkpt>
      <trkpt lat="42.8918470" lon="0.4971690">
        <ele>1387.8</ele>
        <time>2020-07-24T13:06:59Z</time>
      </trkpt>
      <trkpt lat="42.8918490" lon="0.4971690">
        <ele>1387.8</ele>
        <time>2020-07-24T13:07:00Z</time>
      </trkpt>
      <trkpt lat="42.8918470" lon="0.4971680">
        <ele>1388.2</ele>
        <time>2020-07-24T13:07:01Z</time>
      </trkpt>
      <trkpt lat="42.8918470" lon="0.4971670">
        <ele>1388.2</ele>
        <time>2020-07-24T13:07:02Z</time>
      </trkpt>
      <trkpt lat="42.8918460" lon="0.4971550">
        <ele>1388.2</ele>
        <time>2020-07-24T13:07:08Z</time>
      </trkpt>
      <trkpt lat="42.8918460" lon="0.4971550">
        <ele>1388.2</ele>
        <time>2020-07-24T13:07:11Z</time>
      </trkpt>
      <trkpt lat="42.8918460" lon="0.4971550">
        <ele>1388.2</ele>
        <time>2020-07-24T13:07:14Z</time>
      </trkpt>
      <trkpt lat="42.8918460" lon="0.4971560">
        <ele>1388.2</ele>
        <time>2020-07-24T13:07:16Z</time>
      </trkpt>
      <trkpt lat="42.8918520" lon="0.4971430">
        <ele>1388.2</ele>
        <time>2020-07-24T13:07:22Z</time>
      </trkpt>
      <trkpt lat="42.8918530" lon="0.4971390">
        <ele>1388.2</ele>
        <time>2020-07-24T13:07:23Z</time>
      </trkpt>
      <trkpt lat="42.8918580" lon="0.4971250">
        <ele>1388.2</ele>
        <time>2020-07-24T13:07:29Z</time>
      </trkpt>
      <trkpt lat="42.8918490" lon="0.4971170">
        <ele>1388.2</ele>
        <time>2020-07-24T13:07:33Z</time>
      </trkpt>
      <trkpt lat="42.8918450" lon="0.4971150">
        <ele>1388.2</ele>
        <time>2020-07-24T13:07:36Z</time>
      </trkpt>
      <trkpt lat="42.8918440" lon="0.4971150">
        <ele>1388.2</ele>
        <time>2020-07-24T13:07:38Z</time>
      </trkpt>
      <trkpt lat="42.8918400" lon="0.4971150">
        <ele>1388.2</ele>
        <time>2020-07-24T13:07:40Z</time>
      </trkpt>
      <trkpt lat="42.8918380" lon="0.4971150">
        <ele>1388.2</ele>
        <time>2020-07-24T13:07:41Z</time>
      </trkpt>
      <trkpt lat="42.8918330" lon="0.4971200">
        <ele>1388.2</ele>
        <time>2020-07-24T13:07:44Z</time>
      </trkpt>
      <trkpt lat="42.8918320" lon="0.4971220">
        <ele>1388.2</ele>
        <time>2020-07-24T13:07:47Z</time>
      </trkpt>
      <trkpt lat="42.8918330" lon="0.4971230">
        <ele>1388.2</ele>
        <time>2020-07-24T13:07:48Z</time>
      </trkpt>
      <trkpt lat="42.8918330" lon="0.4971230">
        <ele>1388.2</ele>
        <time>2020-07-24T13:07:49Z</time>
      </trkpt>
      <trkpt lat="42.8918310" lon="0.4971200">
        <ele>1388.2</ele>
        <time>2020-07-24T13:07:50Z</time>
      </trkpt>
      <trkpt lat="42.8918210" lon="0.4971340">
        <ele>1388.2</ele>
        <time>2020-07-24T13:07:56Z</time>
      </trkpt>
      <trkpt lat="42.8918400" lon="0.4971450">
        <ele>1388.2</ele>
        <time>2020-07-24T13:08:01Z</time>
      </trkpt>
      <trkpt lat="42.8918470" lon="0.4971420">
        <ele>1388.2</ele>
        <time>2020-07-24T13:08:07Z</time>
      </trkpt>
      <trkpt lat="42.8918470" lon="0.4971410">
        <ele>1388.2</ele>
        <time>2020-07-24T13:08:13Z</time>
      </trkpt>
      <trkpt lat="42.8918430" lon="0.4971460">
        <ele>1388.2</ele>
        <time>2020-07-24T13:08:15Z</time>
      </trkpt>
      <trkpt lat="42.8918620" lon="0.4971550">
        <ele>1388.2</ele>
        <time>2020-07-24T13:08:21Z</time>
      </trkpt>
      <trkpt lat="42.8918690" lon="0.4971530">
        <ele>1388.2</ele>
        <time>2020-07-24T13:08:27Z</time>
      </trkpt>
      <trkpt lat="42.8918760" lon="0.4971480">
        <ele>1388.2</ele>
        <time>2020-07-24T13:08:32Z</time>
      </trkpt>
      <trkpt lat="42.8919060" lon="0.4971700">
        <ele>1388.2</ele>
        <time>2020-07-24T13:08:37Z</time>
      </trkpt>
      <trkpt lat="42.8919230" lon="0.4972320">
        <ele>1388.2</ele>
        <time>2020-07-24T13:08:40Z</time>
      </trkpt>
      <trkpt lat="42.8919490" lon="0.4973680">
        <ele>1389.2</ele>
        <time>2020-07-24T13:08:44Z</time>
      </trkpt>
      <trkpt lat="42.8919580" lon="0.4974000">
        <ele>1389.4</ele>
        <time>2020-07-24T13:08:45Z</time>
      </trkpt>
      <trkpt lat="42.8919690" lon="0.4974330">
        <ele>1389.8</ele>
        <time>2020-07-24T13:08:46Z</time>
      </trkpt>
      <trkpt lat="42.8920000" lon="0.4975650">
        <ele>1391.0</ele>
        <time>2020-07-24T13:08:50Z</time>
      </trkpt>
      <trkpt lat="42.8920330" lon="0.4976570">
        <ele>1391.8</ele>
        <time>2020-07-24T13:08:53Z</time>
      </trkpt>
      <trkpt lat="42.8920440" lon="0.4976860">
        <ele>1392.2</ele>
        <time>2020-07-24T13:08:54Z</time>
      </trkpt>
      <trkpt lat="42.8920750" lon="0.4977800">
        <ele>1393.2</ele>
        <time>2020-07-24T13:08:57Z</time>
      </trkpt>
      <trkpt lat="42.8921150" lon="0.4979000">
        <ele>1394.4</ele>
        <time>2020-07-24T13:09:01Z</time>
      </trkpt>
      <trkpt lat="42.8921240" lon="0.4979280">
        <ele>1394.6</ele>
        <time>2020-07-24T13:09:02Z</time>
      </trkpt>
      <trkpt lat="42.8921340" lon="0.4979550">
        <ele>1395.0</ele>
        <time>2020-07-24T13:09:03Z</time>
      </trkpt>
      <trkpt lat="42.8921570" lon="0.4980160">
        <ele>1395.4</ele>
        <time>2020-07-24T13:09:05Z</time>
      </trkpt>
      <trkpt lat="42.8921960" lon="0.4981410">
        <ele>1396.4</ele>
        <time>2020-07-24T13:09:09Z</time>
      </trkpt>
      <trkpt lat="42.8922090" lon="0.4981740">
        <ele>1396.8</ele>
        <time>2020-07-24T13:09:10Z</time>
      </trkpt>
      <trkpt lat="42.8922640" lon="0.4983190">
        <ele>1397.8</ele>
        <time>2020-07-24T13:09:15Z</time>
      </trkpt>
      <trkpt lat="42.8922900" lon="0.4983710">
        <ele>1398.4</ele>
        <time>2020-07-24T13:09:17Z</time>
      </trkpt>
      <trkpt lat="42.8923100" lon="0.4984260">
        <ele>1398.8</ele>
        <time>2020-07-24T13:09:19Z</time>
      </trkpt>
      <trkpt lat="42.8923460" lon="0.4985780">
        <ele>1400.0</ele>
        <time>2020-07-24T13:09:24Z</time>
      </trkpt>
      <trkpt lat="42.8923540" lon="0.4986050">
        <ele>1400.2</ele>
        <time>2020-07-24T13:09:25Z</time>
      </trkpt>
      <trkpt lat="42.8923870" lon="0.4987280">
        <ele>1401.0</ele>
        <time>2020-07-24T13:09:29Z</time>
      </trkpt>
      <trkpt lat="42.8924100" lon="0.4988210">
        <ele>1401.8</ele>
        <time>2020-07-24T13:09:32Z</time>
      </trkpt>
      <trkpt lat="42.8924220" lon="0.4988810">
        <ele>1402.4</ele>
        <time>2020-07-24T13:09:34Z</time>
      </trkpt>
      <trkpt lat="42.8924280" lon="0.4989120">
        <ele>1402.6</ele>
        <time>2020-07-24T13:09:35Z</time>
      </trkpt>
      <trkpt lat="42.8924350" lon="0.4989790">
        <ele>1403.2</ele>
        <time>2020-07-24T13:09:37Z</time>
      </trkpt>
      <trkpt lat="42.8924390" lon="0.4990110">
        <ele>1403.4</ele>
        <time>2020-07-24T13:09:38Z</time>
      </trkpt>
      <trkpt lat="42.8924430" lon="0.4991120">
        <ele>1404.0</ele>
        <time>2020-07-24T13:09:41Z</time>
      </trkpt>
      <trkpt lat="42.8924480" lon="0.4991830">
        <ele>1404.6</ele>
        <time>2020-07-24T13:09:43Z</time>
      </trkpt>
      <trkpt lat="42.8924520" lon="0.4993570">
        <ele>1405.8</ele>
        <time>2020-07-24T13:09:48Z</time>
      </trkpt>
      <trkpt lat="42.8924440" lon="0.4994550">
        <ele>1406.6</ele>
        <time>2020-07-24T13:09:51Z</time>
      </trkpt>
      <trkpt lat="42.8924400" lon="0.4994860">
        <ele>1406.8</ele>
        <time>2020-07-24T13:09:52Z</time>
      </trkpt>
      <trkpt lat="42.8924130" lon="0.4996070">
        <ele>1407.6</ele>
        <time>2020-07-24T13:09:56Z</time>
      </trkpt>
      <trkpt lat="42.8924050" lon="0.4996360">
        <ele>1407.8</ele>
        <time>2020-07-24T13:09:57Z</time>
      </trkpt>
      <trkpt lat="42.8923660" lon="0.4997550">
        <ele>1409.0</ele>
        <time>2020-07-24T13:10:01Z</time>
      </trkpt>
      <trkpt lat="42.8923150" lon="0.4998610">
        <ele>1410.0</ele>
        <time>2020-07-24T13:10:05Z</time>
      </trkpt>
      <trkpt lat="42.8922500" lon="0.4999510">
        <ele>1411.2</ele>
        <time>2020-07-24T13:10:09Z</time>
      </trkpt>
      <trkpt lat="42.8922320" lon="0.4999720">
        <ele>1411.4</ele>
        <time>2020-07-24T13:10:10Z</time>
      </trkpt>
      <trkpt lat="42.8921830" lon="0.5000400">
        <ele>1412.6</ele>
        <time>2020-07-24T13:10:13Z</time>
      </trkpt>
      <trkpt lat="42.8921130" lon="0.5001280">
        <ele>1413.8</ele>
        <time>2020-07-24T13:10:17Z</time>
      </trkpt>
      <trkpt lat="42.8920800" lon="0.5001790">
        <ele>1414.2</ele>
        <time>2020-07-24T13:10:19Z</time>
      </trkpt>
      <trkpt lat="42.8920280" lon="0.5002440">
        <ele>1415.0</ele>
        <time>2020-07-24T13:10:22Z</time>
      </trkpt>
      <trkpt lat="42.8919340" lon="0.5003420">
        <ele>1416.2</ele>
        <time>2020-07-24T13:10:27Z</time>
      </trkpt>
      <trkpt lat="42.8918460" lon="0.5004600">
        <ele>1417.0</ele>
        <time>2020-07-24T13:10:32Z</time>
      </trkpt>
      <trkpt lat="42.8918270" lon="0.5004830">
        <ele>1417.4</ele>
        <time>2020-07-24T13:10:33Z</time>
      </trkpt>
      <trkpt lat="42.8917780" lon="0.5005570">
        <ele>1418.2</ele>
        <time>2020-07-24T13:10:36Z</time>
      </trkpt>
      <trkpt lat="42.8917600" lon="0.5005800">
        <ele>1418.6</ele>
        <time>2020-07-24T13:10:37Z</time>
      </trkpt>
      <trkpt lat="42.8916910" lon="0.5006800">
        <ele>1419.6</ele>
        <time>2020-07-24T13:10:41Z</time>
      </trkpt>
      <trkpt lat="42.8916170" lon="0.5007820">
        <ele>1420.8</ele>
        <time>2020-07-24T13:10:45Z</time>
      </trkpt>
      <trkpt lat="42.8915540" lon="0.5009020">
        <ele>1421.4</ele>
        <time>2020-07-24T13:10:49Z</time>
      </trkpt>
      <trkpt lat="42.8915160" lon="0.5009510">
        <ele>1422.0</ele>
        <time>2020-07-24T13:10:51Z</time>
      </trkpt>
      <trkpt lat="42.8914540" lon="0.5010200">
        <ele>1423.2</ele>
        <time>2020-07-24T13:10:54Z</time>
      </trkpt>
      <trkpt lat="42.8914100" lon="0.5010670">
        <ele>1423.4</ele>
        <time>2020-07-24T13:10:56Z</time>
      </trkpt>
      <trkpt lat="42.8913470" lon="0.5011410">
        <ele>1424.2</ele>
        <time>2020-07-24T13:10:59Z</time>
      </trkpt>
      <trkpt lat="42.8912730" lon="0.5012400">
        <ele>1425.2</ele>
        <time>2020-07-24T13:11:03Z</time>
      </trkpt>
      <trkpt lat="42.8912150" lon="0.5013060">
        <ele>1426.2</ele>
        <time>2020-07-24T13:11:06Z</time>
      </trkpt>
      <trkpt lat="42.8911960" lon="0.5013240">
        <ele>1426.4</ele>
        <time>2020-07-24T13:11:07Z</time>
      </trkpt>
      <trkpt lat="42.8911040" lon="0.5014300">
        <ele>1427.8</ele>
        <time>2020-07-24T13:11:12Z</time>
      </trkpt>
      <trkpt lat="42.8910510" lon="0.5015000">
        <ele>1428.6</ele>
        <time>2020-07-24T13:11:15Z</time>
      </trkpt>
      <trkpt lat="42.8910360" lon="0.5015270">
        <ele>1428.8</ele>
        <time>2020-07-24T13:11:16Z</time>
      </trkpt>
      <trkpt lat="42.8909800" lon="0.5016060">
        <ele>1429.8</ele>
        <time>2020-07-24T13:11:19Z</time>
      </trkpt>
      <trkpt lat="42.8908940" lon="0.5016940">
        <ele>1431.2</ele>
        <time>2020-07-24T13:11:23Z</time>
      </trkpt>
      <trkpt lat="42.8908320" lon="0.5017530">
        <ele>1432.4</ele>
        <time>2020-07-24T13:11:26Z</time>
      </trkpt>
      <trkpt lat="42.8907260" lon="0.5018580">
        <ele>1433.4</ele>
        <time>2020-07-24T13:11:31Z</time>
      </trkpt>
      <trkpt lat="42.8907080" lon="0.5018820">
        <ele>1433.6</ele>
        <time>2020-07-24T13:11:32Z</time>
      </trkpt>
      <trkpt lat="42.8906920" lon="0.5019090">
        <ele>1434.0</ele>
        <time>2020-07-24T13:11:33Z</time>
      </trkpt>
      <trkpt lat="42.8906800" lon="0.5019440">
        <ele>1434.4</ele>
        <time>2020-07-24T13:11:34Z</time>
      </trkpt>
      <trkpt lat="42.8906540" lon="0.5020110">
        <ele>1435.2</ele>
        <time>2020-07-24T13:11:36Z</time>
      </trkpt>
      <trkpt lat="42.8906390" lon="0.5020430">
        <ele>1435.6</ele>
        <time>2020-07-24T13:11:37Z</time>
      </trkpt>
      <trkpt lat="42.8905970" lon="0.5021270">
        <ele>1436.2</ele>
        <time>2020-07-24T13:11:40Z</time>
      </trkpt>
      <trkpt lat="42.8905690" lon="0.5021840">
        <ele>1436.6</ele>
        <time>2020-07-24T13:11:42Z</time>
      </trkpt>
      <trkpt lat="42.8905140" lon="0.5022880">
        <ele>1437.6</ele>
        <time>2020-07-24T13:11:46Z</time>
      </trkpt>
      <trkpt lat="42.8904860" lon="0.5023430">
        <ele>1438.4</ele>
        <time>2020-07-24T13:11:48Z</time>
      </trkpt>
      <trkpt lat="42.8904730" lon="0.5023740">
        <ele>1438.6</ele>
        <time>2020-07-24T13:11:49Z</time>
      </trkpt>
      <trkpt lat="42.8903980" lon="0.5025060">
        <ele>1439.6</ele>
        <time>2020-07-24T13:11:54Z</time>
      </trkpt>
      <trkpt lat="42.8903820" lon="0.5025290">
        <ele>1439.8</ele>
        <time>2020-07-24T13:11:55Z</time>
      </trkpt>
      <trkpt lat="42.8902800" lon="0.5026710">
        <ele>1441.0</ele>
        <time>2020-07-24T13:12:01Z</time>
      </trkpt>
      <trkpt lat="42.8902630" lon="0.5026970">
        <ele>1441.4</ele>
        <time>2020-07-24T13:12:02Z</time>
      </trkpt>
      <trkpt lat="42.8902460" lon="0.5027240">
        <ele>1441.8</ele>
        <time>2020-07-24T13:12:03Z</time>
      </trkpt>
      <trkpt lat="42.8902300" lon="0.5027510">
        <ele>1442.0</ele>
        <time>2020-07-24T13:12:04Z</time>
      </trkpt>
      <trkpt lat="42.8901560" lon="0.5028570">
        <ele>1442.6</ele>
        <time>2020-07-24T13:12:08Z</time>
      </trkpt>
      <trkpt lat="42.8901150" lon="0.5028990">
        <ele>1443.2</ele>
        <time>2020-07-24T13:12:10Z</time>
      </trkpt>
      <trkpt lat="42.8900950" lon="0.5029190">
        <ele>1443.4</ele>
        <time>2020-07-24T13:12:11Z</time>
      </trkpt>
      <trkpt lat="42.8900330" lon="0.5029760">
        <ele>1444.2</ele>
        <time>2020-07-24T13:12:14Z</time>
      </trkpt>
      <trkpt lat="42.8899620" lon="0.5029880">
        <ele>1445.0</ele>
        <time>2020-07-24T13:12:17Z</time>
      </trkpt>
      <trkpt lat="42.8899370" lon="0.5029830">
        <ele>1445.4</ele>
        <time>2020-07-24T13:12:18Z</time>
      </trkpt>
      <trkpt lat="42.8898410" lon="0.5029480">
        <ele>1446.8</ele>
        <time>2020-07-24T13:12:22Z</time>
      </trkpt>
      <trkpt lat="42.8898180" lon="0.5029400">
        <ele>1447.2</ele>
        <time>2020-07-24T13:12:23Z</time>
      </trkpt>
      <trkpt lat="42.8897680" lon="0.5029230">
        <ele>1447.6</ele>
        <time>2020-07-24T13:12:25Z</time>
      </trkpt>
      <trkpt lat="42.8897440" lon="0.5029160">
        <ele>1447.8</ele>
        <time>2020-07-24T13:12:26Z</time>
      </trkpt>
      <trkpt lat="42.8897000" lon="0.5029130">
        <ele>1448.4</ele>
        <time>2020-07-24T13:12:28Z</time>
      </trkpt>
      <trkpt lat="42.8896350" lon="0.5029080">
        <ele>1449.0</ele>
        <time>2020-07-24T13:12:31Z</time>
      </trkpt>
      <trkpt lat="42.8896120" lon="0.5029000">
        <ele>1449.2</ele>
        <time>2020-07-24T13:12:32Z</time>
      </trkpt>
      <trkpt lat="42.8895440" lon="0.5028610">
        <ele>1450.2</ele>
        <time>2020-07-24T13:12:35Z</time>
      </trkpt>
      <trkpt lat="42.8894440" lon="0.5028260">
        <ele>1451.2</ele>
        <time>2020-07-24T13:12:39Z</time>
      </trkpt>
      <trkpt lat="42.8893960" lon="0.5028100">
        <ele>1451.6</ele>
        <time>2020-07-24T13:12:41Z</time>
      </trkpt>
      <trkpt lat="42.8893500" lon="0.5027920">
        <ele>1452.2</ele>
        <time>2020-07-24T13:12:43Z</time>
      </trkpt>
      <trkpt lat="42.8892380" lon="0.5027620">
        <ele>1453.4</ele>
        <time>2020-07-24T13:12:48Z</time>
      </trkpt>
      <trkpt lat="42.8892130" lon="0.5027650">
        <ele>1453.8</ele>
        <time>2020-07-24T13:12:49Z</time>
      </trkpt>
      <trkpt lat="42.8891400" lon="0.5027670">
        <ele>1454.6</ele>
        <time>2020-07-24T13:12:52Z</time>
      </trkpt>
      <trkpt lat="42.8891160" lon="0.5027610">
        <ele>1455.0</ele>
        <time>2020-07-24T13:12:53Z</time>
      </trkpt>
      <trkpt lat="42.8890460" lon="0.5027490">
        <ele>1455.4</ele>
        <time>2020-07-24T13:12:56Z</time>
      </trkpt>
      <trkpt lat="42.8889980" lon="0.5027530">
        <ele>1455.8</ele>
        <time>2020-07-24T13:12:58Z</time>
      </trkpt>
      <trkpt lat="42.8889110" lon="0.5027490">
        <ele>1457.0</ele>
        <time>2020-07-24T13:13:02Z</time>
      </trkpt>
      <trkpt lat="42.8888900" lon="0.5027550">
        <ele>1457.4</ele>
        <time>2020-07-24T13:13:03Z</time>
      </trkpt>
      <trkpt lat="42.8888430" lon="0.5027630">
        <ele>1458.0</ele>
        <time>2020-07-24T13:13:05Z</time>
      </trkpt>
      <trkpt lat="42.8887270" lon="0.5028370">
        <ele>1459.2</ele>
        <time>2020-07-24T13:13:10Z</time>
      </trkpt>
      <trkpt lat="42.8886480" lon="0.5029360">
        <ele>1460.2</ele>
        <time>2020-07-24T13:13:14Z</time>
      </trkpt>
      <trkpt lat="42.8885780" lon="0.5030390">
        <ele>1461.4</ele>
        <time>2020-07-24T13:13:18Z</time>
      </trkpt>
      <trkpt lat="42.8885620" lon="0.5030650">
        <ele>1461.6</ele>
        <time>2020-07-24T13:13:19Z</time>
      </trkpt>
      <trkpt lat="42.8885000" lon="0.5031300">
        <ele>1462.6</ele>
        <time>2020-07-24T13:13:22Z</time>
      </trkpt>
      <trkpt lat="42.8884550" lon="0.5031700">
        <ele>1463.2</ele>
        <time>2020-07-24T13:13:24Z</time>
      </trkpt>
      <trkpt lat="42.8883820" lon="0.5032010">
        <ele>1463.8</ele>
        <time>2020-07-24T13:13:27Z</time>
      </trkpt>
      <trkpt lat="42.8883150" lon="0.5032030">
        <ele>1464.8</ele>
        <time>2020-07-24T13:13:30Z</time>
      </trkpt>
      <trkpt lat="42.8882330" lon="0.5032050">
        <ele>1466.0</ele>
        <time>2020-07-24T13:13:34Z</time>
      </trkpt>
      <trkpt lat="42.8881300" lon="0.5031650">
        <ele>1466.8</ele>
        <time>2020-07-24T13:13:38Z</time>
      </trkpt>
      <trkpt lat="42.8881030" lon="0.5031610">
        <ele>1467.2</ele>
        <time>2020-07-24T13:13:39Z</time>
      </trkpt>
      <trkpt lat="42.8880500" lon="0.5031590">
        <ele>1468.2</ele>
        <time>2020-07-24T13:13:41Z</time>
      </trkpt>
      <trkpt lat="42.8880230" lon="0.5031610">
        <ele>1468.4</ele>
        <time>2020-07-24T13:13:42Z</time>
      </trkpt>
      <trkpt lat="42.8879170" lon="0.5031810">
        <ele>1469.2</ele>
        <time>2020-07-24T13:13:46Z</time>
      </trkpt>
      <trkpt lat="42.8878940" lon="0.5031840">
        <ele>1469.6</ele>
        <time>2020-07-24T13:13:47Z</time>
      </trkpt>
      <trkpt lat="42.8877910" lon="0.5031950">
        <ele>1470.8</ele>
        <time>2020-07-24T13:13:51Z</time>
      </trkpt>
      <trkpt lat="42.8877450" lon="0.5031810">
        <ele>1471.6</ele>
        <time>2020-07-24T13:13:53Z</time>
      </trkpt>
      <trkpt lat="42.8877230" lon="0.5031730">
        <ele>1471.8</ele>
        <time>2020-07-24T13:13:54Z</time>
      </trkpt>
      <trkpt lat="42.8876030" lon="0.5031140">
        <ele>1473.0</ele>
        <time>2020-07-24T13:13:59Z</time>
      </trkpt>
      <trkpt lat="42.8875430" lon="0.5030590">
        <ele>1474.2</ele>
        <time>2020-07-24T13:14:02Z</time>
      </trkpt>
      <trkpt lat="42.8874750" lon="0.5029820">
        <ele>1475.4</ele>
        <time>2020-07-24T13:14:06Z</time>
      </trkpt>
      <trkpt lat="42.8874280" lon="0.5029410">
        <ele>1476.0</ele>
        <time>2020-07-24T13:14:09Z</time>
      </trkpt>
      <trkpt lat="42.8874140" lon="0.5029320">
        <ele>1476.4</ele>
        <time>2020-07-24T13:14:10Z</time>
      </trkpt>
      <trkpt lat="42.8873990" lon="0.5029230">
        <ele>1476.6</ele>
        <time>2020-07-24T13:14:11Z</time>
      </trkpt>
      <trkpt lat="42.8873830" lon="0.5029150">
        <ele>1477.0</ele>
        <time>2020-07-24T13:14:12Z</time>
      </trkpt>
      <trkpt lat="42.8873640" lon="0.5029060">
        <ele>1477.2</ele>
        <time>2020-07-24T13:14:13Z</time>
      </trkpt>
      <trkpt lat="42.8873260" lon="0.5028920">
        <ele>1477.6</ele>
        <time>2020-07-24T13:14:15Z</time>
      </trkpt>
      <trkpt lat="42.8873070" lon="0.5028860">
        <ele>1477.8</ele>
        <time>2020-07-24T13:14:16Z</time>
      </trkpt>
      <trkpt lat="42.8872090" lon="0.5028340">
        <ele>1479.0</ele>
        <time>2020-07-24T13:14:21Z</time>
      </trkpt>
      <trkpt lat="42.8871270" lon="0.5027720">
        <ele>1480.4</ele>
        <time>2020-07-24T13:14:25Z</time>
      </trkpt>
      <trkpt lat="42.8870560" lon="0.5027450">
        <ele>1481.4</ele>
        <time>2020-07-24T13:14:28Z</time>
      </trkpt>
      <trkpt lat="42.8869870" lon="0.5027230">
        <ele>1482.0</ele>
        <time>2020-07-24T13:14:31Z</time>
      </trkpt>
      <trkpt lat="42.8869640" lon="0.5027190">
        <ele>1482.4</ele>
        <time>2020-07-24T13:14:32Z</time>
      </trkpt>
      <trkpt lat="42.8868640" lon="0.5026850">
        <ele>1483.6</ele>
        <time>2020-07-24T13:14:37Z</time>
      </trkpt>
      <trkpt lat="42.8868300" lon="0.5026740">
        <ele>1483.8</ele>
        <time>2020-07-24T13:14:39Z</time>
      </trkpt>
      <trkpt lat="42.8867620" lon="0.5026440">
        <ele>1484.8</ele>
        <time>2020-07-24T13:14:43Z</time>
      </trkpt>
      <trkpt lat="42.8867150" lon="0.5025910">
        <ele>1485.6</ele>
        <time>2020-07-24T13:14:46Z</time>
      </trkpt>
      <trkpt lat="42.8867000" lon="0.5025710">
        <ele>1486.0</ele>
        <time>2020-07-24T13:14:47Z</time>
      </trkpt>
      <trkpt lat="42.8866150" lon="0.5024510">
        <ele>1487.2</ele>
        <time>2020-07-24T13:14:53Z</time>
      </trkpt>
      <trkpt lat="42.8865920" lon="0.5024370">
        <ele>1487.6</ele>
        <time>2020-07-24T13:14:54Z</time>
      </trkpt>
      <trkpt lat="42.8865500" lon="0.5024080">
        <ele>1488.2</ele>
        <time>2020-07-24T13:14:56Z</time>
      </trkpt>
      <trkpt lat="42.8864670" lon="0.5023410">
        <ele>1489.4</ele>
        <time>2020-07-24T13:15:00Z</time>
      </trkpt>
      <trkpt lat="42.8864280" lon="0.5023050">
        <ele>1490.2</ele>
        <time>2020-07-24T13:15:02Z</time>
      </trkpt>
      <trkpt lat="42.8864070" lon="0.5022880">
        <ele>1490.6</ele>
        <time>2020-07-24T13:15:03Z</time>
      </trkpt>
      <trkpt lat="42.8863270" lon="0.5021700">
        <ele>1491.6</ele>
        <time>2020-07-24T13:15:08Z</time>
      </trkpt>
      <trkpt lat="42.8862750" lon="0.5020730">
        <ele>1492.8</ele>
        <time>2020-07-24T13:15:12Z</time>
      </trkpt>
      <trkpt lat="42.8862160" lon="0.5020180">
        <ele>1494.0</ele>
        <time>2020-07-24T13:15:15Z</time>
      </trkpt>
      <trkpt lat="42.8861950" lon="0.5020020">
        <ele>1494.4</ele>
        <time>2020-07-24T13:15:16Z</time>
      </trkpt>
      <trkpt lat="42.8861310" lon="0.5019630">
        <ele>1495.2</ele>
        <time>2020-07-24T13:15:19Z</time>
      </trkpt>
      <trkpt lat="42.8860290" lon="0.5019420">
        <ele>1496.2</ele>
        <time>2020-07-24T13:15:24Z</time>
      </trkpt>
      <trkpt lat="42.8859270" lon="0.5019660">
        <ele>1497.4</ele>
        <time>2020-07-24T13:15:29Z</time>
      </trkpt>
      <trkpt lat="42.8859090" lon="0.5019730">
        <ele>1497.8</ele>
        <time>2020-07-24T13:15:30Z</time>
      </trkpt>
      <trkpt lat="42.8858660" lon="0.5019670">
        <ele>1498.4</ele>
        <time>2020-07-24T13:15:32Z</time>
      </trkpt>
      <trkpt lat="42.8857870" lon="0.5019240">
        <ele>1499.2</ele>
        <time>2020-07-24T13:15:36Z</time>
      </trkpt>
      <trkpt lat="42.8857660" lon="0.5019120">
        <ele>1499.4</ele>
        <time>2020-07-24T13:15:37Z</time>
      </trkpt>
      <trkpt lat="42.8857140" lon="0.5018710">
        <ele>1500.6</ele>
        <time>2020-07-24T13:15:40Z</time>
      </trkpt>
      <trkpt lat="42.8856890" lon="0.5018330">
        <ele>1501.2</ele>
        <time>2020-07-24T13:15:42Z</time>
      </trkpt>
      <trkpt lat="42.8856210" lon="0.5017830">
        <ele>1501.8</ele>
        <time>2020-07-24T13:15:46Z</time>
      </trkpt>
      <trkpt lat="42.8855880" lon="0.5017520">
        <ele>1502.6</ele>
        <time>2020-07-24T13:15:48Z</time>
      </trkpt>
      <trkpt lat="42.8855520" lon="0.5017290">
        <ele>1503.0</ele>
        <time>2020-07-24T13:15:50Z</time>
      </trkpt>
      <trkpt lat="42.8854730" lon="0.5016830">
        <ele>1504.0</ele>
        <time>2020-07-24T13:15:54Z</time>
      </trkpt>
      <trkpt lat="42.8854510" lon="0.5016780">
        <ele>1504.4</ele>
        <time>2020-07-24T13:15:55Z</time>
      </trkpt>
      <trkpt lat="42.8853650" lon="0.5017240">
        <ele>1505.4</ele>
        <time>2020-07-24T13:15:59Z</time>
      </trkpt>
      <trkpt lat="42.8853450" lon="0.5017420">
        <ele>1505.6</ele>
        <time>2020-07-24T13:16:00Z</time>
      </trkpt>
      <trkpt lat="42.8852690" lon="0.5018480">
        <ele>1506.4</ele>
        <time>2020-07-24T13:16:05Z</time>
      </trkpt>
      <trkpt lat="42.8852400" lon="0.5018930">
        <ele>1507.0</ele>
        <time>2020-07-24T13:16:07Z</time>
      </trkpt>
      <trkpt lat="42.8852210" lon="0.5019490">
        <ele>1507.6</ele>
        <time>2020-07-24T13:16:09Z</time>
      </trkpt>
      <trkpt lat="42.8851870" lon="0.5020470">
        <ele>1508.6</ele>
        <time>2020-07-24T13:16:12Z</time>
      </trkpt>
      <trkpt lat="42.8851720" lon="0.5020780">
        <ele>1509.0</ele>
        <time>2020-07-24T13:16:13Z</time>
      </trkpt>
      <trkpt lat="42.8851230" lon="0.5021530">
        <ele>1510.0</ele>
        <time>2020-07-24T13:16:16Z</time>
      </trkpt>
      <trkpt lat="42.8850610" lon="0.5022610">
        <ele>1511.2</ele>
        <time>2020-07-24T13:16:20Z</time>
      </trkpt>
      <trkpt lat="42.8850430" lon="0.5022840">
        <ele>1511.4</ele>
        <time>2020-07-24T13:16:21Z</time>
      </trkpt>
      <trkpt lat="42.8850250" lon="0.5023070">
        <ele>1511.6</ele>
        <time>2020-07-24T13:16:22Z</time>
      </trkpt>
      <trkpt lat="42.8850090" lon="0.5023300">
        <ele>1512.0</ele>
        <time>2020-07-24T13:16:23Z</time>
      </trkpt>
      <trkpt lat="42.8849920" lon="0.5023500">
        <ele>1512.2</ele>
        <time>2020-07-24T13:16:24Z</time>
      </trkpt>
      <trkpt lat="42.8848990" lon="0.5024500">
        <ele>1513.4</ele>
        <time>2020-07-24T13:16:29Z</time>
      </trkpt>
      <trkpt lat="42.8848210" lon="0.5025030">
        <ele>1514.4</ele>
        <time>2020-07-24T13:16:33Z</time>
      </trkpt>
      <trkpt lat="42.8847490" lon="0.5025590">
        <ele>1515.0</ele>
        <time>2020-07-24T13:16:37Z</time>
      </trkpt>
      <trkpt lat="42.8847170" lon="0.5025890">
        <ele>1515.4</ele>
        <time>2020-07-24T13:16:39Z</time>
      </trkpt>
      <trkpt lat="42.8846560" lon="0.5026790">
        <ele>1516.4</ele>
        <time>2020-07-24T13:16:43Z</time>
      </trkpt>
      <trkpt lat="42.8846330" lon="0.5027350">
        <ele>1517.0</ele>
        <time>2020-07-24T13:16:45Z</time>
      </trkpt>
      <trkpt lat="42.8846030" lon="0.5028550">
        <ele>1517.6</ele>
        <time>2020-07-24T13:16:49Z</time>
      </trkpt>
      <trkpt lat="42.8845840" lon="0.5029820">
        <ele>1518.6</ele>
        <time>2020-07-24T13:16:53Z</time>
      </trkpt>
      <trkpt lat="42.8845270" lon="0.5031450">
        <ele>1519.6</ele>
        <time>2020-07-24T13:16:59Z</time>
      </trkpt>
      <trkpt lat="42.8845170" lon="0.5032070">
        <ele>1520.2</ele>
        <time>2020-07-24T13:17:01Z</time>
      </trkpt>
      <trkpt lat="42.8845010" lon="0.5032700">
        <ele>1521.0</ele>
        <time>2020-07-24T13:17:03Z</time>
      </trkpt>
      <trkpt lat="42.8844700" lon="0.5033880">
        <ele>1522.0</ele>
        <time>2020-07-24T13:17:07Z</time>
      </trkpt>
      <trkpt lat="42.8844650" lon="0.5034190">
        <ele>1522.2</ele>
        <time>2020-07-24T13:17:08Z</time>
      </trkpt>
      <trkpt lat="42.8844440" lon="0.5035110">
        <ele>1523.0</ele>
        <time>2020-07-24T13:17:11Z</time>
      </trkpt>
      <trkpt lat="42.8844350" lon="0.5035910">
        <ele>1524.0</ele>
        <time>2020-07-24T13:17:14Z</time>
      </trkpt>
      <trkpt lat="42.8844320" lon="0.5036170">
        <ele>1524.2</ele>
        <time>2020-07-24T13:17:15Z</time>
      </trkpt>
      <trkpt lat="42.8844270" lon="0.5036700">
        <ele>1524.4</ele>
        <time>2020-07-24T13:17:17Z</time>
      </trkpt>
      <trkpt lat="42.8844500" lon="0.5037950">
        <ele>1525.2</ele>
        <time>2020-07-24T13:17:22Z</time>
      </trkpt>
      <trkpt lat="42.8844580" lon="0.5038410">
        <ele>1525.4</ele>
        <time>2020-07-24T13:17:24Z</time>
      </trkpt>
      <trkpt lat="42.8844790" lon="0.5039270">
        <ele>1526.2</ele>
        <time>2020-07-24T13:17:28Z</time>
      </trkpt>
      <trkpt lat="42.8844770" lon="0.5039810">
        <ele>1526.8</ele>
        <time>2020-07-24T13:17:30Z</time>
      </trkpt>
      <trkpt lat="42.8844780" lon="0.5040050">
        <ele>1527.4</ele>
        <time>2020-07-24T13:17:31Z</time>
      </trkpt>
      <trkpt lat="42.8845030" lon="0.5040920">
        <ele>1528.6</ele>
        <time>2020-07-24T13:17:35Z</time>
      </trkpt>
      <trkpt lat="42.8845080" lon="0.5041180">
        <ele>1529.0</ele>
        <time>2020-07-24T13:17:36Z</time>
      </trkpt>
      <trkpt lat="42.8845210" lon="0.5041890">
        <ele>1529.8</ele>
        <time>2020-07-24T13:17:39Z</time>
      </trkpt>
      <trkpt lat="42.8845520" lon="0.5042820">
        <ele>1531.0</ele>
        <time>2020-07-24T13:17:43Z</time>
      </trkpt>
      <trkpt lat="42.8845590" lon="0.5043030">
        <ele>1531.0</ele>
        <time>2020-07-24T13:17:44Z</time>
      </trkpt>
      <trkpt lat="42.8845830" lon="0.5043970">
        <ele>1531.8</ele>
        <time>2020-07-24T13:17:48Z</time>
      </trkpt>
      <trkpt lat="42.8845860" lon="0.5044200">
        <ele>1532.0</ele>
        <time>2020-07-24T13:17:49Z</time>
      </trkpt>
      <trkpt lat="42.8846010" lon="0.5044770">
        <ele>1532.8</ele>
        <time>2020-07-24T13:17:52Z</time>
      </trkpt>
      <trkpt lat="42.8846420" lon="0.5045060">
        <ele>1533.2</ele>
        <time>2020-07-24T13:17:54Z</time>
      </trkpt>
      <trkpt lat="42.8846580" lon="0.5045380">
        <ele>1533.8</ele>
        <time>2020-07-24T13:17:56Z</time>
      </trkpt>
      <trkpt lat="42.8846460" lon="0.5045840">
        <ele>1534.4</ele>
        <time>2020-07-24T13:17:58Z</time>
      </trkpt>
      <trkpt lat="42.8846340" lon="0.5046090">
        <ele>1534.6</ele>
        <time>2020-07-24T13:17:59Z</time>
      </trkpt>
      <trkpt lat="42.8845500" lon="0.5046750">
        <ele>1535.6</ele>
        <time>2020-07-24T13:18:03Z</time>
      </trkpt>
      <trkpt lat="42.8845320" lon="0.5046810">
        <ele>1535.6</ele>
        <time>2020-07-24T13:18:04Z</time>
      </trkpt>
      <trkpt lat="42.8844420" lon="0.5046870">
        <ele>1536.4</ele>
        <time>2020-07-24T13:18:10Z</time>
      </trkpt>
      <trkpt lat="42.8844140" lon="0.5046850">
        <ele>1536.6</ele>
        <time>2020-07-24T13:18:12Z</time>
      </trkpt>
      <trkpt lat="42.8844000" lon="0.5046880">
        <ele>1536.6</ele>
        <time>2020-07-24T13:18:13Z</time>
      </trkpt>
      <trkpt lat="42.8842520" lon="0.5047010">
        <ele>1537.6</ele>
        <time>2020-07-24T13:18:38Z</time>
      </trkpt>
      <trkpt lat="42.8842340" lon="0.5046940">
        <ele>1537.8</ele>
        <time>2020-07-24T13:18:39Z</time>
      </trkpt>
      <trkpt lat="42.8841870" lon="0.5046850">
        <ele>1538.0</ele>
        <time>2020-07-24T13:18:41Z</time>
      </trkpt>
      <trkpt lat="42.8840490" lon="0.5046550">
        <ele>1538.4</ele>
        <time>2020-07-24T13:18:46Z</time>
      </trkpt>
      <trkpt lat="42.8839910" lon="0.5046210">
        <ele>1538.6</ele>
        <time>2020-07-24T13:18:48Z</time>
      </trkpt>
      <trkpt lat="42.8839390" lon="0.5045730">
        <ele>1538.8</ele>
        <time>2020-07-24T13:18:50Z</time>
      </trkpt>
      <trkpt lat="42.8838500" lon="0.5044320">
        <ele>1539.6</ele>
        <time>2020-07-24T13:18:54Z</time>
      </trkpt>
      <trkpt lat="42.8837990" lon="0.5043660">
        <ele>1540.0</ele>
        <time>2020-07-24T13:18:56Z</time>
      </trkpt>
      <trkpt lat="42.8836730" lon="0.5042230">
        <ele>1541.0</ele>
        <time>2020-07-24T13:19:01Z</time>
      </trkpt>
      <trkpt lat="42.8836490" lon="0.5042030">
        <ele>1541.2</ele>
        <time>2020-07-24T13:19:02Z</time>
      </trkpt>
      <trkpt lat="42.8835980" lon="0.5041670">
        <ele>1541.6</ele>
        <time>2020-07-24T13:19:04Z</time>
      </trkpt>
      <trkpt lat="42.8835470" lon="0.5041390">
        <ele>1542.0</ele>
        <time>2020-07-24T13:19:06Z</time>
      </trkpt>
      <trkpt lat="42.8834950" lon="0.5041190">
        <ele>1542.4</ele>
        <time>2020-07-24T13:19:08Z</time>
      </trkpt>
      <trkpt lat="42.8834410" lon="0.5041010">
        <ele>1542.8</ele>
        <time>2020-07-24T13:19:10Z</time>
      </trkpt>
      <trkpt lat="42.8833670" lon="0.5040640">
        <ele>1543.2</ele>
        <time>2020-07-24T13:19:13Z</time>
      </trkpt>
      <trkpt lat="42.8832880" lon="0.5040380">
        <ele>1543.6</ele>
        <time>2020-07-24T13:19:17Z</time>
      </trkpt>
      <trkpt lat="42.8831960" lon="0.5040190">
        <ele>1543.6</ele>
        <time>2020-07-24T13:19:23Z</time>
      </trkpt>
      <trkpt lat="42.8830700" lon="0.5040120">
        <ele>1544.0</ele>
        <time>2020-07-24T13:19:29Z</time>
      </trkpt>
      <trkpt lat="42.8830450" lon="0.5040120">
        <ele>1544.2</ele>
        <time>2020-07-24T13:19:30Z</time>
      </trkpt>
      <trkpt lat="42.8828700" lon="0.5040390">
        <ele>1545.2</ele>
        <time>2020-07-24T13:19:36Z</time>
      </trkpt>
      <trkpt lat="42.8828370" lon="0.5040430">
        <ele>1545.2</ele>
        <time>2020-07-24T13:19:37Z</time>
      </trkpt>
      <trkpt lat="42.8828050" lon="0.5040480">
        <ele>1545.4</ele>
        <time>2020-07-24T13:19:38Z</time>
      </trkpt>
      <trkpt lat="42.8827730" lon="0.5040510">
        <ele>1545.4</ele>
        <time>2020-07-24T13:19:39Z</time>
      </trkpt>
      <trkpt lat="42.8826040" lon="0.5040370">
        <ele>1546.2</ele>
        <time>2020-07-24T13:19:44Z</time>
      </trkpt>
      <trkpt lat="42.8825720" lon="0.5040350">
        <ele>1546.6</ele>
        <time>2020-07-24T13:19:45Z</time>
      </trkpt>
      <trkpt lat="42.8825420" lon="0.5040320">
        <ele>1547.0</ele>
        <time>2020-07-24T13:19:46Z</time>
      </trkpt>
      <trkpt lat="42.8824230" lon="0.5040070">
        <ele>1547.6</ele>
        <time>2020-07-24T13:19:50Z</time>
      </trkpt>
      <trkpt lat="42.8823020" lon="0.5039840">
        <ele>1548.4</ele>
        <time>2020-07-24T13:19:54Z</time>
      </trkpt>
      <trkpt lat="42.8822710" lon="0.5039740">
        <ele>1548.6</ele>
        <time>2020-07-24T13:19:55Z</time>
      </trkpt>
      <trkpt lat="42.8821260" lon="0.5039460">
        <ele>1549.8</ele>
        <time>2020-07-24T13:20:00Z</time>
      </trkpt>
      <trkpt lat="42.8820700" lon="0.5039350">
        <ele>1550.4</ele>
        <time>2020-07-24T13:20:02Z</time>
      </trkpt>
      <trkpt lat="42.8820140" lon="0.5039310">
        <ele>1551.2</ele>
        <time>2020-07-24T13:20:04Z</time>
      </trkpt>
      <trkpt lat="42.8818740" lon="0.5039060">
        <ele>1552.2</ele>
        <time>2020-07-24T13:20:09Z</time>
      </trkpt>
      <trkpt lat="42.8817620" lon="0.5038580">
        <ele>1553.2</ele>
        <time>2020-07-24T13:20:13Z</time>
      </trkpt>
      <trkpt lat="42.8817020" lon="0.5038030">
        <ele>1553.8</ele>
        <time>2020-07-24T13:20:16Z</time>
      </trkpt>
      <trkpt lat="42.8816390" lon="0.5037270">
        <ele>1554.2</ele>
        <time>2020-07-24T13:20:22Z</time>
      </trkpt>
      <trkpt lat="42.8816020" lon="0.5036500">
        <ele>1555.0</ele>
        <time>2020-07-24T13:20:28Z</time>
      </trkpt>
      <trkpt lat="42.8815820" lon="0.5036040">
        <ele>1555.2</ele>
        <time>2020-07-24T13:20:31Z</time>
      </trkpt>
      <trkpt lat="42.8815430" lon="0.5035630">
        <ele>1555.4</ele>
        <time>2020-07-24T13:20:34Z</time>
      </trkpt>
      <trkpt lat="42.8814880" lon="0.5035200">
        <ele>1555.8</ele>
        <time>2020-07-24T13:20:38Z</time>
      </trkpt>
      <trkpt lat="42.8814410" lon="0.5034670">
        <ele>1556.6</ele>
        <time>2020-07-24T13:20:42Z</time>
      </trkpt>
      <trkpt lat="42.8813780" lon="0.5034220">
        <ele>1557.0</ele>
        <time>2020-07-24T13:20:46Z</time>
      </trkpt>
      <trkpt lat="42.8812950" lon="0.5033830">
        <ele>1557.8</ele>
        <time>2020-07-24T13:20:50Z</time>
      </trkpt>
      <trkpt lat="42.8812170" lon="0.5033490">
        <ele>1558.6</ele>
        <time>2020-07-24T13:20:54Z</time>
      </trkpt>
      <trkpt lat="42.8811930" lon="0.5033440">
        <ele>1558.8</ele>
        <time>2020-07-24T13:20:55Z</time>
      </trkpt>
      <trkpt lat="42.8810520" lon="0.5033240">
        <ele>1559.6</ele>
        <time>2020-07-24T13:21:01Z</time>
      </trkpt>
      <trkpt lat="42.8810300" lon="0.5033200">
        <ele>1559.8</ele>
        <time>2020-07-24T13:21:02Z</time>
      </trkpt>
      <trkpt lat="42.8809200" lon="0.5032830">
        <ele>1561.0</ele>
        <time>2020-07-24T13:21:07Z</time>
      </trkpt>
      <trkpt lat="42.8808770" lon="0.5032760">
        <ele>1561.4</ele>
        <time>2020-07-24T13:21:09Z</time>
      </trkpt>
      <trkpt lat="42.8807420" lon="0.5032500">
        <ele>1562.2</ele>
        <time>2020-07-24T13:21:15Z</time>
      </trkpt>
      <trkpt lat="42.8806940" lon="0.5032380">
        <ele>1562.6</ele>
        <time>2020-07-24T13:21:17Z</time>
      </trkpt>
      <trkpt lat="42.8806230" lon="0.5032180">
        <ele>1563.4</ele>
        <time>2020-07-24T13:21:20Z</time>
      </trkpt>
      <trkpt lat="42.8805630" lon="0.5031930">
        <ele>1564.2</ele>
        <time>2020-07-24T13:21:23Z</time>
      </trkpt>
      <trkpt lat="42.8805020" lon="0.5031690">
        <ele>1564.6</ele>
        <time>2020-07-24T13:21:26Z</time>
      </trkpt>
      <trkpt lat="42.8804770" lon="0.5031630">
        <ele>1564.6</ele>
        <time>2020-07-24T13:21:27Z</time>
      </trkpt>
      <trkpt lat="42.8804520" lon="0.5031580">
        <ele>1564.6</ele>
        <time>2020-07-24T13:21:28Z</time>
      </trkpt>
      <trkpt lat="42.8803580" lon="0.5031230">
        <ele>1565.6</ele>
        <time>2020-07-24T13:21:32Z</time>
      </trkpt>
      <trkpt lat="42.8803110" lon="0.5030930">
        <ele>1566.2</ele>
        <time>2020-07-24T13:21:34Z</time>
      </trkpt>
      <trkpt lat="42.8802870" lon="0.5030780">
        <ele>1566.4</ele>
        <time>2020-07-24T13:21:35Z</time>
      </trkpt>
      <trkpt lat="42.8802450" lon="0.5030400">
        <ele>1566.6</ele>
        <time>2020-07-24T13:21:37Z</time>
      </trkpt>
      <trkpt lat="42.8801770" lon="0.5029520">
        <ele>1568.0</ele>
        <time>2020-07-24T13:21:41Z</time>
      </trkpt>
      <trkpt lat="42.8801620" lon="0.5029300">
        <ele>1568.2</ele>
        <time>2020-07-24T13:21:42Z</time>
      </trkpt>
      <trkpt lat="42.8800460" lon="0.5027690">
        <ele>1569.2</ele>
        <time>2020-07-24T13:21:48Z</time>
      </trkpt>
      <trkpt lat="42.8799860" lon="0.5026800">
        <ele>1570.2</ele>
        <time>2020-07-24T13:21:51Z</time>
      </trkpt>
      <trkpt lat="42.8799120" lon="0.5025610">
        <ele>1571.2</ele>
        <time>2020-07-24T13:21:55Z</time>
      </trkpt>
      <trkpt lat="42.8798930" lon="0.5025330">
        <ele>1571.4</ele>
        <time>2020-07-24T13:21:56Z</time>
      </trkpt>
      <trkpt lat="42.8798370" lon="0.5024030">
        <ele>1572.4</ele>
        <time>2020-07-24T13:22:00Z</time>
      </trkpt>
      <trkpt lat="42.8798270" lon="0.5023660">
        <ele>1572.6</ele>
        <time>2020-07-24T13:22:01Z</time>
      </trkpt>
      <trkpt lat="42.8798070" lon="0.5022020">
        <ele>1573.6</ele>
        <time>2020-07-24T13:22:05Z</time>
      </trkpt>
      <trkpt lat="42.8798020" lon="0.5020630">
        <ele>1574.8</ele>
        <time>2020-07-24T13:22:08Z</time>
      </trkpt>
      <trkpt lat="42.8797670" lon="0.5018800">
        <ele>1575.2</ele>
        <time>2020-07-24T13:22:12Z</time>
      </trkpt>
      <trkpt lat="42.8797400" lon="0.5017960">
        <ele>1575.6</ele>
        <time>2020-07-24T13:22:14Z</time>
      </trkpt>
      <trkpt lat="42.8797260" lon="0.5017560">
        <ele>1576.0</ele>
        <time>2020-07-24T13:22:15Z</time>
      </trkpt>
      <trkpt lat="42.8796500" lon="0.5015580">
        <ele>1577.0</ele>
        <time>2020-07-24T13:22:20Z</time>
      </trkpt>
      <trkpt lat="42.8795630" lon="0.5014290">
        <ele>1578.4</ele>
        <time>2020-07-24T13:22:24Z</time>
      </trkpt>
      <trkpt lat="42.8794040" lon="0.5013760">
        <ele>1579.0</ele>
        <time>2020-07-24T13:22:29Z</time>
      </trkpt>
      <trkpt lat="42.8792760" lon="0.5014020">
        <ele>1579.4</ele>
        <time>2020-07-24T13:22:33Z</time>
      </trkpt>
      <trkpt lat="42.8791880" lon="0.5014130">
        <ele>1580.8</ele>
        <time>2020-07-24T13:22:36Z</time>
      </trkpt>
      <trkpt lat="42.8790780" lon="0.5014680">
        <ele>1582.0</ele>
        <time>2020-07-24T13:22:40Z</time>
      </trkpt>
      <trkpt lat="42.8790290" lon="0.5015070">
        <ele>1582.4</ele>
        <time>2020-07-24T13:22:42Z</time>
      </trkpt>
      <trkpt lat="42.8789550" lon="0.5015740">
        <ele>1583.0</ele>
        <time>2020-07-24T13:22:45Z</time>
      </trkpt>
      <trkpt lat="42.8788750" lon="0.5016370">
        <ele>1583.8</ele>
        <time>2020-07-24T13:22:48Z</time>
      </trkpt>
      <trkpt lat="42.8788490" lon="0.5016540">
        <ele>1584.2</ele>
        <time>2020-07-24T13:22:49Z</time>
      </trkpt>
      <trkpt lat="42.8787970" lon="0.5016870">
        <ele>1584.8</ele>
        <time>2020-07-24T13:22:51Z</time>
      </trkpt>
      <trkpt lat="42.8787340" lon="0.5017550">
        <ele>1585.2</ele>
        <time>2020-07-24T13:22:54Z</time>
      </trkpt>
      <trkpt lat="42.8787040" lon="0.5018180">
        <ele>1585.8</ele>
        <time>2020-07-24T13:22:56Z</time>
      </trkpt>
      <trkpt lat="42.8786910" lon="0.5018860">
        <ele>1586.4</ele>
        <time>2020-07-24T13:22:58Z</time>
      </trkpt>
      <trkpt lat="42.8786910" lon="0.5019210">
        <ele>1586.4</ele>
        <time>2020-07-24T13:22:59Z</time>
      </trkpt>
      <trkpt lat="42.8786970" lon="0.5019940">
        <ele>1586.8</ele>
        <time>2020-07-24T13:23:01Z</time>
      </trkpt>
      <trkpt lat="42.8787060" lon="0.5020650">
        <ele>1587.4</ele>
        <time>2020-07-24T13:23:03Z</time>
      </trkpt>
      <trkpt lat="42.8787220" lon="0.5022100">
        <ele>1588.6</ele>
        <time>2020-07-24T13:23:07Z</time>
      </trkpt>
      <trkpt lat="42.8787480" lon="0.5023290">
        <ele>1589.6</ele>
        <time>2020-07-24T13:23:10Z</time>
      </trkpt>
      <trkpt lat="42.8787560" lon="0.5023680">
        <ele>1590.0</ele>
        <time>2020-07-24T13:23:11Z</time>
      </trkpt>
      <trkpt lat="42.8787670" lon="0.5024340">
        <ele>1590.4</ele>
        <time>2020-07-24T13:23:13Z</time>
      </trkpt>
      <trkpt lat="42.8788180" lon="0.5026040">
        <ele>1591.0</ele>
        <time>2020-07-24T13:23:42Z</time>
      </trkpt>
      <trkpt lat="42.8788170" lon="0.5026270">
        <ele>1591.2</ele>
        <time>2020-07-24T13:23:43Z</time>
      </trkpt>
      <trkpt lat="42.8788210" lon="0.5026550">
        <ele>1591.4</ele>
        <time>2020-07-24T13:23:44Z</time>
      </trkpt>
      <trkpt lat="42.8788530" lon="0.5027840">
        <ele>1592.2</ele>
        <time>2020-07-24T13:23:48Z</time>
      </trkpt>
      <trkpt lat="42.8788790" lon="0.5028530">
        <ele>1592.4</ele>
        <time>2020-07-24T13:23:50Z</time>
      </trkpt>
      <trkpt lat="42.8789140" lon="0.5029640">
        <ele>1593.2</ele>
        <time>2020-07-24T13:23:53Z</time>
      </trkpt>
      <trkpt lat="42.8789550" lon="0.5031750">
        <ele>1594.2</ele>
        <time>2020-07-24T13:23:58Z</time>
      </trkpt>
      <trkpt lat="42.8789580" lon="0.5032640">
        <ele>1595.2</ele>
        <time>2020-07-24T13:24:00Z</time>
      </trkpt>
      <trkpt lat="42.8789550" lon="0.5033080">
        <ele>1595.6</ele>
        <time>2020-07-24T13:24:01Z</time>
      </trkpt>
      <trkpt lat="42.8789390" lon="0.5034380">
        <ele>1596.2</ele>
        <time>2020-07-24T13:24:04Z</time>
      </trkpt>
      <trkpt lat="42.8789030" lon="0.5035600">
        <ele>1596.8</ele>
        <time>2020-07-24T13:24:07Z</time>
      </trkpt>
      <trkpt lat="42.8788670" lon="0.5036270">
        <ele>1597.2</ele>
        <time>2020-07-24T13:24:09Z</time>
      </trkpt>
      <trkpt lat="42.8788220" lon="0.5036750">
        <ele>1597.8</ele>
        <time>2020-07-24T13:24:11Z</time>
      </trkpt>
      <trkpt lat="42.8787410" lon="0.5037260">
        <ele>1599.0</ele>
        <time>2020-07-24T13:24:14Z</time>
      </trkpt>
      <trkpt lat="42.8787120" lon="0.5037400">
        <ele>1599.4</ele>
        <time>2020-07-24T13:24:15Z</time>
      </trkpt>
      <trkpt lat="42.8786540" lon="0.5037710">
        <ele>1600.0</ele>
        <time>2020-07-24T13:24:17Z</time>
      </trkpt>
      <trkpt lat="42.8785300" lon="0.5038910">
        <ele>1601.0</ele>
        <time>2020-07-24T13:24:22Z</time>
      </trkpt>
      <trkpt lat="42.8785060" lon="0.5039200">
        <ele>1601.0</ele>
        <time>2020-07-24T13:24:23Z</time>
      </trkpt>
      <trkpt lat="42.8784200" lon="0.5040370">
        <ele>1602.0</ele>
        <time>2020-07-24T13:24:27Z</time>
      </trkpt>
      <trkpt lat="42.8783970" lon="0.5040620">
        <ele>1602.2</ele>
        <time>2020-07-24T13:24:28Z</time>
      </trkpt>
      <trkpt lat="42.8783510" lon="0.5041130">
        <ele>1603.0</ele>
        <time>2020-07-24T13:24:30Z</time>
      </trkpt>
      <trkpt lat="42.8783040" lon="0.5041600">
        <ele>1603.4</ele>
        <time>2020-07-24T13:24:32Z</time>
      </trkpt>
      <trkpt lat="42.8782120" lon="0.5042520">
        <ele>1604.4</ele>
        <time>2020-07-24T13:24:36Z</time>
      </trkpt>
      <trkpt lat="42.8781650" lon="0.5042990">
        <ele>1605.0</ele>
        <time>2020-07-24T13:24:38Z</time>
      </trkpt>
      <trkpt lat="42.8781420" lon="0.5043220">
        <ele>1605.2</ele>
        <time>2020-07-24T13:24:39Z</time>
      </trkpt>
      <trkpt lat="42.8781220" lon="0.5043440">
        <ele>1605.4</ele>
        <time>2020-07-24T13:24:40Z</time>
      </trkpt>
      <trkpt lat="42.8780150" lon="0.5044540">
        <ele>1606.8</ele>
        <time>2020-07-24T13:24:45Z</time>
      </trkpt>
      <trkpt lat="42.8779490" lon="0.5045170">
        <ele>1608.0</ele>
        <time>2020-07-24T13:24:48Z</time>
      </trkpt>
      <trkpt lat="42.8779280" lon="0.5045370">
        <ele>1608.4</ele>
        <time>2020-07-24T13:24:49Z</time>
      </trkpt>
      <trkpt lat="42.8778670" lon="0.5045940">
        <ele>1608.8</ele>
        <time>2020-07-24T13:24:52Z</time>
      </trkpt>
      <trkpt lat="42.8778460" lon="0.5046140">
        <ele>1609.2</ele>
        <time>2020-07-24T13:24:53Z</time>
      </trkpt>
      <trkpt lat="42.8778040" lon="0.5046530">
        <ele>1609.6</ele>
        <time>2020-07-24T13:24:55Z</time>
      </trkpt>
      <trkpt lat="42.8777590" lon="0.5046910">
        <ele>1610.2</ele>
        <time>2020-07-24T13:24:57Z</time>
      </trkpt>
      <trkpt lat="42.8777110" lon="0.5047260">
        <ele>1610.6</ele>
        <time>2020-07-24T13:24:59Z</time>
      </trkpt>
      <trkpt lat="42.8776180" lon="0.5047870">
        <ele>1611.4</ele>
        <time>2020-07-24T13:25:03Z</time>
      </trkpt>
      <trkpt lat="42.8775470" lon="0.5048310">
        <ele>1612.4</ele>
        <time>2020-07-24T13:25:06Z</time>
      </trkpt>
      <trkpt lat="42.8775230" lon="0.5048460">
        <ele>1612.8</ele>
        <time>2020-07-24T13:25:07Z</time>
      </trkpt>
      <trkpt lat="42.8774540" lon="0.5048900">
        <ele>1613.6</ele>
        <time>2020-07-24T13:25:10Z</time>
      </trkpt>
      <trkpt lat="42.8773630" lon="0.5049540">
        <ele>1614.4</ele>
        <time>2020-07-24T13:25:14Z</time>
      </trkpt>
      <trkpt lat="42.8773170" lon="0.5049830">
        <ele>1614.6</ele>
        <time>2020-07-24T13:25:16Z</time>
      </trkpt>
      <trkpt lat="42.8771990" lon="0.5050360">
        <ele>1615.8</ele>
        <time>2020-07-24T13:25:21Z</time>
      </trkpt>
      <trkpt lat="42.8771470" lon="0.5050450">
        <ele>1616.4</ele>
        <time>2020-07-24T13:25:23Z</time>
      </trkpt>
      <trkpt lat="42.8770900" lon="0.5050420">
        <ele>1617.0</ele>
        <time>2020-07-24T13:25:25Z</time>
      </trkpt>
      <trkpt lat="42.8770610" lon="0.5050330">
        <ele>1617.2</ele>
        <time>2020-07-24T13:25:26Z</time>
      </trkpt>
      <trkpt lat="42.8770040" lon="0.5050030">
        <ele>1618.0</ele>
        <time>2020-07-24T13:25:28Z</time>
      </trkpt>
      <trkpt lat="42.8769780" lon="0.5049810">
        <ele>1618.2</ele>
        <time>2020-07-24T13:25:29Z</time>
      </trkpt>
      <trkpt lat="42.8768710" lon="0.5048860">
        <ele>1619.0</ele>
        <time>2020-07-24T13:25:33Z</time>
      </trkpt>
      <trkpt lat="42.8767680" lon="0.5047990">
        <ele>1620.2</ele>
        <time>2020-07-24T13:25:37Z</time>
      </trkpt>
      <trkpt lat="42.8767220" lon="0.5047620">
        <ele>1621.0</ele>
        <time>2020-07-24T13:25:39Z</time>
      </trkpt>
      <trkpt lat="42.8766840" lon="0.5047380">
        <ele>1621.4</ele>
        <time>2020-07-24T13:25:41Z</time>
      </trkpt>
      <trkpt lat="42.8766270" lon="0.5046860">
        <ele>1621.6</ele>
        <time>2020-07-24T13:25:44Z</time>
      </trkpt>
      <trkpt lat="42.8765430" lon="0.5046170">
        <ele>1622.4</ele>
        <time>2020-07-24T13:25:48Z</time>
      </trkpt>
      <trkpt lat="42.8764600" lon="0.5045540">
        <ele>1623.4</ele>
        <time>2020-07-24T13:25:52Z</time>
      </trkpt>
      <trkpt lat="42.8763750" lon="0.5044870">
        <ele>1624.8</ele>
        <time>2020-07-24T13:25:56Z</time>
      </trkpt>
      <trkpt lat="42.8763060" lon="0.5044350">
        <ele>1625.6</ele>
        <time>2020-07-24T13:25:59Z</time>
      </trkpt>
      <trkpt lat="42.8762620" lon="0.5043980">
        <ele>1626.0</ele>
        <time>2020-07-24T13:26:01Z</time>
      </trkpt>
      <trkpt lat="42.8762410" lon="0.5043810">
        <ele>1626.0</ele>
        <time>2020-07-24T13:26:02Z</time>
      </trkpt>
      <trkpt lat="42.8761550" lon="0.5043070">
        <ele>1627.0</ele>
        <time>2020-07-24T13:26:06Z</time>
      </trkpt>
      <trkpt lat="42.8761330" lon="0.5042890">
        <ele>1627.2</ele>
        <time>2020-07-24T13:26:07Z</time>
      </trkpt>
      <trkpt lat="42.8760380" lon="0.5042510">
        <ele>1628.2</ele>
        <time>2020-07-24T13:26:11Z</time>
      </trkpt>
      <trkpt lat="42.8760120" lon="0.5042550">
        <ele>1628.4</ele>
        <time>2020-07-24T13:26:12Z</time>
      </trkpt>
      <trkpt lat="42.8759320" lon="0.5042910">
        <ele>1629.4</ele>
        <time>2020-07-24T13:26:15Z</time>
      </trkpt>
      <trkpt lat="42.8758630" lon="0.5043360">
        <ele>1630.0</ele>
        <time>2020-07-24T13:26:18Z</time>
      </trkpt>
      <trkpt lat="42.8757590" lon="0.5044230">
        <ele>1630.4</ele>
        <time>2020-07-24T13:26:22Z</time>
      </trkpt>
      <trkpt lat="42.8756780" lon="0.5045000">
        <ele>1631.0</ele>
        <time>2020-07-24T13:26:25Z</time>
      </trkpt>
      <trkpt lat="42.8756220" lon="0.5045460">
        <ele>1631.6</ele>
        <time>2020-07-24T13:26:27Z</time>
      </trkpt>
      <trkpt lat="42.8754770" lon="0.5046540">
        <ele>1632.6</ele>
        <time>2020-07-24T13:26:32Z</time>
      </trkpt>
      <trkpt lat="42.8754190" lon="0.5046980">
        <ele>1633.0</ele>
        <time>2020-07-24T13:26:34Z</time>
      </trkpt>
      <trkpt lat="42.8753330" lon="0.5047660">
        <ele>1633.8</ele>
        <time>2020-07-24T13:26:37Z</time>
      </trkpt>
      <trkpt lat="42.8751930" lon="0.5048640">
        <ele>1634.6</ele>
        <time>2020-07-24T13:26:42Z</time>
      </trkpt>
      <trkpt lat="42.8751670" lon="0.5048800">
        <ele>1635.0</ele>
        <time>2020-07-24T13:26:43Z</time>
      </trkpt>
      <trkpt lat="42.8750980" lon="0.5049360">
        <ele>1636.0</ele>
        <time>2020-07-24T13:26:46Z</time>
      </trkpt>
      <trkpt lat="42.8750310" lon="0.5049890">
        <ele>1636.6</ele>
        <time>2020-07-24T13:26:49Z</time>
      </trkpt>
      <trkpt lat="42.8749880" lon="0.5050360">
        <ele>1637.0</ele>
        <time>2020-07-24T13:26:51Z</time>
      </trkpt>
      <trkpt lat="42.8749660" lon="0.5050630">
        <ele>1637.4</ele>
        <time>2020-07-24T13:26:52Z</time>
      </trkpt>
      <trkpt lat="42.8749010" lon="0.5051380">
        <ele>1638.2</ele>
        <time>2020-07-24T13:26:55Z</time>
      </trkpt>
      <trkpt lat="42.8747610" lon="0.5052200">
        <ele>1639.4</ele>
        <time>2020-07-24T13:27:00Z</time>
      </trkpt>
      <trkpt lat="42.8747290" lon="0.5052180">
        <ele>1639.6</ele>
        <time>2020-07-24T13:27:01Z</time>
      </trkpt>
      <trkpt lat="42.8745730" lon="0.5051250">
        <ele>1640.4</ele>
        <time>2020-07-24T13:27:07Z</time>
      </trkpt>
      <trkpt lat="42.8744790" lon="0.5050540">
        <ele>1641.6</ele>
        <time>2020-07-24T13:27:11Z</time>
      </trkpt>
      <trkpt lat="42.8744090" lon="0.5049930">
        <ele>1642.8</ele>
        <time>2020-07-24T13:27:14Z</time>
      </trkpt>
      <trkpt lat="42.8743360" lon="0.5049340">
        <ele>1643.8</ele>
        <time>2020-07-24T13:27:17Z</time>
      </trkpt>
      <trkpt lat="42.8742060" lon="0.5048030">
        <ele>1645.0</ele>
        <time>2020-07-24T13:27:23Z</time>
      </trkpt>
      <trkpt lat="42.8741870" lon="0.5047770">
        <ele>1645.0</ele>
        <time>2020-07-24T13:27:24Z</time>
      </trkpt>
      <trkpt lat="42.8741010" lon="0.5046940">
        <ele>1646.0</ele>
        <time>2020-07-24T13:27:28Z</time>
      </trkpt>
      <trkpt lat="42.8740310" lon="0.5046490">
        <ele>1646.4</ele>
        <time>2020-07-24T13:27:31Z</time>
      </trkpt>
      <trkpt lat="42.8739290" lon="0.5046230">
        <ele>1647.2</ele>
        <time>2020-07-24T13:27:35Z</time>
      </trkpt>
      <trkpt lat="42.8738600" lon="0.5045970">
        <ele>1648.0</ele>
        <time>2020-07-24T13:27:38Z</time>
      </trkpt>
      <trkpt lat="42.8738110" lon="0.5045780">
        <ele>1648.2</ele>
        <time>2020-07-24T13:27:40Z</time>
      </trkpt>
      <trkpt lat="42.8737100" lon="0.5045540">
        <ele>1649.2</ele>
        <time>2020-07-24T13:27:44Z</time>
      </trkpt>
      <trkpt lat="42.8736870" lon="0.5045480">
        <ele>1649.4</ele>
        <time>2020-07-24T13:27:45Z</time>
      </trkpt>
      <trkpt lat="42.8736630" lon="0.5045430">
        <ele>1649.4</ele>
        <time>2020-07-24T13:27:46Z</time>
      </trkpt>
      <trkpt lat="42.8736390" lon="0.5045380">
        <ele>1649.6</ele>
        <time>2020-07-24T13:27:47Z</time>
      </trkpt>
      <trkpt lat="42.8735490" lon="0.5045330">
        <ele>1650.6</ele>
        <time>2020-07-24T13:27:51Z</time>
      </trkpt>
      <trkpt lat="42.8734830" lon="0.5045570">
        <ele>1651.4</ele>
        <time>2020-07-24T13:27:54Z</time>
      </trkpt>
      <trkpt lat="42.8734620" lon="0.5045730">
        <ele>1651.8</ele>
        <time>2020-07-24T13:27:55Z</time>
      </trkpt>
      <trkpt lat="42.8734270" lon="0.5046110">
        <ele>1652.2</ele>
        <time>2020-07-24T13:27:57Z</time>
      </trkpt>
      <trkpt lat="42.8733850" lon="0.5046900">
        <ele>1652.6</ele>
        <time>2020-07-24T13:28:00Z</time>
      </trkpt>
      <trkpt lat="42.8733730" lon="0.5047650">
        <ele>1653.2</ele>
        <time>2020-07-24T13:28:02Z</time>
      </trkpt>
      <trkpt lat="42.8733750" lon="0.5048780">
        <ele>1654.4</ele>
        <time>2020-07-24T13:28:05Z</time>
      </trkpt>
      <trkpt lat="42.8733720" lon="0.5050320">
        <ele>1655.4</ele>
        <time>2020-07-24T13:28:09Z</time>
      </trkpt>
      <trkpt lat="42.8733430" lon="0.5051770">
        <ele>1656.2</ele>
        <time>2020-07-24T13:28:13Z</time>
      </trkpt>
      <trkpt lat="42.8733240" lon="0.5052450">
        <ele>1656.6</ele>
        <time>2020-07-24T13:28:15Z</time>
      </trkpt>
      <trkpt lat="42.8732750" lon="0.5053810">
        <ele>1657.0</ele>
        <time>2020-07-24T13:28:19Z</time>
      </trkpt>
      <trkpt lat="42.8732540" lon="0.5054470">
        <ele>1657.4</ele>
        <time>2020-07-24T13:28:21Z</time>
      </trkpt>
      <trkpt lat="42.8732440" lon="0.5054780">
        <ele>1657.6</ele>
        <time>2020-07-24T13:28:22Z</time>
      </trkpt>
      <trkpt lat="42.8732330" lon="0.5055090">
        <ele>1657.6</ele>
        <time>2020-07-24T13:28:23Z</time>
      </trkpt>
      <trkpt lat="42.8732070" lon="0.5055770">
        <ele>1658.0</ele>
        <time>2020-07-24T13:28:26Z</time>
      </trkpt>
      <trkpt lat="42.8732010" lon="0.5055970">
        <ele>1658.2</ele>
        <time>2020-07-24T13:28:28Z</time>
      </trkpt>
      <trkpt lat="42.8732010" lon="0.5055840">
        <ele>1658.2</ele>
        <time>2020-07-24T13:28:30Z</time>
      </trkpt>
      <trkpt lat="42.8732000" lon="0.5055890">
        <ele>1657.6</ele>
        <time>2020-07-24T13:29:13Z</time>
      </trkpt>
      <trkpt lat="42.8731990" lon="0.5055960">
        <ele>1657.6</ele>
        <time>2020-07-24T13:29:14Z</time>
      </trkpt>
      <trkpt lat="42.8731980" lon="0.5056130">
        <ele>1657.6</ele>
        <time>2020-07-24T13:29:15Z</time>
      </trkpt>
      <trkpt lat="42.8731910" lon="0.5057010">
        <ele>1657.6</ele>
        <time>2020-07-24T13:29:18Z</time>
      </trkpt>
      <trkpt lat="42.8731260" lon="0.5059990">
        <ele>1658.4</ele>
        <time>2020-07-24T13:29:24Z</time>
      </trkpt>
      <trkpt lat="42.8731120" lon="0.5060520">
        <ele>1658.6</ele>
        <time>2020-07-24T13:29:25Z</time>
      </trkpt>
      <trkpt lat="42.8730980" lon="0.5061060">
        <ele>1659.0</ele>
        <time>2020-07-24T13:29:26Z</time>
      </trkpt>
      <trkpt lat="42.8730680" lon="0.5062670">
        <ele>1659.8</ele>
        <time>2020-07-24T13:29:29Z</time>
      </trkpt>
      <trkpt lat="42.8730480" lon="0.5063670">
        <ele>1660.0</ele>
        <time>2020-07-24T13:29:31Z</time>
      </trkpt>
      <trkpt lat="42.8730330" lon="0.5064640">
        <ele>1660.8</ele>
        <time>2020-07-24T13:29:33Z</time>
      </trkpt>
      <trkpt lat="42.8729960" lon="0.5065880">
        <ele>1661.8</ele>
        <time>2020-07-24T13:29:36Z</time>
      </trkpt>
      <trkpt lat="42.8729690" lon="0.5066040">
        <ele>1662.0</ele>
        <time>2020-07-24T13:29:37Z</time>
      </trkpt>
      <trkpt lat="42.8729250" lon="0.5065350">
        <ele>1662.8</ele>
        <time>2020-07-24T13:29:40Z</time>
      </trkpt>
      <trkpt lat="42.8729320" lon="0.5064980">
        <ele>1663.2</ele>
        <time>2020-07-24T13:29:41Z</time>
      </trkpt>
      <trkpt lat="42.8729490" lon="0.5063830">
        <ele>1664.8</ele>
        <time>2020-07-24T13:29:44Z</time>
      </trkpt>
      <trkpt lat="42.8729580" lon="0.5062720">
        <ele>1665.8</ele>
        <time>2020-07-24T13:29:47Z</time>
      </trkpt>
      <trkpt lat="42.8729680" lon="0.5062030">
        <ele>1666.2</ele>
        <time>2020-07-24T13:29:49Z</time>
      </trkpt>
      <trkpt lat="42.8729770" lon="0.5061400">
        <ele>1666.8</ele>
        <time>2020-07-24T13:29:51Z</time>
      </trkpt>
      <trkpt lat="42.8729870" lon="0.5060480">
        <ele>1667.6</ele>
        <time>2020-07-24T13:29:54Z</time>
      </trkpt>
      <trkpt lat="42.8729890" lon="0.5060180">
        <ele>1667.8</ele>
        <time>2020-07-24T13:29:55Z</time>
      </trkpt>
      <trkpt lat="42.8729900" lon="0.5059890">
        <ele>1668.0</ele>
        <time>2020-07-24T13:29:56Z</time>
      </trkpt>
      <trkpt lat="42.8730010" lon="0.5058020">
        <ele>1669.4</ele>
        <time>2020-07-24T13:30:02Z</time>
      </trkpt>
      <trkpt lat="42.8730090" lon="0.5057690">
        <ele>1669.8</ele>
        <time>2020-07-24T13:30:05Z</time>
      </trkpt>
      <trkpt lat="42.8730090" lon="0.5056160">
        <ele>1670.4</ele>
        <time>2020-07-24T13:30:32Z</time>
      </trkpt>
      <trkpt lat="42.8730130" lon="0.5055880">
        <ele>1670.4</ele>
        <time>2020-07-24T13:30:33Z</time>
      </trkpt>
      <trkpt lat="42.8730310" lon="0.5054710">
        <ele>1671.2</ele>
        <time>2020-07-24T13:30:36Z</time>
      </trkpt>
      <trkpt lat="42.8730370" lon="0.5054260">
        <ele>1671.6</ele>
        <time>2020-07-24T13:30:37Z</time>
      </trkpt>
      <trkpt lat="42.8730430" lon="0.5053800">
        <ele>1671.8</ele>
        <time>2020-07-24T13:30:38Z</time>
      </trkpt>
      <trkpt lat="42.8730420" lon="0.5052410">
        <ele>1672.6</ele>
        <time>2020-07-24T13:30:41Z</time>
      </trkpt>
      <trkpt lat="42.8730300" lon="0.5051530">
        <ele>1673.4</ele>
        <time>2020-07-24T13:30:43Z</time>
      </trkpt>
      <trkpt lat="42.8730240" lon="0.5051120">
        <ele>1674.0</ele>
        <time>2020-07-24T13:30:44Z</time>
      </trkpt>
      <trkpt lat="42.8730000" lon="0.5049900">
        <ele>1674.8</ele>
        <time>2020-07-24T13:30:47Z</time>
      </trkpt>
      <trkpt lat="42.8729770" lon="0.5049170">
        <ele>1675.2</ele>
        <time>2020-07-24T13:30:49Z</time>
      </trkpt>
      <trkpt lat="42.8729360" lon="0.5048070">
        <ele>1676.2</ele>
        <time>2020-07-24T13:30:52Z</time>
      </trkpt>
      <trkpt lat="42.8729170" lon="0.5047730">
        <ele>1676.6</ele>
        <time>2020-07-24T13:30:53Z</time>
      </trkpt>
      <trkpt lat="42.8728670" lon="0.5046610">
        <ele>1677.4</ele>
        <time>2020-07-24T13:30:56Z</time>
      </trkpt>
      <trkpt lat="42.8728570" lon="0.5046170">
        <ele>1677.6</ele>
        <time>2020-07-24T13:30:57Z</time>
      </trkpt>
      <trkpt lat="42.8728530" lon="0.5045730">
        <ele>1678.0</ele>
        <time>2020-07-24T13:30:58Z</time>
      </trkpt>
      <trkpt lat="42.8728970" lon="0.5044110">
        <ele>1678.8</ele>
        <time>2020-07-24T13:31:02Z</time>
      </trkpt>
      <trkpt lat="42.8729500" lon="0.5042070">
        <ele>1679.8</ele>
        <time>2020-07-24T13:31:07Z</time>
      </trkpt>
      <trkpt lat="42.8729570" lon="0.5041590">
        <ele>1680.0</ele>
        <time>2020-07-24T13:31:08Z</time>
      </trkpt>
      <trkpt lat="42.8729800" lon="0.5040360">
        <ele>1681.0</ele>
        <time>2020-07-24T13:31:11Z</time>
      </trkpt>
      <trkpt lat="42.8730140" lon="0.5038860">
        <ele>1682.4</ele>
        <time>2020-07-24T13:31:15Z</time>
      </trkpt>
      <trkpt lat="42.8730490" lon="0.5037450">
        <ele>1683.6</ele>
        <time>2020-07-24T13:31:19Z</time>
      </trkpt>
      <trkpt lat="42.8730620" lon="0.5037150">
        <ele>1683.8</ele>
        <time>2020-07-24T13:31:20Z</time>
      </trkpt>
      <trkpt lat="42.8730890" lon="0.5036560">
        <ele>1684.2</ele>
        <time>2020-07-24T13:31:22Z</time>
      </trkpt>
      <trkpt lat="42.8731240" lon="0.5036030">
        <ele>1685.0</ele>
        <time>2020-07-24T13:31:24Z</time>
      </trkpt>
      <trkpt lat="42.8731660" lon="0.5035180">
        <ele>1686.0</ele>
        <time>2020-07-24T13:31:27Z</time>
      </trkpt>
      <trkpt lat="42.8731920" lon="0.5034580">
        <ele>1686.4</ele>
        <time>2020-07-24T13:31:29Z</time>
      </trkpt>
      <trkpt lat="42.8732320" lon="0.5033650">
        <ele>1687.0</ele>
        <time>2020-07-24T13:31:32Z</time>
      </trkpt>
      <trkpt lat="42.8732850" lon="0.5032880">
        <ele>1688.2</ele>
        <time>2020-07-24T13:31:35Z</time>
      </trkpt>
      <trkpt lat="42.8733080" lon="0.5032700">
        <ele>1688.6</ele>
        <time>2020-07-24T13:31:36Z</time>
      </trkpt>
      <trkpt lat="42.8733560" lon="0.5032430">
        <ele>1689.4</ele>
        <time>2020-07-24T13:31:38Z</time>
      </trkpt>
      <trkpt lat="42.8734590" lon="0.5032000">
        <ele>1690.2</ele>
        <time>2020-07-24T13:31:42Z</time>
      </trkpt>
      <trkpt lat="42.8734860" lon="0.5031990">
        <ele>1690.4</ele>
        <time>2020-07-24T13:31:43Z</time>
      </trkpt>
      <trkpt lat="42.8736150" lon="0.5032510">
        <ele>1691.6</ele>
        <time>2020-07-24T13:31:48Z</time>
      </trkpt>
      <trkpt lat="42.8736590" lon="0.5032870">
        <ele>1692.0</ele>
        <time>2020-07-24T13:31:50Z</time>
      </trkpt>
      <trkpt lat="42.8737680" lon="0.5033730">
        <ele>1693.0</ele>
        <time>2020-07-24T13:31:54Z</time>
      </trkpt>
      <trkpt lat="42.8738530" lon="0.5034240">
        <ele>1694.0</ele>
        <time>2020-07-24T13:31:57Z</time>
      </trkpt>
      <trkpt lat="42.8739710" lon="0.5034630">
        <ele>1695.2</ele>
        <time>2020-07-24T13:32:01Z</time>
      </trkpt>
      <trkpt lat="42.8740810" lon="0.5034880">
        <ele>1696.4</ele>
        <time>2020-07-24T13:32:05Z</time>
      </trkpt>
      <trkpt lat="42.8741380" lon="0.5034990">
        <ele>1697.0</ele>
        <time>2020-07-24T13:32:07Z</time>
      </trkpt>
      <trkpt lat="42.8741980" lon="0.5035060">
        <ele>1697.4</ele>
        <time>2020-07-24T13:32:09Z</time>
      </trkpt>
      <trkpt lat="42.8742270" lon="0.5035070">
        <ele>1697.6</ele>
        <time>2020-07-24T13:32:10Z</time>
      </trkpt>
      <trkpt lat="42.8743710" lon="0.5035000">
        <ele>1698.8</ele>
        <time>2020-07-24T13:32:15Z</time>
      </trkpt>
      <trkpt lat="42.8744730" lon="0.5034260">
        <ele>1700.0</ele>
        <time>2020-07-24T13:32:19Z</time>
      </trkpt>
      <trkpt lat="42.8745170" lon="0.5033750">
        <ele>1700.4</ele>
        <time>2020-07-24T13:32:21Z</time>
      </trkpt>
      <trkpt lat="42.8745750" lon="0.5032960">
        <ele>1701.2</ele>
        <time>2020-07-24T13:32:24Z</time>
      </trkpt>
      <trkpt lat="42.8746340" lon="0.5032270">
        <ele>1702.2</ele>
        <time>2020-07-24T13:32:27Z</time>
      </trkpt>
      <trkpt lat="42.8746700" lon="0.5031800">
        <ele>1702.8</ele>
        <time>2020-07-24T13:32:29Z</time>
      </trkpt>
      <trkpt lat="42.8747070" lon="0.5031330">
        <ele>1703.6</ele>
        <time>2020-07-24T13:32:31Z</time>
      </trkpt>
      <trkpt lat="42.8747590" lon="0.5030600">
        <ele>1704.6</ele>
        <time>2020-07-24T13:32:34Z</time>
      </trkpt>
      <trkpt lat="42.8748350" lon="0.5029500">
        <ele>1705.8</ele>
        <time>2020-07-24T13:32:38Z</time>
      </trkpt>
      <trkpt lat="42.8749160" lon="0.5028320">
        <ele>1706.8</ele>
        <time>2020-07-24T13:32:42Z</time>
      </trkpt>
      <trkpt lat="42.8749820" lon="0.5027500">
        <ele>1707.6</ele>
        <time>2020-07-24T13:32:45Z</time>
      </trkpt>
      <trkpt lat="42.8750030" lon="0.5027240">
        <ele>1708.0</ele>
        <time>2020-07-24T13:32:46Z</time>
      </trkpt>
      <trkpt lat="42.8750600" lon="0.5026440">
        <ele>1709.2</ele>
        <time>2020-07-24T13:32:49Z</time>
      </trkpt>
      <trkpt lat="42.8751240" lon="0.5025190">
        <ele>1710.2</ele>
        <time>2020-07-24T13:32:53Z</time>
      </trkpt>
      <trkpt lat="42.8751480" lon="0.5023380">
        <ele>1711.4</ele>
        <time>2020-07-24T13:32:58Z</time>
      </trkpt>
      <trkpt lat="42.8751430" lon="0.5023010">
        <ele>1711.8</ele>
        <time>2020-07-24T13:32:59Z</time>
      </trkpt>
      <trkpt lat="42.8751020" lon="0.5021560">
        <ele>1712.6</ele>
        <time>2020-07-24T13:33:03Z</time>
      </trkpt>
      <trkpt lat="42.8750580" lon="0.5020580">
        <ele>1713.6</ele>
        <time>2020-07-24T13:33:06Z</time>
      </trkpt>
      <trkpt lat="42.8750410" lon="0.5020280">
        <ele>1713.8</ele>
        <time>2020-07-24T13:33:07Z</time>
      </trkpt>
      <trkpt lat="42.8749260" lon="0.5018410">
        <ele>1715.0</ele>
        <time>2020-07-24T13:33:13Z</time>
      </trkpt>
      <trkpt lat="42.8748360" lon="0.5016930">
        <ele>1716.4</ele>
        <time>2020-07-24T13:33:18Z</time>
      </trkpt>
      <trkpt lat="42.8747820" lon="0.5016080">
        <ele>1717.4</ele>
        <time>2020-07-24T13:33:21Z</time>
      </trkpt>
      <trkpt lat="42.8747450" lon="0.5015550">
        <ele>1717.6</ele>
        <time>2020-07-24T13:33:23Z</time>
      </trkpt>
      <trkpt lat="42.8747260" lon="0.5015280">
        <ele>1717.8</ele>
        <time>2020-07-24T13:33:24Z</time>
      </trkpt>
      <trkpt lat="42.8746900" lon="0.5014740">
        <ele>1718.0</ele>
        <time>2020-07-24T13:33:26Z</time>
      </trkpt>
      <trkpt lat="42.8746560" lon="0.5014190">
        <ele>1718.4</ele>
        <time>2020-07-24T13:33:28Z</time>
      </trkpt>
      <trkpt lat="42.8746050" lon="0.5013340">
        <ele>1719.6</ele>
        <time>2020-07-24T13:33:31Z</time>
      </trkpt>
      <trkpt lat="42.8745560" lon="0.5012480">
        <ele>1720.0</ele>
        <time>2020-07-24T13:33:34Z</time>
      </trkpt>
      <trkpt lat="42.8745220" lon="0.5011910">
        <ele>1720.8</ele>
        <time>2020-07-24T13:33:36Z</time>
      </trkpt>
      <trkpt lat="42.8744620" lon="0.5010730">
        <ele>1722.2</ele>
        <time>2020-07-24T13:33:40Z</time>
      </trkpt>
      <trkpt lat="42.8744000" lon="0.5009580">
        <ele>1723.2</ele>
        <time>2020-07-24T13:33:44Z</time>
      </trkpt>
      <trkpt lat="42.8743280" lon="0.5008010">
        <ele>1724.2</ele>
        <time>2020-07-24T13:33:49Z</time>
      </trkpt>
      <trkpt lat="42.8743110" lon="0.5007740">
        <ele>1724.2</ele>
        <time>2020-07-24T13:33:50Z</time>
      </trkpt>
      <trkpt lat="42.8742260" lon="0.5006360">
        <ele>1725.2</ele>
        <time>2020-07-24T13:33:56Z</time>
      </trkpt>
      <trkpt lat="42.8742460" lon="0.5006110">
        <ele>1727.0</ele>
        <time>2020-07-24T13:50:06Z</time>
      </trkpt>
      <trkpt lat="42.8742320" lon="0.5006030">
        <ele>1726.8</ele>
        <time>2020-07-24T13:50:09Z</time>
      </trkpt>
      <trkpt lat="42.8742190" lon="0.5006000">
        <ele>1726.6</ele>
        <time>2020-07-24T13:50:11Z</time>
      </trkpt>
      <trkpt lat="42.8742160" lon="0.5006000">
        <ele>1726.4</ele>
        <time>2020-07-24T13:50:13Z</time>
      </trkpt>
      <trkpt lat="42.8741910" lon="0.5005830">
        <ele>1726.2</ele>
        <time>2020-07-24T13:50:16Z</time>
      </trkpt>
      <trkpt lat="42.8741570" lon="0.5005280">
        <ele>1726.2</ele>
        <time>2020-07-24T13:50:19Z</time>
      </trkpt>
      <trkpt lat="42.8741220" lon="0.5004480">
        <ele>1726.2</ele>
        <time>2020-07-24T13:50:22Z</time>
      </trkpt>
      <trkpt lat="42.8740560" lon="0.5003440">
        <ele>1726.0</ele>
        <time>2020-07-24T13:50:26Z</time>
      </trkpt>
      <trkpt lat="42.8739720" lon="0.5002190">
        <ele>1725.8</ele>
        <time>2020-07-24T13:50:31Z</time>
      </trkpt>
      <trkpt lat="42.8739320" lon="0.5001520">
        <ele>1725.2</ele>
        <time>2020-07-24T13:50:33Z</time>
      </trkpt>
      <trkpt lat="42.8738860" lon="0.5000600">
        <ele>1724.8</ele>
        <time>2020-07-24T13:50:35Z</time>
      </trkpt>
      <trkpt lat="42.8737890" lon="0.4998760">
        <ele>1723.8</ele>
        <time>2020-07-24T13:50:38Z</time>
      </trkpt>
      <trkpt lat="42.8737500" lon="0.4998050">
        <ele>1723.6</ele>
        <time>2020-07-24T13:50:39Z</time>
      </trkpt>
      <trkpt lat="42.8735770" lon="0.4994850">
        <ele>1723.0</ele>
        <time>2020-07-24T13:50:43Z</time>
      </trkpt>
      <trkpt lat="42.8734840" lon="0.4993150">
        <ele>1722.4</ele>
        <time>2020-07-24T13:50:45Z</time>
      </trkpt>
      <trkpt lat="42.8733420" lon="0.4990300">
        <ele>1721.0</ele>
        <time>2020-07-24T13:50:48Z</time>
      </trkpt>
      <trkpt lat="42.8732950" lon="0.4989300">
        <ele>1720.4</ele>
        <time>2020-07-24T13:50:49Z</time>
      </trkpt>
      <trkpt lat="42.8732450" lon="0.4988280">
        <ele>1719.8</ele>
        <time>2020-07-24T13:50:50Z</time>
      </trkpt>
      <trkpt lat="42.8730700" lon="0.4985480">
        <ele>1718.2</ele>
        <time>2020-07-24T13:50:53Z</time>
      </trkpt>
      <trkpt lat="42.8730080" lon="0.4984600">
        <ele>1717.6</ele>
        <time>2020-07-24T13:50:54Z</time>
      </trkpt>
      <trkpt lat="42.8729510" lon="0.4983710">
        <ele>1717.2</ele>
        <time>2020-07-24T13:50:55Z</time>
      </trkpt>
      <trkpt lat="42.8728980" lon="0.4982780">
        <ele>1716.6</ele>
        <time>2020-07-24T13:50:56Z</time>
      </trkpt>
      <trkpt lat="42.8728550" lon="0.4981780">
        <ele>1715.8</ele>
        <time>2020-07-24T13:50:57Z</time>
      </trkpt>
      <trkpt lat="42.8728220" lon="0.4980710">
        <ele>1715.0</ele>
        <time>2020-07-24T13:50:58Z</time>
      </trkpt>
      <trkpt lat="42.8727980" lon="0.4979600">
        <ele>1714.2</ele>
        <time>2020-07-24T13:50:59Z</time>
      </trkpt>
      <trkpt lat="42.8727840" lon="0.4978460">
        <ele>1713.4</ele>
        <time>2020-07-24T13:51:00Z</time>
      </trkpt>
      <trkpt lat="42.8727820" lon="0.4977310">
        <ele>1712.8</ele>
        <time>2020-07-24T13:51:01Z</time>
      </trkpt>
      <trkpt lat="42.8727920" lon="0.4976120">
        <ele>1712.2</ele>
        <time>2020-07-24T13:51:02Z</time>
      </trkpt>
      <trkpt lat="42.8728380" lon="0.4973650">
        <ele>1711.6</ele>
        <time>2020-07-24T13:51:04Z</time>
      </trkpt>
      <trkpt lat="42.8728700" lon="0.4972450">
        <ele>1711.2</ele>
        <time>2020-07-24T13:51:05Z</time>
      </trkpt>
      <trkpt lat="42.8729090" lon="0.4971330">
        <ele>1710.6</ele>
        <time>2020-07-24T13:51:06Z</time>
      </trkpt>
      <trkpt lat="42.8729560" lon="0.4970300">
        <ele>1710.2</ele>
        <time>2020-07-24T13:51:07Z</time>
      </trkpt>
      <trkpt lat="42.8730040" lon="0.4969390">
        <ele>1709.8</ele>
        <time>2020-07-24T13:51:08Z</time>
      </trkpt>
      <trkpt lat="42.8730800" lon="0.4967890">
        <ele>1708.8</ele>
        <time>2020-07-24T13:51:10Z</time>
      </trkpt>
      <trkpt lat="42.8730950" lon="0.4967230">
        <ele>1707.8</ele>
        <time>2020-07-24T13:51:11Z</time>
      </trkpt>
      <trkpt lat="42.8730860" lon="0.4966630">
        <ele>1706.8</ele>
        <time>2020-07-24T13:51:12Z</time>
      </trkpt>
      <trkpt lat="42.8730550" lon="0.4966140">
        <ele>1705.6</ele>
        <time>2020-07-24T13:51:13Z</time>
      </trkpt>
      <trkpt lat="42.8730110" lon="0.4965820">
        <ele>1704.4</ele>
        <time>2020-07-24T13:51:14Z</time>
      </trkpt>
      <trkpt lat="42.8728980" lon="0.4965270">
        <ele>1703.0</ele>
        <time>2020-07-24T13:51:16Z</time>
      </trkpt>
      <trkpt lat="42.8726970" lon="0.4964200">
        <ele>1701.6</ele>
        <time>2020-07-24T13:51:19Z</time>
      </trkpt>
      <trkpt lat="42.8726190" lon="0.4964030">
        <ele>1701.2</ele>
        <time>2020-07-24T13:51:20Z</time>
      </trkpt>
      <trkpt lat="42.8725360" lon="0.4964020">
        <ele>1701.0</ele>
        <time>2020-07-24T13:51:21Z</time>
      </trkpt>
      <trkpt lat="42.8724490" lon="0.4964130">
        <ele>1700.6</ele>
        <time>2020-07-24T13:51:22Z</time>
      </trkpt>
      <trkpt lat="42.8723570" lon="0.4964330">
        <ele>1700.4</ele>
        <time>2020-07-24T13:51:23Z</time>
      </trkpt>
      <trkpt lat="42.8720910" lon="0.4964830">
        <ele>1699.0</ele>
        <time>2020-07-24T13:51:26Z</time>
      </trkpt>
      <trkpt lat="42.8720120" lon="0.4964710">
        <ele>1698.0</ele>
        <time>2020-07-24T13:51:27Z</time>
      </trkpt>
      <trkpt lat="42.8719420" lon="0.4964370">
        <ele>1696.8</ele>
        <time>2020-07-24T13:51:28Z</time>
      </trkpt>
      <trkpt lat="42.8718210" lon="0.4963270">
        <ele>1695.4</ele>
        <time>2020-07-24T13:51:30Z</time>
      </trkpt>
      <trkpt lat="42.8717070" lon="0.4962000">
        <ele>1694.0</ele>
        <time>2020-07-24T13:51:32Z</time>
      </trkpt>
      <trkpt lat="42.8715820" lon="0.4960590">
        <ele>1693.0</ele>
        <time>2020-07-24T13:51:34Z</time>
      </trkpt>
      <trkpt lat="42.8714610" lon="0.4958920">
        <ele>1692.2</ele>
        <time>2020-07-24T13:51:36Z</time>
      </trkpt>
      <trkpt lat="42.8714120" lon="0.4957960">
        <ele>1691.8</ele>
        <time>2020-07-24T13:51:37Z</time>
      </trkpt>
      <trkpt lat="42.8713710" lon="0.4956960">
        <ele>1691.6</ele>
        <time>2020-07-24T13:51:38Z</time>
      </trkpt>
      <trkpt lat="42.8713250" lon="0.4954950">
        <ele>1690.8</ele>
        <time>2020-07-24T13:51:40Z</time>
      </trkpt>
      <trkpt lat="42.8712980" lon="0.4953270">
        <ele>1689.2</ele>
        <time>2020-07-24T13:51:42Z</time>
      </trkpt>
      <trkpt lat="42.8712650" lon="0.4952640">
        <ele>1688.4</ele>
        <time>2020-07-24T13:51:43Z</time>
      </trkpt>
      <trkpt lat="42.8712120" lon="0.4952220">
        <ele>1687.6</ele>
        <time>2020-07-24T13:51:44Z</time>
      </trkpt>
      <trkpt lat="42.8711550" lon="0.4951770">
        <ele>1686.8</ele>
        <time>2020-07-24T13:51:45Z</time>
      </trkpt>
      <trkpt lat="42.8711050" lon="0.4951090">
        <ele>1686.2</ele>
        <time>2020-07-24T13:51:46Z</time>
      </trkpt>
      <trkpt lat="42.8710700" lon="0.4950140">
        <ele>1685.8</ele>
        <time>2020-07-24T13:51:47Z</time>
      </trkpt>
      <trkpt lat="42.8710490" lon="0.4949020">
        <ele>1685.2</ele>
        <time>2020-07-24T13:51:48Z</time>
      </trkpt>
      <trkpt lat="42.8710380" lon="0.4947820">
        <ele>1684.6</ele>
        <time>2020-07-24T13:51:49Z</time>
      </trkpt>
      <trkpt lat="42.8710260" lon="0.4946630">
        <ele>1684.2</ele>
        <time>2020-07-24T13:51:50Z</time>
      </trkpt>
      <trkpt lat="42.8710050" lon="0.4945510">
        <ele>1683.6</ele>
        <time>2020-07-24T13:51:51Z</time>
      </trkpt>
      <trkpt lat="42.8709690" lon="0.4944470">
        <ele>1683.0</ele>
        <time>2020-07-24T13:51:52Z</time>
      </trkpt>
      <trkpt lat="42.8709210" lon="0.4943520">
        <ele>1682.2</ele>
        <time>2020-07-24T13:51:53Z</time>
      </trkpt>
      <trkpt lat="42.8708650" lon="0.4942630">
        <ele>1681.2</ele>
        <time>2020-07-24T13:51:54Z</time>
      </trkpt>
      <trkpt lat="42.8707510" lon="0.4940910">
        <ele>1679.6</ele>
        <time>2020-07-24T13:51:56Z</time>
      </trkpt>
      <trkpt lat="42.8707070" lon="0.4939990">
        <ele>1678.8</ele>
        <time>2020-07-24T13:51:57Z</time>
      </trkpt>
      <trkpt lat="42.8706660" lon="0.4939080">
        <ele>1678.0</ele>
        <time>2020-07-24T13:51:58Z</time>
      </trkpt>
      <trkpt lat="42.8706220" lon="0.4938260">
        <ele>1677.0</ele>
        <time>2020-07-24T13:51:59Z</time>
      </trkpt>
      <trkpt lat="42.8705690" lon="0.4937570">
        <ele>1676.2</ele>
        <time>2020-07-24T13:52:00Z</time>
      </trkpt>
      <trkpt lat="42.8705050" lon="0.4936980">
        <ele>1675.6</ele>
        <time>2020-07-24T13:52:01Z</time>
      </trkpt>
      <trkpt lat="42.8704330" lon="0.4936400">
        <ele>1674.8</ele>
        <time>2020-07-24T13:52:02Z</time>
      </trkpt>
      <trkpt lat="42.8703600" lon="0.4935680">
        <ele>1674.2</ele>
        <time>2020-07-24T13:52:03Z</time>
      </trkpt>
      <trkpt lat="42.8702870" lon="0.4934790">
        <ele>1673.4</ele>
        <time>2020-07-24T13:52:04Z</time>
      </trkpt>
      <trkpt lat="42.8702150" lon="0.4933820">
        <ele>1672.6</ele>
        <time>2020-07-24T13:52:05Z</time>
      </trkpt>
      <trkpt lat="42.8701410" lon="0.4932870">
        <ele>1671.6</ele>
        <time>2020-07-24T13:52:06Z</time>
      </trkpt>
      <trkpt lat="42.8699940" lon="0.4931130">
        <ele>1670.0</ele>
        <time>2020-07-24T13:52:08Z</time>
      </trkpt>
      <trkpt lat="42.8698620" lon="0.4929780">
        <ele>1668.4</ele>
        <time>2020-07-24T13:52:10Z</time>
      </trkpt>
      <trkpt lat="42.8697950" lon="0.4929340">
        <ele>1666.8</ele>
        <time>2020-07-24T13:52:11Z</time>
      </trkpt>
      <trkpt lat="42.8697220" lon="0.4929010">
        <ele>1665.8</ele>
        <time>2020-07-24T13:52:12Z</time>
      </trkpt>
      <trkpt lat="42.8696480" lon="0.4928620">
        <ele>1665.0</ele>
        <time>2020-07-24T13:52:13Z</time>
      </trkpt>
      <trkpt lat="42.8695710" lon="0.4928110">
        <ele>1664.4</ele>
        <time>2020-07-24T13:52:14Z</time>
      </trkpt>
      <trkpt lat="42.8693670" lon="0.4926090">
        <ele>1662.6</ele>
        <time>2020-07-24T13:52:17Z</time>
      </trkpt>
      <trkpt lat="42.8693110" lon="0.4925320">
        <ele>1661.6</ele>
        <time>2020-07-24T13:52:18Z</time>
      </trkpt>
      <trkpt lat="42.8692650" lon="0.4924510">
        <ele>1660.6</ele>
        <time>2020-07-24T13:52:19Z</time>
      </trkpt>
      <trkpt lat="42.8692340" lon="0.4923630">
        <ele>1659.4</ele>
        <time>2020-07-24T13:52:20Z</time>
      </trkpt>
      <trkpt lat="42.8692160" lon="0.4922680">
        <ele>1658.6</ele>
        <time>2020-07-24T13:52:21Z</time>
      </trkpt>
      <trkpt lat="42.8692110" lon="0.4921650">
        <ele>1657.8</ele>
        <time>2020-07-24T13:52:22Z</time>
      </trkpt>
      <trkpt lat="42.8692200" lon="0.4920550">
        <ele>1656.8</ele>
        <time>2020-07-24T13:52:23Z</time>
      </trkpt>
      <trkpt lat="42.8692410" lon="0.4919390">
        <ele>1656.0</ele>
        <time>2020-07-24T13:52:24Z</time>
      </trkpt>
      <trkpt lat="42.8692720" lon="0.4918160">
        <ele>1655.4</ele>
        <time>2020-07-24T13:52:25Z</time>
      </trkpt>
      <trkpt lat="42.8693970" lon="0.4914470">
        <ele>1654.0</ele>
        <time>2020-07-24T13:52:28Z</time>
      </trkpt>
      <trkpt lat="42.8694870" lon="0.4912250">
        <ele>1652.6</ele>
        <time>2020-07-24T13:52:30Z</time>
      </trkpt>
      <trkpt lat="42.8695610" lon="0.4910380">
        <ele>1651.0</ele>
        <time>2020-07-24T13:52:32Z</time>
      </trkpt>
      <trkpt lat="42.8695900" lon="0.4909620">
        <ele>1650.4</ele>
        <time>2020-07-24T13:52:33Z</time>
      </trkpt>
      <trkpt lat="42.8696130" lon="0.4909010">
        <ele>1649.4</ele>
        <time>2020-07-24T13:52:34Z</time>
      </trkpt>
      <trkpt lat="42.8696320" lon="0.4908480">
        <ele>1648.2</ele>
        <time>2020-07-24T13:52:35Z</time>
      </trkpt>
      <trkpt lat="42.8696520" lon="0.4907930">
        <ele>1647.2</ele>
        <time>2020-07-24T13:52:36Z</time>
      </trkpt>
      <trkpt lat="42.8696740" lon="0.4907310">
        <ele>1646.0</ele>
        <time>2020-07-24T13:52:37Z</time>
      </trkpt>
      <trkpt lat="42.8696950" lon="0.4906610">
        <ele>1644.6</ele>
        <time>2020-07-24T13:52:38Z</time>
      </trkpt>
      <trkpt lat="42.8697140" lon="0.4905820">
        <ele>1643.6</ele>
        <time>2020-07-24T13:52:39Z</time>
      </trkpt>
      <trkpt lat="42.8697690" lon="0.4904020">
        <ele>1642.8</ele>
        <time>2020-07-24T13:52:41Z</time>
      </trkpt>
      <trkpt lat="42.8698580" lon="0.4902040">
        <ele>1642.6</ele>
        <time>2020-07-24T13:52:43Z</time>
      </trkpt>
      <trkpt lat="42.8699730" lon="0.4900000">
        <ele>1642.4</ele>
        <time>2020-07-24T13:52:45Z</time>
      </trkpt>
      <trkpt lat="42.8700930" lon="0.4897810">
        <ele>1641.4</ele>
        <time>2020-07-24T13:52:47Z</time>
      </trkpt>
      <trkpt lat="42.8702000" lon="0.4895570">
        <ele>1639.8</ele>
        <time>2020-07-24T13:52:49Z</time>
      </trkpt>
      <trkpt lat="42.8703110" lon="0.4893270">
        <ele>1637.6</ele>
        <time>2020-07-24T13:52:51Z</time>
      </trkpt>
      <trkpt lat="42.8704270" lon="0.4891030">
        <ele>1636.0</ele>
        <time>2020-07-24T13:52:53Z</time>
      </trkpt>
      <trkpt lat="42.8705410" lon="0.4888770">
        <ele>1634.4</ele>
        <time>2020-07-24T13:52:55Z</time>
      </trkpt>
      <trkpt lat="42.8706670" lon="0.4886610">
        <ele>1632.8</ele>
        <time>2020-07-24T13:52:57Z</time>
      </trkpt>
      <trkpt lat="42.8707360" lon="0.4885640">
        <ele>1632.0</ele>
        <time>2020-07-24T13:52:58Z</time>
      </trkpt>
      <trkpt lat="42.8708070" lon="0.4884800">
        <ele>1630.6</ele>
        <time>2020-07-24T13:52:59Z</time>
      </trkpt>
      <trkpt lat="42.8708840" lon="0.4884240">
        <ele>1629.4</ele>
        <time>2020-07-24T13:53:00Z</time>
      </trkpt>
      <trkpt lat="42.8709640" lon="0.4883870">
        <ele>1628.2</ele>
        <time>2020-07-24T13:53:01Z</time>
      </trkpt>
      <trkpt lat="42.8711000" lon="0.4883330">
        <ele>1626.2</ele>
        <time>2020-07-24T13:53:03Z</time>
      </trkpt>
      <trkpt lat="42.8711470" lon="0.4882960">
        <ele>1625.2</ele>
        <time>2020-07-24T13:53:04Z</time>
      </trkpt>
      <trkpt lat="42.8711750" lon="0.4882480">
        <ele>1624.2</ele>
        <time>2020-07-24T13:53:05Z</time>
      </trkpt>
      <trkpt lat="42.8711810" lon="0.4881950">
        <ele>1623.4</ele>
        <time>2020-07-24T13:53:06Z</time>
      </trkpt>
      <trkpt lat="42.8711090" lon="0.4881470">
        <ele>1622.2</ele>
        <time>2020-07-24T13:53:08Z</time>
      </trkpt>
      <trkpt lat="42.8710450" lon="0.4881670">
        <ele>1621.8</ele>
        <time>2020-07-24T13:53:09Z</time>
      </trkpt>
      <trkpt lat="42.8709800" lon="0.4882020">
        <ele>1621.4</ele>
        <time>2020-07-24T13:53:10Z</time>
      </trkpt>
      <trkpt lat="42.8709100" lon="0.4882440">
        <ele>1620.8</ele>
        <time>2020-07-24T13:53:11Z</time>
      </trkpt>
      <trkpt lat="42.8707550" lon="0.4883350">
        <ele>1619.8</ele>
        <time>2020-07-24T13:53:13Z</time>
      </trkpt>
      <trkpt lat="42.8705830" lon="0.4884380">
        <ele>1618.6</ele>
        <time>2020-07-24T13:53:15Z</time>
      </trkpt>
      <trkpt lat="42.8704960" lon="0.4885020">
        <ele>1618.0</ele>
        <time>2020-07-24T13:53:16Z</time>
      </trkpt>
      <trkpt lat="42.8704100" lon="0.4885740">
        <ele>1617.6</ele>
        <time>2020-07-24T13:53:17Z</time>
      </trkpt>
      <trkpt lat="42.8700810" lon="0.4889160">
        <ele>1615.8</ele>
        <time>2020-07-24T13:53:21Z</time>
      </trkpt>
      <trkpt lat="42.8700060" lon="0.4889990">
        <ele>1615.0</ele>
        <time>2020-07-24T13:53:22Z</time>
      </trkpt>
      <trkpt lat="42.8699300" lon="0.4890910">
        <ele>1614.2</ele>
        <time>2020-07-24T13:53:23Z</time>
      </trkpt>
      <trkpt lat="42.8697750" lon="0.4892710">
        <ele>1612.2</ele>
        <time>2020-07-24T13:53:25Z</time>
      </trkpt>
      <trkpt lat="42.8696170" lon="0.4894400">
        <ele>1610.4</ele>
        <time>2020-07-24T13:53:27Z</time>
      </trkpt>
      <trkpt lat="42.8695380" lon="0.4895190">
        <ele>1609.6</ele>
        <time>2020-07-24T13:53:28Z</time>
      </trkpt>
      <trkpt lat="42.8694610" lon="0.4895970">
        <ele>1608.4</ele>
        <time>2020-07-24T13:53:29Z</time>
      </trkpt>
      <trkpt lat="42.8693140" lon="0.4897650">
        <ele>1606.8</ele>
        <time>2020-07-24T13:53:31Z</time>
      </trkpt>
      <trkpt lat="42.8691810" lon="0.4899530">
        <ele>1605.0</ele>
        <time>2020-07-24T13:53:33Z</time>
      </trkpt>
      <trkpt lat="42.8690510" lon="0.4901490">
        <ele>1603.2</ele>
        <time>2020-07-24T13:53:35Z</time>
      </trkpt>
      <trkpt lat="42.8689020" lon="0.4903420">
        <ele>1601.2</ele>
        <time>2020-07-24T13:53:37Z</time>
      </trkpt>
      <trkpt lat="42.8688190" lon="0.4904300">
        <ele>1600.2</ele>
        <time>2020-07-24T13:53:38Z</time>
      </trkpt>
      <trkpt lat="42.8687340" lon="0.4905110">
        <ele>1599.6</ele>
        <time>2020-07-24T13:53:39Z</time>
      </trkpt>
      <trkpt lat="42.8685680" lon="0.4906620">
        <ele>1598.4</ele>
        <time>2020-07-24T13:53:41Z</time>
      </trkpt>
      <trkpt lat="42.8684200" lon="0.4908220">
        <ele>1596.4</ele>
        <time>2020-07-24T13:53:43Z</time>
      </trkpt>
      <trkpt lat="42.8683540" lon="0.4909080">
        <ele>1595.2</ele>
        <time>2020-07-24T13:53:44Z</time>
      </trkpt>
      <trkpt lat="42.8682930" lon="0.4909980">
        <ele>1593.8</ele>
        <time>2020-07-24T13:53:45Z</time>
      </trkpt>
      <trkpt lat="42.8682330" lon="0.4910900">
        <ele>1592.8</ele>
        <time>2020-07-24T13:53:46Z</time>
      </trkpt>
      <trkpt lat="42.8681190" lon="0.4912690">
        <ele>1591.4</ele>
        <time>2020-07-24T13:53:48Z</time>
      </trkpt>
      <trkpt lat="42.8680040" lon="0.4914340">
        <ele>1590.0</ele>
        <time>2020-07-24T13:53:50Z</time>
      </trkpt>
      <trkpt lat="42.8678930" lon="0.4915880">
        <ele>1588.0</ele>
        <time>2020-07-24T13:53:52Z</time>
      </trkpt>
      <trkpt lat="42.8678370" lon="0.4916560">
        <ele>1587.0</ele>
        <time>2020-07-24T13:53:53Z</time>
      </trkpt>
      <trkpt lat="42.8677780" lon="0.4917130">
        <ele>1586.4</ele>
        <time>2020-07-24T13:53:54Z</time>
      </trkpt>
      <trkpt lat="42.8677140" lon="0.4917590">
        <ele>1585.8</ele>
        <time>2020-07-24T13:53:55Z</time>
      </trkpt>
      <trkpt lat="42.8676450" lon="0.4917960">
        <ele>1585.4</ele>
        <time>2020-07-24T13:53:56Z</time>
      </trkpt>
      <trkpt lat="42.8675070" lon="0.4918510">
        <ele>1584.4</ele>
        <time>2020-07-24T13:53:58Z</time>
      </trkpt>
      <trkpt lat="42.8674490" lon="0.4918870">
        <ele>1583.8</ele>
        <time>2020-07-24T13:53:59Z</time>
      </trkpt>
      <trkpt lat="42.8673530" lon="0.4920100">
        <ele>1582.0</ele>
        <time>2020-07-24T13:54:01Z</time>
      </trkpt>
      <trkpt lat="42.8672740" lon="0.4921820">
        <ele>1580.8</ele>
        <time>2020-07-24T13:54:03Z</time>
      </trkpt>
      <trkpt lat="42.8672110" lon="0.4923520">
        <ele>1580.0</ele>
        <time>2020-07-24T13:54:05Z</time>
      </trkpt>
      <trkpt lat="42.8671930" lon="0.4924380">
        <ele>1579.4</ele>
        <time>2020-07-24T13:54:06Z</time>
      </trkpt>
      <trkpt lat="42.8671860" lon="0.4926040">
        <ele>1577.8</ele>
        <time>2020-07-24T13:54:08Z</time>
      </trkpt>
      <trkpt lat="42.8671970" lon="0.4927450">
        <ele>1576.4</ele>
        <time>2020-07-24T13:54:10Z</time>
      </trkpt>
      <trkpt lat="42.8672250" lon="0.4928840">
        <ele>1575.8</ele>
        <time>2020-07-24T13:54:12Z</time>
      </trkpt>
      <trkpt lat="42.8672490" lon="0.4929540">
        <ele>1575.6</ele>
        <time>2020-07-24T13:54:13Z</time>
      </trkpt>
      <trkpt lat="42.8672790" lon="0.4930250">
        <ele>1575.2</ele>
        <time>2020-07-24T13:54:14Z</time>
      </trkpt>
      <trkpt lat="42.8673750" lon="0.4931670">
        <ele>1574.0</ele>
        <time>2020-07-24T13:54:16Z</time>
      </trkpt>
      <trkpt lat="42.8674260" lon="0.4932460">
        <ele>1573.4</ele>
        <time>2020-07-24T13:54:17Z</time>
      </trkpt>
      <trkpt lat="42.8674730" lon="0.4933360">
        <ele>1573.0</ele>
        <time>2020-07-24T13:54:18Z</time>
      </trkpt>
      <trkpt lat="42.8675500" lon="0.4935530">
        <ele>1572.2</ele>
        <time>2020-07-24T13:54:20Z</time>
      </trkpt>
      <trkpt lat="42.8675840" lon="0.4936700">
        <ele>1571.6</ele>
        <time>2020-07-24T13:54:21Z</time>
      </trkpt>
      <trkpt lat="42.8676140" lon="0.4937860">
        <ele>1571.2</ele>
        <time>2020-07-24T13:54:22Z</time>
      </trkpt>
      <trkpt lat="42.8676470" lon="0.4940130">
        <ele>1570.2</ele>
        <time>2020-07-24T13:54:24Z</time>
      </trkpt>
      <trkpt lat="42.8676490" lon="0.4941260">
        <ele>1569.2</ele>
        <time>2020-07-24T13:54:25Z</time>
      </trkpt>
      <trkpt lat="42.8676400" lon="0.4942360">
        <ele>1568.0</ele>
        <time>2020-07-24T13:54:26Z</time>
      </trkpt>
      <trkpt lat="42.8676180" lon="0.4943400">
        <ele>1566.8</ele>
        <time>2020-07-24T13:54:27Z</time>
      </trkpt>
      <trkpt lat="42.8675840" lon="0.4944320">
        <ele>1566.0</ele>
        <time>2020-07-24T13:54:28Z</time>
      </trkpt>
      <trkpt lat="42.8675390" lon="0.4945150">
        <ele>1565.2</ele>
        <time>2020-07-24T13:54:29Z</time>
      </trkpt>
      <trkpt lat="42.8674880" lon="0.4945910">
        <ele>1564.4</ele>
        <time>2020-07-24T13:54:30Z</time>
      </trkpt>
      <trkpt lat="42.8674330" lon="0.4946580">
        <ele>1564.0</ele>
        <time>2020-07-24T13:54:31Z</time>
      </trkpt>
      <trkpt lat="42.8673750" lon="0.4947160">
        <ele>1563.2</ele>
        <time>2020-07-24T13:54:32Z</time>
      </trkpt>
      <trkpt lat="42.8673100" lon="0.4947600">
        <ele>1561.8</ele>
        <time>2020-07-24T13:54:33Z</time>
      </trkpt>
      <trkpt lat="42.8672400" lon="0.4947810">
        <ele>1560.4</ele>
        <time>2020-07-24T13:54:34Z</time>
      </trkpt>
      <trkpt lat="42.8671680" lon="0.4947740">
        <ele>1559.4</ele>
        <time>2020-07-24T13:54:35Z</time>
      </trkpt>
      <trkpt lat="42.8671000" lon="0.4947340">
        <ele>1558.8</ele>
        <time>2020-07-24T13:54:36Z</time>
      </trkpt>
      <trkpt lat="42.8669680" lon="0.4946180">
        <ele>1558.2</ele>
        <time>2020-07-24T13:54:38Z</time>
      </trkpt>
      <trkpt lat="42.8668990" lon="0.4945610">
        <ele>1558.0</ele>
        <time>2020-07-24T13:54:39Z</time>
      </trkpt>
      <trkpt lat="42.8667530" lon="0.4944450">
        <ele>1557.6</ele>
        <time>2020-07-24T13:54:41Z</time>
      </trkpt>
      <trkpt lat="42.8666840" lon="0.4943760">
        <ele>1557.4</ele>
        <time>2020-07-24T13:54:42Z</time>
      </trkpt>
      <trkpt lat="42.8666210" lon="0.4942960">
        <ele>1557.2</ele>
        <time>2020-07-24T13:54:43Z</time>
      </trkpt>
      <trkpt lat="42.8665620" lon="0.4942050">
        <ele>1557.0</ele>
        <time>2020-07-24T13:54:44Z</time>
      </trkpt>
      <trkpt lat="42.8664470" lon="0.4940140">
        <ele>1556.0</ele>
        <time>2020-07-24T13:54:46Z</time>
      </trkpt>
      <trkpt lat="42.8663340" lon="0.4938140">
        <ele>1554.6</ele>
        <time>2020-07-24T13:54:48Z</time>
      </trkpt>
      <trkpt lat="42.8662430" lon="0.4936230">
        <ele>1553.4</ele>
        <time>2020-07-24T13:54:50Z</time>
      </trkpt>
      <trkpt lat="42.8661970" lon="0.4935420">
        <ele>1552.8</ele>
        <time>2020-07-24T13:54:51Z</time>
      </trkpt>
      <trkpt lat="42.8661420" lon="0.4934760">
        <ele>1552.2</ele>
        <time>2020-07-24T13:54:52Z</time>
      </trkpt>
      <trkpt lat="42.8660780" lon="0.4934250">
        <ele>1551.6</ele>
        <time>2020-07-24T13:54:53Z</time>
      </trkpt>
      <trkpt lat="42.8659310" lon="0.4933570">
        <ele>1551.0</ele>
        <time>2020-07-24T13:54:55Z</time>
      </trkpt>
      <trkpt lat="42.8656490" lon="0.4932890">
        <ele>1550.0</ele>
        <time>2020-07-24T13:54:58Z</time>
      </trkpt>
      <trkpt lat="42.8655490" lon="0.4932620">
        <ele>1549.6</ele>
        <time>2020-07-24T13:54:59Z</time>
      </trkpt>
      <trkpt lat="42.8653500" lon="0.4931920">
        <ele>1548.8</ele>
        <time>2020-07-24T13:55:01Z</time>
      </trkpt>
      <trkpt lat="42.8651680" lon="0.4931240">
        <ele>1547.4</ele>
        <time>2020-07-24T13:55:03Z</time>
      </trkpt>
      <trkpt lat="42.8650820" lon="0.4931010">
        <ele>1546.2</ele>
        <time>2020-07-24T13:55:04Z</time>
      </trkpt>
      <trkpt lat="42.8649970" lon="0.4930930">
        <ele>1545.0</ele>
        <time>2020-07-24T13:55:05Z</time>
      </trkpt>
      <trkpt lat="42.8649130" lon="0.4931040">
        <ele>1544.4</ele>
        <time>2020-07-24T13:55:06Z</time>
      </trkpt>
      <trkpt lat="42.8648270" lon="0.4931310">
        <ele>1543.8</ele>
        <time>2020-07-24T13:55:07Z</time>
      </trkpt>
      <trkpt lat="42.8645610" lon="0.4932670">
        <ele>1542.2</ele>
        <time>2020-07-24T13:55:10Z</time>
      </trkpt>
      <trkpt lat="42.8643770" lon="0.4933570">
        <ele>1541.2</ele>
        <time>2020-07-24T13:55:12Z</time>
      </trkpt>
      <trkpt lat="42.8641870" lon="0.4933920">
        <ele>1539.6</ele>
        <time>2020-07-24T13:55:14Z</time>
      </trkpt>
      <trkpt lat="42.8640920" lon="0.4933930">
        <ele>1538.8</ele>
        <time>2020-07-24T13:55:15Z</time>
      </trkpt>
      <trkpt lat="42.8639990" lon="0.4933860">
        <ele>1537.8</ele>
        <time>2020-07-24T13:55:16Z</time>
      </trkpt>
      <trkpt lat="42.8639120" lon="0.4933750">
        <ele>1536.6</ele>
        <time>2020-07-24T13:55:17Z</time>
      </trkpt>
      <trkpt lat="42.8637520" lon="0.4933740">
        <ele>1534.8</ele>
        <time>2020-07-24T13:55:19Z</time>
      </trkpt>
      <trkpt lat="42.8635950" lon="0.4933990">
        <ele>1533.2</ele>
        <time>2020-07-24T13:55:21Z</time>
      </trkpt>
      <trkpt lat="42.8635140" lon="0.4934170">
        <ele>1532.2</ele>
        <time>2020-07-24T13:55:22Z</time>
      </trkpt>
      <trkpt lat="42.8634320" lon="0.4934470">
        <ele>1531.2</ele>
        <time>2020-07-24T13:55:23Z</time>
      </trkpt>
      <trkpt lat="42.8633510" lon="0.4934900">
        <ele>1530.4</ele>
        <time>2020-07-24T13:55:24Z</time>
      </trkpt>
      <trkpt lat="42.8632720" lon="0.4935430">
        <ele>1529.6</ele>
        <time>2020-07-24T13:55:25Z</time>
      </trkpt>
      <trkpt lat="42.8631950" lon="0.4936030">
        <ele>1528.6</ele>
        <time>2020-07-24T13:55:26Z</time>
      </trkpt>
      <trkpt lat="42.8631220" lon="0.4936700">
        <ele>1527.4</ele>
        <time>2020-07-24T13:55:27Z</time>
      </trkpt>
      <trkpt lat="42.8630550" lon="0.4937470">
        <ele>1526.0</ele>
        <time>2020-07-24T13:55:28Z</time>
      </trkpt>
      <trkpt lat="42.8629920" lon="0.4938340">
        <ele>1525.0</ele>
        <time>2020-07-24T13:55:29Z</time>
      </trkpt>
      <trkpt lat="42.8629330" lon="0.4939360">
        <ele>1524.2</ele>
        <time>2020-07-24T13:55:30Z</time>
      </trkpt>
      <trkpt lat="42.8628790" lon="0.4940510">
        <ele>1523.6</ele>
        <time>2020-07-24T13:55:31Z</time>
      </trkpt>
      <trkpt lat="42.8628290" lon="0.4941760">
        <ele>1522.8</ele>
        <time>2020-07-24T13:55:32Z</time>
      </trkpt>
      <trkpt lat="42.8627840" lon="0.4943090">
        <ele>1522.4</ele>
        <time>2020-07-24T13:55:33Z</time>
      </trkpt>
      <trkpt lat="42.8626800" lon="0.4947130">
        <ele>1521.2</ele>
        <time>2020-07-24T13:55:36Z</time>
      </trkpt>
      <trkpt lat="42.8626620" lon="0.4948500">
        <ele>1520.4</ele>
        <time>2020-07-24T13:55:37Z</time>
      </trkpt>
      <trkpt lat="42.8626490" lon="0.4949880">
        <ele>1519.4</ele>
        <time>2020-07-24T13:55:38Z</time>
      </trkpt>
      <trkpt lat="42.8626160" lon="0.4952690">
        <ele>1517.8</ele>
        <time>2020-07-24T13:55:40Z</time>
      </trkpt>
      <trkpt lat="42.8625580" lon="0.4955450">
        <ele>1516.6</ele>
        <time>2020-07-24T13:55:42Z</time>
      </trkpt>
      <trkpt lat="42.8625170" lon="0.4956780">
        <ele>1515.8</ele>
        <time>2020-07-24T13:55:43Z</time>
      </trkpt>
      <trkpt lat="42.8624680" lon="0.4958100">
        <ele>1515.0</ele>
        <time>2020-07-24T13:55:44Z</time>
      </trkpt>
      <trkpt lat="42.8624160" lon="0.4959400">
        <ele>1513.8</ele>
        <time>2020-07-24T13:55:45Z</time>
      </trkpt>
      <trkpt lat="42.8623640" lon="0.4960680">
        <ele>1512.6</ele>
        <time>2020-07-24T13:55:46Z</time>
      </trkpt>
      <trkpt lat="42.8623140" lon="0.4961910">
        <ele>1511.0</ele>
        <time>2020-07-24T13:55:47Z</time>
      </trkpt>
      <trkpt lat="42.8622650" lon="0.4963110">
        <ele>1509.2</ele>
        <time>2020-07-24T13:55:48Z</time>
      </trkpt>
      <trkpt lat="42.8622180" lon="0.4964300">
        <ele>1508.2</ele>
        <time>2020-07-24T13:55:49Z</time>
      </trkpt>
      <trkpt lat="42.8621260" lon="0.4966580">
        <ele>1506.8</ele>
        <time>2020-07-24T13:55:51Z</time>
      </trkpt>
      <trkpt lat="42.8620720" lon="0.4967690">
        <ele>1506.4</ele>
        <time>2020-07-24T13:55:52Z</time>
      </trkpt>
      <trkpt lat="42.8620160" lon="0.4968810">
        <ele>1505.6</ele>
        <time>2020-07-24T13:55:53Z</time>
      </trkpt>
      <trkpt lat="42.8619090" lon="0.4971190">
        <ele>1504.0</ele>
        <time>2020-07-24T13:55:55Z</time>
      </trkpt>
      <trkpt lat="42.8618660" lon="0.4972490">
        <ele>1503.2</ele>
        <time>2020-07-24T13:55:56Z</time>
      </trkpt>
      <trkpt lat="42.8618290" lon="0.4973870">
        <ele>1502.6</ele>
        <time>2020-07-24T13:55:57Z</time>
      </trkpt>
      <trkpt lat="42.8617650" lon="0.4976730">
        <ele>1501.8</ele>
        <time>2020-07-24T13:55:59Z</time>
      </trkpt>
      <trkpt lat="42.8617420" lon="0.4978140">
        <ele>1500.8</ele>
        <time>2020-07-24T13:56:00Z</time>
      </trkpt>
      <trkpt lat="42.8617240" lon="0.4979450">
        <ele>1499.6</ele>
        <time>2020-07-24T13:56:01Z</time>
      </trkpt>
      <trkpt lat="42.8617160" lon="0.4980760">
        <ele>1498.4</ele>
        <time>2020-07-24T13:56:02Z</time>
      </trkpt>
      <trkpt lat="42.8617180" lon="0.4982100">
        <ele>1497.4</ele>
        <time>2020-07-24T13:56:03Z</time>
      </trkpt>
      <trkpt lat="42.8617340" lon="0.4984760">
        <ele>1495.4</ele>
        <time>2020-07-24T13:56:05Z</time>
      </trkpt>
      <trkpt lat="42.8617360" lon="0.4986060">
        <ele>1494.4</ele>
        <time>2020-07-24T13:56:06Z</time>
      </trkpt>
      <trkpt lat="42.8617140" lon="0.4988490">
        <ele>1492.8</ele>
        <time>2020-07-24T13:56:08Z</time>
      </trkpt>
      <trkpt lat="42.8616900" lon="0.4989570">
        <ele>1492.0</ele>
        <time>2020-07-24T13:56:09Z</time>
      </trkpt>
      <trkpt lat="42.8616550" lon="0.4990660">
        <ele>1490.8</ele>
        <time>2020-07-24T13:56:10Z</time>
      </trkpt>
      <trkpt lat="42.8616070" lon="0.4991650">
        <ele>1489.8</ele>
        <time>2020-07-24T13:56:11Z</time>
      </trkpt>
      <trkpt lat="42.8615530" lon="0.4992690">
        <ele>1489.0</ele>
        <time>2020-07-24T13:56:12Z</time>
      </trkpt>
      <trkpt lat="42.8614470" lon="0.4994690">
        <ele>1487.8</ele>
        <time>2020-07-24T13:56:14Z</time>
      </trkpt>
      <trkpt lat="42.8613610" lon="0.4996810">
        <ele>1485.4</ele>
        <time>2020-07-24T13:56:16Z</time>
      </trkpt>
      <trkpt lat="42.8613290" lon="0.4998010">
        <ele>1484.4</ele>
        <time>2020-07-24T13:56:17Z</time>
      </trkpt>
      <trkpt lat="42.8613050" lon="0.4999230">
        <ele>1483.6</ele>
        <time>2020-07-24T13:56:18Z</time>
      </trkpt>
      <trkpt lat="42.8612890" lon="0.5000520">
        <ele>1483.2</ele>
        <time>2020-07-24T13:56:19Z</time>
      </trkpt>
      <trkpt lat="42.8612660" lon="0.5003210">
        <ele>1482.2</ele>
        <time>2020-07-24T13:56:21Z</time>
      </trkpt>
      <trkpt lat="42.8612560" lon="0.5004650">
        <ele>1481.6</ele>
        <time>2020-07-24T13:56:22Z</time>
      </trkpt>
      <trkpt lat="42.8612280" lon="0.5007570">
        <ele>1480.6</ele>
        <time>2020-07-24T13:56:24Z</time>
      </trkpt>
      <trkpt lat="42.8611940" lon="0.5010530">
        <ele>1478.8</ele>
        <time>2020-07-24T13:56:26Z</time>
      </trkpt>
      <trkpt lat="42.8611540" lon="0.5013580">
        <ele>1477.2</ele>
        <time>2020-07-24T13:56:28Z</time>
      </trkpt>
      <trkpt lat="42.8610930" lon="0.5016680">
        <ele>1475.2</ele>
        <time>2020-07-24T13:56:30Z</time>
      </trkpt>
      <trkpt lat="42.8610560" lon="0.5018170">
        <ele>1474.4</ele>
        <time>2020-07-24T13:56:31Z</time>
      </trkpt>
      <trkpt lat="42.8610210" lon="0.5019670">
        <ele>1473.2</ele>
        <time>2020-07-24T13:56:32Z</time>
      </trkpt>
      <trkpt lat="42.8609900" lon="0.5021110">
        <ele>1471.6</ele>
        <time>2020-07-24T13:56:33Z</time>
      </trkpt>
      <trkpt lat="42.8609620" lon="0.5022510">
        <ele>1470.2</ele>
        <time>2020-07-24T13:56:34Z</time>
      </trkpt>
      <trkpt lat="42.8609360" lon="0.5023880">
        <ele>1468.8</ele>
        <time>2020-07-24T13:56:35Z</time>
      </trkpt>
      <trkpt lat="42.8609130" lon="0.5025190">
        <ele>1467.2</ele>
        <time>2020-07-24T13:56:36Z</time>
      </trkpt>
      <trkpt lat="42.8608920" lon="0.5026470">
        <ele>1465.8</ele>
        <time>2020-07-24T13:56:37Z</time>
      </trkpt>
      <trkpt lat="42.8608590" lon="0.5029020">
        <ele>1464.4</ele>
        <time>2020-07-24T13:56:39Z</time>
      </trkpt>
      <trkpt lat="42.8608490" lon="0.5031460">
        <ele>1463.2</ele>
        <time>2020-07-24T13:56:41Z</time>
      </trkpt>
      <trkpt lat="42.8608540" lon="0.5032640">
        <ele>1462.4</ele>
        <time>2020-07-24T13:56:42Z</time>
      </trkpt>
      <trkpt lat="42.8608680" lon="0.5033780">
        <ele>1461.6</ele>
        <time>2020-07-24T13:56:43Z</time>
      </trkpt>
      <trkpt lat="42.8609300" lon="0.5036020">
        <ele>1460.2</ele>
        <time>2020-07-24T13:56:45Z</time>
      </trkpt>
      <trkpt lat="42.8609610" lon="0.5037120">
        <ele>1459.2</ele>
        <time>2020-07-24T13:56:46Z</time>
      </trkpt>
      <trkpt lat="42.8609760" lon="0.5038230">
        <ele>1458.0</ele>
        <time>2020-07-24T13:56:47Z</time>
      </trkpt>
      <trkpt lat="42.8609770" lon="0.5039400">
        <ele>1456.4</ele>
        <time>2020-07-24T13:56:48Z</time>
      </trkpt>
      <trkpt lat="42.8609690" lon="0.5040610">
        <ele>1455.0</ele>
        <time>2020-07-24T13:56:49Z</time>
      </trkpt>
      <trkpt lat="42.8609560" lon="0.5041840">
        <ele>1453.8</ele>
        <time>2020-07-24T13:56:50Z</time>
      </trkpt>
      <trkpt lat="42.8609430" lon="0.5043090">
        <ele>1453.2</ele>
        <time>2020-07-24T13:56:51Z</time>
      </trkpt>
      <trkpt lat="42.8609320" lon="0.5044310">
        <ele>1452.8</ele>
        <time>2020-07-24T13:56:52Z</time>
      </trkpt>
      <trkpt lat="42.8609050" lon="0.5046570">
        <ele>1451.8</ele>
        <time>2020-07-24T13:56:54Z</time>
      </trkpt>
      <trkpt lat="42.8608910" lon="0.5047600">
        <ele>1451.0</ele>
        <time>2020-07-24T13:56:55Z</time>
      </trkpt>
      <trkpt lat="42.8608660" lon="0.5049480">
        <ele>1449.4</ele>
        <time>2020-07-24T13:56:57Z</time>
      </trkpt>
      <trkpt lat="42.8608310" lon="0.5051300">
        <ele>1447.8</ele>
        <time>2020-07-24T13:56:59Z</time>
      </trkpt>
      <trkpt lat="42.8607640" lon="0.5054460">
        <ele>1446.8</ele>
        <time>2020-07-24T13:57:02Z</time>
      </trkpt>
      <trkpt lat="42.8607510" lon="0.5055590">
        <ele>1446.4</ele>
        <time>2020-07-24T13:57:03Z</time>
      </trkpt>
      <trkpt lat="42.8607410" lon="0.5056710">
        <ele>1446.2</ele>
        <time>2020-07-24T13:57:04Z</time>
      </trkpt>
      <trkpt lat="42.8607260" lon="0.5058900">
        <ele>1445.6</ele>
        <time>2020-07-24T13:57:06Z</time>
      </trkpt>
      <trkpt lat="42.8607110" lon="0.5059880">
        <ele>1444.8</ele>
        <time>2020-07-24T13:57:07Z</time>
      </trkpt>
      <trkpt lat="42.8606780" lon="0.5060650">
        <ele>1444.2</ele>
        <time>2020-07-24T13:57:08Z</time>
      </trkpt>
      <trkpt lat="42.8606330" lon="0.5061190">
        <ele>1443.4</ele>
        <time>2020-07-24T13:57:09Z</time>
      </trkpt>
      <trkpt lat="42.8605720" lon="0.5061290">
        <ele>1442.8</ele>
        <time>2020-07-24T13:57:10Z</time>
      </trkpt>
      <trkpt lat="42.8605090" lon="0.5061140">
        <ele>1442.2</ele>
        <time>2020-07-24T13:57:11Z</time>
      </trkpt>
      <trkpt lat="42.8603880" lon="0.5060620">
        <ele>1441.6</ele>
        <time>2020-07-24T13:57:13Z</time>
      </trkpt>
      <trkpt lat="42.8602530" lon="0.5060040">
        <ele>1441.0</ele>
        <time>2020-07-24T13:57:15Z</time>
      </trkpt>
      <trkpt lat="42.8601800" lon="0.5059810">
        <ele>1440.6</ele>
        <time>2020-07-24T13:57:16Z</time>
      </trkpt>
      <trkpt lat="42.8600990" lon="0.5059790">
        <ele>1440.4</ele>
        <time>2020-07-24T13:57:17Z</time>
      </trkpt>
      <trkpt lat="42.8599270" lon="0.5060100">
        <ele>1439.8</ele>
        <time>2020-07-24T13:57:19Z</time>
      </trkpt>
      <trkpt lat="42.8597520" lon="0.5060930">
        <ele>1439.0</ele>
        <time>2020-07-24T13:57:21Z</time>
      </trkpt>
      <trkpt lat="42.8596660" lon="0.5061560">
        <ele>1438.4</ele>
        <time>2020-07-24T13:57:22Z</time>
      </trkpt>
      <trkpt lat="42.8595770" lon="0.5062260">
        <ele>1437.8</ele>
        <time>2020-07-24T13:57:23Z</time>
      </trkpt>
      <trkpt lat="42.8593970" lon="0.5063960">
        <ele>1436.2</ele>
        <time>2020-07-24T13:57:25Z</time>
      </trkpt>
      <trkpt lat="42.8592160" lon="0.5065900">
        <ele>1434.8</ele>
        <time>2020-07-24T13:57:27Z</time>
      </trkpt>
      <trkpt lat="42.8590430" lon="0.5067920">
        <ele>1434.0</ele>
        <time>2020-07-24T13:57:29Z</time>
      </trkpt>
      <trkpt lat="42.8589590" lon="0.5068920">
        <ele>1433.6</ele>
        <time>2020-07-24T13:57:30Z</time>
      </trkpt>
      <trkpt lat="42.8587940" lon="0.5071030">
        <ele>1432.0</ele>
        <time>2020-07-24T13:57:32Z</time>
      </trkpt>
      <trkpt lat="42.8586390" lon="0.5073390">
        <ele>1430.6</ele>
        <time>2020-07-24T13:57:34Z</time>
      </trkpt>
      <trkpt lat="42.8584990" lon="0.5075960">
        <ele>1429.4</ele>
        <time>2020-07-24T13:57:36Z</time>
      </trkpt>
      <trkpt lat="42.8583640" lon="0.5078630">
        <ele>1427.8</ele>
        <time>2020-07-24T13:57:38Z</time>
      </trkpt>
      <trkpt lat="42.8582910" lon="0.5079920">
        <ele>1427.2</ele>
        <time>2020-07-24T13:57:39Z</time>
      </trkpt>
      <trkpt lat="42.8581430" lon="0.5082560">
        <ele>1426.6</ele>
        <time>2020-07-24T13:57:41Z</time>
      </trkpt>
      <trkpt lat="42.8579940" lon="0.5085160">
        <ele>1425.4</ele>
        <time>2020-07-24T13:57:43Z</time>
      </trkpt>
      <trkpt lat="42.8579230" lon="0.5086480">
        <ele>1424.8</ele>
        <time>2020-07-24T13:57:44Z</time>
      </trkpt>
      <trkpt lat="42.8578540" lon="0.5087820">
        <ele>1424.2</ele>
        <time>2020-07-24T13:57:45Z</time>
      </trkpt>
      <trkpt lat="42.8577310" lon="0.5090410">
        <ele>1422.4</ele>
        <time>2020-07-24T13:57:47Z</time>
      </trkpt>
      <trkpt lat="42.8576300" lon="0.5092860">
        <ele>1420.4</ele>
        <time>2020-07-24T13:57:49Z</time>
      </trkpt>
      <trkpt lat="42.8575790" lon="0.5094030">
        <ele>1419.2</ele>
        <time>2020-07-24T13:57:50Z</time>
      </trkpt>
      <trkpt lat="42.8575220" lon="0.5095150">
        <ele>1417.8</ele>
        <time>2020-07-24T13:57:51Z</time>
      </trkpt>
      <trkpt lat="42.8574650" lon="0.5096270">
        <ele>1417.2</ele>
        <time>2020-07-24T13:57:52Z</time>
      </trkpt>
      <trkpt lat="42.8574050" lon="0.5097400">
        <ele>1416.6</ele>
        <time>2020-07-24T13:57:53Z</time>
      </trkpt>
      <trkpt lat="42.8571660" lon="0.5102100">
        <ele>1415.4</ele>
        <time>2020-07-24T13:57:57Z</time>
      </trkpt>
      <trkpt lat="42.8570380" lon="0.5104380">
        <ele>1414.8</ele>
        <time>2020-07-24T13:57:59Z</time>
      </trkpt>
      <trkpt lat="42.8569000" lon="0.5106500">
        <ele>1414.0</ele>
        <time>2020-07-24T13:58:01Z</time>
      </trkpt>
      <trkpt lat="42.8567720" lon="0.5108780">
        <ele>1412.2</ele>
        <time>2020-07-24T13:58:03Z</time>
      </trkpt>
      <trkpt lat="42.8567180" lon="0.5110040">
        <ele>1411.4</ele>
        <time>2020-07-24T13:58:04Z</time>
      </trkpt>
      <trkpt lat="42.8566760" lon="0.5111430">
        <ele>1411.0</ele>
        <time>2020-07-24T13:58:05Z</time>
      </trkpt>
      <trkpt lat="42.8566180" lon="0.5114320">
        <ele>1410.6</ele>
        <time>2020-07-24T13:58:07Z</time>
      </trkpt>
      <trkpt lat="42.8565980" lon="0.5115790">
        <ele>1410.6</ele>
        <time>2020-07-24T13:58:08Z</time>
      </trkpt>
      <trkpt lat="42.8565220" lon="0.5121890">
        <ele>1410.2</ele>
        <time>2020-07-24T13:58:12Z</time>
      </trkpt>
      <trkpt lat="42.8564890" lon="0.5123390">
        <ele>1409.8</ele>
        <time>2020-07-24T13:58:13Z</time>
      </trkpt>
      <trkpt lat="42.8564170" lon="0.5126400">
        <ele>1408.4</ele>
        <time>2020-07-24T13:58:15Z</time>
      </trkpt>
      <trkpt lat="42.8563580" lon="0.5129410">
        <ele>1407.4</ele>
        <time>2020-07-24T13:58:17Z</time>
      </trkpt>
      <trkpt lat="42.8563090" lon="0.5132100">
        <ele>1406.4</ele>
        <time>2020-07-24T13:58:19Z</time>
      </trkpt>
      <trkpt lat="42.8562960" lon="0.5133200">
        <ele>1405.8</ele>
        <time>2020-07-24T13:58:20Z</time>
      </trkpt>
      <trkpt lat="42.8563130" lon="0.5135170">
        <ele>1404.6</ele>
        <time>2020-07-24T13:58:22Z</time>
      </trkpt>
      <trkpt lat="42.8563480" lon="0.5135980">
        <ele>1404.4</ele>
        <time>2020-07-24T13:58:23Z</time>
      </trkpt>
      <trkpt lat="42.8563960" lon="0.5136710">
        <ele>1404.2</ele>
        <time>2020-07-24T13:58:24Z</time>
      </trkpt>
      <trkpt lat="42.8564770" lon="0.5138270">
        <ele>1403.6</ele>
        <time>2020-07-24T13:58:26Z</time>
      </trkpt>
      <trkpt lat="42.8564880" lon="0.5139100">
        <ele>1403.2</ele>
        <time>2020-07-24T13:58:27Z</time>
      </trkpt>
      <trkpt lat="42.8564700" lon="0.5139860">
        <ele>1402.8</ele>
        <time>2020-07-24T13:58:28Z</time>
      </trkpt>
      <trkpt lat="42.8564280" lon="0.5140380">
        <ele>1402.0</ele>
        <time>2020-07-24T13:58:29Z</time>
      </trkpt>
      <trkpt lat="42.8563650" lon="0.5140460">
        <ele>1401.6</ele>
        <time>2020-07-24T13:58:30Z</time>
      </trkpt>
      <trkpt lat="42.8562410" lon="0.5139640">
        <ele>1400.8</ele>
        <time>2020-07-24T13:58:32Z</time>
      </trkpt>
      <trkpt lat="42.8561740" lon="0.5137810">
        <ele>1400.4</ele>
        <time>2020-07-24T13:58:34Z</time>
      </trkpt>
      <trkpt lat="42.8561860" lon="0.5134590">
        <ele>1399.8</ele>
        <time>2020-07-24T13:58:37Z</time>
      </trkpt>
      <trkpt lat="42.8561950" lon="0.5133490">
        <ele>1399.8</ele>
        <time>2020-07-24T13:58:38Z</time>
      </trkpt>
      <trkpt lat="42.8562500" lon="0.5127550">
        <ele>1398.8</ele>
        <time>2020-07-24T13:58:43Z</time>
      </trkpt>
      <trkpt lat="42.8562640" lon="0.5126210">
        <ele>1398.2</ele>
        <time>2020-07-24T13:58:44Z</time>
      </trkpt>
      <trkpt lat="42.8562910" lon="0.5123430">
        <ele>1396.6</ele>
        <time>2020-07-24T13:58:46Z</time>
      </trkpt>
      <trkpt lat="42.8563150" lon="0.5120450">
        <ele>1395.8</ele>
        <time>2020-07-24T13:58:48Z</time>
      </trkpt>
      <trkpt lat="42.8563260" lon="0.5118890">
        <ele>1395.4</ele>
        <time>2020-07-24T13:58:49Z</time>
      </trkpt>
      <trkpt lat="42.8563470" lon="0.5115660">
        <ele>1394.4</ele>
        <time>2020-07-24T13:58:51Z</time>
      </trkpt>
      <trkpt lat="42.8563800" lon="0.5112380">
        <ele>1393.0</ele>
        <time>2020-07-24T13:58:53Z</time>
      </trkpt>
      <trkpt lat="42.8564150" lon="0.5109100">
        <ele>1391.8</ele>
        <time>2020-07-24T13:58:55Z</time>
      </trkpt>
      <trkpt lat="42.8564670" lon="0.5105900">
        <ele>1390.8</ele>
        <time>2020-07-24T13:58:57Z</time>
      </trkpt>
      <trkpt lat="42.8565380" lon="0.5102880">
        <ele>1389.6</ele>
        <time>2020-07-24T13:58:59Z</time>
      </trkpt>
      <trkpt lat="42.8565830" lon="0.5101460">
        <ele>1388.4</ele>
        <time>2020-07-24T13:59:00Z</time>
      </trkpt>
      <trkpt lat="42.8566300" lon="0.5100120">
        <ele>1386.8</ele>
        <time>2020-07-24T13:59:01Z</time>
      </trkpt>
      <trkpt lat="42.8566770" lon="0.5098850">
        <ele>1385.6</ele>
        <time>2020-07-24T13:59:02Z</time>
      </trkpt>
      <trkpt lat="42.8567230" lon="0.5097650">
        <ele>1384.2</ele>
        <time>2020-07-24T13:59:03Z</time>
      </trkpt>
      <trkpt lat="42.8567650" lon="0.5096500">
        <ele>1382.4</ele>
        <time>2020-07-24T13:59:04Z</time>
      </trkpt>
      <trkpt lat="42.8568020" lon="0.5095410">
        <ele>1381.0</ele>
        <time>2020-07-24T13:59:05Z</time>
      </trkpt>
      <trkpt lat="42.8568370" lon="0.5094330">
        <ele>1379.8</ele>
        <time>2020-07-24T13:59:06Z</time>
      </trkpt>
      <trkpt lat="42.8569080" lon="0.5092100">
        <ele>1378.4</ele>
        <time>2020-07-24T13:59:08Z</time>
      </trkpt>
      <trkpt lat="42.8569830" lon="0.5089660">
        <ele>1376.8</ele>
        <time>2020-07-24T13:59:10Z</time>
      </trkpt>
      <trkpt lat="42.8570620" lon="0.5086990">
        <ele>1375.6</ele>
        <time>2020-07-24T13:59:12Z</time>
      </trkpt>
      <trkpt lat="42.8571060" lon="0.5085590">
        <ele>1375.0</ele>
        <time>2020-07-24T13:59:13Z</time>
      </trkpt>
      <trkpt lat="42.8571500" lon="0.5084150">
        <ele>1374.6</ele>
        <time>2020-07-24T13:59:14Z</time>
      </trkpt>
      <trkpt lat="42.8572440" lon="0.5081290">
        <ele>1372.6</ele>
        <time>2020-07-24T13:59:16Z</time>
      </trkpt>
      <trkpt lat="42.8572890" lon="0.5079900">
        <ele>1371.4</ele>
        <time>2020-07-24T13:59:17Z</time>
      </trkpt>
      <trkpt lat="42.8573770" lon="0.5077060">
        <ele>1370.0</ele>
        <time>2020-07-24T13:59:19Z</time>
      </trkpt>
      <trkpt lat="42.8574690" lon="0.5074100">
        <ele>1368.6</ele>
        <time>2020-07-24T13:59:21Z</time>
      </trkpt>
      <trkpt lat="42.8575640" lon="0.5071160">
        <ele>1367.0</ele>
        <time>2020-07-24T13:59:23Z</time>
      </trkpt>
      <trkpt lat="42.8576620" lon="0.5068240">
        <ele>1365.4</ele>
        <time>2020-07-24T13:59:25Z</time>
      </trkpt>
      <trkpt lat="42.8577130" lon="0.5066770">
        <ele>1364.6</ele>
        <time>2020-07-24T13:59:26Z</time>
      </trkpt>
      <trkpt lat="42.8577650" lon="0.5065290">
        <ele>1364.2</ele>
        <time>2020-07-24T13:59:27Z</time>
      </trkpt>
      <trkpt lat="42.8578750" lon="0.5062420">
        <ele>1363.0</ele>
        <time>2020-07-24T13:59:29Z</time>
      </trkpt>
      <trkpt lat="42.8579820" lon="0.5059620">
        <ele>1360.8</ele>
        <time>2020-07-24T13:59:31Z</time>
      </trkpt>
      <trkpt lat="42.8580320" lon="0.5058250">
        <ele>1358.8</ele>
        <time>2020-07-24T13:59:32Z</time>
      </trkpt>
      <trkpt lat="42.8580800" lon="0.5056930">
        <ele>1357.4</ele>
        <time>2020-07-24T13:59:33Z</time>
      </trkpt>
      <trkpt lat="42.8581270" lon="0.5055650">
        <ele>1356.2</ele>
        <time>2020-07-24T13:59:34Z</time>
      </trkpt>
      <trkpt lat="42.8581700" lon="0.5054380">
        <ele>1355.0</ele>
        <time>2020-07-24T13:59:35Z</time>
      </trkpt>
      <trkpt lat="42.8582130" lon="0.5053140">
        <ele>1353.6</ele>
        <time>2020-07-24T13:59:36Z</time>
      </trkpt>
      <trkpt lat="42.8582580" lon="0.5051870">
        <ele>1352.6</ele>
        <time>2020-07-24T13:59:37Z</time>
      </trkpt>
      <trkpt lat="42.8583590" lon="0.5049310">
        <ele>1351.2</ele>
        <time>2020-07-24T13:59:39Z</time>
      </trkpt>
      <trkpt lat="42.8584780" lon="0.5046680">
        <ele>1349.4</ele>
        <time>2020-07-24T13:59:41Z</time>
      </trkpt>
      <trkpt lat="42.8586010" lon="0.5044230">
        <ele>1347.8</ele>
        <time>2020-07-24T13:59:43Z</time>
      </trkpt>
      <trkpt lat="42.8586570" lon="0.5043130">
        <ele>1346.6</ele>
        <time>2020-07-24T13:59:44Z</time>
      </trkpt>
      <trkpt lat="42.8587010" lon="0.5042030">
        <ele>1345.2</ele>
        <time>2020-07-24T13:59:45Z</time>
      </trkpt>
      <trkpt lat="42.8587290" lon="0.5040850">
        <ele>1343.8</ele>
        <time>2020-07-24T13:59:46Z</time>
      </trkpt>
      <trkpt lat="42.8587450" lon="0.5039600">
        <ele>1342.4</ele>
        <time>2020-07-24T13:59:47Z</time>
      </trkpt>
      <trkpt lat="42.8587560" lon="0.5038310">
        <ele>1341.4</ele>
        <time>2020-07-24T13:59:48Z</time>
      </trkpt>
      <trkpt lat="42.8587760" lon="0.5035630">
        <ele>1340.0</ele>
        <time>2020-07-24T13:59:50Z</time>
      </trkpt>
      <trkpt lat="42.8588000" lon="0.5031350">
        <ele>1339.0</ele>
        <time>2020-07-24T13:59:53Z</time>
      </trkpt>
      <trkpt lat="42.8588010" lon="0.5028370">
        <ele>1337.8</ele>
        <time>2020-07-24T13:59:55Z</time>
      </trkpt>
      <trkpt lat="42.8587950" lon="0.5025380">
        <ele>1336.4</ele>
        <time>2020-07-24T13:59:57Z</time>
      </trkpt>
      <trkpt lat="42.8587740" lon="0.5021110">
        <ele>1335.6</ele>
        <time>2020-07-24T14:00:00Z</time>
      </trkpt>
      <trkpt lat="42.8587700" lon="0.5019700">
        <ele>1335.2</ele>
        <time>2020-07-24T14:00:01Z</time>
      </trkpt>
      <trkpt lat="42.8587620" lon="0.5016980">
        <ele>1334.6</ele>
        <time>2020-07-24T14:00:03Z</time>
      </trkpt>
      <trkpt lat="42.8587530" lon="0.5014590">
        <ele>1334.0</ele>
        <time>2020-07-24T14:00:05Z</time>
      </trkpt>
      <trkpt lat="42.8587460" lon="0.5012560">
        <ele>1331.8</ele>
        <time>2020-07-24T14:00:07Z</time>
      </trkpt>
      <trkpt lat="42.8587450" lon="0.5011650">
        <ele>1330.6</ele>
        <time>2020-07-24T14:00:08Z</time>
      </trkpt>
      <trkpt lat="42.8587490" lon="0.5010810">
        <ele>1329.8</ele>
        <time>2020-07-24T14:00:09Z</time>
      </trkpt>
      <trkpt lat="42.8587600" lon="0.5009970">
        <ele>1329.2</ele>
        <time>2020-07-24T14:00:10Z</time>
      </trkpt>
      <trkpt lat="42.8587890" lon="0.5008370">
        <ele>1327.8</ele>
        <time>2020-07-24T14:00:12Z</time>
      </trkpt>
      <trkpt lat="42.8587820" lon="0.5007140">
        <ele>1326.8</ele>
        <time>2020-07-24T14:00:14Z</time>
      </trkpt>
      <trkpt lat="42.8587620" lon="0.5006810">
        <ele>1326.4</ele>
        <time>2020-07-24T14:00:15Z</time>
      </trkpt>
      <trkpt lat="42.8587330" lon="0.5006760">
        <ele>1326.0</ele>
        <time>2020-07-24T14:00:16Z</time>
      </trkpt>
      <trkpt lat="42.8587050" lon="0.5007020">
        <ele>1325.6</ele>
        <time>2020-07-24T14:00:17Z</time>
      </trkpt>
      <trkpt lat="42.8586650" lon="0.5008310">
        <ele>1325.4</ele>
        <time>2020-07-24T14:00:19Z</time>
      </trkpt>
      <trkpt lat="42.8586500" lon="0.5009160">
        <ele>1325.4</ele>
        <time>2020-07-24T14:00:20Z</time>
      </trkpt>
      <trkpt lat="42.8585720" lon="0.5014260">
        <ele>1324.6</ele>
        <time>2020-07-24T14:00:25Z</time>
      </trkpt>
      <trkpt lat="42.8585450" lon="0.5015480">
        <ele>1324.4</ele>
        <time>2020-07-24T14:00:26Z</time>
      </trkpt>
      <trkpt lat="42.8584530" lon="0.5019380">
        <ele>1323.0</ele>
        <time>2020-07-24T14:00:29Z</time>
      </trkpt>
      <trkpt lat="42.8582690" lon="0.5024630">
        <ele>1321.6</ele>
        <time>2020-07-24T14:00:33Z</time>
      </trkpt>
      <trkpt lat="42.8581430" lon="0.5027240">
        <ele>1320.2</ele>
        <time>2020-07-24T14:00:35Z</time>
      </trkpt>
      <trkpt lat="42.8579940" lon="0.5029850">
        <ele>1319.0</ele>
        <time>2020-07-24T14:00:37Z</time>
      </trkpt>
      <trkpt lat="42.8578420" lon="0.5032280">
        <ele>1317.2</ele>
        <time>2020-07-24T14:00:39Z</time>
      </trkpt>
      <trkpt lat="42.8577730" lon="0.5033350">
        <ele>1316.0</ele>
        <time>2020-07-24T14:00:40Z</time>
      </trkpt>
      <trkpt lat="42.8577090" lon="0.5034300">
        <ele>1314.6</ele>
        <time>2020-07-24T14:00:41Z</time>
      </trkpt>
      <trkpt lat="42.8576510" lon="0.5035140">
        <ele>1312.6</ele>
        <time>2020-07-24T14:00:42Z</time>
      </trkpt>
      <trkpt lat="42.8575980" lon="0.5035820">
        <ele>1310.6</ele>
        <time>2020-07-24T14:00:43Z</time>
      </trkpt>
      <trkpt lat="42.8575490" lon="0.5036400">
        <ele>1309.0</ele>
        <time>2020-07-24T14:00:44Z</time>
      </trkpt>
      <trkpt lat="42.8575020" lon="0.5036920">
        <ele>1307.6</ele>
        <time>2020-07-24T14:00:45Z</time>
      </trkpt>
      <trkpt lat="42.8574620" lon="0.5037400">
        <ele>1306.4</ele>
        <time>2020-07-24T14:00:46Z</time>
      </trkpt>
      <trkpt lat="42.8573930" lon="0.5038250">
        <ele>1304.8</ele>
        <time>2020-07-24T14:00:48Z</time>
      </trkpt>
      <trkpt lat="42.8573560" lon="0.5038760">
        <ele>1304.0</ele>
        <time>2020-07-24T14:00:49Z</time>
      </trkpt>
      <trkpt lat="42.8573170" lon="0.5039370">
        <ele>1303.4</ele>
        <time>2020-07-24T14:00:50Z</time>
      </trkpt>
      <trkpt lat="42.8572830" lon="0.5040140">
        <ele>1302.8</ele>
        <time>2020-07-24T14:00:51Z</time>
      </trkpt>
      <trkpt lat="42.8572540" lon="0.5041030">
        <ele>1302.2</ele>
        <time>2020-07-24T14:00:52Z</time>
      </trkpt>
      <trkpt lat="42.8572250" lon="0.5042010">
        <ele>1301.8</ele>
        <time>2020-07-24T14:00:53Z</time>
      </trkpt>
      <trkpt lat="42.8571670" lon="0.5044130">
        <ele>1301.0</ele>
        <time>2020-07-24T14:00:55Z</time>
      </trkpt>
      <trkpt lat="42.8570980" lon="0.5047800">
        <ele>1300.4</ele>
        <time>2020-07-24T14:00:58Z</time>
      </trkpt>
      <trkpt lat="42.8570750" lon="0.5049400">
        <ele>1300.0</ele>
        <time>2020-07-24T14:00:59Z</time>
      </trkpt>
      <trkpt lat="42.8570310" lon="0.5052350">
        <ele>1299.0</ele>
        <time>2020-07-24T14:01:01Z</time>
      </trkpt>
      <trkpt lat="42.8569890" lon="0.5053830">
        <ele>1298.4</ele>
        <time>2020-07-24T14:01:02Z</time>
      </trkpt>
      <trkpt lat="42.8569380" lon="0.5055280">
        <ele>1297.4</ele>
        <time>2020-07-24T14:01:03Z</time>
      </trkpt>
      <trkpt lat="42.8568820" lon="0.5056670">
        <ele>1296.6</ele>
        <time>2020-07-24T14:01:04Z</time>
      </trkpt>
      <trkpt lat="42.8568270" lon="0.5058090">
        <ele>1296.0</ele>
        <time>2020-07-24T14:01:05Z</time>
      </trkpt>
      <trkpt lat="42.8567760" lon="0.5059580">
        <ele>1295.6</ele>
        <time>2020-07-24T14:01:06Z</time>
      </trkpt>
      <trkpt lat="42.8567290" lon="0.5060970">
        <ele>1295.0</ele>
        <time>2020-07-24T14:01:07Z</time>
      </trkpt>
      <trkpt lat="42.8566190" lon="0.5063640">
        <ele>1293.6</ele>
        <time>2020-07-24T14:01:09Z</time>
      </trkpt>
      <trkpt lat="42.8564670" lon="0.5066000">
        <ele>1292.0</ele>
        <time>2020-07-24T14:01:11Z</time>
      </trkpt>
      <trkpt lat="42.8562960" lon="0.5068190">
        <ele>1290.8</ele>
        <time>2020-07-24T14:01:13Z</time>
      </trkpt>
      <trkpt lat="42.8561180" lon="0.5070360">
        <ele>1289.4</ele>
        <time>2020-07-24T14:01:15Z</time>
      </trkpt>
      <trkpt lat="42.8560340" lon="0.5071410">
        <ele>1288.8</ele>
        <time>2020-07-24T14:01:16Z</time>
      </trkpt>
      <trkpt lat="42.8558870" lon="0.5073550">
        <ele>1287.6</ele>
        <time>2020-07-24T14:01:18Z</time>
      </trkpt>
      <trkpt lat="42.8557520" lon="0.5075880">
        <ele>1285.8</ele>
        <time>2020-07-24T14:01:20Z</time>
      </trkpt>
      <trkpt lat="42.8556360" lon="0.5078430">
        <ele>1284.4</ele>
        <time>2020-07-24T14:01:22Z</time>
      </trkpt>
      <trkpt lat="42.8555280" lon="0.5080960">
        <ele>1283.4</ele>
        <time>2020-07-24T14:01:24Z</time>
      </trkpt>
      <trkpt lat="42.8554690" lon="0.5082230">
        <ele>1282.8</ele>
        <time>2020-07-24T14:01:25Z</time>
      </trkpt>
      <trkpt lat="42.8553980" lon="0.5083460">
        <ele>1282.2</ele>
        <time>2020-07-24T14:01:26Z</time>
      </trkpt>
      <trkpt lat="42.8553240" lon="0.5084720">
        <ele>1281.2</ele>
        <time>2020-07-24T14:01:27Z</time>
      </trkpt>
      <trkpt lat="42.8552500" lon="0.5085990">
        <ele>1279.8</ele>
        <time>2020-07-24T14:01:28Z</time>
      </trkpt>
      <trkpt lat="42.8551780" lon="0.5087270">
        <ele>1278.8</ele>
        <time>2020-07-24T14:01:29Z</time>
      </trkpt>
      <trkpt lat="42.8551070" lon="0.5088620">
        <ele>1277.8</ele>
        <time>2020-07-24T14:01:30Z</time>
      </trkpt>
      <trkpt lat="42.8550390" lon="0.5090040">
        <ele>1277.0</ele>
        <time>2020-07-24T14:01:31Z</time>
      </trkpt>
      <trkpt lat="42.8548150" lon="0.5094030">
        <ele>1275.6</ele>
        <time>2020-07-24T14:01:34Z</time>
      </trkpt>
      <trkpt lat="42.8546750" lon="0.5096300">
        <ele>1274.2</ele>
        <time>2020-07-24T14:01:36Z</time>
      </trkpt>
      <trkpt lat="42.8545800" lon="0.5098570">
        <ele>1272.8</ele>
        <time>2020-07-24T14:01:38Z</time>
      </trkpt>
      <trkpt lat="42.8545330" lon="0.5101160">
        <ele>1271.8</ele>
        <time>2020-07-24T14:01:40Z</time>
      </trkpt>
      <trkpt lat="42.8545150" lon="0.5102530">
        <ele>1271.4</ele>
        <time>2020-07-24T14:01:41Z</time>
      </trkpt>
      <trkpt lat="42.8544360" lon="0.5106740">
        <ele>1270.8</ele>
        <time>2020-07-24T14:01:44Z</time>
      </trkpt>
      <trkpt lat="42.8543930" lon="0.5108070">
        <ele>1270.4</ele>
        <time>2020-07-24T14:01:45Z</time>
      </trkpt>
      <trkpt lat="42.8542970" lon="0.5110550">
        <ele>1269.2</ele>
        <time>2020-07-24T14:01:47Z</time>
      </trkpt>
      <trkpt lat="42.8542200" lon="0.5112890">
        <ele>1268.0</ele>
        <time>2020-07-24T14:01:49Z</time>
      </trkpt>
      <trkpt lat="42.8541940" lon="0.5114120">
        <ele>1267.2</ele>
        <time>2020-07-24T14:01:50Z</time>
      </trkpt>
      <trkpt lat="42.8541720" lon="0.5115380">
        <ele>1266.6</ele>
        <time>2020-07-24T14:01:51Z</time>
      </trkpt>
      <trkpt lat="42.8541260" lon="0.5117930">
        <ele>1265.4</ele>
        <time>2020-07-24T14:01:53Z</time>
      </trkpt>
      <trkpt lat="42.8540190" lon="0.5121580">
        <ele>1264.2</ele>
        <time>2020-07-24T14:01:56Z</time>
      </trkpt>
      <trkpt lat="42.8539510" lon="0.5124170">
        <ele>1263.6</ele>
        <time>2020-07-24T14:01:58Z</time>
      </trkpt>
      <trkpt lat="42.8539190" lon="0.5125500">
        <ele>1263.0</ele>
        <time>2020-07-24T14:01:59Z</time>
      </trkpt>
      <trkpt lat="42.8538040" lon="0.5130730">
        <ele>1262.0</ele>
        <time>2020-07-24T14:02:03Z</time>
      </trkpt>
      <trkpt lat="42.8537350" lon="0.5133380">
        <ele>1261.6</ele>
        <time>2020-07-24T14:02:05Z</time>
      </trkpt>
      <trkpt lat="42.8535780" lon="0.5138400">
        <ele>1261.0</ele>
        <time>2020-07-24T14:02:09Z</time>
      </trkpt>
      <trkpt lat="42.8535370" lon="0.5139650">
        <ele>1260.8</ele>
        <time>2020-07-24T14:02:10Z</time>
      </trkpt>
      <trkpt lat="42.8534920" lon="0.5140890">
        <ele>1260.8</ele>
        <time>2020-07-24T14:02:11Z</time>
      </trkpt>
      <trkpt lat="42.8533520" lon="0.5144530">
        <ele>1259.8</ele>
        <time>2020-07-24T14:02:14Z</time>
      </trkpt>
      <trkpt lat="42.8532840" lon="0.5147120">
        <ele>1258.4</ele>
        <time>2020-07-24T14:02:16Z</time>
      </trkpt>
      <trkpt lat="42.8532610" lon="0.5148490">
        <ele>1258.0</ele>
        <time>2020-07-24T14:02:17Z</time>
      </trkpt>
      <trkpt lat="42.8532190" lon="0.5151150">
        <ele>1257.0</ele>
        <time>2020-07-24T14:02:19Z</time>
      </trkpt>
      <trkpt lat="42.8531390" lon="0.5154790">
        <ele>1256.0</ele>
        <time>2020-07-24T14:02:22Z</time>
      </trkpt>
      <trkpt lat="42.8531000" lon="0.5155860">
        <ele>1256.0</ele>
        <time>2020-07-24T14:02:23Z</time>
      </trkpt>
      <trkpt lat="42.8530050" lon="0.5157760">
        <ele>1255.8</ele>
        <time>2020-07-24T14:02:25Z</time>
      </trkpt>
      <trkpt lat="42.8529070" lon="0.5159300">
        <ele>1255.6</ele>
        <time>2020-07-24T14:02:27Z</time>
      </trkpt>
      <trkpt lat="42.8526600" lon="0.5162660">
        <ele>1255.2</ele>
        <time>2020-07-24T14:02:32Z</time>
      </trkpt>
      <trkpt lat="42.8525710" lon="0.5163880">
        <ele>1255.0</ele>
        <time>2020-07-24T14:02:34Z</time>
      </trkpt>
      <trkpt lat="42.8525130" lon="0.5164700">
        <ele>1253.8</ele>
        <time>2020-07-24T14:02:36Z</time>
      </trkpt>
      <trkpt lat="42.8524940" lon="0.5164940">
        <ele>1252.8</ele>
        <time>2020-07-24T14:02:37Z</time>
      </trkpt>
      <trkpt lat="42.8524830" lon="0.5165040">
        <ele>1251.8</ele>
        <time>2020-07-24T14:02:38Z</time>
      </trkpt>
      <trkpt lat="42.8524050" lon="0.5167420">
        <ele>1250.6</ele>
        <time>2020-07-24T14:02:54Z</time>
      </trkpt>
      <trkpt lat="42.8523410" lon="0.5168380">
        <ele>1250.4</ele>
        <time>2020-07-24T14:02:56Z</time>
      </trkpt>
      <trkpt lat="42.8522700" lon="0.5169510">
        <ele>1249.6</ele>
        <time>2020-07-24T14:02:58Z</time>
      </trkpt>
      <trkpt lat="42.8522340" lon="0.5170110">
        <ele>1249.4</ele>
        <time>2020-07-24T14:02:59Z</time>
      </trkpt>
      <trkpt lat="42.8522030" lon="0.5170830">
        <ele>1249.2</ele>
        <time>2020-07-24T14:03:00Z</time>
      </trkpt>
      <trkpt lat="42.8521690" lon="0.5171680">
        <ele>1249.0</ele>
        <time>2020-07-24T14:03:01Z</time>
      </trkpt>
      <trkpt lat="42.8521380" lon="0.5172580">
        <ele>1248.8</ele>
        <time>2020-07-24T14:03:02Z</time>
      </trkpt>
      <trkpt lat="42.8521080" lon="0.5173510">
        <ele>1248.6</ele>
        <time>2020-07-24T14:03:03Z</time>
      </trkpt>
      <trkpt lat="42.8520830" lon="0.5174490">
        <ele>1248.2</ele>
        <time>2020-07-24T14:03:04Z</time>
      </trkpt>
      <trkpt lat="42.8520430" lon="0.5177590">
        <ele>1247.6</ele>
        <time>2020-07-24T14:03:07Z</time>
      </trkpt>
      <trkpt lat="42.8520630" lon="0.5179730">
        <ele>1247.4</ele>
        <time>2020-07-24T14:03:09Z</time>
      </trkpt>
      <trkpt lat="42.8520910" lon="0.5180730">
        <ele>1247.4</ele>
        <time>2020-07-24T14:03:10Z</time>
      </trkpt>
      <trkpt lat="42.8521330" lon="0.5181650">
        <ele>1247.6</ele>
        <time>2020-07-24T14:03:11Z</time>
      </trkpt>
      <trkpt lat="42.8522330" lon="0.5183260">
        <ele>1247.6</ele>
        <time>2020-07-24T14:03:13Z</time>
      </trkpt>
      <trkpt lat="42.8524460" lon="0.5185790">
        <ele>1247.8</ele>
        <time>2020-07-24T14:03:17Z</time>
      </trkpt>
      <trkpt lat="42.8524910" lon="0.5186350">
        <ele>1247.6</ele>
        <time>2020-07-24T14:03:18Z</time>
      </trkpt>
      <trkpt lat="42.8525420" lon="0.5187690">
        <ele>1247.6</ele>
        <time>2020-07-24T14:03:20Z</time>
      </trkpt>
      <trkpt lat="42.8525370" lon="0.5188430">
        <ele>1247.6</ele>
        <time>2020-07-24T14:03:21Z</time>
      </trkpt>
      <trkpt lat="42.8525140" lon="0.5189060">
        <ele>1247.6</ele>
        <time>2020-07-24T14:03:22Z</time>
      </trkpt>
      <trkpt lat="42.8524280" lon="0.5189810">
        <ele>1248.0</ele>
        <time>2020-07-24T14:03:24Z</time>
      </trkpt>
      <trkpt lat="42.8523260" lon="0.5189850">
        <ele>1248.4</ele>
        <time>2020-07-24T14:03:26Z</time>
      </trkpt>
      <trkpt lat="42.8522340" lon="0.5189760">
        <ele>1248.8</ele>
        <time>2020-07-24T14:03:28Z</time>
      </trkpt>
      <trkpt lat="42.8521910" lon="0.5189830">
        <ele>1248.8</ele>
        <time>2020-07-24T14:03:29Z</time>
      </trkpt>
      <trkpt lat="42.8521110" lon="0.5190200">
        <ele>1249.2</ele>
        <time>2020-07-24T14:03:31Z</time>
      </trkpt>
      <trkpt lat="42.8520730" lon="0.5190480">
        <ele>1249.4</ele>
        <time>2020-07-24T14:03:32Z</time>
      </trkpt>
      <trkpt lat="42.8519280" lon="0.5191870">
        <ele>1250.6</ele>
        <time>2020-07-24T14:03:36Z</time>
      </trkpt>
      <trkpt lat="42.8518230" lon="0.5193010">
        <ele>1250.6</ele>
        <time>2020-07-24T14:03:39Z</time>
      </trkpt>
      <trkpt lat="42.8517030" lon="0.5194300">
        <ele>1250.6</ele>
        <time>2020-07-24T14:03:42Z</time>
      </trkpt>
      <trkpt lat="42.8515850" lon="0.5195840">
        <ele>1250.2</ele>
        <time>2020-07-24T14:03:45Z</time>
      </trkpt>
      <trkpt lat="42.8515490" lon="0.5196420">
        <ele>1250.2</ele>
        <time>2020-07-24T14:03:46Z</time>
      </trkpt>
      <trkpt lat="42.8514620" lon="0.5198330">
        <ele>1249.6</ele>
        <time>2020-07-24T14:03:49Z</time>
      </trkpt>
      <trkpt lat="42.8514340" lon="0.5198980">
        <ele>1249.8</ele>
        <time>2020-07-24T14:03:50Z</time>
      </trkpt>
      <trkpt lat="42.8512680" lon="0.5203510">
        <ele>1250.4</ele>
        <time>2020-07-24T14:03:56Z</time>
      </trkpt>
      <trkpt lat="42.8512360" lon="0.5204310">
        <ele>1250.4</ele>
        <time>2020-07-24T14:03:57Z</time>
      </trkpt>
      <trkpt lat="42.8511370" lon="0.5206750">
        <ele>1250.0</ele>
        <time>2020-07-24T14:04:00Z</time>
      </trkpt>
      <trkpt lat="42.8510240" lon="0.5210220">
        <ele>1250.0</ele>
        <time>2020-07-24T14:04:04Z</time>
      </trkpt>
      <trkpt lat="42.8509250" lon="0.5215750">
        <ele>1251.6</ele>
        <time>2020-07-24T14:04:10Z</time>
      </trkpt>
      <trkpt lat="42.8509120" lon="0.5216670">
        <ele>1251.6</ele>
        <time>2020-07-24T14:04:11Z</time>
      </trkpt>
      <trkpt lat="42.8508420" lon="0.5222110">
        <ele>1250.6</ele>
        <time>2020-07-24T14:04:17Z</time>
      </trkpt>
      <trkpt lat="42.8508390" lon="0.5223020">
        <ele>1250.4</ele>
        <time>2020-07-24T14:04:18Z</time>
      </trkpt>
      <trkpt lat="42.8508510" lon="0.5224840">
        <ele>1250.2</ele>
        <time>2020-07-24T14:04:20Z</time>
      </trkpt>
      <trkpt lat="42.8508790" lon="0.5227600">
        <ele>1249.6</ele>
        <time>2020-07-24T14:04:24Z</time>
      </trkpt>
      <trkpt lat="42.8508830" lon="0.5228200">
        <ele>1249.2</ele>
        <time>2020-07-24T14:04:25Z</time>
      </trkpt>
      <trkpt lat="42.8509140" lon="0.5230920">
        <ele>1249.0</ele>
        <time>2020-07-24T14:04:29Z</time>
      </trkpt>
      <trkpt lat="42.8509100" lon="0.5231610">
        <ele>1249.0</ele>
        <time>2020-07-24T14:04:30Z</time>
      </trkpt>
      <trkpt lat="42.8508390" lon="0.5232420">
        <ele>1249.0</ele>
        <time>2020-07-24T14:04:32Z</time>
      </trkpt>
      <trkpt lat="42.8507360" lon="0.5232090">
        <ele>1248.8</ele>
        <time>2020-07-24T14:04:34Z</time>
      </trkpt>
      <trkpt lat="42.8506810" lon="0.5231740">
        <ele>1248.6</ele>
        <time>2020-07-24T14:04:35Z</time>
      </trkpt>
      <trkpt lat="42.8503970" lon="0.5230120">
        <ele>1248.0</ele>
        <time>2020-07-24T14:04:40Z</time>
      </trkpt>
      <trkpt lat="42.8503390" lon="0.5229750">
        <ele>1247.6</ele>
        <time>2020-07-24T14:04:41Z</time>
      </trkpt>
      <trkpt lat="42.8501680" lon="0.5228970">
        <ele>1246.8</ele>
        <time>2020-07-24T14:04:44Z</time>
      </trkpt>
      <trkpt lat="42.8500490" lon="0.5228670">
        <ele>1246.4</ele>
        <time>2020-07-24T14:04:46Z</time>
      </trkpt>
      <trkpt lat="42.8499230" lon="0.5228610">
        <ele>1246.4</ele>
        <time>2020-07-24T14:04:48Z</time>
      </trkpt>
      <trkpt lat="42.8497780" lon="0.5228870">
        <ele>1246.6</ele>
        <time>2020-07-24T14:04:50Z</time>
      </trkpt>
      <trkpt lat="42.8496320" lon="0.5229410">
        <ele>1247.0</ele>
        <time>2020-07-24T14:04:52Z</time>
      </trkpt>
      <trkpt lat="42.8494730" lon="0.5230210">
        <ele>1247.2</ele>
        <time>2020-07-24T14:04:54Z</time>
      </trkpt>
      <trkpt lat="42.8490030" lon="0.5233920">
        <ele>1246.6</ele>
        <time>2020-07-24T14:05:00Z</time>
      </trkpt>
      <trkpt lat="42.8489330" lon="0.5234730">
        <ele>1246.4</ele>
        <time>2020-07-24T14:05:01Z</time>
      </trkpt>
      <trkpt lat="42.8487960" lon="0.5236470">
        <ele>1245.6</ele>
        <time>2020-07-24T14:05:03Z</time>
      </trkpt>
      <trkpt lat="42.8486020" lon="0.5239240">
        <ele>1244.6</ele>
        <time>2020-07-24T14:05:06Z</time>
      </trkpt>
      <trkpt lat="42.8485390" lon="0.5240210">
        <ele>1244.2</ele>
        <time>2020-07-24T14:05:07Z</time>
      </trkpt>
      <trkpt lat="42.8483430" lon="0.5243150">
        <ele>1243.0</ele>
        <time>2020-07-24T14:05:10Z</time>
      </trkpt>
      <trkpt lat="42.8481390" lon="0.5246100">
        <ele>1242.4</ele>
        <time>2020-07-24T14:05:13Z</time>
      </trkpt>
      <trkpt lat="42.8480010" lon="0.5248150">
        <ele>1242.0</ele>
        <time>2020-07-24T14:05:15Z</time>
      </trkpt>
      <trkpt lat="42.8478040" lon="0.5251430">
        <ele>1240.8</ele>
        <time>2020-07-24T14:05:18Z</time>
      </trkpt>
      <trkpt lat="42.8476790" lon="0.5253690">
        <ele>1240.4</ele>
        <time>2020-07-24T14:05:20Z</time>
      </trkpt>
      <trkpt lat="42.8475560" lon="0.5256050">
        <ele>1239.8</ele>
        <time>2020-07-24T14:05:22Z</time>
      </trkpt>
      <trkpt lat="42.8474340" lon="0.5258470">
        <ele>1238.2</ele>
        <time>2020-07-24T14:05:24Z</time>
      </trkpt>
      <trkpt lat="42.8473150" lon="0.5260890">
        <ele>1236.6</ele>
        <time>2020-07-24T14:05:26Z</time>
      </trkpt>
      <trkpt lat="42.8472000" lon="0.5263490">
        <ele>1236.0</ele>
        <time>2020-07-24T14:05:28Z</time>
      </trkpt>
      <trkpt lat="42.8471470" lon="0.5264840">
        <ele>1235.8</ele>
        <time>2020-07-24T14:05:29Z</time>
      </trkpt>
      <trkpt lat="42.8470540" lon="0.5267680">
        <ele>1235.4</ele>
        <time>2020-07-24T14:05:31Z</time>
      </trkpt>
      <trkpt lat="42.8469330" lon="0.5272340">
        <ele>1233.8</ele>
        <time>2020-07-24T14:05:34Z</time>
      </trkpt>
      <trkpt lat="42.8469020" lon="0.5273840">
        <ele>1233.2</ele>
        <time>2020-07-24T14:05:35Z</time>
      </trkpt>
      <trkpt lat="42.8468810" lon="0.5275370">
        <ele>1232.8</ele>
        <time>2020-07-24T14:05:36Z</time>
      </trkpt>
      <trkpt lat="42.8468580" lon="0.5278330">
        <ele>1232.2</ele>
        <time>2020-07-24T14:05:38Z</time>
      </trkpt>
      <trkpt lat="42.8468550" lon="0.5279760">
        <ele>1231.8</ele>
        <time>2020-07-24T14:05:39Z</time>
      </trkpt>
      <trkpt lat="42.8468820" lon="0.5285000">
        <ele>1230.6</ele>
        <time>2020-07-24T14:05:43Z</time>
      </trkpt>
      <trkpt lat="42.8468830" lon="0.5286230">
        <ele>1230.4</ele>
        <time>2020-07-24T14:05:44Z</time>
      </trkpt>
      <trkpt lat="42.8468290" lon="0.5288470">
        <ele>1230.0</ele>
        <time>2020-07-24T14:05:46Z</time>
      </trkpt>
      <trkpt lat="42.8466630" lon="0.5290710">
        <ele>1229.4</ele>
        <time>2020-07-24T14:05:49Z</time>
      </trkpt>
      <trkpt lat="42.8465510" lon="0.5292020">
        <ele>1228.4</ele>
        <time>2020-07-24T14:05:51Z</time>
      </trkpt>
      <trkpt lat="42.8463300" lon="0.5295290">
        <ele>1227.6</ele>
        <time>2020-07-24T14:05:55Z</time>
      </trkpt>
      <trkpt lat="42.8461460" lon="0.5298170">
        <ele>1227.4</ele>
        <time>2020-07-24T14:05:58Z</time>
      </trkpt>
      <trkpt lat="42.8459470" lon="0.5301120">
        <ele>1227.0</ele>
        <time>2020-07-24T14:06:01Z</time>
      </trkpt>
      <trkpt lat="42.8458780" lon="0.5302120">
        <ele>1226.8</ele>
        <time>2020-07-24T14:06:02Z</time>
      </trkpt>
      <trkpt lat="42.8457450" lon="0.5304240">
        <ele>1226.2</ele>
        <time>2020-07-24T14:06:04Z</time>
      </trkpt>
      <trkpt lat="42.8456260" lon="0.5306520">
        <ele>1225.4</ele>
        <time>2020-07-24T14:06:06Z</time>
      </trkpt>
      <trkpt lat="42.8455710" lon="0.5307690">
        <ele>1225.0</ele>
        <time>2020-07-24T14:06:07Z</time>
      </trkpt>
      <trkpt lat="42.8454650" lon="0.5310220">
        <ele>1224.4</ele>
        <time>2020-07-24T14:06:09Z</time>
      </trkpt>
      <trkpt lat="42.8454110" lon="0.5311510">
        <ele>1224.0</ele>
        <time>2020-07-24T14:06:10Z</time>
      </trkpt>
      <trkpt lat="42.8453000" lon="0.5314060">
        <ele>1222.8</ele>
        <time>2020-07-24T14:06:12Z</time>
      </trkpt>
      <trkpt lat="42.8452390" lon="0.5315330">
        <ele>1222.2</ele>
        <time>2020-07-24T14:06:13Z</time>
      </trkpt>
      <trkpt lat="42.8451760" lon="0.5316600">
        <ele>1221.6</ele>
        <time>2020-07-24T14:06:14Z</time>
      </trkpt>
      <trkpt lat="42.8449640" lon="0.5320300">
        <ele>1220.6</ele>
        <time>2020-07-24T14:06:17Z</time>
      </trkpt>
      <trkpt lat="42.8448050" lon="0.5322570">
        <ele>1219.0</ele>
        <time>2020-07-24T14:06:19Z</time>
      </trkpt>
      <trkpt lat="42.8447240" lon="0.5323700">
        <ele>1218.0</ele>
        <time>2020-07-24T14:06:20Z</time>
      </trkpt>
      <trkpt lat="42.8445670" lon="0.5326070">
        <ele>1216.2</ele>
        <time>2020-07-24T14:06:22Z</time>
      </trkpt>
      <trkpt lat="42.8444160" lon="0.5328570">
        <ele>1214.6</ele>
        <time>2020-07-24T14:06:24Z</time>
      </trkpt>
      <trkpt lat="42.8443470" lon="0.5329900">
        <ele>1213.8</ele>
        <time>2020-07-24T14:06:25Z</time>
      </trkpt>
      <trkpt lat="42.8442850" lon="0.5331300">
        <ele>1213.0</ele>
        <time>2020-07-24T14:06:26Z</time>
      </trkpt>
      <trkpt lat="42.8441760" lon="0.5333980">
        <ele>1211.4</ele>
        <time>2020-07-24T14:06:28Z</time>
      </trkpt>
      <trkpt lat="42.8440680" lon="0.5336750">
        <ele>1210.2</ele>
        <time>2020-07-24T14:06:30Z</time>
      </trkpt>
      <trkpt lat="42.8437970" lon="0.5343590">
        <ele>1208.6</ele>
        <time>2020-07-24T14:06:35Z</time>
      </trkpt>
      <trkpt lat="42.8436750" lon="0.5346290">
        <ele>1206.6</ele>
        <time>2020-07-24T14:06:37Z</time>
      </trkpt>
      <trkpt lat="42.8436110" lon="0.5347640">
        <ele>1205.4</ele>
        <time>2020-07-24T14:06:38Z</time>
      </trkpt>
      <trkpt lat="42.8435470" lon="0.5348950">
        <ele>1204.4</ele>
        <time>2020-07-24T14:06:39Z</time>
      </trkpt>
      <trkpt lat="42.8434820" lon="0.5350220">
        <ele>1203.4</ele>
        <time>2020-07-24T14:06:40Z</time>
      </trkpt>
      <trkpt lat="42.8434190" lon="0.5351490">
        <ele>1202.2</ele>
        <time>2020-07-24T14:06:41Z</time>
      </trkpt>
      <trkpt lat="42.8433640" lon="0.5352770">
        <ele>1200.6</ele>
        <time>2020-07-24T14:06:42Z</time>
      </trkpt>
      <trkpt lat="42.8433150" lon="0.5354080">
        <ele>1199.6</ele>
        <time>2020-07-24T14:06:43Z</time>
      </trkpt>
      <trkpt lat="42.8432760" lon="0.5355420">
        <ele>1199.2</ele>
        <time>2020-07-24T14:06:44Z</time>
      </trkpt>
      <trkpt lat="42.8432230" lon="0.5358110">
        <ele>1198.0</ele>
        <time>2020-07-24T14:06:46Z</time>
      </trkpt>
      <trkpt lat="42.8432060" lon="0.5359450">
        <ele>1198.0</ele>
        <time>2020-07-24T14:06:47Z</time>
      </trkpt>
      <trkpt lat="42.8431800" lon="0.5362110">
        <ele>1199.2</ele>
        <time>2020-07-24T14:06:49Z</time>
      </trkpt>
      <trkpt lat="42.8431410" lon="0.5370060">
        <ele>1199.6</ele>
        <time>2020-07-24T14:06:55Z</time>
      </trkpt>
      <trkpt lat="42.8431840" lon="0.5377160">
        <ele>1198.8</ele>
        <time>2020-07-24T14:07:01Z</time>
      </trkpt>
      <trkpt lat="42.8432210" lon="0.5379160">
        <ele>1198.2</ele>
        <time>2020-07-24T14:07:03Z</time>
      </trkpt>
      <trkpt lat="42.8432750" lon="0.5381820">
        <ele>1197.6</ele>
        <time>2020-07-24T14:07:06Z</time>
      </trkpt>
      <trkpt lat="42.8432940" lon="0.5385790">
        <ele>1197.6</ele>
        <time>2020-07-24T14:07:11Z</time>
      </trkpt>
      <trkpt lat="42.8433100" lon="0.5386500">
        <ele>1197.6</ele>
        <time>2020-07-24T14:07:12Z</time>
      </trkpt>
      <trkpt lat="42.8433850" lon="0.5388310">
        <ele>1198.2</ele>
        <time>2020-07-24T14:07:15Z</time>
      </trkpt>
      <trkpt lat="42.8434400" lon="0.5389290">
        <ele>1199.4</ele>
        <time>2020-07-24T14:07:17Z</time>
      </trkpt>
      <trkpt lat="42.8435380" lon="0.5390500">
        <ele>1200.0</ele>
        <time>2020-07-24T14:07:20Z</time>
      </trkpt>
      <trkpt lat="42.8435730" lon="0.5390880">
        <ele>1200.2</ele>
        <time>2020-07-24T14:07:21Z</time>
      </trkpt>
      <trkpt lat="42.8437060" lon="0.5392250">
        <ele>1200.4</ele>
        <time>2020-07-24T14:07:24Z</time>
      </trkpt>
      <trkpt lat="42.8437910" lon="0.5393380">
        <ele>1200.0</ele>
        <time>2020-07-24T14:07:26Z</time>
      </trkpt>
      <trkpt lat="42.8438380" lon="0.5394970">
        <ele>1199.0</ele>
        <time>2020-07-24T14:07:28Z</time>
      </trkpt>
      <trkpt lat="42.8438380" lon="0.5395830">
        <ele>1198.4</ele>
        <time>2020-07-24T14:07:29Z</time>
      </trkpt>
      <trkpt lat="42.8438220" lon="0.5396630">
        <ele>1198.0</ele>
        <time>2020-07-24T14:07:30Z</time>
      </trkpt>
      <trkpt lat="42.8437600" lon="0.5398090">
        <ele>1197.6</ele>
        <time>2020-07-24T14:07:32Z</time>
      </trkpt>
      <trkpt lat="42.8437200" lon="0.5398730">
        <ele>1197.6</ele>
        <time>2020-07-24T14:07:33Z</time>
      </trkpt>
      <trkpt lat="42.8436380" lon="0.5399970">
        <ele>1197.4</ele>
        <time>2020-07-24T14:07:35Z</time>
      </trkpt>
      <trkpt lat="42.8435580" lon="0.5400930">
        <ele>1197.4</ele>
        <time>2020-07-24T14:07:37Z</time>
      </trkpt>
      <trkpt lat="42.8434350" lon="0.5401410">
        <ele>1197.6</ele>
        <time>2020-07-24T14:07:40Z</time>
      </trkpt>
      <trkpt lat="42.8433880" lon="0.5401500">
        <ele>1197.8</ele>
        <time>2020-07-24T14:07:41Z</time>
      </trkpt>
      <trkpt lat="42.8431450" lon="0.5401930">
        <ele>1197.4</ele>
        <time>2020-07-24T14:07:45Z</time>
      </trkpt>
      <trkpt lat="42.8430710" lon="0.5401940">
        <ele>1197.0</ele>
        <time>2020-07-24T14:07:46Z</time>
      </trkpt>
      <trkpt lat="42.8426850" lon="0.5402560">
        <ele>1196.0</ele>
        <time>2020-07-24T14:07:51Z</time>
      </trkpt>
      <trkpt lat="42.8423210" lon="0.5404270">
        <ele>1195.4</ele>
        <time>2020-07-24T14:07:56Z</time>
      </trkpt>
      <trkpt lat="42.8420120" lon="0.5407140">
        <ele>1196.2</ele>
        <time>2020-07-24T14:08:02Z</time>
      </trkpt>
      <trkpt lat="42.8419180" lon="0.5408200">
        <ele>1197.2</ele>
        <time>2020-07-24T14:08:04Z</time>
      </trkpt>
      <trkpt lat="42.8417770" lon="0.5409740">
        <ele>1198.2</ele>
        <time>2020-07-24T14:08:07Z</time>
      </trkpt>
      <trkpt lat="42.8416430" lon="0.5411360">
        <ele>1198.6</ele>
        <time>2020-07-24T14:08:10Z</time>
      </trkpt>
      <trkpt lat="42.8415540" lon="0.5412520">
        <ele>1198.6</ele>
        <time>2020-07-24T14:08:12Z</time>
      </trkpt>
      <trkpt lat="42.8413800" lon="0.5415110">
        <ele>1199.2</ele>
        <time>2020-07-24T14:08:16Z</time>
      </trkpt>
      <trkpt lat="42.8412050" lon="0.5417640">
        <ele>1199.8</ele>
        <time>2020-07-24T14:08:20Z</time>
      </trkpt>
      <trkpt lat="42.8409490" lon="0.5421320">
        <ele>1199.8</ele>
        <time>2020-07-24T14:08:26Z</time>
      </trkpt>
      <trkpt lat="42.8409050" lon="0.5421940">
        <ele>1199.6</ele>
        <time>2020-07-24T14:08:27Z</time>
      </trkpt>
      <trkpt lat="42.8407670" lon="0.5423910">
        <ele>1198.6</ele>
        <time>2020-07-24T14:08:30Z</time>
      </trkpt>
      <trkpt lat="42.8407200" lon="0.5424560">
        <ele>1198.0</ele>
        <time>2020-07-24T14:08:31Z</time>
      </trkpt>
      <trkpt lat="42.8405690" lon="0.5426400">
        <ele>1197.2</ele>
        <time>2020-07-24T14:08:34Z</time>
      </trkpt>
      <trkpt lat="42.8402230" lon="0.5429990">
        <ele>1197.0</ele>
        <time>2020-07-24T14:08:40Z</time>
      </trkpt>
      <trkpt lat="42.8401550" lon="0.5430650">
        <ele>1197.0</ele>
        <time>2020-07-24T14:08:41Z</time>
      </trkpt>
      <trkpt lat="42.8400850" lon="0.5431340">
        <ele>1197.0</ele>
        <time>2020-07-24T14:08:42Z</time>
      </trkpt>
      <trkpt lat="42.8398750" lon="0.5433910">
        <ele>1195.8</ele>
        <time>2020-07-24T14:08:45Z</time>
      </trkpt>
      <trkpt lat="42.8395000" lon="0.5438830">
        <ele>1194.4</ele>
        <time>2020-07-24T14:08:50Z</time>
      </trkpt>
      <trkpt lat="42.8394190" lon="0.5439880">
        <ele>1193.8</ele>
        <time>2020-07-24T14:08:51Z</time>
      </trkpt>
      <trkpt lat="42.8393330" lon="0.5440920">
        <ele>1193.2</ele>
        <time>2020-07-24T14:08:52Z</time>
      </trkpt>
      <trkpt lat="42.8391510" lon="0.5442960">
        <ele>1192.0</ele>
        <time>2020-07-24T14:08:54Z</time>
      </trkpt>
      <trkpt lat="42.8389590" lon="0.5445030">
        <ele>1190.8</ele>
        <time>2020-07-24T14:08:56Z</time>
      </trkpt>
      <trkpt lat="42.8388600" lon="0.5446110">
        <ele>1190.2</ele>
        <time>2020-07-24T14:08:57Z</time>
      </trkpt>
      <trkpt lat="42.8387630" lon="0.5447190">
        <ele>1189.8</ele>
        <time>2020-07-24T14:08:58Z</time>
      </trkpt>
      <trkpt lat="42.8385750" lon="0.5449220">
        <ele>1188.8</ele>
        <time>2020-07-24T14:09:00Z</time>
      </trkpt>
      <trkpt lat="42.8384000" lon="0.5451070">
        <ele>1186.8</ele>
        <time>2020-07-24T14:09:02Z</time>
      </trkpt>
      <trkpt lat="42.8382320" lon="0.5453020">
        <ele>1185.2</ele>
        <time>2020-07-24T14:09:04Z</time>
      </trkpt>
      <trkpt lat="42.8380780" lon="0.5455330">
        <ele>1184.0</ele>
        <time>2020-07-24T14:09:06Z</time>
      </trkpt>
      <trkpt lat="42.8380030" lon="0.5456560">
        <ele>1183.4</ele>
        <time>2020-07-24T14:09:07Z</time>
      </trkpt>
      <trkpt lat="42.8379220" lon="0.5457780">
        <ele>1182.8</ele>
        <time>2020-07-24T14:09:08Z</time>
      </trkpt>
      <trkpt lat="42.8377490" lon="0.5460180">
        <ele>1181.8</ele>
        <time>2020-07-24T14:09:10Z</time>
      </trkpt>
      <trkpt lat="42.8375700" lon="0.5462620">
        <ele>1180.6</ele>
        <time>2020-07-24T14:09:12Z</time>
      </trkpt>
      <trkpt lat="42.8373940" lon="0.5465230">
        <ele>1179.4</ele>
        <time>2020-07-24T14:09:14Z</time>
      </trkpt>
      <trkpt lat="42.8373100" lon="0.5466560">
        <ele>1178.4</ele>
        <time>2020-07-24T14:09:15Z</time>
      </trkpt>
      <trkpt lat="42.8372250" lon="0.5467950">
        <ele>1177.2</ele>
        <time>2020-07-24T14:09:16Z</time>
      </trkpt>
      <trkpt lat="42.8371480" lon="0.5469410">
        <ele>1176.0</ele>
        <time>2020-07-24T14:09:17Z</time>
      </trkpt>
      <trkpt lat="42.8369960" lon="0.5472460">
        <ele>1174.2</ele>
        <time>2020-07-24T14:09:19Z</time>
      </trkpt>
      <trkpt lat="42.8368540" lon="0.5475800">
        <ele>1172.6</ele>
        <time>2020-07-24T14:09:21Z</time>
      </trkpt>
      <trkpt lat="42.8367830" lon="0.5477530">
        <ele>1171.8</ele>
        <time>2020-07-24T14:09:22Z</time>
      </trkpt>
      <trkpt lat="42.8367110" lon="0.5479180">
        <ele>1171.2</ele>
        <time>2020-07-24T14:09:23Z</time>
      </trkpt>
      <trkpt lat="42.8365680" lon="0.5482200">
        <ele>1168.8</ele>
        <time>2020-07-24T14:09:25Z</time>
      </trkpt>
      <trkpt lat="42.8364950" lon="0.5483590">
        <ele>1167.2</ele>
        <time>2020-07-24T14:09:26Z</time>
      </trkpt>
      <trkpt lat="42.8364270" lon="0.5484940">
        <ele>1166.0</ele>
        <time>2020-07-24T14:09:27Z</time>
      </trkpt>
      <trkpt lat="42.8363650" lon="0.5486350">
        <ele>1164.6</ele>
        <time>2020-07-24T14:09:28Z</time>
      </trkpt>
      <trkpt lat="42.8363110" lon="0.5487810">
        <ele>1163.2</ele>
        <time>2020-07-24T14:09:29Z</time>
      </trkpt>
      <trkpt lat="42.8362600" lon="0.5489290">
        <ele>1161.8</ele>
        <time>2020-07-24T14:09:30Z</time>
      </trkpt>
      <trkpt lat="42.8362170" lon="0.5490840">
        <ele>1160.8</ele>
        <time>2020-07-24T14:09:31Z</time>
      </trkpt>
      <trkpt lat="42.8361560" lon="0.5494060">
        <ele>1159.2</ele>
        <time>2020-07-24T14:09:33Z</time>
      </trkpt>
      <trkpt lat="42.8361370" lon="0.5495670">
        <ele>1158.8</ele>
        <time>2020-07-24T14:09:34Z</time>
      </trkpt>
      <trkpt lat="42.8361090" lon="0.5499010">
        <ele>1157.8</ele>
        <time>2020-07-24T14:09:36Z</time>
      </trkpt>
      <trkpt lat="42.8360820" lon="0.5501890">
        <ele>1155.4</ele>
        <time>2020-07-24T14:09:38Z</time>
      </trkpt>
      <trkpt lat="42.8360630" lon="0.5503170">
        <ele>1154.0</ele>
        <time>2020-07-24T14:09:39Z</time>
      </trkpt>
      <trkpt lat="42.8360270" lon="0.5504350">
        <ele>1153.0</ele>
        <time>2020-07-24T14:09:40Z</time>
      </trkpt>
      <trkpt lat="42.8359690" lon="0.5505390">
        <ele>1152.2</ele>
        <time>2020-07-24T14:09:41Z</time>
      </trkpt>
      <trkpt lat="42.8358910" lon="0.5506130">
        <ele>1151.8</ele>
        <time>2020-07-24T14:09:42Z</time>
      </trkpt>
      <trkpt lat="42.8358000" lon="0.5506620">
        <ele>1151.2</ele>
        <time>2020-07-24T14:09:43Z</time>
      </trkpt>
      <trkpt lat="42.8357000" lon="0.5506880">
        <ele>1150.6</ele>
        <time>2020-07-24T14:09:44Z</time>
      </trkpt>
      <trkpt lat="42.8354880" lon="0.5506840">
        <ele>1149.4</ele>
        <time>2020-07-24T14:09:46Z</time>
      </trkpt>
      <trkpt lat="42.8352740" lon="0.5506690">
        <ele>1148.2</ele>
        <time>2020-07-24T14:09:48Z</time>
      </trkpt>
      <trkpt lat="42.8350570" lon="0.5506670">
        <ele>1146.2</ele>
        <time>2020-07-24T14:09:50Z</time>
      </trkpt>
      <trkpt lat="42.8348370" lon="0.5506630">
        <ele>1144.6</ele>
        <time>2020-07-24T14:09:52Z</time>
      </trkpt>
      <trkpt lat="42.8347240" lon="0.5506630">
        <ele>1144.0</ele>
        <time>2020-07-24T14:09:53Z</time>
      </trkpt>
      <trkpt lat="42.8346090" lon="0.5506650">
        <ele>1143.4</ele>
        <time>2020-07-24T14:09:54Z</time>
      </trkpt>
      <trkpt lat="42.8343770" lon="0.5506730">
        <ele>1142.0</ele>
        <time>2020-07-24T14:09:56Z</time>
      </trkpt>
      <trkpt lat="42.8342620" lon="0.5506830">
        <ele>1141.2</ele>
        <time>2020-07-24T14:09:57Z</time>
      </trkpt>
      <trkpt lat="42.8341510" lon="0.5506970">
        <ele>1140.2</ele>
        <time>2020-07-24T14:09:58Z</time>
      </trkpt>
      <trkpt lat="42.8339350" lon="0.5507360">
        <ele>1139.2</ele>
        <time>2020-07-24T14:10:00Z</time>
      </trkpt>
      <trkpt lat="42.8336190" lon="0.5508000">
        <ele>1137.8</ele>
        <time>2020-07-24T14:10:03Z</time>
      </trkpt>
      <trkpt lat="42.8334150" lon="0.5508410">
        <ele>1136.6</ele>
        <time>2020-07-24T14:10:05Z</time>
      </trkpt>
      <trkpt lat="42.8331110" lon="0.5508740">
        <ele>1135.4</ele>
        <time>2020-07-24T14:10:08Z</time>
      </trkpt>
      <trkpt lat="42.8325230" lon="0.5508880">
        <ele>1134.6</ele>
        <time>2020-07-24T14:10:14Z</time>
      </trkpt>
      <trkpt lat="42.8324270" lon="0.5508800">
        <ele>1134.4</ele>
        <time>2020-07-24T14:10:15Z</time>
      </trkpt>
      <trkpt lat="42.8318850" lon="0.5508240">
        <ele>1133.2</ele>
        <time>2020-07-24T14:10:21Z</time>
      </trkpt>
      <trkpt lat="42.8317970" lon="0.5508100">
        <ele>1133.0</ele>
        <time>2020-07-24T14:10:22Z</time>
      </trkpt>
      <trkpt lat="42.8316230" lon="0.5507780">
        <ele>1131.8</ele>
        <time>2020-07-24T14:10:24Z</time>
      </trkpt>
      <trkpt lat="42.8315360" lon="0.5507670">
        <ele>1130.4</ele>
        <time>2020-07-24T14:10:25Z</time>
      </trkpt>
      <trkpt lat="42.8314500" lon="0.5507550">
        <ele>1129.2</ele>
        <time>2020-07-24T14:10:26Z</time>
      </trkpt>
      <trkpt lat="42.8312840" lon="0.5507240">
        <ele>1127.6</ele>
        <time>2020-07-24T14:10:28Z</time>
      </trkpt>
      <trkpt lat="42.8310390" lon="0.5506690">
        <ele>1126.8</ele>
        <time>2020-07-24T14:10:31Z</time>
      </trkpt>
      <trkpt lat="42.8309600" lon="0.5506440">
        <ele>1126.6</ele>
        <time>2020-07-24T14:10:32Z</time>
      </trkpt>
      <trkpt lat="42.8306490" lon="0.5505250">
        <ele>1127.8</ele>
        <time>2020-07-24T14:10:36Z</time>
      </trkpt>
      <trkpt lat="42.8304950" lon="0.5504730">
        <ele>1128.2</ele>
        <time>2020-07-24T14:10:38Z</time>
      </trkpt>
      <trkpt lat="42.8302560" lon="0.5504510">
        <ele>1128.6</ele>
        <time>2020-07-24T14:10:41Z</time>
      </trkpt>
      <trkpt lat="42.8301800" lon="0.5504680">
        <ele>1128.4</ele>
        <time>2020-07-24T14:10:42Z</time>
      </trkpt>
      <trkpt lat="42.8301070" lon="0.5505000">
        <ele>1128.4</ele>
        <time>2020-07-24T14:10:43Z</time>
      </trkpt>
      <trkpt lat="42.8299070" lon="0.5506330">
        <ele>1128.2</ele>
        <time>2020-07-24T14:10:46Z</time>
      </trkpt>
      <trkpt lat="42.8297790" lon="0.5506970">
        <ele>1127.8</ele>
        <time>2020-07-24T14:10:48Z</time>
      </trkpt>
      <trkpt lat="42.8296510" lon="0.5507070">
        <ele>1127.6</ele>
        <time>2020-07-24T14:10:50Z</time>
      </trkpt>
      <trkpt lat="42.8295220" lon="0.5506810">
        <ele>1127.2</ele>
        <time>2020-07-24T14:10:52Z</time>
      </trkpt>
      <trkpt lat="42.8294010" lon="0.5505770">
        <ele>1126.6</ele>
        <time>2020-07-24T14:10:54Z</time>
      </trkpt>
      <trkpt lat="42.8293540" lon="0.5504920">
        <ele>1126.2</ele>
        <time>2020-07-24T14:10:55Z</time>
      </trkpt>
      <trkpt lat="42.8292490" lon="0.5503360">
        <ele>1125.4</ele>
        <time>2020-07-24T14:10:57Z</time>
      </trkpt>
      <trkpt lat="42.8291840" lon="0.5502880">
        <ele>1125.0</ele>
        <time>2020-07-24T14:10:58Z</time>
      </trkpt>
      <trkpt lat="42.8291090" lon="0.5502620">
        <ele>1124.6</ele>
        <time>2020-07-24T14:10:59Z</time>
      </trkpt>
      <trkpt lat="42.8290280" lon="0.5502500">
        <ele>1124.4</ele>
        <time>2020-07-24T14:11:00Z</time>
      </trkpt>
      <trkpt lat="42.8289450" lon="0.5502510">
        <ele>1124.0</ele>
        <time>2020-07-24T14:11:01Z</time>
      </trkpt>
      <trkpt lat="42.8287660" lon="0.5502750">
        <ele>1123.2</ele>
        <time>2020-07-24T14:11:03Z</time>
      </trkpt>
      <trkpt lat="42.8285780" lon="0.5503180">
        <ele>1122.0</ele>
        <time>2020-07-24T14:11:05Z</time>
      </trkpt>
      <trkpt lat="42.8283760" lon="0.5503740">
        <ele>1120.6</ele>
        <time>2020-07-24T14:11:07Z</time>
      </trkpt>
      <trkpt lat="42.8280810" lon="0.5504850">
        <ele>1119.0</ele>
        <time>2020-07-24T14:11:10Z</time>
      </trkpt>
      <trkpt lat="42.8278910" lon="0.5505680">
        <ele>1118.0</ele>
        <time>2020-07-24T14:11:12Z</time>
      </trkpt>
      <trkpt lat="42.8277170" lon="0.5506490">
        <ele>1116.4</ele>
        <time>2020-07-24T14:11:14Z</time>
      </trkpt>
      <trkpt lat="42.8276340" lon="0.5506810">
        <ele>1115.4</ele>
        <time>2020-07-24T14:11:15Z</time>
      </trkpt>
      <trkpt lat="42.8275480" lon="0.5507000">
        <ele>1114.4</ele>
        <time>2020-07-24T14:11:16Z</time>
      </trkpt>
      <trkpt lat="42.8274620" lon="0.5507090">
        <ele>1113.8</ele>
        <time>2020-07-24T14:11:17Z</time>
      </trkpt>
      <trkpt lat="42.8271940" lon="0.5506880">
        <ele>1112.6</ele>
        <time>2020-07-24T14:11:20Z</time>
      </trkpt>
      <trkpt lat="42.8271060" lon="0.5506610">
        <ele>1112.6</ele>
        <time>2020-07-24T14:11:21Z</time>
      </trkpt>
      <trkpt lat="42.8268590" lon="0.5505440">
        <ele>1111.8</ele>
        <time>2020-07-24T14:11:24Z</time>
      </trkpt>
      <trkpt lat="42.8267770" lon="0.5505230">
        <ele>1111.4</ele>
        <time>2020-07-24T14:11:25Z</time>
      </trkpt>
      <trkpt lat="42.8266150" lon="0.5505390">
        <ele>1110.6</ele>
        <time>2020-07-24T14:11:27Z</time>
      </trkpt>
      <trkpt lat="42.8265310" lon="0.5505640">
        <ele>1110.4</ele>
        <time>2020-07-24T14:11:28Z</time>
      </trkpt>
      <trkpt lat="42.8261970" lon="0.5506440">
        <ele>1109.0</ele>
        <time>2020-07-24T14:11:32Z</time>
      </trkpt>
      <trkpt lat="42.8261100" lon="0.5506460">
        <ele>1108.6</ele>
        <time>2020-07-24T14:11:33Z</time>
      </trkpt>
      <trkpt lat="42.8259320" lon="0.5506290">
        <ele>1107.8</ele>
        <time>2020-07-24T14:11:35Z</time>
      </trkpt>
      <trkpt lat="42.8258370" lon="0.5506210">
        <ele>1107.4</ele>
        <time>2020-07-24T14:11:36Z</time>
      </trkpt>
      <trkpt lat="42.8257390" lon="0.5506070">
        <ele>1106.8</ele>
        <time>2020-07-24T14:11:37Z</time>
      </trkpt>
      <trkpt lat="42.8256430" lon="0.5505950">
        <ele>1106.2</ele>
        <time>2020-07-24T14:11:38Z</time>
      </trkpt>
      <trkpt lat="42.8255490" lon="0.5505820">
        <ele>1105.6</ele>
        <time>2020-07-24T14:11:39Z</time>
      </trkpt>
      <trkpt lat="42.8254620" lon="0.5505670">
        <ele>1105.2</ele>
        <time>2020-07-24T14:11:40Z</time>
      </trkpt>
      <trkpt lat="42.8253000" lon="0.5505590">
        <ele>1103.4</ele>
        <time>2020-07-24T14:11:42Z</time>
      </trkpt>
      <trkpt lat="42.8252190" lon="0.5505630">
        <ele>1102.4</ele>
        <time>2020-07-24T14:11:43Z</time>
      </trkpt>
      <trkpt lat="42.8250450" lon="0.5505780">
        <ele>1101.2</ele>
        <time>2020-07-24T14:11:45Z</time>
      </trkpt>
      <trkpt lat="42.8248580" lon="0.5506140">
        <ele>1100.0</ele>
        <time>2020-07-24T14:11:47Z</time>
      </trkpt>
      <trkpt lat="42.8247630" lon="0.5506440">
        <ele>1099.4</ele>
        <time>2020-07-24T14:11:48Z</time>
      </trkpt>
      <trkpt lat="42.8246700" lon="0.5506740">
        <ele>1098.8</ele>
        <time>2020-07-24T14:11:49Z</time>
      </trkpt>
      <trkpt lat="42.8244830" lon="0.5507160">
        <ele>1096.8</ele>
        <time>2020-07-24T14:11:51Z</time>
      </trkpt>
      <trkpt lat="42.8243010" lon="0.5507400">
        <ele>1094.8</ele>
        <time>2020-07-24T14:11:53Z</time>
      </trkpt>
      <trkpt lat="42.8241390" lon="0.5507690">
        <ele>1093.0</ele>
        <time>2020-07-24T14:11:55Z</time>
      </trkpt>
      <trkpt lat="42.8240140" lon="0.5507900">
        <ele>1090.8</ele>
        <time>2020-07-24T14:11:57Z</time>
      </trkpt>
      <trkpt lat="42.8239650" lon="0.5507870">
        <ele>1089.6</ele>
        <time>2020-07-24T14:11:58Z</time>
      </trkpt>
      <trkpt lat="42.8239190" lon="0.5506760">
        <ele>1088.0</ele>
        <time>2020-07-24T14:12:00Z</time>
      </trkpt>
      <trkpt lat="42.8239180" lon="0.5505940">
        <ele>1087.4</ele>
        <time>2020-07-24T14:12:01Z</time>
      </trkpt>
      <trkpt lat="42.8239200" lon="0.5505100">
        <ele>1087.0</ele>
        <time>2020-07-24T14:12:02Z</time>
      </trkpt>
      <trkpt lat="42.8239230" lon="0.5504150">
        <ele>1086.4</ele>
        <time>2020-07-24T14:12:03Z</time>
      </trkpt>
      <trkpt lat="42.8239310" lon="0.5502320">
        <ele>1085.4</ele>
        <time>2020-07-24T14:12:05Z</time>
      </trkpt>
      <trkpt lat="42.8239340" lon="0.5498660">
        <ele>1084.4</ele>
        <time>2020-07-24T14:12:09Z</time>
      </trkpt>
      <trkpt lat="42.8239480" lon="0.5493730">
        <ele>1083.4</ele>
        <time>2020-07-24T14:12:14Z</time>
      </trkpt>
      <trkpt lat="42.8239480" lon="0.5492710">
        <ele>1083.2</ele>
        <time>2020-07-24T14:12:15Z</time>
      </trkpt>
      <trkpt lat="42.8239570" lon="0.5491730">
        <ele>1083.2</ele>
        <time>2020-07-24T14:12:16Z</time>
      </trkpt>
      <trkpt lat="42.8240250" lon="0.5489980">
        <ele>1082.6</ele>
        <time>2020-07-24T14:12:18Z</time>
      </trkpt>
      <trkpt lat="42.8240880" lon="0.5489390">
        <ele>1082.2</ele>
        <time>2020-07-24T14:12:19Z</time>
      </trkpt>
      <trkpt lat="42.8241710" lon="0.5489100">
        <ele>1081.6</ele>
        <time>2020-07-24T14:12:20Z</time>
      </trkpt>
      <trkpt lat="42.8242610" lon="0.5488990">
        <ele>1081.2</ele>
        <time>2020-07-24T14:12:21Z</time>
      </trkpt>
      <trkpt lat="42.8244580" lon="0.5488810">
        <ele>1080.0</ele>
        <time>2020-07-24T14:12:23Z</time>
      </trkpt>
      <trkpt lat="42.8246510" lon="0.5488500">
        <ele>1078.8</ele>
        <time>2020-07-24T14:12:25Z</time>
      </trkpt>
      <trkpt lat="42.8248740" lon="0.5487810">
        <ele>1078.2</ele>
        <time>2020-07-24T14:12:27Z</time>
      </trkpt>
      <trkpt lat="42.8250890" lon="0.5486980">
        <ele>1077.4</ele>
        <time>2020-07-24T14:12:29Z</time>
      </trkpt>
      <trkpt lat="42.8251890" lon="0.5486600">
        <ele>1076.4</ele>
        <time>2020-07-24T14:12:30Z</time>
      </trkpt>
      <trkpt lat="42.8252840" lon="0.5486220">
        <ele>1075.0</ele>
        <time>2020-07-24T14:12:31Z</time>
      </trkpt>
      <trkpt lat="42.8253660" lon="0.5485800">
        <ele>1073.8</ele>
        <time>2020-07-24T14:12:32Z</time>
      </trkpt>
      <trkpt lat="42.8254380" lon="0.5485200">
        <ele>1072.4</ele>
        <time>2020-07-24T14:12:33Z</time>
      </trkpt>
      <trkpt lat="42.8254880" lon="0.5484410">
        <ele>1071.2</ele>
        <time>2020-07-24T14:12:34Z</time>
      </trkpt>
      <trkpt lat="42.8255090" lon="0.5483460">
        <ele>1070.2</ele>
        <time>2020-07-24T14:12:35Z</time>
      </trkpt>
      <trkpt lat="42.8254730" lon="0.5481690">
        <ele>1068.8</ele>
        <time>2020-07-24T14:12:37Z</time>
      </trkpt>
      <trkpt lat="42.8254110" lon="0.5481110">
        <ele>1068.4</ele>
        <time>2020-07-24T14:12:38Z</time>
      </trkpt>
      <trkpt lat="42.8253360" lon="0.5480860">
        <ele>1068.2</ele>
        <time>2020-07-24T14:12:39Z</time>
      </trkpt>
      <trkpt lat="42.8250860" lon="0.5480920">
        <ele>1067.8</ele>
        <time>2020-07-24T14:12:42Z</time>
      </trkpt>
      <trkpt lat="42.8250040" lon="0.5481040">
        <ele>1067.6</ele>
        <time>2020-07-24T14:12:43Z</time>
      </trkpt>
      <trkpt lat="42.8248360" lon="0.5481120">
        <ele>1067.4</ele>
        <time>2020-07-24T14:12:45Z</time>
      </trkpt>
      <trkpt lat="42.8247550" lon="0.5480970">
        <ele>1067.4</ele>
        <time>2020-07-24T14:12:46Z</time>
      </trkpt>
      <trkpt lat="42.8246800" lon="0.5480640">
        <ele>1067.2</ele>
        <time>2020-07-24T14:12:47Z</time>
      </trkpt>
      <trkpt lat="42.8246090" lon="0.5480110">
        <ele>1067.0</ele>
        <time>2020-07-24T14:12:48Z</time>
      </trkpt>
      <trkpt lat="42.8244820" lon="0.5478600">
        <ele>1066.6</ele>
        <time>2020-07-24T14:12:50Z</time>
      </trkpt>
      <trkpt lat="42.8242270" lon="0.5473970">
        <ele>1066.2</ele>
        <time>2020-07-24T14:12:55Z</time>
      </trkpt>
      <trkpt lat="42.8240970" lon="0.5472560">
        <ele>1066.2</ele>
        <time>2020-07-24T14:12:57Z</time>
      </trkpt>
      <trkpt lat="42.8239430" lon="0.5471520">
        <ele>1065.8</ele>
        <time>2020-07-24T14:12:59Z</time>
      </trkpt>
      <trkpt lat="42.8238640" lon="0.5471080">
        <ele>1065.6</ele>
        <time>2020-07-24T14:13:00Z</time>
      </trkpt>
      <trkpt lat="42.8237870" lon="0.5470660">
        <ele>1065.2</ele>
        <time>2020-07-24T14:13:01Z</time>
      </trkpt>
      <trkpt lat="42.8234890" lon="0.5469130">
        <ele>1064.0</ele>
        <time>2020-07-24T14:13:05Z</time>
      </trkpt>
      <trkpt lat="42.8234120" lon="0.5468920">
        <ele>1063.6</ele>
        <time>2020-07-24T14:13:06Z</time>
      </trkpt>
      <trkpt lat="42.8232530" lon="0.5468760">
        <ele>1063.0</ele>
        <time>2020-07-24T14:13:08Z</time>
      </trkpt>
      <trkpt lat="42.8231720" lon="0.5468810">
        <ele>1062.6</ele>
        <time>2020-07-24T14:13:09Z</time>
      </trkpt>
      <trkpt lat="42.8230940" lon="0.5468930">
        <ele>1062.4</ele>
        <time>2020-07-24T14:13:10Z</time>
      </trkpt>
      <trkpt lat="42.8229430" lon="0.5469520">
        <ele>1062.2</ele>
        <time>2020-07-24T14:13:12Z</time>
      </trkpt>
      <trkpt lat="42.8227960" lon="0.5470550">
        <ele>1062.2</ele>
        <time>2020-07-24T14:13:14Z</time>
      </trkpt>
      <trkpt lat="42.8226040" lon="0.5472600">
        <ele>1061.2</ele>
        <time>2020-07-24T14:13:17Z</time>
      </trkpt>
      <trkpt lat="42.8225530" lon="0.5473590">
        <ele>1060.6</ele>
        <time>2020-07-24T14:13:18Z</time>
      </trkpt>
      <trkpt lat="42.8225010" lon="0.5474610">
        <ele>1060.0</ele>
        <time>2020-07-24T14:13:19Z</time>
      </trkpt>
      <trkpt lat="42.8222780" lon="0.5479240">
        <ele>1059.4</ele>
        <time>2020-07-24T14:13:23Z</time>
      </trkpt>
      <trkpt lat="42.8221090" lon="0.5483310">
        <ele>1058.8</ele>
        <time>2020-07-24T14:13:26Z</time>
      </trkpt>
      <trkpt lat="42.8220420" lon="0.5484630">
        <ele>1058.2</ele>
        <time>2020-07-24T14:13:27Z</time>
      </trkpt>
      <trkpt lat="42.8219630" lon="0.5485710">
        <ele>1057.4</ele>
        <time>2020-07-24T14:13:28Z</time>
      </trkpt>
      <trkpt lat="42.8218750" lon="0.5486640">
        <ele>1056.2</ele>
        <time>2020-07-24T14:13:29Z</time>
      </trkpt>
      <trkpt lat="42.8217790" lon="0.5487440">
        <ele>1055.2</ele>
        <time>2020-07-24T14:13:30Z</time>
      </trkpt>
      <trkpt lat="42.8216770" lon="0.5488160">
        <ele>1054.6</ele>
        <time>2020-07-24T14:13:31Z</time>
      </trkpt>
      <trkpt lat="42.8214820" lon="0.5489610">
        <ele>1053.2</ele>
        <time>2020-07-24T14:13:33Z</time>
      </trkpt>
      <trkpt lat="42.8213950" lon="0.5490410">
        <ele>1052.2</ele>
        <time>2020-07-24T14:13:34Z</time>
      </trkpt>
      <trkpt lat="42.8213190" lon="0.5491390">
        <ele>1050.6</ele>
        <time>2020-07-24T14:13:35Z</time>
      </trkpt>
      <trkpt lat="42.8212550" lon="0.5492560">
        <ele>1049.0</ele>
        <time>2020-07-24T14:13:36Z</time>
      </trkpt>
      <trkpt lat="42.8211990" lon="0.5493790">
        <ele>1048.0</ele>
        <time>2020-07-24T14:13:37Z</time>
      </trkpt>
      <trkpt lat="42.8211370" lon="0.5494910">
        <ele>1047.2</ele>
        <time>2020-07-24T14:13:38Z</time>
      </trkpt>
      <trkpt lat="42.8210590" lon="0.5495970">
        <ele>1046.6</ele>
        <time>2020-07-24T14:13:39Z</time>
      </trkpt>
      <trkpt lat="42.8209710" lon="0.5496910">
        <ele>1045.6</ele>
        <time>2020-07-24T14:13:40Z</time>
      </trkpt>
      <trkpt lat="42.8208790" lon="0.5497820">
        <ele>1044.2</ele>
        <time>2020-07-24T14:13:41Z</time>
      </trkpt>
      <trkpt lat="42.8207860" lon="0.5498840">
        <ele>1042.8</ele>
        <time>2020-07-24T14:13:42Z</time>
      </trkpt>
      <trkpt lat="42.8206930" lon="0.5499970">
        <ele>1041.8</ele>
        <time>2020-07-24T14:13:43Z</time>
      </trkpt>
      <trkpt lat="42.8205990" lon="0.5501200">
        <ele>1041.0</ele>
        <time>2020-07-24T14:13:44Z</time>
      </trkpt>
      <trkpt lat="42.8205070" lon="0.5502410">
        <ele>1040.2</ele>
        <time>2020-07-24T14:13:45Z</time>
      </trkpt>
      <trkpt lat="42.8203170" lon="0.5504940">
        <ele>1038.6</ele>
        <time>2020-07-24T14:13:47Z</time>
      </trkpt>
      <trkpt lat="42.8202230" lon="0.5506360">
        <ele>1037.4</ele>
        <time>2020-07-24T14:13:48Z</time>
      </trkpt>
      <trkpt lat="42.8201310" lon="0.5507840">
        <ele>1036.0</ele>
        <time>2020-07-24T14:13:49Z</time>
      </trkpt>
      <trkpt lat="42.8200420" lon="0.5509350">
        <ele>1035.0</ele>
        <time>2020-07-24T14:13:50Z</time>
      </trkpt>
      <trkpt lat="42.8199550" lon="0.5510900">
        <ele>1033.8</ele>
        <time>2020-07-24T14:13:51Z</time>
      </trkpt>
      <trkpt lat="42.8197940" lon="0.5514140">
        <ele>1032.2</ele>
        <time>2020-07-24T14:13:53Z</time>
      </trkpt>
      <trkpt lat="42.8197200" lon="0.5515660">
        <ele>1031.2</ele>
        <time>2020-07-24T14:13:54Z</time>
      </trkpt>
      <trkpt lat="42.8196480" lon="0.5517090">
        <ele>1029.6</ele>
        <time>2020-07-24T14:13:55Z</time>
      </trkpt>
      <trkpt lat="42.8195730" lon="0.5518420">
        <ele>1028.0</ele>
        <time>2020-07-24T14:13:56Z</time>
      </trkpt>
      <trkpt lat="42.8194910" lon="0.5519620">
        <ele>1026.8</ele>
        <time>2020-07-24T14:13:57Z</time>
      </trkpt>
      <trkpt lat="42.8194000" lon="0.5520720">
        <ele>1025.6</ele>
        <time>2020-07-24T14:13:58Z</time>
      </trkpt>
      <trkpt lat="42.8193020" lon="0.5521740">
        <ele>1024.6</ele>
        <time>2020-07-24T14:13:59Z</time>
      </trkpt>
      <trkpt lat="42.8192010" lon="0.5522710">
        <ele>1023.8</ele>
        <time>2020-07-24T14:14:00Z</time>
      </trkpt>
      <trkpt lat="42.8189950" lon="0.5524640">
        <ele>1022.2</ele>
        <time>2020-07-24T14:14:02Z</time>
      </trkpt>
      <trkpt lat="42.8187890" lon="0.5526770">
        <ele>1020.4</ele>
        <time>2020-07-24T14:14:04Z</time>
      </trkpt>
      <trkpt lat="42.8186870" lon="0.5527850">
        <ele>1019.4</ele>
        <time>2020-07-24T14:14:05Z</time>
      </trkpt>
      <trkpt lat="42.8185890" lon="0.5528920">
        <ele>1018.2</ele>
        <time>2020-07-24T14:14:06Z</time>
      </trkpt>
      <trkpt lat="42.8184930" lon="0.5529960">
        <ele>1016.8</ele>
        <time>2020-07-24T14:14:07Z</time>
      </trkpt>
      <trkpt lat="42.8183940" lon="0.5530960">
        <ele>1015.4</ele>
        <time>2020-07-24T14:14:08Z</time>
      </trkpt>
      <trkpt lat="42.8182880" lon="0.5531870">
        <ele>1013.8</ele>
        <time>2020-07-24T14:14:09Z</time>
      </trkpt>
      <trkpt lat="42.8181750" lon="0.5532750">
        <ele>1012.2</ele>
        <time>2020-07-24T14:14:10Z</time>
      </trkpt>
      <trkpt lat="42.8180570" lon="0.5533600">
        <ele>1010.4</ele>
        <time>2020-07-24T14:14:11Z</time>
      </trkpt>
      <trkpt lat="42.8179360" lon="0.5534480">
        <ele>1008.8</ele>
        <time>2020-07-24T14:14:12Z</time>
      </trkpt>
      <trkpt lat="42.8178160" lon="0.5535390">
        <ele>1007.2</ele>
        <time>2020-07-24T14:14:13Z</time>
      </trkpt>
      <trkpt lat="42.8177010" lon="0.5536340">
        <ele>1005.8</ele>
        <time>2020-07-24T14:14:14Z</time>
      </trkpt>
      <trkpt lat="42.8175920" lon="0.5537320">
        <ele>1004.4</ele>
        <time>2020-07-24T14:14:15Z</time>
      </trkpt>
      <trkpt lat="42.8174900" lon="0.5538330">
        <ele>1003.0</ele>
        <time>2020-07-24T14:14:16Z</time>
      </trkpt>
      <trkpt lat="42.8173970" lon="0.5539310">
        <ele>1001.6</ele>
        <time>2020-07-24T14:14:17Z</time>
      </trkpt>
      <trkpt lat="42.8173070" lon="0.5540260">
        <ele>1000.2</ele>
        <time>2020-07-24T14:14:18Z</time>
      </trkpt>
      <trkpt lat="42.8172220" lon="0.5541230">
        <ele>998.8</ele>
        <time>2020-07-24T14:14:19Z</time>
      </trkpt>
      <trkpt lat="42.8171430" lon="0.5542250">
        <ele>996.8</ele>
        <time>2020-07-24T14:14:20Z</time>
      </trkpt>
      <trkpt lat="42.8170730" lon="0.5543330">
        <ele>994.4</ele>
        <time>2020-07-24T14:14:21Z</time>
      </trkpt>
      <trkpt lat="42.8170130" lon="0.5544610">
        <ele>992.4</ele>
        <time>2020-07-24T14:14:22Z</time>
      </trkpt>
      <trkpt lat="42.8169610" lon="0.5545980">
        <ele>991.0</ele>
        <time>2020-07-24T14:14:23Z</time>
      </trkpt>
      <trkpt lat="42.8169140" lon="0.5547470">
        <ele>989.8</ele>
        <time>2020-07-24T14:14:24Z</time>
      </trkpt>
      <trkpt lat="42.8168820" lon="0.5549040">
        <ele>988.4</ele>
        <time>2020-07-24T14:14:25Z</time>
      </trkpt>
      <trkpt lat="42.8168630" lon="0.5550700">
        <ele>987.2</ele>
        <time>2020-07-24T14:14:26Z</time>
      </trkpt>
      <trkpt lat="42.8168580" lon="0.5552380">
        <ele>986.2</ele>
        <time>2020-07-24T14:14:27Z</time>
      </trkpt>
      <trkpt lat="42.8168610" lon="0.5553990">
        <ele>985.2</ele>
        <time>2020-07-24T14:14:28Z</time>
      </trkpt>
      <trkpt lat="42.8168630" lon="0.5555520">
        <ele>984.2</ele>
        <time>2020-07-24T14:14:29Z</time>
      </trkpt>
      <trkpt lat="42.8168600" lon="0.5556840">
        <ele>982.6</ele>
        <time>2020-07-24T14:14:30Z</time>
      </trkpt>
      <trkpt lat="42.8168450" lon="0.5558060">
        <ele>981.0</ele>
        <time>2020-07-24T14:14:31Z</time>
      </trkpt>
      <trkpt lat="42.8168110" lon="0.5559190">
        <ele>979.6</ele>
        <time>2020-07-24T14:14:32Z</time>
      </trkpt>
      <trkpt lat="42.8167580" lon="0.5560250">
        <ele>978.2</ele>
        <time>2020-07-24T14:14:33Z</time>
      </trkpt>
      <trkpt lat="42.8166850" lon="0.5561090">
        <ele>976.8</ele>
        <time>2020-07-24T14:14:34Z</time>
      </trkpt>
      <trkpt lat="42.8165950" lon="0.5561650">
        <ele>975.4</ele>
        <time>2020-07-24T14:14:35Z</time>
      </trkpt>
      <trkpt lat="42.8164890" lon="0.5562030">
        <ele>974.0</ele>
        <time>2020-07-24T14:14:36Z</time>
      </trkpt>
      <trkpt lat="42.8163760" lon="0.5562340">
        <ele>972.8</ele>
        <time>2020-07-24T14:14:37Z</time>
      </trkpt>
      <trkpt lat="42.8162600" lon="0.5562690">
        <ele>971.8</ele>
        <time>2020-07-24T14:14:38Z</time>
      </trkpt>
      <trkpt lat="42.8161430" lon="0.5563190">
        <ele>971.0</ele>
        <time>2020-07-24T14:14:39Z</time>
      </trkpt>
      <trkpt lat="42.8160290" lon="0.5563920">
        <ele>970.4</ele>
        <time>2020-07-24T14:14:40Z</time>
      </trkpt>
      <trkpt lat="42.8159180" lon="0.5564800">
        <ele>970.0</ele>
        <time>2020-07-24T14:14:41Z</time>
      </trkpt>
      <trkpt lat="42.8158100" lon="0.5565790">
        <ele>969.4</ele>
        <time>2020-07-24T14:14:42Z</time>
      </trkpt>
      <trkpt lat="42.8155850" lon="0.5567850">
        <ele>967.6</ele>
        <time>2020-07-24T14:14:44Z</time>
      </trkpt>
      <trkpt lat="42.8154740" lon="0.5568860">
        <ele>966.4</ele>
        <time>2020-07-24T14:14:45Z</time>
      </trkpt>
      <trkpt lat="42.8153680" lon="0.5569810">
        <ele>964.8</ele>
        <time>2020-07-24T14:14:46Z</time>
      </trkpt>
      <trkpt lat="42.8152620" lon="0.5570650">
        <ele>963.0</ele>
        <time>2020-07-24T14:14:47Z</time>
      </trkpt>
      <trkpt lat="42.8151500" lon="0.5571410">
        <ele>961.4</ele>
        <time>2020-07-24T14:14:48Z</time>
      </trkpt>
      <trkpt lat="42.8150320" lon="0.5572030">
        <ele>960.0</ele>
        <time>2020-07-24T14:14:49Z</time>
      </trkpt>
      <trkpt lat="42.8149080" lon="0.5572620">
        <ele>958.6</ele>
        <time>2020-07-24T14:14:50Z</time>
      </trkpt>
      <trkpt lat="42.8147840" lon="0.5573160">
        <ele>956.8</ele>
        <time>2020-07-24T14:14:51Z</time>
      </trkpt>
      <trkpt lat="42.8146610" lon="0.5573680">
        <ele>955.4</ele>
        <time>2020-07-24T14:14:52Z</time>
      </trkpt>
      <trkpt lat="42.8145370" lon="0.5574170">
        <ele>954.0</ele>
        <time>2020-07-24T14:14:53Z</time>
      </trkpt>
      <trkpt lat="42.8144100" lon="0.5574530">
        <ele>952.8</ele>
        <time>2020-07-24T14:14:54Z</time>
      </trkpt>
      <trkpt lat="42.8142820" lon="0.5574740">
        <ele>951.4</ele>
        <time>2020-07-24T14:14:55Z</time>
      </trkpt>
      <trkpt lat="42.8141490" lon="0.5574850">
        <ele>950.0</ele>
        <time>2020-07-24T14:14:56Z</time>
      </trkpt>
      <trkpt lat="42.8140140" lon="0.5574890">
        <ele>948.6</ele>
        <time>2020-07-24T14:14:57Z</time>
      </trkpt>
      <trkpt lat="42.8138770" lon="0.5574860">
        <ele>947.4</ele>
        <time>2020-07-24T14:14:58Z</time>
      </trkpt>
      <trkpt lat="42.8137430" lon="0.5574840">
        <ele>946.6</ele>
        <time>2020-07-24T14:14:59Z</time>
      </trkpt>
      <trkpt lat="42.8136170" lon="0.5574770">
        <ele>945.6</ele>
        <time>2020-07-24T14:15:00Z</time>
      </trkpt>
      <trkpt lat="42.8134970" lon="0.5574810">
        <ele>944.2</ele>
        <time>2020-07-24T14:15:01Z</time>
      </trkpt>
      <trkpt lat="42.8133860" lon="0.5575140">
        <ele>942.2</ele>
        <time>2020-07-24T14:15:02Z</time>
      </trkpt>
      <trkpt lat="42.8132780" lon="0.5575700">
        <ele>940.2</ele>
        <time>2020-07-24T14:15:03Z</time>
      </trkpt>
      <trkpt lat="42.8131720" lon="0.5576500">
        <ele>938.6</ele>
        <time>2020-07-24T14:15:04Z</time>
      </trkpt>
      <trkpt lat="42.8130690" lon="0.5577470">
        <ele>937.0</ele>
        <time>2020-07-24T14:15:05Z</time>
      </trkpt>
      <trkpt lat="42.8129640" lon="0.5578570">
        <ele>935.8</ele>
        <time>2020-07-24T14:15:06Z</time>
      </trkpt>
      <trkpt lat="42.8128570" lon="0.5579750">
        <ele>934.6</ele>
        <time>2020-07-24T14:15:07Z</time>
      </trkpt>
      <trkpt lat="42.8127520" lon="0.5581020">
        <ele>933.2</ele>
        <time>2020-07-24T14:15:08Z</time>
      </trkpt>
      <trkpt lat="42.8126510" lon="0.5582260">
        <ele>932.0</ele>
        <time>2020-07-24T14:15:09Z</time>
      </trkpt>
      <trkpt lat="42.8125560" lon="0.5583440">
        <ele>930.6</ele>
        <time>2020-07-24T14:15:10Z</time>
      </trkpt>
      <trkpt lat="42.8124680" lon="0.5584530">
        <ele>928.6</ele>
        <time>2020-07-24T14:15:11Z</time>
      </trkpt>
      <trkpt lat="42.8123860" lon="0.5585490">
        <ele>926.6</ele>
        <time>2020-07-24T14:15:12Z</time>
      </trkpt>
      <trkpt lat="42.8123010" lon="0.5586320">
        <ele>925.2</ele>
        <time>2020-07-24T14:15:13Z</time>
      </trkpt>
      <trkpt lat="42.8122100" lon="0.5586990">
        <ele>923.8</ele>
        <time>2020-07-24T14:15:14Z</time>
      </trkpt>
      <trkpt lat="42.8121080" lon="0.5587420">
        <ele>922.8</ele>
        <time>2020-07-24T14:15:15Z</time>
      </trkpt>
      <trkpt lat="42.8118850" lon="0.5587780">
        <ele>920.8</ele>
        <time>2020-07-24T14:15:17Z</time>
      </trkpt>
      <trkpt lat="42.8117670" lon="0.5588110">
        <ele>919.6</ele>
        <time>2020-07-24T14:15:18Z</time>
      </trkpt>
      <trkpt lat="42.8116490" lon="0.5588700">
        <ele>918.0</ele>
        <time>2020-07-24T14:15:19Z</time>
      </trkpt>
      <trkpt lat="42.8115340" lon="0.5589590">
        <ele>916.4</ele>
        <time>2020-07-24T14:15:20Z</time>
      </trkpt>
      <trkpt lat="42.8114210" lon="0.5590560">
        <ele>915.4</ele>
        <time>2020-07-24T14:15:21Z</time>
      </trkpt>
      <trkpt lat="42.8111840" lon="0.5592450">
        <ele>913.6</ele>
        <time>2020-07-24T14:15:23Z</time>
      </trkpt>
      <trkpt lat="42.8110590" lon="0.5593310">
        <ele>912.6</ele>
        <time>2020-07-24T14:15:24Z</time>
      </trkpt>
      <trkpt lat="42.8109350" lon="0.5594220">
        <ele>911.6</ele>
        <time>2020-07-24T14:15:25Z</time>
      </trkpt>
      <trkpt lat="42.8108150" lon="0.5595060">
        <ele>910.2</ele>
        <time>2020-07-24T14:15:26Z</time>
      </trkpt>
      <trkpt lat="42.8106930" lon="0.5595810">
        <ele>909.0</ele>
        <time>2020-07-24T14:15:27Z</time>
      </trkpt>
      <trkpt lat="42.8105670" lon="0.5596420">
        <ele>907.6</ele>
        <time>2020-07-24T14:15:28Z</time>
      </trkpt>
      <trkpt lat="42.8104380" lon="0.5596860">
        <ele>906.2</ele>
        <time>2020-07-24T14:15:29Z</time>
      </trkpt>
      <trkpt lat="42.8103020" lon="0.5597370">
        <ele>904.8</ele>
        <time>2020-07-24T14:15:30Z</time>
      </trkpt>
      <trkpt lat="42.8101650" lon="0.5597870">
        <ele>903.6</ele>
        <time>2020-07-24T14:15:31Z</time>
      </trkpt>
      <trkpt lat="42.8100340" lon="0.5598350">
        <ele>902.2</ele>
        <time>2020-07-24T14:15:32Z</time>
      </trkpt>
      <trkpt lat="42.8099100" lon="0.5598820">
        <ele>900.6</ele>
        <time>2020-07-24T14:15:33Z</time>
      </trkpt>
      <trkpt lat="42.8097910" lon="0.5599300">
        <ele>898.2</ele>
        <time>2020-07-24T14:15:34Z</time>
      </trkpt>
      <trkpt lat="42.8096790" lon="0.5599800">
        <ele>896.0</ele>
        <time>2020-07-24T14:15:35Z</time>
      </trkpt>
      <trkpt lat="42.8095710" lon="0.5600350">
        <ele>894.2</ele>
        <time>2020-07-24T14:15:36Z</time>
      </trkpt>
      <trkpt lat="42.8094680" lon="0.5600920">
        <ele>893.0</ele>
        <time>2020-07-24T14:15:37Z</time>
      </trkpt>
      <trkpt lat="42.8093720" lon="0.5601460">
        <ele>891.8</ele>
        <time>2020-07-24T14:15:38Z</time>
      </trkpt>
      <trkpt lat="42.8092850" lon="0.5601910">
        <ele>890.4</ele>
        <time>2020-07-24T14:15:39Z</time>
      </trkpt>
      <trkpt lat="42.8091950" lon="0.5602110">
        <ele>888.6</ele>
        <time>2020-07-24T14:15:40Z</time>
      </trkpt>
      <trkpt lat="42.8091030" lon="0.5602000">
        <ele>886.8</ele>
        <time>2020-07-24T14:15:41Z</time>
      </trkpt>
      <trkpt lat="42.8090080" lon="0.5601570">
        <ele>884.8</ele>
        <time>2020-07-24T14:15:42Z</time>
      </trkpt>
      <trkpt lat="42.8089140" lon="0.5601060">
        <ele>883.2</ele>
        <time>2020-07-24T14:15:43Z</time>
      </trkpt>
      <trkpt lat="42.8088130" lon="0.5600580">
        <ele>881.4</ele>
        <time>2020-07-24T14:15:44Z</time>
      </trkpt>
      <trkpt lat="42.8087060" lon="0.5600160">
        <ele>879.6</ele>
        <time>2020-07-24T14:15:45Z</time>
      </trkpt>
      <trkpt lat="42.8085880" lon="0.5599820">
        <ele>878.4</ele>
        <time>2020-07-24T14:15:46Z</time>
      </trkpt>
      <trkpt lat="42.8083370" lon="0.5599280">
        <ele>876.6</ele>
        <time>2020-07-24T14:15:48Z</time>
      </trkpt>
      <trkpt lat="42.8080620" lon="0.5599210">
        <ele>875.0</ele>
        <time>2020-07-24T14:15:50Z</time>
      </trkpt>
      <trkpt lat="42.8077890" lon="0.5599330">
        <ele>873.0</ele>
        <time>2020-07-24T14:15:52Z</time>
      </trkpt>
      <trkpt lat="42.8076580" lon="0.5599310">
        <ele>871.4</ele>
        <time>2020-07-24T14:15:53Z</time>
      </trkpt>
      <trkpt lat="42.8075350" lon="0.5599320">
        <ele>869.8</ele>
        <time>2020-07-24T14:15:54Z</time>
      </trkpt>
      <trkpt lat="42.8074190" lon="0.5599430">
        <ele>868.0</ele>
        <time>2020-07-24T14:15:55Z</time>
      </trkpt>
      <trkpt lat="42.8073120" lon="0.5599750">
        <ele>865.8</ele>
        <time>2020-07-24T14:15:56Z</time>
      </trkpt>
      <trkpt lat="42.8072120" lon="0.5600130">
        <ele>864.0</ele>
        <time>2020-07-24T14:15:57Z</time>
      </trkpt>
      <trkpt lat="42.8071130" lon="0.5600430">
        <ele>862.6</ele>
        <time>2020-07-24T14:15:58Z</time>
      </trkpt>
      <trkpt lat="42.8070130" lon="0.5600580">
        <ele>861.4</ele>
        <time>2020-07-24T14:15:59Z</time>
      </trkpt>
      <trkpt lat="42.8069150" lon="0.5600640">
        <ele>860.2</ele>
        <time>2020-07-24T14:16:00Z</time>
      </trkpt>
      <trkpt lat="42.8068240" lon="0.5600630">
        <ele>858.8</ele>
        <time>2020-07-24T14:16:01Z</time>
      </trkpt>
      <trkpt lat="42.8067450" lon="0.5600450">
        <ele>857.2</ele>
        <time>2020-07-24T14:16:02Z</time>
      </trkpt>
      <trkpt lat="42.8066780" lon="0.5600160">
        <ele>855.6</ele>
        <time>2020-07-24T14:16:03Z</time>
      </trkpt>
      <trkpt lat="42.8066290" lon="0.5599780">
        <ele>854.4</ele>
        <time>2020-07-24T14:16:04Z</time>
      </trkpt>
      <trkpt lat="42.8065720" lon="0.5599160">
        <ele>852.4</ele>
        <time>2020-07-24T14:16:06Z</time>
      </trkpt>
      <trkpt lat="42.8065590" lon="0.5598960">
        <ele>851.4</ele>
        <time>2020-07-24T14:16:07Z</time>
      </trkpt>
      <trkpt lat="42.8064740" lon="0.5598580">
        <ele>849.6</ele>
        <time>2020-07-24T14:16:09Z</time>
      </trkpt>
      <trkpt lat="42.8064020" lon="0.5598370">
        <ele>848.2</ele>
        <time>2020-07-24T14:16:35Z</time>
      </trkpt>
      <trkpt lat="42.8063290" lon="0.5598150">
        <ele>848.0</ele>
        <time>2020-07-24T14:16:36Z</time>
      </trkpt>
      <trkpt lat="42.8062790" lon="0.5597820">
        <ele>847.6</ele>
        <time>2020-07-24T14:16:37Z</time>
      </trkpt>
      <trkpt lat="42.8062230" lon="0.5597480">
        <ele>847.2</ele>
        <time>2020-07-24T14:16:38Z</time>
      </trkpt>
      <trkpt lat="42.8061600" lon="0.5597120">
        <ele>847.0</ele>
        <time>2020-07-24T14:16:39Z</time>
      </trkpt>
      <trkpt lat="42.8060880" lon="0.5596840">
        <ele>846.8</ele>
        <time>2020-07-24T14:16:40Z</time>
      </trkpt>
      <trkpt lat="42.8058360" lon="0.5596510">
        <ele>846.8</ele>
        <time>2020-07-24T14:16:43Z</time>
      </trkpt>
      <trkpt lat="42.8053320" lon="0.5596780">
        <ele>845.8</ele>
        <time>2020-07-24T14:16:48Z</time>
      </trkpt>
      <trkpt lat="42.8052330" lon="0.5597130">
        <ele>844.6</ele>
        <time>2020-07-24T14:16:49Z</time>
      </trkpt>
      <trkpt lat="42.8051410" lon="0.5597580">
        <ele>843.4</ele>
        <time>2020-07-24T14:16:50Z</time>
      </trkpt>
      <trkpt lat="42.8050540" lon="0.5598120">
        <ele>842.2</ele>
        <time>2020-07-24T14:16:51Z</time>
      </trkpt>
      <trkpt lat="42.8048760" lon="0.5598860">
        <ele>840.8</ele>
        <time>2020-07-24T14:16:53Z</time>
      </trkpt>
      <trkpt lat="42.8047110" lon="0.5599250">
        <ele>839.4</ele>
        <time>2020-07-24T14:16:55Z</time>
      </trkpt>
      <trkpt lat="42.8046420" lon="0.5599570">
        <ele>838.2</ele>
        <time>2020-07-24T14:16:56Z</time>
      </trkpt>
      <trkpt lat="42.8045990" lon="0.5600200">
        <ele>837.2</ele>
        <time>2020-07-24T14:16:57Z</time>
      </trkpt>
      <trkpt lat="42.8045750" lon="0.5600960">
        <ele>836.2</ele>
        <time>2020-07-24T14:16:58Z</time>
      </trkpt>
      <trkpt lat="42.8045750" lon="0.5601740">
        <ele>835.4</ele>
        <time>2020-07-24T14:16:59Z</time>
      </trkpt>
      <trkpt lat="42.8045960" lon="0.5602570">
        <ele>834.6</ele>
        <time>2020-07-24T14:17:00Z</time>
      </trkpt>
      <trkpt lat="42.8046400" lon="0.5603210">
        <ele>834.2</ele>
        <time>2020-07-24T14:17:01Z</time>
      </trkpt>
      <trkpt lat="42.8046990" lon="0.5603520">
        <ele>833.8</ele>
        <time>2020-07-24T14:17:02Z</time>
      </trkpt>
      <trkpt lat="42.8048630" lon="0.5602760">
        <ele>833.0</ele>
        <time>2020-07-24T14:17:04Z</time>
      </trkpt>
      <trkpt lat="42.8051000" lon="0.5601160">
        <ele>831.6</ele>
        <time>2020-07-24T14:17:07Z</time>
      </trkpt>
      <trkpt lat="42.8051930" lon="0.5600880">
        <ele>831.0</ele>
        <time>2020-07-24T14:17:08Z</time>
      </trkpt>
      <trkpt lat="42.8052910" lon="0.5600710">
        <ele>830.4</ele>
        <time>2020-07-24T14:17:09Z</time>
      </trkpt>
      <trkpt lat="42.8053960" lon="0.5600760">
        <ele>830.0</ele>
        <time>2020-07-24T14:17:10Z</time>
      </trkpt>
      <trkpt lat="42.8054990" lon="0.5600910">
        <ele>829.6</ele>
        <time>2020-07-24T14:17:11Z</time>
      </trkpt>
      <trkpt lat="42.8056050" lon="0.5601110">
        <ele>828.8</ele>
        <time>2020-07-24T14:17:12Z</time>
      </trkpt>
      <trkpt lat="42.8059300" lon="0.5602120">
        <ele>827.6</ele>
        <time>2020-07-24T14:17:15Z</time>
      </trkpt>
      <trkpt lat="42.8060340" lon="0.5602620">
        <ele>827.4</ele>
        <time>2020-07-24T14:17:16Z</time>
      </trkpt>
      <trkpt lat="42.8061300" lon="0.5603140">
        <ele>826.6</ele>
        <time>2020-07-24T14:17:17Z</time>
      </trkpt>
      <trkpt lat="42.8062730" lon="0.5604540">
        <ele>825.0</ele>
        <time>2020-07-24T14:17:19Z</time>
      </trkpt>
      <trkpt lat="42.8063410" lon="0.5606470">
        <ele>823.8</ele>
        <time>2020-07-24T14:17:21Z</time>
      </trkpt>
      <trkpt lat="42.8063080" lon="0.5608430">
        <ele>823.0</ele>
        <time>2020-07-24T14:17:23Z</time>
      </trkpt>
      <trkpt lat="42.8062540" lon="0.5609180">
        <ele>822.8</ele>
        <time>2020-07-24T14:17:24Z</time>
      </trkpt>
      <trkpt lat="42.8061810" lon="0.5609720">
        <ele>822.6</ele>
        <time>2020-07-24T14:17:25Z</time>
      </trkpt>
      <trkpt lat="42.8060100" lon="0.5610220">
        <ele>822.4</ele>
        <time>2020-07-24T14:17:27Z</time>
      </trkpt>
      <trkpt lat="42.8059170" lon="0.5610330">
        <ele>822.4</ele>
        <time>2020-07-24T14:17:28Z</time>
      </trkpt>
      <trkpt lat="42.8057150" lon="0.5610520">
        <ele>822.2</ele>
        <time>2020-07-24T14:17:30Z</time>
      </trkpt>
      <trkpt lat="42.8055030" lon="0.5610970">
        <ele>821.6</ele>
        <time>2020-07-24T14:17:32Z</time>
      </trkpt>
      <trkpt lat="42.8053930" lon="0.5611390">
        <ele>821.2</ele>
        <time>2020-07-24T14:17:33Z</time>
      </trkpt>
      <trkpt lat="42.8051770" lon="0.5612610">
        <ele>819.8</ele>
        <time>2020-07-24T14:17:35Z</time>
      </trkpt>
      <trkpt lat="42.8050740" lon="0.5613380">
        <ele>818.6</ele>
        <time>2020-07-24T14:17:36Z</time>
      </trkpt>
      <trkpt lat="42.8049690" lon="0.5614160">
        <ele>817.2</ele>
        <time>2020-07-24T14:17:37Z</time>
      </trkpt>
      <trkpt lat="42.8048610" lon="0.5614920">
        <ele>816.0</ele>
        <time>2020-07-24T14:17:38Z</time>
      </trkpt>
      <trkpt lat="42.8046430" lon="0.5616350">
        <ele>814.4</ele>
        <time>2020-07-24T14:17:40Z</time>
      </trkpt>
      <trkpt lat="42.8044190" lon="0.5617500">
        <ele>812.4</ele>
        <time>2020-07-24T14:17:42Z</time>
      </trkpt>
      <trkpt lat="42.8043060" lon="0.5618050">
        <ele>811.0</ele>
        <time>2020-07-24T14:17:43Z</time>
      </trkpt>
      <trkpt lat="42.8041960" lon="0.5618570">
        <ele>809.4</ele>
        <time>2020-07-24T14:17:44Z</time>
      </trkpt>
      <trkpt lat="42.8040830" lon="0.5619010">
        <ele>808.2</ele>
        <time>2020-07-24T14:17:45Z</time>
      </trkpt>
      <trkpt lat="42.8038480" lon="0.5619630">
        <ele>806.2</ele>
        <time>2020-07-24T14:17:47Z</time>
      </trkpt>
      <trkpt lat="42.8037250" lon="0.5619680">
        <ele>805.0</ele>
        <time>2020-07-24T14:17:48Z</time>
      </trkpt>
      <trkpt lat="42.8036100" lon="0.5619670">
        <ele>803.6</ele>
        <time>2020-07-24T14:17:49Z</time>
      </trkpt>
      <trkpt lat="42.8034990" lon="0.5619770">
        <ele>802.6</ele>
        <time>2020-07-24T14:17:50Z</time>
      </trkpt>
      <trkpt lat="42.8033910" lon="0.5619980">
        <ele>801.6</ele>
        <time>2020-07-24T14:17:51Z</time>
      </trkpt>
      <trkpt lat="42.8032900" lon="0.5620420">
        <ele>800.8</ele>
        <time>2020-07-24T14:17:52Z</time>
      </trkpt>
      <trkpt lat="42.8031110" lon="0.5621950">
        <ele>799.2</ele>
        <time>2020-07-24T14:17:54Z</time>
      </trkpt>
      <trkpt lat="42.8029730" lon="0.5624190">
        <ele>798.2</ele>
        <time>2020-07-24T14:17:56Z</time>
      </trkpt>
      <trkpt lat="42.8029100" lon="0.5625490">
        <ele>797.6</ele>
        <time>2020-07-24T14:17:57Z</time>
      </trkpt>
      <trkpt lat="42.8028460" lon="0.5626810">
        <ele>796.8</ele>
        <time>2020-07-24T14:17:58Z</time>
      </trkpt>
      <trkpt lat="42.8027130" lon="0.5629420">
        <ele>795.8</ele>
        <time>2020-07-24T14:18:00Z</time>
      </trkpt>
      <trkpt lat="42.8025430" lon="0.5631650">
        <ele>794.2</ele>
        <time>2020-07-24T14:18:02Z</time>
      </trkpt>
      <trkpt lat="42.8023800" lon="0.5633960">
        <ele>792.4</ele>
        <time>2020-07-24T14:18:04Z</time>
      </trkpt>
      <trkpt lat="42.8021330" lon="0.5637160">
        <ele>790.6</ele>
        <time>2020-07-24T14:18:07Z</time>
      </trkpt>
      <trkpt lat="42.8020490" lon="0.5638210">
        <ele>789.6</ele>
        <time>2020-07-24T14:18:08Z</time>
      </trkpt>
      <trkpt lat="42.8018870" lon="0.5640500">
        <ele>788.2</ele>
        <time>2020-07-24T14:18:10Z</time>
      </trkpt>
      <trkpt lat="42.8017220" lon="0.5642860">
        <ele>786.8</ele>
        <time>2020-07-24T14:18:12Z</time>
      </trkpt>
      <trkpt lat="42.8015470" lon="0.5645140">
        <ele>785.4</ele>
        <time>2020-07-24T14:18:14Z</time>
      </trkpt>
      <trkpt lat="42.8013550" lon="0.5647340">
        <ele>784.2</ele>
        <time>2020-07-24T14:18:16Z</time>
      </trkpt>
      <trkpt lat="42.8011470" lon="0.5649360">
        <ele>782.8</ele>
        <time>2020-07-24T14:18:18Z</time>
      </trkpt>
      <trkpt lat="42.8010370" lon="0.5650280">
        <ele>782.0</ele>
        <time>2020-07-24T14:18:19Z</time>
      </trkpt>
      <trkpt lat="42.8009250" lon="0.5651090">
        <ele>781.2</ele>
        <time>2020-07-24T14:18:20Z</time>
      </trkpt>
      <trkpt lat="42.8006940" lon="0.5652390">
        <ele>779.4</ele>
        <time>2020-07-24T14:18:22Z</time>
      </trkpt>
      <trkpt lat="42.8005800" lon="0.5652940">
        <ele>779.0</ele>
        <time>2020-07-24T14:18:23Z</time>
      </trkpt>
      <trkpt lat="42.8004720" lon="0.5653540">
        <ele>778.6</ele>
        <time>2020-07-24T14:18:24Z</time>
      </trkpt>
      <trkpt lat="42.8003680" lon="0.5654080">
        <ele>778.4</ele>
        <time>2020-07-24T14:18:25Z</time>
      </trkpt>
      <trkpt lat="42.8002660" lon="0.5654660">
        <ele>778.2</ele>
        <time>2020-07-24T14:18:26Z</time>
      </trkpt>
      <trkpt lat="42.7999760" lon="0.5656580">
        <ele>778.2</ele>
        <time>2020-07-24T14:18:29Z</time>
      </trkpt>
      <trkpt lat="42.7998080" lon="0.5658000">
        <ele>778.4</ele>
        <time>2020-07-24T14:18:31Z</time>
      </trkpt>
      <trkpt lat="42.7995700" lon="0.5659930">
        <ele>778.4</ele>
        <time>2020-07-24T14:18:34Z</time>
      </trkpt>
      <trkpt lat="42.7994290" lon="0.5661150">
        <ele>778.4</ele>
        <time>2020-07-24T14:18:36Z</time>
      </trkpt>
      <trkpt lat="42.7992320" lon="0.5662890">
        <ele>778.4</ele>
        <time>2020-07-24T14:18:39Z</time>
      </trkpt>
      <trkpt lat="42.7991740" lon="0.5663400">
        <ele>778.4</ele>
        <time>2020-07-24T14:18:40Z</time>
      </trkpt>
      <trkpt lat="42.7989270" lon="0.5664980">
        <ele>778.4</ele>
        <time>2020-07-24T14:18:44Z</time>
      </trkpt>
      <trkpt lat="42.7988070" lon="0.5665370">
        <ele>778.6</ele>
        <time>2020-07-24T14:18:46Z</time>
      </trkpt>
      <trkpt lat="42.7986810" lon="0.5665610">
        <ele>778.6</ele>
        <time>2020-07-24T14:18:48Z</time>
      </trkpt>
      <trkpt lat="42.7984240" lon="0.5666060">
        <ele>778.8</ele>
        <time>2020-07-24T14:18:52Z</time>
      </trkpt>
      <trkpt lat="42.7982940" lon="0.5666180">
        <ele>778.8</ele>
        <time>2020-07-24T14:18:54Z</time>
      </trkpt>
      <trkpt lat="42.7979200" lon="0.5665870">
        <ele>779.0</ele>
        <time>2020-07-24T14:19:00Z</time>
      </trkpt>
      <trkpt lat="42.7977350" lon="0.5666250">
        <ele>779.0</ele>
        <time>2020-07-24T14:19:03Z</time>
      </trkpt>
      <trkpt lat="42.7976720" lon="0.5666520">
        <ele>779.0</ele>
        <time>2020-07-24T14:19:04Z</time>
      </trkpt>
      <trkpt lat="42.7976090" lon="0.5666890">
        <ele>779.0</ele>
        <time>2020-07-24T14:19:05Z</time>
      </trkpt>
      <trkpt lat="42.7974960" lon="0.5668020">
        <ele>778.8</ele>
        <time>2020-07-24T14:19:07Z</time>
      </trkpt>
      <trkpt lat="42.7974490" lon="0.5668830">
        <ele>778.8</ele>
        <time>2020-07-24T14:19:08Z</time>
      </trkpt>
      <trkpt lat="42.7974070" lon="0.5669770">
        <ele>778.8</ele>
        <time>2020-07-24T14:19:09Z</time>
      </trkpt>
      <trkpt lat="42.7973310" lon="0.5671850">
        <ele>778.6</ele>
        <time>2020-07-24T14:19:11Z</time>
      </trkpt>
      <trkpt lat="42.7971010" lon="0.5678180">
        <ele>777.6</ele>
        <time>2020-07-24T14:19:17Z</time>
      </trkpt>
      <trkpt lat="42.7970460" lon="0.5679170">
        <ele>777.4</ele>
        <time>2020-07-24T14:19:18Z</time>
      </trkpt>
      <trkpt lat="42.7967560" lon="0.5684110">
        <ele>776.6</ele>
        <time>2020-07-24T14:19:23Z</time>
      </trkpt>
      <trkpt lat="42.7966580" lon="0.5686340">
        <ele>776.4</ele>
        <time>2020-07-24T14:19:25Z</time>
      </trkpt>
      <trkpt lat="42.7965450" lon="0.5689900">
        <ele>774.8</ele>
        <time>2020-07-24T14:19:28Z</time>
      </trkpt>
      <trkpt lat="42.7964720" lon="0.5692250">
        <ele>773.6</ele>
        <time>2020-07-24T14:19:30Z</time>
      </trkpt>
      <trkpt lat="42.7962840" lon="0.5699220">
        <ele>773.2</ele>
        <time>2020-07-24T14:19:36Z</time>
      </trkpt>
      <trkpt lat="42.7961900" lon="0.5703930">
        <ele>772.6</ele>
        <time>2020-07-24T14:19:40Z</time>
      </trkpt>
      <trkpt lat="42.7961950" lon="0.5705220">
        <ele>772.4</ele>
        <time>2020-07-24T14:19:41Z</time>
      </trkpt>
      <trkpt lat="42.7962130" lon="0.5706490">
        <ele>772.2</ele>
        <time>2020-07-24T14:19:42Z</time>
      </trkpt>
      <trkpt lat="42.7962690" lon="0.5708960">
        <ele>771.8</ele>
        <time>2020-07-24T14:19:44Z</time>
      </trkpt>
      <trkpt lat="42.7963090" lon="0.5710190">
        <ele>771.4</ele>
        <time>2020-07-24T14:19:45Z</time>
      </trkpt>
      <trkpt lat="42.7964300" lon="0.5714000">
        <ele>770.2</ele>
        <time>2020-07-24T14:19:48Z</time>
      </trkpt>
      <trkpt lat="42.7964690" lon="0.5715350">
        <ele>769.8</ele>
        <time>2020-07-24T14:19:49Z</time>
      </trkpt>
      <trkpt lat="42.7965360" lon="0.5718160">
        <ele>768.8</ele>
        <time>2020-07-24T14:19:51Z</time>
      </trkpt>
      <trkpt lat="42.7965650" lon="0.5721120">
        <ele>767.4</ele>
        <time>2020-07-24T14:19:53Z</time>
      </trkpt>
      <trkpt lat="42.7965440" lon="0.5724330">
        <ele>766.0</ele>
        <time>2020-07-24T14:19:55Z</time>
      </trkpt>
      <trkpt lat="42.7965210" lon="0.5725940">
        <ele>765.6</ele>
        <time>2020-07-24T14:19:56Z</time>
      </trkpt>
      <trkpt lat="42.7964940" lon="0.5727550">
        <ele>765.0</ele>
        <time>2020-07-24T14:19:57Z</time>
      </trkpt>
      <trkpt lat="42.7964430" lon="0.5730880">
        <ele>763.4</ele>
        <time>2020-07-24T14:19:59Z</time>
      </trkpt>
      <trkpt lat="42.7963890" lon="0.5734390">
        <ele>762.0</ele>
        <time>2020-07-24T14:20:01Z</time>
      </trkpt>
      <trkpt lat="42.7963560" lon="0.5736160">
        <ele>761.2</ele>
        <time>2020-07-24T14:20:02Z</time>
      </trkpt>
      <trkpt lat="42.7963120" lon="0.5737900">
        <ele>760.2</ele>
        <time>2020-07-24T14:20:03Z</time>
      </trkpt>
      <trkpt lat="42.7962650" lon="0.5739620">
        <ele>759.0</ele>
        <time>2020-07-24T14:20:04Z</time>
      </trkpt>
      <trkpt lat="42.7962160" lon="0.5741350">
        <ele>757.4</ele>
        <time>2020-07-24T14:20:05Z</time>
      </trkpt>
      <trkpt lat="42.7961660" lon="0.5743120">
        <ele>755.8</ele>
        <time>2020-07-24T14:20:06Z</time>
      </trkpt>
      <trkpt lat="42.7961150" lon="0.5744890">
        <ele>754.2</ele>
        <time>2020-07-24T14:20:07Z</time>
      </trkpt>
      <trkpt lat="42.7960630" lon="0.5746640">
        <ele>753.0</ele>
        <time>2020-07-24T14:20:08Z</time>
      </trkpt>
      <trkpt lat="42.7960180" lon="0.5748460">
        <ele>751.8</ele>
        <time>2020-07-24T14:20:09Z</time>
      </trkpt>
      <trkpt lat="42.7959730" lon="0.5750260">
        <ele>750.6</ele>
        <time>2020-07-24T14:20:10Z</time>
      </trkpt>
      <trkpt lat="42.7959310" lon="0.5752040">
        <ele>749.0</ele>
        <time>2020-07-24T14:20:11Z</time>
      </trkpt>
      <trkpt lat="42.7958920" lon="0.5753720">
        <ele>747.8</ele>
        <time>2020-07-24T14:20:12Z</time>
      </trkpt>
      <trkpt lat="42.7958540" lon="0.5755310">
        <ele>746.6</ele>
        <time>2020-07-24T14:20:13Z</time>
      </trkpt>
      <trkpt lat="42.7958310" lon="0.5756930">
        <ele>745.6</ele>
        <time>2020-07-24T14:20:14Z</time>
      </trkpt>
      <trkpt lat="42.7958200" lon="0.5758580">
        <ele>744.8</ele>
        <time>2020-07-24T14:20:15Z</time>
      </trkpt>
      <trkpt lat="42.7958220" lon="0.5760260">
        <ele>743.8</ele>
        <time>2020-07-24T14:20:16Z</time>
      </trkpt>
      <trkpt lat="42.7958260" lon="0.5761950">
        <ele>743.0</ele>
        <time>2020-07-24T14:20:17Z</time>
      </trkpt>
      <trkpt lat="42.7958280" lon="0.5765480">
        <ele>741.2</ele>
        <time>2020-07-24T14:20:19Z</time>
      </trkpt>
      <trkpt lat="42.7958020" lon="0.5769070">
        <ele>739.2</ele>
        <time>2020-07-24T14:20:21Z</time>
      </trkpt>
      <trkpt lat="42.7957810" lon="0.5770820">
        <ele>737.6</ele>
        <time>2020-07-24T14:20:22Z</time>
      </trkpt>
      <trkpt lat="42.7957440" lon="0.5772520">
        <ele>736.2</ele>
        <time>2020-07-24T14:20:23Z</time>
      </trkpt>
      <trkpt lat="42.7956960" lon="0.5774200">
        <ele>735.0</ele>
        <time>2020-07-24T14:20:24Z</time>
      </trkpt>
      <trkpt lat="42.7956250" lon="0.5775810">
        <ele>734.0</ele>
        <time>2020-07-24T14:20:25Z</time>
      </trkpt>
      <trkpt lat="42.7954650" lon="0.5778860">
        <ele>732.6</ele>
        <time>2020-07-24T14:20:27Z</time>
      </trkpt>
      <trkpt lat="42.7953030" lon="0.5781860">
        <ele>731.2</ele>
        <time>2020-07-24T14:20:29Z</time>
      </trkpt>
      <trkpt lat="42.7951480" lon="0.5784720">
        <ele>729.2</ele>
        <time>2020-07-24T14:20:31Z</time>
      </trkpt>
      <trkpt lat="42.7950690" lon="0.5786110">
        <ele>727.8</ele>
        <time>2020-07-24T14:20:32Z</time>
      </trkpt>
      <trkpt lat="42.7949890" lon="0.5787500">
        <ele>726.4</ele>
        <time>2020-07-24T14:20:33Z</time>
      </trkpt>
      <trkpt lat="42.7949110" lon="0.5788870">
        <ele>725.2</ele>
        <time>2020-07-24T14:20:34Z</time>
      </trkpt>
      <trkpt lat="42.7948210" lon="0.5790110">
        <ele>723.8</ele>
        <time>2020-07-24T14:20:35Z</time>
      </trkpt>
      <trkpt lat="42.7947320" lon="0.5791210">
        <ele>722.2</ele>
        <time>2020-07-24T14:20:36Z</time>
      </trkpt>
      <trkpt lat="42.7946490" lon="0.5792290">
        <ele>720.4</ele>
        <time>2020-07-24T14:20:37Z</time>
      </trkpt>
      <trkpt lat="42.7945780" lon="0.5793370">
        <ele>719.0</ele>
        <time>2020-07-24T14:20:38Z</time>
      </trkpt>
      <trkpt lat="42.7945170" lon="0.5794580">
        <ele>718.0</ele>
        <time>2020-07-24T14:20:39Z</time>
      </trkpt>
      <trkpt lat="42.7944690" lon="0.5795910">
        <ele>717.2</ele>
        <time>2020-07-24T14:20:40Z</time>
      </trkpt>
      <trkpt lat="42.7943910" lon="0.5798750">
        <ele>715.6</ele>
        <time>2020-07-24T14:20:42Z</time>
      </trkpt>
      <trkpt lat="42.7942960" lon="0.5803400">
        <ele>714.0</ele>
        <time>2020-07-24T14:20:45Z</time>
      </trkpt>
      <trkpt lat="42.7942690" lon="0.5804980">
        <ele>713.0</ele>
        <time>2020-07-24T14:20:46Z</time>
      </trkpt>
      <trkpt lat="42.7942460" lon="0.5806620">
        <ele>711.6</ele>
        <time>2020-07-24T14:20:47Z</time>
      </trkpt>
      <trkpt lat="42.7942270" lon="0.5808270">
        <ele>710.2</ele>
        <time>2020-07-24T14:20:48Z</time>
      </trkpt>
      <trkpt lat="42.7942130" lon="0.5809950">
        <ele>709.0</ele>
        <time>2020-07-24T14:20:49Z</time>
      </trkpt>
      <trkpt lat="42.7941950" lon="0.5813390">
        <ele>707.4</ele>
        <time>2020-07-24T14:20:51Z</time>
      </trkpt>
      <trkpt lat="42.7941910" lon="0.5815150">
        <ele>706.6</ele>
        <time>2020-07-24T14:20:52Z</time>
      </trkpt>
      <trkpt lat="42.7941910" lon="0.5816880">
        <ele>705.8</ele>
        <time>2020-07-24T14:20:53Z</time>
      </trkpt>
      <trkpt lat="42.7942000" lon="0.5818700">
        <ele>704.6</ele>
        <time>2020-07-24T14:20:54Z</time>
      </trkpt>
      <trkpt lat="42.7942080" lon="0.5820500">
        <ele>703.6</ele>
        <time>2020-07-24T14:20:55Z</time>
      </trkpt>
      <trkpt lat="42.7942200" lon="0.5824130">
        <ele>701.8</ele>
        <time>2020-07-24T14:20:57Z</time>
      </trkpt>
      <trkpt lat="42.7942220" lon="0.5826010">
        <ele>700.6</ele>
        <time>2020-07-24T14:20:58Z</time>
      </trkpt>
      <trkpt lat="42.7942160" lon="0.5827930">
        <ele>699.2</ele>
        <time>2020-07-24T14:20:59Z</time>
      </trkpt>
      <trkpt lat="42.7941940" lon="0.5829810">
        <ele>697.8</ele>
        <time>2020-07-24T14:21:00Z</time>
      </trkpt>
      <trkpt lat="42.7941590" lon="0.5831590">
        <ele>696.6</ele>
        <time>2020-07-24T14:21:01Z</time>
      </trkpt>
      <trkpt lat="42.7941140" lon="0.5833320">
        <ele>695.2</ele>
        <time>2020-07-24T14:21:02Z</time>
      </trkpt>
      <trkpt lat="42.7940730" lon="0.5835050">
        <ele>693.6</ele>
        <time>2020-07-24T14:21:03Z</time>
      </trkpt>
      <trkpt lat="42.7940400" lon="0.5836840">
        <ele>691.8</ele>
        <time>2020-07-24T14:21:04Z</time>
      </trkpt>
      <trkpt lat="42.7940110" lon="0.5838620">
        <ele>690.4</ele>
        <time>2020-07-24T14:21:05Z</time>
      </trkpt>
      <trkpt lat="42.7939680" lon="0.5842160">
        <ele>688.6</ele>
        <time>2020-07-24T14:21:07Z</time>
      </trkpt>
      <trkpt lat="42.7939180" lon="0.5845710">
        <ele>686.8</ele>
        <time>2020-07-24T14:21:09Z</time>
      </trkpt>
      <trkpt lat="42.7938830" lon="0.5847470">
        <ele>685.6</ele>
        <time>2020-07-24T14:21:10Z</time>
      </trkpt>
      <trkpt lat="42.7938000" lon="0.5850990">
        <ele>683.6</ele>
        <time>2020-07-24T14:21:12Z</time>
      </trkpt>
      <trkpt lat="42.7937480" lon="0.5852750">
        <ele>682.4</ele>
        <time>2020-07-24T14:21:13Z</time>
      </trkpt>
      <trkpt lat="42.7936920" lon="0.5854500">
        <ele>681.0</ele>
        <time>2020-07-24T14:21:14Z</time>
      </trkpt>
      <trkpt lat="42.7936380" lon="0.5856230">
        <ele>679.8</ele>
        <time>2020-07-24T14:21:15Z</time>
      </trkpt>
      <trkpt lat="42.7935280" lon="0.5859410">
        <ele>677.8</ele>
        <time>2020-07-24T14:21:17Z</time>
      </trkpt>
      <trkpt lat="42.7934780" lon="0.5860830">
        <ele>676.4</ele>
        <time>2020-07-24T14:21:18Z</time>
      </trkpt>
      <trkpt lat="42.7934320" lon="0.5862170">
        <ele>675.0</ele>
        <time>2020-07-24T14:21:19Z</time>
      </trkpt>
      <trkpt lat="42.7934010" lon="0.5863450">
        <ele>673.8</ele>
        <time>2020-07-24T14:21:20Z</time>
      </trkpt>
      <trkpt lat="42.7933820" lon="0.5864710">
        <ele>672.6</ele>
        <time>2020-07-24T14:21:21Z</time>
      </trkpt>
      <trkpt lat="42.7933730" lon="0.5865940">
        <ele>671.2</ele>
        <time>2020-07-24T14:21:22Z</time>
      </trkpt>
      <trkpt lat="42.7933710" lon="0.5867160">
        <ele>670.0</ele>
        <time>2020-07-24T14:21:23Z</time>
      </trkpt>
      <trkpt lat="42.7933780" lon="0.5869510">
        <ele>668.8</ele>
        <time>2020-07-24T14:21:25Z</time>
      </trkpt>
      <trkpt lat="42.7933940" lon="0.5871880">
        <ele>668.0</ele>
        <time>2020-07-24T14:21:27Z</time>
      </trkpt>
      <trkpt lat="42.7934020" lon="0.5873010">
        <ele>667.6</ele>
        <time>2020-07-24T14:21:28Z</time>
      </trkpt>
      <trkpt lat="42.7934130" lon="0.5876620">
        <ele>666.6</ele>
        <time>2020-07-24T14:21:32Z</time>
      </trkpt>
      <trkpt lat="42.7933970" lon="0.5877810">
        <ele>665.6</ele>
        <time>2020-07-24T14:21:34Z</time>
      </trkpt>
      <trkpt lat="42.7933690" lon="0.5878180">
        <ele>665.2</ele>
        <time>2020-07-24T14:21:35Z</time>
      </trkpt>
      <trkpt lat="42.7933330" lon="0.5878310">
        <ele>664.8</ele>
        <time>2020-07-24T14:21:36Z</time>
      </trkpt>
      <trkpt lat="42.7826920" lon="0.5977810">
        <ele>682.0</ele>
        <time>2020-07-25T06:49:41Z</time>
      </trkpt>
      <trkpt lat="42.7826970" lon="0.5977350">
        <ele>682.0</ele>
        <time>2020-07-25T06:49:42Z</time>
      </trkpt>
      <trkpt lat="42.7827010" lon="0.5975720">
        <ele>681.6</ele>
        <time>2020-07-25T06:49:45Z</time>
      </trkpt>
      <trkpt lat="42.7826970" lon="0.5974540">
        <ele>681.4</ele>
        <time>2020-07-25T06:49:47Z</time>
      </trkpt>
      <trkpt lat="42.7826980" lon="0.5973320">
        <ele>681.6</ele>
        <time>2020-07-25T06:49:49Z</time>
      </trkpt>
      <trkpt lat="42.7827060" lon="0.5972260">
        <ele>681.8</ele>
        <time>2020-07-25T06:49:51Z</time>
      </trkpt>
      <trkpt lat="42.7827430" lon="0.5971360">
        <ele>682.0</ele>
        <time>2020-07-25T06:49:53Z</time>
      </trkpt>
      <trkpt lat="42.7828180" lon="0.5970720">
        <ele>682.0</ele>
        <time>2020-07-25T06:49:55Z</time>
      </trkpt>
      <trkpt lat="42.7829050" lon="0.5970240">
        <ele>682.0</ele>
        <time>2020-07-25T06:49:57Z</time>
      </trkpt>
      <trkpt lat="42.7831550" lon="0.5969080">
        <ele>681.4</ele>
        <time>2020-07-25T06:50:02Z</time>
      </trkpt>
      <trkpt lat="42.7832040" lon="0.5968890">
        <ele>681.4</ele>
        <time>2020-07-25T06:50:03Z</time>
      </trkpt>
      <trkpt lat="42.7833970" lon="0.5967730">
        <ele>681.4</ele>
        <time>2020-07-25T06:50:07Z</time>
      </trkpt>
      <trkpt lat="42.7835260" lon="0.5966790">
        <ele>681.4</ele>
        <time>2020-07-25T06:50:10Z</time>
      </trkpt>
      <trkpt lat="42.7835700" lon="0.5966490">
        <ele>681.2</ele>
        <time>2020-07-25T06:50:11Z</time>
      </trkpt>
      <trkpt lat="42.7836130" lon="0.5966200">
        <ele>681.0</ele>
        <time>2020-07-25T06:50:12Z</time>
      </trkpt>
      <trkpt lat="42.7838430" lon="0.5964720">
        <ele>680.2</ele>
        <time>2020-07-25T06:50:17Z</time>
      </trkpt>
      <trkpt lat="42.7839620" lon="0.5964010">
        <ele>680.0</ele>
        <time>2020-07-25T06:50:19Z</time>
      </trkpt>
      <trkpt lat="42.7841840" lon="0.5962460">
        <ele>679.6</ele>
        <time>2020-07-25T06:50:23Z</time>
      </trkpt>
      <trkpt lat="42.7843460" lon="0.5961320">
        <ele>679.4</ele>
        <time>2020-07-25T06:50:26Z</time>
      </trkpt>
      <trkpt lat="42.7846770" lon="0.5959290">
        <ele>679.4</ele>
        <time>2020-07-25T06:50:31Z</time>
      </trkpt>
      <trkpt lat="42.7849460" lon="0.5957640">
        <ele>679.0</ele>
        <time>2020-07-25T06:50:35Z</time>
      </trkpt>
      <trkpt lat="42.7851340" lon="0.5956540">
        <ele>678.8</ele>
        <time>2020-07-25T06:50:38Z</time>
      </trkpt>
      <trkpt lat="42.7851910" lon="0.5956220">
        <ele>678.6</ele>
        <time>2020-07-25T06:50:39Z</time>
      </trkpt>
      <trkpt lat="42.7853650" lon="0.5955250">
        <ele>678.8</ele>
        <time>2020-07-25T06:50:42Z</time>
      </trkpt>
      <trkpt lat="42.7854240" lon="0.5955040">
        <ele>678.8</ele>
        <time>2020-07-25T06:50:43Z</time>
      </trkpt>
      <trkpt lat="42.7855340" lon="0.5955350">
        <ele>678.8</ele>
        <time>2020-07-25T06:50:45Z</time>
      </trkpt>
      <trkpt lat="42.7856140" lon="0.5956540">
        <ele>678.8</ele>
        <time>2020-07-25T06:50:47Z</time>
      </trkpt>
      <trkpt lat="42.7856460" lon="0.5957290">
        <ele>678.8</ele>
        <time>2020-07-25T06:50:48Z</time>
      </trkpt>
      <trkpt lat="42.7857700" lon="0.5960990">
        <ele>678.8</ele>
        <time>2020-07-25T06:50:53Z</time>
      </trkpt>
      <trkpt lat="42.7858120" lon="0.5962430">
        <ele>678.8</ele>
        <time>2020-07-25T06:50:55Z</time>
      </trkpt>
      <trkpt lat="42.7859110" lon="0.5966320">
        <ele>678.4</ele>
        <time>2020-07-25T06:51:01Z</time>
      </trkpt>
      <trkpt lat="42.7859310" lon="0.5967050">
        <ele>678.4</ele>
        <time>2020-07-25T06:51:02Z</time>
      </trkpt>
      <trkpt lat="42.7859900" lon="0.5969410">
        <ele>678.0</ele>
        <time>2020-07-25T06:51:05Z</time>
      </trkpt>
      <trkpt lat="42.7860790" lon="0.5972610">
        <ele>678.0</ele>
        <time>2020-07-25T06:51:09Z</time>
      </trkpt>
      <trkpt lat="42.7861000" lon="0.5973410">
        <ele>677.8</ele>
        <time>2020-07-25T06:51:10Z</time>
      </trkpt>
      <trkpt lat="42.7862170" lon="0.5977590">
        <ele>677.6</ele>
        <time>2020-07-25T06:51:15Z</time>
      </trkpt>
      <trkpt lat="42.7862620" lon="0.5979260">
        <ele>677.4</ele>
        <time>2020-07-25T06:51:17Z</time>
      </trkpt>
      <trkpt lat="42.7862850" lon="0.5979990">
        <ele>677.4</ele>
        <time>2020-07-25T06:51:18Z</time>
      </trkpt>
      <trkpt lat="42.7863130" lon="0.5980570">
        <ele>677.4</ele>
        <time>2020-07-25T06:51:19Z</time>
      </trkpt>
      <trkpt lat="42.7863940" lon="0.5981020">
        <ele>677.4</ele>
        <time>2020-07-25T06:51:21Z</time>
      </trkpt>
      <trkpt lat="42.7865910" lon="0.5980190">
        <ele>677.4</ele>
        <time>2020-07-25T06:51:24Z</time>
      </trkpt>
      <trkpt lat="42.7866620" lon="0.5979850">
        <ele>677.2</ele>
        <time>2020-07-25T06:51:25Z</time>
      </trkpt>
      <trkpt lat="42.7867990" lon="0.5979050">
        <ele>676.8</ele>
        <time>2020-07-25T06:51:27Z</time>
      </trkpt>
      <trkpt lat="42.7869270" lon="0.5978250">
        <ele>676.6</ele>
        <time>2020-07-25T06:51:29Z</time>
      </trkpt>
      <trkpt lat="42.7869920" lon="0.5977840">
        <ele>676.4</ele>
        <time>2020-07-25T06:51:30Z</time>
      </trkpt>
      <trkpt lat="42.7871230" lon="0.5976980">
        <ele>676.2</ele>
        <time>2020-07-25T06:51:32Z</time>
      </trkpt>
      <trkpt lat="42.7873270" lon="0.5975730">
        <ele>675.8</ele>
        <time>2020-07-25T06:51:35Z</time>
      </trkpt>
      <trkpt lat="42.7874650" lon="0.5975030">
        <ele>675.6</ele>
        <time>2020-07-25T06:51:37Z</time>
      </trkpt>
      <trkpt lat="42.7878780" lon="0.5973250">
        <ele>675.4</ele>
        <time>2020-07-25T06:51:43Z</time>
      </trkpt>
      <trkpt lat="42.7879470" lon="0.5973090">
        <ele>675.6</ele>
        <time>2020-07-25T06:51:44Z</time>
      </trkpt>
      <trkpt lat="42.7883650" lon="0.5972190">
        <ele>674.8</ele>
        <time>2020-07-25T06:51:50Z</time>
      </trkpt>
      <trkpt lat="42.7884360" lon="0.5972100">
        <ele>674.8</ele>
        <time>2020-07-25T06:51:51Z</time>
      </trkpt>
      <trkpt lat="42.7885080" lon="0.5972100">
        <ele>674.6</ele>
        <time>2020-07-25T06:51:52Z</time>
      </trkpt>
      <trkpt lat="42.7887100" lon="0.5972370">
        <ele>674.8</ele>
        <time>2020-07-25T06:51:55Z</time>
      </trkpt>
      <trkpt lat="42.7891140" lon="0.5972990">
        <ele>673.8</ele>
        <time>2020-07-25T06:52:01Z</time>
      </trkpt>
      <trkpt lat="42.7891830" lon="0.5973110">
        <ele>673.8</ele>
        <time>2020-07-25T06:52:02Z</time>
      </trkpt>
      <trkpt lat="42.7893790" lon="0.5973480">
        <ele>673.8</ele>
        <time>2020-07-25T06:52:05Z</time>
      </trkpt>
      <trkpt lat="42.7896990" lon="0.5974070">
        <ele>673.6</ele>
        <time>2020-07-25T06:52:10Z</time>
      </trkpt>
      <trkpt lat="42.7897680" lon="0.5974190">
        <ele>673.4</ele>
        <time>2020-07-25T06:52:11Z</time>
      </trkpt>
      <trkpt lat="42.7901040" lon="0.5975110">
        <ele>673.2</ele>
        <time>2020-07-25T06:52:16Z</time>
      </trkpt>
      <trkpt lat="42.7901640" lon="0.5975350">
        <ele>673.2</ele>
        <time>2020-07-25T06:52:17Z</time>
      </trkpt>
      <trkpt lat="42.7905430" lon="0.5976790">
        <ele>673.0</ele>
        <time>2020-07-25T06:52:23Z</time>
      </trkpt>
      <trkpt lat="42.7909140" lon="0.5977720">
        <ele>673.0</ele>
        <time>2020-07-25T06:52:29Z</time>
      </trkpt>
      <trkpt lat="42.7909890" lon="0.5978090">
        <ele>673.0</ele>
        <time>2020-07-25T06:52:31Z</time>
      </trkpt>
      <trkpt lat="42.7911240" lon="0.5978690">
        <ele>673.4</ele>
        <time>2020-07-25T06:52:35Z</time>
      </trkpt>
      <trkpt lat="42.7911740" lon="0.5978600">
        <ele>673.6</ele>
        <time>2020-07-25T06:52:36Z</time>
      </trkpt>
      <trkpt lat="42.7915170" lon="0.5978270">
        <ele>673.2</ele>
        <time>2020-07-25T06:52:42Z</time>
      </trkpt>
      <trkpt lat="42.7918410" lon="0.5978380">
        <ele>673.0</ele>
        <time>2020-07-25T06:52:48Z</time>
      </trkpt>
      <trkpt lat="42.7918890" lon="0.5978450">
        <ele>673.0</ele>
        <time>2020-07-25T06:52:49Z</time>
      </trkpt>
      <trkpt lat="42.7919830" lon="0.5978480">
        <ele>673.2</ele>
        <time>2020-07-25T06:52:51Z</time>
      </trkpt>
      <trkpt lat="42.7921730" lon="0.5978500">
        <ele>673.2</ele>
        <time>2020-07-25T06:52:55Z</time>
      </trkpt>
      <trkpt lat="42.7922170" lon="0.5978480">
        <ele>673.0</ele>
        <time>2020-07-25T06:52:56Z</time>
      </trkpt>
      <trkpt lat="42.7923080" lon="0.5978330">
        <ele>673.0</ele>
        <time>2020-07-25T06:52:58Z</time>
      </trkpt>
      <trkpt lat="42.7924740" lon="0.5977880">
        <ele>673.0</ele>
        <time>2020-07-25T06:53:01Z</time>
      </trkpt>
      <trkpt lat="42.7926570" lon="0.5977170">
        <ele>672.8</ele>
        <time>2020-07-25T06:53:04Z</time>
      </trkpt>
      <trkpt lat="42.7927910" lon="0.5976480">
        <ele>672.6</ele>
        <time>2020-07-25T06:53:06Z</time>
      </trkpt>
      <trkpt lat="42.7928620" lon="0.5976060">
        <ele>672.4</ele>
        <time>2020-07-25T06:53:07Z</time>
      </trkpt>
      <trkpt lat="42.7930650" lon="0.5974770">
        <ele>672.6</ele>
        <time>2020-07-25T06:53:10Z</time>
      </trkpt>
      <trkpt lat="42.7933210" lon="0.5973020">
        <ele>672.6</ele>
        <time>2020-07-25T06:53:14Z</time>
      </trkpt>
      <trkpt lat="42.7936860" lon="0.5970340">
        <ele>672.8</ele>
        <time>2020-07-25T06:53:20Z</time>
      </trkpt>
      <trkpt lat="42.7938550" lon="0.5968970">
        <ele>673.0</ele>
        <time>2020-07-25T06:53:23Z</time>
      </trkpt>
      <trkpt lat="42.7940800" lon="0.5967530">
        <ele>673.2</ele>
        <time>2020-07-25T06:53:27Z</time>
      </trkpt>
      <trkpt lat="42.7943290" lon="0.5966200">
        <ele>673.6</ele>
        <time>2020-07-25T06:54:56Z</time>
      </trkpt>
      <trkpt lat="42.7943510" lon="0.5966030">
        <ele>673.6</ele>
        <time>2020-07-25T06:54:57Z</time>
      </trkpt>
      <trkpt lat="42.7944940" lon="0.5965350">
        <ele>673.4</ele>
        <time>2020-07-25T06:55:01Z</time>
      </trkpt>
      <trkpt lat="42.7946950" lon="0.5964750">
        <ele>673.2</ele>
        <time>2020-07-25T06:55:06Z</time>
      </trkpt>
      <trkpt lat="42.7947280" lon="0.5964660">
        <ele>673.0</ele>
        <time>2020-07-25T06:55:07Z</time>
      </trkpt>
      <trkpt lat="42.7947560" lon="0.5964590">
        <ele>673.0</ele>
        <time>2020-07-25T06:55:08Z</time>
      </trkpt>
      <trkpt lat="42.7948630" lon="0.5964170">
        <ele>673.0</ele>
        <time>2020-07-25T06:55:12Z</time>
      </trkpt>
      <trkpt lat="42.7948850" lon="0.5964010">
        <ele>673.0</ele>
        <time>2020-07-25T06:55:13Z</time>
      </trkpt>
      <trkpt lat="42.7949910" lon="0.5963410">
        <ele>673.0</ele>
        <time>2020-07-25T06:55:19Z</time>
      </trkpt>
      <trkpt lat="42.7950140" lon="0.5963290">
        <ele>673.0</ele>
        <time>2020-07-25T06:55:20Z</time>
      </trkpt>
      <trkpt lat="42.7951310" lon="0.5962620">
        <ele>672.8</ele>
        <time>2020-07-25T06:55:26Z</time>
      </trkpt>
      <trkpt lat="42.7951480" lon="0.5962500">
        <ele>673.0</ele>
        <time>2020-07-25T06:55:27Z</time>
      </trkpt>
      <trkpt lat="42.7952340" lon="0.5961170">
        <ele>673.0</ele>
        <time>2020-07-25T06:55:32Z</time>
      </trkpt>
      <trkpt lat="42.7952310" lon="0.5960430">
        <ele>672.8</ele>
        <time>2020-07-25T06:55:33Z</time>
      </trkpt>
      <trkpt lat="42.7952160" lon="0.5958890">
        <ele>672.8</ele>
        <time>2020-07-25T06:55:35Z</time>
      </trkpt>
      <trkpt lat="42.7951760" lon="0.5954740">
        <ele>672.6</ele>
        <time>2020-07-25T06:55:40Z</time>
      </trkpt>
      <trkpt lat="42.7951630" lon="0.5953040">
        <ele>672.6</ele>
        <time>2020-07-25T06:55:42Z</time>
      </trkpt>
      <trkpt lat="42.7951570" lon="0.5952180">
        <ele>672.6</ele>
        <time>2020-07-25T06:55:43Z</time>
      </trkpt>
      <trkpt lat="42.7951510" lon="0.5951330">
        <ele>672.6</ele>
        <time>2020-07-25T06:55:44Z</time>
      </trkpt>
      <trkpt lat="42.7951390" lon="0.5949700">
        <ele>672.8</ele>
        <time>2020-07-25T06:55:46Z</time>
      </trkpt>
      <trkpt lat="42.7951250" lon="0.5948110">
        <ele>673.2</ele>
        <time>2020-07-25T06:55:48Z</time>
      </trkpt>
      <trkpt lat="42.7951170" lon="0.5946580">
        <ele>673.4</ele>
        <time>2020-07-25T06:55:50Z</time>
      </trkpt>
      <trkpt lat="42.7951220" lon="0.5945030">
        <ele>673.8</ele>
        <time>2020-07-25T06:55:52Z</time>
      </trkpt>
      <trkpt lat="42.7951190" lon="0.5944300">
        <ele>673.8</ele>
        <time>2020-07-25T06:55:53Z</time>
      </trkpt>
      <trkpt lat="42.7950900" lon="0.5942860">
        <ele>674.0</ele>
        <time>2020-07-25T06:55:55Z</time>
      </trkpt>
      <trkpt lat="42.7950710" lon="0.5942150">
        <ele>674.2</ele>
        <time>2020-07-25T06:55:56Z</time>
      </trkpt>
      <trkpt lat="42.7950500" lon="0.5941450">
        <ele>674.6</ele>
        <time>2020-07-25T06:55:57Z</time>
      </trkpt>
      <trkpt lat="42.7949200" lon="0.5937540">
        <ele>675.2</ele>
        <time>2020-07-25T06:56:03Z</time>
      </trkpt>
      <trkpt lat="42.7947770" lon="0.5934210">
        <ele>675.6</ele>
        <time>2020-07-25T06:56:08Z</time>
      </trkpt>
      <trkpt lat="42.7946470" lon="0.5931590">
        <ele>675.8</ele>
        <time>2020-07-25T06:56:12Z</time>
      </trkpt>
      <trkpt lat="42.7944350" lon="0.5928060">
        <ele>676.8</ele>
        <time>2020-07-25T06:56:18Z</time>
      </trkpt>
      <trkpt lat="42.7943670" lon="0.5927000">
        <ele>677.2</ele>
        <time>2020-07-25T06:56:20Z</time>
      </trkpt>
      <trkpt lat="42.7942660" lon="0.5925360">
        <ele>678.0</ele>
        <time>2020-07-25T06:56:23Z</time>
      </trkpt>
      <trkpt lat="42.7940850" lon="0.5922200">
        <ele>678.6</ele>
        <time>2020-07-25T06:56:28Z</time>
      </trkpt>
      <trkpt lat="42.7938620" lon="0.5917900">
        <ele>678.6</ele>
        <time>2020-07-25T06:56:34Z</time>
      </trkpt>
      <trkpt lat="42.7938010" lon="0.5916330">
        <ele>678.8</ele>
        <time>2020-07-25T06:56:36Z</time>
      </trkpt>
      <trkpt lat="42.7937480" lon="0.5913810">
        <ele>679.0</ele>
        <time>2020-07-25T06:56:39Z</time>
      </trkpt>
      <trkpt lat="42.7937440" lon="0.5912950">
        <ele>679.2</ele>
        <time>2020-07-25T06:56:40Z</time>
      </trkpt>
      <trkpt lat="42.7937640" lon="0.5909600">
        <ele>680.2</ele>
        <time>2020-07-25T06:56:44Z</time>
      </trkpt>
      <trkpt lat="42.7937810" lon="0.5907900">
        <ele>680.4</ele>
        <time>2020-07-25T06:56:46Z</time>
      </trkpt>
      <trkpt lat="42.7937910" lon="0.5905360">
        <ele>680.6</ele>
        <time>2020-07-25T06:56:49Z</time>
      </trkpt>
      <trkpt lat="42.7937820" lon="0.5901960">
        <ele>681.0</ele>
        <time>2020-07-25T06:56:53Z</time>
      </trkpt>
      <trkpt lat="42.7937740" lon="0.5901120">
        <ele>681.2</ele>
        <time>2020-07-25T06:56:54Z</time>
      </trkpt>
      <trkpt lat="42.7937270" lon="0.5897750">
        <ele>681.8</ele>
        <time>2020-07-25T06:56:58Z</time>
      </trkpt>
      <trkpt lat="42.7937130" lon="0.5896910">
        <ele>681.8</ele>
        <time>2020-07-25T06:56:59Z</time>
      </trkpt>
      <trkpt lat="42.7936980" lon="0.5896060">
        <ele>681.8</ele>
        <time>2020-07-25T06:57:00Z</time>
      </trkpt>
      <trkpt lat="42.7936210" lon="0.5891840">
        <ele>682.4</ele>
        <time>2020-07-25T06:57:05Z</time>
      </trkpt>
      <trkpt lat="42.7935570" lon="0.5887680">
        <ele>683.0</ele>
        <time>2020-07-25T06:57:10Z</time>
      </trkpt>
      <trkpt lat="42.7935050" lon="0.5882670">
        <ele>683.4</ele>
        <time>2020-07-25T06:57:16Z</time>
      </trkpt>
      <trkpt lat="42.7934790" lon="0.5880160">
        <ele>684.0</ele>
        <time>2020-07-25T06:57:19Z</time>
      </trkpt>
      <trkpt lat="42.7934410" lon="0.5876010">
        <ele>684.6</ele>
        <time>2020-07-25T06:57:24Z</time>
      </trkpt>
      <trkpt lat="42.7934020" lon="0.5872000">
        <ele>685.0</ele>
        <time>2020-07-25T06:57:29Z</time>
      </trkpt>
      <trkpt lat="42.7933750" lon="0.5869510">
        <ele>685.4</ele>
        <time>2020-07-25T06:57:32Z</time>
      </trkpt>
      <trkpt lat="42.7933610" lon="0.5867850">
        <ele>685.8</ele>
        <time>2020-07-25T06:57:34Z</time>
      </trkpt>
      <trkpt lat="42.7933470" lon="0.5865370">
        <ele>686.2</ele>
        <time>2020-07-25T06:57:37Z</time>
      </trkpt>
      <trkpt lat="42.7933650" lon="0.5862990">
        <ele>686.8</ele>
        <time>2020-07-25T06:57:40Z</time>
      </trkpt>
      <trkpt lat="42.7933970" lon="0.5861560">
        <ele>687.2</ele>
        <time>2020-07-25T06:57:42Z</time>
      </trkpt>
      <trkpt lat="42.7934640" lon="0.5859670">
        <ele>688.0</ele>
        <time>2020-07-25T06:57:45Z</time>
      </trkpt>
      <trkpt lat="42.7935320" lon="0.5857980">
        <ele>688.8</ele>
        <time>2020-07-25T06:57:48Z</time>
      </trkpt>
      <trkpt lat="42.7935540" lon="0.5857450">
        <ele>689.0</ele>
        <time>2020-07-25T06:57:49Z</time>
      </trkpt>
      <trkpt lat="42.7935750" lon="0.5856930">
        <ele>689.2</ele>
        <time>2020-07-25T06:57:50Z</time>
      </trkpt>
      <trkpt lat="42.7936340" lon="0.5855480">
        <ele>690.2</ele>
        <time>2020-07-25T06:57:53Z</time>
      </trkpt>
      <trkpt lat="42.7936680" lon="0.5854590">
        <ele>691.2</ele>
        <time>2020-07-25T06:57:55Z</time>
      </trkpt>
      <trkpt lat="42.7936850" lon="0.5854230">
        <ele>691.4</ele>
        <time>2020-07-25T06:57:56Z</time>
      </trkpt>
      <trkpt lat="42.7937290" lon="0.5853320">
        <ele>692.4</ele>
        <time>2020-07-25T06:57:59Z</time>
      </trkpt>
      <trkpt lat="42.7937590" lon="0.5852420">
        <ele>693.2</ele>
        <time>2020-07-25T06:58:02Z</time>
      </trkpt>
      <trkpt lat="42.7937800" lon="0.5851670">
        <ele>693.6</ele>
        <time>2020-07-25T06:58:04Z</time>
      </trkpt>
      <trkpt lat="42.7938160" lon="0.5850430">
        <ele>694.8</ele>
        <time>2020-07-25T06:58:07Z</time>
      </trkpt>
      <trkpt lat="42.7938480" lon="0.5849090">
        <ele>695.2</ele>
        <time>2020-07-25T06:58:10Z</time>
      </trkpt>
      <trkpt lat="42.7938750" lon="0.5847730">
        <ele>695.8</ele>
        <time>2020-07-25T06:58:13Z</time>
      </trkpt>
      <trkpt lat="42.7939070" lon="0.5846380">
        <ele>697.0</ele>
        <time>2020-07-25T06:58:16Z</time>
      </trkpt>
      <trkpt lat="42.7939320" lon="0.5845480">
        <ele>697.2</ele>
        <time>2020-07-25T06:58:18Z</time>
      </trkpt>
      <trkpt lat="42.7939610" lon="0.5844230">
        <ele>698.2</ele>
        <time>2020-07-25T06:58:21Z</time>
      </trkpt>
      <trkpt lat="42.7939790" lon="0.5842920">
        <ele>699.2</ele>
        <time>2020-07-25T06:58:24Z</time>
      </trkpt>
      <trkpt lat="42.7939840" lon="0.5842500">
        <ele>699.6</ele>
        <time>2020-07-25T06:58:25Z</time>
      </trkpt>
      <trkpt lat="42.7939940" lon="0.5841630">
        <ele>700.0</ele>
        <time>2020-07-25T06:58:27Z</time>
      </trkpt>
      <trkpt lat="42.7940050" lon="0.5840310">
        <ele>700.6</ele>
        <time>2020-07-25T06:58:30Z</time>
      </trkpt>
      <trkpt lat="42.7940190" lon="0.5838670">
        <ele>701.8</ele>
        <time>2020-07-25T06:58:34Z</time>
      </trkpt>
      <trkpt lat="42.7940280" lon="0.5837430">
        <ele>702.6</ele>
        <time>2020-07-25T06:58:37Z</time>
      </trkpt>
      <trkpt lat="42.7940340" lon="0.5837020">
        <ele>702.8</ele>
        <time>2020-07-25T06:58:38Z</time>
      </trkpt>
      <trkpt lat="42.7940600" lon="0.5835450">
        <ele>703.8</ele>
        <time>2020-07-25T06:58:42Z</time>
      </trkpt>
      <trkpt lat="42.7940730" lon="0.5834710">
        <ele>704.4</ele>
        <time>2020-07-25T06:58:44Z</time>
      </trkpt>
      <trkpt lat="42.7940900" lon="0.5833950">
        <ele>704.8</ele>
        <time>2020-07-25T06:58:46Z</time>
      </trkpt>
      <trkpt lat="42.7941350" lon="0.5832480">
        <ele>706.0</ele>
        <time>2020-07-25T06:58:50Z</time>
      </trkpt>
      <trkpt lat="42.7941580" lon="0.5831710">
        <ele>706.4</ele>
        <time>2020-07-25T06:58:52Z</time>
      </trkpt>
      <trkpt lat="42.7941910" lon="0.5830590">
        <ele>707.2</ele>
        <time>2020-07-25T06:58:55Z</time>
      </trkpt>
      <trkpt lat="42.7942240" lon="0.5829010">
        <ele>708.2</ele>
        <time>2020-07-25T06:58:59Z</time>
      </trkpt>
      <trkpt lat="42.7942310" lon="0.5828620">
        <ele>708.6</ele>
        <time>2020-07-25T06:59:00Z</time>
      </trkpt>
      <trkpt lat="42.7942470" lon="0.5827430">
        <ele>709.4</ele>
        <time>2020-07-25T06:59:03Z</time>
      </trkpt>
      <trkpt lat="42.7942700" lon="0.5825810">
        <ele>710.2</ele>
        <time>2020-07-25T06:59:07Z</time>
      </trkpt>
      <trkpt lat="42.7942730" lon="0.5825370">
        <ele>710.6</ele>
        <time>2020-07-25T06:59:08Z</time>
      </trkpt>
      <trkpt lat="42.7942710" lon="0.5823690">
        <ele>711.6</ele>
        <time>2020-07-25T06:59:12Z</time>
      </trkpt>
      <trkpt lat="42.7942720" lon="0.5822890">
        <ele>712.0</ele>
        <time>2020-07-25T06:59:14Z</time>
      </trkpt>
      <trkpt lat="42.7942690" lon="0.5821630">
        <ele>712.8</ele>
        <time>2020-07-25T06:59:17Z</time>
      </trkpt>
      <trkpt lat="42.7942610" lon="0.5819930">
        <ele>714.0</ele>
        <time>2020-07-25T06:59:21Z</time>
      </trkpt>
      <trkpt lat="42.7942590" lon="0.5819500">
        <ele>714.2</ele>
        <time>2020-07-25T06:59:22Z</time>
      </trkpt>
      <trkpt lat="42.7942480" lon="0.5817360">
        <ele>715.0</ele>
        <time>2020-07-25T06:59:27Z</time>
      </trkpt>
      <trkpt lat="42.7942450" lon="0.5816960">
        <ele>715.2</ele>
        <time>2020-07-25T06:59:28Z</time>
      </trkpt>
      <trkpt lat="42.7942310" lon="0.5815830">
        <ele>716.2</ele>
        <time>2020-07-25T06:59:31Z</time>
      </trkpt>
      <trkpt lat="42.7942270" lon="0.5814670">
        <ele>717.2</ele>
        <time>2020-07-25T06:59:34Z</time>
      </trkpt>
      <trkpt lat="42.7942340" lon="0.5812640">
        <ele>718.2</ele>
        <time>2020-07-25T06:59:39Z</time>
      </trkpt>
      <trkpt lat="42.7942370" lon="0.5811530">
        <ele>718.8</ele>
        <time>2020-07-25T06:59:42Z</time>
      </trkpt>
      <trkpt lat="42.7942380" lon="0.5810820">
        <ele>719.4</ele>
        <time>2020-07-25T06:59:44Z</time>
      </trkpt>
      <trkpt lat="42.7942460" lon="0.5809270">
        <ele>720.4</ele>
        <time>2020-07-25T06:59:48Z</time>
      </trkpt>
      <trkpt lat="42.7942560" lon="0.5808080">
        <ele>721.2</ele>
        <time>2020-07-25T06:59:51Z</time>
      </trkpt>
      <trkpt lat="42.7942620" lon="0.5807250">
        <ele>721.6</ele>
        <time>2020-07-25T06:59:53Z</time>
      </trkpt>
      <trkpt lat="42.7942840" lon="0.5805300">
        <ele>722.8</ele>
        <time>2020-07-25T06:59:58Z</time>
      </trkpt>
      <trkpt lat="42.7942880" lon="0.5804900">
        <ele>723.2</ele>
        <time>2020-07-25T06:59:59Z</time>
      </trkpt>
      <trkpt lat="42.7943090" lon="0.5803330">
        <ele>724.0</ele>
        <time>2020-07-25T07:00:03Z</time>
      </trkpt>
      <trkpt lat="42.7943350" lon="0.5801840">
        <ele>725.0</ele>
        <time>2020-07-25T07:00:07Z</time>
      </trkpt>
      <trkpt lat="42.7943580" lon="0.5800760">
        <ele>725.8</ele>
        <time>2020-07-25T07:00:10Z</time>
      </trkpt>
      <trkpt lat="42.7943660" lon="0.5800380">
        <ele>726.2</ele>
        <time>2020-07-25T07:00:11Z</time>
      </trkpt>
      <trkpt lat="42.7943980" lon="0.5798880">
        <ele>727.2</ele>
        <time>2020-07-25T07:00:15Z</time>
      </trkpt>
      <trkpt lat="42.7944060" lon="0.5798490">
        <ele>727.4</ele>
        <time>2020-07-25T07:00:16Z</time>
      </trkpt>
      <trkpt lat="42.7944460" lon="0.5797060">
        <ele>728.4</ele>
        <time>2020-07-25T07:00:20Z</time>
      </trkpt>
      <trkpt lat="42.7944670" lon="0.5796360">
        <ele>729.0</ele>
        <time>2020-07-25T07:00:22Z</time>
      </trkpt>
      <trkpt lat="42.7944920" lon="0.5795680">
        <ele>729.4</ele>
        <time>2020-07-25T07:00:24Z</time>
      </trkpt>
      <trkpt lat="42.7945030" lon="0.5795350">
        <ele>729.6</ele>
        <time>2020-07-25T07:00:25Z</time>
      </trkpt>
      <trkpt lat="42.7945320" lon="0.5794260">
        <ele>730.6</ele>
        <time>2020-07-25T07:00:28Z</time>
      </trkpt>
      <trkpt lat="42.7945640" lon="0.5793220">
        <ele>731.4</ele>
        <time>2020-07-25T07:00:31Z</time>
      </trkpt>
      <trkpt lat="42.7945960" lon="0.5792570">
        <ele>731.8</ele>
        <time>2020-07-25T07:00:33Z</time>
      </trkpt>
      <trkpt lat="42.7946800" lon="0.5791530">
        <ele>732.8</ele>
        <time>2020-07-25T07:00:37Z</time>
      </trkpt>
      <trkpt lat="42.7947030" lon="0.5791300">
        <ele>733.0</ele>
        <time>2020-07-25T07:00:38Z</time>
      </trkpt>
      <trkpt lat="42.7947510" lon="0.5790880">
        <ele>733.6</ele>
        <time>2020-07-25T07:00:40Z</time>
      </trkpt>
      <trkpt lat="42.7947890" lon="0.5790300">
        <ele>734.0</ele>
        <time>2020-07-25T07:00:42Z</time>
      </trkpt>
      <trkpt lat="42.7948920" lon="0.5788980">
        <ele>735.4</ele>
        <time>2020-07-25T07:00:47Z</time>
      </trkpt>
      <trkpt lat="42.7949710" lon="0.5787900">
        <ele>736.4</ele>
        <time>2020-07-25T07:00:51Z</time>
      </trkpt>
      <trkpt lat="42.7950380" lon="0.5786630">
        <ele>737.2</ele>
        <time>2020-07-25T07:00:55Z</time>
      </trkpt>
      <trkpt lat="42.7950540" lon="0.5786330">
        <ele>737.4</ele>
        <time>2020-07-25T07:00:56Z</time>
      </trkpt>
      <trkpt lat="42.7950970" lon="0.5785340">
        <ele>738.6</ele>
        <time>2020-07-25T07:00:59Z</time>
      </trkpt>
      <trkpt lat="42.7951650" lon="0.5784090">
        <ele>739.4</ele>
        <time>2020-07-25T07:01:03Z</time>
      </trkpt>
      <trkpt lat="42.7951820" lon="0.5783780">
        <ele>739.8</ele>
        <time>2020-07-25T07:01:04Z</time>
      </trkpt>
      <trkpt lat="42.7952670" lon="0.5782200">
        <ele>741.0</ele>
        <time>2020-07-25T07:01:09Z</time>
      </trkpt>
      <trkpt lat="42.7953190" lon="0.5781280">
        <ele>742.0</ele>
        <time>2020-07-25T07:01:12Z</time>
      </trkpt>
      <trkpt lat="42.7953380" lon="0.5780970">
        <ele>742.2</ele>
        <time>2020-07-25T07:01:13Z</time>
      </trkpt>
      <trkpt lat="42.7954080" lon="0.5779740">
        <ele>743.2</ele>
        <time>2020-07-25T07:01:17Z</time>
      </trkpt>
      <trkpt lat="42.7954590" lon="0.5778820">
        <ele>744.0</ele>
        <time>2020-07-25T07:01:20Z</time>
      </trkpt>
      <trkpt lat="42.7954760" lon="0.5778540">
        <ele>744.2</ele>
        <time>2020-07-25T07:01:21Z</time>
      </trkpt>
      <trkpt lat="42.7955460" lon="0.5777380">
        <ele>745.0</ele>
        <time>2020-07-25T07:01:25Z</time>
      </trkpt>
      <trkpt lat="42.7955790" lon="0.5776770">
        <ele>745.4</ele>
        <time>2020-07-25T07:01:27Z</time>
      </trkpt>
      <trkpt lat="42.7955960" lon="0.5776460">
        <ele>745.6</ele>
        <time>2020-07-25T07:01:28Z</time>
      </trkpt>
      <trkpt lat="42.7956880" lon="0.5774980">
        <ele>746.6</ele>
        <time>2020-07-25T07:01:33Z</time>
      </trkpt>
      <trkpt lat="42.7957520" lon="0.5773720">
        <ele>748.0</ele>
        <time>2020-07-25T07:01:37Z</time>
      </trkpt>
      <trkpt lat="42.7957650" lon="0.5773350">
        <ele>748.4</ele>
        <time>2020-07-25T07:01:38Z</time>
      </trkpt>
      <trkpt lat="42.7957930" lon="0.5772220">
        <ele>749.2</ele>
        <time>2020-07-25T07:01:41Z</time>
      </trkpt>
      <trkpt lat="42.7958100" lon="0.5771450">
        <ele>749.8</ele>
        <time>2020-07-25T07:01:43Z</time>
      </trkpt>
      <trkpt lat="42.7958230" lon="0.5770660">
        <ele>750.2</ele>
        <time>2020-07-25T07:01:45Z</time>
      </trkpt>
      <trkpt lat="42.7958350" lon="0.5768060">
        <ele>751.4</ele>
        <time>2020-07-25T07:01:51Z</time>
      </trkpt>
      <trkpt lat="42.7958410" lon="0.5767020">
        <ele>752.2</ele>
        <time>2020-07-25T07:01:54Z</time>
      </trkpt>
      <trkpt lat="42.7958450" lon="0.5766720">
        <ele>752.6</ele>
        <time>2020-07-25T07:01:55Z</time>
      </trkpt>
      <trkpt lat="42.7958500" lon="0.5765340">
        <ele>753.6</ele>
        <time>2020-07-25T07:01:59Z</time>
      </trkpt>
      <trkpt lat="42.7958480" lon="0.5765010">
        <ele>754.0</ele>
        <time>2020-07-25T07:02:00Z</time>
      </trkpt>
      <trkpt lat="42.7958490" lon="0.5764080">
        <ele>754.8</ele>
        <time>2020-07-25T07:02:03Z</time>
      </trkpt>
      <trkpt lat="42.7958490" lon="0.5763770">
        <ele>755.0</ele>
        <time>2020-07-25T07:02:04Z</time>
      </trkpt>
      <trkpt lat="42.7958500" lon="0.5763170">
        <ele>755.8</ele>
        <time>2020-07-25T07:02:06Z</time>
      </trkpt>
      <trkpt lat="42.7958460" lon="0.5762920">
        <ele>756.2</ele>
        <time>2020-07-25T07:02:07Z</time>
      </trkpt>
      <trkpt lat="42.7958370" lon="0.5761720">
        <ele>757.2</ele>
        <time>2020-07-25T07:02:11Z</time>
      </trkpt>
      <trkpt lat="42.7958330" lon="0.5761420">
        <ele>757.4</ele>
        <time>2020-07-25T07:02:12Z</time>
      </trkpt>
      <trkpt lat="42.7958260" lon="0.5760790">
        <ele>757.8</ele>
        <time>2020-07-25T07:02:14Z</time>
      </trkpt>
      <trkpt lat="42.7958070" lon="0.5759800">
        <ele>758.4</ele>
        <time>2020-07-25T07:02:17Z</time>
      </trkpt>
      <trkpt lat="42.7957970" lon="0.5759480">
        <ele>758.4</ele>
        <time>2020-07-25T07:02:18Z</time>
      </trkpt>
      <trkpt lat="42.7958000" lon="0.5757720">
        <ele>759.6</ele>
        <time>2020-07-25T07:02:23Z</time>
      </trkpt>
      <trkpt lat="42.7958110" lon="0.5757270">
        <ele>759.8</ele>
        <time>2020-07-25T07:02:24Z</time>
      </trkpt>
      <trkpt lat="42.7958710" lon="0.5755530">
        <ele>760.8</ele>
        <time>2020-07-25T07:02:29Z</time>
      </trkpt>
      <trkpt lat="42.7958980" lon="0.5754810">
        <ele>761.4</ele>
        <time>2020-07-25T07:02:31Z</time>
      </trkpt>
      <trkpt lat="42.7959110" lon="0.5754410">
        <ele>761.6</ele>
        <time>2020-07-25T07:02:32Z</time>
      </trkpt>
      <trkpt lat="42.7959260" lon="0.5754010">
        <ele>761.8</ele>
        <time>2020-07-25T07:02:33Z</time>
      </trkpt>
      <trkpt lat="42.7959400" lon="0.5753650">
        <ele>762.0</ele>
        <time>2020-07-25T07:02:34Z</time>
      </trkpt>
      <trkpt lat="42.7959520" lon="0.5753300">
        <ele>762.2</ele>
        <time>2020-07-25T07:02:35Z</time>
      </trkpt>
      <trkpt lat="42.7959870" lon="0.5752200">
        <ele>762.8</ele>
        <time>2020-07-25T07:02:38Z</time>
      </trkpt>
      <trkpt lat="42.7959950" lon="0.5751790">
        <ele>763.2</ele>
        <time>2020-07-25T07:02:39Z</time>
      </trkpt>
      <trkpt lat="42.7960360" lon="0.5749850">
        <ele>764.2</ele>
        <time>2020-07-25T07:02:44Z</time>
      </trkpt>
      <trkpt lat="42.7960590" lon="0.5748380">
        <ele>765.0</ele>
        <time>2020-07-25T07:02:48Z</time>
      </trkpt>
      <trkpt lat="42.7960630" lon="0.5748010">
        <ele>765.2</ele>
        <time>2020-07-25T07:02:49Z</time>
      </trkpt>
      <trkpt lat="42.7961050" lon="0.5746570">
        <ele>766.4</ele>
        <time>2020-07-25T07:02:54Z</time>
      </trkpt>
      <trkpt lat="42.7961140" lon="0.5746260">
        <ele>767.0</ele>
        <time>2020-07-25T07:02:55Z</time>
      </trkpt>
      <trkpt lat="42.7961350" lon="0.5745630">
        <ele>767.6</ele>
        <time>2020-07-25T07:02:57Z</time>
      </trkpt>
      <trkpt lat="42.7961960" lon="0.5743630">
        <ele>768.8</ele>
        <time>2020-07-25T07:03:03Z</time>
      </trkpt>
      <trkpt lat="42.7962010" lon="0.5743310">
        <ele>768.8</ele>
        <time>2020-07-25T07:03:04Z</time>
      </trkpt>
      <trkpt lat="42.7962440" lon="0.5741680">
        <ele>770.0</ele>
        <time>2020-07-25T07:03:09Z</time>
      </trkpt>
      <trkpt lat="42.7962740" lon="0.5740580">
        <ele>770.6</ele>
        <time>2020-07-25T07:03:12Z</time>
      </trkpt>
      <trkpt lat="42.7962810" lon="0.5740220">
        <ele>771.0</ele>
        <time>2020-07-25T07:03:13Z</time>
      </trkpt>
      <trkpt lat="42.7963210" lon="0.5738340">
        <ele>772.0</ele>
        <time>2020-07-25T07:03:18Z</time>
      </trkpt>
      <trkpt lat="42.7963390" lon="0.5737650">
        <ele>772.6</ele>
        <time>2020-07-25T07:03:20Z</time>
      </trkpt>
      <trkpt lat="42.7963660" lon="0.5736590">
        <ele>773.2</ele>
        <time>2020-07-25T07:03:23Z</time>
      </trkpt>
      <trkpt lat="42.7963880" lon="0.5735150">
        <ele>774.2</ele>
        <time>2020-07-25T07:03:27Z</time>
      </trkpt>
      <trkpt lat="42.7963910" lon="0.5734800">
        <ele>774.4</ele>
        <time>2020-07-25T07:03:28Z</time>
      </trkpt>
      <trkpt lat="42.7964010" lon="0.5733100">
        <ele>775.6</ele>
        <time>2020-07-25T07:03:33Z</time>
      </trkpt>
      <trkpt lat="42.7964090" lon="0.5732040">
        <ele>776.2</ele>
        <time>2020-07-25T07:03:36Z</time>
      </trkpt>
      <trkpt lat="42.7964140" lon="0.5731280">
        <ele>776.6</ele>
        <time>2020-07-25T07:03:38Z</time>
      </trkpt>
      <trkpt lat="42.7964320" lon="0.5729890">
        <ele>777.6</ele>
        <time>2020-07-25T07:03:42Z</time>
      </trkpt>
      <trkpt lat="42.7964370" lon="0.5729530">
        <ele>777.8</ele>
        <time>2020-07-25T07:03:43Z</time>
      </trkpt>
      <trkpt lat="42.7964620" lon="0.5727770">
        <ele>779.0</ele>
        <time>2020-07-25T07:03:48Z</time>
      </trkpt>
      <trkpt lat="42.7964890" lon="0.5726350">
        <ele>780.0</ele>
        <time>2020-07-25T07:03:52Z</time>
      </trkpt>
      <trkpt lat="42.7965370" lon="0.5724400">
        <ele>781.2</ele>
        <time>2020-07-25T07:03:58Z</time>
      </trkpt>
      <trkpt lat="42.7965530" lon="0.5723330">
        <ele>781.8</ele>
        <time>2020-07-25T07:04:01Z</time>
      </trkpt>
      <trkpt lat="42.7965600" lon="0.5722650">
        <ele>782.2</ele>
        <time>2020-07-25T07:04:03Z</time>
      </trkpt>
      <trkpt lat="42.7965570" lon="0.5721190">
        <ele>783.4</ele>
        <time>2020-07-25T07:04:07Z</time>
      </trkpt>
      <trkpt lat="42.7965530" lon="0.5720060">
        <ele>784.0</ele>
        <time>2020-07-25T07:04:10Z</time>
      </trkpt>
      <trkpt lat="42.7965460" lon="0.5718980">
        <ele>784.6</ele>
        <time>2020-07-25T07:04:13Z</time>
      </trkpt>
      <trkpt lat="42.7965290" lon="0.5717100">
        <ele>785.4</ele>
        <time>2020-07-25T07:04:18Z</time>
      </trkpt>
      <trkpt lat="42.7965240" lon="0.5716710">
        <ele>785.8</ele>
        <time>2020-07-25T07:04:19Z</time>
      </trkpt>
      <trkpt lat="42.7964870" lon="0.5714410">
        <ele>786.8</ele>
        <time>2020-07-25T07:04:25Z</time>
      </trkpt>
      <trkpt lat="42.7964770" lon="0.5714040">
        <ele>787.0</ele>
        <time>2020-07-25T07:04:26Z</time>
      </trkpt>
      <trkpt lat="42.7964550" lon="0.5713280">
        <ele>787.4</ele>
        <time>2020-07-25T07:04:28Z</time>
      </trkpt>
      <trkpt lat="42.7963920" lon="0.5711470">
        <ele>788.0</ele>
        <time>2020-07-25T07:04:33Z</time>
      </trkpt>
      <trkpt lat="42.7963430" lon="0.5710080">
        <ele>789.0</ele>
        <time>2020-07-25T07:04:37Z</time>
      </trkpt>
      <trkpt lat="42.7963320" lon="0.5709730">
        <ele>789.2</ele>
        <time>2020-07-25T07:04:38Z</time>
      </trkpt>
      <trkpt lat="42.7962710" lon="0.5708430">
        <ele>790.0</ele>
        <time>2020-07-25T07:04:42Z</time>
      </trkpt>
      <trkpt lat="42.7962150" lon="0.5707070">
        <ele>790.8</ele>
        <time>2020-07-25T07:04:46Z</time>
      </trkpt>
      <trkpt lat="42.7962020" lon="0.5706720">
        <ele>791.2</ele>
        <time>2020-07-25T07:04:47Z</time>
      </trkpt>
      <trkpt lat="42.7961710" lon="0.5703920">
        <ele>792.0</ele>
        <time>2020-07-25T07:04:53Z</time>
      </trkpt>
      <trkpt lat="42.7961760" lon="0.5703460">
        <ele>792.0</ele>
        <time>2020-07-25T07:04:54Z</time>
      </trkpt>
      <trkpt lat="42.7962040" lon="0.5702450">
        <ele>792.2</ele>
        <time>2020-07-25T07:04:56Z</time>
      </trkpt>
      <trkpt lat="42.7962740" lon="0.5700430">
        <ele>792.4</ele>
        <time>2020-07-25T07:05:00Z</time>
      </trkpt>
      <trkpt lat="42.7963690" lon="0.5697900">
        <ele>792.6</ele>
        <time>2020-07-25T07:05:05Z</time>
      </trkpt>
      <trkpt lat="42.7964130" lon="0.5696950">
        <ele>792.8</ele>
        <time>2020-07-25T07:05:07Z</time>
      </trkpt>
      <trkpt lat="42.7964340" lon="0.5696450">
        <ele>793.0</ele>
        <time>2020-07-25T07:05:08Z</time>
      </trkpt>
      <trkpt lat="42.7964710" lon="0.5695440">
        <ele>793.2</ele>
        <time>2020-07-25T07:05:10Z</time>
      </trkpt>
      <trkpt lat="42.7965310" lon="0.5693980">
        <ele>793.2</ele>
        <time>2020-07-25T07:05:13Z</time>
      </trkpt>
      <trkpt lat="42.7965970" lon="0.5692410">
        <ele>793.4</ele>
        <time>2020-07-25T07:05:16Z</time>
      </trkpt>
      <trkpt lat="42.7967130" lon="0.5688970">
        <ele>793.8</ele>
        <time>2020-07-25T07:05:22Z</time>
      </trkpt>
      <trkpt lat="42.7967490" lon="0.5687760">
        <ele>794.2</ele>
        <time>2020-07-25T07:05:24Z</time>
      </trkpt>
      <trkpt lat="42.7967700" lon="0.5687200">
        <ele>794.4</ele>
        <time>2020-07-25T07:05:25Z</time>
      </trkpt>
      <trkpt lat="42.7969390" lon="0.5684410">
        <ele>795.0</ele>
        <time>2020-07-25T07:05:31Z</time>
      </trkpt>
      <trkpt lat="42.7969920" lon="0.5683430">
        <ele>795.2</ele>
        <time>2020-07-25T07:05:33Z</time>
      </trkpt>
      <trkpt lat="42.7971590" lon="0.5680700">
        <ele>796.4</ele>
        <time>2020-07-25T07:05:39Z</time>
      </trkpt>
      <trkpt lat="42.7972970" lon="0.5677730">
        <ele>797.2</ele>
        <time>2020-07-25T07:05:45Z</time>
      </trkpt>
      <trkpt lat="42.7973200" lon="0.5677190">
        <ele>797.4</ele>
        <time>2020-07-25T07:05:46Z</time>
      </trkpt>
      <trkpt lat="42.7973410" lon="0.5676610">
        <ele>797.4</ele>
        <time>2020-07-25T07:05:47Z</time>
      </trkpt>
      <trkpt lat="42.7974530" lon="0.5673050">
        <ele>798.4</ele>
        <time>2020-07-25T07:05:53Z</time>
      </trkpt>
      <trkpt lat="42.7974710" lon="0.5672460">
        <ele>798.4</ele>
        <time>2020-07-25T07:05:54Z</time>
      </trkpt>
      <trkpt lat="42.7975080" lon="0.5671330">
        <ele>798.4</ele>
        <time>2020-07-25T07:05:56Z</time>
      </trkpt>
      <trkpt lat="42.7976310" lon="0.5668700">
        <ele>799.4</ele>
        <time>2020-07-25T07:06:01Z</time>
      </trkpt>
      <trkpt lat="42.7976970" lon="0.5667840">
        <ele>799.6</ele>
        <time>2020-07-25T07:06:03Z</time>
      </trkpt>
      <trkpt lat="42.7977730" lon="0.5667180">
        <ele>799.8</ele>
        <time>2020-07-25T07:06:05Z</time>
      </trkpt>
      <trkpt lat="42.7978970" lon="0.5666550">
        <ele>800.2</ele>
        <time>2020-07-25T07:06:08Z</time>
      </trkpt>
      <trkpt lat="42.7979400" lon="0.5666450">
        <ele>800.6</ele>
        <time>2020-07-25T07:06:09Z</time>
      </trkpt>
      <trkpt lat="42.7980210" lon="0.5666270">
        <ele>800.8</ele>
        <time>2020-07-25T07:06:11Z</time>
      </trkpt>
      <trkpt lat="42.7981060" lon="0.5666200">
        <ele>801.2</ele>
        <time>2020-07-25T07:06:13Z</time>
      </trkpt>
      <trkpt lat="42.7981490" lon="0.5666210">
        <ele>801.2</ele>
        <time>2020-07-25T07:06:14Z</time>
      </trkpt>
      <trkpt lat="42.7981940" lon="0.5666220">
        <ele>801.2</ele>
        <time>2020-07-25T07:06:15Z</time>
      </trkpt>
      <trkpt lat="42.7984850" lon="0.5666020">
        <ele>800.4</ele>
        <time>2020-07-25T07:06:21Z</time>
      </trkpt>
      <trkpt lat="42.7985340" lon="0.5665850">
        <ele>800.4</ele>
        <time>2020-07-25T07:06:22Z</time>
      </trkpt>
      <trkpt lat="42.7988470" lon="0.5664870">
        <ele>800.2</ele>
        <time>2020-07-25T07:06:28Z</time>
      </trkpt>
      <trkpt lat="42.7989060" lon="0.5664710">
        <ele>800.2</ele>
        <time>2020-07-25T07:06:29Z</time>
      </trkpt>
      <trkpt lat="42.7989650" lon="0.5664480">
        <ele>800.2</ele>
        <time>2020-07-25T07:06:30Z</time>
      </trkpt>
      <trkpt lat="42.7991490" lon="0.5663280">
        <ele>799.4</ele>
        <time>2020-07-25T07:06:33Z</time>
      </trkpt>
      <trkpt lat="42.7992680" lon="0.5662310">
        <ele>799.0</ele>
        <time>2020-07-25T07:06:35Z</time>
      </trkpt>
      <trkpt lat="42.7995100" lon="0.5660060">
        <ele>798.2</ele>
        <time>2020-07-25T07:06:39Z</time>
      </trkpt>
      <trkpt lat="42.7995750" lon="0.5659510">
        <ele>797.6</ele>
        <time>2020-07-25T07:06:40Z</time>
      </trkpt>
      <trkpt lat="42.7996420" lon="0.5659010">
        <ele>797.2</ele>
        <time>2020-07-25T07:06:41Z</time>
      </trkpt>
      <trkpt lat="42.7997020" lon="0.5658410">
        <ele>796.8</ele>
        <time>2020-07-25T07:06:42Z</time>
      </trkpt>
      <trkpt lat="42.8000930" lon="0.5655700">
        <ele>796.2</ele>
        <time>2020-07-25T07:06:48Z</time>
      </trkpt>
      <trkpt lat="42.8001590" lon="0.5655340">
        <ele>796.2</ele>
        <time>2020-07-25T07:06:49Z</time>
      </trkpt>
      <trkpt lat="42.8002260" lon="0.5655000">
        <ele>796.0</ele>
        <time>2020-07-25T07:06:50Z</time>
      </trkpt>
      <trkpt lat="42.8004330" lon="0.5654120">
        <ele>795.8</ele>
        <time>2020-07-25T07:06:53Z</time>
      </trkpt>
      <trkpt lat="42.8006280" lon="0.5653200">
        <ele>795.8</ele>
        <time>2020-07-25T07:06:56Z</time>
      </trkpt>
      <trkpt lat="42.8010330" lon="0.5650920">
        <ele>795.2</ele>
        <time>2020-07-25T07:07:02Z</time>
      </trkpt>
      <trkpt lat="42.8011530" lon="0.5650050">
        <ele>795.4</ele>
        <time>2020-07-25T07:07:04Z</time>
      </trkpt>
      <trkpt lat="42.8013070" lon="0.5648730">
        <ele>796.4</ele>
        <time>2020-07-25T07:07:07Z</time>
      </trkpt>
      <trkpt lat="42.8013880" lon="0.5647900">
        <ele>797.2</ele>
        <time>2020-07-25T07:07:09Z</time>
      </trkpt>
      <trkpt lat="42.8014520" lon="0.5647070">
        <ele>798.6</ele>
        <time>2020-07-25T07:07:11Z</time>
      </trkpt>
      <trkpt lat="42.8015110" lon="0.5646320">
        <ele>799.8</ele>
        <time>2020-07-25T07:07:13Z</time>
      </trkpt>
      <trkpt lat="42.8015650" lon="0.5645630">
        <ele>800.4</ele>
        <time>2020-07-25T07:07:15Z</time>
      </trkpt>
      <trkpt lat="42.8015940" lon="0.5645290">
        <ele>800.8</ele>
        <time>2020-07-25T07:07:16Z</time>
      </trkpt>
      <trkpt lat="42.8017550" lon="0.5643260">
        <ele>802.0</ele>
        <time>2020-07-25T07:07:22Z</time>
      </trkpt>
      <trkpt lat="42.8018030" lon="0.5642610">
        <ele>802.4</ele>
        <time>2020-07-25T07:07:24Z</time>
      </trkpt>
      <trkpt lat="42.8018730" lon="0.5641600">
        <ele>803.2</ele>
        <time>2020-07-25T07:07:27Z</time>
      </trkpt>
      <trkpt lat="42.8019210" lon="0.5640990">
        <ele>803.8</ele>
        <time>2020-07-25T07:07:29Z</time>
      </trkpt>
      <trkpt lat="42.8019670" lon="0.5640360">
        <ele>804.2</ele>
        <time>2020-07-25T07:07:31Z</time>
      </trkpt>
      <trkpt lat="42.8019910" lon="0.5640040">
        <ele>804.2</ele>
        <time>2020-07-25T07:07:32Z</time>
      </trkpt>
      <trkpt lat="42.8020160" lon="0.5639710">
        <ele>804.6</ele>
        <time>2020-07-25T07:07:33Z</time>
      </trkpt>
      <trkpt lat="42.8021340" lon="0.5638170">
        <ele>805.4</ele>
        <time>2020-07-25T07:07:38Z</time>
      </trkpt>
      <trkpt lat="42.8022280" lon="0.5636890">
        <ele>806.4</ele>
        <time>2020-07-25T07:07:42Z</time>
      </trkpt>
      <trkpt lat="42.8023290" lon="0.5635630">
        <ele>807.6</ele>
        <time>2020-07-25T07:07:46Z</time>
      </trkpt>
      <trkpt lat="42.8024680" lon="0.5633880">
        <ele>808.2</ele>
        <time>2020-07-25T07:07:51Z</time>
      </trkpt>
      <trkpt lat="42.8025500" lon="0.5632780">
        <ele>808.6</ele>
        <time>2020-07-25T07:07:54Z</time>
      </trkpt>
      <trkpt lat="42.8026350" lon="0.5631760">
        <ele>809.0</ele>
        <time>2020-07-25T07:07:57Z</time>
      </trkpt>
      <trkpt lat="42.8027410" lon="0.5630420">
        <ele>809.8</ele>
        <time>2020-07-25T07:08:01Z</time>
      </trkpt>
      <trkpt lat="42.8027910" lon="0.5629710">
        <ele>810.2</ele>
        <time>2020-07-25T07:08:03Z</time>
      </trkpt>
      <trkpt lat="42.8028380" lon="0.5628970">
        <ele>810.8</ele>
        <time>2020-07-25T07:08:05Z</time>
      </trkpt>
      <trkpt lat="42.8029550" lon="0.5626830">
        <ele>812.0</ele>
        <time>2020-07-25T07:08:11Z</time>
      </trkpt>
      <trkpt lat="42.8030250" lon="0.5625250">
        <ele>813.2</ele>
        <time>2020-07-25T07:08:15Z</time>
      </trkpt>
      <trkpt lat="42.8030830" lon="0.5624110">
        <ele>813.8</ele>
        <time>2020-07-25T07:08:18Z</time>
      </trkpt>
      <trkpt lat="42.8031620" lon="0.5622680">
        <ele>814.2</ele>
        <time>2020-07-25T07:08:22Z</time>
      </trkpt>
      <trkpt lat="42.8032160" lon="0.5622020">
        <ele>814.4</ele>
        <time>2020-07-25T07:08:24Z</time>
      </trkpt>
      <trkpt lat="42.8033320" lon="0.5621010">
        <ele>815.4</ele>
        <time>2020-07-25T07:08:28Z</time>
      </trkpt>
      <trkpt lat="42.8033980" lon="0.5620800">
        <ele>816.0</ele>
        <time>2020-07-25T07:08:30Z</time>
      </trkpt>
      <trkpt lat="42.8034300" lon="0.5620740">
        <ele>816.4</ele>
        <time>2020-07-25T07:08:31Z</time>
      </trkpt>
      <trkpt lat="42.8034640" lon="0.5620720">
        <ele>816.6</ele>
        <time>2020-07-25T07:08:32Z</time>
      </trkpt>
      <trkpt lat="42.8034970" lon="0.5620660">
        <ele>817.0</ele>
        <time>2020-07-25T07:08:33Z</time>
      </trkpt>
      <trkpt lat="42.8035590" lon="0.5620570">
        <ele>817.4</ele>
        <time>2020-07-25T07:08:35Z</time>
      </trkpt>
      <trkpt lat="42.8035890" lon="0.5620550">
        <ele>817.6</ele>
        <time>2020-07-25T07:08:36Z</time>
      </trkpt>
      <trkpt lat="42.8036450" lon="0.5620500">
        <ele>818.0</ele>
        <time>2020-07-25T07:08:38Z</time>
      </trkpt>
      <trkpt lat="42.8037000" lon="0.5620430">
        <ele>818.6</ele>
        <time>2020-07-25T07:08:40Z</time>
      </trkpt>
      <trkpt lat="42.8037290" lon="0.5620380">
        <ele>818.8</ele>
        <time>2020-07-25T07:08:41Z</time>
      </trkpt>
      <trkpt lat="42.8037910" lon="0.5620250">
        <ele>819.2</ele>
        <time>2020-07-25T07:08:43Z</time>
      </trkpt>
      <trkpt lat="42.8038200" lon="0.5620180">
        <ele>819.4</ele>
        <time>2020-07-25T07:08:44Z</time>
      </trkpt>
      <trkpt lat="42.8038790" lon="0.5620150">
        <ele>819.8</ele>
        <time>2020-07-25T07:08:46Z</time>
      </trkpt>
      <trkpt lat="42.8039960" lon="0.5619760">
        <ele>821.2</ele>
        <time>2020-07-25T07:08:50Z</time>
      </trkpt>
      <trkpt lat="42.8040600" lon="0.5619600">
        <ele>821.6</ele>
        <time>2020-07-25T07:08:52Z</time>
      </trkpt>
      <trkpt lat="42.8041510" lon="0.5619280">
        <ele>822.2</ele>
        <time>2020-07-25T07:08:55Z</time>
      </trkpt>
      <trkpt lat="42.8042680" lon="0.5618790">
        <ele>823.4</ele>
        <time>2020-07-25T07:08:59Z</time>
      </trkpt>
      <trkpt lat="42.8043230" lon="0.5618640">
        <ele>823.8</ele>
        <time>2020-07-25T07:09:01Z</time>
      </trkpt>
      <trkpt lat="42.8043700" lon="0.5618440">
        <ele>824.0</ele>
        <time>2020-07-25T07:09:03Z</time>
      </trkpt>
      <trkpt lat="42.8044240" lon="0.5618160">
        <ele>824.6</ele>
        <time>2020-07-25T07:09:05Z</time>
      </trkpt>
      <trkpt lat="42.8044520" lon="0.5618040">
        <ele>825.0</ele>
        <time>2020-07-25T07:09:06Z</time>
      </trkpt>
      <trkpt lat="42.8045030" lon="0.5617790">
        <ele>825.6</ele>
        <time>2020-07-25T07:09:08Z</time>
      </trkpt>
      <trkpt lat="42.8046070" lon="0.5617230">
        <ele>826.6</ele>
        <time>2020-07-25T07:09:12Z</time>
      </trkpt>
      <trkpt lat="42.8047160" lon="0.5616370">
        <ele>827.8</ele>
        <time>2020-07-25T07:09:17Z</time>
      </trkpt>
      <trkpt lat="42.8047650" lon="0.5616020">
        <ele>828.4</ele>
        <time>2020-07-25T07:09:19Z</time>
      </trkpt>
      <trkpt lat="42.8048130" lon="0.5615690">
        <ele>829.0</ele>
        <time>2020-07-25T07:09:21Z</time>
      </trkpt>
      <trkpt lat="42.8049080" lon="0.5615080">
        <ele>830.2</ele>
        <time>2020-07-25T07:09:25Z</time>
      </trkpt>
      <trkpt lat="42.8050280" lon="0.5614350">
        <ele>831.4</ele>
        <time>2020-07-25T07:09:30Z</time>
      </trkpt>
      <trkpt lat="42.8050970" lon="0.5613890">
        <ele>832.0</ele>
        <time>2020-07-25T07:09:33Z</time>
      </trkpt>
      <trkpt lat="42.8051450" lon="0.5613550">
        <ele>832.6</ele>
        <time>2020-07-25T07:09:35Z</time>
      </trkpt>
      <trkpt lat="42.8052610" lon="0.5612730">
        <ele>833.6</ele>
        <time>2020-07-25T07:09:40Z</time>
      </trkpt>
      <trkpt lat="42.8053280" lon="0.5612260">
        <ele>834.2</ele>
        <time>2020-07-25T07:09:43Z</time>
      </trkpt>
      <trkpt lat="42.8053780" lon="0.5612100">
        <ele>834.8</ele>
        <time>2020-07-25T07:09:45Z</time>
      </trkpt>
      <trkpt lat="42.8054580" lon="0.5611910">
        <ele>835.6</ele>
        <time>2020-07-25T07:09:48Z</time>
      </trkpt>
      <trkpt lat="42.8054780" lon="0.5611770">
        <ele>835.8</ele>
        <time>2020-07-25T07:09:49Z</time>
      </trkpt>
      <trkpt lat="42.8055160" lon="0.5611470">
        <ele>836.4</ele>
        <time>2020-07-25T07:09:51Z</time>
      </trkpt>
      <trkpt lat="42.8055620" lon="0.5611270">
        <ele>837.0</ele>
        <time>2020-07-25T07:09:53Z</time>
      </trkpt>
      <trkpt lat="42.8056540" lon="0.5611030">
        <ele>838.0</ele>
        <time>2020-07-25T07:09:57Z</time>
      </trkpt>
      <trkpt lat="42.8056980" lon="0.5610860">
        <ele>838.6</ele>
        <time>2020-07-25T07:09:59Z</time>
      </trkpt>
      <trkpt lat="42.8057670" lon="0.5610680">
        <ele>839.2</ele>
        <time>2020-07-25T07:10:02Z</time>
      </trkpt>
      <trkpt lat="42.8058300" lon="0.5610520">
        <ele>840.2</ele>
        <time>2020-07-25T07:10:05Z</time>
      </trkpt>
      <trkpt lat="42.8058520" lon="0.5610470">
        <ele>840.4</ele>
        <time>2020-07-25T07:10:06Z</time>
      </trkpt>
      <trkpt lat="42.8059000" lon="0.5610290">
        <ele>841.0</ele>
        <time>2020-07-25T07:10:08Z</time>
      </trkpt>
      <trkpt lat="42.8059490" lon="0.5610180">
        <ele>841.4</ele>
        <time>2020-07-25T07:10:10Z</time>
      </trkpt>
      <trkpt lat="42.8060750" lon="0.5610170">
        <ele>842.4</ele>
        <time>2020-07-25T07:10:15Z</time>
      </trkpt>
      <trkpt lat="42.8061290" lon="0.5610120">
        <ele>843.2</ele>
        <time>2020-07-25T07:10:17Z</time>
      </trkpt>
      <trkpt lat="42.8061800" lon="0.5609920">
        <ele>843.6</ele>
        <time>2020-07-25T07:10:19Z</time>
      </trkpt>
      <trkpt lat="42.8062750" lon="0.5609050">
        <ele>844.2</ele>
        <time>2020-07-25T07:10:23Z</time>
      </trkpt>
      <trkpt lat="42.8063450" lon="0.5607700">
        <ele>844.6</ele>
        <time>2020-07-25T07:10:27Z</time>
      </trkpt>
      <trkpt lat="42.8063720" lon="0.5606960">
        <ele>845.0</ele>
        <time>2020-07-25T07:10:29Z</time>
      </trkpt>
      <trkpt lat="42.8063360" lon="0.5605100">
        <ele>845.4</ele>
        <time>2020-07-25T07:10:33Z</time>
      </trkpt>
      <trkpt lat="42.8061970" lon="0.5603330">
        <ele>845.6</ele>
        <time>2020-07-25T07:10:38Z</time>
      </trkpt>
      <trkpt lat="42.8061650" lon="0.5603030">
        <ele>845.8</ele>
        <time>2020-07-25T07:10:39Z</time>
      </trkpt>
      <trkpt lat="42.8059640" lon="0.5601800">
        <ele>846.6</ele>
        <time>2020-07-25T07:10:45Z</time>
      </trkpt>
      <trkpt lat="42.8059300" lon="0.5601620">
        <ele>847.0</ele>
        <time>2020-07-25T07:10:46Z</time>
      </trkpt>
      <trkpt lat="42.8057520" lon="0.5600830">
        <ele>848.0</ele>
        <time>2020-07-25T07:10:51Z</time>
      </trkpt>
      <trkpt lat="42.8057150" lon="0.5600720">
        <ele>848.2</ele>
        <time>2020-07-25T07:10:52Z</time>
      </trkpt>
      <trkpt lat="42.8055260" lon="0.5600320">
        <ele>849.2</ele>
        <time>2020-07-25T07:10:57Z</time>
      </trkpt>
      <trkpt lat="42.8053730" lon="0.5600150">
        <ele>850.2</ele>
        <time>2020-07-25T07:11:01Z</time>
      </trkpt>
      <trkpt lat="42.8051850" lon="0.5600040">
        <ele>851.6</ele>
        <time>2020-07-25T07:11:06Z</time>
      </trkpt>
      <trkpt lat="42.8050780" lon="0.5600410">
        <ele>852.2</ele>
        <time>2020-07-25T07:11:09Z</time>
      </trkpt>
      <trkpt lat="42.8050440" lon="0.5600560">
        <ele>852.6</ele>
        <time>2020-07-25T07:11:10Z</time>
      </trkpt>
      <trkpt lat="42.8048920" lon="0.5601760">
        <ele>853.8</ele>
        <time>2020-07-25T07:11:15Z</time>
      </trkpt>
      <trkpt lat="42.8046820" lon="0.5602930">
        <ele>855.0</ele>
        <time>2020-07-25T07:11:21Z</time>
      </trkpt>
      <trkpt lat="42.8046480" lon="0.5602710">
        <ele>855.2</ele>
        <time>2020-07-25T07:11:22Z</time>
      </trkpt>
      <trkpt lat="42.8046080" lon="0.5601810">
        <ele>855.8</ele>
        <time>2020-07-25T07:11:24Z</time>
      </trkpt>
      <trkpt lat="42.8046050" lon="0.5601260">
        <ele>856.2</ele>
        <time>2020-07-25T07:11:25Z</time>
      </trkpt>
      <trkpt lat="42.8046160" lon="0.5600760">
        <ele>856.4</ele>
        <time>2020-07-25T07:11:26Z</time>
      </trkpt>
      <trkpt lat="42.8046370" lon="0.5600360">
        <ele>856.6</ele>
        <time>2020-07-25T07:11:27Z</time>
      </trkpt>
      <trkpt lat="42.8047340" lon="0.5599730">
        <ele>857.2</ele>
        <time>2020-07-25T07:11:30Z</time>
      </trkpt>
      <trkpt lat="42.8047720" lon="0.5599670">
        <ele>857.6</ele>
        <time>2020-07-25T07:11:31Z</time>
      </trkpt>
      <trkpt lat="42.8049120" lon="0.5599510">
        <ele>858.4</ele>
        <time>2020-07-25T07:11:35Z</time>
      </trkpt>
      <trkpt lat="42.8050120" lon="0.5599120">
        <ele>858.8</ele>
        <time>2020-07-25T07:11:38Z</time>
      </trkpt>
      <trkpt lat="42.8050780" lon="0.5598750">
        <ele>859.4</ele>
        <time>2020-07-25T07:11:40Z</time>
      </trkpt>
      <trkpt lat="42.8052440" lon="0.5597750">
        <ele>860.6</ele>
        <time>2020-07-25T07:11:45Z</time>
      </trkpt>
      <trkpt lat="42.8052770" lon="0.5597580">
        <ele>861.0</ele>
        <time>2020-07-25T07:11:46Z</time>
      </trkpt>
      <trkpt lat="42.8053770" lon="0.5597250">
        <ele>861.8</ele>
        <time>2020-07-25T07:11:49Z</time>
      </trkpt>
      <trkpt lat="42.8054820" lon="0.5597200">
        <ele>862.4</ele>
        <time>2020-07-25T07:11:52Z</time>
      </trkpt>
      <trkpt lat="42.8055140" lon="0.5597210">
        <ele>862.6</ele>
        <time>2020-07-25T07:11:53Z</time>
      </trkpt>
      <trkpt lat="42.8055790" lon="0.5597230">
        <ele>863.0</ele>
        <time>2020-07-25T07:11:55Z</time>
      </trkpt>
      <trkpt lat="42.8056970" lon="0.5597190">
        <ele>864.4</ele>
        <time>2020-07-25T07:11:59Z</time>
      </trkpt>
      <trkpt lat="42.8057570" lon="0.5597140">
        <ele>865.2</ele>
        <time>2020-07-25T07:12:01Z</time>
      </trkpt>
      <trkpt lat="42.8057870" lon="0.5597120">
        <ele>865.4</ele>
        <time>2020-07-25T07:12:02Z</time>
      </trkpt>
      <trkpt lat="42.8058840" lon="0.5597130">
        <ele>866.6</ele>
        <time>2020-07-25T07:12:05Z</time>
      </trkpt>
      <trkpt lat="42.8059950" lon="0.5597210">
        <ele>867.8</ele>
        <time>2020-07-25T07:12:09Z</time>
      </trkpt>
      <trkpt lat="42.8061140" lon="0.5597560">
        <ele>868.8</ele>
        <time>2020-07-25T07:12:13Z</time>
      </trkpt>
      <trkpt lat="42.8062340" lon="0.5598240">
        <ele>869.8</ele>
        <time>2020-07-25T07:12:17Z</time>
      </trkpt>
      <trkpt lat="42.8062630" lon="0.5598430">
        <ele>870.2</ele>
        <time>2020-07-25T07:12:18Z</time>
      </trkpt>
      <trkpt lat="42.8063780" lon="0.5599070">
        <ele>871.4</ele>
        <time>2020-07-25T07:12:22Z</time>
      </trkpt>
      <trkpt lat="42.8064660" lon="0.5599140">
        <ele>872.2</ele>
        <time>2020-07-25T07:12:25Z</time>
      </trkpt>
      <trkpt lat="42.8064970" lon="0.5599050">
        <ele>872.4</ele>
        <time>2020-07-25T07:12:26Z</time>
      </trkpt>
      <trkpt lat="42.8066050" lon="0.5598030">
        <ele>873.2</ele>
        <time>2020-07-25T07:12:30Z</time>
      </trkpt>
      <trkpt lat="42.8066300" lon="0.5596650">
        <ele>873.6</ele>
        <time>2020-07-25T07:12:33Z</time>
      </trkpt>
      <trkpt lat="42.8066160" lon="0.5596160">
        <ele>873.8</ele>
        <time>2020-07-25T07:12:34Z</time>
      </trkpt>
      <trkpt lat="42.8065410" lon="0.5594940">
        <ele>874.2</ele>
        <time>2020-07-25T07:12:37Z</time>
      </trkpt>
      <trkpt lat="42.8064750" lon="0.5594400">
        <ele>874.4</ele>
        <time>2020-07-25T07:12:39Z</time>
      </trkpt>
      <trkpt lat="42.8063660" lon="0.5593960">
        <ele>874.8</ele>
        <time>2020-07-25T07:12:42Z</time>
      </trkpt>
      <trkpt lat="42.8062630" lon="0.5593680">
        <ele>875.8</ele>
        <time>2020-07-25T07:12:45Z</time>
      </trkpt>
      <trkpt lat="42.8062310" lon="0.5593590">
        <ele>876.0</ele>
        <time>2020-07-25T07:12:46Z</time>
      </trkpt>
      <trkpt lat="42.8061350" lon="0.5593270">
        <ele>877.0</ele>
        <time>2020-07-25T07:12:49Z</time>
      </trkpt>
      <trkpt lat="42.8060210" lon="0.5592620">
        <ele>878.2</ele>
        <time>2020-07-25T07:12:53Z</time>
      </trkpt>
      <trkpt lat="42.8059940" lon="0.5592420">
        <ele>878.6</ele>
        <time>2020-07-25T07:12:54Z</time>
      </trkpt>
      <trkpt lat="42.8059370" lon="0.5592030">
        <ele>879.2</ele>
        <time>2020-07-25T07:12:56Z</time>
      </trkpt>
      <trkpt lat="42.8058460" lon="0.5591630">
        <ele>880.0</ele>
        <time>2020-07-25T07:12:59Z</time>
      </trkpt>
      <trkpt lat="42.8058140" lon="0.5591520">
        <ele>880.4</ele>
        <time>2020-07-25T07:13:00Z</time>
      </trkpt>
      <trkpt lat="42.8056960" lon="0.5590960">
        <ele>881.0</ele>
        <time>2020-07-25T07:13:04Z</time>
      </trkpt>
      <trkpt lat="42.8056690" lon="0.5590760">
        <ele>881.4</ele>
        <time>2020-07-25T07:13:05Z</time>
      </trkpt>
      <trkpt lat="42.8055900" lon="0.5590190">
        <ele>882.4</ele>
        <time>2020-07-25T07:13:08Z</time>
      </trkpt>
      <trkpt lat="42.8055150" lon="0.5589050">
        <ele>883.6</ele>
        <time>2020-07-25T07:13:12Z</time>
      </trkpt>
      <trkpt lat="42.8054700" lon="0.5587840">
        <ele>884.6</ele>
        <time>2020-07-25T07:13:16Z</time>
      </trkpt>
      <trkpt lat="42.8054590" lon="0.5587210">
        <ele>885.2</ele>
        <time>2020-07-25T07:13:18Z</time>
      </trkpt>
      <trkpt lat="42.8054580" lon="0.5586560">
        <ele>885.6</ele>
        <time>2020-07-25T07:13:20Z</time>
      </trkpt>
      <trkpt lat="42.8054570" lon="0.5585570">
        <ele>886.8</ele>
        <time>2020-07-25T07:13:23Z</time>
      </trkpt>
      <trkpt lat="42.8054720" lon="0.5584580">
        <ele>888.0</ele>
        <time>2020-07-25T07:13:26Z</time>
      </trkpt>
      <trkpt lat="42.8054800" lon="0.5584260">
        <ele>888.4</ele>
        <time>2020-07-25T07:13:27Z</time>
      </trkpt>
      <trkpt lat="42.8055030" lon="0.5583310">
        <ele>889.2</ele>
        <time>2020-07-25T07:13:30Z</time>
      </trkpt>
      <trkpt lat="42.8055470" lon="0.5581970">
        <ele>890.2</ele>
        <time>2020-07-25T07:13:35Z</time>
      </trkpt>
      <trkpt lat="42.8055660" lon="0.5581480">
        <ele>890.8</ele>
        <time>2020-07-25T07:13:37Z</time>
      </trkpt>
      <trkpt lat="42.8055940" lon="0.5580630">
        <ele>891.4</ele>
        <time>2020-07-25T07:13:40Z</time>
      </trkpt>
      <trkpt lat="42.8056430" lon="0.5579160">
        <ele>892.6</ele>
        <time>2020-07-25T07:13:45Z</time>
      </trkpt>
      <trkpt lat="42.8056620" lon="0.5578610">
        <ele>893.2</ele>
        <time>2020-07-25T07:13:47Z</time>
      </trkpt>
      <trkpt lat="42.8056840" lon="0.5577810">
        <ele>893.8</ele>
        <time>2020-07-25T07:13:50Z</time>
      </trkpt>
      <trkpt lat="42.8057010" lon="0.5577230">
        <ele>894.0</ele>
        <time>2020-07-25T07:13:52Z</time>
      </trkpt>
      <trkpt lat="42.8057120" lon="0.5576940">
        <ele>894.2</ele>
        <time>2020-07-25T07:13:53Z</time>
      </trkpt>
      <trkpt lat="42.8057220" lon="0.5576660">
        <ele>894.8</ele>
        <time>2020-07-25T07:13:54Z</time>
      </trkpt>
      <trkpt lat="42.8057500" lon="0.5575750">
        <ele>895.8</ele>
        <time>2020-07-25T07:13:57Z</time>
      </trkpt>
      <trkpt lat="42.8057890" lon="0.5574610">
        <ele>896.8</ele>
        <time>2020-07-25T07:14:01Z</time>
      </trkpt>
      <trkpt lat="42.8057990" lon="0.5574300">
        <ele>897.2</ele>
        <time>2020-07-25T07:14:02Z</time>
      </trkpt>
      <trkpt lat="42.8058420" lon="0.5572870">
        <ele>898.0</ele>
        <time>2020-07-25T07:14:07Z</time>
      </trkpt>
      <trkpt lat="42.8058650" lon="0.5572060">
        <ele>899.2</ele>
        <time>2020-07-25T07:14:10Z</time>
      </trkpt>
      <trkpt lat="42.8059060" lon="0.5570910">
        <ele>900.6</ele>
        <time>2020-07-25T07:14:14Z</time>
      </trkpt>
      <trkpt lat="42.8059520" lon="0.5569270">
        <ele>901.8</ele>
        <time>2020-07-25T07:14:19Z</time>
      </trkpt>
      <trkpt lat="42.8059620" lon="0.5568940">
        <ele>902.0</ele>
        <time>2020-07-25T07:14:20Z</time>
      </trkpt>
      <trkpt lat="42.8059840" lon="0.5567870">
        <ele>902.8</ele>
        <time>2020-07-25T07:14:23Z</time>
      </trkpt>
      <trkpt lat="42.8059900" lon="0.5566720">
        <ele>904.0</ele>
        <time>2020-07-25T07:14:26Z</time>
      </trkpt>
      <trkpt lat="42.8059910" lon="0.5565620">
        <ele>904.8</ele>
        <time>2020-07-25T07:14:29Z</time>
      </trkpt>
      <trkpt lat="42.8059970" lon="0.5565270">
        <ele>905.0</ele>
        <time>2020-07-25T07:14:30Z</time>
      </trkpt>
      <trkpt lat="42.8060070" lon="0.5564580">
        <ele>905.2</ele>
        <time>2020-07-25T07:14:32Z</time>
      </trkpt>
      <trkpt lat="42.8060350" lon="0.5563540">
        <ele>906.0</ele>
        <time>2020-07-25T07:14:35Z</time>
      </trkpt>
      <trkpt lat="42.8060580" lon="0.5562870">
        <ele>906.4</ele>
        <time>2020-07-25T07:14:37Z</time>
      </trkpt>
      <trkpt lat="42.8060980" lon="0.5561740">
        <ele>907.0</ele>
        <time>2020-07-25T07:14:41Z</time>
      </trkpt>
      <trkpt lat="42.8061210" lon="0.5561120">
        <ele>907.6</ele>
        <time>2020-07-25T07:14:43Z</time>
      </trkpt>
      <trkpt lat="42.8061400" lon="0.5560490">
        <ele>908.2</ele>
        <time>2020-07-25T07:14:45Z</time>
      </trkpt>
      <trkpt lat="42.8061350" lon="0.5557620">
        <ele>909.2</ele>
        <time>2020-07-25T07:14:51Z</time>
      </trkpt>
      <trkpt lat="42.8061310" lon="0.5556210">
        <ele>910.0</ele>
        <time>2020-07-25T07:14:54Z</time>
      </trkpt>
      <trkpt lat="42.8061350" lon="0.5555370">
        <ele>910.6</ele>
        <time>2020-07-25T07:14:56Z</time>
      </trkpt>
      <trkpt lat="42.8061320" lon="0.5554480">
        <ele>911.0</ele>
        <time>2020-07-25T07:14:58Z</time>
      </trkpt>
      <trkpt lat="42.8061340" lon="0.5552850">
        <ele>911.6</ele>
        <time>2020-07-25T07:15:02Z</time>
      </trkpt>
      <trkpt lat="42.8061240" lon="0.5550670">
        <ele>912.6</ele>
        <time>2020-07-25T07:15:07Z</time>
      </trkpt>
      <trkpt lat="42.8061150" lon="0.5548410">
        <ele>913.8</ele>
        <time>2020-07-25T07:15:12Z</time>
      </trkpt>
      <trkpt lat="42.8061120" lon="0.5547600">
        <ele>914.4</ele>
        <time>2020-07-25T07:15:14Z</time>
      </trkpt>
      <trkpt lat="42.8061030" lon="0.5546460">
        <ele>915.0</ele>
        <time>2020-07-25T07:15:17Z</time>
      </trkpt>
      <trkpt lat="42.8060860" lon="0.5544590">
        <ele>916.2</ele>
        <time>2020-07-25T07:15:22Z</time>
      </trkpt>
      <trkpt lat="42.8060830" lon="0.5544230">
        <ele>916.6</ele>
        <time>2020-07-25T07:15:23Z</time>
      </trkpt>
      <trkpt lat="42.8060730" lon="0.5542740">
        <ele>917.4</ele>
        <time>2020-07-25T07:15:27Z</time>
      </trkpt>
      <trkpt lat="42.8060560" lon="0.5541270">
        <ele>918.4</ele>
        <time>2020-07-25T07:15:31Z</time>
      </trkpt>
      <trkpt lat="42.8060490" lon="0.5540930">
        <ele>918.6</ele>
        <time>2020-07-25T07:15:32Z</time>
      </trkpt>
      <trkpt lat="42.8060250" lon="0.5539550">
        <ele>919.6</ele>
        <time>2020-07-25T07:15:36Z</time>
      </trkpt>
      <trkpt lat="42.8060010" lon="0.5538170">
        <ele>920.6</ele>
        <time>2020-07-25T07:15:40Z</time>
      </trkpt>
      <trkpt lat="42.8059910" lon="0.5537490">
        <ele>921.2</ele>
        <time>2020-07-25T07:15:42Z</time>
      </trkpt>
      <trkpt lat="42.8059820" lon="0.5536820">
        <ele>922.0</ele>
        <time>2020-07-25T07:15:44Z</time>
      </trkpt>
      <trkpt lat="42.8059630" lon="0.5535440">
        <ele>923.0</ele>
        <time>2020-07-25T07:15:48Z</time>
      </trkpt>
      <trkpt lat="42.8059560" lon="0.5534750">
        <ele>923.4</ele>
        <time>2020-07-25T07:15:50Z</time>
      </trkpt>
      <trkpt lat="42.8059550" lon="0.5532810">
        <ele>924.0</ele>
        <time>2020-07-25T07:15:56Z</time>
      </trkpt>
      <trkpt lat="42.8059580" lon="0.5532500">
        <ele>924.2</ele>
        <time>2020-07-25T07:15:57Z</time>
      </trkpt>
      <trkpt lat="42.8059590" lon="0.5531870">
        <ele>925.0</ele>
        <time>2020-07-25T07:15:59Z</time>
      </trkpt>
      <trkpt lat="42.8059560" lon="0.5531170">
        <ele>926.0</ele>
        <time>2020-07-25T07:16:01Z</time>
      </trkpt>
      <trkpt lat="42.8059540" lon="0.5530800">
        <ele>926.2</ele>
        <time>2020-07-25T07:16:02Z</time>
      </trkpt>
      <trkpt lat="42.8059500" lon="0.5529830">
        <ele>926.6</ele>
        <time>2020-07-25T07:16:05Z</time>
      </trkpt>
      <trkpt lat="42.8059460" lon="0.5529160">
        <ele>927.2</ele>
        <time>2020-07-25T07:16:07Z</time>
      </trkpt>
      <trkpt lat="42.8059480" lon="0.5527750">
        <ele>928.4</ele>
        <time>2020-07-25T07:16:11Z</time>
      </trkpt>
      <trkpt lat="42.8059480" lon="0.5527070">
        <ele>929.0</ele>
        <time>2020-07-25T07:16:13Z</time>
      </trkpt>
      <trkpt lat="42.8059510" lon="0.5526060">
        <ele>929.8</ele>
        <time>2020-07-25T07:16:16Z</time>
      </trkpt>
      <trkpt lat="42.8059540" lon="0.5525020">
        <ele>931.0</ele>
        <time>2020-07-25T07:16:19Z</time>
      </trkpt>
      <trkpt lat="42.8059580" lon="0.5524690">
        <ele>931.4</ele>
        <time>2020-07-25T07:16:20Z</time>
      </trkpt>
      <trkpt lat="42.8059640" lon="0.5524010">
        <ele>931.8</ele>
        <time>2020-07-25T07:16:22Z</time>
      </trkpt>
      <trkpt lat="42.8059680" lon="0.5523670">
        <ele>932.2</ele>
        <time>2020-07-25T07:16:23Z</time>
      </trkpt>
      <trkpt lat="42.8059820" lon="0.5522030">
        <ele>933.0</ele>
        <time>2020-07-25T07:16:28Z</time>
      </trkpt>
      <trkpt lat="42.8059840" lon="0.5521750">
        <ele>933.4</ele>
        <time>2020-07-25T07:16:29Z</time>
      </trkpt>
      <trkpt lat="42.8059960" lon="0.5521000">
        <ele>934.2</ele>
        <time>2020-07-25T07:16:32Z</time>
      </trkpt>
      <trkpt lat="42.8060030" lon="0.5520720">
        <ele>934.6</ele>
        <time>2020-07-25T07:16:33Z</time>
      </trkpt>
      <trkpt lat="42.8060270" lon="0.5519040">
        <ele>935.8</ele>
        <time>2020-07-25T07:16:38Z</time>
      </trkpt>
      <trkpt lat="42.8060300" lon="0.5518690">
        <ele>936.0</ele>
        <time>2020-07-25T07:16:39Z</time>
      </trkpt>
      <trkpt lat="42.8060470" lon="0.5517310">
        <ele>936.8</ele>
        <time>2020-07-25T07:16:43Z</time>
      </trkpt>
      <trkpt lat="42.8060680" lon="0.5515940">
        <ele>937.6</ele>
        <time>2020-07-25T07:16:47Z</time>
      </trkpt>
      <trkpt lat="42.8060730" lon="0.5515600">
        <ele>937.8</ele>
        <time>2020-07-25T07:16:48Z</time>
      </trkpt>
      <trkpt lat="42.8060920" lon="0.5514290">
        <ele>938.8</ele>
        <time>2020-07-25T07:16:52Z</time>
      </trkpt>
      <trkpt lat="42.8060960" lon="0.5513970">
        <ele>939.2</ele>
        <time>2020-07-25T07:16:53Z</time>
      </trkpt>
      <trkpt lat="42.8061090" lon="0.5513010">
        <ele>940.0</ele>
        <time>2020-07-25T07:16:56Z</time>
      </trkpt>
      <trkpt lat="42.8061140" lon="0.5512690">
        <ele>940.2</ele>
        <time>2020-07-25T07:16:57Z</time>
      </trkpt>
      <trkpt lat="42.8061190" lon="0.5512370">
        <ele>940.6</ele>
        <time>2020-07-25T07:16:58Z</time>
      </trkpt>
      <trkpt lat="42.8061300" lon="0.5511110">
        <ele>941.6</ele>
        <time>2020-07-25T07:17:02Z</time>
      </trkpt>
      <trkpt lat="42.8061340" lon="0.5510780">
        <ele>941.8</ele>
        <time>2020-07-25T07:17:03Z</time>
      </trkpt>
      <trkpt lat="42.8061520" lon="0.5509340">
        <ele>942.8</ele>
        <time>2020-07-25T07:17:07Z</time>
      </trkpt>
      <trkpt lat="42.8061740" lon="0.5508380">
        <ele>943.4</ele>
        <time>2020-07-25T07:17:10Z</time>
      </trkpt>
      <trkpt lat="42.8061790" lon="0.5507780">
        <ele>944.0</ele>
        <time>2020-07-25T07:17:12Z</time>
      </trkpt>
      <trkpt lat="42.8062020" lon="0.5506540">
        <ele>945.0</ele>
        <time>2020-07-25T07:17:16Z</time>
      </trkpt>
      <trkpt lat="42.8062070" lon="0.5506240">
        <ele>945.2</ele>
        <time>2020-07-25T07:17:17Z</time>
      </trkpt>
      <trkpt lat="42.8062270" lon="0.5504870">
        <ele>946.4</ele>
        <time>2020-07-25T07:17:21Z</time>
      </trkpt>
      <trkpt lat="42.8062310" lon="0.5504480">
        <ele>946.6</ele>
        <time>2020-07-25T07:17:22Z</time>
      </trkpt>
      <trkpt lat="42.8062480" lon="0.5503390">
        <ele>947.2</ele>
        <time>2020-07-25T07:17:25Z</time>
      </trkpt>
      <trkpt lat="42.8062580" lon="0.5502670">
        <ele>947.4</ele>
        <time>2020-07-25T07:17:27Z</time>
      </trkpt>
      <trkpt lat="42.8062650" lon="0.5501650">
        <ele>948.0</ele>
        <time>2020-07-25T07:17:30Z</time>
      </trkpt>
      <trkpt lat="42.8062670" lon="0.5501320">
        <ele>948.2</ele>
        <time>2020-07-25T07:17:31Z</time>
      </trkpt>
      <trkpt lat="42.8062740" lon="0.5501000">
        <ele>948.4</ele>
        <time>2020-07-25T07:17:32Z</time>
      </trkpt>
      <trkpt lat="42.8063200" lon="0.5499010">
        <ele>949.6</ele>
        <time>2020-07-25T07:17:37Z</time>
      </trkpt>
      <trkpt lat="42.8063260" lon="0.5498150">
        <ele>950.0</ele>
        <time>2020-07-25T07:17:39Z</time>
      </trkpt>
      <trkpt lat="42.8063240" lon="0.5496290">
        <ele>950.6</ele>
        <time>2020-07-25T07:17:43Z</time>
      </trkpt>
      <trkpt lat="42.8063090" lon="0.5494230">
        <ele>951.4</ele>
        <time>2020-07-25T07:17:48Z</time>
      </trkpt>
      <trkpt lat="42.8063010" lon="0.5492480">
        <ele>951.8</ele>
        <time>2020-07-25T07:17:52Z</time>
      </trkpt>
      <trkpt lat="42.8062940" lon="0.5490360">
        <ele>952.6</ele>
        <time>2020-07-25T07:17:57Z</time>
      </trkpt>
      <trkpt lat="42.8062900" lon="0.5489560">
        <ele>952.8</ele>
        <time>2020-07-25T07:17:59Z</time>
      </trkpt>
      <trkpt lat="42.8062950" lon="0.5487460">
        <ele>953.6</ele>
        <time>2020-07-25T07:18:04Z</time>
      </trkpt>
      <trkpt lat="42.8062960" lon="0.5487070">
        <ele>954.0</ele>
        <time>2020-07-25T07:18:05Z</time>
      </trkpt>
      <trkpt lat="42.8063060" lon="0.5485550">
        <ele>955.0</ele>
        <time>2020-07-25T07:18:09Z</time>
      </trkpt>
      <trkpt lat="42.8063230" lon="0.5484870">
        <ele>955.6</ele>
        <time>2020-07-25T07:18:11Z</time>
      </trkpt>
      <trkpt lat="42.8063580" lon="0.5483890">
        <ele>956.0</ele>
        <time>2020-07-25T07:18:14Z</time>
      </trkpt>
      <trkpt lat="42.8063950" lon="0.5482840">
        <ele>956.8</ele>
        <time>2020-07-25T07:18:17Z</time>
      </trkpt>
      <trkpt lat="42.8064070" lon="0.5482500">
        <ele>957.4</ele>
        <time>2020-07-25T07:18:18Z</time>
      </trkpt>
      <trkpt lat="42.8064180" lon="0.5482170">
        <ele>957.8</ele>
        <time>2020-07-25T07:18:19Z</time>
      </trkpt>
      <trkpt lat="42.8064280" lon="0.5481840">
        <ele>958.2</ele>
        <time>2020-07-25T07:18:20Z</time>
      </trkpt>
      <trkpt lat="42.8064390" lon="0.5481540">
        <ele>958.6</ele>
        <time>2020-07-25T07:18:21Z</time>
      </trkpt>
      <trkpt lat="42.8064910" lon="0.5480330">
        <ele>959.6</ele>
        <time>2020-07-25T07:18:25Z</time>
      </trkpt>
      <trkpt lat="42.8065460" lon="0.5479100">
        <ele>960.6</ele>
        <time>2020-07-25T07:18:29Z</time>
      </trkpt>
      <trkpt lat="42.8065580" lon="0.5478770">
        <ele>960.8</ele>
        <time>2020-07-25T07:18:30Z</time>
      </trkpt>
      <trkpt lat="42.8065910" lon="0.5476800">
        <ele>961.8</ele>
        <time>2020-07-25T07:18:36Z</time>
      </trkpt>
      <trkpt lat="42.8065910" lon="0.5476430">
        <ele>962.0</ele>
        <time>2020-07-25T07:18:37Z</time>
      </trkpt>
      <trkpt lat="42.8065900" lon="0.5475780">
        <ele>962.4</ele>
        <time>2020-07-25T07:18:39Z</time>
      </trkpt>
      <trkpt lat="42.8065860" lon="0.5475460">
        <ele>962.6</ele>
        <time>2020-07-25T07:18:40Z</time>
      </trkpt>
      <trkpt lat="42.8065860" lon="0.5475460">
        <ele>963.2</ele>
        <time>2020-07-25T07:18:42Z</time>
      </trkpt>
      <trkpt lat="42.8065790" lon="0.5473500">
        <ele>964.2</ele>
        <time>2020-07-25T07:18:46Z</time>
      </trkpt>
      <trkpt lat="42.8065890" lon="0.5471010">
        <ele>965.4</ele>
        <time>2020-07-25T07:18:52Z</time>
      </trkpt>
      <trkpt lat="42.8065890" lon="0.5470480">
        <ele>965.8</ele>
        <time>2020-07-25T07:18:53Z</time>
      </trkpt>
      <trkpt lat="42.8065800" lon="0.5468840">
        <ele>966.4</ele>
        <time>2020-07-25T07:18:56Z</time>
      </trkpt>
      <trkpt lat="42.8065890" lon="0.5466410">
        <ele>967.2</ele>
        <time>2020-07-25T07:19:01Z</time>
      </trkpt>
      <trkpt lat="42.8065760" lon="0.5464130">
        <ele>967.4</ele>
        <time>2020-07-25T07:19:05Z</time>
      </trkpt>
      <trkpt lat="42.8065670" lon="0.5463500">
        <ele>967.4</ele>
        <time>2020-07-25T07:19:06Z</time>
      </trkpt>
      <trkpt lat="42.8065070" lon="0.5459840">
        <ele>967.8</ele>
        <time>2020-07-25T07:19:12Z</time>
      </trkpt>
      <trkpt lat="42.8064900" lon="0.5458680">
        <ele>968.4</ele>
        <time>2020-07-25T07:19:14Z</time>
      </trkpt>
      <trkpt lat="42.8064850" lon="0.5458100">
        <ele>968.6</ele>
        <time>2020-07-25T07:19:15Z</time>
      </trkpt>
      <trkpt lat="42.8064490" lon="0.5454130">
        <ele>969.4</ele>
        <time>2020-07-25T07:19:21Z</time>
      </trkpt>
      <trkpt lat="42.8064490" lon="0.5453490">
        <ele>969.6</ele>
        <time>2020-07-25T07:19:22Z</time>
      </trkpt>
      <trkpt lat="42.8064670" lon="0.5449770">
        <ele>970.4</ele>
        <time>2020-07-25T07:19:28Z</time>
      </trkpt>
      <trkpt lat="42.8064680" lon="0.5448550">
        <ele>970.8</ele>
        <time>2020-07-25T07:19:30Z</time>
      </trkpt>
      <trkpt lat="42.8064670" lon="0.5446100">
        <ele>971.8</ele>
        <time>2020-07-25T07:19:34Z</time>
      </trkpt>
      <trkpt lat="42.8064770" lon="0.5444300">
        <ele>972.6</ele>
        <time>2020-07-25T07:19:37Z</time>
      </trkpt>
      <trkpt lat="42.8064580" lon="0.5443150">
        <ele>973.2</ele>
        <time>2020-07-25T07:19:39Z</time>
      </trkpt>
      <trkpt lat="42.8064200" lon="0.5441630">
        <ele>974.0</ele>
        <time>2020-07-25T07:19:42Z</time>
      </trkpt>
      <trkpt lat="42.8064030" lon="0.5441170">
        <ele>974.2</ele>
        <time>2020-07-25T07:19:43Z</time>
      </trkpt>
      <trkpt lat="42.8063550" lon="0.5439400">
        <ele>975.4</ele>
        <time>2020-07-25T07:19:47Z</time>
      </trkpt>
      <trkpt lat="42.8063260" lon="0.5438060">
        <ele>976.2</ele>
        <time>2020-07-25T07:19:50Z</time>
      </trkpt>
      <trkpt lat="42.8063170" lon="0.5437610">
        <ele>976.4</ele>
        <time>2020-07-25T07:19:51Z</time>
      </trkpt>
      <trkpt lat="42.8062640" lon="0.5434930">
        <ele>977.6</ele>
        <time>2020-07-25T07:19:57Z</time>
      </trkpt>
      <trkpt lat="42.8062370" lon="0.5433550">
        <ele>978.4</ele>
        <time>2020-07-25T07:20:00Z</time>
      </trkpt>
      <trkpt lat="42.8062210" lon="0.5432620">
        <ele>978.8</ele>
        <time>2020-07-25T07:20:02Z</time>
      </trkpt>
      <trkpt lat="42.8061890" lon="0.5429850">
        <ele>979.6</ele>
        <time>2020-07-25T07:20:08Z</time>
      </trkpt>
      <trkpt lat="42.8061870" lon="0.5429390">
        <ele>979.8</ele>
        <time>2020-07-25T07:20:09Z</time>
      </trkpt>
      <trkpt lat="42.8061840" lon="0.5428030">
        <ele>980.4</ele>
        <time>2020-07-25T07:20:12Z</time>
      </trkpt>
      <trkpt lat="42.8061890" lon="0.5426650">
        <ele>981.0</ele>
        <time>2020-07-25T07:20:15Z</time>
      </trkpt>
      <trkpt lat="42.8061940" lon="0.5425160">
        <ele>982.0</ele>
        <time>2020-07-25T07:20:18Z</time>
      </trkpt>
      <trkpt lat="42.8061970" lon="0.5424700">
        <ele>982.2</ele>
        <time>2020-07-25T07:20:19Z</time>
      </trkpt>
      <trkpt lat="42.8061880" lon="0.5421910">
        <ele>983.0</ele>
        <time>2020-07-25T07:20:25Z</time>
      </trkpt>
      <trkpt lat="42.8061890" lon="0.5421010">
        <ele>983.4</ele>
        <time>2020-07-25T07:20:27Z</time>
      </trkpt>
      <trkpt lat="42.8061880" lon="0.5419710">
        <ele>984.2</ele>
        <time>2020-07-25T07:20:30Z</time>
      </trkpt>
      <trkpt lat="42.8061850" lon="0.5418860">
        <ele>984.6</ele>
        <time>2020-07-25T07:20:32Z</time>
      </trkpt>
      <trkpt lat="42.8061760" lon="0.5417140">
        <ele>985.6</ele>
        <time>2020-07-25T07:20:36Z</time>
      </trkpt>
      <trkpt lat="42.8061760" lon="0.5416720">
        <ele>985.8</ele>
        <time>2020-07-25T07:20:37Z</time>
      </trkpt>
      <trkpt lat="42.8061780" lon="0.5415890">
        <ele>985.8</ele>
        <time>2020-07-25T07:20:39Z</time>
      </trkpt>
      <trkpt lat="42.8061830" lon="0.5415060">
        <ele>986.0</ele>
        <time>2020-07-25T07:20:41Z</time>
      </trkpt>
      <trkpt lat="42.8061920" lon="0.5413320">
        <ele>986.6</ele>
        <time>2020-07-25T07:20:45Z</time>
      </trkpt>
      <trkpt lat="42.8061960" lon="0.5412880">
        <ele>987.0</ele>
        <time>2020-07-25T07:20:46Z</time>
      </trkpt>
      <trkpt lat="42.8062000" lon="0.5411000">
        <ele>988.0</ele>
        <time>2020-07-25T07:20:50Z</time>
      </trkpt>
      <trkpt lat="42.8062050" lon="0.5408720">
        <ele>989.2</ele>
        <time>2020-07-25T07:20:55Z</time>
      </trkpt>
      <trkpt lat="42.8062250" lon="0.5406040">
        <ele>990.2</ele>
        <time>2020-07-25T07:21:01Z</time>
      </trkpt>
      <trkpt lat="42.8062400" lon="0.5404670">
        <ele>991.0</ele>
        <time>2020-07-25T07:21:04Z</time>
      </trkpt>
      <trkpt lat="42.8062430" lon="0.5404240">
        <ele>991.4</ele>
        <time>2020-07-25T07:21:05Z</time>
      </trkpt>
      <trkpt lat="42.8062680" lon="0.5402120">
        <ele>992.4</ele>
        <time>2020-07-25T07:21:10Z</time>
      </trkpt>
      <trkpt lat="42.8062840" lon="0.5400900">
        <ele>993.4</ele>
        <time>2020-07-25T07:21:13Z</time>
      </trkpt>
      <trkpt lat="42.8062920" lon="0.5400510">
        <ele>993.6</ele>
        <time>2020-07-25T07:21:14Z</time>
      </trkpt>
      <trkpt lat="42.8063160" lon="0.5398910">
        <ele>994.8</ele>
        <time>2020-07-25T07:21:18Z</time>
      </trkpt>
      <trkpt lat="42.8063300" lon="0.5397620">
        <ele>995.6</ele>
        <time>2020-07-25T07:21:21Z</time>
      </trkpt>
      <trkpt lat="42.8063400" lon="0.5396710">
        <ele>996.0</ele>
        <time>2020-07-25T07:21:23Z</time>
      </trkpt>
      <trkpt lat="42.8063480" lon="0.5396260">
        <ele>996.0</ele>
        <time>2020-07-25T07:21:24Z</time>
      </trkpt>
      <trkpt lat="42.8063840" lon="0.5394180">
        <ele>997.0</ele>
        <time>2020-07-25T07:21:29Z</time>
      </trkpt>
      <trkpt lat="42.8064090" lon="0.5392430">
        <ele>998.0</ele>
        <time>2020-07-25T07:21:33Z</time>
      </trkpt>
      <trkpt lat="42.8064300" lon="0.5391080">
        <ele>998.6</ele>
        <time>2020-07-25T07:21:36Z</time>
      </trkpt>
      <trkpt lat="42.8064470" lon="0.5390180">
        <ele>999.0</ele>
        <time>2020-07-25T07:21:38Z</time>
      </trkpt>
      <trkpt lat="42.8064850" lon="0.5387310">
        <ele>1000.2</ele>
        <time>2020-07-25T07:21:44Z</time>
      </trkpt>
      <trkpt lat="42.8065120" lon="0.5385460">
        <ele>1001.2</ele>
        <time>2020-07-25T07:21:48Z</time>
      </trkpt>
      <trkpt lat="42.8065320" lon="0.5384020">
        <ele>1001.4</ele>
        <time>2020-07-25T07:21:51Z</time>
      </trkpt>
      <trkpt lat="42.8065600" lon="0.5382210">
        <ele>1002.0</ele>
        <time>2020-07-25T07:21:55Z</time>
      </trkpt>
      <trkpt lat="42.8065760" lon="0.5381320">
        <ele>1002.2</ele>
        <time>2020-07-25T07:21:57Z</time>
      </trkpt>
      <trkpt lat="42.8065870" lon="0.5380470">
        <ele>1002.4</ele>
        <time>2020-07-25T07:21:59Z</time>
      </trkpt>
      <trkpt lat="42.8066180" lon="0.5377610">
        <ele>1003.2</ele>
        <time>2020-07-25T07:22:05Z</time>
      </trkpt>
      <trkpt lat="42.8066220" lon="0.5377040">
        <ele>1003.4</ele>
        <time>2020-07-25T07:22:06Z</time>
      </trkpt>
      <trkpt lat="42.8066280" lon="0.5376470">
        <ele>1003.4</ele>
        <time>2020-07-25T07:22:07Z</time>
      </trkpt>
      <trkpt lat="42.8066330" lon="0.5375890">
        <ele>1003.4</ele>
        <time>2020-07-25T07:22:08Z</time>
      </trkpt>
      <trkpt lat="42.8066350" lon="0.5374720">
        <ele>1003.6</ele>
        <time>2020-07-25T07:22:10Z</time>
      </trkpt>
      <trkpt lat="42.8066320" lon="0.5372450">
        <ele>1003.8</ele>
        <time>2020-07-25T07:22:14Z</time>
      </trkpt>
      <trkpt lat="42.8066310" lon="0.5370770">
        <ele>1004.4</ele>
        <time>2020-07-25T07:22:17Z</time>
      </trkpt>
      <trkpt lat="42.8066250" lon="0.5368260">
        <ele>1005.6</ele>
        <time>2020-07-25T07:22:21Z</time>
      </trkpt>
      <trkpt lat="42.8066040" lon="0.5364390">
        <ele>1005.6</ele>
        <time>2020-07-25T07:22:27Z</time>
      </trkpt>
      <trkpt lat="42.8066010" lon="0.5363080">
        <ele>1005.8</ele>
        <time>2020-07-25T07:22:29Z</time>
      </trkpt>
      <trkpt lat="42.8066040" lon="0.5361700">
        <ele>1006.0</ele>
        <time>2020-07-25T07:22:31Z</time>
      </trkpt>
      <trkpt lat="42.8066370" lon="0.5358450">
        <ele>1006.2</ele>
        <time>2020-07-25T07:22:36Z</time>
      </trkpt>
      <trkpt lat="42.8066470" lon="0.5357800">
        <ele>1006.4</ele>
        <time>2020-07-25T07:22:37Z</time>
      </trkpt>
      <trkpt lat="42.8066790" lon="0.5355830">
        <ele>1006.6</ele>
        <time>2020-07-25T07:22:40Z</time>
      </trkpt>
      <trkpt lat="42.8067330" lon="0.5352700">
        <ele>1007.4</ele>
        <time>2020-07-25T07:22:45Z</time>
      </trkpt>
      <trkpt lat="42.8067450" lon="0.5352090">
        <ele>1007.6</ele>
        <time>2020-07-25T07:22:46Z</time>
      </trkpt>
      <trkpt lat="42.8067570" lon="0.5351480">
        <ele>1007.8</ele>
        <time>2020-07-25T07:22:47Z</time>
      </trkpt>
      <trkpt lat="42.8068080" lon="0.5349180">
        <ele>1008.4</ele>
        <time>2020-07-25T07:22:51Z</time>
      </trkpt>
      <trkpt lat="42.8068350" lon="0.5348070">
        <ele>1008.8</ele>
        <time>2020-07-25T07:22:53Z</time>
      </trkpt>
      <trkpt lat="42.8068580" lon="0.5346980">
        <ele>1009.6</ele>
        <time>2020-07-25T07:22:55Z</time>
      </trkpt>
      <trkpt lat="42.8068730" lon="0.5345870">
        <ele>1010.0</ele>
        <time>2020-07-25T07:22:57Z</time>
      </trkpt>
      <trkpt lat="42.8068900" lon="0.5343160">
        <ele>1011.0</ele>
        <time>2020-07-25T07:23:02Z</time>
      </trkpt>
      <trkpt lat="42.8068680" lon="0.5339780">
        <ele>1012.0</ele>
        <time>2020-07-25T07:23:08Z</time>
      </trkpt>
      <trkpt lat="42.8068490" lon="0.5338540">
        <ele>1012.2</ele>
        <time>2020-07-25T07:23:10Z</time>
      </trkpt>
      <trkpt lat="42.8068420" lon="0.5337960">
        <ele>1012.4</ele>
        <time>2020-07-25T07:23:11Z</time>
      </trkpt>
      <trkpt lat="42.8068120" lon="0.5334760">
        <ele>1013.2</ele>
        <time>2020-07-25T07:23:17Z</time>
      </trkpt>
      <trkpt lat="42.8068080" lon="0.5333200">
        <ele>1014.0</ele>
        <time>2020-07-25T07:23:20Z</time>
      </trkpt>
      <trkpt lat="42.8068200" lon="0.5331700">
        <ele>1014.4</ele>
        <time>2020-07-25T07:23:23Z</time>
      </trkpt>
      <trkpt lat="42.8068580" lon="0.5329770">
        <ele>1015.8</ele>
        <time>2020-07-25T07:23:27Z</time>
      </trkpt>
      <trkpt lat="42.8069220" lon="0.5327580">
        <ele>1016.6</ele>
        <time>2020-07-25T07:23:32Z</time>
      </trkpt>
      <trkpt lat="42.8069360" lon="0.5327110">
        <ele>1016.8</ele>
        <time>2020-07-25T07:23:33Z</time>
      </trkpt>
      <trkpt lat="42.8069510" lon="0.5326620">
        <ele>1017.0</ele>
        <time>2020-07-25T07:23:34Z</time>
      </trkpt>
      <trkpt lat="42.8070060" lon="0.5324600">
        <ele>1018.0</ele>
        <time>2020-07-25T07:23:38Z</time>
      </trkpt>
      <trkpt lat="42.8070250" lon="0.5323660">
        <ele>1018.6</ele>
        <time>2020-07-25T07:23:40Z</time>
      </trkpt>
      <trkpt lat="42.8070310" lon="0.5323230">
        <ele>1018.8</ele>
        <time>2020-07-25T07:23:41Z</time>
      </trkpt>
      <trkpt lat="42.8070370" lon="0.5322810">
        <ele>1019.0</ele>
        <time>2020-07-25T07:23:42Z</time>
      </trkpt>
      <trkpt lat="42.8070670" lon="0.5321290">
        <ele>1020.2</ele>
        <time>2020-07-25T07:23:46Z</time>
      </trkpt>
      <trkpt lat="42.8070830" lon="0.5320270">
        <ele>1021.2</ele>
        <time>2020-07-25T07:23:49Z</time>
      </trkpt>
      <trkpt lat="42.8070880" lon="0.5319910">
        <ele>1021.4</ele>
        <time>2020-07-25T07:23:50Z</time>
      </trkpt>
      <trkpt lat="42.8071150" lon="0.5318020">
        <ele>1022.4</ele>
        <time>2020-07-25T07:23:55Z</time>
      </trkpt>
      <trkpt lat="42.8071230" lon="0.5317700">
        <ele>1022.6</ele>
        <time>2020-07-25T07:23:56Z</time>
      </trkpt>
      <trkpt lat="42.8071510" lon="0.5316320">
        <ele>1023.8</ele>
        <time>2020-07-25T07:24:00Z</time>
      </trkpt>
      <trkpt lat="42.8071790" lon="0.5314880">
        <ele>1025.0</ele>
        <time>2020-07-25T07:24:04Z</time>
      </trkpt>
      <trkpt lat="42.8072150" lon="0.5313160">
        <ele>1026.0</ele>
        <time>2020-07-25T07:24:09Z</time>
      </trkpt>
      <trkpt lat="42.8072380" lon="0.5312140">
        <ele>1026.8</ele>
        <time>2020-07-25T07:24:12Z</time>
      </trkpt>
      <trkpt lat="42.8072500" lon="0.5311390">
        <ele>1027.0</ele>
        <time>2020-07-25T07:24:14Z</time>
      </trkpt>
      <trkpt lat="42.8072850" lon="0.5309320">
        <ele>1028.2</ele>
        <time>2020-07-25T07:24:20Z</time>
      </trkpt>
      <trkpt lat="42.8072910" lon="0.5308980">
        <ele>1028.6</ele>
        <time>2020-07-25T07:24:21Z</time>
      </trkpt>
      <trkpt lat="42.8073110" lon="0.5307930">
        <ele>1029.4</ele>
        <time>2020-07-25T07:24:24Z</time>
      </trkpt>
      <trkpt lat="42.8073280" lon="0.5306530">
        <ele>1030.4</ele>
        <time>2020-07-25T07:24:28Z</time>
      </trkpt>
      <trkpt lat="42.8073480" lon="0.5304340">
        <ele>1031.4</ele>
        <time>2020-07-25T07:24:34Z</time>
      </trkpt>
      <trkpt lat="42.8073490" lon="0.5303970">
        <ele>1031.6</ele>
        <time>2020-07-25T07:24:35Z</time>
      </trkpt>
      <trkpt lat="42.8073490" lon="0.5303260">
        <ele>1032.0</ele>
        <time>2020-07-25T07:24:37Z</time>
      </trkpt>
      <trkpt lat="42.8073420" lon="0.5302210">
        <ele>1032.8</ele>
        <time>2020-07-25T07:24:40Z</time>
      </trkpt>
      <trkpt lat="42.8073360" lon="0.5300770">
        <ele>1033.8</ele>
        <time>2020-07-25T07:24:44Z</time>
      </trkpt>
      <trkpt lat="42.8073310" lon="0.5299760">
        <ele>1035.0</ele>
        <time>2020-07-25T07:24:47Z</time>
      </trkpt>
      <trkpt lat="42.8073200" lon="0.5298200">
        <ele>1036.2</ele>
        <time>2020-07-25T07:24:52Z</time>
      </trkpt>
      <trkpt lat="42.8073000" lon="0.5296850">
        <ele>1037.2</ele>
        <time>2020-07-25T07:24:56Z</time>
      </trkpt>
      <trkpt lat="42.8072790" lon="0.5295590">
        <ele>1038.2</ele>
        <time>2020-07-25T07:25:00Z</time>
      </trkpt>
      <trkpt lat="42.8072760" lon="0.5295290">
        <ele>1038.6</ele>
        <time>2020-07-25T07:25:01Z</time>
      </trkpt>
      <trkpt lat="42.8072630" lon="0.5294370">
        <ele>1039.2</ele>
        <time>2020-07-25T07:25:04Z</time>
      </trkpt>
      <trkpt lat="42.8072580" lon="0.5294050">
        <ele>1039.4</ele>
        <time>2020-07-25T07:25:05Z</time>
      </trkpt>
      <trkpt lat="42.8072340" lon="0.5292780">
        <ele>1040.4</ele>
        <time>2020-07-25T07:25:09Z</time>
      </trkpt>
      <trkpt lat="42.8072280" lon="0.5292440">
        <ele>1040.6</ele>
        <time>2020-07-25T07:25:10Z</time>
      </trkpt>
      <trkpt lat="42.8072050" lon="0.5291500">
        <ele>1041.6</ele>
        <time>2020-07-25T07:25:13Z</time>
      </trkpt>
      <trkpt lat="42.8071970" lon="0.5291190">
        <ele>1042.0</ele>
        <time>2020-07-25T07:25:14Z</time>
      </trkpt>
      <trkpt lat="42.8071710" lon="0.5290250">
        <ele>1042.6</ele>
        <time>2020-07-25T07:25:17Z</time>
      </trkpt>
      <trkpt lat="42.8071510" lon="0.5289630">
        <ele>1043.2</ele>
        <time>2020-07-25T07:25:19Z</time>
      </trkpt>
      <trkpt lat="42.8070890" lon="0.5287680">
        <ele>1044.4</ele>
        <time>2020-07-25T07:25:25Z</time>
      </trkpt>
      <trkpt lat="42.8070780" lon="0.5287360">
        <ele>1044.8</ele>
        <time>2020-07-25T07:25:26Z</time>
      </trkpt>
      <trkpt lat="42.8070550" lon="0.5286750">
        <ele>1045.2</ele>
        <time>2020-07-25T07:25:28Z</time>
      </trkpt>
      <trkpt lat="42.8070310" lon="0.5286160">
        <ele>1045.6</ele>
        <time>2020-07-25T07:25:30Z</time>
      </trkpt>
      <trkpt lat="42.8069720" lon="0.5284550">
        <ele>1046.8</ele>
        <time>2020-07-25T07:25:35Z</time>
      </trkpt>
      <trkpt lat="42.8069130" lon="0.5283420">
        <ele>1047.8</ele>
        <time>2020-07-25T07:25:39Z</time>
      </trkpt>
      <trkpt lat="42.8068890" lon="0.5282840">
        <ele>1049.0</ele>
        <time>2020-07-25T07:25:41Z</time>
      </trkpt>
      <trkpt lat="42.8068630" lon="0.5282280">
        <ele>1049.8</ele>
        <time>2020-07-25T07:25:43Z</time>
      </trkpt>
      <trkpt lat="42.8068510" lon="0.5281990">
        <ele>1049.8</ele>
        <time>2020-07-25T07:25:44Z</time>
      </trkpt>
      <trkpt lat="42.8068390" lon="0.5281690">
        <ele>1050.0</ele>
        <time>2020-07-25T07:25:45Z</time>
      </trkpt>
      <trkpt lat="42.8067920" lon="0.5280640">
        <ele>1050.6</ele>
        <time>2020-07-25T07:25:49Z</time>
      </trkpt>
      <trkpt lat="42.8067760" lon="0.5280030">
        <ele>1051.0</ele>
        <time>2020-07-25T07:25:51Z</time>
      </trkpt>
      <trkpt lat="42.8067220" lon="0.5278530">
        <ele>1052.4</ele>
        <time>2020-07-25T07:25:56Z</time>
      </trkpt>
      <trkpt lat="42.8066900" lon="0.5277650">
        <ele>1053.4</ele>
        <time>2020-07-25T07:25:59Z</time>
      </trkpt>
      <trkpt lat="42.8066790" lon="0.5277360">
        <ele>1053.6</ele>
        <time>2020-07-25T07:26:00Z</time>
      </trkpt>
      <trkpt lat="42.8066390" lon="0.5276080">
        <ele>1054.8</ele>
        <time>2020-07-25T07:26:04Z</time>
      </trkpt>
      <trkpt lat="42.8066230" lon="0.5275400">
        <ele>1055.2</ele>
        <time>2020-07-25T07:26:06Z</time>
      </trkpt>
      <trkpt lat="42.8066060" lon="0.5274720">
        <ele>1055.8</ele>
        <time>2020-07-25T07:26:08Z</time>
      </trkpt>
      <trkpt lat="42.8065610" lon="0.5273150">
        <ele>1057.0</ele>
        <time>2020-07-25T07:26:13Z</time>
      </trkpt>
      <trkpt lat="42.8065510" lon="0.5272850">
        <ele>1057.4</ele>
        <time>2020-07-25T07:26:14Z</time>
      </trkpt>
      <trkpt lat="42.8065440" lon="0.5272540">
        <ele>1057.6</ele>
        <time>2020-07-25T07:26:15Z</time>
      </trkpt>
      <trkpt lat="42.8065280" lon="0.5271920">
        <ele>1058.2</ele>
        <time>2020-07-25T07:26:17Z</time>
      </trkpt>
      <trkpt lat="42.8065040" lon="0.5271030">
        <ele>1058.6</ele>
        <time>2020-07-25T07:26:20Z</time>
      </trkpt>
      <trkpt lat="42.8064820" lon="0.5270450">
        <ele>1059.2</ele>
        <time>2020-07-25T07:26:22Z</time>
      </trkpt>
      <trkpt lat="42.8064720" lon="0.5270160">
        <ele>1059.4</ele>
        <time>2020-07-25T07:26:23Z</time>
      </trkpt>
      <trkpt lat="42.8064220" lon="0.5269040">
        <ele>1060.4</ele>
        <time>2020-07-25T07:26:27Z</time>
      </trkpt>
      <trkpt lat="42.8064080" lon="0.5268450">
        <ele>1061.0</ele>
        <time>2020-07-25T07:26:29Z</time>
      </trkpt>
      <trkpt lat="42.8063890" lon="0.5267880">
        <ele>1061.6</ele>
        <time>2020-07-25T07:26:31Z</time>
      </trkpt>
      <trkpt lat="42.8063590" lon="0.5266670">
        <ele>1062.4</ele>
        <time>2020-07-25T07:26:35Z</time>
      </trkpt>
      <trkpt lat="42.8063550" lon="0.5266340">
        <ele>1062.8</ele>
        <time>2020-07-25T07:26:36Z</time>
      </trkpt>
      <trkpt lat="42.8063520" lon="0.5266020">
        <ele>1063.0</ele>
        <time>2020-07-25T07:26:37Z</time>
      </trkpt>
      <trkpt lat="42.8063430" lon="0.5265110">
        <ele>1063.8</ele>
        <time>2020-07-25T07:26:40Z</time>
      </trkpt>
      <trkpt lat="42.8063340" lon="0.5264450">
        <ele>1064.2</ele>
        <time>2020-07-25T07:26:42Z</time>
      </trkpt>
      <trkpt lat="42.8063180" lon="0.5263380">
        <ele>1065.0</ele>
        <time>2020-07-25T07:26:45Z</time>
      </trkpt>
      <trkpt lat="42.8063130" lon="0.5263020">
        <ele>1065.2</ele>
        <time>2020-07-25T07:26:46Z</time>
      </trkpt>
      <trkpt lat="42.8062880" lon="0.5261650">
        <ele>1066.0</ele>
        <time>2020-07-25T07:26:50Z</time>
      </trkpt>
      <trkpt lat="42.8062560" lon="0.5260310">
        <ele>1067.0</ele>
        <time>2020-07-25T07:26:54Z</time>
      </trkpt>
      <trkpt lat="42.8062480" lon="0.5259990">
        <ele>1067.2</ele>
        <time>2020-07-25T07:26:55Z</time>
      </trkpt>
      <trkpt lat="42.8062290" lon="0.5259040">
        <ele>1068.0</ele>
        <time>2020-07-25T07:26:58Z</time>
      </trkpt>
      <trkpt lat="42.8062230" lon="0.5258720">
        <ele>1068.2</ele>
        <time>2020-07-25T07:26:59Z</time>
      </trkpt>
      <trkpt lat="42.8061950" lon="0.5257420">
        <ele>1069.4</ele>
        <time>2020-07-25T07:27:03Z</time>
      </trkpt>
      <trkpt lat="42.8061880" lon="0.5257110">
        <ele>1069.6</ele>
        <time>2020-07-25T07:27:04Z</time>
      </trkpt>
      <trkpt lat="42.8061460" lon="0.5255860">
        <ele>1070.6</ele>
        <time>2020-07-25T07:27:08Z</time>
      </trkpt>
      <trkpt lat="42.8061160" lon="0.5254450">
        <ele>1071.8</ele>
        <time>2020-07-25T07:27:12Z</time>
      </trkpt>
      <trkpt lat="42.8060980" lon="0.5253400">
        <ele>1072.8</ele>
        <time>2020-07-25T07:27:15Z</time>
      </trkpt>
      <trkpt lat="42.8060680" lon="0.5251430">
        <ele>1073.6</ele>
        <time>2020-07-25T07:27:21Z</time>
      </trkpt>
      <trkpt lat="42.8060630" lon="0.5251080">
        <ele>1074.0</ele>
        <time>2020-07-25T07:27:22Z</time>
      </trkpt>
      <trkpt lat="42.8060430" lon="0.5249790">
        <ele>1075.2</ele>
        <time>2020-07-25T07:27:26Z</time>
      </trkpt>
      <trkpt lat="42.8060330" lon="0.5248530">
        <ele>1076.0</ele>
        <time>2020-07-25T07:27:30Z</time>
      </trkpt>
      <trkpt lat="42.8060310" lon="0.5248230">
        <ele>1076.2</ele>
        <time>2020-07-25T07:27:31Z</time>
      </trkpt>
      <trkpt lat="42.8060270" lon="0.5246950">
        <ele>1077.4</ele>
        <time>2020-07-25T07:27:35Z</time>
      </trkpt>
      <trkpt lat="42.8060370" lon="0.5245910">
        <ele>1078.0</ele>
        <time>2020-07-25T07:27:38Z</time>
      </trkpt>
      <trkpt lat="42.8060410" lon="0.5244890">
        <ele>1078.4</ele>
        <time>2020-07-25T07:27:41Z</time>
      </trkpt>
      <trkpt lat="42.8060360" lon="0.5244540">
        <ele>1078.6</ele>
        <time>2020-07-25T07:27:42Z</time>
      </trkpt>
      <trkpt lat="42.8060340" lon="0.5243580">
        <ele>1079.4</ele>
        <time>2020-07-25T07:27:45Z</time>
      </trkpt>
      <trkpt lat="42.8060350" lon="0.5243290">
        <ele>1079.8</ele>
        <time>2020-07-25T07:27:46Z</time>
      </trkpt>
      <trkpt lat="42.8060320" lon="0.5242130">
        <ele>1080.8</ele>
        <time>2020-07-25T07:27:50Z</time>
      </trkpt>
      <trkpt lat="42.8060340" lon="0.5241480">
        <ele>1081.4</ele>
        <time>2020-07-25T07:27:52Z</time>
      </trkpt>
      <trkpt lat="42.8060390" lon="0.5240850">
        <ele>1082.0</ele>
        <time>2020-07-25T07:27:54Z</time>
      </trkpt>
      <trkpt lat="42.8060390" lon="0.5240230">
        <ele>1082.6</ele>
        <time>2020-07-25T07:27:56Z</time>
      </trkpt>
      <trkpt lat="42.8060390" lon="0.5239590">
        <ele>1083.4</ele>
        <time>2020-07-25T07:27:58Z</time>
      </trkpt>
      <trkpt lat="42.8060440" lon="0.5239000">
        <ele>1083.8</ele>
        <time>2020-07-25T07:28:00Z</time>
      </trkpt>
      <trkpt lat="42.8060490" lon="0.5237710">
        <ele>1084.4</ele>
        <time>2020-07-25T07:28:04Z</time>
      </trkpt>
      <trkpt lat="42.8060440" lon="0.5236990">
        <ele>1084.8</ele>
        <time>2020-07-25T07:28:06Z</time>
      </trkpt>
      <trkpt lat="42.8060430" lon="0.5236650">
        <ele>1085.0</ele>
        <time>2020-07-25T07:28:07Z</time>
      </trkpt>
      <trkpt lat="42.8060430" lon="0.5236010">
        <ele>1085.6</ele>
        <time>2020-07-25T07:28:09Z</time>
      </trkpt>
      <trkpt lat="42.8060410" lon="0.5235100">
        <ele>1086.4</ele>
        <time>2020-07-25T07:28:12Z</time>
      </trkpt>
      <trkpt lat="42.8060460" lon="0.5234470">
        <ele>1086.8</ele>
        <time>2020-07-25T07:28:14Z</time>
      </trkpt>
      <trkpt lat="42.8060450" lon="0.5234180">
        <ele>1087.0</ele>
        <time>2020-07-25T07:28:15Z</time>
      </trkpt>
      <trkpt lat="42.8060390" lon="0.5233280">
        <ele>1087.8</ele>
        <time>2020-07-25T07:28:18Z</time>
      </trkpt>
      <trkpt lat="42.8060410" lon="0.5232060">
        <ele>1088.8</ele>
        <time>2020-07-25T07:28:22Z</time>
      </trkpt>
      <trkpt lat="42.8060390" lon="0.5231700">
        <ele>1089.2</ele>
        <time>2020-07-25T07:28:23Z</time>
      </trkpt>
      <trkpt lat="42.8060230" lon="0.5230720">
        <ele>1090.0</ele>
        <time>2020-07-25T07:28:26Z</time>
      </trkpt>
      <trkpt lat="42.8060080" lon="0.5229750">
        <ele>1090.4</ele>
        <time>2020-07-25T07:28:29Z</time>
      </trkpt>
      <trkpt lat="42.8060090" lon="0.5229070">
        <ele>1091.2</ele>
        <time>2020-07-25T07:28:31Z</time>
      </trkpt>
      <trkpt lat="42.8060070" lon="0.5228120">
        <ele>1092.0</ele>
        <time>2020-07-25T07:28:34Z</time>
      </trkpt>
      <trkpt lat="42.8060050" lon="0.5227790">
        <ele>1092.4</ele>
        <time>2020-07-25T07:28:35Z</time>
      </trkpt>
      <trkpt lat="42.8060020" lon="0.5227460">
        <ele>1092.6</ele>
        <time>2020-07-25T07:28:36Z</time>
      </trkpt>
      <trkpt lat="42.8060030" lon="0.5227140">
        <ele>1092.8</ele>
        <time>2020-07-25T07:28:37Z</time>
      </trkpt>
      <trkpt lat="42.8060000" lon="0.5226830">
        <ele>1093.0</ele>
        <time>2020-07-25T07:28:38Z</time>
      </trkpt>
      <trkpt lat="42.8059950" lon="0.5226200">
        <ele>1093.4</ele>
        <time>2020-07-25T07:28:40Z</time>
      </trkpt>
      <trkpt lat="42.8059810" lon="0.5224860">
        <ele>1094.6</ele>
        <time>2020-07-25T07:28:44Z</time>
      </trkpt>
      <trkpt lat="42.8059710" lon="0.5224070">
        <ele>1095.0</ele>
        <time>2020-07-25T07:28:46Z</time>
      </trkpt>
      <trkpt lat="42.8059600" lon="0.5222650">
        <ele>1095.6</ele>
        <time>2020-07-25T07:28:50Z</time>
      </trkpt>
      <trkpt lat="42.8059470" lon="0.5221240">
        <ele>1096.8</ele>
        <time>2020-07-25T07:28:54Z</time>
      </trkpt>
      <trkpt lat="42.8059460" lon="0.5219980">
        <ele>1098.0</ele>
        <time>2020-07-25T07:28:58Z</time>
      </trkpt>
      <trkpt lat="42.8059610" lon="0.5218890">
        <ele>1098.8</ele>
        <time>2020-07-25T07:29:02Z</time>
      </trkpt>
      <trkpt lat="42.8059740" lon="0.5218300">
        <ele>1099.2</ele>
        <time>2020-07-25T07:29:04Z</time>
      </trkpt>
      <trkpt lat="42.8060000" lon="0.5217080">
        <ele>1100.2</ele>
        <time>2020-07-25T07:29:08Z</time>
      </trkpt>
      <trkpt lat="42.8060280" lon="0.5216330">
        <ele>1101.2</ele>
        <time>2020-07-25T07:29:11Z</time>
      </trkpt>
      <trkpt lat="42.8060420" lon="0.5216090">
        <ele>1101.4</ele>
        <time>2020-07-25T07:29:12Z</time>
      </trkpt>
      <trkpt lat="42.8060950" lon="0.5214980">
        <ele>1102.6</ele>
        <time>2020-07-25T07:29:16Z</time>
      </trkpt>
      <trkpt lat="42.8061210" lon="0.5214460">
        <ele>1103.2</ele>
        <time>2020-07-25T07:29:18Z</time>
      </trkpt>
      <trkpt lat="42.8061690" lon="0.5213270">
        <ele>1104.0</ele>
        <time>2020-07-25T07:29:22Z</time>
      </trkpt>
      <trkpt lat="42.8061990" lon="0.5212250">
        <ele>1105.2</ele>
        <time>2020-07-25T07:29:25Z</time>
      </trkpt>
      <trkpt lat="42.8062180" lon="0.5211580">
        <ele>1105.8</ele>
        <time>2020-07-25T07:29:27Z</time>
      </trkpt>
      <trkpt lat="42.8062510" lon="0.5210700">
        <ele>1106.2</ele>
        <time>2020-07-25T07:29:30Z</time>
      </trkpt>
      <trkpt lat="42.8062930" lon="0.5209600">
        <ele>1107.4</ele>
        <time>2020-07-25T07:29:34Z</time>
      </trkpt>
      <trkpt lat="42.8063030" lon="0.5209320">
        <ele>1107.8</ele>
        <time>2020-07-25T07:29:35Z</time>
      </trkpt>
      <trkpt lat="42.8063440" lon="0.5208200">
        <ele>1108.6</ele>
        <time>2020-07-25T07:29:39Z</time>
      </trkpt>
      <trkpt lat="42.8063790" lon="0.5207040">
        <ele>1109.6</ele>
        <time>2020-07-25T07:29:43Z</time>
      </trkpt>
      <trkpt lat="42.8063820" lon="0.5206760">
        <ele>1109.8</ele>
        <time>2020-07-25T07:29:44Z</time>
      </trkpt>
      <trkpt lat="42.8063940" lon="0.5205860">
        <ele>1110.4</ele>
        <time>2020-07-25T07:29:47Z</time>
      </trkpt>
      <trkpt lat="42.8064010" lon="0.5205250">
        <ele>1111.2</ele>
        <time>2020-07-25T07:29:49Z</time>
      </trkpt>
      <trkpt lat="42.8064130" lon="0.5204670">
        <ele>1111.6</ele>
        <time>2020-07-25T07:29:51Z</time>
      </trkpt>
      <trkpt lat="42.8064190" lon="0.5204360">
        <ele>1111.8</ele>
        <time>2020-07-25T07:29:52Z</time>
      </trkpt>
      <trkpt lat="42.8064400" lon="0.5203470">
        <ele>1112.2</ele>
        <time>2020-07-25T07:29:55Z</time>
      </trkpt>
      <trkpt lat="42.8064760" lon="0.5202410">
        <ele>1113.4</ele>
        <time>2020-07-25T07:29:59Z</time>
      </trkpt>
      <trkpt lat="42.8065180" lon="0.5201320">
        <ele>1114.4</ele>
        <time>2020-07-25T07:30:03Z</time>
      </trkpt>
      <trkpt lat="42.8065620" lon="0.5200260">
        <ele>1115.4</ele>
        <time>2020-07-25T07:30:07Z</time>
      </trkpt>
      <trkpt lat="42.8065730" lon="0.5199990">
        <ele>1115.6</ele>
        <time>2020-07-25T07:30:08Z</time>
      </trkpt>
      <trkpt lat="42.8066060" lon="0.5199190">
        <ele>1116.6</ele>
        <time>2020-07-25T07:30:11Z</time>
      </trkpt>
      <trkpt lat="42.8066690" lon="0.5198350">
        <ele>1117.4</ele>
        <time>2020-07-25T07:30:15Z</time>
      </trkpt>
      <trkpt lat="42.8067050" lon="0.5197970">
        <ele>1118.0</ele>
        <time>2020-07-25T07:30:17Z</time>
      </trkpt>
      <trkpt lat="42.8067890" lon="0.5197320">
        <ele>1119.2</ele>
        <time>2020-07-25T07:30:21Z</time>
      </trkpt>
      <trkpt lat="42.8068320" lon="0.5197080">
        <ele>1119.8</ele>
        <time>2020-07-25T07:30:23Z</time>
      </trkpt>
      <trkpt lat="42.8069090" lon="0.5196890">
        <ele>1120.4</ele>
        <time>2020-07-25T07:30:26Z</time>
      </trkpt>
      <trkpt lat="42.8069790" lon="0.5196610">
        <ele>1121.0</ele>
        <time>2020-07-25T07:30:29Z</time>
      </trkpt>
      <trkpt lat="42.8070220" lon="0.5196420">
        <ele>1121.6</ele>
        <time>2020-07-25T07:30:31Z</time>
      </trkpt>
      <trkpt lat="42.8070660" lon="0.5196210">
        <ele>1122.2</ele>
        <time>2020-07-25T07:30:33Z</time>
      </trkpt>
      <trkpt lat="42.8071190" lon="0.5196160">
        <ele>1122.6</ele>
        <time>2020-07-25T07:30:35Z</time>
      </trkpt>
      <trkpt lat="42.8071970" lon="0.5196050">
        <ele>1123.6</ele>
        <time>2020-07-25T07:30:38Z</time>
      </trkpt>
      <trkpt lat="42.8072220" lon="0.5196030">
        <ele>1123.8</ele>
        <time>2020-07-25T07:30:39Z</time>
      </trkpt>
      <trkpt lat="42.8073240" lon="0.5195970">
        <ele>1124.6</ele>
        <time>2020-07-25T07:30:43Z</time>
      </trkpt>
      <trkpt lat="42.8074200" lon="0.5195950">
        <ele>1125.8</ele>
        <time>2020-07-25T07:30:47Z</time>
      </trkpt>
      <trkpt lat="42.8074410" lon="0.5195940">
        <ele>1126.2</ele>
        <time>2020-07-25T07:30:48Z</time>
      </trkpt>
      <trkpt lat="42.8075070" lon="0.5195900">
        <ele>1127.2</ele>
        <time>2020-07-25T07:30:51Z</time>
      </trkpt>
      <trkpt lat="42.8076350" lon="0.5195760">
        <ele>1128.4</ele>
        <time>2020-07-25T07:30:57Z</time>
      </trkpt>
      <trkpt lat="42.8077530" lon="0.5195830">
        <ele>1129.4</ele>
        <time>2020-07-25T07:31:02Z</time>
      </trkpt>
      <trkpt lat="42.8077790" lon="0.5195810">
        <ele>1129.8</ele>
        <time>2020-07-25T07:31:03Z</time>
      </trkpt>
      <trkpt lat="42.8078760" lon="0.5195850">
        <ele>1130.6</ele>
        <time>2020-07-25T07:31:07Z</time>
      </trkpt>
      <trkpt lat="42.8079700" lon="0.5195620">
        <ele>1132.0</ele>
        <time>2020-07-25T07:31:11Z</time>
      </trkpt>
      <trkpt lat="42.8081010" lon="0.5195440">
        <ele>1133.0</ele>
        <time>2020-07-25T07:31:16Z</time>
      </trkpt>
      <trkpt lat="42.8081520" lon="0.5195230">
        <ele>1133.4</ele>
        <time>2020-07-25T07:31:18Z</time>
      </trkpt>
      <trkpt lat="42.8082560" lon="0.5194730">
        <ele>1134.2</ele>
        <time>2020-07-25T07:31:22Z</time>
      </trkpt>
      <trkpt lat="42.8083650" lon="0.5193850">
        <ele>1135.2</ele>
        <time>2020-07-25T07:31:27Z</time>
      </trkpt>
      <trkpt lat="42.8083850" lon="0.5193650">
        <ele>1135.6</ele>
        <time>2020-07-25T07:31:28Z</time>
      </trkpt>
      <trkpt lat="42.8084580" lon="0.5192390">
        <ele>1136.8</ele>
        <time>2020-07-25T07:31:33Z</time>
      </trkpt>
      <trkpt lat="42.8084900" lon="0.5191920">
        <ele>1137.2</ele>
        <time>2020-07-25T07:31:35Z</time>
      </trkpt>
      <trkpt lat="42.8085470" lon="0.5191030">
        <ele>1138.0</ele>
        <time>2020-07-25T07:31:39Z</time>
      </trkpt>
      <trkpt lat="42.8086100" lon="0.5190080">
        <ele>1138.6</ele>
        <time>2020-07-25T07:31:43Z</time>
      </trkpt>
      <trkpt lat="42.8086440" lon="0.5189520">
        <ele>1139.4</ele>
        <time>2020-07-25T07:31:45Z</time>
      </trkpt>
      <trkpt lat="42.8086900" lon="0.5188490">
        <ele>1140.4</ele>
        <time>2020-07-25T07:31:48Z</time>
      </trkpt>
      <trkpt lat="42.8087220" lon="0.5187290">
        <ele>1141.0</ele>
        <time>2020-07-25T07:31:51Z</time>
      </trkpt>
      <trkpt lat="42.8087580" lon="0.5184960">
        <ele>1141.6</ele>
        <time>2020-07-25T07:31:56Z</time>
      </trkpt>
      <trkpt lat="42.8087620" lon="0.5184460">
        <ele>1141.6</ele>
        <time>2020-07-25T07:31:57Z</time>
      </trkpt>
      <trkpt lat="42.8087660" lon="0.5183930">
        <ele>1141.8</ele>
        <time>2020-07-25T07:31:58Z</time>
      </trkpt>
      <trkpt lat="42.8087910" lon="0.5180450">
        <ele>1142.0</ele>
        <time>2020-07-25T07:32:04Z</time>
      </trkpt>
      <trkpt lat="42.8087970" lon="0.5179860">
        <ele>1142.0</ele>
        <time>2020-07-25T07:32:05Z</time>
      </trkpt>
      <trkpt lat="42.8088120" lon="0.5178700">
        <ele>1142.4</ele>
        <time>2020-07-25T07:32:07Z</time>
      </trkpt>
      <trkpt lat="42.8088160" lon="0.5178090">
        <ele>1142.6</ele>
        <time>2020-07-25T07:32:08Z</time>
      </trkpt>
      <trkpt lat="42.8088230" lon="0.5176910">
        <ele>1143.0</ele>
        <time>2020-07-25T07:32:10Z</time>
      </trkpt>
      <trkpt lat="42.8088210" lon="0.5174070">
        <ele>1143.6</ele>
        <time>2020-07-25T07:32:15Z</time>
      </trkpt>
      <trkpt lat="42.8088170" lon="0.5173520">
        <ele>1143.6</ele>
        <time>2020-07-25T07:32:16Z</time>
      </trkpt>
      <trkpt lat="42.8087990" lon="0.5170310">
        <ele>1144.6</ele>
        <time>2020-07-25T07:32:22Z</time>
      </trkpt>
      <trkpt lat="42.8087990" lon="0.5169760">
        <ele>1144.8</ele>
        <time>2020-07-25T07:32:23Z</time>
      </trkpt>
      <trkpt lat="42.8087670" lon="0.5167150">
        <ele>1145.8</ele>
        <time>2020-07-25T07:32:28Z</time>
      </trkpt>
      <trkpt lat="42.8087660" lon="0.5166660">
        <ele>1146.0</ele>
        <time>2020-07-25T07:32:29Z</time>
      </trkpt>
      <trkpt lat="42.8087490" lon="0.5164710">
        <ele>1146.6</ele>
        <time>2020-07-25T07:32:33Z</time>
      </trkpt>
      <trkpt lat="42.8087460" lon="0.5164240">
        <ele>1146.8</ele>
        <time>2020-07-25T07:32:34Z</time>
      </trkpt>
      <trkpt lat="42.8087360" lon="0.5162850">
        <ele>1147.4</ele>
        <time>2020-07-25T07:32:37Z</time>
      </trkpt>
      <trkpt lat="42.8087260" lon="0.5161400">
        <ele>1148.0</ele>
        <time>2020-07-25T07:32:40Z</time>
      </trkpt>
      <trkpt lat="42.8087020" lon="0.5158830">
        <ele>1148.6</ele>
        <time>2020-07-25T07:32:45Z</time>
      </trkpt>
      <trkpt lat="42.8086630" lon="0.5155730">
        <ele>1148.6</ele>
        <time>2020-07-25T07:32:51Z</time>
      </trkpt>
      <trkpt lat="42.8086410" lon="0.5154680">
        <ele>1149.0</ele>
        <time>2020-07-25T07:32:53Z</time>
      </trkpt>
      <trkpt lat="42.8086370" lon="0.5153030">
        <ele>1149.0</ele>
        <time>2020-07-25T07:32:56Z</time>
      </trkpt>
      <trkpt lat="42.8086250" lon="0.5152460">
        <ele>1149.0</ele>
        <time>2020-07-25T07:32:57Z</time>
      </trkpt>
      <trkpt lat="42.8085950" lon="0.5151360">
        <ele>1149.0</ele>
        <time>2020-07-25T07:32:59Z</time>
      </trkpt>
      <trkpt lat="42.8085710" lon="0.5150870">
        <ele>1149.0</ele>
        <time>2020-07-25T07:33:00Z</time>
      </trkpt>
      <trkpt lat="42.8085040" lon="0.5150150">
        <ele>1149.2</ele>
        <time>2020-07-25T07:33:02Z</time>
      </trkpt>
      <trkpt lat="42.8082990" lon="0.5149200">
        <ele>1149.8</ele>
        <time>2020-07-25T07:33:07Z</time>
      </trkpt>
      <trkpt lat="42.8082330" lon="0.5148640">
        <ele>1150.0</ele>
        <time>2020-07-25T07:33:09Z</time>
      </trkpt>
      <trkpt lat="42.8081810" lon="0.5148070">
        <ele>1150.4</ele>
        <time>2020-07-25T07:33:11Z</time>
      </trkpt>
      <trkpt lat="42.8081590" lon="0.5147790">
        <ele>1150.6</ele>
        <time>2020-07-25T07:33:12Z</time>
      </trkpt>
      <trkpt lat="42.8081220" lon="0.5147140">
        <ele>1151.4</ele>
        <time>2020-07-25T07:33:14Z</time>
      </trkpt>
      <trkpt lat="42.8080840" lon="0.5146100">
        <ele>1152.2</ele>
        <time>2020-07-25T07:33:17Z</time>
      </trkpt>
      <trkpt lat="42.8080750" lon="0.5145740">
        <ele>1152.6</ele>
        <time>2020-07-25T07:33:18Z</time>
      </trkpt>
      <trkpt lat="42.8080590" lon="0.5145020">
        <ele>1153.0</ele>
        <time>2020-07-25T07:33:20Z</time>
      </trkpt>
      <trkpt lat="42.8080470" lon="0.5144290">
        <ele>1154.0</ele>
        <time>2020-07-25T07:33:22Z</time>
      </trkpt>
      <trkpt lat="42.8080320" lon="0.5142870">
        <ele>1155.0</ele>
        <time>2020-07-25T07:33:26Z</time>
      </trkpt>
      <trkpt lat="42.8080310" lon="0.5142540">
        <ele>1155.2</ele>
        <time>2020-07-25T07:33:27Z</time>
      </trkpt>
      <trkpt lat="42.8080340" lon="0.5141290">
        <ele>1156.0</ele>
        <time>2020-07-25T07:33:31Z</time>
      </trkpt>
      <trkpt lat="42.8080360" lon="0.5140670">
        <ele>1156.6</ele>
        <time>2020-07-25T07:33:33Z</time>
      </trkpt>
      <trkpt lat="42.8080400" lon="0.5139710">
        <ele>1157.2</ele>
        <time>2020-07-25T07:33:36Z</time>
      </trkpt>
      <trkpt lat="42.8080420" lon="0.5139380">
        <ele>1157.4</ele>
        <time>2020-07-25T07:33:37Z</time>
      </trkpt>
      <trkpt lat="42.8080510" lon="0.5138150">
        <ele>1158.4</ele>
        <time>2020-07-25T07:33:41Z</time>
      </trkpt>
      <trkpt lat="42.8080590" lon="0.5136990">
        <ele>1159.6</ele>
        <time>2020-07-25T07:33:45Z</time>
      </trkpt>
      <trkpt lat="42.8080760" lon="0.5135340">
        <ele>1160.4</ele>
        <time>2020-07-25T07:33:51Z</time>
      </trkpt>
      <trkpt lat="42.8080820" lon="0.5135090">
        <ele>1160.6</ele>
        <time>2020-07-25T07:33:52Z</time>
      </trkpt>
      <trkpt lat="42.8080850" lon="0.5134540">
        <ele>1161.0</ele>
        <time>2020-07-25T07:33:54Z</time>
      </trkpt>
      <trkpt lat="42.8080880" lon="0.5134260">
        <ele>1161.2</ele>
        <time>2020-07-25T07:33:55Z</time>
      </trkpt>
      <trkpt lat="42.8080990" lon="0.5133680">
        <ele>1161.6</ele>
        <time>2020-07-25T07:33:57Z</time>
      </trkpt>
      <trkpt lat="42.8081040" lon="0.5132870">
        <ele>1162.2</ele>
        <time>2020-07-25T07:34:00Z</time>
      </trkpt>
      <trkpt lat="42.8081060" lon="0.5132070">
        <ele>1162.8</ele>
        <time>2020-07-25T07:34:03Z</time>
      </trkpt>
      <trkpt lat="42.8081260" lon="0.5130750">
        <ele>1163.8</ele>
        <time>2020-07-25T07:34:08Z</time>
      </trkpt>
      <trkpt lat="42.8081320" lon="0.5130540">
        <ele>1164.0</ele>
        <time>2020-07-25T07:34:09Z</time>
      </trkpt>
      <trkpt lat="42.8081430" lon="0.5129750">
        <ele>1164.6</ele>
        <time>2020-07-25T07:34:12Z</time>
      </trkpt>
      <trkpt lat="42.8081500" lon="0.5129180">
        <ele>1165.0</ele>
        <time>2020-07-25T07:34:14Z</time>
      </trkpt>
      <trkpt lat="42.8081700" lon="0.5128420">
        <ele>1165.6</ele>
        <time>2020-07-25T07:34:17Z</time>
      </trkpt>
      <trkpt lat="42.8081830" lon="0.5128150">
        <ele>1166.0</ele>
        <time>2020-07-25T07:34:18Z</time>
      </trkpt>
      <trkpt lat="42.8082040" lon="0.5126240">
        <ele>1167.2</ele>
        <time>2020-07-25T07:34:24Z</time>
      </trkpt>
      <trkpt lat="42.8082230" lon="0.5124900">
        <ele>1168.2</ele>
        <time>2020-07-25T07:34:28Z</time>
      </trkpt>
      <trkpt lat="42.8082300" lon="0.5124110">
        <ele>1168.8</ele>
        <time>2020-07-25T07:34:31Z</time>
      </trkpt>
      <trkpt lat="42.8082320" lon="0.5123220">
        <ele>1169.2</ele>
        <time>2020-07-25T07:34:34Z</time>
      </trkpt>
      <trkpt lat="42.8082290" lon="0.5122570">
        <ele>1170.0</ele>
        <time>2020-07-25T07:34:36Z</time>
      </trkpt>
      <trkpt lat="42.8082270" lon="0.5122210">
        <ele>1170.4</ele>
        <time>2020-07-25T07:34:37Z</time>
      </trkpt>
      <trkpt lat="42.8082250" lon="0.5121850">
        <ele>1170.6</ele>
        <time>2020-07-25T07:34:38Z</time>
      </trkpt>
      <trkpt lat="42.8082160" lon="0.5120430">
        <ele>1171.4</ele>
        <time>2020-07-25T07:34:42Z</time>
      </trkpt>
      <trkpt lat="42.8081880" lon="0.5118970">
        <ele>1172.2</ele>
        <time>2020-07-25T07:34:46Z</time>
      </trkpt>
      <trkpt lat="42.8081770" lon="0.5118600">
        <ele>1172.6</ele>
        <time>2020-07-25T07:34:47Z</time>
      </trkpt>
      <trkpt lat="42.8081450" lon="0.5117490">
        <ele>1173.2</ele>
        <time>2020-07-25T07:34:50Z</time>
      </trkpt>
      <trkpt lat="42.8081120" lon="0.5116450">
        <ele>1173.6</ele>
        <time>2020-07-25T07:34:53Z</time>
      </trkpt>
      <trkpt lat="42.8080770" lon="0.5115180">
        <ele>1174.8</ele>
        <time>2020-07-25T07:34:57Z</time>
      </trkpt>
      <trkpt lat="42.8080440" lon="0.5113810">
        <ele>1176.0</ele>
        <time>2020-07-25T07:35:02Z</time>
      </trkpt>
      <trkpt lat="42.8080290" lon="0.5112720">
        <ele>1176.6</ele>
        <time>2020-07-25T07:35:05Z</time>
      </trkpt>
      <trkpt lat="42.8080190" lon="0.5111700">
        <ele>1177.2</ele>
        <time>2020-07-25T07:35:08Z</time>
      </trkpt>
      <trkpt lat="42.8080020" lon="0.5110440">
        <ele>1178.2</ele>
        <time>2020-07-25T07:35:12Z</time>
      </trkpt>
      <trkpt lat="42.8079870" lon="0.5109150">
        <ele>1179.2</ele>
        <time>2020-07-25T07:35:16Z</time>
      </trkpt>
      <trkpt lat="42.8079560" lon="0.5107090">
        <ele>1180.4</ele>
        <time>2020-07-25T07:35:22Z</time>
      </trkpt>
      <trkpt lat="42.8079260" lon="0.5105530">
        <ele>1181.4</ele>
        <time>2020-07-25T07:35:27Z</time>
      </trkpt>
      <trkpt lat="42.8078930" lon="0.5104290">
        <ele>1182.4</ele>
        <time>2020-07-25T07:35:31Z</time>
      </trkpt>
      <trkpt lat="42.8078820" lon="0.5103940">
        <ele>1182.6</ele>
        <time>2020-07-25T07:35:32Z</time>
      </trkpt>
      <trkpt lat="42.8078540" lon="0.5102020">
        <ele>1183.8</ele>
        <time>2020-07-25T07:35:37Z</time>
      </trkpt>
      <trkpt lat="42.8078390" lon="0.5101270">
        <ele>1184.0</ele>
        <time>2020-07-25T07:35:39Z</time>
      </trkpt>
      <trkpt lat="42.8077910" lon="0.5098680">
        <ele>1185.0</ele>
        <time>2020-07-25T07:35:45Z</time>
      </trkpt>
      <trkpt lat="42.8077700" lon="0.5097740">
        <ele>1185.4</ele>
        <time>2020-07-25T07:35:47Z</time>
      </trkpt>
      <trkpt lat="42.8077420" lon="0.5096410">
        <ele>1186.0</ele>
        <time>2020-07-25T07:35:50Z</time>
      </trkpt>
      <trkpt lat="42.8077180" lon="0.5095550">
        <ele>1186.2</ele>
        <time>2020-07-25T07:35:52Z</time>
      </trkpt>
      <trkpt lat="42.8076740" lon="0.5093840">
        <ele>1186.8</ele>
        <time>2020-07-25T07:35:56Z</time>
      </trkpt>
      <trkpt lat="42.8076510" lon="0.5093010">
        <ele>1187.2</ele>
        <time>2020-07-25T07:35:58Z</time>
      </trkpt>
      <trkpt lat="42.8075910" lon="0.5090630">
        <ele>1187.8</ele>
        <time>2020-07-25T07:36:04Z</time>
      </trkpt>
      <trkpt lat="42.8075810" lon="0.5090270">
        <ele>1188.0</ele>
        <time>2020-07-25T07:36:05Z</time>
      </trkpt>
      <trkpt lat="42.8075700" lon="0.5089930">
        <ele>1188.4</ele>
        <time>2020-07-25T07:36:06Z</time>
      </trkpt>
      <trkpt lat="42.8075240" lon="0.5088210">
        <ele>1189.4</ele>
        <time>2020-07-25T07:36:11Z</time>
      </trkpt>
      <trkpt lat="42.8074960" lon="0.5087100">
        <ele>1190.0</ele>
        <time>2020-07-25T07:36:14Z</time>
      </trkpt>
      <trkpt lat="42.8074450" lon="0.5085220">
        <ele>1190.6</ele>
        <time>2020-07-25T07:36:19Z</time>
      </trkpt>
      <trkpt lat="42.8073920" lon="0.5083400">
        <ele>1191.8</ele>
        <time>2020-07-25T07:36:24Z</time>
      </trkpt>
      <trkpt lat="42.8073720" lon="0.5082720">
        <ele>1192.4</ele>
        <time>2020-07-25T07:36:26Z</time>
      </trkpt>
      <trkpt lat="42.8073500" lon="0.5082030">
        <ele>1192.8</ele>
        <time>2020-07-25T07:36:28Z</time>
      </trkpt>
      <trkpt lat="42.8073020" lon="0.5080270">
        <ele>1193.8</ele>
        <time>2020-07-25T07:36:33Z</time>
      </trkpt>
      <trkpt lat="42.8072920" lon="0.5079880">
        <ele>1194.0</ele>
        <time>2020-07-25T07:36:34Z</time>
      </trkpt>
      <trkpt lat="42.8072550" lon="0.5078350">
        <ele>1195.0</ele>
        <time>2020-07-25T07:36:38Z</time>
      </trkpt>
      <trkpt lat="42.8072350" lon="0.5077250">
        <ele>1195.8</ele>
        <time>2020-07-25T07:36:41Z</time>
      </trkpt>
      <trkpt lat="42.8072220" lon="0.5076600">
        <ele>1196.0</ele>
        <time>2020-07-25T07:36:43Z</time>
      </trkpt>
      <trkpt lat="42.8072170" lon="0.5076250">
        <ele>1196.2</ele>
        <time>2020-07-25T07:36:44Z</time>
      </trkpt>
      <trkpt lat="42.8072000" lon="0.5075190">
        <ele>1197.0</ele>
        <time>2020-07-25T07:36:47Z</time>
      </trkpt>
      <trkpt lat="42.8071950" lon="0.5074820">
        <ele>1197.4</ele>
        <time>2020-07-25T07:36:48Z</time>
      </trkpt>
      <trkpt lat="42.8071780" lon="0.5073760">
        <ele>1198.2</ele>
        <time>2020-07-25T07:36:51Z</time>
      </trkpt>
      <trkpt lat="42.8071500" lon="0.5072090">
        <ele>1199.6</ele>
        <time>2020-07-25T07:36:56Z</time>
      </trkpt>
      <trkpt lat="42.8071390" lon="0.5071400">
        <ele>1200.0</ele>
        <time>2020-07-25T07:36:58Z</time>
      </trkpt>
      <trkpt lat="42.8071220" lon="0.5070460">
        <ele>1200.6</ele>
        <time>2020-07-25T07:37:01Z</time>
      </trkpt>
      <trkpt lat="42.8071060" lon="0.5069160">
        <ele>1201.8</ele>
        <time>2020-07-25T07:37:05Z</time>
      </trkpt>
      <trkpt lat="42.8070970" lon="0.5068410">
        <ele>1202.0</ele>
        <time>2020-07-25T07:37:07Z</time>
      </trkpt>
      <trkpt lat="42.8070770" lon="0.5066720">
        <ele>1202.8</ele>
        <time>2020-07-25T07:37:12Z</time>
      </trkpt>
      <trkpt lat="42.8070680" lon="0.5066030">
        <ele>1203.2</ele>
        <time>2020-07-25T07:37:14Z</time>
      </trkpt>
      <trkpt lat="42.8070610" lon="0.5064980">
        <ele>1203.8</ele>
        <time>2020-07-25T07:37:17Z</time>
      </trkpt>
      <trkpt lat="42.8070570" lon="0.5064650">
        <ele>1204.0</ele>
        <time>2020-07-25T07:37:18Z</time>
      </trkpt>
      <trkpt lat="42.8070470" lon="0.5063590">
        <ele>1204.6</ele>
        <time>2020-07-25T07:37:21Z</time>
      </trkpt>
      <trkpt lat="42.8070390" lon="0.5062530">
        <ele>1205.0</ele>
        <time>2020-07-25T07:37:24Z</time>
      </trkpt>
      <trkpt lat="42.8070100" lon="0.5060790">
        <ele>1206.2</ele>
        <time>2020-07-25T07:37:29Z</time>
      </trkpt>
      <trkpt lat="42.8070020" lon="0.5060450">
        <ele>1206.4</ele>
        <time>2020-07-25T07:37:30Z</time>
      </trkpt>
      <trkpt lat="42.8069850" lon="0.5059390">
        <ele>1207.2</ele>
        <time>2020-07-25T07:37:33Z</time>
      </trkpt>
      <trkpt lat="42.8069570" lon="0.5057330">
        <ele>1208.2</ele>
        <time>2020-07-25T07:37:39Z</time>
      </trkpt>
      <trkpt lat="42.8069520" lon="0.5057020">
        <ele>1208.4</ele>
        <time>2020-07-25T07:37:40Z</time>
      </trkpt>
      <trkpt lat="42.8069300" lon="0.5055420">
        <ele>1209.8</ele>
        <time>2020-07-25T07:37:45Z</time>
      </trkpt>
      <trkpt lat="42.8069190" lon="0.5054770">
        <ele>1210.4</ele>
        <time>2020-07-25T07:37:47Z</time>
      </trkpt>
      <trkpt lat="42.8069040" lon="0.5053770">
        <ele>1211.0</ele>
        <time>2020-07-25T07:37:50Z</time>
      </trkpt>
      <trkpt lat="42.8068980" lon="0.5053440">
        <ele>1211.4</ele>
        <time>2020-07-25T07:37:51Z</time>
      </trkpt>
      <trkpt lat="42.8068790" lon="0.5052160">
        <ele>1212.0</ele>
        <time>2020-07-25T07:37:55Z</time>
      </trkpt>
      <trkpt lat="42.8068740" lon="0.5051840">
        <ele>1212.2</ele>
        <time>2020-07-25T07:37:56Z</time>
      </trkpt>
      <trkpt lat="42.8068670" lon="0.5051530">
        <ele>1212.4</ele>
        <time>2020-07-25T07:37:57Z</time>
      </trkpt>
      <trkpt lat="42.8068260" lon="0.5050320">
        <ele>1213.2</ele>
        <time>2020-07-25T07:38:01Z</time>
      </trkpt>
      <trkpt lat="42.8068020" lon="0.5049730">
        <ele>1213.8</ele>
        <time>2020-07-25T07:38:03Z</time>
      </trkpt>
      <trkpt lat="42.8067810" lon="0.5049110">
        <ele>1214.4</ele>
        <time>2020-07-25T07:38:05Z</time>
      </trkpt>
      <trkpt lat="42.8067450" lon="0.5047160">
        <ele>1215.4</ele>
        <time>2020-07-25T07:38:11Z</time>
      </trkpt>
      <trkpt lat="42.8067420" lon="0.5046850">
        <ele>1215.8</ele>
        <time>2020-07-25T07:38:12Z</time>
      </trkpt>
      <trkpt lat="42.8067420" lon="0.5046210">
        <ele>1216.4</ele>
        <time>2020-07-25T07:38:14Z</time>
      </trkpt>
      <trkpt lat="42.8067450" lon="0.5044500">
        <ele>1217.6</ele>
        <time>2020-07-25T07:38:19Z</time>
      </trkpt>
      <trkpt lat="42.8067440" lon="0.5043440">
        <ele>1218.2</ele>
        <time>2020-07-25T07:38:22Z</time>
      </trkpt>
      <trkpt lat="42.8067450" lon="0.5043100">
        <ele>1218.6</ele>
        <time>2020-07-25T07:38:23Z</time>
      </trkpt>
      <trkpt lat="42.8067460" lon="0.5042760">
        <ele>1218.8</ele>
        <time>2020-07-25T07:38:24Z</time>
      </trkpt>
      <trkpt lat="42.8067270" lon="0.5041090">
        <ele>1220.0</ele>
        <time>2020-07-25T07:38:29Z</time>
      </trkpt>
      <trkpt lat="42.8067190" lon="0.5040440">
        <ele>1220.6</ele>
        <time>2020-07-25T07:38:31Z</time>
      </trkpt>
      <trkpt lat="42.8067030" lon="0.5039370">
        <ele>1221.2</ele>
        <time>2020-07-25T07:38:34Z</time>
      </trkpt>
      <trkpt lat="42.8066520" lon="0.5037630">
        <ele>1222.6</ele>
        <time>2020-07-25T07:38:39Z</time>
      </trkpt>
      <trkpt lat="42.8066380" lon="0.5037310">
        <ele>1222.6</ele>
        <time>2020-07-25T07:38:40Z</time>
      </trkpt>
      <trkpt lat="42.8065720" lon="0.5036080">
        <ele>1223.6</ele>
        <time>2020-07-25T07:38:44Z</time>
      </trkpt>
      <trkpt lat="42.8065060" lon="0.5034920">
        <ele>1224.4</ele>
        <time>2020-07-25T07:38:48Z</time>
      </trkpt>
      <trkpt lat="42.8064870" lon="0.5034640">
        <ele>1224.4</ele>
        <time>2020-07-25T07:38:49Z</time>
      </trkpt>
      <trkpt lat="42.8064670" lon="0.5034390">
        <ele>1224.6</ele>
        <time>2020-07-25T07:38:50Z</time>
      </trkpt>
      <trkpt lat="42.8063560" lon="0.5032900">
        <ele>1225.4</ele>
        <time>2020-07-25T07:38:56Z</time>
      </trkpt>
      <trkpt lat="42.8063360" lon="0.5032680">
        <ele>1225.4</ele>
        <time>2020-07-25T07:38:57Z</time>
      </trkpt>
      <trkpt lat="42.8062960" lon="0.5032230">
        <ele>1225.8</ele>
        <time>2020-07-25T07:38:59Z</time>
      </trkpt>
      <trkpt lat="42.8062120" lon="0.5031490">
        <ele>1227.0</ele>
        <time>2020-07-25T07:39:03Z</time>
      </trkpt>
      <trkpt lat="42.8061750" lon="0.5031070">
        <ele>1227.8</ele>
        <time>2020-07-25T07:39:05Z</time>
      </trkpt>
      <trkpt lat="42.8061550" lon="0.5030860">
        <ele>1228.0</ele>
        <time>2020-07-25T07:39:06Z</time>
      </trkpt>
      <trkpt lat="42.8060260" lon="0.5029830">
        <ele>1229.2</ele>
        <time>2020-07-25T07:39:12Z</time>
      </trkpt>
      <trkpt lat="42.8060020" lon="0.5029690">
        <ele>1229.4</ele>
        <time>2020-07-25T07:39:13Z</time>
      </trkpt>
      <trkpt lat="42.8059360" lon="0.5029160">
        <ele>1230.2</ele>
        <time>2020-07-25T07:39:16Z</time>
      </trkpt>
      <trkpt lat="42.8058320" lon="0.5028290">
        <ele>1231.2</ele>
        <time>2020-07-25T07:39:21Z</time>
      </trkpt>
      <trkpt lat="42.8058100" lon="0.5028120">
        <ele>1231.4</ele>
        <time>2020-07-25T07:39:22Z</time>
      </trkpt>
      <trkpt lat="42.8057650" lon="0.5027710">
        <ele>1232.0</ele>
        <time>2020-07-25T07:39:24Z</time>
      </trkpt>
      <trkpt lat="42.8057050" lon="0.5027060">
        <ele>1232.4</ele>
        <time>2020-07-25T07:39:27Z</time>
      </trkpt>
      <trkpt lat="42.8056640" lon="0.5026650">
        <ele>1233.0</ele>
        <time>2020-07-25T07:39:29Z</time>
      </trkpt>
      <trkpt lat="42.8056270" lon="0.5026210">
        <ele>1233.4</ele>
        <time>2020-07-25T07:39:31Z</time>
      </trkpt>
      <trkpt lat="42.8055720" lon="0.5025540">
        <ele>1234.4</ele>
        <time>2020-07-25T07:39:34Z</time>
      </trkpt>
      <trkpt lat="42.8055550" lon="0.5025300">
        <ele>1234.6</ele>
        <time>2020-07-25T07:39:35Z</time>
      </trkpt>
      <trkpt lat="42.8055160" lon="0.5024530">
        <ele>1235.2</ele>
        <time>2020-07-25T07:39:38Z</time>
      </trkpt>
      <trkpt lat="42.8054950" lon="0.5023970">
        <ele>1235.8</ele>
        <time>2020-07-25T07:39:40Z</time>
      </trkpt>
      <trkpt lat="42.8054690" lon="0.5022580">
        <ele>1236.8</ele>
        <time>2020-07-25T07:39:45Z</time>
      </trkpt>
      <trkpt lat="42.8054650" lon="0.5022300">
        <ele>1237.0</ele>
        <time>2020-07-25T07:39:46Z</time>
      </trkpt>
      <trkpt lat="42.8054690" lon="0.5021060">
        <ele>1237.6</ele>
        <time>2020-07-25T07:39:50Z</time>
      </trkpt>
      <trkpt lat="42.8054750" lon="0.5020780">
        <ele>1238.0</ele>
        <time>2020-07-25T07:39:51Z</time>
      </trkpt>
      <trkpt lat="42.8054800" lon="0.5020180">
        <ele>1238.6</ele>
        <time>2020-07-25T07:39:53Z</time>
      </trkpt>
      <trkpt lat="42.8054820" lon="0.5019590">
        <ele>1239.2</ele>
        <time>2020-07-25T07:39:55Z</time>
      </trkpt>
      <trkpt lat="42.8055140" lon="0.5017710">
        <ele>1240.2</ele>
        <time>2020-07-25T07:40:00Z</time>
      </trkpt>
      <trkpt lat="42.8055360" lon="0.5016910">
        <ele>1240.6</ele>
        <time>2020-07-25T07:40:02Z</time>
      </trkpt>
      <trkpt lat="42.8056010" lon="0.5015190">
        <ele>1241.2</ele>
        <time>2020-07-25T07:40:07Z</time>
      </trkpt>
      <trkpt lat="42.8056960" lon="0.5013330">
        <ele>1242.6</ele>
        <time>2020-07-25T07:40:13Z</time>
      </trkpt>
      <trkpt lat="42.8057400" lon="0.5012220">
        <ele>1243.4</ele>
        <time>2020-07-25T07:40:16Z</time>
      </trkpt>
      <trkpt lat="42.8057530" lon="0.5011870">
        <ele>1243.8</ele>
        <time>2020-07-25T07:40:17Z</time>
      </trkpt>
      <trkpt lat="42.8058120" lon="0.5010510">
        <ele>1244.8</ele>
        <time>2020-07-25T07:40:21Z</time>
      </trkpt>
      <trkpt lat="42.8058640" lon="0.5009400">
        <ele>1245.8</ele>
        <time>2020-07-25T07:40:25Z</time>
      </trkpt>
      <trkpt lat="42.8058770" lon="0.5009090">
        <ele>1246.2</ele>
        <time>2020-07-25T07:40:26Z</time>
      </trkpt>
      <trkpt lat="42.8059430" lon="0.5007620">
        <ele>1247.4</ele>
        <time>2020-07-25T07:40:31Z</time>
      </trkpt>
      <trkpt lat="42.8059680" lon="0.5006980">
        <ele>1248.0</ele>
        <time>2020-07-25T07:40:33Z</time>
      </trkpt>
      <trkpt lat="42.8060030" lon="0.5006050">
        <ele>1248.6</ele>
        <time>2020-07-25T07:40:36Z</time>
      </trkpt>
      <trkpt lat="42.8060650" lon="0.5004590">
        <ele>1249.6</ele>
        <time>2020-07-25T07:40:41Z</time>
      </trkpt>
      <trkpt lat="42.8060790" lon="0.5004280">
        <ele>1250.0</ele>
        <time>2020-07-25T07:40:42Z</time>
      </trkpt>
      <trkpt lat="42.8061130" lon="0.5003350">
        <ele>1250.8</ele>
        <time>2020-07-25T07:40:45Z</time>
      </trkpt>
      <trkpt lat="42.8061650" lon="0.5002260">
        <ele>1251.6</ele>
        <time>2020-07-25T07:40:49Z</time>
      </trkpt>
      <trkpt lat="42.8061870" lon="0.5001670">
        <ele>1252.0</ele>
        <time>2020-07-25T07:40:51Z</time>
      </trkpt>
      <trkpt lat="42.8062380" lon="0.5000470">
        <ele>1253.0</ele>
        <time>2020-07-25T07:40:55Z</time>
      </trkpt>
      <trkpt lat="42.8062630" lon="0.4999840">
        <ele>1253.2</ele>
        <time>2020-07-25T07:40:57Z</time>
      </trkpt>
      <trkpt lat="42.8063130" lon="0.4998730">
        <ele>1254.0</ele>
        <time>2020-07-25T07:41:01Z</time>
      </trkpt>
      <trkpt lat="42.8063530" lon="0.4997740">
        <ele>1254.6</ele>
        <time>2020-07-25T07:41:04Z</time>
      </trkpt>
      <trkpt lat="42.8063660" lon="0.4997370">
        <ele>1255.0</ele>
        <time>2020-07-25T07:41:05Z</time>
      </trkpt>
      <trkpt lat="42.8063790" lon="0.4997050">
        <ele>1255.2</ele>
        <time>2020-07-25T07:41:06Z</time>
      </trkpt>
      <trkpt lat="42.8064450" lon="0.4995430">
        <ele>1256.4</ele>
        <time>2020-07-25T07:41:11Z</time>
      </trkpt>
      <trkpt lat="42.8064970" lon="0.4994240">
        <ele>1257.4</ele>
        <time>2020-07-25T07:41:15Z</time>
      </trkpt>
      <trkpt lat="42.8065100" lon="0.4993980">
        <ele>1257.6</ele>
        <time>2020-07-25T07:41:16Z</time>
      </trkpt>
      <trkpt lat="42.8065680" lon="0.4992430">
        <ele>1258.4</ele>
        <time>2020-07-25T07:41:21Z</time>
      </trkpt>
      <trkpt lat="42.8065770" lon="0.4992060">
        <ele>1258.6</ele>
        <time>2020-07-25T07:41:22Z</time>
      </trkpt>
      <trkpt lat="42.8065990" lon="0.4990990">
        <ele>1259.0</ele>
        <time>2020-07-25T07:41:25Z</time>
      </trkpt>
      <trkpt lat="42.8066070" lon="0.4989840">
        <ele>1259.6</ele>
        <time>2020-07-25T07:41:28Z</time>
      </trkpt>
      <trkpt lat="42.8066080" lon="0.4989010">
        <ele>1259.8</ele>
        <time>2020-07-25T07:41:30Z</time>
      </trkpt>
      <trkpt lat="42.8066120" lon="0.4987490">
        <ele>1260.6</ele>
        <time>2020-07-25T07:41:34Z</time>
      </trkpt>
      <trkpt lat="42.8066180" lon="0.4986050">
        <ele>1261.2</ele>
        <time>2020-07-25T07:41:38Z</time>
      </trkpt>
      <trkpt lat="42.8066220" lon="0.4985290">
        <ele>1261.4</ele>
        <time>2020-07-25T07:41:40Z</time>
      </trkpt>
      <trkpt lat="42.8066250" lon="0.4984900">
        <ele>1261.6</ele>
        <time>2020-07-25T07:41:41Z</time>
      </trkpt>
      <trkpt lat="42.8066350" lon="0.4982890">
        <ele>1263.0</ele>
        <time>2020-07-25T07:41:46Z</time>
      </trkpt>
      <trkpt lat="42.8066420" lon="0.4980790">
        <ele>1264.0</ele>
        <time>2020-07-25T07:41:51Z</time>
      </trkpt>
      <trkpt lat="42.8066220" lon="0.4978710">
        <ele>1265.2</ele>
        <time>2020-07-25T07:41:56Z</time>
      </trkpt>
      <trkpt lat="42.8065830" lon="0.4977240">
        <ele>1266.4</ele>
        <time>2020-07-25T07:42:00Z</time>
      </trkpt>
      <trkpt lat="42.8065200" lon="0.4975610">
        <ele>1267.4</ele>
        <time>2020-07-25T07:42:05Z</time>
      </trkpt>
      <trkpt lat="42.8065070" lon="0.4975270">
        <ele>1267.6</ele>
        <time>2020-07-25T07:42:06Z</time>
      </trkpt>
      <trkpt lat="42.8064350" lon="0.4973510">
        <ele>1268.6</ele>
        <time>2020-07-25T07:42:11Z</time>
      </trkpt>
      <trkpt lat="42.8063730" lon="0.4972140">
        <ele>1269.2</ele>
        <time>2020-07-25T07:42:15Z</time>
      </trkpt>
      <trkpt lat="42.8063400" lon="0.4971510">
        <ele>1269.8</ele>
        <time>2020-07-25T07:42:17Z</time>
      </trkpt>
      <trkpt lat="42.8062890" lon="0.4970220">
        <ele>1271.0</ele>
        <time>2020-07-25T07:42:21Z</time>
      </trkpt>
      <trkpt lat="42.8062610" lon="0.4969150">
        <ele>1271.6</ele>
        <time>2020-07-25T07:42:24Z</time>
      </trkpt>
      <trkpt lat="42.8062590" lon="0.4968320">
        <ele>1272.2</ele>
        <time>2020-07-25T07:42:26Z</time>
      </trkpt>
      <trkpt lat="42.8062680" lon="0.4966870">
        <ele>1273.2</ele>
        <time>2020-07-25T07:42:30Z</time>
      </trkpt>
      <trkpt lat="42.8062820" lon="0.4965530">
        <ele>1274.2</ele>
        <time>2020-07-25T07:42:34Z</time>
      </trkpt>
      <trkpt lat="42.8062910" lon="0.4964190">
        <ele>1275.2</ele>
        <time>2020-07-25T07:42:38Z</time>
      </trkpt>
      <trkpt lat="42.8062940" lon="0.4963860">
        <ele>1275.4</ele>
        <time>2020-07-25T07:42:39Z</time>
      </trkpt>
      <trkpt lat="42.8063060" lon="0.4962530">
        <ele>1276.4</ele>
        <time>2020-07-25T07:42:43Z</time>
      </trkpt>
      <trkpt lat="42.8063250" lon="0.4961640">
        <ele>1277.0</ele>
        <time>2020-07-25T07:42:46Z</time>
      </trkpt>
      <trkpt lat="42.8063450" lon="0.4960560">
        <ele>1277.6</ele>
        <time>2020-07-25T07:42:49Z</time>
      </trkpt>
      <trkpt lat="42.8063520" lon="0.4959480">
        <ele>1278.2</ele>
        <time>2020-07-25T07:42:52Z</time>
      </trkpt>
      <trkpt lat="42.8063540" lon="0.4958800">
        <ele>1278.6</ele>
        <time>2020-07-25T07:42:54Z</time>
      </trkpt>
      <trkpt lat="42.8063570" lon="0.4957110">
        <ele>1279.6</ele>
        <time>2020-07-25T07:42:59Z</time>
      </trkpt>
      <trkpt lat="42.8063590" lon="0.4956410">
        <ele>1280.0</ele>
        <time>2020-07-25T07:43:01Z</time>
      </trkpt>
      <trkpt lat="42.8063670" lon="0.4955680">
        <ele>1280.6</ele>
        <time>2020-07-25T07:43:03Z</time>
      </trkpt>
      <trkpt lat="42.8063930" lon="0.4953910">
        <ele>1281.8</ele>
        <time>2020-07-25T07:43:08Z</time>
      </trkpt>
      <trkpt lat="42.8063990" lon="0.4953210">
        <ele>1282.0</ele>
        <time>2020-07-25T07:43:10Z</time>
      </trkpt>
      <trkpt lat="42.8064140" lon="0.4951890">
        <ele>1282.8</ele>
        <time>2020-07-25T07:43:14Z</time>
      </trkpt>
      <trkpt lat="42.8064250" lon="0.4950560">
        <ele>1284.0</ele>
        <time>2020-07-25T07:43:18Z</time>
      </trkpt>
      <trkpt lat="42.8064430" lon="0.4949300">
        <ele>1285.0</ele>
        <time>2020-07-25T07:43:22Z</time>
      </trkpt>
      <trkpt lat="42.8064480" lon="0.4949010">
        <ele>1285.2</ele>
        <time>2020-07-25T07:43:23Z</time>
      </trkpt>
      <trkpt lat="42.8064640" lon="0.4948160">
        <ele>1286.2</ele>
        <time>2020-07-25T07:43:26Z</time>
      </trkpt>
      <trkpt lat="42.8064720" lon="0.4947880">
        <ele>1286.4</ele>
        <time>2020-07-25T07:43:27Z</time>
      </trkpt>
      <trkpt lat="42.8064790" lon="0.4947560">
        <ele>1286.6</ele>
        <time>2020-07-25T07:43:28Z</time>
      </trkpt>
      <trkpt lat="42.8065010" lon="0.4946600">
        <ele>1287.2</ele>
        <time>2020-07-25T07:43:31Z</time>
      </trkpt>
      <trkpt lat="42.8065240" lon="0.4945300">
        <ele>1287.8</ele>
        <time>2020-07-25T07:43:35Z</time>
      </trkpt>
      <trkpt lat="42.8065360" lon="0.4944650">
        <ele>1288.4</ele>
        <time>2020-07-25T07:43:37Z</time>
      </trkpt>
      <trkpt lat="42.8065640" lon="0.4943490">
        <ele>1289.4</ele>
        <time>2020-07-25T07:43:41Z</time>
      </trkpt>
      <trkpt lat="42.8065730" lon="0.4942890">
        <ele>1289.6</ele>
        <time>2020-07-25T07:43:43Z</time>
      </trkpt>
      <trkpt lat="42.8065950" lon="0.4942080">
        <ele>1290.6</ele>
        <time>2020-07-25T07:43:46Z</time>
      </trkpt>
      <trkpt lat="42.8066180" lon="0.4940790">
        <ele>1291.6</ele>
        <time>2020-07-25T07:43:50Z</time>
      </trkpt>
      <trkpt lat="42.8066240" lon="0.4940450">
        <ele>1291.8</ele>
        <time>2020-07-25T07:43:51Z</time>
      </trkpt>
      <trkpt lat="42.8066380" lon="0.4939060">
        <ele>1292.8</ele>
        <time>2020-07-25T07:43:55Z</time>
      </trkpt>
      <trkpt lat="42.8066500" lon="0.4938060">
        <ele>1293.6</ele>
        <time>2020-07-25T07:43:58Z</time>
      </trkpt>
      <trkpt lat="42.8066630" lon="0.4937400">
        <ele>1294.0</ele>
        <time>2020-07-25T07:44:00Z</time>
      </trkpt>
      <trkpt lat="42.8066890" lon="0.4935860">
        <ele>1295.0</ele>
        <time>2020-07-25T07:44:05Z</time>
      </trkpt>
      <trkpt lat="42.8066960" lon="0.4935550">
        <ele>1295.4</ele>
        <time>2020-07-25T07:44:06Z</time>
      </trkpt>
      <trkpt lat="42.8067050" lon="0.4934870">
        <ele>1296.2</ele>
        <time>2020-07-25T07:44:08Z</time>
      </trkpt>
      <trkpt lat="42.8067130" lon="0.4934560">
        <ele>1296.4</ele>
        <time>2020-07-25T07:44:09Z</time>
      </trkpt>
      <trkpt lat="42.8067260" lon="0.4933350">
        <ele>1297.2</ele>
        <time>2020-07-25T07:44:13Z</time>
      </trkpt>
      <trkpt lat="42.8067430" lon="0.4932600">
        <ele>1298.0</ele>
        <time>2020-07-25T07:44:16Z</time>
      </trkpt>
      <trkpt lat="42.8067520" lon="0.4932080">
        <ele>1298.2</ele>
        <time>2020-07-25T07:44:18Z</time>
      </trkpt>
      <trkpt lat="42.8067620" lon="0.4931370">
        <ele>1299.0</ele>
        <time>2020-07-25T07:44:21Z</time>
      </trkpt>
      <trkpt lat="42.8067720" lon="0.4930830">
        <ele>1299.4</ele>
        <time>2020-07-25T07:44:23Z</time>
      </trkpt>
      <trkpt lat="42.8067840" lon="0.4929850">
        <ele>1299.8</ele>
        <time>2020-07-25T07:44:27Z</time>
      </trkpt>
      <trkpt lat="42.8067870" lon="0.4929630">
        <ele>1299.8</ele>
        <time>2020-07-25T07:44:28Z</time>
      </trkpt>
      <trkpt lat="42.8067940" lon="0.4928840">
        <ele>1300.6</ele>
        <time>2020-07-25T07:44:31Z</time>
      </trkpt>
      <trkpt lat="42.8068170" lon="0.4927840">
        <ele>1302.0</ele>
        <time>2020-07-25T07:44:34Z</time>
      </trkpt>
      <trkpt lat="42.8068270" lon="0.4927170">
        <ele>1302.4</ele>
        <time>2020-07-25T07:44:36Z</time>
      </trkpt>
      <trkpt lat="42.8068520" lon="0.4926290">
        <ele>1303.0</ele>
        <time>2020-07-25T07:44:39Z</time>
      </trkpt>
      <trkpt lat="42.8068650" lon="0.4925690">
        <ele>1303.6</ele>
        <time>2020-07-25T07:44:41Z</time>
      </trkpt>
      <trkpt lat="42.8068770" lon="0.4925080">
        <ele>1304.0</ele>
        <time>2020-07-25T07:44:43Z</time>
      </trkpt>
      <trkpt lat="42.8068840" lon="0.4924480">
        <ele>1304.4</ele>
        <time>2020-07-25T07:44:45Z</time>
      </trkpt>
      <trkpt lat="42.8068930" lon="0.4923870">
        <ele>1305.2</ele>
        <time>2020-07-25T07:44:47Z</time>
      </trkpt>
      <trkpt lat="42.8069070" lon="0.4922580">
        <ele>1306.2</ele>
        <time>2020-07-25T07:44:51Z</time>
      </trkpt>
      <trkpt lat="42.8069100" lon="0.4921870">
        <ele>1306.8</ele>
        <time>2020-07-25T07:44:53Z</time>
      </trkpt>
      <trkpt lat="42.8069150" lon="0.4921220">
        <ele>1307.0</ele>
        <time>2020-07-25T07:44:55Z</time>
      </trkpt>
      <trkpt lat="42.8069230" lon="0.4920610">
        <ele>1307.4</ele>
        <time>2020-07-25T07:44:57Z</time>
      </trkpt>
      <trkpt lat="42.8069470" lon="0.4919350">
        <ele>1308.4</ele>
        <time>2020-07-25T07:45:01Z</time>
      </trkpt>
      <trkpt lat="42.8069610" lon="0.4918350">
        <ele>1308.8</ele>
        <time>2020-07-25T07:45:04Z</time>
      </trkpt>
      <trkpt lat="42.8069720" lon="0.4917360">
        <ele>1309.8</ele>
        <time>2020-07-25T07:45:07Z</time>
      </trkpt>
      <trkpt lat="42.8069990" lon="0.4915440">
        <ele>1310.8</ele>
        <time>2020-07-25T07:45:13Z</time>
      </trkpt>
      <trkpt lat="42.8070230" lon="0.4913850">
        <ele>1311.8</ele>
        <time>2020-07-25T07:45:18Z</time>
      </trkpt>
      <trkpt lat="42.8070430" lon="0.4912580">
        <ele>1312.6</ele>
        <time>2020-07-25T07:45:22Z</time>
      </trkpt>
      <trkpt lat="42.8070480" lon="0.4912270">
        <ele>1313.0</ele>
        <time>2020-07-25T07:45:23Z</time>
      </trkpt>
      <trkpt lat="42.8070650" lon="0.4910990">
        <ele>1313.4</ele>
        <time>2020-07-25T07:45:27Z</time>
      </trkpt>
      <trkpt lat="42.8070730" lon="0.4910370">
        <ele>1313.8</ele>
        <time>2020-07-25T07:45:29Z</time>
      </trkpt>
      <trkpt lat="42.8070780" lon="0.4910050">
        <ele>1314.0</ele>
        <time>2020-07-25T07:45:30Z</time>
      </trkpt>
      <trkpt lat="42.8070840" lon="0.4909730">
        <ele>1314.2</ele>
        <time>2020-07-25T07:45:31Z</time>
      </trkpt>
      <trkpt lat="42.8071040" lon="0.4908450">
        <ele>1315.0</ele>
        <time>2020-07-25T07:45:35Z</time>
      </trkpt>
      <trkpt lat="42.8071230" lon="0.4907610">
        <ele>1315.6</ele>
        <time>2020-07-25T07:45:38Z</time>
      </trkpt>
      <trkpt lat="42.8071290" lon="0.4906670">
        <ele>1316.0</ele>
        <time>2020-07-25T07:45:41Z</time>
      </trkpt>
      <trkpt lat="42.8071360" lon="0.4906360">
        <ele>1316.2</ele>
        <time>2020-07-25T07:45:42Z</time>
      </trkpt>
      <trkpt lat="42.8071630" lon="0.4905090">
        <ele>1317.4</ele>
        <time>2020-07-25T07:45:46Z</time>
      </trkpt>
      <trkpt lat="42.8071960" lon="0.4903890">
        <ele>1318.0</ele>
        <time>2020-07-25T07:45:50Z</time>
      </trkpt>
      <trkpt lat="42.8072210" lon="0.4903090">
        <ele>1318.6</ele>
        <time>2020-07-25T07:45:53Z</time>
      </trkpt>
      <trkpt lat="42.8072640" lon="0.4901520">
        <ele>1319.8</ele>
        <time>2020-07-25T07:45:58Z</time>
      </trkpt>
      <trkpt lat="42.8072730" lon="0.4901200">
        <ele>1320.0</ele>
        <time>2020-07-25T07:45:59Z</time>
      </trkpt>
      <trkpt lat="42.8073030" lon="0.4900290">
        <ele>1320.8</ele>
        <time>2020-07-25T07:46:02Z</time>
      </trkpt>
      <trkpt lat="42.8073330" lon="0.4899290">
        <ele>1321.6</ele>
        <time>2020-07-25T07:46:06Z</time>
      </trkpt>
      <trkpt lat="42.8073450" lon="0.4898730">
        <ele>1321.8</ele>
        <time>2020-07-25T07:46:08Z</time>
      </trkpt>
      <trkpt lat="42.8073740" lon="0.4897310">
        <ele>1322.8</ele>
        <time>2020-07-25T07:46:13Z</time>
      </trkpt>
      <trkpt lat="42.8073900" lon="0.4896200">
        <ele>1323.8</ele>
        <time>2020-07-25T07:46:16Z</time>
      </trkpt>
      <trkpt lat="42.8074190" lon="0.4894270">
        <ele>1324.8</ele>
        <time>2020-07-25T07:46:21Z</time>
      </trkpt>
      <trkpt lat="42.8074220" lon="0.4893860">
        <ele>1325.0</ele>
        <time>2020-07-25T07:46:22Z</time>
      </trkpt>
      <trkpt lat="42.8074490" lon="0.4891380">
        <ele>1326.0</ele>
        <time>2020-07-25T07:46:28Z</time>
      </trkpt>
      <trkpt lat="42.8074540" lon="0.4890970">
        <ele>1326.4</ele>
        <time>2020-07-25T07:46:29Z</time>
      </trkpt>
      <trkpt lat="42.8074720" lon="0.4889750">
        <ele>1327.0</ele>
        <time>2020-07-25T07:46:32Z</time>
      </trkpt>
      <trkpt lat="42.8074990" lon="0.4888250">
        <ele>1328.2</ele>
        <time>2020-07-25T07:46:36Z</time>
      </trkpt>
      <trkpt lat="42.8075040" lon="0.4887860">
        <ele>1328.4</ele>
        <time>2020-07-25T07:46:37Z</time>
      </trkpt>
      <trkpt lat="42.8075090" lon="0.4887480">
        <ele>1328.6</ele>
        <time>2020-07-25T07:46:38Z</time>
      </trkpt>
      <trkpt lat="42.8075170" lon="0.4887120">
        <ele>1328.8</ele>
        <time>2020-07-25T07:46:39Z</time>
      </trkpt>
      <trkpt lat="42.8075260" lon="0.4886760">
        <ele>1328.8</ele>
        <time>2020-07-25T07:46:40Z</time>
      </trkpt>
      <trkpt lat="42.8075350" lon="0.4886410">
        <ele>1329.0</ele>
        <time>2020-07-25T07:46:41Z</time>
      </trkpt>
      <trkpt lat="42.8075430" lon="0.4886060">
        <ele>1329.2</ele>
        <time>2020-07-25T07:46:42Z</time>
      </trkpt>
      <trkpt lat="42.8075600" lon="0.4884960">
        <ele>1329.8</ele>
        <time>2020-07-25T07:46:45Z</time>
      </trkpt>
      <trkpt lat="42.8075740" lon="0.4884190">
        <ele>1330.4</ele>
        <time>2020-07-25T07:46:47Z</time>
      </trkpt>
      <trkpt lat="42.8075930" lon="0.4882560">
        <ele>1331.4</ele>
        <time>2020-07-25T07:46:51Z</time>
      </trkpt>
      <trkpt lat="42.8076030" lon="0.4881310">
        <ele>1332.2</ele>
        <time>2020-07-25T07:46:54Z</time>
      </trkpt>
      <trkpt lat="42.8076050" lon="0.4880890">
        <ele>1332.4</ele>
        <time>2020-07-25T07:46:55Z</time>
      </trkpt>
      <trkpt lat="42.8076090" lon="0.4878540">
        <ele>1333.6</ele>
        <time>2020-07-25T07:47:01Z</time>
      </trkpt>
      <trkpt lat="42.8076160" lon="0.4876240">
        <ele>1334.8</ele>
        <time>2020-07-25T07:47:07Z</time>
      </trkpt>
      <trkpt lat="42.8076170" lon="0.4875860">
        <ele>1335.0</ele>
        <time>2020-07-25T07:47:08Z</time>
      </trkpt>
      <trkpt lat="42.8076160" lon="0.4874780">
        <ele>1335.8</ele>
        <time>2020-07-25T07:47:11Z</time>
      </trkpt>
      <trkpt lat="42.8076150" lon="0.4873200">
        <ele>1337.0</ele>
        <time>2020-07-25T07:47:16Z</time>
      </trkpt>
      <trkpt lat="42.8076090" lon="0.4871390">
        <ele>1338.0</ele>
        <time>2020-07-25T07:47:22Z</time>
      </trkpt>
      <trkpt lat="42.8076080" lon="0.4870790">
        <ele>1338.4</ele>
        <time>2020-07-25T07:47:24Z</time>
      </trkpt>
      <trkpt lat="42.8076050" lon="0.4869400">
        <ele>1339.0</ele>
        <time>2020-07-25T07:47:29Z</time>
      </trkpt>
      <trkpt lat="42.8075980" lon="0.4868730">
        <ele>1339.8</ele>
        <time>2020-07-25T07:47:32Z</time>
      </trkpt>
      <trkpt lat="42.8075930" lon="0.4868330">
        <ele>1340.2</ele>
        <time>2020-07-25T07:47:34Z</time>
      </trkpt>
      <trkpt lat="42.8075970" lon="0.4867260">
        <ele>1340.8</ele>
        <time>2020-07-25T07:47:38Z</time>
      </trkpt>
      <trkpt lat="42.8075990" lon="0.4866960">
        <ele>1341.0</ele>
        <time>2020-07-25T07:47:39Z</time>
      </trkpt>
      <trkpt lat="42.8076000" lon="0.4866650">
        <ele>1341.2</ele>
        <time>2020-07-25T07:47:40Z</time>
      </trkpt>
      <trkpt lat="42.8076000" lon="0.4866350">
        <ele>1341.4</ele>
        <time>2020-07-25T07:47:41Z</time>
      </trkpt>
      <trkpt lat="42.8076000" lon="0.4866050">
        <ele>1341.4</ele>
        <time>2020-07-25T07:47:42Z</time>
      </trkpt>
      <trkpt lat="42.8075950" lon="0.4864900">
        <ele>1342.0</ele>
        <time>2020-07-25T07:47:46Z</time>
      </trkpt>
      <trkpt lat="42.8075910" lon="0.4864370">
        <ele>1342.4</ele>
        <time>2020-07-25T07:47:48Z</time>
      </trkpt>
      <trkpt lat="42.8075930" lon="0.4862650">
        <ele>1343.2</ele>
        <time>2020-07-25T07:47:54Z</time>
      </trkpt>
      <trkpt lat="42.8075950" lon="0.4862090">
        <ele>1343.4</ele>
        <time>2020-07-25T07:47:56Z</time>
      </trkpt>
      <trkpt lat="42.8075880" lon="0.4860350">
        <ele>1344.6</ele>
        <time>2020-07-25T07:48:02Z</time>
      </trkpt>
      <trkpt lat="42.8076080" lon="0.4858810">
        <ele>1345.8</ele>
        <time>2020-07-25T07:48:07Z</time>
      </trkpt>
      <trkpt lat="42.8076120" lon="0.4858470">
        <ele>1345.8</ele>
        <time>2020-07-25T07:48:08Z</time>
      </trkpt>
      <trkpt lat="42.8076180" lon="0.4857440">
        <ele>1346.6</ele>
        <time>2020-07-25T07:48:11Z</time>
      </trkpt>
      <trkpt lat="42.8076200" lon="0.4857090">
        <ele>1346.8</ele>
        <time>2020-07-25T07:48:12Z</time>
      </trkpt>
      <trkpt lat="42.8076320" lon="0.4855370">
        <ele>1347.8</ele>
        <time>2020-07-25T07:48:17Z</time>
      </trkpt>
      <trkpt lat="42.8076340" lon="0.4855030">
        <ele>1348.0</ele>
        <time>2020-07-25T07:48:18Z</time>
      </trkpt>
      <trkpt lat="42.8076390" lon="0.4853080">
        <ele>1348.8</ele>
        <time>2020-07-25T07:48:24Z</time>
      </trkpt>
      <trkpt lat="42.8076440" lon="0.4851760">
        <ele>1350.0</ele>
        <time>2020-07-25T07:48:28Z</time>
      </trkpt>
      <trkpt lat="42.8076480" lon="0.4850310">
        <ele>1350.8</ele>
        <time>2020-07-25T07:48:32Z</time>
      </trkpt>
      <trkpt lat="42.8076460" lon="0.4849580">
        <ele>1351.0</ele>
        <time>2020-07-25T07:48:34Z</time>
      </trkpt>
      <trkpt lat="42.8076430" lon="0.4848850">
        <ele>1351.4</ele>
        <time>2020-07-25T07:48:36Z</time>
      </trkpt>
      <trkpt lat="42.8076440" lon="0.4848480">
        <ele>1351.8</ele>
        <time>2020-07-25T07:48:37Z</time>
      </trkpt>
      <trkpt lat="42.8076410" lon="0.4847730">
        <ele>1352.2</ele>
        <time>2020-07-25T07:48:39Z</time>
      </trkpt>
      <trkpt lat="42.8076410" lon="0.4846140">
        <ele>1353.2</ele>
        <time>2020-07-25T07:48:43Z</time>
      </trkpt>
      <trkpt lat="42.8076410" lon="0.4845730">
        <ele>1353.4</ele>
        <time>2020-07-25T07:48:44Z</time>
      </trkpt>
      <trkpt lat="42.8076390" lon="0.4845330">
        <ele>1353.6</ele>
        <time>2020-07-25T07:48:45Z</time>
      </trkpt>
      <trkpt lat="42.8076300" lon="0.4844200">
        <ele>1354.2</ele>
        <time>2020-07-25T07:48:48Z</time>
      </trkpt>
      <trkpt lat="42.8076160" lon="0.4842790">
        <ele>1355.4</ele>
        <time>2020-07-25T07:48:52Z</time>
      </trkpt>
      <trkpt lat="42.8075900" lon="0.4840550">
        <ele>1356.4</ele>
        <time>2020-07-25T07:48:58Z</time>
      </trkpt>
      <trkpt lat="42.8075760" lon="0.4839800">
        <ele>1356.8</ele>
        <time>2020-07-25T07:49:00Z</time>
      </trkpt>
      <trkpt lat="42.8075380" lon="0.4837910">
        <ele>1357.6</ele>
        <time>2020-07-25T07:49:05Z</time>
      </trkpt>
      <trkpt lat="42.8075050" lon="0.4836510">
        <ele>1358.4</ele>
        <time>2020-07-25T07:49:09Z</time>
      </trkpt>
      <trkpt lat="42.8074970" lon="0.4836200">
        <ele>1358.8</ele>
        <time>2020-07-25T07:49:10Z</time>
      </trkpt>
      <trkpt lat="42.8074420" lon="0.4834680">
        <ele>1359.8</ele>
        <time>2020-07-25T07:49:15Z</time>
      </trkpt>
      <trkpt lat="42.8074160" lon="0.4833780">
        <ele>1360.4</ele>
        <time>2020-07-25T07:49:18Z</time>
      </trkpt>
      <trkpt lat="42.8073960" lon="0.4833210">
        <ele>1361.0</ele>
        <time>2020-07-25T07:49:20Z</time>
      </trkpt>
      <trkpt lat="42.8073220" lon="0.4831540">
        <ele>1362.0</ele>
        <time>2020-07-25T07:49:26Z</time>
      </trkpt>
      <trkpt lat="42.8073090" lon="0.4831310">
        <ele>1362.2</ele>
        <time>2020-07-25T07:49:27Z</time>
      </trkpt>
      <trkpt lat="42.8072510" lon="0.4830410">
        <ele>1363.0</ele>
        <time>2020-07-25T07:49:31Z</time>
      </trkpt>
      <trkpt lat="42.8072390" lon="0.4830150">
        <ele>1363.4</ele>
        <time>2020-07-25T07:49:32Z</time>
      </trkpt>
      <trkpt lat="42.8071500" lon="0.4828640">
        <ele>1364.4</ele>
        <time>2020-07-25T07:49:38Z</time>
      </trkpt>
      <trkpt lat="42.8071030" lon="0.4827770">
        <ele>1364.8</ele>
        <time>2020-07-25T07:49:41Z</time>
      </trkpt>
      <trkpt lat="42.8070360" lon="0.4826740">
        <ele>1365.6</ele>
        <time>2020-07-25T07:49:45Z</time>
      </trkpt>
      <trkpt lat="42.8069830" lon="0.4825640">
        <ele>1366.0</ele>
        <time>2020-07-25T07:49:49Z</time>
      </trkpt>
      <trkpt lat="42.8069360" lon="0.4824910">
        <ele>1366.6</ele>
        <time>2020-07-25T07:49:52Z</time>
      </trkpt>
      <trkpt lat="42.8068320" lon="0.4823510">
        <ele>1367.8</ele>
        <time>2020-07-25T07:49:58Z</time>
      </trkpt>
      <trkpt lat="42.8067610" lon="0.4822520">
        <ele>1368.8</ele>
        <time>2020-07-25T07:50:02Z</time>
      </trkpt>
      <trkpt lat="42.8067430" lon="0.4822280">
        <ele>1369.0</ele>
        <time>2020-07-25T07:50:03Z</time>
      </trkpt>
      <trkpt lat="42.8067270" lon="0.4822060">
        <ele>1369.2</ele>
        <time>2020-07-25T07:50:04Z</time>
      </trkpt>
      <trkpt lat="42.8066910" lon="0.4821640">
        <ele>1369.6</ele>
        <time>2020-07-25T07:50:06Z</time>
      </trkpt>
      <trkpt lat="42.8066390" lon="0.4820930">
        <ele>1370.2</ele>
        <time>2020-07-25T07:50:09Z</time>
      </trkpt>
      <trkpt lat="42.8065670" lon="0.4819980">
        <ele>1371.0</ele>
        <time>2020-07-25T07:50:13Z</time>
      </trkpt>
      <trkpt lat="42.8065120" lon="0.4819280">
        <ele>1371.4</ele>
        <time>2020-07-25T07:50:16Z</time>
      </trkpt>
      <trkpt lat="42.8064310" lon="0.4818270">
        <ele>1372.4</ele>
        <time>2020-07-25T07:50:20Z</time>
      </trkpt>
      <trkpt lat="42.8064120" lon="0.4818030">
        <ele>1372.4</ele>
        <time>2020-07-25T07:50:21Z</time>
      </trkpt>
      <trkpt lat="42.8063140" lon="0.4816930">
        <ele>1373.2</ele>
        <time>2020-07-25T07:50:26Z</time>
      </trkpt>
      <trkpt lat="42.8062970" lon="0.4816700">
        <ele>1373.6</ele>
        <time>2020-07-25T07:50:27Z</time>
      </trkpt>
      <trkpt lat="42.8062810" lon="0.4816470">
        <ele>1373.8</ele>
        <time>2020-07-25T07:50:28Z</time>
      </trkpt>
      <trkpt lat="42.8062630" lon="0.4816230">
        <ele>1374.0</ele>
        <time>2020-07-25T07:50:29Z</time>
      </trkpt>
      <trkpt lat="42.8062240" lon="0.4815680">
        <ele>1374.2</ele>
        <time>2020-07-25T07:50:31Z</time>
      </trkpt>
      <trkpt lat="42.8061820" lon="0.4815080">
        <ele>1374.6</ele>
        <time>2020-07-25T07:50:33Z</time>
      </trkpt>
      <trkpt lat="42.8061400" lon="0.4814460">
        <ele>1375.0</ele>
        <time>2020-07-25T07:50:35Z</time>
      </trkpt>
      <trkpt lat="42.8061180" lon="0.4814150">
        <ele>1375.2</ele>
        <time>2020-07-25T07:50:36Z</time>
      </trkpt>
      <trkpt lat="42.8060770" lon="0.4813550">
        <ele>1375.6</ele>
        <time>2020-07-25T07:50:38Z</time>
      </trkpt>
      <trkpt lat="42.8059770" lon="0.4812130">
        <ele>1376.8</ele>
        <time>2020-07-25T07:50:43Z</time>
      </trkpt>
      <trkpt lat="42.8059580" lon="0.4811850">
        <ele>1377.2</ele>
        <time>2020-07-25T07:50:44Z</time>
      </trkpt>
      <trkpt lat="42.8058820" lon="0.4810770">
        <ele>1378.0</ele>
        <time>2020-07-25T07:50:48Z</time>
      </trkpt>
      <trkpt lat="42.8058240" lon="0.4809910">
        <ele>1378.6</ele>
        <time>2020-07-25T07:50:51Z</time>
      </trkpt>
      <trkpt lat="42.8057650" lon="0.4809080">
        <ele>1379.4</ele>
        <time>2020-07-25T07:50:54Z</time>
      </trkpt>
      <trkpt lat="42.8056880" lon="0.4807910">
        <ele>1380.4</ele>
        <time>2020-07-25T07:50:58Z</time>
      </trkpt>
      <trkpt lat="42.8056700" lon="0.4807610">
        <ele>1380.6</ele>
        <time>2020-07-25T07:50:59Z</time>
      </trkpt>
      <trkpt lat="42.8056230" lon="0.4806760">
        <ele>1381.6</ele>
        <time>2020-07-25T07:51:02Z</time>
      </trkpt>
      <trkpt lat="42.8055550" lon="0.4805820">
        <ele>1382.6</ele>
        <time>2020-07-25T07:51:06Z</time>
      </trkpt>
      <trkpt lat="42.8055220" lon="0.4805350">
        <ele>1383.0</ele>
        <time>2020-07-25T07:51:08Z</time>
      </trkpt>
      <trkpt lat="42.8054520" lon="0.4804370">
        <ele>1383.6</ele>
        <time>2020-07-25T07:51:12Z</time>
      </trkpt>
      <trkpt lat="42.8053950" lon="0.4803750">
        <ele>1384.2</ele>
        <time>2020-07-25T07:51:15Z</time>
      </trkpt>
      <trkpt lat="42.8053610" lon="0.4803330">
        <ele>1384.8</ele>
        <time>2020-07-25T07:51:17Z</time>
      </trkpt>
      <trkpt lat="42.8053430" lon="0.4803130">
        <ele>1385.0</ele>
        <time>2020-07-25T07:51:18Z</time>
      </trkpt>
      <trkpt lat="42.8052620" lon="0.4801890">
        <ele>1385.8</ele>
        <time>2020-07-25T07:51:23Z</time>
      </trkpt>
      <trkpt lat="42.8052220" lon="0.4801100">
        <ele>1386.6</ele>
        <time>2020-07-25T07:51:26Z</time>
      </trkpt>
      <trkpt lat="42.8052010" lon="0.4800510">
        <ele>1387.0</ele>
        <time>2020-07-25T07:51:28Z</time>
      </trkpt>
      <trkpt lat="42.8051600" lon="0.4798990">
        <ele>1388.0</ele>
        <time>2020-07-25T07:51:33Z</time>
      </trkpt>
      <trkpt lat="42.8051520" lon="0.4798700">
        <ele>1388.2</ele>
        <time>2020-07-25T07:51:34Z</time>
      </trkpt>
      <trkpt lat="42.8051420" lon="0.4798400">
        <ele>1388.4</ele>
        <time>2020-07-25T07:51:35Z</time>
      </trkpt>
      <trkpt lat="42.8051340" lon="0.4798090">
        <ele>1388.4</ele>
        <time>2020-07-25T07:51:36Z</time>
      </trkpt>
      <trkpt lat="42.8051280" lon="0.4797790">
        <ele>1388.6</ele>
        <time>2020-07-25T07:51:37Z</time>
      </trkpt>
      <trkpt lat="42.8051170" lon="0.4797140">
        <ele>1389.0</ele>
        <time>2020-07-25T07:51:39Z</time>
      </trkpt>
      <trkpt lat="42.8051140" lon="0.4796760">
        <ele>1389.2</ele>
        <time>2020-07-25T07:51:40Z</time>
      </trkpt>
      <trkpt lat="42.8051080" lon="0.4796410">
        <ele>1389.4</ele>
        <time>2020-07-25T07:51:41Z</time>
      </trkpt>
      <trkpt lat="42.8050740" lon="0.4795100">
        <ele>1390.6</ele>
        <time>2020-07-25T07:51:45Z</time>
      </trkpt>
      <trkpt lat="42.8050540" lon="0.4794470">
        <ele>1391.0</ele>
        <time>2020-07-25T07:51:47Z</time>
      </trkpt>
      <trkpt lat="42.8050230" lon="0.4793590">
        <ele>1391.8</ele>
        <time>2020-07-25T07:51:50Z</time>
      </trkpt>
      <trkpt lat="42.8049780" lon="0.4792240">
        <ele>1392.4</ele>
        <time>2020-07-25T07:51:54Z</time>
      </trkpt>
      <trkpt lat="42.8049550" lon="0.4791540">
        <ele>1393.0</ele>
        <time>2020-07-25T07:51:56Z</time>
      </trkpt>
      <trkpt lat="42.8049310" lon="0.4790850">
        <ele>1393.2</ele>
        <time>2020-07-25T07:51:58Z</time>
      </trkpt>
      <trkpt lat="42.8048820" lon="0.4789210">
        <ele>1393.8</ele>
        <time>2020-07-25T07:52:03Z</time>
      </trkpt>
      <trkpt lat="42.8048710" lon="0.4788880">
        <ele>1394.0</ele>
        <time>2020-07-25T07:52:04Z</time>
      </trkpt>
      <trkpt lat="42.8048310" lon="0.4787600">
        <ele>1394.8</ele>
        <time>2020-07-25T07:52:08Z</time>
      </trkpt>
      <trkpt lat="42.8048150" lon="0.4786940">
        <ele>1395.2</ele>
        <time>2020-07-25T07:52:10Z</time>
      </trkpt>
      <trkpt lat="42.8048010" lon="0.4786250">
        <ele>1395.6</ele>
        <time>2020-07-25T07:52:12Z</time>
      </trkpt>
      <trkpt lat="42.8047960" lon="0.4785910">
        <ele>1395.8</ele>
        <time>2020-07-25T07:52:13Z</time>
      </trkpt>
      <trkpt lat="42.8047790" lon="0.4785010">
        <ele>1396.4</ele>
        <time>2020-07-25T07:52:16Z</time>
      </trkpt>
      <trkpt lat="42.8047550" lon="0.4784000">
        <ele>1397.2</ele>
        <time>2020-07-25T07:52:19Z</time>
      </trkpt>
      <trkpt lat="42.8047470" lon="0.4783660">
        <ele>1397.6</ele>
        <time>2020-07-25T07:52:20Z</time>
      </trkpt>
      <trkpt lat="42.8047050" lon="0.4781970">
        <ele>1398.6</ele>
        <time>2020-07-25T07:52:25Z</time>
      </trkpt>
      <trkpt lat="42.8046930" lon="0.4781310">
        <ele>1399.0</ele>
        <time>2020-07-25T07:52:27Z</time>
      </trkpt>
      <trkpt lat="42.8046890" lon="0.4780990">
        <ele>1399.4</ele>
        <time>2020-07-25T07:52:28Z</time>
      </trkpt>
      <trkpt lat="42.8046760" lon="0.4780050">
        <ele>1399.8</ele>
        <time>2020-07-25T07:52:31Z</time>
      </trkpt>
      <trkpt lat="42.8046420" lon="0.4778450">
        <ele>1401.0</ele>
        <time>2020-07-25T07:52:36Z</time>
      </trkpt>
      <trkpt lat="42.8046340" lon="0.4778110">
        <ele>1401.4</ele>
        <time>2020-07-25T07:52:37Z</time>
      </trkpt>
      <trkpt lat="42.8046110" lon="0.4777070">
        <ele>1402.0</ele>
        <time>2020-07-25T07:52:40Z</time>
      </trkpt>
      <trkpt lat="42.8046000" lon="0.4776750">
        <ele>1402.2</ele>
        <time>2020-07-25T07:52:41Z</time>
      </trkpt>
      <trkpt lat="42.8045470" lon="0.4775120">
        <ele>1403.2</ele>
        <time>2020-07-25T07:52:46Z</time>
      </trkpt>
      <trkpt lat="42.8045360" lon="0.4774820">
        <ele>1403.4</ele>
        <time>2020-07-25T07:52:47Z</time>
      </trkpt>
      <trkpt lat="42.8044780" lon="0.4773290">
        <ele>1404.2</ele>
        <time>2020-07-25T07:52:52Z</time>
      </trkpt>
      <trkpt lat="42.8044660" lon="0.4772980">
        <ele>1404.6</ele>
        <time>2020-07-25T07:52:53Z</time>
      </trkpt>
      <trkpt lat="42.8044290" lon="0.4772070">
        <ele>1405.2</ele>
        <time>2020-07-25T07:52:56Z</time>
      </trkpt>
      <trkpt lat="42.8044050" lon="0.4771440">
        <ele>1405.6</ele>
        <time>2020-07-25T07:52:58Z</time>
      </trkpt>
      <trkpt lat="42.8043370" lon="0.4769690">
        <ele>1406.8</ele>
        <time>2020-07-25T07:53:04Z</time>
      </trkpt>
      <trkpt lat="42.8043150" lon="0.4769140">
        <ele>1407.2</ele>
        <time>2020-07-25T07:53:06Z</time>
      </trkpt>
      <trkpt lat="42.8042810" lon="0.4768280">
        <ele>1408.0</ele>
        <time>2020-07-25T07:53:09Z</time>
      </trkpt>
      <trkpt lat="42.8042390" lon="0.4767110">
        <ele>1408.8</ele>
        <time>2020-07-25T07:53:13Z</time>
      </trkpt>
      <trkpt lat="42.8042290" lon="0.4766820">
        <ele>1409.0</ele>
        <time>2020-07-25T07:53:14Z</time>
      </trkpt>
      <trkpt lat="42.8042080" lon="0.4766230">
        <ele>1409.6</ele>
        <time>2020-07-25T07:53:16Z</time>
      </trkpt>
      <trkpt lat="42.8041790" lon="0.4765400">
        <ele>1410.4</ele>
        <time>2020-07-25T07:53:19Z</time>
      </trkpt>
      <trkpt lat="42.8041280" lon="0.4764070">
        <ele>1411.2</ele>
        <time>2020-07-25T07:53:24Z</time>
      </trkpt>
      <trkpt lat="42.8041180" lon="0.4763800">
        <ele>1411.6</ele>
        <time>2020-07-25T07:53:25Z</time>
      </trkpt>
      <trkpt lat="42.8041090" lon="0.4763540">
        <ele>1411.8</ele>
        <time>2020-07-25T07:53:26Z</time>
      </trkpt>
      <trkpt lat="42.8040730" lon="0.4762950">
        <ele>1412.6</ele>
        <time>2020-07-25T07:53:29Z</time>
      </trkpt>
      <trkpt lat="42.8040520" lon="0.4762520">
        <ele>1413.0</ele>
        <time>2020-07-25T07:53:31Z</time>
      </trkpt>
      <trkpt lat="42.8040330" lon="0.4762080">
        <ele>1413.4</ele>
        <time>2020-07-25T07:53:33Z</time>
      </trkpt>
      <trkpt lat="42.8040250" lon="0.4761830">
        <ele>1413.6</ele>
        <time>2020-07-25T07:53:34Z</time>
      </trkpt>
      <trkpt lat="42.8039750" lon="0.4760530">
        <ele>1414.6</ele>
        <time>2020-07-25T07:53:39Z</time>
      </trkpt>
      <trkpt lat="42.8039610" lon="0.4760240">
        <ele>1414.6</ele>
        <time>2020-07-25T07:53:40Z</time>
      </trkpt>
      <trkpt lat="42.8038970" lon="0.4759100">
        <ele>1415.6</ele>
        <time>2020-07-25T07:53:44Z</time>
      </trkpt>
      <trkpt lat="42.8038310" lon="0.4758000">
        <ele>1416.8</ele>
        <time>2020-07-25T07:53:48Z</time>
      </trkpt>
      <trkpt lat="42.8037290" lon="0.4756430">
        <ele>1417.8</ele>
        <time>2020-07-25T07:53:54Z</time>
      </trkpt>
      <trkpt lat="42.8036710" lon="0.4755720">
        <ele>1418.6</ele>
        <time>2020-07-25T07:53:57Z</time>
      </trkpt>
      <trkpt lat="42.8036320" lon="0.4755250">
        <ele>1419.0</ele>
        <time>2020-07-25T07:53:59Z</time>
      </trkpt>
      <trkpt lat="42.8035110" lon="0.4753900">
        <ele>1420.0</ele>
        <time>2020-07-25T07:54:05Z</time>
      </trkpt>
      <trkpt lat="42.8034740" lon="0.4753460">
        <ele>1420.4</ele>
        <time>2020-07-25T07:54:07Z</time>
      </trkpt>
      <trkpt lat="42.8034340" lon="0.4753050">
        <ele>1420.8</ele>
        <time>2020-07-25T07:54:09Z</time>
      </trkpt>
      <trkpt lat="42.8033950" lon="0.4752640">
        <ele>1421.2</ele>
        <time>2020-07-25T07:54:11Z</time>
      </trkpt>
      <trkpt lat="42.8033560" lon="0.4752270">
        <ele>1422.0</ele>
        <time>2020-07-25T07:54:13Z</time>
      </trkpt>
      <trkpt lat="42.8033360" lon="0.4752080">
        <ele>1422.2</ele>
        <time>2020-07-25T07:54:14Z</time>
      </trkpt>
      <trkpt lat="42.8032950" lon="0.4751650">
        <ele>1422.8</ele>
        <time>2020-07-25T07:54:16Z</time>
      </trkpt>
      <trkpt lat="42.8032370" lon="0.4750990">
        <ele>1423.4</ele>
        <time>2020-07-25T07:54:19Z</time>
      </trkpt>
      <trkpt lat="42.8031360" lon="0.4749970">
        <ele>1424.0</ele>
        <time>2020-07-25T07:54:24Z</time>
      </trkpt>
      <trkpt lat="42.8031000" lon="0.4749510">
        <ele>1424.6</ele>
        <time>2020-07-25T07:54:26Z</time>
      </trkpt>
      <trkpt lat="42.8030240" lon="0.4748750">
        <ele>1425.6</ele>
        <time>2020-07-25T07:54:30Z</time>
      </trkpt>
      <trkpt lat="42.8029680" lon="0.4748130">
        <ele>1426.2</ele>
        <time>2020-07-25T07:54:33Z</time>
      </trkpt>
      <trkpt lat="42.8029280" lon="0.4747670">
        <ele>1426.6</ele>
        <time>2020-07-25T07:54:35Z</time>
      </trkpt>
      <trkpt lat="42.8028070" lon="0.4746290">
        <ele>1427.8</ele>
        <time>2020-07-25T07:54:41Z</time>
      </trkpt>
      <trkpt lat="42.8027860" lon="0.4746050">
        <ele>1428.0</ele>
        <time>2020-07-25T07:54:42Z</time>
      </trkpt>
      <trkpt lat="42.8027480" lon="0.4745550">
        <ele>1428.6</ele>
        <time>2020-07-25T07:54:44Z</time>
      </trkpt>
      <trkpt lat="42.8027310" lon="0.4745280">
        <ele>1428.8</ele>
        <time>2020-07-25T07:54:45Z</time>
      </trkpt>
      <trkpt lat="42.8026390" lon="0.4743570">
        <ele>1429.6</ele>
        <time>2020-07-25T07:54:51Z</time>
      </trkpt>
      <trkpt lat="42.8026230" lon="0.4743310">
        <ele>1430.0</ele>
        <time>2020-07-25T07:54:52Z</time>
      </trkpt>
      <trkpt lat="42.8025700" lon="0.4742300">
        <ele>1431.2</ele>
        <time>2020-07-25T07:54:56Z</time>
      </trkpt>
      <trkpt lat="42.8025240" lon="0.4741530">
        <ele>1431.8</ele>
        <time>2020-07-25T07:54:59Z</time>
      </trkpt>
      <trkpt lat="42.8024940" lon="0.4740980">
        <ele>1432.2</ele>
        <time>2020-07-25T07:55:01Z</time>
      </trkpt>
      <trkpt lat="42.8024010" lon="0.4739390">
        <ele>1433.2</ele>
        <time>2020-07-25T07:55:07Z</time>
      </trkpt>
      <trkpt lat="42.8023460" lon="0.4737900">
        <ele>1434.4</ele>
        <time>2020-07-25T07:55:12Z</time>
      </trkpt>
      <trkpt lat="42.8022950" lon="0.4736000">
        <ele>1435.4</ele>
        <time>2020-07-25T07:55:18Z</time>
      </trkpt>
      <trkpt lat="42.8022510" lon="0.4734220">
        <ele>1436.8</ele>
        <time>2020-07-25T07:55:24Z</time>
      </trkpt>
      <trkpt lat="42.8022410" lon="0.4733910">
        <ele>1437.0</ele>
        <time>2020-07-25T07:55:25Z</time>
      </trkpt>
      <trkpt lat="42.8022320" lon="0.4733610">
        <ele>1437.4</ele>
        <time>2020-07-25T07:55:26Z</time>
      </trkpt>
      <trkpt lat="42.8022140" lon="0.4733000">
        <ele>1438.0</ele>
        <time>2020-07-25T07:55:28Z</time>
      </trkpt>
      <trkpt lat="42.8021580" lon="0.4731500">
        <ele>1439.0</ele>
        <time>2020-07-25T07:55:33Z</time>
      </trkpt>
      <trkpt lat="42.8021420" lon="0.4731220">
        <ele>1439.2</ele>
        <time>2020-07-25T07:55:34Z</time>
      </trkpt>
      <trkpt lat="42.8020350" lon="0.4729570">
        <ele>1440.0</ele>
        <time>2020-07-25T07:55:40Z</time>
      </trkpt>
      <trkpt lat="42.8020150" lon="0.4729330">
        <ele>1440.2</ele>
        <time>2020-07-25T07:55:41Z</time>
      </trkpt>
      <trkpt lat="42.8019750" lon="0.4728840">
        <ele>1440.2</ele>
        <time>2020-07-25T07:55:43Z</time>
      </trkpt>
      <trkpt lat="42.8019540" lon="0.4728590">
        <ele>1440.4</ele>
        <time>2020-07-25T07:55:44Z</time>
      </trkpt>
      <trkpt lat="42.8018910" lon="0.4727860">
        <ele>1440.8</ele>
        <time>2020-07-25T07:55:47Z</time>
      </trkpt>
      <trkpt lat="42.8018270" lon="0.4727120">
        <ele>1441.0</ele>
        <time>2020-07-25T07:55:50Z</time>
      </trkpt>
      <trkpt lat="42.8017820" lon="0.4726600">
        <ele>1441.2</ele>
        <time>2020-07-25T07:55:52Z</time>
      </trkpt>
      <trkpt lat="42.8016950" lon="0.4725450">
        <ele>1441.8</ele>
        <time>2020-07-25T07:55:56Z</time>
      </trkpt>
      <trkpt lat="42.8016360" lon="0.4724540">
        <ele>1442.4</ele>
        <time>2020-07-25T07:55:59Z</time>
      </trkpt>
      <trkpt lat="42.8016170" lon="0.4724250">
        <ele>1442.6</ele>
        <time>2020-07-25T07:56:00Z</time>
      </trkpt>
      <trkpt lat="42.8015570" lon="0.4723170">
        <ele>1443.6</ele>
        <time>2020-07-25T07:56:04Z</time>
      </trkpt>
      <trkpt lat="42.8015280" lon="0.4722320">
        <ele>1444.4</ele>
        <time>2020-07-25T07:56:07Z</time>
      </trkpt>
      <trkpt lat="42.8015230" lon="0.4722030">
        <ele>1444.6</ele>
        <time>2020-07-25T07:56:08Z</time>
      </trkpt>
      <trkpt lat="42.8014870" lon="0.4720270">
        <ele>1445.6</ele>
        <time>2020-07-25T07:56:14Z</time>
      </trkpt>
      <trkpt lat="42.8014820" lon="0.4719980">
        <ele>1445.8</ele>
        <time>2020-07-25T07:56:15Z</time>
      </trkpt>
      <trkpt lat="42.8014790" lon="0.4719690">
        <ele>1446.0</ele>
        <time>2020-07-25T07:56:16Z</time>
      </trkpt>
      <trkpt lat="42.8014690" lon="0.4718750">
        <ele>1447.0</ele>
        <time>2020-07-25T07:56:19Z</time>
      </trkpt>
      <trkpt lat="42.8014560" lon="0.4717500">
        <ele>1447.6</ele>
        <time>2020-07-25T07:56:23Z</time>
      </trkpt>
      <trkpt lat="42.8014420" lon="0.4716520">
        <ele>1448.0</ele>
        <time>2020-07-25T07:56:26Z</time>
      </trkpt>
      <trkpt lat="42.8014300" lon="0.4715380">
        <ele>1449.0</ele>
        <time>2020-07-25T07:56:29Z</time>
      </trkpt>
      <trkpt lat="42.8014240" lon="0.4714670">
        <ele>1449.6</ele>
        <time>2020-07-25T07:56:31Z</time>
      </trkpt>
      <trkpt lat="42.8014290" lon="0.4713630">
        <ele>1450.2</ele>
        <time>2020-07-25T07:56:34Z</time>
      </trkpt>
      <trkpt lat="42.8014560" lon="0.4712030">
        <ele>1451.4</ele>
        <time>2020-07-25T07:56:39Z</time>
      </trkpt>
      <trkpt lat="42.8015060" lon="0.4710320">
        <ele>1452.2</ele>
        <time>2020-07-25T07:56:45Z</time>
      </trkpt>
      <trkpt lat="42.8015150" lon="0.4710030">
        <ele>1452.8</ele>
        <time>2020-07-25T07:56:46Z</time>
      </trkpt>
      <trkpt lat="42.8015240" lon="0.4709720">
        <ele>1453.2</ele>
        <time>2020-07-25T07:56:47Z</time>
      </trkpt>
      <trkpt lat="42.8015320" lon="0.4709420">
        <ele>1453.6</ele>
        <time>2020-07-25T07:56:48Z</time>
      </trkpt>
      <trkpt lat="42.8015530" lon="0.4708520">
        <ele>1454.0</ele>
        <time>2020-07-25T07:56:51Z</time>
      </trkpt>
      <trkpt lat="42.8015800" lon="0.4707240">
        <ele>1455.0</ele>
        <time>2020-07-25T07:56:55Z</time>
      </trkpt>
      <trkpt lat="42.8015860" lon="0.4706880">
        <ele>1455.4</ele>
        <time>2020-07-25T07:56:56Z</time>
      </trkpt>
      <trkpt lat="42.8016080" lon="0.4705540">
        <ele>1455.8</ele>
        <time>2020-07-25T07:57:00Z</time>
      </trkpt>
      <trkpt lat="42.8016250" lon="0.4704310">
        <ele>1456.6</ele>
        <time>2020-07-25T07:57:04Z</time>
      </trkpt>
      <trkpt lat="42.8016560" lon="0.4702870">
        <ele>1457.6</ele>
        <time>2020-07-25T07:57:09Z</time>
      </trkpt>
      <trkpt lat="42.8016740" lon="0.4702000">
        <ele>1458.0</ele>
        <time>2020-07-25T07:57:12Z</time>
      </trkpt>
      <trkpt lat="42.8016860" lon="0.4701370">
        <ele>1458.4</ele>
        <time>2020-07-25T07:57:14Z</time>
      </trkpt>
      <trkpt lat="42.8016980" lon="0.4700350">
        <ele>1459.0</ele>
        <time>2020-07-25T07:57:17Z</time>
      </trkpt>
      <trkpt lat="42.8017030" lon="0.4699350">
        <ele>1460.2</ele>
        <time>2020-07-25T07:57:20Z</time>
      </trkpt>
      <trkpt lat="42.8017040" lon="0.4699010">
        <ele>1460.4</ele>
        <time>2020-07-25T07:57:21Z</time>
      </trkpt>
      <trkpt lat="42.8017100" lon="0.4697670">
        <ele>1461.2</ele>
        <time>2020-07-25T07:57:25Z</time>
      </trkpt>
      <trkpt lat="42.8017180" lon="0.4696290">
        <ele>1461.8</ele>
        <time>2020-07-25T07:57:29Z</time>
      </trkpt>
      <trkpt lat="42.8017260" lon="0.4695590">
        <ele>1462.2</ele>
        <time>2020-07-25T07:57:31Z</time>
      </trkpt>
      <trkpt lat="42.8017440" lon="0.4694210">
        <ele>1463.4</ele>
        <time>2020-07-25T07:57:35Z</time>
      </trkpt>
      <trkpt lat="42.8017570" lon="0.4693580">
        <ele>1464.0</ele>
        <time>2020-07-25T07:57:37Z</time>
      </trkpt>
      <trkpt lat="42.8017700" lon="0.4692980">
        <ele>1464.4</ele>
        <time>2020-07-25T07:57:39Z</time>
      </trkpt>
      <trkpt lat="42.8018410" lon="0.4691730">
        <ele>1465.4</ele>
        <time>2020-07-25T07:57:44Z</time>
      </trkpt>
      <trkpt lat="42.8018600" lon="0.4691510">
        <ele>1465.8</ele>
        <time>2020-07-25T07:57:45Z</time>
      </trkpt>
      <trkpt lat="42.8019440" lon="0.4690950">
        <ele>1466.8</ele>
        <time>2020-07-25T07:57:49Z</time>
      </trkpt>
      <trkpt lat="42.8019940" lon="0.4690780">
        <ele>1467.2</ele>
        <time>2020-07-25T07:57:51Z</time>
      </trkpt>
      <trkpt lat="42.8020740" lon="0.4690510">
        <ele>1467.8</ele>
        <time>2020-07-25T07:57:54Z</time>
      </trkpt>
      <trkpt lat="42.8021800" lon="0.4690130">
        <ele>1468.8</ele>
        <time>2020-07-25T07:57:58Z</time>
      </trkpt>
      <trkpt lat="42.8022070" lon="0.4690050">
        <ele>1469.2</ele>
        <time>2020-07-25T07:57:59Z</time>
      </trkpt>
      <trkpt lat="42.8022840" lon="0.4689820">
        <ele>1469.6</ele>
        <time>2020-07-25T07:58:02Z</time>
      </trkpt>
      <trkpt lat="42.8023640" lon="0.4689590">
        <ele>1470.2</ele>
        <time>2020-07-25T07:58:05Z</time>
      </trkpt>
      <trkpt lat="42.8023910" lon="0.4689520">
        <ele>1470.4</ele>
        <time>2020-07-25T07:58:06Z</time>
      </trkpt>
      <trkpt lat="42.8024920" lon="0.4689330">
        <ele>1471.2</ele>
        <time>2020-07-25T07:58:10Z</time>
      </trkpt>
      <trkpt lat="42.8025920" lon="0.4689250">
        <ele>1471.8</ele>
        <time>2020-07-25T07:58:14Z</time>
      </trkpt>
      <trkpt lat="42.8026410" lon="0.4689260">
        <ele>1472.4</ele>
        <time>2020-07-25T07:58:16Z</time>
      </trkpt>
      <trkpt lat="42.8027340" lon="0.4689360">
        <ele>1473.6</ele>
        <time>2020-07-25T07:58:21Z</time>
      </trkpt>
      <trkpt lat="42.8027980" lon="0.4689430">
        <ele>1474.6</ele>
        <time>2020-07-25T07:58:25Z</time>
      </trkpt>
      <trkpt lat="42.8028340" lon="0.4689420">
        <ele>1475.2</ele>
        <time>2020-07-25T07:58:28Z</time>
      </trkpt>
      <trkpt lat="42.8028600" lon="0.4689480">
        <ele>1475.2</ele>
        <time>2020-07-25T07:58:30Z</time>
      </trkpt>
      <trkpt lat="42.8029200" lon="0.4689630">
        <ele>1475.4</ele>
        <time>2020-07-25T07:58:34Z</time>
      </trkpt>
      <trkpt lat="42.8029670" lon="0.4689760">
        <ele>1475.6</ele>
        <time>2020-07-25T07:58:37Z</time>
      </trkpt>
      <trkpt lat="42.8030400" lon="0.4690000">
        <ele>1476.4</ele>
        <time>2020-07-25T07:58:41Z</time>
      </trkpt>
      <trkpt lat="42.8030940" lon="0.4690200">
        <ele>1476.6</ele>
        <time>2020-07-25T07:58:44Z</time>
      </trkpt>
      <trkpt lat="42.8031870" lon="0.4690740">
        <ele>1477.6</ele>
        <time>2020-07-25T07:58:49Z</time>
      </trkpt>
      <trkpt lat="42.8032060" lon="0.4690850">
        <ele>1477.8</ele>
        <time>2020-07-25T07:58:50Z</time>
      </trkpt>
      <trkpt lat="42.8032610" lon="0.4691090">
        <ele>1478.2</ele>
        <time>2020-07-25T07:58:53Z</time>
      </trkpt>
      <trkpt lat="42.8033230" lon="0.4691320">
        <ele>1479.0</ele>
        <time>2020-07-25T07:58:56Z</time>
      </trkpt>
      <trkpt lat="42.8033820" lon="0.4691750">
        <ele>1479.4</ele>
        <time>2020-07-25T07:58:59Z</time>
      </trkpt>
      <trkpt lat="42.8034450" lon="0.4692240">
        <ele>1480.2</ele>
        <time>2020-07-25T07:59:02Z</time>
      </trkpt>
      <trkpt lat="42.8034700" lon="0.4692450">
        <ele>1480.4</ele>
        <time>2020-07-25T07:59:03Z</time>
      </trkpt>
      <trkpt lat="42.8035600" lon="0.4693360">
        <ele>1481.4</ele>
        <time>2020-07-25T07:59:07Z</time>
      </trkpt>
      <trkpt lat="42.8036140" lon="0.4694040">
        <ele>1482.2</ele>
        <time>2020-07-25T07:59:10Z</time>
      </trkpt>
      <trkpt lat="42.8036280" lon="0.4694260">
        <ele>1482.4</ele>
        <time>2020-07-25T07:59:11Z</time>
      </trkpt>
      <trkpt lat="42.8036580" lon="0.4694780">
        <ele>1482.8</ele>
        <time>2020-07-25T07:59:13Z</time>
      </trkpt>
      <trkpt lat="42.8037490" lon="0.4695980">
        <ele>1483.6</ele>
        <time>2020-07-25T07:59:18Z</time>
      </trkpt>
      <trkpt lat="42.8037740" lon="0.4696100">
        <ele>1483.6</ele>
        <time>2020-07-25T07:59:19Z</time>
      </trkpt>
      <trkpt lat="42.8038520" lon="0.4696050">
        <ele>1484.4</ele>
        <time>2020-07-25T07:59:22Z</time>
      </trkpt>
      <trkpt lat="42.8038710" lon="0.4695860">
        <ele>1484.6</ele>
        <time>2020-07-25T07:59:23Z</time>
      </trkpt>
      <trkpt lat="42.8038990" lon="0.4694370">
        <ele>1485.0</ele>
        <time>2020-07-25T07:59:27Z</time>
      </trkpt>
      <trkpt lat="42.8038430" lon="0.4693060">
        <ele>1485.6</ele>
        <time>2020-07-25T07:59:31Z</time>
      </trkpt>
      <trkpt lat="42.8038220" lon="0.4692810">
        <ele>1485.8</ele>
        <time>2020-07-25T07:59:32Z</time>
      </trkpt>
      <trkpt lat="42.8037030" lon="0.4691230">
        <ele>1486.6</ele>
        <time>2020-07-25T07:59:38Z</time>
      </trkpt>
      <trkpt lat="42.8036620" lon="0.4690750">
        <ele>1486.8</ele>
        <time>2020-07-25T07:59:40Z</time>
      </trkpt>
      <trkpt lat="42.8035850" lon="0.4689820">
        <ele>1487.6</ele>
        <time>2020-07-25T07:59:44Z</time>
      </trkpt>
      <trkpt lat="42.8035650" lon="0.4689610">
        <ele>1487.8</ele>
        <time>2020-07-25T07:59:45Z</time>
      </trkpt>
      <trkpt lat="42.8034950" lon="0.4688710">
        <ele>1488.8</ele>
        <time>2020-07-25T07:59:49Z</time>
      </trkpt>
      <trkpt lat="42.8034800" lon="0.4688470">
        <ele>1489.0</ele>
        <time>2020-07-25T07:59:50Z</time>
      </trkpt>
      <trkpt lat="42.8034040" lon="0.4687600">
        <ele>1490.0</ele>
        <time>2020-07-25T07:59:54Z</time>
      </trkpt>
      <trkpt lat="42.8033450" lon="0.4686910">
        <ele>1490.6</ele>
        <time>2020-07-25T07:59:57Z</time>
      </trkpt>
      <trkpt lat="42.8032860" lon="0.4686280">
        <ele>1491.0</ele>
        <time>2020-07-25T08:00:00Z</time>
      </trkpt>
      <trkpt lat="42.8032470" lon="0.4685900">
        <ele>1491.6</ele>
        <time>2020-07-25T08:00:02Z</time>
      </trkpt>
      <trkpt lat="42.8032090" lon="0.4685540">
        <ele>1492.2</ele>
        <time>2020-07-25T08:00:04Z</time>
      </trkpt>
      <trkpt lat="42.8031730" lon="0.4685130">
        <ele>1492.6</ele>
        <time>2020-07-25T08:00:06Z</time>
      </trkpt>
      <trkpt lat="42.8031410" lon="0.4684620">
        <ele>1493.0</ele>
        <time>2020-07-25T08:00:08Z</time>
      </trkpt>
      <trkpt lat="42.8031060" lon="0.4684160">
        <ele>1493.4</ele>
        <time>2020-07-25T08:00:10Z</time>
      </trkpt>
      <trkpt lat="42.8030410" lon="0.4683210">
        <ele>1494.4</ele>
        <time>2020-07-25T08:00:14Z</time>
      </trkpt>
      <trkpt lat="42.8029870" lon="0.4682600">
        <ele>1494.8</ele>
        <time>2020-07-25T08:00:17Z</time>
      </trkpt>
      <trkpt lat="42.8029370" lon="0.4681910">
        <ele>1495.6</ele>
        <time>2020-07-25T08:00:20Z</time>
      </trkpt>
      <trkpt lat="42.8029050" lon="0.4681450">
        <ele>1496.2</ele>
        <time>2020-07-25T08:00:22Z</time>
      </trkpt>
      <trkpt lat="42.8028720" lon="0.4680960">
        <ele>1496.4</ele>
        <time>2020-07-25T08:00:24Z</time>
      </trkpt>
      <trkpt lat="42.8028560" lon="0.4680720">
        <ele>1496.6</ele>
        <time>2020-07-25T08:00:25Z</time>
      </trkpt>
      <trkpt lat="42.8028420" lon="0.4680440">
        <ele>1496.6</ele>
        <time>2020-07-25T08:00:26Z</time>
      </trkpt>
      <trkpt lat="42.8027770" lon="0.4679490">
        <ele>1497.8</ele>
        <time>2020-07-25T08:00:30Z</time>
      </trkpt>
      <trkpt lat="42.8027440" lon="0.4679060">
        <ele>1498.2</ele>
        <time>2020-07-25T08:00:32Z</time>
      </trkpt>
      <trkpt lat="42.8026830" lon="0.4678090">
        <ele>1499.2</ele>
        <time>2020-07-25T08:00:36Z</time>
      </trkpt>
      <trkpt lat="42.8025930" lon="0.4676960">
        <ele>1500.2</ele>
        <time>2020-07-25T08:00:41Z</time>
      </trkpt>
      <trkpt lat="42.8025760" lon="0.4676720">
        <ele>1500.6</ele>
        <time>2020-07-25T08:00:42Z</time>
      </trkpt>
      <trkpt lat="42.8025180" lon="0.4676120">
        <ele>1501.2</ele>
        <time>2020-07-25T08:00:45Z</time>
      </trkpt>
      <trkpt lat="42.8024530" lon="0.4675590">
        <ele>1501.8</ele>
        <time>2020-07-25T08:00:48Z</time>
      </trkpt>
      <trkpt lat="42.8024330" lon="0.4675370">
        <ele>1502.0</ele>
        <time>2020-07-25T08:00:49Z</time>
      </trkpt>
      <trkpt lat="42.8024140" lon="0.4675140">
        <ele>1502.2</ele>
        <time>2020-07-25T08:00:50Z</time>
      </trkpt>
      <trkpt lat="42.8023120" lon="0.4674210">
        <ele>1503.4</ele>
        <time>2020-07-25T08:00:55Z</time>
      </trkpt>
      <trkpt lat="42.8022720" lon="0.4673880">
        <ele>1503.8</ele>
        <time>2020-07-25T08:00:57Z</time>
      </trkpt>
      <trkpt lat="42.8021660" lon="0.4673190">
        <ele>1504.6</ele>
        <time>2020-07-25T08:01:02Z</time>
      </trkpt>
      <trkpt lat="42.8020560" lon="0.4672800">
        <ele>1505.8</ele>
        <time>2020-07-25T08:01:07Z</time>
      </trkpt>
      <trkpt lat="42.8019560" lon="0.4672580">
        <ele>1506.6</ele>
        <time>2020-07-25T08:01:11Z</time>
      </trkpt>
      <trkpt lat="42.8019310" lon="0.4672580">
        <ele>1507.0</ele>
        <time>2020-07-25T08:01:12Z</time>
      </trkpt>
      <trkpt lat="42.8019050" lon="0.4672620">
        <ele>1507.2</ele>
        <time>2020-07-25T08:01:13Z</time>
      </trkpt>
      <trkpt lat="42.8018290" lon="0.4672700">
        <ele>1507.8</ele>
        <time>2020-07-25T08:01:16Z</time>
      </trkpt>
      <trkpt lat="42.8018050" lon="0.4672710">
        <ele>1508.0</ele>
        <time>2020-07-25T08:01:17Z</time>
      </trkpt>
      <trkpt lat="42.8017000" lon="0.4672530">
        <ele>1509.0</ele>
        <time>2020-07-25T08:01:22Z</time>
      </trkpt>
      <trkpt lat="42.8016850" lon="0.4672460">
        <ele>1509.0</ele>
        <time>2020-07-25T08:01:23Z</time>
      </trkpt>
      <trkpt lat="42.8016350" lon="0.4671660">
        <ele>1509.8</ele>
        <time>2020-07-25T08:01:28Z</time>
      </trkpt>
      <trkpt lat="42.8016430" lon="0.4670540">
        <ele>1510.2</ele>
        <time>2020-07-25T08:01:31Z</time>
      </trkpt>
      <trkpt lat="42.8016590" lon="0.4670200">
        <ele>1510.2</ele>
        <time>2020-07-25T08:01:32Z</time>
      </trkpt>
      <trkpt lat="42.8017040" lon="0.4669790">
        <ele>1510.6</ele>
        <time>2020-07-25T08:01:34Z</time>
      </trkpt>
      <trkpt lat="42.8017640" lon="0.4669710">
        <ele>1511.0</ele>
        <time>2020-07-25T08:01:36Z</time>
      </trkpt>
      <trkpt lat="42.8017950" lon="0.4669730">
        <ele>1511.2</ele>
        <time>2020-07-25T08:01:37Z</time>
      </trkpt>
      <trkpt lat="42.8019790" lon="0.4670170">
        <ele>1512.0</ele>
        <time>2020-07-25T08:01:43Z</time>
      </trkpt>
      <trkpt lat="42.8020370" lon="0.4670290">
        <ele>1512.4</ele>
        <time>2020-07-25T08:01:45Z</time>
      </trkpt>
      <trkpt lat="42.8022100" lon="0.4670930">
        <ele>1513.4</ele>
        <time>2020-07-25T08:01:51Z</time>
      </trkpt>
      <trkpt lat="42.8022380" lon="0.4671050">
        <ele>1513.8</ele>
        <time>2020-07-25T08:01:52Z</time>
      </trkpt>
      <trkpt lat="42.8023710" lon="0.4671660">
        <ele>1515.0</ele>
        <time>2020-07-25T08:01:57Z</time>
      </trkpt>
      <trkpt lat="42.8024740" lon="0.4672180">
        <ele>1515.6</ele>
        <time>2020-07-25T08:02:01Z</time>
      </trkpt>
      <trkpt lat="42.8025220" lon="0.4672430">
        <ele>1516.2</ele>
        <time>2020-07-25T08:02:03Z</time>
      </trkpt>
      <trkpt lat="42.8026100" lon="0.4672950">
        <ele>1517.0</ele>
        <time>2020-07-25T08:02:07Z</time>
      </trkpt>
      <trkpt lat="42.8026490" lon="0.4673170">
        <ele>1517.4</ele>
        <time>2020-07-25T08:02:09Z</time>
      </trkpt>
      <trkpt lat="42.8026660" lon="0.4673300">
        <ele>1517.6</ele>
        <time>2020-07-25T08:02:10Z</time>
      </trkpt>
      <trkpt lat="42.8027070" lon="0.4673590">
        <ele>1518.4</ele>
        <time>2020-07-25T08:02:13Z</time>
      </trkpt>
      <trkpt lat="42.8027150" lon="0.4673640">
        <ele>1518.4</ele>
        <time>2020-07-25T08:02:14Z</time>
      </trkpt>
      <trkpt lat="42.8027370" lon="0.4673720">
        <ele>1518.8</ele>
        <time>2020-07-25T08:02:16Z</time>
      </trkpt>
      <trkpt lat="42.8028260" lon="0.4674300">
        <ele>1519.4</ele>
        <time>2020-07-25T08:02:22Z</time>
      </trkpt>
      <trkpt lat="42.8028580" lon="0.4674500">
        <ele>1519.6</ele>
        <time>2020-07-25T08:02:24Z</time>
      </trkpt>
      <trkpt lat="42.8029530" lon="0.4675210">
        <ele>1520.2</ele>
        <time>2020-07-25T08:02:30Z</time>
      </trkpt>
      <trkpt lat="42.8029710" lon="0.4675360">
        <ele>1520.6</ele>
        <time>2020-07-25T08:02:31Z</time>
      </trkpt>
      <trkpt lat="42.8030700" lon="0.4676170">
        <ele>1521.6</ele>
        <time>2020-07-25T08:02:36Z</time>
      </trkpt>
      <trkpt lat="42.8030890" lon="0.4676350">
        <ele>1521.8</ele>
        <time>2020-07-25T08:02:37Z</time>
      </trkpt>
      <trkpt lat="42.8031320" lon="0.4676680">
        <ele>1522.2</ele>
        <time>2020-07-25T08:02:39Z</time>
      </trkpt>
      <trkpt lat="42.8032430" lon="0.4677580">
        <ele>1523.0</ele>
        <time>2020-07-25T08:02:44Z</time>
      </trkpt>
      <trkpt lat="42.8033310" lon="0.4678300">
        <ele>1523.6</ele>
        <time>2020-07-25T08:02:48Z</time>
      </trkpt>
      <trkpt lat="42.8033540" lon="0.4678460">
        <ele>1523.8</ele>
        <time>2020-07-25T08:02:49Z</time>
      </trkpt>
      <trkpt lat="42.8034010" lon="0.4678790">
        <ele>1524.2</ele>
        <time>2020-07-25T08:02:51Z</time>
      </trkpt>
      <trkpt lat="42.8034700" lon="0.4679270">
        <ele>1525.2</ele>
        <time>2020-07-25T08:02:54Z</time>
      </trkpt>
      <trkpt lat="42.8034920" lon="0.4679410">
        <ele>1525.6</ele>
        <time>2020-07-25T08:02:55Z</time>
      </trkpt>
      <trkpt lat="42.8035590" lon="0.4679830">
        <ele>1526.4</ele>
        <time>2020-07-25T08:02:58Z</time>
      </trkpt>
      <trkpt lat="42.8035810" lon="0.4679950">
        <ele>1526.8</ele>
        <time>2020-07-25T08:02:59Z</time>
      </trkpt>
      <trkpt lat="42.8036020" lon="0.4680100">
        <ele>1527.0</ele>
        <time>2020-07-25T08:03:00Z</time>
      </trkpt>
      <trkpt lat="42.8036230" lon="0.4680240">
        <ele>1527.2</ele>
        <time>2020-07-25T08:03:01Z</time>
      </trkpt>
      <trkpt lat="42.8036430" lon="0.4680390">
        <ele>1527.4</ele>
        <time>2020-07-25T08:03:02Z</time>
      </trkpt>
      <trkpt lat="42.8036640" lon="0.4680530">
        <ele>1527.8</ele>
        <time>2020-07-25T08:03:03Z</time>
      </trkpt>
      <trkpt lat="42.8037680" lon="0.4681270">
        <ele>1528.6</ele>
        <time>2020-07-25T08:03:08Z</time>
      </trkpt>
      <trkpt lat="42.8038120" lon="0.4681590">
        <ele>1528.8</ele>
        <time>2020-07-25T08:03:10Z</time>
      </trkpt>
      <trkpt lat="42.8039140" lon="0.4682290">
        <ele>1530.0</ele>
        <time>2020-07-25T08:03:15Z</time>
      </trkpt>
      <trkpt lat="42.8040380" lon="0.4683230">
        <ele>1531.0</ele>
        <time>2020-07-25T08:03:21Z</time>
      </trkpt>
      <trkpt lat="42.8040590" lon="0.4683390">
        <ele>1531.2</ele>
        <time>2020-07-25T08:03:22Z</time>
      </trkpt>
      <trkpt lat="42.8040810" lon="0.4683520">
        <ele>1531.4</ele>
        <time>2020-07-25T08:03:23Z</time>
      </trkpt>
      <trkpt lat="42.8041470" lon="0.4683990">
        <ele>1532.2</ele>
        <time>2020-07-25T08:03:26Z</time>
      </trkpt>
      <trkpt lat="42.8042040" lon="0.4684510">
        <ele>1532.8</ele>
        <time>2020-07-25T08:03:29Z</time>
      </trkpt>
      <trkpt lat="42.8042600" lon="0.4685070">
        <ele>1533.6</ele>
        <time>2020-07-25T08:03:32Z</time>
      </trkpt>
      <trkpt lat="42.8043380" lon="0.4685820">
        <ele>1534.6</ele>
        <time>2020-07-25T08:03:36Z</time>
      </trkpt>
      <trkpt lat="42.8043590" lon="0.4685980">
        <ele>1534.8</ele>
        <time>2020-07-25T08:03:37Z</time>
      </trkpt>
      <trkpt lat="42.8044760" lon="0.4687120">
        <ele>1535.8</ele>
        <time>2020-07-25T08:03:43Z</time>
      </trkpt>
      <trkpt lat="42.8044960" lon="0.4687320">
        <ele>1535.8</ele>
        <time>2020-07-25T08:03:44Z</time>
      </trkpt>
      <trkpt lat="42.8045790" lon="0.4688250">
        <ele>1537.2</ele>
        <time>2020-07-25T08:03:49Z</time>
      </trkpt>
      <trkpt lat="42.8046340" lon="0.4688670">
        <ele>1537.6</ele>
        <time>2020-07-25T08:03:52Z</time>
      </trkpt>
      <trkpt lat="42.8047070" lon="0.4688400">
        <ele>1537.8</ele>
        <time>2020-07-25T08:04:34Z</time>
      </trkpt>
      <trkpt lat="42.8047410" lon="0.4688160">
        <ele>1537.8</ele>
        <time>2020-07-25T08:04:36Z</time>
      </trkpt>
      <trkpt lat="42.8047580" lon="0.4687970">
        <ele>1538.0</ele>
        <time>2020-07-25T08:04:37Z</time>
      </trkpt>
      <trkpt lat="42.8047730" lon="0.4687680">
        <ele>1538.2</ele>
        <time>2020-07-25T08:04:38Z</time>
      </trkpt>
      <trkpt lat="42.8047890" lon="0.4687020">
        <ele>1538.6</ele>
        <time>2020-07-25T08:04:40Z</time>
      </trkpt>
      <trkpt lat="42.8047760" lon="0.4686330">
        <ele>1538.8</ele>
        <time>2020-07-25T08:04:42Z</time>
      </trkpt>
      <trkpt lat="42.8047340" lon="0.4685690">
        <ele>1538.8</ele>
        <time>2020-07-25T08:04:44Z</time>
      </trkpt>
      <trkpt lat="42.8046500" lon="0.4684850">
        <ele>1539.4</ele>
        <time>2020-07-25T08:04:47Z</time>
      </trkpt>
      <trkpt lat="42.8045100" lon="0.4683680">
        <ele>1540.6</ele>
        <time>2020-07-25T08:04:52Z</time>
      </trkpt>
      <trkpt lat="42.8044850" lon="0.4683440">
        <ele>1540.8</ele>
        <time>2020-07-25T08:04:53Z</time>
      </trkpt>
      <trkpt lat="42.8044150" lon="0.4682660">
        <ele>1541.4</ele>
        <time>2020-07-25T08:04:56Z</time>
      </trkpt>
      <trkpt lat="42.8043650" lon="0.4682170">
        <ele>1541.8</ele>
        <time>2020-07-25T08:04:58Z</time>
      </trkpt>
      <trkpt lat="42.8042980" lon="0.4681320">
        <ele>1542.6</ele>
        <time>2020-07-25T08:05:01Z</time>
      </trkpt>
      <trkpt lat="42.8042760" lon="0.4681040">
        <ele>1543.0</ele>
        <time>2020-07-25T08:05:02Z</time>
      </trkpt>
      <trkpt lat="42.8042060" lon="0.4680160">
        <ele>1543.6</ele>
        <time>2020-07-25T08:05:05Z</time>
      </trkpt>
      <trkpt lat="42.8041640" lon="0.4679600">
        <ele>1544.4</ele>
        <time>2020-07-25T08:05:07Z</time>
      </trkpt>
      <trkpt lat="42.8040840" lon="0.4678540">
        <ele>1545.4</ele>
        <time>2020-07-25T08:05:11Z</time>
      </trkpt>
      <trkpt lat="42.8039680" lon="0.4677050">
        <ele>1546.6</ele>
        <time>2020-07-25T08:05:17Z</time>
      </trkpt>
      <trkpt lat="42.8039460" lon="0.4676810">
        <ele>1546.8</ele>
        <time>2020-07-25T08:05:18Z</time>
      </trkpt>
      <trkpt lat="42.8038880" lon="0.4676070">
        <ele>1548.0</ele>
        <time>2020-07-25T08:05:21Z</time>
      </trkpt>
      <trkpt lat="42.8038080" lon="0.4675190">
        <ele>1549.0</ele>
        <time>2020-07-25T08:05:25Z</time>
      </trkpt>
      <trkpt lat="42.8037530" lon="0.4674480">
        <ele>1549.8</ele>
        <time>2020-07-25T08:05:28Z</time>
      </trkpt>
      <trkpt lat="42.8037150" lon="0.4674020">
        <ele>1550.0</ele>
        <time>2020-07-25T08:05:30Z</time>
      </trkpt>
      <trkpt lat="42.8036980" lon="0.4673780">
        <ele>1550.2</ele>
        <time>2020-07-25T08:05:31Z</time>
      </trkpt>
      <trkpt lat="42.8036460" lon="0.4673050">
        <ele>1551.2</ele>
        <time>2020-07-25T08:05:34Z</time>
      </trkpt>
      <trkpt lat="42.8036290" lon="0.4672810">
        <ele>1551.4</ele>
        <time>2020-07-25T08:05:35Z</time>
      </trkpt>
      <trkpt lat="42.8035320" lon="0.4671340">
        <ele>1552.2</ele>
        <time>2020-07-25T08:05:41Z</time>
      </trkpt>
      <trkpt lat="42.8035150" lon="0.4671120">
        <ele>1552.4</ele>
        <time>2020-07-25T08:05:42Z</time>
      </trkpt>
      <trkpt lat="42.8034600" lon="0.4670450">
        <ele>1553.4</ele>
        <time>2020-07-25T08:05:45Z</time>
      </trkpt>
      <trkpt lat="42.8034420" lon="0.4670230">
        <ele>1553.8</ele>
        <time>2020-07-25T08:05:46Z</time>
      </trkpt>
      <trkpt lat="42.8034250" lon="0.4669980">
        <ele>1554.0</ele>
        <time>2020-07-25T08:05:47Z</time>
      </trkpt>
      <trkpt lat="42.8033800" lon="0.4669290">
        <ele>1554.6</ele>
        <time>2020-07-25T08:05:50Z</time>
      </trkpt>
      <trkpt lat="42.8033200" lon="0.4668280">
        <ele>1555.2</ele>
        <time>2020-07-25T08:05:54Z</time>
      </trkpt>
      <trkpt lat="42.8032680" lon="0.4667530">
        <ele>1555.8</ele>
        <time>2020-07-25T08:05:57Z</time>
      </trkpt>
      <trkpt lat="42.8032020" lon="0.4666560">
        <ele>1556.8</ele>
        <time>2020-07-25T08:06:01Z</time>
      </trkpt>
      <trkpt lat="42.8031860" lon="0.4666320">
        <ele>1557.2</ele>
        <time>2020-07-25T08:06:02Z</time>
      </trkpt>
      <trkpt lat="42.8031420" lon="0.4665730">
        <ele>1557.8</ele>
        <time>2020-07-25T08:06:05Z</time>
      </trkpt>
      <trkpt lat="42.8030900" lon="0.4665010">
        <ele>1558.4</ele>
        <time>2020-07-25T08:06:08Z</time>
      </trkpt>
      <trkpt lat="42.8030510" lon="0.4664180">
        <ele>1559.0</ele>
        <time>2020-07-25T08:06:11Z</time>
      </trkpt>
      <trkpt lat="42.8030280" lon="0.4663590">
        <ele>1559.2</ele>
        <time>2020-07-25T08:06:13Z</time>
      </trkpt>
      <trkpt lat="42.8030090" lon="0.4663010">
        <ele>1559.6</ele>
        <time>2020-07-25T08:06:15Z</time>
      </trkpt>
      <trkpt lat="42.8029750" lon="0.4662160">
        <ele>1560.2</ele>
        <time>2020-07-25T08:06:18Z</time>
      </trkpt>
      <trkpt lat="42.8029320" lon="0.4661090">
        <ele>1561.4</ele>
        <time>2020-07-25T08:06:22Z</time>
      </trkpt>
      <trkpt lat="42.8029140" lon="0.4660570">
        <ele>1561.8</ele>
        <time>2020-07-25T08:06:24Z</time>
      </trkpt>
      <trkpt lat="42.8028800" lon="0.4659330">
        <ele>1562.6</ele>
        <time>2020-07-25T08:06:28Z</time>
      </trkpt>
      <trkpt lat="42.8028720" lon="0.4659000">
        <ele>1562.6</ele>
        <time>2020-07-25T08:06:29Z</time>
      </trkpt>
      <trkpt lat="42.8028430" lon="0.4657720">
        <ele>1563.6</ele>
        <time>2020-07-25T08:06:33Z</time>
      </trkpt>
      <trkpt lat="42.8028110" lon="0.4656520">
        <ele>1564.6</ele>
        <time>2020-07-25T08:06:37Z</time>
      </trkpt>
      <trkpt lat="42.8027960" lon="0.4655900">
        <ele>1565.0</ele>
        <time>2020-07-25T08:06:39Z</time>
      </trkpt>
      <trkpt lat="42.8027630" lon="0.4654650">
        <ele>1566.0</ele>
        <time>2020-07-25T08:06:43Z</time>
      </trkpt>
      <trkpt lat="42.8027290" lon="0.4653440">
        <ele>1567.0</ele>
        <time>2020-07-25T08:06:47Z</time>
      </trkpt>
      <trkpt lat="42.8027160" lon="0.4652820">
        <ele>1567.6</ele>
        <time>2020-07-25T08:06:49Z</time>
      </trkpt>
      <trkpt lat="42.8026840" lon="0.4651550">
        <ele>1568.0</ele>
        <time>2020-07-25T08:06:53Z</time>
      </trkpt>
      <trkpt lat="42.8026550" lon="0.4650280">
        <ele>1569.0</ele>
        <time>2020-07-25T08:06:57Z</time>
      </trkpt>
      <trkpt lat="42.8026470" lon="0.4649980">
        <ele>1569.2</ele>
        <time>2020-07-25T08:06:58Z</time>
      </trkpt>
      <trkpt lat="42.8026230" lon="0.4649100">
        <ele>1569.8</ele>
        <time>2020-07-25T08:07:01Z</time>
      </trkpt>
      <trkpt lat="42.8026080" lon="0.4648520">
        <ele>1570.4</ele>
        <time>2020-07-25T08:07:03Z</time>
      </trkpt>
      <trkpt lat="42.8025660" lon="0.4646770">
        <ele>1571.4</ele>
        <time>2020-07-25T08:07:09Z</time>
      </trkpt>
      <trkpt lat="42.8025460" lon="0.4645580">
        <ele>1572.4</ele>
        <time>2020-07-25T08:07:13Z</time>
      </trkpt>
      <trkpt lat="42.8025380" lon="0.4645260">
        <ele>1572.4</ele>
        <time>2020-07-25T08:07:14Z</time>
      </trkpt>
      <trkpt lat="42.8025180" lon="0.4644230">
        <ele>1572.8</ele>
        <time>2020-07-25T08:07:17Z</time>
      </trkpt>
      <trkpt lat="42.8024920" lon="0.4643210">
        <ele>1573.6</ele>
        <time>2020-07-25T08:07:20Z</time>
      </trkpt>
      <trkpt lat="42.8024330" lon="0.4641700">
        <ele>1574.8</ele>
        <time>2020-07-25T08:07:25Z</time>
      </trkpt>
      <trkpt lat="42.8023900" lon="0.4639980">
        <ele>1576.0</ele>
        <time>2020-07-25T08:07:31Z</time>
      </trkpt>
      <trkpt lat="42.8023830" lon="0.4639680">
        <ele>1576.2</ele>
        <time>2020-07-25T08:07:32Z</time>
      </trkpt>
      <trkpt lat="42.8023600" lon="0.4638690">
        <ele>1576.8</ele>
        <time>2020-07-25T08:07:35Z</time>
      </trkpt>
      <trkpt lat="42.8023530" lon="0.4638350">
        <ele>1577.0</ele>
        <time>2020-07-25T08:07:36Z</time>
      </trkpt>
      <trkpt lat="42.8023310" lon="0.4636960">
        <ele>1578.2</ele>
        <time>2020-07-25T08:07:40Z</time>
      </trkpt>
      <trkpt lat="42.8023240" lon="0.4636260">
        <ele>1578.4</ele>
        <time>2020-07-25T08:07:42Z</time>
      </trkpt>
      <trkpt lat="42.8023120" lon="0.4634910">
        <ele>1579.4</ele>
        <time>2020-07-25T08:07:46Z</time>
      </trkpt>
      <trkpt lat="42.8023040" lon="0.4632930">
        <ele>1580.4</ele>
        <time>2020-07-25T08:07:52Z</time>
      </trkpt>
      <trkpt lat="42.8022980" lon="0.4631130">
        <ele>1581.4</ele>
        <time>2020-07-25T08:07:58Z</time>
      </trkpt>
      <trkpt lat="42.8022870" lon="0.4629780">
        <ele>1582.2</ele>
        <time>2020-07-25T08:09:33Z</time>
      </trkpt>
      <trkpt lat="42.8022860" lon="0.4629530">
        <ele>1582.2</ele>
        <time>2020-07-25T08:09:34Z</time>
      </trkpt>
      <trkpt lat="42.8022840" lon="0.4629250">
        <ele>1582.2</ele>
        <time>2020-07-25T08:09:35Z</time>
      </trkpt>
      <trkpt lat="42.8022820" lon="0.4628950">
        <ele>1582.2</ele>
        <time>2020-07-25T08:09:36Z</time>
      </trkpt>
      <trkpt lat="42.8022820" lon="0.4628630">
        <ele>1582.2</ele>
        <time>2020-07-25T08:09:37Z</time>
      </trkpt>
      <trkpt lat="42.8022780" lon="0.4626970">
        <ele>1582.4</ele>
        <time>2020-07-25T08:09:43Z</time>
      </trkpt>
      <trkpt lat="42.8022760" lon="0.4626770">
        <ele>1582.2</ele>
        <time>2020-07-25T08:09:44Z</time>
      </trkpt>
      <trkpt lat="42.8022730" lon="0.4624810">
        <ele>1582.2</ele>
        <time>2020-07-25T08:09:50Z</time>
      </trkpt>
      <trkpt lat="42.8022530" lon="0.4622140">
        <ele>1582.0</ele>
        <time>2020-07-25T08:09:55Z</time>
      </trkpt>
      <trkpt lat="42.8022480" lon="0.4621620">
        <ele>1582.0</ele>
        <time>2020-07-25T08:09:56Z</time>
      </trkpt>
      <trkpt lat="42.8022400" lon="0.4620330">
        <ele>1581.4</ele>
        <time>2020-07-25T08:09:59Z</time>
      </trkpt>
      <trkpt lat="42.8022260" lon="0.4619300">
        <ele>1581.2</ele>
        <time>2020-07-25T08:10:01Z</time>
      </trkpt>
      <trkpt lat="42.8022220" lon="0.4618880">
        <ele>1581.0</ele>
        <time>2020-07-25T08:10:02Z</time>
      </trkpt>
      <trkpt lat="42.8022150" lon="0.4618280">
        <ele>1580.8</ele>
        <time>2020-07-25T08:10:06Z</time>
      </trkpt>
      <trkpt lat="42.8022250" lon="0.4618550">
        <ele>1580.4</ele>
        <time>2020-07-25T08:20:01Z</time>
      </trkpt>
      <trkpt lat="42.8022250" lon="0.4618570">
        <ele>1580.4</ele>
        <time>2020-07-25T08:20:02Z</time>
      </trkpt>
      <trkpt lat="42.8022110" lon="0.4618170">
        <ele>1580.2</ele>
        <time>2020-07-25T08:20:05Z</time>
      </trkpt>
      <trkpt lat="42.8022060" lon="0.4617840">
        <ele>1580.0</ele>
        <time>2020-07-25T08:20:06Z</time>
      </trkpt>
      <trkpt lat="42.8022020" lon="0.4617520">
        <ele>1580.0</ele>
        <time>2020-07-25T08:20:07Z</time>
      </trkpt>
      <trkpt lat="42.8021740" lon="0.4615450">
        <ele>1579.8</ele>
        <time>2020-07-25T08:20:11Z</time>
      </trkpt>
      <trkpt lat="42.8021490" lon="0.4613150">
        <ele>1579.4</ele>
        <time>2020-07-25T08:20:14Z</time>
      </trkpt>
      <trkpt lat="42.8021420" lon="0.4612320">
        <ele>1579.2</ele>
        <time>2020-07-25T08:20:15Z</time>
      </trkpt>
      <trkpt lat="42.8021330" lon="0.4611450">
        <ele>1579.0</ele>
        <time>2020-07-25T08:20:16Z</time>
      </trkpt>
      <trkpt lat="42.8021220" lon="0.4610540">
        <ele>1578.8</ele>
        <time>2020-07-25T08:20:17Z</time>
      </trkpt>
      <trkpt lat="42.8020650" lon="0.4605590">
        <ele>1577.6</ele>
        <time>2020-07-25T08:20:22Z</time>
      </trkpt>
      <trkpt lat="42.8020410" lon="0.4603300">
        <ele>1576.4</ele>
        <time>2020-07-25T08:20:24Z</time>
      </trkpt>
      <trkpt lat="42.8020120" lon="0.4600880">
        <ele>1575.2</ele>
        <time>2020-07-25T08:20:26Z</time>
      </trkpt>
      <trkpt lat="42.8019790" lon="0.4598370">
        <ele>1574.4</ele>
        <time>2020-07-25T08:20:28Z</time>
      </trkpt>
      <trkpt lat="42.8019630" lon="0.4597080">
        <ele>1573.8</ele>
        <time>2020-07-25T08:20:29Z</time>
      </trkpt>
      <trkpt lat="42.8019280" lon="0.4594460">
        <ele>1572.6</ele>
        <time>2020-07-25T08:20:31Z</time>
      </trkpt>
      <trkpt lat="42.8019030" lon="0.4591790">
        <ele>1571.2</ele>
        <time>2020-07-25T08:20:33Z</time>
      </trkpt>
      <trkpt lat="42.8018930" lon="0.4590420">
        <ele>1570.4</ele>
        <time>2020-07-25T08:20:34Z</time>
      </trkpt>
      <trkpt lat="42.8018840" lon="0.4589090">
        <ele>1569.8</ele>
        <time>2020-07-25T08:20:35Z</time>
      </trkpt>
      <trkpt lat="42.8018670" lon="0.4586670">
        <ele>1568.4</ele>
        <time>2020-07-25T08:20:37Z</time>
      </trkpt>
      <trkpt lat="42.8018520" lon="0.4584380">
        <ele>1567.0</ele>
        <time>2020-07-25T08:20:39Z</time>
      </trkpt>
      <trkpt lat="42.8018330" lon="0.4581830">
        <ele>1565.4</ele>
        <time>2020-07-25T08:20:41Z</time>
      </trkpt>
      <trkpt lat="42.8018210" lon="0.4580450">
        <ele>1564.2</ele>
        <time>2020-07-25T08:20:42Z</time>
      </trkpt>
      <trkpt lat="42.8018050" lon="0.4578960">
        <ele>1563.2</ele>
        <time>2020-07-25T08:20:43Z</time>
      </trkpt>
      <trkpt lat="42.8017840" lon="0.4577450">
        <ele>1562.2</ele>
        <time>2020-07-25T08:20:44Z</time>
      </trkpt>
      <trkpt lat="42.8017620" lon="0.4575980">
        <ele>1561.0</ele>
        <time>2020-07-25T08:20:45Z</time>
      </trkpt>
      <trkpt lat="42.8017410" lon="0.4574580">
        <ele>1559.6</ele>
        <time>2020-07-25T08:20:46Z</time>
      </trkpt>
      <trkpt lat="42.8017150" lon="0.4571820">
        <ele>1558.0</ele>
        <time>2020-07-25T08:20:48Z</time>
      </trkpt>
      <trkpt lat="42.8017140" lon="0.4570440">
        <ele>1557.2</ele>
        <time>2020-07-25T08:20:49Z</time>
      </trkpt>
      <trkpt lat="42.8017230" lon="0.4569010">
        <ele>1556.2</ele>
        <time>2020-07-25T08:20:50Z</time>
      </trkpt>
      <trkpt lat="42.8017600" lon="0.4566010">
        <ele>1554.8</ele>
        <time>2020-07-25T08:20:52Z</time>
      </trkpt>
      <trkpt lat="42.8018020" lon="0.4562760">
        <ele>1552.4</ele>
        <time>2020-07-25T08:20:54Z</time>
      </trkpt>
      <trkpt lat="42.8018210" lon="0.4561020">
        <ele>1550.8</ele>
        <time>2020-07-25T08:20:55Z</time>
      </trkpt>
      <trkpt lat="42.8018380" lon="0.4559220">
        <ele>1549.6</ele>
        <time>2020-07-25T08:20:56Z</time>
      </trkpt>
      <trkpt lat="42.8018530" lon="0.4557350">
        <ele>1548.0</ele>
        <time>2020-07-25T08:20:57Z</time>
      </trkpt>
      <trkpt lat="42.8018660" lon="0.4555470">
        <ele>1546.4</ele>
        <time>2020-07-25T08:20:58Z</time>
      </trkpt>
      <trkpt lat="42.8018780" lon="0.4553620">
        <ele>1545.0</ele>
        <time>2020-07-25T08:20:59Z</time>
      </trkpt>
      <trkpt lat="42.8019200" lon="0.4550140">
        <ele>1543.2</ele>
        <time>2020-07-25T08:21:01Z</time>
      </trkpt>
      <trkpt lat="42.8019500" lon="0.4548440">
        <ele>1541.8</ele>
        <time>2020-07-25T08:21:02Z</time>
      </trkpt>
      <trkpt lat="42.8019790" lon="0.4546770">
        <ele>1540.6</ele>
        <time>2020-07-25T08:21:03Z</time>
      </trkpt>
      <trkpt lat="42.8020020" lon="0.4545070">
        <ele>1539.6</ele>
        <time>2020-07-25T08:21:04Z</time>
      </trkpt>
      <trkpt lat="42.8020190" lon="0.4543350">
        <ele>1538.6</ele>
        <time>2020-07-25T08:21:05Z</time>
      </trkpt>
      <trkpt lat="42.8020300" lon="0.4541640">
        <ele>1537.2</ele>
        <time>2020-07-25T08:21:06Z</time>
      </trkpt>
      <trkpt lat="42.8020330" lon="0.4539940">
        <ele>1536.0</ele>
        <time>2020-07-25T08:21:07Z</time>
      </trkpt>
      <trkpt lat="42.8020360" lon="0.4538210">
        <ele>1534.6</ele>
        <time>2020-07-25T08:21:08Z</time>
      </trkpt>
      <trkpt lat="42.8020420" lon="0.4536490">
        <ele>1533.4</ele>
        <time>2020-07-25T08:21:09Z</time>
      </trkpt>
      <trkpt lat="42.8020540" lon="0.4534840">
        <ele>1532.2</ele>
        <time>2020-07-25T08:21:10Z</time>
      </trkpt>
      <trkpt lat="42.8020770" lon="0.4533310">
        <ele>1530.8</ele>
        <time>2020-07-25T08:21:11Z</time>
      </trkpt>
      <trkpt lat="42.8021120" lon="0.4531860">
        <ele>1529.6</ele>
        <time>2020-07-25T08:21:12Z</time>
      </trkpt>
      <trkpt lat="42.8021650" lon="0.4530520">
        <ele>1528.6</ele>
        <time>2020-07-25T08:21:13Z</time>
      </trkpt>
      <trkpt lat="42.8022240" lon="0.4529250">
        <ele>1527.6</ele>
        <time>2020-07-25T08:21:14Z</time>
      </trkpt>
      <trkpt lat="42.8022770" lon="0.4528000">
        <ele>1526.8</ele>
        <time>2020-07-25T08:21:15Z</time>
      </trkpt>
      <trkpt lat="42.8023190" lon="0.4526670">
        <ele>1526.0</ele>
        <time>2020-07-25T08:21:16Z</time>
      </trkpt>
      <trkpt lat="42.8023410" lon="0.4525290">
        <ele>1525.0</ele>
        <time>2020-07-25T08:21:17Z</time>
      </trkpt>
      <trkpt lat="42.8023500" lon="0.4523850">
        <ele>1523.6</ele>
        <time>2020-07-25T08:21:18Z</time>
      </trkpt>
      <trkpt lat="42.8023450" lon="0.4522380">
        <ele>1522.8</ele>
        <time>2020-07-25T08:21:19Z</time>
      </trkpt>
      <trkpt lat="42.8023380" lon="0.4520840">
        <ele>1522.0</ele>
        <time>2020-07-25T08:21:20Z</time>
      </trkpt>
      <trkpt lat="42.8023310" lon="0.4517630">
        <ele>1521.4</ele>
        <time>2020-07-25T08:21:22Z</time>
      </trkpt>
      <trkpt lat="42.8023300" lon="0.4515990">
        <ele>1520.8</ele>
        <time>2020-07-25T08:21:23Z</time>
      </trkpt>
      <trkpt lat="42.8023070" lon="0.4512620">
        <ele>1518.4</ele>
        <time>2020-07-25T08:21:25Z</time>
      </trkpt>
      <trkpt lat="42.8022860" lon="0.4510910">
        <ele>1516.4</ele>
        <time>2020-07-25T08:21:26Z</time>
      </trkpt>
      <trkpt lat="42.8022610" lon="0.4509170">
        <ele>1514.6</ele>
        <time>2020-07-25T08:21:27Z</time>
      </trkpt>
      <trkpt lat="42.8022340" lon="0.4507470">
        <ele>1513.0</ele>
        <time>2020-07-25T08:21:28Z</time>
      </trkpt>
      <trkpt lat="42.8022030" lon="0.4505740">
        <ele>1511.6</ele>
        <time>2020-07-25T08:21:29Z</time>
      </trkpt>
      <trkpt lat="42.8021650" lon="0.4504010">
        <ele>1510.4</ele>
        <time>2020-07-25T08:21:30Z</time>
      </trkpt>
      <trkpt lat="42.8021190" lon="0.4502290">
        <ele>1509.4</ele>
        <time>2020-07-25T08:21:31Z</time>
      </trkpt>
      <trkpt lat="42.8020650" lon="0.4500580">
        <ele>1507.8</ele>
        <time>2020-07-25T08:21:32Z</time>
      </trkpt>
      <trkpt lat="42.8020110" lon="0.4498950">
        <ele>1506.4</ele>
        <time>2020-07-25T08:21:33Z</time>
      </trkpt>
      <trkpt lat="42.8019580" lon="0.4497350">
        <ele>1505.0</ele>
        <time>2020-07-25T08:21:34Z</time>
      </trkpt>
      <trkpt lat="42.8019110" lon="0.4495760">
        <ele>1504.0</ele>
        <time>2020-07-25T08:21:35Z</time>
      </trkpt>
      <trkpt lat="42.8018730" lon="0.4494230">
        <ele>1503.0</ele>
        <time>2020-07-25T08:21:36Z</time>
      </trkpt>
      <trkpt lat="42.8018440" lon="0.4492720">
        <ele>1501.6</ele>
        <time>2020-07-25T08:21:37Z</time>
      </trkpt>
      <trkpt lat="42.8018240" lon="0.4491190">
        <ele>1500.6</ele>
        <time>2020-07-25T08:21:38Z</time>
      </trkpt>
      <trkpt lat="42.8018170" lon="0.4489640">
        <ele>1499.8</ele>
        <time>2020-07-25T08:21:39Z</time>
      </trkpt>
      <trkpt lat="42.8018200" lon="0.4488080">
        <ele>1499.0</ele>
        <time>2020-07-25T08:21:40Z</time>
      </trkpt>
      <trkpt lat="42.8018360" lon="0.4484850">
        <ele>1497.0</ele>
        <time>2020-07-25T08:21:42Z</time>
      </trkpt>
      <trkpt lat="42.8018470" lon="0.4483220">
        <ele>1496.0</ele>
        <time>2020-07-25T08:21:43Z</time>
      </trkpt>
      <trkpt lat="42.8018590" lon="0.4481550">
        <ele>1494.8</ele>
        <time>2020-07-25T08:21:44Z</time>
      </trkpt>
      <trkpt lat="42.8018720" lon="0.4479860">
        <ele>1493.2</ele>
        <time>2020-07-25T08:21:45Z</time>
      </trkpt>
      <trkpt lat="42.8018850" lon="0.4478150">
        <ele>1491.8</ele>
        <time>2020-07-25T08:21:46Z</time>
      </trkpt>
      <trkpt lat="42.8018990" lon="0.4476430">
        <ele>1490.6</ele>
        <time>2020-07-25T08:21:47Z</time>
      </trkpt>
      <trkpt lat="42.8019110" lon="0.4474730">
        <ele>1489.4</ele>
        <time>2020-07-25T08:21:48Z</time>
      </trkpt>
      <trkpt lat="42.8019230" lon="0.4473020">
        <ele>1488.4</ele>
        <time>2020-07-25T08:21:49Z</time>
      </trkpt>
      <trkpt lat="42.8019360" lon="0.4471340">
        <ele>1487.2</ele>
        <time>2020-07-25T08:21:50Z</time>
      </trkpt>
      <trkpt lat="42.8019560" lon="0.4467880">
        <ele>1485.4</ele>
        <time>2020-07-25T08:21:52Z</time>
      </trkpt>
      <trkpt lat="42.8019640" lon="0.4466120">
        <ele>1484.2</ele>
        <time>2020-07-25T08:21:53Z</time>
      </trkpt>
      <trkpt lat="42.8019720" lon="0.4464330">
        <ele>1482.8</ele>
        <time>2020-07-25T08:21:54Z</time>
      </trkpt>
      <trkpt lat="42.8019780" lon="0.4462510">
        <ele>1481.6</ele>
        <time>2020-07-25T08:21:55Z</time>
      </trkpt>
      <trkpt lat="42.8019860" lon="0.4460660">
        <ele>1480.6</ele>
        <time>2020-07-25T08:21:56Z</time>
      </trkpt>
      <trkpt lat="42.8019950" lon="0.4458790">
        <ele>1479.2</ele>
        <time>2020-07-25T08:21:57Z</time>
      </trkpt>
      <trkpt lat="42.8020050" lon="0.4456910">
        <ele>1478.0</ele>
        <time>2020-07-25T08:21:58Z</time>
      </trkpt>
      <trkpt lat="42.8020140" lon="0.4455040">
        <ele>1476.6</ele>
        <time>2020-07-25T08:21:59Z</time>
      </trkpt>
      <trkpt lat="42.8020230" lon="0.4453190">
        <ele>1475.2</ele>
        <time>2020-07-25T08:22:00Z</time>
      </trkpt>
      <trkpt lat="42.8020290" lon="0.4451430">
        <ele>1474.0</ele>
        <time>2020-07-25T08:22:01Z</time>
      </trkpt>
      <trkpt lat="42.8020350" lon="0.4449790">
        <ele>1473.0</ele>
        <time>2020-07-25T08:22:02Z</time>
      </trkpt>
      <trkpt lat="42.8020390" lon="0.4448260">
        <ele>1471.8</ele>
        <time>2020-07-25T08:22:03Z</time>
      </trkpt>
      <trkpt lat="42.8020470" lon="0.4446800">
        <ele>1470.8</ele>
        <time>2020-07-25T08:22:04Z</time>
      </trkpt>
      <trkpt lat="42.8020610" lon="0.4445340">
        <ele>1470.0</ele>
        <time>2020-07-25T08:22:05Z</time>
      </trkpt>
      <trkpt lat="42.8020830" lon="0.4443900">
        <ele>1469.2</ele>
        <time>2020-07-25T08:22:06Z</time>
      </trkpt>
      <trkpt lat="42.8021220" lon="0.4441290">
        <ele>1467.6</ele>
        <time>2020-07-25T08:22:08Z</time>
      </trkpt>
      <trkpt lat="42.8020840" lon="0.4438840">
        <ele>1466.2</ele>
        <time>2020-07-25T08:22:10Z</time>
      </trkpt>
      <trkpt lat="42.8020350" lon="0.4437650">
        <ele>1465.0</ele>
        <time>2020-07-25T08:22:11Z</time>
      </trkpt>
      <trkpt lat="42.8019730" lon="0.4436470">
        <ele>1463.8</ele>
        <time>2020-07-25T08:22:12Z</time>
      </trkpt>
      <trkpt lat="42.8018470" lon="0.4434320">
        <ele>1462.0</ele>
        <time>2020-07-25T08:22:14Z</time>
      </trkpt>
      <trkpt lat="42.8017920" lon="0.4433380">
        <ele>1461.4</ele>
        <time>2020-07-25T08:22:15Z</time>
      </trkpt>
      <trkpt lat="42.8017400" lon="0.4432470">
        <ele>1460.8</ele>
        <time>2020-07-25T08:22:16Z</time>
      </trkpt>
      <trkpt lat="42.8016460" lon="0.4430460">
        <ele>1459.4</ele>
        <time>2020-07-25T08:22:18Z</time>
      </trkpt>
      <trkpt lat="42.8016080" lon="0.4429290">
        <ele>1458.6</ele>
        <time>2020-07-25T08:22:19Z</time>
      </trkpt>
      <trkpt lat="42.8015760" lon="0.4428020">
        <ele>1457.6</ele>
        <time>2020-07-25T08:22:20Z</time>
      </trkpt>
      <trkpt lat="42.8015290" lon="0.4425290">
        <ele>1455.4</ele>
        <time>2020-07-25T08:22:22Z</time>
      </trkpt>
      <trkpt lat="42.8015090" lon="0.4423860">
        <ele>1454.2</ele>
        <time>2020-07-25T08:22:23Z</time>
      </trkpt>
      <trkpt lat="42.8014650" lon="0.4420890">
        <ele>1452.2</ele>
        <time>2020-07-25T08:22:25Z</time>
      </trkpt>
      <trkpt lat="42.8014390" lon="0.4419390">
        <ele>1451.0</ele>
        <time>2020-07-25T08:22:26Z</time>
      </trkpt>
      <trkpt lat="42.8014010" lon="0.4417910">
        <ele>1450.0</ele>
        <time>2020-07-25T08:22:27Z</time>
      </trkpt>
      <trkpt lat="42.8013460" lon="0.4416490">
        <ele>1449.0</ele>
        <time>2020-07-25T08:22:28Z</time>
      </trkpt>
      <trkpt lat="42.8012780" lon="0.4415140">
        <ele>1448.0</ele>
        <time>2020-07-25T08:22:29Z</time>
      </trkpt>
      <trkpt lat="42.8012110" lon="0.4413910">
        <ele>1447.0</ele>
        <time>2020-07-25T08:22:30Z</time>
      </trkpt>
      <trkpt lat="42.8011540" lon="0.4412650">
        <ele>1446.0</ele>
        <time>2020-07-25T08:22:31Z</time>
      </trkpt>
      <trkpt lat="42.8010790" lon="0.4409990">
        <ele>1444.6</ele>
        <time>2020-07-25T08:22:33Z</time>
      </trkpt>
      <trkpt lat="42.8010630" lon="0.4408570">
        <ele>1443.8</ele>
        <time>2020-07-25T08:22:34Z</time>
      </trkpt>
      <trkpt lat="42.8010570" lon="0.4407120">
        <ele>1443.0</ele>
        <time>2020-07-25T08:22:35Z</time>
      </trkpt>
      <trkpt lat="42.8010470" lon="0.4402550">
        <ele>1441.8</ele>
        <time>2020-07-25T08:22:38Z</time>
      </trkpt>
      <trkpt lat="42.8010350" lon="0.4401000">
        <ele>1441.4</ele>
        <time>2020-07-25T08:22:39Z</time>
      </trkpt>
      <trkpt lat="42.8010190" lon="0.4399400">
        <ele>1440.6</ele>
        <time>2020-07-25T08:22:40Z</time>
      </trkpt>
      <trkpt lat="42.8009760" lon="0.4396210">
        <ele>1438.4</ele>
        <time>2020-07-25T08:22:42Z</time>
      </trkpt>
      <trkpt lat="42.8009550" lon="0.4394630">
        <ele>1437.2</ele>
        <time>2020-07-25T08:22:43Z</time>
      </trkpt>
      <trkpt lat="42.8009360" lon="0.4393030">
        <ele>1436.0</ele>
        <time>2020-07-25T08:22:44Z</time>
      </trkpt>
      <trkpt lat="42.8009230" lon="0.4391450">
        <ele>1434.8</ele>
        <time>2020-07-25T08:22:45Z</time>
      </trkpt>
      <trkpt lat="42.8009080" lon="0.4388250">
        <ele>1433.2</ele>
        <time>2020-07-25T08:22:47Z</time>
      </trkpt>
      <trkpt lat="42.8008930" lon="0.4383370">
        <ele>1431.8</ele>
        <time>2020-07-25T08:22:50Z</time>
      </trkpt>
      <trkpt lat="42.8008910" lon="0.4381720">
        <ele>1431.4</ele>
        <time>2020-07-25T08:22:51Z</time>
      </trkpt>
      <trkpt lat="42.8008890" lon="0.4380040">
        <ele>1431.0</ele>
        <time>2020-07-25T08:22:52Z</time>
      </trkpt>
      <trkpt lat="42.8008890" lon="0.4378360">
        <ele>1430.6</ele>
        <time>2020-07-25T08:22:53Z</time>
      </trkpt>
      <trkpt lat="42.8008860" lon="0.4375010">
        <ele>1429.4</ele>
        <time>2020-07-25T08:22:55Z</time>
      </trkpt>
      <trkpt lat="42.8008750" lon="0.4371620">
        <ele>1427.8</ele>
        <time>2020-07-25T08:22:57Z</time>
      </trkpt>
      <trkpt lat="42.8008610" lon="0.4368220">
        <ele>1425.6</ele>
        <time>2020-07-25T08:22:59Z</time>
      </trkpt>
      <trkpt lat="42.8008590" lon="0.4366510">
        <ele>1424.4</ele>
        <time>2020-07-25T08:23:00Z</time>
      </trkpt>
      <trkpt lat="42.8008810" lon="0.4363070">
        <ele>1422.8</ele>
        <time>2020-07-25T08:23:02Z</time>
      </trkpt>
      <trkpt lat="42.8009370" lon="0.4359680">
        <ele>1420.8</ele>
        <time>2020-07-25T08:23:04Z</time>
      </trkpt>
      <trkpt lat="42.8010060" lon="0.4356310">
        <ele>1419.4</ele>
        <time>2020-07-25T08:23:06Z</time>
      </trkpt>
      <trkpt lat="42.8010400" lon="0.4354630">
        <ele>1418.2</ele>
        <time>2020-07-25T08:23:07Z</time>
      </trkpt>
      <trkpt lat="42.8010690" lon="0.4352910">
        <ele>1417.2</ele>
        <time>2020-07-25T08:23:08Z</time>
      </trkpt>
      <trkpt lat="42.8010960" lon="0.4351190">
        <ele>1416.2</ele>
        <time>2020-07-25T08:23:09Z</time>
      </trkpt>
      <trkpt lat="42.8011380" lon="0.4347700">
        <ele>1414.0</ele>
        <time>2020-07-25T08:23:11Z</time>
      </trkpt>
      <trkpt lat="42.8011540" lon="0.4345930">
        <ele>1412.6</ele>
        <time>2020-07-25T08:23:12Z</time>
      </trkpt>
      <trkpt lat="42.8011720" lon="0.4344200">
        <ele>1411.6</ele>
        <time>2020-07-25T08:23:13Z</time>
      </trkpt>
      <trkpt lat="42.8012230" lon="0.4340720">
        <ele>1410.2</ele>
        <time>2020-07-25T08:23:15Z</time>
      </trkpt>
      <trkpt lat="42.8012560" lon="0.4339010">
        <ele>1409.6</ele>
        <time>2020-07-25T08:23:16Z</time>
      </trkpt>
      <trkpt lat="42.8012890" lon="0.4337290">
        <ele>1408.6</ele>
        <time>2020-07-25T08:23:17Z</time>
      </trkpt>
      <trkpt lat="42.8013440" lon="0.4333770">
        <ele>1406.6</ele>
        <time>2020-07-25T08:23:19Z</time>
      </trkpt>
      <trkpt lat="42.8013650" lon="0.4331970">
        <ele>1405.4</ele>
        <time>2020-07-25T08:23:20Z</time>
      </trkpt>
      <trkpt lat="42.8013800" lon="0.4330140">
        <ele>1404.0</ele>
        <time>2020-07-25T08:23:21Z</time>
      </trkpt>
      <trkpt lat="42.8013900" lon="0.4328320">
        <ele>1403.0</ele>
        <time>2020-07-25T08:23:22Z</time>
      </trkpt>
      <trkpt lat="42.8013970" lon="0.4326610">
        <ele>1401.8</ele>
        <time>2020-07-25T08:23:23Z</time>
      </trkpt>
      <trkpt lat="42.8014020" lon="0.4324990">
        <ele>1400.6</ele>
        <time>2020-07-25T08:23:24Z</time>
      </trkpt>
      <trkpt lat="42.8014060" lon="0.4323400">
        <ele>1399.6</ele>
        <time>2020-07-25T08:23:25Z</time>
      </trkpt>
      <trkpt lat="42.8014100" lon="0.4321800">
        <ele>1398.6</ele>
        <time>2020-07-25T08:23:26Z</time>
      </trkpt>
      <trkpt lat="42.8014240" lon="0.4318580">
        <ele>1396.8</ele>
        <time>2020-07-25T08:23:28Z</time>
      </trkpt>
      <trkpt lat="42.8014590" lon="0.4315450">
        <ele>1395.0</ele>
        <time>2020-07-25T08:23:30Z</time>
      </trkpt>
      <trkpt lat="42.8014870" lon="0.4313900">
        <ele>1394.0</ele>
        <time>2020-07-25T08:23:31Z</time>
      </trkpt>
      <trkpt lat="42.8015220" lon="0.4312350">
        <ele>1393.2</ele>
        <time>2020-07-25T08:23:32Z</time>
      </trkpt>
      <trkpt lat="42.8016160" lon="0.4309320">
        <ele>1391.2</ele>
        <time>2020-07-25T08:23:34Z</time>
      </trkpt>
      <trkpt lat="42.8016660" lon="0.4307840">
        <ele>1390.8</ele>
        <time>2020-07-25T08:23:35Z</time>
      </trkpt>
      <trkpt lat="42.8017110" lon="0.4306370">
        <ele>1390.2</ele>
        <time>2020-07-25T08:23:36Z</time>
      </trkpt>
      <trkpt lat="42.8017840" lon="0.4303300">
        <ele>1389.0</ele>
        <time>2020-07-25T08:23:38Z</time>
      </trkpt>
      <trkpt lat="42.8018080" lon="0.4301730">
        <ele>1388.4</ele>
        <time>2020-07-25T08:23:39Z</time>
      </trkpt>
      <trkpt lat="42.8018190" lon="0.4300190">
        <ele>1387.8</ele>
        <time>2020-07-25T08:23:40Z</time>
      </trkpt>
      <trkpt lat="42.8018120" lon="0.4297150">
        <ele>1387.2</ele>
        <time>2020-07-25T08:23:42Z</time>
      </trkpt>
      <trkpt lat="42.8018130" lon="0.4292720">
        <ele>1386.6</ele>
        <time>2020-07-25T08:23:45Z</time>
      </trkpt>
      <trkpt lat="42.8018240" lon="0.4291250">
        <ele>1386.0</ele>
        <time>2020-07-25T08:23:46Z</time>
      </trkpt>
      <trkpt lat="42.8018390" lon="0.4289800">
        <ele>1385.4</ele>
        <time>2020-07-25T08:23:47Z</time>
      </trkpt>
      <trkpt lat="42.8018720" lon="0.4286920">
        <ele>1384.0</ele>
        <time>2020-07-25T08:23:49Z</time>
      </trkpt>
      <trkpt lat="42.8019740" lon="0.4282640">
        <ele>1382.8</ele>
        <time>2020-07-25T08:23:52Z</time>
      </trkpt>
      <trkpt lat="42.8020540" lon="0.4279750">
        <ele>1381.4</ele>
        <time>2020-07-25T08:23:54Z</time>
      </trkpt>
      <trkpt lat="42.8020860" lon="0.4278230">
        <ele>1380.4</ele>
        <time>2020-07-25T08:23:55Z</time>
      </trkpt>
      <trkpt lat="42.8021110" lon="0.4276630">
        <ele>1379.0</ele>
        <time>2020-07-25T08:23:56Z</time>
      </trkpt>
      <trkpt lat="42.8021310" lon="0.4274980">
        <ele>1377.8</ele>
        <time>2020-07-25T08:23:57Z</time>
      </trkpt>
      <trkpt lat="42.8021690" lon="0.4271610">
        <ele>1375.8</ele>
        <time>2020-07-25T08:23:59Z</time>
      </trkpt>
      <trkpt lat="42.8021970" lon="0.4269880">
        <ele>1374.6</ele>
        <time>2020-07-25T08:24:00Z</time>
      </trkpt>
      <trkpt lat="42.8022370" lon="0.4268160">
        <ele>1373.4</ele>
        <time>2020-07-25T08:24:01Z</time>
      </trkpt>
      <trkpt lat="42.8022860" lon="0.4266460">
        <ele>1372.6</ele>
        <time>2020-07-25T08:24:02Z</time>
      </trkpt>
      <trkpt lat="42.8023420" lon="0.4264790">
        <ele>1371.6</ele>
        <time>2020-07-25T08:24:03Z</time>
      </trkpt>
      <trkpt lat="42.8024460" lon="0.4261350">
        <ele>1369.4</ele>
        <time>2020-07-25T08:24:05Z</time>
      </trkpt>
      <trkpt lat="42.8024900" lon="0.4259670">
        <ele>1367.8</ele>
        <time>2020-07-25T08:24:06Z</time>
      </trkpt>
      <trkpt lat="42.8025290" lon="0.4258120">
        <ele>1366.2</ele>
        <time>2020-07-25T08:24:07Z</time>
      </trkpt>
      <trkpt lat="42.8025690" lon="0.4256740">
        <ele>1364.8</ele>
        <time>2020-07-25T08:24:08Z</time>
      </trkpt>
      <trkpt lat="42.8026160" lon="0.4255510">
        <ele>1363.8</ele>
        <time>2020-07-25T08:24:09Z</time>
      </trkpt>
      <trkpt lat="42.8026800" lon="0.4254490">
        <ele>1362.8</ele>
        <time>2020-07-25T08:24:10Z</time>
      </trkpt>
      <trkpt lat="42.8027550" lon="0.4253620">
        <ele>1362.2</ele>
        <time>2020-07-25T08:24:11Z</time>
      </trkpt>
      <trkpt lat="42.8029370" lon="0.4252040">
        <ele>1360.2</ele>
        <time>2020-07-25T08:24:13Z</time>
      </trkpt>
      <trkpt lat="42.8031410" lon="0.4250510">
        <ele>1358.0</ele>
        <time>2020-07-25T08:24:15Z</time>
      </trkpt>
      <trkpt lat="42.8032490" lon="0.4249740">
        <ele>1356.8</ele>
        <time>2020-07-25T08:24:16Z</time>
      </trkpt>
      <trkpt lat="42.8034770" lon="0.4248240">
        <ele>1354.8</ele>
        <time>2020-07-25T08:24:18Z</time>
      </trkpt>
      <trkpt lat="42.8035940" lon="0.4247490">
        <ele>1353.6</ele>
        <time>2020-07-25T08:24:19Z</time>
      </trkpt>
      <trkpt lat="42.8037130" lon="0.4246800">
        <ele>1352.2</ele>
        <time>2020-07-25T08:24:20Z</time>
      </trkpt>
      <trkpt lat="42.8038350" lon="0.4246210">
        <ele>1351.0</ele>
        <time>2020-07-25T08:24:21Z</time>
      </trkpt>
      <trkpt lat="42.8039530" lon="0.4245700">
        <ele>1349.6</ele>
        <time>2020-07-25T08:24:22Z</time>
      </trkpt>
      <trkpt lat="42.8040730" lon="0.4245320">
        <ele>1348.2</ele>
        <time>2020-07-25T08:24:23Z</time>
      </trkpt>
      <trkpt lat="42.8042000" lon="0.4245120">
        <ele>1347.0</ele>
        <time>2020-07-25T08:24:24Z</time>
      </trkpt>
      <trkpt lat="42.8043320" lon="0.4245170">
        <ele>1346.0</ele>
        <time>2020-07-25T08:24:25Z</time>
      </trkpt>
      <trkpt lat="42.8044680" lon="0.4245370">
        <ele>1344.8</ele>
        <time>2020-07-25T08:24:26Z</time>
      </trkpt>
      <trkpt lat="42.8046030" lon="0.4245550">
        <ele>1343.8</ele>
        <time>2020-07-25T08:24:27Z</time>
      </trkpt>
      <trkpt lat="42.8047430" lon="0.4245840">
        <ele>1342.6</ele>
        <time>2020-07-25T08:24:28Z</time>
      </trkpt>
      <trkpt lat="42.8050270" lon="0.4246260">
        <ele>1340.8</ele>
        <time>2020-07-25T08:24:30Z</time>
      </trkpt>
      <trkpt lat="42.8051700" lon="0.4246420">
        <ele>1339.4</ele>
        <time>2020-07-25T08:24:31Z</time>
      </trkpt>
      <trkpt lat="42.8053150" lon="0.4246550">
        <ele>1337.8</ele>
        <time>2020-07-25T08:24:32Z</time>
      </trkpt>
      <trkpt lat="42.8054600" lon="0.4246700">
        <ele>1336.4</ele>
        <time>2020-07-25T08:24:33Z</time>
      </trkpt>
      <trkpt lat="42.8056080" lon="0.4246920">
        <ele>1335.2</ele>
        <time>2020-07-25T08:24:34Z</time>
      </trkpt>
      <trkpt lat="42.8057540" lon="0.4247080">
        <ele>1333.6</ele>
        <time>2020-07-25T08:24:35Z</time>
      </trkpt>
      <trkpt lat="42.8059000" lon="0.4247250">
        <ele>1332.2</ele>
        <time>2020-07-25T08:24:36Z</time>
      </trkpt>
      <trkpt lat="42.8060460" lon="0.4247420">
        <ele>1331.0</ele>
        <time>2020-07-25T08:24:37Z</time>
      </trkpt>
      <trkpt lat="42.8061900" lon="0.4247570">
        <ele>1329.6</ele>
        <time>2020-07-25T08:24:38Z</time>
      </trkpt>
      <trkpt lat="42.8063340" lon="0.4247750">
        <ele>1328.4</ele>
        <time>2020-07-25T08:24:39Z</time>
      </trkpt>
      <trkpt lat="42.8064780" lon="0.4247970">
        <ele>1327.2</ele>
        <time>2020-07-25T08:24:40Z</time>
      </trkpt>
      <trkpt lat="42.8066220" lon="0.4248200">
        <ele>1326.0</ele>
        <time>2020-07-25T08:24:41Z</time>
      </trkpt>
      <trkpt lat="42.8067680" lon="0.4248470">
        <ele>1325.0</ele>
        <time>2020-07-25T08:24:42Z</time>
      </trkpt>
      <trkpt lat="42.8069150" lon="0.4248760">
        <ele>1323.8</ele>
        <time>2020-07-25T08:24:43Z</time>
      </trkpt>
      <trkpt lat="42.8070620" lon="0.4249110">
        <ele>1322.4</ele>
        <time>2020-07-25T08:24:44Z</time>
      </trkpt>
      <trkpt lat="42.8072090" lon="0.4249530">
        <ele>1320.8</ele>
        <time>2020-07-25T08:24:45Z</time>
      </trkpt>
      <trkpt lat="42.8073530" lon="0.4250000">
        <ele>1319.4</ele>
        <time>2020-07-25T08:24:46Z</time>
      </trkpt>
      <trkpt lat="42.8074930" lon="0.4250520">
        <ele>1318.2</ele>
        <time>2020-07-25T08:24:47Z</time>
      </trkpt>
      <trkpt lat="42.8077680" lon="0.4251590">
        <ele>1316.0</ele>
        <time>2020-07-25T08:24:49Z</time>
      </trkpt>
      <trkpt lat="42.8079060" lon="0.4252150">
        <ele>1314.8</ele>
        <time>2020-07-25T08:24:50Z</time>
      </trkpt>
      <trkpt lat="42.8080440" lon="0.4252720">
        <ele>1313.6</ele>
        <time>2020-07-25T08:24:51Z</time>
      </trkpt>
      <trkpt lat="42.8083040" lon="0.4253730">
        <ele>1311.6</ele>
        <time>2020-07-25T08:24:53Z</time>
      </trkpt>
      <trkpt lat="42.8084290" lon="0.4254280">
        <ele>1310.4</ele>
        <time>2020-07-25T08:24:54Z</time>
      </trkpt>
      <trkpt lat="42.8085490" lon="0.4254900">
        <ele>1309.2</ele>
        <time>2020-07-25T08:24:55Z</time>
      </trkpt>
      <trkpt lat="42.8086650" lon="0.4255620">
        <ele>1307.8</ele>
        <time>2020-07-25T08:24:56Z</time>
      </trkpt>
      <trkpt lat="42.8087740" lon="0.4256460">
        <ele>1306.4</ele>
        <time>2020-07-25T08:24:57Z</time>
      </trkpt>
      <trkpt lat="42.8088760" lon="0.4257490">
        <ele>1305.2</ele>
        <time>2020-07-25T08:24:58Z</time>
      </trkpt>
      <trkpt lat="42.8089710" lon="0.4258690">
        <ele>1304.2</ele>
        <time>2020-07-25T08:24:59Z</time>
      </trkpt>
      <trkpt lat="42.8090600" lon="0.4260030">
        <ele>1303.2</ele>
        <time>2020-07-25T08:25:00Z</time>
      </trkpt>
      <trkpt lat="42.8091450" lon="0.4261410">
        <ele>1302.0</ele>
        <time>2020-07-25T08:25:01Z</time>
      </trkpt>
      <trkpt lat="42.8092380" lon="0.4262740">
        <ele>1300.6</ele>
        <time>2020-07-25T08:25:02Z</time>
      </trkpt>
      <trkpt lat="42.8093280" lon="0.4263960">
        <ele>1299.2</ele>
        <time>2020-07-25T08:25:03Z</time>
      </trkpt>
      <trkpt lat="42.8094210" lon="0.4265010">
        <ele>1298.0</ele>
        <time>2020-07-25T08:25:04Z</time>
      </trkpt>
      <trkpt lat="42.8095180" lon="0.4265880">
        <ele>1297.0</ele>
        <time>2020-07-25T08:25:05Z</time>
      </trkpt>
      <trkpt lat="42.8096180" lon="0.4266570">
        <ele>1296.4</ele>
        <time>2020-07-25T08:25:06Z</time>
      </trkpt>
      <trkpt lat="42.8098330" lon="0.4267840">
        <ele>1294.4</ele>
        <time>2020-07-25T08:25:08Z</time>
      </trkpt>
      <trkpt lat="42.8099430" lon="0.4268620">
        <ele>1293.4</ele>
        <time>2020-07-25T08:25:09Z</time>
      </trkpt>
      <trkpt lat="42.8100470" lon="0.4269590">
        <ele>1292.2</ele>
        <time>2020-07-25T08:25:10Z</time>
      </trkpt>
      <trkpt lat="42.8101550" lon="0.4270530">
        <ele>1290.8</ele>
        <time>2020-07-25T08:25:11Z</time>
      </trkpt>
      <trkpt lat="42.8102590" lon="0.4271420">
        <ele>1289.4</ele>
        <time>2020-07-25T08:25:12Z</time>
      </trkpt>
      <trkpt lat="42.8103700" lon="0.4272200">
        <ele>1288.2</ele>
        <time>2020-07-25T08:25:13Z</time>
      </trkpt>
      <trkpt lat="42.8104920" lon="0.4272840">
        <ele>1287.0</ele>
        <time>2020-07-25T08:25:14Z</time>
      </trkpt>
      <trkpt lat="42.8106230" lon="0.4273320">
        <ele>1285.4</ele>
        <time>2020-07-25T08:25:15Z</time>
      </trkpt>
      <trkpt lat="42.8107520" lon="0.4273810">
        <ele>1284.0</ele>
        <time>2020-07-25T08:25:16Z</time>
      </trkpt>
      <trkpt lat="42.8108760" lon="0.4274340">
        <ele>1282.8</ele>
        <time>2020-07-25T08:25:17Z</time>
      </trkpt>
      <trkpt lat="42.8110000" lon="0.4274950">
        <ele>1281.8</ele>
        <time>2020-07-25T08:25:18Z</time>
      </trkpt>
      <trkpt lat="42.8111220" lon="0.4275600">
        <ele>1280.6</ele>
        <time>2020-07-25T08:25:19Z</time>
      </trkpt>
      <trkpt lat="42.8112430" lon="0.4276370">
        <ele>1279.4</ele>
        <time>2020-07-25T08:25:20Z</time>
      </trkpt>
      <trkpt lat="42.8113620" lon="0.4277230">
        <ele>1278.0</ele>
        <time>2020-07-25T08:25:21Z</time>
      </trkpt>
      <trkpt lat="42.8114780" lon="0.4278160">
        <ele>1276.8</ele>
        <time>2020-07-25T08:25:22Z</time>
      </trkpt>
      <trkpt lat="42.8115940" lon="0.4279100">
        <ele>1275.6</ele>
        <time>2020-07-25T08:25:23Z</time>
      </trkpt>
      <trkpt lat="42.8117150" lon="0.4280010">
        <ele>1274.2</ele>
        <time>2020-07-25T08:25:24Z</time>
      </trkpt>
      <trkpt lat="42.8118400" lon="0.4280870">
        <ele>1272.6</ele>
        <time>2020-07-25T08:25:25Z</time>
      </trkpt>
      <trkpt lat="42.8119660" lon="0.4281670">
        <ele>1271.2</ele>
        <time>2020-07-25T08:25:26Z</time>
      </trkpt>
      <trkpt lat="42.8120900" lon="0.4282370">
        <ele>1269.8</ele>
        <time>2020-07-25T08:25:27Z</time>
      </trkpt>
      <trkpt lat="42.8123280" lon="0.4283520">
        <ele>1268.2</ele>
        <time>2020-07-25T08:25:29Z</time>
      </trkpt>
      <trkpt lat="42.8125700" lon="0.4284570">
        <ele>1266.8</ele>
        <time>2020-07-25T08:25:31Z</time>
      </trkpt>
      <trkpt lat="42.8126940" lon="0.4284850">
        <ele>1265.8</ele>
        <time>2020-07-25T08:25:32Z</time>
      </trkpt>
      <trkpt lat="42.8128070" lon="0.4285020">
        <ele>1264.6</ele>
        <time>2020-07-25T08:25:33Z</time>
      </trkpt>
      <trkpt lat="42.8129050" lon="0.4285230">
        <ele>1263.8</ele>
        <time>2020-07-25T08:25:34Z</time>
      </trkpt>
      <trkpt lat="42.8129950" lon="0.4285290">
        <ele>1263.2</ele>
        <time>2020-07-25T08:25:35Z</time>
      </trkpt>
      <trkpt lat="42.8130720" lon="0.4285180">
        <ele>1262.8</ele>
        <time>2020-07-25T08:25:36Z</time>
      </trkpt>
      <trkpt lat="42.8131330" lon="0.4284710">
        <ele>1262.4</ele>
        <time>2020-07-25T08:25:37Z</time>
      </trkpt>
      <trkpt lat="42.8131680" lon="0.4283850">
        <ele>1262.0</ele>
        <time>2020-07-25T08:25:38Z</time>
      </trkpt>
      <trkpt lat="42.8131760" lon="0.4282880">
        <ele>1261.4</ele>
        <time>2020-07-25T08:25:39Z</time>
      </trkpt>
      <trkpt lat="42.8131490" lon="0.4281700">
        <ele>1260.8</ele>
        <time>2020-07-25T08:25:40Z</time>
      </trkpt>
      <trkpt lat="42.8130980" lon="0.4280620">
        <ele>1260.0</ele>
        <time>2020-07-25T08:25:41Z</time>
      </trkpt>
      <trkpt lat="42.8130270" lon="0.4279970">
        <ele>1259.6</ele>
        <time>2020-07-25T08:25:42Z</time>
      </trkpt>
      <trkpt lat="42.8129250" lon="0.4279380">
        <ele>1259.2</ele>
        <time>2020-07-25T08:25:43Z</time>
      </trkpt>
      <trkpt lat="42.8127360" lon="0.4278940">
        <ele>1258.2</ele>
        <time>2020-07-25T08:25:45Z</time>
      </trkpt>
      <trkpt lat="42.8125490" lon="0.4277910">
        <ele>1256.4</ele>
        <time>2020-07-25T08:25:47Z</time>
      </trkpt>
      <trkpt lat="42.8123670" lon="0.4276260">
        <ele>1254.6</ele>
        <time>2020-07-25T08:25:49Z</time>
      </trkpt>
      <trkpt lat="42.8121960" lon="0.4274040">
        <ele>1252.6</ele>
        <time>2020-07-25T08:25:51Z</time>
      </trkpt>
      <trkpt lat="42.8121140" lon="0.4272850">
        <ele>1251.4</ele>
        <time>2020-07-25T08:25:52Z</time>
      </trkpt>
      <trkpt lat="42.8120360" lon="0.4271600">
        <ele>1250.2</ele>
        <time>2020-07-25T08:25:53Z</time>
      </trkpt>
      <trkpt lat="42.8119600" lon="0.4270040">
        <ele>1248.8</ele>
        <time>2020-07-25T08:25:54Z</time>
      </trkpt>
      <trkpt lat="42.8118990" lon="0.4268410">
        <ele>1247.6</ele>
        <time>2020-07-25T08:25:55Z</time>
      </trkpt>
      <trkpt lat="42.8118530" lon="0.4266670">
        <ele>1246.8</ele>
        <time>2020-07-25T08:25:56Z</time>
      </trkpt>
      <trkpt lat="42.8118170" lon="0.4264890">
        <ele>1245.6</ele>
        <time>2020-07-25T08:25:57Z</time>
      </trkpt>
      <trkpt lat="42.8117810" lon="0.4263000">
        <ele>1244.2</ele>
        <time>2020-07-25T08:25:58Z</time>
      </trkpt>
      <trkpt lat="42.8117390" lon="0.4261090">
        <ele>1242.8</ele>
        <time>2020-07-25T08:25:59Z</time>
      </trkpt>
      <trkpt lat="42.8116920" lon="0.4259300">
        <ele>1241.2</ele>
        <time>2020-07-25T08:26:00Z</time>
      </trkpt>
      <trkpt lat="42.8116420" lon="0.4257640">
        <ele>1239.4</ele>
        <time>2020-07-25T08:26:01Z</time>
      </trkpt>
      <trkpt lat="42.8115880" lon="0.4256170">
        <ele>1238.2</ele>
        <time>2020-07-25T08:26:02Z</time>
      </trkpt>
      <trkpt lat="42.8115290" lon="0.4254900">
        <ele>1237.4</ele>
        <time>2020-07-25T08:26:03Z</time>
      </trkpt>
      <trkpt lat="42.8114630" lon="0.4253810">
        <ele>1236.8</ele>
        <time>2020-07-25T08:26:04Z</time>
      </trkpt>
      <trkpt lat="42.8113830" lon="0.4252870">
        <ele>1236.2</ele>
        <time>2020-07-25T08:26:05Z</time>
      </trkpt>
      <trkpt lat="42.8112950" lon="0.4252060">
        <ele>1235.4</ele>
        <time>2020-07-25T08:26:06Z</time>
      </trkpt>
      <trkpt lat="42.8111980" lon="0.4251410">
        <ele>1234.6</ele>
        <time>2020-07-25T08:26:07Z</time>
      </trkpt>
      <trkpt lat="42.8110890" lon="0.4251040">
        <ele>1233.6</ele>
        <time>2020-07-25T08:26:08Z</time>
      </trkpt>
      <trkpt lat="42.8109840" lon="0.4250750">
        <ele>1232.4</ele>
        <time>2020-07-25T08:26:09Z</time>
      </trkpt>
      <trkpt lat="42.8108880" lon="0.4250450">
        <ele>1231.2</ele>
        <time>2020-07-25T08:26:10Z</time>
      </trkpt>
      <trkpt lat="42.8107380" lon="0.4249310">
        <ele>1230.0</ele>
        <time>2020-07-25T08:26:12Z</time>
      </trkpt>
      <trkpt lat="42.8106690" lon="0.4247260">
        <ele>1228.8</ele>
        <time>2020-07-25T08:26:14Z</time>
      </trkpt>
      <trkpt lat="42.8106440" lon="0.4244970">
        <ele>1227.4</ele>
        <time>2020-07-25T08:26:16Z</time>
      </trkpt>
      <trkpt lat="42.8105940" lon="0.4242140">
        <ele>1225.6</ele>
        <time>2020-07-25T08:26:18Z</time>
      </trkpt>
      <trkpt lat="42.8105490" lon="0.4240690">
        <ele>1224.6</ele>
        <time>2020-07-25T08:26:19Z</time>
      </trkpt>
      <trkpt lat="42.8104960" lon="0.4239350">
        <ele>1223.2</ele>
        <time>2020-07-25T08:26:20Z</time>
      </trkpt>
      <trkpt lat="42.8104250" lon="0.4238060">
        <ele>1221.8</ele>
        <time>2020-07-25T08:26:21Z</time>
      </trkpt>
      <trkpt lat="42.8103540" lon="0.4236710">
        <ele>1220.4</ele>
        <time>2020-07-25T08:26:22Z</time>
      </trkpt>
      <trkpt lat="42.8102820" lon="0.4235330">
        <ele>1219.2</ele>
        <time>2020-07-25T08:26:23Z</time>
      </trkpt>
      <trkpt lat="42.8102080" lon="0.4233890">
        <ele>1218.0</ele>
        <time>2020-07-25T08:26:24Z</time>
      </trkpt>
      <trkpt lat="42.8101340" lon="0.4232400">
        <ele>1216.6</ele>
        <time>2020-07-25T08:26:25Z</time>
      </trkpt>
      <trkpt lat="42.8100620" lon="0.4230900">
        <ele>1215.2</ele>
        <time>2020-07-25T08:26:26Z</time>
      </trkpt>
      <trkpt lat="42.8099330" lon="0.4228040">
        <ele>1213.4</ele>
        <time>2020-07-25T08:26:28Z</time>
      </trkpt>
      <trkpt lat="42.8098740" lon="0.4226690">
        <ele>1212.2</ele>
        <time>2020-07-25T08:26:29Z</time>
      </trkpt>
      <trkpt lat="42.8098080" lon="0.4225440">
        <ele>1211.0</ele>
        <time>2020-07-25T08:26:30Z</time>
      </trkpt>
      <trkpt lat="42.8097270" lon="0.4224370">
        <ele>1210.0</ele>
        <time>2020-07-25T08:26:31Z</time>
      </trkpt>
      <trkpt lat="42.8096310" lon="0.4223450">
        <ele>1209.0</ele>
        <time>2020-07-25T08:26:32Z</time>
      </trkpt>
      <trkpt lat="42.8095270" lon="0.4222630">
        <ele>1207.8</ele>
        <time>2020-07-25T08:26:33Z</time>
      </trkpt>
      <trkpt lat="42.8094200" lon="0.4221840">
        <ele>1206.6</ele>
        <time>2020-07-25T08:26:34Z</time>
      </trkpt>
      <trkpt lat="42.8093120" lon="0.4221000">
        <ele>1205.6</ele>
        <time>2020-07-25T08:26:35Z</time>
      </trkpt>
      <trkpt lat="42.8092030" lon="0.4220050">
        <ele>1204.4</ele>
        <time>2020-07-25T08:26:36Z</time>
      </trkpt>
      <trkpt lat="42.8090980" lon="0.4219050">
        <ele>1203.0</ele>
        <time>2020-07-25T08:26:37Z</time>
      </trkpt>
      <trkpt lat="42.8090030" lon="0.4218160">
        <ele>1201.8</ele>
        <time>2020-07-25T08:26:38Z</time>
      </trkpt>
      <trkpt lat="42.8088460" lon="0.4216580">
        <ele>1200.4</ele>
        <time>2020-07-25T08:26:40Z</time>
      </trkpt>
      <trkpt lat="42.8087900" lon="0.4215900">
        <ele>1199.8</ele>
        <time>2020-07-25T08:26:41Z</time>
      </trkpt>
      <trkpt lat="42.8087570" lon="0.4214590">
        <ele>1199.4</ele>
        <time>2020-07-25T08:26:43Z</time>
      </trkpt>
      <trkpt lat="42.8088390" lon="0.4213780">
        <ele>1198.8</ele>
        <time>2020-07-25T08:26:45Z</time>
      </trkpt>
      <trkpt lat="42.8089010" lon="0.4214040">
        <ele>1198.4</ele>
        <time>2020-07-25T08:26:46Z</time>
      </trkpt>
      <trkpt lat="42.8089620" lon="0.4214670">
        <ele>1197.6</ele>
        <time>2020-07-25T08:26:47Z</time>
      </trkpt>
      <trkpt lat="42.8090110" lon="0.4215440">
        <ele>1196.6</ele>
        <time>2020-07-25T08:26:48Z</time>
      </trkpt>
      <trkpt lat="42.8091400" lon="0.4216990">
        <ele>1194.8</ele>
        <time>2020-07-25T08:26:50Z</time>
      </trkpt>
      <trkpt lat="42.8092340" lon="0.4217560">
        <ele>1194.0</ele>
        <time>2020-07-25T08:26:51Z</time>
      </trkpt>
      <trkpt lat="42.8093450" lon="0.4217980">
        <ele>1193.2</ele>
        <time>2020-07-25T08:26:52Z</time>
      </trkpt>
      <trkpt lat="42.8094570" lon="0.4218310">
        <ele>1192.6</ele>
        <time>2020-07-25T08:26:53Z</time>
      </trkpt>
      <trkpt lat="42.8095700" lon="0.4218420">
        <ele>1192.0</ele>
        <time>2020-07-25T08:26:54Z</time>
      </trkpt>
      <trkpt lat="42.8097970" lon="0.4218680">
        <ele>1189.8</ele>
        <time>2020-07-25T08:26:56Z</time>
      </trkpt>
      <trkpt lat="42.8099130" lon="0.4218910">
        <ele>1188.6</ele>
        <time>2020-07-25T08:26:57Z</time>
      </trkpt>
      <trkpt lat="42.8100280" lon="0.4219230">
        <ele>1187.4</ele>
        <time>2020-07-25T08:26:58Z</time>
      </trkpt>
      <trkpt lat="42.8101410" lon="0.4219690">
        <ele>1186.4</ele>
        <time>2020-07-25T08:26:59Z</time>
      </trkpt>
      <trkpt lat="42.8102510" lon="0.4220400">
        <ele>1185.2</ele>
        <time>2020-07-25T08:27:00Z</time>
      </trkpt>
      <trkpt lat="42.8103600" lon="0.4221150">
        <ele>1184.0</ele>
        <time>2020-07-25T08:27:01Z</time>
      </trkpt>
      <trkpt lat="42.8104710" lon="0.4221980">
        <ele>1182.8</ele>
        <time>2020-07-25T08:27:02Z</time>
      </trkpt>
      <trkpt lat="42.8105820" lon="0.4222840">
        <ele>1181.4</ele>
        <time>2020-07-25T08:27:03Z</time>
      </trkpt>
      <trkpt lat="42.8106950" lon="0.4223700">
        <ele>1180.2</ele>
        <time>2020-07-25T08:27:04Z</time>
      </trkpt>
      <trkpt lat="42.8108070" lon="0.4224600">
        <ele>1179.0</ele>
        <time>2020-07-25T08:27:05Z</time>
      </trkpt>
      <trkpt lat="42.8109180" lon="0.4225390">
        <ele>1177.8</ele>
        <time>2020-07-25T08:27:06Z</time>
      </trkpt>
      <trkpt lat="42.8110300" lon="0.4226260">
        <ele>1176.6</ele>
        <time>2020-07-25T08:27:07Z</time>
      </trkpt>
      <trkpt lat="42.8111460" lon="0.4227120">
        <ele>1175.6</ele>
        <time>2020-07-25T08:27:08Z</time>
      </trkpt>
      <trkpt lat="42.8112600" lon="0.4227950">
        <ele>1174.4</ele>
        <time>2020-07-25T08:27:09Z</time>
      </trkpt>
      <trkpt lat="42.8113780" lon="0.4228690">
        <ele>1173.4</ele>
        <time>2020-07-25T08:27:10Z</time>
      </trkpt>
      <trkpt lat="42.8116230" lon="0.4229720">
        <ele>1171.6</ele>
        <time>2020-07-25T08:27:12Z</time>
      </trkpt>
      <trkpt lat="42.8118740" lon="0.4230670">
        <ele>1169.8</ele>
        <time>2020-07-25T08:27:14Z</time>
      </trkpt>
      <trkpt lat="42.8119970" lon="0.4231190">
        <ele>1168.4</ele>
        <time>2020-07-25T08:27:15Z</time>
      </trkpt>
      <trkpt lat="42.8121200" lon="0.4231700">
        <ele>1167.0</ele>
        <time>2020-07-25T08:27:16Z</time>
      </trkpt>
      <trkpt lat="42.8122440" lon="0.4232200">
        <ele>1165.6</ele>
        <time>2020-07-25T08:27:17Z</time>
      </trkpt>
      <trkpt lat="42.8123680" lon="0.4232710">
        <ele>1164.4</ele>
        <time>2020-07-25T08:27:18Z</time>
      </trkpt>
      <trkpt lat="42.8126030" lon="0.4233890">
        <ele>1162.8</ele>
        <time>2020-07-25T08:27:20Z</time>
      </trkpt>
      <trkpt lat="42.8127980" lon="0.4234950">
        <ele>1161.2</ele>
        <time>2020-07-25T08:27:22Z</time>
      </trkpt>
      <trkpt lat="42.8128780" lon="0.4235410">
        <ele>1160.6</ele>
        <time>2020-07-25T08:27:23Z</time>
      </trkpt>
      <trkpt lat="42.8129550" lon="0.4235850">
        <ele>1160.2</ele>
        <time>2020-07-25T08:27:24Z</time>
      </trkpt>
      <trkpt lat="42.8131130" lon="0.4236460">
        <ele>1159.0</ele>
        <time>2020-07-25T08:27:26Z</time>
      </trkpt>
      <trkpt lat="42.8132870" lon="0.4236680">
        <ele>1157.0</ele>
        <time>2020-07-25T08:27:28Z</time>
      </trkpt>
      <trkpt lat="42.8134610" lon="0.4235880">
        <ele>1155.4</ele>
        <time>2020-07-25T08:27:30Z</time>
      </trkpt>
      <trkpt lat="42.8135350" lon="0.4234910">
        <ele>1154.8</ele>
        <time>2020-07-25T08:27:31Z</time>
      </trkpt>
      <trkpt lat="42.8136040" lon="0.4233770">
        <ele>1153.8</ele>
        <time>2020-07-25T08:27:32Z</time>
      </trkpt>
      <trkpt lat="42.8136700" lon="0.4232500">
        <ele>1152.8</ele>
        <time>2020-07-25T08:27:33Z</time>
      </trkpt>
      <trkpt lat="42.8137350" lon="0.4231110">
        <ele>1151.6</ele>
        <time>2020-07-25T08:27:34Z</time>
      </trkpt>
      <trkpt lat="42.8137980" lon="0.4229690">
        <ele>1150.0</ele>
        <time>2020-07-25T08:27:35Z</time>
      </trkpt>
      <trkpt lat="42.8138620" lon="0.4228250">
        <ele>1148.8</ele>
        <time>2020-07-25T08:27:36Z</time>
      </trkpt>
      <trkpt lat="42.8139280" lon="0.4226690">
        <ele>1147.6</ele>
        <time>2020-07-25T08:27:37Z</time>
      </trkpt>
      <trkpt lat="42.8139920" lon="0.4225280">
        <ele>1146.2</ele>
        <time>2020-07-25T08:27:38Z</time>
      </trkpt>
      <trkpt lat="42.8140500" lon="0.4224000">
        <ele>1144.8</ele>
        <time>2020-07-25T08:27:39Z</time>
      </trkpt>
      <trkpt lat="42.8141060" lon="0.4222790">
        <ele>1143.6</ele>
        <time>2020-07-25T08:27:40Z</time>
      </trkpt>
      <trkpt lat="42.8142250" lon="0.4220470">
        <ele>1142.2</ele>
        <time>2020-07-25T08:27:42Z</time>
      </trkpt>
      <trkpt lat="42.8142890" lon="0.4219340">
        <ele>1141.6</ele>
        <time>2020-07-25T08:27:43Z</time>
      </trkpt>
      <trkpt lat="42.8143590" lon="0.4218250">
        <ele>1140.8</ele>
        <time>2020-07-25T08:27:44Z</time>
      </trkpt>
      <trkpt lat="42.8144370" lon="0.4217240">
        <ele>1139.8</ele>
        <time>2020-07-25T08:27:45Z</time>
      </trkpt>
      <trkpt lat="42.8146090" lon="0.4215440">
        <ele>1138.2</ele>
        <time>2020-07-25T08:27:47Z</time>
      </trkpt>
      <trkpt lat="42.8147050" lon="0.4214680">
        <ele>1137.2</ele>
        <time>2020-07-25T08:27:48Z</time>
      </trkpt>
      <trkpt lat="42.8148090" lon="0.4214010">
        <ele>1136.0</ele>
        <time>2020-07-25T08:27:49Z</time>
      </trkpt>
      <trkpt lat="42.8149160" lon="0.4213400">
        <ele>1134.6</ele>
        <time>2020-07-25T08:27:50Z</time>
      </trkpt>
      <trkpt lat="42.8150300" lon="0.4212830">
        <ele>1133.4</ele>
        <time>2020-07-25T08:27:51Z</time>
      </trkpt>
      <trkpt lat="42.8151470" lon="0.4212280">
        <ele>1132.2</ele>
        <time>2020-07-25T08:27:52Z</time>
      </trkpt>
      <trkpt lat="42.8152690" lon="0.4211780">
        <ele>1131.0</ele>
        <time>2020-07-25T08:27:53Z</time>
      </trkpt>
      <trkpt lat="42.8153910" lon="0.4211270">
        <ele>1129.6</ele>
        <time>2020-07-25T08:27:54Z</time>
      </trkpt>
      <trkpt lat="42.8155140" lon="0.4210750">
        <ele>1128.4</ele>
        <time>2020-07-25T08:27:55Z</time>
      </trkpt>
      <trkpt lat="42.8156370" lon="0.4210230">
        <ele>1127.0</ele>
        <time>2020-07-25T08:27:56Z</time>
      </trkpt>
      <trkpt lat="42.8157580" lon="0.4209770">
        <ele>1125.8</ele>
        <time>2020-07-25T08:27:57Z</time>
      </trkpt>
      <trkpt lat="42.8158740" lon="0.4209320">
        <ele>1124.8</ele>
        <time>2020-07-25T08:27:58Z</time>
      </trkpt>
      <trkpt lat="42.8159840" lon="0.4208820">
        <ele>1124.0</ele>
        <time>2020-07-25T08:27:59Z</time>
      </trkpt>
      <trkpt lat="42.8160880" lon="0.4208080">
        <ele>1123.4</ele>
        <time>2020-07-25T08:28:00Z</time>
      </trkpt>
      <trkpt lat="42.8161850" lon="0.4207120">
        <ele>1122.8</ele>
        <time>2020-07-25T08:28:01Z</time>
      </trkpt>
      <trkpt lat="42.8162820" lon="0.4206080">
        <ele>1121.8</ele>
        <time>2020-07-25T08:28:02Z</time>
      </trkpt>
      <trkpt lat="42.8163790" lon="0.4205030">
        <ele>1120.6</ele>
        <time>2020-07-25T08:28:03Z</time>
      </trkpt>
      <trkpt lat="42.8164810" lon="0.4204020">
        <ele>1119.2</ele>
        <time>2020-07-25T08:28:04Z</time>
      </trkpt>
      <trkpt lat="42.8165850" lon="0.4202970">
        <ele>1117.8</ele>
        <time>2020-07-25T08:28:05Z</time>
      </trkpt>
      <trkpt lat="42.8167380" lon="0.4201700">
        <ele>1116.4</ele>
        <time>2020-07-25T08:28:06Z</time>
      </trkpt>
      <trkpt lat="42.8168900" lon="0.4200420">
        <ele>1114.4</ele>
        <time>2020-07-25T08:28:08Z</time>
      </trkpt>
      <trkpt lat="42.8170420" lon="0.4199150">
        <ele>1113.0</ele>
        <time>2020-07-25T08:28:09Z</time>
      </trkpt>
      <trkpt lat="42.8171700" lon="0.4198400">
        <ele>1111.6</ele>
        <time>2020-07-25T08:28:10Z</time>
      </trkpt>
      <trkpt lat="42.8172710" lon="0.4197930">
        <ele>1110.4</ele>
        <time>2020-07-25T08:28:11Z</time>
      </trkpt>
      <trkpt lat="42.8173720" lon="0.4197450">
        <ele>1109.2</ele>
        <time>2020-07-25T08:28:12Z</time>
      </trkpt>
      <trkpt lat="42.8175740" lon="0.4196490">
        <ele>1108.0</ele>
        <time>2020-07-25T08:28:13Z</time>
      </trkpt>
      <trkpt lat="42.8177120" lon="0.4195850">
        <ele>1106.6</ele>
        <time>2020-07-25T08:28:14Z</time>
      </trkpt>
      <trkpt lat="42.8178520" lon="0.4195150">
        <ele>1105.2</ele>
        <time>2020-07-25T08:28:15Z</time>
      </trkpt>
      <trkpt lat="42.8179960" lon="0.4194560">
        <ele>1103.8</ele>
        <time>2020-07-25T08:28:16Z</time>
      </trkpt>
      <trkpt lat="42.8181410" lon="0.4193970">
        <ele>1102.8</ele>
        <time>2020-07-25T08:28:17Z</time>
      </trkpt>
      <trkpt lat="42.8182890" lon="0.4193440">
        <ele>1101.6</ele>
        <time>2020-07-25T08:28:18Z</time>
      </trkpt>
      <trkpt lat="42.8184400" lon="0.4193000">
        <ele>1100.2</ele>
        <time>2020-07-25T08:28:19Z</time>
      </trkpt>
      <trkpt lat="42.8185850" lon="0.4192420">
        <ele>1098.6</ele>
        <time>2020-07-25T08:28:20Z</time>
      </trkpt>
      <trkpt lat="42.8187230" lon="0.4191850">
        <ele>1097.2</ele>
        <time>2020-07-25T08:28:21Z</time>
      </trkpt>
      <trkpt lat="42.8188510" lon="0.4191190">
        <ele>1095.8</ele>
        <time>2020-07-25T08:28:22Z</time>
      </trkpt>
      <trkpt lat="42.8189710" lon="0.4190500">
        <ele>1094.6</ele>
        <time>2020-07-25T08:28:23Z</time>
      </trkpt>
      <trkpt lat="42.8190840" lon="0.4189690">
        <ele>1093.4</ele>
        <time>2020-07-25T08:28:24Z</time>
      </trkpt>
      <trkpt lat="42.8191930" lon="0.4188730">
        <ele>1092.4</ele>
        <time>2020-07-25T08:28:25Z</time>
      </trkpt>
      <trkpt lat="42.8193970" lon="0.4186620">
        <ele>1090.8</ele>
        <time>2020-07-25T08:28:27Z</time>
      </trkpt>
      <trkpt lat="42.8194950" lon="0.4185510">
        <ele>1089.8</ele>
        <time>2020-07-25T08:28:28Z</time>
      </trkpt>
      <trkpt lat="42.8196050" lon="0.4184640">
        <ele>1088.6</ele>
        <time>2020-07-25T08:28:29Z</time>
      </trkpt>
      <trkpt lat="42.8197210" lon="0.4183850">
        <ele>1087.4</ele>
        <time>2020-07-25T08:28:30Z</time>
      </trkpt>
      <trkpt lat="42.8198410" lon="0.4183080">
        <ele>1086.2</ele>
        <time>2020-07-25T08:28:31Z</time>
      </trkpt>
      <trkpt lat="42.8199620" lon="0.4182320">
        <ele>1084.8</ele>
        <time>2020-07-25T08:28:32Z</time>
      </trkpt>
      <trkpt lat="42.8200840" lon="0.4181540">
        <ele>1083.6</ele>
        <time>2020-07-25T08:28:33Z</time>
      </trkpt>
      <trkpt lat="42.8202050" lon="0.4180660">
        <ele>1082.2</ele>
        <time>2020-07-25T08:28:34Z</time>
      </trkpt>
      <trkpt lat="42.8203190" lon="0.4179690">
        <ele>1081.2</ele>
        <time>2020-07-25T08:28:35Z</time>
      </trkpt>
      <trkpt lat="42.8204280" lon="0.4178660">
        <ele>1080.0</ele>
        <time>2020-07-25T08:28:36Z</time>
      </trkpt>
      <trkpt lat="42.8205410" lon="0.4177730">
        <ele>1078.8</ele>
        <time>2020-07-25T08:28:37Z</time>
      </trkpt>
      <trkpt lat="42.8206590" lon="0.4176870">
        <ele>1077.6</ele>
        <time>2020-07-25T08:28:38Z</time>
      </trkpt>
      <trkpt lat="42.8209050" lon="0.4175350">
        <ele>1075.6</ele>
        <time>2020-07-25T08:28:40Z</time>
      </trkpt>
      <trkpt lat="42.8210240" lon="0.4174710">
        <ele>1074.4</ele>
        <time>2020-07-25T08:28:41Z</time>
      </trkpt>
      <trkpt lat="42.8211400" lon="0.4174100">
        <ele>1073.2</ele>
        <time>2020-07-25T08:28:42Z</time>
      </trkpt>
      <trkpt lat="42.8212550" lon="0.4173430">
        <ele>1072.2</ele>
        <time>2020-07-25T08:28:43Z</time>
      </trkpt>
      <trkpt lat="42.8213700" lon="0.4172770">
        <ele>1071.0</ele>
        <time>2020-07-25T08:28:44Z</time>
      </trkpt>
      <trkpt lat="42.8214860" lon="0.4172110">
        <ele>1069.8</ele>
        <time>2020-07-25T08:28:45Z</time>
      </trkpt>
      <trkpt lat="42.8216010" lon="0.4171430">
        <ele>1068.6</ele>
        <time>2020-07-25T08:28:46Z</time>
      </trkpt>
      <trkpt lat="42.8217180" lon="0.4170620">
        <ele>1067.2</ele>
        <time>2020-07-25T08:28:47Z</time>
      </trkpt>
      <trkpt lat="42.8218320" lon="0.4169800">
        <ele>1066.0</ele>
        <time>2020-07-25T08:28:48Z</time>
      </trkpt>
      <trkpt lat="42.8220570" lon="0.4168410">
        <ele>1064.2</ele>
        <time>2020-07-25T08:28:50Z</time>
      </trkpt>
      <trkpt lat="42.8222820" lon="0.4167040">
        <ele>1062.8</ele>
        <time>2020-07-25T08:28:52Z</time>
      </trkpt>
      <trkpt lat="42.8225020" lon="0.4165610">
        <ele>1060.4</ele>
        <time>2020-07-25T08:28:54Z</time>
      </trkpt>
      <trkpt lat="42.8226080" lon="0.4164890">
        <ele>1059.0</ele>
        <time>2020-07-25T08:28:55Z</time>
      </trkpt>
      <trkpt lat="42.8227140" lon="0.4164120">
        <ele>1057.6</ele>
        <time>2020-07-25T08:28:56Z</time>
      </trkpt>
      <trkpt lat="42.8228190" lon="0.4163400">
        <ele>1056.4</ele>
        <time>2020-07-25T08:28:57Z</time>
      </trkpt>
      <trkpt lat="42.8229150" lon="0.4162680">
        <ele>1055.4</ele>
        <time>2020-07-25T08:28:58Z</time>
      </trkpt>
      <trkpt lat="42.8230090" lon="0.4162100">
        <ele>1054.2</ele>
        <time>2020-07-25T08:28:59Z</time>
      </trkpt>
      <trkpt lat="42.8231910" lon="0.4161100">
        <ele>1052.8</ele>
        <time>2020-07-25T08:29:01Z</time>
      </trkpt>
      <trkpt lat="42.8233650" lon="0.4159650">
        <ele>1051.4</ele>
        <time>2020-07-25T08:29:03Z</time>
      </trkpt>
      <trkpt lat="42.8235200" lon="0.4157530">
        <ele>1049.8</ele>
        <time>2020-07-25T08:29:05Z</time>
      </trkpt>
      <trkpt lat="42.8235910" lon="0.4156180">
        <ele>1049.0</ele>
        <time>2020-07-25T08:29:06Z</time>
      </trkpt>
      <trkpt lat="42.8236610" lon="0.4154920">
        <ele>1047.8</ele>
        <time>2020-07-25T08:29:07Z</time>
      </trkpt>
      <trkpt lat="42.8237310" lon="0.4153710">
        <ele>1046.6</ele>
        <time>2020-07-25T08:29:08Z</time>
      </trkpt>
      <trkpt lat="42.8238020" lon="0.4152630">
        <ele>1045.4</ele>
        <time>2020-07-25T08:29:09Z</time>
      </trkpt>
      <trkpt lat="42.8238790" lon="0.4151740">
        <ele>1044.6</ele>
        <time>2020-07-25T08:29:10Z</time>
      </trkpt>
      <trkpt lat="42.8239600" lon="0.4151040">
        <ele>1043.8</ele>
        <time>2020-07-25T08:29:11Z</time>
      </trkpt>
      <trkpt lat="42.8240440" lon="0.4150460">
        <ele>1043.0</ele>
        <time>2020-07-25T08:29:12Z</time>
      </trkpt>
      <trkpt lat="42.8241290" lon="0.4150030">
        <ele>1042.0</ele>
        <time>2020-07-25T08:29:13Z</time>
      </trkpt>
      <trkpt lat="42.8242160" lon="0.4149660">
        <ele>1041.2</ele>
        <time>2020-07-25T08:29:14Z</time>
      </trkpt>
      <trkpt lat="42.8243100" lon="0.4149340">
        <ele>1040.4</ele>
        <time>2020-07-25T08:29:15Z</time>
      </trkpt>
      <trkpt lat="42.8245070" lon="0.4148550">
        <ele>1039.0</ele>
        <time>2020-07-25T08:29:17Z</time>
      </trkpt>
      <trkpt lat="42.8247100" lon="0.4148070">
        <ele>1037.2</ele>
        <time>2020-07-25T08:29:19Z</time>
      </trkpt>
      <trkpt lat="42.8247990" lon="0.4147900">
        <ele>1036.0</ele>
        <time>2020-07-25T08:29:20Z</time>
      </trkpt>
      <trkpt lat="42.8249610" lon="0.4148860">
        <ele>1034.4</ele>
        <time>2020-07-25T08:29:22Z</time>
      </trkpt>
      <trkpt lat="42.8251020" lon="0.4150500">
        <ele>1032.2</ele>
        <time>2020-07-25T08:29:24Z</time>
      </trkpt>
      <trkpt lat="42.8251750" lon="0.4151040">
        <ele>1031.0</ele>
        <time>2020-07-25T08:29:25Z</time>
      </trkpt>
      <trkpt lat="42.8252440" lon="0.4151440">
        <ele>1030.2</ele>
        <time>2020-07-25T08:29:26Z</time>
      </trkpt>
      <trkpt lat="42.8253360" lon="0.4151390">
        <ele>1029.6</ele>
        <time>2020-07-25T08:29:27Z</time>
      </trkpt>
      <trkpt lat="42.8254180" lon="0.4150870">
        <ele>1029.0</ele>
        <time>2020-07-25T08:29:28Z</time>
      </trkpt>
      <trkpt lat="42.8255020" lon="0.4150230">
        <ele>1028.4</ele>
        <time>2020-07-25T08:29:29Z</time>
      </trkpt>
      <trkpt lat="42.8255880" lon="0.4149480">
        <ele>1027.6</ele>
        <time>2020-07-25T08:29:30Z</time>
      </trkpt>
      <trkpt lat="42.8256730" lon="0.4148700">
        <ele>1026.8</ele>
        <time>2020-07-25T08:29:31Z</time>
      </trkpt>
      <trkpt lat="42.8257470" lon="0.4147690">
        <ele>1025.6</ele>
        <time>2020-07-25T08:29:32Z</time>
      </trkpt>
      <trkpt lat="42.8258060" lon="0.4146580">
        <ele>1024.2</ele>
        <time>2020-07-25T08:29:33Z</time>
      </trkpt>
      <trkpt lat="42.8258460" lon="0.4145270">
        <ele>1023.4</ele>
        <time>2020-07-25T08:29:34Z</time>
      </trkpt>
      <trkpt lat="42.8258830" lon="0.4144060">
        <ele>1022.6</ele>
        <time>2020-07-25T08:29:35Z</time>
      </trkpt>
      <trkpt lat="42.8259280" lon="0.4143040">
        <ele>1021.6</ele>
        <time>2020-07-25T08:29:36Z</time>
      </trkpt>
      <trkpt lat="42.8259950" lon="0.4142330">
        <ele>1020.8</ele>
        <time>2020-07-25T08:29:37Z</time>
      </trkpt>
      <trkpt lat="42.8260790" lon="0.4141870">
        <ele>1019.8</ele>
        <time>2020-07-25T08:29:38Z</time>
      </trkpt>
      <trkpt lat="42.8261740" lon="0.4141640">
        <ele>1018.6</ele>
        <time>2020-07-25T08:29:39Z</time>
      </trkpt>
      <trkpt lat="42.8262760" lon="0.4141570">
        <ele>1017.6</ele>
        <time>2020-07-25T08:29:40Z</time>
      </trkpt>
      <trkpt lat="42.8263830" lon="0.4141430">
        <ele>1016.4</ele>
        <time>2020-07-25T08:29:41Z</time>
      </trkpt>
      <trkpt lat="42.8266080" lon="0.4141090">
        <ele>1014.4</ele>
        <time>2020-07-25T08:29:43Z</time>
      </trkpt>
      <trkpt lat="42.8267260" lon="0.4140860">
        <ele>1013.4</ele>
        <time>2020-07-25T08:29:44Z</time>
      </trkpt>
      <trkpt lat="42.8268450" lon="0.4140580">
        <ele>1012.2</ele>
        <time>2020-07-25T08:29:45Z</time>
      </trkpt>
      <trkpt lat="42.8269680" lon="0.4140250">
        <ele>1011.0</ele>
        <time>2020-07-25T08:29:46Z</time>
      </trkpt>
      <trkpt lat="42.8270910" lon="0.4139850">
        <ele>1009.6</ele>
        <time>2020-07-25T08:29:47Z</time>
      </trkpt>
      <trkpt lat="42.8272140" lon="0.4139400">
        <ele>1008.6</ele>
        <time>2020-07-25T08:29:48Z</time>
      </trkpt>
      <trkpt lat="42.8273400" lon="0.4138910">
        <ele>1008.0</ele>
        <time>2020-07-25T08:29:49Z</time>
      </trkpt>
      <trkpt lat="42.8275940" lon="0.4137820">
        <ele>1006.4</ele>
        <time>2020-07-25T08:29:51Z</time>
      </trkpt>
      <trkpt lat="42.8277240" lon="0.4137350">
        <ele>1005.2</ele>
        <time>2020-07-25T08:29:52Z</time>
      </trkpt>
      <trkpt lat="42.8278550" lon="0.4136940">
        <ele>1004.2</ele>
        <time>2020-07-25T08:29:53Z</time>
      </trkpt>
      <trkpt lat="42.8279910" lon="0.4136650">
        <ele>1003.2</ele>
        <time>2020-07-25T08:29:54Z</time>
      </trkpt>
      <trkpt lat="42.8281280" lon="0.4136270">
        <ele>1002.0</ele>
        <time>2020-07-25T08:29:55Z</time>
      </trkpt>
      <trkpt lat="42.8284110" lon="0.4135650">
        <ele>1000.0</ele>
        <time>2020-07-25T08:29:57Z</time>
      </trkpt>
      <trkpt lat="42.8286920" lon="0.4135030">
        <ele>998.2</ele>
        <time>2020-07-25T08:29:59Z</time>
      </trkpt>
      <trkpt lat="42.8289770" lon="0.4134630">
        <ele>996.4</ele>
        <time>2020-07-25T08:30:01Z</time>
      </trkpt>
      <trkpt lat="42.8291170" lon="0.4134370">
        <ele>995.4</ele>
        <time>2020-07-25T08:30:02Z</time>
      </trkpt>
      <trkpt lat="42.8293820" lon="0.4133440">
        <ele>993.8</ele>
        <time>2020-07-25T08:30:04Z</time>
      </trkpt>
      <trkpt lat="42.8296460" lon="0.4132830">
        <ele>992.8</ele>
        <time>2020-07-25T08:30:06Z</time>
      </trkpt>
      <trkpt lat="42.8297510" lon="0.4131690">
        <ele>992.2</ele>
        <time>2020-07-25T08:30:07Z</time>
      </trkpt>
      <trkpt lat="42.8299970" lon="0.4131580">
        <ele>991.4</ele>
        <time>2020-07-25T08:30:09Z</time>
      </trkpt>
      <trkpt lat="42.8301160" lon="0.4131740">
        <ele>991.0</ele>
        <time>2020-07-25T08:30:10Z</time>
      </trkpt>
      <trkpt lat="42.8306710" lon="0.4132930">
        <ele>991.0</ele>
        <time>2020-07-25T08:30:15Z</time>
      </trkpt>
      <trkpt lat="42.8307710" lon="0.4133210">
        <ele>991.4</ele>
        <time>2020-07-25T08:30:16Z</time>
      </trkpt>
      <trkpt lat="42.8312350" lon="0.4134320">
        <ele>992.6</ele>
        <time>2020-07-25T08:30:21Z</time>
      </trkpt>
      <trkpt lat="42.8313220" lon="0.4134540">
        <ele>992.8</ele>
        <time>2020-07-25T08:30:22Z</time>
      </trkpt>
      <trkpt lat="42.8315680" lon="0.4135290">
        <ele>993.8</ele>
        <time>2020-07-25T08:30:25Z</time>
      </trkpt>
      <trkpt lat="42.8317230" lon="0.4135730">
        <ele>994.2</ele>
        <time>2020-07-25T08:30:27Z</time>
      </trkpt>
      <trkpt lat="42.8317980" lon="0.4135950">
        <ele>994.6</ele>
        <time>2020-07-25T08:30:28Z</time>
      </trkpt>
      <trkpt lat="42.8318700" lon="0.4136130">
        <ele>994.8</ele>
        <time>2020-07-25T08:30:29Z</time>
      </trkpt>
      <trkpt lat="42.8320100" lon="0.4136520">
        <ele>995.4</ele>
        <time>2020-07-25T08:30:31Z</time>
      </trkpt>
      <trkpt lat="42.8320780" lon="0.4136700">
        <ele>995.8</ele>
        <time>2020-07-25T08:30:32Z</time>
      </trkpt>
      <trkpt lat="42.8322680" lon="0.4137190">
        <ele>996.6</ele>
        <time>2020-07-25T08:30:35Z</time>
      </trkpt>
      <trkpt lat="42.8323300" lon="0.4137350">
        <ele>996.8</ele>
        <time>2020-07-25T08:30:36Z</time>
      </trkpt>
      <trkpt lat="42.8323940" lon="0.4137530">
        <ele>996.8</ele>
        <time>2020-07-25T08:30:37Z</time>
      </trkpt>
      <trkpt lat="42.8327450" lon="0.4138590">
        <ele>998.2</ele>
        <time>2020-07-25T08:30:43Z</time>
      </trkpt>
      <trkpt lat="42.8328500" lon="0.4138960">
        <ele>998.6</ele>
        <time>2020-07-25T08:30:45Z</time>
      </trkpt>
      <trkpt lat="42.8329500" lon="0.4139320">
        <ele>999.4</ele>
        <time>2020-07-25T08:30:47Z</time>
      </trkpt>
      <trkpt lat="42.8330980" lon="0.4139420">
        <ele>1000.2</ele>
        <time>2020-07-25T08:30:50Z</time>
      </trkpt>
      <trkpt lat="42.8332570" lon="0.4139130">
        <ele>1000.2</ele>
        <time>2020-07-25T08:30:53Z</time>
      </trkpt>
      <trkpt lat="42.8333660" lon="0.4138570">
        <ele>1000.4</ele>
        <time>2020-07-25T08:30:55Z</time>
      </trkpt>
      <trkpt lat="42.8334240" lon="0.4138280">
        <ele>1000.4</ele>
        <time>2020-07-25T08:30:56Z</time>
      </trkpt>
      <trkpt lat="42.8337650" lon="0.4136870">
        <ele>1000.0</ele>
        <time>2020-07-25T08:31:01Z</time>
      </trkpt>
      <trkpt lat="42.8340890" lon="0.4135820">
        <ele>998.2</ele>
        <time>2020-07-25T08:31:05Z</time>
      </trkpt>
      <trkpt lat="42.8342670" lon="0.4135300">
        <ele>997.2</ele>
        <time>2020-07-25T08:31:07Z</time>
      </trkpt>
      <trkpt lat="42.8343580" lon="0.4135000">
        <ele>996.8</ele>
        <time>2020-07-25T08:31:08Z</time>
      </trkpt>
      <trkpt lat="42.8346340" lon="0.4133840">
        <ele>995.6</ele>
        <time>2020-07-25T08:31:11Z</time>
      </trkpt>
      <trkpt lat="42.8348230" lon="0.4132960">
        <ele>995.0</ele>
        <time>2020-07-25T08:31:13Z</time>
      </trkpt>
      <trkpt lat="42.8350160" lon="0.4131990">
        <ele>994.0</ele>
        <time>2020-07-25T08:31:15Z</time>
      </trkpt>
      <trkpt lat="42.8352170" lon="0.4130810">
        <ele>992.6</ele>
        <time>2020-07-25T08:31:17Z</time>
      </trkpt>
      <trkpt lat="42.8354200" lon="0.4129440">
        <ele>990.6</ele>
        <time>2020-07-25T08:31:19Z</time>
      </trkpt>
      <trkpt lat="42.8356310" lon="0.4127960">
        <ele>989.0</ele>
        <time>2020-07-25T08:31:21Z</time>
      </trkpt>
      <trkpt lat="42.8359570" lon="0.4126280">
        <ele>987.8</ele>
        <time>2020-07-25T08:31:24Z</time>
      </trkpt>
      <trkpt lat="42.8363730" lon="0.4124560">
        <ele>986.6</ele>
        <time>2020-07-25T08:31:28Z</time>
      </trkpt>
      <trkpt lat="42.8365730" lon="0.4123800">
        <ele>986.4</ele>
        <time>2020-07-25T08:31:30Z</time>
      </trkpt>
      <trkpt lat="42.8368780" lon="0.4122520">
        <ele>985.6</ele>
        <time>2020-07-25T08:31:33Z</time>
      </trkpt>
      <trkpt lat="42.8371810" lon="0.4121220">
        <ele>984.6</ele>
        <time>2020-07-25T08:31:36Z</time>
      </trkpt>
      <trkpt lat="42.8372800" lon="0.4120730">
        <ele>984.4</ele>
        <time>2020-07-25T08:31:37Z</time>
      </trkpt>
      <trkpt lat="42.8376780" lon="0.4119020">
        <ele>983.6</ele>
        <time>2020-07-25T08:31:41Z</time>
      </trkpt>
      <trkpt lat="42.8377820" lon="0.4119030">
        <ele>983.2</ele>
        <time>2020-07-25T08:31:42Z</time>
      </trkpt>
      <trkpt lat="42.8378830" lon="0.4119200">
        <ele>982.6</ele>
        <time>2020-07-25T08:31:43Z</time>
      </trkpt>
      <trkpt lat="42.8379800" lon="0.4119540">
        <ele>982.0</ele>
        <time>2020-07-25T08:31:44Z</time>
      </trkpt>
      <trkpt lat="42.8380780" lon="0.4119960">
        <ele>981.8</ele>
        <time>2020-07-25T08:31:45Z</time>
      </trkpt>
      <trkpt lat="42.8381760" lon="0.4120180">
        <ele>981.6</ele>
        <time>2020-07-25T08:31:46Z</time>
      </trkpt>
      <trkpt lat="42.8383870" lon="0.4120440">
        <ele>981.4</ele>
        <time>2020-07-25T08:31:48Z</time>
      </trkpt>
      <trkpt lat="42.8386030" lon="0.4120370">
        <ele>981.2</ele>
        <time>2020-07-25T08:31:50Z</time>
      </trkpt>
      <trkpt lat="42.8387100" lon="0.4120280">
        <ele>981.0</ele>
        <time>2020-07-25T08:31:51Z</time>
      </trkpt>
      <trkpt lat="42.8388170" lon="0.4120120">
        <ele>980.8</ele>
        <time>2020-07-25T08:31:52Z</time>
      </trkpt>
      <trkpt lat="42.8389250" lon="0.4119970">
        <ele>980.6</ele>
        <time>2020-07-25T08:31:53Z</time>
      </trkpt>
      <trkpt lat="42.8391340" lon="0.4119330">
        <ele>979.8</ele>
        <time>2020-07-25T08:31:55Z</time>
      </trkpt>
      <trkpt lat="42.8393330" lon="0.4118330">
        <ele>979.2</ele>
        <time>2020-07-25T08:31:57Z</time>
      </trkpt>
      <trkpt lat="42.8394330" lon="0.4117760">
        <ele>978.6</ele>
        <time>2020-07-25T08:31:58Z</time>
      </trkpt>
      <trkpt lat="42.8396320" lon="0.4116360">
        <ele>977.0</ele>
        <time>2020-07-25T08:32:00Z</time>
      </trkpt>
      <trkpt lat="42.8397260" lon="0.4115650">
        <ele>976.0</ele>
        <time>2020-07-25T08:32:01Z</time>
      </trkpt>
      <trkpt lat="42.8398190" lon="0.4115060">
        <ele>975.0</ele>
        <time>2020-07-25T08:32:02Z</time>
      </trkpt>
      <trkpt lat="42.8399140" lon="0.4114670">
        <ele>974.0</ele>
        <time>2020-07-25T08:32:03Z</time>
      </trkpt>
      <trkpt lat="42.8401170" lon="0.4114410">
        <ele>972.4</ele>
        <time>2020-07-25T08:32:05Z</time>
      </trkpt>
      <trkpt lat="42.8403500" lon="0.4114910">
        <ele>970.2</ele>
        <time>2020-07-25T08:32:07Z</time>
      </trkpt>
      <trkpt lat="42.8404700" lon="0.4115210">
        <ele>968.8</ele>
        <time>2020-07-25T08:32:08Z</time>
      </trkpt>
      <trkpt lat="42.8405890" lon="0.4115490">
        <ele>967.6</ele>
        <time>2020-07-25T08:32:09Z</time>
      </trkpt>
      <trkpt lat="42.8407130" lon="0.4115950">
        <ele>966.4</ele>
        <time>2020-07-25T08:32:10Z</time>
      </trkpt>
      <trkpt lat="42.8408370" lon="0.4116460">
        <ele>965.2</ele>
        <time>2020-07-25T08:32:11Z</time>
      </trkpt>
      <trkpt lat="42.8409640" lon="0.4116910">
        <ele>964.0</ele>
        <time>2020-07-25T08:32:12Z</time>
      </trkpt>
      <trkpt lat="42.8410930" lon="0.4117250">
        <ele>962.8</ele>
        <time>2020-07-25T08:32:13Z</time>
      </trkpt>
      <trkpt lat="42.8412240" lon="0.4117470">
        <ele>962.0</ele>
        <time>2020-07-25T08:32:14Z</time>
      </trkpt>
      <trkpt lat="42.8413580" lon="0.4117610">
        <ele>961.0</ele>
        <time>2020-07-25T08:32:15Z</time>
      </trkpt>
      <trkpt lat="42.8416260" lon="0.4117650">
        <ele>959.2</ele>
        <time>2020-07-25T08:32:17Z</time>
      </trkpt>
      <trkpt lat="42.8417590" lon="0.4117600">
        <ele>958.2</ele>
        <time>2020-07-25T08:32:18Z</time>
      </trkpt>
      <trkpt lat="42.8420230" lon="0.4117270">
        <ele>956.4</ele>
        <time>2020-07-25T08:32:20Z</time>
      </trkpt>
      <trkpt lat="42.8421550" lon="0.4116990">
        <ele>955.4</ele>
        <time>2020-07-25T08:32:21Z</time>
      </trkpt>
      <trkpt lat="42.8422860" lon="0.4116710">
        <ele>954.8</ele>
        <time>2020-07-25T08:32:22Z</time>
      </trkpt>
      <trkpt lat="42.8425490" lon="0.4116070">
        <ele>953.2</ele>
        <time>2020-07-25T08:32:24Z</time>
      </trkpt>
      <trkpt lat="42.8427930" lon="0.4115250">
        <ele>952.0</ele>
        <time>2020-07-25T08:32:26Z</time>
      </trkpt>
      <trkpt lat="42.8429080" lon="0.4114810">
        <ele>951.6</ele>
        <time>2020-07-25T08:32:27Z</time>
      </trkpt>
      <trkpt lat="42.8432260" lon="0.4113060">
        <ele>950.8</ele>
        <time>2020-07-25T08:32:30Z</time>
      </trkpt>
      <trkpt lat="42.8434180" lon="0.4111320">
        <ele>949.6</ele>
        <time>2020-07-25T08:32:32Z</time>
      </trkpt>
      <trkpt lat="42.8435990" lon="0.4109250">
        <ele>947.8</ele>
        <time>2020-07-25T08:32:34Z</time>
      </trkpt>
      <trkpt lat="42.8437770" lon="0.4106820">
        <ele>946.4</ele>
        <time>2020-07-25T08:32:36Z</time>
      </trkpt>
      <trkpt lat="42.8438630" lon="0.4105480">
        <ele>945.8</ele>
        <time>2020-07-25T08:32:37Z</time>
      </trkpt>
      <trkpt lat="42.8439490" lon="0.4104290">
        <ele>945.2</ele>
        <time>2020-07-25T08:32:38Z</time>
      </trkpt>
      <trkpt lat="42.8441960" lon="0.4100570">
        <ele>943.6</ele>
        <time>2020-07-25T08:32:41Z</time>
      </trkpt>
      <trkpt lat="42.8443220" lon="0.4097250">
        <ele>943.4</ele>
        <time>2020-07-25T08:32:43Z</time>
      </trkpt>
      <trkpt lat="42.8446040" lon="0.4091750">
        <ele>944.6</ele>
        <time>2020-07-25T08:32:48Z</time>
      </trkpt>
      <trkpt lat="42.8446730" lon="0.4091050">
        <ele>944.8</ele>
        <time>2020-07-25T08:32:49Z</time>
      </trkpt>
      <trkpt lat="42.8447460" lon="0.4090500">
        <ele>945.0</ele>
        <time>2020-07-25T08:32:50Z</time>
      </trkpt>
      <trkpt lat="42.8448240" lon="0.4090260">
        <ele>945.2</ele>
        <time>2020-07-25T08:32:51Z</time>
      </trkpt>
      <trkpt lat="42.8449010" lon="0.4090360">
        <ele>945.4</ele>
        <time>2020-07-25T08:32:52Z</time>
      </trkpt>
      <trkpt lat="42.8449700" lon="0.4090700">
        <ele>946.0</ele>
        <time>2020-07-25T08:32:53Z</time>
      </trkpt>
      <trkpt lat="42.8450310" lon="0.4091230">
        <ele>946.8</ele>
        <time>2020-07-25T08:32:54Z</time>
      </trkpt>
      <trkpt lat="42.8450860" lon="0.4091870">
        <ele>947.6</ele>
        <time>2020-07-25T08:32:55Z</time>
      </trkpt>
      <trkpt lat="42.8451380" lon="0.4092560">
        <ele>948.0</ele>
        <time>2020-07-25T08:32:56Z</time>
      </trkpt>
      <trkpt lat="42.8452260" lon="0.4093830">
        <ele>948.6</ele>
        <time>2020-07-25T08:32:58Z</time>
      </trkpt>
      <trkpt lat="42.8453440" lon="0.4095630">
        <ele>949.6</ele>
        <time>2020-07-25T08:33:01Z</time>
      </trkpt>
      <trkpt lat="42.8453800" lon="0.4096140">
        <ele>950.0</ele>
        <time>2020-07-25T08:33:02Z</time>
      </trkpt>
      <trkpt lat="42.8454170" lon="0.4096550">
        <ele>950.6</ele>
        <time>2020-07-25T08:33:03Z</time>
      </trkpt>
      <trkpt lat="42.8454960" lon="0.4097200">
        <ele>951.0</ele>
        <time>2020-07-25T08:33:05Z</time>
      </trkpt>
      <trkpt lat="42.8455380" lon="0.4097450">
        <ele>951.4</ele>
        <time>2020-07-25T08:33:06Z</time>
      </trkpt>
      <trkpt lat="42.8455810" lon="0.4097630">
        <ele>951.8</ele>
        <time>2020-07-25T08:33:07Z</time>
      </trkpt>
      <trkpt lat="42.8456650" lon="0.4097810">
        <ele>952.2</ele>
        <time>2020-07-25T08:33:09Z</time>
      </trkpt>
      <trkpt lat="42.8457490" lon="0.4097840">
        <ele>952.4</ele>
        <time>2020-07-25T08:33:11Z</time>
      </trkpt>
      <trkpt lat="42.8459130" lon="0.4097500">
        <ele>952.8</ele>
        <time>2020-07-25T08:33:15Z</time>
      </trkpt>
      <trkpt lat="42.8460230" lon="0.4097050">
        <ele>953.0</ele>
        <time>2020-07-25T08:33:18Z</time>
      </trkpt>
      <trkpt lat="42.8460550" lon="0.4096860">
        <ele>953.2</ele>
        <time>2020-07-25T08:33:19Z</time>
      </trkpt>
      <trkpt lat="42.8462220" lon="0.4096040">
        <ele>953.0</ele>
        <time>2020-07-25T08:33:23Z</time>
      </trkpt>
      <trkpt lat="42.8465110" lon="0.4095220">
        <ele>952.2</ele>
        <time>2020-07-25T08:33:28Z</time>
      </trkpt>
      <trkpt lat="42.8465770" lon="0.4095240">
        <ele>952.0</ele>
        <time>2020-07-25T08:33:29Z</time>
      </trkpt>
      <trkpt lat="42.8467950" lon="0.4095240">
        <ele>950.8</ele>
        <time>2020-07-25T08:33:32Z</time>
      </trkpt>
      <trkpt lat="42.8469580" lon="0.4094990">
        <ele>950.0</ele>
        <time>2020-07-25T08:33:34Z</time>
      </trkpt>
      <trkpt lat="42.8470450" lon="0.4094850">
        <ele>949.6</ele>
        <time>2020-07-25T08:33:35Z</time>
      </trkpt>
      <trkpt lat="42.8471310" lon="0.4094570">
        <ele>949.4</ele>
        <time>2020-07-25T08:33:36Z</time>
      </trkpt>
      <trkpt lat="42.8472190" lon="0.4094280">
        <ele>949.0</ele>
        <time>2020-07-25T08:33:37Z</time>
      </trkpt>
      <trkpt lat="42.8473060" lon="0.4093760">
        <ele>948.4</ele>
        <time>2020-07-25T08:33:38Z</time>
      </trkpt>
      <trkpt lat="42.8475690" lon="0.4092070">
        <ele>947.2</ele>
        <time>2020-07-25T08:33:41Z</time>
      </trkpt>
      <trkpt lat="42.8477510" lon="0.4090790">
        <ele>946.0</ele>
        <time>2020-07-25T08:33:43Z</time>
      </trkpt>
      <trkpt lat="42.8479390" lon="0.4089470">
        <ele>945.0</ele>
        <time>2020-07-25T08:33:45Z</time>
      </trkpt>
      <trkpt lat="42.8481220" lon="0.4088040">
        <ele>943.8</ele>
        <time>2020-07-25T08:33:47Z</time>
      </trkpt>
      <trkpt lat="42.8483200" lon="0.4086770">
        <ele>942.0</ele>
        <time>2020-07-25T08:33:49Z</time>
      </trkpt>
      <trkpt lat="42.8484300" lon="0.4086280">
        <ele>941.4</ele>
        <time>2020-07-25T08:33:50Z</time>
      </trkpt>
      <trkpt lat="42.8485370" lon="0.4085860">
        <ele>941.0</ele>
        <time>2020-07-25T08:33:51Z</time>
      </trkpt>
      <trkpt lat="42.8488550" lon="0.4084870">
        <ele>940.4</ele>
        <time>2020-07-25T08:33:54Z</time>
      </trkpt>
      <trkpt lat="42.8489550" lon="0.4084620">
        <ele>940.4</ele>
        <time>2020-07-25T08:33:55Z</time>
      </trkpt>
      <trkpt lat="42.8491590" lon="0.4084450">
        <ele>939.8</ele>
        <time>2020-07-25T08:33:57Z</time>
      </trkpt>
      <trkpt lat="42.8493590" lon="0.4084420">
        <ele>938.4</ele>
        <time>2020-07-25T08:33:59Z</time>
      </trkpt>
      <trkpt lat="42.8494590" lon="0.4084310">
        <ele>938.0</ele>
        <time>2020-07-25T08:34:00Z</time>
      </trkpt>
      <trkpt lat="42.8497360" lon="0.4083140">
        <ele>937.6</ele>
        <time>2020-07-25T08:34:03Z</time>
      </trkpt>
      <trkpt lat="42.8498190" lon="0.4082450">
        <ele>937.4</ele>
        <time>2020-07-25T08:34:04Z</time>
      </trkpt>
      <trkpt lat="42.8498950" lon="0.4081560">
        <ele>937.4</ele>
        <time>2020-07-25T08:34:05Z</time>
      </trkpt>
      <trkpt lat="42.8500560" lon="0.4080150">
        <ele>937.6</ele>
        <time>2020-07-25T08:34:07Z</time>
      </trkpt>
      <trkpt lat="42.8502260" lon="0.4079160">
        <ele>937.8</ele>
        <time>2020-07-25T08:34:09Z</time>
      </trkpt>
      <trkpt lat="42.8503950" lon="0.4078700">
        <ele>938.0</ele>
        <time>2020-07-25T08:34:11Z</time>
      </trkpt>
      <trkpt lat="42.8504760" lon="0.4078480">
        <ele>938.0</ele>
        <time>2020-07-25T08:34:12Z</time>
      </trkpt>
      <trkpt lat="42.8506260" lon="0.4077970">
        <ele>938.4</ele>
        <time>2020-07-25T08:34:14Z</time>
      </trkpt>
      <trkpt lat="42.8507650" lon="0.4077350">
        <ele>939.4</ele>
        <time>2020-07-25T08:34:16Z</time>
      </trkpt>
      <trkpt lat="42.8508300" lon="0.4076980">
        <ele>939.6</ele>
        <time>2020-07-25T08:34:17Z</time>
      </trkpt>
      <trkpt lat="42.8511270" lon="0.4074770">
        <ele>940.4</ele>
        <time>2020-07-25T08:34:22Z</time>
      </trkpt>
      <trkpt lat="42.8511830" lon="0.4074390">
        <ele>940.8</ele>
        <time>2020-07-25T08:34:23Z</time>
      </trkpt>
      <trkpt lat="42.8515380" lon="0.4072560">
        <ele>941.6</ele>
        <time>2020-07-25T08:34:29Z</time>
      </trkpt>
      <trkpt lat="42.8516030" lon="0.4072400">
        <ele>941.6</ele>
        <time>2020-07-25T08:34:30Z</time>
      </trkpt>
      <trkpt lat="42.8518730" lon="0.4072150">
        <ele>941.8</ele>
        <time>2020-07-25T08:34:34Z</time>
      </trkpt>
      <trkpt lat="42.8519430" lon="0.4072130">
        <ele>941.8</ele>
        <time>2020-07-25T08:34:35Z</time>
      </trkpt>
      <trkpt lat="42.8520770" lon="0.4071950">
        <ele>942.0</ele>
        <time>2020-07-25T08:34:37Z</time>
      </trkpt>
      <trkpt lat="42.8522130" lon="0.4071990">
        <ele>942.2</ele>
        <time>2020-07-25T08:34:39Z</time>
      </trkpt>
      <trkpt lat="42.8524060" lon="0.4072250">
        <ele>942.2</ele>
        <time>2020-07-25T08:34:42Z</time>
      </trkpt>
      <trkpt lat="42.8524700" lon="0.4072380">
        <ele>942.4</ele>
        <time>2020-07-25T08:34:43Z</time>
      </trkpt>
      <trkpt lat="42.8527220" lon="0.4072760">
        <ele>942.8</ele>
        <time>2020-07-25T08:34:47Z</time>
      </trkpt>
      <trkpt lat="42.8528980" lon="0.4072530">
        <ele>943.2</ele>
        <time>2020-07-25T08:34:50Z</time>
      </trkpt>
      <trkpt lat="42.8532520" lon="0.4071410">
        <ele>943.0</ele>
        <time>2020-07-25T08:34:56Z</time>
      </trkpt>
      <trkpt lat="42.8535190" lon="0.4069960">
        <ele>941.6</ele>
        <time>2020-07-25T08:35:00Z</time>
      </trkpt>
      <trkpt lat="42.8535870" lon="0.4069470">
        <ele>941.2</ele>
        <time>2020-07-25T08:35:01Z</time>
      </trkpt>
      <trkpt lat="42.8537880" lon="0.4067430">
        <ele>940.4</ele>
        <time>2020-07-25T08:35:04Z</time>
      </trkpt>
      <trkpt lat="42.8539010" lon="0.4065460">
        <ele>940.0</ele>
        <time>2020-07-25T08:35:06Z</time>
      </trkpt>
      <trkpt lat="42.8539990" lon="0.4063200">
        <ele>939.2</ele>
        <time>2020-07-25T08:35:08Z</time>
      </trkpt>
      <trkpt lat="42.8541070" lon="0.4061010">
        <ele>937.6</ele>
        <time>2020-07-25T08:35:10Z</time>
      </trkpt>
      <trkpt lat="42.8541610" lon="0.4059890">
        <ele>936.8</ele>
        <time>2020-07-25T08:35:11Z</time>
      </trkpt>
      <trkpt lat="42.8542170" lon="0.4058780">
        <ele>936.2</ele>
        <time>2020-07-25T08:35:12Z</time>
      </trkpt>
      <trkpt lat="42.8543340" lon="0.4056600">
        <ele>934.8</ele>
        <time>2020-07-25T08:35:14Z</time>
      </trkpt>
      <trkpt lat="42.8544660" lon="0.4054610">
        <ele>933.6</ele>
        <time>2020-07-25T08:35:16Z</time>
      </trkpt>
      <trkpt lat="42.8545550" lon="0.4053860">
        <ele>933.0</ele>
        <time>2020-07-25T08:35:17Z</time>
      </trkpt>
      <trkpt lat="42.8546520" lon="0.4053190">
        <ele>932.4</ele>
        <time>2020-07-25T08:35:18Z</time>
      </trkpt>
      <trkpt lat="42.8547720" lon="0.4052770">
        <ele>931.6</ele>
        <time>2020-07-25T08:35:19Z</time>
      </trkpt>
      <trkpt lat="42.8548800" lon="0.4052330">
        <ele>931.0</ele>
        <time>2020-07-25T08:35:20Z</time>
      </trkpt>
      <trkpt lat="42.8549810" lon="0.4051820">
        <ele>930.6</ele>
        <time>2020-07-25T08:35:21Z</time>
      </trkpt>
      <trkpt lat="42.8551860" lon="0.4050680">
        <ele>929.6</ele>
        <time>2020-07-25T08:35:23Z</time>
      </trkpt>
      <trkpt lat="42.8553930" lon="0.4049540">
        <ele>928.4</ele>
        <time>2020-07-25T08:35:25Z</time>
      </trkpt>
      <trkpt lat="42.8557060" lon="0.4047910">
        <ele>927.0</ele>
        <time>2020-07-25T08:35:28Z</time>
      </trkpt>
      <trkpt lat="42.8558090" lon="0.4047470">
        <ele>926.8</ele>
        <time>2020-07-25T08:35:29Z</time>
      </trkpt>
      <trkpt lat="42.8561320" lon="0.4046260">
        <ele>926.6</ele>
        <time>2020-07-25T08:35:32Z</time>
      </trkpt>
      <trkpt lat="42.8562450" lon="0.4046000">
        <ele>926.4</ele>
        <time>2020-07-25T08:35:33Z</time>
      </trkpt>
      <trkpt lat="42.8563590" lon="0.4045790">
        <ele>926.4</ele>
        <time>2020-07-25T08:35:34Z</time>
      </trkpt>
      <trkpt lat="42.8564750" lon="0.4045750">
        <ele>926.4</ele>
        <time>2020-07-25T08:35:35Z</time>
      </trkpt>
      <trkpt lat="42.8568190" lon="0.4045720">
        <ele>926.0</ele>
        <time>2020-07-25T08:35:38Z</time>
      </trkpt>
      <trkpt lat="42.8572390" lon="0.4045080">
        <ele>925.0</ele>
        <time>2020-07-25T08:35:42Z</time>
      </trkpt>
      <trkpt lat="42.8573350" lon="0.4044780">
        <ele>924.6</ele>
        <time>2020-07-25T08:35:43Z</time>
      </trkpt>
      <trkpt lat="42.8577360" lon="0.4043330">
        <ele>923.8</ele>
        <time>2020-07-25T08:35:47Z</time>
      </trkpt>
      <trkpt lat="42.8579480" lon="0.4042610">
        <ele>923.2</ele>
        <time>2020-07-25T08:35:49Z</time>
      </trkpt>
      <trkpt lat="42.8580560" lon="0.4042250">
        <ele>922.6</ele>
        <time>2020-07-25T08:35:50Z</time>
      </trkpt>
      <trkpt lat="42.8583820" lon="0.4041430">
        <ele>921.4</ele>
        <time>2020-07-25T08:35:53Z</time>
      </trkpt>
      <trkpt lat="42.8585980" lon="0.4040890">
        <ele>921.4</ele>
        <time>2020-07-25T08:35:55Z</time>
      </trkpt>
      <trkpt lat="42.8592200" lon="0.4038580">
        <ele>920.2</ele>
        <time>2020-07-25T08:36:01Z</time>
      </trkpt>
      <trkpt lat="42.8593200" lon="0.4037990">
        <ele>919.8</ele>
        <time>2020-07-25T08:36:02Z</time>
      </trkpt>
      <trkpt lat="42.8595110" lon="0.4036580">
        <ele>919.2</ele>
        <time>2020-07-25T08:36:04Z</time>
      </trkpt>
      <trkpt lat="42.8595930" lon="0.4035550">
        <ele>919.0</ele>
        <time>2020-07-25T08:36:05Z</time>
      </trkpt>
      <trkpt lat="42.8599170" lon="0.4031550">
        <ele>918.0</ele>
        <time>2020-07-25T08:36:09Z</time>
      </trkpt>
      <trkpt lat="42.8600070" lon="0.4030810">
        <ele>917.4</ele>
        <time>2020-07-25T08:36:10Z</time>
      </trkpt>
      <trkpt lat="42.8601150" lon="0.4030380">
        <ele>917.0</ele>
        <time>2020-07-25T08:36:11Z</time>
      </trkpt>
      <trkpt lat="42.8602150" lon="0.4029970">
        <ele>916.6</ele>
        <time>2020-07-25T08:36:12Z</time>
      </trkpt>
      <trkpt lat="42.8603150" lon="0.4029630">
        <ele>916.4</ele>
        <time>2020-07-25T08:36:13Z</time>
      </trkpt>
      <trkpt lat="42.8607210" lon="0.4028720">
        <ele>915.4</ele>
        <time>2020-07-25T08:36:17Z</time>
      </trkpt>
      <trkpt lat="42.8608230" lon="0.4028480">
        <ele>915.2</ele>
        <time>2020-07-25T08:36:18Z</time>
      </trkpt>
      <trkpt lat="42.8609240" lon="0.4028110">
        <ele>914.8</ele>
        <time>2020-07-25T08:36:19Z</time>
      </trkpt>
      <trkpt lat="42.8610260" lon="0.4027600">
        <ele>914.4</ele>
        <time>2020-07-25T08:36:20Z</time>
      </trkpt>
      <trkpt lat="42.8612130" lon="0.4026330">
        <ele>913.6</ele>
        <time>2020-07-25T08:36:22Z</time>
      </trkpt>
      <trkpt lat="42.8612660" lon="0.4025100">
        <ele>913.4</ele>
        <time>2020-07-25T08:36:23Z</time>
      </trkpt>
      <trkpt lat="42.8613760" lon="0.4022720">
        <ele>912.8</ele>
        <time>2020-07-25T08:36:25Z</time>
      </trkpt>
      <trkpt lat="42.8614940" lon="0.4020340">
        <ele>912.4</ele>
        <time>2020-07-25T08:36:27Z</time>
      </trkpt>
      <trkpt lat="42.8617790" lon="0.4016160">
        <ele>911.2</ele>
        <time>2020-07-25T08:36:31Z</time>
      </trkpt>
      <trkpt lat="42.8621270" lon="0.4013120">
        <ele>910.2</ele>
        <time>2020-07-25T08:36:35Z</time>
      </trkpt>
      <trkpt lat="42.8622300" lon="0.4012690">
        <ele>909.8</ele>
        <time>2020-07-25T08:36:36Z</time>
      </trkpt>
      <trkpt lat="42.8624410" lon="0.4012170">
        <ele>909.2</ele>
        <time>2020-07-25T08:36:38Z</time>
      </trkpt>
      <trkpt lat="42.8625470" lon="0.4012020">
        <ele>909.0</ele>
        <time>2020-07-25T08:36:39Z</time>
      </trkpt>
      <trkpt lat="42.8629550" lon="0.4012190">
        <ele>908.4</ele>
        <time>2020-07-25T08:36:43Z</time>
      </trkpt>
      <trkpt lat="42.8633520" lon="0.4013260">
        <ele>908.2</ele>
        <time>2020-07-25T08:36:47Z</time>
      </trkpt>
      <trkpt lat="42.8634450" lon="0.4013530">
        <ele>908.2</ele>
        <time>2020-07-25T08:36:48Z</time>
      </trkpt>
      <trkpt lat="42.8638180" lon="0.4014200">
        <ele>908.2</ele>
        <time>2020-07-25T08:36:52Z</time>
      </trkpt>
      <trkpt lat="42.8639110" lon="0.4014130">
        <ele>908.2</ele>
        <time>2020-07-25T08:36:53Z</time>
      </trkpt>
      <trkpt lat="42.8640970" lon="0.4013860">
        <ele>908.4</ele>
        <time>2020-07-25T08:36:55Z</time>
      </trkpt>
      <trkpt lat="42.8645630" lon="0.4013250">
        <ele>908.2</ele>
        <time>2020-07-25T08:37:00Z</time>
      </trkpt>
      <trkpt lat="42.8647500" lon="0.4013340">
        <ele>907.6</ele>
        <time>2020-07-25T08:37:02Z</time>
      </trkpt>
      <trkpt lat="42.8651090" lon="0.4013380">
        <ele>907.0</ele>
        <time>2020-07-25T08:37:06Z</time>
      </trkpt>
      <trkpt lat="42.8651980" lon="0.4013200">
        <ele>906.8</ele>
        <time>2020-07-25T08:37:07Z</time>
      </trkpt>
      <trkpt lat="42.8653730" lon="0.4012530">
        <ele>906.8</ele>
        <time>2020-07-25T08:37:09Z</time>
      </trkpt>
      <trkpt lat="42.8655270" lon="0.4011110">
        <ele>906.4</ele>
        <time>2020-07-25T08:37:11Z</time>
      </trkpt>
      <trkpt lat="42.8658590" lon="0.4006400">
        <ele>905.2</ele>
        <time>2020-07-25T08:37:16Z</time>
      </trkpt>
      <trkpt lat="42.8659240" lon="0.4005420">
        <ele>905.0</ele>
        <time>2020-07-25T08:37:17Z</time>
      </trkpt>
      <trkpt lat="42.8661220" lon="0.4002670">
        <ele>904.2</ele>
        <time>2020-07-25T08:37:20Z</time>
      </trkpt>
      <trkpt lat="42.8662560" lon="0.4000910">
        <ele>903.4</ele>
        <time>2020-07-25T08:37:22Z</time>
      </trkpt>
      <trkpt lat="42.8664070" lon="0.3999330">
        <ele>903.2</ele>
        <time>2020-07-25T08:37:24Z</time>
      </trkpt>
      <trkpt lat="42.8664860" lon="0.3998610">
        <ele>902.8</ele>
        <time>2020-07-25T08:37:25Z</time>
      </trkpt>
      <trkpt lat="42.8668140" lon="0.3995860">
        <ele>902.0</ele>
        <time>2020-07-25T08:37:29Z</time>
      </trkpt>
      <trkpt lat="42.8669710" lon="0.3994350">
        <ele>901.4</ele>
        <time>2020-07-25T08:37:31Z</time>
      </trkpt>
      <trkpt lat="42.8670470" lon="0.3993590">
        <ele>901.0</ele>
        <time>2020-07-25T08:37:32Z</time>
      </trkpt>
      <trkpt lat="42.8672760" lon="0.3991240">
        <ele>900.2</ele>
        <time>2020-07-25T08:37:35Z</time>
      </trkpt>
      <trkpt lat="42.8673440" lon="0.3990300">
        <ele>899.8</ele>
        <time>2020-07-25T08:37:36Z</time>
      </trkpt>
      <trkpt lat="42.8674020" lon="0.3989250">
        <ele>899.6</ele>
        <time>2020-07-25T08:37:37Z</time>
      </trkpt>
      <trkpt lat="42.8674500" lon="0.3988110">
        <ele>899.6</ele>
        <time>2020-07-25T08:37:38Z</time>
      </trkpt>
      <trkpt lat="42.8675070" lon="0.3985620">
        <ele>899.6</ele>
        <time>2020-07-25T08:37:40Z</time>
      </trkpt>
      <trkpt lat="42.8675490" lon="0.3980440">
        <ele>899.4</ele>
        <time>2020-07-25T08:37:44Z</time>
      </trkpt>
      <trkpt lat="42.8676350" lon="0.3974180">
        <ele>898.8</ele>
        <time>2020-07-25T08:37:49Z</time>
      </trkpt>
      <trkpt lat="42.8676670" lon="0.3972990">
        <ele>898.8</ele>
        <time>2020-07-25T08:37:50Z</time>
      </trkpt>
      <trkpt lat="42.8677070" lon="0.3971870">
        <ele>898.8</ele>
        <time>2020-07-25T08:37:51Z</time>
      </trkpt>
      <trkpt lat="42.8678140" lon="0.3969890">
        <ele>898.8</ele>
        <time>2020-07-25T08:37:53Z</time>
      </trkpt>
      <trkpt lat="42.8679520" lon="0.3968320">
        <ele>899.0</ele>
        <time>2020-07-25T08:37:55Z</time>
      </trkpt>
      <trkpt lat="42.8681080" lon="0.3967010">
        <ele>899.0</ele>
        <time>2020-07-25T08:37:57Z</time>
      </trkpt>
      <trkpt lat="42.8685430" lon="0.3964770">
        <ele>898.8</ele>
        <time>2020-07-25T08:38:02Z</time>
      </trkpt>
      <trkpt lat="42.8686370" lon="0.3964610">
        <ele>898.8</ele>
        <time>2020-07-25T08:38:03Z</time>
      </trkpt>
      <trkpt lat="42.8689220" lon="0.3964750">
        <ele>898.0</ele>
        <time>2020-07-25T08:38:06Z</time>
      </trkpt>
      <trkpt lat="42.8691090" lon="0.3965020">
        <ele>897.6</ele>
        <time>2020-07-25T08:38:08Z</time>
      </trkpt>
      <trkpt lat="42.8696630" lon="0.3965750">
        <ele>896.6</ele>
        <time>2020-07-25T08:38:14Z</time>
      </trkpt>
      <trkpt lat="42.8701850" lon="0.3965580">
        <ele>896.2</ele>
        <time>2020-07-25T08:38:20Z</time>
      </trkpt>
      <trkpt lat="42.8702690" lon="0.3965460">
        <ele>896.2</ele>
        <time>2020-07-25T08:38:21Z</time>
      </trkpt>
      <trkpt lat="42.8703530" lon="0.3965250">
        <ele>896.2</ele>
        <time>2020-07-25T08:38:22Z</time>
      </trkpt>
      <trkpt lat="42.8705100" lon="0.3964520">
        <ele>896.2</ele>
        <time>2020-07-25T08:38:24Z</time>
      </trkpt>
      <trkpt lat="42.8705800" lon="0.3963930">
        <ele>896.0</ele>
        <time>2020-07-25T08:38:25Z</time>
      </trkpt>
      <trkpt lat="42.8706450" lon="0.3963200">
        <ele>896.0</ele>
        <time>2020-07-25T08:38:26Z</time>
      </trkpt>
      <trkpt lat="42.8708050" lon="0.3960600">
        <ele>896.0</ele>
        <time>2020-07-25T08:38:29Z</time>
      </trkpt>
      <trkpt lat="42.8709940" lon="0.3955500">
        <ele>896.2</ele>
        <time>2020-07-25T08:38:34Z</time>
      </trkpt>
      <trkpt lat="42.8710690" lon="0.3953460">
        <ele>896.0</ele>
        <time>2020-07-25T08:38:36Z</time>
      </trkpt>
      <trkpt lat="42.8711810" lon="0.3950430">
        <ele>895.4</ele>
        <time>2020-07-25T08:38:39Z</time>
      </trkpt>
      <trkpt lat="42.8713240" lon="0.3946410">
        <ele>895.0</ele>
        <time>2020-07-25T08:38:43Z</time>
      </trkpt>
      <trkpt lat="42.8714660" lon="0.3942300">
        <ele>894.4</ele>
        <time>2020-07-25T08:38:47Z</time>
      </trkpt>
      <trkpt lat="42.8715030" lon="0.3941270">
        <ele>894.2</ele>
        <time>2020-07-25T08:38:48Z</time>
      </trkpt>
      <trkpt lat="42.8715960" lon="0.3939380">
        <ele>894.0</ele>
        <time>2020-07-25T08:38:50Z</time>
      </trkpt>
      <trkpt lat="42.8717180" lon="0.3937850">
        <ele>893.8</ele>
        <time>2020-07-25T08:38:52Z</time>
      </trkpt>
      <trkpt lat="42.8717890" lon="0.3937270">
        <ele>893.8</ele>
        <time>2020-07-25T08:38:53Z</time>
      </trkpt>
      <trkpt lat="42.8718650" lon="0.3936840">
        <ele>893.8</ele>
        <time>2020-07-25T08:38:54Z</time>
      </trkpt>
      <trkpt lat="42.8720950" lon="0.3936020">
        <ele>894.0</ele>
        <time>2020-07-25T08:38:57Z</time>
      </trkpt>
      <trkpt lat="42.8722570" lon="0.3935460">
        <ele>894.0</ele>
        <time>2020-07-25T08:38:59Z</time>
      </trkpt>
      <trkpt lat="42.8723370" lon="0.3935190">
        <ele>893.8</ele>
        <time>2020-07-25T08:39:00Z</time>
      </trkpt>
      <trkpt lat="42.8725780" lon="0.3934500">
        <ele>893.2</ele>
        <time>2020-07-25T08:39:03Z</time>
      </trkpt>
      <trkpt lat="42.8726580" lon="0.3934300">
        <ele>893.2</ele>
        <time>2020-07-25T08:39:04Z</time>
      </trkpt>
      <trkpt lat="42.8731370" lon="0.3933040">
        <ele>893.0</ele>
        <time>2020-07-25T08:39:10Z</time>
      </trkpt>
      <trkpt lat="42.8732980" lon="0.3932660">
        <ele>893.0</ele>
        <time>2020-07-25T08:39:12Z</time>
      </trkpt>
      <trkpt lat="42.8737820" lon="0.3931510">
        <ele>893.2</ele>
        <time>2020-07-25T08:39:18Z</time>
      </trkpt>
      <trkpt lat="42.8739400" lon="0.3931100">
        <ele>893.0</ele>
        <time>2020-07-25T08:39:20Z</time>
      </trkpt>
      <trkpt lat="42.8743980" lon="0.3929210">
        <ele>892.4</ele>
        <time>2020-07-25T08:39:26Z</time>
      </trkpt>
      <trkpt lat="42.8744750" lon="0.3928720">
        <ele>892.4</ele>
        <time>2020-07-25T08:39:27Z</time>
      </trkpt>
      <trkpt lat="42.8746250" lon="0.3927720">
        <ele>892.2</ele>
        <time>2020-07-25T08:39:29Z</time>
      </trkpt>
      <trkpt lat="42.8749770" lon="0.3926100">
        <ele>891.2</ele>
        <time>2020-07-25T08:39:33Z</time>
      </trkpt>
      <trkpt lat="42.8751520" lon="0.3925270">
        <ele>889.6</ele>
        <time>2020-07-25T08:39:35Z</time>
      </trkpt>
      <trkpt lat="42.8753260" lon="0.3924170">
        <ele>888.4</ele>
        <time>2020-07-25T08:39:37Z</time>
      </trkpt>
      <trkpt lat="42.8754140" lon="0.3923500">
        <ele>887.8</ele>
        <time>2020-07-25T08:39:38Z</time>
      </trkpt>
      <trkpt lat="42.8755020" lon="0.3922820">
        <ele>887.0</ele>
        <time>2020-07-25T08:39:39Z</time>
      </trkpt>
      <trkpt lat="42.8756760" lon="0.3921300">
        <ele>885.6</ele>
        <time>2020-07-25T08:39:41Z</time>
      </trkpt>
      <trkpt lat="42.8760070" lon="0.3917660">
        <ele>884.6</ele>
        <time>2020-07-25T08:39:45Z</time>
      </trkpt>
      <trkpt lat="42.8762290" lon="0.3914770">
        <ele>882.6</ele>
        <time>2020-07-25T08:39:48Z</time>
      </trkpt>
      <trkpt lat="42.8763670" lon="0.3912790">
        <ele>881.8</ele>
        <time>2020-07-25T08:39:50Z</time>
      </trkpt>
      <trkpt lat="42.8764400" lon="0.3911890">
        <ele>881.6</ele>
        <time>2020-07-25T08:39:51Z</time>
      </trkpt>
      <trkpt lat="42.8765190" lon="0.3911080">
        <ele>882.4</ele>
        <time>2020-07-25T08:39:52Z</time>
      </trkpt>
      <trkpt lat="42.8766010" lon="0.3910430">
        <ele>883.6</ele>
        <time>2020-07-25T08:39:53Z</time>
      </trkpt>
      <trkpt lat="42.8766860" lon="0.3909910">
        <ele>884.0</ele>
        <time>2020-07-25T08:39:54Z</time>
      </trkpt>
      <trkpt lat="42.8769620" lon="0.3909340">
        <ele>883.2</ele>
        <time>2020-07-25T08:39:57Z</time>
      </trkpt>
      <trkpt lat="42.8770510" lon="0.3909180">
        <ele>882.4</ele>
        <time>2020-07-25T08:39:58Z</time>
      </trkpt>
      <trkpt lat="42.8772170" lon="0.3908500">
        <ele>881.4</ele>
        <time>2020-07-25T08:40:00Z</time>
      </trkpt>
      <trkpt lat="42.8772960" lon="0.3907950">
        <ele>880.8</ele>
        <time>2020-07-25T08:40:01Z</time>
      </trkpt>
      <trkpt lat="42.8773640" lon="0.3907220">
        <ele>880.4</ele>
        <time>2020-07-25T08:40:02Z</time>
      </trkpt>
      <trkpt lat="42.8774770" lon="0.3905370">
        <ele>880.2</ele>
        <time>2020-07-25T08:40:04Z</time>
      </trkpt>
      <trkpt lat="42.8775250" lon="0.3904340">
        <ele>880.0</ele>
        <time>2020-07-25T08:40:05Z</time>
      </trkpt>
      <trkpt lat="42.8775720" lon="0.3903290">
        <ele>879.8</ele>
        <time>2020-07-25T08:40:06Z</time>
      </trkpt>
      <trkpt lat="42.8776180" lon="0.3902260">
        <ele>879.6</ele>
        <time>2020-07-25T08:40:07Z</time>
      </trkpt>
      <trkpt lat="42.8777070" lon="0.3900280">
        <ele>879.2</ele>
        <time>2020-07-25T08:40:09Z</time>
      </trkpt>
      <trkpt lat="42.8777480" lon="0.3899320">
        <ele>879.2</ele>
        <time>2020-07-25T08:40:10Z</time>
      </trkpt>
      <trkpt lat="42.8778810" lon="0.3896760">
        <ele>879.2</ele>
        <time>2020-07-25T08:40:13Z</time>
      </trkpt>
      <trkpt lat="42.8779340" lon="0.3896140">
        <ele>879.2</ele>
        <time>2020-07-25T08:40:14Z</time>
      </trkpt>
      <trkpt lat="42.8779930" lon="0.3895720">
        <ele>879.4</ele>
        <time>2020-07-25T08:40:15Z</time>
      </trkpt>
      <trkpt lat="42.8781220" lon="0.3895710">
        <ele>879.6</ele>
        <time>2020-07-25T08:40:17Z</time>
      </trkpt>
      <trkpt lat="42.8781830" lon="0.3895920">
        <ele>879.8</ele>
        <time>2020-07-25T08:40:18Z</time>
      </trkpt>
      <trkpt lat="42.8785730" lon="0.3896670">
        <ele>878.4</ele>
        <time>2020-07-25T08:40:24Z</time>
      </trkpt>
      <trkpt lat="42.8787810" lon="0.3896360">
        <ele>877.8</ele>
        <time>2020-07-25T08:40:27Z</time>
      </trkpt>
      <trkpt lat="42.8789200" lon="0.3895840">
        <ele>877.8</ele>
        <time>2020-07-25T08:40:29Z</time>
      </trkpt>
      <trkpt lat="42.8789890" lon="0.3895520">
        <ele>877.8</ele>
        <time>2020-07-25T08:40:30Z</time>
      </trkpt>
      <trkpt lat="42.8791330" lon="0.3894930">
        <ele>877.4</ele>
        <time>2020-07-25T08:40:32Z</time>
      </trkpt>
      <trkpt lat="42.8792060" lon="0.3894620">
        <ele>877.2</ele>
        <time>2020-07-25T08:40:33Z</time>
      </trkpt>
      <trkpt lat="42.8794270" lon="0.3893560">
        <ele>876.4</ele>
        <time>2020-07-25T08:40:36Z</time>
      </trkpt>
      <trkpt lat="42.8795020" lon="0.3893160">
        <ele>876.0</ele>
        <time>2020-07-25T08:40:37Z</time>
      </trkpt>
      <trkpt lat="42.8798140" lon="0.3891640">
        <ele>875.2</ele>
        <time>2020-07-25T08:40:41Z</time>
      </trkpt>
      <trkpt lat="42.8800680" lon="0.3890640">
        <ele>874.0</ele>
        <time>2020-07-25T08:40:44Z</time>
      </trkpt>
      <trkpt lat="42.8802490" lon="0.3890190">
        <ele>873.0</ele>
        <time>2020-07-25T08:40:46Z</time>
      </trkpt>
      <trkpt lat="42.8805230" lon="0.3889560">
        <ele>871.8</ele>
        <time>2020-07-25T08:40:49Z</time>
      </trkpt>
      <trkpt lat="42.8807060" lon="0.3889160">
        <ele>870.6</ele>
        <time>2020-07-25T08:40:51Z</time>
      </trkpt>
      <trkpt lat="42.8808850" lon="0.3888800">
        <ele>869.4</ele>
        <time>2020-07-25T08:40:53Z</time>
      </trkpt>
      <trkpt lat="42.8812360" lon="0.3887920">
        <ele>868.4</ele>
        <time>2020-07-25T08:40:57Z</time>
      </trkpt>
      <trkpt lat="42.8813220" lon="0.3887610">
        <ele>868.2</ele>
        <time>2020-07-25T08:40:58Z</time>
      </trkpt>
      <trkpt lat="42.8815740" lon="0.3886550">
        <ele>867.6</ele>
        <time>2020-07-25T08:41:01Z</time>
      </trkpt>
      <trkpt lat="42.8817410" lon="0.3885620">
        <ele>867.4</ele>
        <time>2020-07-25T08:41:03Z</time>
      </trkpt>
      <trkpt lat="42.8818200" lon="0.3885070">
        <ele>867.2</ele>
        <time>2020-07-25T08:41:04Z</time>
      </trkpt>
      <trkpt lat="42.8818970" lon="0.3884540">
        <ele>867.0</ele>
        <time>2020-07-25T08:41:05Z</time>
      </trkpt>
      <trkpt lat="42.8820490" lon="0.3883560">
        <ele>866.2</ele>
        <time>2020-07-25T08:41:07Z</time>
      </trkpt>
      <trkpt lat="42.8822050" lon="0.3882590">
        <ele>865.0</ele>
        <time>2020-07-25T08:41:09Z</time>
      </trkpt>
      <trkpt lat="42.8823610" lon="0.3881490">
        <ele>864.2</ele>
        <time>2020-07-25T08:41:11Z</time>
      </trkpt>
      <trkpt lat="42.8824380" lon="0.3880930">
        <ele>863.8</ele>
        <time>2020-07-25T08:41:12Z</time>
      </trkpt>
      <trkpt lat="42.8825940" lon="0.3879610">
        <ele>863.2</ele>
        <time>2020-07-25T08:41:14Z</time>
      </trkpt>
      <trkpt lat="42.8827680" lon="0.3878730">
        <ele>862.4</ele>
        <time>2020-07-25T08:41:16Z</time>
      </trkpt>
      <trkpt lat="42.8829430" lon="0.3877680">
        <ele>861.0</ele>
        <time>2020-07-25T08:41:18Z</time>
      </trkpt>
      <trkpt lat="42.8830270" lon="0.3877010">
        <ele>860.2</ele>
        <time>2020-07-25T08:41:19Z</time>
      </trkpt>
      <trkpt lat="42.8831090" lon="0.3876270">
        <ele>859.6</ele>
        <time>2020-07-25T08:41:20Z</time>
      </trkpt>
      <trkpt lat="42.8831880" lon="0.3875390">
        <ele>859.0</ele>
        <time>2020-07-25T08:41:21Z</time>
      </trkpt>
      <trkpt lat="42.8832660" lon="0.3874430">
        <ele>858.6</ele>
        <time>2020-07-25T08:41:22Z</time>
      </trkpt>
      <trkpt lat="42.8834810" lon="0.3871120">
        <ele>856.8</ele>
        <time>2020-07-25T08:41:25Z</time>
      </trkpt>
      <trkpt lat="42.8835570" lon="0.3870070">
        <ele>856.0</ele>
        <time>2020-07-25T08:41:26Z</time>
      </trkpt>
      <trkpt lat="42.8836320" lon="0.3869000">
        <ele>855.2</ele>
        <time>2020-07-25T08:41:27Z</time>
      </trkpt>
      <trkpt lat="42.8837850" lon="0.3866990">
        <ele>854.0</ele>
        <time>2020-07-25T08:41:29Z</time>
      </trkpt>
      <trkpt lat="42.8841000" lon="0.3863100">
        <ele>853.0</ele>
        <time>2020-07-25T08:41:33Z</time>
      </trkpt>
      <trkpt lat="42.8841850" lon="0.3862200">
        <ele>852.6</ele>
        <time>2020-07-25T08:41:34Z</time>
      </trkpt>
      <trkpt lat="42.8842770" lon="0.3861400">
        <ele>852.0</ele>
        <time>2020-07-25T08:41:35Z</time>
      </trkpt>
      <trkpt lat="42.8843740" lon="0.3860720">
        <ele>851.4</ele>
        <time>2020-07-25T08:41:36Z</time>
      </trkpt>
      <trkpt lat="42.8845790" lon="0.3859620">
        <ele>850.2</ele>
        <time>2020-07-25T08:41:38Z</time>
      </trkpt>
      <trkpt lat="42.8847890" lon="0.3858600">
        <ele>849.0</ele>
        <time>2020-07-25T08:41:40Z</time>
      </trkpt>
      <trkpt lat="42.8850050" lon="0.3857480">
        <ele>847.8</ele>
        <time>2020-07-25T08:41:42Z</time>
      </trkpt>
      <trkpt lat="42.8852250" lon="0.3856300">
        <ele>846.0</ele>
        <time>2020-07-25T08:41:44Z</time>
      </trkpt>
      <trkpt lat="42.8853370" lon="0.3855740">
        <ele>845.4</ele>
        <time>2020-07-25T08:41:45Z</time>
      </trkpt>
      <trkpt lat="42.8854470" lon="0.3855130">
        <ele>844.8</ele>
        <time>2020-07-25T08:41:46Z</time>
      </trkpt>
      <trkpt lat="42.8856600" lon="0.3853840">
        <ele>843.4</ele>
        <time>2020-07-25T08:41:48Z</time>
      </trkpt>
      <trkpt lat="42.8858520" lon="0.3852400">
        <ele>842.6</ele>
        <time>2020-07-25T08:41:50Z</time>
      </trkpt>
      <trkpt lat="42.8859420" lon="0.3851630">
        <ele>842.4</ele>
        <time>2020-07-25T08:41:51Z</time>
      </trkpt>
      <trkpt lat="42.8860960" lon="0.3849510">
        <ele>842.2</ele>
        <time>2020-07-25T08:41:53Z</time>
      </trkpt>
      <trkpt lat="42.8861600" lon="0.3848370">
        <ele>842.2</ele>
        <time>2020-07-25T08:41:54Z</time>
      </trkpt>
      <trkpt lat="42.8862120" lon="0.3847150">
        <ele>842.2</ele>
        <time>2020-07-25T08:41:55Z</time>
      </trkpt>
      <trkpt lat="42.8863430" lon="0.3843560">
        <ele>841.8</ele>
        <time>2020-07-25T08:41:58Z</time>
      </trkpt>
      <trkpt lat="42.8864660" lon="0.3840140">
        <ele>841.4</ele>
        <time>2020-07-25T08:42:01Z</time>
      </trkpt>
      <trkpt lat="42.8866420" lon="0.3835530">
        <ele>839.8</ele>
        <time>2020-07-25T08:42:05Z</time>
      </trkpt>
      <trkpt lat="42.8867470" lon="0.3833180">
        <ele>838.2</ele>
        <time>2020-07-25T08:42:07Z</time>
      </trkpt>
      <trkpt lat="42.8868640" lon="0.3830860">
        <ele>836.4</ele>
        <time>2020-07-25T08:42:09Z</time>
      </trkpt>
      <trkpt lat="42.8869840" lon="0.3828570">
        <ele>835.2</ele>
        <time>2020-07-25T08:42:11Z</time>
      </trkpt>
      <trkpt lat="42.8872550" lon="0.3824490">
        <ele>833.8</ele>
        <time>2020-07-25T08:42:15Z</time>
      </trkpt>
      <trkpt lat="42.8873310" lon="0.3823640">
        <ele>833.4</ele>
        <time>2020-07-25T08:42:16Z</time>
      </trkpt>
      <trkpt lat="42.8875290" lon="0.3820930">
        <ele>832.8</ele>
        <time>2020-07-25T08:42:19Z</time>
      </trkpt>
      <trkpt lat="42.8875750" lon="0.3819840">
        <ele>832.8</ele>
        <time>2020-07-25T08:42:20Z</time>
      </trkpt>
      <trkpt lat="42.8876090" lon="0.3818670">
        <ele>832.6</ele>
        <time>2020-07-25T08:42:21Z</time>
      </trkpt>
      <trkpt lat="42.8876540" lon="0.3816120">
        <ele>832.6</ele>
        <time>2020-07-25T08:42:23Z</time>
      </trkpt>
      <trkpt lat="42.8876860" lon="0.3813480">
        <ele>832.6</ele>
        <time>2020-07-25T08:42:25Z</time>
      </trkpt>
      <trkpt lat="42.8876990" lon="0.3812120">
        <ele>832.6</ele>
        <time>2020-07-25T08:42:26Z</time>
      </trkpt>
      <trkpt lat="42.8877680" lon="0.3806750">
        <ele>832.2</ele>
        <time>2020-07-25T08:42:30Z</time>
      </trkpt>
      <trkpt lat="42.8878420" lon="0.3804250">
        <ele>831.2</ele>
        <time>2020-07-25T08:42:32Z</time>
      </trkpt>
      <trkpt lat="42.8878940" lon="0.3803120">
        <ele>830.6</ele>
        <time>2020-07-25T08:42:33Z</time>
      </trkpt>
      <trkpt lat="42.8879500" lon="0.3802060">
        <ele>830.4</ele>
        <time>2020-07-25T08:42:34Z</time>
      </trkpt>
      <trkpt lat="42.8880120" lon="0.3801240">
        <ele>830.2</ele>
        <time>2020-07-25T08:42:35Z</time>
      </trkpt>
      <trkpt lat="42.8881850" lon="0.3800500">
        <ele>829.8</ele>
        <time>2020-07-25T08:42:37Z</time>
      </trkpt>
      <trkpt lat="42.8884550" lon="0.3799550">
        <ele>829.0</ele>
        <time>2020-07-25T08:42:40Z</time>
      </trkpt>
      <trkpt lat="42.8886390" lon="0.3798730">
        <ele>828.8</ele>
        <time>2020-07-25T08:42:42Z</time>
      </trkpt>
      <trkpt lat="42.8889220" lon="0.3797350">
        <ele>828.0</ele>
        <time>2020-07-25T08:42:45Z</time>
      </trkpt>
      <trkpt lat="42.8891060" lon="0.3796360">
        <ele>827.6</ele>
        <time>2020-07-25T08:42:47Z</time>
      </trkpt>
      <trkpt lat="42.8891990" lon="0.3795900">
        <ele>827.2</ele>
        <time>2020-07-25T08:42:48Z</time>
      </trkpt>
      <trkpt lat="42.8892890" lon="0.3795420">
        <ele>827.2</ele>
        <time>2020-07-25T08:42:49Z</time>
      </trkpt>
      <trkpt lat="42.8894670" lon="0.3794410">
        <ele>827.0</ele>
        <time>2020-07-25T08:42:51Z</time>
      </trkpt>
      <trkpt lat="42.8898000" lon="0.3792000">
        <ele>825.8</ele>
        <time>2020-07-25T08:42:55Z</time>
      </trkpt>
      <trkpt lat="42.8898790" lon="0.3791310">
        <ele>825.4</ele>
        <time>2020-07-25T08:42:56Z</time>
      </trkpt>
      <trkpt lat="42.8900270" lon="0.3789910">
        <ele>824.6</ele>
        <time>2020-07-25T08:42:58Z</time>
      </trkpt>
      <trkpt lat="42.8900770" lon="0.3788910">
        <ele>824.4</ele>
        <time>2020-07-25T08:42:59Z</time>
      </trkpt>
      <trkpt lat="42.8901240" lon="0.3787900">
        <ele>824.0</ele>
        <time>2020-07-25T08:43:00Z</time>
      </trkpt>
      <trkpt lat="42.8901320" lon="0.3786570">
        <ele>823.6</ele>
        <time>2020-07-25T08:43:01Z</time>
      </trkpt>
      <trkpt lat="42.8901450" lon="0.3785430">
        <ele>823.4</ele>
        <time>2020-07-25T08:43:02Z</time>
      </trkpt>
      <trkpt lat="42.8901420" lon="0.3784240">
        <ele>823.2</ele>
        <time>2020-07-25T08:43:03Z</time>
      </trkpt>
      <trkpt lat="42.8901070" lon="0.3781970">
        <ele>822.6</ele>
        <time>2020-07-25T08:43:05Z</time>
      </trkpt>
      <trkpt lat="42.8900700" lon="0.3780940">
        <ele>822.2</ele>
        <time>2020-07-25T08:43:06Z</time>
      </trkpt>
      <trkpt lat="42.8900240" lon="0.3779970">
        <ele>822.0</ele>
        <time>2020-07-25T08:43:07Z</time>
      </trkpt>
      <trkpt lat="42.8899640" lon="0.3779090">
        <ele>821.8</ele>
        <time>2020-07-25T08:43:08Z</time>
      </trkpt>
      <trkpt lat="42.8898910" lon="0.3778240">
        <ele>821.6</ele>
        <time>2020-07-25T08:43:09Z</time>
      </trkpt>
      <trkpt lat="42.8897490" lon="0.3776560">
        <ele>821.2</ele>
        <time>2020-07-25T08:43:11Z</time>
      </trkpt>
      <trkpt lat="42.8896850" lon="0.3775660">
        <ele>820.8</ele>
        <time>2020-07-25T08:43:12Z</time>
      </trkpt>
      <trkpt lat="42.8895710" lon="0.3773700">
        <ele>820.2</ele>
        <time>2020-07-25T08:43:14Z</time>
      </trkpt>
      <trkpt lat="42.8895250" lon="0.3772600">
        <ele>820.0</ele>
        <time>2020-07-25T08:43:15Z</time>
      </trkpt>
      <trkpt lat="42.8895030" lon="0.3771350">
        <ele>819.6</ele>
        <time>2020-07-25T08:43:16Z</time>
      </trkpt>
      <trkpt lat="42.8895130" lon="0.3768830">
        <ele>819.2</ele>
        <time>2020-07-25T08:43:18Z</time>
      </trkpt>
      <trkpt lat="42.8895360" lon="0.3767680">
        <ele>819.0</ele>
        <time>2020-07-25T08:43:19Z</time>
      </trkpt>
      <trkpt lat="42.8895790" lon="0.3766530">
        <ele>818.8</ele>
        <time>2020-07-25T08:43:20Z</time>
      </trkpt>
      <trkpt lat="42.8897500" lon="0.3764840">
        <ele>817.8</ele>
        <time>2020-07-25T08:43:22Z</time>
      </trkpt>
      <trkpt lat="42.8898610" lon="0.3764070">
        <ele>816.8</ele>
        <time>2020-07-25T08:43:23Z</time>
      </trkpt>
      <trkpt lat="42.8900260" lon="0.3761800">
        <ele>815.2</ele>
        <time>2020-07-25T08:43:25Z</time>
      </trkpt>
      <trkpt lat="42.8901800" lon="0.3759560">
        <ele>814.0</ele>
        <time>2020-07-25T08:43:27Z</time>
      </trkpt>
      <trkpt lat="42.8904150" lon="0.3754880">
        <ele>813.2</ele>
        <time>2020-07-25T08:43:31Z</time>
      </trkpt>
      <trkpt lat="42.8904630" lon="0.3753670">
        <ele>813.0</ele>
        <time>2020-07-25T08:43:32Z</time>
      </trkpt>
      <trkpt lat="42.8906920" lon="0.3747730">
        <ele>812.6</ele>
        <time>2020-07-25T08:43:37Z</time>
      </trkpt>
      <trkpt lat="42.8907460" lon="0.3746650">
        <ele>812.4</ele>
        <time>2020-07-25T08:43:38Z</time>
      </trkpt>
      <trkpt lat="42.8910860" lon="0.3740860">
        <ele>812.4</ele>
        <time>2020-07-25T08:43:44Z</time>
      </trkpt>
      <trkpt lat="42.8914520" lon="0.3735700">
        <ele>812.2</ele>
        <time>2020-07-25T08:43:50Z</time>
      </trkpt>
      <trkpt lat="42.8915160" lon="0.3734940">
        <ele>812.2</ele>
        <time>2020-07-25T08:43:51Z</time>
      </trkpt>
      <trkpt lat="42.8915780" lon="0.3734230">
        <ele>812.0</ele>
        <time>2020-07-25T08:43:52Z</time>
      </trkpt>
      <trkpt lat="42.8918540" lon="0.3730900">
        <ele>811.6</ele>
        <time>2020-07-25T08:43:57Z</time>
      </trkpt>
      <trkpt lat="42.8921330" lon="0.3727380">
        <ele>813.2</ele>
        <time>2020-07-25T08:44:03Z</time>
      </trkpt>
      <trkpt lat="42.8922850" lon="0.3725990">
        <ele>814.2</ele>
        <time>2020-07-25T08:44:06Z</time>
      </trkpt>
      <trkpt lat="42.8924380" lon="0.3724530">
        <ele>814.2</ele>
        <time>2020-07-25T08:44:09Z</time>
      </trkpt>
      <trkpt lat="42.8927770" lon="0.3721440">
        <ele>813.2</ele>
        <time>2020-07-25T08:44:15Z</time>
      </trkpt>
      <trkpt lat="42.8928420" lon="0.3720890">
        <ele>813.2</ele>
        <time>2020-07-25T08:44:16Z</time>
      </trkpt>
      <trkpt lat="42.8930610" lon="0.3719160">
        <ele>812.0</ele>
        <time>2020-07-25T08:44:19Z</time>
      </trkpt>
      <trkpt lat="42.8932190" lon="0.3717990">
        <ele>811.0</ele>
        <time>2020-07-25T08:44:21Z</time>
      </trkpt>
      <trkpt lat="42.8934590" lon="0.3716250">
        <ele>809.8</ele>
        <time>2020-07-25T08:44:24Z</time>
      </trkpt>
      <trkpt lat="42.8936920" lon="0.3714870">
        <ele>808.8</ele>
        <time>2020-07-25T08:44:27Z</time>
      </trkpt>
      <trkpt lat="42.8937580" lon="0.3714450">
        <ele>808.8</ele>
        <time>2020-07-25T08:44:28Z</time>
      </trkpt>
      <trkpt lat="42.8940370" lon="0.3712870">
        <ele>810.2</ele>
        <time>2020-07-25T08:44:32Z</time>
      </trkpt>
      <trkpt lat="42.8941080" lon="0.3712570">
        <ele>810.8</ele>
        <time>2020-07-25T08:44:33Z</time>
      </trkpt>
      <trkpt lat="42.8942370" lon="0.3712190">
        <ele>811.6</ele>
        <time>2020-07-25T08:44:35Z</time>
      </trkpt>
      <trkpt lat="42.8943870" lon="0.3712010">
        <ele>811.8</ele>
        <time>2020-07-25T08:44:37Z</time>
      </trkpt>
      <trkpt lat="42.8944520" lon="0.3711860">
        <ele>812.0</ele>
        <time>2020-07-25T08:44:38Z</time>
      </trkpt>
      <trkpt lat="42.8948740" lon="0.3711050">
        <ele>812.2</ele>
        <time>2020-07-25T08:44:44Z</time>
      </trkpt>
      <trkpt lat="42.8950010" lon="0.3710300">
        <ele>811.8</ele>
        <time>2020-07-25T08:44:46Z</time>
      </trkpt>
      <trkpt lat="42.8951340" lon="0.3709120">
        <ele>811.0</ele>
        <time>2020-07-25T08:44:48Z</time>
      </trkpt>
      <trkpt lat="42.8952050" lon="0.3708430">
        <ele>810.4</ele>
        <time>2020-07-25T08:44:49Z</time>
      </trkpt>
      <trkpt lat="42.8953700" lon="0.3707360">
        <ele>809.2</ele>
        <time>2020-07-25T08:44:51Z</time>
      </trkpt>
      <trkpt lat="42.8955490" lon="0.3706530">
        <ele>808.6</ele>
        <time>2020-07-25T08:44:53Z</time>
      </trkpt>
      <trkpt lat="42.8960450" lon="0.3703600">
        <ele>808.8</ele>
        <time>2020-07-25T08:44:59Z</time>
      </trkpt>
      <trkpt lat="42.8962140" lon="0.3702690">
        <ele>808.6</ele>
        <time>2020-07-25T08:45:01Z</time>
      </trkpt>
      <trkpt lat="42.8963870" lon="0.3701920">
        <ele>808.2</ele>
        <time>2020-07-25T08:45:03Z</time>
      </trkpt>
      <trkpt lat="42.8964750" lon="0.3701600">
        <ele>808.0</ele>
        <time>2020-07-25T08:45:04Z</time>
      </trkpt>
      <trkpt lat="42.8965640" lon="0.3701270">
        <ele>807.6</ele>
        <time>2020-07-25T08:45:05Z</time>
      </trkpt>
      <trkpt lat="42.8967350" lon="0.3700520">
        <ele>806.4</ele>
        <time>2020-07-25T08:45:07Z</time>
      </trkpt>
      <trkpt lat="42.8968050" lon="0.3699820">
        <ele>805.8</ele>
        <time>2020-07-25T08:45:08Z</time>
      </trkpt>
      <trkpt lat="42.8968710" lon="0.3698640">
        <ele>805.2</ele>
        <time>2020-07-25T08:45:09Z</time>
      </trkpt>
      <trkpt lat="42.8969120" lon="0.3697450">
        <ele>805.0</ele>
        <time>2020-07-25T08:45:10Z</time>
      </trkpt>
      <trkpt lat="42.8969670" lon="0.3695080">
        <ele>804.6</ele>
        <time>2020-07-25T08:45:12Z</time>
      </trkpt>
      <trkpt lat="42.8969830" lon="0.3692480">
        <ele>803.8</ele>
        <time>2020-07-25T08:45:14Z</time>
      </trkpt>
      <trkpt lat="42.8969960" lon="0.3689800">
        <ele>801.6</ele>
        <time>2020-07-25T08:45:16Z</time>
      </trkpt>
      <trkpt lat="42.8970060" lon="0.3688440">
        <ele>800.2</ele>
        <time>2020-07-25T08:45:17Z</time>
      </trkpt>
      <trkpt lat="42.8970200" lon="0.3687100">
        <ele>799.0</ele>
        <time>2020-07-25T08:45:18Z</time>
      </trkpt>
      <trkpt lat="42.8970570" lon="0.3684480">
        <ele>797.4</ele>
        <time>2020-07-25T08:45:20Z</time>
      </trkpt>
      <trkpt lat="42.8970890" lon="0.3683180">
        <ele>797.0</ele>
        <time>2020-07-25T08:45:21Z</time>
      </trkpt>
      <trkpt lat="42.8971290" lon="0.3681890">
        <ele>796.8</ele>
        <time>2020-07-25T08:45:22Z</time>
      </trkpt>
      <trkpt lat="42.8971700" lon="0.3680600">
        <ele>796.4</ele>
        <time>2020-07-25T08:45:23Z</time>
      </trkpt>
      <trkpt lat="42.8972120" lon="0.3679310">
        <ele>796.0</ele>
        <time>2020-07-25T08:45:24Z</time>
      </trkpt>
      <trkpt lat="42.8973210" lon="0.3676920">
        <ele>794.4</ele>
        <time>2020-07-25T08:45:26Z</time>
      </trkpt>
      <trkpt lat="42.8973950" lon="0.3675760">
        <ele>793.8</ele>
        <time>2020-07-25T08:45:27Z</time>
      </trkpt>
      <trkpt lat="42.8974610" lon="0.3674640">
        <ele>793.0</ele>
        <time>2020-07-25T08:45:28Z</time>
      </trkpt>
      <trkpt lat="42.8975840" lon="0.3672330">
        <ele>791.8</ele>
        <time>2020-07-25T08:45:30Z</time>
      </trkpt>
      <trkpt lat="42.8976530" lon="0.3671230">
        <ele>791.2</ele>
        <time>2020-07-25T08:45:31Z</time>
      </trkpt>
      <trkpt lat="42.8977160" lon="0.3670100">
        <ele>790.6</ele>
        <time>2020-07-25T08:45:32Z</time>
      </trkpt>
      <trkpt lat="42.8977830" lon="0.3669070">
        <ele>789.8</ele>
        <time>2020-07-25T08:45:33Z</time>
      </trkpt>
      <trkpt lat="42.8978510" lon="0.3668070">
        <ele>789.0</ele>
        <time>2020-07-25T08:45:34Z</time>
      </trkpt>
      <trkpt lat="42.8979910" lon="0.3666140">
        <ele>787.8</ele>
        <time>2020-07-25T08:45:36Z</time>
      </trkpt>
      <trkpt lat="42.8982270" lon="0.3661990">
        <ele>786.8</ele>
        <time>2020-07-25T08:45:40Z</time>
      </trkpt>
      <trkpt lat="42.8984190" lon="0.3657450">
        <ele>785.4</ele>
        <time>2020-07-25T08:45:44Z</time>
      </trkpt>
      <trkpt lat="42.8985500" lon="0.3654790">
        <ele>785.2</ele>
        <time>2020-07-25T08:45:47Z</time>
      </trkpt>
      <trkpt lat="42.8985830" lon="0.3654110">
        <ele>786.2</ele>
        <time>2020-07-25T08:45:50Z</time>
      </trkpt>
      <trkpt lat="42.8986150" lon="0.3654780">
        <ele>786.6</ele>
        <time>2020-07-25T08:45:52Z</time>
      </trkpt>
      <trkpt lat="42.8986440" lon="0.3655250">
        <ele>786.6</ele>
        <time>2020-07-25T08:45:53Z</time>
      </trkpt>
      <trkpt lat="42.8986870" lon="0.3655570">
        <ele>786.4</ele>
        <time>2020-07-25T08:45:54Z</time>
      </trkpt>
      <trkpt lat="42.8987290" lon="0.3655590">
        <ele>786.0</ele>
        <time>2020-07-25T08:45:55Z</time>
      </trkpt>
      <trkpt lat="42.8987690" lon="0.3655280">
        <ele>785.4</ele>
        <time>2020-07-25T08:45:56Z</time>
      </trkpt>
      <trkpt lat="42.8988320" lon="0.3654040">
        <ele>784.6</ele>
        <time>2020-07-25T08:45:58Z</time>
      </trkpt>
      <trkpt lat="42.8988630" lon="0.3653250">
        <ele>784.4</ele>
        <time>2020-07-25T08:45:59Z</time>
      </trkpt>
      <trkpt lat="42.8989700" lon="0.3650770">
        <ele>783.6</ele>
        <time>2020-07-25T08:46:02Z</time>
      </trkpt>
      <trkpt lat="42.8990090" lon="0.3650000">
        <ele>783.4</ele>
        <time>2020-07-25T08:46:03Z</time>
      </trkpt>
      <trkpt lat="42.8990460" lon="0.3649260">
        <ele>782.8</ele>
        <time>2020-07-25T08:46:04Z</time>
      </trkpt>
      <trkpt lat="42.8991180" lon="0.3647870">
        <ele>782.0</ele>
        <time>2020-07-25T08:46:06Z</time>
      </trkpt>
      <trkpt lat="42.8992360" lon="0.3645770">
        <ele>781.2</ele>
        <time>2020-07-25T08:46:09Z</time>
      </trkpt>
      <trkpt lat="42.8992710" lon="0.3644990">
        <ele>780.8</ele>
        <time>2020-07-25T08:46:10Z</time>
      </trkpt>
      <trkpt lat="42.8993940" lon="0.3642650">
        <ele>779.4</ele>
        <time>2020-07-25T08:46:13Z</time>
      </trkpt>
      <trkpt lat="42.8994440" lon="0.3641950">
        <ele>778.8</ele>
        <time>2020-07-25T08:46:14Z</time>
      </trkpt>
      <trkpt lat="42.8994990" lon="0.3641280">
        <ele>778.4</ele>
        <time>2020-07-25T08:46:15Z</time>
      </trkpt>
      <trkpt lat="42.8997360" lon="0.3638850">
        <ele>777.0</ele>
        <time>2020-07-25T08:46:19Z</time>
      </trkpt>
      <trkpt lat="42.8997970" lon="0.3638310">
        <ele>776.8</ele>
        <time>2020-07-25T08:46:20Z</time>
      </trkpt>
      <trkpt lat="42.9000530" lon="0.3636390">
        <ele>776.0</ele>
        <time>2020-07-25T08:46:24Z</time>
      </trkpt>
      <trkpt lat="42.9001160" lon="0.3635840">
        <ele>775.6</ele>
        <time>2020-07-25T08:46:25Z</time>
      </trkpt>
      <trkpt lat="42.9004450" lon="0.3632780">
        <ele>775.0</ele>
        <time>2020-07-25T08:46:30Z</time>
      </trkpt>
      <trkpt lat="42.9006490" lon="0.3630840">
        <ele>774.0</ele>
        <time>2020-07-25T08:46:33Z</time>
      </trkpt>
      <trkpt lat="42.9007140" lon="0.3630120">
        <ele>773.6</ele>
        <time>2020-07-25T08:46:34Z</time>
      </trkpt>
      <trkpt lat="42.9008480" lon="0.3628630">
        <ele>772.6</ele>
        <time>2020-07-25T08:46:36Z</time>
      </trkpt>
      <trkpt lat="42.9009130" lon="0.3627850">
        <ele>771.8</ele>
        <time>2020-07-25T08:46:37Z</time>
      </trkpt>
      <trkpt lat="42.9010450" lon="0.3626070">
        <ele>770.2</ele>
        <time>2020-07-25T08:46:39Z</time>
      </trkpt>
      <trkpt lat="42.9011760" lon="0.3624090">
        <ele>769.2</ele>
        <time>2020-07-25T08:46:41Z</time>
      </trkpt>
      <trkpt lat="42.9013010" lon="0.3622040">
        <ele>767.6</ele>
        <time>2020-07-25T08:46:43Z</time>
      </trkpt>
      <trkpt lat="42.9013640" lon="0.3621080">
        <ele>767.2</ele>
        <time>2020-07-25T08:46:44Z</time>
      </trkpt>
      <trkpt lat="42.9015010" lon="0.3619320">
        <ele>766.6</ele>
        <time>2020-07-25T08:46:46Z</time>
      </trkpt>
      <trkpt lat="42.9016580" lon="0.3618020">
        <ele>765.8</ele>
        <time>2020-07-25T08:46:48Z</time>
      </trkpt>
      <trkpt lat="42.9017380" lon="0.3617470">
        <ele>765.6</ele>
        <time>2020-07-25T08:46:49Z</time>
      </trkpt>
      <trkpt lat="42.9019680" lon="0.3616040">
        <ele>765.0</ele>
        <time>2020-07-25T08:46:52Z</time>
      </trkpt>
      <trkpt lat="42.9020460" lon="0.3615630">
        <ele>764.8</ele>
        <time>2020-07-25T08:46:53Z</time>
      </trkpt>
      <trkpt lat="42.9021270" lon="0.3615210">
        <ele>764.4</ele>
        <time>2020-07-25T08:46:54Z</time>
      </trkpt>
      <trkpt lat="42.9025110" lon="0.3612860">
        <ele>763.8</ele>
        <time>2020-07-25T08:46:59Z</time>
      </trkpt>
      <trkpt lat="42.9026330" lon="0.3611520">
        <ele>763.2</ele>
        <time>2020-07-25T08:47:01Z</time>
      </trkpt>
      <trkpt lat="42.9028080" lon="0.3609600">
        <ele>763.0</ele>
        <time>2020-07-25T08:47:04Z</time>
      </trkpt>
      <trkpt lat="42.9028730" lon="0.3609150">
        <ele>763.0</ele>
        <time>2020-07-25T08:47:05Z</time>
      </trkpt>
      <trkpt lat="42.9030560" lon="0.3607960">
        <ele>762.2</ele>
        <time>2020-07-25T08:47:08Z</time>
      </trkpt>
      <trkpt lat="42.9033000" lon="0.3606210">
        <ele>761.2</ele>
        <time>2020-07-25T08:47:12Z</time>
      </trkpt>
      <trkpt lat="42.9034720" lon="0.3604750">
        <ele>760.8</ele>
        <time>2020-07-25T08:47:15Z</time>
      </trkpt>
      <trkpt lat="42.9035830" lon="0.3604040">
        <ele>760.8</ele>
        <time>2020-07-25T08:47:17Z</time>
      </trkpt>
      <trkpt lat="42.9036880" lon="0.3603430">
        <ele>760.4</ele>
        <time>2020-07-25T08:47:19Z</time>
      </trkpt>
      <trkpt lat="42.9037310" lon="0.3603160">
        <ele>760.0</ele>
        <time>2020-07-25T08:47:20Z</time>
      </trkpt>
      <trkpt lat="42.9038430" lon="0.3602150">
        <ele>759.6</ele>
        <time>2020-07-25T08:47:22Z</time>
      </trkpt>
      <trkpt lat="42.9039000" lon="0.3601610">
        <ele>759.2</ele>
        <time>2020-07-25T08:47:23Z</time>
      </trkpt>
      <trkpt lat="42.9039510" lon="0.3601040">
        <ele>758.6</ele>
        <time>2020-07-25T08:47:24Z</time>
      </trkpt>
      <trkpt lat="42.9039910" lon="0.3600360">
        <ele>758.4</ele>
        <time>2020-07-25T08:47:25Z</time>
      </trkpt>
      <trkpt lat="42.9041130" lon="0.3598370">
        <ele>757.6</ele>
        <time>2020-07-25T08:47:28Z</time>
      </trkpt>
      <trkpt lat="42.9041500" lon="0.3597680">
        <ele>757.4</ele>
        <time>2020-07-25T08:47:29Z</time>
      </trkpt>
      <trkpt lat="42.9043210" lon="0.3595890">
        <ele>756.6</ele>
        <time>2020-07-25T08:47:33Z</time>
      </trkpt>
      <trkpt lat="42.9043690" lon="0.3595540">
        <ele>756.4</ele>
        <time>2020-07-25T08:47:34Z</time>
      </trkpt>
      <trkpt lat="42.9045780" lon="0.3593710">
        <ele>755.0</ele>
        <time>2020-07-25T08:47:39Z</time>
      </trkpt>
      <trkpt lat="42.9046410" lon="0.3592770">
        <ele>754.2</ele>
        <time>2020-07-25T08:47:41Z</time>
      </trkpt>
      <trkpt lat="42.9046890" lon="0.3592160">
        <ele>754.0</ele>
        <time>2020-07-25T08:47:43Z</time>
      </trkpt>
      <trkpt lat="42.9049360" lon="0.3589920">
        <ele>754.6</ele>
        <time>2020-07-25T08:53:19Z</time>
      </trkpt>
      <trkpt lat="42.9050690" lon="0.3588760">
        <ele>754.4</ele>
        <time>2020-07-25T08:53:23Z</time>
      </trkpt>
      <trkpt lat="42.9051460" lon="0.3588130">
        <ele>754.2</ele>
        <time>2020-07-25T08:53:26Z</time>
      </trkpt>
      <trkpt lat="42.9052150" lon="0.3587430">
        <ele>754.4</ele>
        <time>2020-07-25T08:53:29Z</time>
      </trkpt>
      <trkpt lat="42.9052690" lon="0.3586930">
        <ele>754.2</ele>
        <time>2020-07-25T08:53:31Z</time>
      </trkpt>
      <trkpt lat="42.9053290" lon="0.3586310">
        <ele>754.0</ele>
        <time>2020-07-25T08:53:33Z</time>
      </trkpt>
      <trkpt lat="42.9053650" lon="0.3586000">
        <ele>753.8</ele>
        <time>2020-07-25T08:53:34Z</time>
      </trkpt>
      <trkpt lat="42.9054420" lon="0.3585270">
        <ele>753.4</ele>
        <time>2020-07-25T08:53:36Z</time>
      </trkpt>
      <trkpt lat="42.9055200" lon="0.3584580">
        <ele>752.4</ele>
        <time>2020-07-25T08:53:38Z</time>
      </trkpt>
      <trkpt lat="42.9056180" lon="0.3584460">
        <ele>751.6</ele>
        <time>2020-07-25T08:53:40Z</time>
      </trkpt>
      <trkpt lat="42.9056660" lon="0.3584390">
        <ele>751.2</ele>
        <time>2020-07-25T08:53:41Z</time>
      </trkpt>
      <trkpt lat="42.9057000" lon="0.3584060">
        <ele>751.0</ele>
        <time>2020-07-25T08:53:42Z</time>
      </trkpt>
      <trkpt lat="42.9057310" lon="0.3583320">
        <ele>750.8</ele>
        <time>2020-07-25T08:53:43Z</time>
      </trkpt>
      <trkpt lat="42.9057900" lon="0.3581990">
        <ele>750.8</ele>
        <time>2020-07-25T08:53:45Z</time>
      </trkpt>
      <trkpt lat="42.9058890" lon="0.3578690">
        <ele>751.4</ele>
        <time>2020-07-25T08:53:51Z</time>
      </trkpt>
      <trkpt lat="42.9059010" lon="0.3578250">
        <ele>751.6</ele>
        <time>2020-07-25T08:53:52Z</time>
      </trkpt>
      <trkpt lat="42.9059310" lon="0.3577090">
        <ele>752.2</ele>
        <time>2020-07-25T08:53:55Z</time>
      </trkpt>
      <trkpt lat="42.9059450" lon="0.3576210">
        <ele>752.6</ele>
        <time>2020-07-25T08:53:58Z</time>
      </trkpt>
      <trkpt lat="42.9059520" lon="0.3575780">
        <ele>753.2</ele>
        <time>2020-07-25T08:54:01Z</time>
      </trkpt>
      <trkpt lat="42.9059790" lon="0.3575670">
        <ele>753.4</ele>
        <time>2020-07-25T08:54:02Z</time>
      </trkpt>
      <trkpt lat="42.9059790" lon="0.3575670">
        <ele>753.4</ele>
        <time>2020-07-25T08:54:03Z</time>
      </trkpt>
      <trkpt lat="42.9059920" lon="0.3575680">
        <ele>753.4</ele>
        <time>2020-07-25T08:54:04Z</time>
      </trkpt>
      <trkpt lat="42.9060690" lon="0.3575570">
        <ele>752.8</ele>
        <time>2020-07-25T08:55:20Z</time>
      </trkpt>
      <trkpt lat="42.9061420" lon="0.3575490">
        <ele>752.8</ele>
        <time>2020-07-25T08:55:22Z</time>
      </trkpt>
      <trkpt lat="42.9062260" lon="0.3575380">
        <ele>752.6</ele>
        <time>2020-07-25T08:55:24Z</time>
      </trkpt>
      <trkpt lat="42.9062740" lon="0.3575310">
        <ele>752.6</ele>
        <time>2020-07-25T08:55:25Z</time>
      </trkpt>
      <trkpt lat="42.9063750" lon="0.3575150">
        <ele>752.2</ele>
        <time>2020-07-25T08:55:27Z</time>
      </trkpt>
      <trkpt lat="42.9064290" lon="0.3575060">
        <ele>752.0</ele>
        <time>2020-07-25T08:55:28Z</time>
      </trkpt>
      <trkpt lat="42.9065420" lon="0.3574890">
        <ele>751.4</ele>
        <time>2020-07-25T08:55:30Z</time>
      </trkpt>
      <trkpt lat="42.9066590" lon="0.3574710">
        <ele>751.2</ele>
        <time>2020-07-25T08:55:32Z</time>
      </trkpt>
      <trkpt lat="42.9067790" lon="0.3574590">
        <ele>750.8</ele>
        <time>2020-07-25T08:55:34Z</time>
      </trkpt>
      <trkpt lat="42.9068400" lon="0.3574630">
        <ele>750.8</ele>
        <time>2020-07-25T08:55:35Z</time>
      </trkpt>
      <trkpt lat="42.9069010" lon="0.3574750">
        <ele>750.8</ele>
        <time>2020-07-25T08:55:36Z</time>
      </trkpt>
      <trkpt lat="42.9069610" lon="0.3575000">
        <ele>750.8</ele>
        <time>2020-07-25T08:55:38Z</time>
      </trkpt>
      <trkpt lat="42.9070730" lon="0.3575740">
        <ele>750.8</ele>
        <time>2020-07-25T08:55:39Z</time>
      </trkpt>
      <trkpt lat="42.9073810" lon="0.3578540">
        <ele>750.8</ele>
        <time>2020-07-25T08:55:45Z</time>
      </trkpt>
      <trkpt lat="42.9073810" lon="0.3578540">
        <ele>750.6</ele>
        <time>2020-07-25T08:55:46Z</time>
      </trkpt>
      <trkpt lat="42.9075950" lon="0.3580560">
        <ele>749.8</ele>
        <time>2020-07-25T08:55:50Z</time>
      </trkpt>
      <trkpt lat="42.9078400" lon="0.3582680">
        <ele>749.0</ele>
        <time>2020-07-25T08:55:53Z</time>
      </trkpt>
      <trkpt lat="42.9079030" lon="0.3583240">
        <ele>748.4</ele>
        <time>2020-07-25T08:55:54Z</time>
      </trkpt>
      <trkpt lat="42.9082580" lon="0.3586850">
        <ele>747.6</ele>
        <time>2020-07-25T08:56:00Z</time>
      </trkpt>
      <trkpt lat="42.9085500" lon="0.3590230">
        <ele>748.2</ele>
        <time>2020-07-25T08:56:06Z</time>
      </trkpt>
      <trkpt lat="42.9086380" lon="0.3591280">
        <ele>748.4</ele>
        <time>2020-07-25T08:56:08Z</time>
      </trkpt>
      <trkpt lat="42.9088550" lon="0.3593580">
        <ele>749.4</ele>
        <time>2020-07-25T08:56:13Z</time>
      </trkpt>
      <trkpt lat="42.9089430" lon="0.3594510">
        <ele>749.6</ele>
        <time>2020-07-25T08:56:15Z</time>
      </trkpt>
      <trkpt lat="42.9090680" lon="0.3595790">
        <ele>749.6</ele>
        <time>2020-07-25T08:56:18Z</time>
      </trkpt>
      <trkpt lat="42.9092000" lon="0.3597740">
        <ele>748.6</ele>
        <time>2020-07-25T08:56:22Z</time>
      </trkpt>
      <trkpt lat="42.9092320" lon="0.3598270">
        <ele>748.4</ele>
        <time>2020-07-25T08:56:23Z</time>
      </trkpt>
      <trkpt lat="42.9092640" lon="0.3598730">
        <ele>748.4</ele>
        <time>2020-07-25T08:56:24Z</time>
      </trkpt>
      <trkpt lat="42.9093350" lon="0.3599370">
        <ele>748.4</ele>
        <time>2020-07-25T08:56:26Z</time>
      </trkpt>
      <trkpt lat="42.9093770" lon="0.3599430">
        <ele>748.6</ele>
        <time>2020-07-25T08:56:27Z</time>
      </trkpt>
      <trkpt lat="42.9094190" lon="0.3599490">
        <ele>749.0</ele>
        <time>2020-07-25T08:56:28Z</time>
      </trkpt>
      <trkpt lat="42.9094660" lon="0.3599490">
        <ele>749.4</ele>
        <time>2020-07-25T08:56:29Z</time>
      </trkpt>
      <trkpt lat="42.9095090" lon="0.3599570">
        <ele>749.8</ele>
        <time>2020-07-25T08:56:30Z</time>
      </trkpt>
      <trkpt lat="42.9096510" lon="0.3600050">
        <ele>750.4</ele>
        <time>2020-07-25T08:56:34Z</time>
      </trkpt>
      <trkpt lat="42.9096840" lon="0.3600170">
        <ele>750.4</ele>
        <time>2020-07-25T08:56:35Z</time>
      </trkpt>
      <trkpt lat="42.9097190" lon="0.3600250">
        <ele>750.6</ele>
        <time>2020-07-25T08:56:36Z</time>
      </trkpt>
      <trkpt lat="42.9098290" lon="0.3600550">
        <ele>751.2</ele>
        <time>2020-07-25T08:56:39Z</time>
      </trkpt>
      <trkpt lat="42.9099060" lon="0.3600630">
        <ele>751.6</ele>
        <time>2020-07-25T08:56:41Z</time>
      </trkpt>
      <trkpt lat="42.9099430" lon="0.3600660">
        <ele>751.8</ele>
        <time>2020-07-25T08:56:42Z</time>
      </trkpt>
      <trkpt lat="42.9100150" lon="0.3600590">
        <ele>752.2</ele>
        <time>2020-07-25T08:56:44Z</time>
      </trkpt>
      <trkpt lat="42.9100850" lon="0.3600440">
        <ele>752.8</ele>
        <time>2020-07-25T08:56:46Z</time>
      </trkpt>
      <trkpt lat="42.9102250" lon="0.3599950">
        <ele>754.0</ele>
        <time>2020-07-25T08:56:50Z</time>
      </trkpt>
      <trkpt lat="42.9103290" lon="0.3599590">
        <ele>754.8</ele>
        <time>2020-07-25T08:56:53Z</time>
      </trkpt>
      <trkpt lat="42.9103630" lon="0.3599460">
        <ele>755.0</ele>
        <time>2020-07-25T08:56:54Z</time>
      </trkpt>
      <trkpt lat="42.9105060" lon="0.3598960">
        <ele>755.6</ele>
        <time>2020-07-25T08:56:58Z</time>
      </trkpt>
      <trkpt lat="42.9106160" lon="0.3598490">
        <ele>756.0</ele>
        <time>2020-07-25T08:57:01Z</time>
      </trkpt>
      <trkpt lat="42.9106930" lon="0.3598100">
        <ele>756.0</ele>
        <time>2020-07-25T08:57:03Z</time>
      </trkpt>
      <trkpt lat="42.9108070" lon="0.3597440">
        <ele>756.2</ele>
        <time>2020-07-25T08:57:06Z</time>
      </trkpt>
      <trkpt lat="42.9108440" lon="0.3597200">
        <ele>756.2</ele>
        <time>2020-07-25T08:57:07Z</time>
      </trkpt>
      <trkpt lat="42.9108840" lon="0.3596970">
        <ele>756.2</ele>
        <time>2020-07-25T08:57:09Z</time>
      </trkpt>
      <trkpt lat="42.9109590" lon="0.3596430">
        <ele>756.2</ele>
        <time>2020-07-25T08:57:10Z</time>
      </trkpt>
      <trkpt lat="42.9111320" lon="0.3594630">
        <ele>756.6</ele>
        <time>2020-07-25T08:57:15Z</time>
      </trkpt>
      <trkpt lat="42.9111680" lon="0.3594250">
        <ele>756.8</ele>
        <time>2020-07-25T08:57:16Z</time>
      </trkpt>
      <trkpt lat="42.9112830" lon="0.3593270">
        <ele>757.2</ele>
        <time>2020-07-25T08:57:19Z</time>
      </trkpt>
      <trkpt lat="42.9113940" lon="0.3592360">
        <ele>757.4</ele>
        <time>2020-07-25T08:57:22Z</time>
      </trkpt>
      <trkpt lat="42.9115260" lon="0.3591250">
        <ele>758.4</ele>
        <time>2020-07-25T08:57:26Z</time>
      </trkpt>
      <trkpt lat="42.9116150" lon="0.3590510">
        <ele>759.8</ele>
        <time>2020-07-25T08:57:29Z</time>
      </trkpt>
      <trkpt lat="42.9117270" lon="0.3589620">
        <ele>760.8</ele>
        <time>2020-07-25T08:57:33Z</time>
      </trkpt>
      <trkpt lat="42.9118560" lon="0.3588630">
        <ele>761.6</ele>
        <time>2020-07-25T08:57:38Z</time>
      </trkpt>
      <trkpt lat="42.9118810" lon="0.3588450">
        <ele>762.0</ele>
        <time>2020-07-25T08:57:39Z</time>
      </trkpt>
      <trkpt lat="42.9119340" lon="0.3588020">
        <ele>762.2</ele>
        <time>2020-07-25T08:57:41Z</time>
      </trkpt>
      <trkpt lat="42.9120110" lon="0.3587390">
        <ele>762.8</ele>
        <time>2020-07-25T08:57:44Z</time>
      </trkpt>
      <trkpt lat="42.9120630" lon="0.3586950">
        <ele>763.2</ele>
        <time>2020-07-25T08:57:46Z</time>
      </trkpt>
      <trkpt lat="42.9121740" lon="0.3586200">
        <ele>764.4</ele>
        <time>2020-07-25T08:57:50Z</time>
      </trkpt>
      <trkpt lat="42.9122600" lon="0.3585710">
        <ele>765.6</ele>
        <time>2020-07-25T08:57:53Z</time>
      </trkpt>
      <trkpt lat="42.9123130" lon="0.3585340">
        <ele>766.2</ele>
        <time>2020-07-25T08:57:55Z</time>
      </trkpt>
      <trkpt lat="42.9123960" lon="0.3584840">
        <ele>766.6</ele>
        <time>2020-07-25T08:57:58Z</time>
      </trkpt>
      <trkpt lat="42.9125650" lon="0.3584200">
        <ele>767.6</ele>
        <time>2020-07-25T08:58:03Z</time>
      </trkpt>
      <trkpt lat="42.9126310" lon="0.3583880">
        <ele>768.2</ele>
        <time>2020-07-25T08:58:05Z</time>
      </trkpt>
      <trkpt lat="42.9127330" lon="0.3583470">
        <ele>769.0</ele>
        <time>2020-07-25T08:58:08Z</time>
      </trkpt>
      <trkpt lat="42.9127920" lon="0.3583320">
        <ele>769.6</ele>
        <time>2020-07-25T08:58:10Z</time>
      </trkpt>
      <trkpt lat="42.9128470" lon="0.3583160">
        <ele>770.0</ele>
        <time>2020-07-25T08:58:12Z</time>
      </trkpt>
      <trkpt lat="42.9129690" lon="0.3583030">
        <ele>771.0</ele>
        <time>2020-07-25T08:58:16Z</time>
      </trkpt>
      <trkpt lat="42.9129980" lon="0.3583030">
        <ele>771.2</ele>
        <time>2020-07-25T08:58:17Z</time>
      </trkpt>
      <trkpt lat="42.9130970" lon="0.3583040">
        <ele>772.4</ele>
        <time>2020-07-25T08:58:20Z</time>
      </trkpt>
      <trkpt lat="42.9132200" lon="0.3583070">
        <ele>773.2</ele>
        <time>2020-07-25T08:58:24Z</time>
      </trkpt>
      <trkpt lat="42.9132730" lon="0.3583090">
        <ele>773.6</ele>
        <time>2020-07-25T08:58:26Z</time>
      </trkpt>
      <trkpt lat="42.9133760" lon="0.3583060">
        <ele>774.8</ele>
        <time>2020-07-25T08:58:30Z</time>
      </trkpt>
      <trkpt lat="42.9133990" lon="0.3583030">
        <ele>775.0</ele>
        <time>2020-07-25T08:58:31Z</time>
      </trkpt>
      <trkpt lat="42.9134750" lon="0.3583110">
        <ele>776.0</ele>
        <time>2020-07-25T08:58:34Z</time>
      </trkpt>
      <trkpt lat="42.9136140" lon="0.3583510">
        <ele>776.8</ele>
        <time>2020-07-25T08:58:38Z</time>
      </trkpt>
      <trkpt lat="42.9136540" lon="0.3583670">
        <ele>777.0</ele>
        <time>2020-07-25T08:58:39Z</time>
      </trkpt>
      <trkpt lat="42.9137890" lon="0.3584420">
        <ele>778.0</ele>
        <time>2020-07-25T08:58:43Z</time>
      </trkpt>
      <trkpt lat="42.9138500" lon="0.3584640">
        <ele>778.8</ele>
        <time>2020-07-25T08:58:45Z</time>
      </trkpt>
      <trkpt lat="42.9139140" lon="0.3584870">
        <ele>779.0</ele>
        <time>2020-07-25T08:58:47Z</time>
      </trkpt>
      <trkpt lat="42.9140030" lon="0.3585470">
        <ele>779.6</ele>
        <time>2020-07-25T08:58:50Z</time>
      </trkpt>
      <trkpt lat="42.9140300" lon="0.3585700">
        <ele>779.6</ele>
        <time>2020-07-25T08:58:51Z</time>
      </trkpt>
      <trkpt lat="42.9140690" lon="0.3585980">
        <ele>779.8</ele>
        <time>2020-07-25T08:58:52Z</time>
      </trkpt>
      <trkpt lat="42.9141310" lon="0.3586300">
        <ele>780.2</ele>
        <time>2020-07-25T08:58:54Z</time>
      </trkpt>
      <trkpt lat="42.9142440" lon="0.3586820">
        <ele>781.4</ele>
        <time>2020-07-25T08:58:57Z</time>
      </trkpt>
      <trkpt lat="42.9143810" lon="0.3587610">
        <ele>782.2</ele>
        <time>2020-07-25T08:59:01Z</time>
      </trkpt>
      <trkpt lat="42.9144140" lon="0.3587750">
        <ele>782.4</ele>
        <time>2020-07-25T08:59:02Z</time>
      </trkpt>
      <trkpt lat="42.9145720" lon="0.3588350">
        <ele>783.0</ele>
        <time>2020-07-25T08:59:07Z</time>
      </trkpt>
      <trkpt lat="42.9146680" lon="0.3588470">
        <ele>783.8</ele>
        <time>2020-07-25T08:59:10Z</time>
      </trkpt>
      <trkpt lat="42.9147570" lon="0.3588140">
        <ele>784.8</ele>
        <time>2020-07-25T08:59:13Z</time>
      </trkpt>
      <trkpt lat="42.9148520" lon="0.3587080">
        <ele>785.8</ele>
        <time>2020-07-25T08:59:17Z</time>
      </trkpt>
      <trkpt lat="42.9148700" lon="0.3586710">
        <ele>786.2</ele>
        <time>2020-07-25T08:59:18Z</time>
      </trkpt>
      <trkpt lat="42.9149260" lon="0.3584810">
        <ele>787.0</ele>
        <time>2020-07-25T08:59:22Z</time>
      </trkpt>
      <trkpt lat="42.9149440" lon="0.3583800">
        <ele>787.4</ele>
        <time>2020-07-25T08:59:24Z</time>
      </trkpt>
      <trkpt lat="42.9149860" lon="0.3581160">
        <ele>788.2</ele>
        <time>2020-07-25T08:59:29Z</time>
      </trkpt>
      <trkpt lat="42.9150020" lon="0.3580140">
        <ele>788.6</ele>
        <time>2020-07-25T08:59:31Z</time>
      </trkpt>
      <trkpt lat="42.9150080" lon="0.3579600">
        <ele>788.8</ele>
        <time>2020-07-25T08:59:32Z</time>
      </trkpt>
      <trkpt lat="42.9150180" lon="0.3578440">
        <ele>789.4</ele>
        <time>2020-07-25T08:59:34Z</time>
      </trkpt>
      <trkpt lat="42.9150430" lon="0.3575950">
        <ele>789.8</ele>
        <time>2020-07-25T08:59:38Z</time>
      </trkpt>
      <trkpt lat="42.9150470" lon="0.3575310">
        <ele>790.0</ele>
        <time>2020-07-25T08:59:39Z</time>
      </trkpt>
      <trkpt lat="42.9150760" lon="0.3573710">
        <ele>790.4</ele>
        <time>2020-07-25T08:59:42Z</time>
      </trkpt>
      <trkpt lat="42.9150970" lon="0.3572670">
        <ele>790.8</ele>
        <time>2020-07-25T08:59:44Z</time>
      </trkpt>
      <trkpt lat="42.9151470" lon="0.3571000">
        <ele>791.2</ele>
        <time>2020-07-25T08:59:47Z</time>
      </trkpt>
      <trkpt lat="42.9152140" lon="0.3569550">
        <ele>791.4</ele>
        <time>2020-07-25T08:59:50Z</time>
      </trkpt>
      <trkpt lat="42.9152410" lon="0.3569140">
        <ele>791.8</ele>
        <time>2020-07-25T08:59:51Z</time>
      </trkpt>
      <trkpt lat="42.9153240" lon="0.3567900">
        <ele>792.8</ele>
        <time>2020-07-25T08:59:54Z</time>
      </trkpt>
      <trkpt lat="42.9154180" lon="0.3566600">
        <ele>793.2</ele>
        <time>2020-07-25T08:59:57Z</time>
      </trkpt>
      <trkpt lat="42.9155170" lon="0.3565130">
        <ele>793.4</ele>
        <time>2020-07-25T09:00:00Z</time>
      </trkpt>
      <trkpt lat="42.9155450" lon="0.3564570">
        <ele>793.6</ele>
        <time>2020-07-25T09:00:01Z</time>
      </trkpt>
      <trkpt lat="42.9156040" lon="0.3563470">
        <ele>793.8</ele>
        <time>2020-07-25T09:00:03Z</time>
      </trkpt>
      <trkpt lat="42.9156320" lon="0.3562760">
        <ele>794.0</ele>
        <time>2020-07-25T09:00:04Z</time>
      </trkpt>
      <trkpt lat="42.9158120" lon="0.3559000">
        <ele>794.6</ele>
        <time>2020-07-25T09:00:10Z</time>
      </trkpt>
      <trkpt lat="42.9159370" lon="0.3557660">
        <ele>794.8</ele>
        <time>2020-07-25T09:00:13Z</time>
      </trkpt>
      <trkpt lat="42.9160240" lon="0.3556970">
        <ele>795.4</ele>
        <time>2020-07-25T09:00:15Z</time>
      </trkpt>
      <trkpt lat="42.9161880" lon="0.3555870">
        <ele>796.2</ele>
        <time>2020-07-25T09:00:19Z</time>
      </trkpt>
      <trkpt lat="42.9162270" lon="0.3555500">
        <ele>796.4</ele>
        <time>2020-07-25T09:00:20Z</time>
      </trkpt>
      <trkpt lat="42.9162570" lon="0.3554860">
        <ele>796.6</ele>
        <time>2020-07-25T09:00:21Z</time>
      </trkpt>
      <trkpt lat="42.9162870" lon="0.3553310">
        <ele>797.0</ele>
        <time>2020-07-25T09:00:23Z</time>
      </trkpt>
      <trkpt lat="42.9162870" lon="0.3552500">
        <ele>797.2</ele>
        <time>2020-07-25T09:00:24Z</time>
      </trkpt>
      <trkpt lat="42.9162860" lon="0.3551780">
        <ele>797.4</ele>
        <time>2020-07-25T09:00:25Z</time>
      </trkpt>
      <trkpt lat="42.9162590" lon="0.3547780">
        <ele>797.8</ele>
        <time>2020-07-25T09:00:30Z</time>
      </trkpt>
      <trkpt lat="42.9162500" lon="0.3543440">
        <ele>798.4</ele>
        <time>2020-07-25T09:00:36Z</time>
      </trkpt>
      <trkpt lat="42.9162590" lon="0.3542790">
        <ele>799.2</ele>
        <time>2020-07-25T09:00:37Z</time>
      </trkpt>
      <trkpt lat="42.9162740" lon="0.3542160">
        <ele>799.6</ele>
        <time>2020-07-25T09:00:38Z</time>
      </trkpt>
      <trkpt lat="42.9163500" lon="0.3539780">
        <ele>800.2</ele>
        <time>2020-07-25T09:00:42Z</time>
      </trkpt>
      <trkpt lat="42.9164230" lon="0.3538100">
        <ele>800.8</ele>
        <time>2020-07-25T09:00:45Z</time>
      </trkpt>
      <trkpt lat="42.9164790" lon="0.3536460">
        <ele>801.2</ele>
        <time>2020-07-25T09:00:48Z</time>
      </trkpt>
      <trkpt lat="42.9165710" lon="0.3533470">
        <ele>801.4</ele>
        <time>2020-07-25T09:00:53Z</time>
      </trkpt>
      <trkpt lat="42.9165760" lon="0.3532070">
        <ele>802.2</ele>
        <time>2020-07-25T09:00:55Z</time>
      </trkpt>
      <trkpt lat="42.9165720" lon="0.3531380">
        <ele>802.2</ele>
        <time>2020-07-25T09:00:56Z</time>
      </trkpt>
      <trkpt lat="42.9165560" lon="0.3528580">
        <ele>802.8</ele>
        <time>2020-07-25T09:01:00Z</time>
      </trkpt>
      <trkpt lat="42.9165570" lon="0.3524650">
        <ele>803.2</ele>
        <time>2020-07-25T09:01:05Z</time>
      </trkpt>
      <trkpt lat="42.9165850" lon="0.3523430">
        <ele>803.4</ele>
        <time>2020-07-25T09:01:07Z</time>
      </trkpt>
      <trkpt lat="42.9166350" lon="0.3521290">
        <ele>804.4</ele>
        <time>2020-07-25T09:01:10Z</time>
      </trkpt>
      <trkpt lat="42.9166540" lon="0.3520500">
        <ele>804.6</ele>
        <time>2020-07-25T09:01:11Z</time>
      </trkpt>
      <trkpt lat="42.9167260" lon="0.3517390">
        <ele>805.0</ele>
        <time>2020-07-25T09:01:15Z</time>
      </trkpt>
      <trkpt lat="42.9167380" lon="0.3516630">
        <ele>805.0</ele>
        <time>2020-07-25T09:01:16Z</time>
      </trkpt>
      <trkpt lat="42.9168000" lon="0.3514630">
        <ele>805.4</ele>
        <time>2020-07-25T09:01:19Z</time>
      </trkpt>
      <trkpt lat="42.9168340" lon="0.3514060">
        <ele>805.6</ele>
        <time>2020-07-25T09:01:20Z</time>
      </trkpt>
      <trkpt lat="42.9168680" lon="0.3513540">
        <ele>805.8</ele>
        <time>2020-07-25T09:01:21Z</time>
      </trkpt>
      <trkpt lat="42.9169510" lon="0.3512640">
        <ele>806.0</ele>
        <time>2020-07-25T09:01:23Z</time>
      </trkpt>
      <trkpt lat="42.9170300" lon="0.3511740">
        <ele>806.8</ele>
        <time>2020-07-25T09:01:25Z</time>
      </trkpt>
      <trkpt lat="42.9171070" lon="0.3510810">
        <ele>807.4</ele>
        <time>2020-07-25T09:01:27Z</time>
      </trkpt>
      <trkpt lat="42.9172200" lon="0.3509210">
        <ele>808.0</ele>
        <time>2020-07-25T09:01:30Z</time>
      </trkpt>
      <trkpt lat="42.9172780" lon="0.3507970">
        <ele>808.4</ele>
        <time>2020-07-25T09:01:32Z</time>
      </trkpt>
      <trkpt lat="42.9173040" lon="0.3507380">
        <ele>808.6</ele>
        <time>2020-07-25T09:01:33Z</time>
      </trkpt>
      <trkpt lat="42.9173600" lon="0.3505350">
        <ele>809.0</ele>
        <time>2020-07-25T09:01:36Z</time>
      </trkpt>
      <trkpt lat="42.9173760" lon="0.3504690">
        <ele>809.2</ele>
        <time>2020-07-25T09:01:37Z</time>
      </trkpt>
      <trkpt lat="42.9173970" lon="0.3503300">
        <ele>809.6</ele>
        <time>2020-07-25T09:01:39Z</time>
      </trkpt>
      <trkpt lat="42.9174200" lon="0.3501920">
        <ele>809.8</ele>
        <time>2020-07-25T09:01:41Z</time>
      </trkpt>
      <trkpt lat="42.9174260" lon="0.3501230">
        <ele>810.0</ele>
        <time>2020-07-25T09:01:42Z</time>
      </trkpt>
      <trkpt lat="42.9174240" lon="0.3500540">
        <ele>810.2</ele>
        <time>2020-07-25T09:01:43Z</time>
      </trkpt>
      <trkpt lat="42.9174160" lon="0.3499850">
        <ele>810.4</ele>
        <time>2020-07-25T09:01:44Z</time>
      </trkpt>
      <trkpt lat="42.9174060" lon="0.3499190">
        <ele>810.6</ele>
        <time>2020-07-25T09:01:45Z</time>
      </trkpt>
      <trkpt lat="42.9173600" lon="0.3496570">
        <ele>811.2</ele>
        <time>2020-07-25T09:01:49Z</time>
      </trkpt>
      <trkpt lat="42.9173660" lon="0.3495900">
        <ele>811.2</ele>
        <time>2020-07-25T09:01:50Z</time>
      </trkpt>
      <trkpt lat="42.9173790" lon="0.3495290">
        <ele>811.4</ele>
        <time>2020-07-25T09:01:51Z</time>
      </trkpt>
      <trkpt lat="42.9174580" lon="0.3493050">
        <ele>811.6</ele>
        <time>2020-07-25T09:01:55Z</time>
      </trkpt>
      <trkpt lat="42.9175580" lon="0.3491640">
        <ele>812.0</ele>
        <time>2020-07-25T09:01:58Z</time>
      </trkpt>
      <trkpt lat="42.9175980" lon="0.3491200">
        <ele>812.2</ele>
        <time>2020-07-25T09:01:59Z</time>
      </trkpt>
      <trkpt lat="42.9176390" lon="0.3490750">
        <ele>812.4</ele>
        <time>2020-07-25T09:02:00Z</time>
      </trkpt>
      <trkpt lat="42.9176840" lon="0.3490330">
        <ele>812.6</ele>
        <time>2020-07-25T09:02:01Z</time>
      </trkpt>
      <trkpt lat="42.9179060" lon="0.3488470">
        <ele>813.6</ele>
        <time>2020-07-25T09:02:06Z</time>
      </trkpt>
      <trkpt lat="42.9179920" lon="0.3487850">
        <ele>814.2</ele>
        <time>2020-07-25T09:02:08Z</time>
      </trkpt>
      <trkpt lat="42.9180710" lon="0.3487140">
        <ele>814.6</ele>
        <time>2020-07-25T09:02:10Z</time>
      </trkpt>
      <trkpt lat="42.9181050" lon="0.3486710">
        <ele>814.8</ele>
        <time>2020-07-25T09:02:11Z</time>
      </trkpt>
      <trkpt lat="42.9181340" lon="0.3486170">
        <ele>814.8</ele>
        <time>2020-07-25T09:02:12Z</time>
      </trkpt>
      <trkpt lat="42.9181610" lon="0.3485630">
        <ele>815.0</ele>
        <time>2020-07-25T09:02:13Z</time>
      </trkpt>
      <trkpt lat="42.9182610" lon="0.3482560">
        <ele>815.8</ele>
        <time>2020-07-25T09:02:18Z</time>
      </trkpt>
      <trkpt lat="42.9182740" lon="0.3482030">
        <ele>815.8</ele>
        <time>2020-07-25T09:02:19Z</time>
      </trkpt>
      <trkpt lat="42.9183770" lon="0.3479370">
        <ele>816.4</ele>
        <time>2020-07-25T09:02:24Z</time>
      </trkpt>
      <trkpt lat="42.9184280" lon="0.3478140">
        <ele>817.0</ele>
        <time>2020-07-25T09:02:26Z</time>
      </trkpt>
      <trkpt lat="42.9184530" lon="0.3477570">
        <ele>817.4</ele>
        <time>2020-07-25T09:02:27Z</time>
      </trkpt>
      <trkpt lat="42.9185520" lon="0.3475950">
        <ele>818.0</ele>
        <time>2020-07-25T09:02:30Z</time>
      </trkpt>
      <trkpt lat="42.9185890" lon="0.3475490">
        <ele>818.0</ele>
        <time>2020-07-25T09:02:31Z</time>
      </trkpt>
      <trkpt lat="42.9188130" lon="0.3472510">
        <ele>818.2</ele>
        <time>2020-07-25T09:02:37Z</time>
      </trkpt>
      <trkpt lat="42.9189360" lon="0.3471290">
        <ele>818.6</ele>
        <time>2020-07-25T09:02:40Z</time>
      </trkpt>
      <trkpt lat="42.9190260" lon="0.3470550">
        <ele>819.2</ele>
        <time>2020-07-25T09:02:42Z</time>
      </trkpt>
      <trkpt lat="42.9190730" lon="0.3470230">
        <ele>819.4</ele>
        <time>2020-07-25T09:02:43Z</time>
      </trkpt>
      <trkpt lat="42.9193440" lon="0.3468290">
        <ele>820.2</ele>
        <time>2020-07-25T09:02:49Z</time>
      </trkpt>
      <trkpt lat="42.9193840" lon="0.3467920">
        <ele>820.6</ele>
        <time>2020-07-25T09:02:50Z</time>
      </trkpt>
      <trkpt lat="42.9194200" lon="0.3467520">
        <ele>821.2</ele>
        <time>2020-07-25T09:02:51Z</time>
      </trkpt>
      <trkpt lat="42.9194580" lon="0.3467150">
        <ele>821.4</ele>
        <time>2020-07-25T09:02:52Z</time>
      </trkpt>
      <trkpt lat="42.9195890" lon="0.3465230">
        <ele>822.0</ele>
        <time>2020-07-25T09:02:56Z</time>
      </trkpt>
      <trkpt lat="42.9196440" lon="0.3464070">
        <ele>822.6</ele>
        <time>2020-07-25T09:02:58Z</time>
      </trkpt>
      <trkpt lat="42.9197260" lon="0.3462410">
        <ele>822.8</ele>
        <time>2020-07-25T09:03:01Z</time>
      </trkpt>
      <trkpt lat="42.9198990" lon="0.3458970">
        <ele>823.0</ele>
        <time>2020-07-25T09:03:07Z</time>
      </trkpt>
      <trkpt lat="42.9199830" lon="0.3458230">
        <ele>823.2</ele>
        <time>2020-07-25T09:03:09Z</time>
      </trkpt>
      <trkpt lat="42.9200310" lon="0.3458120">
        <ele>823.2</ele>
        <time>2020-07-25T09:03:10Z</time>
      </trkpt>
      <trkpt lat="42.9200810" lon="0.3458100">
        <ele>823.4</ele>
        <time>2020-07-25T09:03:11Z</time>
      </trkpt>
      <trkpt lat="42.9201350" lon="0.3458200">
        <ele>823.6</ele>
        <time>2020-07-25T09:03:12Z</time>
      </trkpt>
      <trkpt lat="42.9201870" lon="0.3458450">
        <ele>823.8</ele>
        <time>2020-07-25T09:03:13Z</time>
      </trkpt>
      <trkpt lat="42.9202350" lon="0.3458890">
        <ele>824.0</ele>
        <time>2020-07-25T09:03:14Z</time>
      </trkpt>
      <trkpt lat="42.9202690" lon="0.3459440">
        <ele>824.0</ele>
        <time>2020-07-25T09:03:15Z</time>
      </trkpt>
      <trkpt lat="42.9202930" lon="0.3460530">
        <ele>824.4</ele>
        <time>2020-07-25T09:03:17Z</time>
      </trkpt>
      <trkpt lat="42.9202860" lon="0.3461090">
        <ele>824.6</ele>
        <time>2020-07-25T09:03:18Z</time>
      </trkpt>
      <trkpt lat="42.9202510" lon="0.3462360">
        <ele>825.2</ele>
        <time>2020-07-25T09:03:21Z</time>
      </trkpt>
      <trkpt lat="42.9202240" lon="0.3463100">
        <ele>825.8</ele>
        <time>2020-07-25T09:03:23Z</time>
      </trkpt>
      <trkpt lat="42.9202040" lon="0.3463920">
        <ele>826.4</ele>
        <time>2020-07-25T09:03:25Z</time>
      </trkpt>
      <trkpt lat="42.9201940" lon="0.3464310">
        <ele>826.8</ele>
        <time>2020-07-25T09:03:26Z</time>
      </trkpt>
      <trkpt lat="42.9201800" lon="0.3465150">
        <ele>827.6</ele>
        <time>2020-07-25T09:03:28Z</time>
      </trkpt>
      <trkpt lat="42.9201740" lon="0.3465540">
        <ele>828.0</ele>
        <time>2020-07-25T09:03:29Z</time>
      </trkpt>
      <trkpt lat="42.9201670" lon="0.3466780">
        <ele>829.0</ele>
        <time>2020-07-25T09:03:32Z</time>
      </trkpt>
      <trkpt lat="42.9201690" lon="0.3467620">
        <ele>829.4</ele>
        <time>2020-07-25T09:03:34Z</time>
      </trkpt>
      <trkpt lat="42.9201690" lon="0.3468010">
        <ele>829.4</ele>
        <time>2020-07-25T09:03:35Z</time>
      </trkpt>
      <trkpt lat="42.9201650" lon="0.3468380">
        <ele>829.8</ele>
        <time>2020-07-25T09:03:36Z</time>
      </trkpt>
      <trkpt lat="42.9201530" lon="0.3469100">
        <ele>830.2</ele>
        <time>2020-07-25T09:03:38Z</time>
      </trkpt>
      <trkpt lat="42.9201070" lon="0.3469930">
        <ele>831.2</ele>
        <time>2020-07-25T09:03:41Z</time>
      </trkpt>
      <trkpt lat="42.9199620" lon="0.3471080">
        <ele>832.2</ele>
        <time>2020-07-25T09:03:47Z</time>
      </trkpt>
      <trkpt lat="42.9199000" lon="0.3471650">
        <ele>833.4</ele>
        <time>2020-07-25T09:03:51Z</time>
      </trkpt>
      <trkpt lat="42.9198790" lon="0.3471880">
        <ele>833.8</ele>
        <time>2020-07-25T09:03:53Z</time>
      </trkpt>
      <trkpt lat="42.9198340" lon="0.3472550">
        <ele>834.4</ele>
        <time>2020-07-25T09:03:57Z</time>
      </trkpt>
      <trkpt lat="42.9198010" lon="0.3472980">
        <ele>834.6</ele>
        <time>2020-07-25T09:03:59Z</time>
      </trkpt>
      <trkpt lat="42.9197180" lon="0.3473670">
        <ele>835.4</ele>
        <time>2020-07-25T09:04:03Z</time>
      </trkpt>
      <trkpt lat="42.9196950" lon="0.3473850">
        <ele>835.8</ele>
        <time>2020-07-25T09:04:04Z</time>
      </trkpt>
      <trkpt lat="42.9196510" lon="0.3474200">
        <ele>836.2</ele>
        <time>2020-07-25T09:04:06Z</time>
      </trkpt>
      <trkpt lat="42.9195910" lon="0.3474830">
        <ele>836.8</ele>
        <time>2020-07-25T09:04:09Z</time>
      </trkpt>
      <trkpt lat="42.9194770" lon="0.3475980">
        <ele>837.4</ele>
        <time>2020-07-25T09:04:14Z</time>
      </trkpt>
      <trkpt lat="42.9194280" lon="0.3476490">
        <ele>837.8</ele>
        <time>2020-07-25T09:04:16Z</time>
      </trkpt>
      <trkpt lat="42.9193280" lon="0.3477910">
        <ele>838.4</ele>
        <time>2020-07-25T09:04:21Z</time>
      </trkpt>
      <trkpt lat="42.9193120" lon="0.3478210">
        <ele>838.8</ele>
        <time>2020-07-25T09:04:22Z</time>
      </trkpt>
      <trkpt lat="42.9192690" lon="0.3479660">
        <ele>840.0</ele>
        <time>2020-07-25T09:04:26Z</time>
      </trkpt>
      <trkpt lat="42.9192470" lon="0.3480400">
        <ele>840.6</ele>
        <time>2020-07-25T09:04:28Z</time>
      </trkpt>
      <trkpt lat="42.9192390" lon="0.3481170">
        <ele>841.0</ele>
        <time>2020-07-25T09:04:30Z</time>
      </trkpt>
      <trkpt lat="42.9192400" lon="0.3481570">
        <ele>841.2</ele>
        <time>2020-07-25T09:04:31Z</time>
      </trkpt>
      <trkpt lat="42.9192550" lon="0.3482760">
        <ele>842.2</ele>
        <time>2020-07-25T09:04:34Z</time>
      </trkpt>
      <trkpt lat="42.9193120" lon="0.3484590">
        <ele>843.2</ele>
        <time>2020-07-25T09:04:39Z</time>
      </trkpt>
      <trkpt lat="42.9193410" lon="0.3485230">
        <ele>843.6</ele>
        <time>2020-07-25T09:04:41Z</time>
      </trkpt>
      <trkpt lat="42.9193900" lon="0.3486570">
        <ele>844.4</ele>
        <time>2020-07-25T09:04:45Z</time>
      </trkpt>
      <trkpt lat="42.9194340" lon="0.3487870">
        <ele>845.4</ele>
        <time>2020-07-25T09:04:49Z</time>
      </trkpt>
      <trkpt lat="42.9194410" lon="0.3488210">
        <ele>845.6</ele>
        <time>2020-07-25T09:04:50Z</time>
      </trkpt>
      <trkpt lat="42.9194800" lon="0.3490150">
        <ele>846.6</ele>
        <time>2020-07-25T09:04:56Z</time>
      </trkpt>
      <trkpt lat="42.9194930" lon="0.3490830">
        <ele>847.2</ele>
        <time>2020-07-25T09:04:58Z</time>
      </trkpt>
      <trkpt lat="42.9195060" lon="0.3491510">
        <ele>848.0</ele>
        <time>2020-07-25T09:05:00Z</time>
      </trkpt>
      <trkpt lat="42.9195210" lon="0.3493140">
        <ele>849.0</ele>
        <time>2020-07-25T09:05:05Z</time>
      </trkpt>
      <trkpt lat="42.9195170" lon="0.3493500">
        <ele>849.2</ele>
        <time>2020-07-25T09:05:06Z</time>
      </trkpt>
      <trkpt lat="42.9194770" lon="0.3494730">
        <ele>850.0</ele>
        <time>2020-07-25T09:05:10Z</time>
      </trkpt>
      <trkpt lat="42.9194610" lon="0.3494980">
        <ele>850.2</ele>
        <time>2020-07-25T09:05:11Z</time>
      </trkpt>
      <trkpt lat="42.9194420" lon="0.3495210">
        <ele>850.4</ele>
        <time>2020-07-25T09:05:12Z</time>
      </trkpt>
      <trkpt lat="42.9193830" lon="0.3495640">
        <ele>851.4</ele>
        <time>2020-07-25T09:05:15Z</time>
      </trkpt>
      <trkpt lat="42.9193180" lon="0.3495920">
        <ele>852.6</ele>
        <time>2020-07-25T09:05:18Z</time>
      </trkpt>
      <trkpt lat="42.9192270" lon="0.3496140">
        <ele>853.8</ele>
        <time>2020-07-25T09:05:22Z</time>
      </trkpt>
      <trkpt lat="42.9191760" lon="0.3496320">
        <ele>854.4</ele>
        <time>2020-07-25T09:05:24Z</time>
      </trkpt>
      <trkpt lat="42.9191310" lon="0.3496510">
        <ele>855.0</ele>
        <time>2020-07-25T09:05:26Z</time>
      </trkpt>
      <trkpt lat="42.9190520" lon="0.3497180">
        <ele>855.8</ele>
        <time>2020-07-25T09:05:31Z</time>
      </trkpt>
      <trkpt lat="42.9190210" lon="0.3497530">
        <ele>856.2</ele>
        <time>2020-07-25T09:05:33Z</time>
      </trkpt>
      <trkpt lat="42.9189470" lon="0.3498700">
        <ele>856.8</ele>
        <time>2020-07-25T09:05:38Z</time>
      </trkpt>
      <trkpt lat="42.9189210" lon="0.3499230">
        <ele>857.2</ele>
        <time>2020-07-25T09:05:40Z</time>
      </trkpt>
      <trkpt lat="42.9188720" lon="0.3500710">
        <ele>858.2</ele>
        <time>2020-07-25T09:05:45Z</time>
      </trkpt>
      <trkpt lat="42.9188670" lon="0.3501010">
        <ele>858.4</ele>
        <time>2020-07-25T09:05:46Z</time>
      </trkpt>
      <trkpt lat="42.9188550" lon="0.3501910">
        <ele>859.0</ele>
        <time>2020-07-25T09:05:49Z</time>
      </trkpt>
      <trkpt lat="42.9188500" lon="0.3502180">
        <ele>859.2</ele>
        <time>2020-07-25T09:05:50Z</time>
      </trkpt>
      <trkpt lat="42.9188380" lon="0.3503030">
        <ele>859.6</ele>
        <time>2020-07-25T09:05:53Z</time>
      </trkpt>
      <trkpt lat="42.9188340" lon="0.3503330">
        <ele>859.8</ele>
        <time>2020-07-25T09:05:54Z</time>
      </trkpt>
      <trkpt lat="42.9188180" lon="0.3504150">
        <ele>860.4</ele>
        <time>2020-07-25T09:05:57Z</time>
      </trkpt>
      <trkpt lat="42.9187910" lon="0.3505790">
        <ele>861.4</ele>
        <time>2020-07-25T09:06:03Z</time>
      </trkpt>
      <trkpt lat="42.9187710" lon="0.3507270">
        <ele>862.2</ele>
        <time>2020-07-25T09:06:09Z</time>
      </trkpt>
      <trkpt lat="42.9187520" lon="0.3507900">
        <ele>862.4</ele>
        <time>2020-07-25T09:06:12Z</time>
      </trkpt>
      <trkpt lat="42.9187460" lon="0.3508120">
        <ele>862.6</ele>
        <time>2020-07-25T09:06:13Z</time>
      </trkpt>
      <trkpt lat="42.9187220" lon="0.3508830">
        <ele>862.8</ele>
        <time>2020-07-25T09:06:16Z</time>
      </trkpt>
      <trkpt lat="42.9187150" lon="0.3509370">
        <ele>863.4</ele>
        <time>2020-07-25T09:06:18Z</time>
      </trkpt>
      <trkpt lat="42.9187130" lon="0.3509620">
        <ele>863.6</ele>
        <time>2020-07-25T09:06:19Z</time>
      </trkpt>
      <trkpt lat="42.9186720" lon="0.3510970">
        <ele>864.4</ele>
        <time>2020-07-25T09:06:25Z</time>
      </trkpt>
      <trkpt lat="42.9186640" lon="0.3511160">
        <ele>864.6</ele>
        <time>2020-07-25T09:06:26Z</time>
      </trkpt>
      <trkpt lat="42.9186180" lon="0.3512500">
        <ele>865.6</ele>
        <time>2020-07-25T09:06:32Z</time>
      </trkpt>
      <trkpt lat="42.9186000" lon="0.3513190">
        <ele>865.6</ele>
        <time>2020-07-25T09:06:35Z</time>
      </trkpt>
      <trkpt lat="42.9185870" lon="0.3513840">
        <ele>866.4</ele>
        <time>2020-07-25T09:06:38Z</time>
      </trkpt>
      <trkpt lat="42.9185780" lon="0.3514040">
        <ele>866.6</ele>
        <time>2020-07-25T09:06:39Z</time>
      </trkpt>
      <trkpt lat="42.9185690" lon="0.3514250">
        <ele>866.8</ele>
        <time>2020-07-25T09:06:40Z</time>
      </trkpt>
      <trkpt lat="42.9185250" lon="0.3515590">
        <ele>867.6</ele>
        <time>2020-07-25T09:06:46Z</time>
      </trkpt>
      <trkpt lat="42.9185190" lon="0.3515790">
        <ele>867.8</ele>
        <time>2020-07-25T09:06:47Z</time>
      </trkpt>
      <trkpt lat="42.9185060" lon="0.3516220">
        <ele>868.2</ele>
        <time>2020-07-25T09:06:49Z</time>
      </trkpt>
      <trkpt lat="42.9184810" lon="0.3517270">
        <ele>869.0</ele>
        <time>2020-07-25T09:06:54Z</time>
      </trkpt>
      <trkpt lat="42.9184770" lon="0.3517500">
        <ele>869.2</ele>
        <time>2020-07-25T09:06:55Z</time>
      </trkpt>
      <trkpt lat="42.9184330" lon="0.3518740">
        <ele>870.0</ele>
        <time>2020-07-25T09:07:00Z</time>
      </trkpt>
      <trkpt lat="42.9184240" lon="0.3519000">
        <ele>870.2</ele>
        <time>2020-07-25T09:07:01Z</time>
      </trkpt>
      <trkpt lat="42.9183980" lon="0.3520120">
        <ele>870.8</ele>
        <time>2020-07-25T09:07:05Z</time>
      </trkpt>
      <trkpt lat="42.9183810" lon="0.3520640">
        <ele>871.0</ele>
        <time>2020-07-25T09:07:07Z</time>
      </trkpt>
      <trkpt lat="42.9183630" lon="0.3521190">
        <ele>871.6</ele>
        <time>2020-07-25T09:07:09Z</time>
      </trkpt>
      <trkpt lat="42.9183450" lon="0.3522050">
        <ele>872.2</ele>
        <time>2020-07-25T09:07:12Z</time>
      </trkpt>
      <trkpt lat="42.9183200" lon="0.3523520">
        <ele>872.8</ele>
        <time>2020-07-25T09:07:17Z</time>
      </trkpt>
      <trkpt lat="42.9183160" lon="0.3524120">
        <ele>873.4</ele>
        <time>2020-07-25T09:07:19Z</time>
      </trkpt>
      <trkpt lat="42.9183130" lon="0.3525220">
        <ele>874.4</ele>
        <time>2020-07-25T09:07:23Z</time>
      </trkpt>
      <trkpt lat="42.9183150" lon="0.3525510">
        <ele>874.4</ele>
        <time>2020-07-25T09:07:24Z</time>
      </trkpt>
      <trkpt lat="42.9183300" lon="0.3526910">
        <ele>875.6</ele>
        <time>2020-07-25T09:07:29Z</time>
      </trkpt>
      <trkpt lat="42.9183430" lon="0.3527930">
        <ele>876.0</ele>
        <time>2020-07-25T09:07:33Z</time>
      </trkpt>
      <trkpt lat="42.9183500" lon="0.3529050">
        <ele>876.6</ele>
        <time>2020-07-25T09:07:37Z</time>
      </trkpt>
      <trkpt lat="42.9183510" lon="0.3530170">
        <ele>877.4</ele>
        <time>2020-07-25T09:07:41Z</time>
      </trkpt>
      <trkpt lat="42.9183510" lon="0.3530710">
        <ele>878.0</ele>
        <time>2020-07-25T09:07:43Z</time>
      </trkpt>
      <trkpt lat="42.9183610" lon="0.3532300">
        <ele>878.6</ele>
        <time>2020-07-25T09:07:48Z</time>
      </trkpt>
      <trkpt lat="42.9183690" lon="0.3533610">
        <ele>879.0</ele>
        <time>2020-07-25T09:07:52Z</time>
      </trkpt>
      <trkpt lat="42.9183850" lon="0.3534710">
        <ele>880.2</ele>
        <time>2020-07-25T09:07:56Z</time>
      </trkpt>
      <trkpt lat="42.9184060" lon="0.3536460">
        <ele>881.2</ele>
        <time>2020-07-25T09:08:02Z</time>
      </trkpt>
      <trkpt lat="42.9184110" lon="0.3537040">
        <ele>881.6</ele>
        <time>2020-07-25T09:08:04Z</time>
      </trkpt>
      <trkpt lat="42.9184230" lon="0.3537860">
        <ele>882.4</ele>
        <time>2020-07-25T09:08:07Z</time>
      </trkpt>
      <trkpt lat="42.9184380" lon="0.3539610">
        <ele>883.2</ele>
        <time>2020-07-25T09:08:12Z</time>
      </trkpt>
      <trkpt lat="42.9184420" lon="0.3540010">
        <ele>883.4</ele>
        <time>2020-07-25T09:08:13Z</time>
      </trkpt>
      <trkpt lat="42.9184530" lon="0.3541690">
        <ele>884.6</ele>
        <time>2020-07-25T09:08:17Z</time>
      </trkpt>
      <trkpt lat="42.9184660" lon="0.3542920">
        <ele>884.6</ele>
        <time>2020-07-25T09:08:20Z</time>
      </trkpt>
      <trkpt lat="42.9184730" lon="0.3543730">
        <ele>884.8</ele>
        <time>2020-07-25T09:08:22Z</time>
      </trkpt>
      <trkpt lat="42.9184940" lon="0.3546050">
        <ele>885.6</ele>
        <time>2020-07-25T09:08:28Z</time>
      </trkpt>
      <trkpt lat="42.9185080" lon="0.3548300">
        <ele>886.6</ele>
        <time>2020-07-25T09:08:34Z</time>
      </trkpt>
      <trkpt lat="42.9184980" lon="0.3549780">
        <ele>887.6</ele>
        <time>2020-07-25T09:08:38Z</time>
      </trkpt>
      <trkpt lat="42.9184930" lon="0.3550150">
        <ele>887.8</ele>
        <time>2020-07-25T09:08:39Z</time>
      </trkpt>
      <trkpt lat="42.9184560" lon="0.3551420">
        <ele>889.0</ele>
        <time>2020-07-25T09:08:43Z</time>
      </trkpt>
      <trkpt lat="42.9184400" lon="0.3552000">
        <ele>889.6</ele>
        <time>2020-07-25T09:08:45Z</time>
      </trkpt>
      <trkpt lat="42.9184240" lon="0.3552600">
        <ele>890.2</ele>
        <time>2020-07-25T09:08:47Z</time>
      </trkpt>
      <trkpt lat="42.9184040" lon="0.3553610">
        <ele>891.0</ele>
        <time>2020-07-25T09:08:50Z</time>
      </trkpt>
      <trkpt lat="42.9183960" lon="0.3553960">
        <ele>891.4</ele>
        <time>2020-07-25T09:08:51Z</time>
      </trkpt>
      <trkpt lat="42.9183890" lon="0.3554290">
        <ele>891.6</ele>
        <time>2020-07-25T09:08:52Z</time>
      </trkpt>
      <trkpt lat="42.9183810" lon="0.3554630">
        <ele>891.8</ele>
        <time>2020-07-25T09:08:53Z</time>
      </trkpt>
      <trkpt lat="42.9183640" lon="0.3555280">
        <ele>892.4</ele>
        <time>2020-07-25T09:08:55Z</time>
      </trkpt>
      <trkpt lat="42.9183320" lon="0.3556590">
        <ele>893.4</ele>
        <time>2020-07-25T09:08:59Z</time>
      </trkpt>
      <trkpt lat="42.9183220" lon="0.3556910">
        <ele>893.6</ele>
        <time>2020-07-25T09:09:00Z</time>
      </trkpt>
      <trkpt lat="42.9183060" lon="0.3557590">
        <ele>894.0</ele>
        <time>2020-07-25T09:09:02Z</time>
      </trkpt>
      <trkpt lat="42.9182980" lon="0.3557940">
        <ele>894.2</ele>
        <time>2020-07-25T09:09:03Z</time>
      </trkpt>
      <trkpt lat="42.9182910" lon="0.3558290">
        <ele>894.4</ele>
        <time>2020-07-25T09:09:04Z</time>
      </trkpt>
      <trkpt lat="42.9182790" lon="0.3559030">
        <ele>894.6</ele>
        <time>2020-07-25T09:09:06Z</time>
      </trkpt>
      <trkpt lat="42.9182650" lon="0.3560080">
        <ele>895.2</ele>
        <time>2020-07-25T09:09:09Z</time>
      </trkpt>
      <trkpt lat="42.9182540" lon="0.3560770">
        <ele>895.8</ele>
        <time>2020-07-25T09:09:11Z</time>
      </trkpt>
      <trkpt lat="42.9182490" lon="0.3561100">
        <ele>896.0</ele>
        <time>2020-07-25T09:09:12Z</time>
      </trkpt>
      <trkpt lat="42.9182420" lon="0.3561780">
        <ele>896.6</ele>
        <time>2020-07-25T09:09:14Z</time>
      </trkpt>
      <trkpt lat="42.9182390" lon="0.3562090">
        <ele>896.8</ele>
        <time>2020-07-25T09:09:15Z</time>
      </trkpt>
      <trkpt lat="42.9182230" lon="0.3563310">
        <ele>897.6</ele>
        <time>2020-07-25T09:09:19Z</time>
      </trkpt>
      <trkpt lat="42.9182220" lon="0.3563960">
        <ele>898.0</ele>
        <time>2020-07-25T09:09:21Z</time>
      </trkpt>
      <trkpt lat="42.9182020" lon="0.3565640">
        <ele>899.0</ele>
        <time>2020-07-25T09:09:26Z</time>
      </trkpt>
      <trkpt lat="42.9181970" lon="0.3565960">
        <ele>899.2</ele>
        <time>2020-07-25T09:09:27Z</time>
      </trkpt>
      <trkpt lat="42.9181680" lon="0.3567680">
        <ele>900.4</ele>
        <time>2020-07-25T09:09:32Z</time>
      </trkpt>
      <trkpt lat="42.9181560" lon="0.3567990">
        <ele>900.4</ele>
        <time>2020-07-25T09:09:33Z</time>
      </trkpt>
      <trkpt lat="42.9180990" lon="0.3569580">
        <ele>901.6</ele>
        <time>2020-07-25T09:09:38Z</time>
      </trkpt>
      <trkpt lat="42.9180730" lon="0.3571010">
        <ele>902.2</ele>
        <time>2020-07-25T09:09:42Z</time>
      </trkpt>
      <trkpt lat="42.9180770" lon="0.3572200">
        <ele>902.6</ele>
        <time>2020-07-25T09:09:45Z</time>
      </trkpt>
      <trkpt lat="42.9181030" lon="0.3573710">
        <ele>903.8</ele>
        <time>2020-07-25T09:09:49Z</time>
      </trkpt>
      <trkpt lat="42.9181700" lon="0.3575590">
        <ele>904.8</ele>
        <time>2020-07-25T09:09:54Z</time>
      </trkpt>
      <trkpt lat="42.9182050" lon="0.3576320">
        <ele>905.2</ele>
        <time>2020-07-25T09:09:56Z</time>
      </trkpt>
      <trkpt lat="42.9182760" lon="0.3577690">
        <ele>905.8</ele>
        <time>2020-07-25T09:10:00Z</time>
      </trkpt>
      <trkpt lat="42.9183730" lon="0.3579420">
        <ele>906.8</ele>
        <time>2020-07-25T09:10:05Z</time>
      </trkpt>
      <trkpt lat="42.9183930" lon="0.3579750">
        <ele>907.0</ele>
        <time>2020-07-25T09:10:06Z</time>
      </trkpt>
      <trkpt lat="42.9184790" lon="0.3580800">
        <ele>907.4</ele>
        <time>2020-07-25T09:10:10Z</time>
      </trkpt>
      <trkpt lat="42.9185010" lon="0.3581070">
        <ele>907.6</ele>
        <time>2020-07-25T09:10:11Z</time>
      </trkpt>
      <trkpt lat="42.9185710" lon="0.3581770">
        <ele>908.0</ele>
        <time>2020-07-25T09:10:14Z</time>
      </trkpt>
      <trkpt lat="42.9186520" lon="0.3582460">
        <ele>908.6</ele>
        <time>2020-07-25T09:10:17Z</time>
      </trkpt>
      <trkpt lat="42.9187070" lon="0.3582890">
        <ele>909.0</ele>
        <time>2020-07-25T09:10:19Z</time>
      </trkpt>
      <trkpt lat="42.9188160" lon="0.3583830">
        <ele>910.0</ele>
        <time>2020-07-25T09:10:23Z</time>
      </trkpt>
      <trkpt lat="42.9189200" lon="0.3584850">
        <ele>911.0</ele>
        <time>2020-07-25T09:10:27Z</time>
      </trkpt>
      <trkpt lat="42.9189460" lon="0.3585070">
        <ele>911.2</ele>
        <time>2020-07-25T09:10:28Z</time>
      </trkpt>
      <trkpt lat="42.9190970" lon="0.3586190">
        <ele>912.0</ele>
        <time>2020-07-25T09:10:34Z</time>
      </trkpt>
      <trkpt lat="42.9191230" lon="0.3586340">
        <ele>912.0</ele>
        <time>2020-07-25T09:10:35Z</time>
      </trkpt>
      <trkpt lat="42.9191780" lon="0.3586660">
        <ele>912.2</ele>
        <time>2020-07-25T09:10:37Z</time>
      </trkpt>
      <trkpt lat="42.9192860" lon="0.3587410">
        <ele>912.8</ele>
        <time>2020-07-25T09:10:41Z</time>
      </trkpt>
      <trkpt lat="42.9193170" lon="0.3587580">
        <ele>913.0</ele>
        <time>2020-07-25T09:10:42Z</time>
      </trkpt>
      <trkpt lat="42.9194070" lon="0.3588070">
        <ele>913.4</ele>
        <time>2020-07-25T09:10:45Z</time>
      </trkpt>
      <trkpt lat="42.9195220" lon="0.3588840">
        <ele>914.2</ele>
        <time>2020-07-25T09:10:49Z</time>
      </trkpt>
      <trkpt lat="42.9195520" lon="0.3589040">
        <ele>914.4</ele>
        <time>2020-07-25T09:10:50Z</time>
      </trkpt>
      <trkpt lat="42.9197000" lon="0.3589950">
        <ele>915.0</ele>
        <time>2020-07-25T09:10:55Z</time>
      </trkpt>
      <trkpt lat="42.9197860" lon="0.3590450">
        <ele>915.4</ele>
        <time>2020-07-25T09:10:58Z</time>
      </trkpt>
      <trkpt lat="42.9198150" lon="0.3590590">
        <ele>915.6</ele>
        <time>2020-07-25T09:10:59Z</time>
      </trkpt>
      <trkpt lat="42.9199010" lon="0.3590900">
        <ele>916.8</ele>
        <time>2020-07-25T09:11:02Z</time>
      </trkpt>
      <trkpt lat="42.9200270" lon="0.3591340">
        <ele>917.4</ele>
        <time>2020-07-25T09:11:06Z</time>
      </trkpt>
      <trkpt lat="42.9201550" lon="0.3591840">
        <ele>918.0</ele>
        <time>2020-07-25T09:11:10Z</time>
      </trkpt>
      <trkpt lat="42.9202950" lon="0.3592240">
        <ele>918.6</ele>
        <time>2020-07-25T09:11:14Z</time>
      </trkpt>
      <trkpt lat="42.9203590" lon="0.3592400">
        <ele>919.0</ele>
        <time>2020-07-25T09:11:16Z</time>
      </trkpt>
      <trkpt lat="42.9204540" lon="0.3592620">
        <ele>919.6</ele>
        <time>2020-07-25T09:11:19Z</time>
      </trkpt>
      <trkpt lat="42.9204870" lon="0.3592680">
        <ele>919.8</ele>
        <time>2020-07-25T09:11:20Z</time>
      </trkpt>
      <trkpt lat="42.9205930" lon="0.3592940">
        <ele>920.0</ele>
        <time>2020-07-25T09:11:23Z</time>
      </trkpt>
      <trkpt lat="42.9206280" lon="0.3593110">
        <ele>920.0</ele>
        <time>2020-07-25T09:11:24Z</time>
      </trkpt>
      <trkpt lat="42.9207930" lon="0.3594180">
        <ele>920.0</ele>
        <time>2020-07-25T09:11:29Z</time>
      </trkpt>
      <trkpt lat="42.9208500" lon="0.3594630">
        <ele>920.4</ele>
        <time>2020-07-25T09:11:31Z</time>
      </trkpt>
      <trkpt lat="42.9209090" lon="0.3595000">
        <ele>921.2</ele>
        <time>2020-07-25T09:11:33Z</time>
      </trkpt>
      <trkpt lat="42.9211010" lon="0.3595880">
        <ele>922.4</ele>
        <time>2020-07-25T09:11:39Z</time>
      </trkpt>
      <trkpt lat="42.9212090" lon="0.3596050">
        <ele>923.4</ele>
        <time>2020-07-25T09:11:42Z</time>
      </trkpt>
      <trkpt lat="42.9213850" lon="0.3595920">
        <ele>924.0</ele>
        <time>2020-07-25T09:11:47Z</time>
      </trkpt>
      <trkpt lat="42.9214550" lon="0.3595710">
        <ele>924.6</ele>
        <time>2020-07-25T09:11:49Z</time>
      </trkpt>
      <trkpt lat="42.9216470" lon="0.3595210">
        <ele>925.6</ele>
        <time>2020-07-25T09:11:55Z</time>
      </trkpt>
      <trkpt lat="42.9218370" lon="0.3594630">
        <ele>926.0</ele>
        <time>2020-07-25T09:12:01Z</time>
      </trkpt>
      <trkpt lat="42.9219010" lon="0.3594440">
        <ele>926.2</ele>
        <time>2020-07-25T09:12:03Z</time>
      </trkpt>
      <trkpt lat="42.9219320" lon="0.3594320">
        <ele>926.6</ele>
        <time>2020-07-25T09:12:04Z</time>
      </trkpt>
      <trkpt lat="42.9220720" lon="0.3593950">
        <ele>927.8</ele>
        <time>2020-07-25T09:12:08Z</time>
      </trkpt>
      <trkpt lat="42.9221820" lon="0.3594130">
        <ele>928.2</ele>
        <time>2020-07-25T09:12:11Z</time>
      </trkpt>
      <trkpt lat="42.9223550" lon="0.3594820">
        <ele>929.0</ele>
        <time>2020-07-25T09:12:16Z</time>
      </trkpt>
      <trkpt lat="42.9224270" lon="0.3595030">
        <ele>929.4</ele>
        <time>2020-07-25T09:12:18Z</time>
      </trkpt>
      <trkpt lat="42.9225630" lon="0.3595170">
        <ele>930.0</ele>
        <time>2020-07-25T09:12:22Z</time>
      </trkpt>
      <trkpt lat="42.9226710" lon="0.3595250">
        <ele>931.0</ele>
        <time>2020-07-25T09:12:25Z</time>
      </trkpt>
      <trkpt lat="42.9227090" lon="0.3595280">
        <ele>931.2</ele>
        <time>2020-07-25T09:12:26Z</time>
      </trkpt>
      <trkpt lat="42.9228550" lon="0.3595290">
        <ele>932.2</ele>
        <time>2020-07-25T09:12:30Z</time>
      </trkpt>
      <trkpt lat="42.9229630" lon="0.3595150">
        <ele>932.6</ele>
        <time>2020-07-25T09:12:33Z</time>
      </trkpt>
      <trkpt lat="42.9230750" lon="0.3595070">
        <ele>933.6</ele>
        <time>2020-07-25T09:12:36Z</time>
      </trkpt>
      <trkpt lat="42.9232240" lon="0.3594970">
        <ele>934.4</ele>
        <time>2020-07-25T09:12:40Z</time>
      </trkpt>
      <trkpt lat="42.9232990" lon="0.3594930">
        <ele>934.8</ele>
        <time>2020-07-25T09:12:42Z</time>
      </trkpt>
      <trkpt lat="42.9233350" lon="0.3594900">
        <ele>935.2</ele>
        <time>2020-07-25T09:12:43Z</time>
      </trkpt>
      <trkpt lat="42.9234790" lon="0.3594760">
        <ele>935.8</ele>
        <time>2020-07-25T09:12:47Z</time>
      </trkpt>
      <trkpt lat="42.9235900" lon="0.3594650">
        <ele>936.4</ele>
        <time>2020-07-25T09:12:50Z</time>
      </trkpt>
      <trkpt lat="42.9236610" lon="0.3594610">
        <ele>937.0</ele>
        <time>2020-07-25T09:12:52Z</time>
      </trkpt>
      <trkpt lat="42.9238400" lon="0.3594960">
        <ele>938.0</ele>
        <time>2020-07-25T09:12:57Z</time>
      </trkpt>
      <trkpt lat="42.9238700" lon="0.3595270">
        <ele>938.2</ele>
        <time>2020-07-25T09:12:58Z</time>
      </trkpt>
      <trkpt lat="42.9239160" lon="0.3596620">
        <ele>938.6</ele>
        <time>2020-07-25T09:13:01Z</time>
      </trkpt>
      <trkpt lat="42.9239190" lon="0.3599400">
        <ele>939.2</ele>
        <time>2020-07-25T09:13:07Z</time>
      </trkpt>
      <trkpt lat="42.9239210" lon="0.3601210">
        <ele>940.4</ele>
        <time>2020-07-25T09:13:11Z</time>
      </trkpt>
      <trkpt lat="42.9239330" lon="0.3602110">
        <ele>941.0</ele>
        <time>2020-07-25T09:13:13Z</time>
      </trkpt>
      <trkpt lat="42.9239610" lon="0.3602990">
        <ele>941.2</ele>
        <time>2020-07-25T09:13:15Z</time>
      </trkpt>
      <trkpt lat="42.9240350" lon="0.3603670">
        <ele>941.4</ele>
        <time>2020-07-25T09:13:18Z</time>
      </trkpt>
      <trkpt lat="42.9240610" lon="0.3603550">
        <ele>941.4</ele>
        <time>2020-07-25T09:13:19Z</time>
      </trkpt>
      <trkpt lat="42.9241010" lon="0.3602890">
        <ele>941.8</ele>
        <time>2020-07-25T09:13:21Z</time>
      </trkpt>
      <trkpt lat="42.9241020" lon="0.3602410">
        <ele>942.2</ele>
        <time>2020-07-25T09:13:22Z</time>
      </trkpt>
      <trkpt lat="42.9240860" lon="0.3601420">
        <ele>942.8</ele>
        <time>2020-07-25T09:13:24Z</time>
      </trkpt>
      <trkpt lat="42.9240410" lon="0.3599360">
        <ele>943.4</ele>
        <time>2020-07-25T09:13:28Z</time>
      </trkpt>
      <trkpt lat="42.9240280" lon="0.3598340">
        <ele>943.8</ele>
        <time>2020-07-25T09:13:30Z</time>
      </trkpt>
      <trkpt lat="42.9240220" lon="0.3597280">
        <ele>944.0</ele>
        <time>2020-07-25T09:13:32Z</time>
      </trkpt>
      <trkpt lat="42.9240300" lon="0.3596260">
        <ele>944.4</ele>
        <time>2020-07-25T09:13:34Z</time>
      </trkpt>
      <trkpt lat="42.9240350" lon="0.3595770">
        <ele>944.8</ele>
        <time>2020-07-25T09:13:35Z</time>
      </trkpt>
      <trkpt lat="42.9240200" lon="0.3593350">
        <ele>945.8</ele>
        <time>2020-07-25T09:13:40Z</time>
      </trkpt>
      <trkpt lat="42.9239820" lon="0.3592560">
        <ele>946.2</ele>
        <time>2020-07-25T09:13:42Z</time>
      </trkpt>
      <trkpt lat="42.9239200" lon="0.3592040">
        <ele>946.4</ele>
        <time>2020-07-25T09:13:44Z</time>
      </trkpt>
      <trkpt lat="42.9237000" lon="0.3591400">
        <ele>946.6</ele>
        <time>2020-07-25T09:13:50Z</time>
      </trkpt>
      <trkpt lat="42.9236270" lon="0.3591280">
        <ele>947.0</ele>
        <time>2020-07-25T09:13:52Z</time>
      </trkpt>
      <trkpt lat="42.9235260" lon="0.3591110">
        <ele>947.8</ele>
        <time>2020-07-25T09:13:55Z</time>
      </trkpt>
      <trkpt lat="42.9234900" lon="0.3591030">
        <ele>948.0</ele>
        <time>2020-07-25T09:13:56Z</time>
      </trkpt>
      <trkpt lat="42.9234490" lon="0.3590970">
        <ele>948.4</ele>
        <time>2020-07-25T09:13:57Z</time>
      </trkpt>
      <trkpt lat="42.9234090" lon="0.3590860">
        <ele>948.8</ele>
        <time>2020-07-25T09:13:58Z</time>
      </trkpt>
      <trkpt lat="42.9233670" lon="0.3590760">
        <ele>949.0</ele>
        <time>2020-07-25T09:13:59Z</time>
      </trkpt>
      <trkpt lat="42.9231320" lon="0.3590140">
        <ele>949.8</ele>
        <time>2020-07-25T09:14:05Z</time>
      </trkpt>
      <trkpt lat="42.9230930" lon="0.3590040">
        <ele>950.2</ele>
        <time>2020-07-25T09:14:06Z</time>
      </trkpt>
      <trkpt lat="42.9229820" lon="0.3589660">
        <ele>951.2</ele>
        <time>2020-07-25T09:14:09Z</time>
      </trkpt>
      <trkpt lat="42.9229080" lon="0.3589380">
        <ele>951.8</ele>
        <time>2020-07-25T09:14:11Z</time>
      </trkpt>
      <trkpt lat="42.9228670" lon="0.3589210">
        <ele>951.8</ele>
        <time>2020-07-25T09:14:12Z</time>
      </trkpt>
      <trkpt lat="42.9227920" lon="0.3588960">
        <ele>952.0</ele>
        <time>2020-07-25T09:14:14Z</time>
      </trkpt>
      <trkpt lat="42.9227200" lon="0.3588750">
        <ele>952.2</ele>
        <time>2020-07-25T09:14:16Z</time>
      </trkpt>
      <trkpt lat="42.9225720" lon="0.3588260">
        <ele>953.4</ele>
        <time>2020-07-25T09:14:20Z</time>
      </trkpt>
      <trkpt lat="42.9225360" lon="0.3588140">
        <ele>953.6</ele>
        <time>2020-07-25T09:14:21Z</time>
      </trkpt>
      <trkpt lat="42.9224250" lon="0.3587730">
        <ele>954.4</ele>
        <time>2020-07-25T09:14:24Z</time>
      </trkpt>
      <trkpt lat="42.9222380" lon="0.3587160">
        <ele>955.4</ele>
        <time>2020-07-25T09:14:29Z</time>
      </trkpt>
      <trkpt lat="42.9222000" lon="0.3587080">
        <ele>955.6</ele>
        <time>2020-07-25T09:14:30Z</time>
      </trkpt>
      <trkpt lat="42.9220520" lon="0.3586620">
        <ele>956.8</ele>
        <time>2020-07-25T09:14:34Z</time>
      </trkpt>
      <trkpt lat="42.9219050" lon="0.3586120">
        <ele>957.6</ele>
        <time>2020-07-25T09:14:38Z</time>
      </trkpt>
      <trkpt lat="42.9218700" lon="0.3586010">
        <ele>957.8</ele>
        <time>2020-07-25T09:14:39Z</time>
      </trkpt>
      <trkpt lat="42.9216460" lon="0.3585380">
        <ele>959.0</ele>
        <time>2020-07-25T09:14:45Z</time>
      </trkpt>
      <trkpt lat="42.9215380" lon="0.3585040">
        <ele>959.8</ele>
        <time>2020-07-25T09:14:48Z</time>
      </trkpt>
      <trkpt lat="42.9215010" lon="0.3584970">
        <ele>960.0</ele>
        <time>2020-07-25T09:14:49Z</time>
      </trkpt>
      <trkpt lat="42.9214620" lon="0.3584900">
        <ele>960.2</ele>
        <time>2020-07-25T09:14:50Z</time>
      </trkpt>
      <trkpt lat="42.9213200" lon="0.3584240">
        <ele>960.8</ele>
        <time>2020-07-25T09:14:54Z</time>
      </trkpt>
      <trkpt lat="42.9212840" lon="0.3584050">
        <ele>961.0</ele>
        <time>2020-07-25T09:14:55Z</time>
      </trkpt>
      <trkpt lat="42.9212160" lon="0.3583630">
        <ele>961.4</ele>
        <time>2020-07-25T09:14:57Z</time>
      </trkpt>
      <trkpt lat="42.9210500" lon="0.3582610">
        <ele>962.6</ele>
        <time>2020-07-25T09:15:02Z</time>
      </trkpt>
      <trkpt lat="42.9210200" lon="0.3582370">
        <ele>963.0</ele>
        <time>2020-07-25T09:15:03Z</time>
      </trkpt>
      <trkpt lat="42.9209030" lon="0.3581560">
        <ele>963.8</ele>
        <time>2020-07-25T09:15:07Z</time>
      </trkpt>
      <trkpt lat="42.9207550" lon="0.3580800">
        <ele>964.8</ele>
        <time>2020-07-25T09:15:12Z</time>
      </trkpt>
      <trkpt lat="42.9207240" lon="0.3580690">
        <ele>964.8</ele>
        <time>2020-07-25T09:15:13Z</time>
      </trkpt>
      <trkpt lat="42.9205560" lon="0.3579340">
        <ele>965.8</ele>
        <time>2020-07-25T09:15:19Z</time>
      </trkpt>
      <trkpt lat="42.9205300" lon="0.3579100">
        <ele>966.0</ele>
        <time>2020-07-25T09:15:20Z</time>
      </trkpt>
      <trkpt lat="42.9203800" lon="0.3577420">
        <ele>967.0</ele>
        <time>2020-07-25T09:15:26Z</time>
      </trkpt>
      <trkpt lat="42.9203580" lon="0.3577160">
        <ele>967.2</ele>
        <time>2020-07-25T09:15:27Z</time>
      </trkpt>
      <trkpt lat="42.9203000" lon="0.3576610">
        <ele>967.8</ele>
        <time>2020-07-25T09:15:30Z</time>
      </trkpt>
      <trkpt lat="42.9202640" lon="0.3576430">
        <ele>967.8</ele>
        <time>2020-07-25T09:15:32Z</time>
      </trkpt>
      <trkpt lat="42.9202030" lon="0.3575840">
        <ele>968.6</ele>
        <time>2020-07-25T09:16:04Z</time>
      </trkpt>
      <trkpt lat="42.9201780" lon="0.3575360">
        <ele>968.8</ele>
        <time>2020-07-25T09:16:06Z</time>
      </trkpt>
      <trkpt lat="42.9201590" lon="0.3575040">
        <ele>968.8</ele>
        <time>2020-07-25T09:16:07Z</time>
      </trkpt>
      <trkpt lat="42.9200300" lon="0.3573320">
        <ele>969.6</ele>
        <time>2020-07-25T09:16:12Z</time>
      </trkpt>
      <trkpt lat="42.9199850" lon="0.3572600">
        <ele>970.2</ele>
        <time>2020-07-25T09:16:14Z</time>
      </trkpt>
      <trkpt lat="42.9199000" lon="0.3571120">
        <ele>970.8</ele>
        <time>2020-07-25T09:16:18Z</time>
      </trkpt>
      <trkpt lat="42.9198600" lon="0.3570380">
        <ele>971.0</ele>
        <time>2020-07-25T09:16:20Z</time>
      </trkpt>
      <trkpt lat="42.9198230" lon="0.3569620">
        <ele>971.4</ele>
        <time>2020-07-25T09:16:22Z</time>
      </trkpt>
      <trkpt lat="42.9198060" lon="0.3569200">
        <ele>971.4</ele>
        <time>2020-07-25T09:16:23Z</time>
      </trkpt>
      <trkpt lat="42.9197710" lon="0.3567800">
        <ele>972.0</ele>
        <time>2020-07-25T09:16:26Z</time>
      </trkpt>
      <trkpt lat="42.9197680" lon="0.3566810">
        <ele>972.4</ele>
        <time>2020-07-25T09:16:28Z</time>
      </trkpt>
      <trkpt lat="42.9197900" lon="0.3564770">
        <ele>972.8</ele>
        <time>2020-07-25T09:16:32Z</time>
      </trkpt>
      <trkpt lat="42.9198040" lon="0.3564330">
        <ele>973.0</ele>
        <time>2020-07-25T09:16:33Z</time>
      </trkpt>
      <trkpt lat="42.9198210" lon="0.3563900">
        <ele>973.0</ele>
        <time>2020-07-25T09:16:34Z</time>
      </trkpt>
      <trkpt lat="42.9199540" lon="0.3561780">
        <ele>974.0</ele>
        <time>2020-07-25T09:16:40Z</time>
      </trkpt>
      <trkpt lat="42.9200650" lon="0.3560840">
        <ele>975.4</ele>
        <time>2020-07-25T09:16:44Z</time>
      </trkpt>
      <trkpt lat="42.9201530" lon="0.3560270">
        <ele>976.2</ele>
        <time>2020-07-25T09:16:47Z</time>
      </trkpt>
      <trkpt lat="42.9201830" lon="0.3560090">
        <ele>976.4</ele>
        <time>2020-07-25T09:16:48Z</time>
      </trkpt>
      <trkpt lat="42.9203080" lon="0.3559440">
        <ele>977.6</ele>
        <time>2020-07-25T09:16:52Z</time>
      </trkpt>
      <trkpt lat="42.9204290" lon="0.3558750">
        <ele>978.6</ele>
        <time>2020-07-25T09:16:56Z</time>
      </trkpt>
      <trkpt lat="42.9204570" lon="0.3558550">
        <ele>978.8</ele>
        <time>2020-07-25T09:16:57Z</time>
      </trkpt>
      <trkpt lat="42.9206090" lon="0.3557660">
        <ele>979.8</ele>
        <time>2020-07-25T09:17:02Z</time>
      </trkpt>
      <trkpt lat="42.9206410" lon="0.3557480">
        <ele>980.0</ele>
        <time>2020-07-25T09:17:03Z</time>
      </trkpt>
      <trkpt lat="42.9207070" lon="0.3557110">
        <ele>980.2</ele>
        <time>2020-07-25T09:17:05Z</time>
      </trkpt>
      <trkpt lat="42.9208040" lon="0.3556590">
        <ele>981.0</ele>
        <time>2020-07-25T09:17:08Z</time>
      </trkpt>
      <trkpt lat="42.9209040" lon="0.3555280">
        <ele>982.0</ele>
        <time>2020-07-25T09:17:12Z</time>
      </trkpt>
      <trkpt lat="42.9209180" lon="0.3554850">
        <ele>982.2</ele>
        <time>2020-07-25T09:17:13Z</time>
      </trkpt>
      <trkpt lat="42.9209170" lon="0.3553080">
        <ele>983.0</ele>
        <time>2020-07-25T09:17:17Z</time>
      </trkpt>
      <trkpt lat="42.9208190" lon="0.3551130">
        <ele>983.4</ele>
        <time>2020-07-25T09:17:22Z</time>
      </trkpt>
      <trkpt lat="42.9207970" lon="0.3550770">
        <ele>983.8</ele>
        <time>2020-07-25T09:17:23Z</time>
      </trkpt>
      <trkpt lat="42.9207020" lon="0.3549450">
        <ele>984.4</ele>
        <time>2020-07-25T09:17:27Z</time>
      </trkpt>
      <trkpt lat="42.9205870" lon="0.3547770">
        <ele>985.8</ele>
        <time>2020-07-25T09:17:32Z</time>
      </trkpt>
      <trkpt lat="42.9205490" lon="0.3547020">
        <ele>986.2</ele>
        <time>2020-07-25T09:17:34Z</time>
      </trkpt>
      <trkpt lat="42.9205020" lon="0.3545800">
        <ele>987.0</ele>
        <time>2020-07-25T09:17:37Z</time>
      </trkpt>
      <trkpt lat="42.9204870" lon="0.3544420">
        <ele>987.8</ele>
        <time>2020-07-25T09:17:40Z</time>
      </trkpt>
      <trkpt lat="42.9204900" lon="0.3543500">
        <ele>988.2</ele>
        <time>2020-07-25T09:17:42Z</time>
      </trkpt>
      <trkpt lat="42.9205250" lon="0.3542230">
        <ele>989.0</ele>
        <time>2020-07-25T09:17:45Z</time>
      </trkpt>
      <trkpt lat="42.9205570" lon="0.3541440">
        <ele>989.4</ele>
        <time>2020-07-25T09:17:47Z</time>
      </trkpt>
      <trkpt lat="42.9206580" lon="0.3539530">
        <ele>990.2</ele>
        <time>2020-07-25T09:17:52Z</time>
      </trkpt>
      <trkpt lat="42.9207050" lon="0.3538820">
        <ele>990.6</ele>
        <time>2020-07-25T09:17:54Z</time>
      </trkpt>
      <trkpt lat="42.9208230" lon="0.3537250">
        <ele>991.8</ele>
        <time>2020-07-25T09:17:59Z</time>
      </trkpt>
      <trkpt lat="42.9209000" lon="0.3536440">
        <ele>992.4</ele>
        <time>2020-07-25T09:18:02Z</time>
      </trkpt>
      <trkpt lat="42.9209560" lon="0.3535970">
        <ele>992.8</ele>
        <time>2020-07-25T09:18:04Z</time>
      </trkpt>
      <trkpt lat="42.9211010" lon="0.3534950">
        <ele>993.8</ele>
        <time>2020-07-25T09:18:09Z</time>
      </trkpt>
      <trkpt lat="42.9211580" lon="0.3534540">
        <ele>994.4</ele>
        <time>2020-07-25T09:18:11Z</time>
      </trkpt>
      <trkpt lat="42.9212200" lon="0.3534090">
        <ele>994.8</ele>
        <time>2020-07-25T09:18:13Z</time>
      </trkpt>
      <trkpt lat="42.9213710" lon="0.3533080">
        <ele>996.2</ele>
        <time>2020-07-25T09:18:18Z</time>
      </trkpt>
      <trkpt lat="42.9214310" lon="0.3532610">
        <ele>996.6</ele>
        <time>2020-07-25T09:18:20Z</time>
      </trkpt>
      <trkpt lat="42.9215170" lon="0.3531900">
        <ele>997.2</ele>
        <time>2020-07-25T09:18:23Z</time>
      </trkpt>
      <trkpt lat="42.9216280" lon="0.3530990">
        <ele>998.0</ele>
        <time>2020-07-25T09:18:27Z</time>
      </trkpt>
      <trkpt lat="42.9216540" lon="0.3530770">
        <ele>998.4</ele>
        <time>2020-07-25T09:18:28Z</time>
      </trkpt>
      <trkpt lat="42.9218110" lon="0.3529300">
        <ele>999.4</ele>
        <time>2020-07-25T09:18:34Z</time>
      </trkpt>
      <trkpt lat="42.9218360" lon="0.3529040">
        <ele>999.6</ele>
        <time>2020-07-25T09:18:35Z</time>
      </trkpt>
      <trkpt lat="42.9219320" lon="0.3528030">
        <ele>1000.2</ele>
        <time>2020-07-25T09:18:39Z</time>
      </trkpt>
      <trkpt lat="42.9219560" lon="0.3527750">
        <ele>1000.4</ele>
        <time>2020-07-25T09:18:40Z</time>
      </trkpt>
      <trkpt lat="42.9220480" lon="0.3526560">
        <ele>1002.0</ele>
        <time>2020-07-25T09:18:44Z</time>
      </trkpt>
      <trkpt lat="42.9220710" lon="0.3526310">
        <ele>1002.2</ele>
        <time>2020-07-25T09:18:45Z</time>
      </trkpt>
      <trkpt lat="42.9221860" lon="0.3524930">
        <ele>1003.0</ele>
        <time>2020-07-25T09:18:50Z</time>
      </trkpt>
      <trkpt lat="42.9222740" lon="0.3523840">
        <ele>1003.8</ele>
        <time>2020-07-25T09:18:54Z</time>
      </trkpt>
      <trkpt lat="42.9223180" lon="0.3523300">
        <ele>1004.0</ele>
        <time>2020-07-25T09:18:56Z</time>
      </trkpt>
      <trkpt lat="42.9224430" lon="0.3521660">
        <ele>1005.0</ele>
        <time>2020-07-25T09:19:02Z</time>
      </trkpt>
      <trkpt lat="42.9224650" lon="0.3521390">
        <ele>1005.0</ele>
        <time>2020-07-25T09:19:03Z</time>
      </trkpt>
      <trkpt lat="42.9224900" lon="0.3521120">
        <ele>1005.2</ele>
        <time>2020-07-25T09:19:04Z</time>
      </trkpt>
      <trkpt lat="42.9225750" lon="0.3519970">
        <ele>1006.2</ele>
        <time>2020-07-25T09:19:08Z</time>
      </trkpt>
      <trkpt lat="42.9226860" lon="0.3518670">
        <ele>1007.2</ele>
        <time>2020-07-25T09:19:13Z</time>
      </trkpt>
      <trkpt lat="42.9227330" lon="0.3517270">
        <ele>1008.4</ele>
        <time>2020-07-25T09:19:17Z</time>
      </trkpt>
      <trkpt lat="42.9227330" lon="0.3516870">
        <ele>1008.6</ele>
        <time>2020-07-25T09:19:18Z</time>
      </trkpt>
      <trkpt lat="42.9227060" lon="0.3514790">
        <ele>1009.4</ele>
        <time>2020-07-25T09:19:23Z</time>
      </trkpt>
      <trkpt lat="42.9227030" lon="0.3514380">
        <ele>1009.6</ele>
        <time>2020-07-25T09:19:24Z</time>
      </trkpt>
      <trkpt lat="42.9227010" lon="0.3513980">
        <ele>1009.8</ele>
        <time>2020-07-25T09:19:25Z</time>
      </trkpt>
      <trkpt lat="42.9227150" lon="0.3512770">
        <ele>1010.6</ele>
        <time>2020-07-25T09:19:28Z</time>
      </trkpt>
      <trkpt lat="42.9227430" lon="0.3511990">
        <ele>1011.0</ele>
        <time>2020-07-25T09:19:30Z</time>
      </trkpt>
      <trkpt lat="42.9227940" lon="0.3510930">
        <ele>1011.6</ele>
        <time>2020-07-25T09:19:33Z</time>
      </trkpt>
      <trkpt lat="42.9228640" lon="0.3509990">
        <ele>1012.2</ele>
        <time>2020-07-25T09:19:36Z</time>
      </trkpt>
      <trkpt lat="42.9229130" lon="0.3509330">
        <ele>1012.4</ele>
        <time>2020-07-25T09:19:38Z</time>
      </trkpt>
      <trkpt lat="42.9229610" lon="0.3508660">
        <ele>1012.8</ele>
        <time>2020-07-25T09:19:40Z</time>
      </trkpt>
      <trkpt lat="42.9230090" lon="0.3508040">
        <ele>1013.4</ele>
        <time>2020-07-25T09:19:42Z</time>
      </trkpt>
      <trkpt lat="42.9230560" lon="0.3507450">
        <ele>1013.8</ele>
        <time>2020-07-25T09:19:44Z</time>
      </trkpt>
      <trkpt lat="42.9231240" lon="0.3506620">
        <ele>1014.4</ele>
        <time>2020-07-25T09:19:47Z</time>
      </trkpt>
      <trkpt lat="42.9231670" lon="0.3506090">
        <ele>1014.8</ele>
        <time>2020-07-25T09:19:49Z</time>
      </trkpt>
      <trkpt lat="42.9232610" lon="0.3505190">
        <ele>1016.0</ele>
        <time>2020-07-25T09:19:53Z</time>
      </trkpt>
      <trkpt lat="42.9233300" lon="0.3504510">
        <ele>1016.4</ele>
        <time>2020-07-25T09:19:56Z</time>
      </trkpt>
      <trkpt lat="42.9234000" lon="0.3503890">
        <ele>1017.0</ele>
        <time>2020-07-25T09:19:59Z</time>
      </trkpt>
      <trkpt lat="42.9235470" lon="0.3502600">
        <ele>1017.6</ele>
        <time>2020-07-25T09:20:05Z</time>
      </trkpt>
      <trkpt lat="42.9235690" lon="0.3502350">
        <ele>1018.0</ele>
        <time>2020-07-25T09:20:06Z</time>
      </trkpt>
      <trkpt lat="42.9235920" lon="0.3502100">
        <ele>1018.0</ele>
        <time>2020-07-25T09:20:07Z</time>
      </trkpt>
      <trkpt lat="42.9236150" lon="0.3501850">
        <ele>1018.2</ele>
        <time>2020-07-25T09:20:08Z</time>
      </trkpt>
      <trkpt lat="42.9236880" lon="0.3501130">
        <ele>1018.8</ele>
        <time>2020-07-25T09:20:11Z</time>
      </trkpt>
      <trkpt lat="42.9237430" lon="0.3500770">
        <ele>1019.2</ele>
        <time>2020-07-25T09:20:13Z</time>
      </trkpt>
      <trkpt lat="42.9237950" lon="0.3500340">
        <ele>1019.6</ele>
        <time>2020-07-25T09:20:15Z</time>
      </trkpt>
      <trkpt lat="42.9238440" lon="0.3499930">
        <ele>1020.0</ele>
        <time>2020-07-25T09:20:17Z</time>
      </trkpt>
      <trkpt lat="42.9239260" lon="0.3499300">
        <ele>1020.4</ele>
        <time>2020-07-25T09:20:20Z</time>
      </trkpt>
      <trkpt lat="42.9239810" lon="0.3498830">
        <ele>1021.0</ele>
        <time>2020-07-25T09:20:22Z</time>
      </trkpt>
      <trkpt lat="42.9240620" lon="0.3498090">
        <ele>1021.6</ele>
        <time>2020-07-25T09:20:25Z</time>
      </trkpt>
      <trkpt lat="42.9241630" lon="0.3497090">
        <ele>1022.6</ele>
        <time>2020-07-25T09:20:29Z</time>
      </trkpt>
      <trkpt lat="42.9241880" lon="0.3496820">
        <ele>1022.8</ele>
        <time>2020-07-25T09:20:30Z</time>
      </trkpt>
      <trkpt lat="42.9242400" lon="0.3496270">
        <ele>1023.4</ele>
        <time>2020-07-25T09:20:32Z</time>
      </trkpt>
      <trkpt lat="42.9243260" lon="0.3495440">
        <ele>1024.0</ele>
        <time>2020-07-25T09:20:36Z</time>
      </trkpt>
      <trkpt lat="42.9243990" lon="0.3494680">
        <ele>1024.4</ele>
        <time>2020-07-25T09:20:41Z</time>
      </trkpt>
      <trkpt lat="42.9244200" lon="0.3494420">
        <ele>1024.6</ele>
        <time>2020-07-25T09:20:42Z</time>
      </trkpt>
      <trkpt lat="42.9244680" lon="0.3493900">
        <ele>1024.8</ele>
        <time>2020-07-25T09:20:44Z</time>
      </trkpt>
      <trkpt lat="42.9244910" lon="0.3493630">
        <ele>1025.2</ele>
        <time>2020-07-25T09:20:45Z</time>
      </trkpt>
      <trkpt lat="42.9245610" lon="0.3492740">
        <ele>1026.0</ele>
        <time>2020-07-25T09:20:48Z</time>
      </trkpt>
      <trkpt lat="42.9245840" lon="0.3492450">
        <ele>1026.2</ele>
        <time>2020-07-25T09:20:49Z</time>
      </trkpt>
      <trkpt lat="42.9247240" lon="0.3490610">
        <ele>1027.2</ele>
        <time>2020-07-25T09:20:55Z</time>
      </trkpt>
      <trkpt lat="42.9247470" lon="0.3490310">
        <ele>1027.6</ele>
        <time>2020-07-25T09:20:56Z</time>
      </trkpt>
      <trkpt lat="42.9248160" lon="0.3489360">
        <ele>1028.6</ele>
        <time>2020-07-25T09:20:59Z</time>
      </trkpt>
      <trkpt lat="42.9248860" lon="0.3488430">
        <ele>1029.0</ele>
        <time>2020-07-25T09:21:02Z</time>
      </trkpt>
      <trkpt lat="42.9249730" lon="0.3487290">
        <ele>1029.8</ele>
        <time>2020-07-25T09:21:06Z</time>
      </trkpt>
      <trkpt lat="42.9250130" lon="0.3486680">
        <ele>1030.4</ele>
        <time>2020-07-25T09:21:08Z</time>
      </trkpt>
      <trkpt lat="42.9250700" lon="0.3485570">
        <ele>1030.8</ele>
        <time>2020-07-25T09:21:11Z</time>
      </trkpt>
      <trkpt lat="42.9251500" lon="0.3484240">
        <ele>1031.6</ele>
        <time>2020-07-25T09:21:15Z</time>
      </trkpt>
      <trkpt lat="42.9251960" lon="0.3483670">
        <ele>1031.8</ele>
        <time>2020-07-25T09:21:17Z</time>
      </trkpt>
      <trkpt lat="42.9252920" lon="0.3482450">
        <ele>1032.8</ele>
        <time>2020-07-25T09:21:21Z</time>
      </trkpt>
      <trkpt lat="42.9253180" lon="0.3482120">
        <ele>1033.2</ele>
        <time>2020-07-25T09:21:22Z</time>
      </trkpt>
      <trkpt lat="42.9253690" lon="0.3481460">
        <ele>1033.8</ele>
        <time>2020-07-25T09:21:24Z</time>
      </trkpt>
      <trkpt lat="42.9255180" lon="0.3479570">
        <ele>1034.6</ele>
        <time>2020-07-25T09:21:30Z</time>
      </trkpt>
      <trkpt lat="42.9255460" lon="0.3479300">
        <ele>1034.8</ele>
        <time>2020-07-25T09:21:31Z</time>
      </trkpt>
      <trkpt lat="42.9256010" lon="0.3478820">
        <ele>1035.6</ele>
        <time>2020-07-25T09:21:33Z</time>
      </trkpt>
      <trkpt lat="42.9257120" lon="0.3478080">
        <ele>1036.8</ele>
        <time>2020-07-25T09:21:37Z</time>
      </trkpt>
      <trkpt lat="42.9258250" lon="0.3477450">
        <ele>1037.8</ele>
        <time>2020-07-25T09:21:41Z</time>
      </trkpt>
      <trkpt lat="42.9258520" lon="0.3477270">
        <ele>1038.0</ele>
        <time>2020-07-25T09:21:42Z</time>
      </trkpt>
      <trkpt lat="42.9259830" lon="0.3476260">
        <ele>1039.0</ele>
        <time>2020-07-25T09:21:47Z</time>
      </trkpt>
      <trkpt lat="42.9260370" lon="0.3475810">
        <ele>1039.2</ele>
        <time>2020-07-25T09:21:49Z</time>
      </trkpt>
      <trkpt lat="42.9260620" lon="0.3475580">
        <ele>1039.4</ele>
        <time>2020-07-25T09:21:50Z</time>
      </trkpt>
      <trkpt lat="42.9261430" lon="0.3474870">
        <ele>1040.2</ele>
        <time>2020-07-25T09:21:53Z</time>
      </trkpt>
      <trkpt lat="42.9262640" lon="0.3474130">
        <ele>1041.2</ele>
        <time>2020-07-25T09:21:57Z</time>
      </trkpt>
      <trkpt lat="42.9262960" lon="0.3473980">
        <ele>1041.4</ele>
        <time>2020-07-25T09:21:58Z</time>
      </trkpt>
      <trkpt lat="42.9264910" lon="0.3473220">
        <ele>1042.4</ele>
        <time>2020-07-25T09:22:04Z</time>
      </trkpt>
      <trkpt lat="42.9265570" lon="0.3472950">
        <ele>1042.6</ele>
        <time>2020-07-25T09:22:06Z</time>
      </trkpt>
      <trkpt lat="42.9266890" lon="0.3472450">
        <ele>1043.4</ele>
        <time>2020-07-25T09:22:10Z</time>
      </trkpt>
      <trkpt lat="42.9268350" lon="0.3471900">
        <ele>1044.0</ele>
        <time>2020-07-25T09:22:14Z</time>
      </trkpt>
      <trkpt lat="42.9269790" lon="0.3471100">
        <ele>1044.6</ele>
        <time>2020-07-25T09:22:18Z</time>
      </trkpt>
      <trkpt lat="42.9270660" lon="0.3469950">
        <ele>1044.8</ele>
        <time>2020-07-25T09:22:21Z</time>
      </trkpt>
      <trkpt lat="42.9270880" lon="0.3467750">
        <ele>1045.2</ele>
        <time>2020-07-25T09:22:25Z</time>
      </trkpt>
      <trkpt lat="42.9270280" lon="0.3465720">
        <ele>1045.8</ele>
        <time>2020-07-25T09:22:29Z</time>
      </trkpt>
      <trkpt lat="42.9269070" lon="0.3464190">
        <ele>1046.8</ele>
        <time>2020-07-25T09:22:33Z</time>
      </trkpt>
      <trkpt lat="42.9268380" lon="0.3463560">
        <ele>1047.2</ele>
        <time>2020-07-25T09:22:35Z</time>
      </trkpt>
      <trkpt lat="42.9267060" lon="0.3462620">
        <ele>1048.0</ele>
        <time>2020-07-25T09:22:39Z</time>
      </trkpt>
      <trkpt lat="42.9265880" lon="0.3461720">
        <ele>1048.6</ele>
        <time>2020-07-25T09:22:43Z</time>
      </trkpt>
      <trkpt lat="42.9265300" lon="0.3461240">
        <ele>1049.0</ele>
        <time>2020-07-25T09:22:45Z</time>
      </trkpt>
      <trkpt lat="42.9264410" lon="0.3460130">
        <ele>1050.4</ele>
        <time>2020-07-25T09:22:49Z</time>
      </trkpt>
      <trkpt lat="42.9264240" lon="0.3459810">
        <ele>1050.6</ele>
        <time>2020-07-25T09:22:50Z</time>
      </trkpt>
      <trkpt lat="42.9263760" lon="0.3458760">
        <ele>1051.4</ele>
        <time>2020-07-25T09:22:53Z</time>
      </trkpt>
      <trkpt lat="42.9263620" lon="0.3458380">
        <ele>1051.6</ele>
        <time>2020-07-25T09:22:54Z</time>
      </trkpt>
      <trkpt lat="42.9263350" lon="0.3457200">
        <ele>1052.6</ele>
        <time>2020-07-25T09:22:57Z</time>
      </trkpt>
      <trkpt lat="42.9263270" lon="0.3456810">
        <ele>1052.8</ele>
        <time>2020-07-25T09:22:58Z</time>
      </trkpt>
      <trkpt lat="42.9263300" lon="0.3454860">
        <ele>1053.6</ele>
        <time>2020-07-25T09:23:03Z</time>
      </trkpt>
      <trkpt lat="42.9263370" lon="0.3454100">
        <ele>1054.2</ele>
        <time>2020-07-25T09:23:05Z</time>
      </trkpt>
      <trkpt lat="42.9263480" lon="0.3453330">
        <ele>1054.8</ele>
        <time>2020-07-25T09:23:07Z</time>
      </trkpt>
      <trkpt lat="42.9264200" lon="0.3451060">
        <ele>1056.0</ele>
        <time>2020-07-25T09:23:13Z</time>
      </trkpt>
      <trkpt lat="42.9264550" lon="0.3450400">
        <ele>1056.2</ele>
        <time>2020-07-25T09:23:15Z</time>
      </trkpt>
      <trkpt lat="42.9264730" lon="0.3450080">
        <ele>1056.4</ele>
        <time>2020-07-25T09:23:16Z</time>
      </trkpt>
      <trkpt lat="42.9264900" lon="0.3449750">
        <ele>1056.8</ele>
        <time>2020-07-25T09:23:17Z</time>
      </trkpt>
      <trkpt lat="42.9265070" lon="0.3449410">
        <ele>1057.2</ele>
        <time>2020-07-25T09:23:18Z</time>
      </trkpt>
      <trkpt lat="42.9265670" lon="0.3448520">
        <ele>1057.8</ele>
        <time>2020-07-25T09:23:21Z</time>
      </trkpt>
      <trkpt lat="42.9266120" lon="0.3447950">
        <ele>1058.2</ele>
        <time>2020-07-25T09:23:23Z</time>
      </trkpt>
      <trkpt lat="42.9266730" lon="0.3447210">
        <ele>1058.8</ele>
        <time>2020-07-25T09:23:26Z</time>
      </trkpt>
      <trkpt lat="42.9266860" lon="0.3446970">
        <ele>1059.0</ele>
        <time>2020-07-25T09:23:27Z</time>
      </trkpt>
      <trkpt lat="42.9267180" lon="0.3446530">
        <ele>1059.2</ele>
        <time>2020-07-25T09:23:29Z</time>
      </trkpt>
      <trkpt lat="42.9267860" lon="0.3445990">
        <ele>1059.8</ele>
        <time>2020-07-25T09:23:32Z</time>
      </trkpt>
      <trkpt lat="42.9268380" lon="0.3445680">
        <ele>1060.4</ele>
        <time>2020-07-25T09:23:34Z</time>
      </trkpt>
      <trkpt lat="42.9268880" lon="0.3445340">
        <ele>1060.8</ele>
        <time>2020-07-25T09:23:36Z</time>
      </trkpt>
      <trkpt lat="42.9269640" lon="0.3444900">
        <ele>1061.6</ele>
        <time>2020-07-25T09:23:39Z</time>
      </trkpt>
      <trkpt lat="42.9269890" lon="0.3444770">
        <ele>1061.8</ele>
        <time>2020-07-25T09:23:40Z</time>
      </trkpt>
      <trkpt lat="42.9270650" lon="0.3444410">
        <ele>1062.6</ele>
        <time>2020-07-25T09:23:43Z</time>
      </trkpt>
      <trkpt lat="42.9271470" lon="0.3444260">
        <ele>1063.0</ele>
        <time>2020-07-25T09:23:46Z</time>
      </trkpt>
      <trkpt lat="42.9272070" lon="0.3444220">
        <ele>1063.2</ele>
        <time>2020-07-25T09:23:48Z</time>
      </trkpt>
      <trkpt lat="42.9272910" lon="0.3444320">
        <ele>1063.8</ele>
        <time>2020-07-25T09:23:51Z</time>
      </trkpt>
      <trkpt lat="42.9274220" lon="0.3444850">
        <ele>1064.8</ele>
        <time>2020-07-25T09:23:56Z</time>
      </trkpt>
      <trkpt lat="42.9274470" lon="0.3445030">
        <ele>1064.8</ele>
        <time>2020-07-25T09:23:57Z</time>
      </trkpt>
      <trkpt lat="42.9275940" lon="0.3446450">
        <ele>1065.4</ele>
        <time>2020-07-25T09:24:03Z</time>
      </trkpt>
      <trkpt lat="42.9277000" lon="0.3447470">
        <ele>1065.8</ele>
        <time>2020-07-25T09:24:07Z</time>
      </trkpt>
      <trkpt lat="42.9277500" lon="0.3447970">
        <ele>1066.4</ele>
        <time>2020-07-25T09:24:09Z</time>
      </trkpt>
      <trkpt lat="42.9277970" lon="0.3448490">
        <ele>1067.0</ele>
        <time>2020-07-25T09:24:11Z</time>
      </trkpt>
      <trkpt lat="42.9279230" lon="0.3449850">
        <ele>1068.0</ele>
        <time>2020-07-25T09:24:17Z</time>
      </trkpt>
      <trkpt lat="42.9280350" lon="0.3451000">
        <ele>1069.2</ele>
        <time>2020-07-25T09:24:22Z</time>
      </trkpt>
      <trkpt lat="42.9280800" lon="0.3451460">
        <ele>1069.8</ele>
        <time>2020-07-25T09:24:24Z</time>
      </trkpt>
      <trkpt lat="42.9281020" lon="0.3451710">
        <ele>1070.0</ele>
        <time>2020-07-25T09:24:25Z</time>
      </trkpt>
      <trkpt lat="42.9281230" lon="0.3451980">
        <ele>1070.2</ele>
        <time>2020-07-25T09:24:26Z</time>
      </trkpt>
      <trkpt lat="42.9281690" lon="0.3453400">
        <ele>1071.0</ele>
        <time>2020-07-25T09:24:30Z</time>
      </trkpt>
      <trkpt lat="42.9281680" lon="0.3454160">
        <ele>1071.4</ele>
        <time>2020-07-25T09:24:32Z</time>
      </trkpt>
      <trkpt lat="42.9281390" lon="0.3455230">
        <ele>1072.4</ele>
        <time>2020-07-25T09:24:35Z</time>
      </trkpt>
      <trkpt lat="42.9280730" lon="0.3456970">
        <ele>1073.6</ele>
        <time>2020-07-25T09:24:40Z</time>
      </trkpt>
      <trkpt lat="42.9280300" lon="0.3458430">
        <ele>1074.8</ele>
        <time>2020-07-25T09:24:44Z</time>
      </trkpt>
      <trkpt lat="42.9279810" lon="0.3460260">
        <ele>1075.8</ele>
        <time>2020-07-25T09:24:49Z</time>
      </trkpt>
      <trkpt lat="42.9279600" lon="0.3462170">
        <ele>1076.8</ele>
        <time>2020-07-25T09:24:54Z</time>
      </trkpt>
      <trkpt lat="42.9279610" lon="0.3462540">
        <ele>1077.0</ele>
        <time>2020-07-25T09:24:55Z</time>
      </trkpt>
      <trkpt lat="42.9279530" lon="0.3464370">
        <ele>1078.2</ele>
        <time>2020-07-25T09:25:00Z</time>
      </trkpt>
      <trkpt lat="42.9279540" lon="0.3465490">
        <ele>1078.6</ele>
        <time>2020-07-25T09:25:03Z</time>
      </trkpt>
      <trkpt lat="42.9279560" lon="0.3466670">
        <ele>1079.2</ele>
        <time>2020-07-25T09:25:06Z</time>
      </trkpt>
      <trkpt lat="42.9279550" lon="0.3468600">
        <ele>1080.4</ele>
        <time>2020-07-25T09:25:11Z</time>
      </trkpt>
      <trkpt lat="42.9279570" lon="0.3469750">
        <ele>1081.4</ele>
        <time>2020-07-25T09:25:14Z</time>
      </trkpt>
      <trkpt lat="42.9279620" lon="0.3471670">
        <ele>1082.4</ele>
        <time>2020-07-25T09:25:19Z</time>
      </trkpt>
      <trkpt lat="42.9279620" lon="0.3472450">
        <ele>1082.8</ele>
        <time>2020-07-25T09:25:21Z</time>
      </trkpt>
      <trkpt lat="42.9279560" lon="0.3473640">
        <ele>1083.4</ele>
        <time>2020-07-25T09:25:24Z</time>
      </trkpt>
      <trkpt lat="42.9279260" lon="0.3475520">
        <ele>1084.6</ele>
        <time>2020-07-25T09:25:29Z</time>
      </trkpt>
      <trkpt lat="42.9278620" lon="0.3477000">
        <ele>1085.8</ele>
        <time>2020-07-25T09:25:34Z</time>
      </trkpt>
      <trkpt lat="42.9278230" lon="0.3477490">
        <ele>1086.0</ele>
        <time>2020-07-25T09:25:36Z</time>
      </trkpt>
      <trkpt lat="42.9277090" lon="0.3479150">
        <ele>1086.4</ele>
        <time>2020-07-25T09:25:42Z</time>
      </trkpt>
      <trkpt lat="42.9276890" lon="0.3479440">
        <ele>1086.8</ele>
        <time>2020-07-25T09:25:43Z</time>
      </trkpt>
      <trkpt lat="42.9276270" lon="0.3480340">
        <ele>1087.6</ele>
        <time>2020-07-25T09:25:46Z</time>
      </trkpt>
      <trkpt lat="42.9276070" lon="0.3480640">
        <ele>1088.0</ele>
        <time>2020-07-25T09:25:47Z</time>
      </trkpt>
      <trkpt lat="42.9274840" lon="0.3482370">
        <ele>1089.0</ele>
        <time>2020-07-25T09:25:53Z</time>
      </trkpt>
      <trkpt lat="42.9274670" lon="0.3482680">
        <ele>1089.0</ele>
        <time>2020-07-25T09:25:54Z</time>
      </trkpt>
      <trkpt lat="42.9274470" lon="0.3482980">
        <ele>1089.4</ele>
        <time>2020-07-25T09:25:55Z</time>
      </trkpt>
      <trkpt lat="42.9273860" lon="0.3483820">
        <ele>1090.4</ele>
        <time>2020-07-25T09:25:58Z</time>
      </trkpt>
      <trkpt lat="42.9272850" lon="0.3485150">
        <ele>1091.4</ele>
        <time>2020-07-25T09:26:03Z</time>
      </trkpt>
      <trkpt lat="42.9272640" lon="0.3485450">
        <ele>1091.4</ele>
        <time>2020-07-25T09:26:04Z</time>
      </trkpt>
      <trkpt lat="42.9271820" lon="0.3486600">
        <ele>1092.4</ele>
        <time>2020-07-25T09:26:09Z</time>
      </trkpt>
      <trkpt lat="42.9270940" lon="0.3487570">
        <ele>1092.8</ele>
        <time>2020-07-25T09:26:12Z</time>
      </trkpt>
      <trkpt lat="42.9270030" lon="0.3488590">
        <ele>1093.4</ele>
        <time>2020-07-25T09:26:16Z</time>
      </trkpt>
      <trkpt lat="42.9269080" lon="0.3489620">
        <ele>1094.4</ele>
        <time>2020-07-25T09:26:21Z</time>
      </trkpt>
      <trkpt lat="42.9268670" lon="0.3490170">
        <ele>1094.6</ele>
        <time>2020-07-25T09:26:22Z</time>
      </trkpt>
      <trkpt lat="42.9267690" lon="0.3491660">
        <ele>1095.8</ele>
        <time>2020-07-25T09:26:27Z</time>
      </trkpt>
      <trkpt lat="42.9267290" lon="0.3492270">
        <ele>1096.2</ele>
        <time>2020-07-25T09:26:29Z</time>
      </trkpt>
      <trkpt lat="42.9266890" lon="0.3492920">
        <ele>1096.8</ele>
        <time>2020-07-25T09:26:31Z</time>
      </trkpt>
      <trkpt lat="42.9265860" lon="0.3494490">
        <ele>1097.8</ele>
        <time>2020-07-25T09:26:36Z</time>
      </trkpt>
      <trkpt lat="42.9265100" lon="0.3495710">
        <ele>1098.4</ele>
        <time>2020-07-25T09:26:40Z</time>
      </trkpt>
      <trkpt lat="42.9264540" lon="0.3496670">
        <ele>1098.8</ele>
        <time>2020-07-25T09:26:43Z</time>
      </trkpt>
      <trkpt lat="42.9263860" lon="0.3497920">
        <ele>1100.2</ele>
        <time>2020-07-25T09:26:47Z</time>
      </trkpt>
      <trkpt lat="42.9263390" lon="0.3498900">
        <ele>1100.8</ele>
        <time>2020-07-25T09:26:50Z</time>
      </trkpt>
      <trkpt lat="42.9262880" lon="0.3499920">
        <ele>1101.2</ele>
        <time>2020-07-25T09:26:53Z</time>
      </trkpt>
      <trkpt lat="42.9262170" lon="0.3501520">
        <ele>1102.4</ele>
        <time>2020-07-25T09:26:58Z</time>
      </trkpt>
      <trkpt lat="42.9261730" lon="0.3502470">
        <ele>1103.0</ele>
        <time>2020-07-25T09:27:01Z</time>
      </trkpt>
      <trkpt lat="42.9261310" lon="0.3503480">
        <ele>1103.6</ele>
        <time>2020-07-25T09:27:04Z</time>
      </trkpt>
      <trkpt lat="42.9260890" lon="0.3504440">
        <ele>1104.6</ele>
        <time>2020-07-25T09:27:08Z</time>
      </trkpt>
      <trkpt lat="42.9260740" lon="0.3504730">
        <ele>1104.8</ele>
        <time>2020-07-25T09:27:09Z</time>
      </trkpt>
      <trkpt lat="42.9260260" lon="0.3505700">
        <ele>1105.2</ele>
        <time>2020-07-25T09:27:11Z</time>
      </trkpt>
      <trkpt lat="42.9260100" lon="0.3506030">
        <ele>1105.4</ele>
        <time>2020-07-25T09:27:12Z</time>
      </trkpt>
      <trkpt lat="42.9259940" lon="0.3506360">
        <ele>1105.4</ele>
        <time>2020-07-25T09:27:13Z</time>
      </trkpt>
      <trkpt lat="42.9259940" lon="0.3506360">
        <ele>1105.6</ele>
        <time>2020-07-25T09:27:14Z</time>
      </trkpt>
      <trkpt lat="42.9259200" lon="0.3508380">
        <ele>1106.8</ele>
        <time>2020-07-25T09:27:19Z</time>
      </trkpt>
      <trkpt lat="42.9259080" lon="0.3508670">
        <ele>1107.0</ele>
        <time>2020-07-25T09:27:20Z</time>
      </trkpt>
      <trkpt lat="42.9258460" lon="0.3510320">
        <ele>1107.6</ele>
        <time>2020-07-25T09:27:26Z</time>
      </trkpt>
      <trkpt lat="42.9258350" lon="0.3510610">
        <ele>1107.8</ele>
        <time>2020-07-25T09:27:27Z</time>
      </trkpt>
      <trkpt lat="42.9258240" lon="0.3510890">
        <ele>1107.8</ele>
        <time>2020-07-25T09:27:28Z</time>
      </trkpt>
      <trkpt lat="42.9257700" lon="0.3512310">
        <ele>1109.0</ele>
        <time>2020-07-25T09:27:34Z</time>
      </trkpt>
      <trkpt lat="42.9257280" lon="0.3513270">
        <ele>1109.8</ele>
        <time>2020-07-25T09:27:36Z</time>
      </trkpt>
      <trkpt lat="42.9257140" lon="0.3513580">
        <ele>1110.2</ele>
        <time>2020-07-25T09:27:38Z</time>
      </trkpt>
      <trkpt lat="42.9256260" lon="0.3515490">
        <ele>1111.2</ele>
        <time>2020-07-25T09:27:43Z</time>
      </trkpt>
      <trkpt lat="42.9256010" lon="0.3516080">
        <ele>1111.6</ele>
        <time>2020-07-25T09:27:45Z</time>
      </trkpt>
      <trkpt lat="42.9255880" lon="0.3516380">
        <ele>1111.8</ele>
        <time>2020-07-25T09:27:46Z</time>
      </trkpt>
      <trkpt lat="42.9255640" lon="0.3516990">
        <ele>1112.4</ele>
        <time>2020-07-25T09:27:48Z</time>
      </trkpt>
      <trkpt lat="42.9255170" lon="0.3518350">
        <ele>1113.4</ele>
        <time>2020-07-25T09:27:53Z</time>
      </trkpt>
      <trkpt lat="42.9255080" lon="0.3518620">
        <ele>1114.2</ele>
        <time>2020-07-25T09:27:55Z</time>
      </trkpt>
      <trkpt lat="42.9255010" lon="0.3518870">
        <ele>1114.6</ele>
        <time>2020-07-25T09:27:56Z</time>
      </trkpt>
      <trkpt lat="42.9254510" lon="0.3520650">
        <ele>1115.4</ele>
        <time>2020-07-25T09:28:02Z</time>
      </trkpt>
      <trkpt lat="42.9254380" lon="0.3521340">
        <ele>1115.4</ele>
        <time>2020-07-25T09:28:03Z</time>
      </trkpt>
      <trkpt lat="42.9254330" lon="0.3521710">
        <ele>1115.6</ele>
        <time>2020-07-25T09:28:04Z</time>
      </trkpt>
      <trkpt lat="42.9253800" lon="0.3523910">
        <ele>1116.4</ele>
        <time>2020-07-25T09:28:10Z</time>
      </trkpt>
      <trkpt lat="42.9253740" lon="0.3524280">
        <ele>1116.8</ele>
        <time>2020-07-25T09:28:11Z</time>
      </trkpt>
      <trkpt lat="42.9253470" lon="0.3526100">
        <ele>1117.8</ele>
        <time>2020-07-25T09:28:17Z</time>
      </trkpt>
      <trkpt lat="42.9253280" lon="0.3527220">
        <ele>1118.4</ele>
        <time>2020-07-25T09:28:19Z</time>
      </trkpt>
      <trkpt lat="42.9253170" lon="0.3527950">
        <ele>1119.2</ele>
        <time>2020-07-25T09:28:21Z</time>
      </trkpt>
      <trkpt lat="42.9253110" lon="0.3528320">
        <ele>1119.4</ele>
        <time>2020-07-25T09:28:22Z</time>
      </trkpt>
      <trkpt lat="42.9253040" lon="0.3528670">
        <ele>1119.6</ele>
        <time>2020-07-25T09:28:23Z</time>
      </trkpt>
      <trkpt lat="42.9252910" lon="0.3529390">
        <ele>1119.6</ele>
        <time>2020-07-25T09:28:25Z</time>
      </trkpt>
      <trkpt lat="42.9252720" lon="0.3530200">
        <ele>1120.0</ele>
        <time>2020-07-25T09:28:27Z</time>
      </trkpt>
      <trkpt lat="42.9252510" lon="0.3530960">
        <ele>1120.2</ele>
        <time>2020-07-25T09:28:29Z</time>
      </trkpt>
      <trkpt lat="42.9251830" lon="0.3533120">
        <ele>1121.4</ele>
        <time>2020-07-25T09:28:35Z</time>
      </trkpt>
      <trkpt lat="42.9251350" lon="0.3534550">
        <ele>1122.6</ele>
        <time>2020-07-25T09:28:39Z</time>
      </trkpt>
      <trkpt lat="42.9250760" lon="0.3536230">
        <ele>1123.8</ele>
        <time>2020-07-25T09:28:44Z</time>
      </trkpt>
      <trkpt lat="42.9250640" lon="0.3536550">
        <ele>1124.2</ele>
        <time>2020-07-25T09:28:45Z</time>
      </trkpt>
      <trkpt lat="42.9250060" lon="0.3538240">
        <ele>1125.0</ele>
        <time>2020-07-25T09:28:50Z</time>
      </trkpt>
      <trkpt lat="42.9249600" lon="0.3539620">
        <ele>1125.8</ele>
        <time>2020-07-25T09:28:54Z</time>
      </trkpt>
      <trkpt lat="42.9249560" lon="0.3539970">
        <ele>1126.0</ele>
        <time>2020-07-25T09:28:56Z</time>
      </trkpt>
      <trkpt lat="42.9249750" lon="0.3541350">
        <ele>1126.8</ele>
        <time>2020-07-25T09:29:00Z</time>
      </trkpt>
      <trkpt lat="42.9250050" lon="0.3541920">
        <ele>1127.0</ele>
        <time>2020-07-25T09:29:01Z</time>
      </trkpt>
      <trkpt lat="42.9250250" lon="0.3542190">
        <ele>1127.0</ele>
        <time>2020-07-25T09:29:02Z</time>
      </trkpt>
      <trkpt lat="42.9250490" lon="0.3542400">
        <ele>1127.2</ele>
        <time>2020-07-25T09:29:04Z</time>
      </trkpt>
      <trkpt lat="42.9251820" lon="0.3542330">
        <ele>1128.0</ele>
        <time>2020-07-25T09:29:08Z</time>
      </trkpt>
      <trkpt lat="42.9251820" lon="0.3542330">
        <ele>1128.2</ele>
        <time>2020-07-25T09:29:09Z</time>
      </trkpt>
      <trkpt lat="42.9252920" lon="0.3540430">
        <ele>1128.8</ele>
        <time>2020-07-25T09:29:14Z</time>
      </trkpt>
      <trkpt lat="42.9253090" lon="0.3539650">
        <ele>1129.2</ele>
        <time>2020-07-25T09:29:16Z</time>
      </trkpt>
      <trkpt lat="42.9253230" lon="0.3538020">
        <ele>1130.2</ele>
        <time>2020-07-25T09:29:21Z</time>
      </trkpt>
      <trkpt lat="42.9253390" lon="0.3537220">
        <ele>1130.4</ele>
        <time>2020-07-25T09:29:22Z</time>
      </trkpt>
      <trkpt lat="42.9253950" lon="0.3535700">
        <ele>1131.2</ele>
        <time>2020-07-25T09:29:27Z</time>
      </trkpt>
      <trkpt lat="42.9254290" lon="0.3535050">
        <ele>1131.4</ele>
        <time>2020-07-25T09:29:28Z</time>
      </trkpt>
      <trkpt lat="42.9254450" lon="0.3534710">
        <ele>1131.6</ele>
        <time>2020-07-25T09:29:29Z</time>
      </trkpt>
      <trkpt lat="42.9254620" lon="0.3534380">
        <ele>1132.2</ele>
        <time>2020-07-25T09:29:31Z</time>
      </trkpt>
      <trkpt lat="42.9254820" lon="0.3534080">
        <ele>1132.4</ele>
        <time>2020-07-25T09:29:32Z</time>
      </trkpt>
      <trkpt lat="42.9255360" lon="0.3533220">
        <ele>1132.8</ele>
        <time>2020-07-25T09:29:34Z</time>
      </trkpt>
      <trkpt lat="42.9255860" lon="0.3532350">
        <ele>1133.2</ele>
        <time>2020-07-25T09:29:37Z</time>
      </trkpt>
      <trkpt lat="42.9256030" lon="0.3532060">
        <ele>1133.6</ele>
        <time>2020-07-25T09:29:38Z</time>
      </trkpt>
      <trkpt lat="42.9256350" lon="0.3531480">
        <ele>1134.4</ele>
        <time>2020-07-25T09:29:40Z</time>
      </trkpt>
      <trkpt lat="42.9256520" lon="0.3531190">
        <ele>1134.8</ele>
        <time>2020-07-25T09:29:41Z</time>
      </trkpt>
      <trkpt lat="42.9257440" lon="0.3529910">
        <ele>1136.0</ele>
        <time>2020-07-25T09:29:46Z</time>
      </trkpt>
      <trkpt lat="42.9257800" lon="0.3529420">
        <ele>1136.4</ele>
        <time>2020-07-25T09:29:49Z</time>
      </trkpt>
      <trkpt lat="42.9258620" lon="0.3528550">
        <ele>1137.0</ele>
        <time>2020-07-25T09:29:52Z</time>
      </trkpt>
      <trkpt lat="42.9259030" lon="0.3528140">
        <ele>1137.6</ele>
        <time>2020-07-25T09:29:54Z</time>
      </trkpt>
      <trkpt lat="42.9259030" lon="0.3528140">
        <ele>1138.0</ele>
        <time>2020-07-25T09:29:55Z</time>
      </trkpt>
      <trkpt lat="42.9259400" lon="0.3527750">
        <ele>1138.2</ele>
        <time>2020-07-25T09:29:56Z</time>
      </trkpt>
      <trkpt lat="42.9259560" lon="0.3527560">
        <ele>1138.4</ele>
        <time>2020-07-25T09:29:57Z</time>
      </trkpt>
      <trkpt lat="42.9260440" lon="0.3526510">
        <ele>1139.4</ele>
        <time>2020-07-25T09:30:02Z</time>
      </trkpt>
      <trkpt lat="42.9261000" lon="0.3525850">
        <ele>1140.4</ele>
        <time>2020-07-25T09:30:05Z</time>
      </trkpt>
      <trkpt lat="42.9261170" lon="0.3525610">
        <ele>1140.6</ele>
        <time>2020-07-25T09:30:06Z</time>
      </trkpt>
      <trkpt lat="42.9262210" lon="0.3524150">
        <ele>1141.8</ele>
        <time>2020-07-25T09:30:12Z</time>
      </trkpt>
      <trkpt lat="42.9262730" lon="0.3523450">
        <ele>1142.2</ele>
        <time>2020-07-25T09:30:15Z</time>
      </trkpt>
      <trkpt lat="42.9263070" lon="0.3522980">
        <ele>1142.8</ele>
        <time>2020-07-25T09:30:17Z</time>
      </trkpt>
      <trkpt lat="42.9263680" lon="0.3521930">
        <ele>1143.8</ele>
        <time>2020-07-25T09:30:21Z</time>
      </trkpt>
      <trkpt lat="42.9263840" lon="0.3521680">
        <ele>1144.2</ele>
        <time>2020-07-25T09:30:22Z</time>
      </trkpt>
      <trkpt lat="42.9264320" lon="0.3520930">
        <ele>1145.0</ele>
        <time>2020-07-25T09:30:25Z</time>
      </trkpt>
      <trkpt lat="42.9264320" lon="0.3520930">
        <ele>1145.2</ele>
        <time>2020-07-25T09:30:26Z</time>
      </trkpt>
      <trkpt lat="42.9264990" lon="0.3519890">
        <ele>1146.0</ele>
        <time>2020-07-25T09:30:30Z</time>
      </trkpt>
      <trkpt lat="42.9265470" lon="0.3519130">
        <ele>1146.4</ele>
        <time>2020-07-25T09:30:32Z</time>
      </trkpt>
      <trkpt lat="42.9265980" lon="0.3518410">
        <ele>1147.2</ele>
        <time>2020-07-25T09:30:35Z</time>
      </trkpt>
      <trkpt lat="42.9266770" lon="0.3517160">
        <ele>1148.2</ele>
        <time>2020-07-25T09:30:40Z</time>
      </trkpt>
      <trkpt lat="42.9267620" lon="0.3515810">
        <ele>1149.4</ele>
        <time>2020-07-25T09:30:46Z</time>
      </trkpt>
      <trkpt lat="42.9267800" lon="0.3515570">
        <ele>1149.6</ele>
        <time>2020-07-25T09:30:47Z</time>
      </trkpt>
      <trkpt lat="42.9268300" lon="0.3514870">
        <ele>1150.6</ele>
        <time>2020-07-25T09:30:50Z</time>
      </trkpt>
      <trkpt lat="42.9269040" lon="0.3514030">
        <ele>1151.2</ele>
        <time>2020-07-25T09:30:54Z</time>
      </trkpt>
      <trkpt lat="42.9269240" lon="0.3513850">
        <ele>1151.4</ele>
        <time>2020-07-25T09:30:56Z</time>
      </trkpt>
      <trkpt lat="42.9269630" lon="0.3513520">
        <ele>1151.6</ele>
        <time>2020-07-25T09:30:57Z</time>
      </trkpt>
      <trkpt lat="42.9270300" lon="0.3513210">
        <ele>1152.8</ele>
        <time>2020-07-25T09:31:01Z</time>
      </trkpt>
      <trkpt lat="42.9270980" lon="0.3513070">
        <ele>1153.0</ele>
        <time>2020-07-25T09:31:03Z</time>
      </trkpt>
      <trkpt lat="42.9271900" lon="0.3513040">
        <ele>1154.0</ele>
        <time>2020-07-25T09:31:07Z</time>
      </trkpt>
      <trkpt lat="42.9272360" lon="0.3513070">
        <ele>1154.6</ele>
        <time>2020-07-25T09:31:10Z</time>
      </trkpt>
      <trkpt lat="42.9273090" lon="0.3513140">
        <ele>1155.2</ele>
        <time>2020-07-25T09:31:12Z</time>
      </trkpt>
      <trkpt lat="42.9274030" lon="0.3513090">
        <ele>1156.4</ele>
        <time>2020-07-25T09:31:16Z</time>
      </trkpt>
      <trkpt lat="42.9274880" lon="0.3513090">
        <ele>1156.8</ele>
        <time>2020-07-25T09:31:20Z</time>
      </trkpt>
      <trkpt lat="42.9275790" lon="0.3512960">
        <ele>1157.6</ele>
        <time>2020-07-25T09:31:24Z</time>
      </trkpt>
      <trkpt lat="42.9276530" lon="0.3512880">
        <ele>1158.2</ele>
        <time>2020-07-25T09:31:27Z</time>
      </trkpt>
      <trkpt lat="42.9276760" lon="0.3512840">
        <ele>1158.6</ele>
        <time>2020-07-25T09:31:28Z</time>
      </trkpt>
      <trkpt lat="42.9277690" lon="0.3512620">
        <ele>1159.6</ele>
        <time>2020-07-25T09:31:32Z</time>
      </trkpt>
      <trkpt lat="42.9278760" lon="0.3512240">
        <ele>1160.8</ele>
        <time>2020-07-25T09:31:38Z</time>
      </trkpt>
      <trkpt lat="42.9279220" lon="0.3512050">
        <ele>1161.0</ele>
        <time>2020-07-25T09:31:39Z</time>
      </trkpt>
      <trkpt lat="42.9280340" lon="0.3511540">
        <ele>1161.8</ele>
        <time>2020-07-25T09:31:44Z</time>
      </trkpt>
      <trkpt lat="42.9281010" lon="0.3511260">
        <ele>1162.6</ele>
        <time>2020-07-25T09:31:47Z</time>
      </trkpt>
      <trkpt lat="42.9281230" lon="0.3511160">
        <ele>1163.0</ele>
        <time>2020-07-25T09:31:48Z</time>
      </trkpt>
      <trkpt lat="42.9281660" lon="0.3510980">
        <ele>1164.0</ele>
        <time>2020-07-25T09:31:51Z</time>
      </trkpt>
      <trkpt lat="42.9282730" lon="0.3510330">
        <ele>1164.6</ele>
        <time>2020-07-25T09:31:55Z</time>
      </trkpt>
      <trkpt lat="42.9282930" lon="0.3510170">
        <ele>1164.6</ele>
        <time>2020-07-25T09:31:56Z</time>
      </trkpt>
      <trkpt lat="42.9283560" lon="0.3509760">
        <ele>1165.4</ele>
        <time>2020-07-25T09:31:59Z</time>
      </trkpt>
      <trkpt lat="42.9284130" lon="0.3509350">
        <ele>1166.4</ele>
        <time>2020-07-25T09:32:02Z</time>
      </trkpt>
      <trkpt lat="42.9284320" lon="0.3509220">
        <ele>1166.6</ele>
        <time>2020-07-25T09:32:03Z</time>
      </trkpt>
      <trkpt lat="42.9284690" lon="0.3508980">
        <ele>1167.0</ele>
        <time>2020-07-25T09:32:05Z</time>
      </trkpt>
      <trkpt lat="42.9285070" lon="0.3508710">
        <ele>1167.4</ele>
        <time>2020-07-25T09:32:07Z</time>
      </trkpt>
      <trkpt lat="42.9285280" lon="0.3508570">
        <ele>1167.6</ele>
        <time>2020-07-25T09:32:08Z</time>
      </trkpt>
      <trkpt lat="42.9285870" lon="0.3508130">
        <ele>1167.8</ele>
        <time>2020-07-25T09:32:11Z</time>
      </trkpt>
      <trkpt lat="42.9286290" lon="0.3507830">
        <ele>1168.2</ele>
        <time>2020-07-25T09:32:13Z</time>
      </trkpt>
      <trkpt lat="42.9286700" lon="0.3507530">
        <ele>1168.6</ele>
        <time>2020-07-25T09:32:15Z</time>
      </trkpt>
      <trkpt lat="42.9287320" lon="0.3507110">
        <ele>1169.2</ele>
        <time>2020-07-25T09:32:18Z</time>
      </trkpt>
      <trkpt lat="42.9287530" lon="0.3506950">
        <ele>1169.6</ele>
        <time>2020-07-25T09:32:19Z</time>
      </trkpt>
      <trkpt lat="42.9288140" lon="0.3506480">
        <ele>1170.4</ele>
        <time>2020-07-25T09:32:22Z</time>
      </trkpt>
      <trkpt lat="42.9288340" lon="0.3506310">
        <ele>1170.6</ele>
        <time>2020-07-25T09:32:23Z</time>
      </trkpt>
      <trkpt lat="42.9288540" lon="0.3506150">
        <ele>1170.8</ele>
        <time>2020-07-25T09:32:24Z</time>
      </trkpt>
      <trkpt lat="42.9289140" lon="0.3505670">
        <ele>1171.0</ele>
        <time>2020-07-25T09:32:27Z</time>
      </trkpt>
      <trkpt lat="42.9290260" lon="0.3504680">
        <ele>1171.8</ele>
        <time>2020-07-25T09:32:33Z</time>
      </trkpt>
      <trkpt lat="42.9290980" lon="0.3503890">
        <ele>1173.0</ele>
        <time>2020-07-25T09:32:37Z</time>
      </trkpt>
      <trkpt lat="42.9291710" lon="0.3503170">
        <ele>1173.6</ele>
        <time>2020-07-25T09:32:41Z</time>
      </trkpt>
      <trkpt lat="42.9292030" lon="0.3502820">
        <ele>1174.2</ele>
        <time>2020-07-25T09:32:43Z</time>
      </trkpt>
      <trkpt lat="42.9292880" lon="0.3501870">
        <ele>1175.2</ele>
        <time>2020-07-25T09:32:49Z</time>
      </trkpt>
      <trkpt lat="42.9293210" lon="0.3501500">
        <ele>1175.4</ele>
        <time>2020-07-25T09:32:50Z</time>
      </trkpt>
      <trkpt lat="42.9293970" lon="0.3500720">
        <ele>1176.2</ele>
        <time>2020-07-25T09:32:54Z</time>
      </trkpt>
      <trkpt lat="42.9294520" lon="0.3500110">
        <ele>1177.0</ele>
        <time>2020-07-25T09:32:57Z</time>
      </trkpt>
      <trkpt lat="42.9294720" lon="0.3499930">
        <ele>1177.6</ele>
        <time>2020-07-25T09:32:58Z</time>
      </trkpt>
      <trkpt lat="42.9295540" lon="0.3499230">
        <ele>1178.8</ele>
        <time>2020-07-25T09:33:02Z</time>
      </trkpt>
      <trkpt lat="42.9296170" lon="0.3498710">
        <ele>1179.4</ele>
        <time>2020-07-25T09:33:05Z</time>
      </trkpt>
      <trkpt lat="42.9296980" lon="0.3498010">
        <ele>1179.8</ele>
        <time>2020-07-25T09:33:09Z</time>
      </trkpt>
      <trkpt lat="42.9297950" lon="0.3497100">
        <ele>1180.8</ele>
        <time>2020-07-25T09:33:14Z</time>
      </trkpt>
      <trkpt lat="42.9298130" lon="0.3496920">
        <ele>1181.2</ele>
        <time>2020-07-25T09:33:15Z</time>
      </trkpt>
      <trkpt lat="42.9298870" lon="0.3496290">
        <ele>1182.4</ele>
        <time>2020-07-25T09:33:19Z</time>
      </trkpt>
      <trkpt lat="42.9299210" lon="0.3495950">
        <ele>1182.8</ele>
        <time>2020-07-25T09:33:21Z</time>
      </trkpt>
      <trkpt lat="42.9299890" lon="0.3495310">
        <ele>1183.4</ele>
        <time>2020-07-25T09:33:25Z</time>
      </trkpt>
      <trkpt lat="42.9300060" lon="0.3495140">
        <ele>1183.6</ele>
        <time>2020-07-25T09:33:26Z</time>
      </trkpt>
      <trkpt lat="42.9300400" lon="0.3494810">
        <ele>1184.0</ele>
        <time>2020-07-25T09:33:28Z</time>
      </trkpt>
      <trkpt lat="42.9300800" lon="0.3494520">
        <ele>1184.4</ele>
        <time>2020-07-25T09:33:30Z</time>
      </trkpt>
      <trkpt lat="42.9301000" lon="0.3494380">
        <ele>1184.6</ele>
        <time>2020-07-25T09:33:31Z</time>
      </trkpt>
      <trkpt lat="42.9302070" lon="0.3493370">
        <ele>1185.8</ele>
        <time>2020-07-25T09:33:37Z</time>
      </trkpt>
      <trkpt lat="42.9302070" lon="0.3493370">
        <ele>1186.0</ele>
        <time>2020-07-25T09:33:38Z</time>
      </trkpt>
      <trkpt lat="42.9302580" lon="0.3492830">
        <ele>1186.8</ele>
        <time>2020-07-25T09:33:40Z</time>
      </trkpt>
      <trkpt lat="42.9302750" lon="0.3492670">
        <ele>1187.0</ele>
        <time>2020-07-25T09:33:41Z</time>
      </trkpt>
      <trkpt lat="42.9303380" lon="0.3491970">
        <ele>1187.6</ele>
        <time>2020-07-25T09:33:45Z</time>
      </trkpt>
      <trkpt lat="42.9304300" lon="0.3490950">
        <ele>1188.2</ele>
        <time>2020-07-25T09:33:50Z</time>
      </trkpt>
      <trkpt lat="42.9304670" lon="0.3490570">
        <ele>1189.2</ele>
        <time>2020-07-25T09:33:52Z</time>
      </trkpt>
      <trkpt lat="42.9304880" lon="0.3490420">
        <ele>1189.6</ele>
        <time>2020-07-25T09:33:53Z</time>
      </trkpt>
      <trkpt lat="42.9305540" lon="0.3489620">
        <ele>1190.4</ele>
        <time>2020-07-25T09:33:57Z</time>
      </trkpt>
      <trkpt lat="42.9306170" lon="0.3488860">
        <ele>1191.4</ele>
        <time>2020-07-25T09:34:01Z</time>
      </trkpt>
      <trkpt lat="42.9306170" lon="0.3488860">
        <ele>1191.6</ele>
        <time>2020-07-25T09:34:02Z</time>
      </trkpt>
      <trkpt lat="42.9307220" lon="0.3487870">
        <ele>1192.4</ele>
        <time>2020-07-25T09:34:07Z</time>
      </trkpt>
      <trkpt lat="42.9307560" lon="0.3487510">
        <ele>1192.8</ele>
        <time>2020-07-25T09:34:10Z</time>
      </trkpt>
      <trkpt lat="42.9308300" lon="0.3486720">
        <ele>1193.4</ele>
        <time>2020-07-25T09:34:13Z</time>
      </trkpt>
      <trkpt lat="42.9309250" lon="0.3485640">
        <ele>1194.4</ele>
        <time>2020-07-25T09:34:18Z</time>
      </trkpt>
      <trkpt lat="42.9309910" lon="0.3484770">
        <ele>1195.6</ele>
        <time>2020-07-25T09:34:22Z</time>
      </trkpt>
      <trkpt lat="42.9310540" lon="0.3483870">
        <ele>1196.4</ele>
        <time>2020-07-25T09:34:26Z</time>
      </trkpt>
      <trkpt lat="42.9310730" lon="0.3483670">
        <ele>1196.6</ele>
        <time>2020-07-25T09:34:27Z</time>
      </trkpt>
      <trkpt lat="42.9311500" lon="0.3482830">
        <ele>1197.6</ele>
        <time>2020-07-25T09:34:31Z</time>
      </trkpt>
      <trkpt lat="42.9312180" lon="0.3482050">
        <ele>1198.6</ele>
        <time>2020-07-25T09:34:35Z</time>
      </trkpt>
      <trkpt lat="42.9312840" lon="0.3481230">
        <ele>1199.8</ele>
        <time>2020-07-25T09:34:39Z</time>
      </trkpt>
      <trkpt lat="42.9313690" lon="0.3480260">
        <ele>1200.4</ele>
        <time>2020-07-25T09:34:44Z</time>
      </trkpt>
      <trkpt lat="42.9314020" lon="0.3479910">
        <ele>1200.8</ele>
        <time>2020-07-25T09:34:46Z</time>
      </trkpt>
      <trkpt lat="42.9314220" lon="0.3479750">
        <ele>1201.0</ele>
        <time>2020-07-25T09:34:47Z</time>
      </trkpt>
      <trkpt lat="42.9314940" lon="0.3478980">
        <ele>1202.2</ele>
        <time>2020-07-25T09:34:51Z</time>
      </trkpt>
      <trkpt lat="42.9315370" lon="0.3478710">
        <ele>1202.6</ele>
        <time>2020-07-25T09:34:53Z</time>
      </trkpt>
      <trkpt lat="42.9315750" lon="0.3478370">
        <ele>1203.0</ele>
        <time>2020-07-25T09:34:55Z</time>
      </trkpt>
      <trkpt lat="42.9315930" lon="0.3478180">
        <ele>1203.2</ele>
        <time>2020-07-25T09:34:56Z</time>
      </trkpt>
      <trkpt lat="42.9316520" lon="0.3477710">
        <ele>1204.0</ele>
        <time>2020-07-25T09:34:59Z</time>
      </trkpt>
      <trkpt lat="42.9316870" lon="0.3477370">
        <ele>1204.4</ele>
        <time>2020-07-25T09:35:01Z</time>
      </trkpt>
      <trkpt lat="42.9317570" lon="0.3476640">
        <ele>1205.0</ele>
        <time>2020-07-25T09:35:05Z</time>
      </trkpt>
      <trkpt lat="42.9317770" lon="0.3476470">
        <ele>1205.6</ele>
        <time>2020-07-25T09:35:07Z</time>
      </trkpt>
      <trkpt lat="42.9318290" lon="0.3475880">
        <ele>1206.0</ele>
        <time>2020-07-25T09:35:09Z</time>
      </trkpt>
      <trkpt lat="42.9318850" lon="0.3475430">
        <ele>1206.6</ele>
        <time>2020-07-25T09:35:12Z</time>
      </trkpt>
      <trkpt lat="42.9319740" lon="0.3474600">
        <ele>1207.6</ele>
        <time>2020-07-25T09:35:17Z</time>
      </trkpt>
      <trkpt lat="42.9319910" lon="0.3474420">
        <ele>1207.8</ele>
        <time>2020-07-25T09:35:18Z</time>
      </trkpt>
      <trkpt lat="42.9320450" lon="0.3473980">
        <ele>1208.6</ele>
        <time>2020-07-25T09:35:22Z</time>
      </trkpt>
      <trkpt lat="42.9320960" lon="0.3473640">
        <ele>1208.8</ele>
        <time>2020-07-25T09:35:24Z</time>
      </trkpt>
      <trkpt lat="42.9321150" lon="0.3473510">
        <ele>1209.0</ele>
        <time>2020-07-25T09:35:26Z</time>
      </trkpt>
      <trkpt lat="42.9322020" lon="0.3472920">
        <ele>1210.0</ele>
        <time>2020-07-25T09:35:29Z</time>
      </trkpt>
      <trkpt lat="42.9322770" lon="0.3472330">
        <ele>1210.6</ele>
        <time>2020-07-25T09:35:33Z</time>
      </trkpt>
      <trkpt lat="42.9323120" lon="0.3472120">
        <ele>1211.0</ele>
        <time>2020-07-25T09:35:35Z</time>
      </trkpt>
      <trkpt lat="42.9323880" lon="0.3471620">
        <ele>1212.0</ele>
        <time>2020-07-25T09:35:40Z</time>
      </trkpt>
      <trkpt lat="42.9324080" lon="0.3471510">
        <ele>1212.2</ele>
        <time>2020-07-25T09:35:41Z</time>
      </trkpt>
      <trkpt lat="42.9324920" lon="0.3470860">
        <ele>1213.0</ele>
        <time>2020-07-25T09:35:45Z</time>
      </trkpt>
      <trkpt lat="42.9325100" lon="0.3470720">
        <ele>1213.2</ele>
        <time>2020-07-25T09:35:46Z</time>
      </trkpt>
      <trkpt lat="42.9325500" lon="0.3470500">
        <ele>1213.8</ele>
        <time>2020-07-25T09:35:48Z</time>
      </trkpt>
      <trkpt lat="42.9326290" lon="0.3469990">
        <ele>1214.4</ele>
        <time>2020-07-25T09:35:53Z</time>
      </trkpt>
      <trkpt lat="42.9327380" lon="0.3469320">
        <ele>1215.2</ele>
        <time>2020-07-25T09:35:57Z</time>
      </trkpt>
      <trkpt lat="42.9327640" lon="0.3469290">
        <ele>1215.4</ele>
        <time>2020-07-25T09:35:58Z</time>
      </trkpt>
      <trkpt lat="42.9327860" lon="0.3469200">
        <ele>1215.8</ele>
        <time>2020-07-25T09:35:59Z</time>
      </trkpt>
      <trkpt lat="42.9328420" lon="0.3469080">
        <ele>1216.6</ele>
        <time>2020-07-25T09:36:02Z</time>
      </trkpt>
      <trkpt lat="42.9329280" lon="0.3468800">
        <ele>1217.2</ele>
        <time>2020-07-25T09:36:05Z</time>
      </trkpt>
      <trkpt lat="42.9330100" lon="0.3468520">
        <ele>1217.6</ele>
        <time>2020-07-25T09:36:07Z</time>
      </trkpt>
      <trkpt lat="42.9331330" lon="0.3467930">
        <ele>1218.8</ele>
        <time>2020-07-25T09:36:12Z</time>
      </trkpt>
      <trkpt lat="42.9332520" lon="0.3467280">
        <ele>1220.0</ele>
        <time>2020-07-25T09:36:17Z</time>
      </trkpt>
      <trkpt lat="42.9333170" lon="0.3466860">
        <ele>1220.8</ele>
        <time>2020-07-25T09:36:20Z</time>
      </trkpt>
      <trkpt lat="42.9333170" lon="0.3466860">
        <ele>1221.0</ele>
        <time>2020-07-25T09:36:21Z</time>
      </trkpt>
      <trkpt lat="42.9334640" lon="0.3466210">
        <ele>1222.2</ele>
        <time>2020-07-25T09:36:27Z</time>
      </trkpt>
      <trkpt lat="42.9335280" lon="0.3465930">
        <ele>1222.8</ele>
        <time>2020-07-25T09:36:30Z</time>
      </trkpt>
      <trkpt lat="42.9335700" lon="0.3465740">
        <ele>1223.0</ele>
        <time>2020-07-25T09:36:32Z</time>
      </trkpt>
      <trkpt lat="42.9335890" lon="0.3465640">
        <ele>1223.4</ele>
        <time>2020-07-25T09:36:33Z</time>
      </trkpt>
      <trkpt lat="42.9336290" lon="0.3465390">
        <ele>1224.0</ele>
        <time>2020-07-25T09:36:35Z</time>
      </trkpt>
      <trkpt lat="42.9336700" lon="0.3465160">
        <ele>1224.4</ele>
        <time>2020-07-25T09:36:37Z</time>
      </trkpt>
      <trkpt lat="42.9337650" lon="0.3464920">
        <ele>1225.2</ele>
        <time>2020-07-25T09:36:41Z</time>
      </trkpt>
      <trkpt lat="42.9338110" lon="0.3464770">
        <ele>1225.6</ele>
        <time>2020-07-25T09:36:43Z</time>
      </trkpt>
      <trkpt lat="42.9339230" lon="0.3464280">
        <ele>1226.6</ele>
        <time>2020-07-25T09:36:48Z</time>
      </trkpt>
      <trkpt lat="42.9339890" lon="0.3464050">
        <ele>1227.6</ele>
        <time>2020-07-25T09:36:52Z</time>
      </trkpt>
      <trkpt lat="42.9341240" lon="0.3463440">
        <ele>1228.4</ele>
        <time>2020-07-25T09:36:57Z</time>
      </trkpt>
      <trkpt lat="42.9341660" lon="0.3463210">
        <ele>1228.8</ele>
        <time>2020-07-25T09:36:59Z</time>
      </trkpt>
      <trkpt lat="42.9342040" lon="0.3462970">
        <ele>1229.2</ele>
        <time>2020-07-25T09:37:01Z</time>
      </trkpt>
      <trkpt lat="42.9342790" lon="0.3462650">
        <ele>1229.8</ele>
        <time>2020-07-25T09:37:05Z</time>
      </trkpt>
      <trkpt lat="42.9343010" lon="0.3462510">
        <ele>1230.0</ele>
        <time>2020-07-25T09:37:06Z</time>
      </trkpt>
      <trkpt lat="42.9343800" lon="0.3461880">
        <ele>1231.0</ele>
        <time>2020-07-25T09:37:10Z</time>
      </trkpt>
      <trkpt lat="42.9344000" lon="0.3461730">
        <ele>1231.0</ele>
        <time>2020-07-25T09:37:11Z</time>
      </trkpt>
      <trkpt lat="42.9344000" lon="0.3461730">
        <ele>1231.2</ele>
        <time>2020-07-25T09:37:12Z</time>
      </trkpt>
      <trkpt lat="42.9344710" lon="0.3461430">
        <ele>1231.6</ele>
        <time>2020-07-25T09:37:14Z</time>
      </trkpt>
      <trkpt lat="42.9344960" lon="0.3461350">
        <ele>1232.0</ele>
        <time>2020-07-25T09:37:15Z</time>
      </trkpt>
      <trkpt lat="42.9346060" lon="0.3460700">
        <ele>1233.0</ele>
        <time>2020-07-25T09:37:20Z</time>
      </trkpt>
      <trkpt lat="42.9346470" lon="0.3460410">
        <ele>1233.6</ele>
        <time>2020-07-25T09:37:22Z</time>
      </trkpt>
      <trkpt lat="42.9347080" lon="0.3460000">
        <ele>1234.4</ele>
        <time>2020-07-25T09:37:25Z</time>
      </trkpt>
      <trkpt lat="42.9348380" lon="0.3459220">
        <ele>1235.4</ele>
        <time>2020-07-25T09:37:31Z</time>
      </trkpt>
      <trkpt lat="42.9348590" lon="0.3459080">
        <ele>1235.6</ele>
        <time>2020-07-25T09:37:32Z</time>
      </trkpt>
      <trkpt lat="42.9349850" lon="0.3458200">
        <ele>1236.6</ele>
        <time>2020-07-25T09:37:38Z</time>
      </trkpt>
      <trkpt lat="42.9350070" lon="0.3458060">
        <ele>1236.8</ele>
        <time>2020-07-25T09:37:39Z</time>
      </trkpt>
      <trkpt lat="42.9350490" lon="0.3457730">
        <ele>1237.2</ele>
        <time>2020-07-25T09:37:41Z</time>
      </trkpt>
      <trkpt lat="42.9351150" lon="0.3457200">
        <ele>1237.8</ele>
        <time>2020-07-25T09:37:44Z</time>
      </trkpt>
      <trkpt lat="42.9352510" lon="0.3456190">
        <ele>1239.0</ele>
        <time>2020-07-25T09:37:50Z</time>
      </trkpt>
      <trkpt lat="42.9353590" lon="0.3455370">
        <ele>1240.0</ele>
        <time>2020-07-25T09:37:55Z</time>
      </trkpt>
      <trkpt lat="42.9354240" lon="0.3454900">
        <ele>1240.6</ele>
        <time>2020-07-25T09:37:58Z</time>
      </trkpt>
      <trkpt lat="42.9354770" lon="0.3454400">
        <ele>1241.0</ele>
        <time>2020-07-25T09:38:01Z</time>
      </trkpt>
      <trkpt lat="42.9355450" lon="0.3453700">
        <ele>1241.6</ele>
        <time>2020-07-25T09:38:05Z</time>
      </trkpt>
      <trkpt lat="42.9356050" lon="0.3453150">
        <ele>1242.2</ele>
        <time>2020-07-25T09:38:08Z</time>
      </trkpt>
      <trkpt lat="42.9356680" lon="0.3452620">
        <ele>1242.8</ele>
        <time>2020-07-25T09:38:11Z</time>
      </trkpt>
      <trkpt lat="42.9357120" lon="0.3452310">
        <ele>1243.4</ele>
        <time>2020-07-25T09:38:13Z</time>
      </trkpt>
      <trkpt lat="42.9357930" lon="0.3451670">
        <ele>1244.4</ele>
        <time>2020-07-25T09:38:17Z</time>
      </trkpt>
      <trkpt lat="42.9358660" lon="0.3450980">
        <ele>1245.0</ele>
        <time>2020-07-25T09:38:21Z</time>
      </trkpt>
      <trkpt lat="42.9359050" lon="0.3450650">
        <ele>1245.4</ele>
        <time>2020-07-25T09:38:23Z</time>
      </trkpt>
      <trkpt lat="42.9359230" lon="0.3450500">
        <ele>1245.6</ele>
        <time>2020-07-25T09:38:24Z</time>
      </trkpt>
      <trkpt lat="42.9360140" lon="0.3449700">
        <ele>1246.4</ele>
        <time>2020-07-25T09:38:29Z</time>
      </trkpt>
      <trkpt lat="42.9360750" lon="0.3449200">
        <ele>1246.8</ele>
        <time>2020-07-25T09:38:32Z</time>
      </trkpt>
      <trkpt lat="42.9361230" lon="0.3448860">
        <ele>1247.4</ele>
        <time>2020-07-25T09:38:34Z</time>
      </trkpt>
      <trkpt lat="42.9361690" lon="0.3448480">
        <ele>1247.8</ele>
        <time>2020-07-25T09:38:36Z</time>
      </trkpt>
      <trkpt lat="42.9361920" lon="0.3448290">
        <ele>1248.2</ele>
        <time>2020-07-25T09:38:38Z</time>
      </trkpt>
      <trkpt lat="42.9362880" lon="0.3447210">
        <ele>1248.8</ele>
        <time>2020-07-25T09:38:42Z</time>
      </trkpt>
      <trkpt lat="42.9363270" lon="0.3446820">
        <ele>1249.4</ele>
        <time>2020-07-25T09:38:44Z</time>
      </trkpt>
      <trkpt lat="42.9363650" lon="0.3446370">
        <ele>1250.0</ele>
        <time>2020-07-25T09:38:46Z</time>
      </trkpt>
      <trkpt lat="42.9364360" lon="0.3445430">
        <ele>1251.0</ele>
        <time>2020-07-25T09:38:50Z</time>
      </trkpt>
      <trkpt lat="42.9364880" lon="0.3444740">
        <ele>1251.8</ele>
        <time>2020-07-25T09:38:53Z</time>
      </trkpt>
      <trkpt lat="42.9365220" lon="0.3444260">
        <ele>1252.2</ele>
        <time>2020-07-25T09:38:55Z</time>
      </trkpt>
      <trkpt lat="42.9365910" lon="0.3443320">
        <ele>1253.2</ele>
        <time>2020-07-25T09:38:59Z</time>
      </trkpt>
      <trkpt lat="42.9366560" lon="0.3442360">
        <ele>1254.0</ele>
        <time>2020-07-25T09:39:03Z</time>
      </trkpt>
      <trkpt lat="42.9366710" lon="0.3442130">
        <ele>1254.2</ele>
        <time>2020-07-25T09:39:04Z</time>
      </trkpt>
      <trkpt lat="42.9367610" lon="0.3440820">
        <ele>1255.4</ele>
        <time>2020-07-25T09:39:10Z</time>
      </trkpt>
      <trkpt lat="42.9367970" lon="0.3440430">
        <ele>1255.4</ele>
        <time>2020-07-25T09:39:12Z</time>
      </trkpt>
      <trkpt lat="42.9368670" lon="0.3439640">
        <ele>1256.4</ele>
        <time>2020-07-25T09:39:16Z</time>
      </trkpt>
      <trkpt lat="42.9369240" lon="0.3439100">
        <ele>1257.0</ele>
        <time>2020-07-25T09:39:19Z</time>
      </trkpt>
      <trkpt lat="42.9369610" lon="0.3438710">
        <ele>1257.4</ele>
        <time>2020-07-25T09:39:21Z</time>
      </trkpt>
      <trkpt lat="42.9369990" lon="0.3438310">
        <ele>1257.8</ele>
        <time>2020-07-25T09:39:23Z</time>
      </trkpt>
      <trkpt lat="42.9370550" lon="0.3437680">
        <ele>1258.4</ele>
        <time>2020-07-25T09:39:26Z</time>
      </trkpt>
      <trkpt lat="42.9370730" lon="0.3437470">
        <ele>1258.6</ele>
        <time>2020-07-25T09:39:27Z</time>
      </trkpt>
      <trkpt lat="42.9371470" lon="0.3436620">
        <ele>1259.8</ele>
        <time>2020-07-25T09:39:31Z</time>
      </trkpt>
      <trkpt lat="42.9371660" lon="0.3436420">
        <ele>1260.0</ele>
        <time>2020-07-25T09:39:32Z</time>
      </trkpt>
      <trkpt lat="42.9372200" lon="0.3435850">
        <ele>1260.8</ele>
        <time>2020-07-25T09:39:35Z</time>
      </trkpt>
      <trkpt lat="42.9373360" lon="0.3434680">
        <ele>1262.0</ele>
        <time>2020-07-25T09:39:41Z</time>
      </trkpt>
      <trkpt lat="42.9374180" lon="0.3433840">
        <ele>1263.0</ele>
        <time>2020-07-25T09:39:46Z</time>
      </trkpt>
      <trkpt lat="42.9375140" lon="0.3433250">
        <ele>1263.6</ele>
        <time>2020-07-25T09:39:49Z</time>
      </trkpt>
      <trkpt lat="42.9375620" lon="0.3432900">
        <ele>1264.2</ele>
        <time>2020-07-25T09:39:51Z</time>
      </trkpt>
      <trkpt lat="42.9376440" lon="0.3432020">
        <ele>1265.4</ele>
        <time>2020-07-25T09:39:56Z</time>
      </trkpt>
      <trkpt lat="42.9377120" lon="0.3431510">
        <ele>1265.6</ele>
        <time>2020-07-25T09:39:58Z</time>
      </trkpt>
      <trkpt lat="42.9377740" lon="0.3430990">
        <ele>1266.4</ele>
        <time>2020-07-25T09:40:01Z</time>
      </trkpt>
      <trkpt lat="42.9379040" lon="0.3430110">
        <ele>1267.4</ele>
        <time>2020-07-25T09:40:07Z</time>
      </trkpt>
      <trkpt lat="42.9379040" lon="0.3430110">
        <ele>1267.6</ele>
        <time>2020-07-25T09:40:08Z</time>
      </trkpt>
      <trkpt lat="42.9380090" lon="0.3429180">
        <ele>1268.0</ele>
        <time>2020-07-25T09:40:12Z</time>
      </trkpt>
      <trkpt lat="42.9380280" lon="0.3429020">
        <ele>1268.2</ele>
        <time>2020-07-25T09:40:13Z</time>
      </trkpt>
      <trkpt lat="42.9380280" lon="0.3429020">
        <ele>1268.4</ele>
        <time>2020-07-25T09:40:14Z</time>
      </trkpt>
      <trkpt lat="42.9380470" lon="0.3428840">
        <ele>1268.6</ele>
        <time>2020-07-25T09:40:15Z</time>
      </trkpt>
      <trkpt lat="42.9381570" lon="0.3427590">
        <ele>1269.8</ele>
        <time>2020-07-25T09:40:20Z</time>
      </trkpt>
      <trkpt lat="42.9381980" lon="0.3427240">
        <ele>1270.2</ele>
        <time>2020-07-25T09:40:22Z</time>
      </trkpt>
      <trkpt lat="42.9382320" lon="0.3426730">
        <ele>1270.8</ele>
        <time>2020-07-25T09:40:24Z</time>
      </trkpt>
      <trkpt lat="42.9382810" lon="0.3425910">
        <ele>1271.8</ele>
        <time>2020-07-25T09:40:28Z</time>
      </trkpt>
      <trkpt lat="42.9383300" lon="0.3425060">
        <ele>1272.0</ele>
        <time>2020-07-25T09:40:30Z</time>
      </trkpt>
      <trkpt lat="42.9383440" lon="0.3424760">
        <ele>1272.2</ele>
        <time>2020-07-25T09:40:31Z</time>
      </trkpt>
      <trkpt lat="42.9383600" lon="0.3424460">
        <ele>1272.4</ele>
        <time>2020-07-25T09:40:33Z</time>
      </trkpt>
      <trkpt lat="42.9384370" lon="0.3423320">
        <ele>1272.8</ele>
        <time>2020-07-25T09:40:36Z</time>
      </trkpt>
      <trkpt lat="42.9384750" lon="0.3422670">
        <ele>1273.2</ele>
        <time>2020-07-25T09:40:38Z</time>
      </trkpt>
      <trkpt lat="42.9385580" lon="0.3421210">
        <ele>1273.8</ele>
        <time>2020-07-25T09:40:44Z</time>
      </trkpt>
      <trkpt lat="42.9385790" lon="0.3420760">
        <ele>1274.2</ele>
        <time>2020-07-25T09:40:46Z</time>
      </trkpt>
      <trkpt lat="42.9386110" lon="0.3418670">
        <ele>1274.4</ele>
        <time>2020-07-25T09:40:51Z</time>
      </trkpt>
      <trkpt lat="42.9385950" lon="0.3417420">
        <ele>1275.0</ele>
        <time>2020-07-25T09:40:54Z</time>
      </trkpt>
      <trkpt lat="42.9385580" lon="0.3416620">
        <ele>1275.4</ele>
        <time>2020-07-25T09:40:56Z</time>
      </trkpt>
      <trkpt lat="42.9385020" lon="0.3415530">
        <ele>1276.2</ele>
        <time>2020-07-25T09:40:59Z</time>
      </trkpt>
      <trkpt lat="42.9384370" lon="0.3413630">
        <ele>1276.8</ele>
        <time>2020-07-25T09:41:04Z</time>
      </trkpt>
      <trkpt lat="42.9384250" lon="0.3412920">
        <ele>1277.2</ele>
        <time>2020-07-25T09:41:06Z</time>
      </trkpt>
      <trkpt lat="42.9383760" lon="0.3411620">
        <ele>1278.2</ele>
        <time>2020-07-25T09:41:10Z</time>
      </trkpt>
      <trkpt lat="42.9383580" lon="0.3411340">
        <ele>1278.6</ele>
        <time>2020-07-25T09:41:11Z</time>
      </trkpt>
      <trkpt lat="42.9382520" lon="0.3410510">
        <ele>1279.4</ele>
        <time>2020-07-25T09:41:16Z</time>
      </trkpt>
      <trkpt lat="42.9382260" lon="0.3410430">
        <ele>1279.6</ele>
        <time>2020-07-25T09:41:17Z</time>
      </trkpt>
      <trkpt lat="42.9380790" lon="0.3409650">
        <ele>1280.8</ele>
        <time>2020-07-25T09:41:23Z</time>
      </trkpt>
      <trkpt lat="42.9380600" lon="0.3409440">
        <ele>1281.0</ele>
        <time>2020-07-25T09:41:24Z</time>
      </trkpt>
      <trkpt lat="42.9380010" lon="0.3408610">
        <ele>1281.8</ele>
        <time>2020-07-25T09:41:28Z</time>
      </trkpt>
      <trkpt lat="42.9379570" lon="0.3407420">
        <ele>1282.8</ele>
        <time>2020-07-25T09:41:33Z</time>
      </trkpt>
      <trkpt lat="42.9379510" lon="0.3407170">
        <ele>1283.0</ele>
        <time>2020-07-25T09:41:34Z</time>
      </trkpt>
      <trkpt lat="42.9379550" lon="0.3405590">
        <ele>1284.0</ele>
        <time>2020-07-25T09:41:39Z</time>
      </trkpt>
      <trkpt lat="42.9379550" lon="0.3405590">
        <ele>1284.2</ele>
        <time>2020-07-25T09:41:40Z</time>
      </trkpt>
      <trkpt lat="42.9379810" lon="0.3403580">
        <ele>1285.4</ele>
        <time>2020-07-25T09:41:45Z</time>
      </trkpt>
      <trkpt lat="42.9380150" lon="0.3402360">
        <ele>1286.2</ele>
        <time>2020-07-25T09:41:49Z</time>
      </trkpt>
      <trkpt lat="42.9380250" lon="0.3402070">
        <ele>1286.4</ele>
        <time>2020-07-25T09:41:50Z</time>
      </trkpt>
      <trkpt lat="42.9380890" lon="0.3400770">
        <ele>1287.4</ele>
        <time>2020-07-25T09:41:55Z</time>
      </trkpt>
      <trkpt lat="42.9381170" lon="0.3400270">
        <ele>1288.4</ele>
        <time>2020-07-25T09:41:58Z</time>
      </trkpt>
      <trkpt lat="42.9381490" lon="0.3399810">
        <ele>1288.6</ele>
        <time>2020-07-25T09:41:59Z</time>
      </trkpt>
      <trkpt lat="42.9382400" lon="0.3398340">
        <ele>1289.6</ele>
        <time>2020-07-25T09:42:05Z</time>
      </trkpt>
      <trkpt lat="42.9382560" lon="0.3398090">
        <ele>1289.8</ele>
        <time>2020-07-25T09:42:06Z</time>
      </trkpt>
      <trkpt lat="42.9382730" lon="0.3397850">
        <ele>1289.8</ele>
        <time>2020-07-25T09:42:07Z</time>
      </trkpt>
      <trkpt lat="42.9382870" lon="0.3397580">
        <ele>1290.0</ele>
        <time>2020-07-25T09:42:08Z</time>
      </trkpt>
      <trkpt lat="42.9383500" lon="0.3396590">
        <ele>1290.8</ele>
        <time>2020-07-25T09:42:12Z</time>
      </trkpt>
      <trkpt lat="42.9384480" lon="0.3395160">
        <ele>1291.8</ele>
        <time>2020-07-25T09:42:18Z</time>
      </trkpt>
      <trkpt lat="42.9384650" lon="0.3394940">
        <ele>1292.0</ele>
        <time>2020-07-25T09:42:19Z</time>
      </trkpt>
      <trkpt lat="42.9385420" lon="0.3394080">
        <ele>1293.0</ele>
        <time>2020-07-25T09:42:24Z</time>
      </trkpt>
      <trkpt lat="42.9385800" lon="0.3393570">
        <ele>1293.4</ele>
        <time>2020-07-25T09:42:27Z</time>
      </trkpt>
      <trkpt lat="42.9386240" lon="0.3393060">
        <ele>1294.2</ele>
        <time>2020-07-25T09:42:30Z</time>
      </trkpt>
      <trkpt lat="42.9386820" lon="0.3392430">
        <ele>1294.8</ele>
        <time>2020-07-25T09:42:34Z</time>
      </trkpt>
      <trkpt lat="42.9386940" lon="0.3392220">
        <ele>1295.0</ele>
        <time>2020-07-25T09:42:35Z</time>
      </trkpt>
      <trkpt lat="42.9387230" lon="0.3391860">
        <ele>1295.2</ele>
        <time>2020-07-25T09:42:37Z</time>
      </trkpt>
      <trkpt lat="42.9387810" lon="0.3390920">
        <ele>1296.0</ele>
        <time>2020-07-25T09:42:42Z</time>
      </trkpt>
      <trkpt lat="42.9388080" lon="0.3390410">
        <ele>1296.4</ele>
        <time>2020-07-25T09:42:44Z</time>
      </trkpt>
      <trkpt lat="42.9388670" lon="0.3389530">
        <ele>1297.4</ele>
        <time>2020-07-25T09:42:48Z</time>
      </trkpt>
      <trkpt lat="42.9388800" lon="0.3389310">
        <ele>1297.6</ele>
        <time>2020-07-25T09:42:49Z</time>
      </trkpt>
      <trkpt lat="42.9389210" lon="0.3388730">
        <ele>1298.0</ele>
        <time>2020-07-25T09:42:52Z</time>
      </trkpt>
      <trkpt lat="42.9389600" lon="0.3388120">
        <ele>1298.6</ele>
        <time>2020-07-25T09:42:55Z</time>
      </trkpt>
      <trkpt lat="42.9389860" lon="0.3387670">
        <ele>1299.0</ele>
        <time>2020-07-25T09:42:57Z</time>
      </trkpt>
      <trkpt lat="42.9389980" lon="0.3387420">
        <ele>1299.2</ele>
        <time>2020-07-25T09:42:58Z</time>
      </trkpt>
      <trkpt lat="42.9390100" lon="0.3387170">
        <ele>1299.4</ele>
        <time>2020-07-25T09:42:59Z</time>
      </trkpt>
      <trkpt lat="42.9390240" lon="0.3386950">
        <ele>1299.6</ele>
        <time>2020-07-25T09:43:00Z</time>
      </trkpt>
      <trkpt lat="42.9390380" lon="0.3386720">
        <ele>1299.8</ele>
        <time>2020-07-25T09:43:01Z</time>
      </trkpt>
      <trkpt lat="42.9390990" lon="0.3385530">
        <ele>1300.6</ele>
        <time>2020-07-25T09:43:06Z</time>
      </trkpt>
      <trkpt lat="42.9391120" lon="0.3385300">
        <ele>1300.8</ele>
        <time>2020-07-25T09:43:07Z</time>
      </trkpt>
      <trkpt lat="42.9391320" lon="0.3384870">
        <ele>1301.2</ele>
        <time>2020-07-25T09:43:09Z</time>
      </trkpt>
      <trkpt lat="42.9391720" lon="0.3384210">
        <ele>1301.4</ele>
        <time>2020-07-25T09:43:12Z</time>
      </trkpt>
      <trkpt lat="42.9392360" lon="0.3383180">
        <ele>1302.0</ele>
        <time>2020-07-25T09:43:16Z</time>
      </trkpt>
      <trkpt lat="42.9392650" lon="0.3382660">
        <ele>1302.6</ele>
        <time>2020-07-25T09:43:18Z</time>
      </trkpt>
      <trkpt lat="42.9393090" lon="0.3381870">
        <ele>1303.2</ele>
        <time>2020-07-25T09:43:21Z</time>
      </trkpt>
      <trkpt lat="42.9393680" lon="0.3380920">
        <ele>1303.8</ele>
        <time>2020-07-25T09:43:25Z</time>
      </trkpt>
      <trkpt lat="42.9393830" lon="0.3380630">
        <ele>1303.8</ele>
        <time>2020-07-25T09:43:26Z</time>
      </trkpt>
      <trkpt lat="42.9393960" lon="0.3380340">
        <ele>1304.0</ele>
        <time>2020-07-25T09:43:27Z</time>
      </trkpt>
      <trkpt lat="42.9394080" lon="0.3380040">
        <ele>1304.2</ele>
        <time>2020-07-25T09:43:28Z</time>
      </trkpt>
      <trkpt lat="42.9394530" lon="0.3378820">
        <ele>1305.2</ele>
        <time>2020-07-25T09:43:32Z</time>
      </trkpt>
      <trkpt lat="42.9394920" lon="0.3377910">
        <ele>1305.8</ele>
        <time>2020-07-25T09:43:35Z</time>
      </trkpt>
      <trkpt lat="42.9395140" lon="0.3377340">
        <ele>1306.2</ele>
        <time>2020-07-25T09:43:37Z</time>
      </trkpt>
      <trkpt lat="42.9395230" lon="0.3377030">
        <ele>1306.4</ele>
        <time>2020-07-25T09:43:38Z</time>
      </trkpt>
      <trkpt lat="42.9395320" lon="0.3376730">
        <ele>1306.4</ele>
        <time>2020-07-25T09:43:39Z</time>
      </trkpt>
      <trkpt lat="42.9395720" lon="0.3375570">
        <ele>1307.4</ele>
        <time>2020-07-25T09:43:43Z</time>
      </trkpt>
      <trkpt lat="42.9396320" lon="0.3374100">
        <ele>1308.4</ele>
        <time>2020-07-25T09:43:48Z</time>
      </trkpt>
      <trkpt lat="42.9396450" lon="0.3373820">
        <ele>1308.6</ele>
        <time>2020-07-25T09:43:49Z</time>
      </trkpt>
      <trkpt lat="42.9396930" lon="0.3373170">
        <ele>1309.2</ele>
        <time>2020-07-25T09:43:52Z</time>
      </trkpt>
      <trkpt lat="42.9397120" lon="0.3372960">
        <ele>1309.4</ele>
        <time>2020-07-25T09:43:53Z</time>
      </trkpt>
      <trkpt lat="42.9397550" lon="0.3372560">
        <ele>1309.6</ele>
        <time>2020-07-25T09:43:55Z</time>
      </trkpt>
      <trkpt lat="42.9398410" lon="0.3371900">
        <ele>1311.0</ele>
        <time>2020-07-25T09:43:59Z</time>
      </trkpt>
      <trkpt lat="42.9398630" lon="0.3371790">
        <ele>1311.2</ele>
        <time>2020-07-25T09:44:00Z</time>
      </trkpt>
      <trkpt lat="42.9399100" lon="0.3371590">
        <ele>1311.8</ele>
        <time>2020-07-25T09:44:02Z</time>
      </trkpt>
      <trkpt lat="42.9399380" lon="0.3371500">
        <ele>1312.2</ele>
        <time>2020-07-25T09:44:03Z</time>
      </trkpt>
      <trkpt lat="42.9400440" lon="0.3371120">
        <ele>1313.2</ele>
        <time>2020-07-25T09:44:07Z</time>
      </trkpt>
      <trkpt lat="42.9401290" lon="0.3370900">
        <ele>1313.8</ele>
        <time>2020-07-25T09:44:10Z</time>
      </trkpt>
      <trkpt lat="42.9402270" lon="0.3370330">
        <ele>1314.4</ele>
        <time>2020-07-25T09:44:14Z</time>
      </trkpt>
      <trkpt lat="42.9403210" lon="0.3369680">
        <ele>1315.2</ele>
        <time>2020-07-25T09:44:18Z</time>
      </trkpt>
      <trkpt lat="42.9403630" lon="0.3369290">
        <ele>1315.6</ele>
        <time>2020-07-25T09:44:20Z</time>
      </trkpt>
      <trkpt lat="42.9404440" lon="0.3368470">
        <ele>1316.4</ele>
        <time>2020-07-25T09:44:24Z</time>
      </trkpt>
      <trkpt lat="42.9404640" lon="0.3368320">
        <ele>1316.6</ele>
        <time>2020-07-25T09:44:25Z</time>
      </trkpt>
      <trkpt lat="42.9405920" lon="0.3367440">
        <ele>1317.8</ele>
        <time>2020-07-25T09:44:31Z</time>
      </trkpt>
      <trkpt lat="42.9407490" lon="0.3366700">
        <ele>1319.0</ele>
        <time>2020-07-25T09:44:37Z</time>
      </trkpt>
      <trkpt lat="42.9407940" lon="0.3366390">
        <ele>1319.4</ele>
        <time>2020-07-25T09:44:39Z</time>
      </trkpt>
      <trkpt lat="42.9408590" lon="0.3365460">
        <ele>1320.0</ele>
        <time>2020-07-25T09:44:43Z</time>
      </trkpt>
      <trkpt lat="42.9409260" lon="0.3364500">
        <ele>1321.0</ele>
        <time>2020-07-25T09:44:47Z</time>
      </trkpt>
      <trkpt lat="42.9409430" lon="0.3364250">
        <ele>1321.2</ele>
        <time>2020-07-25T09:44:48Z</time>
      </trkpt>
      <trkpt lat="42.9409900" lon="0.3362530">
        <ele>1322.2</ele>
        <time>2020-07-25T09:44:53Z</time>
      </trkpt>
      <trkpt lat="42.9410140" lon="0.3361430">
        <ele>1323.0</ele>
        <time>2020-07-25T09:44:56Z</time>
      </trkpt>
      <trkpt lat="42.9410360" lon="0.3360850">
        <ele>1323.4</ele>
        <time>2020-07-25T09:44:58Z</time>
      </trkpt>
      <trkpt lat="42.9410660" lon="0.3358880">
        <ele>1324.0</ele>
        <time>2020-07-25T09:45:03Z</time>
      </trkpt>
      <trkpt lat="42.9410830" lon="0.3358110">
        <ele>1324.4</ele>
        <time>2020-07-25T09:45:05Z</time>
      </trkpt>
      <trkpt lat="42.9411160" lon="0.3356370">
        <ele>1325.6</ele>
        <time>2020-07-25T09:45:10Z</time>
      </trkpt>
      <trkpt lat="42.9411320" lon="0.3355740">
        <ele>1325.8</ele>
        <time>2020-07-25T09:45:12Z</time>
      </trkpt>
      <trkpt lat="42.9412440" lon="0.3354420">
        <ele>1326.6</ele>
        <time>2020-07-25T09:45:18Z</time>
      </trkpt>
      <trkpt lat="42.9412670" lon="0.3354360">
        <ele>1326.8</ele>
        <time>2020-07-25T09:45:19Z</time>
      </trkpt>
      <trkpt lat="42.9413750" lon="0.3354760">
        <ele>1327.8</ele>
        <time>2020-07-25T09:45:24Z</time>
      </trkpt>
      <trkpt lat="42.9414360" lon="0.3356190">
        <ele>1328.8</ele>
        <time>2020-07-25T09:45:29Z</time>
      </trkpt>
      <trkpt lat="42.9414370" lon="0.3356520">
        <ele>1328.8</ele>
        <time>2020-07-25T09:45:30Z</time>
      </trkpt>
      <trkpt lat="42.9414090" lon="0.3358020">
        <ele>1329.6</ele>
        <time>2020-07-25T09:45:35Z</time>
      </trkpt>
      <trkpt lat="42.9413790" lon="0.3358790">
        <ele>1330.0</ele>
        <time>2020-07-25T09:45:38Z</time>
      </trkpt>
      <trkpt lat="42.9413290" lon="0.3359590">
        <ele>1330.2</ele>
        <time>2020-07-25T09:45:41Z</time>
      </trkpt>
      <trkpt lat="42.9412510" lon="0.3360570">
        <ele>1331.2</ele>
        <time>2020-07-25T09:45:45Z</time>
      </trkpt>
      <trkpt lat="42.9411610" lon="0.3361280">
        <ele>1332.2</ele>
        <time>2020-07-25T09:45:49Z</time>
      </trkpt>
      <trkpt lat="42.9410490" lon="0.3362140">
        <ele>1333.4</ele>
        <time>2020-07-25T09:45:54Z</time>
      </trkpt>
      <trkpt lat="42.9410040" lon="0.3362850">
        <ele>1334.0</ele>
        <time>2020-07-25T09:45:57Z</time>
      </trkpt>
      <trkpt lat="42.9409550" lon="0.3363890">
        <ele>1334.4</ele>
        <time>2020-07-25T09:46:01Z</time>
      </trkpt>
      <trkpt lat="42.9409350" lon="0.3364350">
        <ele>1334.8</ele>
        <time>2020-07-25T09:46:04Z</time>
      </trkpt>
      <trkpt lat="42.9408800" lon="0.3366060">
        <ele>1335.4</ele>
        <time>2020-07-25T09:46:10Z</time>
      </trkpt>
      <trkpt lat="42.9408690" lon="0.3366410">
        <ele>1335.6</ele>
        <time>2020-07-25T09:46:11Z</time>
      </trkpt>
      <trkpt lat="42.9407980" lon="0.3367770">
        <ele>1336.6</ele>
        <time>2020-07-25T09:46:16Z</time>
      </trkpt>
      <trkpt lat="42.9407820" lon="0.3368000">
        <ele>1336.8</ele>
        <time>2020-07-25T09:46:17Z</time>
      </trkpt>
      <trkpt lat="42.9407200" lon="0.3368820">
        <ele>1337.8</ele>
        <time>2020-07-25T09:46:21Z</time>
      </trkpt>
      <trkpt lat="42.9406850" lon="0.3369760">
        <ele>1338.4</ele>
        <time>2020-07-25T09:46:25Z</time>
      </trkpt>
      <trkpt lat="42.9406370" lon="0.3370470">
        <ele>1338.8</ele>
        <time>2020-07-25T09:46:28Z</time>
      </trkpt>
      <trkpt lat="42.9406140" lon="0.3370960">
        <ele>1339.6</ele>
        <time>2020-07-25T09:46:30Z</time>
      </trkpt>
      <trkpt lat="42.9406040" lon="0.3371200">
        <ele>1340.0</ele>
        <time>2020-07-25T09:46:31Z</time>
      </trkpt>
      <trkpt lat="42.9405220" lon="0.3372180">
        <ele>1341.2</ele>
        <time>2020-07-25T09:46:36Z</time>
      </trkpt>
      <trkpt lat="42.9404950" lon="0.3372480">
        <ele>1341.4</ele>
        <time>2020-07-25T09:46:38Z</time>
      </trkpt>
      <trkpt lat="42.9404350" lon="0.3373370">
        <ele>1342.2</ele>
        <time>2020-07-25T09:46:43Z</time>
      </trkpt>
      <trkpt lat="42.9404230" lon="0.3373640">
        <ele>1342.6</ele>
        <time>2020-07-25T09:46:44Z</time>
      </trkpt>
      <trkpt lat="42.9403800" lon="0.3374450">
        <ele>1343.2</ele>
        <time>2020-07-25T09:46:47Z</time>
      </trkpt>
      <trkpt lat="42.9403260" lon="0.3375860">
        <ele>1344.2</ele>
        <time>2020-07-25T09:46:52Z</time>
      </trkpt>
      <trkpt lat="42.9402660" lon="0.3377630">
        <ele>1344.6</ele>
        <time>2020-07-25T09:46:58Z</time>
      </trkpt>
      <trkpt lat="42.9402530" lon="0.3378120">
        <ele>1345.2</ele>
        <time>2020-07-25T09:47:00Z</time>
      </trkpt>
      <trkpt lat="42.9402490" lon="0.3378310">
        <ele>1345.4</ele>
        <time>2020-07-25T09:47:01Z</time>
      </trkpt>
      <trkpt lat="42.9402460" lon="0.3378430">
        <ele>1345.6</ele>
        <time>2020-07-25T09:47:02Z</time>
      </trkpt>
      <trkpt lat="42.9402440" lon="0.3379150">
        <ele>1344.6</ele>
        <time>2020-07-25T09:48:31Z</time>
      </trkpt>
      <trkpt lat="42.9402410" lon="0.3379400">
        <ele>1344.8</ele>
        <time>2020-07-25T09:48:32Z</time>
      </trkpt>
      <trkpt lat="42.9402350" lon="0.3379680">
        <ele>1345.2</ele>
        <time>2020-07-25T09:48:33Z</time>
      </trkpt>
      <trkpt lat="42.9402270" lon="0.3380250">
        <ele>1345.6</ele>
        <time>2020-07-25T09:48:35Z</time>
      </trkpt>
      <trkpt lat="42.9402190" lon="0.3380800">
        <ele>1345.8</ele>
        <time>2020-07-25T09:48:37Z</time>
      </trkpt>
      <trkpt lat="42.9402100" lon="0.3381580">
        <ele>1346.4</ele>
        <time>2020-07-25T09:48:40Z</time>
      </trkpt>
      <trkpt lat="42.9402080" lon="0.3381830">
        <ele>1346.8</ele>
        <time>2020-07-25T09:48:41Z</time>
      </trkpt>
      <trkpt lat="42.9402000" lon="0.3382520">
        <ele>1347.6</ele>
        <time>2020-07-25T09:48:44Z</time>
      </trkpt>
      <trkpt lat="42.9401980" lon="0.3382750">
        <ele>1347.6</ele>
        <time>2020-07-25T09:48:45Z</time>
      </trkpt>
      <trkpt lat="42.9401790" lon="0.3383990">
        <ele>1348.4</ele>
        <time>2020-07-25T09:48:50Z</time>
      </trkpt>
      <trkpt lat="42.9401690" lon="0.3384500">
        <ele>1348.6</ele>
        <time>2020-07-25T09:48:52Z</time>
      </trkpt>
      <trkpt lat="42.9401450" lon="0.3386090">
        <ele>1349.6</ele>
        <time>2020-07-25T09:48:58Z</time>
      </trkpt>
      <trkpt lat="42.9401420" lon="0.3386360">
        <ele>1349.8</ele>
        <time>2020-07-25T09:48:59Z</time>
      </trkpt>
      <trkpt lat="42.9401230" lon="0.3387830">
        <ele>1350.6</ele>
        <time>2020-07-25T09:49:04Z</time>
      </trkpt>
      <trkpt lat="42.9401190" lon="0.3388150">
        <ele>1350.8</ele>
        <time>2020-07-25T09:49:05Z</time>
      </trkpt>
      <trkpt lat="42.9401070" lon="0.3389200">
        <ele>1351.6</ele>
        <time>2020-07-25T09:49:08Z</time>
      </trkpt>
      <trkpt lat="42.9401030" lon="0.3389880">
        <ele>1352.0</ele>
        <time>2020-07-25T09:49:10Z</time>
      </trkpt>
      <trkpt lat="42.9400980" lon="0.3391530">
        <ele>1353.2</ele>
        <time>2020-07-25T09:49:15Z</time>
      </trkpt>
      <trkpt lat="42.9400950" lon="0.3392130">
        <ele>1353.4</ele>
        <time>2020-07-25T09:49:17Z</time>
      </trkpt>
      <trkpt lat="42.9400830" lon="0.3393580">
        <ele>1354.2</ele>
        <time>2020-07-25T09:49:22Z</time>
      </trkpt>
      <trkpt lat="42.9400800" lon="0.3394090">
        <ele>1355.0</ele>
        <time>2020-07-25T09:49:24Z</time>
      </trkpt>
      <trkpt lat="42.9400800" lon="0.3394650">
        <ele>1355.4</ele>
        <time>2020-07-25T09:49:26Z</time>
      </trkpt>
      <trkpt lat="42.9400710" lon="0.3396250">
        <ele>1356.4</ele>
        <time>2020-07-25T09:49:31Z</time>
      </trkpt>
      <trkpt lat="42.9400700" lon="0.3396560">
        <ele>1356.6</ele>
        <time>2020-07-25T09:49:32Z</time>
      </trkpt>
      <trkpt lat="42.9400720" lon="0.3398230">
        <ele>1357.4</ele>
        <time>2020-07-25T09:49:37Z</time>
      </trkpt>
      <trkpt lat="42.9400720" lon="0.3398560">
        <ele>1357.6</ele>
        <time>2020-07-25T09:49:38Z</time>
      </trkpt>
      <trkpt lat="42.9400750" lon="0.3399550">
        <ele>1358.4</ele>
        <time>2020-07-25T09:49:41Z</time>
      </trkpt>
      <trkpt lat="42.9400750" lon="0.3399860">
        <ele>1358.6</ele>
        <time>2020-07-25T09:49:42Z</time>
      </trkpt>
      <trkpt lat="42.9400870" lon="0.3401140">
        <ele>1359.6</ele>
        <time>2020-07-25T09:49:46Z</time>
      </trkpt>
      <trkpt lat="42.9400910" lon="0.3401470">
        <ele>1359.8</ele>
        <time>2020-07-25T09:49:47Z</time>
      </trkpt>
      <trkpt lat="42.9400960" lon="0.3402140">
        <ele>1360.0</ele>
        <time>2020-07-25T09:49:49Z</time>
      </trkpt>
      <trkpt lat="42.9401070" lon="0.3403460">
        <ele>1360.6</ele>
        <time>2020-07-25T09:49:53Z</time>
      </trkpt>
      <trkpt lat="42.9401140" lon="0.3404090">
        <ele>1360.8</ele>
        <time>2020-07-25T09:49:55Z</time>
      </trkpt>
      <trkpt lat="42.9401280" lon="0.3405300">
        <ele>1361.4</ele>
        <time>2020-07-25T09:49:59Z</time>
      </trkpt>
      <trkpt lat="42.9401420" lon="0.3406200">
        <ele>1362.2</ele>
        <time>2020-07-25T09:50:02Z</time>
      </trkpt>
      <trkpt lat="42.9401470" lon="0.3406770">
        <ele>1363.0</ele>
        <time>2020-07-25T09:50:04Z</time>
      </trkpt>
      <trkpt lat="42.9401490" lon="0.3407040">
        <ele>1363.2</ele>
        <time>2020-07-25T09:50:05Z</time>
      </trkpt>
      <trkpt lat="42.9401510" lon="0.3407310">
        <ele>1363.4</ele>
        <time>2020-07-25T09:50:06Z</time>
      </trkpt>
      <trkpt lat="42.9401660" lon="0.3408100">
        <ele>1363.6</ele>
        <time>2020-07-25T09:50:09Z</time>
      </trkpt>
      <trkpt lat="42.9402130" lon="0.3409670">
        <ele>1364.8</ele>
        <time>2020-07-25T09:50:14Z</time>
      </trkpt>
      <trkpt lat="42.9402460" lon="0.3410210">
        <ele>1365.2</ele>
        <time>2020-07-25T09:50:16Z</time>
      </trkpt>
      <trkpt lat="42.9402800" lon="0.3410680">
        <ele>1365.8</ele>
        <time>2020-07-25T09:50:18Z</time>
      </trkpt>
      <trkpt lat="42.9403880" lon="0.3411610">
        <ele>1366.2</ele>
        <time>2020-07-25T09:50:23Z</time>
      </trkpt>
      <trkpt lat="42.9405080" lon="0.3412710">
        <ele>1366.8</ele>
        <time>2020-07-25T09:50:28Z</time>
      </trkpt>
      <trkpt lat="42.9405440" lon="0.3413320">
        <ele>1367.2</ele>
        <time>2020-07-25T09:50:30Z</time>
      </trkpt>
      <trkpt lat="42.9405720" lon="0.3413940">
        <ele>1367.6</ele>
        <time>2020-07-25T09:50:32Z</time>
      </trkpt>
      <trkpt lat="42.9405850" lon="0.3414240">
        <ele>1368.0</ele>
        <time>2020-07-25T09:50:33Z</time>
      </trkpt>
      <trkpt lat="42.9405970" lon="0.3415170">
        <ele>1368.8</ele>
        <time>2020-07-25T09:50:36Z</time>
      </trkpt>
      <trkpt lat="42.9405960" lon="0.3415500">
        <ele>1369.0</ele>
        <time>2020-07-25T09:50:37Z</time>
      </trkpt>
      <trkpt lat="42.9405940" lon="0.3415820">
        <ele>1369.2</ele>
        <time>2020-07-25T09:50:38Z</time>
      </trkpt>
      <trkpt lat="42.9405830" lon="0.3417100">
        <ele>1370.0</ele>
        <time>2020-07-25T09:50:42Z</time>
      </trkpt>
      <trkpt lat="42.9405810" lon="0.3417430">
        <ele>1370.4</ele>
        <time>2020-07-25T09:50:43Z</time>
      </trkpt>
      <trkpt lat="42.9405760" lon="0.3418090">
        <ele>1370.8</ele>
        <time>2020-07-25T09:50:45Z</time>
      </trkpt>
      <trkpt lat="42.9405690" lon="0.3418750">
        <ele>1371.4</ele>
        <time>2020-07-25T09:50:47Z</time>
      </trkpt>
      <trkpt lat="42.9405440" lon="0.3420700">
        <ele>1372.6</ele>
        <time>2020-07-25T09:50:53Z</time>
      </trkpt>
      <trkpt lat="42.9405170" lon="0.3422460">
        <ele>1373.8</ele>
        <time>2020-07-25T09:50:59Z</time>
      </trkpt>
      <trkpt lat="42.9405050" lon="0.3423340">
        <ele>1374.4</ele>
        <time>2020-07-25T09:51:02Z</time>
      </trkpt>
      <trkpt lat="42.9404920" lon="0.3424250">
        <ele>1375.0</ele>
        <time>2020-07-25T09:51:05Z</time>
      </trkpt>
      <trkpt lat="42.9404750" lon="0.3425480">
        <ele>1375.4</ele>
        <time>2020-07-25T09:51:09Z</time>
      </trkpt>
      <trkpt lat="42.9404690" lon="0.3426120">
        <ele>1375.8</ele>
        <time>2020-07-25T09:51:11Z</time>
      </trkpt>
      <trkpt lat="42.9404670" lon="0.3426430">
        <ele>1376.0</ele>
        <time>2020-07-25T09:51:12Z</time>
      </trkpt>
      <trkpt lat="42.9404480" lon="0.3427630">
        <ele>1377.0</ele>
        <time>2020-07-25T09:51:16Z</time>
      </trkpt>
      <trkpt lat="42.9404460" lon="0.3427940">
        <ele>1377.4</ele>
        <time>2020-07-25T09:51:17Z</time>
      </trkpt>
      <trkpt lat="42.9404390" lon="0.3429370">
        <ele>1378.2</ele>
        <time>2020-07-25T09:51:22Z</time>
      </trkpt>
      <trkpt lat="42.9404340" lon="0.3430200">
        <ele>1378.8</ele>
        <time>2020-07-25T09:51:25Z</time>
      </trkpt>
      <trkpt lat="42.9404310" lon="0.3431290">
        <ele>1379.4</ele>
        <time>2020-07-25T09:51:29Z</time>
      </trkpt>
      <trkpt lat="42.9404140" lon="0.3432450">
        <ele>1380.0</ele>
        <time>2020-07-25T09:51:33Z</time>
      </trkpt>
      <trkpt lat="42.9404070" lon="0.3433040">
        <ele>1380.6</ele>
        <time>2020-07-25T09:51:35Z</time>
      </trkpt>
      <trkpt lat="42.9403880" lon="0.3434850">
        <ele>1381.6</ele>
        <time>2020-07-25T09:51:41Z</time>
      </trkpt>
      <trkpt lat="42.9403830" lon="0.3435460">
        <ele>1381.8</ele>
        <time>2020-07-25T09:51:43Z</time>
      </trkpt>
      <trkpt lat="42.9403840" lon="0.3437520">
        <ele>1382.8</ele>
        <time>2020-07-25T09:51:49Z</time>
      </trkpt>
      <trkpt lat="42.9403850" lon="0.3437900">
        <ele>1383.2</ele>
        <time>2020-07-25T09:51:50Z</time>
      </trkpt>
      <trkpt lat="42.9403940" lon="0.3439080">
        <ele>1384.2</ele>
        <time>2020-07-25T09:51:53Z</time>
      </trkpt>
      <trkpt lat="42.9404230" lon="0.3440850">
        <ele>1385.2</ele>
        <time>2020-07-25T09:51:58Z</time>
      </trkpt>
      <trkpt lat="42.9404680" lon="0.3442310">
        <ele>1386.2</ele>
        <time>2020-07-25T09:52:02Z</time>
      </trkpt>
      <trkpt lat="42.9404780" lon="0.3442660">
        <ele>1386.4</ele>
        <time>2020-07-25T09:52:03Z</time>
      </trkpt>
      <trkpt lat="42.9405220" lon="0.3444070">
        <ele>1387.2</ele>
        <time>2020-07-25T09:52:07Z</time>
      </trkpt>
      <trkpt lat="42.9405830" lon="0.3445930">
        <ele>1387.6</ele>
        <time>2020-07-25T09:52:12Z</time>
      </trkpt>
      <trkpt lat="42.9406100" lon="0.3446680">
        <ele>1388.0</ele>
        <time>2020-07-25T09:52:14Z</time>
      </trkpt>
      <trkpt lat="42.9406440" lon="0.3447350">
        <ele>1388.4</ele>
        <time>2020-07-25T09:52:16Z</time>
      </trkpt>
      <trkpt lat="42.9407180" lon="0.3448020">
        <ele>1389.0</ele>
        <time>2020-07-25T09:52:19Z</time>
      </trkpt>
      <trkpt lat="42.9407730" lon="0.3448270">
        <ele>1389.4</ele>
        <time>2020-07-25T09:52:21Z</time>
      </trkpt>
      <trkpt lat="42.9408900" lon="0.3448220">
        <ele>1390.4</ele>
        <time>2020-07-25T09:52:25Z</time>
      </trkpt>
      <trkpt lat="42.9409200" lon="0.3448120">
        <ele>1390.8</ele>
        <time>2020-07-25T09:52:26Z</time>
      </trkpt>
      <trkpt lat="42.9409730" lon="0.3447860">
        <ele>1391.2</ele>
        <time>2020-07-25T09:52:28Z</time>
      </trkpt>
      <trkpt lat="42.9410200" lon="0.3447040">
        <ele>1391.8</ele>
        <time>2020-07-25T09:52:31Z</time>
      </trkpt>
      <trkpt lat="42.9409820" lon="0.3445360">
        <ele>1392.4</ele>
        <time>2020-07-25T09:52:35Z</time>
      </trkpt>
      <trkpt lat="42.9409190" lon="0.3444330">
        <ele>1392.8</ele>
        <time>2020-07-25T09:52:38Z</time>
      </trkpt>
      <trkpt lat="42.9408510" lon="0.3443150">
        <ele>1393.4</ele>
        <time>2020-07-25T09:52:41Z</time>
      </trkpt>
      <trkpt lat="42.9408160" lon="0.3442430">
        <ele>1393.8</ele>
        <time>2020-07-25T09:52:43Z</time>
      </trkpt>
      <trkpt lat="42.9407830" lon="0.3440650">
        <ele>1395.0</ele>
        <time>2020-07-25T09:52:47Z</time>
      </trkpt>
      <trkpt lat="42.9407810" lon="0.3440210">
        <ele>1395.0</ele>
        <time>2020-07-25T09:52:48Z</time>
      </trkpt>
      <trkpt lat="42.9407930" lon="0.3438470">
        <ele>1396.0</ele>
        <time>2020-07-25T09:52:52Z</time>
      </trkpt>
      <trkpt lat="42.9408260" lon="0.3436800">
        <ele>1396.2</ele>
        <time>2020-07-25T09:52:56Z</time>
      </trkpt>
      <trkpt lat="42.9408560" lon="0.3435210">
        <ele>1397.2</ele>
        <time>2020-07-25T09:53:00Z</time>
      </trkpt>
      <trkpt lat="42.9408790" lon="0.3434040">
        <ele>1398.0</ele>
        <time>2020-07-25T09:53:03Z</time>
      </trkpt>
      <trkpt lat="42.9408850" lon="0.3433640">
        <ele>1398.2</ele>
        <time>2020-07-25T09:53:04Z</time>
      </trkpt>
      <trkpt lat="42.9409020" lon="0.3432450">
        <ele>1399.4</ele>
        <time>2020-07-25T09:53:07Z</time>
      </trkpt>
      <trkpt lat="42.9409380" lon="0.3431430">
        <ele>1400.4</ele>
        <time>2020-07-25T09:53:10Z</time>
      </trkpt>
      <trkpt lat="42.9409670" lon="0.3429990">
        <ele>1401.2</ele>
        <time>2020-07-25T09:53:14Z</time>
      </trkpt>
      <trkpt lat="42.9409750" lon="0.3429650">
        <ele>1401.4</ele>
        <time>2020-07-25T09:53:15Z</time>
      </trkpt>
      <trkpt lat="42.9410070" lon="0.3428280">
        <ele>1402.6</ele>
        <time>2020-07-25T09:53:19Z</time>
      </trkpt>
      <trkpt lat="42.9410360" lon="0.3427330">
        <ele>1403.2</ele>
        <time>2020-07-25T09:53:22Z</time>
      </trkpt>
      <trkpt lat="42.9410670" lon="0.3426340">
        <ele>1403.6</ele>
        <time>2020-07-25T09:53:25Z</time>
      </trkpt>
      <trkpt lat="42.9410850" lon="0.3425670">
        <ele>1404.2</ele>
        <time>2020-07-25T09:53:27Z</time>
      </trkpt>
      <trkpt lat="42.9411020" lon="0.3425010">
        <ele>1404.8</ele>
        <time>2020-07-25T09:53:29Z</time>
      </trkpt>
      <trkpt lat="42.9411080" lon="0.3424650">
        <ele>1405.0</ele>
        <time>2020-07-25T09:53:30Z</time>
      </trkpt>
      <trkpt lat="42.9411520" lon="0.3422890">
        <ele>1406.2</ele>
        <time>2020-07-25T09:53:35Z</time>
      </trkpt>
      <trkpt lat="42.9411840" lon="0.3421530">
        <ele>1407.2</ele>
        <time>2020-07-25T09:53:39Z</time>
      </trkpt>
      <trkpt lat="42.9412330" lon="0.3419830">
        <ele>1408.2</ele>
        <time>2020-07-25T09:53:44Z</time>
      </trkpt>
      <trkpt lat="42.9412650" lon="0.3418420">
        <ele>1409.2</ele>
        <time>2020-07-25T09:53:48Z</time>
      </trkpt>
      <trkpt lat="42.9412740" lon="0.3418070">
        <ele>1409.4</ele>
        <time>2020-07-25T09:53:49Z</time>
      </trkpt>
      <trkpt lat="42.9413060" lon="0.3416710">
        <ele>1410.4</ele>
        <time>2020-07-25T09:53:53Z</time>
      </trkpt>
      <trkpt lat="42.9413140" lon="0.3416360">
        <ele>1410.4</ele>
        <time>2020-07-25T09:53:54Z</time>
      </trkpt>
      <trkpt lat="42.9413270" lon="0.3415670">
        <ele>1410.8</ele>
        <time>2020-07-25T09:53:56Z</time>
      </trkpt>
      <trkpt lat="42.9413440" lon="0.3414620">
        <ele>1411.8</ele>
        <time>2020-07-25T09:53:59Z</time>
      </trkpt>
      <trkpt lat="42.9413660" lon="0.3412970">
        <ele>1412.8</ele>
        <time>2020-07-25T09:54:04Z</time>
      </trkpt>
      <trkpt lat="42.9413650" lon="0.3412760">
        <ele>1412.8</ele>
        <time>2020-07-25T09:54:05Z</time>
      </trkpt>
      <trkpt lat="42.9413820" lon="0.3411210">
        <ele>1413.6</ele>
        <time>2020-07-25T09:54:11Z</time>
      </trkpt>
      <trkpt lat="42.9413910" lon="0.3410610">
        <ele>1414.0</ele>
        <time>2020-07-25T09:54:13Z</time>
      </trkpt>
      <trkpt lat="42.9414190" lon="0.3408580">
        <ele>1414.8</ele>
        <time>2020-07-25T09:54:19Z</time>
      </trkpt>
      <trkpt lat="42.9414230" lon="0.3408210">
        <ele>1415.0</ele>
        <time>2020-07-25T09:54:20Z</time>
      </trkpt>
      <trkpt lat="42.9414400" lon="0.3406750">
        <ele>1416.2</ele>
        <time>2020-07-25T09:54:24Z</time>
      </trkpt>
      <trkpt lat="42.9414550" lon="0.3405350">
        <ele>1417.2</ele>
        <time>2020-07-25T09:54:28Z</time>
      </trkpt>
      <trkpt lat="42.9414620" lon="0.3405020">
        <ele>1417.4</ele>
        <time>2020-07-25T09:54:29Z</time>
      </trkpt>
      <trkpt lat="42.9414960" lon="0.3403100">
        <ele>1418.4</ele>
        <time>2020-07-25T09:54:35Z</time>
      </trkpt>
      <trkpt lat="42.9415010" lon="0.3402770">
        <ele>1418.4</ele>
        <time>2020-07-25T09:54:36Z</time>
      </trkpt>
      <trkpt lat="42.9415150" lon="0.3402130">
        <ele>1419.2</ele>
        <time>2020-07-25T09:54:38Z</time>
      </trkpt>
      <trkpt lat="42.9415220" lon="0.3401810">
        <ele>1419.4</ele>
        <time>2020-07-25T09:54:39Z</time>
      </trkpt>
      <trkpt lat="42.9415340" lon="0.3401140">
        <ele>1419.8</ele>
        <time>2020-07-25T09:54:41Z</time>
      </trkpt>
      <trkpt lat="42.9415380" lon="0.3400790">
        <ele>1420.0</ele>
        <time>2020-07-25T09:54:42Z</time>
      </trkpt>
      <trkpt lat="42.9415530" lon="0.3400150">
        <ele>1420.4</ele>
        <time>2020-07-25T09:54:44Z</time>
      </trkpt>
      <trkpt lat="42.9415580" lon="0.3399800">
        <ele>1420.6</ele>
        <time>2020-07-25T09:54:45Z</time>
      </trkpt>
      <trkpt lat="42.9415950" lon="0.3398150">
        <ele>1421.6</ele>
        <time>2020-07-25T09:54:50Z</time>
      </trkpt>
      <trkpt lat="42.9416280" lon="0.3396930">
        <ele>1422.6</ele>
        <time>2020-07-25T09:54:54Z</time>
      </trkpt>
      <trkpt lat="42.9416350" lon="0.3396620">
        <ele>1422.8</ele>
        <time>2020-07-25T09:54:55Z</time>
      </trkpt>
      <trkpt lat="42.9416900" lon="0.3395430">
        <ele>1423.8</ele>
        <time>2020-07-25T09:55:00Z</time>
      </trkpt>
      <trkpt lat="42.9417260" lon="0.3394010">
        <ele>1424.2</ele>
        <time>2020-07-25T09:55:06Z</time>
      </trkpt>
      <trkpt lat="42.9417630" lon="0.3393170">
        <ele>1425.0</ele>
        <time>2020-07-25T09:55:09Z</time>
      </trkpt>
      <trkpt lat="42.9418060" lon="0.3392020">
        <ele>1426.0</ele>
        <time>2020-07-25T09:55:13Z</time>
      </trkpt>
      <trkpt lat="42.9418190" lon="0.3391760">
        <ele>1426.2</ele>
        <time>2020-07-25T09:55:14Z</time>
      </trkpt>
      <trkpt lat="42.9418560" lon="0.3390220">
        <ele>1427.2</ele>
        <time>2020-07-25T09:55:19Z</time>
      </trkpt>
      <trkpt lat="42.9418730" lon="0.3389660">
        <ele>1427.6</ele>
        <time>2020-07-25T09:55:21Z</time>
      </trkpt>
      <trkpt lat="42.9418990" lon="0.3388510">
        <ele>1428.4</ele>
        <time>2020-07-25T09:55:25Z</time>
      </trkpt>
      <trkpt lat="42.9419190" lon="0.3387950">
        <ele>1428.8</ele>
        <time>2020-07-25T09:55:27Z</time>
      </trkpt>
      <trkpt lat="42.9419610" lon="0.3386750">
        <ele>1429.6</ele>
        <time>2020-07-25T09:55:31Z</time>
      </trkpt>
      <trkpt lat="42.9420040" lon="0.3385550">
        <ele>1430.4</ele>
        <time>2020-07-25T09:55:35Z</time>
      </trkpt>
      <trkpt lat="42.9420150" lon="0.3385260">
        <ele>1430.6</ele>
        <time>2020-07-25T09:55:36Z</time>
      </trkpt>
      <trkpt lat="42.9420530" lon="0.3384260">
        <ele>1431.4</ele>
        <time>2020-07-25T09:55:40Z</time>
      </trkpt>
      <trkpt lat="42.9420590" lon="0.3383980">
        <ele>1431.6</ele>
        <time>2020-07-25T09:55:42Z</time>
      </trkpt>
      <trkpt lat="42.9420630" lon="0.3383720">
        <ele>1431.8</ele>
        <time>2020-07-25T09:55:43Z</time>
      </trkpt>
      <trkpt lat="42.9421100" lon="0.3382620">
        <ele>1432.2</ele>
        <time>2020-07-25T09:55:47Z</time>
      </trkpt>
      <trkpt lat="42.9421490" lon="0.3381780">
        <ele>1432.8</ele>
        <time>2020-07-25T09:55:50Z</time>
      </trkpt>
      <trkpt lat="42.9422090" lon="0.3380490">
        <ele>1434.0</ele>
        <time>2020-07-25T09:55:55Z</time>
      </trkpt>
      <trkpt lat="42.9422210" lon="0.3380230">
        <ele>1434.2</ele>
        <time>2020-07-25T09:55:56Z</time>
      </trkpt>
      <trkpt lat="42.9423340" lon="0.3378960">
        <ele>1435.0</ele>
        <time>2020-07-25T09:56:02Z</time>
      </trkpt>
      <trkpt lat="42.9423560" lon="0.3378770">
        <ele>1435.2</ele>
        <time>2020-07-25T09:56:03Z</time>
      </trkpt>
      <trkpt lat="42.9424390" lon="0.3377980">
        <ele>1436.2</ele>
        <time>2020-07-25T09:56:07Z</time>
      </trkpt>
      <trkpt lat="42.9425310" lon="0.3377500">
        <ele>1437.2</ele>
        <time>2020-07-25T09:56:11Z</time>
      </trkpt>
      <trkpt lat="42.9425520" lon="0.3377400">
        <ele>1437.4</ele>
        <time>2020-07-25T09:56:12Z</time>
      </trkpt>
      <trkpt lat="42.9426960" lon="0.3376790">
        <ele>1438.6</ele>
        <time>2020-07-25T09:56:18Z</time>
      </trkpt>
      <trkpt lat="42.9427270" lon="0.3376740">
        <ele>1439.0</ele>
        <time>2020-07-25T09:56:19Z</time>
      </trkpt>
      <trkpt lat="42.9428690" lon="0.3376400">
        <ele>1439.8</ele>
        <time>2020-07-25T09:56:24Z</time>
      </trkpt>
      <trkpt lat="42.9429160" lon="0.3375980">
        <ele>1440.0</ele>
        <time>2020-07-25T09:56:26Z</time>
      </trkpt>
      <trkpt lat="42.9430150" lon="0.3375010">
        <ele>1440.8</ele>
        <time>2020-07-25T09:56:30Z</time>
      </trkpt>
      <trkpt lat="42.9430570" lon="0.3374460">
        <ele>1441.6</ele>
        <time>2020-07-25T09:56:32Z</time>
      </trkpt>
      <trkpt lat="42.9430690" lon="0.3374050">
        <ele>1442.0</ele>
        <time>2020-07-25T09:56:33Z</time>
      </trkpt>
      <trkpt lat="42.9431300" lon="0.3372220">
        <ele>1443.0</ele>
        <time>2020-07-25T09:56:38Z</time>
      </trkpt>
      <trkpt lat="42.9431840" lon="0.3371510">
        <ele>1443.2</ele>
        <time>2020-07-25T09:56:41Z</time>
      </trkpt>
      <trkpt lat="42.9432630" lon="0.3370500">
        <ele>1444.2</ele>
        <time>2020-07-25T09:56:45Z</time>
      </trkpt>
      <trkpt lat="42.9433000" lon="0.3370010">
        <ele>1444.8</ele>
        <time>2020-07-25T09:56:47Z</time>
      </trkpt>
      <trkpt lat="42.9433150" lon="0.3369740">
        <ele>1445.2</ele>
        <time>2020-07-25T09:56:48Z</time>
      </trkpt>
      <trkpt lat="42.9433610" lon="0.3368710">
        <ele>1446.0</ele>
        <time>2020-07-25T09:56:52Z</time>
      </trkpt>
      <trkpt lat="42.9433800" lon="0.3368040">
        <ele>1446.2</ele>
        <time>2020-07-25T09:56:54Z</time>
      </trkpt>
      <trkpt lat="42.9433910" lon="0.3366610">
        <ele>1446.8</ele>
        <time>2020-07-25T09:56:58Z</time>
      </trkpt>
      <trkpt lat="42.9433920" lon="0.3365910">
        <ele>1447.2</ele>
        <time>2020-07-25T09:57:00Z</time>
      </trkpt>
      <trkpt lat="42.9433710" lon="0.3364440">
        <ele>1448.4</ele>
        <time>2020-07-25T09:57:04Z</time>
      </trkpt>
      <trkpt lat="42.9433690" lon="0.3364170">
        <ele>1448.4</ele>
        <time>2020-07-25T09:57:05Z</time>
      </trkpt>
      <trkpt lat="42.9433690" lon="0.3363880">
        <ele>1448.6</ele>
        <time>2020-07-25T09:57:06Z</time>
      </trkpt>
      <trkpt lat="42.9433590" lon="0.3362580">
        <ele>1449.4</ele>
        <time>2020-07-25T09:57:10Z</time>
      </trkpt>
      <trkpt lat="42.9433590" lon="0.3361510">
        <ele>1450.2</ele>
        <time>2020-07-25T09:57:13Z</time>
      </trkpt>
      <trkpt lat="42.9433500" lon="0.3360850">
        <ele>1450.4</ele>
        <time>2020-07-25T09:57:15Z</time>
      </trkpt>
      <trkpt lat="42.9433390" lon="0.3358930">
        <ele>1451.6</ele>
        <time>2020-07-25T09:57:20Z</time>
      </trkpt>
      <trkpt lat="42.9433470" lon="0.3357280">
        <ele>1452.6</ele>
        <time>2020-07-25T09:57:24Z</time>
      </trkpt>
      <trkpt lat="42.9433610" lon="0.3355400">
        <ele>1453.6</ele>
        <time>2020-07-25T09:57:29Z</time>
      </trkpt>
      <trkpt lat="42.9433640" lon="0.3355060">
        <ele>1453.6</ele>
        <time>2020-07-25T09:57:30Z</time>
      </trkpt>
      <trkpt lat="42.9433950" lon="0.3353460">
        <ele>1454.8</ele>
        <time>2020-07-25T09:57:35Z</time>
      </trkpt>
      <trkpt lat="42.9434150" lon="0.3352760">
        <ele>1455.2</ele>
        <time>2020-07-25T09:57:37Z</time>
      </trkpt>
      <trkpt lat="42.9434580" lon="0.3351420">
        <ele>1456.0</ele>
        <time>2020-07-25T09:57:41Z</time>
      </trkpt>
      <trkpt lat="42.9434960" lon="0.3350030">
        <ele>1456.8</ele>
        <time>2020-07-25T09:57:45Z</time>
      </trkpt>
      <trkpt lat="42.9435070" lon="0.3349700">
        <ele>1457.0</ele>
        <time>2020-07-25T09:57:46Z</time>
      </trkpt>
      <trkpt lat="42.9435610" lon="0.3348080">
        <ele>1458.2</ele>
        <time>2020-07-25T09:57:51Z</time>
      </trkpt>
      <trkpt lat="42.9436080" lon="0.3346390">
        <ele>1459.4</ele>
        <time>2020-07-25T09:57:56Z</time>
      </trkpt>
      <trkpt lat="42.9436180" lon="0.3346050">
        <ele>1459.6</ele>
        <time>2020-07-25T09:57:57Z</time>
      </trkpt>
      <trkpt lat="42.9436460" lon="0.3345040">
        <ele>1460.6</ele>
        <time>2020-07-25T09:58:00Z</time>
      </trkpt>
      <trkpt lat="42.9436800" lon="0.3343690">
        <ele>1461.6</ele>
        <time>2020-07-25T09:58:04Z</time>
      </trkpt>
      <trkpt lat="42.9437170" lon="0.3342390">
        <ele>1462.8</ele>
        <time>2020-07-25T09:58:08Z</time>
      </trkpt>
      <trkpt lat="42.9437770" lon="0.3340440">
        <ele>1463.6</ele>
        <time>2020-07-25T09:58:14Z</time>
      </trkpt>
      <trkpt lat="42.9437870" lon="0.3340120">
        <ele>1463.8</ele>
        <time>2020-07-25T09:58:15Z</time>
      </trkpt>
      <trkpt lat="42.9438170" lon="0.3339170">
        <ele>1464.8</ele>
        <time>2020-07-25T09:58:18Z</time>
      </trkpt>
      <trkpt lat="42.9438260" lon="0.3338850">
        <ele>1465.0</ele>
        <time>2020-07-25T09:58:19Z</time>
      </trkpt>
      <trkpt lat="42.9438720" lon="0.3337320">
        <ele>1466.0</ele>
        <time>2020-07-25T09:58:24Z</time>
      </trkpt>
      <trkpt lat="42.9438790" lon="0.3336990">
        <ele>1466.2</ele>
        <time>2020-07-25T09:58:25Z</time>
      </trkpt>
      <trkpt lat="42.9439070" lon="0.3335770">
        <ele>1467.0</ele>
        <time>2020-07-25T09:58:29Z</time>
      </trkpt>
      <trkpt lat="42.9439110" lon="0.3334120">
        <ele>1468.0</ele>
        <time>2020-07-25T09:58:34Z</time>
      </trkpt>
      <trkpt lat="42.9439090" lon="0.3333770">
        <ele>1468.2</ele>
        <time>2020-07-25T09:58:35Z</time>
      </trkpt>
      <trkpt lat="42.9438940" lon="0.3332070">
        <ele>1469.2</ele>
        <time>2020-07-25T09:58:41Z</time>
      </trkpt>
      <trkpt lat="42.9439060" lon="0.3331840">
        <ele>1469.4</ele>
        <time>2020-07-25T09:58:42Z</time>
      </trkpt>
      <trkpt lat="42.9439070" lon="0.3330390">
        <ele>1470.0</ele>
        <time>2020-07-25T09:58:46Z</time>
      </trkpt>
      <trkpt lat="42.9439050" lon="0.3329990">
        <ele>1470.4</ele>
        <time>2020-07-25T09:58:47Z</time>
      </trkpt>
      <trkpt lat="42.9439050" lon="0.3329640">
        <ele>1470.8</ele>
        <time>2020-07-25T09:58:48Z</time>
      </trkpt>
      <trkpt lat="42.9439000" lon="0.3329290">
        <ele>1471.0</ele>
        <time>2020-07-25T09:58:49Z</time>
      </trkpt>
      <trkpt lat="42.9438850" lon="0.3328330">
        <ele>1471.4</ele>
        <time>2020-07-25T09:58:52Z</time>
      </trkpt>
      <trkpt lat="42.9438770" lon="0.3327980">
        <ele>1471.6</ele>
        <time>2020-07-25T09:58:53Z</time>
      </trkpt>
      <trkpt lat="42.9438530" lon="0.3326430">
        <ele>1472.8</ele>
        <time>2020-07-25T09:58:58Z</time>
      </trkpt>
      <trkpt lat="42.9438510" lon="0.3325810">
        <ele>1473.4</ele>
        <time>2020-07-25T09:59:00Z</time>
      </trkpt>
      <trkpt lat="42.9438420" lon="0.3325220">
        <ele>1473.8</ele>
        <time>2020-07-25T09:59:02Z</time>
      </trkpt>
      <trkpt lat="42.9438390" lon="0.3324950">
        <ele>1473.8</ele>
        <time>2020-07-25T09:59:03Z</time>
      </trkpt>
      <trkpt lat="42.9438290" lon="0.3323980">
        <ele>1474.4</ele>
        <time>2020-07-25T09:59:06Z</time>
      </trkpt>
      <trkpt lat="42.9438090" lon="0.3322870">
        <ele>1474.8</ele>
        <time>2020-07-25T09:59:09Z</time>
      </trkpt>
      <trkpt lat="42.9437580" lon="0.3321460">
        <ele>1476.0</ele>
        <time>2020-07-25T09:59:13Z</time>
      </trkpt>
      <trkpt lat="42.9437410" lon="0.3321140">
        <ele>1476.2</ele>
        <time>2020-07-25T09:59:14Z</time>
      </trkpt>
      <trkpt lat="42.9436410" lon="0.3319920">
        <ele>1477.2</ele>
        <time>2020-07-25T09:59:20Z</time>
      </trkpt>
      <trkpt lat="42.9434890" lon="0.3319100">
        <ele>1478.2</ele>
        <time>2020-07-25T09:59:26Z</time>
      </trkpt>
      <trkpt lat="42.9434210" lon="0.3318480">
        <ele>1478.6</ele>
        <time>2020-07-25T09:59:29Z</time>
      </trkpt>
      <trkpt lat="42.9433700" lon="0.3317490">
        <ele>1479.4</ele>
        <time>2020-07-25T09:59:32Z</time>
      </trkpt>
      <trkpt lat="42.9433390" lon="0.3316410">
        <ele>1480.0</ele>
        <time>2020-07-25T09:59:35Z</time>
      </trkpt>
      <trkpt lat="42.9433130" lon="0.3315410">
        <ele>1480.6</ele>
        <time>2020-07-25T09:59:38Z</time>
      </trkpt>
      <trkpt lat="42.9432910" lon="0.3314430">
        <ele>1481.6</ele>
        <time>2020-07-25T09:59:41Z</time>
      </trkpt>
      <trkpt lat="42.9432730" lon="0.3313480">
        <ele>1482.2</ele>
        <time>2020-07-25T09:59:44Z</time>
      </trkpt>
      <trkpt lat="42.9432210" lon="0.3312310">
        <ele>1482.8</ele>
        <time>2020-07-25T09:59:48Z</time>
      </trkpt>
      <trkpt lat="42.9431630" lon="0.3311710">
        <ele>1483.6</ele>
        <time>2020-07-25T09:59:51Z</time>
      </trkpt>
      <trkpt lat="42.9431200" lon="0.3311330">
        <ele>1483.8</ele>
        <time>2020-07-25T09:59:53Z</time>
      </trkpt>
      <trkpt lat="42.9430080" lon="0.3310320">
        <ele>1484.8</ele>
        <time>2020-07-25T09:59:58Z</time>
      </trkpt>
      <trkpt lat="42.9429880" lon="0.3310070">
        <ele>1484.8</ele>
        <time>2020-07-25T09:59:59Z</time>
      </trkpt>
      <trkpt lat="42.9429450" lon="0.3308910">
        <ele>1485.8</ele>
        <time>2020-07-25T10:00:03Z</time>
      </trkpt>
      <trkpt lat="42.9429420" lon="0.3308180">
        <ele>1486.0</ele>
        <time>2020-07-25T10:00:05Z</time>
      </trkpt>
      <trkpt lat="42.9429380" lon="0.3306690">
        <ele>1487.2</ele>
        <time>2020-07-25T10:00:09Z</time>
      </trkpt>
      <trkpt lat="42.9429380" lon="0.3305500">
        <ele>1488.4</ele>
        <time>2020-07-25T10:00:12Z</time>
      </trkpt>
      <trkpt lat="42.9429390" lon="0.3305100">
        <ele>1488.8</ele>
        <time>2020-07-25T10:00:13Z</time>
      </trkpt>
      <trkpt lat="42.9429320" lon="0.3303960">
        <ele>1489.4</ele>
        <time>2020-07-25T10:00:16Z</time>
      </trkpt>
      <trkpt lat="42.9429170" lon="0.3302100">
        <ele>1490.6</ele>
        <time>2020-07-25T10:00:21Z</time>
      </trkpt>
      <trkpt lat="42.9429130" lon="0.3301410">
        <ele>1491.0</ele>
        <time>2020-07-25T10:00:23Z</time>
      </trkpt>
      <trkpt lat="42.9429140" lon="0.3300430">
        <ele>1491.4</ele>
        <time>2020-07-25T10:00:26Z</time>
      </trkpt>
      <trkpt lat="42.9429120" lon="0.3300120">
        <ele>1491.6</ele>
        <time>2020-07-25T10:00:27Z</time>
      </trkpt>
      <trkpt lat="42.9429030" lon="0.3299570">
        <ele>1492.0</ele>
        <time>2020-07-25T10:00:29Z</time>
      </trkpt>
      <trkpt lat="42.9428960" lon="0.3297740">
        <ele>1492.8</ele>
        <time>2020-07-25T10:01:20Z</time>
      </trkpt>
      <trkpt lat="42.9428960" lon="0.3297460">
        <ele>1493.0</ele>
        <time>2020-07-25T10:01:21Z</time>
      </trkpt>
      <trkpt lat="42.9428950" lon="0.3297130">
        <ele>1493.0</ele>
        <time>2020-07-25T10:01:22Z</time>
      </trkpt>
      <trkpt lat="42.9428950" lon="0.3296780">
        <ele>1493.2</ele>
        <time>2020-07-25T10:01:23Z</time>
      </trkpt>
      <trkpt lat="42.9428800" lon="0.3295960">
        <ele>1493.4</ele>
        <time>2020-07-25T10:01:25Z</time>
      </trkpt>
      <trkpt lat="42.9428610" lon="0.3295160">
        <ele>1494.0</ele>
        <time>2020-07-25T10:01:27Z</time>
      </trkpt>
      <trkpt lat="42.9428500" lon="0.3294770">
        <ele>1494.2</ele>
        <time>2020-07-25T10:01:28Z</time>
      </trkpt>
      <trkpt lat="42.9428230" lon="0.3294080">
        <ele>1494.6</ele>
        <time>2020-07-25T10:01:30Z</time>
      </trkpt>
      <trkpt lat="42.9427890" lon="0.3293440">
        <ele>1495.2</ele>
        <time>2020-07-25T10:01:32Z</time>
      </trkpt>
      <trkpt lat="42.9427730" lon="0.3293110">
        <ele>1495.4</ele>
        <time>2020-07-25T10:01:33Z</time>
      </trkpt>
      <trkpt lat="42.9427180" lon="0.3292180">
        <ele>1496.2</ele>
        <time>2020-07-25T10:01:36Z</time>
      </trkpt>
      <trkpt lat="42.9426520" lon="0.3291040">
        <ele>1497.2</ele>
        <time>2020-07-25T10:01:40Z</time>
      </trkpt>
      <trkpt lat="42.9426390" lon="0.3290710">
        <ele>1497.6</ele>
        <time>2020-07-25T10:01:41Z</time>
      </trkpt>
      <trkpt lat="42.9426010" lon="0.3289400">
        <ele>1498.4</ele>
        <time>2020-07-25T10:01:45Z</time>
      </trkpt>
      <trkpt lat="42.9425750" lon="0.3287760">
        <ele>1499.4</ele>
        <time>2020-07-25T10:01:50Z</time>
      </trkpt>
      <trkpt lat="42.9425390" lon="0.3286110">
        <ele>1500.4</ele>
        <time>2020-07-25T10:01:55Z</time>
      </trkpt>
      <trkpt lat="42.9424970" lon="0.3284820">
        <ele>1501.2</ele>
        <time>2020-07-25T10:01:59Z</time>
      </trkpt>
      <trkpt lat="42.9424710" lon="0.3284200">
        <ele>1501.4</ele>
        <time>2020-07-25T10:02:01Z</time>
      </trkpt>
      <trkpt lat="42.9424250" lon="0.3283030">
        <ele>1502.6</ele>
        <time>2020-07-25T10:02:05Z</time>
      </trkpt>
      <trkpt lat="42.9424040" lon="0.3282420">
        <ele>1503.0</ele>
        <time>2020-07-25T10:02:07Z</time>
      </trkpt>
      <trkpt lat="42.9423570" lon="0.3280500">
        <ele>1503.8</ele>
        <time>2020-07-25T10:02:13Z</time>
      </trkpt>
      <trkpt lat="42.9423390" lon="0.3279570">
        <ele>1504.4</ele>
        <time>2020-07-25T10:02:16Z</time>
      </trkpt>
      <trkpt lat="42.9423340" lon="0.3279270">
        <ele>1504.8</ele>
        <time>2020-07-25T10:02:17Z</time>
      </trkpt>
      <trkpt lat="42.9423270" lon="0.3277410">
        <ele>1505.8</ele>
        <time>2020-07-25T10:02:23Z</time>
      </trkpt>
      <trkpt lat="42.9423330" lon="0.3276820">
        <ele>1506.0</ele>
        <time>2020-07-25T10:02:25Z</time>
      </trkpt>
      <trkpt lat="42.9423430" lon="0.3275560">
        <ele>1506.8</ele>
        <time>2020-07-25T10:02:30Z</time>
      </trkpt>
      <trkpt lat="42.9423470" lon="0.3275060">
        <ele>1507.2</ele>
        <time>2020-07-25T10:02:32Z</time>
      </trkpt>
      <trkpt lat="42.9423860" lon="0.3274210">
        <ele>1507.4</ele>
        <time>2020-07-25T10:02:36Z</time>
      </trkpt>
      <trkpt lat="42.9424400" lon="0.3272750">
        <ele>1507.2</ele>
        <time>2020-07-25T10:11:22Z</time>
      </trkpt>
      <trkpt lat="42.9424360" lon="0.3272700">
        <ele>1507.2</ele>
        <time>2020-07-25T10:11:23Z</time>
      </trkpt>
      <trkpt lat="42.9424440" lon="0.3272610">
        <ele>1507.2</ele>
        <time>2020-07-25T10:11:24Z</time>
      </trkpt>
      <trkpt lat="42.9424550" lon="0.3272440">
        <ele>1507.2</ele>
        <time>2020-07-25T10:11:25Z</time>
      </trkpt>
      <trkpt lat="42.9424880" lon="0.3271780">
        <ele>1506.8</ele>
        <time>2020-07-25T10:11:28Z</time>
      </trkpt>
      <trkpt lat="42.9425970" lon="0.3270420">
        <ele>1506.6</ele>
        <time>2020-07-25T10:11:32Z</time>
      </trkpt>
      <trkpt lat="42.9427240" lon="0.3269070">
        <ele>1505.4</ele>
        <time>2020-07-25T10:11:35Z</time>
      </trkpt>
      <trkpt lat="42.9427710" lon="0.3268540">
        <ele>1505.0</ele>
        <time>2020-07-25T10:11:36Z</time>
      </trkpt>
      <trkpt lat="42.9428200" lon="0.3267960">
        <ele>1504.8</ele>
        <time>2020-07-25T10:11:37Z</time>
      </trkpt>
      <trkpt lat="42.9429210" lon="0.3266600">
        <ele>1504.4</ele>
        <time>2020-07-25T10:11:39Z</time>
      </trkpt>
      <trkpt lat="42.9429720" lon="0.3265800">
        <ele>1504.2</ele>
        <time>2020-07-25T10:11:40Z</time>
      </trkpt>
      <trkpt lat="42.9430750" lon="0.3264040">
        <ele>1503.4</ele>
        <time>2020-07-25T10:11:42Z</time>
      </trkpt>
      <trkpt lat="42.9431220" lon="0.3263130">
        <ele>1502.8</ele>
        <time>2020-07-25T10:11:43Z</time>
      </trkpt>
      <trkpt lat="42.9431960" lon="0.3261360">
        <ele>1501.4</ele>
        <time>2020-07-25T10:11:45Z</time>
      </trkpt>
      <trkpt lat="42.9432250" lon="0.3260470">
        <ele>1501.0</ele>
        <time>2020-07-25T10:11:46Z</time>
      </trkpt>
      <trkpt lat="42.9432530" lon="0.3259560">
        <ele>1500.4</ele>
        <time>2020-07-25T10:11:47Z</time>
      </trkpt>
      <trkpt lat="42.9433270" lon="0.3256450">
        <ele>1499.0</ele>
        <time>2020-07-25T10:11:50Z</time>
      </trkpt>
      <trkpt lat="42.9433500" lon="0.3255310">
        <ele>1498.2</ele>
        <time>2020-07-25T10:11:51Z</time>
      </trkpt>
      <trkpt lat="42.9433740" lon="0.3254110">
        <ele>1497.4</ele>
        <time>2020-07-25T10:11:52Z</time>
      </trkpt>
      <trkpt lat="42.9434180" lon="0.3251560">
        <ele>1495.8</ele>
        <time>2020-07-25T10:11:54Z</time>
      </trkpt>
      <trkpt lat="42.9434580" lon="0.3248950">
        <ele>1494.6</ele>
        <time>2020-07-25T10:11:56Z</time>
      </trkpt>
      <trkpt lat="42.9434780" lon="0.3247670">
        <ele>1494.0</ele>
        <time>2020-07-25T10:11:57Z</time>
      </trkpt>
      <trkpt lat="42.9435030" lon="0.3246390">
        <ele>1493.4</ele>
        <time>2020-07-25T10:11:58Z</time>
      </trkpt>
      <trkpt lat="42.9435650" lon="0.3243710">
        <ele>1492.0</ele>
        <time>2020-07-25T10:12:00Z</time>
      </trkpt>
      <trkpt lat="42.9436140" lon="0.3240850">
        <ele>1490.6</ele>
        <time>2020-07-25T10:12:02Z</time>
      </trkpt>
      <trkpt lat="42.9436410" lon="0.3237760">
        <ele>1489.0</ele>
        <time>2020-07-25T10:12:04Z</time>
      </trkpt>
      <trkpt lat="42.9436620" lon="0.3234710">
        <ele>1487.2</ele>
        <time>2020-07-25T10:12:06Z</time>
      </trkpt>
      <trkpt lat="42.9436790" lon="0.3233300">
        <ele>1486.4</ele>
        <time>2020-07-25T10:12:07Z</time>
      </trkpt>
      <trkpt lat="42.9437060" lon="0.3231940">
        <ele>1485.6</ele>
        <time>2020-07-25T10:12:08Z</time>
      </trkpt>
      <trkpt lat="42.9437890" lon="0.3229280">
        <ele>1483.6</ele>
        <time>2020-07-25T10:12:10Z</time>
      </trkpt>
      <trkpt lat="42.9439080" lon="0.3226780">
        <ele>1482.2</ele>
        <time>2020-07-25T10:12:12Z</time>
      </trkpt>
      <trkpt lat="42.9440370" lon="0.3224360">
        <ele>1481.0</ele>
        <time>2020-07-25T10:12:14Z</time>
      </trkpt>
      <trkpt lat="42.9441570" lon="0.3221770">
        <ele>1479.4</ele>
        <time>2020-07-25T10:12:16Z</time>
      </trkpt>
      <trkpt lat="42.9442740" lon="0.3219020">
        <ele>1478.2</ele>
        <time>2020-07-25T10:12:18Z</time>
      </trkpt>
      <trkpt lat="42.9443880" lon="0.3216260">
        <ele>1476.4</ele>
        <time>2020-07-25T10:12:20Z</time>
      </trkpt>
      <trkpt lat="42.9444990" lon="0.3213610">
        <ele>1474.4</ele>
        <time>2020-07-25T10:12:22Z</time>
      </trkpt>
      <trkpt lat="42.9445500" lon="0.3212320">
        <ele>1473.4</ele>
        <time>2020-07-25T10:12:23Z</time>
      </trkpt>
      <trkpt lat="42.9446480" lon="0.3209680">
        <ele>1471.8</ele>
        <time>2020-07-25T10:12:25Z</time>
      </trkpt>
      <trkpt lat="42.9446980" lon="0.3208330">
        <ele>1471.4</ele>
        <time>2020-07-25T10:12:26Z</time>
      </trkpt>
      <trkpt lat="42.9447500" lon="0.3206910">
        <ele>1470.8</ele>
        <time>2020-07-25T10:12:27Z</time>
      </trkpt>
      <trkpt lat="42.9448050" lon="0.3205530">
        <ele>1470.4</ele>
        <time>2020-07-25T10:12:28Z</time>
      </trkpt>
      <trkpt lat="42.9449200" lon="0.3202980">
        <ele>1468.6</ele>
        <time>2020-07-25T10:12:30Z</time>
      </trkpt>
      <trkpt lat="42.9450450" lon="0.3200430">
        <ele>1467.2</ele>
        <time>2020-07-25T10:12:32Z</time>
      </trkpt>
      <trkpt lat="42.9451800" lon="0.3197800">
        <ele>1465.6</ele>
        <time>2020-07-25T10:12:34Z</time>
      </trkpt>
      <trkpt lat="42.9453140" lon="0.3195140">
        <ele>1463.8</ele>
        <time>2020-07-25T10:12:36Z</time>
      </trkpt>
      <trkpt lat="42.9454570" lon="0.3192560">
        <ele>1461.8</ele>
        <time>2020-07-25T10:12:38Z</time>
      </trkpt>
      <trkpt lat="42.9455230" lon="0.3191230">
        <ele>1461.0</ele>
        <time>2020-07-25T10:12:39Z</time>
      </trkpt>
      <trkpt lat="42.9455840" lon="0.3189840">
        <ele>1460.2</ele>
        <time>2020-07-25T10:12:40Z</time>
      </trkpt>
      <trkpt lat="42.9456380" lon="0.3188450">
        <ele>1459.6</ele>
        <time>2020-07-25T10:12:41Z</time>
      </trkpt>
      <trkpt lat="42.9456830" lon="0.3187000">
        <ele>1458.8</ele>
        <time>2020-07-25T10:12:42Z</time>
      </trkpt>
      <trkpt lat="42.9457240" lon="0.3185520">
        <ele>1458.2</ele>
        <time>2020-07-25T10:12:43Z</time>
      </trkpt>
      <trkpt lat="42.9457670" lon="0.3184030">
        <ele>1457.4</ele>
        <time>2020-07-25T10:12:44Z</time>
      </trkpt>
      <trkpt lat="42.9458650" lon="0.3181030">
        <ele>1455.8</ele>
        <time>2020-07-25T10:12:46Z</time>
      </trkpt>
      <trkpt lat="42.9459100" lon="0.3179420">
        <ele>1454.8</ele>
        <time>2020-07-25T10:12:47Z</time>
      </trkpt>
      <trkpt lat="42.9459630" lon="0.3177870">
        <ele>1453.6</ele>
        <time>2020-07-25T10:12:48Z</time>
      </trkpt>
      <trkpt lat="42.9460270" lon="0.3176510">
        <ele>1452.4</ele>
        <time>2020-07-25T10:12:49Z</time>
      </trkpt>
      <trkpt lat="42.9460950" lon="0.3175320">
        <ele>1451.2</ele>
        <time>2020-07-25T10:12:50Z</time>
      </trkpt>
      <trkpt lat="42.9461650" lon="0.3174250">
        <ele>1450.6</ele>
        <time>2020-07-25T10:12:51Z</time>
      </trkpt>
      <trkpt lat="42.9462430" lon="0.3173350">
        <ele>1450.2</ele>
        <time>2020-07-25T10:12:52Z</time>
      </trkpt>
      <trkpt lat="42.9463940" lon="0.3171850">
        <ele>1449.0</ele>
        <time>2020-07-25T10:12:54Z</time>
      </trkpt>
      <trkpt lat="42.9465110" lon="0.3170810">
        <ele>1448.4</ele>
        <time>2020-07-25T10:12:56Z</time>
      </trkpt>
      <trkpt lat="42.9465400" lon="0.3170250">
        <ele>1448.2</ele>
        <time>2020-07-25T10:12:57Z</time>
      </trkpt>
      <trkpt lat="42.9465590" lon="0.3169710">
        <ele>1448.0</ele>
        <time>2020-07-25T10:12:58Z</time>
      </trkpt>
      <trkpt lat="42.9465280" lon="0.3168710">
        <ele>1447.8</ele>
        <time>2020-07-25T10:12:59Z</time>
      </trkpt>
      <trkpt lat="42.9464520" lon="0.3167100">
        <ele>1447.0</ele>
        <time>2020-07-25T10:13:01Z</time>
      </trkpt>
      <trkpt lat="42.9464020" lon="0.3166230">
        <ele>1446.4</ele>
        <time>2020-07-25T10:13:02Z</time>
      </trkpt>
      <trkpt lat="42.9462860" lon="0.3164480">
        <ele>1445.2</ele>
        <time>2020-07-25T10:13:04Z</time>
      </trkpt>
      <trkpt lat="42.9462230" lon="0.3163750">
        <ele>1444.6</ele>
        <time>2020-07-25T10:13:05Z</time>
      </trkpt>
      <trkpt lat="42.9461510" lon="0.3162990">
        <ele>1444.0</ele>
        <time>2020-07-25T10:13:06Z</time>
      </trkpt>
      <trkpt lat="42.9460610" lon="0.3162330">
        <ele>1443.2</ele>
        <time>2020-07-25T10:13:07Z</time>
      </trkpt>
      <trkpt lat="42.9459660" lon="0.3161750">
        <ele>1442.6</ele>
        <time>2020-07-25T10:13:08Z</time>
      </trkpt>
      <trkpt lat="42.9458740" lon="0.3161200">
        <ele>1441.8</ele>
        <time>2020-07-25T10:13:09Z</time>
      </trkpt>
      <trkpt lat="42.9457880" lon="0.3160510">
        <ele>1440.8</ele>
        <time>2020-07-25T10:13:10Z</time>
      </trkpt>
      <trkpt lat="42.9457090" lon="0.3159780">
        <ele>1439.8</ele>
        <time>2020-07-25T10:13:11Z</time>
      </trkpt>
      <trkpt lat="42.9455610" lon="0.3158120">
        <ele>1438.4</ele>
        <time>2020-07-25T10:13:13Z</time>
      </trkpt>
      <trkpt lat="42.9454280" lon="0.3156250">
        <ele>1437.0</ele>
        <time>2020-07-25T10:13:15Z</time>
      </trkpt>
      <trkpt lat="42.9452880" lon="0.3154290">
        <ele>1435.4</ele>
        <time>2020-07-25T10:13:17Z</time>
      </trkpt>
      <trkpt lat="42.9452150" lon="0.3153290">
        <ele>1434.6</ele>
        <time>2020-07-25T10:13:18Z</time>
      </trkpt>
      <trkpt lat="42.9451420" lon="0.3152250">
        <ele>1434.0</ele>
        <time>2020-07-25T10:13:19Z</time>
      </trkpt>
      <trkpt lat="42.9449990" lon="0.3150190">
        <ele>1432.6</ele>
        <time>2020-07-25T10:13:21Z</time>
      </trkpt>
      <trkpt lat="42.9448760" lon="0.3148090">
        <ele>1431.2</ele>
        <time>2020-07-25T10:13:23Z</time>
      </trkpt>
      <trkpt lat="42.9448270" lon="0.3146890">
        <ele>1430.4</ele>
        <time>2020-07-25T10:13:24Z</time>
      </trkpt>
      <trkpt lat="42.9447840" lon="0.3145610">
        <ele>1429.8</ele>
        <time>2020-07-25T10:13:25Z</time>
      </trkpt>
      <trkpt lat="42.9447130" lon="0.3143050">
        <ele>1428.8</ele>
        <time>2020-07-25T10:13:27Z</time>
      </trkpt>
      <trkpt lat="42.9446700" lon="0.3141850">
        <ele>1427.6</ele>
        <time>2020-07-25T10:13:28Z</time>
      </trkpt>
      <trkpt lat="42.9446210" lon="0.3140700">
        <ele>1426.6</ele>
        <time>2020-07-25T10:13:29Z</time>
      </trkpt>
      <trkpt lat="42.9445100" lon="0.3138330">
        <ele>1424.8</ele>
        <time>2020-07-25T10:13:31Z</time>
      </trkpt>
      <trkpt lat="42.9443980" lon="0.3135840">
        <ele>1423.4</ele>
        <time>2020-07-25T10:13:33Z</time>
      </trkpt>
      <trkpt lat="42.9442850" lon="0.3133250">
        <ele>1422.2</ele>
        <time>2020-07-25T10:13:35Z</time>
      </trkpt>
      <trkpt lat="42.9441630" lon="0.3130660">
        <ele>1420.6</ele>
        <time>2020-07-25T10:13:37Z</time>
      </trkpt>
      <trkpt lat="42.9440270" lon="0.3128180">
        <ele>1419.0</ele>
        <time>2020-07-25T10:13:39Z</time>
      </trkpt>
      <trkpt lat="42.9439480" lon="0.3127050">
        <ele>1418.4</ele>
        <time>2020-07-25T10:13:40Z</time>
      </trkpt>
      <trkpt lat="42.9438600" lon="0.3126050">
        <ele>1417.8</ele>
        <time>2020-07-25T10:13:41Z</time>
      </trkpt>
      <trkpt lat="42.9436660" lon="0.3124260">
        <ele>1417.0</ele>
        <time>2020-07-25T10:13:43Z</time>
      </trkpt>
      <trkpt lat="42.9435710" lon="0.3123280">
        <ele>1416.4</ele>
        <time>2020-07-25T10:13:44Z</time>
      </trkpt>
      <trkpt lat="42.9433970" lon="0.3120990">
        <ele>1414.4</ele>
        <time>2020-07-25T10:13:46Z</time>
      </trkpt>
      <trkpt lat="42.9433140" lon="0.3119770">
        <ele>1413.2</ele>
        <time>2020-07-25T10:13:47Z</time>
      </trkpt>
      <trkpt lat="42.9431430" lon="0.3117530">
        <ele>1411.2</ele>
        <time>2020-07-25T10:13:49Z</time>
      </trkpt>
      <trkpt lat="42.9429840" lon="0.3115680">
        <ele>1409.2</ele>
        <time>2020-07-25T10:13:51Z</time>
      </trkpt>
      <trkpt lat="42.9428990" lon="0.3115010">
        <ele>1408.6</ele>
        <time>2020-07-25T10:13:52Z</time>
      </trkpt>
      <trkpt lat="42.9428090" lon="0.3114460">
        <ele>1407.8</ele>
        <time>2020-07-25T10:13:53Z</time>
      </trkpt>
      <trkpt lat="42.9427110" lon="0.3114270">
        <ele>1407.2</ele>
        <time>2020-07-25T10:13:54Z</time>
      </trkpt>
      <trkpt lat="42.9426280" lon="0.3114110">
        <ele>1406.4</ele>
        <time>2020-07-25T10:13:55Z</time>
      </trkpt>
      <trkpt lat="42.9425550" lon="0.3113580">
        <ele>1405.8</ele>
        <time>2020-07-25T10:13:56Z</time>
      </trkpt>
      <trkpt lat="42.9424990" lon="0.3112920">
        <ele>1405.6</ele>
        <time>2020-07-25T10:13:57Z</time>
      </trkpt>
      <trkpt lat="42.9424510" lon="0.3112090">
        <ele>1405.2</ele>
        <time>2020-07-25T10:13:58Z</time>
      </trkpt>
      <trkpt lat="42.9424110" lon="0.3109990">
        <ele>1404.6</ele>
        <time>2020-07-25T10:14:00Z</time>
      </trkpt>
      <trkpt lat="42.9424250" lon="0.3107500">
        <ele>1403.8</ele>
        <time>2020-07-25T10:14:02Z</time>
      </trkpt>
      <trkpt lat="42.9424450" lon="0.3106140">
        <ele>1403.0</ele>
        <time>2020-07-25T10:14:03Z</time>
      </trkpt>
      <trkpt lat="42.9424660" lon="0.3104730">
        <ele>1402.0</ele>
        <time>2020-07-25T10:14:04Z</time>
      </trkpt>
      <trkpt lat="42.9424860" lon="0.3103320">
        <ele>1400.8</ele>
        <time>2020-07-25T10:14:05Z</time>
      </trkpt>
      <trkpt lat="42.9425010" lon="0.3101890">
        <ele>1399.8</ele>
        <time>2020-07-25T10:14:06Z</time>
      </trkpt>
      <trkpt lat="42.9425330" lon="0.3098910">
        <ele>1398.4</ele>
        <time>2020-07-25T10:14:08Z</time>
      </trkpt>
      <trkpt lat="42.9425640" lon="0.3095780">
        <ele>1396.6</ele>
        <time>2020-07-25T10:14:10Z</time>
      </trkpt>
      <trkpt lat="42.9425750" lon="0.3094200">
        <ele>1395.2</ele>
        <time>2020-07-25T10:14:11Z</time>
      </trkpt>
      <trkpt lat="42.9425880" lon="0.3092560">
        <ele>1393.8</ele>
        <time>2020-07-25T10:14:12Z</time>
      </trkpt>
      <trkpt lat="42.9426130" lon="0.3090880">
        <ele>1392.6</ele>
        <time>2020-07-25T10:14:13Z</time>
      </trkpt>
      <trkpt lat="42.9426330" lon="0.3089090">
        <ele>1391.4</ele>
        <time>2020-07-25T10:14:14Z</time>
      </trkpt>
      <trkpt lat="42.9426560" lon="0.3087320">
        <ele>1390.2</ele>
        <time>2020-07-25T10:14:15Z</time>
      </trkpt>
      <trkpt lat="42.9426820" lon="0.3085580">
        <ele>1389.0</ele>
        <time>2020-07-25T10:14:16Z</time>
      </trkpt>
      <trkpt lat="42.9427080" lon="0.3083850">
        <ele>1388.0</ele>
        <time>2020-07-25T10:14:17Z</time>
      </trkpt>
      <trkpt lat="42.9427690" lon="0.3080660">
        <ele>1386.2</ele>
        <time>2020-07-25T10:14:19Z</time>
      </trkpt>
      <trkpt lat="42.9428100" lon="0.3079200">
        <ele>1385.0</ele>
        <time>2020-07-25T10:14:20Z</time>
      </trkpt>
      <trkpt lat="42.9428550" lon="0.3077830">
        <ele>1383.8</ele>
        <time>2020-07-25T10:14:21Z</time>
      </trkpt>
      <trkpt lat="42.9429360" lon="0.3075480">
        <ele>1382.4</ele>
        <time>2020-07-25T10:14:23Z</time>
      </trkpt>
      <trkpt lat="42.9429780" lon="0.3074380">
        <ele>1381.8</ele>
        <time>2020-07-25T10:14:24Z</time>
      </trkpt>
      <trkpt lat="42.9430180" lon="0.3073290">
        <ele>1381.4</ele>
        <time>2020-07-25T10:14:25Z</time>
      </trkpt>
      <trkpt lat="42.9430580" lon="0.3072220">
        <ele>1381.0</ele>
        <time>2020-07-25T10:14:26Z</time>
      </trkpt>
      <trkpt lat="42.9431250" lon="0.3070360">
        <ele>1379.4</ele>
        <time>2020-07-25T10:14:28Z</time>
      </trkpt>
      <trkpt lat="42.9431320" lon="0.3069480">
        <ele>1378.6</ele>
        <time>2020-07-25T10:14:29Z</time>
      </trkpt>
      <trkpt lat="42.9431200" lon="0.3068720">
        <ele>1377.8</ele>
        <time>2020-07-25T10:14:30Z</time>
      </trkpt>
      <trkpt lat="42.9429630" lon="0.3067660">
        <ele>1377.0</ele>
        <time>2020-07-25T10:14:32Z</time>
      </trkpt>
      <trkpt lat="42.9429080" lon="0.3067070">
        <ele>1376.8</ele>
        <time>2020-07-25T10:14:33Z</time>
      </trkpt>
      <trkpt lat="42.9428310" lon="0.3065230">
        <ele>1375.8</ele>
        <time>2020-07-25T10:14:35Z</time>
      </trkpt>
      <trkpt lat="42.9428160" lon="0.3064110">
        <ele>1375.2</ele>
        <time>2020-07-25T10:14:36Z</time>
      </trkpt>
      <trkpt lat="42.9428110" lon="0.3062920">
        <ele>1374.4</ele>
        <time>2020-07-25T10:14:37Z</time>
      </trkpt>
      <trkpt lat="42.9428100" lon="0.3061670">
        <ele>1373.4</ele>
        <time>2020-07-25T10:14:38Z</time>
      </trkpt>
      <trkpt lat="42.9428160" lon="0.3060430">
        <ele>1372.4</ele>
        <time>2020-07-25T10:14:39Z</time>
      </trkpt>
      <trkpt lat="42.9428310" lon="0.3058020">
        <ele>1370.6</ele>
        <time>2020-07-25T10:14:41Z</time>
      </trkpt>
      <trkpt lat="42.9428360" lon="0.3056850">
        <ele>1369.8</ele>
        <time>2020-07-25T10:14:42Z</time>
      </trkpt>
      <trkpt lat="42.9428370" lon="0.3055800">
        <ele>1369.2</ele>
        <time>2020-07-25T10:14:43Z</time>
      </trkpt>
      <trkpt lat="42.9427740" lon="0.3054000">
        <ele>1367.8</ele>
        <time>2020-07-25T10:14:45Z</time>
      </trkpt>
      <trkpt lat="42.9426470" lon="0.3053260">
        <ele>1366.2</ele>
        <time>2020-07-25T10:14:47Z</time>
      </trkpt>
      <trkpt lat="42.9425730" lon="0.3053130">
        <ele>1365.4</ele>
        <time>2020-07-25T10:14:48Z</time>
      </trkpt>
      <trkpt lat="42.9424950" lon="0.3052930">
        <ele>1364.6</ele>
        <time>2020-07-25T10:14:49Z</time>
      </trkpt>
      <trkpt lat="42.9423570" lon="0.3051770">
        <ele>1363.4</ele>
        <time>2020-07-25T10:14:51Z</time>
      </trkpt>
      <trkpt lat="42.9422580" lon="0.3050070">
        <ele>1362.6</ele>
        <time>2020-07-25T10:14:53Z</time>
      </trkpt>
      <trkpt lat="42.9422370" lon="0.3049060">
        <ele>1362.2</ele>
        <time>2020-07-25T10:14:54Z</time>
      </trkpt>
      <trkpt lat="42.9422290" lon="0.3047990">
        <ele>1361.6</ele>
        <time>2020-07-25T10:14:55Z</time>
      </trkpt>
      <trkpt lat="42.9421990" lon="0.3046810">
        <ele>1360.8</ele>
        <time>2020-07-25T10:14:56Z</time>
      </trkpt>
      <trkpt lat="42.9421490" lon="0.3045610">
        <ele>1360.2</ele>
        <time>2020-07-25T10:14:57Z</time>
      </trkpt>
      <trkpt lat="42.9420930" lon="0.3044440">
        <ele>1359.6</ele>
        <time>2020-07-25T10:14:58Z</time>
      </trkpt>
      <trkpt lat="42.9419770" lon="0.3041870">
        <ele>1357.8</ele>
        <time>2020-07-25T10:15:00Z</time>
      </trkpt>
      <trkpt lat="42.9419310" lon="0.3040580">
        <ele>1356.4</ele>
        <time>2020-07-25T10:15:01Z</time>
      </trkpt>
      <trkpt lat="42.9418840" lon="0.3039220">
        <ele>1355.0</ele>
        <time>2020-07-25T10:15:02Z</time>
      </trkpt>
      <trkpt lat="42.9417850" lon="0.3036310">
        <ele>1353.2</ele>
        <time>2020-07-25T10:15:04Z</time>
      </trkpt>
      <trkpt lat="42.9417250" lon="0.3034930">
        <ele>1352.2</ele>
        <time>2020-07-25T10:15:05Z</time>
      </trkpt>
      <trkpt lat="42.9416590" lon="0.3033670">
        <ele>1351.2</ele>
        <time>2020-07-25T10:15:06Z</time>
      </trkpt>
      <trkpt lat="42.9415400" lon="0.3030970">
        <ele>1349.2</ele>
        <time>2020-07-25T10:15:08Z</time>
      </trkpt>
      <trkpt lat="42.9415020" lon="0.3029530">
        <ele>1348.2</ele>
        <time>2020-07-25T10:15:09Z</time>
      </trkpt>
      <trkpt lat="42.9414710" lon="0.3028140">
        <ele>1347.2</ele>
        <time>2020-07-25T10:15:10Z</time>
      </trkpt>
      <trkpt lat="42.9414410" lon="0.3026830">
        <ele>1346.6</ele>
        <time>2020-07-25T10:15:11Z</time>
      </trkpt>
      <trkpt lat="42.9414040" lon="0.3025610">
        <ele>1345.6</ele>
        <time>2020-07-25T10:15:12Z</time>
      </trkpt>
      <trkpt lat="42.9413540" lon="0.3024510">
        <ele>1344.4</ele>
        <time>2020-07-25T10:15:13Z</time>
      </trkpt>
      <trkpt lat="42.9412970" lon="0.3023540">
        <ele>1343.4</ele>
        <time>2020-07-25T10:15:14Z</time>
      </trkpt>
      <trkpt lat="42.9411730" lon="0.3021770">
        <ele>1342.0</ele>
        <time>2020-07-25T10:15:16Z</time>
      </trkpt>
      <trkpt lat="42.9411070" lon="0.3021030">
        <ele>1341.2</ele>
        <time>2020-07-25T10:15:17Z</time>
      </trkpt>
      <trkpt lat="42.9410210" lon="0.3020560">
        <ele>1340.2</ele>
        <time>2020-07-25T10:15:18Z</time>
      </trkpt>
      <trkpt lat="42.9409410" lon="0.3020200">
        <ele>1339.0</ele>
        <time>2020-07-25T10:15:19Z</time>
      </trkpt>
      <trkpt lat="42.9408600" lon="0.3019750">
        <ele>1338.0</ele>
        <time>2020-07-25T10:15:20Z</time>
      </trkpt>
      <trkpt lat="42.9407820" lon="0.3019160">
        <ele>1336.8</ele>
        <time>2020-07-25T10:15:21Z</time>
      </trkpt>
      <trkpt lat="42.9407100" lon="0.3018380">
        <ele>1336.0</ele>
        <time>2020-07-25T10:15:22Z</time>
      </trkpt>
      <trkpt lat="42.9406400" lon="0.3017450">
        <ele>1335.4</ele>
        <time>2020-07-25T10:15:23Z</time>
      </trkpt>
      <trkpt lat="42.9405750" lon="0.3016450">
        <ele>1334.6</ele>
        <time>2020-07-25T10:15:24Z</time>
      </trkpt>
      <trkpt lat="42.9405110" lon="0.3015300">
        <ele>1333.6</ele>
        <time>2020-07-25T10:15:25Z</time>
      </trkpt>
      <trkpt lat="42.9404660" lon="0.3014060">
        <ele>1332.6</ele>
        <time>2020-07-25T10:15:26Z</time>
      </trkpt>
      <trkpt lat="42.9404250" lon="0.3012750">
        <ele>1331.4</ele>
        <time>2020-07-25T10:15:27Z</time>
      </trkpt>
      <trkpt lat="42.9403790" lon="0.3011520">
        <ele>1330.4</ele>
        <time>2020-07-25T10:15:28Z</time>
      </trkpt>
      <trkpt lat="42.9403280" lon="0.3010350">
        <ele>1329.2</ele>
        <time>2020-07-25T10:15:29Z</time>
      </trkpt>
      <trkpt lat="42.9402630" lon="0.3009160">
        <ele>1328.2</ele>
        <time>2020-07-25T10:15:30Z</time>
      </trkpt>
      <trkpt lat="42.9402020" lon="0.3007930">
        <ele>1327.4</ele>
        <time>2020-07-25T10:15:31Z</time>
      </trkpt>
      <trkpt lat="42.9401510" lon="0.3006810">
        <ele>1326.8</ele>
        <time>2020-07-25T10:15:32Z</time>
      </trkpt>
      <trkpt lat="42.9401020" lon="0.3005690">
        <ele>1326.0</ele>
        <time>2020-07-25T10:15:33Z</time>
      </trkpt>
      <trkpt lat="42.9400530" lon="0.3004530">
        <ele>1325.0</ele>
        <time>2020-07-25T10:15:34Z</time>
      </trkpt>
      <trkpt lat="42.9400080" lon="0.3003570">
        <ele>1324.0</ele>
        <time>2020-07-25T10:15:35Z</time>
      </trkpt>
      <trkpt lat="42.9399380" lon="0.3002940">
        <ele>1323.0</ele>
        <time>2020-07-25T10:15:36Z</time>
      </trkpt>
      <trkpt lat="42.9398540" lon="0.3002610">
        <ele>1322.2</ele>
        <time>2020-07-25T10:15:37Z</time>
      </trkpt>
      <trkpt lat="42.9397710" lon="0.3002410">
        <ele>1321.4</ele>
        <time>2020-07-25T10:15:38Z</time>
      </trkpt>
      <trkpt lat="42.9396410" lon="0.3001890">
        <ele>1320.2</ele>
        <time>2020-07-25T10:15:40Z</time>
      </trkpt>
      <trkpt lat="42.9395620" lon="0.3000520">
        <ele>1319.0</ele>
        <time>2020-07-25T10:15:42Z</time>
      </trkpt>
      <trkpt lat="42.9395310" lon="0.2998460">
        <ele>1318.0</ele>
        <time>2020-07-25T10:15:44Z</time>
      </trkpt>
      <trkpt lat="42.9395280" lon="0.2997280">
        <ele>1317.4</ele>
        <time>2020-07-25T10:15:45Z</time>
      </trkpt>
      <trkpt lat="42.9395280" lon="0.2996120">
        <ele>1316.4</ele>
        <time>2020-07-25T10:15:46Z</time>
      </trkpt>
      <trkpt lat="42.9395220" lon="0.2994960">
        <ele>1315.4</ele>
        <time>2020-07-25T10:15:47Z</time>
      </trkpt>
      <trkpt lat="42.9394600" lon="0.2992840">
        <ele>1313.6</ele>
        <time>2020-07-25T10:15:49Z</time>
      </trkpt>
      <trkpt lat="42.9393510" lon="0.2991110">
        <ele>1311.8</ele>
        <time>2020-07-25T10:15:51Z</time>
      </trkpt>
      <trkpt lat="42.9392200" lon="0.2989640">
        <ele>1310.2</ele>
        <time>2020-07-25T10:15:53Z</time>
      </trkpt>
      <trkpt lat="42.9391740" lon="0.2988780">
        <ele>1309.8</ele>
        <time>2020-07-25T10:15:54Z</time>
      </trkpt>
      <trkpt lat="42.9391260" lon="0.2986700">
        <ele>1309.0</ele>
        <time>2020-07-25T10:15:56Z</time>
      </trkpt>
      <trkpt lat="42.9391300" lon="0.2984320">
        <ele>1306.8</ele>
        <time>2020-07-25T10:15:58Z</time>
      </trkpt>
      <trkpt lat="42.9391490" lon="0.2983090">
        <ele>1305.6</ele>
        <time>2020-07-25T10:15:59Z</time>
      </trkpt>
      <trkpt lat="42.9392090" lon="0.2980580">
        <ele>1303.8</ele>
        <time>2020-07-25T10:16:01Z</time>
      </trkpt>
      <trkpt lat="42.9392920" lon="0.2977980">
        <ele>1302.0</ele>
        <time>2020-07-25T10:16:03Z</time>
      </trkpt>
      <trkpt lat="42.9393830" lon="0.2975240">
        <ele>1300.2</ele>
        <time>2020-07-25T10:16:05Z</time>
      </trkpt>
      <trkpt lat="42.9394810" lon="0.2972570">
        <ele>1298.6</ele>
        <time>2020-07-25T10:16:07Z</time>
      </trkpt>
      <trkpt lat="42.9396030" lon="0.2970040">
        <ele>1297.0</ele>
        <time>2020-07-25T10:16:09Z</time>
      </trkpt>
      <trkpt lat="42.9397580" lon="0.2967810">
        <ele>1295.6</ele>
        <time>2020-07-25T10:16:11Z</time>
      </trkpt>
      <trkpt lat="42.9398440" lon="0.2966940">
        <ele>1294.4</ele>
        <time>2020-07-25T10:16:12Z</time>
      </trkpt>
      <trkpt lat="42.9399300" lon="0.2966220">
        <ele>1293.0</ele>
        <time>2020-07-25T10:16:13Z</time>
      </trkpt>
      <trkpt lat="42.9400160" lon="0.2965710">
        <ele>1292.0</ele>
        <time>2020-07-25T10:16:14Z</time>
      </trkpt>
      <trkpt lat="42.9401860" lon="0.2965040">
        <ele>1290.4</ele>
        <time>2020-07-25T10:16:16Z</time>
      </trkpt>
      <trkpt lat="42.9403180" lon="0.2964020">
        <ele>1288.6</ele>
        <time>2020-07-25T10:16:18Z</time>
      </trkpt>
      <trkpt lat="42.9403510" lon="0.2963140">
        <ele>1288.0</ele>
        <time>2020-07-25T10:16:19Z</time>
      </trkpt>
      <trkpt lat="42.9403800" lon="0.2962270">
        <ele>1287.6</ele>
        <time>2020-07-25T10:16:20Z</time>
      </trkpt>
      <trkpt lat="42.9404240" lon="0.2960100">
        <ele>1286.8</ele>
        <time>2020-07-25T10:16:22Z</time>
      </trkpt>
      <trkpt lat="42.9404550" lon="0.2958950">
        <ele>1286.0</ele>
        <time>2020-07-25T10:16:23Z</time>
      </trkpt>
      <trkpt lat="42.9404940" lon="0.2957770">
        <ele>1285.2</ele>
        <time>2020-07-25T10:16:24Z</time>
      </trkpt>
      <trkpt lat="42.9405430" lon="0.2956590">
        <ele>1284.4</ele>
        <time>2020-07-25T10:16:25Z</time>
      </trkpt>
      <trkpt lat="42.9405950" lon="0.2955370">
        <ele>1283.8</ele>
        <time>2020-07-25T10:16:26Z</time>
      </trkpt>
      <trkpt lat="42.9406500" lon="0.2954120">
        <ele>1283.0</ele>
        <time>2020-07-25T10:16:27Z</time>
      </trkpt>
      <trkpt lat="42.9407080" lon="0.2952830">
        <ele>1282.0</ele>
        <time>2020-07-25T10:16:28Z</time>
      </trkpt>
      <trkpt lat="42.9407660" lon="0.2951480">
        <ele>1281.0</ele>
        <time>2020-07-25T10:16:29Z</time>
      </trkpt>
      <trkpt lat="42.9408240" lon="0.2950050">
        <ele>1279.8</ele>
        <time>2020-07-25T10:16:30Z</time>
      </trkpt>
      <trkpt lat="42.9408790" lon="0.2948580">
        <ele>1278.6</ele>
        <time>2020-07-25T10:16:31Z</time>
      </trkpt>
      <trkpt lat="42.9409280" lon="0.2947120">
        <ele>1277.4</ele>
        <time>2020-07-25T10:16:32Z</time>
      </trkpt>
      <trkpt lat="42.9409820" lon="0.2945690">
        <ele>1276.0</ele>
        <time>2020-07-25T10:16:33Z</time>
      </trkpt>
      <trkpt lat="42.9410290" lon="0.2944150">
        <ele>1274.6</ele>
        <time>2020-07-25T10:16:34Z</time>
      </trkpt>
      <trkpt lat="42.9410860" lon="0.2942650">
        <ele>1273.4</ele>
        <time>2020-07-25T10:16:35Z</time>
      </trkpt>
      <trkpt lat="42.9411530" lon="0.2941260">
        <ele>1272.2</ele>
        <time>2020-07-25T10:16:36Z</time>
      </trkpt>
      <trkpt lat="42.9412330" lon="0.2939960">
        <ele>1271.2</ele>
        <time>2020-07-25T10:16:37Z</time>
      </trkpt>
      <trkpt lat="42.9413930" lon="0.2937490">
        <ele>1269.2</ele>
        <time>2020-07-25T10:16:39Z</time>
      </trkpt>
      <trkpt lat="42.9414680" lon="0.2936280">
        <ele>1268.2</ele>
        <time>2020-07-25T10:16:40Z</time>
      </trkpt>
      <trkpt lat="42.9416370" lon="0.2934330">
        <ele>1266.4</ele>
        <time>2020-07-25T10:16:42Z</time>
      </trkpt>
      <trkpt lat="42.9418030" lon="0.2932480">
        <ele>1265.0</ele>
        <time>2020-07-25T10:16:44Z</time>
      </trkpt>
      <trkpt lat="42.9418860" lon="0.2931580">
        <ele>1264.2</ele>
        <time>2020-07-25T10:16:45Z</time>
      </trkpt>
      <trkpt lat="42.9419700" lon="0.2930780">
        <ele>1262.6</ele>
        <time>2020-07-25T10:16:46Z</time>
      </trkpt>
      <trkpt lat="42.9420680" lon="0.2930310">
        <ele>1261.2</ele>
        <time>2020-07-25T10:16:47Z</time>
      </trkpt>
      <trkpt lat="42.9422450" lon="0.2929460">
        <ele>1260.0</ele>
        <time>2020-07-25T10:16:49Z</time>
      </trkpt>
      <trkpt lat="42.9423930" lon="0.2928810">
        <ele>1258.6</ele>
        <time>2020-07-25T10:16:51Z</time>
      </trkpt>
      <trkpt lat="42.9424610" lon="0.2928310">
        <ele>1257.6</ele>
        <time>2020-07-25T10:16:52Z</time>
      </trkpt>
      <trkpt lat="42.9425150" lon="0.2927550">
        <ele>1256.8</ele>
        <time>2020-07-25T10:16:53Z</time>
      </trkpt>
      <trkpt lat="42.9425540" lon="0.2926710">
        <ele>1256.2</ele>
        <time>2020-07-25T10:16:54Z</time>
      </trkpt>
      <trkpt lat="42.9425560" lon="0.2925760">
        <ele>1255.8</ele>
        <time>2020-07-25T10:16:55Z</time>
      </trkpt>
      <trkpt lat="42.9425480" lon="0.2924950">
        <ele>1255.2</ele>
        <time>2020-07-25T10:16:56Z</time>
      </trkpt>
      <trkpt lat="42.9425060" lon="0.2924330">
        <ele>1254.6</ele>
        <time>2020-07-25T10:16:57Z</time>
      </trkpt>
      <trkpt lat="42.9424460" lon="0.2924090">
        <ele>1254.2</ele>
        <time>2020-07-25T10:16:58Z</time>
      </trkpt>
      <trkpt lat="42.9423770" lon="0.2924130">
        <ele>1253.6</ele>
        <time>2020-07-25T10:16:59Z</time>
      </trkpt>
      <trkpt lat="42.9422960" lon="0.2924250">
        <ele>1253.2</ele>
        <time>2020-07-25T10:17:00Z</time>
      </trkpt>
      <trkpt lat="42.9422100" lon="0.2924420">
        <ele>1253.0</ele>
        <time>2020-07-25T10:17:01Z</time>
      </trkpt>
      <trkpt lat="42.9419230" lon="0.2925020">
        <ele>1251.6</ele>
        <time>2020-07-25T10:17:04Z</time>
      </trkpt>
      <trkpt lat="42.9418200" lon="0.2925280">
        <ele>1250.8</ele>
        <time>2020-07-25T10:17:05Z</time>
      </trkpt>
      <trkpt lat="42.9417130" lon="0.2925650">
        <ele>1250.0</ele>
        <time>2020-07-25T10:17:06Z</time>
      </trkpt>
      <trkpt lat="42.9416010" lon="0.2926000">
        <ele>1249.2</ele>
        <time>2020-07-25T10:17:07Z</time>
      </trkpt>
      <trkpt lat="42.9414860" lon="0.2926400">
        <ele>1248.8</ele>
        <time>2020-07-25T10:17:08Z</time>
      </trkpt>
      <trkpt lat="42.9412590" lon="0.2927310">
        <ele>1246.4</ele>
        <time>2020-07-25T10:17:10Z</time>
      </trkpt>
      <trkpt lat="42.9411460" lon="0.2927760">
        <ele>1244.8</ele>
        <time>2020-07-25T10:17:11Z</time>
      </trkpt>
      <trkpt lat="42.9410360" lon="0.2928300">
        <ele>1243.4</ele>
        <time>2020-07-25T10:17:12Z</time>
      </trkpt>
      <trkpt lat="42.9409290" lon="0.2928880">
        <ele>1242.2</ele>
        <time>2020-07-25T10:17:13Z</time>
      </trkpt>
      <trkpt lat="42.9408270" lon="0.2929500">
        <ele>1241.0</ele>
        <time>2020-07-25T10:17:14Z</time>
      </trkpt>
      <trkpt lat="42.9407340" lon="0.2930260">
        <ele>1240.0</ele>
        <time>2020-07-25T10:17:15Z</time>
      </trkpt>
      <trkpt lat="42.9405920" lon="0.2931770">
        <ele>1238.4</ele>
        <time>2020-07-25T10:17:17Z</time>
      </trkpt>
      <trkpt lat="42.9404830" lon="0.2932590">
        <ele>1237.4</ele>
        <time>2020-07-25T10:17:19Z</time>
      </trkpt>
      <trkpt lat="42.9404270" lon="0.2932520">
        <ele>1237.0</ele>
        <time>2020-07-25T10:17:20Z</time>
      </trkpt>
      <trkpt lat="42.9403990" lon="0.2931950">
        <ele>1236.4</ele>
        <time>2020-07-25T10:17:21Z</time>
      </trkpt>
      <trkpt lat="42.9403970" lon="0.2931200">
        <ele>1235.8</ele>
        <time>2020-07-25T10:17:22Z</time>
      </trkpt>
      <trkpt lat="42.9404490" lon="0.2930550">
        <ele>1235.2</ele>
        <time>2020-07-25T10:17:23Z</time>
      </trkpt>
      <trkpt lat="42.9405050" lon="0.2929780">
        <ele>1234.4</ele>
        <time>2020-07-25T10:17:24Z</time>
      </trkpt>
      <trkpt lat="42.9406370" lon="0.2928300">
        <ele>1233.2</ele>
        <time>2020-07-25T10:17:26Z</time>
      </trkpt>
      <trkpt lat="42.9407700" lon="0.2926500">
        <ele>1232.2</ele>
        <time>2020-07-25T10:17:28Z</time>
      </trkpt>
      <trkpt lat="42.9409050" lon="0.2924430">
        <ele>1230.4</ele>
        <time>2020-07-25T10:17:30Z</time>
      </trkpt>
      <trkpt lat="42.9409660" lon="0.2923290">
        <ele>1229.4</ele>
        <time>2020-07-25T10:17:31Z</time>
      </trkpt>
      <trkpt lat="42.9410250" lon="0.2922060">
        <ele>1228.4</ele>
        <time>2020-07-25T10:17:32Z</time>
      </trkpt>
      <trkpt lat="42.9410920" lon="0.2920850">
        <ele>1227.6</ele>
        <time>2020-07-25T10:17:33Z</time>
      </trkpt>
      <trkpt lat="42.9411580" lon="0.2919590">
        <ele>1226.8</ele>
        <time>2020-07-25T10:17:34Z</time>
      </trkpt>
      <trkpt lat="42.9412280" lon="0.2918320">
        <ele>1226.2</ele>
        <time>2020-07-25T10:17:35Z</time>
      </trkpt>
      <trkpt lat="42.9413720" lon="0.2915740">
        <ele>1223.8</ele>
        <time>2020-07-25T10:17:37Z</time>
      </trkpt>
      <trkpt lat="42.9414430" lon="0.2914450">
        <ele>1222.6</ele>
        <time>2020-07-25T10:17:38Z</time>
      </trkpt>
      <trkpt lat="42.9415120" lon="0.2913210">
        <ele>1221.4</ele>
        <time>2020-07-25T10:17:39Z</time>
      </trkpt>
      <trkpt lat="42.9415850" lon="0.2912010">
        <ele>1220.4</ele>
        <time>2020-07-25T10:17:40Z</time>
      </trkpt>
      <trkpt lat="42.9417480" lon="0.2909860">
        <ele>1218.6</ele>
        <time>2020-07-25T10:17:42Z</time>
      </trkpt>
      <trkpt lat="42.9419100" lon="0.2907810">
        <ele>1217.0</ele>
        <time>2020-07-25T10:17:44Z</time>
      </trkpt>
      <trkpt lat="42.9420830" lon="0.2906120">
        <ele>1215.6</ele>
        <time>2020-07-25T10:17:46Z</time>
      </trkpt>
      <trkpt lat="42.9421730" lon="0.2905460">
        <ele>1214.6</ele>
        <time>2020-07-25T10:17:47Z</time>
      </trkpt>
      <trkpt lat="42.9422660" lon="0.2904930">
        <ele>1213.4</ele>
        <time>2020-07-25T10:17:48Z</time>
      </trkpt>
      <trkpt lat="42.9423620" lon="0.2904570">
        <ele>1212.4</ele>
        <time>2020-07-25T10:17:49Z</time>
      </trkpt>
      <trkpt lat="42.9425520" lon="0.2904250">
        <ele>1210.6</ele>
        <time>2020-07-25T10:17:51Z</time>
      </trkpt>
      <trkpt lat="42.9427070" lon="0.2903990">
        <ele>1209.0</ele>
        <time>2020-07-25T10:17:53Z</time>
      </trkpt>
      <trkpt lat="42.9427920" lon="0.2903270">
        <ele>1208.4</ele>
        <time>2020-07-25T10:17:55Z</time>
      </trkpt>
      <trkpt lat="42.9427870" lon="0.2902400">
        <ele>1207.8</ele>
        <time>2020-07-25T10:17:56Z</time>
      </trkpt>
      <trkpt lat="42.9427780" lon="0.2901760">
        <ele>1207.2</ele>
        <time>2020-07-25T10:17:57Z</time>
      </trkpt>
      <trkpt lat="42.9426710" lon="0.2901140">
        <ele>1206.4</ele>
        <time>2020-07-25T10:17:59Z</time>
      </trkpt>
      <trkpt lat="42.9425870" lon="0.2901150">
        <ele>1206.0</ele>
        <time>2020-07-25T10:18:00Z</time>
      </trkpt>
      <trkpt lat="42.9424910" lon="0.2901100">
        <ele>1205.6</ele>
        <time>2020-07-25T10:18:01Z</time>
      </trkpt>
      <trkpt lat="42.9423920" lon="0.2901160">
        <ele>1205.0</ele>
        <time>2020-07-25T10:18:02Z</time>
      </trkpt>
      <trkpt lat="42.9423030" lon="0.2901210">
        <ele>1204.4</ele>
        <time>2020-07-25T10:18:03Z</time>
      </trkpt>
      <trkpt lat="42.9422140" lon="0.2901260">
        <ele>1203.4</ele>
        <time>2020-07-25T10:18:04Z</time>
      </trkpt>
      <trkpt lat="42.9420230" lon="0.2901290">
        <ele>1202.2</ele>
        <time>2020-07-25T10:18:06Z</time>
      </trkpt>
      <trkpt lat="42.9418150" lon="0.2901140">
        <ele>1200.6</ele>
        <time>2020-07-25T10:18:08Z</time>
      </trkpt>
      <trkpt lat="42.9417030" lon="0.2901000">
        <ele>1199.8</ele>
        <time>2020-07-25T10:18:09Z</time>
      </trkpt>
      <trkpt lat="42.9415890" lon="0.2900840">
        <ele>1199.0</ele>
        <time>2020-07-25T10:18:10Z</time>
      </trkpt>
      <trkpt lat="42.9413620" lon="0.2900770">
        <ele>1197.0</ele>
        <time>2020-07-25T10:18:12Z</time>
      </trkpt>
      <trkpt lat="42.9412620" lon="0.2900870">
        <ele>1195.8</ele>
        <time>2020-07-25T10:18:13Z</time>
      </trkpt>
      <trkpt lat="42.9411750" lon="0.2901060">
        <ele>1195.0</ele>
        <time>2020-07-25T10:18:14Z</time>
      </trkpt>
      <trkpt lat="42.9410960" lon="0.2901310">
        <ele>1194.2</ele>
        <time>2020-07-25T10:18:15Z</time>
      </trkpt>
      <trkpt lat="42.9409590" lon="0.2902350">
        <ele>1192.6</ele>
        <time>2020-07-25T10:18:17Z</time>
      </trkpt>
      <trkpt lat="42.9408110" lon="0.2904370">
        <ele>1191.2</ele>
        <time>2020-07-25T10:18:20Z</time>
      </trkpt>
      <trkpt lat="42.9407260" lon="0.2904500">
        <ele>1189.8</ele>
        <time>2020-07-25T10:18:22Z</time>
      </trkpt>
      <trkpt lat="42.9406800" lon="0.2903710">
        <ele>1189.2</ele>
        <time>2020-07-25T10:18:23Z</time>
      </trkpt>
      <trkpt lat="42.9406820" lon="0.2902870">
        <ele>1188.4</ele>
        <time>2020-07-25T10:18:24Z</time>
      </trkpt>
      <trkpt lat="42.9407040" lon="0.2901870">
        <ele>1187.6</ele>
        <time>2020-07-25T10:18:25Z</time>
      </trkpt>
      <trkpt lat="42.9407380" lon="0.2900820">
        <ele>1186.8</ele>
        <time>2020-07-25T10:18:26Z</time>
      </trkpt>
      <trkpt lat="42.9408110" lon="0.2898540">
        <ele>1185.2</ele>
        <time>2020-07-25T10:18:28Z</time>
      </trkpt>
      <trkpt lat="42.9408480" lon="0.2897320">
        <ele>1184.4</ele>
        <time>2020-07-25T10:18:29Z</time>
      </trkpt>
      <trkpt lat="42.9408950" lon="0.2896120">
        <ele>1183.4</ele>
        <time>2020-07-25T10:18:30Z</time>
      </trkpt>
      <trkpt lat="42.9410050" lon="0.2893740">
        <ele>1181.8</ele>
        <time>2020-07-25T10:18:32Z</time>
      </trkpt>
      <trkpt lat="42.9410750" lon="0.2892680">
        <ele>1180.8</ele>
        <time>2020-07-25T10:18:33Z</time>
      </trkpt>
      <trkpt lat="42.9411510" lon="0.2891730">
        <ele>1179.4</ele>
        <time>2020-07-25T10:18:34Z</time>
      </trkpt>
      <trkpt lat="42.9412290" lon="0.2890840">
        <ele>1178.2</ele>
        <time>2020-07-25T10:18:35Z</time>
      </trkpt>
      <trkpt lat="42.9413130" lon="0.2890060">
        <ele>1177.4</ele>
        <time>2020-07-25T10:18:36Z</time>
      </trkpt>
      <trkpt lat="42.9414020" lon="0.2889320">
        <ele>1176.6</ele>
        <time>2020-07-25T10:18:37Z</time>
      </trkpt>
      <trkpt lat="42.9414970" lon="0.2888690">
        <ele>1175.6</ele>
        <time>2020-07-25T10:18:38Z</time>
      </trkpt>
      <trkpt lat="42.9416080" lon="0.2888230">
        <ele>1174.4</ele>
        <time>2020-07-25T10:18:39Z</time>
      </trkpt>
      <trkpt lat="42.9417140" lon="0.2887690">
        <ele>1173.2</ele>
        <time>2020-07-25T10:18:40Z</time>
      </trkpt>
      <trkpt lat="42.9418220" lon="0.2887150">
        <ele>1172.2</ele>
        <time>2020-07-25T10:18:41Z</time>
      </trkpt>
      <trkpt lat="42.9419300" lon="0.2886600">
        <ele>1171.2</ele>
        <time>2020-07-25T10:18:42Z</time>
      </trkpt>
      <trkpt lat="42.9421470" lon="0.2885540">
        <ele>1169.2</ele>
        <time>2020-07-25T10:18:44Z</time>
      </trkpt>
      <trkpt lat="42.9423670" lon="0.2884730">
        <ele>1168.0</ele>
        <time>2020-07-25T10:18:46Z</time>
      </trkpt>
      <trkpt lat="42.9424820" lon="0.2884540">
        <ele>1167.2</ele>
        <time>2020-07-25T10:18:47Z</time>
      </trkpt>
      <trkpt lat="42.9426000" lon="0.2884470">
        <ele>1165.8</ele>
        <time>2020-07-25T10:18:48Z</time>
      </trkpt>
      <trkpt lat="42.9427200" lon="0.2884500">
        <ele>1164.4</ele>
        <time>2020-07-25T10:18:49Z</time>
      </trkpt>
      <trkpt lat="42.9428450" lon="0.2884640">
        <ele>1163.4</ele>
        <time>2020-07-25T10:18:50Z</time>
      </trkpt>
      <trkpt lat="42.9429700" lon="0.2884850">
        <ele>1162.4</ele>
        <time>2020-07-25T10:18:51Z</time>
      </trkpt>
      <trkpt lat="42.9430950" lon="0.2885100">
        <ele>1161.4</ele>
        <time>2020-07-25T10:18:52Z</time>
      </trkpt>
      <trkpt lat="42.9433340" lon="0.2885710">
        <ele>1159.4</ele>
        <time>2020-07-25T10:18:54Z</time>
      </trkpt>
      <trkpt lat="42.9434480" lon="0.2886150">
        <ele>1158.4</ele>
        <time>2020-07-25T10:18:55Z</time>
      </trkpt>
      <trkpt lat="42.9435580" lon="0.2886750">
        <ele>1157.2</ele>
        <time>2020-07-25T10:18:56Z</time>
      </trkpt>
      <trkpt lat="42.9436590" lon="0.2887510">
        <ele>1156.2</ele>
        <time>2020-07-25T10:18:57Z</time>
      </trkpt>
      <trkpt lat="42.9437500" lon="0.2888350">
        <ele>1155.6</ele>
        <time>2020-07-25T10:18:58Z</time>
      </trkpt>
      <trkpt lat="42.9438340" lon="0.2889160">
        <ele>1155.0</ele>
        <time>2020-07-25T10:18:59Z</time>
      </trkpt>
      <trkpt lat="42.9439120" lon="0.2889890">
        <ele>1154.4</ele>
        <time>2020-07-25T10:19:00Z</time>
      </trkpt>
      <trkpt lat="42.9440560" lon="0.2890900">
        <ele>1153.2</ele>
        <time>2020-07-25T10:19:02Z</time>
      </trkpt>
      <trkpt lat="42.9442010" lon="0.2890870">
        <ele>1151.8</ele>
        <time>2020-07-25T10:19:04Z</time>
      </trkpt>
      <trkpt lat="42.9442620" lon="0.2890320">
        <ele>1151.0</ele>
        <time>2020-07-25T10:19:05Z</time>
      </trkpt>
      <trkpt lat="42.9443100" lon="0.2889430">
        <ele>1150.4</ele>
        <time>2020-07-25T10:19:06Z</time>
      </trkpt>
      <trkpt lat="42.9443810" lon="0.2887240">
        <ele>1148.8</ele>
        <time>2020-07-25T10:19:08Z</time>
      </trkpt>
      <trkpt lat="42.9444020" lon="0.2886000">
        <ele>1147.6</ele>
        <time>2020-07-25T10:19:09Z</time>
      </trkpt>
      <trkpt lat="42.9444110" lon="0.2884680">
        <ele>1146.6</ele>
        <time>2020-07-25T10:19:10Z</time>
      </trkpt>
      <trkpt lat="42.9444080" lon="0.2883270">
        <ele>1145.8</ele>
        <time>2020-07-25T10:19:11Z</time>
      </trkpt>
      <trkpt lat="42.9444000" lon="0.2881880">
        <ele>1145.0</ele>
        <time>2020-07-25T10:19:12Z</time>
      </trkpt>
      <trkpt lat="42.9443800" lon="0.2880490">
        <ele>1144.2</ele>
        <time>2020-07-25T10:19:13Z</time>
      </trkpt>
      <trkpt lat="42.9443430" lon="0.2879130">
        <ele>1144.0</ele>
        <time>2020-07-25T10:19:14Z</time>
      </trkpt>
      <trkpt lat="42.9442950" lon="0.2877830">
        <ele>1143.4</ele>
        <time>2020-07-25T10:19:15Z</time>
      </trkpt>
      <trkpt lat="42.9441100" lon="0.2874270">
        <ele>1142.8</ele>
        <time>2020-07-25T10:19:18Z</time>
      </trkpt>
      <trkpt lat="42.9440420" lon="0.2873140">
        <ele>1142.8</ele>
        <time>2020-07-25T10:19:19Z</time>
      </trkpt>
      <trkpt lat="42.9439040" lon="0.2870910">
        <ele>1142.2</ele>
        <time>2020-07-25T10:19:21Z</time>
      </trkpt>
      <trkpt lat="42.9437810" lon="0.2868780">
        <ele>1141.0</ele>
        <time>2020-07-25T10:19:23Z</time>
      </trkpt>
      <trkpt lat="42.9437200" lon="0.2867740">
        <ele>1140.6</ele>
        <time>2020-07-25T10:19:24Z</time>
      </trkpt>
      <trkpt lat="42.9435440" lon="0.2864760">
        <ele>1139.8</ele>
        <time>2020-07-25T10:19:27Z</time>
      </trkpt>
      <trkpt lat="42.9434310" lon="0.2862850">
        <ele>1138.6</ele>
        <time>2020-07-25T10:19:29Z</time>
      </trkpt>
      <trkpt lat="42.9433240" lon="0.2860960">
        <ele>1137.6</ele>
        <time>2020-07-25T10:19:31Z</time>
      </trkpt>
      <trkpt lat="42.9432710" lon="0.2860030">
        <ele>1137.4</ele>
        <time>2020-07-25T10:19:32Z</time>
      </trkpt>
      <trkpt lat="42.9430200" lon="0.2855410">
        <ele>1136.4</ele>
        <time>2020-07-25T10:19:37Z</time>
      </trkpt>
      <trkpt lat="42.9429150" lon="0.2852160">
        <ele>1135.4</ele>
        <time>2020-07-25T10:19:40Z</time>
      </trkpt>
      <trkpt lat="42.9428560" lon="0.2847780">
        <ele>1134.2</ele>
        <time>2020-07-25T10:19:44Z</time>
      </trkpt>
      <trkpt lat="42.9428460" lon="0.2846720">
        <ele>1134.2</ele>
        <time>2020-07-25T10:19:45Z</time>
      </trkpt>
      <trkpt lat="42.9428350" lon="0.2842490">
        <ele>1134.2</ele>
        <time>2020-07-25T10:19:49Z</time>
      </trkpt>
      <trkpt lat="42.9428360" lon="0.2839180">
        <ele>1133.2</ele>
        <time>2020-07-25T10:19:52Z</time>
      </trkpt>
      <trkpt lat="42.9428340" lon="0.2837010">
        <ele>1132.2</ele>
        <time>2020-07-25T10:19:54Z</time>
      </trkpt>
      <trkpt lat="42.9428260" lon="0.2833780">
        <ele>1131.0</ele>
        <time>2020-07-25T10:19:57Z</time>
      </trkpt>
      <trkpt lat="42.9428100" lon="0.2830600">
        <ele>1130.6</ele>
        <time>2020-07-25T10:20:00Z</time>
      </trkpt>
      <trkpt lat="42.9428060" lon="0.2825300">
        <ele>1130.2</ele>
        <time>2020-07-25T10:20:05Z</time>
      </trkpt>
      <trkpt lat="42.9428180" lon="0.2824270">
        <ele>1129.8</ele>
        <time>2020-07-25T10:20:06Z</time>
      </trkpt>
      <trkpt lat="42.9428310" lon="0.2823250">
        <ele>1129.4</ele>
        <time>2020-07-25T10:20:07Z</time>
      </trkpt>
      <trkpt lat="42.9428720" lon="0.2821300">
        <ele>1128.8</ele>
        <time>2020-07-25T10:20:09Z</time>
      </trkpt>
      <trkpt lat="42.9429010" lon="0.2820380">
        <ele>1128.6</ele>
        <time>2020-07-25T10:20:10Z</time>
      </trkpt>
      <trkpt lat="42.9429740" lon="0.2818670">
        <ele>1128.4</ele>
        <time>2020-07-25T10:20:12Z</time>
      </trkpt>
      <trkpt lat="42.9432250" lon="0.2813860">
        <ele>1128.4</ele>
        <time>2020-07-25T10:20:18Z</time>
      </trkpt>
      <trkpt lat="42.9432970" lon="0.2812140">
        <ele>1128.2</ele>
        <time>2020-07-25T10:20:20Z</time>
      </trkpt>
      <trkpt lat="42.9433750" lon="0.2809340">
        <ele>1127.8</ele>
        <time>2020-07-25T10:20:23Z</time>
      </trkpt>
      <trkpt lat="42.9433970" lon="0.2808430">
        <ele>1127.8</ele>
        <time>2020-07-25T10:20:24Z</time>
      </trkpt>
      <trkpt lat="42.9434140" lon="0.2807490">
        <ele>1127.8</ele>
        <time>2020-07-25T10:20:25Z</time>
      </trkpt>
      <trkpt lat="42.9435210" lon="0.2801950">
        <ele>1127.4</ele>
        <time>2020-07-25T10:20:31Z</time>
      </trkpt>
      <trkpt lat="42.9435480" lon="0.2801070">
        <ele>1127.2</ele>
        <time>2020-07-25T10:20:32Z</time>
      </trkpt>
      <trkpt lat="42.9436250" lon="0.2798330">
        <ele>1126.4</ele>
        <time>2020-07-25T10:20:35Z</time>
      </trkpt>
      <trkpt lat="42.9436590" lon="0.2796470">
        <ele>1126.2</ele>
        <time>2020-07-25T10:20:37Z</time>
      </trkpt>
      <trkpt lat="42.9436670" lon="0.2795510">
        <ele>1126.2</ele>
        <time>2020-07-25T10:20:38Z</time>
      </trkpt>
      <trkpt lat="42.9436600" lon="0.2790490">
        <ele>1125.4</ele>
        <time>2020-07-25T10:20:43Z</time>
      </trkpt>
      <trkpt lat="42.9436500" lon="0.2789430">
        <ele>1125.0</ele>
        <time>2020-07-25T10:20:44Z</time>
      </trkpt>
      <trkpt lat="42.9436250" lon="0.2786210">
        <ele>1124.2</ele>
        <time>2020-07-25T10:20:47Z</time>
      </trkpt>
      <trkpt lat="42.9436130" lon="0.2781980">
        <ele>1123.2</ele>
        <time>2020-07-25T10:20:51Z</time>
      </trkpt>
      <trkpt lat="42.9436190" lon="0.2780960">
        <ele>1122.8</ele>
        <time>2020-07-25T10:20:52Z</time>
      </trkpt>
      <trkpt lat="42.9436600" lon="0.2777960">
        <ele>1122.4</ele>
        <time>2020-07-25T10:20:55Z</time>
      </trkpt>
      <trkpt lat="42.9437050" lon="0.2776070">
        <ele>1122.0</ele>
        <time>2020-07-25T10:20:57Z</time>
      </trkpt>
      <trkpt lat="42.9439000" lon="0.2770520">
        <ele>1121.8</ele>
        <time>2020-07-25T10:21:03Z</time>
      </trkpt>
      <trkpt lat="42.9439340" lon="0.2769540">
        <ele>1121.8</ele>
        <time>2020-07-25T10:21:04Z</time>
      </trkpt>
      <trkpt lat="42.9440610" lon="0.2766830">
        <ele>1121.4</ele>
        <time>2020-07-25T10:21:07Z</time>
      </trkpt>
      <trkpt lat="42.9441740" lon="0.2765330">
        <ele>1121.0</ele>
        <time>2020-07-25T10:21:09Z</time>
      </trkpt>
      <trkpt lat="42.9445030" lon="0.2761010">
        <ele>1121.2</ele>
        <time>2020-07-25T10:21:15Z</time>
      </trkpt>
      <trkpt lat="42.9445410" lon="0.2760160">
        <ele>1121.4</ele>
        <time>2020-07-25T10:21:16Z</time>
      </trkpt>
      <trkpt lat="42.9446500" lon="0.2756670">
        <ele>1122.0</ele>
        <time>2020-07-25T10:21:20Z</time>
      </trkpt>
      <trkpt lat="42.9446690" lon="0.2755780">
        <ele>1122.2</ele>
        <time>2020-07-25T10:21:21Z</time>
      </trkpt>
      <trkpt lat="42.9447610" lon="0.2750390">
        <ele>1121.0</ele>
        <time>2020-07-25T10:21:27Z</time>
      </trkpt>
      <trkpt lat="42.9448920" lon="0.2746640">
        <ele>1120.0</ele>
        <time>2020-07-25T10:21:31Z</time>
      </trkpt>
      <trkpt lat="42.9449290" lon="0.2745650">
        <ele>1119.6</ele>
        <time>2020-07-25T10:21:32Z</time>
      </trkpt>
      <trkpt lat="42.9451650" lon="0.2739750">
        <ele>1118.8</ele>
        <time>2020-07-25T10:21:38Z</time>
      </trkpt>
      <trkpt lat="42.9451940" lon="0.2738700">
        <ele>1118.6</ele>
        <time>2020-07-25T10:21:39Z</time>
      </trkpt>
      <trkpt lat="42.9452840" lon="0.2735650">
        <ele>1117.8</ele>
        <time>2020-07-25T10:21:42Z</time>
      </trkpt>
      <trkpt lat="42.9454650" lon="0.2729580">
        <ele>1117.2</ele>
        <time>2020-07-25T10:21:48Z</time>
      </trkpt>
      <trkpt lat="42.9456900" lon="0.2723740">
        <ele>1117.0</ele>
        <time>2020-07-25T10:21:54Z</time>
      </trkpt>
      <trkpt lat="42.9457370" lon="0.2722860">
        <ele>1116.8</ele>
        <time>2020-07-25T10:21:55Z</time>
      </trkpt>
      <trkpt lat="42.9457870" lon="0.2722030">
        <ele>1116.6</ele>
        <time>2020-07-25T10:21:56Z</time>
      </trkpt>
      <trkpt lat="42.9459730" lon="0.2720140">
        <ele>1116.4</ele>
        <time>2020-07-25T10:21:59Z</time>
      </trkpt>
      <trkpt lat="42.9462470" lon="0.2718690">
        <ele>1117.0</ele>
        <time>2020-07-25T10:22:03Z</time>
      </trkpt>
      <trkpt lat="42.9466140" lon="0.2715600">
        <ele>1117.2</ele>
        <time>2020-07-25T10:22:09Z</time>
      </trkpt>
      <trkpt lat="42.9469570" lon="0.2712210">
        <ele>1117.0</ele>
        <time>2020-07-25T10:22:15Z</time>
      </trkpt>
      <trkpt lat="42.9473310" lon="0.2709750">
        <ele>1117.6</ele>
        <time>2020-07-25T10:22:21Z</time>
      </trkpt>
      <trkpt lat="42.9474010" lon="0.2709460">
        <ele>1117.8</ele>
        <time>2020-07-25T10:22:22Z</time>
      </trkpt>
      <trkpt lat="42.9475850" lon="0.2708410">
        <ele>1117.6</ele>
        <time>2020-07-25T10:22:25Z</time>
      </trkpt>
      <trkpt lat="42.9477080" lon="0.2707910">
        <ele>1117.6</ele>
        <time>2020-07-25T10:22:27Z</time>
      </trkpt>
      <trkpt lat="42.9477720" lon="0.2707730">
        <ele>1117.6</ele>
        <time>2020-07-25T10:22:28Z</time>
      </trkpt>
      <trkpt lat="42.9481830" lon="0.2706570">
        <ele>1116.6</ele>
        <time>2020-07-25T10:22:34Z</time>
      </trkpt>
      <trkpt lat="42.9482540" lon="0.2706490">
        <ele>1116.2</ele>
        <time>2020-07-25T10:22:35Z</time>
      </trkpt>
      <trkpt lat="42.9483260" lon="0.2706380">
        <ele>1115.6</ele>
        <time>2020-07-25T10:22:36Z</time>
      </trkpt>
      <trkpt lat="42.9485380" lon="0.2706270">
        <ele>1114.4</ele>
        <time>2020-07-25T10:22:39Z</time>
      </trkpt>
      <trkpt lat="42.9486790" lon="0.2706210">
        <ele>1114.2</ele>
        <time>2020-07-25T10:22:41Z</time>
      </trkpt>
      <trkpt lat="42.9487520" lon="0.2706210">
        <ele>1114.0</ele>
        <time>2020-07-25T10:22:42Z</time>
      </trkpt>
      <trkpt lat="42.9488880" lon="0.2706080">
        <ele>1113.8</ele>
        <time>2020-07-25T10:22:44Z</time>
      </trkpt>
      <trkpt lat="42.9490220" lon="0.2705420">
        <ele>1113.6</ele>
        <time>2020-07-25T10:22:46Z</time>
      </trkpt>
      <trkpt lat="42.9490960" lon="0.2704920">
        <ele>1113.4</ele>
        <time>2020-07-25T10:22:47Z</time>
      </trkpt>
      <trkpt lat="42.9493010" lon="0.2702740">
        <ele>1112.0</ele>
        <time>2020-07-25T10:22:50Z</time>
      </trkpt>
      <trkpt lat="42.9494340" lon="0.2700850">
        <ele>1110.0</ele>
        <time>2020-07-25T10:22:52Z</time>
      </trkpt>
      <trkpt lat="42.9494970" lon="0.2699750">
        <ele>1108.8</ele>
        <time>2020-07-25T10:22:53Z</time>
      </trkpt>
      <trkpt lat="42.9495590" lon="0.2698580">
        <ele>1107.8</ele>
        <time>2020-07-25T10:22:54Z</time>
      </trkpt>
      <trkpt lat="42.9496220" lon="0.2697360">
        <ele>1107.0</ele>
        <time>2020-07-25T10:22:55Z</time>
      </trkpt>
      <trkpt lat="42.9496840" lon="0.2696120">
        <ele>1105.8</ele>
        <time>2020-07-25T10:22:56Z</time>
      </trkpt>
      <trkpt lat="42.9497450" lon="0.2694820">
        <ele>1104.6</ele>
        <time>2020-07-25T10:22:57Z</time>
      </trkpt>
      <trkpt lat="42.9498030" lon="0.2693470">
        <ele>1103.6</ele>
        <time>2020-07-25T10:22:58Z</time>
      </trkpt>
      <trkpt lat="42.9498980" lon="0.2690630">
        <ele>1102.2</ele>
        <time>2020-07-25T10:23:00Z</time>
      </trkpt>
      <trkpt lat="42.9499360" lon="0.2687770">
        <ele>1101.4</ele>
        <time>2020-07-25T10:23:02Z</time>
      </trkpt>
      <trkpt lat="42.9499310" lon="0.2686270">
        <ele>1101.0</ele>
        <time>2020-07-25T10:23:03Z</time>
      </trkpt>
      <trkpt lat="42.9499090" lon="0.2684660">
        <ele>1100.4</ele>
        <time>2020-07-25T10:23:04Z</time>
      </trkpt>
      <trkpt lat="42.9498920" lon="0.2683110">
        <ele>1099.8</ele>
        <time>2020-07-25T10:23:05Z</time>
      </trkpt>
      <trkpt lat="42.9498920" lon="0.2681680">
        <ele>1099.2</ele>
        <time>2020-07-25T10:23:06Z</time>
      </trkpt>
      <trkpt lat="42.9499160" lon="0.2680290">
        <ele>1098.6</ele>
        <time>2020-07-25T10:23:07Z</time>
      </trkpt>
      <trkpt lat="42.9499580" lon="0.2678990">
        <ele>1097.8</ele>
        <time>2020-07-25T10:23:08Z</time>
      </trkpt>
      <trkpt lat="42.9500330" lon="0.2677900">
        <ele>1096.4</ele>
        <time>2020-07-25T10:23:09Z</time>
      </trkpt>
      <trkpt lat="42.9501210" lon="0.2676870">
        <ele>1095.0</ele>
        <time>2020-07-25T10:23:10Z</time>
      </trkpt>
      <trkpt lat="42.9502210" lon="0.2676050">
        <ele>1093.6</ele>
        <time>2020-07-25T10:23:11Z</time>
      </trkpt>
      <trkpt lat="42.9503250" lon="0.2675190">
        <ele>1092.2</ele>
        <time>2020-07-25T10:23:12Z</time>
      </trkpt>
      <trkpt lat="42.9504310" lon="0.2674240">
        <ele>1091.2</ele>
        <time>2020-07-25T10:23:13Z</time>
      </trkpt>
      <trkpt lat="42.9505350" lon="0.2673190">
        <ele>1090.2</ele>
        <time>2020-07-25T10:23:14Z</time>
      </trkpt>
      <trkpt lat="42.9506450" lon="0.2672100">
        <ele>1089.0</ele>
        <time>2020-07-25T10:23:15Z</time>
      </trkpt>
      <trkpt lat="42.9507580" lon="0.2671040">
        <ele>1088.0</ele>
        <time>2020-07-25T10:23:16Z</time>
      </trkpt>
      <trkpt lat="42.9508740" lon="0.2670110">
        <ele>1086.8</ele>
        <time>2020-07-25T10:23:17Z</time>
      </trkpt>
      <trkpt lat="42.9509890" lon="0.2669320">
        <ele>1085.8</ele>
        <time>2020-07-25T10:23:18Z</time>
      </trkpt>
      <trkpt lat="42.9512010" lon="0.2667710">
        <ele>1084.2</ele>
        <time>2020-07-25T10:23:20Z</time>
      </trkpt>
      <trkpt lat="42.9512890" lon="0.2666710">
        <ele>1083.8</ele>
        <time>2020-07-25T10:23:21Z</time>
      </trkpt>
      <trkpt lat="42.9513600" lon="0.2665570">
        <ele>1083.2</ele>
        <time>2020-07-25T10:23:22Z</time>
      </trkpt>
      <trkpt lat="42.9514110" lon="0.2664330">
        <ele>1083.0</ele>
        <time>2020-07-25T10:23:23Z</time>
      </trkpt>
      <trkpt lat="42.9514840" lon="0.2660250">
        <ele>1082.6</ele>
        <time>2020-07-25T10:23:26Z</time>
      </trkpt>
      <trkpt lat="42.9514890" lon="0.2658780">
        <ele>1082.2</ele>
        <time>2020-07-25T10:23:27Z</time>
      </trkpt>
      <trkpt lat="42.9514890" lon="0.2654400">
        <ele>1080.8</ele>
        <time>2020-07-25T10:23:30Z</time>
      </trkpt>
      <trkpt lat="42.9515010" lon="0.2652940">
        <ele>1080.2</ele>
        <time>2020-07-25T10:23:31Z</time>
      </trkpt>
      <trkpt lat="42.9515280" lon="0.2651510">
        <ele>1079.4</ele>
        <time>2020-07-25T10:23:32Z</time>
      </trkpt>
      <trkpt lat="42.9516170" lon="0.2648650">
        <ele>1077.8</ele>
        <time>2020-07-25T10:23:34Z</time>
      </trkpt>
      <trkpt lat="42.9516840" lon="0.2647300">
        <ele>1076.8</ele>
        <time>2020-07-25T10:23:35Z</time>
      </trkpt>
      <trkpt lat="42.9517840" lon="0.2646160">
        <ele>1075.6</ele>
        <time>2020-07-25T10:23:36Z</time>
      </trkpt>
      <trkpt lat="42.9518760" lon="0.2645050">
        <ele>1074.6</ele>
        <time>2020-07-25T10:23:37Z</time>
      </trkpt>
      <trkpt lat="42.9520430" lon="0.2643040">
        <ele>1073.2</ele>
        <time>2020-07-25T10:23:39Z</time>
      </trkpt>
      <trkpt lat="42.9521810" lon="0.2640800">
        <ele>1071.6</ele>
        <time>2020-07-25T10:23:41Z</time>
      </trkpt>
      <trkpt lat="42.9522850" lon="0.2638300">
        <ele>1070.4</ele>
        <time>2020-07-25T10:23:43Z</time>
      </trkpt>
      <trkpt lat="42.9523640" lon="0.2635470">
        <ele>1068.8</ele>
        <time>2020-07-25T10:23:45Z</time>
      </trkpt>
      <trkpt lat="42.9524430" lon="0.2632770">
        <ele>1067.6</ele>
        <time>2020-07-25T10:23:47Z</time>
      </trkpt>
      <trkpt lat="42.9525050" lon="0.2630510">
        <ele>1066.4</ele>
        <time>2020-07-25T10:23:49Z</time>
      </trkpt>
      <trkpt lat="42.9526280" lon="0.2627070">
        <ele>1064.6</ele>
        <time>2020-07-25T10:23:52Z</time>
      </trkpt>
      <trkpt lat="42.9526770" lon="0.2625880">
        <ele>1063.4</ele>
        <time>2020-07-25T10:23:53Z</time>
      </trkpt>
      <trkpt lat="42.9527310" lon="0.2624700">
        <ele>1062.0</ele>
        <time>2020-07-25T10:23:54Z</time>
      </trkpt>
      <trkpt lat="42.9527850" lon="0.2623470">
        <ele>1060.8</ele>
        <time>2020-07-25T10:23:55Z</time>
      </trkpt>
      <trkpt lat="42.9528920" lon="0.2620960">
        <ele>1058.8</ele>
        <time>2020-07-25T10:23:57Z</time>
      </trkpt>
      <trkpt lat="42.9530110" lon="0.2618480">
        <ele>1057.0</ele>
        <time>2020-07-25T10:23:59Z</time>
      </trkpt>
      <trkpt lat="42.9530720" lon="0.2617230">
        <ele>1056.4</ele>
        <time>2020-07-25T10:24:00Z</time>
      </trkpt>
      <trkpt lat="42.9531340" lon="0.2615950">
        <ele>1055.8</ele>
        <time>2020-07-25T10:24:01Z</time>
      </trkpt>
      <trkpt lat="42.9532650" lon="0.2613460">
        <ele>1054.0</ele>
        <time>2020-07-25T10:24:03Z</time>
      </trkpt>
      <trkpt lat="42.9534620" lon="0.2609750">
        <ele>1052.6</ele>
        <time>2020-07-25T10:24:06Z</time>
      </trkpt>
      <trkpt lat="42.9535250" lon="0.2608520">
        <ele>1052.4</ele>
        <time>2020-07-25T10:24:07Z</time>
      </trkpt>
      <trkpt lat="42.9537330" lon="0.2605040">
        <ele>1051.6</ele>
        <time>2020-07-25T10:24:10Z</time>
      </trkpt>
      <trkpt lat="42.9538150" lon="0.2604050">
        <ele>1051.2</ele>
        <time>2020-07-25T10:24:11Z</time>
      </trkpt>
      <trkpt lat="42.9539070" lon="0.2603230">
        <ele>1050.8</ele>
        <time>2020-07-25T10:24:12Z</time>
      </trkpt>
      <trkpt lat="42.9540070" lon="0.2602550">
        <ele>1050.4</ele>
        <time>2020-07-25T10:24:13Z</time>
      </trkpt>
      <trkpt lat="42.9542090" lon="0.2601450">
        <ele>1049.2</ele>
        <time>2020-07-25T10:24:15Z</time>
      </trkpt>
      <trkpt lat="42.9543120" lon="0.2600970">
        <ele>1048.6</ele>
        <time>2020-07-25T10:24:16Z</time>
      </trkpt>
      <trkpt lat="42.9544160" lon="0.2600560">
        <ele>1048.0</ele>
        <time>2020-07-25T10:24:17Z</time>
      </trkpt>
      <trkpt lat="42.9545220" lon="0.2600170">
        <ele>1047.8</ele>
        <time>2020-07-25T10:24:18Z</time>
      </trkpt>
      <trkpt lat="42.9547330" lon="0.2599460">
        <ele>1047.2</ele>
        <time>2020-07-25T10:24:20Z</time>
      </trkpt>
      <trkpt lat="42.9548380" lon="0.2599210">
        <ele>1046.8</ele>
        <time>2020-07-25T10:24:21Z</time>
      </trkpt>
      <trkpt lat="42.9549370" lon="0.2598830">
        <ele>1046.4</ele>
        <time>2020-07-25T10:24:22Z</time>
      </trkpt>
      <trkpt lat="42.9550370" lon="0.2598440">
        <ele>1045.6</ele>
        <time>2020-07-25T10:24:23Z</time>
      </trkpt>
      <trkpt lat="42.9552470" lon="0.2597680">
        <ele>1044.4</ele>
        <time>2020-07-25T10:24:25Z</time>
      </trkpt>
      <trkpt lat="42.9555380" lon="0.2596100">
        <ele>1043.4</ele>
        <time>2020-07-25T10:24:28Z</time>
      </trkpt>
      <trkpt lat="42.9556110" lon="0.2595140">
        <ele>1043.4</ele>
        <time>2020-07-25T10:24:29Z</time>
      </trkpt>
      <trkpt lat="42.9557460" lon="0.2593140">
        <ele>1043.0</ele>
        <time>2020-07-25T10:24:31Z</time>
      </trkpt>
      <trkpt lat="42.9557970" lon="0.2591940">
        <ele>1042.4</ele>
        <time>2020-07-25T10:24:32Z</time>
      </trkpt>
      <trkpt lat="42.9558400" lon="0.2590720">
        <ele>1042.2</ele>
        <time>2020-07-25T10:24:33Z</time>
      </trkpt>
      <trkpt lat="42.9558760" lon="0.2589460">
        <ele>1041.6</ele>
        <time>2020-07-25T10:24:34Z</time>
      </trkpt>
      <trkpt lat="42.9559130" lon="0.2588250">
        <ele>1041.0</ele>
        <time>2020-07-25T10:24:35Z</time>
      </trkpt>
      <trkpt lat="42.9559890" lon="0.2585910">
        <ele>1039.8</ele>
        <time>2020-07-25T10:24:37Z</time>
      </trkpt>
      <trkpt lat="42.9561240" lon="0.2582850">
        <ele>1039.2</ele>
        <time>2020-07-25T10:24:40Z</time>
      </trkpt>
      <trkpt lat="42.9562860" lon="0.2580250">
        <ele>1038.8</ele>
        <time>2020-07-25T10:24:43Z</time>
      </trkpt>
      <trkpt lat="42.9564040" lon="0.2578630">
        <ele>1038.4</ele>
        <time>2020-07-25T10:24:45Z</time>
      </trkpt>
      <trkpt lat="42.9566100" lon="0.2576420">
        <ele>1037.0</ele>
        <time>2020-07-25T10:24:48Z</time>
      </trkpt>
      <trkpt lat="42.9567530" lon="0.2574980">
        <ele>1035.4</ele>
        <time>2020-07-25T10:24:50Z</time>
      </trkpt>
      <trkpt lat="42.9569000" lon="0.2573590">
        <ele>1034.6</ele>
        <time>2020-07-25T10:24:52Z</time>
      </trkpt>
      <trkpt lat="42.9569740" lon="0.2572960">
        <ele>1034.4</ele>
        <time>2020-07-25T10:24:53Z</time>
      </trkpt>
      <trkpt lat="42.9572580" lon="0.2570210">
        <ele>1033.6</ele>
        <time>2020-07-25T10:24:57Z</time>
      </trkpt>
      <trkpt lat="42.9573940" lon="0.2568750">
        <ele>1033.4</ele>
        <time>2020-07-25T10:24:59Z</time>
      </trkpt>
      <trkpt lat="42.9575270" lon="0.2567220">
        <ele>1033.0</ele>
        <time>2020-07-25T10:25:01Z</time>
      </trkpt>
      <trkpt lat="42.9577770" lon="0.2563920">
        <ele>1032.2</ele>
        <time>2020-07-25T10:25:05Z</time>
      </trkpt>
      <trkpt lat="42.9578420" lon="0.2563050">
        <ele>1032.0</ele>
        <time>2020-07-25T10:25:06Z</time>
      </trkpt>
      <trkpt lat="42.9580470" lon="0.2560440">
        <ele>1031.0</ele>
        <time>2020-07-25T10:25:09Z</time>
      </trkpt>
      <trkpt lat="42.9581890" lon="0.2558690">
        <ele>1030.2</ele>
        <time>2020-07-25T10:25:11Z</time>
      </trkpt>
      <trkpt lat="42.9582620" lon="0.2557820">
        <ele>1029.8</ele>
        <time>2020-07-25T10:25:12Z</time>
      </trkpt>
      <trkpt lat="42.9583370" lon="0.2556990">
        <ele>1029.4</ele>
        <time>2020-07-25T10:25:13Z</time>
      </trkpt>
      <trkpt lat="42.9584890" lon="0.2555400">
        <ele>1029.0</ele>
        <time>2020-07-25T10:25:15Z</time>
      </trkpt>
      <trkpt lat="42.9585670" lon="0.2554640">
        <ele>1028.8</ele>
        <time>2020-07-25T10:25:16Z</time>
      </trkpt>
      <trkpt lat="42.9586430" lon="0.2553870">
        <ele>1028.6</ele>
        <time>2020-07-25T10:25:17Z</time>
      </trkpt>
      <trkpt lat="42.9588600" lon="0.2551560">
        <ele>1028.6</ele>
        <time>2020-07-25T10:25:20Z</time>
      </trkpt>
      <trkpt lat="42.9589340" lon="0.2550830">
        <ele>1028.4</ele>
        <time>2020-07-25T10:25:21Z</time>
      </trkpt>
      <trkpt lat="42.9591630" lon="0.2548860">
        <ele>1027.6</ele>
        <time>2020-07-25T10:25:24Z</time>
      </trkpt>
      <trkpt lat="42.9593140" lon="0.2547570">
        <ele>1027.2</ele>
        <time>2020-07-25T10:25:26Z</time>
      </trkpt>
      <trkpt lat="42.9596110" lon="0.2544860">
        <ele>1026.6</ele>
        <time>2020-07-25T10:25:30Z</time>
      </trkpt>
      <trkpt lat="42.9598270" lon="0.2542470">
        <ele>1025.6</ele>
        <time>2020-07-25T10:25:33Z</time>
      </trkpt>
      <trkpt lat="42.9599020" lon="0.2541630">
        <ele>1025.2</ele>
        <time>2020-07-25T10:25:34Z</time>
      </trkpt>
      <trkpt lat="42.9601290" lon="0.2538960">
        <ele>1023.8</ele>
        <time>2020-07-25T10:25:37Z</time>
      </trkpt>
      <trkpt lat="42.9602770" lon="0.2536910">
        <ele>1023.4</ele>
        <time>2020-07-25T10:25:39Z</time>
      </trkpt>
      <trkpt lat="42.9604180" lon="0.2534700">
        <ele>1022.4</ele>
        <time>2020-07-25T10:25:41Z</time>
      </trkpt>
      <trkpt lat="42.9605660" lon="0.2532540">
        <ele>1021.0</ele>
        <time>2020-07-25T10:25:43Z</time>
      </trkpt>
      <trkpt lat="42.9606400" lon="0.2531450">
        <ele>1020.0</ele>
        <time>2020-07-25T10:25:44Z</time>
      </trkpt>
      <trkpt lat="42.9607170" lon="0.2530400">
        <ele>1018.8</ele>
        <time>2020-07-25T10:25:45Z</time>
      </trkpt>
      <trkpt lat="42.9607950" lon="0.2529380">
        <ele>1017.2</ele>
        <time>2020-07-25T10:25:46Z</time>
      </trkpt>
      <trkpt lat="42.9608710" lon="0.2528360">
        <ele>1016.0</ele>
        <time>2020-07-25T10:25:47Z</time>
      </trkpt>
      <trkpt lat="42.9610220" lon="0.2526360">
        <ele>1014.8</ele>
        <time>2020-07-25T10:25:49Z</time>
      </trkpt>
      <trkpt lat="42.9612490" lon="0.2523550">
        <ele>1013.4</ele>
        <time>2020-07-25T10:25:52Z</time>
      </trkpt>
      <trkpt lat="42.9613930" lon="0.2521680">
        <ele>1012.6</ele>
        <time>2020-07-25T10:25:54Z</time>
      </trkpt>
      <trkpt lat="42.9615420" lon="0.2519840">
        <ele>1012.2</ele>
        <time>2020-07-25T10:25:56Z</time>
      </trkpt>
      <trkpt lat="42.9616950" lon="0.2517990">
        <ele>1011.0</ele>
        <time>2020-07-25T10:25:58Z</time>
      </trkpt>
      <trkpt lat="42.9618430" lon="0.2516070">
        <ele>1009.8</ele>
        <time>2020-07-25T10:26:00Z</time>
      </trkpt>
      <trkpt lat="42.9619160" lon="0.2515110">
        <ele>1009.2</ele>
        <time>2020-07-25T10:26:01Z</time>
      </trkpt>
      <trkpt lat="42.9620460" lon="0.2513050">
        <ele>1008.4</ele>
        <time>2020-07-25T10:26:03Z</time>
      </trkpt>
      <trkpt lat="42.9622140" lon="0.2509780">
        <ele>1008.0</ele>
        <time>2020-07-25T10:26:06Z</time>
      </trkpt>
      <trkpt lat="42.9623880" lon="0.2506740">
        <ele>1007.2</ele>
        <time>2020-07-25T10:26:09Z</time>
      </trkpt>
      <trkpt lat="42.9625670" lon="0.2503830">
        <ele>1005.8</ele>
        <time>2020-07-25T10:26:12Z</time>
      </trkpt>
      <trkpt lat="42.9626220" lon="0.2502830">
        <ele>1005.4</ele>
        <time>2020-07-25T10:26:13Z</time>
      </trkpt>
      <trkpt lat="42.9628210" lon="0.2498710">
        <ele>1004.6</ele>
        <time>2020-07-25T10:26:17Z</time>
      </trkpt>
      <trkpt lat="42.9629080" lon="0.2496550">
        <ele>1004.2</ele>
        <time>2020-07-25T10:26:19Z</time>
      </trkpt>
      <trkpt lat="42.9630000" lon="0.2494450">
        <ele>1003.6</ele>
        <time>2020-07-25T10:26:21Z</time>
      </trkpt>
      <trkpt lat="42.9631450" lon="0.2491450">
        <ele>1002.8</ele>
        <time>2020-07-25T10:26:24Z</time>
      </trkpt>
      <trkpt lat="42.9631990" lon="0.2490540">
        <ele>1002.6</ele>
        <time>2020-07-25T10:26:25Z</time>
      </trkpt>
      <trkpt lat="42.9632540" lon="0.2489640">
        <ele>1002.4</ele>
        <time>2020-07-25T10:26:26Z</time>
      </trkpt>
      <trkpt lat="42.9633090" lon="0.2488750">
        <ele>1002.2</ele>
        <time>2020-07-25T10:26:27Z</time>
      </trkpt>
      <trkpt lat="42.9634600" lon="0.2485960">
        <ele>1002.0</ele>
        <time>2020-07-25T10:26:30Z</time>
      </trkpt>
      <trkpt lat="42.9635880" lon="0.2482780">
        <ele>1001.6</ele>
        <time>2020-07-25T10:26:33Z</time>
      </trkpt>
      <trkpt lat="42.9636300" lon="0.2481670">
        <ele>1001.2</ele>
        <time>2020-07-25T10:26:34Z</time>
      </trkpt>
      <trkpt lat="42.9636760" lon="0.2480600">
        <ele>1001.2</ele>
        <time>2020-07-25T10:26:35Z</time>
      </trkpt>
      <trkpt lat="42.9638310" lon="0.2477610">
        <ele>1000.6</ele>
        <time>2020-07-25T10:26:38Z</time>
      </trkpt>
      <trkpt lat="42.9638810" lon="0.2476630">
        <ele>1000.2</ele>
        <time>2020-07-25T10:26:39Z</time>
      </trkpt>
      <trkpt lat="42.9641800" lon="0.2470400">
        <ele>998.8</ele>
        <time>2020-07-25T10:26:45Z</time>
      </trkpt>
      <trkpt lat="42.9644460" lon="0.2466840">
        <ele>998.0</ele>
        <time>2020-07-25T10:26:49Z</time>
      </trkpt>
      <trkpt lat="42.9645170" lon="0.2466050">
        <ele>997.8</ele>
        <time>2020-07-25T10:26:50Z</time>
      </trkpt>
      <trkpt lat="42.9649360" lon="0.2461310">
        <ele>997.0</ele>
        <time>2020-07-25T10:26:56Z</time>
      </trkpt>
      <trkpt lat="42.9650060" lon="0.2460580">
        <ele>997.0</ele>
        <time>2020-07-25T10:26:57Z</time>
      </trkpt>
      <trkpt lat="42.9650750" lon="0.2459900">
        <ele>997.0</ele>
        <time>2020-07-25T10:26:58Z</time>
      </trkpt>
      <trkpt lat="42.9654140" lon="0.2456900">
        <ele>999.0</ele>
        <time>2020-07-25T10:27:03Z</time>
      </trkpt>
      <trkpt lat="42.9654820" lon="0.2456390">
        <ele>999.2</ele>
        <time>2020-07-25T10:27:04Z</time>
      </trkpt>
      <trkpt lat="42.9656810" lon="0.2454810">
        <ele>998.8</ele>
        <time>2020-07-25T10:27:07Z</time>
      </trkpt>
      <trkpt lat="42.9657470" lon="0.2454230">
        <ele>998.0</ele>
        <time>2020-07-25T10:27:08Z</time>
      </trkpt>
      <trkpt lat="42.9658890" lon="0.2453080">
        <ele>996.2</ele>
        <time>2020-07-25T10:27:10Z</time>
      </trkpt>
      <trkpt lat="42.9659660" lon="0.2452540">
        <ele>995.4</ele>
        <time>2020-07-25T10:27:11Z</time>
      </trkpt>
      <trkpt lat="42.9660470" lon="0.2452020">
        <ele>994.4</ele>
        <time>2020-07-25T10:27:12Z</time>
      </trkpt>
      <trkpt lat="42.9661340" lon="0.2451560">
        <ele>993.6</ele>
        <time>2020-07-25T10:27:13Z</time>
      </trkpt>
      <trkpt lat="42.9662250" lon="0.2451110">
        <ele>993.0</ele>
        <time>2020-07-25T10:27:14Z</time>
      </trkpt>
      <trkpt lat="42.9664170" lon="0.2450500">
        <ele>991.6</ele>
        <time>2020-07-25T10:27:16Z</time>
      </trkpt>
      <trkpt lat="42.9665150" lon="0.2450390">
        <ele>990.8</ele>
        <time>2020-07-25T10:27:17Z</time>
      </trkpt>
      <trkpt lat="42.9666130" lon="0.2450320">
        <ele>990.2</ele>
        <time>2020-07-25T10:27:18Z</time>
      </trkpt>
      <trkpt lat="42.9668090" lon="0.2450380">
        <ele>989.4</ele>
        <time>2020-07-25T10:27:20Z</time>
      </trkpt>
      <trkpt lat="42.9669060" lon="0.2450400">
        <ele>989.0</ele>
        <time>2020-07-25T10:27:21Z</time>
      </trkpt>
      <trkpt lat="42.9671970" lon="0.2450160">
        <ele>987.8</ele>
        <time>2020-07-25T10:27:24Z</time>
      </trkpt>
      <trkpt lat="42.9672930" lon="0.2450000">
        <ele>987.2</ele>
        <time>2020-07-25T10:27:25Z</time>
      </trkpt>
      <trkpt lat="42.9673900" lon="0.2449850">
        <ele>986.8</ele>
        <time>2020-07-25T10:27:26Z</time>
      </trkpt>
      <trkpt lat="42.9677710" lon="0.2448880">
        <ele>985.6</ele>
        <time>2020-07-25T10:27:30Z</time>
      </trkpt>
      <trkpt lat="42.9679570" lon="0.2448140">
        <ele>984.4</ele>
        <time>2020-07-25T10:27:32Z</time>
      </trkpt>
      <trkpt lat="42.9682430" lon="0.2446950">
        <ele>983.0</ele>
        <time>2020-07-25T10:27:35Z</time>
      </trkpt>
      <trkpt lat="42.9687100" lon="0.2444910">
        <ele>982.0</ele>
        <time>2020-07-25T10:27:40Z</time>
      </trkpt>
      <trkpt lat="42.9687980" lon="0.2444520">
        <ele>981.6</ele>
        <time>2020-07-25T10:27:41Z</time>
      </trkpt>
      <trkpt lat="42.9689690" lon="0.2443700">
        <ele>980.8</ele>
        <time>2020-07-25T10:27:43Z</time>
      </trkpt>
      <trkpt lat="42.9692350" lon="0.2442790">
        <ele>980.0</ele>
        <time>2020-07-25T10:27:46Z</time>
      </trkpt>
      <trkpt lat="42.9693300" lon="0.2442670">
        <ele>979.4</ele>
        <time>2020-07-25T10:27:47Z</time>
      </trkpt>
      <trkpt lat="42.9695340" lon="0.2442710">
        <ele>978.4</ele>
        <time>2020-07-25T10:27:49Z</time>
      </trkpt>
      <trkpt lat="42.9697420" lon="0.2442780">
        <ele>977.2</ele>
        <time>2020-07-25T10:27:51Z</time>
      </trkpt>
      <trkpt lat="42.9700740" lon="0.2442610">
        <ele>975.8</ele>
        <time>2020-07-25T10:27:54Z</time>
      </trkpt>
      <trkpt lat="42.9703140" lon="0.2442230">
        <ele>974.4</ele>
        <time>2020-07-25T10:27:56Z</time>
      </trkpt>
      <trkpt lat="42.9704390" lon="0.2442020">
        <ele>973.4</ele>
        <time>2020-07-25T10:27:57Z</time>
      </trkpt>
      <trkpt lat="42.9705640" lon="0.2441860">
        <ele>972.2</ele>
        <time>2020-07-25T10:27:58Z</time>
      </trkpt>
      <trkpt lat="42.9706880" lon="0.2441710">
        <ele>971.0</ele>
        <time>2020-07-25T10:27:59Z</time>
      </trkpt>
      <trkpt lat="42.9708120" lon="0.2441580">
        <ele>970.0</ele>
        <time>2020-07-25T10:28:00Z</time>
      </trkpt>
      <trkpt lat="42.9709400" lon="0.2441450">
        <ele>968.8</ele>
        <time>2020-07-25T10:28:01Z</time>
      </trkpt>
      <trkpt lat="42.9710680" lon="0.2441340">
        <ele>967.8</ele>
        <time>2020-07-25T10:28:02Z</time>
      </trkpt>
      <trkpt lat="42.9711930" lon="0.2441260">
        <ele>967.0</ele>
        <time>2020-07-25T10:28:03Z</time>
      </trkpt>
      <trkpt lat="42.9713170" lon="0.2441170">
        <ele>966.2</ele>
        <time>2020-07-25T10:28:04Z</time>
      </trkpt>
      <trkpt lat="42.9715640" lon="0.2441050">
        <ele>964.4</ele>
        <time>2020-07-25T10:28:06Z</time>
      </trkpt>
      <trkpt lat="42.9718000" lon="0.2440710">
        <ele>963.0</ele>
        <time>2020-07-25T10:28:08Z</time>
      </trkpt>
      <trkpt lat="42.9719140" lon="0.2440370">
        <ele>962.6</ele>
        <time>2020-07-25T10:28:09Z</time>
      </trkpt>
      <trkpt lat="42.9722330" lon="0.2438880">
        <ele>961.6</ele>
        <time>2020-07-25T10:28:12Z</time>
      </trkpt>
      <trkpt lat="42.9723390" lon="0.2438350">
        <ele>961.2</ele>
        <time>2020-07-25T10:28:13Z</time>
      </trkpt>
      <trkpt lat="42.9724470" lon="0.2437870">
        <ele>960.4</ele>
        <time>2020-07-25T10:28:14Z</time>
      </trkpt>
      <trkpt lat="42.9726740" lon="0.2437120">
        <ele>958.6</ele>
        <time>2020-07-25T10:28:16Z</time>
      </trkpt>
      <trkpt lat="42.9729010" lon="0.2436420">
        <ele>957.0</ele>
        <time>2020-07-25T10:28:18Z</time>
      </trkpt>
      <trkpt lat="42.9731220" lon="0.2435740">
        <ele>955.4</ele>
        <time>2020-07-25T10:28:20Z</time>
      </trkpt>
      <trkpt lat="42.9733370" lon="0.2434970">
        <ele>953.6</ele>
        <time>2020-07-25T10:28:22Z</time>
      </trkpt>
      <trkpt lat="42.9735490" lon="0.2434170">
        <ele>952.0</ele>
        <time>2020-07-25T10:28:24Z</time>
      </trkpt>
      <trkpt lat="42.9736550" lon="0.2433810">
        <ele>951.8</ele>
        <time>2020-07-25T10:28:25Z</time>
      </trkpt>
      <trkpt lat="42.9742720" lon="0.2432450">
        <ele>952.0</ele>
        <time>2020-07-25T10:28:31Z</time>
      </trkpt>
      <trkpt lat="42.9747630" lon="0.2432460">
        <ele>951.6</ele>
        <time>2020-07-25T10:28:36Z</time>
      </trkpt>
      <trkpt lat="42.9750380" lon="0.2432420">
        <ele>951.0</ele>
        <time>2020-07-25T10:28:39Z</time>
      </trkpt>
      <trkpt lat="42.9753100" lon="0.2431960">
        <ele>950.0</ele>
        <time>2020-07-25T10:28:42Z</time>
      </trkpt>
      <trkpt lat="42.9754000" lon="0.2431620">
        <ele>949.8</ele>
        <time>2020-07-25T10:28:43Z</time>
      </trkpt>
      <trkpt lat="42.9757560" lon="0.2429940">
        <ele>949.0</ele>
        <time>2020-07-25T10:28:47Z</time>
      </trkpt>
      <trkpt lat="42.9760230" lon="0.2429200">
        <ele>948.4</ele>
        <time>2020-07-25T10:28:50Z</time>
      </trkpt>
      <trkpt lat="42.9762170" lon="0.2428820">
        <ele>947.6</ele>
        <time>2020-07-25T10:28:52Z</time>
      </trkpt>
      <trkpt lat="42.9763180" lon="0.2428610">
        <ele>947.0</ele>
        <time>2020-07-25T10:28:53Z</time>
      </trkpt>
      <trkpt lat="42.9765160" lon="0.2428170">
        <ele>946.0</ele>
        <time>2020-07-25T10:28:55Z</time>
      </trkpt>
      <trkpt lat="42.9767210" lon="0.2427640">
        <ele>944.8</ele>
        <time>2020-07-25T10:28:57Z</time>
      </trkpt>
      <trkpt lat="42.9768230" lon="0.2427350">
        <ele>943.8</ele>
        <time>2020-07-25T10:28:58Z</time>
      </trkpt>
      <trkpt lat="42.9769280" lon="0.2427020">
        <ele>942.6</ele>
        <time>2020-07-25T10:28:59Z</time>
      </trkpt>
      <trkpt lat="42.9771440" lon="0.2426280">
        <ele>941.0</ele>
        <time>2020-07-25T10:29:01Z</time>
      </trkpt>
      <trkpt lat="42.9773410" lon="0.2425450">
        <ele>939.8</ele>
        <time>2020-07-25T10:29:03Z</time>
      </trkpt>
      <trkpt lat="42.9775280" lon="0.2424260">
        <ele>939.6</ele>
        <time>2020-07-25T10:29:05Z</time>
      </trkpt>
      <trkpt lat="42.9776070" lon="0.2423510">
        <ele>939.6</ele>
        <time>2020-07-25T10:29:06Z</time>
      </trkpt>
      <trkpt lat="42.9777510" lon="0.2421830">
        <ele>939.8</ele>
        <time>2020-07-25T10:29:08Z</time>
      </trkpt>
      <trkpt lat="42.9779170" lon="0.2418790">
        <ele>940.2</ele>
        <time>2020-07-25T10:29:11Z</time>
      </trkpt>
      <trkpt lat="42.9779600" lon="0.2417700">
        <ele>940.2</ele>
        <time>2020-07-25T10:29:12Z</time>
      </trkpt>
      <trkpt lat="42.9779910" lon="0.2416540">
        <ele>940.2</ele>
        <time>2020-07-25T10:29:13Z</time>
      </trkpt>
      <trkpt lat="42.9781420" lon="0.2412620">
        <ele>940.6</ele>
        <time>2020-07-25T10:29:17Z</time>
      </trkpt>
      <trkpt lat="42.9782820" lon="0.2407860">
        <ele>941.0</ele>
        <time>2020-07-25T10:29:22Z</time>
      </trkpt>
      <trkpt lat="42.9783130" lon="0.2406970">
        <ele>941.0</ele>
        <time>2020-07-25T10:29:23Z</time>
      </trkpt>
      <trkpt lat="42.9784390" lon="0.2403500">
        <ele>941.2</ele>
        <time>2020-07-25T10:29:27Z</time>
      </trkpt>
      <trkpt lat="42.9785100" lon="0.2402000">
        <ele>941.6</ele>
        <time>2020-07-25T10:29:29Z</time>
      </trkpt>
      <trkpt lat="42.9785540" lon="0.2401450">
        <ele>941.8</ele>
        <time>2020-07-25T10:29:30Z</time>
      </trkpt>
      <trkpt lat="42.9786040" lon="0.2400990">
        <ele>942.0</ele>
        <time>2020-07-25T10:29:31Z</time>
      </trkpt>
      <trkpt lat="42.9786520" lon="0.2400540">
        <ele>942.2</ele>
        <time>2020-07-25T10:29:32Z</time>
      </trkpt>
      <trkpt lat="42.9787100" lon="0.2400250">
        <ele>942.4</ele>
        <time>2020-07-25T10:29:33Z</time>
      </trkpt>
      <trkpt lat="42.9787630" lon="0.2399980">
        <ele>942.6</ele>
        <time>2020-07-25T10:29:34Z</time>
      </trkpt>
      <trkpt lat="42.9788060" lon="0.2399640">
        <ele>943.0</ele>
        <time>2020-07-25T10:29:35Z</time>
      </trkpt>
      <trkpt lat="42.9788480" lon="0.2399380">
        <ele>943.0</ele>
        <time>2020-07-25T10:29:36Z</time>
      </trkpt>
      <trkpt lat="42.9789960" lon="0.2398780">
        <ele>943.2</ele>
        <time>2020-07-25T10:29:39Z</time>
      </trkpt>
      <trkpt lat="42.9792200" lon="0.2397650">
        <ele>944.0</ele>
        <time>2020-07-25T10:29:44Z</time>
      </trkpt>
      <trkpt lat="42.9792620" lon="0.2397460">
        <ele>944.2</ele>
        <time>2020-07-25T10:29:45Z</time>
      </trkpt>
      <trkpt lat="42.9794200" lon="0.2396680">
        <ele>944.6</ele>
        <time>2020-07-25T10:29:48Z</time>
      </trkpt>
      <trkpt lat="42.9795490" lon="0.2395450">
        <ele>945.2</ele>
        <time>2020-07-25T10:29:51Z</time>
      </trkpt>
      <trkpt lat="42.9796850" lon="0.2393060">
        <ele>945.2</ele>
        <time>2020-07-25T10:29:55Z</time>
      </trkpt>
      <trkpt lat="42.9797200" lon="0.2392430">
        <ele>945.0</ele>
        <time>2020-07-25T10:29:56Z</time>
      </trkpt>
      <trkpt lat="42.9797560" lon="0.2391800">
        <ele>945.0</ele>
        <time>2020-07-25T10:29:57Z</time>
      </trkpt>
      <trkpt lat="42.9799910" lon="0.2388250">
        <ele>944.6</ele>
        <time>2020-07-25T10:30:03Z</time>
      </trkpt>
      <trkpt lat="42.9800790" lon="0.2386980">
        <ele>944.0</ele>
        <time>2020-07-25T10:30:05Z</time>
      </trkpt>
      <trkpt lat="42.9802790" lon="0.2384470">
        <ele>942.8</ele>
        <time>2020-07-25T10:30:09Z</time>
      </trkpt>
      <trkpt lat="42.9804800" lon="0.2382140">
        <ele>942.0</ele>
        <time>2020-07-25T10:30:13Z</time>
      </trkpt>
      <trkpt lat="42.9805760" lon="0.2381070">
        <ele>941.8</ele>
        <time>2020-07-25T10:30:15Z</time>
      </trkpt>
      <trkpt lat="42.9807110" lon="0.2379380">
        <ele>941.2</ele>
        <time>2020-07-25T10:30:18Z</time>
      </trkpt>
      <trkpt lat="42.9808910" lon="0.2377110">
        <ele>941.0</ele>
        <time>2020-07-25T10:30:22Z</time>
      </trkpt>
      <trkpt lat="42.9809850" lon="0.2375900">
        <ele>940.6</ele>
        <time>2020-07-25T10:30:24Z</time>
      </trkpt>
      <trkpt lat="42.9811490" lon="0.2374210">
        <ele>939.6</ele>
        <time>2020-07-25T10:30:27Z</time>
      </trkpt>
      <trkpt lat="42.9812060" lon="0.2373530">
        <ele>939.0</ele>
        <time>2020-07-25T10:30:28Z</time>
      </trkpt>
      <trkpt lat="42.9812640" lon="0.2372870">
        <ele>938.6</ele>
        <time>2020-07-25T10:30:29Z</time>
      </trkpt>
      <trkpt lat="42.9813240" lon="0.2372160">
        <ele>938.2</ele>
        <time>2020-07-25T10:30:30Z</time>
      </trkpt>
      <trkpt lat="42.9813840" lon="0.2371420">
        <ele>937.6</ele>
        <time>2020-07-25T10:30:31Z</time>
      </trkpt>
      <trkpt lat="42.9815130" lon="0.2369870">
        <ele>937.0</ele>
        <time>2020-07-25T10:30:33Z</time>
      </trkpt>
      <trkpt lat="42.9816500" lon="0.2368210">
        <ele>936.0</ele>
        <time>2020-07-25T10:30:35Z</time>
      </trkpt>
      <trkpt lat="42.9817230" lon="0.2367450">
        <ele>935.2</ele>
        <time>2020-07-25T10:30:36Z</time>
      </trkpt>
      <trkpt lat="42.9818600" lon="0.2365730">
        <ele>933.8</ele>
        <time>2020-07-25T10:30:38Z</time>
      </trkpt>
      <trkpt lat="42.9820660" lon="0.2362710">
        <ele>932.2</ele>
        <time>2020-07-25T10:30:41Z</time>
      </trkpt>
      <trkpt lat="42.9822000" lon="0.2360360">
        <ele>930.0</ele>
        <time>2020-07-25T10:30:43Z</time>
      </trkpt>
      <trkpt lat="42.9822580" lon="0.2359030">
        <ele>928.4</ele>
        <time>2020-07-25T10:30:44Z</time>
      </trkpt>
      <trkpt lat="42.9823130" lon="0.2357630">
        <ele>927.0</ele>
        <time>2020-07-25T10:30:45Z</time>
      </trkpt>
      <trkpt lat="42.9823590" lon="0.2356090">
        <ele>925.8</ele>
        <time>2020-07-25T10:30:46Z</time>
      </trkpt>
      <trkpt lat="42.9824250" lon="0.2352850">
        <ele>924.4</ele>
        <time>2020-07-25T10:30:48Z</time>
      </trkpt>
      <trkpt lat="42.9824800" lon="0.2349630">
        <ele>923.0</ele>
        <time>2020-07-25T10:30:50Z</time>
      </trkpt>
      <trkpt lat="42.9825470" lon="0.2346560">
        <ele>921.6</ele>
        <time>2020-07-25T10:30:52Z</time>
      </trkpt>
      <trkpt lat="42.9826260" lon="0.2343670">
        <ele>920.8</ele>
        <time>2020-07-25T10:30:54Z</time>
      </trkpt>
      <trkpt lat="42.9826690" lon="0.2342310">
        <ele>920.4</ele>
        <time>2020-07-25T10:30:55Z</time>
      </trkpt>
      <trkpt lat="42.9827170" lon="0.2341050">
        <ele>920.4</ele>
        <time>2020-07-25T10:30:56Z</time>
      </trkpt>
      <trkpt lat="42.9827730" lon="0.2339960">
        <ele>920.4</ele>
        <time>2020-07-25T10:30:57Z</time>
      </trkpt>
      <trkpt lat="42.9828370" lon="0.2338970">
        <ele>920.4</ele>
        <time>2020-07-25T10:30:58Z</time>
      </trkpt>
      <trkpt lat="42.9829060" lon="0.2338080">
        <ele>920.2</ele>
        <time>2020-07-25T10:30:59Z</time>
      </trkpt>
      <trkpt lat="42.9830590" lon="0.2336620">
        <ele>920.2</ele>
        <time>2020-07-25T10:31:01Z</time>
      </trkpt>
      <trkpt lat="42.9831430" lon="0.2336030">
        <ele>919.8</ele>
        <time>2020-07-25T10:31:02Z</time>
      </trkpt>
      <trkpt lat="42.9833070" lon="0.2334790">
        <ele>919.0</ele>
        <time>2020-07-25T10:31:04Z</time>
      </trkpt>
      <trkpt lat="42.9834550" lon="0.2333220">
        <ele>918.2</ele>
        <time>2020-07-25T10:31:06Z</time>
      </trkpt>
      <trkpt lat="42.9835210" lon="0.2332280">
        <ele>917.6</ele>
        <time>2020-07-25T10:31:07Z</time>
      </trkpt>
      <trkpt lat="42.9836300" lon="0.2330040">
        <ele>916.2</ele>
        <time>2020-07-25T10:31:09Z</time>
      </trkpt>
      <trkpt lat="42.9837310" lon="0.2327630">
        <ele>914.8</ele>
        <time>2020-07-25T10:31:11Z</time>
      </trkpt>
      <trkpt lat="42.9838280" lon="0.2325210">
        <ele>913.4</ele>
        <time>2020-07-25T10:31:13Z</time>
      </trkpt>
      <trkpt lat="42.9838620" lon="0.2323960">
        <ele>912.6</ele>
        <time>2020-07-25T10:31:14Z</time>
      </trkpt>
      <trkpt lat="42.9838800" lon="0.2322650">
        <ele>912.2</ele>
        <time>2020-07-25T10:31:15Z</time>
      </trkpt>
      <trkpt lat="42.9838820" lon="0.2321320">
        <ele>911.6</ele>
        <time>2020-07-25T10:31:16Z</time>
      </trkpt>
      <trkpt lat="42.9838380" lon="0.2318690">
        <ele>910.6</ele>
        <time>2020-07-25T10:31:18Z</time>
      </trkpt>
      <trkpt lat="42.9837550" lon="0.2316070">
        <ele>909.4</ele>
        <time>2020-07-25T10:31:20Z</time>
      </trkpt>
      <trkpt lat="42.9836650" lon="0.2313410">
        <ele>907.6</ele>
        <time>2020-07-25T10:31:22Z</time>
      </trkpt>
      <trkpt lat="42.9835780" lon="0.2310730">
        <ele>906.4</ele>
        <time>2020-07-25T10:31:24Z</time>
      </trkpt>
      <trkpt lat="42.9834220" lon="0.2305370">
        <ele>905.2</ele>
        <time>2020-07-25T10:31:28Z</time>
      </trkpt>
      <trkpt lat="42.9833650" lon="0.2302670">
        <ele>904.6</ele>
        <time>2020-07-25T10:31:30Z</time>
      </trkpt>
      <trkpt lat="42.9833260" lon="0.2299940">
        <ele>904.0</ele>
        <time>2020-07-25T10:31:32Z</time>
      </trkpt>
      <trkpt lat="42.9832670" lon="0.2297300">
        <ele>903.0</ele>
        <time>2020-07-25T10:31:34Z</time>
      </trkpt>
      <trkpt lat="42.9832210" lon="0.2296050">
        <ele>902.2</ele>
        <time>2020-07-25T10:31:35Z</time>
      </trkpt>
      <trkpt lat="42.9831600" lon="0.2294880">
        <ele>901.4</ele>
        <time>2020-07-25T10:31:36Z</time>
      </trkpt>
      <trkpt lat="42.9830750" lon="0.2293800">
        <ele>900.4</ele>
        <time>2020-07-25T10:31:37Z</time>
      </trkpt>
      <trkpt lat="42.9829820" lon="0.2292740">
        <ele>899.2</ele>
        <time>2020-07-25T10:31:38Z</time>
      </trkpt>
      <trkpt lat="42.9827960" lon="0.2290900">
        <ele>897.6</ele>
        <time>2020-07-25T10:31:40Z</time>
      </trkpt>
      <trkpt lat="42.9827000" lon="0.2290170">
        <ele>897.0</ele>
        <time>2020-07-25T10:31:41Z</time>
      </trkpt>
      <trkpt lat="42.9826030" lon="0.2289590">
        <ele>896.2</ele>
        <time>2020-07-25T10:31:42Z</time>
      </trkpt>
      <trkpt lat="42.9825110" lon="0.2289100">
        <ele>895.2</ele>
        <time>2020-07-25T10:31:43Z</time>
      </trkpt>
      <trkpt lat="42.9823500" lon="0.2288180">
        <ele>894.0</ele>
        <time>2020-07-25T10:31:45Z</time>
      </trkpt>
      <trkpt lat="42.9822900" lon="0.2287560">
        <ele>893.8</ele>
        <time>2020-07-25T10:31:46Z</time>
      </trkpt>
      <trkpt lat="42.9822200" lon="0.2285930">
        <ele>893.6</ele>
        <time>2020-07-25T10:31:48Z</time>
      </trkpt>
      <trkpt lat="42.9822090" lon="0.2285040">
        <ele>893.4</ele>
        <time>2020-07-25T10:31:49Z</time>
      </trkpt>
      <trkpt lat="42.9822130" lon="0.2284170">
        <ele>893.2</ele>
        <time>2020-07-25T10:31:50Z</time>
      </trkpt>
      <trkpt lat="42.9822690" lon="0.2282630">
        <ele>893.0</ele>
        <time>2020-07-25T10:31:52Z</time>
      </trkpt>
      <trkpt lat="42.9823680" lon="0.2281580">
        <ele>893.0</ele>
        <time>2020-07-25T10:31:54Z</time>
      </trkpt>
      <trkpt lat="42.9824230" lon="0.2281230">
        <ele>893.2</ele>
        <time>2020-07-25T10:31:55Z</time>
      </trkpt>
      <trkpt lat="42.9824790" lon="0.2281020">
        <ele>893.4</ele>
        <time>2020-07-25T10:31:56Z</time>
      </trkpt>
      <trkpt lat="42.9826000" lon="0.2281070">
        <ele>893.6</ele>
        <time>2020-07-25T10:31:58Z</time>
      </trkpt>
      <trkpt lat="42.9826530" lon="0.2281110">
        <ele>893.6</ele>
        <time>2020-07-25T10:31:59Z</time>
      </trkpt>
      <trkpt lat="42.9827710" lon="0.2281350">
        <ele>893.8</ele>
        <time>2020-07-25T10:32:01Z</time>
      </trkpt>
      <trkpt lat="42.9828250" lon="0.2281420">
        <ele>893.8</ele>
        <time>2020-07-25T10:32:02Z</time>
      </trkpt>
      <trkpt lat="42.9828730" lon="0.2281450">
        <ele>893.8</ele>
        <time>2020-07-25T10:32:03Z</time>
      </trkpt>
      <trkpt lat="42.9831000" lon="0.2281390">
        <ele>894.0</ele>
        <time>2020-07-25T10:32:08Z</time>
      </trkpt>
      <trkpt lat="42.9831880" lon="0.2281220">
        <ele>894.2</ele>
        <time>2020-07-25T10:32:10Z</time>
      </trkpt>
      <trkpt lat="42.9834090" lon="0.2280550">
        <ele>895.2</ele>
        <time>2020-07-25T10:32:15Z</time>
      </trkpt>
      <trkpt lat="42.9835360" lon="0.2280080">
        <ele>896.4</ele>
        <time>2020-07-25T10:32:18Z</time>
      </trkpt>
      <trkpt lat="42.9836210" lon="0.2279820">
        <ele>896.8</ele>
        <time>2020-07-25T10:32:20Z</time>
      </trkpt>
      <trkpt lat="42.9836640" lon="0.2279690">
        <ele>897.0</ele>
        <time>2020-07-25T10:32:21Z</time>
      </trkpt>
      <trkpt lat="42.9838300" lon="0.2279100">
        <ele>897.4</ele>
        <time>2020-07-25T10:32:25Z</time>
      </trkpt>
      <trkpt lat="42.9839470" lon="0.2278860">
        <ele>897.8</ele>
        <time>2020-07-25T10:32:28Z</time>
      </trkpt>
      <trkpt lat="42.9840640" lon="0.2278530">
        <ele>898.2</ele>
        <time>2020-07-25T10:32:31Z</time>
      </trkpt>
      <trkpt lat="42.9841440" lon="0.2278370">
        <ele>898.4</ele>
        <time>2020-07-25T10:32:33Z</time>
      </trkpt>
      <trkpt lat="42.9842110" lon="0.2278150">
        <ele>898.6</ele>
        <time>2020-07-25T10:32:35Z</time>
      </trkpt>
      <trkpt lat="42.9843170" lon="0.2277990">
        <ele>898.8</ele>
        <time>2020-07-25T10:32:38Z</time>
      </trkpt>
      <trkpt lat="42.9844230" lon="0.2277380">
        <ele>899.0</ele>
        <time>2020-07-25T10:32:41Z</time>
      </trkpt>
      <trkpt lat="42.9846220" lon="0.2272480">
        <ele>897.6</ele>
        <time>2020-07-25T10:59:21Z</time>
      </trkpt>
      <trkpt lat="42.9846220" lon="0.2272470">
        <ele>897.6</ele>
        <time>2020-07-25T10:59:22Z</time>
      </trkpt>
      <trkpt lat="42.9846230" lon="0.2272470">
        <ele>897.6</ele>
        <time>2020-07-25T10:59:23Z</time>
      </trkpt>
      <trkpt lat="42.9845390" lon="0.2271350">
        <ele>898.2</ele>
        <time>2020-07-25T10:59:54Z</time>
      </trkpt>
      <trkpt lat="42.9845350" lon="0.2271190">
        <ele>898.2</ele>
        <time>2020-07-25T10:59:55Z</time>
      </trkpt>
      <trkpt lat="42.9845160" lon="0.2270890">
        <ele>898.2</ele>
        <time>2020-07-25T10:59:57Z</time>
      </trkpt>
      <trkpt lat="42.9844740" lon="0.2270630">
        <ele>898.4</ele>
        <time>2020-07-25T11:00:00Z</time>
      </trkpt>
      <trkpt lat="42.9844520" lon="0.2270560">
        <ele>898.6</ele>
        <time>2020-07-25T11:00:02Z</time>
      </trkpt>
      <trkpt lat="42.9844370" lon="0.2270560">
        <ele>898.6</ele>
        <time>2020-07-25T11:00:03Z</time>
      </trkpt>
      <trkpt lat="42.9843380" lon="0.2270300">
        <ele>898.8</ele>
        <time>2020-07-25T11:00:09Z</time>
      </trkpt>
      <trkpt lat="42.9843210" lon="0.2270270">
        <ele>898.8</ele>
        <time>2020-07-25T11:00:10Z</time>
      </trkpt>
      <trkpt lat="42.9842380" lon="0.2270120">
        <ele>899.6</ele>
        <time>2020-07-25T11:00:15Z</time>
      </trkpt>
      <trkpt lat="42.9842080" lon="0.2270100">
        <ele>900.2</ele>
        <time>2020-07-25T11:00:17Z</time>
      </trkpt>
      <trkpt lat="42.9841930" lon="0.2270050">
        <ele>900.6</ele>
        <time>2020-07-25T11:00:18Z</time>
      </trkpt>
      <trkpt lat="42.9840880" lon="0.2269710">
        <ele>901.2</ele>
        <time>2020-07-25T11:00:23Z</time>
      </trkpt>
      <trkpt lat="42.9840650" lon="0.2269670">
        <ele>901.2</ele>
        <time>2020-07-25T11:00:24Z</time>
      </trkpt>
      <trkpt lat="42.9840400" lon="0.2269600">
        <ele>901.2</ele>
        <time>2020-07-25T11:00:25Z</time>
      </trkpt>
      <trkpt lat="42.9839870" lon="0.2269470">
        <ele>901.6</ele>
        <time>2020-07-25T11:00:27Z</time>
      </trkpt>
      <trkpt lat="42.9839580" lon="0.2269390">
        <ele>901.8</ele>
        <time>2020-07-25T11:00:28Z</time>
      </trkpt>
      <trkpt lat="42.9839280" lon="0.2269300">
        <ele>902.0</ele>
        <time>2020-07-25T11:00:29Z</time>
      </trkpt>
      <trkpt lat="42.9838690" lon="0.2269130">
        <ele>902.4</ele>
        <time>2020-07-25T11:00:31Z</time>
      </trkpt>
      <trkpt lat="42.9837880" lon="0.2268880">
        <ele>902.8</ele>
        <time>2020-07-25T11:00:34Z</time>
      </trkpt>
      <trkpt lat="42.9837330" lon="0.2268810">
        <ele>903.0</ele>
        <time>2020-07-25T11:00:36Z</time>
      </trkpt>
      <trkpt lat="42.9836750" lon="0.2268650">
        <ele>903.2</ele>
        <time>2020-07-25T11:00:38Z</time>
      </trkpt>
      <trkpt lat="42.9835620" lon="0.2268300">
        <ele>904.0</ele>
        <time>2020-07-25T11:00:42Z</time>
      </trkpt>
      <trkpt lat="42.9834620" lon="0.2267970">
        <ele>904.8</ele>
        <time>2020-07-25T11:00:46Z</time>
      </trkpt>
      <trkpt lat="42.9834370" lon="0.2267890">
        <ele>905.2</ele>
        <time>2020-07-25T11:00:47Z</time>
      </trkpt>
      <trkpt lat="42.9833600" lon="0.2267790">
        <ele>905.8</ele>
        <time>2020-07-25T11:00:50Z</time>
      </trkpt>
      <trkpt lat="42.9833070" lon="0.2267700">
        <ele>906.4</ele>
        <time>2020-07-25T11:00:52Z</time>
      </trkpt>
      <trkpt lat="42.9831330" lon="0.2267770">
        <ele>907.6</ele>
        <time>2020-07-25T11:00:58Z</time>
      </trkpt>
      <trkpt lat="42.9830180" lon="0.2267970">
        <ele>908.6</ele>
        <time>2020-07-25T11:01:02Z</time>
      </trkpt>
      <trkpt lat="42.9829310" lon="0.2268170">
        <ele>909.0</ele>
        <time>2020-07-25T11:01:05Z</time>
      </trkpt>
      <trkpt lat="42.9828360" lon="0.2268330">
        <ele>909.6</ele>
        <time>2020-07-25T11:01:08Z</time>
      </trkpt>
      <trkpt lat="42.9827020" lon="0.2268740">
        <ele>910.6</ele>
        <time>2020-07-25T11:01:12Z</time>
      </trkpt>
      <trkpt lat="42.9826700" lon="0.2268810">
        <ele>910.6</ele>
        <time>2020-07-25T11:01:13Z</time>
      </trkpt>
      <trkpt lat="42.9826010" lon="0.2268840">
        <ele>910.8</ele>
        <time>2020-07-25T11:01:15Z</time>
      </trkpt>
      <trkpt lat="42.9824870" lon="0.2268900">
        <ele>911.0</ele>
        <time>2020-07-25T11:01:18Z</time>
      </trkpt>
      <trkpt lat="42.9823670" lon="0.2269150">
        <ele>911.4</ele>
        <time>2020-07-25T11:01:21Z</time>
      </trkpt>
      <trkpt lat="42.9822720" lon="0.2269470">
        <ele>911.6</ele>
        <time>2020-07-25T11:01:23Z</time>
      </trkpt>
      <trkpt lat="42.9820370" lon="0.2270140">
        <ele>911.8</ele>
        <time>2020-07-25T11:01:28Z</time>
      </trkpt>
      <trkpt lat="42.9819410" lon="0.2270330">
        <ele>912.0</ele>
        <time>2020-07-25T11:01:30Z</time>
      </trkpt>
      <trkpt lat="42.9816380" lon="0.2270490">
        <ele>912.6</ele>
        <time>2020-07-25T11:01:36Z</time>
      </trkpt>
      <trkpt lat="42.9815850" lon="0.2270480">
        <ele>912.6</ele>
        <time>2020-07-25T11:01:37Z</time>
      </trkpt>
      <trkpt lat="42.9812660" lon="0.2270760">
        <ele>913.2</ele>
        <time>2020-07-25T11:01:43Z</time>
      </trkpt>
      <trkpt lat="42.9811660" lon="0.2270880">
        <ele>913.6</ele>
        <time>2020-07-25T11:01:45Z</time>
      </trkpt>
      <trkpt lat="42.9809700" lon="0.2271270">
        <ele>914.8</ele>
        <time>2020-07-25T11:01:49Z</time>
      </trkpt>
      <trkpt lat="42.9808290" lon="0.2271540">
        <ele>915.8</ele>
        <time>2020-07-25T11:01:52Z</time>
      </trkpt>
      <trkpt lat="42.9807780" lon="0.2271590">
        <ele>916.0</ele>
        <time>2020-07-25T11:01:53Z</time>
      </trkpt>
      <trkpt lat="42.9805910" lon="0.2272180">
        <ele>916.4</ele>
        <time>2020-07-25T11:01:57Z</time>
      </trkpt>
      <trkpt lat="42.9804070" lon="0.2273300">
        <ele>917.0</ele>
        <time>2020-07-25T11:02:01Z</time>
      </trkpt>
      <trkpt lat="42.9802640" lon="0.2274150">
        <ele>917.4</ele>
        <time>2020-07-25T11:02:04Z</time>
      </trkpt>
      <trkpt lat="42.9800800" lon="0.2275060">
        <ele>918.2</ele>
        <time>2020-07-25T11:02:08Z</time>
      </trkpt>
      <trkpt lat="42.9798960" lon="0.2275810">
        <ele>919.0</ele>
        <time>2020-07-25T11:02:12Z</time>
      </trkpt>
      <trkpt lat="42.9798520" lon="0.2276090">
        <ele>919.2</ele>
        <time>2020-07-25T11:02:13Z</time>
      </trkpt>
      <trkpt lat="42.9795690" lon="0.2278110">
        <ele>920.2</ele>
        <time>2020-07-25T11:02:19Z</time>
      </trkpt>
      <trkpt lat="42.9794700" lon="0.2278630">
        <ele>920.4</ele>
        <time>2020-07-25T11:02:21Z</time>
      </trkpt>
      <trkpt lat="42.9791970" lon="0.2279320">
        <ele>920.8</ele>
        <time>2020-07-25T11:02:26Z</time>
      </trkpt>
      <trkpt lat="42.9790260" lon="0.2279520">
        <ele>921.0</ele>
        <time>2020-07-25T11:02:29Z</time>
      </trkpt>
      <trkpt lat="42.9787440" lon="0.2280430">
        <ele>921.0</ele>
        <time>2020-07-25T11:02:34Z</time>
      </trkpt>
      <trkpt lat="42.9785410" lon="0.2281170">
        <ele>921.4</ele>
        <time>2020-07-25T11:02:38Z</time>
      </trkpt>
      <trkpt lat="42.9784040" lon="0.2281270">
        <ele>922.6</ele>
        <time>2020-07-25T11:02:41Z</time>
      </trkpt>
      <trkpt lat="42.9782880" lon="0.2281220">
        <ele>923.8</ele>
        <time>2020-07-25T11:02:44Z</time>
      </trkpt>
      <trkpt lat="42.9782530" lon="0.2281230">
        <ele>924.2</ele>
        <time>2020-07-25T11:02:45Z</time>
      </trkpt>
      <trkpt lat="42.9781850" lon="0.2281290">
        <ele>924.8</ele>
        <time>2020-07-25T11:02:47Z</time>
      </trkpt>
      <trkpt lat="42.9781520" lon="0.2281340">
        <ele>924.8</ele>
        <time>2020-07-25T11:02:48Z</time>
      </trkpt>
      <trkpt lat="42.9781190" lon="0.2281390">
        <ele>925.0</ele>
        <time>2020-07-25T11:02:49Z</time>
      </trkpt>
      <trkpt lat="42.9779930" lon="0.2281580">
        <ele>926.0</ele>
        <time>2020-07-25T11:02:53Z</time>
      </trkpt>
      <trkpt lat="42.9779610" lon="0.2281690">
        <ele>926.2</ele>
        <time>2020-07-25T11:02:54Z</time>
      </trkpt>
      <trkpt lat="42.9778610" lon="0.2282070">
        <ele>927.0</ele>
        <time>2020-07-25T11:02:57Z</time>
      </trkpt>
      <trkpt lat="42.9776880" lon="0.2282860">
        <ele>928.2</ele>
        <time>2020-07-25T11:03:02Z</time>
      </trkpt>
      <trkpt lat="42.9775070" lon="0.2283600">
        <ele>929.2</ele>
        <time>2020-07-25T11:03:07Z</time>
      </trkpt>
      <trkpt lat="42.9774050" lon="0.2283750">
        <ele>930.2</ele>
        <time>2020-07-25T11:03:10Z</time>
      </trkpt>
      <trkpt lat="42.9772780" lon="0.2283710">
        <ele>931.2</ele>
        <time>2020-07-25T11:03:14Z</time>
      </trkpt>
      <trkpt lat="42.9771630" lon="0.2283770">
        <ele>932.4</ele>
        <time>2020-07-25T11:03:18Z</time>
      </trkpt>
      <trkpt lat="42.9770400" lon="0.2283670">
        <ele>933.4</ele>
        <time>2020-07-25T11:03:23Z</time>
      </trkpt>
      <trkpt lat="42.9769670" lon="0.2283580">
        <ele>934.2</ele>
        <time>2020-07-25T11:03:26Z</time>
      </trkpt>
      <trkpt lat="42.9769180" lon="0.2283600">
        <ele>934.8</ele>
        <time>2020-07-25T11:03:28Z</time>
      </trkpt>
      <trkpt lat="42.9768690" lon="0.2283600">
        <ele>935.4</ele>
        <time>2020-07-25T11:03:30Z</time>
      </trkpt>
      <trkpt lat="42.9768210" lon="0.2283590">
        <ele>936.0</ele>
        <time>2020-07-25T11:03:32Z</time>
      </trkpt>
      <trkpt lat="42.9767550" lon="0.2283530">
        <ele>936.4</ele>
        <time>2020-07-25T11:03:35Z</time>
      </trkpt>
      <trkpt lat="42.9767080" lon="0.2283410">
        <ele>937.2</ele>
        <time>2020-07-25T11:03:37Z</time>
      </trkpt>
      <trkpt lat="42.9766060" lon="0.2283140">
        <ele>938.4</ele>
        <time>2020-07-25T11:03:41Z</time>
      </trkpt>
      <trkpt lat="42.9765550" lon="0.2282940">
        <ele>938.8</ele>
        <time>2020-07-25T11:03:43Z</time>
      </trkpt>
      <trkpt lat="42.9764490" lon="0.2282660">
        <ele>939.4</ele>
        <time>2020-07-25T11:03:47Z</time>
      </trkpt>
      <trkpt lat="42.9763640" lon="0.2282410">
        <ele>940.2</ele>
        <time>2020-07-25T11:03:50Z</time>
      </trkpt>
      <trkpt lat="42.9763350" lon="0.2282290">
        <ele>940.2</ele>
        <time>2020-07-25T11:03:51Z</time>
      </trkpt>
      <trkpt lat="42.9762770" lon="0.2282170">
        <ele>940.6</ele>
        <time>2020-07-25T11:03:53Z</time>
      </trkpt>
      <trkpt lat="42.9761390" lon="0.2281860">
        <ele>941.4</ele>
        <time>2020-07-25T11:03:58Z</time>
      </trkpt>
      <trkpt lat="42.9760760" lon="0.2281890">
        <ele>941.8</ele>
        <time>2020-07-25T11:04:00Z</time>
      </trkpt>
      <trkpt lat="42.9759070" lon="0.2281800">
        <ele>942.0</ele>
        <time>2020-07-25T11:04:04Z</time>
      </trkpt>
      <trkpt lat="42.9757600" lon="0.2281970">
        <ele>941.6</ele>
        <time>2020-07-25T11:04:07Z</time>
      </trkpt>
      <trkpt lat="42.9756140" lon="0.2282460">
        <ele>941.2</ele>
        <time>2020-07-25T11:04:10Z</time>
      </trkpt>
      <trkpt lat="42.9753450" lon="0.2283840">
        <ele>941.2</ele>
        <time>2020-07-25T11:04:16Z</time>
      </trkpt>
      <trkpt lat="42.9752610" lon="0.2284490">
        <ele>941.4</ele>
        <time>2020-07-25T11:04:18Z</time>
      </trkpt>
      <trkpt lat="42.9750410" lon="0.2286420">
        <ele>941.6</ele>
        <time>2020-07-25T11:04:23Z</time>
      </trkpt>
      <trkpt lat="42.9749970" lon="0.2286800">
        <ele>941.6</ele>
        <time>2020-07-25T11:04:24Z</time>
      </trkpt>
      <trkpt lat="42.9747350" lon="0.2288780">
        <ele>942.8</ele>
        <time>2020-07-25T11:04:30Z</time>
      </trkpt>
      <trkpt lat="42.9746900" lon="0.2289080">
        <ele>943.0</ele>
        <time>2020-07-25T11:04:31Z</time>
      </trkpt>
      <trkpt lat="42.9746000" lon="0.2289670">
        <ele>943.2</ele>
        <time>2020-07-25T11:04:33Z</time>
      </trkpt>
      <trkpt lat="42.9744310" lon="0.2290960">
        <ele>943.8</ele>
        <time>2020-07-25T11:04:37Z</time>
      </trkpt>
      <trkpt lat="42.9743910" lon="0.2291270">
        <ele>944.0</ele>
        <time>2020-07-25T11:04:38Z</time>
      </trkpt>
      <trkpt lat="42.9743150" lon="0.2291890">
        <ele>944.4</ele>
        <time>2020-07-25T11:04:40Z</time>
      </trkpt>
      <trkpt lat="42.9742110" lon="0.2292720">
        <ele>945.2</ele>
        <time>2020-07-25T11:04:43Z</time>
      </trkpt>
      <trkpt lat="42.9741780" lon="0.2292950">
        <ele>945.4</ele>
        <time>2020-07-25T11:04:44Z</time>
      </trkpt>
      <trkpt lat="42.9741470" lon="0.2293180">
        <ele>945.8</ele>
        <time>2020-07-25T11:04:45Z</time>
      </trkpt>
      <trkpt lat="42.9740880" lon="0.2293660">
        <ele>946.4</ele>
        <time>2020-07-25T11:04:47Z</time>
      </trkpt>
      <trkpt lat="42.9740050" lon="0.2294380">
        <ele>947.4</ele>
        <time>2020-07-25T11:04:50Z</time>
      </trkpt>
      <trkpt lat="42.9738630" lon="0.2295630">
        <ele>948.4</ele>
        <time>2020-07-25T11:04:55Z</time>
      </trkpt>
      <trkpt lat="42.9738340" lon="0.2295870">
        <ele>948.6</ele>
        <time>2020-07-25T11:04:56Z</time>
      </trkpt>
      <trkpt lat="42.9738050" lon="0.2296130">
        <ele>948.8</ele>
        <time>2020-07-25T11:04:57Z</time>
      </trkpt>
      <trkpt lat="42.9736920" lon="0.2297090">
        <ele>949.8</ele>
        <time>2020-07-25T11:05:01Z</time>
      </trkpt>
      <trkpt lat="42.9735510" lon="0.2298110">
        <ele>951.0</ele>
        <time>2020-07-25T11:05:06Z</time>
      </trkpt>
      <trkpt lat="42.9734920" lon="0.2298540">
        <ele>951.6</ele>
        <time>2020-07-25T11:05:08Z</time>
      </trkpt>
      <trkpt lat="42.9733990" lon="0.2299230">
        <ele>952.2</ele>
        <time>2020-07-25T11:05:11Z</time>
      </trkpt>
      <trkpt lat="42.9732370" lon="0.2300140">
        <ele>953.4</ele>
        <time>2020-07-25T11:05:16Z</time>
      </trkpt>
      <trkpt lat="42.9732020" lon="0.2300300">
        <ele>953.4</ele>
        <time>2020-07-25T11:05:17Z</time>
      </trkpt>
      <trkpt lat="42.9730490" lon="0.2300660">
        <ele>953.8</ele>
        <time>2020-07-25T11:05:21Z</time>
      </trkpt>
      <trkpt lat="42.9729260" lon="0.2300780">
        <ele>954.2</ele>
        <time>2020-07-25T11:05:24Z</time>
      </trkpt>
      <trkpt lat="42.9728840" lon="0.2300820">
        <ele>954.2</ele>
        <time>2020-07-25T11:05:25Z</time>
      </trkpt>
      <trkpt lat="42.9728430" lon="0.2300860">
        <ele>954.4</ele>
        <time>2020-07-25T11:05:26Z</time>
      </trkpt>
      <trkpt lat="42.9727160" lon="0.2300970">
        <ele>955.0</ele>
        <time>2020-07-25T11:05:29Z</time>
      </trkpt>
      <trkpt lat="42.9726300" lon="0.2301070">
        <ele>955.0</ele>
        <time>2020-07-25T11:05:31Z</time>
      </trkpt>
      <trkpt lat="42.9725890" lon="0.2301080">
        <ele>955.2</ele>
        <time>2020-07-25T11:05:32Z</time>
      </trkpt>
      <trkpt lat="42.9725480" lon="0.2301120">
        <ele>955.6</ele>
        <time>2020-07-25T11:05:33Z</time>
      </trkpt>
      <trkpt lat="42.9723860" lon="0.2301250">
        <ele>956.0</ele>
        <time>2020-07-25T11:05:37Z</time>
      </trkpt>
      <trkpt lat="42.9723440" lon="0.2301310">
        <ele>956.2</ele>
        <time>2020-07-25T11:05:38Z</time>
      </trkpt>
      <trkpt lat="42.9722580" lon="0.2301540">
        <ele>956.6</ele>
        <time>2020-07-25T11:05:40Z</time>
      </trkpt>
      <trkpt lat="42.9720870" lon="0.2302250">
        <ele>957.2</ele>
        <time>2020-07-25T11:05:44Z</time>
      </trkpt>
      <trkpt lat="42.9718840" lon="0.2303400">
        <ele>957.6</ele>
        <time>2020-07-25T11:05:49Z</time>
      </trkpt>
      <trkpt lat="42.9717670" lon="0.2304270">
        <ele>958.0</ele>
        <time>2020-07-25T11:05:52Z</time>
      </trkpt>
      <trkpt lat="42.9716500" lon="0.2305160">
        <ele>958.6</ele>
        <time>2020-07-25T11:05:55Z</time>
      </trkpt>
      <trkpt lat="42.9715710" lon="0.2305790">
        <ele>958.8</ele>
        <time>2020-07-25T11:05:57Z</time>
      </trkpt>
      <trkpt lat="42.9714900" lon="0.2306420">
        <ele>959.2</ele>
        <time>2020-07-25T11:05:59Z</time>
      </trkpt>
      <trkpt lat="42.9713710" lon="0.2307320">
        <ele>959.6</ele>
        <time>2020-07-25T11:06:02Z</time>
      </trkpt>
      <trkpt lat="42.9713340" lon="0.2307600">
        <ele>959.8</ele>
        <time>2020-07-25T11:06:03Z</time>
      </trkpt>
      <trkpt lat="42.9711250" lon="0.2309060">
        <ele>960.6</ele>
        <time>2020-07-25T11:06:09Z</time>
      </trkpt>
      <trkpt lat="42.9710640" lon="0.2309500">
        <ele>961.0</ele>
        <time>2020-07-25T11:06:11Z</time>
      </trkpt>
      <trkpt lat="42.9709760" lon="0.2310130">
        <ele>962.4</ele>
        <time>2020-07-25T11:06:14Z</time>
      </trkpt>
      <trkpt lat="42.9708870" lon="0.2310710">
        <ele>963.0</ele>
        <time>2020-07-25T11:06:17Z</time>
      </trkpt>
      <trkpt lat="42.9708570" lon="0.2310860">
        <ele>963.4</ele>
        <time>2020-07-25T11:06:18Z</time>
      </trkpt>
      <trkpt lat="42.9708260" lon="0.2311010">
        <ele>963.6</ele>
        <time>2020-07-25T11:06:19Z</time>
      </trkpt>
      <trkpt lat="42.9706940" lon="0.2311420">
        <ele>964.8</ele>
        <time>2020-07-25T11:06:23Z</time>
      </trkpt>
      <trkpt lat="42.9706230" lon="0.2311490">
        <ele>965.4</ele>
        <time>2020-07-25T11:06:25Z</time>
      </trkpt>
      <trkpt lat="42.9705080" lon="0.2311460">
        <ele>966.0</ele>
        <time>2020-07-25T11:06:28Z</time>
      </trkpt>
      <trkpt lat="42.9703280" lon="0.2311260">
        <ele>966.6</ele>
        <time>2020-07-25T11:06:33Z</time>
      </trkpt>
      <trkpt lat="42.9701140" lon="0.2310830">
        <ele>966.8</ele>
        <time>2020-07-25T11:06:39Z</time>
      </trkpt>
      <trkpt lat="42.9700770" lon="0.2310750">
        <ele>967.0</ele>
        <time>2020-07-25T11:06:40Z</time>
      </trkpt>
      <trkpt lat="42.9700050" lon="0.2310510">
        <ele>967.2</ele>
        <time>2020-07-25T11:06:42Z</time>
      </trkpt>
      <trkpt lat="42.9698300" lon="0.2309940">
        <ele>968.0</ele>
        <time>2020-07-25T11:06:47Z</time>
      </trkpt>
      <trkpt lat="42.9697950" lon="0.2309840">
        <ele>968.4</ele>
        <time>2020-07-25T11:06:48Z</time>
      </trkpt>
      <trkpt lat="42.9697600" lon="0.2309740">
        <ele>968.6</ele>
        <time>2020-07-25T11:06:49Z</time>
      </trkpt>
      <trkpt lat="42.9695870" lon="0.2309160">
        <ele>969.4</ele>
        <time>2020-07-25T11:06:54Z</time>
      </trkpt>
      <trkpt lat="42.9694460" lon="0.2308560">
        <ele>970.4</ele>
        <time>2020-07-25T11:06:58Z</time>
      </trkpt>
      <trkpt lat="42.9694120" lon="0.2308410">
        <ele>970.6</ele>
        <time>2020-07-25T11:06:59Z</time>
      </trkpt>
      <trkpt lat="42.9692460" lon="0.2307500">
        <ele>971.6</ele>
        <time>2020-07-25T11:07:04Z</time>
      </trkpt>
      <trkpt lat="42.9691850" lon="0.2307110">
        <ele>972.0</ele>
        <time>2020-07-25T11:07:06Z</time>
      </trkpt>
      <trkpt lat="42.9691550" lon="0.2306950">
        <ele>972.2</ele>
        <time>2020-07-25T11:07:07Z</time>
      </trkpt>
      <trkpt lat="42.9691260" lon="0.2306770">
        <ele>972.6</ele>
        <time>2020-07-25T11:07:08Z</time>
      </trkpt>
      <trkpt lat="42.9690440" lon="0.2306180">
        <ele>973.8</ele>
        <time>2020-07-25T11:07:11Z</time>
      </trkpt>
      <trkpt lat="42.9689620" lon="0.2305560">
        <ele>974.4</ele>
        <time>2020-07-25T11:07:14Z</time>
      </trkpt>
      <trkpt lat="42.9689030" lon="0.2305190">
        <ele>974.8</ele>
        <time>2020-07-25T11:07:16Z</time>
      </trkpt>
      <trkpt lat="42.9688090" lon="0.2304630">
        <ele>975.8</ele>
        <time>2020-07-25T11:07:19Z</time>
      </trkpt>
      <trkpt lat="42.9686790" lon="0.2303760">
        <ele>976.4</ele>
        <time>2020-07-25T11:07:23Z</time>
      </trkpt>
      <trkpt lat="42.9685660" lon="0.2303280">
        <ele>976.8</ele>
        <time>2020-07-25T11:07:26Z</time>
      </trkpt>
      <trkpt lat="42.9685240" lon="0.2303170">
        <ele>977.0</ele>
        <time>2020-07-25T11:07:27Z</time>
      </trkpt>
      <trkpt lat="42.9683970" lon="0.2302980">
        <ele>977.4</ele>
        <time>2020-07-25T11:07:30Z</time>
      </trkpt>
      <trkpt lat="42.9682340" lon="0.2302650">
        <ele>978.0</ele>
        <time>2020-07-25T11:07:34Z</time>
      </trkpt>
      <trkpt lat="42.9680290" lon="0.2302200">
        <ele>979.0</ele>
        <time>2020-07-25T11:07:39Z</time>
      </trkpt>
      <trkpt lat="42.9679840" lon="0.2302150">
        <ele>979.4</ele>
        <time>2020-07-25T11:07:40Z</time>
      </trkpt>
      <trkpt lat="42.9677610" lon="0.2301780">
        <ele>980.2</ele>
        <time>2020-07-25T11:07:45Z</time>
      </trkpt>
      <trkpt lat="42.9676260" lon="0.2301450">
        <ele>980.6</ele>
        <time>2020-07-25T11:07:48Z</time>
      </trkpt>
      <trkpt lat="42.9675320" lon="0.2301380">
        <ele>980.6</ele>
        <time>2020-07-25T11:07:50Z</time>
      </trkpt>
      <trkpt lat="42.9673200" lon="0.2301590">
        <ele>980.2</ele>
        <time>2020-07-25T11:07:54Z</time>
      </trkpt>
      <trkpt lat="42.9670870" lon="0.2302190">
        <ele>979.2</ele>
        <time>2020-07-25T11:07:58Z</time>
      </trkpt>
      <trkpt lat="42.9669680" lon="0.2302650">
        <ele>979.0</ele>
        <time>2020-07-25T11:08:00Z</time>
      </trkpt>
      <trkpt lat="42.9668520" lon="0.2303200">
        <ele>979.0</ele>
        <time>2020-07-25T11:08:02Z</time>
      </trkpt>
      <trkpt lat="42.9666800" lon="0.2303870">
        <ele>979.0</ele>
        <time>2020-07-25T11:08:05Z</time>
      </trkpt>
      <trkpt lat="42.9665040" lon="0.2304200">
        <ele>979.2</ele>
        <time>2020-07-25T11:08:08Z</time>
      </trkpt>
      <trkpt lat="42.9660970" lon="0.2304160">
        <ele>977.8</ele>
        <time>2020-07-25T11:08:14Z</time>
      </trkpt>
      <trkpt lat="42.9660240" lon="0.2304090">
        <ele>977.4</ele>
        <time>2020-07-25T11:08:15Z</time>
      </trkpt>
      <trkpt lat="42.9658790" lon="0.2303900">
        <ele>976.6</ele>
        <time>2020-07-25T11:08:17Z</time>
      </trkpt>
      <trkpt lat="42.9654530" lon="0.2303260">
        <ele>975.6</ele>
        <time>2020-07-25T11:08:23Z</time>
      </trkpt>
      <trkpt lat="42.9653870" lon="0.2303120">
        <ele>975.6</ele>
        <time>2020-07-25T11:08:24Z</time>
      </trkpt>
      <trkpt lat="42.9650110" lon="0.2302540">
        <ele>976.2</ele>
        <time>2020-07-25T11:08:30Z</time>
      </trkpt>
      <trkpt lat="42.9648870" lon="0.2302330">
        <ele>976.6</ele>
        <time>2020-07-25T11:08:32Z</time>
      </trkpt>
      <trkpt lat="42.9647600" lon="0.2302250">
        <ele>976.8</ele>
        <time>2020-07-25T11:08:34Z</time>
      </trkpt>
      <trkpt lat="42.9646950" lon="0.2302260">
        <ele>976.8</ele>
        <time>2020-07-25T11:08:35Z</time>
      </trkpt>
      <trkpt lat="42.9644890" lon="0.2302430">
        <ele>976.6</ele>
        <time>2020-07-25T11:08:38Z</time>
      </trkpt>
      <trkpt lat="42.9641230" lon="0.2302930">
        <ele>976.4</ele>
        <time>2020-07-25T11:08:43Z</time>
      </trkpt>
      <trkpt lat="42.9638290" lon="0.2303120">
        <ele>976.6</ele>
        <time>2020-07-25T11:08:47Z</time>
      </trkpt>
      <trkpt lat="42.9634140" lon="0.2303060">
        <ele>976.8</ele>
        <time>2020-07-25T11:08:53Z</time>
      </trkpt>
      <trkpt lat="42.9632790" lon="0.2303070">
        <ele>977.0</ele>
        <time>2020-07-25T11:08:55Z</time>
      </trkpt>
      <trkpt lat="42.9630750" lon="0.2303340">
        <ele>977.4</ele>
        <time>2020-07-25T11:08:58Z</time>
      </trkpt>
      <trkpt lat="42.9628780" lon="0.2303890">
        <ele>977.6</ele>
        <time>2020-07-25T11:09:01Z</time>
      </trkpt>
      <trkpt lat="42.9627600" lon="0.2304120">
        <ele>978.0</ele>
        <time>2020-07-25T11:09:03Z</time>
      </trkpt>
      <trkpt lat="42.9625980" lon="0.2304320">
        <ele>979.0</ele>
        <time>2020-07-25T11:09:06Z</time>
      </trkpt>
      <trkpt lat="42.9624580" lon="0.2304200">
        <ele>980.0</ele>
        <time>2020-07-25T11:09:09Z</time>
      </trkpt>
      <trkpt lat="42.9623290" lon="0.2303920">
        <ele>981.2</ele>
        <time>2020-07-25T11:09:12Z</time>
      </trkpt>
      <trkpt lat="42.9622100" lon="0.2303650">
        <ele>982.4</ele>
        <time>2020-07-25T11:09:15Z</time>
      </trkpt>
      <trkpt lat="42.9620970" lon="0.2303350">
        <ele>983.2</ele>
        <time>2020-07-25T11:09:18Z</time>
      </trkpt>
      <trkpt lat="42.9620230" lon="0.2303180">
        <ele>983.6</ele>
        <time>2020-07-25T11:09:20Z</time>
      </trkpt>
      <trkpt lat="42.9618140" lon="0.2303070">
        <ele>984.6</ele>
        <time>2020-07-25T11:09:26Z</time>
      </trkpt>
      <trkpt lat="42.9617490" lon="0.2303030">
        <ele>985.4</ele>
        <time>2020-07-25T11:09:28Z</time>
      </trkpt>
      <trkpt lat="42.9617170" lon="0.2302990">
        <ele>985.8</ele>
        <time>2020-07-25T11:09:29Z</time>
      </trkpt>
      <trkpt lat="42.9616210" lon="0.2302980">
        <ele>986.8</ele>
        <time>2020-07-25T11:09:32Z</time>
      </trkpt>
      <trkpt lat="42.9615900" lon="0.2303010">
        <ele>987.0</ele>
        <time>2020-07-25T11:09:33Z</time>
      </trkpt>
      <trkpt lat="42.9614940" lon="0.2303010">
        <ele>987.6</ele>
        <time>2020-07-25T11:09:36Z</time>
      </trkpt>
      <trkpt lat="42.9613970" lon="0.2302940">
        <ele>988.2</ele>
        <time>2020-07-25T11:09:39Z</time>
      </trkpt>
      <trkpt lat="42.9612620" lon="0.2302720">
        <ele>989.0</ele>
        <time>2020-07-25T11:09:43Z</time>
      </trkpt>
      <trkpt lat="42.9611870" lon="0.2302600">
        <ele>989.2</ele>
        <time>2020-07-25T11:09:45Z</time>
      </trkpt>
      <trkpt lat="42.9609430" lon="0.2302190">
        <ele>990.2</ele>
        <time>2020-07-25T11:09:51Z</time>
      </trkpt>
      <trkpt lat="42.9608610" lon="0.2302030">
        <ele>990.4</ele>
        <time>2020-07-25T11:09:53Z</time>
      </trkpt>
      <trkpt lat="42.9608200" lon="0.2301960">
        <ele>990.6</ele>
        <time>2020-07-25T11:09:54Z</time>
      </trkpt>
      <trkpt lat="42.9607790" lon="0.2301900">
        <ele>990.6</ele>
        <time>2020-07-25T11:09:55Z</time>
      </trkpt>
      <trkpt lat="42.9605890" lon="0.2301550">
        <ele>991.4</ele>
        <time>2020-07-25T11:10:00Z</time>
      </trkpt>
      <trkpt lat="42.9605520" lon="0.2301500">
        <ele>991.6</ele>
        <time>2020-07-25T11:10:01Z</time>
      </trkpt>
      <trkpt lat="42.9604790" lon="0.2301380">
        <ele>991.8</ele>
        <time>2020-07-25T11:10:03Z</time>
      </trkpt>
      <trkpt lat="42.9603700" lon="0.2301180">
        <ele>992.6</ele>
        <time>2020-07-25T11:10:06Z</time>
      </trkpt>
      <trkpt lat="42.9602190" lon="0.2300700">
        <ele>993.4</ele>
        <time>2020-07-25T11:10:10Z</time>
      </trkpt>
      <trkpt lat="42.9601810" lon="0.2300470">
        <ele>993.6</ele>
        <time>2020-07-25T11:10:11Z</time>
      </trkpt>
      <trkpt lat="42.9601420" lon="0.2300230">
        <ele>993.8</ele>
        <time>2020-07-25T11:10:12Z</time>
      </trkpt>
      <trkpt lat="42.9600200" lon="0.2299330">
        <ele>994.4</ele>
        <time>2020-07-25T11:10:15Z</time>
      </trkpt>
      <trkpt lat="42.9598930" lon="0.2298380">
        <ele>994.6</ele>
        <time>2020-07-25T11:10:18Z</time>
      </trkpt>
      <trkpt lat="42.9598100" lon="0.2297720">
        <ele>995.0</ele>
        <time>2020-07-25T11:10:20Z</time>
      </trkpt>
      <trkpt lat="42.9596450" lon="0.2296340">
        <ele>995.6</ele>
        <time>2020-07-25T11:10:24Z</time>
      </trkpt>
      <trkpt lat="42.9595590" lon="0.2295640">
        <ele>995.8</ele>
        <time>2020-07-25T11:10:26Z</time>
      </trkpt>
      <trkpt lat="42.9594720" lon="0.2294890">
        <ele>996.2</ele>
        <time>2020-07-25T11:10:28Z</time>
      </trkpt>
      <trkpt lat="42.9592970" lon="0.2293350">
        <ele>997.0</ele>
        <time>2020-07-25T11:10:32Z</time>
      </trkpt>
      <trkpt lat="42.9592550" lon="0.2292950">
        <ele>997.2</ele>
        <time>2020-07-25T11:10:33Z</time>
      </trkpt>
      <trkpt lat="42.9590320" lon="0.2290960">
        <ele>998.0</ele>
        <time>2020-07-25T11:10:38Z</time>
      </trkpt>
      <trkpt lat="42.9589380" lon="0.2290140">
        <ele>998.2</ele>
        <time>2020-07-25T11:10:40Z</time>
      </trkpt>
      <trkpt lat="42.9586840" lon="0.2288510">
        <ele>998.6</ele>
        <time>2020-07-25T11:10:45Z</time>
      </trkpt>
      <trkpt lat="42.9585830" lon="0.2287960">
        <ele>998.6</ele>
        <time>2020-07-25T11:10:47Z</time>
      </trkpt>
      <trkpt lat="42.9583330" lon="0.2287090">
        <ele>999.0</ele>
        <time>2020-07-25T11:10:52Z</time>
      </trkpt>
      <trkpt lat="42.9582820" lon="0.2287010">
        <ele>999.6</ele>
        <time>2020-07-25T11:10:53Z</time>
      </trkpt>
      <trkpt lat="42.9579730" lon="0.2286810">
        <ele>1000.4</ele>
        <time>2020-07-25T11:10:59Z</time>
      </trkpt>
      <trkpt lat="42.9578660" lon="0.2286630">
        <ele>1000.4</ele>
        <time>2020-07-25T11:11:01Z</time>
      </trkpt>
      <trkpt lat="42.9577600" lon="0.2286370">
        <ele>1000.4</ele>
        <time>2020-07-25T11:11:03Z</time>
      </trkpt>
      <trkpt lat="42.9576590" lon="0.2285890">
        <ele>1000.4</ele>
        <time>2020-07-25T11:11:05Z</time>
      </trkpt>
      <trkpt lat="42.9576110" lon="0.2285610">
        <ele>1000.6</ele>
        <time>2020-07-25T11:11:06Z</time>
      </trkpt>
      <trkpt lat="42.9575640" lon="0.2285330">
        <ele>1000.6</ele>
        <time>2020-07-25T11:11:07Z</time>
      </trkpt>
      <trkpt lat="42.9572960" lon="0.2283960">
        <ele>1001.6</ele>
        <time>2020-07-25T11:11:13Z</time>
      </trkpt>
      <trkpt lat="42.9572150" lon="0.2283590">
        <ele>1002.0</ele>
        <time>2020-07-25T11:11:15Z</time>
      </trkpt>
      <trkpt lat="42.9571400" lon="0.2283160">
        <ele>1002.6</ele>
        <time>2020-07-25T11:11:17Z</time>
      </trkpt>
      <trkpt lat="42.9571040" lon="0.2282940">
        <ele>1003.0</ele>
        <time>2020-07-25T11:11:18Z</time>
      </trkpt>
      <trkpt lat="42.9570330" lon="0.2282640">
        <ele>1003.6</ele>
        <time>2020-07-25T11:11:20Z</time>
      </trkpt>
      <trkpt lat="42.9569640" lon="0.2282420">
        <ele>1004.2</ele>
        <time>2020-07-25T11:11:22Z</time>
      </trkpt>
      <trkpt lat="42.9568060" lon="0.2281790">
        <ele>1005.4</ele>
        <time>2020-07-25T11:11:27Z</time>
      </trkpt>
      <trkpt lat="42.9567750" lon="0.2281660">
        <ele>1005.8</ele>
        <time>2020-07-25T11:11:28Z</time>
      </trkpt>
      <trkpt lat="42.9567130" lon="0.2281430">
        <ele>1006.6</ele>
        <time>2020-07-25T11:11:30Z</time>
      </trkpt>
      <trkpt lat="42.9565240" lon="0.2280690">
        <ele>1007.6</ele>
        <time>2020-07-25T11:11:36Z</time>
      </trkpt>
      <trkpt lat="42.9564910" lon="0.2280580">
        <ele>1007.8</ele>
        <time>2020-07-25T11:11:37Z</time>
      </trkpt>
      <trkpt lat="42.9563620" lon="0.2279950">
        <ele>1008.8</ele>
        <time>2020-07-25T11:11:41Z</time>
      </trkpt>
      <trkpt lat="42.9562310" lon="0.2279390">
        <ele>1009.4</ele>
        <time>2020-07-25T11:11:45Z</time>
      </trkpt>
      <trkpt lat="42.9561010" lon="0.2278880">
        <ele>1010.0</ele>
        <time>2020-07-25T11:11:49Z</time>
      </trkpt>
      <trkpt lat="42.9559410" lon="0.2278400">
        <ele>1011.4</ele>
        <time>2020-07-25T11:11:54Z</time>
      </trkpt>
      <trkpt lat="42.9558130" lon="0.2278310">
        <ele>1012.4</ele>
        <time>2020-07-25T11:11:58Z</time>
      </trkpt>
      <trkpt lat="42.9557180" lon="0.2278360">
        <ele>1012.8</ele>
        <time>2020-07-25T11:12:01Z</time>
      </trkpt>
      <trkpt lat="42.9556540" lon="0.2278510">
        <ele>1013.4</ele>
        <time>2020-07-25T11:12:03Z</time>
      </trkpt>
      <trkpt lat="42.9556230" lon="0.2278610">
        <ele>1013.6</ele>
        <time>2020-07-25T11:12:04Z</time>
      </trkpt>
      <trkpt lat="42.9554600" lon="0.2279010">
        <ele>1014.6</ele>
        <time>2020-07-25T11:12:09Z</time>
      </trkpt>
      <trkpt lat="42.9553480" lon="0.2279240">
        <ele>1014.8</ele>
        <time>2020-07-25T11:12:12Z</time>
      </trkpt>
      <trkpt lat="42.9550560" lon="0.2279560">
        <ele>1015.2</ele>
        <time>2020-07-25T11:12:18Z</time>
      </trkpt>
      <trkpt lat="42.9550040" lon="0.2279540">
        <ele>1015.2</ele>
        <time>2020-07-25T11:12:19Z</time>
      </trkpt>
      <trkpt lat="42.9547980" lon="0.2279320">
        <ele>1015.6</ele>
        <time>2020-07-25T11:12:23Z</time>
      </trkpt>
      <trkpt lat="42.9547490" lon="0.2279280">
        <ele>1015.6</ele>
        <time>2020-07-25T11:12:24Z</time>
      </trkpt>
      <trkpt lat="42.9546970" lon="0.2279310">
        <ele>1015.6</ele>
        <time>2020-07-25T11:12:25Z</time>
      </trkpt>
      <trkpt lat="42.9543820" lon="0.2279260">
        <ele>1016.2</ele>
        <time>2020-07-25T11:12:31Z</time>
      </trkpt>
      <trkpt lat="42.9543270" lon="0.2279260">
        <ele>1016.4</ele>
        <time>2020-07-25T11:12:32Z</time>
      </trkpt>
      <trkpt lat="42.9542700" lon="0.2279250">
        <ele>1016.6</ele>
        <time>2020-07-25T11:12:33Z</time>
      </trkpt>
      <trkpt lat="42.9540630" lon="0.2279080">
        <ele>1018.0</ele>
        <time>2020-07-25T11:12:37Z</time>
      </trkpt>
      <trkpt lat="42.9539680" lon="0.2278970">
        <ele>1018.4</ele>
        <time>2020-07-25T11:12:39Z</time>
      </trkpt>
      <trkpt lat="42.9538800" lon="0.2278840">
        <ele>1019.0</ele>
        <time>2020-07-25T11:12:41Z</time>
      </trkpt>
      <trkpt lat="42.9537200" lon="0.2278420">
        <ele>1020.4</ele>
        <time>2020-07-25T11:12:45Z</time>
      </trkpt>
      <trkpt lat="42.9536890" lon="0.2278330">
        <ele>1020.8</ele>
        <time>2020-07-25T11:12:46Z</time>
      </trkpt>
      <trkpt lat="42.9536300" lon="0.2278100">
        <ele>1021.4</ele>
        <time>2020-07-25T11:12:48Z</time>
      </trkpt>
      <trkpt lat="42.9535960" lon="0.2277970">
        <ele>1021.6</ele>
        <time>2020-07-25T11:12:49Z</time>
      </trkpt>
      <trkpt lat="42.9535600" lon="0.2277830">
        <ele>1021.6</ele>
        <time>2020-07-25T11:12:50Z</time>
      </trkpt>
      <trkpt lat="42.9534890" lon="0.2277460">
        <ele>1021.8</ele>
        <time>2020-07-25T11:12:52Z</time>
      </trkpt>
      <trkpt lat="42.9533390" lon="0.2276680">
        <ele>1022.2</ele>
        <time>2020-07-25T11:12:56Z</time>
      </trkpt>
      <trkpt lat="42.9532620" lon="0.2276340">
        <ele>1022.6</ele>
        <time>2020-07-25T11:12:58Z</time>
      </trkpt>
      <trkpt lat="42.9531480" lon="0.2275830">
        <ele>1023.2</ele>
        <time>2020-07-25T11:13:01Z</time>
      </trkpt>
      <trkpt lat="42.9529490" lon="0.2274930">
        <ele>1023.8</ele>
        <time>2020-07-25T11:13:06Z</time>
      </trkpt>
      <trkpt lat="42.9527560" lon="0.2274140">
        <ele>1025.0</ele>
        <time>2020-07-25T11:13:11Z</time>
      </trkpt>
      <trkpt lat="42.9527200" lon="0.2273970">
        <ele>1025.0</ele>
        <time>2020-07-25T11:13:12Z</time>
      </trkpt>
      <trkpt lat="42.9525750" lon="0.2273260">
        <ele>1026.2</ele>
        <time>2020-07-25T11:13:16Z</time>
      </trkpt>
      <trkpt lat="42.9523920" lon="0.2272210">
        <ele>1027.2</ele>
        <time>2020-07-25T11:13:21Z</time>
      </trkpt>
      <trkpt lat="42.9522770" lon="0.2271480">
        <ele>1028.2</ele>
        <time>2020-07-25T11:13:24Z</time>
      </trkpt>
      <trkpt lat="42.9521740" lon="0.2270590">
        <ele>1028.4</ele>
        <time>2020-07-25T11:13:27Z</time>
      </trkpt>
      <trkpt lat="42.9521080" lon="0.2269970">
        <ele>1028.6</ele>
        <time>2020-07-25T11:13:29Z</time>
      </trkpt>
      <trkpt lat="42.9518680" lon="0.2267840">
        <ele>1029.2</ele>
        <time>2020-07-25T11:13:35Z</time>
      </trkpt>
      <trkpt lat="42.9517850" lon="0.2267160">
        <ele>1029.2</ele>
        <time>2020-07-25T11:13:37Z</time>
      </trkpt>
      <trkpt lat="42.9517420" lon="0.2266820">
        <ele>1029.4</ele>
        <time>2020-07-25T11:13:38Z</time>
      </trkpt>
      <trkpt lat="42.9517000" lon="0.2266490">
        <ele>1029.4</ele>
        <time>2020-07-25T11:13:39Z</time>
      </trkpt>
      <trkpt lat="42.9516150" lon="0.2265840">
        <ele>1029.8</ele>
        <time>2020-07-25T11:13:41Z</time>
      </trkpt>
      <trkpt lat="42.9514860" lon="0.2264780">
        <ele>1030.0</ele>
        <time>2020-07-25T11:13:44Z</time>
      </trkpt>
      <trkpt lat="42.9513090" lon="0.2263360">
        <ele>1030.0</ele>
        <time>2020-07-25T11:13:48Z</time>
      </trkpt>
      <trkpt lat="42.9510870" lon="0.2261680">
        <ele>1030.4</ele>
        <time>2020-07-25T11:13:53Z</time>
      </trkpt>
      <trkpt lat="42.9509090" lon="0.2260740">
        <ele>1031.4</ele>
        <time>2020-07-25T11:13:57Z</time>
      </trkpt>
      <trkpt lat="42.9508650" lon="0.2260540">
        <ele>1031.6</ele>
        <time>2020-07-25T11:13:58Z</time>
      </trkpt>
      <trkpt lat="42.9506210" lon="0.2259360">
        <ele>1032.6</ele>
        <time>2020-07-25T11:14:04Z</time>
      </trkpt>
      <trkpt lat="42.9505830" lon="0.2259170">
        <ele>1032.8</ele>
        <time>2020-07-25T11:14:05Z</time>
      </trkpt>
      <trkpt lat="42.9505470" lon="0.2258990">
        <ele>1033.0</ele>
        <time>2020-07-25T11:14:06Z</time>
      </trkpt>
      <trkpt lat="42.9504150" lon="0.2258300">
        <ele>1034.0</ele>
        <time>2020-07-25T11:14:10Z</time>
      </trkpt>
      <trkpt lat="42.9502960" lon="0.2257580">
        <ele>1035.2</ele>
        <time>2020-07-25T11:14:14Z</time>
      </trkpt>
      <trkpt lat="42.9501470" lon="0.2256780">
        <ele>1036.2</ele>
        <time>2020-07-25T11:14:19Z</time>
      </trkpt>
      <trkpt lat="42.9500910" lon="0.2256430">
        <ele>1036.6</ele>
        <time>2020-07-25T11:14:21Z</time>
      </trkpt>
      <trkpt lat="42.9500350" lon="0.2256130">
        <ele>1037.2</ele>
        <time>2020-07-25T11:14:23Z</time>
      </trkpt>
      <trkpt lat="42.9500090" lon="0.2256010">
        <ele>1037.4</ele>
        <time>2020-07-25T11:14:24Z</time>
      </trkpt>
      <trkpt lat="42.9499070" lon="0.2255560">
        <ele>1038.4</ele>
        <time>2020-07-25T11:14:28Z</time>
      </trkpt>
      <trkpt lat="42.9498660" lon="0.2255390">
        <ele>1039.0</ele>
        <time>2020-07-25T11:14:30Z</time>
      </trkpt>
      <trkpt lat="42.9498190" lon="0.2255290">
        <ele>1039.6</ele>
        <time>2020-07-25T11:14:32Z</time>
      </trkpt>
      <trkpt lat="42.9497150" lon="0.2255250">
        <ele>1040.6</ele>
        <time>2020-07-25T11:14:36Z</time>
      </trkpt>
      <trkpt lat="42.9496660" lon="0.2255210">
        <ele>1041.0</ele>
        <time>2020-07-25T11:14:38Z</time>
      </trkpt>
      <trkpt lat="42.9495920" lon="0.2255010">
        <ele>1041.8</ele>
        <time>2020-07-25T11:14:41Z</time>
      </trkpt>
      <trkpt lat="42.9495000" lon="0.2254470">
        <ele>1042.8</ele>
        <time>2020-07-25T11:14:45Z</time>
      </trkpt>
      <trkpt lat="42.9493820" lon="0.2253650">
        <ele>1044.0</ele>
        <time>2020-07-25T11:14:50Z</time>
      </trkpt>
      <trkpt lat="42.9492910" lon="0.2252750">
        <ele>1044.6</ele>
        <time>2020-07-25T11:14:54Z</time>
      </trkpt>
      <trkpt lat="42.9492240" lon="0.2251990">
        <ele>1045.2</ele>
        <time>2020-07-25T11:14:57Z</time>
      </trkpt>
      <trkpt lat="42.9491210" lon="0.2250580">
        <ele>1045.8</ele>
        <time>2020-07-25T11:15:02Z</time>
      </trkpt>
      <trkpt lat="42.9490860" lon="0.2250060">
        <ele>1046.2</ele>
        <time>2020-07-25T11:15:04Z</time>
      </trkpt>
      <trkpt lat="42.9490550" lon="0.2249350">
        <ele>1046.6</ele>
        <time>2020-07-25T11:15:06Z</time>
      </trkpt>
      <trkpt lat="42.9490370" lon="0.2248980">
        <ele>1046.8</ele>
        <time>2020-07-25T11:15:07Z</time>
      </trkpt>
      <trkpt lat="42.9490070" lon="0.2248210">
        <ele>1047.2</ele>
        <time>2020-07-25T11:15:09Z</time>
      </trkpt>
      <trkpt lat="42.9489920" lon="0.2247850">
        <ele>1047.4</ele>
        <time>2020-07-25T11:15:10Z</time>
      </trkpt>
      <trkpt lat="42.9489220" lon="0.2246470">
        <ele>1048.0</ele>
        <time>2020-07-25T11:15:14Z</time>
      </trkpt>
      <trkpt lat="42.9488750" lon="0.2245910">
        <ele>1048.2</ele>
        <time>2020-07-25T11:15:16Z</time>
      </trkpt>
      <trkpt lat="42.9488490" lon="0.2245700">
        <ele>1048.4</ele>
        <time>2020-07-25T11:15:17Z</time>
      </trkpt>
      <trkpt lat="42.9487920" lon="0.2245360">
        <ele>1048.8</ele>
        <time>2020-07-25T11:15:19Z</time>
      </trkpt>
      <trkpt lat="42.9487350" lon="0.2245050">
        <ele>1049.2</ele>
        <time>2020-07-25T11:15:21Z</time>
      </trkpt>
      <trkpt lat="42.9487070" lon="0.2244900">
        <ele>1049.4</ele>
        <time>2020-07-25T11:15:22Z</time>
      </trkpt>
      <trkpt lat="42.9486790" lon="0.2244770">
        <ele>1049.6</ele>
        <time>2020-07-25T11:15:23Z</time>
      </trkpt>
      <trkpt lat="42.9486010" lon="0.2244400">
        <ele>1050.0</ele>
        <time>2020-07-25T11:15:26Z</time>
      </trkpt>
      <trkpt lat="42.9485160" lon="0.2244260">
        <ele>1050.6</ele>
        <time>2020-07-25T11:15:29Z</time>
      </trkpt>
      <trkpt lat="42.9484310" lon="0.2244040">
        <ele>1051.4</ele>
        <time>2020-07-25T11:15:32Z</time>
      </trkpt>
      <trkpt lat="42.9483780" lon="0.2243870">
        <ele>1051.8</ele>
        <time>2020-07-25T11:15:34Z</time>
      </trkpt>
      <trkpt lat="42.9482070" lon="0.2243110">
        <ele>1052.8</ele>
        <time>2020-07-25T11:15:40Z</time>
      </trkpt>
      <trkpt lat="42.9481780" lon="0.2242930">
        <ele>1052.8</ele>
        <time>2020-07-25T11:15:41Z</time>
      </trkpt>
      <trkpt lat="42.9479910" lon="0.2241780">
        <ele>1053.6</ele>
        <time>2020-07-25T11:15:47Z</time>
      </trkpt>
      <trkpt lat="42.9478390" lon="0.2240840">
        <ele>1053.8</ele>
        <time>2020-07-25T11:15:51Z</time>
      </trkpt>
      <trkpt lat="42.9476860" lon="0.2239770">
        <ele>1054.0</ele>
        <time>2020-07-25T11:15:55Z</time>
      </trkpt>
      <trkpt lat="42.9474930" lon="0.2238330">
        <ele>1055.0</ele>
        <time>2020-07-25T11:16:01Z</time>
      </trkpt>
      <trkpt lat="42.9474700" lon="0.2238090">
        <ele>1055.4</ele>
        <time>2020-07-25T11:16:02Z</time>
      </trkpt>
      <trkpt lat="42.9474020" lon="0.2237380">
        <ele>1056.2</ele>
        <time>2020-07-25T11:16:05Z</time>
      </trkpt>
      <trkpt lat="42.9473200" lon="0.2236410">
        <ele>1057.2</ele>
        <time>2020-07-25T11:16:09Z</time>
      </trkpt>
      <trkpt lat="42.9472790" lon="0.2236030">
        <ele>1057.4</ele>
        <time>2020-07-25T11:16:11Z</time>
      </trkpt>
      <trkpt lat="42.9471720" lon="0.2234730">
        <ele>1058.2</ele>
        <time>2020-07-25T11:16:16Z</time>
      </trkpt>
      <trkpt lat="42.9470710" lon="0.2232820">
        <ele>1059.2</ele>
        <time>2020-07-25T11:16:22Z</time>
      </trkpt>
      <trkpt lat="42.9470530" lon="0.2232510">
        <ele>1059.4</ele>
        <time>2020-07-25T11:16:23Z</time>
      </trkpt>
      <trkpt lat="42.9469900" lon="0.2231320">
        <ele>1059.8</ele>
        <time>2020-07-25T11:16:27Z</time>
      </trkpt>
      <trkpt lat="42.9469590" lon="0.2230960">
        <ele>1060.0</ele>
        <time>2020-07-25T11:16:29Z</time>
      </trkpt>
      <trkpt lat="42.9469400" lon="0.2228830">
        <ele>1059.6</ele>
        <time>2020-07-25T11:25:12Z</time>
      </trkpt>
      <trkpt lat="42.9469310" lon="0.2228540">
        <ele>1059.6</ele>
        <time>2020-07-25T11:25:13Z</time>
      </trkpt>
      <trkpt lat="42.9468910" lon="0.2227920">
        <ele>1060.4</ele>
        <time>2020-07-25T11:25:16Z</time>
      </trkpt>
      <trkpt lat="42.9468670" lon="0.2227270">
        <ele>1061.6</ele>
        <time>2020-07-25T11:25:18Z</time>
      </trkpt>
      <trkpt lat="42.9468670" lon="0.2227270">
        <ele>1062.8</ele>
        <time>2020-07-25T11:25:21Z</time>
      </trkpt>
      <trkpt lat="42.9467740" lon="0.2225780">
        <ele>1063.6</ele>
        <time>2020-07-25T11:25:25Z</time>
      </trkpt>
      <trkpt lat="42.9467690" lon="0.2225510">
        <ele>1063.8</ele>
        <time>2020-07-25T11:25:26Z</time>
      </trkpt>
      <trkpt lat="42.9467290" lon="0.2223900">
        <ele>1065.0</ele>
        <time>2020-07-25T11:25:32Z</time>
      </trkpt>
      <trkpt lat="42.9467250" lon="0.2223650">
        <ele>1065.2</ele>
        <time>2020-07-25T11:25:33Z</time>
      </trkpt>
      <trkpt lat="42.9467180" lon="0.2222930">
        <ele>1066.0</ele>
        <time>2020-07-25T11:25:36Z</time>
      </trkpt>
      <trkpt lat="42.9466990" lon="0.2221430">
        <ele>1066.6</ele>
        <time>2020-07-25T11:25:42Z</time>
      </trkpt>
      <trkpt lat="42.9466890" lon="0.2220910">
        <ele>1067.0</ele>
        <time>2020-07-25T11:25:44Z</time>
      </trkpt>
      <trkpt lat="42.9466640" lon="0.2219810">
        <ele>1068.0</ele>
        <time>2020-07-25T11:25:48Z</time>
      </trkpt>
      <trkpt lat="42.9466490" lon="0.2219240">
        <ele>1068.4</ele>
        <time>2020-07-25T11:25:50Z</time>
      </trkpt>
      <trkpt lat="42.9466350" lon="0.2218670">
        <ele>1068.8</ele>
        <time>2020-07-25T11:25:52Z</time>
      </trkpt>
      <trkpt lat="42.9466180" lon="0.2218140">
        <ele>1069.2</ele>
        <time>2020-07-25T11:25:54Z</time>
      </trkpt>
      <trkpt lat="42.9465990" lon="0.2217700">
        <ele>1069.6</ele>
        <time>2020-07-25T11:25:56Z</time>
      </trkpt>
      <trkpt lat="42.9465490" lon="0.2216800">
        <ele>1070.2</ele>
        <time>2020-07-25T11:26:00Z</time>
      </trkpt>
      <trkpt lat="42.9465360" lon="0.2216570">
        <ele>1070.4</ele>
        <time>2020-07-25T11:26:01Z</time>
      </trkpt>
      <trkpt lat="42.9464860" lon="0.2215860">
        <ele>1071.4</ele>
        <time>2020-07-25T11:26:05Z</time>
      </trkpt>
      <trkpt lat="42.9464480" lon="0.2215400">
        <ele>1071.8</ele>
        <time>2020-07-25T11:26:07Z</time>
      </trkpt>
      <trkpt lat="42.9463610" lon="0.2214510">
        <ele>1072.4</ele>
        <time>2020-07-25T11:26:11Z</time>
      </trkpt>
      <trkpt lat="42.9463390" lon="0.2214340">
        <ele>1072.4</ele>
        <time>2020-07-25T11:26:12Z</time>
      </trkpt>
      <trkpt lat="42.9463170" lon="0.2214140">
        <ele>1072.6</ele>
        <time>2020-07-25T11:26:13Z</time>
      </trkpt>
      <trkpt lat="42.9462950" lon="0.2214000">
        <ele>1073.0</ele>
        <time>2020-07-25T11:26:14Z</time>
      </trkpt>
      <trkpt lat="42.9462710" lon="0.2213870">
        <ele>1073.0</ele>
        <time>2020-07-25T11:26:15Z</time>
      </trkpt>
      <trkpt lat="42.9462480" lon="0.2213760">
        <ele>1073.2</ele>
        <time>2020-07-25T11:26:16Z</time>
      </trkpt>
      <trkpt lat="42.9462270" lon="0.2213650">
        <ele>1073.4</ele>
        <time>2020-07-25T11:26:17Z</time>
      </trkpt>
      <trkpt lat="42.9462050" lon="0.2213540">
        <ele>1073.6</ele>
        <time>2020-07-25T11:26:18Z</time>
      </trkpt>
      <trkpt lat="42.9460910" lon="0.2213340">
        <ele>1074.6</ele>
        <time>2020-07-25T11:26:23Z</time>
      </trkpt>
      <trkpt lat="42.9460690" lon="0.2213310">
        <ele>1074.8</ele>
        <time>2020-07-25T11:26:24Z</time>
      </trkpt>
      <trkpt lat="42.9459690" lon="0.2212860">
        <ele>1075.8</ele>
        <time>2020-07-25T11:26:29Z</time>
      </trkpt>
      <trkpt lat="42.9459270" lon="0.2212590">
        <ele>1076.2</ele>
        <time>2020-07-25T11:26:31Z</time>
      </trkpt>
      <trkpt lat="42.9458850" lon="0.2212280">
        <ele>1076.4</ele>
        <time>2020-07-25T11:26:33Z</time>
      </trkpt>
      <trkpt lat="42.9458240" lon="0.2211860">
        <ele>1076.8</ele>
        <time>2020-07-25T11:26:36Z</time>
      </trkpt>
      <trkpt lat="42.9457460" lon="0.2211130">
        <ele>1078.0</ele>
        <time>2020-07-25T11:26:40Z</time>
      </trkpt>
      <trkpt lat="42.9456590" lon="0.2210110">
        <ele>1079.0</ele>
        <time>2020-07-25T11:26:45Z</time>
      </trkpt>
      <trkpt lat="42.9456440" lon="0.2209880">
        <ele>1079.2</ele>
        <time>2020-07-25T11:26:46Z</time>
      </trkpt>
      <trkpt lat="42.9456040" lon="0.2209160">
        <ele>1080.0</ele>
        <time>2020-07-25T11:26:49Z</time>
      </trkpt>
      <trkpt lat="42.9455920" lon="0.2208890">
        <ele>1080.0</ele>
        <time>2020-07-25T11:26:50Z</time>
      </trkpt>
      <trkpt lat="42.9455800" lon="0.2208610">
        <ele>1080.2</ele>
        <time>2020-07-25T11:26:51Z</time>
      </trkpt>
      <trkpt lat="42.9455130" lon="0.2207180">
        <ele>1081.0</ele>
        <time>2020-07-25T11:26:56Z</time>
      </trkpt>
      <trkpt lat="42.9455000" lon="0.2206910">
        <ele>1081.2</ele>
        <time>2020-07-25T11:26:57Z</time>
      </trkpt>
      <trkpt lat="42.9454870" lon="0.2206640">
        <ele>1081.4</ele>
        <time>2020-07-25T11:26:58Z</time>
      </trkpt>
      <trkpt lat="42.9454330" lon="0.2205630">
        <ele>1082.2</ele>
        <time>2020-07-25T11:27:02Z</time>
      </trkpt>
      <trkpt lat="42.9453950" lon="0.2205010">
        <ele>1082.6</ele>
        <time>2020-07-25T11:27:05Z</time>
      </trkpt>
      <trkpt lat="42.9453510" lon="0.2204400">
        <ele>1083.0</ele>
        <time>2020-07-25T11:27:08Z</time>
      </trkpt>
      <trkpt lat="42.9453350" lon="0.2204150">
        <ele>1083.2</ele>
        <time>2020-07-25T11:27:09Z</time>
      </trkpt>
      <trkpt lat="42.9452880" lon="0.2203430">
        <ele>1084.2</ele>
        <time>2020-07-25T11:27:12Z</time>
      </trkpt>
      <trkpt lat="42.9452710" lon="0.2203190">
        <ele>1084.6</ele>
        <time>2020-07-25T11:27:13Z</time>
      </trkpt>
      <trkpt lat="42.9451580" lon="0.2201900">
        <ele>1085.6</ele>
        <time>2020-07-25T11:27:19Z</time>
      </trkpt>
      <trkpt lat="42.9451400" lon="0.2201680">
        <ele>1085.8</ele>
        <time>2020-07-25T11:27:20Z</time>
      </trkpt>
      <trkpt lat="42.9450430" lon="0.2200670">
        <ele>1086.8</ele>
        <time>2020-07-25T11:27:25Z</time>
      </trkpt>
      <trkpt lat="42.9449800" lon="0.2200060">
        <ele>1087.8</ele>
        <time>2020-07-25T11:27:28Z</time>
      </trkpt>
      <trkpt lat="42.9449570" lon="0.2199870">
        <ele>1088.0</ele>
        <time>2020-07-25T11:27:29Z</time>
      </trkpt>
      <trkpt lat="42.9448650" lon="0.2199180">
        <ele>1088.6</ele>
        <time>2020-07-25T11:27:33Z</time>
      </trkpt>
      <trkpt lat="42.9448410" lon="0.2199030">
        <ele>1089.0</ele>
        <time>2020-07-25T11:27:34Z</time>
      </trkpt>
      <trkpt lat="42.9447720" lon="0.2198560">
        <ele>1089.6</ele>
        <time>2020-07-25T11:27:37Z</time>
      </trkpt>
      <trkpt lat="42.9447260" lon="0.2198220">
        <ele>1090.0</ele>
        <time>2020-07-25T11:27:39Z</time>
      </trkpt>
      <trkpt lat="42.9447050" lon="0.2198040">
        <ele>1090.4</ele>
        <time>2020-07-25T11:27:40Z</time>
      </trkpt>
      <trkpt lat="42.9446140" lon="0.2197390">
        <ele>1091.4</ele>
        <time>2020-07-25T11:27:44Z</time>
      </trkpt>
      <trkpt lat="42.9445890" lon="0.2197270">
        <ele>1091.4</ele>
        <time>2020-07-25T11:27:45Z</time>
      </trkpt>
      <trkpt lat="42.9444750" lon="0.2196550">
        <ele>1092.4</ele>
        <time>2020-07-25T11:27:50Z</time>
      </trkpt>
      <trkpt lat="42.9444180" lon="0.2195910">
        <ele>1093.0</ele>
        <time>2020-07-25T11:27:53Z</time>
      </trkpt>
      <trkpt lat="42.9443800" lon="0.2195460">
        <ele>1093.6</ele>
        <time>2020-07-25T11:27:55Z</time>
      </trkpt>
      <trkpt lat="42.9443410" lon="0.2195010">
        <ele>1094.2</ele>
        <time>2020-07-25T11:27:57Z</time>
      </trkpt>
      <trkpt lat="42.9443010" lon="0.2194610">
        <ele>1094.6</ele>
        <time>2020-07-25T11:27:59Z</time>
      </trkpt>
      <trkpt lat="42.9442500" lon="0.2193830">
        <ele>1095.2</ele>
        <time>2020-07-25T11:28:02Z</time>
      </trkpt>
      <trkpt lat="42.9441980" lon="0.2193140">
        <ele>1095.8</ele>
        <time>2020-07-25T11:28:05Z</time>
      </trkpt>
      <trkpt lat="42.9441480" lon="0.2192380">
        <ele>1096.2</ele>
        <time>2020-07-25T11:28:08Z</time>
      </trkpt>
      <trkpt lat="42.9441100" lon="0.2192020">
        <ele>1096.8</ele>
        <time>2020-07-25T11:28:10Z</time>
      </trkpt>
      <trkpt lat="42.9440910" lon="0.2191790">
        <ele>1097.0</ele>
        <time>2020-07-25T11:28:11Z</time>
      </trkpt>
      <trkpt lat="42.9439810" lon="0.2190260">
        <ele>1097.8</ele>
        <time>2020-07-25T11:28:17Z</time>
      </trkpt>
      <trkpt lat="42.9439610" lon="0.2190020">
        <ele>1098.0</ele>
        <time>2020-07-25T11:28:18Z</time>
      </trkpt>
      <trkpt lat="42.9439420" lon="0.2189800">
        <ele>1098.2</ele>
        <time>2020-07-25T11:28:19Z</time>
      </trkpt>
      <trkpt lat="42.9438840" lon="0.2189150">
        <ele>1099.2</ele>
        <time>2020-07-25T11:28:22Z</time>
      </trkpt>
      <trkpt lat="42.9437720" lon="0.2187770">
        <ele>1100.2</ele>
        <time>2020-07-25T11:28:28Z</time>
      </trkpt>
      <trkpt lat="42.9437530" lon="0.2187570">
        <ele>1100.4</ele>
        <time>2020-07-25T11:28:29Z</time>
      </trkpt>
      <trkpt lat="42.9436580" lon="0.2186400">
        <ele>1101.6</ele>
        <time>2020-07-25T11:28:34Z</time>
      </trkpt>
      <trkpt lat="42.9435860" lon="0.2185520">
        <ele>1102.6</ele>
        <time>2020-07-25T11:28:38Z</time>
      </trkpt>
      <trkpt lat="42.9435460" lon="0.2184820">
        <ele>1103.2</ele>
        <time>2020-07-25T11:28:41Z</time>
      </trkpt>
      <trkpt lat="42.9435180" lon="0.2184280">
        <ele>1103.6</ele>
        <time>2020-07-25T11:28:43Z</time>
      </trkpt>
      <trkpt lat="42.9435020" lon="0.2184040">
        <ele>1103.8</ele>
        <time>2020-07-25T11:28:44Z</time>
      </trkpt>
      <trkpt lat="42.9434530" lon="0.2183210">
        <ele>1104.4</ele>
        <time>2020-07-25T11:28:47Z</time>
      </trkpt>
      <trkpt lat="42.9434260" lon="0.2182620">
        <ele>1104.8</ele>
        <time>2020-07-25T11:28:49Z</time>
      </trkpt>
      <trkpt lat="42.9434120" lon="0.2182320">
        <ele>1105.0</ele>
        <time>2020-07-25T11:28:50Z</time>
      </trkpt>
      <trkpt lat="42.9434000" lon="0.2181970">
        <ele>1105.2</ele>
        <time>2020-07-25T11:28:51Z</time>
      </trkpt>
      <trkpt lat="42.9433480" lon="0.2181230">
        <ele>1106.0</ele>
        <time>2020-07-25T11:28:54Z</time>
      </trkpt>
      <trkpt lat="42.9432780" lon="0.2180250">
        <ele>1106.8</ele>
        <time>2020-07-25T11:28:58Z</time>
      </trkpt>
      <trkpt lat="42.9432590" lon="0.2180040">
        <ele>1107.2</ele>
        <time>2020-07-25T11:28:59Z</time>
      </trkpt>
      <trkpt lat="42.9432010" lon="0.2179350">
        <ele>1107.8</ele>
        <time>2020-07-25T11:29:02Z</time>
      </trkpt>
      <trkpt lat="42.9431360" lon="0.2178720">
        <ele>1108.2</ele>
        <time>2020-07-25T11:29:05Z</time>
      </trkpt>
      <trkpt lat="42.9431190" lon="0.2178470">
        <ele>1108.2</ele>
        <time>2020-07-25T11:29:06Z</time>
      </trkpt>
      <trkpt lat="42.9430390" lon="0.2176950">
        <ele>1109.2</ele>
        <time>2020-07-25T11:29:12Z</time>
      </trkpt>
      <trkpt lat="42.9429380" lon="0.2176050">
        <ele>1110.4</ele>
        <time>2020-07-25T11:29:16Z</time>
      </trkpt>
      <trkpt lat="42.9428740" lon="0.2175320">
        <ele>1111.2</ele>
        <time>2020-07-25T11:29:19Z</time>
      </trkpt>
      <trkpt lat="42.9428430" lon="0.2174760">
        <ele>1111.4</ele>
        <time>2020-07-25T11:29:21Z</time>
      </trkpt>
      <trkpt lat="42.9427970" lon="0.2173840">
        <ele>1112.0</ele>
        <time>2020-07-25T11:29:24Z</time>
      </trkpt>
      <trkpt lat="42.9427760" lon="0.2173600">
        <ele>1112.4</ele>
        <time>2020-07-25T11:29:25Z</time>
      </trkpt>
      <trkpt lat="42.9427550" lon="0.2173350">
        <ele>1112.6</ele>
        <time>2020-07-25T11:29:26Z</time>
      </trkpt>
      <trkpt lat="42.9426850" lon="0.2172650">
        <ele>1113.6</ele>
        <time>2020-07-25T11:29:29Z</time>
      </trkpt>
      <trkpt lat="42.9426660" lon="0.2172400">
        <ele>1114.0</ele>
        <time>2020-07-25T11:29:30Z</time>
      </trkpt>
      <trkpt lat="42.9426310" lon="0.2171850">
        <ele>1114.6</ele>
        <time>2020-07-25T11:29:32Z</time>
      </trkpt>
      <trkpt lat="42.9426120" lon="0.2171640">
        <ele>1114.8</ele>
        <time>2020-07-25T11:29:33Z</time>
      </trkpt>
      <trkpt lat="42.9425920" lon="0.2171440">
        <ele>1115.0</ele>
        <time>2020-07-25T11:29:34Z</time>
      </trkpt>
      <trkpt lat="42.9425540" lon="0.2171110">
        <ele>1115.4</ele>
        <time>2020-07-25T11:29:36Z</time>
      </trkpt>
      <trkpt lat="42.9425410" lon="0.2170860">
        <ele>1115.4</ele>
        <time>2020-07-25T11:29:37Z</time>
      </trkpt>
      <trkpt lat="42.9425130" lon="0.2170380">
        <ele>1116.0</ele>
        <time>2020-07-25T11:29:39Z</time>
      </trkpt>
      <trkpt lat="42.9424970" lon="0.2170180">
        <ele>1116.2</ele>
        <time>2020-07-25T11:29:40Z</time>
      </trkpt>
      <trkpt lat="42.9424400" lon="0.2169180">
        <ele>1117.2</ele>
        <time>2020-07-25T11:29:44Z</time>
      </trkpt>
      <trkpt lat="42.9423990" lon="0.2168270">
        <ele>1117.6</ele>
        <time>2020-07-25T11:29:47Z</time>
      </trkpt>
      <trkpt lat="42.9423560" lon="0.2167470">
        <ele>1118.4</ele>
        <time>2020-07-25T11:29:50Z</time>
      </trkpt>
      <trkpt lat="42.9422920" lon="0.2166650">
        <ele>1119.6</ele>
        <time>2020-07-25T11:29:54Z</time>
      </trkpt>
      <trkpt lat="42.9422600" lon="0.2166100">
        <ele>1120.2</ele>
        <time>2020-07-25T11:29:56Z</time>
      </trkpt>
      <trkpt lat="42.9422070" lon="0.2165340">
        <ele>1120.8</ele>
        <time>2020-07-25T11:29:59Z</time>
      </trkpt>
      <trkpt lat="42.9421410" lon="0.2164690">
        <ele>1121.2</ele>
        <time>2020-07-25T11:30:02Z</time>
      </trkpt>
      <trkpt lat="42.9420600" lon="0.2164180">
        <ele>1121.8</ele>
        <time>2020-07-25T11:30:05Z</time>
      </trkpt>
      <trkpt lat="42.9420080" lon="0.2163820">
        <ele>1122.4</ele>
        <time>2020-07-25T11:30:07Z</time>
      </trkpt>
      <trkpt lat="42.9419620" lon="0.2163360">
        <ele>1122.8</ele>
        <time>2020-07-25T11:30:09Z</time>
      </trkpt>
      <trkpt lat="42.9418560" lon="0.2161790">
        <ele>1124.2</ele>
        <time>2020-07-25T11:30:15Z</time>
      </trkpt>
      <trkpt lat="42.9418430" lon="0.2161500">
        <ele>1124.4</ele>
        <time>2020-07-25T11:30:16Z</time>
      </trkpt>
      <trkpt lat="42.9418070" lon="0.2160650">
        <ele>1125.2</ele>
        <time>2020-07-25T11:30:19Z</time>
      </trkpt>
      <trkpt lat="42.9417950" lon="0.2160360">
        <ele>1125.4</ele>
        <time>2020-07-25T11:30:20Z</time>
      </trkpt>
      <trkpt lat="42.9417440" lon="0.2158910">
        <ele>1126.4</ele>
        <time>2020-07-25T11:30:25Z</time>
      </trkpt>
      <trkpt lat="42.9417090" lon="0.2157740">
        <ele>1127.6</ele>
        <time>2020-07-25T11:30:29Z</time>
      </trkpt>
      <trkpt lat="42.9416680" lon="0.2156550">
        <ele>1128.4</ele>
        <time>2020-07-25T11:30:33Z</time>
      </trkpt>
      <trkpt lat="42.9416510" lon="0.2156030">
        <ele>1128.6</ele>
        <time>2020-07-25T11:30:35Z</time>
      </trkpt>
      <trkpt lat="42.9416390" lon="0.2155400">
        <ele>1129.0</ele>
        <time>2020-07-25T11:30:37Z</time>
      </trkpt>
      <trkpt lat="42.9416290" lon="0.2155130">
        <ele>1129.2</ele>
        <time>2020-07-25T11:30:38Z</time>
      </trkpt>
      <trkpt lat="42.9416130" lon="0.2154580">
        <ele>1129.8</ele>
        <time>2020-07-25T11:30:40Z</time>
      </trkpt>
      <trkpt lat="42.9416030" lon="0.2154320">
        <ele>1129.8</ele>
        <time>2020-07-25T11:30:41Z</time>
      </trkpt>
      <trkpt lat="42.9415440" lon="0.2152940">
        <ele>1130.8</ele>
        <time>2020-07-25T11:30:46Z</time>
      </trkpt>
      <trkpt lat="42.9414990" lon="0.2152270">
        <ele>1131.4</ele>
        <time>2020-07-25T11:30:49Z</time>
      </trkpt>
      <trkpt lat="42.9414770" lon="0.2151590">
        <ele>1131.8</ele>
        <time>2020-07-25T11:30:51Z</time>
      </trkpt>
      <trkpt lat="42.9414390" lon="0.2150680">
        <ele>1132.4</ele>
        <time>2020-07-25T11:30:54Z</time>
      </trkpt>
      <trkpt lat="42.9413940" lon="0.2149840">
        <ele>1133.0</ele>
        <time>2020-07-25T11:30:57Z</time>
      </trkpt>
      <trkpt lat="42.9413270" lon="0.2148840">
        <ele>1133.8</ele>
        <time>2020-07-25T11:31:01Z</time>
      </trkpt>
      <trkpt lat="42.9413080" lon="0.2148650">
        <ele>1134.2</ele>
        <time>2020-07-25T11:31:02Z</time>
      </trkpt>
      <trkpt lat="42.9411750" lon="0.2147250">
        <ele>1135.2</ele>
        <time>2020-07-25T11:31:08Z</time>
      </trkpt>
      <trkpt lat="42.9411750" lon="0.2147250">
        <ele>1135.6</ele>
        <time>2020-07-25T11:31:09Z</time>
      </trkpt>
      <trkpt lat="42.9411350" lon="0.2146320">
        <ele>1136.4</ele>
        <time>2020-07-25T11:31:12Z</time>
      </trkpt>
      <trkpt lat="42.9411090" lon="0.2146220">
        <ele>1136.6</ele>
        <time>2020-07-25T11:31:13Z</time>
      </trkpt>
      <trkpt lat="42.9410420" lon="0.2145410">
        <ele>1137.2</ele>
        <time>2020-07-25T11:31:17Z</time>
      </trkpt>
      <trkpt lat="42.9410270" lon="0.2145160">
        <ele>1137.4</ele>
        <time>2020-07-25T11:31:18Z</time>
      </trkpt>
      <trkpt lat="42.9409910" lon="0.2144580">
        <ele>1138.2</ele>
        <time>2020-07-25T11:31:20Z</time>
      </trkpt>
      <trkpt lat="42.9409530" lon="0.2144080">
        <ele>1138.6</ele>
        <time>2020-07-25T11:31:22Z</time>
      </trkpt>
      <trkpt lat="42.9408590" lon="0.2142860">
        <ele>1139.2</ele>
        <time>2020-07-25T11:31:27Z</time>
      </trkpt>
      <trkpt lat="42.9408290" lon="0.2142420">
        <ele>1139.6</ele>
        <time>2020-07-25T11:31:29Z</time>
      </trkpt>
      <trkpt lat="42.9407660" lon="0.2141480">
        <ele>1140.4</ele>
        <time>2020-07-25T11:31:33Z</time>
      </trkpt>
      <trkpt lat="42.9407500" lon="0.2141250">
        <ele>1140.6</ele>
        <time>2020-07-25T11:31:34Z</time>
      </trkpt>
      <trkpt lat="42.9406460" lon="0.2139910">
        <ele>1141.8</ele>
        <time>2020-07-25T11:31:39Z</time>
      </trkpt>
      <trkpt lat="42.9406460" lon="0.2139910">
        <ele>1142.0</ele>
        <time>2020-07-25T11:31:40Z</time>
      </trkpt>
      <trkpt lat="42.9406090" lon="0.2139170">
        <ele>1142.4</ele>
        <time>2020-07-25T11:31:42Z</time>
      </trkpt>
      <trkpt lat="42.9405820" lon="0.2138710">
        <ele>1143.0</ele>
        <time>2020-07-25T11:31:45Z</time>
      </trkpt>
      <trkpt lat="42.9405480" lon="0.2138300">
        <ele>1143.2</ele>
        <time>2020-07-25T11:31:46Z</time>
      </trkpt>
      <trkpt lat="42.9405110" lon="0.2137790">
        <ele>1144.0</ele>
        <time>2020-07-25T11:31:49Z</time>
      </trkpt>
      <trkpt lat="42.9404710" lon="0.2137340">
        <ele>1144.2</ele>
        <time>2020-07-25T11:31:50Z</time>
      </trkpt>
      <trkpt lat="42.9404090" lon="0.2136750">
        <ele>1144.8</ele>
        <time>2020-07-25T11:31:53Z</time>
      </trkpt>
      <trkpt lat="42.9403920" lon="0.2136530">
        <ele>1145.0</ele>
        <time>2020-07-25T11:31:55Z</time>
      </trkpt>
      <trkpt lat="42.9403180" lon="0.2135680">
        <ele>1145.8</ele>
        <time>2020-07-25T11:31:59Z</time>
      </trkpt>
      <trkpt lat="42.9402790" lon="0.2135260">
        <ele>1146.2</ele>
        <time>2020-07-25T11:32:01Z</time>
      </trkpt>
      <trkpt lat="42.9401800" lon="0.2134240">
        <ele>1147.2</ele>
        <time>2020-07-25T11:32:06Z</time>
      </trkpt>
      <trkpt lat="42.9401580" lon="0.2134080">
        <ele>1147.6</ele>
        <time>2020-07-25T11:32:07Z</time>
      </trkpt>
      <trkpt lat="42.9400860" lon="0.2133780">
        <ele>1148.2</ele>
        <time>2020-07-25T11:32:10Z</time>
      </trkpt>
      <trkpt lat="42.9399790" lon="0.2133570">
        <ele>1148.8</ele>
        <time>2020-07-25T11:32:14Z</time>
      </trkpt>
      <trkpt lat="42.9398610" lon="0.2132980">
        <ele>1149.4</ele>
        <time>2020-07-25T11:32:18Z</time>
      </trkpt>
      <trkpt lat="42.9397440" lon="0.2132260">
        <ele>1150.2</ele>
        <time>2020-07-25T11:32:23Z</time>
      </trkpt>
      <trkpt lat="42.9397440" lon="0.2132260">
        <ele>1150.6</ele>
        <time>2020-07-25T11:32:24Z</time>
      </trkpt>
      <trkpt lat="42.9396250" lon="0.2131510">
        <ele>1151.6</ele>
        <time>2020-07-25T11:32:29Z</time>
      </trkpt>
      <trkpt lat="42.9395520" lon="0.2130970">
        <ele>1152.4</ele>
        <time>2020-07-25T11:32:32Z</time>
      </trkpt>
      <trkpt lat="42.9395300" lon="0.2130760">
        <ele>1152.8</ele>
        <time>2020-07-25T11:32:33Z</time>
      </trkpt>
      <trkpt lat="42.9394380" lon="0.2129690">
        <ele>1153.4</ele>
        <time>2020-07-25T11:32:38Z</time>
      </trkpt>
      <trkpt lat="42.9393850" lon="0.2128910">
        <ele>1154.0</ele>
        <time>2020-07-25T11:32:41Z</time>
      </trkpt>
      <trkpt lat="42.9393040" lon="0.2128040">
        <ele>1154.8</ele>
        <time>2020-07-25T11:32:44Z</time>
      </trkpt>
      <trkpt lat="42.9393040" lon="0.2128040">
        <ele>1155.0</ele>
        <time>2020-07-25T11:32:45Z</time>
      </trkpt>
      <trkpt lat="42.9391860" lon="0.2126640">
        <ele>1156.0</ele>
        <time>2020-07-25T11:32:51Z</time>
      </trkpt>
      <trkpt lat="42.9391660" lon="0.2126420">
        <ele>1156.4</ele>
        <time>2020-07-25T11:32:52Z</time>
      </trkpt>
      <trkpt lat="42.9390490" lon="0.2125370">
        <ele>1157.6</ele>
        <time>2020-07-25T11:32:58Z</time>
      </trkpt>
      <trkpt lat="42.9390200" lon="0.2124930">
        <ele>1158.2</ele>
        <time>2020-07-25T11:33:00Z</time>
      </trkpt>
      <trkpt lat="42.9389730" lon="0.2124290">
        <ele>1158.8</ele>
        <time>2020-07-25T11:33:03Z</time>
      </trkpt>
      <trkpt lat="42.9389120" lon="0.2123320">
        <ele>1159.4</ele>
        <time>2020-07-25T11:33:07Z</time>
      </trkpt>
      <trkpt lat="42.9388570" lon="0.2122240">
        <ele>1160.0</ele>
        <time>2020-07-25T11:33:11Z</time>
      </trkpt>
      <trkpt lat="42.9388420" lon="0.2122020">
        <ele>1160.4</ele>
        <time>2020-07-25T11:33:12Z</time>
      </trkpt>
      <trkpt lat="42.9388100" lon="0.2121550">
        <ele>1161.0</ele>
        <time>2020-07-25T11:33:14Z</time>
      </trkpt>
      <trkpt lat="42.9387940" lon="0.2121300">
        <ele>1161.2</ele>
        <time>2020-07-25T11:33:15Z</time>
      </trkpt>
      <trkpt lat="42.9387110" lon="0.2120700">
        <ele>1162.2</ele>
        <time>2020-07-25T11:33:20Z</time>
      </trkpt>
      <trkpt lat="42.9386480" lon="0.2120600">
        <ele>1162.6</ele>
        <time>2020-07-25T11:33:23Z</time>
      </trkpt>
      <trkpt lat="42.9385900" lon="0.2120440">
        <ele>1163.2</ele>
        <time>2020-07-25T11:33:26Z</time>
      </trkpt>
      <trkpt lat="42.9385240" lon="0.2119780">
        <ele>1164.4</ele>
        <time>2020-07-25T11:33:31Z</time>
      </trkpt>
      <trkpt lat="42.9384850" lon="0.2119490">
        <ele>1164.8</ele>
        <time>2020-07-25T11:33:33Z</time>
      </trkpt>
      <trkpt lat="42.9384330" lon="0.2119200">
        <ele>1165.4</ele>
        <time>2020-07-25T11:33:36Z</time>
      </trkpt>
      <trkpt lat="42.9383460" lon="0.2118940">
        <ele>1166.6</ele>
        <time>2020-07-25T11:33:41Z</time>
      </trkpt>
      <trkpt lat="42.9383050" lon="0.2118820">
        <ele>1167.2</ele>
        <time>2020-07-25T11:33:44Z</time>
      </trkpt>
      <trkpt lat="42.9382960" lon="0.2118780">
        <ele>1167.6</ele>
        <time>2020-07-25T11:33:45Z</time>
      </trkpt>
      <trkpt lat="42.9382620" lon="0.2118840">
        <ele>1168.4</ele>
        <time>2020-07-25T11:33:49Z</time>
      </trkpt>
      <trkpt lat="42.9382470" lon="0.2118690">
        <ele>1168.8</ele>
        <time>2020-07-25T11:33:50Z</time>
      </trkpt>
      <trkpt lat="42.9382350" lon="0.2118360">
        <ele>1169.4</ele>
        <time>2020-07-25T11:33:52Z</time>
      </trkpt>
      <trkpt lat="42.9381220" lon="0.2117690">
        <ele>1169.8</ele>
        <time>2020-07-25T11:33:54Z</time>
      </trkpt>
      <trkpt lat="42.9380590" lon="0.2116820">
        <ele>1170.0</ele>
        <time>2020-07-25T11:33:56Z</time>
      </trkpt>
      <trkpt lat="42.9380360" lon="0.2115630">
        <ele>1170.2</ele>
        <time>2020-07-25T11:33:57Z</time>
      </trkpt>
      <trkpt lat="42.9379630" lon="0.2112500">
        <ele>1170.8</ele>
        <time>2020-07-25T11:34:02Z</time>
      </trkpt>
      <trkpt lat="42.9379480" lon="0.2112090">
        <ele>1171.2</ele>
        <time>2020-07-25T11:34:03Z</time>
      </trkpt>
      <trkpt lat="42.9379340" lon="0.2111710">
        <ele>1171.4</ele>
        <time>2020-07-25T11:34:04Z</time>
      </trkpt>
      <trkpt lat="42.9379150" lon="0.2111420">
        <ele>1171.6</ele>
        <time>2020-07-25T11:34:05Z</time>
      </trkpt>
      <trkpt lat="42.9379010" lon="0.2111040">
        <ele>1171.8</ele>
        <time>2020-07-25T11:34:06Z</time>
      </trkpt>
      <trkpt lat="42.9378400" lon="0.2109110">
        <ele>1173.0</ele>
        <time>2020-07-25T11:34:11Z</time>
      </trkpt>
      <trkpt lat="42.9377610" lon="0.2107540">
        <ele>1174.0</ele>
        <time>2020-07-25T11:34:16Z</time>
      </trkpt>
      <trkpt lat="42.9377430" lon="0.2107320">
        <ele>1174.4</ele>
        <time>2020-07-25T11:34:17Z</time>
      </trkpt>
      <trkpt lat="42.9376610" lon="0.2106030">
        <ele>1175.2</ele>
        <time>2020-07-25T11:34:22Z</time>
      </trkpt>
      <trkpt lat="42.9375820" lon="0.2105320">
        <ele>1176.4</ele>
        <time>2020-07-25T11:34:26Z</time>
      </trkpt>
      <trkpt lat="42.9374810" lon="0.2103990">
        <ele>1177.0</ele>
        <time>2020-07-25T11:34:32Z</time>
      </trkpt>
      <trkpt lat="42.9374660" lon="0.2103770">
        <ele>1177.4</ele>
        <time>2020-07-25T11:34:33Z</time>
      </trkpt>
      <trkpt lat="42.9374480" lon="0.2103620">
        <ele>1177.4</ele>
        <time>2020-07-25T11:34:34Z</time>
      </trkpt>
      <trkpt lat="42.9374160" lon="0.2102760">
        <ele>1178.6</ele>
        <time>2020-07-25T11:34:37Z</time>
      </trkpt>
      <trkpt lat="42.9374040" lon="0.2102480">
        <ele>1178.8</ele>
        <time>2020-07-25T11:34:38Z</time>
      </trkpt>
      <trkpt lat="42.9373520" lon="0.2101320">
        <ele>1179.8</ele>
        <time>2020-07-25T11:34:42Z</time>
      </trkpt>
      <trkpt lat="42.9372920" lon="0.2099670">
        <ele>1180.8</ele>
        <time>2020-07-25T11:34:47Z</time>
      </trkpt>
      <trkpt lat="42.9371860" lon="0.2098430">
        <ele>1181.8</ele>
        <time>2020-07-25T11:34:52Z</time>
      </trkpt>
      <trkpt lat="42.9371530" lon="0.2098320">
        <ele>1182.0</ele>
        <time>2020-07-25T11:34:53Z</time>
      </trkpt>
      <trkpt lat="42.9370440" lon="0.2096870">
        <ele>1182.8</ele>
        <time>2020-07-25T11:34:58Z</time>
      </trkpt>
      <trkpt lat="42.9369550" lon="0.2096020">
        <ele>1183.8</ele>
        <time>2020-07-25T11:35:02Z</time>
      </trkpt>
      <trkpt lat="42.9369300" lon="0.2095860">
        <ele>1183.8</ele>
        <time>2020-07-25T11:35:03Z</time>
      </trkpt>
      <trkpt lat="42.9368120" lon="0.2094970">
        <ele>1185.0</ele>
        <time>2020-07-25T11:35:08Z</time>
      </trkpt>
      <trkpt lat="42.9367470" lon="0.2094400">
        <ele>1185.6</ele>
        <time>2020-07-25T11:35:11Z</time>
      </trkpt>
      <trkpt lat="42.9367060" lon="0.2093920">
        <ele>1186.2</ele>
        <time>2020-07-25T11:35:13Z</time>
      </trkpt>
      <trkpt lat="42.9365810" lon="0.2092980">
        <ele>1187.4</ele>
        <time>2020-07-25T11:35:18Z</time>
      </trkpt>
      <trkpt lat="42.9365420" lon="0.2092440">
        <ele>1188.2</ele>
        <time>2020-07-25T11:35:20Z</time>
      </trkpt>
      <trkpt lat="42.9365250" lon="0.2092170">
        <ele>1188.6</ele>
        <time>2020-07-25T11:35:21Z</time>
      </trkpt>
      <trkpt lat="42.9364830" lon="0.2091640">
        <ele>1189.2</ele>
        <time>2020-07-25T11:35:24Z</time>
      </trkpt>
      <trkpt lat="42.9364730" lon="0.2090610">
        <ele>1189.8</ele>
        <time>2020-07-25T11:35:27Z</time>
      </trkpt>
      <trkpt lat="42.9364740" lon="0.2089060">
        <ele>1190.2</ele>
        <time>2020-07-25T11:35:30Z</time>
      </trkpt>
      <trkpt lat="42.9363910" lon="0.2086780">
        <ele>1190.8</ele>
        <time>2020-07-25T11:35:36Z</time>
      </trkpt>
      <trkpt lat="42.9363430" lon="0.2086500">
        <ele>1191.0</ele>
        <time>2020-07-25T11:35:38Z</time>
      </trkpt>
      <trkpt lat="42.9362980" lon="0.2086550">
        <ele>1191.2</ele>
        <time>2020-07-25T11:35:40Z</time>
      </trkpt>
      <trkpt lat="42.9362240" lon="0.2086830">
        <ele>1192.0</ele>
        <time>2020-07-25T11:35:43Z</time>
      </trkpt>
      <trkpt lat="42.9361670" lon="0.2087330">
        <ele>1192.6</ele>
        <time>2020-07-25T11:35:46Z</time>
      </trkpt>
      <trkpt lat="42.9361300" lon="0.2087760">
        <ele>1193.0</ele>
        <time>2020-07-25T11:35:48Z</time>
      </trkpt>
      <trkpt lat="42.9361050" lon="0.2087920">
        <ele>1193.2</ele>
        <time>2020-07-25T11:35:49Z</time>
      </trkpt>
      <trkpt lat="42.9360200" lon="0.2088180">
        <ele>1193.6</ele>
        <time>2020-07-25T11:35:52Z</time>
      </trkpt>
      <trkpt lat="42.9359580" lon="0.2088010">
        <ele>1194.0</ele>
        <time>2020-07-25T11:35:54Z</time>
      </trkpt>
      <trkpt lat="42.9358720" lon="0.2087370">
        <ele>1194.8</ele>
        <time>2020-07-25T11:35:57Z</time>
      </trkpt>
      <trkpt lat="42.9358060" lon="0.2086520">
        <ele>1195.2</ele>
        <time>2020-07-25T11:36:00Z</time>
      </trkpt>
      <trkpt lat="42.9357530" lon="0.2085640">
        <ele>1196.4</ele>
        <time>2020-07-25T11:36:03Z</time>
      </trkpt>
      <trkpt lat="42.9356490" lon="0.2084220">
        <ele>1197.4</ele>
        <time>2020-07-25T11:36:08Z</time>
      </trkpt>
      <trkpt lat="42.9355980" lon="0.2083960">
        <ele>1197.8</ele>
        <time>2020-07-25T11:36:10Z</time>
      </trkpt>
      <trkpt lat="42.9354920" lon="0.2083650">
        <ele>1198.8</ele>
        <time>2020-07-25T11:36:14Z</time>
      </trkpt>
      <trkpt lat="42.9353830" lon="0.2083360">
        <ele>1200.0</ele>
        <time>2020-07-25T11:36:18Z</time>
      </trkpt>
      <trkpt lat="42.9353560" lon="0.2083320">
        <ele>1200.2</ele>
        <time>2020-07-25T11:36:19Z</time>
      </trkpt>
      <trkpt lat="42.9352070" lon="0.2082610">
        <ele>1201.0</ele>
        <time>2020-07-25T11:36:25Z</time>
      </trkpt>
      <trkpt lat="42.9351810" lon="0.2082430">
        <ele>1201.2</ele>
        <time>2020-07-25T11:36:26Z</time>
      </trkpt>
      <trkpt lat="42.9350820" lon="0.2081640">
        <ele>1202.4</ele>
        <time>2020-07-25T11:36:30Z</time>
      </trkpt>
      <trkpt lat="42.9350130" lon="0.2080450">
        <ele>1203.4</ele>
        <time>2020-07-25T11:36:34Z</time>
      </trkpt>
      <trkpt lat="42.9350010" lon="0.2080090">
        <ele>1203.6</ele>
        <time>2020-07-25T11:36:35Z</time>
      </trkpt>
      <trkpt lat="42.9349570" lon="0.2078790">
        <ele>1204.4</ele>
        <time>2020-07-25T11:36:39Z</time>
      </trkpt>
      <trkpt lat="42.9349450" lon="0.2078500">
        <ele>1204.6</ele>
        <time>2020-07-25T11:36:40Z</time>
      </trkpt>
      <trkpt lat="42.9349210" lon="0.2077930">
        <ele>1205.2</ele>
        <time>2020-07-25T11:36:42Z</time>
      </trkpt>
      <trkpt lat="42.9348840" lon="0.2077080">
        <ele>1205.8</ele>
        <time>2020-07-25T11:36:45Z</time>
      </trkpt>
      <trkpt lat="42.9348210" lon="0.2075790">
        <ele>1206.6</ele>
        <time>2020-07-25T11:36:50Z</time>
      </trkpt>
      <trkpt lat="42.9348060" lon="0.2075540">
        <ele>1206.8</ele>
        <time>2020-07-25T11:36:51Z</time>
      </trkpt>
      <trkpt lat="42.9347510" lon="0.2074360">
        <ele>1208.0</ele>
        <time>2020-07-25T11:36:55Z</time>
      </trkpt>
      <trkpt lat="42.9347180" lon="0.2073850">
        <ele>1208.2</ele>
        <time>2020-07-25T11:36:57Z</time>
      </trkpt>
      <trkpt lat="42.9346330" lon="0.2072800">
        <ele>1209.2</ele>
        <time>2020-07-25T11:37:02Z</time>
      </trkpt>
      <trkpt lat="42.9346150" lon="0.2072580">
        <ele>1209.6</ele>
        <time>2020-07-25T11:37:03Z</time>
      </trkpt>
      <trkpt lat="42.9345540" lon="0.2071990">
        <ele>1210.2</ele>
        <time>2020-07-25T11:37:06Z</time>
      </trkpt>
      <trkpt lat="42.9345350" lon="0.2071780">
        <ele>1210.6</ele>
        <time>2020-07-25T11:37:07Z</time>
      </trkpt>
      <trkpt lat="42.9345180" lon="0.2071550">
        <ele>1210.8</ele>
        <time>2020-07-25T11:37:08Z</time>
      </trkpt>
      <trkpt lat="42.9344790" lon="0.2071120">
        <ele>1211.2</ele>
        <time>2020-07-25T11:37:10Z</time>
      </trkpt>
      <trkpt lat="42.9344590" lon="0.2070890">
        <ele>1211.4</ele>
        <time>2020-07-25T11:37:11Z</time>
      </trkpt>
      <trkpt lat="42.9344380" lon="0.2070690">
        <ele>1211.6</ele>
        <time>2020-07-25T11:37:12Z</time>
      </trkpt>
      <trkpt lat="42.9343420" lon="0.2069740">
        <ele>1212.6</ele>
        <time>2020-07-25T11:37:17Z</time>
      </trkpt>
      <trkpt lat="42.9343250" lon="0.2069540">
        <ele>1212.6</ele>
        <time>2020-07-25T11:37:18Z</time>
      </trkpt>
      <trkpt lat="42.9343090" lon="0.2069340">
        <ele>1212.8</ele>
        <time>2020-07-25T11:37:19Z</time>
      </trkpt>
      <trkpt lat="42.9342010" lon="0.2068620">
        <ele>1213.6</ele>
        <time>2020-07-25T11:37:24Z</time>
      </trkpt>
      <trkpt lat="42.9341820" lon="0.2068430">
        <ele>1213.8</ele>
        <time>2020-07-25T11:37:25Z</time>
      </trkpt>
      <trkpt lat="42.9341170" lon="0.2067630">
        <ele>1215.2</ele>
        <time>2020-07-25T11:37:29Z</time>
      </trkpt>
      <trkpt lat="42.9340740" lon="0.2066960">
        <ele>1215.8</ele>
        <time>2020-07-25T11:37:32Z</time>
      </trkpt>
      <trkpt lat="42.9340330" lon="0.2066250">
        <ele>1216.2</ele>
        <time>2020-07-25T11:37:35Z</time>
      </trkpt>
      <trkpt lat="42.9339960" lon="0.2065110">
        <ele>1217.2</ele>
        <time>2020-07-25T11:37:39Z</time>
      </trkpt>
      <trkpt lat="42.9339870" lon="0.2064810">
        <ele>1217.4</ele>
        <time>2020-07-25T11:37:40Z</time>
      </trkpt>
      <trkpt lat="42.9339220" lon="0.2062870">
        <ele>1218.2</ele>
        <time>2020-07-25T11:37:46Z</time>
      </trkpt>
      <trkpt lat="42.9339060" lon="0.2062570">
        <ele>1218.4</ele>
        <time>2020-07-25T11:37:47Z</time>
      </trkpt>
      <trkpt lat="42.9338100" lon="0.2060930">
        <ele>1219.6</ele>
        <time>2020-07-25T11:37:53Z</time>
      </trkpt>
      <trkpt lat="42.9337920" lon="0.2060700">
        <ele>1219.8</ele>
        <time>2020-07-25T11:37:54Z</time>
      </trkpt>
      <trkpt lat="42.9337390" lon="0.2059930">
        <ele>1220.8</ele>
        <time>2020-07-25T11:37:57Z</time>
      </trkpt>
      <trkpt lat="42.9336510" lon="0.2058840">
        <ele>1221.8</ele>
        <time>2020-07-25T11:38:02Z</time>
      </trkpt>
      <trkpt lat="42.9336350" lon="0.2058590">
        <ele>1222.0</ele>
        <time>2020-07-25T11:38:03Z</time>
      </trkpt>
      <trkpt lat="42.9335220" lon="0.2057310">
        <ele>1223.0</ele>
        <time>2020-07-25T11:38:09Z</time>
      </trkpt>
      <trkpt lat="42.9333930" lon="0.2056350">
        <ele>1224.2</ele>
        <time>2020-07-25T11:38:15Z</time>
      </trkpt>
      <trkpt lat="42.9333470" lon="0.2056010">
        <ele>1224.6</ele>
        <time>2020-07-25T11:38:17Z</time>
      </trkpt>
      <trkpt lat="42.9332830" lon="0.2055360">
        <ele>1225.4</ele>
        <time>2020-07-25T11:38:20Z</time>
      </trkpt>
      <trkpt lat="42.9331830" lon="0.2054270">
        <ele>1226.8</ele>
        <time>2020-07-25T11:38:25Z</time>
      </trkpt>
      <trkpt lat="42.9330890" lon="0.2053190">
        <ele>1228.0</ele>
        <time>2020-07-25T11:38:30Z</time>
      </trkpt>
      <trkpt lat="42.9330330" lon="0.2052490">
        <ele>1228.6</ele>
        <time>2020-07-25T11:38:33Z</time>
      </trkpt>
      <trkpt lat="42.9329980" lon="0.2052050">
        <ele>1229.2</ele>
        <time>2020-07-25T11:38:35Z</time>
      </trkpt>
      <trkpt lat="42.9329030" lon="0.2050990">
        <ele>1230.2</ele>
        <time>2020-07-25T11:38:40Z</time>
      </trkpt>
      <trkpt lat="42.9328840" lon="0.2050760">
        <ele>1230.4</ele>
        <time>2020-07-25T11:38:41Z</time>
      </trkpt>
      <trkpt lat="42.9328430" lon="0.2050350">
        <ele>1230.6</ele>
        <time>2020-07-25T11:38:43Z</time>
      </trkpt>
      <trkpt lat="42.9328040" lon="0.2049900">
        <ele>1231.0</ele>
        <time>2020-07-25T11:38:45Z</time>
      </trkpt>
      <trkpt lat="42.9327850" lon="0.2049690">
        <ele>1231.2</ele>
        <time>2020-07-25T11:38:46Z</time>
      </trkpt>
      <trkpt lat="42.9327510" lon="0.2049250">
        <ele>1231.6</ele>
        <time>2020-07-25T11:38:48Z</time>
      </trkpt>
      <trkpt lat="42.9327150" lon="0.2048810">
        <ele>1232.0</ele>
        <time>2020-07-25T11:38:50Z</time>
      </trkpt>
      <trkpt lat="42.9326780" lon="0.2048390">
        <ele>1232.2</ele>
        <time>2020-07-25T11:38:52Z</time>
      </trkpt>
      <trkpt lat="42.9326380" lon="0.2048020">
        <ele>1232.6</ele>
        <time>2020-07-25T11:38:54Z</time>
      </trkpt>
      <trkpt lat="42.9325630" lon="0.2047200">
        <ele>1233.4</ele>
        <time>2020-07-25T11:38:58Z</time>
      </trkpt>
      <trkpt lat="42.9324650" lon="0.2046230">
        <ele>1234.4</ele>
        <time>2020-07-25T11:39:03Z</time>
      </trkpt>
      <trkpt lat="42.9323840" lon="0.2045650">
        <ele>1235.2</ele>
        <time>2020-07-25T11:39:07Z</time>
      </trkpt>
      <trkpt lat="42.9323640" lon="0.2045490">
        <ele>1235.4</ele>
        <time>2020-07-25T11:39:08Z</time>
      </trkpt>
      <trkpt lat="42.9322590" lon="0.2044890">
        <ele>1236.4</ele>
        <time>2020-07-25T11:39:13Z</time>
      </trkpt>
      <trkpt lat="42.9322380" lon="0.2044770">
        <ele>1236.6</ele>
        <time>2020-07-25T11:39:14Z</time>
      </trkpt>
      <trkpt lat="42.9321350" lon="0.2044070">
        <ele>1237.6</ele>
        <time>2020-07-25T11:39:19Z</time>
      </trkpt>
      <trkpt lat="42.9321120" lon="0.2043950">
        <ele>1238.0</ele>
        <time>2020-07-25T11:39:20Z</time>
      </trkpt>
      <trkpt lat="42.9320290" lon="0.2043450">
        <ele>1238.6</ele>
        <time>2020-07-25T11:39:24Z</time>
      </trkpt>
      <trkpt lat="42.9319400" lon="0.2043070">
        <ele>1239.2</ele>
        <time>2020-07-25T11:39:28Z</time>
      </trkpt>
      <trkpt lat="42.9319180" lon="0.2042950">
        <ele>1239.6</ele>
        <time>2020-07-25T11:39:29Z</time>
      </trkpt>
      <trkpt lat="42.9318530" lon="0.2042610">
        <ele>1240.4</ele>
        <time>2020-07-25T11:39:32Z</time>
      </trkpt>
      <trkpt lat="42.9318110" lon="0.2042350">
        <ele>1240.8</ele>
        <time>2020-07-25T11:39:34Z</time>
      </trkpt>
      <trkpt lat="42.9317460" lon="0.2041940">
        <ele>1241.6</ele>
        <time>2020-07-25T11:39:37Z</time>
      </trkpt>
      <trkpt lat="42.9317230" lon="0.2041800">
        <ele>1241.8</ele>
        <time>2020-07-25T11:39:38Z</time>
      </trkpt>
      <trkpt lat="42.9316330" lon="0.2041180">
        <ele>1242.8</ele>
        <time>2020-07-25T11:39:42Z</time>
      </trkpt>
      <trkpt lat="42.9315580" lon="0.2040560">
        <ele>1243.4</ele>
        <time>2020-07-25T11:39:46Z</time>
      </trkpt>
      <trkpt lat="42.9314940" lon="0.2040060">
        <ele>1244.0</ele>
        <time>2020-07-25T11:39:49Z</time>
      </trkpt>
      <trkpt lat="42.9314260" lon="0.2039750">
        <ele>1244.4</ele>
        <time>2020-07-25T11:39:52Z</time>
      </trkpt>
      <trkpt lat="42.9313360" lon="0.2039320">
        <ele>1245.0</ele>
        <time>2020-07-25T11:39:56Z</time>
      </trkpt>
      <trkpt lat="42.9312490" lon="0.2038830">
        <ele>1246.2</ele>
        <time>2020-07-25T11:40:00Z</time>
      </trkpt>
      <trkpt lat="42.9312080" lon="0.2038560">
        <ele>1246.4</ele>
        <time>2020-07-25T11:40:01Z</time>
      </trkpt>
      <trkpt lat="42.9311250" lon="0.2037900">
        <ele>1247.4</ele>
        <time>2020-07-25T11:40:06Z</time>
      </trkpt>
      <trkpt lat="42.9310690" lon="0.2037220">
        <ele>1248.2</ele>
        <time>2020-07-25T11:40:09Z</time>
      </trkpt>
      <trkpt lat="42.9310510" lon="0.2037020">
        <ele>1248.6</ele>
        <time>2020-07-25T11:40:10Z</time>
      </trkpt>
      <trkpt lat="42.9309460" lon="0.2035780">
        <ele>1249.4</ele>
        <time>2020-07-25T11:40:16Z</time>
      </trkpt>
      <trkpt lat="42.9309300" lon="0.2035500">
        <ele>1249.6</ele>
        <time>2020-07-25T11:40:17Z</time>
      </trkpt>
      <trkpt lat="42.9308930" lon="0.2035000">
        <ele>1250.0</ele>
        <time>2020-07-25T11:40:18Z</time>
      </trkpt>
      <trkpt lat="42.9308550" lon="0.2034550">
        <ele>1250.8</ele>
        <time>2020-07-25T11:40:21Z</time>
      </trkpt>
      <trkpt lat="42.9307640" lon="0.2033480">
        <ele>1251.8</ele>
        <time>2020-07-25T11:40:26Z</time>
      </trkpt>
      <trkpt lat="42.9307210" lon="0.2032720">
        <ele>1252.6</ele>
        <time>2020-07-25T11:40:29Z</time>
      </trkpt>
      <trkpt lat="42.9306940" lon="0.2032190">
        <ele>1253.0</ele>
        <time>2020-07-25T11:40:31Z</time>
      </trkpt>
      <trkpt lat="42.9306260" lon="0.2030970">
        <ele>1253.8</ele>
        <time>2020-07-25T11:40:36Z</time>
      </trkpt>
      <trkpt lat="42.9306120" lon="0.2030760">
        <ele>1254.2</ele>
        <time>2020-07-25T11:40:37Z</time>
      </trkpt>
      <trkpt lat="42.9305850" lon="0.2030280">
        <ele>1254.6</ele>
        <time>2020-07-25T11:40:39Z</time>
      </trkpt>
      <trkpt lat="42.9305340" lon="0.2029310">
        <ele>1255.2</ele>
        <time>2020-07-25T11:40:42Z</time>
      </trkpt>
      <trkpt lat="42.9305080" lon="0.2028400">
        <ele>1256.0</ele>
        <time>2020-07-25T11:40:46Z</time>
      </trkpt>
      <trkpt lat="42.9304950" lon="0.2027830">
        <ele>1256.2</ele>
        <time>2020-07-25T11:40:48Z</time>
      </trkpt>
      <trkpt lat="42.9304890" lon="0.2027600">
        <ele>1256.4</ele>
        <time>2020-07-25T11:40:49Z</time>
      </trkpt>
      <trkpt lat="42.9304190" lon="0.2026390">
        <ele>1257.4</ele>
        <time>2020-07-25T11:40:54Z</time>
      </trkpt>
      <trkpt lat="42.9304030" lon="0.2026130">
        <ele>1257.6</ele>
        <time>2020-07-25T11:40:55Z</time>
      </trkpt>
      <trkpt lat="42.9303430" lon="0.2025100">
        <ele>1258.4</ele>
        <time>2020-07-25T11:40:59Z</time>
      </trkpt>
      <trkpt lat="42.9302910" lon="0.2024470">
        <ele>1259.0</ele>
        <time>2020-07-25T11:41:02Z</time>
      </trkpt>
      <trkpt lat="42.9302330" lon="0.2023790">
        <ele>1259.6</ele>
        <time>2020-07-25T11:41:05Z</time>
      </trkpt>
      <trkpt lat="42.9301560" lon="0.2022920">
        <ele>1260.8</ele>
        <time>2020-07-25T11:41:09Z</time>
      </trkpt>
      <trkpt lat="42.9301180" lon="0.2022490">
        <ele>1261.2</ele>
        <time>2020-07-25T11:41:11Z</time>
      </trkpt>
      <trkpt lat="42.9299960" lon="0.2021520">
        <ele>1262.0</ele>
        <time>2020-07-25T11:41:17Z</time>
      </trkpt>
      <trkpt lat="42.9299510" lon="0.2021180">
        <ele>1262.8</ele>
        <time>2020-07-25T11:41:19Z</time>
      </trkpt>
      <trkpt lat="42.9299300" lon="0.2020960">
        <ele>1263.2</ele>
        <time>2020-07-25T11:41:20Z</time>
      </trkpt>
      <trkpt lat="42.9298220" lon="0.2020040">
        <ele>1264.2</ele>
        <time>2020-07-25T11:41:25Z</time>
      </trkpt>
      <trkpt lat="42.9298020" lon="0.2019830">
        <ele>1264.6</ele>
        <time>2020-07-25T11:41:26Z</time>
      </trkpt>
      <trkpt lat="42.9297610" lon="0.2019450">
        <ele>1265.0</ele>
        <time>2020-07-25T11:41:28Z</time>
      </trkpt>
      <trkpt lat="42.9297020" lon="0.2018940">
        <ele>1265.4</ele>
        <time>2020-07-25T11:41:30Z</time>
      </trkpt>
      <trkpt lat="42.9296000" lon="0.2018300">
        <ele>1266.4</ele>
        <time>2020-07-25T11:41:36Z</time>
      </trkpt>
      <trkpt lat="42.9295730" lon="0.2018300">
        <ele>1266.6</ele>
        <time>2020-07-25T11:41:37Z</time>
      </trkpt>
      <trkpt lat="42.9295040" lon="0.2017890">
        <ele>1267.2</ele>
        <time>2020-07-25T11:41:40Z</time>
      </trkpt>
      <trkpt lat="42.9294840" lon="0.2017730">
        <ele>1267.6</ele>
        <time>2020-07-25T11:41:41Z</time>
      </trkpt>
      <trkpt lat="42.9294270" lon="0.2017170">
        <ele>1268.2</ele>
        <time>2020-07-25T11:41:44Z</time>
      </trkpt>
      <trkpt lat="42.9293670" lon="0.2016680">
        <ele>1268.8</ele>
        <time>2020-07-25T11:41:47Z</time>
      </trkpt>
      <trkpt lat="42.9292700" lon="0.2015970">
        <ele>1269.4</ele>
        <time>2020-07-25T11:41:52Z</time>
      </trkpt>
      <trkpt lat="42.9292030" lon="0.2015570">
        <ele>1269.8</ele>
        <time>2020-07-25T11:41:55Z</time>
      </trkpt>
      <trkpt lat="42.9291610" lon="0.2015290">
        <ele>1270.6</ele>
        <time>2020-07-25T11:41:57Z</time>
      </trkpt>
      <trkpt lat="42.9291160" lon="0.2015060">
        <ele>1271.0</ele>
        <time>2020-07-25T11:41:59Z</time>
      </trkpt>
      <trkpt lat="42.9290100" lon="0.2014550">
        <ele>1272.2</ele>
        <time>2020-07-25T11:42:04Z</time>
      </trkpt>
      <trkpt lat="42.9289910" lon="0.2014440">
        <ele>1272.4</ele>
        <time>2020-07-25T11:42:05Z</time>
      </trkpt>
      <trkpt lat="42.9289550" lon="0.2014160">
        <ele>1272.6</ele>
        <time>2020-07-25T11:42:07Z</time>
      </trkpt>
      <trkpt lat="42.9288790" lon="0.2013540">
        <ele>1273.4</ele>
        <time>2020-07-25T11:42:11Z</time>
      </trkpt>
      <trkpt lat="42.9287830" lon="0.2012800">
        <ele>1274.4</ele>
        <time>2020-07-25T11:42:16Z</time>
      </trkpt>
      <trkpt lat="42.9287650" lon="0.2012610">
        <ele>1274.4</ele>
        <time>2020-07-25T11:42:17Z</time>
      </trkpt>
      <trkpt lat="42.9287200" lon="0.2012000">
        <ele>1275.0</ele>
        <time>2020-07-25T11:42:20Z</time>
      </trkpt>
      <trkpt lat="42.9287040" lon="0.2011800">
        <ele>1275.2</ele>
        <time>2020-07-25T11:42:21Z</time>
      </trkpt>
      <trkpt lat="42.9286870" lon="0.2011610">
        <ele>1275.4</ele>
        <time>2020-07-25T11:42:22Z</time>
      </trkpt>
      <trkpt lat="42.9286750" lon="0.2011350">
        <ele>1275.6</ele>
        <time>2020-07-25T11:42:23Z</time>
      </trkpt>
      <trkpt lat="42.9285970" lon="0.2010150">
        <ele>1276.8</ele>
        <time>2020-07-25T11:42:28Z</time>
      </trkpt>
      <trkpt lat="42.9285050" lon="0.2008790">
        <ele>1277.8</ele>
        <time>2020-07-25T11:42:34Z</time>
      </trkpt>
      <trkpt lat="42.9284910" lon="0.2008520">
        <ele>1277.8</ele>
        <time>2020-07-25T11:42:35Z</time>
      </trkpt>
      <trkpt lat="42.9284600" lon="0.2008040">
        <ele>1278.4</ele>
        <time>2020-07-25T11:42:37Z</time>
      </trkpt>
      <trkpt lat="42.9284310" lon="0.2007490">
        <ele>1279.0</ele>
        <time>2020-07-25T11:42:39Z</time>
      </trkpt>
      <trkpt lat="42.9283560" lon="0.2006230">
        <ele>1280.2</ele>
        <time>2020-07-25T11:42:44Z</time>
      </trkpt>
      <trkpt lat="42.9282650" lon="0.2004930">
        <ele>1281.0</ele>
        <time>2020-07-25T11:42:50Z</time>
      </trkpt>
      <trkpt lat="42.9282490" lon="0.2004720">
        <ele>1281.2</ele>
        <time>2020-07-25T11:42:51Z</time>
      </trkpt>
      <trkpt lat="42.9282330" lon="0.2004520">
        <ele>1281.4</ele>
        <time>2020-07-25T11:42:52Z</time>
      </trkpt>
      <trkpt lat="42.9281820" lon="0.2003950">
        <ele>1282.4</ele>
        <time>2020-07-25T11:42:55Z</time>
      </trkpt>
      <trkpt lat="42.9281100" lon="0.2003120">
        <ele>1283.4</ele>
        <time>2020-07-25T11:42:59Z</time>
      </trkpt>
      <trkpt lat="42.9280930" lon="0.2002890">
        <ele>1283.4</ele>
        <time>2020-07-25T11:43:00Z</time>
      </trkpt>
      <trkpt lat="42.9280130" lon="0.2001790">
        <ele>1284.6</ele>
        <time>2020-07-25T11:43:05Z</time>
      </trkpt>
      <trkpt lat="42.9279480" lon="0.2000960">
        <ele>1285.4</ele>
        <time>2020-07-25T11:43:08Z</time>
      </trkpt>
      <trkpt lat="42.9279130" lon="0.2000600">
        <ele>1285.8</ele>
        <time>2020-07-25T11:43:10Z</time>
      </trkpt>
      <trkpt lat="42.9278300" lon="0.1999640">
        <ele>1286.8</ele>
        <time>2020-07-25T11:43:16Z</time>
      </trkpt>
      <trkpt lat="42.9278130" lon="0.1999470">
        <ele>1287.0</ele>
        <time>2020-07-25T11:43:17Z</time>
      </trkpt>
      <trkpt lat="42.9277980" lon="0.1999270">
        <ele>1287.2</ele>
        <time>2020-07-25T11:43:18Z</time>
      </trkpt>
      <trkpt lat="42.9277080" lon="0.1998370">
        <ele>1288.2</ele>
        <time>2020-07-25T11:43:23Z</time>
      </trkpt>
      <trkpt lat="42.9276780" lon="0.1997920">
        <ele>1288.6</ele>
        <time>2020-07-25T11:43:25Z</time>
      </trkpt>
      <trkpt lat="42.9276320" lon="0.1997240">
        <ele>1289.2</ele>
        <time>2020-07-25T11:43:28Z</time>
      </trkpt>
      <trkpt lat="42.9275360" lon="0.1995840">
        <ele>1290.2</ele>
        <time>2020-07-25T11:43:34Z</time>
      </trkpt>
      <trkpt lat="42.9275220" lon="0.1995570">
        <ele>1290.2</ele>
        <time>2020-07-25T11:43:35Z</time>
      </trkpt>
      <trkpt lat="42.9274320" lon="0.1994160">
        <ele>1291.4</ele>
        <time>2020-07-25T11:43:41Z</time>
      </trkpt>
      <trkpt lat="42.9274160" lon="0.1993940">
        <ele>1291.6</ele>
        <time>2020-07-25T11:43:42Z</time>
      </trkpt>
      <trkpt lat="42.9273300" lon="0.1993040">
        <ele>1292.6</ele>
        <time>2020-07-25T11:43:47Z</time>
      </trkpt>
      <trkpt lat="42.9272970" lon="0.1992720">
        <ele>1292.8</ele>
        <time>2020-07-25T11:43:49Z</time>
      </trkpt>
      <trkpt lat="42.9272410" lon="0.1992130">
        <ele>1293.8</ele>
        <time>2020-07-25T11:43:52Z</time>
      </trkpt>
      <trkpt lat="42.9271550" lon="0.1991010">
        <ele>1294.8</ele>
        <time>2020-07-25T11:43:57Z</time>
      </trkpt>
      <trkpt lat="42.9270910" lon="0.1989390">
        <ele>1296.0</ele>
        <time>2020-07-25T11:44:03Z</time>
      </trkpt>
      <trkpt lat="42.9270760" lon="0.1988820">
        <ele>1296.4</ele>
        <time>2020-07-25T11:44:05Z</time>
      </trkpt>
      <trkpt lat="42.9270640" lon="0.1987840">
        <ele>1297.2</ele>
        <time>2020-07-25T11:44:08Z</time>
      </trkpt>
      <trkpt lat="42.9270560" lon="0.1986660">
        <ele>1298.0</ele>
        <time>2020-07-25T11:44:12Z</time>
      </trkpt>
      <trkpt lat="42.9270530" lon="0.1986350">
        <ele>1298.2</ele>
        <time>2020-07-25T11:44:13Z</time>
      </trkpt>
      <trkpt lat="42.9270210" lon="0.1984840">
        <ele>1299.2</ele>
        <time>2020-07-25T11:44:18Z</time>
      </trkpt>
      <trkpt lat="42.9269900" lon="0.1984400">
        <ele>1299.6</ele>
        <time>2020-07-25T11:44:20Z</time>
      </trkpt>
      <trkpt lat="42.9269320" lon="0.1983730">
        <ele>1300.4</ele>
        <time>2020-07-25T11:44:23Z</time>
      </trkpt>
      <trkpt lat="42.9268290" lon="0.1982800">
        <ele>1301.2</ele>
        <time>2020-07-25T11:44:28Z</time>
      </trkpt>
      <trkpt lat="42.9267910" lon="0.1982400">
        <ele>1301.4</ele>
        <time>2020-07-25T11:44:30Z</time>
      </trkpt>
      <trkpt lat="42.9267380" lon="0.1981870">
        <ele>1302.6</ele>
        <time>2020-07-25T11:44:33Z</time>
      </trkpt>
      <trkpt lat="42.9266420" lon="0.1980990">
        <ele>1303.4</ele>
        <time>2020-07-25T11:44:38Z</time>
      </trkpt>
      <trkpt lat="42.9266030" lon="0.1980640">
        <ele>1303.8</ele>
        <time>2020-07-25T11:44:40Z</time>
      </trkpt>
      <trkpt lat="42.9265130" lon="0.1979790">
        <ele>1305.0</ele>
        <time>2020-07-25T11:44:45Z</time>
      </trkpt>
      <trkpt lat="42.9264770" lon="0.1979420">
        <ele>1305.2</ele>
        <time>2020-07-25T11:44:47Z</time>
      </trkpt>
      <trkpt lat="42.9263980" lon="0.1978650">
        <ele>1306.2</ele>
        <time>2020-07-25T11:44:51Z</time>
      </trkpt>
      <trkpt lat="42.9263340" lon="0.1977760">
        <ele>1307.0</ele>
        <time>2020-07-25T11:44:55Z</time>
      </trkpt>
      <trkpt lat="42.9263130" lon="0.1977220">
        <ele>1307.4</ele>
        <time>2020-07-25T11:44:57Z</time>
      </trkpt>
      <trkpt lat="42.9262790" lon="0.1976490">
        <ele>1308.4</ele>
        <time>2020-07-25T11:45:00Z</time>
      </trkpt>
      <trkpt lat="42.9262560" lon="0.1975610">
        <ele>1309.0</ele>
        <time>2020-07-25T11:45:03Z</time>
      </trkpt>
      <trkpt lat="42.9262290" lon="0.1974840">
        <ele>1309.4</ele>
        <time>2020-07-25T11:45:06Z</time>
      </trkpt>
      <trkpt lat="42.9261700" lon="0.1973630">
        <ele>1310.2</ele>
        <time>2020-07-25T11:45:11Z</time>
      </trkpt>
      <trkpt lat="42.9261310" lon="0.1973180">
        <ele>1310.6</ele>
        <time>2020-07-25T11:45:13Z</time>
      </trkpt>
      <trkpt lat="42.9260580" lon="0.1972290">
        <ele>1311.8</ele>
        <time>2020-07-25T11:45:17Z</time>
      </trkpt>
      <trkpt lat="42.9259740" lon="0.1971570">
        <ele>1312.8</ele>
        <time>2020-07-25T11:45:21Z</time>
      </trkpt>
      <trkpt lat="42.9259510" lon="0.1971490">
        <ele>1313.0</ele>
        <time>2020-07-25T11:45:22Z</time>
      </trkpt>
      <trkpt lat="42.9258360" lon="0.1971250">
        <ele>1313.8</ele>
        <time>2020-07-25T11:45:27Z</time>
      </trkpt>
      <trkpt lat="42.9258140" lon="0.1971280">
        <ele>1314.0</ele>
        <time>2020-07-25T11:45:28Z</time>
      </trkpt>
      <trkpt lat="42.9258000" lon="0.1971310">
        <ele>1314.2</ele>
        <time>2020-07-25T11:45:29Z</time>
      </trkpt>
      <trkpt lat="42.9257160" lon="0.1971730">
        <ele>1313.8</ele>
        <time>2020-07-25T11:47:46Z</time>
      </trkpt>
      <trkpt lat="42.9257000" lon="0.1971910">
        <ele>1314.0</ele>
        <time>2020-07-25T11:47:48Z</time>
      </trkpt>
      <trkpt lat="42.9256900" lon="0.1972200">
        <ele>1315.2</ele>
        <time>2020-07-25T11:47:50Z</time>
      </trkpt>
      <trkpt lat="42.9256650" lon="0.1972600">
        <ele>1316.2</ele>
        <time>2020-07-25T11:47:52Z</time>
      </trkpt>
      <trkpt lat="42.9256100" lon="0.1973370">
        <ele>1317.0</ele>
        <time>2020-07-25T11:47:56Z</time>
      </trkpt>
      <trkpt lat="42.9255930" lon="0.1973500">
        <ele>1317.4</ele>
        <time>2020-07-25T11:47:57Z</time>
      </trkpt>
      <trkpt lat="42.9255070" lon="0.1973970">
        <ele>1318.6</ele>
        <time>2020-07-25T11:48:01Z</time>
      </trkpt>
      <trkpt lat="42.9254350" lon="0.1974470">
        <ele>1319.2</ele>
        <time>2020-07-25T11:48:05Z</time>
      </trkpt>
      <trkpt lat="42.9253990" lon="0.1974700">
        <ele>1319.8</ele>
        <time>2020-07-25T11:48:07Z</time>
      </trkpt>
      <trkpt lat="42.9253140" lon="0.1975250">
        <ele>1321.0</ele>
        <time>2020-07-25T11:48:11Z</time>
      </trkpt>
      <trkpt lat="42.9252730" lon="0.1975520">
        <ele>1321.6</ele>
        <time>2020-07-25T11:48:13Z</time>
      </trkpt>
      <trkpt lat="42.9251840" lon="0.1975880">
        <ele>1322.0</ele>
        <time>2020-07-25T11:48:16Z</time>
      </trkpt>
      <trkpt lat="42.9251300" lon="0.1975930">
        <ele>1322.6</ele>
        <time>2020-07-25T11:48:20Z</time>
      </trkpt>
      <trkpt lat="42.9250660" lon="0.1976000">
        <ele>1323.2</ele>
        <time>2020-07-25T11:48:24Z</time>
      </trkpt>
      <trkpt lat="42.9250240" lon="0.1976190">
        <ele>1324.0</ele>
        <time>2020-07-25T11:48:26Z</time>
      </trkpt>
      <trkpt lat="42.9249820" lon="0.1976270">
        <ele>1324.4</ele>
        <time>2020-07-25T11:48:28Z</time>
      </trkpt>
      <trkpt lat="42.9249280" lon="0.1976370">
        <ele>1325.2</ele>
        <time>2020-07-25T11:48:31Z</time>
      </trkpt>
      <trkpt lat="42.9249100" lon="0.1976430">
        <ele>1325.6</ele>
        <time>2020-07-25T11:48:32Z</time>
      </trkpt>
      <trkpt lat="42.9248950" lon="0.1976500">
        <ele>1325.8</ele>
        <time>2020-07-25T11:48:33Z</time>
      </trkpt>
      <trkpt lat="42.9247900" lon="0.1978210">
        <ele>1326.2</ele>
        <time>2020-07-25T11:48:39Z</time>
      </trkpt>
      <trkpt lat="42.9247630" lon="0.1979090">
        <ele>1326.6</ele>
        <time>2020-07-25T11:48:41Z</time>
      </trkpt>
      <trkpt lat="42.9247240" lon="0.1980870">
        <ele>1327.4</ele>
        <time>2020-07-25T11:48:45Z</time>
      </trkpt>
      <trkpt lat="42.9247180" lon="0.1981590">
        <ele>1327.8</ele>
        <time>2020-07-25T11:48:47Z</time>
      </trkpt>
      <trkpt lat="42.9247150" lon="0.1982900">
        <ele>1328.2</ele>
        <time>2020-07-25T11:48:51Z</time>
      </trkpt>
      <trkpt lat="42.9247010" lon="0.1983980">
        <ele>1328.8</ele>
        <time>2020-07-25T11:48:54Z</time>
      </trkpt>
      <trkpt lat="42.9246890" lon="0.1985350">
        <ele>1329.8</ele>
        <time>2020-07-25T11:48:58Z</time>
      </trkpt>
      <trkpt lat="42.9246860" lon="0.1985680">
        <ele>1330.0</ele>
        <time>2020-07-25T11:48:59Z</time>
      </trkpt>
      <trkpt lat="42.9246770" lon="0.1987120">
        <ele>1331.0</ele>
        <time>2020-07-25T11:49:03Z</time>
      </trkpt>
      <trkpt lat="42.9246770" lon="0.1988570">
        <ele>1332.4</ele>
        <time>2020-07-25T11:49:07Z</time>
      </trkpt>
      <trkpt lat="42.9246740" lon="0.1988940">
        <ele>1332.6</ele>
        <time>2020-07-25T11:49:08Z</time>
      </trkpt>
      <trkpt lat="42.9246680" lon="0.1990390">
        <ele>1333.6</ele>
        <time>2020-07-25T11:49:12Z</time>
      </trkpt>
      <trkpt lat="42.9246650" lon="0.1991050">
        <ele>1333.8</ele>
        <time>2020-07-25T11:49:14Z</time>
      </trkpt>
      <trkpt lat="42.9246620" lon="0.1991680">
        <ele>1334.0</ele>
        <time>2020-07-25T11:49:16Z</time>
      </trkpt>
      <trkpt lat="42.9246560" lon="0.1992350">
        <ele>1335.0</ele>
        <time>2020-07-25T11:49:18Z</time>
      </trkpt>
      <trkpt lat="42.9246540" lon="0.1993040">
        <ele>1335.4</ele>
        <time>2020-07-25T11:49:20Z</time>
      </trkpt>
      <trkpt lat="42.9246520" lon="0.1993400">
        <ele>1335.6</ele>
        <time>2020-07-25T11:49:21Z</time>
      </trkpt>
      <trkpt lat="42.9246510" lon="0.1994080">
        <ele>1336.0</ele>
        <time>2020-07-25T11:49:23Z</time>
      </trkpt>
      <trkpt lat="42.9246520" lon="0.1994790">
        <ele>1336.6</ele>
        <time>2020-07-25T11:49:25Z</time>
      </trkpt>
      <trkpt lat="42.9246470" lon="0.1995850">
        <ele>1337.2</ele>
        <time>2020-07-25T11:49:28Z</time>
      </trkpt>
      <trkpt lat="42.9246550" lon="0.1997170">
        <ele>1338.2</ele>
        <time>2020-07-25T11:49:32Z</time>
      </trkpt>
      <trkpt lat="42.9246490" lon="0.1997820">
        <ele>1338.8</ele>
        <time>2020-07-25T11:49:34Z</time>
      </trkpt>
      <trkpt lat="42.9246420" lon="0.1998780">
        <ele>1339.4</ele>
        <time>2020-07-25T11:49:37Z</time>
      </trkpt>
      <trkpt lat="42.9246360" lon="0.2000130">
        <ele>1340.6</ele>
        <time>2020-07-25T11:49:41Z</time>
      </trkpt>
      <trkpt lat="42.9246350" lon="0.2000460">
        <ele>1340.8</ele>
        <time>2020-07-25T11:49:42Z</time>
      </trkpt>
      <trkpt lat="42.9246240" lon="0.2002120">
        <ele>1341.8</ele>
        <time>2020-07-25T11:49:47Z</time>
      </trkpt>
      <trkpt lat="42.9246180" lon="0.2002790">
        <ele>1342.4</ele>
        <time>2020-07-25T11:49:49Z</time>
      </trkpt>
      <trkpt lat="42.9246130" lon="0.2003120">
        <ele>1342.6</ele>
        <time>2020-07-25T11:49:50Z</time>
      </trkpt>
      <trkpt lat="42.9246040" lon="0.2003750">
        <ele>1343.0</ele>
        <time>2020-07-25T11:49:52Z</time>
      </trkpt>
      <trkpt lat="42.9245940" lon="0.2004720">
        <ele>1343.4</ele>
        <time>2020-07-25T11:49:55Z</time>
      </trkpt>
      <trkpt lat="42.9245900" lon="0.2005070">
        <ele>1343.6</ele>
        <time>2020-07-25T11:49:56Z</time>
      </trkpt>
      <trkpt lat="42.9245870" lon="0.2005410">
        <ele>1344.0</ele>
        <time>2020-07-25T11:49:57Z</time>
      </trkpt>
      <trkpt lat="42.9245850" lon="0.2005770">
        <ele>1344.2</ele>
        <time>2020-07-25T11:49:58Z</time>
      </trkpt>
      <trkpt lat="42.9245730" lon="0.2007170">
        <ele>1345.0</ele>
        <time>2020-07-25T11:50:02Z</time>
      </trkpt>
      <trkpt lat="42.9245510" lon="0.2008510">
        <ele>1346.0</ele>
        <time>2020-07-25T11:50:06Z</time>
      </trkpt>
      <trkpt lat="42.9245480" lon="0.2008860">
        <ele>1346.4</ele>
        <time>2020-07-25T11:50:07Z</time>
      </trkpt>
      <trkpt lat="42.9245260" lon="0.2010100">
        <ele>1347.2</ele>
        <time>2020-07-25T11:50:11Z</time>
      </trkpt>
      <trkpt lat="42.9245060" lon="0.2011040">
        <ele>1348.0</ele>
        <time>2020-07-25T11:50:14Z</time>
      </trkpt>
      <trkpt lat="42.9244910" lon="0.2011870">
        <ele>1348.4</ele>
        <time>2020-07-25T11:50:18Z</time>
      </trkpt>
      <trkpt lat="42.9244920" lon="0.2012100">
        <ele>1348.6</ele>
        <time>2020-07-25T11:50:19Z</time>
      </trkpt>
      <trkpt lat="42.9244590" lon="0.2013270">
        <ele>1349.6</ele>
        <time>2020-07-25T11:50:23Z</time>
      </trkpt>
      <trkpt lat="42.9244530" lon="0.2013940">
        <ele>1350.2</ele>
        <time>2020-07-25T11:50:25Z</time>
      </trkpt>
      <trkpt lat="42.9244490" lon="0.2014290">
        <ele>1350.4</ele>
        <time>2020-07-25T11:50:26Z</time>
      </trkpt>
      <trkpt lat="42.9244410" lon="0.2014630">
        <ele>1350.6</ele>
        <time>2020-07-25T11:50:27Z</time>
      </trkpt>
      <trkpt lat="42.9244040" lon="0.2016550">
        <ele>1351.8</ele>
        <time>2020-07-25T11:50:33Z</time>
      </trkpt>
      <trkpt lat="42.9243940" lon="0.2017450">
        <ele>1352.6</ele>
        <time>2020-07-25T11:50:36Z</time>
      </trkpt>
      <trkpt lat="42.9243920" lon="0.2018020">
        <ele>1353.0</ele>
        <time>2020-07-25T11:50:38Z</time>
      </trkpt>
      <trkpt lat="42.9243860" lon="0.2018930">
        <ele>1353.8</ele>
        <time>2020-07-25T11:50:41Z</time>
      </trkpt>
      <trkpt lat="42.9243880" lon="0.2019550">
        <ele>1354.2</ele>
        <time>2020-07-25T11:50:43Z</time>
      </trkpt>
      <trkpt lat="42.9243900" lon="0.2020890">
        <ele>1355.2</ele>
        <time>2020-07-25T11:50:47Z</time>
      </trkpt>
      <trkpt lat="42.9243840" lon="0.2021910">
        <ele>1355.8</ele>
        <time>2020-07-25T11:50:50Z</time>
      </trkpt>
      <trkpt lat="42.9243710" lon="0.2022620">
        <ele>1356.4</ele>
        <time>2020-07-25T11:50:52Z</time>
      </trkpt>
      <trkpt lat="42.9243480" lon="0.2023980">
        <ele>1357.2</ele>
        <time>2020-07-25T11:50:56Z</time>
      </trkpt>
      <trkpt lat="42.9243400" lon="0.2024320">
        <ele>1357.4</ele>
        <time>2020-07-25T11:50:57Z</time>
      </trkpt>
      <trkpt lat="42.9243340" lon="0.2024650">
        <ele>1357.8</ele>
        <time>2020-07-25T11:50:58Z</time>
      </trkpt>
      <trkpt lat="42.9243100" lon="0.2025590">
        <ele>1358.4</ele>
        <time>2020-07-25T11:51:01Z</time>
      </trkpt>
      <trkpt lat="42.9243020" lon="0.2025900">
        <ele>1358.6</ele>
        <time>2020-07-25T11:51:02Z</time>
      </trkpt>
      <trkpt lat="42.9242840" lon="0.2027100">
        <ele>1359.4</ele>
        <time>2020-07-25T11:51:06Z</time>
      </trkpt>
      <trkpt lat="42.9242770" lon="0.2027380">
        <ele>1359.6</ele>
        <time>2020-07-25T11:51:07Z</time>
      </trkpt>
      <trkpt lat="42.9242660" lon="0.2027940">
        <ele>1360.0</ele>
        <time>2020-07-25T11:51:09Z</time>
      </trkpt>
      <trkpt lat="42.9242490" lon="0.2028530">
        <ele>1360.2</ele>
        <time>2020-07-25T11:51:10Z</time>
      </trkpt>
      <trkpt lat="42.9242340" lon="0.2029140">
        <ele>1360.8</ele>
        <time>2020-07-25T11:51:13Z</time>
      </trkpt>
      <trkpt lat="42.9242240" lon="0.2029720">
        <ele>1361.4</ele>
        <time>2020-07-25T11:51:15Z</time>
      </trkpt>
      <trkpt lat="42.9242180" lon="0.2030020">
        <ele>1361.6</ele>
        <time>2020-07-25T11:51:16Z</time>
      </trkpt>
      <trkpt lat="42.9242150" lon="0.2030310">
        <ele>1362.0</ele>
        <time>2020-07-25T11:51:17Z</time>
      </trkpt>
      <trkpt lat="42.9242040" lon="0.2030590">
        <ele>1362.2</ele>
        <time>2020-07-25T11:51:18Z</time>
      </trkpt>
      <trkpt lat="42.9241750" lon="0.2031380">
        <ele>1362.4</ele>
        <time>2020-07-25T11:51:21Z</time>
      </trkpt>
      <trkpt lat="42.9241720" lon="0.2031570">
        <ele>1362.6</ele>
        <time>2020-07-25T11:51:22Z</time>
      </trkpt>
      <trkpt lat="42.9241450" lon="0.2032370">
        <ele>1363.4</ele>
        <time>2020-07-25T11:51:25Z</time>
      </trkpt>
      <trkpt lat="42.9241110" lon="0.2033180">
        <ele>1364.4</ele>
        <time>2020-07-25T11:51:28Z</time>
      </trkpt>
      <trkpt lat="42.9240640" lon="0.2034240">
        <ele>1365.2</ele>
        <time>2020-07-25T11:51:32Z</time>
      </trkpt>
      <trkpt lat="42.9240340" lon="0.2035010">
        <ele>1365.6</ele>
        <time>2020-07-25T11:51:35Z</time>
      </trkpt>
      <trkpt lat="42.9240250" lon="0.2035250">
        <ele>1365.8</ele>
        <time>2020-07-25T11:51:36Z</time>
      </trkpt>
      <trkpt lat="42.9239690" lon="0.2035920">
        <ele>1366.8</ele>
        <time>2020-07-25T11:51:39Z</time>
      </trkpt>
      <trkpt lat="42.9239290" lon="0.2036710">
        <ele>1367.6</ele>
        <time>2020-07-25T11:51:42Z</time>
      </trkpt>
      <trkpt lat="42.9239150" lon="0.2036960">
        <ele>1367.8</ele>
        <time>2020-07-25T11:51:43Z</time>
      </trkpt>
      <trkpt lat="42.9238850" lon="0.2037720">
        <ele>1368.6</ele>
        <time>2020-07-25T11:51:46Z</time>
      </trkpt>
      <trkpt lat="42.9238750" lon="0.2037980">
        <ele>1368.8</ele>
        <time>2020-07-25T11:51:47Z</time>
      </trkpt>
      <trkpt lat="42.9238550" lon="0.2038420">
        <ele>1369.0</ele>
        <time>2020-07-25T11:51:49Z</time>
      </trkpt>
      <trkpt lat="42.9237590" lon="0.2040040">
        <ele>1370.2</ele>
        <time>2020-07-25T11:51:55Z</time>
      </trkpt>
      <trkpt lat="42.9237510" lon="0.2040340">
        <ele>1370.4</ele>
        <time>2020-07-25T11:51:56Z</time>
      </trkpt>
      <trkpt lat="42.9237260" lon="0.2041200">
        <ele>1371.2</ele>
        <time>2020-07-25T11:51:59Z</time>
      </trkpt>
      <trkpt lat="42.9236720" lon="0.2042590">
        <ele>1372.4</ele>
        <time>2020-07-25T11:52:04Z</time>
      </trkpt>
      <trkpt lat="42.9236440" lon="0.2043190">
        <ele>1373.0</ele>
        <time>2020-07-25T11:52:06Z</time>
      </trkpt>
      <trkpt lat="42.9236060" lon="0.2043950">
        <ele>1373.4</ele>
        <time>2020-07-25T11:52:09Z</time>
      </trkpt>
      <trkpt lat="42.9235680" lon="0.2044720">
        <ele>1374.0</ele>
        <time>2020-07-25T11:52:12Z</time>
      </trkpt>
      <trkpt lat="42.9235540" lon="0.2044970">
        <ele>1374.2</ele>
        <time>2020-07-25T11:52:13Z</time>
      </trkpt>
      <trkpt lat="42.9235210" lon="0.2045480">
        <ele>1374.4</ele>
        <time>2020-07-25T11:52:15Z</time>
      </trkpt>
      <trkpt lat="42.9234800" lon="0.2046170">
        <ele>1375.4</ele>
        <time>2020-07-25T11:52:18Z</time>
      </trkpt>
      <trkpt lat="42.9234660" lon="0.2046390">
        <ele>1375.6</ele>
        <time>2020-07-25T11:52:19Z</time>
      </trkpt>
      <trkpt lat="42.9234280" lon="0.2046780">
        <ele>1376.0</ele>
        <time>2020-07-25T11:52:21Z</time>
      </trkpt>
      <trkpt lat="42.9233740" lon="0.2047180">
        <ele>1376.6</ele>
        <time>2020-07-25T11:52:24Z</time>
      </trkpt>
      <trkpt lat="42.9233150" lon="0.2047930">
        <ele>1377.2</ele>
        <time>2020-07-25T11:52:28Z</time>
      </trkpt>
      <trkpt lat="42.9232700" lon="0.2048510">
        <ele>1377.8</ele>
        <time>2020-07-25T11:52:31Z</time>
      </trkpt>
      <trkpt lat="42.9232070" lon="0.2049370">
        <ele>1378.8</ele>
        <time>2020-07-25T11:52:35Z</time>
      </trkpt>
      <trkpt lat="42.9231810" lon="0.2049840">
        <ele>1379.2</ele>
        <time>2020-07-25T11:52:37Z</time>
      </trkpt>
      <trkpt lat="42.9232000" lon="0.2050830">
        <ele>1379.8</ele>
        <time>2020-07-25T11:52:41Z</time>
      </trkpt>
      <trkpt lat="42.9231850" lon="0.2051110">
        <ele>1380.0</ele>
        <time>2020-07-25T11:52:42Z</time>
      </trkpt>
      <trkpt lat="42.9231110" lon="0.2052510">
        <ele>1380.8</ele>
        <time>2020-07-25T11:52:47Z</time>
      </trkpt>
      <trkpt lat="42.9230960" lon="0.2052790">
        <ele>1381.0</ele>
        <time>2020-07-25T11:52:48Z</time>
      </trkpt>
      <trkpt lat="42.9230450" lon="0.2053870">
        <ele>1382.2</ele>
        <time>2020-07-25T11:52:52Z</time>
      </trkpt>
      <trkpt lat="42.9230090" lon="0.2055020">
        <ele>1383.0</ele>
        <time>2020-07-25T11:52:56Z</time>
      </trkpt>
      <trkpt lat="42.9229640" lon="0.2055530">
        <ele>1383.2</ele>
        <time>2020-07-25T11:52:58Z</time>
      </trkpt>
      <trkpt lat="42.9228950" lon="0.2056120">
        <ele>1384.0</ele>
        <time>2020-07-25T11:53:01Z</time>
      </trkpt>
      <trkpt lat="42.9228510" lon="0.2056570">
        <ele>1384.4</ele>
        <time>2020-07-25T11:53:03Z</time>
      </trkpt>
      <trkpt lat="42.9227860" lon="0.2057110">
        <ele>1385.4</ele>
        <time>2020-07-25T11:53:06Z</time>
      </trkpt>
      <trkpt lat="42.9227650" lon="0.2057280">
        <ele>1385.6</ele>
        <time>2020-07-25T11:53:07Z</time>
      </trkpt>
      <trkpt lat="42.9226730" lon="0.2057740">
        <ele>1386.4</ele>
        <time>2020-07-25T11:53:11Z</time>
      </trkpt>
      <trkpt lat="42.9226510" lon="0.2057850">
        <ele>1386.6</ele>
        <time>2020-07-25T11:53:12Z</time>
      </trkpt>
      <trkpt lat="42.9225320" lon="0.2058240">
        <ele>1387.8</ele>
        <time>2020-07-25T11:53:17Z</time>
      </trkpt>
      <trkpt lat="42.9224860" lon="0.2058340">
        <ele>1388.0</ele>
        <time>2020-07-25T11:53:19Z</time>
      </trkpt>
      <trkpt lat="42.9223680" lon="0.2058860">
        <ele>1389.0</ele>
        <time>2020-07-25T11:53:24Z</time>
      </trkpt>
      <trkpt lat="42.9222980" lon="0.2059120">
        <ele>1389.6</ele>
        <time>2020-07-25T11:53:27Z</time>
      </trkpt>
      <trkpt lat="42.9222250" lon="0.2059420">
        <ele>1390.2</ele>
        <time>2020-07-25T11:53:30Z</time>
      </trkpt>
      <trkpt lat="42.9221490" lon="0.2059870">
        <ele>1391.0</ele>
        <time>2020-07-25T11:53:34Z</time>
      </trkpt>
      <trkpt lat="42.9221320" lon="0.2060040">
        <ele>1391.2</ele>
        <time>2020-07-25T11:53:35Z</time>
      </trkpt>
      <trkpt lat="42.9220370" lon="0.2061230">
        <ele>1392.2</ele>
        <time>2020-07-25T11:53:40Z</time>
      </trkpt>
      <trkpt lat="42.9219210" lon="0.2062600">
        <ele>1393.4</ele>
        <time>2020-07-25T11:53:46Z</time>
      </trkpt>
      <trkpt lat="42.9218810" lon="0.2063000">
        <ele>1393.6</ele>
        <time>2020-07-25T11:53:48Z</time>
      </trkpt>
      <trkpt lat="42.9218030" lon="0.2063780">
        <ele>1394.2</ele>
        <time>2020-07-25T11:53:52Z</time>
      </trkpt>
      <trkpt lat="42.9217630" lon="0.2064210">
        <ele>1394.4</ele>
        <time>2020-07-25T11:53:54Z</time>
      </trkpt>
      <trkpt lat="42.9216980" lon="0.2064790">
        <ele>1395.4</ele>
        <time>2020-07-25T11:53:57Z</time>
      </trkpt>
      <trkpt lat="42.9216780" lon="0.2064970">
        <ele>1395.6</ele>
        <time>2020-07-25T11:53:58Z</time>
      </trkpt>
      <trkpt lat="42.9216120" lon="0.2065510">
        <ele>1396.4</ele>
        <time>2020-07-25T11:54:01Z</time>
      </trkpt>
      <trkpt lat="42.9215900" lon="0.2065660">
        <ele>1396.6</ele>
        <time>2020-07-25T11:54:02Z</time>
      </trkpt>
      <trkpt lat="42.9215200" lon="0.2066170">
        <ele>1397.6</ele>
        <time>2020-07-25T11:54:06Z</time>
      </trkpt>
      <trkpt lat="42.9215010" lon="0.2066330">
        <ele>1398.0</ele>
        <time>2020-07-25T11:54:07Z</time>
      </trkpt>
      <trkpt lat="42.9213870" lon="0.2066980">
        <ele>1398.8</ele>
        <time>2020-07-25T11:54:11Z</time>
      </trkpt>
      <trkpt lat="42.9213580" lon="0.2067050">
        <ele>1399.0</ele>
        <time>2020-07-25T11:54:13Z</time>
      </trkpt>
      <trkpt lat="42.9213280" lon="0.2067340">
        <ele>1399.4</ele>
        <time>2020-07-25T11:54:15Z</time>
      </trkpt>
      <trkpt lat="42.9212530" lon="0.2067840">
        <ele>1400.2</ele>
        <time>2020-07-25T11:54:19Z</time>
      </trkpt>
      <trkpt lat="42.9211690" lon="0.2068320">
        <ele>1401.2</ele>
        <time>2020-07-25T11:54:23Z</time>
      </trkpt>
      <trkpt lat="42.9211250" lon="0.2068580">
        <ele>1401.6</ele>
        <time>2020-07-25T11:54:25Z</time>
      </trkpt>
      <trkpt lat="42.9210530" lon="0.2068910">
        <ele>1402.2</ele>
        <time>2020-07-25T11:54:28Z</time>
      </trkpt>
      <trkpt lat="42.9209360" lon="0.2069510">
        <ele>1403.0</ele>
        <time>2020-07-25T11:54:33Z</time>
      </trkpt>
      <trkpt lat="42.9209130" lon="0.2069610">
        <ele>1403.4</ele>
        <time>2020-07-25T11:54:34Z</time>
      </trkpt>
      <trkpt lat="42.9208140" lon="0.2070060">
        <ele>1404.4</ele>
        <time>2020-07-25T11:54:38Z</time>
      </trkpt>
      <trkpt lat="42.9207590" lon="0.2070270">
        <ele>1405.2</ele>
        <time>2020-07-25T11:54:41Z</time>
      </trkpt>
      <trkpt lat="42.9207110" lon="0.2070560">
        <ele>1405.6</ele>
        <time>2020-07-25T11:54:44Z</time>
      </trkpt>
      <trkpt lat="42.9206350" lon="0.2071210">
        <ele>1406.6</ele>
        <time>2020-07-25T11:54:49Z</time>
      </trkpt>
      <trkpt lat="42.9205700" lon="0.2071970">
        <ele>1407.8</ele>
        <time>2020-07-25T11:54:54Z</time>
      </trkpt>
      <trkpt lat="42.9205280" lon="0.2072400">
        <ele>1408.0</ele>
        <time>2020-07-25T11:54:56Z</time>
      </trkpt>
      <trkpt lat="42.9204570" lon="0.2073130">
        <ele>1409.0</ele>
        <time>2020-07-25T11:55:00Z</time>
      </trkpt>
      <trkpt lat="42.9203750" lon="0.2073680">
        <ele>1409.8</ele>
        <time>2020-07-25T11:55:04Z</time>
      </trkpt>
      <trkpt lat="42.9203550" lon="0.2073840">
        <ele>1410.0</ele>
        <time>2020-07-25T11:55:05Z</time>
      </trkpt>
      <trkpt lat="42.9202470" lon="0.2074610">
        <ele>1411.0</ele>
        <time>2020-07-25T11:55:10Z</time>
      </trkpt>
      <trkpt lat="42.9202260" lon="0.2074800">
        <ele>1411.4</ele>
        <time>2020-07-25T11:55:11Z</time>
      </trkpt>
      <trkpt lat="42.9201600" lon="0.2075270">
        <ele>1412.2</ele>
        <time>2020-07-25T11:55:14Z</time>
      </trkpt>
      <trkpt lat="42.9200760" lon="0.2075930">
        <ele>1412.8</ele>
        <time>2020-07-25T11:55:18Z</time>
      </trkpt>
      <trkpt lat="42.9200180" lon="0.2076860">
        <ele>1413.4</ele>
        <time>2020-07-25T11:55:22Z</time>
      </trkpt>
      <trkpt lat="42.9199380" lon="0.2077690">
        <ele>1414.6</ele>
        <time>2020-07-25T11:55:26Z</time>
      </trkpt>
      <trkpt lat="42.9198190" lon="0.2078600">
        <ele>1415.8</ele>
        <time>2020-07-25T11:55:32Z</time>
      </trkpt>
      <trkpt lat="42.9197740" lon="0.2078850">
        <ele>1416.4</ele>
        <time>2020-07-25T11:55:34Z</time>
      </trkpt>
      <trkpt lat="42.9197240" lon="0.2079200">
        <ele>1417.0</ele>
        <time>2020-07-25T11:55:37Z</time>
      </trkpt>
      <trkpt lat="42.9196410" lon="0.2079860">
        <ele>1417.8</ele>
        <time>2020-07-25T11:55:41Z</time>
      </trkpt>
      <trkpt lat="42.9196030" lon="0.2080030">
        <ele>1418.0</ele>
        <time>2020-07-25T11:55:43Z</time>
      </trkpt>
      <trkpt lat="42.9195220" lon="0.2080590">
        <ele>1418.4</ele>
        <time>2020-07-25T11:55:46Z</time>
      </trkpt>
      <trkpt lat="42.9194750" lon="0.2080900">
        <ele>1419.0</ele>
        <time>2020-07-25T11:55:48Z</time>
      </trkpt>
      <trkpt lat="42.9193500" lon="0.2081740">
        <ele>1420.2</ele>
        <time>2020-07-25T11:55:53Z</time>
      </trkpt>
      <trkpt lat="42.9193000" lon="0.2082020">
        <ele>1420.6</ele>
        <time>2020-07-25T11:55:55Z</time>
      </trkpt>
      <trkpt lat="42.9192330" lon="0.2082470">
        <ele>1421.2</ele>
        <time>2020-07-25T11:55:59Z</time>
      </trkpt>
      <trkpt lat="42.9191550" lon="0.2083110">
        <ele>1422.4</ele>
        <time>2020-07-25T11:56:03Z</time>
      </trkpt>
      <trkpt lat="42.9190420" lon="0.2083960">
        <ele>1423.4</ele>
        <time>2020-07-25T11:56:08Z</time>
      </trkpt>
      <trkpt lat="42.9190000" lon="0.2084220">
        <ele>1424.0</ele>
        <time>2020-07-25T11:56:10Z</time>
      </trkpt>
      <trkpt lat="42.9189540" lon="0.2084490">
        <ele>1424.6</ele>
        <time>2020-07-25T11:56:12Z</time>
      </trkpt>
      <trkpt lat="42.9188430" lon="0.2084960">
        <ele>1425.6</ele>
        <time>2020-07-25T11:56:16Z</time>
      </trkpt>
      <trkpt lat="42.9188160" lon="0.2085030">
        <ele>1425.8</ele>
        <time>2020-07-25T11:56:17Z</time>
      </trkpt>
      <trkpt lat="42.9187320" lon="0.2085020">
        <ele>1426.6</ele>
        <time>2020-07-25T11:56:20Z</time>
      </trkpt>
      <trkpt lat="42.9186270" lon="0.2084900">
        <ele>1427.6</ele>
        <time>2020-07-25T11:56:24Z</time>
      </trkpt>
      <trkpt lat="42.9186000" lon="0.2084870">
        <ele>1427.8</ele>
        <time>2020-07-25T11:56:25Z</time>
      </trkpt>
      <trkpt lat="42.9184970" lon="0.2084810">
        <ele>1429.0</ele>
        <time>2020-07-25T11:56:29Z</time>
      </trkpt>
      <trkpt lat="42.9184000" lon="0.2084900">
        <ele>1429.4</ele>
        <time>2020-07-25T11:56:33Z</time>
      </trkpt>
      <trkpt lat="42.9183520" lon="0.2084940">
        <ele>1430.0</ele>
        <time>2020-07-25T11:56:35Z</time>
      </trkpt>
      <trkpt lat="42.9182400" lon="0.2085480">
        <ele>1431.0</ele>
        <time>2020-07-25T11:56:40Z</time>
      </trkpt>
      <trkpt lat="42.9181760" lon="0.2085840">
        <ele>1432.2</ele>
        <time>2020-07-25T11:56:43Z</time>
      </trkpt>
      <trkpt lat="42.9180790" lon="0.2086560">
        <ele>1433.0</ele>
        <time>2020-07-25T11:56:48Z</time>
      </trkpt>
      <trkpt lat="42.9180460" lon="0.2086880">
        <ele>1433.4</ele>
        <time>2020-07-25T11:56:50Z</time>
      </trkpt>
      <trkpt lat="42.9179540" lon="0.2088090">
        <ele>1434.6</ele>
        <time>2020-07-25T11:56:56Z</time>
      </trkpt>
      <trkpt lat="42.9178770" lon="0.2089140">
        <ele>1435.2</ele>
        <time>2020-07-25T11:57:02Z</time>
      </trkpt>
      <trkpt lat="42.9178630" lon="0.2089380">
        <ele>1435.6</ele>
        <time>2020-07-25T11:57:03Z</time>
      </trkpt>
      <trkpt lat="42.9177740" lon="0.2090250">
        <ele>1436.6</ele>
        <time>2020-07-25T11:57:08Z</time>
      </trkpt>
      <trkpt lat="42.9177560" lon="0.2090420">
        <ele>1436.8</ele>
        <time>2020-07-25T11:57:09Z</time>
      </trkpt>
      <trkpt lat="42.9176880" lon="0.2090900">
        <ele>1437.8</ele>
        <time>2020-07-25T11:57:13Z</time>
      </trkpt>
      <trkpt lat="42.9176140" lon="0.2091600">
        <ele>1438.6</ele>
        <time>2020-07-25T11:57:17Z</time>
      </trkpt>
      <trkpt lat="42.9175970" lon="0.2091790">
        <ele>1438.8</ele>
        <time>2020-07-25T11:57:18Z</time>
      </trkpt>
      <trkpt lat="42.9175020" lon="0.2092750">
        <ele>1439.8</ele>
        <time>2020-07-25T11:57:23Z</time>
      </trkpt>
      <trkpt lat="42.9174300" lon="0.2093490">
        <ele>1440.4</ele>
        <time>2020-07-25T11:57:27Z</time>
      </trkpt>
      <trkpt lat="42.9173900" lon="0.2093880">
        <ele>1440.8</ele>
        <time>2020-07-25T11:57:29Z</time>
      </trkpt>
      <trkpt lat="42.9173520" lon="0.2094230">
        <ele>1441.4</ele>
        <time>2020-07-25T11:57:31Z</time>
      </trkpt>
      <trkpt lat="42.9172940" lon="0.2094700">
        <ele>1442.0</ele>
        <time>2020-07-25T11:57:34Z</time>
      </trkpt>
      <trkpt lat="42.9171620" lon="0.2095500">
        <ele>1442.8</ele>
        <time>2020-07-25T11:57:40Z</time>
      </trkpt>
      <trkpt lat="42.9171190" lon="0.2095590">
        <ele>1443.0</ele>
        <time>2020-07-25T11:57:42Z</time>
      </trkpt>
      <trkpt lat="42.9170730" lon="0.2095610">
        <ele>1443.2</ele>
        <time>2020-07-25T11:57:44Z</time>
      </trkpt>
      <trkpt lat="42.9170290" lon="0.2095310">
        <ele>1444.2</ele>
        <time>2020-07-25T11:57:47Z</time>
      </trkpt>
      <trkpt lat="42.9170180" lon="0.2095110">
        <ele>1444.4</ele>
        <time>2020-07-25T11:57:48Z</time>
      </trkpt>
      <trkpt lat="42.9170030" lon="0.2094130">
        <ele>1445.0</ele>
        <time>2020-07-25T11:57:52Z</time>
      </trkpt>
      <trkpt lat="42.9170140" lon="0.2093600">
        <ele>1445.4</ele>
        <time>2020-07-25T11:57:54Z</time>
      </trkpt>
      <trkpt lat="42.9170590" lon="0.2092390">
        <ele>1446.8</ele>
        <time>2020-07-25T11:57:59Z</time>
      </trkpt>
      <trkpt lat="42.9170720" lon="0.2092130">
        <ele>1447.0</ele>
        <time>2020-07-25T11:58:00Z</time>
      </trkpt>
      <trkpt lat="42.9171010" lon="0.2091640">
        <ele>1447.8</ele>
        <time>2020-07-25T11:58:02Z</time>
      </trkpt>
      <trkpt lat="42.9171580" lon="0.2090940">
        <ele>1448.6</ele>
        <time>2020-07-25T11:58:05Z</time>
      </trkpt>
      <trkpt lat="42.9171750" lon="0.2090680">
        <ele>1448.8</ele>
        <time>2020-07-25T11:58:06Z</time>
      </trkpt>
      <trkpt lat="42.9172140" lon="0.2090230">
        <ele>1449.4</ele>
        <time>2020-07-25T11:58:08Z</time>
      </trkpt>
      <trkpt lat="42.9172460" lon="0.2089790">
        <ele>1449.8</ele>
        <time>2020-07-25T11:58:10Z</time>
      </trkpt>
      <trkpt lat="42.9172630" lon="0.2089570">
        <ele>1450.0</ele>
        <time>2020-07-25T11:58:11Z</time>
      </trkpt>
      <trkpt lat="42.9173430" lon="0.2088600">
        <ele>1450.4</ele>
        <time>2020-07-25T11:58:16Z</time>
      </trkpt>
      <trkpt lat="42.9173830" lon="0.2088140">
        <ele>1451.0</ele>
        <time>2020-07-25T11:58:18Z</time>
      </trkpt>
      <trkpt lat="42.9174680" lon="0.2087330">
        <ele>1452.0</ele>
        <time>2020-07-25T11:58:22Z</time>
      </trkpt>
      <trkpt lat="42.9174880" lon="0.2087140">
        <ele>1452.2</ele>
        <time>2020-07-25T11:58:23Z</time>
      </trkpt>
      <trkpt lat="42.9175070" lon="0.2086950">
        <ele>1452.2</ele>
        <time>2020-07-25T11:58:24Z</time>
      </trkpt>
      <trkpt lat="42.9176110" lon="0.2085780">
        <ele>1453.6</ele>
        <time>2020-07-25T11:58:30Z</time>
      </trkpt>
      <trkpt lat="42.9176840" lon="0.2085020">
        <ele>1454.6</ele>
        <time>2020-07-25T11:58:34Z</time>
      </trkpt>
      <trkpt lat="42.9177590" lon="0.2084220">
        <ele>1455.2</ele>
        <time>2020-07-25T11:58:38Z</time>
      </trkpt>
      <trkpt lat="42.9178200" lon="0.2083590">
        <ele>1455.6</ele>
        <time>2020-07-25T11:58:40Z</time>
      </trkpt>
      <trkpt lat="42.9178200" lon="0.2083590">
        <ele>1455.8</ele>
        <time>2020-07-25T11:58:41Z</time>
      </trkpt>
      <trkpt lat="42.9178710" lon="0.2083000">
        <ele>1456.6</ele>
        <time>2020-07-25T11:58:44Z</time>
      </trkpt>
      <trkpt lat="42.9179540" lon="0.2082040">
        <ele>1457.8</ele>
        <time>2020-07-25T11:58:49Z</time>
      </trkpt>
      <trkpt lat="42.9179700" lon="0.2081840">
        <ele>1458.0</ele>
        <time>2020-07-25T11:58:50Z</time>
      </trkpt>
      <trkpt lat="42.9180510" lon="0.2080890">
        <ele>1459.0</ele>
        <time>2020-07-25T11:58:55Z</time>
      </trkpt>
      <trkpt lat="42.9180640" lon="0.2080700">
        <ele>1459.2</ele>
        <time>2020-07-25T11:58:56Z</time>
      </trkpt>
      <trkpt lat="42.9180930" lon="0.2080310">
        <ele>1459.4</ele>
        <time>2020-07-25T11:58:59Z</time>
      </trkpt>
      <trkpt lat="42.9181060" lon="0.2079930">
        <ele>1460.0</ele>
        <time>2020-07-25T11:59:02Z</time>
      </trkpt>
      <trkpt lat="42.9181520" lon="0.2079100">
        <ele>1461.0</ele>
        <time>2020-07-25T11:59:06Z</time>
      </trkpt>
      <trkpt lat="42.9181680" lon="0.2078910">
        <ele>1461.4</ele>
        <time>2020-07-25T11:59:07Z</time>
      </trkpt>
      <trkpt lat="42.9182330" lon="0.2077990">
        <ele>1462.4</ele>
        <time>2020-07-25T11:59:12Z</time>
      </trkpt>
      <trkpt lat="42.9183120" lon="0.2077250">
        <ele>1463.4</ele>
        <time>2020-07-25T11:59:16Z</time>
      </trkpt>
      <trkpt lat="42.9183530" lon="0.2077100">
        <ele>1463.6</ele>
        <time>2020-07-25T11:59:17Z</time>
      </trkpt>
      <trkpt lat="42.9184370" lon="0.2076110">
        <ele>1464.4</ele>
        <time>2020-07-25T11:59:23Z</time>
      </trkpt>
      <trkpt lat="42.9184700" lon="0.2075750">
        <ele>1464.6</ele>
        <time>2020-07-25T11:59:24Z</time>
      </trkpt>
      <trkpt lat="42.9184870" lon="0.2075570">
        <ele>1465.8</ele>
        <time>2020-07-25T11:59:26Z</time>
      </trkpt>
      <trkpt lat="42.9185160" lon="0.2075380">
        <ele>1466.2</ele>
        <time>2020-07-25T11:59:27Z</time>
      </trkpt>
      <trkpt lat="42.9185720" lon="0.2075010">
        <ele>1466.8</ele>
        <time>2020-07-25T11:59:29Z</time>
      </trkpt>
      <trkpt lat="42.9186250" lon="0.2074570">
        <ele>1467.0</ele>
        <time>2020-07-25T11:59:31Z</time>
      </trkpt>
      <trkpt lat="42.9186500" lon="0.2074330">
        <ele>1467.2</ele>
        <time>2020-07-25T11:59:32Z</time>
      </trkpt>
      <trkpt lat="42.9186690" lon="0.2074090">
        <ele>1467.2</ele>
        <time>2020-07-25T11:59:33Z</time>
      </trkpt>
      <trkpt lat="42.9187800" lon="0.2072960">
        <ele>1468.0</ele>
        <time>2020-07-25T11:59:38Z</time>
      </trkpt>
      <trkpt lat="42.9188200" lon="0.2072520">
        <ele>1468.4</ele>
        <time>2020-07-25T11:59:40Z</time>
      </trkpt>
      <trkpt lat="42.9188900" lon="0.2071590">
        <ele>1469.2</ele>
        <time>2020-07-25T11:59:44Z</time>
      </trkpt>
      <trkpt lat="42.9189610" lon="0.2070740">
        <ele>1470.2</ele>
        <time>2020-07-25T11:59:48Z</time>
      </trkpt>
      <trkpt lat="42.9189770" lon="0.2070520">
        <ele>1470.6</ele>
        <time>2020-07-25T11:59:49Z</time>
      </trkpt>
      <trkpt lat="42.9190340" lon="0.2069610">
        <ele>1471.4</ele>
        <time>2020-07-25T11:59:53Z</time>
      </trkpt>
      <trkpt lat="42.9191190" lon="0.2068470">
        <ele>1472.4</ele>
        <time>2020-07-25T11:59:58Z</time>
      </trkpt>
      <trkpt lat="42.9191340" lon="0.2068260">
        <ele>1472.8</ele>
        <time>2020-07-25T11:59:59Z</time>
      </trkpt>
      <trkpt lat="42.9191960" lon="0.2067400">
        <ele>1473.8</ele>
        <time>2020-07-25T12:00:03Z</time>
      </trkpt>
      <trkpt lat="42.9192440" lon="0.2066750">
        <ele>1474.6</ele>
        <time>2020-07-25T12:00:06Z</time>
      </trkpt>
      <trkpt lat="42.9192920" lon="0.2066110">
        <ele>1474.8</ele>
        <time>2020-07-25T12:00:09Z</time>
      </trkpt>
      <trkpt lat="42.9193890" lon="0.2065120">
        <ele>1476.0</ele>
        <time>2020-07-25T12:00:14Z</time>
      </trkpt>
      <trkpt lat="42.9194060" lon="0.2064900">
        <ele>1476.4</ele>
        <time>2020-07-25T12:00:15Z</time>
      </trkpt>
      <trkpt lat="42.9194620" lon="0.2064040">
        <ele>1477.2</ele>
        <time>2020-07-25T12:00:19Z</time>
      </trkpt>
      <trkpt lat="42.9195220" lon="0.2063170">
        <ele>1478.0</ele>
        <time>2020-07-25T12:00:23Z</time>
      </trkpt>
      <trkpt lat="42.9195370" lon="0.2062940">
        <ele>1478.2</ele>
        <time>2020-07-25T12:00:24Z</time>
      </trkpt>
      <trkpt lat="42.9196020" lon="0.2061720">
        <ele>1479.0</ele>
        <time>2020-07-25T12:00:30Z</time>
      </trkpt>
      <trkpt lat="42.9196340" lon="0.2061140">
        <ele>1479.4</ele>
        <time>2020-07-25T12:00:32Z</time>
      </trkpt>
      <trkpt lat="42.9197010" lon="0.2059940">
        <ele>1480.6</ele>
        <time>2020-07-25T12:00:37Z</time>
      </trkpt>
      <trkpt lat="42.9197410" lon="0.2059120">
        <ele>1481.4</ele>
        <time>2020-07-25T12:00:41Z</time>
      </trkpt>
      <trkpt lat="42.9197610" lon="0.2058610">
        <ele>1481.8</ele>
        <time>2020-07-25T12:00:43Z</time>
      </trkpt>
      <trkpt lat="42.9198420" lon="0.2057290">
        <ele>1483.0</ele>
        <time>2020-07-25T12:00:49Z</time>
      </trkpt>
      <trkpt lat="42.9198560" lon="0.2057070">
        <ele>1483.2</ele>
        <time>2020-07-25T12:00:50Z</time>
      </trkpt>
      <trkpt lat="42.9199030" lon="0.2056570">
        <ele>1484.0</ele>
        <time>2020-07-25T12:00:53Z</time>
      </trkpt>
      <trkpt lat="42.9199860" lon="0.2055810">
        <ele>1485.2</ele>
        <time>2020-07-25T12:00:58Z</time>
      </trkpt>
      <trkpt lat="42.9200040" lon="0.2055700">
        <ele>1485.4</ele>
        <time>2020-07-25T12:00:59Z</time>
      </trkpt>
      <trkpt lat="42.9200910" lon="0.2055430">
        <ele>1486.2</ele>
        <time>2020-07-25T12:01:02Z</time>
      </trkpt>
      <trkpt lat="42.9202110" lon="0.2054670">
        <ele>1487.0</ele>
        <time>2020-07-25T12:01:07Z</time>
      </trkpt>
      <trkpt lat="42.9202430" lon="0.2054300">
        <ele>1487.4</ele>
        <time>2020-07-25T12:01:09Z</time>
      </trkpt>
      <trkpt lat="42.9203260" lon="0.2053470">
        <ele>1488.2</ele>
        <time>2020-07-25T12:01:13Z</time>
      </trkpt>
      <trkpt lat="42.9203440" lon="0.2053220">
        <ele>1488.4</ele>
        <time>2020-07-25T12:01:14Z</time>
      </trkpt>
      <trkpt lat="42.9204130" lon="0.2052150">
        <ele>1489.4</ele>
        <time>2020-07-25T12:01:18Z</time>
      </trkpt>
      <trkpt lat="42.9204630" lon="0.2051310">
        <ele>1490.2</ele>
        <time>2020-07-25T12:01:21Z</time>
      </trkpt>
      <trkpt lat="42.9204810" lon="0.2051050">
        <ele>1490.4</ele>
        <time>2020-07-25T12:01:22Z</time>
      </trkpt>
      <trkpt lat="42.9205680" lon="0.2049870">
        <ele>1491.6</ele>
        <time>2020-07-25T12:01:27Z</time>
      </trkpt>
      <trkpt lat="42.9206110" lon="0.2049500">
        <ele>1492.0</ele>
        <time>2020-07-25T12:01:29Z</time>
      </trkpt>
      <trkpt lat="42.9206730" lon="0.2048590">
        <ele>1492.8</ele>
        <time>2020-07-25T12:01:33Z</time>
      </trkpt>
      <trkpt lat="42.9207190" lon="0.2047900">
        <ele>1493.4</ele>
        <time>2020-07-25T12:01:36Z</time>
      </trkpt>
      <trkpt lat="42.9207390" lon="0.2047670">
        <ele>1493.8</ele>
        <time>2020-07-25T12:01:37Z</time>
      </trkpt>
      <trkpt lat="42.9207810" lon="0.2046960">
        <ele>1494.8</ele>
        <time>2020-07-25T12:01:40Z</time>
      </trkpt>
      <trkpt lat="42.9207950" lon="0.2046730">
        <ele>1495.0</ele>
        <time>2020-07-25T12:01:41Z</time>
      </trkpt>
      <trkpt lat="42.9208390" lon="0.2046350">
        <ele>1495.4</ele>
        <time>2020-07-25T12:01:43Z</time>
      </trkpt>
      <trkpt lat="42.9208950" lon="0.2045650">
        <ele>1496.0</ele>
        <time>2020-07-25T12:01:48Z</time>
      </trkpt>
      <trkpt lat="42.9209230" lon="0.2045220">
        <ele>1496.2</ele>
        <time>2020-07-25T12:01:50Z</time>
      </trkpt>
      <trkpt lat="42.9209430" lon="0.2044960">
        <ele>1496.2</ele>
        <time>2020-07-25T12:01:51Z</time>
      </trkpt>
      <trkpt lat="42.9210380" lon="0.2043570">
        <ele>1497.2</ele>
        <time>2020-07-25T12:01:56Z</time>
      </trkpt>
      <trkpt lat="42.9210640" lon="0.2043010">
        <ele>1497.6</ele>
        <time>2020-07-25T12:01:58Z</time>
      </trkpt>
      <trkpt lat="42.9210760" lon="0.2042740">
        <ele>1498.0</ele>
        <time>2020-07-25T12:01:59Z</time>
      </trkpt>
      <trkpt lat="42.9210990" lon="0.2042280">
        <ele>1498.4</ele>
        <time>2020-07-25T12:02:01Z</time>
      </trkpt>
      <trkpt lat="42.9211590" lon="0.2041130">
        <ele>1499.2</ele>
        <time>2020-07-25T12:02:06Z</time>
      </trkpt>
      <trkpt lat="42.9212020" lon="0.2040690">
        <ele>1499.6</ele>
        <time>2020-07-25T12:02:08Z</time>
      </trkpt>
      <trkpt lat="42.9212560" lon="0.2040110">
        <ele>1500.6</ele>
        <time>2020-07-25T12:02:11Z</time>
      </trkpt>
      <trkpt lat="42.9212970" lon="0.2039500">
        <ele>1501.0</ele>
        <time>2020-07-25T12:02:14Z</time>
      </trkpt>
      <trkpt lat="42.9213570" lon="0.2038550">
        <ele>1501.8</ele>
        <time>2020-07-25T12:02:18Z</time>
      </trkpt>
      <trkpt lat="42.9213990" lon="0.2037560">
        <ele>1502.8</ele>
        <time>2020-07-25T12:02:22Z</time>
      </trkpt>
      <trkpt lat="42.9214140" lon="0.2037340">
        <ele>1503.0</ele>
        <time>2020-07-25T12:02:23Z</time>
      </trkpt>
      <trkpt lat="42.9214700" lon="0.2036370">
        <ele>1504.2</ele>
        <time>2020-07-25T12:02:27Z</time>
      </trkpt>
      <trkpt lat="42.9215460" lon="0.2035390">
        <ele>1504.8</ele>
        <time>2020-07-25T12:02:31Z</time>
      </trkpt>
      <trkpt lat="42.9215950" lon="0.2034640">
        <ele>1505.2</ele>
        <time>2020-07-25T12:02:34Z</time>
      </trkpt>
      <trkpt lat="42.9216780" lon="0.2033350">
        <ele>1506.4</ele>
        <time>2020-07-25T12:02:39Z</time>
      </trkpt>
      <trkpt lat="42.9217500" lon="0.2031790">
        <ele>1507.2</ele>
        <time>2020-07-25T12:02:45Z</time>
      </trkpt>
      <trkpt lat="42.9217630" lon="0.2031560">
        <ele>1507.2</ele>
        <time>2020-07-25T12:02:46Z</time>
      </trkpt>
      <trkpt lat="42.9217730" lon="0.2031290">
        <ele>1507.4</ele>
        <time>2020-07-25T12:02:47Z</time>
      </trkpt>
      <trkpt lat="42.9218300" lon="0.2030030">
        <ele>1508.2</ele>
        <time>2020-07-25T12:02:53Z</time>
      </trkpt>
      <trkpt lat="42.9218530" lon="0.2029470">
        <ele>1508.4</ele>
        <time>2020-07-25T12:02:55Z</time>
      </trkpt>
      <trkpt lat="42.9218950" lon="0.2028000">
        <ele>1509.8</ele>
        <time>2020-07-25T12:03:00Z</time>
      </trkpt>
      <trkpt lat="42.9219280" lon="0.2026900">
        <ele>1511.0</ele>
        <time>2020-07-25T12:03:04Z</time>
      </trkpt>
      <trkpt lat="42.9219850" lon="0.2025900">
        <ele>1511.6</ele>
        <time>2020-07-25T12:03:08Z</time>
      </trkpt>
      <trkpt lat="42.9220050" lon="0.2025040">
        <ele>1512.0</ele>
        <time>2020-07-25T12:03:11Z</time>
      </trkpt>
      <trkpt lat="42.9220390" lon="0.2023860">
        <ele>1513.0</ele>
        <time>2020-07-25T12:03:15Z</time>
      </trkpt>
      <trkpt lat="42.9220520" lon="0.2023570">
        <ele>1513.2</ele>
        <time>2020-07-25T12:03:16Z</time>
      </trkpt>
      <trkpt lat="42.9220900" lon="0.2022320">
        <ele>1514.0</ele>
        <time>2020-07-25T12:03:20Z</time>
      </trkpt>
      <trkpt lat="42.9221170" lon="0.2021740">
        <ele>1514.2</ele>
        <time>2020-07-25T12:03:22Z</time>
      </trkpt>
      <trkpt lat="42.9221260" lon="0.2021420">
        <ele>1514.4</ele>
        <time>2020-07-25T12:03:23Z</time>
      </trkpt>
      <trkpt lat="42.9221620" lon="0.2020520">
        <ele>1515.0</ele>
        <time>2020-07-25T12:03:26Z</time>
      </trkpt>
      <trkpt lat="42.9221740" lon="0.2020240">
        <ele>1515.0</ele>
        <time>2020-07-25T12:03:27Z</time>
      </trkpt>
      <trkpt lat="42.9221850" lon="0.2019960">
        <ele>1515.4</ele>
        <time>2020-07-25T12:03:28Z</time>
      </trkpt>
      <trkpt lat="42.9222240" lon="0.2019160">
        <ele>1516.2</ele>
        <time>2020-07-25T12:03:31Z</time>
      </trkpt>
      <trkpt lat="42.9222260" lon="0.2018850">
        <ele>1516.6</ele>
        <time>2020-07-25T12:03:32Z</time>
      </trkpt>
      <trkpt lat="42.9222560" lon="0.2018020">
        <ele>1517.8</ele>
        <time>2020-07-25T12:03:35Z</time>
      </trkpt>
      <trkpt lat="42.9222840" lon="0.2017180">
        <ele>1518.4</ele>
        <time>2020-07-25T12:03:38Z</time>
      </trkpt>
      <trkpt lat="42.9223110" lon="0.2016330">
        <ele>1518.8</ele>
        <time>2020-07-25T12:03:41Z</time>
      </trkpt>
      <trkpt lat="42.9223490" lon="0.2014570">
        <ele>1520.2</ele>
        <time>2020-07-25T12:03:47Z</time>
      </trkpt>
      <trkpt lat="42.9223490" lon="0.2014260">
        <ele>1520.4</ele>
        <time>2020-07-25T12:03:48Z</time>
      </trkpt>
      <trkpt lat="42.9223810" lon="0.2013160">
        <ele>1521.2</ele>
        <time>2020-07-25T12:03:52Z</time>
      </trkpt>
      <trkpt lat="42.9224010" lon="0.2012350">
        <ele>1522.2</ele>
        <time>2020-07-25T12:03:55Z</time>
      </trkpt>
      <trkpt lat="42.9224200" lon="0.2011830">
        <ele>1522.4</ele>
        <time>2020-07-25T12:03:57Z</time>
      </trkpt>
      <trkpt lat="42.9224650" lon="0.2010050">
        <ele>1523.2</ele>
        <time>2020-07-25T12:04:03Z</time>
      </trkpt>
      <trkpt lat="42.9224700" lon="0.2009740">
        <ele>1523.2</ele>
        <time>2020-07-25T12:04:04Z</time>
      </trkpt>
      <trkpt lat="42.9224790" lon="0.2009110">
        <ele>1523.8</ele>
        <time>2020-07-25T12:04:06Z</time>
      </trkpt>
      <trkpt lat="42.9224760" lon="0.2008780">
        <ele>1524.4</ele>
        <time>2020-07-25T12:04:07Z</time>
      </trkpt>
      <trkpt lat="42.9224710" lon="0.2007880">
        <ele>1525.0</ele>
        <time>2020-07-25T12:04:10Z</time>
      </trkpt>
      <trkpt lat="42.9224680" lon="0.2006780">
        <ele>1525.4</ele>
        <time>2020-07-25T12:04:14Z</time>
      </trkpt>
      <trkpt lat="42.9224610" lon="0.2006530">
        <ele>1525.6</ele>
        <time>2020-07-25T12:04:15Z</time>
      </trkpt>
      <trkpt lat="42.9224270" lon="0.2005160">
        <ele>1526.6</ele>
        <time>2020-07-25T12:04:20Z</time>
      </trkpt>
      <trkpt lat="42.9224040" lon="0.2004200">
        <ele>1527.4</ele>
        <time>2020-07-25T12:04:23Z</time>
      </trkpt>
      <trkpt lat="42.9223920" lon="0.2003880">
        <ele>1527.6</ele>
        <time>2020-07-25T12:04:24Z</time>
      </trkpt>
      <trkpt lat="42.9223690" lon="0.2003330">
        <ele>1527.6</ele>
        <time>2020-07-25T12:04:26Z</time>
      </trkpt>
      <trkpt lat="42.9223560" lon="0.2002810">
        <ele>1527.8</ele>
        <time>2020-07-25T12:04:27Z</time>
      </trkpt>
      <trkpt lat="42.9223270" lon="0.2002040">
        <ele>1528.4</ele>
        <time>2020-07-25T12:04:31Z</time>
      </trkpt>
      <trkpt lat="42.9223040" lon="0.2001410">
        <ele>1528.8</ele>
        <time>2020-07-25T12:04:33Z</time>
      </trkpt>
      <trkpt lat="42.9222480" lon="0.2000150">
        <ele>1530.0</ele>
        <time>2020-07-25T12:04:37Z</time>
      </trkpt>
      <trkpt lat="42.9222370" lon="0.1999820">
        <ele>1530.2</ele>
        <time>2020-07-25T12:04:38Z</time>
      </trkpt>
      <trkpt lat="42.9221970" lon="0.1998910">
        <ele>1531.0</ele>
        <time>2020-07-25T12:04:41Z</time>
      </trkpt>
      <trkpt lat="42.9221430" lon="0.1997480">
        <ele>1531.8</ele>
        <time>2020-07-25T12:04:46Z</time>
      </trkpt>
      <trkpt lat="42.9221340" lon="0.1997170">
        <ele>1532.0</ele>
        <time>2020-07-25T12:04:47Z</time>
      </trkpt>
      <trkpt lat="42.9220980" lon="0.1996050">
        <ele>1533.0</ele>
        <time>2020-07-25T12:04:51Z</time>
      </trkpt>
      <trkpt lat="42.9220690" lon="0.1995280">
        <ele>1533.6</ele>
        <time>2020-07-25T12:04:54Z</time>
      </trkpt>
      <trkpt lat="42.9220360" lon="0.1994560">
        <ele>1534.4</ele>
        <time>2020-07-25T12:04:57Z</time>
      </trkpt>
      <trkpt lat="42.9220130" lon="0.1993930">
        <ele>1534.8</ele>
        <time>2020-07-25T12:05:00Z</time>
      </trkpt>
      <trkpt lat="42.9220090" lon="0.1993800">
        <ele>1534.8</ele>
        <time>2020-07-25T12:05:01Z</time>
      </trkpt>
      <trkpt lat="42.9219790" lon="0.1992940">
        <ele>1535.4</ele>
        <time>2020-07-25T12:05:05Z</time>
      </trkpt>
      <trkpt lat="42.9219630" lon="0.1992400">
        <ele>1535.8</ele>
        <time>2020-07-25T12:05:07Z</time>
      </trkpt>
      <trkpt lat="42.9219410" lon="0.1991560">
        <ele>1536.6</ele>
        <time>2020-07-25T12:05:10Z</time>
      </trkpt>
      <trkpt lat="42.9219090" lon="0.1990470">
        <ele>1537.8</ele>
        <time>2020-07-25T12:05:14Z</time>
      </trkpt>
      <trkpt lat="42.9218990" lon="0.1990180">
        <ele>1538.0</ele>
        <time>2020-07-25T12:05:15Z</time>
      </trkpt>
      <trkpt lat="42.9218440" lon="0.1988630">
        <ele>1539.0</ele>
        <time>2020-07-25T12:05:20Z</time>
      </trkpt>
      <trkpt lat="42.9217990" lon="0.1987580">
        <ele>1539.8</ele>
        <time>2020-07-25T12:05:24Z</time>
      </trkpt>
      <trkpt lat="42.9217870" lon="0.1987350">
        <ele>1540.0</ele>
        <time>2020-07-25T12:05:25Z</time>
      </trkpt>
      <trkpt lat="42.9217030" lon="0.1985950">
        <ele>1541.2</ele>
        <time>2020-07-25T12:05:31Z</time>
      </trkpt>
      <trkpt lat="42.9216810" lon="0.1985450">
        <ele>1541.4</ele>
        <time>2020-07-25T12:05:33Z</time>
      </trkpt>
      <trkpt lat="42.9216300" lon="0.1984470">
        <ele>1542.2</ele>
        <time>2020-07-25T12:05:37Z</time>
      </trkpt>
      <trkpt lat="42.9215790" lon="0.1983560">
        <ele>1543.6</ele>
        <time>2020-07-25T12:05:41Z</time>
      </trkpt>
      <trkpt lat="42.9215660" lon="0.1983340">
        <ele>1543.6</ele>
        <time>2020-07-25T12:05:42Z</time>
      </trkpt>
      <trkpt lat="42.9214960" lon="0.1981860">
        <ele>1544.6</ele>
        <time>2020-07-25T12:05:48Z</time>
      </trkpt>
      <trkpt lat="42.9214840" lon="0.1981590">
        <ele>1544.8</ele>
        <time>2020-07-25T12:05:49Z</time>
      </trkpt>
      <trkpt lat="42.9214280" lon="0.1980590">
        <ele>1545.6</ele>
        <time>2020-07-25T12:05:53Z</time>
      </trkpt>
      <trkpt lat="42.9213990" lon="0.1980080">
        <ele>1546.0</ele>
        <time>2020-07-25T12:05:55Z</time>
      </trkpt>
      <trkpt lat="42.9213720" lon="0.1979580">
        <ele>1546.4</ele>
        <time>2020-07-25T12:05:57Z</time>
      </trkpt>
      <trkpt lat="42.9213620" lon="0.1979330">
        <ele>1546.6</ele>
        <time>2020-07-25T12:05:58Z</time>
      </trkpt>
      <trkpt lat="42.9213530" lon="0.1979060">
        <ele>1546.8</ele>
        <time>2020-07-25T12:05:59Z</time>
      </trkpt>
      <trkpt lat="42.9213080" lon="0.1978030">
        <ele>1547.8</ele>
        <time>2020-07-25T12:06:03Z</time>
      </trkpt>
      <trkpt lat="42.9212960" lon="0.1977770">
        <ele>1548.2</ele>
        <time>2020-07-25T12:06:04Z</time>
      </trkpt>
      <trkpt lat="42.9212550" lon="0.1977120">
        <ele>1548.8</ele>
        <time>2020-07-25T12:06:07Z</time>
      </trkpt>
      <trkpt lat="42.9212220" lon="0.1976460">
        <ele>1549.4</ele>
        <time>2020-07-25T12:06:10Z</time>
      </trkpt>
      <trkpt lat="42.9211910" lon="0.1975780">
        <ele>1549.8</ele>
        <time>2020-07-25T12:06:13Z</time>
      </trkpt>
      <trkpt lat="42.9211780" lon="0.1975530">
        <ele>1550.0</ele>
        <time>2020-07-25T12:06:14Z</time>
      </trkpt>
      <trkpt lat="42.9211180" lon="0.1974250">
        <ele>1551.0</ele>
        <time>2020-07-25T12:06:19Z</time>
      </trkpt>
      <trkpt lat="42.9211100" lon="0.1973980">
        <ele>1551.2</ele>
        <time>2020-07-25T12:06:20Z</time>
      </trkpt>
      <trkpt lat="42.9210910" lon="0.1973420">
        <ele>1551.8</ele>
        <time>2020-07-25T12:06:22Z</time>
      </trkpt>
      <trkpt lat="42.9210710" lon="0.1972910">
        <ele>1552.4</ele>
        <time>2020-07-25T12:06:24Z</time>
      </trkpt>
      <trkpt lat="42.9210260" lon="0.1971910">
        <ele>1553.2</ele>
        <time>2020-07-25T12:06:28Z</time>
      </trkpt>
      <trkpt lat="42.9210170" lon="0.1971660">
        <ele>1553.4</ele>
        <time>2020-07-25T12:06:29Z</time>
      </trkpt>
      <trkpt lat="42.9209590" lon="0.1970550">
        <ele>1554.4</ele>
        <time>2020-07-25T12:06:34Z</time>
      </trkpt>
      <trkpt lat="42.9209360" lon="0.1970130">
        <ele>1555.2</ele>
        <time>2020-07-25T12:06:36Z</time>
      </trkpt>
      <trkpt lat="42.9209170" lon="0.1969710">
        <ele>1555.4</ele>
        <time>2020-07-25T12:06:38Z</time>
      </trkpt>
      <trkpt lat="42.9208490" lon="0.1968390">
        <ele>1556.2</ele>
        <time>2020-07-25T12:06:44Z</time>
      </trkpt>
      <trkpt lat="42.9208390" lon="0.1968200">
        <ele>1556.6</ele>
        <time>2020-07-25T12:06:45Z</time>
      </trkpt>
      <trkpt lat="42.9207980" lon="0.1967210">
        <ele>1557.6</ele>
        <time>2020-07-25T12:06:49Z</time>
      </trkpt>
      <trkpt lat="42.9207730" lon="0.1966420">
        <ele>1558.4</ele>
        <time>2020-07-25T12:06:52Z</time>
      </trkpt>
      <trkpt lat="42.9207640" lon="0.1966170">
        <ele>1558.8</ele>
        <time>2020-07-25T12:06:53Z</time>
      </trkpt>
      <trkpt lat="42.9207260" lon="0.1965500">
        <ele>1559.2</ele>
        <time>2020-07-25T12:06:56Z</time>
      </trkpt>
      <trkpt lat="42.9207050" lon="0.1964690">
        <ele>1559.8</ele>
        <time>2020-07-25T12:06:59Z</time>
      </trkpt>
      <trkpt lat="42.9206610" lon="0.1963360">
        <ele>1561.0</ele>
        <time>2020-07-25T12:07:04Z</time>
      </trkpt>
      <trkpt lat="42.9206320" lon="0.1962530">
        <ele>1561.4</ele>
        <time>2020-07-25T12:07:07Z</time>
      </trkpt>
      <trkpt lat="42.9206110" lon="0.1961820">
        <ele>1562.0</ele>
        <time>2020-07-25T12:07:10Z</time>
      </trkpt>
      <trkpt lat="42.9205710" lon="0.1960560">
        <ele>1563.2</ele>
        <time>2020-07-25T12:07:15Z</time>
      </trkpt>
      <trkpt lat="42.9205260" lon="0.1959140">
        <ele>1564.4</ele>
        <time>2020-07-25T12:07:21Z</time>
      </trkpt>
      <trkpt lat="42.9205060" lon="0.1958450">
        <ele>1565.0</ele>
        <time>2020-07-25T12:07:24Z</time>
      </trkpt>
      <trkpt lat="42.9204970" lon="0.1958230">
        <ele>1565.4</ele>
        <time>2020-07-25T12:07:25Z</time>
      </trkpt>
      <trkpt lat="42.9204450" lon="0.1956900">
        <ele>1566.2</ele>
        <time>2020-07-25T12:07:30Z</time>
      </trkpt>
      <trkpt lat="42.9204420" lon="0.1956330">
        <ele>1566.4</ele>
        <time>2020-07-25T12:07:32Z</time>
      </trkpt>
      <trkpt lat="42.9203640" lon="0.1954940">
        <ele>1567.6</ele>
        <time>2020-07-25T12:08:37Z</time>
      </trkpt>
      <trkpt lat="42.9203560" lon="0.1954750">
        <ele>1567.8</ele>
        <time>2020-07-25T12:08:38Z</time>
      </trkpt>
      <trkpt lat="42.9203240" lon="0.1953650">
        <ele>1568.6</ele>
        <time>2020-07-25T12:08:42Z</time>
      </trkpt>
      <trkpt lat="42.9203130" lon="0.1953360">
        <ele>1568.8</ele>
        <time>2020-07-25T12:08:43Z</time>
      </trkpt>
      <trkpt lat="42.9203010" lon="0.1952730">
        <ele>1569.2</ele>
        <time>2020-07-25T12:08:45Z</time>
      </trkpt>
      <trkpt lat="42.9202710" lon="0.1951840">
        <ele>1570.0</ele>
        <time>2020-07-25T12:08:48Z</time>
      </trkpt>
      <trkpt lat="42.9202590" lon="0.1951550">
        <ele>1570.4</ele>
        <time>2020-07-25T12:08:49Z</time>
      </trkpt>
      <trkpt lat="42.9202450" lon="0.1951300">
        <ele>1570.6</ele>
        <time>2020-07-25T12:08:50Z</time>
      </trkpt>
      <trkpt lat="42.9202320" lon="0.1951060">
        <ele>1570.8</ele>
        <time>2020-07-25T12:08:51Z</time>
      </trkpt>
      <trkpt lat="42.9202200" lon="0.1950800">
        <ele>1571.2</ele>
        <time>2020-07-25T12:08:52Z</time>
      </trkpt>
      <trkpt lat="42.9202070" lon="0.1950530">
        <ele>1571.4</ele>
        <time>2020-07-25T12:08:53Z</time>
      </trkpt>
      <trkpt lat="42.9201970" lon="0.1950190">
        <ele>1571.8</ele>
        <time>2020-07-25T12:08:54Z</time>
      </trkpt>
      <trkpt lat="42.9201720" lon="0.1949560">
        <ele>1572.4</ele>
        <time>2020-07-25T12:08:56Z</time>
      </trkpt>
      <trkpt lat="42.9201360" lon="0.1948680">
        <ele>1573.2</ele>
        <time>2020-07-25T12:08:59Z</time>
      </trkpt>
      <trkpt lat="42.9201220" lon="0.1948410">
        <ele>1573.6</ele>
        <time>2020-07-25T12:09:00Z</time>
      </trkpt>
      <trkpt lat="42.9200880" lon="0.1946810">
        <ele>1574.6</ele>
        <time>2020-07-25T12:09:05Z</time>
      </trkpt>
      <trkpt lat="42.9200650" lon="0.1945760">
        <ele>1575.0</ele>
        <time>2020-07-25T12:09:07Z</time>
      </trkpt>
      <trkpt lat="42.9200490" lon="0.1945170">
        <ele>1575.6</ele>
        <time>2020-07-25T12:09:10Z</time>
      </trkpt>
      <trkpt lat="42.9200240" lon="0.1944360">
        <ele>1576.6</ele>
        <time>2020-07-25T12:09:13Z</time>
      </trkpt>
      <trkpt lat="42.9199950" lon="0.1943630">
        <ele>1577.6</ele>
        <time>2020-07-25T12:09:16Z</time>
      </trkpt>
      <trkpt lat="42.9199860" lon="0.1943350">
        <ele>1577.8</ele>
        <time>2020-07-25T12:09:17Z</time>
      </trkpt>
      <trkpt lat="42.9199370" lon="0.1941620">
        <ele>1579.0</ele>
        <time>2020-07-25T12:09:23Z</time>
      </trkpt>
      <trkpt lat="42.9199230" lon="0.1941340">
        <ele>1579.2</ele>
        <time>2020-07-25T12:09:24Z</time>
      </trkpt>
      <trkpt lat="42.9199170" lon="0.1940810">
        <ele>1579.6</ele>
        <time>2020-07-25T12:09:26Z</time>
      </trkpt>
      <trkpt lat="42.9199050" lon="0.1940650">
        <ele>1579.6</ele>
        <time>2020-07-25T12:09:27Z</time>
      </trkpt>
      <trkpt lat="42.9198580" lon="0.1939660">
        <ele>1580.2</ele>
        <time>2020-07-25T12:10:06Z</time>
      </trkpt>
      <trkpt lat="42.9198440" lon="0.1939150">
        <ele>1580.8</ele>
        <time>2020-07-25T12:10:08Z</time>
      </trkpt>
      <trkpt lat="42.9198320" lon="0.1938440">
        <ele>1581.4</ele>
        <time>2020-07-25T12:10:10Z</time>
      </trkpt>
      <trkpt lat="42.9198140" lon="0.1937170">
        <ele>1582.2</ele>
        <time>2020-07-25T12:10:13Z</time>
      </trkpt>
      <trkpt lat="42.9198130" lon="0.1936710">
        <ele>1582.4</ele>
        <time>2020-07-25T12:10:14Z</time>
      </trkpt>
      <trkpt lat="42.9198010" lon="0.1935090">
        <ele>1583.8</ele>
        <time>2020-07-25T12:10:18Z</time>
      </trkpt>
      <trkpt lat="42.9198010" lon="0.1933950">
        <ele>1584.8</ele>
        <time>2020-07-25T12:10:21Z</time>
      </trkpt>
      <trkpt lat="42.9198040" lon="0.1933570">
        <ele>1585.0</ele>
        <time>2020-07-25T12:10:22Z</time>
      </trkpt>
      <trkpt lat="42.9198080" lon="0.1932230">
        <ele>1586.0</ele>
        <time>2020-07-25T12:10:26Z</time>
      </trkpt>
      <trkpt lat="42.9198020" lon="0.1931240">
        <ele>1586.8</ele>
        <time>2020-07-25T12:10:29Z</time>
      </trkpt>
      <trkpt lat="42.9197980" lon="0.1930930">
        <ele>1587.2</ele>
        <time>2020-07-25T12:10:30Z</time>
      </trkpt>
      <trkpt lat="42.9197910" lon="0.1929320">
        <ele>1588.4</ele>
        <time>2020-07-25T12:10:35Z</time>
      </trkpt>
      <trkpt lat="42.9197840" lon="0.1928700">
        <ele>1588.6</ele>
        <time>2020-07-25T12:10:37Z</time>
      </trkpt>
      <trkpt lat="42.9197720" lon="0.1927760">
        <ele>1589.6</ele>
        <time>2020-07-25T12:10:41Z</time>
      </trkpt>
      <trkpt lat="42.9197720" lon="0.1927480">
        <ele>1589.8</ele>
        <time>2020-07-25T12:10:42Z</time>
      </trkpt>
      <trkpt lat="42.9197730" lon="0.1927190">
        <ele>1590.0</ele>
        <time>2020-07-25T12:10:43Z</time>
      </trkpt>
      <trkpt lat="42.9197720" lon="0.1925860">
        <ele>1590.8</ele>
        <time>2020-07-25T12:10:47Z</time>
      </trkpt>
      <trkpt lat="42.9197710" lon="0.1924840">
        <ele>1591.8</ele>
        <time>2020-07-25T12:10:50Z</time>
      </trkpt>
      <trkpt lat="42.9197580" lon="0.1923580">
        <ele>1593.0</ele>
        <time>2020-07-25T12:10:54Z</time>
      </trkpt>
      <trkpt lat="42.9197580" lon="0.1922480">
        <ele>1593.8</ele>
        <time>2020-07-25T12:10:58Z</time>
      </trkpt>
      <trkpt lat="42.9197830" lon="0.1921990">
        <ele>1594.2</ele>
        <time>2020-07-25T12:11:00Z</time>
      </trkpt>
      <trkpt lat="42.9198400" lon="0.1921000">
        <ele>1594.8</ele>
        <time>2020-07-25T12:11:04Z</time>
      </trkpt>
      <trkpt lat="42.9198550" lon="0.1920150">
        <ele>1595.2</ele>
        <time>2020-07-25T12:11:07Z</time>
      </trkpt>
      <trkpt lat="42.9197010" lon="0.1921740">
        <ele>1594.0</ele>
        <time>2020-07-25T12:13:00Z</time>
      </trkpt>
      <trkpt lat="42.9196990" lon="0.1921530">
        <ele>1594.0</ele>
        <time>2020-07-25T12:13:01Z</time>
      </trkpt>
      <trkpt lat="42.9196890" lon="0.1920350">
        <ele>1594.6</ele>
        <time>2020-07-25T12:13:05Z</time>
      </trkpt>
      <trkpt lat="42.9196730" lon="0.1919380">
        <ele>1595.2</ele>
        <time>2020-07-25T12:13:08Z</time>
      </trkpt>
      <trkpt lat="42.9196540" lon="0.1918180">
        <ele>1596.4</ele>
        <time>2020-07-25T12:13:12Z</time>
      </trkpt>
      <trkpt lat="42.9196300" lon="0.1917280">
        <ele>1597.0</ele>
        <time>2020-07-25T12:13:15Z</time>
      </trkpt>
      <trkpt lat="42.9196160" lon="0.1916680">
        <ele>1597.6</ele>
        <time>2020-07-25T12:13:17Z</time>
      </trkpt>
      <trkpt lat="42.9195890" lon="0.1915450">
        <ele>1598.8</ele>
        <time>2020-07-25T12:13:21Z</time>
      </trkpt>
      <trkpt lat="42.9195600" lon="0.1914350">
        <ele>1599.4</ele>
        <time>2020-07-25T12:13:25Z</time>
      </trkpt>
      <trkpt lat="42.9195360" lon="0.1913830">
        <ele>1599.8</ele>
        <time>2020-07-25T12:13:27Z</time>
      </trkpt>
      <trkpt lat="42.9194910" lon="0.1912770">
        <ele>1600.8</ele>
        <time>2020-07-25T12:13:31Z</time>
      </trkpt>
      <trkpt lat="42.9194650" lon="0.1912270">
        <ele>1601.4</ele>
        <time>2020-07-25T12:13:33Z</time>
      </trkpt>
      <trkpt lat="42.9194390" lon="0.1911750">
        <ele>1601.8</ele>
        <time>2020-07-25T12:13:35Z</time>
      </trkpt>
      <trkpt lat="42.9194240" lon="0.1911500">
        <ele>1602.0</ele>
        <time>2020-07-25T12:13:36Z</time>
      </trkpt>
      <trkpt lat="42.9193360" lon="0.1910030">
        <ele>1603.2</ele>
        <time>2020-07-25T12:13:42Z</time>
      </trkpt>
      <trkpt lat="42.9193200" lon="0.1909800">
        <ele>1603.4</ele>
        <time>2020-07-25T12:13:43Z</time>
      </trkpt>
      <trkpt lat="42.9193030" lon="0.1909600">
        <ele>1603.6</ele>
        <time>2020-07-25T12:13:44Z</time>
      </trkpt>
      <trkpt lat="42.9192650" lon="0.1909220">
        <ele>1604.0</ele>
        <time>2020-07-25T12:13:46Z</time>
      </trkpt>
      <trkpt lat="42.9192260" lon="0.1908770">
        <ele>1604.4</ele>
        <time>2020-07-25T12:13:48Z</time>
      </trkpt>
      <trkpt lat="42.9192060" lon="0.1908580">
        <ele>1604.8</ele>
        <time>2020-07-25T12:13:49Z</time>
      </trkpt>
      <trkpt lat="42.9191420" lon="0.1908060">
        <ele>1605.4</ele>
        <time>2020-07-25T12:13:52Z</time>
      </trkpt>
      <trkpt lat="42.9191210" lon="0.1907880">
        <ele>1605.4</ele>
        <time>2020-07-25T12:13:53Z</time>
      </trkpt>
      <trkpt lat="42.9190560" lon="0.1907390">
        <ele>1606.2</ele>
        <time>2020-07-25T12:13:56Z</time>
      </trkpt>
      <trkpt lat="42.9190360" lon="0.1907200">
        <ele>1606.4</ele>
        <time>2020-07-25T12:13:57Z</time>
      </trkpt>
      <trkpt lat="42.9190170" lon="0.1907020">
        <ele>1606.6</ele>
        <time>2020-07-25T12:13:58Z</time>
      </trkpt>
      <trkpt lat="42.9189980" lon="0.1906840">
        <ele>1606.8</ele>
        <time>2020-07-25T12:13:59Z</time>
      </trkpt>
      <trkpt lat="42.9189360" lon="0.1906310">
        <ele>1607.6</ele>
        <time>2020-07-25T12:14:02Z</time>
      </trkpt>
      <trkpt lat="42.9188240" lon="0.1905310">
        <ele>1608.8</ele>
        <time>2020-07-25T12:14:08Z</time>
      </trkpt>
      <trkpt lat="42.9187310" lon="0.1904340">
        <ele>1609.8</ele>
        <time>2020-07-25T12:14:14Z</time>
      </trkpt>
      <trkpt lat="42.9187020" lon="0.1903990">
        <ele>1610.4</ele>
        <time>2020-07-25T12:14:16Z</time>
      </trkpt>
      <trkpt lat="42.9186210" lon="0.1903290">
        <ele>1610.8</ele>
        <time>2020-07-25T12:14:21Z</time>
      </trkpt>
      <trkpt lat="42.9185930" lon="0.1902980">
        <ele>1611.2</ele>
        <time>2020-07-25T12:14:23Z</time>
      </trkpt>
      <trkpt lat="42.9185520" lon="0.1902540">
        <ele>1611.8</ele>
        <time>2020-07-25T12:14:26Z</time>
      </trkpt>
      <trkpt lat="42.9184720" lon="0.1901880">
        <ele>1612.8</ele>
        <time>2020-07-25T12:14:31Z</time>
      </trkpt>
      <trkpt lat="42.9184550" lon="0.1901760">
        <ele>1613.0</ele>
        <time>2020-07-25T12:14:32Z</time>
      </trkpt>
      <trkpt lat="42.9183580" lon="0.1900830">
        <ele>1614.0</ele>
        <time>2020-07-25T12:14:38Z</time>
      </trkpt>
      <trkpt lat="42.9183420" lon="0.1900680">
        <ele>1614.2</ele>
        <time>2020-07-25T12:14:39Z</time>
      </trkpt>
      <trkpt lat="42.9183070" lon="0.1900370">
        <ele>1614.6</ele>
        <time>2020-07-25T12:14:41Z</time>
      </trkpt>
      <trkpt lat="42.9182580" lon="0.1899800">
        <ele>1615.4</ele>
        <time>2020-07-25T12:14:44Z</time>
      </trkpt>
      <trkpt lat="42.9181900" lon="0.1899060">
        <ele>1616.2</ele>
        <time>2020-07-25T12:14:48Z</time>
      </trkpt>
      <trkpt lat="42.9181720" lon="0.1898900">
        <ele>1616.2</ele>
        <time>2020-07-25T12:14:49Z</time>
      </trkpt>
      <trkpt lat="42.9181530" lon="0.1898740">
        <ele>1616.4</ele>
        <time>2020-07-25T12:14:50Z</time>
      </trkpt>
      <trkpt lat="42.9181370" lon="0.1898570">
        <ele>1616.6</ele>
        <time>2020-07-25T12:14:51Z</time>
      </trkpt>
      <trkpt lat="42.9180920" lon="0.1898010">
        <ele>1617.0</ele>
        <time>2020-07-25T12:14:54Z</time>
      </trkpt>
      <trkpt lat="42.9180620" lon="0.1897640">
        <ele>1617.6</ele>
        <time>2020-07-25T12:14:56Z</time>
      </trkpt>
      <trkpt lat="42.9179850" lon="0.1896640">
        <ele>1619.0</ele>
        <time>2020-07-25T12:15:01Z</time>
      </trkpt>
      <trkpt lat="42.9179520" lon="0.1896270">
        <ele>1619.4</ele>
        <time>2020-07-25T12:15:03Z</time>
      </trkpt>
      <trkpt lat="42.9179020" lon="0.1895740">
        <ele>1620.0</ele>
        <time>2020-07-25T12:15:06Z</time>
      </trkpt>
      <trkpt lat="42.9178070" lon="0.1894510">
        <ele>1621.0</ele>
        <time>2020-07-25T12:15:12Z</time>
      </trkpt>
      <trkpt lat="42.9177460" lon="0.1893800">
        <ele>1622.0</ele>
        <time>2020-07-25T12:15:16Z</time>
      </trkpt>
      <trkpt lat="42.9177320" lon="0.1893600">
        <ele>1622.2</ele>
        <time>2020-07-25T12:15:17Z</time>
      </trkpt>
      <trkpt lat="42.9177050" lon="0.1893170">
        <ele>1622.8</ele>
        <time>2020-07-25T12:15:19Z</time>
      </trkpt>
      <trkpt lat="42.9176900" lon="0.1892960">
        <ele>1623.0</ele>
        <time>2020-07-25T12:15:20Z</time>
      </trkpt>
      <trkpt lat="42.9176730" lon="0.1892770">
        <ele>1623.2</ele>
        <time>2020-07-25T12:15:21Z</time>
      </trkpt>
      <trkpt lat="42.9175920" lon="0.1891720">
        <ele>1624.4</ele>
        <time>2020-07-25T12:15:26Z</time>
      </trkpt>
      <trkpt lat="42.9175640" lon="0.1891280">
        <ele>1625.0</ele>
        <time>2020-07-25T12:15:28Z</time>
      </trkpt>
      <trkpt lat="42.9175140" lon="0.1890720">
        <ele>1625.6</ele>
        <time>2020-07-25T12:15:31Z</time>
      </trkpt>
      <trkpt lat="42.9174640" lon="0.1890130">
        <ele>1626.2</ele>
        <time>2020-07-25T12:15:34Z</time>
      </trkpt>
      <trkpt lat="42.9174270" lon="0.1889780">
        <ele>1626.4</ele>
        <time>2020-07-25T12:15:36Z</time>
      </trkpt>
      <trkpt lat="42.9174110" lon="0.1889620">
        <ele>1626.4</ele>
        <time>2020-07-25T12:15:37Z</time>
      </trkpt>
      <trkpt lat="42.9173770" lon="0.1889320">
        <ele>1626.8</ele>
        <time>2020-07-25T12:15:39Z</time>
      </trkpt>
      <trkpt lat="42.9173480" lon="0.1889070">
        <ele>1627.0</ele>
        <time>2020-07-25T12:15:41Z</time>
      </trkpt>
      <trkpt lat="42.9173100" lon="0.1888690">
        <ele>1627.4</ele>
        <time>2020-07-25T12:15:43Z</time>
      </trkpt>
      <trkpt lat="42.9172680" lon="0.1888320">
        <ele>1628.0</ele>
        <time>2020-07-25T12:15:45Z</time>
      </trkpt>
      <trkpt lat="42.9172060" lon="0.1887760">
        <ele>1628.8</ele>
        <time>2020-07-25T12:15:48Z</time>
      </trkpt>
      <trkpt lat="42.9171650" lon="0.1887410">
        <ele>1629.2</ele>
        <time>2020-07-25T12:15:50Z</time>
      </trkpt>
      <trkpt lat="42.9170500" lon="0.1886400">
        <ele>1630.2</ele>
        <time>2020-07-25T12:15:55Z</time>
      </trkpt>
      <trkpt lat="42.9170270" lon="0.1886270">
        <ele>1630.6</ele>
        <time>2020-07-25T12:15:57Z</time>
      </trkpt>
      <trkpt lat="42.9169870" lon="0.1885950">
        <ele>1631.2</ele>
        <time>2020-07-25T12:15:59Z</time>
      </trkpt>
      <trkpt lat="42.9169510" lon="0.1885580">
        <ele>1631.6</ele>
        <time>2020-07-25T12:16:01Z</time>
      </trkpt>
      <trkpt lat="42.9169150" lon="0.1885220">
        <ele>1632.0</ele>
        <time>2020-07-25T12:16:03Z</time>
      </trkpt>
      <trkpt lat="42.9168960" lon="0.1885040">
        <ele>1632.2</ele>
        <time>2020-07-25T12:16:04Z</time>
      </trkpt>
      <trkpt lat="42.9168780" lon="0.1884870">
        <ele>1632.4</ele>
        <time>2020-07-25T12:16:05Z</time>
      </trkpt>
      <trkpt lat="42.9168600" lon="0.1884710">
        <ele>1632.6</ele>
        <time>2020-07-25T12:16:06Z</time>
      </trkpt>
      <trkpt lat="42.9168100" lon="0.1884210">
        <ele>1633.2</ele>
        <time>2020-07-25T12:16:09Z</time>
      </trkpt>
      <trkpt lat="42.9167930" lon="0.1884050">
        <ele>1633.4</ele>
        <time>2020-07-25T12:16:10Z</time>
      </trkpt>
      <trkpt lat="42.9167380" lon="0.1883610">
        <ele>1634.6</ele>
        <time>2020-07-25T12:16:13Z</time>
      </trkpt>
      <trkpt lat="42.9167220" lon="0.1883440">
        <ele>1634.6</ele>
        <time>2020-07-25T12:16:14Z</time>
      </trkpt>
      <trkpt lat="42.9166880" lon="0.1883140">
        <ele>1635.0</ele>
        <time>2020-07-25T12:16:16Z</time>
      </trkpt>
      <trkpt lat="42.9166500" lon="0.1882850">
        <ele>1635.6</ele>
        <time>2020-07-25T12:16:18Z</time>
      </trkpt>
      <trkpt lat="42.9165560" lon="0.1882170">
        <ele>1636.8</ele>
        <time>2020-07-25T12:16:23Z</time>
      </trkpt>
      <trkpt lat="42.9164820" lon="0.1881620">
        <ele>1637.8</ele>
        <time>2020-07-25T12:16:27Z</time>
      </trkpt>
      <trkpt lat="42.9163840" lon="0.1880890">
        <ele>1639.0</ele>
        <time>2020-07-25T12:16:32Z</time>
      </trkpt>
      <trkpt lat="42.9163610" lon="0.1880750">
        <ele>1639.2</ele>
        <time>2020-07-25T12:16:33Z</time>
      </trkpt>
      <trkpt lat="42.9162770" lon="0.1880050">
        <ele>1640.2</ele>
        <time>2020-07-25T12:16:37Z</time>
      </trkpt>
      <trkpt lat="42.9162230" lon="0.1879080">
        <ele>1641.2</ele>
        <time>2020-07-25T12:16:41Z</time>
      </trkpt>
      <trkpt lat="42.9161700" lon="0.1878110">
        <ele>1642.4</ele>
        <time>2020-07-25T12:16:47Z</time>
      </trkpt>
      <trkpt lat="42.9161160" lon="0.1877140">
        <ele>1642.8</ele>
        <time>2020-07-25T12:16:49Z</time>
      </trkpt>
      <trkpt lat="42.9161070" lon="0.1875890">
        <ele>1643.6</ele>
        <time>2020-07-25T12:16:52Z</time>
      </trkpt>
      <trkpt lat="42.9161030" lon="0.1875500">
        <ele>1644.2</ele>
        <time>2020-07-25T12:16:54Z</time>
      </trkpt>
      <trkpt lat="42.9160890" lon="0.1874920">
        <ele>1644.8</ele>
        <time>2020-07-25T12:16:56Z</time>
      </trkpt>
      <trkpt lat="42.9160560" lon="0.1873730">
        <ele>1645.8</ele>
        <time>2020-07-25T12:17:00Z</time>
      </trkpt>
      <trkpt lat="42.9160400" lon="0.1873430">
        <ele>1646.2</ele>
        <time>2020-07-25T12:17:01Z</time>
      </trkpt>
      <trkpt lat="42.9159730" lon="0.1872390">
        <ele>1647.0</ele>
        <time>2020-07-25T12:17:05Z</time>
      </trkpt>
      <trkpt lat="42.9159580" lon="0.1872160">
        <ele>1647.4</ele>
        <time>2020-07-25T12:17:06Z</time>
      </trkpt>
      <trkpt lat="42.9159290" lon="0.1871690">
        <ele>1648.2</ele>
        <time>2020-07-25T12:17:08Z</time>
      </trkpt>
      <trkpt lat="42.9158290" lon="0.1870960">
        <ele>1649.2</ele>
        <time>2020-07-25T12:17:13Z</time>
      </trkpt>
      <trkpt lat="42.9158080" lon="0.1870800">
        <ele>1649.4</ele>
        <time>2020-07-25T12:17:14Z</time>
      </trkpt>
      <trkpt lat="42.9157680" lon="0.1870510">
        <ele>1649.8</ele>
        <time>2020-07-25T12:17:16Z</time>
      </trkpt>
      <trkpt lat="42.9157260" lon="0.1870300">
        <ele>1650.4</ele>
        <time>2020-07-25T12:17:18Z</time>
      </trkpt>
      <trkpt lat="42.9156380" lon="0.1870130">
        <ele>1651.0</ele>
        <time>2020-07-25T12:17:21Z</time>
      </trkpt>
      <trkpt lat="42.9156160" lon="0.1870150">
        <ele>1651.4</ele>
        <time>2020-07-25T12:17:23Z</time>
      </trkpt>
      <trkpt lat="42.9155920" lon="0.1870220">
        <ele>1651.6</ele>
        <time>2020-07-25T12:17:24Z</time>
      </trkpt>
      <trkpt lat="42.9155280" lon="0.1870240">
        <ele>1652.0</ele>
        <time>2020-07-25T12:17:27Z</time>
      </trkpt>
      <trkpt lat="42.9154590" lon="0.1870420">
        <ele>1652.8</ele>
        <time>2020-07-25T12:17:30Z</time>
      </trkpt>
      <trkpt lat="42.9153880" lon="0.1870780">
        <ele>1653.8</ele>
        <time>2020-07-25T12:17:33Z</time>
      </trkpt>
      <trkpt lat="42.9153640" lon="0.1870910">
        <ele>1654.0</ele>
        <time>2020-07-25T12:17:34Z</time>
      </trkpt>
      <trkpt lat="42.9152430" lon="0.1871260">
        <ele>1655.4</ele>
        <time>2020-07-25T12:17:39Z</time>
      </trkpt>
      <trkpt lat="42.9152180" lon="0.1871330">
        <ele>1655.6</ele>
        <time>2020-07-25T12:17:40Z</time>
      </trkpt>
      <trkpt lat="42.9151230" lon="0.1871370">
        <ele>1656.4</ele>
        <time>2020-07-25T12:17:44Z</time>
      </trkpt>
      <trkpt lat="42.9150620" lon="0.1871230">
        <ele>1657.2</ele>
        <time>2020-07-25T12:17:47Z</time>
      </trkpt>
      <trkpt lat="42.9150420" lon="0.1871160">
        <ele>1657.6</ele>
        <time>2020-07-25T12:17:48Z</time>
      </trkpt>
      <trkpt lat="42.9149660" lon="0.1870770">
        <ele>1658.6</ele>
        <time>2020-07-25T12:17:52Z</time>
      </trkpt>
      <trkpt lat="42.9149340" lon="0.1870260">
        <ele>1659.4</ele>
        <time>2020-07-25T12:17:55Z</time>
      </trkpt>
      <trkpt lat="42.9148960" lon="0.1869960">
        <ele>1659.8</ele>
        <time>2020-07-25T12:17:57Z</time>
      </trkpt>
      <trkpt lat="42.9148450" lon="0.1869280">
        <ele>1660.8</ele>
        <time>2020-07-25T12:18:01Z</time>
      </trkpt>
      <trkpt lat="42.9148340" lon="0.1869130">
        <ele>1661.0</ele>
        <time>2020-07-25T12:18:02Z</time>
      </trkpt>
      <trkpt lat="42.9147590" lon="0.1868200">
        <ele>1661.8</ele>
        <time>2020-07-25T12:18:07Z</time>
      </trkpt>
      <trkpt lat="42.9147100" lon="0.1867640">
        <ele>1662.6</ele>
        <time>2020-07-25T12:18:10Z</time>
      </trkpt>
      <trkpt lat="42.9146760" lon="0.1867280">
        <ele>1662.8</ele>
        <time>2020-07-25T12:18:12Z</time>
      </trkpt>
      <trkpt lat="42.9146190" lon="0.1866940">
        <ele>1663.6</ele>
        <time>2020-07-25T12:18:15Z</time>
      </trkpt>
      <trkpt lat="42.9145530" lon="0.1866750">
        <ele>1664.0</ele>
        <time>2020-07-25T12:18:17Z</time>
      </trkpt>
      <trkpt lat="42.9145210" lon="0.1866680">
        <ele>1664.4</ele>
        <time>2020-07-25T12:18:18Z</time>
      </trkpt>
      <trkpt lat="42.9144070" lon="0.1866560">
        <ele>1665.2</ele>
        <time>2020-07-25T12:18:21Z</time>
      </trkpt>
      <trkpt lat="42.9142830" lon="0.1865740">
        <ele>1666.6</ele>
        <time>2020-07-25T12:18:25Z</time>
      </trkpt>
      <trkpt lat="42.9142550" lon="0.1865670">
        <ele>1666.8</ele>
        <time>2020-07-25T12:18:26Z</time>
      </trkpt>
      <trkpt lat="42.9141590" lon="0.1865480">
        <ele>1667.6</ele>
        <time>2020-07-25T12:18:30Z</time>
      </trkpt>
      <trkpt lat="42.9140540" lon="0.1865500">
        <ele>1668.6</ele>
        <time>2020-07-25T12:18:34Z</time>
      </trkpt>
      <trkpt lat="42.9140270" lon="0.1865500">
        <ele>1669.0</ele>
        <time>2020-07-25T12:18:35Z</time>
      </trkpt>
      <trkpt lat="42.9139980" lon="0.1865510">
        <ele>1669.4</ele>
        <time>2020-07-25T12:18:36Z</time>
      </trkpt>
      <trkpt lat="42.9139710" lon="0.1865560">
        <ele>1669.6</ele>
        <time>2020-07-25T12:18:37Z</time>
      </trkpt>
      <trkpt lat="42.9138910" lon="0.1865740">
        <ele>1670.4</ele>
        <time>2020-07-25T12:18:40Z</time>
      </trkpt>
      <trkpt lat="42.9137910" lon="0.1866040">
        <ele>1671.4</ele>
        <time>2020-07-25T12:18:44Z</time>
      </trkpt>
      <trkpt lat="42.9137230" lon="0.1866310">
        <ele>1672.0</ele>
        <time>2020-07-25T12:18:46Z</time>
      </trkpt>
      <trkpt lat="42.9136320" lon="0.1866360">
        <ele>1672.6</ele>
        <time>2020-07-25T12:18:50Z</time>
      </trkpt>
      <trkpt lat="42.9135820" lon="0.1866220">
        <ele>1673.6</ele>
        <time>2020-07-25T12:18:53Z</time>
      </trkpt>
      <trkpt lat="42.9135590" lon="0.1866130">
        <ele>1673.8</ele>
        <time>2020-07-25T12:18:54Z</time>
      </trkpt>
      <trkpt lat="42.9134750" lon="0.1865550">
        <ele>1674.6</ele>
        <time>2020-07-25T12:18:58Z</time>
      </trkpt>
      <trkpt lat="42.9134230" lon="0.1865110">
        <ele>1674.8</ele>
        <time>2020-07-25T12:19:00Z</time>
      </trkpt>
      <trkpt lat="42.9134020" lon="0.1864180">
        <ele>1676.2</ele>
        <time>2020-07-25T12:19:03Z</time>
      </trkpt>
      <trkpt lat="42.9133950" lon="0.1863170">
        <ele>1676.8</ele>
        <time>2020-07-25T12:19:06Z</time>
      </trkpt>
      <trkpt lat="42.9133720" lon="0.1862570">
        <ele>1677.2</ele>
        <time>2020-07-25T12:19:08Z</time>
      </trkpt>
      <trkpt lat="42.9133680" lon="0.1862240">
        <ele>1677.4</ele>
        <time>2020-07-25T12:19:09Z</time>
      </trkpt>
      <trkpt lat="42.9133780" lon="0.1861970">
        <ele>1677.8</ele>
        <time>2020-07-25T12:19:10Z</time>
      </trkpt>
      <trkpt lat="42.9133660" lon="0.1861360">
        <ele>1678.2</ele>
        <time>2020-07-25T12:19:12Z</time>
      </trkpt>
      <trkpt lat="42.9133410" lon="0.1859990">
        <ele>1679.0</ele>
        <time>2020-07-25T12:19:16Z</time>
      </trkpt>
      <trkpt lat="42.9133260" lon="0.1859410">
        <ele>1679.4</ele>
        <time>2020-07-25T12:19:18Z</time>
      </trkpt>
      <trkpt lat="42.9132850" lon="0.1857750">
        <ele>1680.6</ele>
        <time>2020-07-25T12:19:23Z</time>
      </trkpt>
      <trkpt lat="42.9132630" lon="0.1856830">
        <ele>1681.8</ele>
        <time>2020-07-25T12:19:26Z</time>
      </trkpt>
      <trkpt lat="42.9132470" lon="0.1856270">
        <ele>1682.4</ele>
        <time>2020-07-25T12:19:28Z</time>
      </trkpt>
      <trkpt lat="42.9132290" lon="0.1855800">
        <ele>1682.8</ele>
        <time>2020-07-25T12:19:30Z</time>
      </trkpt>
      <trkpt lat="42.9131970" lon="0.1854790">
        <ele>1683.4</ele>
        <time>2020-07-25T12:19:34Z</time>
      </trkpt>
      <trkpt lat="42.9131770" lon="0.1854030">
        <ele>1684.0</ele>
        <time>2020-07-25T12:19:37Z</time>
      </trkpt>
      <trkpt lat="42.9131590" lon="0.1853530">
        <ele>1684.8</ele>
        <time>2020-07-25T12:19:39Z</time>
      </trkpt>
      <trkpt lat="42.9131380" lon="0.1852950">
        <ele>1685.0</ele>
        <time>2020-07-25T12:19:41Z</time>
      </trkpt>
      <trkpt lat="42.9131270" lon="0.1852640">
        <ele>1685.2</ele>
        <time>2020-07-25T12:19:42Z</time>
      </trkpt>
      <trkpt lat="42.9130860" lon="0.1851420">
        <ele>1686.6</ele>
        <time>2020-07-25T12:19:46Z</time>
      </trkpt>
      <trkpt lat="42.9130460" lon="0.1850350">
        <ele>1687.4</ele>
        <time>2020-07-25T12:19:50Z</time>
      </trkpt>
      <trkpt lat="42.9130370" lon="0.1850110">
        <ele>1687.6</ele>
        <time>2020-07-25T12:19:51Z</time>
      </trkpt>
      <trkpt lat="42.9130060" lon="0.1849260">
        <ele>1688.8</ele>
        <time>2020-07-25T12:19:54Z</time>
      </trkpt>
      <trkpt lat="42.9129840" lon="0.1848690">
        <ele>1689.4</ele>
        <time>2020-07-25T12:19:56Z</time>
      </trkpt>
      <trkpt lat="42.9129470" lon="0.1847870">
        <ele>1690.2</ele>
        <time>2020-07-25T12:19:59Z</time>
      </trkpt>
      <trkpt lat="42.9128690" lon="0.1846510">
        <ele>1691.2</ele>
        <time>2020-07-25T12:20:04Z</time>
      </trkpt>
      <trkpt lat="42.9128300" lon="0.1845990">
        <ele>1691.8</ele>
        <time>2020-07-25T12:20:06Z</time>
      </trkpt>
      <trkpt lat="42.9127710" lon="0.1845240">
        <ele>1692.2</ele>
        <time>2020-07-25T12:20:09Z</time>
      </trkpt>
      <trkpt lat="42.9127520" lon="0.1845000">
        <ele>1692.2</ele>
        <time>2020-07-25T12:20:10Z</time>
      </trkpt>
      <trkpt lat="42.9126570" lon="0.1843910">
        <ele>1693.4</ele>
        <time>2020-07-25T12:20:15Z</time>
      </trkpt>
      <trkpt lat="42.9125510" lon="0.1842920">
        <ele>1694.6</ele>
        <time>2020-07-25T12:20:21Z</time>
      </trkpt>
      <trkpt lat="42.9124770" lon="0.1842320">
        <ele>1695.2</ele>
        <time>2020-07-25T12:20:25Z</time>
      </trkpt>
      <trkpt lat="42.9124370" lon="0.1842060">
        <ele>1695.6</ele>
        <time>2020-07-25T12:20:27Z</time>
      </trkpt>
      <trkpt lat="42.9123330" lon="0.1841680">
        <ele>1696.6</ele>
        <time>2020-07-25T12:20:32Z</time>
      </trkpt>
      <trkpt lat="42.9123110" lon="0.1841580">
        <ele>1697.0</ele>
        <time>2020-07-25T12:20:33Z</time>
      </trkpt>
      <trkpt lat="42.9122200" lon="0.1841270">
        <ele>1698.0</ele>
        <time>2020-07-25T12:20:37Z</time>
      </trkpt>
      <trkpt lat="42.9121500" lon="0.1841230">
        <ele>1698.8</ele>
        <time>2020-07-25T12:20:40Z</time>
      </trkpt>
      <trkpt lat="42.9121020" lon="0.1841210">
        <ele>1699.2</ele>
        <time>2020-07-25T12:20:42Z</time>
      </trkpt>
      <trkpt lat="42.9119650" lon="0.1841060">
        <ele>1700.2</ele>
        <time>2020-07-25T12:20:48Z</time>
      </trkpt>
      <trkpt lat="42.9119430" lon="0.1841000">
        <ele>1700.4</ele>
        <time>2020-07-25T12:20:49Z</time>
      </trkpt>
      <trkpt lat="42.9118760" lon="0.1840700">
        <ele>1701.2</ele>
        <time>2020-07-25T12:20:52Z</time>
      </trkpt>
      <trkpt lat="42.9118570" lon="0.1840590">
        <ele>1701.4</ele>
        <time>2020-07-25T12:20:53Z</time>
      </trkpt>
      <trkpt lat="42.9118370" lon="0.1840490">
        <ele>1701.4</ele>
        <time>2020-07-25T12:20:54Z</time>
      </trkpt>
      <trkpt lat="42.9118190" lon="0.1840380">
        <ele>1701.6</ele>
        <time>2020-07-25T12:20:55Z</time>
      </trkpt>
      <trkpt lat="42.9117320" lon="0.1839800">
        <ele>1702.6</ele>
        <time>2020-07-25T12:21:00Z</time>
      </trkpt>
      <trkpt lat="42.9116670" lon="0.1839260">
        <ele>1703.6</ele>
        <time>2020-07-25T12:21:04Z</time>
      </trkpt>
      <trkpt lat="42.9116130" lon="0.1838640">
        <ele>1704.6</ele>
        <time>2020-07-25T12:21:08Z</time>
      </trkpt>
      <trkpt lat="42.9115530" lon="0.1838000">
        <ele>1705.8</ele>
        <time>2020-07-25T12:21:12Z</time>
      </trkpt>
      <trkpt lat="42.9115250" lon="0.1837630">
        <ele>1706.2</ele>
        <time>2020-07-25T12:21:14Z</time>
      </trkpt>
      <trkpt lat="42.9114640" lon="0.1837010">
        <ele>1706.8</ele>
        <time>2020-07-25T12:21:18Z</time>
      </trkpt>
      <trkpt lat="42.9114030" lon="0.1836380">
        <ele>1707.8</ele>
        <time>2020-07-25T12:21:22Z</time>
      </trkpt>
      <trkpt lat="42.9113850" lon="0.1836220">
        <ele>1707.8</ele>
        <time>2020-07-25T12:21:23Z</time>
      </trkpt>
      <trkpt lat="42.9113120" lon="0.1835330">
        <ele>1709.2</ele>
        <time>2020-07-25T12:21:27Z</time>
      </trkpt>
      <trkpt lat="42.9112850" lon="0.1834780">
        <ele>1709.8</ele>
        <time>2020-07-25T12:21:29Z</time>
      </trkpt>
      <trkpt lat="42.9112750" lon="0.1834500">
        <ele>1710.2</ele>
        <time>2020-07-25T12:21:30Z</time>
      </trkpt>
      <trkpt lat="42.9112400" lon="0.1833360">
        <ele>1711.2</ele>
        <time>2020-07-25T12:21:34Z</time>
      </trkpt>
      <trkpt lat="42.9112160" lon="0.1832460">
        <ele>1712.2</ele>
        <time>2020-07-25T12:21:37Z</time>
      </trkpt>
      <trkpt lat="42.9112050" lon="0.1832210">
        <ele>1712.4</ele>
        <time>2020-07-25T12:21:38Z</time>
      </trkpt>
      <trkpt lat="42.9111930" lon="0.1831970">
        <ele>1712.6</ele>
        <time>2020-07-25T12:21:39Z</time>
      </trkpt>
      <trkpt lat="42.9111710" lon="0.1831230">
        <ele>1713.0</ele>
        <time>2020-07-25T12:21:42Z</time>
      </trkpt>
      <trkpt lat="42.9111410" lon="0.1830140">
        <ele>1713.8</ele>
        <time>2020-07-25T12:21:46Z</time>
      </trkpt>
      <trkpt lat="42.9110970" lon="0.1829130">
        <ele>1714.8</ele>
        <time>2020-07-25T12:21:49Z</time>
      </trkpt>
      <trkpt lat="42.9110970" lon="0.1829130">
        <ele>1715.0</ele>
        <time>2020-07-25T12:21:50Z</time>
      </trkpt>
      <trkpt lat="42.9110650" lon="0.1828000">
        <ele>1715.8</ele>
        <time>2020-07-25T12:21:54Z</time>
      </trkpt>
      <trkpt lat="42.9110430" lon="0.1826600">
        <ele>1716.6</ele>
        <time>2020-07-25T12:21:59Z</time>
      </trkpt>
      <trkpt lat="42.9110370" lon="0.1826330">
        <ele>1717.0</ele>
        <time>2020-07-25T12:22:00Z</time>
      </trkpt>
      <trkpt lat="42.9110220" lon="0.1825840">
        <ele>1717.6</ele>
        <time>2020-07-25T12:22:02Z</time>
      </trkpt>
      <trkpt lat="42.9110130" lon="0.1825620">
        <ele>1717.8</ele>
        <time>2020-07-25T12:22:03Z</time>
      </trkpt>
      <trkpt lat="42.9110000" lon="0.1825170">
        <ele>1718.0</ele>
        <time>2020-07-25T12:22:05Z</time>
      </trkpt>
      <trkpt lat="42.9109800" lon="0.1824480">
        <ele>1718.6</ele>
        <time>2020-07-25T12:22:08Z</time>
      </trkpt>
      <trkpt lat="42.9109680" lon="0.1824020">
        <ele>1719.2</ele>
        <time>2020-07-25T12:22:10Z</time>
      </trkpt>
      <trkpt lat="42.9109210" lon="0.1823160">
        <ele>1720.2</ele>
        <time>2020-07-25T12:22:14Z</time>
      </trkpt>
      <trkpt lat="42.9108900" lon="0.1822800">
        <ele>1720.8</ele>
        <time>2020-07-25T12:22:16Z</time>
      </trkpt>
      <trkpt lat="42.9108660" lon="0.1822290">
        <ele>1721.4</ele>
        <time>2020-07-25T12:22:18Z</time>
      </trkpt>
      <trkpt lat="42.9108520" lon="0.1822070">
        <ele>1721.6</ele>
        <time>2020-07-25T12:22:19Z</time>
      </trkpt>
      <trkpt lat="42.9107770" lon="0.1821070">
        <ele>1722.4</ele>
        <time>2020-07-25T12:22:24Z</time>
      </trkpt>
      <trkpt lat="42.9107180" lon="0.1820330">
        <ele>1723.2</ele>
        <time>2020-07-25T12:22:28Z</time>
      </trkpt>
      <trkpt lat="42.9107060" lon="0.1820100">
        <ele>1723.4</ele>
        <time>2020-07-25T12:22:29Z</time>
      </trkpt>
      <trkpt lat="42.9106940" lon="0.1819870">
        <ele>1723.6</ele>
        <time>2020-07-25T12:22:30Z</time>
      </trkpt>
      <trkpt lat="42.9106460" lon="0.1818920">
        <ele>1724.6</ele>
        <time>2020-07-25T12:22:34Z</time>
      </trkpt>
      <trkpt lat="42.9106310" lon="0.1818450">
        <ele>1725.0</ele>
        <time>2020-07-25T12:22:36Z</time>
      </trkpt>
      <trkpt lat="42.9106320" lon="0.1818200">
        <ele>1725.2</ele>
        <time>2020-07-25T12:22:37Z</time>
      </trkpt>
      <trkpt lat="42.9106070" lon="0.1817240">
        <ele>1725.8</ele>
        <time>2020-07-25T12:22:41Z</time>
      </trkpt>
      <trkpt lat="42.9105960" lon="0.1817010">
        <ele>1726.0</ele>
        <time>2020-07-25T12:22:42Z</time>
      </trkpt>
      <trkpt lat="42.9105350" lon="0.1815580">
        <ele>1726.6</ele>
        <time>2020-07-25T12:22:48Z</time>
      </trkpt>
      <trkpt lat="42.9105060" lon="0.1815110">
        <ele>1726.8</ele>
        <time>2020-07-25T12:22:50Z</time>
      </trkpt>
      <trkpt lat="42.9104620" lon="0.1814480">
        <ele>1727.8</ele>
        <time>2020-07-25T12:22:53Z</time>
      </trkpt>
      <trkpt lat="42.9104330" lon="0.1813710">
        <ele>1728.4</ele>
        <time>2020-07-25T12:22:56Z</time>
      </trkpt>
      <trkpt lat="42.9104130" lon="0.1813210">
        <ele>1729.0</ele>
        <time>2020-07-25T12:22:58Z</time>
      </trkpt>
      <trkpt lat="42.9103500" lon="0.1811670">
        <ele>1729.8</ele>
        <time>2020-07-25T12:23:04Z</time>
      </trkpt>
      <trkpt lat="42.9103260" lon="0.1811160">
        <ele>1730.0</ele>
        <time>2020-07-25T12:23:06Z</time>
      </trkpt>
      <trkpt lat="42.9103020" lon="0.1810290">
        <ele>1731.2</ele>
        <time>2020-07-25T12:23:09Z</time>
      </trkpt>
      <trkpt lat="42.9102870" lon="0.1809430">
        <ele>1731.8</ele>
        <time>2020-07-25T12:23:12Z</time>
      </trkpt>
      <trkpt lat="42.9102680" lon="0.1808800">
        <ele>1732.2</ele>
        <time>2020-07-25T12:23:14Z</time>
      </trkpt>
      <trkpt lat="42.9102280" lon="0.1806930">
        <ele>1733.2</ele>
        <time>2020-07-25T12:23:20Z</time>
      </trkpt>
      <trkpt lat="42.9102060" lon="0.1805400">
        <ele>1734.4</ele>
        <time>2020-07-25T12:23:25Z</time>
      </trkpt>
      <trkpt lat="42.9101790" lon="0.1804160">
        <ele>1735.0</ele>
        <time>2020-07-25T12:23:29Z</time>
      </trkpt>
      <trkpt lat="42.9101630" lon="0.1803240">
        <ele>1735.6</ele>
        <time>2020-07-25T12:23:32Z</time>
      </trkpt>
      <trkpt lat="42.9101360" lon="0.1802050">
        <ele>1736.4</ele>
        <time>2020-07-25T12:23:36Z</time>
      </trkpt>
      <trkpt lat="42.9101310" lon="0.1801750">
        <ele>1736.8</ele>
        <time>2020-07-25T12:23:37Z</time>
      </trkpt>
      <trkpt lat="42.9101090" lon="0.1800010">
        <ele>1737.6</ele>
        <time>2020-07-25T12:23:43Z</time>
      </trkpt>
      <trkpt lat="42.9101050" lon="0.1799740">
        <ele>1737.8</ele>
        <time>2020-07-25T12:23:44Z</time>
      </trkpt>
      <trkpt lat="42.9100930" lon="0.1799170">
        <ele>1738.4</ele>
        <time>2020-07-25T12:23:46Z</time>
      </trkpt>
      <trkpt lat="42.9100830" lon="0.1798310">
        <ele>1739.0</ele>
        <time>2020-07-25T12:23:49Z</time>
      </trkpt>
      <trkpt lat="42.9100780" lon="0.1796520">
        <ele>1740.0</ele>
        <time>2020-07-25T12:23:55Z</time>
      </trkpt>
      <trkpt lat="42.9100930" lon="0.1795330">
        <ele>1741.2</ele>
        <time>2020-07-25T12:23:59Z</time>
      </trkpt>
      <trkpt lat="42.9101110" lon="0.1794560">
        <ele>1741.6</ele>
        <time>2020-07-25T12:24:03Z</time>
      </trkpt>
      <trkpt lat="42.9098990" lon="0.1793310">
        <ele>1742.4</ele>
        <time>2020-07-25T12:43:01Z</time>
      </trkpt>
      <trkpt lat="42.9099160" lon="0.1793410">
        <ele>1742.4</ele>
        <time>2020-07-25T12:43:04Z</time>
      </trkpt>
      <trkpt lat="42.9099650" lon="0.1793700">
        <ele>1742.8</ele>
        <time>2020-07-25T12:43:07Z</time>
      </trkpt>
      <trkpt lat="42.9099990" lon="0.1793790">
        <ele>1742.8</ele>
        <time>2020-07-25T12:43:09Z</time>
      </trkpt>
      <trkpt lat="42.9100260" lon="0.1793900">
        <ele>1743.0</ele>
        <time>2020-07-25T12:43:11Z</time>
      </trkpt>
      <trkpt lat="42.9100330" lon="0.1794200">
        <ele>1743.2</ele>
        <time>2020-07-25T12:43:13Z</time>
      </trkpt>
      <trkpt lat="42.9100300" lon="0.1794380">
        <ele>1743.2</ele>
        <time>2020-07-25T12:43:14Z</time>
      </trkpt>
      <trkpt lat="42.9100060" lon="0.1795290">
        <ele>1743.2</ele>
        <time>2020-07-25T12:43:19Z</time>
      </trkpt>
      <trkpt lat="42.9099950" lon="0.1795580">
        <ele>1743.0</ele>
        <time>2020-07-25T12:43:21Z</time>
      </trkpt>
      <trkpt lat="42.9099920" lon="0.1795860">
        <ele>1742.8</ele>
        <time>2020-07-25T12:43:23Z</time>
      </trkpt>
      <trkpt lat="42.9100070" lon="0.1796190">
        <ele>1742.6</ele>
        <time>2020-07-25T12:43:26Z</time>
      </trkpt>
      <trkpt lat="42.9100560" lon="0.1796310">
        <ele>1742.6</ele>
        <time>2020-07-25T12:43:28Z</time>
      </trkpt>
      <trkpt lat="42.9100730" lon="0.1796250">
        <ele>1742.6</ele>
        <time>2020-07-25T12:43:29Z</time>
      </trkpt>
      <trkpt lat="42.9101010" lon="0.1795780">
        <ele>1742.8</ele>
        <time>2020-07-25T12:43:31Z</time>
      </trkpt>
      <trkpt lat="42.9101160" lon="0.1795450">
        <ele>1743.0</ele>
        <time>2020-07-25T12:43:32Z</time>
      </trkpt>
      <trkpt lat="42.9101560" lon="0.1794320">
        <ele>1743.2</ele>
        <time>2020-07-25T12:43:35Z</time>
      </trkpt>
      <trkpt lat="42.9102070" lon="0.1793340">
        <ele>1743.6</ele>
        <time>2020-07-25T12:43:38Z</time>
      </trkpt>
      <trkpt lat="42.9102480" lon="0.1792800">
        <ele>1744.2</ele>
        <time>2020-07-25T12:43:40Z</time>
      </trkpt>
      <trkpt lat="42.9102950" lon="0.1792370">
        <ele>1744.8</ele>
        <time>2020-07-25T12:43:42Z</time>
      </trkpt>
      <trkpt lat="42.9103170" lon="0.1792180">
        <ele>1745.2</ele>
        <time>2020-07-25T12:43:43Z</time>
      </trkpt>
      <trkpt lat="42.9103620" lon="0.1791910">
        <ele>1745.6</ele>
        <time>2020-07-25T12:43:45Z</time>
      </trkpt>
      <trkpt lat="42.9104090" lon="0.1791740">
        <ele>1745.8</ele>
        <time>2020-07-25T12:43:47Z</time>
      </trkpt>
      <trkpt lat="42.9104740" lon="0.1791360">
        <ele>1746.2</ele>
        <time>2020-07-25T12:43:50Z</time>
      </trkpt>
      <trkpt lat="42.9105350" lon="0.1790920">
        <ele>1747.0</ele>
        <time>2020-07-25T12:43:53Z</time>
      </trkpt>
      <trkpt lat="42.9105880" lon="0.1790450">
        <ele>1747.8</ele>
        <time>2020-07-25T12:43:56Z</time>
      </trkpt>
      <trkpt lat="42.9106280" lon="0.1790170">
        <ele>1748.0</ele>
        <time>2020-07-25T12:43:58Z</time>
      </trkpt>
      <trkpt lat="42.9106490" lon="0.1790030">
        <ele>1748.2</ele>
        <time>2020-07-25T12:43:59Z</time>
      </trkpt>
      <trkpt lat="42.9107400" lon="0.1789580">
        <ele>1749.4</ele>
        <time>2020-07-25T12:44:03Z</time>
      </trkpt>
      <trkpt lat="42.9108100" lon="0.1789270">
        <ele>1750.0</ele>
        <time>2020-07-25T12:44:06Z</time>
      </trkpt>
      <trkpt lat="42.9108550" lon="0.1788980">
        <ele>1750.4</ele>
        <time>2020-07-25T12:44:08Z</time>
      </trkpt>
      <trkpt lat="42.9108780" lon="0.1788840">
        <ele>1750.6</ele>
        <time>2020-07-25T12:44:09Z</time>
      </trkpt>
      <trkpt lat="42.9109890" lon="0.1787540">
        <ele>1751.6</ele>
        <time>2020-07-25T12:44:15Z</time>
      </trkpt>
      <trkpt lat="42.9110480" lon="0.1786130">
        <ele>1752.8</ele>
        <time>2020-07-25T12:44:20Z</time>
      </trkpt>
      <trkpt lat="42.9110660" lon="0.1785190">
        <ele>1753.4</ele>
        <time>2020-07-25T12:44:23Z</time>
      </trkpt>
      <trkpt lat="42.9110790" lon="0.1784310">
        <ele>1754.0</ele>
        <time>2020-07-25T12:44:26Z</time>
      </trkpt>
      <trkpt lat="42.9110830" lon="0.1783250">
        <ele>1754.8</ele>
        <time>2020-07-25T12:44:29Z</time>
      </trkpt>
      <trkpt lat="42.9110820" lon="0.1782920">
        <ele>1755.4</ele>
        <time>2020-07-25T12:44:30Z</time>
      </trkpt>
      <trkpt lat="42.9110880" lon="0.1781670">
        <ele>1756.4</ele>
        <time>2020-07-25T12:44:34Z</time>
      </trkpt>
      <trkpt lat="42.9110830" lon="0.1780460">
        <ele>1757.4</ele>
        <time>2020-07-25T12:44:38Z</time>
      </trkpt>
      <trkpt lat="42.9110800" lon="0.1780160">
        <ele>1757.4</ele>
        <time>2020-07-25T12:44:39Z</time>
      </trkpt>
      <trkpt lat="42.9110900" lon="0.1778380">
        <ele>1758.6</ele>
        <time>2020-07-25T12:44:45Z</time>
      </trkpt>
      <trkpt lat="42.9110860" lon="0.1778080">
        <ele>1758.8</ele>
        <time>2020-07-25T12:44:46Z</time>
      </trkpt>
      <trkpt lat="42.9110750" lon="0.1776790">
        <ele>1759.8</ele>
        <time>2020-07-25T12:44:51Z</time>
      </trkpt>
      <trkpt lat="42.9110680" lon="0.1776400">
        <ele>1759.8</ele>
        <time>2020-07-25T12:44:53Z</time>
      </trkpt>
      <trkpt lat="42.9110570" lon="0.1775120">
        <ele>1760.4</ele>
        <time>2020-07-25T12:44:58Z</time>
      </trkpt>
      <trkpt lat="42.9110460" lon="0.1774160">
        <ele>1761.0</ele>
        <time>2020-07-25T12:45:01Z</time>
      </trkpt>
      <trkpt lat="42.9110260" lon="0.1772740">
        <ele>1762.0</ele>
        <time>2020-07-25T12:45:05Z</time>
      </trkpt>
      <trkpt lat="42.9110020" lon="0.1771760">
        <ele>1763.0</ele>
        <time>2020-07-25T12:45:08Z</time>
      </trkpt>
      <trkpt lat="42.9109930" lon="0.1771440">
        <ele>1763.2</ele>
        <time>2020-07-25T12:45:09Z</time>
      </trkpt>
      <trkpt lat="42.9109820" lon="0.1771110">
        <ele>1763.4</ele>
        <time>2020-07-25T12:45:10Z</time>
      </trkpt>
      <trkpt lat="42.9109720" lon="0.1770790">
        <ele>1763.6</ele>
        <time>2020-07-25T12:45:11Z</time>
      </trkpt>
      <trkpt lat="42.9109420" lon="0.1769830">
        <ele>1764.4</ele>
        <time>2020-07-25T12:45:14Z</time>
      </trkpt>
      <trkpt lat="42.9108850" lon="0.1768410">
        <ele>1765.6</ele>
        <time>2020-07-25T12:45:19Z</time>
      </trkpt>
      <trkpt lat="42.9108630" lon="0.1767790">
        <ele>1766.0</ele>
        <time>2020-07-25T12:45:21Z</time>
      </trkpt>
      <trkpt lat="42.9108370" lon="0.1767220">
        <ele>1766.2</ele>
        <time>2020-07-25T12:45:23Z</time>
      </trkpt>
      <trkpt lat="42.9108120" lon="0.1766610">
        <ele>1766.8</ele>
        <time>2020-07-25T12:45:25Z</time>
      </trkpt>
      <trkpt lat="42.9107890" lon="0.1765980">
        <ele>1767.0</ele>
        <time>2020-07-25T12:45:27Z</time>
      </trkpt>
      <trkpt lat="42.9107570" lon="0.1765000">
        <ele>1768.0</ele>
        <time>2020-07-25T12:45:30Z</time>
      </trkpt>
      <trkpt lat="42.9107070" lon="0.1763440">
        <ele>1769.2</ele>
        <time>2020-07-25T12:45:35Z</time>
      </trkpt>
      <trkpt lat="42.9106540" lon="0.1761850">
        <ele>1770.0</ele>
        <time>2020-07-25T12:45:40Z</time>
      </trkpt>
      <trkpt lat="42.9106340" lon="0.1761210">
        <ele>1770.4</ele>
        <time>2020-07-25T12:45:42Z</time>
      </trkpt>
      <trkpt lat="42.9106100" lon="0.1760270">
        <ele>1771.6</ele>
        <time>2020-07-25T12:45:45Z</time>
      </trkpt>
      <trkpt lat="42.9105870" lon="0.1759310">
        <ele>1772.2</ele>
        <time>2020-07-25T12:45:48Z</time>
      </trkpt>
      <trkpt lat="42.9105790" lon="0.1758640">
        <ele>1772.6</ele>
        <time>2020-07-25T12:45:50Z</time>
      </trkpt>
      <trkpt lat="42.9105700" lon="0.1757600">
        <ele>1773.6</ele>
        <time>2020-07-25T12:45:53Z</time>
      </trkpt>
      <trkpt lat="42.9105700" lon="0.1757260">
        <ele>1773.8</ele>
        <time>2020-07-25T12:45:54Z</time>
      </trkpt>
      <trkpt lat="42.9105720" lon="0.1756590">
        <ele>1774.4</ele>
        <time>2020-07-25T12:45:56Z</time>
      </trkpt>
      <trkpt lat="42.9105750" lon="0.1755950">
        <ele>1774.8</ele>
        <time>2020-07-25T12:45:58Z</time>
      </trkpt>
      <trkpt lat="42.9105790" lon="0.1754920">
        <ele>1775.6</ele>
        <time>2020-07-25T12:46:01Z</time>
      </trkpt>
      <trkpt lat="42.9105770" lon="0.1754570">
        <ele>1776.0</ele>
        <time>2020-07-25T12:46:02Z</time>
      </trkpt>
      <trkpt lat="42.9105770" lon="0.1754210">
        <ele>1776.2</ele>
        <time>2020-07-25T12:46:03Z</time>
      </trkpt>
      <trkpt lat="42.9105800" lon="0.1753490">
        <ele>1776.4</ele>
        <time>2020-07-25T12:46:05Z</time>
      </trkpt>
      <trkpt lat="42.9105850" lon="0.1752410">
        <ele>1777.2</ele>
        <time>2020-07-25T12:46:08Z</time>
      </trkpt>
      <trkpt lat="42.9105930" lon="0.1751000">
        <ele>1778.2</ele>
        <time>2020-07-25T12:46:12Z</time>
      </trkpt>
      <trkpt lat="42.9105950" lon="0.1750660">
        <ele>1778.4</ele>
        <time>2020-07-25T12:46:13Z</time>
      </trkpt>
      <trkpt lat="42.9105910" lon="0.1748940">
        <ele>1779.2</ele>
        <time>2020-07-25T12:46:18Z</time>
      </trkpt>
      <trkpt lat="42.9105910" lon="0.1748600">
        <ele>1779.4</ele>
        <time>2020-07-25T12:46:19Z</time>
      </trkpt>
      <trkpt lat="42.9105900" lon="0.1747900">
        <ele>1779.8</ele>
        <time>2020-07-25T12:46:21Z</time>
      </trkpt>
      <trkpt lat="42.9105870" lon="0.1746910">
        <ele>1780.6</ele>
        <time>2020-07-25T12:46:24Z</time>
      </trkpt>
      <trkpt lat="42.9105800" lon="0.1745210">
        <ele>1781.8</ele>
        <time>2020-07-25T12:46:29Z</time>
      </trkpt>
      <trkpt lat="42.9105770" lon="0.1744520">
        <ele>1782.0</ele>
        <time>2020-07-25T12:46:31Z</time>
      </trkpt>
      <trkpt lat="42.9105720" lon="0.1743510">
        <ele>1782.6</ele>
        <time>2020-07-25T12:46:34Z</time>
      </trkpt>
      <trkpt lat="42.9105670" lon="0.1743210">
        <ele>1782.8</ele>
        <time>2020-07-25T12:46:35Z</time>
      </trkpt>
      <trkpt lat="42.9105490" lon="0.1741920">
        <ele>1783.4</ele>
        <time>2020-07-25T12:46:39Z</time>
      </trkpt>
      <trkpt lat="42.9105300" lon="0.1740550">
        <ele>1784.2</ele>
        <time>2020-07-25T12:46:43Z</time>
      </trkpt>
      <trkpt lat="42.9105120" lon="0.1739510">
        <ele>1785.0</ele>
        <time>2020-07-25T12:46:46Z</time>
      </trkpt>
      <trkpt lat="42.9105050" lon="0.1739170">
        <ele>1785.4</ele>
        <time>2020-07-25T12:46:47Z</time>
      </trkpt>
      <trkpt lat="42.9104780" lon="0.1738140">
        <ele>1786.0</ele>
        <time>2020-07-25T12:46:50Z</time>
      </trkpt>
      <trkpt lat="42.9104690" lon="0.1737810">
        <ele>1786.2</ele>
        <time>2020-07-25T12:46:51Z</time>
      </trkpt>
      <trkpt lat="42.9104580" lon="0.1737480">
        <ele>1786.6</ele>
        <time>2020-07-25T12:46:52Z</time>
      </trkpt>
      <trkpt lat="42.9104460" lon="0.1737170">
        <ele>1786.8</ele>
        <time>2020-07-25T12:46:53Z</time>
      </trkpt>
      <trkpt lat="42.9103830" lon="0.1735240">
        <ele>1787.6</ele>
        <time>2020-07-25T12:46:59Z</time>
      </trkpt>
      <trkpt lat="42.9103720" lon="0.1734940">
        <ele>1788.0</ele>
        <time>2020-07-25T12:47:00Z</time>
      </trkpt>
      <trkpt lat="42.9103330" lon="0.1733670">
        <ele>1788.8</ele>
        <time>2020-07-25T12:47:04Z</time>
      </trkpt>
      <trkpt lat="42.9103150" lon="0.1732670">
        <ele>1789.6</ele>
        <time>2020-07-25T12:47:07Z</time>
      </trkpt>
      <trkpt lat="42.9103090" lon="0.1732320">
        <ele>1790.0</ele>
        <time>2020-07-25T12:47:08Z</time>
      </trkpt>
      <trkpt lat="42.9102940" lon="0.1730950">
        <ele>1791.2</ele>
        <time>2020-07-25T12:47:12Z</time>
      </trkpt>
      <trkpt lat="42.9102880" lon="0.1729530">
        <ele>1792.2</ele>
        <time>2020-07-25T12:47:16Z</time>
      </trkpt>
      <trkpt lat="42.9102860" lon="0.1729180">
        <ele>1792.4</ele>
        <time>2020-07-25T12:47:17Z</time>
      </trkpt>
      <trkpt lat="42.9102820" lon="0.1727440">
        <ele>1793.4</ele>
        <time>2020-07-25T12:47:22Z</time>
      </trkpt>
      <trkpt lat="42.9102870" lon="0.1726010">
        <ele>1794.4</ele>
        <time>2020-07-25T12:47:26Z</time>
      </trkpt>
      <trkpt lat="42.9102870" lon="0.1725290">
        <ele>1794.8</ele>
        <time>2020-07-25T12:47:28Z</time>
      </trkpt>
      <trkpt lat="42.9102880" lon="0.1724940">
        <ele>1795.2</ele>
        <time>2020-07-25T12:47:29Z</time>
      </trkpt>
      <trkpt lat="42.9102910" lon="0.1724220">
        <ele>1795.6</ele>
        <time>2020-07-25T12:47:31Z</time>
      </trkpt>
      <trkpt lat="42.9102930" lon="0.1723110">
        <ele>1796.2</ele>
        <time>2020-07-25T12:47:34Z</time>
      </trkpt>
      <trkpt lat="42.9102960" lon="0.1722390">
        <ele>1796.6</ele>
        <time>2020-07-25T12:47:36Z</time>
      </trkpt>
      <trkpt lat="42.9102970" lon="0.1722040">
        <ele>1797.0</ele>
        <time>2020-07-25T12:47:37Z</time>
      </trkpt>
      <trkpt lat="42.9102990" lon="0.1720610">
        <ele>1798.0</ele>
        <time>2020-07-25T12:47:41Z</time>
      </trkpt>
      <trkpt lat="42.9103000" lon="0.1720260">
        <ele>1798.2</ele>
        <time>2020-07-25T12:47:42Z</time>
      </trkpt>
      <trkpt lat="42.9103000" lon="0.1719570">
        <ele>1798.6</ele>
        <time>2020-07-25T12:47:44Z</time>
      </trkpt>
      <trkpt lat="42.9103010" lon="0.1718160">
        <ele>1799.0</ele>
        <time>2020-07-25T12:47:48Z</time>
      </trkpt>
      <trkpt lat="42.9103030" lon="0.1717150">
        <ele>1799.4</ele>
        <time>2020-07-25T12:47:51Z</time>
      </trkpt>
      <trkpt lat="42.9103040" lon="0.1716150">
        <ele>1800.2</ele>
        <time>2020-07-25T12:47:54Z</time>
      </trkpt>
      <trkpt lat="42.9103040" lon="0.1714550">
        <ele>1801.2</ele>
        <time>2020-07-25T12:47:59Z</time>
      </trkpt>
      <trkpt lat="42.9103030" lon="0.1714230">
        <ele>1801.4</ele>
        <time>2020-07-25T12:48:00Z</time>
      </trkpt>
      <trkpt lat="42.9103020" lon="0.1712900">
        <ele>1802.2</ele>
        <time>2020-07-25T12:48:04Z</time>
      </trkpt>
      <trkpt lat="42.9103030" lon="0.1712220">
        <ele>1802.6</ele>
        <time>2020-07-25T12:48:06Z</time>
      </trkpt>
      <trkpt lat="42.9103040" lon="0.1711880">
        <ele>1802.8</ele>
        <time>2020-07-25T12:48:07Z</time>
      </trkpt>
      <trkpt lat="42.9103040" lon="0.1710830">
        <ele>1803.2</ele>
        <time>2020-07-25T12:48:10Z</time>
      </trkpt>
      <trkpt lat="42.9103020" lon="0.1709430">
        <ele>1804.4</ele>
        <time>2020-07-25T12:48:14Z</time>
      </trkpt>
      <trkpt lat="42.9102970" lon="0.1708050">
        <ele>1805.4</ele>
        <time>2020-07-25T12:48:18Z</time>
      </trkpt>
      <trkpt lat="42.9102900" lon="0.1706340">
        <ele>1806.4</ele>
        <time>2020-07-25T12:48:23Z</time>
      </trkpt>
      <trkpt lat="42.9102870" lon="0.1705320">
        <ele>1807.0</ele>
        <time>2020-07-25T12:48:26Z</time>
      </trkpt>
      <trkpt lat="42.9102820" lon="0.1704640">
        <ele>1807.4</ele>
        <time>2020-07-25T12:48:28Z</time>
      </trkpt>
      <trkpt lat="42.9102810" lon="0.1704290">
        <ele>1807.6</ele>
        <time>2020-07-25T12:48:29Z</time>
      </trkpt>
      <trkpt lat="42.9102730" lon="0.1702560">
        <ele>1808.8</ele>
        <time>2020-07-25T12:48:34Z</time>
      </trkpt>
      <trkpt lat="42.9102620" lon="0.1700870">
        <ele>1810.0</ele>
        <time>2020-07-25T12:48:39Z</time>
      </trkpt>
      <trkpt lat="42.9102580" lon="0.1699190">
        <ele>1811.2</ele>
        <time>2020-07-25T12:48:44Z</time>
      </trkpt>
      <trkpt lat="42.9102510" lon="0.1697810">
        <ele>1812.0</ele>
        <time>2020-07-25T12:48:48Z</time>
      </trkpt>
      <trkpt lat="42.9102500" lon="0.1697450">
        <ele>1812.2</ele>
        <time>2020-07-25T12:48:49Z</time>
      </trkpt>
      <trkpt lat="42.9102410" lon="0.1696000">
        <ele>1813.2</ele>
        <time>2020-07-25T12:48:53Z</time>
      </trkpt>
      <trkpt lat="42.9102250" lon="0.1694580">
        <ele>1814.0</ele>
        <time>2020-07-25T12:48:57Z</time>
      </trkpt>
      <trkpt lat="42.9102120" lon="0.1693880">
        <ele>1814.6</ele>
        <time>2020-07-25T12:48:59Z</time>
      </trkpt>
      <trkpt lat="42.9101860" lon="0.1692890">
        <ele>1815.2</ele>
        <time>2020-07-25T12:49:02Z</time>
      </trkpt>
      <trkpt lat="42.9101530" lon="0.1691940">
        <ele>1815.6</ele>
        <time>2020-07-25T12:49:05Z</time>
      </trkpt>
      <trkpt lat="42.9101390" lon="0.1691630">
        <ele>1815.8</ele>
        <time>2020-07-25T12:49:06Z</time>
      </trkpt>
      <trkpt lat="42.9101010" lon="0.1690700">
        <ele>1816.8</ele>
        <time>2020-07-25T12:49:09Z</time>
      </trkpt>
      <trkpt lat="42.9100490" lon="0.1689500">
        <ele>1817.8</ele>
        <time>2020-07-25T12:49:13Z</time>
      </trkpt>
      <trkpt lat="42.9100370" lon="0.1689210">
        <ele>1818.0</ele>
        <time>2020-07-25T12:49:14Z</time>
      </trkpt>
      <trkpt lat="42.9100140" lon="0.1688640">
        <ele>1818.6</ele>
        <time>2020-07-25T12:49:16Z</time>
      </trkpt>
      <trkpt lat="42.9099900" lon="0.1688080">
        <ele>1819.2</ele>
        <time>2020-07-25T12:49:18Z</time>
      </trkpt>
      <trkpt lat="42.9099340" lon="0.1686580">
        <ele>1819.8</ele>
        <time>2020-07-25T12:49:23Z</time>
      </trkpt>
      <trkpt lat="42.9099160" lon="0.1685960">
        <ele>1820.2</ele>
        <time>2020-07-25T12:49:25Z</time>
      </trkpt>
      <trkpt lat="42.9098910" lon="0.1685010">
        <ele>1821.4</ele>
        <time>2020-07-25T12:49:28Z</time>
      </trkpt>
      <trkpt lat="42.9098640" lon="0.1683760">
        <ele>1822.0</ele>
        <time>2020-07-25T12:49:32Z</time>
      </trkpt>
      <trkpt lat="42.9098580" lon="0.1683450">
        <ele>1822.4</ele>
        <time>2020-07-25T12:49:33Z</time>
      </trkpt>
      <trkpt lat="42.9098280" lon="0.1681890">
        <ele>1823.4</ele>
        <time>2020-07-25T12:49:38Z</time>
      </trkpt>
      <trkpt lat="42.9098000" lon="0.1681000">
        <ele>1824.0</ele>
        <time>2020-07-25T12:49:41Z</time>
      </trkpt>
      <trkpt lat="42.9097590" lon="0.1680200">
        <ele>1824.8</ele>
        <time>2020-07-25T12:49:44Z</time>
      </trkpt>
      <trkpt lat="42.9096910" lon="0.1679140">
        <ele>1825.8</ele>
        <time>2020-07-25T12:49:48Z</time>
      </trkpt>
      <trkpt lat="42.9096750" lon="0.1678850">
        <ele>1826.0</ele>
        <time>2020-07-25T12:49:49Z</time>
      </trkpt>
      <trkpt lat="42.9096150" lon="0.1677640">
        <ele>1827.0</ele>
        <time>2020-07-25T12:49:53Z</time>
      </trkpt>
      <trkpt lat="42.9095520" lon="0.1676130">
        <ele>1828.0</ele>
        <time>2020-07-25T12:49:58Z</time>
      </trkpt>
      <trkpt lat="42.9095410" lon="0.1675810">
        <ele>1828.2</ele>
        <time>2020-07-25T12:49:59Z</time>
      </trkpt>
      <trkpt lat="42.9095000" lon="0.1674530">
        <ele>1829.2</ele>
        <time>2020-07-25T12:50:03Z</time>
      </trkpt>
      <trkpt lat="42.9094670" lon="0.1672790">
        <ele>1830.4</ele>
        <time>2020-07-25T12:50:08Z</time>
      </trkpt>
      <trkpt lat="42.9094470" lon="0.1670670">
        <ele>1831.6</ele>
        <time>2020-07-25T12:50:14Z</time>
      </trkpt>
      <trkpt lat="42.9094430" lon="0.1669690">
        <ele>1832.2</ele>
        <time>2020-07-25T12:50:17Z</time>
      </trkpt>
      <trkpt lat="42.9094380" lon="0.1668390">
        <ele>1832.6</ele>
        <time>2020-07-25T12:50:21Z</time>
      </trkpt>
      <trkpt lat="42.9094370" lon="0.1668060">
        <ele>1833.0</ele>
        <time>2020-07-25T12:50:22Z</time>
      </trkpt>
      <trkpt lat="42.9094380" lon="0.1667070">
        <ele>1834.2</ele>
        <time>2020-07-25T12:50:25Z</time>
      </trkpt>
      <trkpt lat="42.9094360" lon="0.1666760">
        <ele>1834.4</ele>
        <time>2020-07-25T12:50:26Z</time>
      </trkpt>
      <trkpt lat="42.9094310" lon="0.1665280">
        <ele>1835.4</ele>
        <time>2020-07-25T12:50:30Z</time>
      </trkpt>
      <trkpt lat="42.9094260" lon="0.1664080">
        <ele>1836.2</ele>
        <time>2020-07-25T12:50:33Z</time>
      </trkpt>
      <trkpt lat="42.9094250" lon="0.1662960">
        <ele>1836.6</ele>
        <time>2020-07-25T12:50:36Z</time>
      </trkpt>
      <trkpt lat="42.9094240" lon="0.1661520">
        <ele>1837.8</ele>
        <time>2020-07-25T12:50:40Z</time>
      </trkpt>
      <trkpt lat="42.9094200" lon="0.1660760">
        <ele>1838.2</ele>
        <time>2020-07-25T12:50:42Z</time>
      </trkpt>
      <trkpt lat="42.9094300" lon="0.1659670">
        <ele>1838.8</ele>
        <time>2020-07-25T12:50:45Z</time>
      </trkpt>
      <trkpt lat="42.9094400" lon="0.1658300">
        <ele>1839.8</ele>
        <time>2020-07-25T12:50:49Z</time>
      </trkpt>
      <trkpt lat="42.9094470" lon="0.1657970">
        <ele>1840.0</ele>
        <time>2020-07-25T12:50:50Z</time>
      </trkpt>
      <trkpt lat="42.9094890" lon="0.1655950">
        <ele>1841.2</ele>
        <time>2020-07-25T12:50:56Z</time>
      </trkpt>
      <trkpt lat="42.9094970" lon="0.1655630">
        <ele>1841.4</ele>
        <time>2020-07-25T12:50:57Z</time>
      </trkpt>
      <trkpt lat="42.9095180" lon="0.1654620">
        <ele>1842.2</ele>
        <time>2020-07-25T12:51:00Z</time>
      </trkpt>
      <trkpt lat="42.9095370" lon="0.1652880">
        <ele>1843.2</ele>
        <time>2020-07-25T12:51:05Z</time>
      </trkpt>
      <trkpt lat="42.9095530" lon="0.1651530">
        <ele>1844.2</ele>
        <time>2020-07-25T12:51:09Z</time>
      </trkpt>
      <trkpt lat="42.9095680" lon="0.1649400">
        <ele>1845.6</ele>
        <time>2020-07-25T12:51:15Z</time>
      </trkpt>
      <trkpt lat="42.9095850" lon="0.1647870">
        <ele>1846.8</ele>
        <time>2020-07-25T12:51:19Z</time>
      </trkpt>
      <trkpt lat="42.9096170" lon="0.1646070">
        <ele>1847.8</ele>
        <time>2020-07-25T12:51:24Z</time>
      </trkpt>
      <trkpt lat="42.9096530" lon="0.1643860">
        <ele>1849.0</ele>
        <time>2020-07-25T12:51:30Z</time>
      </trkpt>
      <trkpt lat="42.9096630" lon="0.1642810">
        <ele>1850.2</ele>
        <time>2020-07-25T12:51:33Z</time>
      </trkpt>
      <trkpt lat="42.9096620" lon="0.1642120">
        <ele>1850.6</ele>
        <time>2020-07-25T12:51:35Z</time>
      </trkpt>
      <trkpt lat="42.9096520" lon="0.1641490">
        <ele>1850.8</ele>
        <time>2020-07-25T12:51:37Z</time>
      </trkpt>
      <trkpt lat="42.9096460" lon="0.1641190">
        <ele>1851.0</ele>
        <time>2020-07-25T12:51:38Z</time>
      </trkpt>
      <trkpt lat="42.9096380" lon="0.1640910">
        <ele>1851.2</ele>
        <time>2020-07-25T12:51:39Z</time>
      </trkpt>
      <trkpt lat="42.9096010" lon="0.1639330">
        <ele>1852.6</ele>
        <time>2020-07-25T12:51:44Z</time>
      </trkpt>
      <trkpt lat="42.9095930" lon="0.1639040">
        <ele>1853.0</ele>
        <time>2020-07-25T12:51:45Z</time>
      </trkpt>
      <trkpt lat="42.9095630" lon="0.1637720">
        <ele>1853.8</ele>
        <time>2020-07-25T12:51:49Z</time>
      </trkpt>
      <trkpt lat="42.9095480" lon="0.1637000">
        <ele>1854.2</ele>
        <time>2020-07-25T12:51:51Z</time>
      </trkpt>
      <trkpt lat="42.9095390" lon="0.1636310">
        <ele>1854.8</ele>
        <time>2020-07-25T12:51:53Z</time>
      </trkpt>
      <trkpt lat="42.9095260" lon="0.1634950">
        <ele>1855.6</ele>
        <time>2020-07-25T12:51:57Z</time>
      </trkpt>
      <trkpt lat="42.9095170" lon="0.1634270">
        <ele>1855.8</ele>
        <time>2020-07-25T12:51:59Z</time>
      </trkpt>
      <trkpt lat="42.9095120" lon="0.1633940">
        <ele>1856.0</ele>
        <time>2020-07-25T12:52:00Z</time>
      </trkpt>
      <trkpt lat="42.9094990" lon="0.1632980">
        <ele>1856.6</ele>
        <time>2020-07-25T12:52:03Z</time>
      </trkpt>
      <trkpt lat="42.9094910" lon="0.1632330">
        <ele>1857.0</ele>
        <time>2020-07-25T12:52:05Z</time>
      </trkpt>
      <trkpt lat="42.9094690" lon="0.1631060">
        <ele>1858.0</ele>
        <time>2020-07-25T12:52:09Z</time>
      </trkpt>
      <trkpt lat="42.9094630" lon="0.1630740">
        <ele>1858.2</ele>
        <time>2020-07-25T12:52:10Z</time>
      </trkpt>
      <trkpt lat="42.9094340" lon="0.1629480">
        <ele>1859.4</ele>
        <time>2020-07-25T12:52:14Z</time>
      </trkpt>
      <trkpt lat="42.9094010" lon="0.1628520">
        <ele>1860.2</ele>
        <time>2020-07-25T12:52:17Z</time>
      </trkpt>
      <trkpt lat="42.9093790" lon="0.1627910">
        <ele>1860.6</ele>
        <time>2020-07-25T12:52:19Z</time>
      </trkpt>
      <trkpt lat="42.9092880" lon="0.1626130">
        <ele>1861.6</ele>
        <time>2020-07-25T12:52:25Z</time>
      </trkpt>
      <trkpt lat="42.9092310" lon="0.1625070">
        <ele>1863.0</ele>
        <time>2020-07-25T12:52:29Z</time>
      </trkpt>
      <trkpt lat="42.9091790" lon="0.1623950">
        <ele>1864.2</ele>
        <time>2020-07-25T12:52:33Z</time>
      </trkpt>
      <trkpt lat="42.9091210" lon="0.1622480">
        <ele>1865.4</ele>
        <time>2020-07-25T12:52:38Z</time>
      </trkpt>
      <trkpt lat="42.9090600" lon="0.1621010">
        <ele>1866.4</ele>
        <time>2020-07-25T12:52:43Z</time>
      </trkpt>
      <trkpt lat="42.9090100" lon="0.1619500">
        <ele>1867.2</ele>
        <time>2020-07-25T12:52:48Z</time>
      </trkpt>
      <trkpt lat="42.9089930" lon="0.1618980">
        <ele>1867.6</ele>
        <time>2020-07-25T12:52:50Z</time>
      </trkpt>
      <trkpt lat="42.9089870" lon="0.1618720">
        <ele>1867.8</ele>
        <time>2020-07-25T12:52:51Z</time>
      </trkpt>
      <trkpt lat="42.9089410" lon="0.1617080">
        <ele>1868.6</ele>
        <time>2020-07-25T12:52:57Z</time>
      </trkpt>
      <trkpt lat="42.9089340" lon="0.1616800">
        <ele>1868.8</ele>
        <time>2020-07-25T12:52:58Z</time>
      </trkpt>
      <trkpt lat="42.9089140" lon="0.1615970">
        <ele>1869.6</ele>
        <time>2020-07-25T12:53:01Z</time>
      </trkpt>
      <trkpt lat="42.9088830" lon="0.1614580">
        <ele>1870.8</ele>
        <time>2020-07-25T12:53:06Z</time>
      </trkpt>
      <trkpt lat="42.9088790" lon="0.1614270">
        <ele>1870.8</ele>
        <time>2020-07-25T12:53:07Z</time>
      </trkpt>
      <trkpt lat="42.9088520" lon="0.1613020">
        <ele>1871.6</ele>
        <time>2020-07-25T12:53:11Z</time>
      </trkpt>
      <trkpt lat="42.9088420" lon="0.1612700">
        <ele>1871.8</ele>
        <time>2020-07-25T12:53:12Z</time>
      </trkpt>
      <trkpt lat="42.9088050" lon="0.1611360">
        <ele>1872.8</ele>
        <time>2020-07-25T12:53:16Z</time>
      </trkpt>
      <trkpt lat="42.9087940" lon="0.1611020">
        <ele>1873.0</ele>
        <time>2020-07-25T12:53:17Z</time>
      </trkpt>
      <trkpt lat="42.9087570" lon="0.1609540">
        <ele>1874.2</ele>
        <time>2020-07-25T12:53:21Z</time>
      </trkpt>
      <trkpt lat="42.9087190" lon="0.1607720">
        <ele>1875.4</ele>
        <time>2020-07-25T12:53:26Z</time>
      </trkpt>
      <trkpt lat="42.9086840" lon="0.1605520">
        <ele>1876.4</ele>
        <time>2020-07-25T12:53:32Z</time>
      </trkpt>
      <trkpt lat="42.9086650" lon="0.1604440">
        <ele>1877.4</ele>
        <time>2020-07-25T12:53:35Z</time>
      </trkpt>
      <trkpt lat="42.9086600" lon="0.1604100">
        <ele>1877.6</ele>
        <time>2020-07-25T12:53:36Z</time>
      </trkpt>
      <trkpt lat="42.9086300" lon="0.1602450">
        <ele>1878.8</ele>
        <time>2020-07-25T12:53:41Z</time>
      </trkpt>
      <trkpt lat="42.9086260" lon="0.1602130">
        <ele>1879.0</ele>
        <time>2020-07-25T12:53:42Z</time>
      </trkpt>
      <trkpt lat="42.9086040" lon="0.1600820">
        <ele>1879.8</ele>
        <time>2020-07-25T12:53:46Z</time>
      </trkpt>
      <trkpt lat="42.9085970" lon="0.1599820">
        <ele>1880.2</ele>
        <time>2020-07-25T12:53:49Z</time>
      </trkpt>
      <trkpt lat="42.9085820" lon="0.1598570">
        <ele>1881.0</ele>
        <time>2020-07-25T12:53:53Z</time>
      </trkpt>
      <trkpt lat="42.9085640" lon="0.1598050">
        <ele>1881.8</ele>
        <time>2020-07-25T12:53:55Z</time>
      </trkpt>
      <trkpt lat="42.9085530" lon="0.1597790">
        <ele>1882.2</ele>
        <time>2020-07-25T12:53:56Z</time>
      </trkpt>
      <trkpt lat="42.9085210" lon="0.1596240">
        <ele>1883.4</ele>
        <time>2020-07-25T12:54:01Z</time>
      </trkpt>
      <trkpt lat="42.9084910" lon="0.1595050">
        <ele>1884.0</ele>
        <time>2020-07-25T12:54:05Z</time>
      </trkpt>
      <trkpt lat="42.9084620" lon="0.1594230">
        <ele>1884.6</ele>
        <time>2020-07-25T12:54:08Z</time>
      </trkpt>
      <trkpt lat="42.9084530" lon="0.1593950">
        <ele>1884.6</ele>
        <time>2020-07-25T12:54:09Z</time>
      </trkpt>
      <trkpt lat="42.9084060" lon="0.1592880">
        <ele>1885.6</ele>
        <time>2020-07-25T12:54:13Z</time>
      </trkpt>
      <trkpt lat="42.9083710" lon="0.1592070">
        <ele>1886.4</ele>
        <time>2020-07-25T12:54:16Z</time>
      </trkpt>
      <trkpt lat="42.9083450" lon="0.1591590">
        <ele>1886.8</ele>
        <time>2020-07-25T12:54:18Z</time>
      </trkpt>
      <trkpt lat="42.9082950" lon="0.1590550">
        <ele>1887.8</ele>
        <time>2020-07-25T12:54:22Z</time>
      </trkpt>
      <trkpt lat="42.9082810" lon="0.1590290">
        <ele>1888.0</ele>
        <time>2020-07-25T12:54:23Z</time>
      </trkpt>
      <trkpt lat="42.9082150" lon="0.1589410">
        <ele>1889.0</ele>
        <time>2020-07-25T12:54:27Z</time>
      </trkpt>
      <trkpt lat="42.9081590" lon="0.1588780">
        <ele>1889.6</ele>
        <time>2020-07-25T12:54:30Z</time>
      </trkpt>
      <trkpt lat="42.9080840" lon="0.1587950">
        <ele>1890.2</ele>
        <time>2020-07-25T12:54:34Z</time>
      </trkpt>
      <trkpt lat="42.9080170" lon="0.1587090">
        <ele>1891.2</ele>
        <time>2020-07-25T12:54:38Z</time>
      </trkpt>
      <trkpt lat="42.9079690" lon="0.1586440">
        <ele>1892.2</ele>
        <time>2020-07-25T12:54:41Z</time>
      </trkpt>
      <trkpt lat="42.9078770" lon="0.1585000">
        <ele>1893.4</ele>
        <time>2020-07-25T12:54:47Z</time>
      </trkpt>
      <trkpt lat="42.9078460" lon="0.1584540">
        <ele>1893.8</ele>
        <time>2020-07-25T12:54:49Z</time>
      </trkpt>
      <trkpt lat="42.9078060" lon="0.1583810">
        <ele>1894.6</ele>
        <time>2020-07-25T12:54:52Z</time>
      </trkpt>
      <trkpt lat="42.9077510" lon="0.1582800">
        <ele>1895.2</ele>
        <time>2020-07-25T12:54:56Z</time>
      </trkpt>
      <trkpt lat="42.9077110" lon="0.1582070">
        <ele>1895.6</ele>
        <time>2020-07-25T12:54:59Z</time>
      </trkpt>
      <trkpt lat="42.9076580" lon="0.1581030">
        <ele>1896.8</ele>
        <time>2020-07-25T12:55:03Z</time>
      </trkpt>
      <trkpt lat="42.9076210" lon="0.1580570">
        <ele>1897.4</ele>
        <time>2020-07-25T12:55:05Z</time>
      </trkpt>
      <trkpt lat="42.9075820" lon="0.1580110">
        <ele>1897.8</ele>
        <time>2020-07-25T12:55:07Z</time>
      </trkpt>
      <trkpt lat="42.9074900" lon="0.1578870">
        <ele>1898.8</ele>
        <time>2020-07-25T12:55:12Z</time>
      </trkpt>
      <trkpt lat="42.9074560" lon="0.1578340">
        <ele>1899.2</ele>
        <time>2020-07-25T12:55:14Z</time>
      </trkpt>
      <trkpt lat="42.9074130" lon="0.1577480">
        <ele>1900.0</ele>
        <time>2020-07-25T12:55:17Z</time>
      </trkpt>
      <trkpt lat="42.9073570" lon="0.1575920">
        <ele>1901.2</ele>
        <time>2020-07-25T12:55:22Z</time>
      </trkpt>
      <trkpt lat="42.9073120" lon="0.1574430">
        <ele>1902.2</ele>
        <time>2020-07-25T12:55:27Z</time>
      </trkpt>
      <trkpt lat="42.9072820" lon="0.1573510">
        <ele>1903.0</ele>
        <time>2020-07-25T12:55:30Z</time>
      </trkpt>
      <trkpt lat="42.9072570" lon="0.1572960">
        <ele>1903.6</ele>
        <time>2020-07-25T12:55:32Z</time>
      </trkpt>
      <trkpt lat="42.9072110" lon="0.1572230">
        <ele>1904.6</ele>
        <time>2020-07-25T12:55:35Z</time>
      </trkpt>
      <trkpt lat="42.9071540" lon="0.1571510">
        <ele>1905.2</ele>
        <time>2020-07-25T12:55:38Z</time>
      </trkpt>
      <trkpt lat="42.9070850" lon="0.1570470">
        <ele>1905.8</ele>
        <time>2020-07-25T12:55:42Z</time>
      </trkpt>
      <trkpt lat="42.9070060" lon="0.1569150">
        <ele>1906.6</ele>
        <time>2020-07-25T12:55:47Z</time>
      </trkpt>
      <trkpt lat="42.9069920" lon="0.1568870">
        <ele>1906.8</ele>
        <time>2020-07-25T12:55:48Z</time>
      </trkpt>
      <trkpt lat="42.9069240" lon="0.1567130">
        <ele>1908.0</ele>
        <time>2020-07-25T12:55:54Z</time>
      </trkpt>
      <trkpt lat="42.9069050" lon="0.1566570">
        <ele>1908.4</ele>
        <time>2020-07-25T12:55:56Z</time>
      </trkpt>
      <trkpt lat="42.9068750" lon="0.1565660">
        <ele>1909.4</ele>
        <time>2020-07-25T12:55:59Z</time>
      </trkpt>
      <trkpt lat="42.9068370" lon="0.1564400">
        <ele>1910.4</ele>
        <time>2020-07-25T12:56:03Z</time>
      </trkpt>
      <trkpt lat="42.9068280" lon="0.1564090">
        <ele>1910.6</ele>
        <time>2020-07-25T12:56:04Z</time>
      </trkpt>
      <trkpt lat="42.9067760" lon="0.1562540">
        <ele>1911.4</ele>
        <time>2020-07-25T12:56:09Z</time>
      </trkpt>
      <trkpt lat="42.9067350" lon="0.1561290">
        <ele>1912.4</ele>
        <time>2020-07-25T12:56:13Z</time>
      </trkpt>
      <trkpt lat="42.9067130" lon="0.1560680">
        <ele>1912.8</ele>
        <time>2020-07-25T12:56:15Z</time>
      </trkpt>
      <trkpt lat="42.9066870" lon="0.1559720">
        <ele>1913.6</ele>
        <time>2020-07-25T12:56:18Z</time>
      </trkpt>
      <trkpt lat="42.9066620" lon="0.1558100">
        <ele>1914.4</ele>
        <time>2020-07-25T12:56:23Z</time>
      </trkpt>
      <trkpt lat="42.9066590" lon="0.1557770">
        <ele>1914.8</ele>
        <time>2020-07-25T12:56:24Z</time>
      </trkpt>
      <trkpt lat="42.9066470" lon="0.1556130">
        <ele>1915.8</ele>
        <time>2020-07-25T12:56:29Z</time>
      </trkpt>
      <trkpt lat="42.9066450" lon="0.1555800">
        <ele>1916.2</ele>
        <time>2020-07-25T12:56:30Z</time>
      </trkpt>
      <trkpt lat="42.9066250" lon="0.1554560">
        <ele>1916.8</ele>
        <time>2020-07-25T12:56:34Z</time>
      </trkpt>
      <trkpt lat="42.9066000" lon="0.1553700">
        <ele>1917.6</ele>
        <time>2020-07-25T12:56:37Z</time>
      </trkpt>
      <trkpt lat="42.9065800" lon="0.1553080">
        <ele>1918.0</ele>
        <time>2020-07-25T12:56:39Z</time>
      </trkpt>
      <trkpt lat="42.9065380" lon="0.1551480">
        <ele>1919.0</ele>
        <time>2020-07-25T12:56:44Z</time>
      </trkpt>
      <trkpt lat="42.9065330" lon="0.1551140">
        <ele>1919.2</ele>
        <time>2020-07-25T12:56:45Z</time>
      </trkpt>
      <trkpt lat="42.9065230" lon="0.1549780">
        <ele>1920.4</ele>
        <time>2020-07-25T12:56:49Z</time>
      </trkpt>
      <trkpt lat="42.9065190" lon="0.1548750">
        <ele>1921.0</ele>
        <time>2020-07-25T12:56:52Z</time>
      </trkpt>
      <trkpt lat="42.9065180" lon="0.1547710">
        <ele>1921.6</ele>
        <time>2020-07-25T12:56:55Z</time>
      </trkpt>
      <trkpt lat="42.9065140" lon="0.1546380">
        <ele>1922.8</ele>
        <time>2020-07-25T12:56:59Z</time>
      </trkpt>
      <trkpt lat="42.9065150" lon="0.1546050">
        <ele>1923.0</ele>
        <time>2020-07-25T12:57:00Z</time>
      </trkpt>
      <trkpt lat="42.9065160" lon="0.1544160">
        <ele>1923.8</ele>
        <time>2020-07-25T12:57:06Z</time>
      </trkpt>
      <trkpt lat="42.9065190" lon="0.1543470">
        <ele>1924.2</ele>
        <time>2020-07-25T12:57:08Z</time>
      </trkpt>
      <trkpt lat="42.9065260" lon="0.1542420">
        <ele>1925.2</ele>
        <time>2020-07-25T12:57:11Z</time>
      </trkpt>
      <trkpt lat="42.9065380" lon="0.1540620">
        <ele>1926.0</ele>
        <time>2020-07-25T12:57:16Z</time>
      </trkpt>
      <trkpt lat="42.9065630" lon="0.1539620">
        <ele>1926.6</ele>
        <time>2020-07-25T12:57:19Z</time>
      </trkpt>
      <trkpt lat="42.9066120" lon="0.1538810">
        <ele>1927.0</ele>
        <time>2020-07-25T12:57:22Z</time>
      </trkpt>
      <trkpt lat="42.9066800" lon="0.1538500">
        <ele>1927.6</ele>
        <time>2020-07-25T12:57:25Z</time>
      </trkpt>
      <trkpt lat="42.9067030" lon="0.1538570">
        <ele>1928.0</ele>
        <time>2020-07-25T12:57:26Z</time>
      </trkpt>
      <trkpt lat="42.9067410" lon="0.1538980">
        <ele>1928.8</ele>
        <time>2020-07-25T12:57:28Z</time>
      </trkpt>
      <trkpt lat="42.9067650" lon="0.1540010">
        <ele>1930.0</ele>
        <time>2020-07-25T12:57:31Z</time>
      </trkpt>
      <trkpt lat="42.9067580" lon="0.1541250">
        <ele>1931.0</ele>
        <time>2020-07-25T12:57:34Z</time>
      </trkpt>
      <trkpt lat="42.9067450" lon="0.1542400">
        <ele>1931.8</ele>
        <time>2020-07-25T12:57:37Z</time>
      </trkpt>
      <trkpt lat="42.9067390" lon="0.1542730">
        <ele>1932.0</ele>
        <time>2020-07-25T12:57:38Z</time>
      </trkpt>
      <trkpt lat="42.9067360" lon="0.1543120">
        <ele>1932.2</ele>
        <time>2020-07-25T12:57:39Z</time>
      </trkpt>
      <trkpt lat="42.9067200" lon="0.1545040">
        <ele>1933.4</ele>
        <time>2020-07-25T12:57:44Z</time>
      </trkpt>
      <trkpt lat="42.9067170" lon="0.1545420">
        <ele>1933.6</ele>
        <time>2020-07-25T12:57:45Z</time>
      </trkpt>
      <trkpt lat="42.9067210" lon="0.1546240">
        <ele>1934.2</ele>
        <time>2020-07-25T12:57:47Z</time>
      </trkpt>
      <trkpt lat="42.9067290" lon="0.1546640">
        <ele>1934.4</ele>
        <time>2020-07-25T12:57:48Z</time>
      </trkpt>
      <trkpt lat="42.9067690" lon="0.1547700">
        <ele>1936.0</ele>
        <time>2020-07-25T12:57:51Z</time>
      </trkpt>
      <trkpt lat="42.9068010" lon="0.1548330">
        <ele>1936.6</ele>
        <time>2020-07-25T12:57:53Z</time>
      </trkpt>
      <trkpt lat="42.9068370" lon="0.1548870">
        <ele>1937.0</ele>
        <time>2020-07-25T12:57:55Z</time>
      </trkpt>
      <trkpt lat="42.9069110" lon="0.1549840">
        <ele>1938.2</ele>
        <time>2020-07-25T12:57:59Z</time>
      </trkpt>
      <trkpt lat="42.9069470" lon="0.1550330">
        <ele>1938.6</ele>
        <time>2020-07-25T12:58:01Z</time>
      </trkpt>
      <trkpt lat="42.9070050" lon="0.1550990">
        <ele>1939.4</ele>
        <time>2020-07-25T12:58:04Z</time>
      </trkpt>
      <trkpt lat="42.9070830" lon="0.1551830">
        <ele>1940.8</ele>
        <time>2020-07-25T12:58:08Z</time>
      </trkpt>
      <trkpt lat="42.9071140" lon="0.1552390">
        <ele>1941.6</ele>
        <time>2020-07-25T12:58:10Z</time>
      </trkpt>
      <trkpt lat="42.9071470" lon="0.1552920">
        <ele>1942.0</ele>
        <time>2020-07-25T12:58:12Z</time>
      </trkpt>
      <trkpt lat="42.9072450" lon="0.1554340">
        <ele>1942.8</ele>
        <time>2020-07-25T12:58:18Z</time>
      </trkpt>
      <trkpt lat="42.9072570" lon="0.1554580">
        <ele>1943.0</ele>
        <time>2020-07-25T12:58:19Z</time>
      </trkpt>
      <trkpt lat="42.9073060" lon="0.1555240">
        <ele>1944.2</ele>
        <time>2020-07-25T12:58:22Z</time>
      </trkpt>
      <trkpt lat="42.9073490" lon="0.1555630">
        <ele>1944.6</ele>
        <time>2020-07-25T12:58:24Z</time>
      </trkpt>
      <trkpt lat="42.9073930" lon="0.1555890">
        <ele>1945.2</ele>
        <time>2020-07-25T12:58:26Z</time>
      </trkpt>
      <trkpt lat="42.9074140" lon="0.1555990">
        <ele>1945.6</ele>
        <time>2020-07-25T12:58:27Z</time>
      </trkpt>
      <trkpt lat="42.9075070" lon="0.1556310">
        <ele>1946.2</ele>
        <time>2020-07-25T12:58:31Z</time>
      </trkpt>
      <trkpt lat="42.9075540" lon="0.1556550">
        <ele>1946.2</ele>
        <time>2020-07-25T12:58:33Z</time>
      </trkpt>
      <trkpt lat="42.9075970" lon="0.1556830">
        <ele>1946.4</ele>
        <time>2020-07-25T12:58:35Z</time>
      </trkpt>
      <trkpt lat="42.9076340" lon="0.1557190">
        <ele>1947.0</ele>
        <time>2020-07-25T12:58:37Z</time>
      </trkpt>
      <trkpt lat="42.9076530" lon="0.1557370">
        <ele>1947.4</ele>
        <time>2020-07-25T12:58:38Z</time>
      </trkpt>
      <trkpt lat="42.9076700" lon="0.1557580">
        <ele>1948.0</ele>
        <time>2020-07-25T12:58:39Z</time>
      </trkpt>
      <trkpt lat="42.9077070" lon="0.1558000">
        <ele>1948.6</ele>
        <time>2020-07-25T12:58:41Z</time>
      </trkpt>
      <trkpt lat="42.9078000" lon="0.1559090">
        <ele>1949.8</ele>
        <time>2020-07-25T12:58:46Z</time>
      </trkpt>
      <trkpt lat="42.9078670" lon="0.1560030">
        <ele>1950.2</ele>
        <time>2020-07-25T12:58:50Z</time>
      </trkpt>
      <trkpt lat="42.9079530" lon="0.1561480">
        <ele>1951.0</ele>
        <time>2020-07-25T12:58:56Z</time>
      </trkpt>
      <trkpt lat="42.9079830" lon="0.1561880">
        <ele>1951.8</ele>
        <time>2020-07-25T12:58:58Z</time>
      </trkpt>
      <trkpt lat="42.9079990" lon="0.1562080">
        <ele>1952.2</ele>
        <time>2020-07-25T12:58:59Z</time>
      </trkpt>
      <trkpt lat="42.9080490" lon="0.1562560">
        <ele>1953.2</ele>
        <time>2020-07-25T12:59:02Z</time>
      </trkpt>
      <trkpt lat="42.9081240" lon="0.1562770">
        <ele>1954.0</ele>
        <time>2020-07-25T12:59:06Z</time>
      </trkpt>
      <trkpt lat="42.9081630" lon="0.1562630">
        <ele>1954.4</ele>
        <time>2020-07-25T12:59:08Z</time>
      </trkpt>
      <trkpt lat="42.9082030" lon="0.1562370">
        <ele>1955.2</ele>
        <time>2020-07-25T12:59:10Z</time>
      </trkpt>
      <trkpt lat="42.9082540" lon="0.1562150">
        <ele>1955.6</ele>
        <time>2020-07-25T12:59:12Z</time>
      </trkpt>
      <trkpt lat="42.9083620" lon="0.1562150">
        <ele>1956.6</ele>
        <time>2020-07-25T12:59:16Z</time>
      </trkpt>
      <trkpt lat="42.9084100" lon="0.1562400">
        <ele>1957.2</ele>
        <time>2020-07-25T12:59:18Z</time>
      </trkpt>
      <trkpt lat="42.9085180" lon="0.1563130">
        <ele>1957.8</ele>
        <time>2020-07-25T12:59:23Z</time>
      </trkpt>
      <trkpt lat="42.9086060" lon="0.1563540">
        <ele>1959.0</ele>
        <time>2020-07-25T12:59:27Z</time>
      </trkpt>
      <trkpt lat="42.9086290" lon="0.1563620">
        <ele>1959.2</ele>
        <time>2020-07-25T12:59:28Z</time>
      </trkpt>
      <trkpt lat="42.9086960" lon="0.1563780">
        <ele>1960.2</ele>
        <time>2020-07-25T12:59:31Z</time>
      </trkpt>
      <trkpt lat="42.9087390" lon="0.1563870">
        <ele>1960.8</ele>
        <time>2020-07-25T12:59:33Z</time>
      </trkpt>
      <trkpt lat="42.9087810" lon="0.1564030">
        <ele>1961.2</ele>
        <time>2020-07-25T12:59:35Z</time>
      </trkpt>
      <trkpt lat="42.9088030" lon="0.1564080">
        <ele>1961.4</ele>
        <time>2020-07-25T12:59:36Z</time>
      </trkpt>
      <trkpt lat="42.9089080" lon="0.1564080">
        <ele>1962.2</ele>
        <time>2020-07-25T12:59:41Z</time>
      </trkpt>
      <trkpt lat="42.9089880" lon="0.1563830">
        <ele>1962.6</ele>
        <time>2020-07-25T12:59:45Z</time>
      </trkpt>
      <trkpt lat="42.9090850" lon="0.1563090">
        <ele>1963.4</ele>
        <time>2020-07-25T12:59:50Z</time>
      </trkpt>
      <trkpt lat="42.9091400" lon="0.1562590">
        <ele>1964.2</ele>
        <time>2020-07-25T12:59:53Z</time>
      </trkpt>
      <trkpt lat="42.9091600" lon="0.1562450">
        <ele>1964.4</ele>
        <time>2020-07-25T12:59:54Z</time>
      </trkpt>
      <trkpt lat="42.9091800" lon="0.1562310">
        <ele>1964.6</ele>
        <time>2020-07-25T12:59:55Z</time>
      </trkpt>
      <trkpt lat="42.9092780" lon="0.1561490">
        <ele>1965.8</ele>
        <time>2020-07-25T13:00:00Z</time>
      </trkpt>
      <trkpt lat="42.9093540" lon="0.1560910">
        <ele>1966.8</ele>
        <time>2020-07-25T13:00:04Z</time>
      </trkpt>
      <trkpt lat="42.9094710" lon="0.1560070">
        <ele>1967.4</ele>
        <time>2020-07-25T13:00:10Z</time>
      </trkpt>
      <trkpt lat="42.9095380" lon="0.1559890">
        <ele>1967.8</ele>
        <time>2020-07-25T13:00:13Z</time>
      </trkpt>
      <trkpt lat="42.9096270" lon="0.1559820">
        <ele>1969.0</ele>
        <time>2020-07-25T13:00:17Z</time>
      </trkpt>
      <trkpt lat="42.9096690" lon="0.1559970">
        <ele>1969.6</ele>
        <time>2020-07-25T13:00:19Z</time>
      </trkpt>
      <trkpt lat="42.9097260" lon="0.1560380">
        <ele>1970.0</ele>
        <time>2020-07-25T13:00:22Z</time>
      </trkpt>
      <trkpt lat="42.9097920" lon="0.1561240">
        <ele>1971.0</ele>
        <time>2020-07-25T13:00:26Z</time>
      </trkpt>
      <trkpt lat="42.9098070" lon="0.1561490">
        <ele>1971.2</ele>
        <time>2020-07-25T13:00:27Z</time>
      </trkpt>
      <trkpt lat="42.9099030" lon="0.1562420">
        <ele>1972.4</ele>
        <time>2020-07-25T13:00:32Z</time>
      </trkpt>
      <trkpt lat="42.9099240" lon="0.1562540">
        <ele>1972.6</ele>
        <time>2020-07-25T13:00:33Z</time>
      </trkpt>
      <trkpt lat="42.9100320" lon="0.1562600">
        <ele>1973.0</ele>
        <time>2020-07-25T13:00:38Z</time>
      </trkpt>
      <trkpt lat="42.9100550" lon="0.1562480">
        <ele>1973.2</ele>
        <time>2020-07-25T13:00:39Z</time>
      </trkpt>
      <trkpt lat="42.9100770" lon="0.1562340">
        <ele>1973.4</ele>
        <time>2020-07-25T13:00:40Z</time>
      </trkpt>
      <trkpt lat="42.9101510" lon="0.1561230">
        <ele>1974.6</ele>
        <time>2020-07-25T13:00:45Z</time>
      </trkpt>
      <trkpt lat="42.9101780" lon="0.1559690">
        <ele>1975.6</ele>
        <time>2020-07-25T13:00:50Z</time>
      </trkpt>
      <trkpt lat="42.9101710" lon="0.1559060">
        <ele>1975.8</ele>
        <time>2020-07-25T13:00:52Z</time>
      </trkpt>
      <trkpt lat="42.9101510" lon="0.1558450">
        <ele>1976.0</ele>
        <time>2020-07-25T13:00:54Z</time>
      </trkpt>
      <trkpt lat="42.9100820" lon="0.1557110">
        <ele>1976.6</ele>
        <time>2020-07-25T13:00:59Z</time>
      </trkpt>
      <trkpt lat="42.9100670" lon="0.1556850">
        <ele>1976.8</ele>
        <time>2020-07-25T13:01:00Z</time>
      </trkpt>
      <trkpt lat="42.9099850" lon="0.1555760">
        <ele>1977.8</ele>
        <time>2020-07-25T13:01:05Z</time>
      </trkpt>
      <trkpt lat="42.9098750" lon="0.1554770">
        <ele>1978.6</ele>
        <time>2020-07-25T13:01:11Z</time>
      </trkpt>
      <trkpt lat="42.9098180" lon="0.1554320">
        <ele>1978.8</ele>
        <time>2020-07-25T13:01:14Z</time>
      </trkpt>
      <trkpt lat="42.9097560" lon="0.1553990">
        <ele>1979.6</ele>
        <time>2020-07-25T13:01:17Z</time>
      </trkpt>
      <trkpt lat="42.9097360" lon="0.1553880">
        <ele>1980.0</ele>
        <time>2020-07-25T13:01:18Z</time>
      </trkpt>
      <trkpt lat="42.9096800" lon="0.1553430">
        <ele>1980.8</ele>
        <time>2020-07-25T13:01:21Z</time>
      </trkpt>
      <trkpt lat="42.9096620" lon="0.1553270">
        <ele>1981.0</ele>
        <time>2020-07-25T13:01:22Z</time>
      </trkpt>
      <trkpt lat="42.9096130" lon="0.1552730">
        <ele>1981.6</ele>
        <time>2020-07-25T13:01:25Z</time>
      </trkpt>
      <trkpt lat="42.9095870" lon="0.1552350">
        <ele>1982.0</ele>
        <time>2020-07-25T13:01:27Z</time>
      </trkpt>
      <trkpt lat="42.9095130" lon="0.1551090">
        <ele>1982.8</ele>
        <time>2020-07-25T13:01:33Z</time>
      </trkpt>
      <trkpt lat="42.9094760" lon="0.1550440">
        <ele>1983.0</ele>
        <time>2020-07-25T13:01:36Z</time>
      </trkpt>
      <trkpt lat="42.9094040" lon="0.1549420">
        <ele>1984.2</ele>
        <time>2020-07-25T13:01:41Z</time>
      </trkpt>
      <trkpt lat="42.9093890" lon="0.1549190">
        <ele>1984.4</ele>
        <time>2020-07-25T13:01:42Z</time>
      </trkpt>
      <trkpt lat="42.9093400" lon="0.1548650">
        <ele>1985.2</ele>
        <time>2020-07-25T13:01:45Z</time>
      </trkpt>
      <trkpt lat="42.9093280" lon="0.1548440">
        <ele>1985.6</ele>
        <time>2020-07-25T13:01:46Z</time>
      </trkpt>
      <trkpt lat="42.9093180" lon="0.1548190">
        <ele>1985.6</ele>
        <time>2020-07-25T13:01:47Z</time>
      </trkpt>
      <trkpt lat="42.9092700" lon="0.1547360">
        <ele>1986.4</ele>
        <time>2020-07-25T13:01:51Z</time>
      </trkpt>
      <trkpt lat="42.9092290" lon="0.1546800">
        <ele>1986.8</ele>
        <time>2020-07-25T13:01:54Z</time>
      </trkpt>
      <trkpt lat="42.9092150" lon="0.1546620">
        <ele>1987.0</ele>
        <time>2020-07-25T13:01:55Z</time>
      </trkpt>
      <trkpt lat="42.9091990" lon="0.1546440">
        <ele>1987.4</ele>
        <time>2020-07-25T13:01:56Z</time>
      </trkpt>
      <trkpt lat="42.9091090" lon="0.1545870">
        <ele>1988.6</ele>
        <time>2020-07-25T13:02:01Z</time>
      </trkpt>
      <trkpt lat="42.9090920" lon="0.1545840">
        <ele>1988.8</ele>
        <time>2020-07-25T13:02:02Z</time>
      </trkpt>
      <trkpt lat="42.9090770" lon="0.1545810">
        <ele>1988.8</ele>
        <time>2020-07-25T13:02:03Z</time>
      </trkpt>
      <trkpt lat="42.9090410" lon="0.1545750">
        <ele>1989.4</ele>
        <time>2020-07-25T13:02:06Z</time>
      </trkpt>
      <trkpt lat="42.9090220" lon="0.1545730">
        <ele>1989.6</ele>
        <time>2020-07-25T13:02:08Z</time>
      </trkpt>
      <trkpt lat="42.9090110" lon="0.1545710">
        <ele>1989.6</ele>
        <time>2020-07-25T13:02:09Z</time>
      </trkpt>
      <trkpt lat="42.9089350" lon="0.1545630">
        <ele>1990.4</ele>
        <time>2020-07-25T13:02:15Z</time>
      </trkpt>
      <trkpt lat="42.9089180" lon="0.1545610">
        <ele>1990.6</ele>
        <time>2020-07-25T13:02:16Z</time>
      </trkpt>
      <trkpt lat="42.9088990" lon="0.1545580">
        <ele>1990.6</ele>
        <time>2020-07-25T13:02:17Z</time>
      </trkpt>
      <trkpt lat="42.9088780" lon="0.1545560">
        <ele>1990.8</ele>
        <time>2020-07-25T13:02:18Z</time>
      </trkpt>
      <trkpt lat="42.9088350" lon="0.1545400">
        <ele>1991.0</ele>
        <time>2020-07-25T13:02:20Z</time>
      </trkpt>
      <trkpt lat="42.9087760" lon="0.1544960">
        <ele>1991.8</ele>
        <time>2020-07-25T13:02:23Z</time>
      </trkpt>
      <trkpt lat="42.9086880" lon="0.1543440">
        <ele>1993.2</ele>
        <time>2020-07-25T13:02:29Z</time>
      </trkpt>
      <trkpt lat="42.9086670" lon="0.1542870">
        <ele>1993.6</ele>
        <time>2020-07-25T13:02:31Z</time>
      </trkpt>
      <trkpt lat="42.9086340" lon="0.1542040">
        <ele>1993.8</ele>
        <time>2020-07-25T13:02:34Z</time>
      </trkpt>
      <trkpt lat="42.9086110" lon="0.1541490">
        <ele>1994.4</ele>
        <time>2020-07-25T13:02:36Z</time>
      </trkpt>
      <trkpt lat="42.9085770" lon="0.1540640">
        <ele>1995.0</ele>
        <time>2020-07-25T13:02:39Z</time>
      </trkpt>
      <trkpt lat="42.9085310" lon="0.1539520">
        <ele>1995.6</ele>
        <time>2020-07-25T13:02:43Z</time>
      </trkpt>
      <trkpt lat="42.9084900" lon="0.1538360">
        <ele>1996.6</ele>
        <time>2020-07-25T13:02:47Z</time>
      </trkpt>
      <trkpt lat="42.9084810" lon="0.1538080">
        <ele>1996.8</ele>
        <time>2020-07-25T13:02:48Z</time>
      </trkpt>
      <trkpt lat="42.9084360" lon="0.1536350">
        <ele>1997.8</ele>
        <time>2020-07-25T13:02:54Z</time>
      </trkpt>
      <trkpt lat="42.9084250" lon="0.1535750">
        <ele>1998.2</ele>
        <time>2020-07-25T13:02:56Z</time>
      </trkpt>
      <trkpt lat="42.9084220" lon="0.1534530">
        <ele>1999.0</ele>
        <time>2020-07-25T13:03:00Z</time>
      </trkpt>
      <trkpt lat="42.9084340" lon="0.1533270">
        <ele>2000.0</ele>
        <time>2020-07-25T13:03:04Z</time>
      </trkpt>
      <trkpt lat="42.9084410" lon="0.1532960">
        <ele>2000.0</ele>
        <time>2020-07-25T13:03:05Z</time>
      </trkpt>
      <trkpt lat="42.9084970" lon="0.1531110">
        <ele>2000.8</ele>
        <time>2020-07-25T13:03:11Z</time>
      </trkpt>
      <trkpt lat="42.9085170" lon="0.1530550">
        <ele>2001.2</ele>
        <time>2020-07-25T13:03:13Z</time>
      </trkpt>
      <trkpt lat="42.9085710" lon="0.1529210">
        <ele>2002.4</ele>
        <time>2020-07-25T13:03:18Z</time>
      </trkpt>
      <trkpt lat="42.9086310" lon="0.1527550">
        <ele>2003.4</ele>
        <time>2020-07-25T13:03:24Z</time>
      </trkpt>
      <trkpt lat="42.9086910" lon="0.1526030">
        <ele>2004.6</ele>
        <time>2020-07-25T13:03:30Z</time>
      </trkpt>
      <trkpt lat="42.9087110" lon="0.1525500">
        <ele>2004.8</ele>
        <time>2020-07-25T13:03:32Z</time>
      </trkpt>
      <trkpt lat="42.9087340" lon="0.1524850">
        <ele>2005.6</ele>
        <time>2020-07-25T13:03:35Z</time>
      </trkpt>
      <trkpt lat="42.9087610" lon="0.1524080">
        <ele>2006.0</ele>
        <time>2020-07-25T13:03:38Z</time>
      </trkpt>
      <trkpt lat="42.9087930" lon="0.1523260">
        <ele>2006.4</ele>
        <time>2020-07-25T13:03:41Z</time>
      </trkpt>
      <trkpt lat="42.9088060" lon="0.1522660">
        <ele>2006.8</ele>
        <time>2020-07-25T13:03:43Z</time>
      </trkpt>
      <trkpt lat="42.9088300" lon="0.1521170">
        <ele>2007.8</ele>
        <time>2020-07-25T13:03:48Z</time>
      </trkpt>
      <trkpt lat="42.9088490" lon="0.1520020">
        <ele>2008.6</ele>
        <time>2020-07-25T13:03:52Z</time>
      </trkpt>
      <trkpt lat="42.9088540" lon="0.1519740">
        <ele>2008.8</ele>
        <time>2020-07-25T13:03:53Z</time>
      </trkpt>
      <trkpt lat="42.9088830" lon="0.1518310">
        <ele>2010.0</ele>
        <time>2020-07-25T13:03:58Z</time>
      </trkpt>
      <trkpt lat="42.9089170" lon="0.1516900">
        <ele>2010.8</ele>
        <time>2020-07-25T13:04:03Z</time>
      </trkpt>
      <trkpt lat="42.9089240" lon="0.1516640">
        <ele>2011.0</ele>
        <time>2020-07-25T13:04:04Z</time>
      </trkpt>
      <trkpt lat="42.9089710" lon="0.1515010">
        <ele>2012.0</ele>
        <time>2020-07-25T13:04:10Z</time>
      </trkpt>
      <trkpt lat="42.9089800" lon="0.1514740">
        <ele>2012.0</ele>
        <time>2020-07-25T13:04:11Z</time>
      </trkpt>
      <trkpt lat="42.9089980" lon="0.1514240">
        <ele>2012.4</ele>
        <time>2020-07-25T13:04:13Z</time>
      </trkpt>
      <trkpt lat="42.9090180" lon="0.1513440">
        <ele>2013.2</ele>
        <time>2020-07-25T13:04:16Z</time>
      </trkpt>
      <trkpt lat="42.9090280" lon="0.1512870">
        <ele>2013.4</ele>
        <time>2020-07-25T13:04:18Z</time>
      </trkpt>
      <trkpt lat="42.9090370" lon="0.1511660">
        <ele>2014.4</ele>
        <time>2020-07-25T13:04:22Z</time>
      </trkpt>
      <trkpt lat="42.9090340" lon="0.1511370">
        <ele>2014.6</ele>
        <time>2020-07-25T13:04:23Z</time>
      </trkpt>
      <trkpt lat="42.9090190" lon="0.1510520">
        <ele>2015.6</ele>
        <time>2020-07-25T13:04:26Z</time>
      </trkpt>
      <trkpt lat="42.9089750" lon="0.1508720">
        <ele>2016.4</ele>
        <time>2020-07-25T13:04:32Z</time>
      </trkpt>
      <trkpt lat="42.9089680" lon="0.1508410">
        <ele>2016.8</ele>
        <time>2020-07-25T13:04:33Z</time>
      </trkpt>
      <trkpt lat="42.9089390" lon="0.1507250">
        <ele>2017.8</ele>
        <time>2020-07-25T13:04:37Z</time>
      </trkpt>
      <trkpt lat="42.9089240" lon="0.1506690">
        <ele>2018.0</ele>
        <time>2020-07-25T13:04:39Z</time>
      </trkpt>
      <trkpt lat="42.9089170" lon="0.1506420">
        <ele>2018.0</ele>
        <time>2020-07-25T13:04:40Z</time>
      </trkpt>
      <trkpt lat="42.9088660" lon="0.1504780">
        <ele>2019.0</ele>
        <time>2020-07-25T13:04:46Z</time>
      </trkpt>
      <trkpt lat="42.9088390" lon="0.1503960">
        <ele>2019.8</ele>
        <time>2020-07-25T13:04:49Z</time>
      </trkpt>
      <trkpt lat="42.9088180" lon="0.1503440">
        <ele>2020.0</ele>
        <time>2020-07-25T13:04:51Z</time>
      </trkpt>
      <trkpt lat="42.9087660" lon="0.1502440">
        <ele>2021.2</ele>
        <time>2020-07-25T13:04:55Z</time>
      </trkpt>
      <trkpt lat="42.9087130" lon="0.1501490">
        <ele>2021.6</ele>
        <time>2020-07-25T13:04:59Z</time>
      </trkpt>
      <trkpt lat="42.9087010" lon="0.1501250">
        <ele>2021.8</ele>
        <time>2020-07-25T13:05:00Z</time>
      </trkpt>
      <trkpt lat="42.9086790" lon="0.1500750">
        <ele>2022.4</ele>
        <time>2020-07-25T13:05:02Z</time>
      </trkpt>
      <trkpt lat="42.9086380" lon="0.1499450">
        <ele>2022.8</ele>
        <time>2020-07-25T13:05:07Z</time>
      </trkpt>
      <trkpt lat="42.9086180" lon="0.1498590">
        <ele>2023.6</ele>
        <time>2020-07-25T13:05:10Z</time>
      </trkpt>
      <trkpt lat="42.9086010" lon="0.1497130">
        <ele>2024.8</ele>
        <time>2020-07-25T13:05:15Z</time>
      </trkpt>
      <trkpt lat="42.9086000" lon="0.1496830">
        <ele>2025.0</ele>
        <time>2020-07-25T13:05:16Z</time>
      </trkpt>
      <trkpt lat="42.9086030" lon="0.1495690">
        <ele>2025.8</ele>
        <time>2020-07-25T13:05:20Z</time>
      </trkpt>
      <trkpt lat="42.9086240" lon="0.1494640">
        <ele>2026.8</ele>
        <time>2020-07-25T13:05:24Z</time>
      </trkpt>
      <trkpt lat="42.9086300" lon="0.1494410">
        <ele>2027.2</ele>
        <time>2020-07-25T13:05:25Z</time>
      </trkpt>
      <trkpt lat="42.9086640" lon="0.1493100">
        <ele>2028.2</ele>
        <time>2020-07-25T13:05:31Z</time>
      </trkpt>
      <trkpt lat="42.9086810" lon="0.1492420">
        <ele>2028.8</ele>
        <time>2020-07-25T13:05:34Z</time>
      </trkpt>
      <trkpt lat="42.9086880" lon="0.1491980">
        <ele>2029.2</ele>
        <time>2020-07-25T13:05:36Z</time>
      </trkpt>
      <trkpt lat="42.9087110" lon="0.1490590">
        <ele>2030.4</ele>
        <time>2020-07-25T13:05:42Z</time>
      </trkpt>
      <trkpt lat="42.9086660" lon="0.1489290">
        <ele>2031.2</ele>
        <time>2020-07-25T13:05:47Z</time>
      </trkpt>
      <trkpt lat="42.9086500" lon="0.1489110">
        <ele>2031.4</ele>
        <time>2020-07-25T13:05:48Z</time>
      </trkpt>
      <trkpt lat="42.9085520" lon="0.1488660">
        <ele>2032.0</ele>
        <time>2020-07-25T13:05:53Z</time>
      </trkpt>
      <trkpt lat="42.9084660" lon="0.1488550">
        <ele>2032.6</ele>
        <time>2020-07-25T13:05:57Z</time>
      </trkpt>
      <trkpt lat="42.9084190" lon="0.1488520">
        <ele>2032.8</ele>
        <time>2020-07-25T13:05:59Z</time>
      </trkpt>
      <trkpt lat="42.9083720" lon="0.1488510">
        <ele>2033.2</ele>
        <time>2020-07-25T13:06:01Z</time>
      </trkpt>
      <trkpt lat="42.9083220" lon="0.1488550">
        <ele>2033.8</ele>
        <time>2020-07-25T13:06:03Z</time>
      </trkpt>
      <trkpt lat="42.9081800" lon="0.1488590">
        <ele>2034.8</ele>
        <time>2020-07-25T13:06:09Z</time>
      </trkpt>
      <trkpt lat="42.9081390" lon="0.1488610">
        <ele>2035.2</ele>
        <time>2020-07-25T13:06:11Z</time>
      </trkpt>
      <trkpt lat="42.9081180" lon="0.1488600">
        <ele>2035.2</ele>
        <time>2020-07-25T13:06:12Z</time>
      </trkpt>
      <trkpt lat="42.9080550" lon="0.1488450">
        <ele>2035.8</ele>
        <time>2020-07-25T13:06:15Z</time>
      </trkpt>
      <trkpt lat="42.9079360" lon="0.1487840">
        <ele>2037.2</ele>
        <time>2020-07-25T13:06:21Z</time>
      </trkpt>
      <trkpt lat="42.9078420" lon="0.1487320">
        <ele>2038.2</ele>
        <time>2020-07-25T13:06:26Z</time>
      </trkpt>
      <trkpt lat="42.9077680" lon="0.1486930">
        <ele>2038.8</ele>
        <time>2020-07-25T13:06:30Z</time>
      </trkpt>
      <trkpt lat="42.9077310" lon="0.1486760">
        <ele>2039.4</ele>
        <time>2020-07-25T13:06:32Z</time>
      </trkpt>
      <trkpt lat="42.9076320" lon="0.1486780">
        <ele>2040.4</ele>
        <time>2020-07-25T13:06:37Z</time>
      </trkpt>
      <trkpt lat="42.9075180" lon="0.1487050">
        <ele>2041.4</ele>
        <time>2020-07-25T13:06:43Z</time>
      </trkpt>
      <trkpt lat="42.9074990" lon="0.1487080">
        <ele>2041.4</ele>
        <time>2020-07-25T13:06:44Z</time>
      </trkpt>
      <trkpt lat="42.9074820" lon="0.1487100">
        <ele>2041.4</ele>
        <time>2020-07-25T13:06:45Z</time>
      </trkpt>
      <trkpt lat="42.9074450" lon="0.1487080">
        <ele>2041.4</ele>
        <time>2020-07-25T13:06:47Z</time>
      </trkpt>
      <trkpt lat="42.9073510" lon="0.1486730">
        <ele>2041.8</ele>
        <time>2020-07-25T13:06:52Z</time>
      </trkpt>
      <trkpt lat="42.9072990" lon="0.1486420">
        <ele>2042.4</ele>
        <time>2020-07-25T13:06:55Z</time>
      </trkpt>
      <trkpt lat="42.9071950" lon="0.1485600">
        <ele>2043.6</ele>
        <time>2020-07-25T13:07:01Z</time>
      </trkpt>
      <trkpt lat="42.9071380" lon="0.1485070">
        <ele>2044.8</ele>
        <time>2020-07-25T13:07:04Z</time>
      </trkpt>
      <trkpt lat="42.9070440" lon="0.1484340">
        <ele>2046.0</ele>
        <time>2020-07-25T13:07:09Z</time>
      </trkpt>
      <trkpt lat="42.9070060" lon="0.1484040">
        <ele>2046.2</ele>
        <time>2020-07-25T13:07:11Z</time>
      </trkpt>
      <trkpt lat="42.9069130" lon="0.1483300">
        <ele>2047.0</ele>
        <time>2020-07-25T13:07:16Z</time>
      </trkpt>
      <trkpt lat="42.9068600" lon="0.1482930">
        <ele>2048.0</ele>
        <time>2020-07-25T13:07:19Z</time>
      </trkpt>
      <trkpt lat="42.9068400" lon="0.1482830">
        <ele>2048.4</ele>
        <time>2020-07-25T13:07:20Z</time>
      </trkpt>
      <trkpt lat="42.9067260" lon="0.1482210">
        <ele>2049.0</ele>
        <time>2020-07-25T13:07:26Z</time>
      </trkpt>
      <trkpt lat="42.9067070" lon="0.1482120">
        <ele>2049.2</ele>
        <time>2020-07-25T13:07:27Z</time>
      </trkpt>
      <trkpt lat="42.9066170" lon="0.1481750">
        <ele>2050.2</ele>
        <time>2020-07-25T13:07:32Z</time>
      </trkpt>
      <trkpt lat="42.9065980" lon="0.1481700">
        <ele>2050.4</ele>
        <time>2020-07-25T13:07:33Z</time>
      </trkpt>
      <trkpt lat="42.9065790" lon="0.1481660">
        <ele>2050.6</ele>
        <time>2020-07-25T13:07:34Z</time>
      </trkpt>
      <trkpt lat="42.9064840" lon="0.1481460">
        <ele>2051.6</ele>
        <time>2020-07-25T13:07:39Z</time>
      </trkpt>
      <trkpt lat="42.9063860" lon="0.1481620">
        <ele>2052.4</ele>
        <time>2020-07-25T13:07:43Z</time>
      </trkpt>
      <trkpt lat="42.9063350" lon="0.1481810">
        <ele>2052.6</ele>
        <time>2020-07-25T13:07:45Z</time>
      </trkpt>
      <trkpt lat="42.9061980" lon="0.1482610">
        <ele>2053.8</ele>
        <time>2020-07-25T13:07:51Z</time>
      </trkpt>
      <trkpt lat="42.9061340" lon="0.1482760">
        <ele>2054.8</ele>
        <time>2020-07-25T13:07:54Z</time>
      </trkpt>
      <trkpt lat="42.9060590" lon="0.1482570">
        <ele>2055.6</ele>
        <time>2020-07-25T13:07:58Z</time>
      </trkpt>
      <trkpt lat="42.9060310" lon="0.1482240">
        <ele>2055.8</ele>
        <time>2020-07-25T13:08:00Z</time>
      </trkpt>
      <trkpt lat="42.9060150" lon="0.1481500">
        <ele>2056.8</ele>
        <time>2020-07-25T13:08:03Z</time>
      </trkpt>
      <trkpt lat="42.9060140" lon="0.1481240">
        <ele>2057.0</ele>
        <time>2020-07-25T13:08:04Z</time>
      </trkpt>
      <trkpt lat="42.9060230" lon="0.1480760">
        <ele>2057.4</ele>
        <time>2020-07-25T13:08:06Z</time>
      </trkpt>
      <trkpt lat="42.9060350" lon="0.1480550">
        <ele>2057.6</ele>
        <time>2020-07-25T13:08:07Z</time>
      </trkpt>
      <trkpt lat="42.9060500" lon="0.1480330">
        <ele>2057.8</ele>
        <time>2020-07-25T13:08:08Z</time>
      </trkpt>
      <trkpt lat="42.9060650" lon="0.1480150">
        <ele>2058.2</ele>
        <time>2020-07-25T13:08:09Z</time>
      </trkpt>
      <trkpt lat="42.9060870" lon="0.1479720">
        <ele>2058.8</ele>
        <time>2020-07-25T13:08:13Z</time>
      </trkpt>
      <trkpt lat="42.9061180" lon="0.1479470">
        <ele>2059.2</ele>
        <time>2020-07-25T13:08:16Z</time>
      </trkpt>
      <trkpt lat="42.9061630" lon="0.1479290">
        <ele>2059.6</ele>
        <time>2020-07-25T13:08:19Z</time>
      </trkpt>
      <trkpt lat="42.9062150" lon="0.1479010">
        <ele>2059.8</ele>
        <time>2020-07-25T13:08:22Z</time>
      </trkpt>
      <trkpt lat="42.9062690" lon="0.1478960">
        <ele>2060.0</ele>
        <time>2020-07-25T13:08:25Z</time>
      </trkpt>
      <trkpt lat="42.9062990" lon="0.1479020">
        <ele>2060.4</ele>
        <time>2020-07-25T13:08:27Z</time>
      </trkpt>
      <trkpt lat="42.9063370" lon="0.1478900">
        <ele>2061.0</ele>
        <time>2020-07-25T13:08:31Z</time>
      </trkpt>
      <trkpt lat="42.9063950" lon="0.1478720">
        <ele>2061.4</ele>
        <time>2020-07-25T13:08:37Z</time>
      </trkpt>
      <trkpt lat="42.9064070" lon="0.1478710">
        <ele>2061.4</ele>
        <time>2020-07-25T13:08:38Z</time>
      </trkpt>
      <trkpt lat="42.9064630" lon="0.1478590">
        <ele>2062.0</ele>
        <time>2020-07-25T13:08:42Z</time>
      </trkpt>
      <trkpt lat="42.9065390" lon="0.1478340">
        <ele>2062.6</ele>
        <time>2020-07-25T13:08:47Z</time>
      </trkpt>
      <trkpt lat="42.9065930" lon="0.1478170">
        <ele>2063.4</ele>
        <time>2020-07-25T13:08:50Z</time>
      </trkpt>
      <trkpt lat="42.9066130" lon="0.1478110">
        <ele>2063.8</ele>
        <time>2020-07-25T13:08:51Z</time>
      </trkpt>
      <trkpt lat="42.9067180" lon="0.1477900">
        <ele>2065.0</ele>
        <time>2020-07-25T13:08:56Z</time>
      </trkpt>
      <trkpt lat="42.9067610" lon="0.1477830">
        <ele>2065.2</ele>
        <time>2020-07-25T13:08:58Z</time>
      </trkpt>
      <trkpt lat="42.9068280" lon="0.1477720">
        <ele>2066.2</ele>
        <time>2020-07-25T13:09:01Z</time>
      </trkpt>
      <trkpt lat="42.9069390" lon="0.1477450">
        <ele>2067.4</ele>
        <time>2020-07-25T13:09:06Z</time>
      </trkpt>
      <trkpt lat="42.9069690" lon="0.1477360">
        <ele>2067.6</ele>
        <time>2020-07-25T13:09:07Z</time>
      </trkpt>
      <trkpt lat="42.9070550" lon="0.1477060">
        <ele>2068.8</ele>
        <time>2020-07-25T13:09:10Z</time>
      </trkpt>
      <trkpt lat="42.9071340" lon="0.1476860">
        <ele>2069.6</ele>
        <time>2020-07-25T13:09:13Z</time>
      </trkpt>
      <trkpt lat="42.9071600" lon="0.1476810">
        <ele>2069.8</ele>
        <time>2020-07-25T13:09:14Z</time>
      </trkpt>
      <trkpt lat="42.9072580" lon="0.1476480">
        <ele>2071.0</ele>
        <time>2020-07-25T13:09:18Z</time>
      </trkpt>
      <trkpt lat="42.9073520" lon="0.1476000">
        <ele>2071.8</ele>
        <time>2020-07-25T13:09:22Z</time>
      </trkpt>
      <trkpt lat="42.9073980" lon="0.1475770">
        <ele>2072.0</ele>
        <time>2020-07-25T13:09:24Z</time>
      </trkpt>
      <trkpt lat="42.9074990" lon="0.1475060">
        <ele>2073.2</ele>
        <time>2020-07-25T13:09:29Z</time>
      </trkpt>
      <trkpt lat="42.9075190" lon="0.1474890">
        <ele>2073.4</ele>
        <time>2020-07-25T13:09:30Z</time>
      </trkpt>
      <trkpt lat="42.9075740" lon="0.1474300">
        <ele>2074.2</ele>
        <time>2020-07-25T13:09:33Z</time>
      </trkpt>
      <trkpt lat="42.9076630" lon="0.1473180">
        <ele>2075.4</ele>
        <time>2020-07-25T13:09:38Z</time>
      </trkpt>
      <trkpt lat="42.9077630" lon="0.1471830">
        <ele>2076.4</ele>
        <time>2020-07-25T13:09:44Z</time>
      </trkpt>
      <trkpt lat="42.9077790" lon="0.1471610">
        <ele>2076.6</ele>
        <time>2020-07-25T13:09:45Z</time>
      </trkpt>
      <trkpt lat="42.9078260" lon="0.1470920">
        <ele>2078.0</ele>
        <time>2020-07-25T13:09:48Z</time>
      </trkpt>
      <trkpt lat="42.9078770" lon="0.1470250">
        <ele>2078.8</ele>
        <time>2020-07-25T13:09:51Z</time>
      </trkpt>
      <trkpt lat="42.9078930" lon="0.1470020">
        <ele>2079.0</ele>
        <time>2020-07-25T13:09:52Z</time>
      </trkpt>
      <trkpt lat="42.9080050" lon="0.1468770">
        <ele>2080.2</ele>
        <time>2020-07-25T13:09:58Z</time>
      </trkpt>
      <trkpt lat="42.9080400" lon="0.1468290">
        <ele>2080.6</ele>
        <time>2020-07-25T13:10:00Z</time>
      </trkpt>
      <trkpt lat="42.9080890" lon="0.1467580">
        <ele>2081.2</ele>
        <time>2020-07-25T13:10:03Z</time>
      </trkpt>
      <trkpt lat="42.9081590" lon="0.1466710">
        <ele>2082.4</ele>
        <time>2020-07-25T13:10:07Z</time>
      </trkpt>
      <trkpt lat="42.9082620" lon="0.1465360">
        <ele>2083.6</ele>
        <time>2020-07-25T13:10:13Z</time>
      </trkpt>
      <trkpt lat="42.9082880" lon="0.1464830">
        <ele>2084.2</ele>
        <time>2020-07-25T13:10:15Z</time>
      </trkpt>
      <trkpt lat="42.9083210" lon="0.1464400">
        <ele>2084.6</ele>
        <time>2020-07-25T13:10:17Z</time>
      </trkpt>
      <trkpt lat="42.9083980" lon="0.1463390">
        <ele>2085.6</ele>
        <time>2020-07-25T13:10:22Z</time>
      </trkpt>
      <trkpt lat="42.9084120" lon="0.1463180">
        <ele>2085.8</ele>
        <time>2020-07-25T13:10:23Z</time>
      </trkpt>
      <trkpt lat="42.9084570" lon="0.1462630">
        <ele>2086.8</ele>
        <time>2020-07-25T13:10:26Z</time>
      </trkpt>
      <trkpt lat="42.9085190" lon="0.1461970">
        <ele>2087.6</ele>
        <time>2020-07-25T13:10:30Z</time>
      </trkpt>
      <trkpt lat="42.9085320" lon="0.1461800">
        <ele>2087.8</ele>
        <time>2020-07-25T13:10:31Z</time>
      </trkpt>
      <trkpt lat="42.9085940" lon="0.1460760">
        <ele>2089.0</ele>
        <time>2020-07-25T13:10:36Z</time>
      </trkpt>
      <trkpt lat="42.9086210" lon="0.1459980">
        <ele>2089.8</ele>
        <time>2020-07-25T13:10:39Z</time>
      </trkpt>
      <trkpt lat="42.9086310" lon="0.1459750">
        <ele>2090.0</ele>
        <time>2020-07-25T13:10:40Z</time>
      </trkpt>
      <trkpt lat="42.9086490" lon="0.1458770">
        <ele>2091.2</ele>
        <time>2020-07-25T13:10:44Z</time>
      </trkpt>
      <trkpt lat="42.9086450" lon="0.1458260">
        <ele>2091.6</ele>
        <time>2020-07-25T13:10:46Z</time>
      </trkpt>
      <trkpt lat="42.9086320" lon="0.1457570">
        <ele>2092.4</ele>
        <time>2020-07-25T13:10:49Z</time>
      </trkpt>
      <trkpt lat="42.9085930" lon="0.1456380">
        <ele>2093.2</ele>
        <time>2020-07-25T13:10:54Z</time>
      </trkpt>
      <trkpt lat="42.9085730" lon="0.1455930">
        <ele>2093.6</ele>
        <time>2020-07-25T13:10:56Z</time>
      </trkpt>
      <trkpt lat="42.9085270" lon="0.1455140">
        <ele>2094.6</ele>
        <time>2020-07-25T13:11:00Z</time>
      </trkpt>
      <trkpt lat="42.9084750" lon="0.1453700">
        <ele>2095.6</ele>
        <time>2020-07-25T13:11:06Z</time>
      </trkpt>
      <trkpt lat="42.9084660" lon="0.1453480">
        <ele>2095.8</ele>
        <time>2020-07-25T13:11:07Z</time>
      </trkpt>
      <trkpt lat="42.9084060" lon="0.1452320">
        <ele>2096.8</ele>
        <time>2020-07-25T13:11:13Z</time>
      </trkpt>
      <trkpt lat="42.9083900" lon="0.1452070">
        <ele>2096.8</ele>
        <time>2020-07-25T13:11:14Z</time>
      </trkpt>
      <trkpt lat="42.9083620" lon="0.1451650">
        <ele>2097.0</ele>
        <time>2020-07-25T13:11:16Z</time>
      </trkpt>
      <trkpt lat="42.9083020" lon="0.1452310">
        <ele>2099.6</ele>
        <time>2020-07-25T13:30:26Z</time>
      </trkpt>
      <trkpt lat="42.9083030" lon="0.1452310">
        <ele>2099.6</ele>
        <time>2020-07-25T13:30:27Z</time>
      </trkpt>
      <trkpt lat="42.9082900" lon="0.1451960">
        <ele>2099.6</ele>
        <time>2020-07-25T13:30:30Z</time>
      </trkpt>
      <trkpt lat="42.9082490" lon="0.1451110">
        <ele>2099.4</ele>
        <time>2020-07-25T13:30:33Z</time>
      </trkpt>
      <trkpt lat="42.9081890" lon="0.1450690">
        <ele>2098.6</ele>
        <time>2020-07-25T13:30:35Z</time>
      </trkpt>
      <trkpt lat="42.9081270" lon="0.1450540">
        <ele>2097.8</ele>
        <time>2020-07-25T13:30:37Z</time>
      </trkpt>
      <trkpt lat="42.9080630" lon="0.1450720">
        <ele>2097.4</ele>
        <time>2020-07-25T13:30:39Z</time>
      </trkpt>
      <trkpt lat="42.9079630" lon="0.1451170">
        <ele>2097.0</ele>
        <time>2020-07-25T13:30:42Z</time>
      </trkpt>
      <trkpt lat="42.9078070" lon="0.1451620">
        <ele>2096.6</ele>
        <time>2020-07-25T13:30:46Z</time>
      </trkpt>
      <trkpt lat="42.9077680" lon="0.1451630">
        <ele>2096.2</ele>
        <time>2020-07-25T13:30:47Z</time>
      </trkpt>
      <trkpt lat="42.9076980" lon="0.1451480">
        <ele>2095.2</ele>
        <time>2020-07-25T13:30:49Z</time>
      </trkpt>
      <trkpt lat="42.9076650" lon="0.1451350">
        <ele>2094.8</ele>
        <time>2020-07-25T13:30:50Z</time>
      </trkpt>
      <trkpt lat="42.9076000" lon="0.1451070">
        <ele>2093.6</ele>
        <time>2020-07-25T13:30:52Z</time>
      </trkpt>
      <trkpt lat="42.9075620" lon="0.1450940">
        <ele>2093.2</ele>
        <time>2020-07-25T13:30:53Z</time>
      </trkpt>
      <trkpt lat="42.9074890" lon="0.1450770">
        <ele>2092.2</ele>
        <time>2020-07-25T13:30:55Z</time>
      </trkpt>
      <trkpt lat="42.9074170" lon="0.1450530">
        <ele>2091.0</ele>
        <time>2020-07-25T13:30:58Z</time>
      </trkpt>
      <trkpt lat="42.9074070" lon="0.1450520">
        <ele>2091.0</ele>
        <time>2020-07-25T13:30:59Z</time>
      </trkpt>
      <trkpt lat="42.9074230" lon="0.1450670">
        <ele>2090.4</ele>
        <time>2020-07-25T13:32:02Z</time>
      </trkpt>
      <trkpt lat="42.9074140" lon="0.1450750">
        <ele>2090.4</ele>
        <time>2020-07-25T13:32:03Z</time>
      </trkpt>
      <trkpt lat="42.9073960" lon="0.1450870">
        <ele>2090.4</ele>
        <time>2020-07-25T13:32:04Z</time>
      </trkpt>
      <trkpt lat="42.9073070" lon="0.1451080">
        <ele>2090.0</ele>
        <time>2020-07-25T13:32:07Z</time>
      </trkpt>
      <trkpt lat="42.9071730" lon="0.1451270">
        <ele>2088.6</ele>
        <time>2020-07-25T13:32:10Z</time>
      </trkpt>
      <trkpt lat="42.9070670" lon="0.1451500">
        <ele>2087.2</ele>
        <time>2020-07-25T13:32:12Z</time>
      </trkpt>
      <trkpt lat="42.9069590" lon="0.1451910">
        <ele>2085.8</ele>
        <time>2020-07-25T13:32:14Z</time>
      </trkpt>
      <trkpt lat="42.9069090" lon="0.1452290">
        <ele>2085.2</ele>
        <time>2020-07-25T13:32:15Z</time>
      </trkpt>
      <trkpt lat="42.9068600" lon="0.1452780">
        <ele>2084.2</ele>
        <time>2020-07-25T13:32:16Z</time>
      </trkpt>
      <trkpt lat="42.9068160" lon="0.1453390">
        <ele>2083.2</ele>
        <time>2020-07-25T13:32:17Z</time>
      </trkpt>
      <trkpt lat="42.9067700" lon="0.1454070">
        <ele>2082.0</ele>
        <time>2020-07-25T13:32:18Z</time>
      </trkpt>
      <trkpt lat="42.9066730" lon="0.1455350">
        <ele>2080.4</ele>
        <time>2020-07-25T13:32:20Z</time>
      </trkpt>
      <trkpt lat="42.9066190" lon="0.1455900">
        <ele>2079.4</ele>
        <time>2020-07-25T13:32:21Z</time>
      </trkpt>
      <trkpt lat="42.9065640" lon="0.1456340">
        <ele>2078.8</ele>
        <time>2020-07-25T13:32:22Z</time>
      </trkpt>
      <trkpt lat="42.9065050" lon="0.1456740">
        <ele>2078.2</ele>
        <time>2020-07-25T13:32:23Z</time>
      </trkpt>
      <trkpt lat="42.9064480" lon="0.1457120">
        <ele>2077.8</ele>
        <time>2020-07-25T13:32:24Z</time>
      </trkpt>
      <trkpt lat="42.9063910" lon="0.1457510">
        <ele>2077.2</ele>
        <time>2020-07-25T13:32:25Z</time>
      </trkpt>
      <trkpt lat="42.9063340" lon="0.1457990">
        <ele>2076.6</ele>
        <time>2020-07-25T13:32:26Z</time>
      </trkpt>
      <trkpt lat="42.9062710" lon="0.1458530">
        <ele>2075.8</ele>
        <time>2020-07-25T13:32:27Z</time>
      </trkpt>
      <trkpt lat="42.9061380" lon="0.1459800">
        <ele>2074.4</ele>
        <time>2020-07-25T13:32:29Z</time>
      </trkpt>
      <trkpt lat="42.9060730" lon="0.1460520">
        <ele>2073.4</ele>
        <time>2020-07-25T13:32:30Z</time>
      </trkpt>
      <trkpt lat="42.9060070" lon="0.1461250">
        <ele>2072.2</ele>
        <time>2020-07-25T13:32:31Z</time>
      </trkpt>
      <trkpt lat="42.9058850" lon="0.1462720">
        <ele>2070.8</ele>
        <time>2020-07-25T13:32:33Z</time>
      </trkpt>
      <trkpt lat="42.9057720" lon="0.1464010">
        <ele>2068.8</ele>
        <time>2020-07-25T13:32:35Z</time>
      </trkpt>
      <trkpt lat="42.9057130" lon="0.1464580">
        <ele>2067.8</ele>
        <time>2020-07-25T13:32:36Z</time>
      </trkpt>
      <trkpt lat="42.9056470" lon="0.1465060">
        <ele>2067.2</ele>
        <time>2020-07-25T13:32:37Z</time>
      </trkpt>
      <trkpt lat="42.9054300" lon="0.1466220">
        <ele>2065.8</ele>
        <time>2020-07-25T13:32:40Z</time>
      </trkpt>
      <trkpt lat="42.9053060" lon="0.1466840">
        <ele>2064.6</ele>
        <time>2020-07-25T13:32:42Z</time>
      </trkpt>
      <trkpt lat="42.9052140" lon="0.1467120">
        <ele>2063.2</ele>
        <time>2020-07-25T13:32:44Z</time>
      </trkpt>
      <trkpt lat="42.9051740" lon="0.1466010">
        <ele>2062.0</ele>
        <time>2020-07-25T13:32:47Z</time>
      </trkpt>
      <trkpt lat="42.9052610" lon="0.1464730">
        <ele>2061.2</ele>
        <time>2020-07-25T13:32:49Z</time>
      </trkpt>
      <trkpt lat="42.9053180" lon="0.1464360">
        <ele>2060.6</ele>
        <time>2020-07-25T13:32:50Z</time>
      </trkpt>
      <trkpt lat="42.9053880" lon="0.1464050">
        <ele>2060.2</ele>
        <time>2020-07-25T13:32:51Z</time>
      </trkpt>
      <trkpt lat="42.9054590" lon="0.1463750">
        <ele>2059.6</ele>
        <time>2020-07-25T13:32:52Z</time>
      </trkpt>
      <trkpt lat="42.9055280" lon="0.1463360">
        <ele>2059.0</ele>
        <time>2020-07-25T13:32:53Z</time>
      </trkpt>
      <trkpt lat="42.9055970" lon="0.1462760">
        <ele>2058.2</ele>
        <time>2020-07-25T13:32:54Z</time>
      </trkpt>
      <trkpt lat="42.9056590" lon="0.1462030">
        <ele>2057.4</ele>
        <time>2020-07-25T13:32:55Z</time>
      </trkpt>
      <trkpt lat="42.9057190" lon="0.1461210">
        <ele>2056.6</ele>
        <time>2020-07-25T13:32:56Z</time>
      </trkpt>
      <trkpt lat="42.9058280" lon="0.1459480">
        <ele>2055.0</ele>
        <time>2020-07-25T13:32:58Z</time>
      </trkpt>
      <trkpt lat="42.9059190" lon="0.1457710">
        <ele>2053.0</ele>
        <time>2020-07-25T13:33:00Z</time>
      </trkpt>
      <trkpt lat="42.9059550" lon="0.1456760">
        <ele>2052.2</ele>
        <time>2020-07-25T13:33:01Z</time>
      </trkpt>
      <trkpt lat="42.9059870" lon="0.1455760">
        <ele>2051.6</ele>
        <time>2020-07-25T13:33:02Z</time>
      </trkpt>
      <trkpt lat="42.9060170" lon="0.1454740">
        <ele>2050.8</ele>
        <time>2020-07-25T13:33:03Z</time>
      </trkpt>
      <trkpt lat="42.9060430" lon="0.1453680">
        <ele>2050.0</ele>
        <time>2020-07-25T13:33:04Z</time>
      </trkpt>
      <trkpt lat="42.9061030" lon="0.1451630">
        <ele>2048.6</ele>
        <time>2020-07-25T13:33:06Z</time>
      </trkpt>
      <trkpt lat="42.9061740" lon="0.1449590">
        <ele>2047.6</ele>
        <time>2020-07-25T13:33:08Z</time>
      </trkpt>
      <trkpt lat="42.9062130" lon="0.1448650">
        <ele>2047.0</ele>
        <time>2020-07-25T13:33:09Z</time>
      </trkpt>
      <trkpt lat="42.9063000" lon="0.1446890">
        <ele>2045.6</ele>
        <time>2020-07-25T13:33:11Z</time>
      </trkpt>
      <trkpt lat="42.9063560" lon="0.1446070">
        <ele>2044.8</ele>
        <time>2020-07-25T13:33:12Z</time>
      </trkpt>
      <trkpt lat="42.9064250" lon="0.1445320">
        <ele>2044.2</ele>
        <time>2020-07-25T13:33:13Z</time>
      </trkpt>
      <trkpt lat="42.9065090" lon="0.1444670">
        <ele>2043.6</ele>
        <time>2020-07-25T13:33:14Z</time>
      </trkpt>
      <trkpt lat="42.9065990" lon="0.1444080">
        <ele>2042.4</ele>
        <time>2020-07-25T13:33:15Z</time>
      </trkpt>
      <trkpt lat="42.9066920" lon="0.1443560">
        <ele>2040.6</ele>
        <time>2020-07-25T13:33:16Z</time>
      </trkpt>
      <trkpt lat="42.9067850" lon="0.1443030">
        <ele>2039.2</ele>
        <time>2020-07-25T13:33:17Z</time>
      </trkpt>
      <trkpt lat="42.9068730" lon="0.1442500">
        <ele>2038.0</ele>
        <time>2020-07-25T13:33:18Z</time>
      </trkpt>
      <trkpt lat="42.9069590" lon="0.1441980">
        <ele>2036.8</ele>
        <time>2020-07-25T13:33:19Z</time>
      </trkpt>
      <trkpt lat="42.9070420" lon="0.1441450">
        <ele>2035.8</ele>
        <time>2020-07-25T13:33:20Z</time>
      </trkpt>
      <trkpt lat="42.9071980" lon="0.1440130">
        <ele>2034.6</ele>
        <time>2020-07-25T13:33:22Z</time>
      </trkpt>
      <trkpt lat="42.9073560" lon="0.1438970">
        <ele>2033.4</ele>
        <time>2020-07-25T13:33:24Z</time>
      </trkpt>
      <trkpt lat="42.9074900" lon="0.1437590">
        <ele>2032.2</ele>
        <time>2020-07-25T13:33:26Z</time>
      </trkpt>
      <trkpt lat="42.9075410" lon="0.1436860">
        <ele>2031.4</ele>
        <time>2020-07-25T13:33:27Z</time>
      </trkpt>
      <trkpt lat="42.9075720" lon="0.1436050">
        <ele>2030.4</ele>
        <time>2020-07-25T13:33:28Z</time>
      </trkpt>
      <trkpt lat="42.9075760" lon="0.1434990">
        <ele>2029.4</ele>
        <time>2020-07-25T13:33:29Z</time>
      </trkpt>
      <trkpt lat="42.9075290" lon="0.1433230">
        <ele>2028.4</ele>
        <time>2020-07-25T13:33:30Z</time>
      </trkpt>
      <trkpt lat="42.9075070" lon="0.1431940">
        <ele>2027.6</ele>
        <time>2020-07-25T13:33:31Z</time>
      </trkpt>
      <trkpt lat="42.9074780" lon="0.1430690">
        <ele>2026.8</ele>
        <time>2020-07-25T13:33:32Z</time>
      </trkpt>
      <trkpt lat="42.9074470" lon="0.1429670">
        <ele>2026.2</ele>
        <time>2020-07-25T13:33:33Z</time>
      </trkpt>
      <trkpt lat="42.9074160" lon="0.1428780">
        <ele>2025.4</ele>
        <time>2020-07-25T13:33:34Z</time>
      </trkpt>
      <trkpt lat="42.9073830" lon="0.1427980">
        <ele>2024.8</ele>
        <time>2020-07-25T13:33:35Z</time>
      </trkpt>
      <trkpt lat="42.9072790" lon="0.1425670">
        <ele>2023.4</ele>
        <time>2020-07-25T13:33:38Z</time>
      </trkpt>
      <trkpt lat="42.9072540" lon="0.1424890">
        <ele>2022.8</ele>
        <time>2020-07-25T13:33:39Z</time>
      </trkpt>
      <trkpt lat="42.9072400" lon="0.1424070">
        <ele>2022.2</ele>
        <time>2020-07-25T13:33:40Z</time>
      </trkpt>
      <trkpt lat="42.9072340" lon="0.1423180">
        <ele>2021.4</ele>
        <time>2020-07-25T13:33:41Z</time>
      </trkpt>
      <trkpt lat="42.9072350" lon="0.1422210">
        <ele>2020.6</ele>
        <time>2020-07-25T13:33:42Z</time>
      </trkpt>
      <trkpt lat="42.9072440" lon="0.1421160">
        <ele>2019.8</ele>
        <time>2020-07-25T13:33:43Z</time>
      </trkpt>
      <trkpt lat="42.9072630" lon="0.1420040">
        <ele>2018.8</ele>
        <time>2020-07-25T13:33:44Z</time>
      </trkpt>
      <trkpt lat="42.9072890" lon="0.1418860">
        <ele>2017.6</ele>
        <time>2020-07-25T13:33:45Z</time>
      </trkpt>
      <trkpt lat="42.9073200" lon="0.1417700">
        <ele>2016.6</ele>
        <time>2020-07-25T13:33:46Z</time>
      </trkpt>
      <trkpt lat="42.9073830" lon="0.1415350">
        <ele>2015.0</ele>
        <time>2020-07-25T13:33:48Z</time>
      </trkpt>
      <trkpt lat="42.9074140" lon="0.1414210">
        <ele>2014.2</ele>
        <time>2020-07-25T13:33:49Z</time>
      </trkpt>
      <trkpt lat="42.9074470" lon="0.1413110">
        <ele>2013.4</ele>
        <time>2020-07-25T13:33:50Z</time>
      </trkpt>
      <trkpt lat="42.9074880" lon="0.1412090">
        <ele>2012.4</ele>
        <time>2020-07-25T13:33:51Z</time>
      </trkpt>
      <trkpt lat="42.9075370" lon="0.1411080">
        <ele>2011.4</ele>
        <time>2020-07-25T13:33:52Z</time>
      </trkpt>
      <trkpt lat="42.9075940" lon="0.1410110">
        <ele>2010.6</ele>
        <time>2020-07-25T13:33:53Z</time>
      </trkpt>
      <trkpt lat="42.9076550" lon="0.1409120">
        <ele>2010.0</ele>
        <time>2020-07-25T13:33:54Z</time>
      </trkpt>
      <trkpt lat="42.9077880" lon="0.1407300">
        <ele>2008.2</ele>
        <time>2020-07-25T13:33:56Z</time>
      </trkpt>
      <trkpt lat="42.9078590" lon="0.1406510">
        <ele>2007.2</ele>
        <time>2020-07-25T13:33:57Z</time>
      </trkpt>
      <trkpt lat="42.9079260" lon="0.1405710">
        <ele>2006.0</ele>
        <time>2020-07-25T13:33:58Z</time>
      </trkpt>
      <trkpt lat="42.9080420" lon="0.1404190">
        <ele>2004.4</ele>
        <time>2020-07-25T13:34:00Z</time>
      </trkpt>
      <trkpt lat="42.9080920" lon="0.1403490">
        <ele>2003.6</ele>
        <time>2020-07-25T13:34:01Z</time>
      </trkpt>
      <trkpt lat="42.9081450" lon="0.1402810">
        <ele>2002.8</ele>
        <time>2020-07-25T13:34:02Z</time>
      </trkpt>
      <trkpt lat="42.9082790" lon="0.1401630">
        <ele>2001.6</ele>
        <time>2020-07-25T13:34:04Z</time>
      </trkpt>
      <trkpt lat="42.9083570" lon="0.1401080">
        <ele>2001.0</ele>
        <time>2020-07-25T13:34:05Z</time>
      </trkpt>
      <trkpt lat="42.9084350" lon="0.1400500">
        <ele>2000.2</ele>
        <time>2020-07-25T13:34:06Z</time>
      </trkpt>
      <trkpt lat="42.9085110" lon="0.1399870">
        <ele>1999.0</ele>
        <time>2020-07-25T13:34:07Z</time>
      </trkpt>
      <trkpt lat="42.9085810" lon="0.1399140">
        <ele>1998.0</ele>
        <time>2020-07-25T13:34:08Z</time>
      </trkpt>
      <trkpt lat="42.9086470" lon="0.1398360">
        <ele>1997.2</ele>
        <time>2020-07-25T13:34:09Z</time>
      </trkpt>
      <trkpt lat="42.9087130" lon="0.1397560">
        <ele>1996.2</ele>
        <time>2020-07-25T13:34:10Z</time>
      </trkpt>
      <trkpt lat="42.9087790" lon="0.1396740">
        <ele>1995.2</ele>
        <time>2020-07-25T13:34:11Z</time>
      </trkpt>
      <trkpt lat="42.9089310" lon="0.1395220">
        <ele>1993.4</ele>
        <time>2020-07-25T13:34:13Z</time>
      </trkpt>
      <trkpt lat="42.9090120" lon="0.1394590">
        <ele>1992.2</ele>
        <time>2020-07-25T13:34:14Z</time>
      </trkpt>
      <trkpt lat="42.9090910" lon="0.1394050">
        <ele>1991.2</ele>
        <time>2020-07-25T13:34:15Z</time>
      </trkpt>
      <trkpt lat="42.9091730" lon="0.1393620">
        <ele>1990.6</ele>
        <time>2020-07-25T13:34:16Z</time>
      </trkpt>
      <trkpt lat="42.9093410" lon="0.1393100">
        <ele>1989.2</ele>
        <time>2020-07-25T13:34:18Z</time>
      </trkpt>
      <trkpt lat="42.9094250" lon="0.1392930">
        <ele>1988.4</ele>
        <time>2020-07-25T13:34:19Z</time>
      </trkpt>
      <trkpt lat="42.9095120" lon="0.1392800">
        <ele>1987.6</ele>
        <time>2020-07-25T13:34:20Z</time>
      </trkpt>
      <trkpt lat="42.9096930" lon="0.1392860">
        <ele>1986.0</ele>
        <time>2020-07-25T13:34:22Z</time>
      </trkpt>
      <trkpt lat="42.9097850" lon="0.1393000">
        <ele>1985.0</ele>
        <time>2020-07-25T13:34:23Z</time>
      </trkpt>
      <trkpt lat="42.9098760" lon="0.1393080">
        <ele>1984.0</ele>
        <time>2020-07-25T13:34:24Z</time>
      </trkpt>
      <trkpt lat="42.9100540" lon="0.1393010">
        <ele>1982.4</ele>
        <time>2020-07-25T13:34:26Z</time>
      </trkpt>
      <trkpt lat="42.9102340" lon="0.1392940">
        <ele>1980.6</ele>
        <time>2020-07-25T13:34:28Z</time>
      </trkpt>
      <trkpt lat="42.9103250" lon="0.1393000">
        <ele>1979.4</ele>
        <time>2020-07-25T13:34:29Z</time>
      </trkpt>
      <trkpt lat="42.9105000" lon="0.1393270">
        <ele>1977.6</ele>
        <time>2020-07-25T13:34:31Z</time>
      </trkpt>
      <trkpt lat="42.9106590" lon="0.1393710">
        <ele>1976.2</ele>
        <time>2020-07-25T13:34:33Z</time>
      </trkpt>
      <trkpt lat="42.9108040" lon="0.1394220">
        <ele>1974.6</ele>
        <time>2020-07-25T13:34:35Z</time>
      </trkpt>
      <trkpt lat="42.9109920" lon="0.1394740">
        <ele>1973.4</ele>
        <time>2020-07-25T13:34:38Z</time>
      </trkpt>
      <trkpt lat="42.9111780" lon="0.1394910">
        <ele>1972.0</ele>
        <time>2020-07-25T13:34:41Z</time>
      </trkpt>
      <trkpt lat="42.9112370" lon="0.1394840">
        <ele>1971.6</ele>
        <time>2020-07-25T13:34:42Z</time>
      </trkpt>
      <trkpt lat="42.9112910" lon="0.1394610">
        <ele>1971.0</ele>
        <time>2020-07-25T13:34:43Z</time>
      </trkpt>
      <trkpt lat="42.9113360" lon="0.1394160">
        <ele>1970.6</ele>
        <time>2020-07-25T13:34:44Z</time>
      </trkpt>
      <trkpt lat="42.9113980" lon="0.1392880">
        <ele>1969.6</ele>
        <time>2020-07-25T13:34:46Z</time>
      </trkpt>
      <trkpt lat="42.9114210" lon="0.1392070">
        <ele>1968.8</ele>
        <time>2020-07-25T13:34:47Z</time>
      </trkpt>
      <trkpt lat="42.9114480" lon="0.1391230">
        <ele>1968.2</ele>
        <time>2020-07-25T13:34:48Z</time>
      </trkpt>
      <trkpt lat="42.9114820" lon="0.1390370">
        <ele>1967.6</ele>
        <time>2020-07-25T13:34:49Z</time>
      </trkpt>
      <trkpt lat="42.9115270" lon="0.1389490">
        <ele>1966.8</ele>
        <time>2020-07-25T13:34:50Z</time>
      </trkpt>
      <trkpt lat="42.9115750" lon="0.1388510">
        <ele>1965.8</ele>
        <time>2020-07-25T13:34:51Z</time>
      </trkpt>
      <trkpt lat="42.9116250" lon="0.1387470">
        <ele>1964.8</ele>
        <time>2020-07-25T13:34:52Z</time>
      </trkpt>
      <trkpt lat="42.9116720" lon="0.1386450">
        <ele>1963.4</ele>
        <time>2020-07-25T13:34:53Z</time>
      </trkpt>
      <trkpt lat="42.9117160" lon="0.1385560">
        <ele>1962.4</ele>
        <time>2020-07-25T13:34:54Z</time>
      </trkpt>
      <trkpt lat="42.9117640" lon="0.1384800">
        <ele>1961.4</ele>
        <time>2020-07-25T13:34:55Z</time>
      </trkpt>
      <trkpt lat="42.9118260" lon="0.1384220">
        <ele>1960.8</ele>
        <time>2020-07-25T13:34:56Z</time>
      </trkpt>
      <trkpt lat="42.9118950" lon="0.1383800">
        <ele>1960.2</ele>
        <time>2020-07-25T13:34:57Z</time>
      </trkpt>
      <trkpt lat="42.9119720" lon="0.1383480">
        <ele>1959.6</ele>
        <time>2020-07-25T13:34:58Z</time>
      </trkpt>
      <trkpt lat="42.9120550" lon="0.1383220">
        <ele>1959.0</ele>
        <time>2020-07-25T13:34:59Z</time>
      </trkpt>
      <trkpt lat="42.9121410" lon="0.1382980">
        <ele>1958.0</ele>
        <time>2020-07-25T13:35:00Z</time>
      </trkpt>
      <trkpt lat="42.9122280" lon="0.1382690">
        <ele>1957.0</ele>
        <time>2020-07-25T13:35:01Z</time>
      </trkpt>
      <trkpt lat="42.9124100" lon="0.1381780">
        <ele>1955.2</ele>
        <time>2020-07-25T13:35:03Z</time>
      </trkpt>
      <trkpt lat="42.9125030" lon="0.1381210">
        <ele>1954.4</ele>
        <time>2020-07-25T13:35:04Z</time>
      </trkpt>
      <trkpt lat="42.9125950" lon="0.1380550">
        <ele>1953.2</ele>
        <time>2020-07-25T13:35:05Z</time>
      </trkpt>
      <trkpt lat="42.9126730" lon="0.1379630">
        <ele>1952.0</ele>
        <time>2020-07-25T13:35:06Z</time>
      </trkpt>
      <trkpt lat="42.9127950" lon="0.1377380">
        <ele>1950.2</ele>
        <time>2020-07-25T13:35:08Z</time>
      </trkpt>
      <trkpt lat="42.9128970" lon="0.1375180">
        <ele>1948.8</ele>
        <time>2020-07-25T13:35:10Z</time>
      </trkpt>
      <trkpt lat="42.9130020" lon="0.1373520">
        <ele>1947.8</ele>
        <time>2020-07-25T13:35:12Z</time>
      </trkpt>
      <trkpt lat="42.9131500" lon="0.1372360">
        <ele>1946.2</ele>
        <time>2020-07-25T13:35:14Z</time>
      </trkpt>
      <trkpt lat="42.9132340" lon="0.1371910">
        <ele>1945.0</ele>
        <time>2020-07-25T13:35:15Z</time>
      </trkpt>
      <trkpt lat="42.9133760" lon="0.1370870">
        <ele>1943.4</ele>
        <time>2020-07-25T13:35:17Z</time>
      </trkpt>
      <trkpt lat="42.9134250" lon="0.1370200">
        <ele>1942.8</ele>
        <time>2020-07-25T13:35:18Z</time>
      </trkpt>
      <trkpt lat="42.9134540" lon="0.1369460">
        <ele>1942.2</ele>
        <time>2020-07-25T13:35:19Z</time>
      </trkpt>
      <trkpt lat="42.9134400" lon="0.1367800">
        <ele>1941.0</ele>
        <time>2020-07-25T13:35:21Z</time>
      </trkpt>
      <trkpt lat="42.9133600" lon="0.1366520">
        <ele>1939.2</ele>
        <time>2020-07-25T13:35:23Z</time>
      </trkpt>
      <trkpt lat="42.9133000" lon="0.1366320">
        <ele>1938.6</ele>
        <time>2020-07-25T13:35:24Z</time>
      </trkpt>
      <trkpt lat="42.9132450" lon="0.1366300">
        <ele>1938.2</ele>
        <time>2020-07-25T13:35:25Z</time>
      </trkpt>
      <trkpt lat="42.9131510" lon="0.1366740">
        <ele>1937.6</ele>
        <time>2020-07-25T13:35:27Z</time>
      </trkpt>
      <trkpt lat="42.9130550" lon="0.1367630">
        <ele>1936.8</ele>
        <time>2020-07-25T13:35:29Z</time>
      </trkpt>
      <trkpt lat="42.9130110" lon="0.1368240">
        <ele>1936.6</ele>
        <time>2020-07-25T13:35:30Z</time>
      </trkpt>
      <trkpt lat="42.9129710" lon="0.1368910">
        <ele>1936.0</ele>
        <time>2020-07-25T13:35:31Z</time>
      </trkpt>
      <trkpt lat="42.9129320" lon="0.1369660">
        <ele>1935.8</ele>
        <time>2020-07-25T13:35:32Z</time>
      </trkpt>
      <trkpt lat="42.9127740" lon="0.1373260">
        <ele>1934.6</ele>
        <time>2020-07-25T13:35:36Z</time>
      </trkpt>
      <trkpt lat="42.9127300" lon="0.1374090">
        <ele>1934.4</ele>
        <time>2020-07-25T13:35:37Z</time>
      </trkpt>
      <trkpt lat="42.9126200" lon="0.1375520">
        <ele>1934.0</ele>
        <time>2020-07-25T13:35:39Z</time>
      </trkpt>
      <trkpt lat="42.9125560" lon="0.1376160">
        <ele>1933.6</ele>
        <time>2020-07-25T13:35:40Z</time>
      </trkpt>
      <trkpt lat="42.9124870" lon="0.1376700">
        <ele>1933.4</ele>
        <time>2020-07-25T13:35:41Z</time>
      </trkpt>
      <trkpt lat="42.9122560" lon="0.1377780">
        <ele>1933.0</ele>
        <time>2020-07-25T13:35:44Z</time>
      </trkpt>
      <trkpt lat="42.9121710" lon="0.1378020">
        <ele>1932.6</ele>
        <time>2020-07-25T13:35:45Z</time>
      </trkpt>
      <trkpt lat="42.9119990" lon="0.1378180">
        <ele>1932.4</ele>
        <time>2020-07-25T13:35:47Z</time>
      </trkpt>
      <trkpt lat="42.9119110" lon="0.1378150">
        <ele>1932.2</ele>
        <time>2020-07-25T13:35:48Z</time>
      </trkpt>
      <trkpt lat="42.9117490" lon="0.1378190">
        <ele>1931.6</ele>
        <time>2020-07-25T13:35:50Z</time>
      </trkpt>
      <trkpt lat="42.9116730" lon="0.1378330">
        <ele>1931.4</ele>
        <time>2020-07-25T13:35:51Z</time>
      </trkpt>
      <trkpt lat="42.9116050" lon="0.1378650">
        <ele>1931.2</ele>
        <time>2020-07-25T13:35:52Z</time>
      </trkpt>
      <trkpt lat="42.9115370" lon="0.1379120">
        <ele>1930.8</ele>
        <time>2020-07-25T13:35:53Z</time>
      </trkpt>
      <trkpt lat="42.9114100" lon="0.1380410">
        <ele>1930.4</ele>
        <time>2020-07-25T13:35:55Z</time>
      </trkpt>
      <trkpt lat="42.9112180" lon="0.1382700">
        <ele>1929.2</ele>
        <time>2020-07-25T13:35:58Z</time>
      </trkpt>
      <trkpt lat="42.9111010" lon="0.1384410">
        <ele>1928.6</ele>
        <time>2020-07-25T13:36:00Z</time>
      </trkpt>
      <trkpt lat="42.9110380" lon="0.1385000">
        <ele>1928.6</ele>
        <time>2020-07-25T13:36:01Z</time>
      </trkpt>
      <trkpt lat="42.9108930" lon="0.1385000">
        <ele>1928.4</ele>
        <time>2020-07-25T13:36:03Z</time>
      </trkpt>
      <trkpt lat="42.9108250" lon="0.1384490">
        <ele>1928.2</ele>
        <time>2020-07-25T13:36:04Z</time>
      </trkpt>
      <trkpt lat="42.9107760" lon="0.1383660">
        <ele>1928.0</ele>
        <time>2020-07-25T13:36:05Z</time>
      </trkpt>
      <trkpt lat="42.9106780" lon="0.1381830">
        <ele>1926.4</ele>
        <time>2020-07-25T13:36:07Z</time>
      </trkpt>
      <trkpt lat="42.9105720" lon="0.1380390">
        <ele>1925.2</ele>
        <time>2020-07-25T13:36:09Z</time>
      </trkpt>
      <trkpt lat="42.9104290" lon="0.1380150">
        <ele>1924.2</ele>
        <time>2020-07-25T13:36:11Z</time>
      </trkpt>
      <trkpt lat="42.9103470" lon="0.1380290">
        <ele>1923.8</ele>
        <time>2020-07-25T13:36:12Z</time>
      </trkpt>
      <trkpt lat="42.9101580" lon="0.1380330">
        <ele>1923.2</ele>
        <time>2020-07-25T13:36:14Z</time>
      </trkpt>
      <trkpt lat="42.9100570" lon="0.1380250">
        <ele>1922.6</ele>
        <time>2020-07-25T13:36:15Z</time>
      </trkpt>
      <trkpt lat="42.9098520" lon="0.1380040">
        <ele>1920.4</ele>
        <time>2020-07-25T13:36:17Z</time>
      </trkpt>
      <trkpt lat="42.9097410" lon="0.1379950">
        <ele>1919.0</ele>
        <time>2020-07-25T13:36:18Z</time>
      </trkpt>
      <trkpt lat="42.9096310" lon="0.1379860">
        <ele>1917.8</ele>
        <time>2020-07-25T13:36:19Z</time>
      </trkpt>
      <trkpt lat="42.9095200" lon="0.1379730">
        <ele>1916.8</ele>
        <time>2020-07-25T13:36:20Z</time>
      </trkpt>
      <trkpt lat="42.9094080" lon="0.1379560">
        <ele>1915.8</ele>
        <time>2020-07-25T13:36:21Z</time>
      </trkpt>
      <trkpt lat="42.9092980" lon="0.1379300">
        <ele>1914.8</ele>
        <time>2020-07-25T13:36:22Z</time>
      </trkpt>
      <trkpt lat="42.9091890" lon="0.1378970">
        <ele>1913.6</ele>
        <time>2020-07-25T13:36:23Z</time>
      </trkpt>
      <trkpt lat="42.9090780" lon="0.1378580">
        <ele>1912.6</ele>
        <time>2020-07-25T13:36:24Z</time>
      </trkpt>
      <trkpt lat="42.9089690" lon="0.1378200">
        <ele>1911.4</ele>
        <time>2020-07-25T13:36:25Z</time>
      </trkpt>
      <trkpt lat="42.9088610" lon="0.1377920">
        <ele>1910.6</ele>
        <time>2020-07-25T13:36:26Z</time>
      </trkpt>
      <trkpt lat="42.9087560" lon="0.1377770">
        <ele>1909.6</ele>
        <time>2020-07-25T13:36:27Z</time>
      </trkpt>
      <trkpt lat="42.9086520" lon="0.1377690">
        <ele>1908.6</ele>
        <time>2020-07-25T13:36:28Z</time>
      </trkpt>
      <trkpt lat="42.9084600" lon="0.1377580">
        <ele>1906.8</ele>
        <time>2020-07-25T13:36:30Z</time>
      </trkpt>
      <trkpt lat="42.9083710" lon="0.1377680">
        <ele>1906.0</ele>
        <time>2020-07-25T13:36:31Z</time>
      </trkpt>
      <trkpt lat="42.9082860" lon="0.1377980">
        <ele>1905.4</ele>
        <time>2020-07-25T13:36:32Z</time>
      </trkpt>
      <trkpt lat="42.9082020" lon="0.1378470">
        <ele>1904.8</ele>
        <time>2020-07-25T13:36:33Z</time>
      </trkpt>
      <trkpt lat="42.9081060" lon="0.1379000">
        <ele>1904.2</ele>
        <time>2020-07-25T13:36:34Z</time>
      </trkpt>
      <trkpt lat="42.9079150" lon="0.1380050">
        <ele>1903.0</ele>
        <time>2020-07-25T13:36:36Z</time>
      </trkpt>
      <trkpt lat="42.9078310" lon="0.1380680">
        <ele>1902.2</ele>
        <time>2020-07-25T13:36:37Z</time>
      </trkpt>
      <trkpt lat="42.9077610" lon="0.1381510">
        <ele>1901.0</ele>
        <time>2020-07-25T13:36:38Z</time>
      </trkpt>
      <trkpt lat="42.9076940" lon="0.1382410">
        <ele>1900.2</ele>
        <time>2020-07-25T13:36:39Z</time>
      </trkpt>
      <trkpt lat="42.9076290" lon="0.1383330">
        <ele>1899.6</ele>
        <time>2020-07-25T13:36:40Z</time>
      </trkpt>
      <trkpt lat="42.9074850" lon="0.1384940">
        <ele>1898.2</ele>
        <time>2020-07-25T13:36:42Z</time>
      </trkpt>
      <trkpt lat="42.9074020" lon="0.1385450">
        <ele>1897.2</ele>
        <time>2020-07-25T13:36:43Z</time>
      </trkpt>
      <trkpt lat="42.9073120" lon="0.1385730">
        <ele>1896.2</ele>
        <time>2020-07-25T13:36:44Z</time>
      </trkpt>
      <trkpt lat="42.9071130" lon="0.1385680">
        <ele>1894.4</ele>
        <time>2020-07-25T13:36:46Z</time>
      </trkpt>
      <trkpt lat="42.9069210" lon="0.1385740">
        <ele>1892.6</ele>
        <time>2020-07-25T13:36:48Z</time>
      </trkpt>
      <trkpt lat="42.9067380" lon="0.1386200">
        <ele>1891.4</ele>
        <time>2020-07-25T13:36:50Z</time>
      </trkpt>
      <trkpt lat="42.9065730" lon="0.1386630">
        <ele>1889.8</ele>
        <time>2020-07-25T13:36:52Z</time>
      </trkpt>
      <trkpt lat="42.9064880" lon="0.1386680">
        <ele>1889.0</ele>
        <time>2020-07-25T13:36:53Z</time>
      </trkpt>
      <trkpt lat="42.9063970" lon="0.1386550">
        <ele>1888.4</ele>
        <time>2020-07-25T13:36:54Z</time>
      </trkpt>
      <trkpt lat="42.9063050" lon="0.1386210">
        <ele>1887.8</ele>
        <time>2020-07-25T13:36:55Z</time>
      </trkpt>
      <trkpt lat="42.9062140" lon="0.1385650">
        <ele>1887.2</ele>
        <time>2020-07-25T13:36:56Z</time>
      </trkpt>
      <trkpt lat="42.9061240" lon="0.1384940">
        <ele>1886.6</ele>
        <time>2020-07-25T13:36:57Z</time>
      </trkpt>
      <trkpt lat="42.9060350" lon="0.1384180">
        <ele>1885.4</ele>
        <time>2020-07-25T13:36:58Z</time>
      </trkpt>
      <trkpt lat="42.9059390" lon="0.1383500">
        <ele>1884.0</ele>
        <time>2020-07-25T13:36:59Z</time>
      </trkpt>
      <trkpt lat="42.9058390" lon="0.1382890">
        <ele>1882.6</ele>
        <time>2020-07-25T13:37:00Z</time>
      </trkpt>
      <trkpt lat="42.9057360" lon="0.1382230">
        <ele>1881.6</ele>
        <time>2020-07-25T13:37:01Z</time>
      </trkpt>
      <trkpt lat="42.9056390" lon="0.1381480">
        <ele>1880.6</ele>
        <time>2020-07-25T13:37:02Z</time>
      </trkpt>
      <trkpt lat="42.9055440" lon="0.1380660">
        <ele>1879.8</ele>
        <time>2020-07-25T13:37:03Z</time>
      </trkpt>
      <trkpt lat="42.9053810" lon="0.1378780">
        <ele>1878.2</ele>
        <time>2020-07-25T13:37:05Z</time>
      </trkpt>
      <trkpt lat="42.9053140" lon="0.1377710">
        <ele>1877.6</ele>
        <time>2020-07-25T13:37:06Z</time>
      </trkpt>
      <trkpt lat="42.9052580" lon="0.1376590">
        <ele>1876.6</ele>
        <time>2020-07-25T13:37:07Z</time>
      </trkpt>
      <trkpt lat="42.9052030" lon="0.1375440">
        <ele>1875.4</ele>
        <time>2020-07-25T13:37:08Z</time>
      </trkpt>
      <trkpt lat="42.9051420" lon="0.1374340">
        <ele>1874.4</ele>
        <time>2020-07-25T13:37:09Z</time>
      </trkpt>
      <trkpt lat="42.9050760" lon="0.1373340">
        <ele>1873.4</ele>
        <time>2020-07-25T13:37:10Z</time>
      </trkpt>
      <trkpt lat="42.9050110" lon="0.1372410">
        <ele>1872.6</ele>
        <time>2020-07-25T13:37:11Z</time>
      </trkpt>
      <trkpt lat="42.9049430" lon="0.1371620">
        <ele>1872.0</ele>
        <time>2020-07-25T13:37:12Z</time>
      </trkpt>
      <trkpt lat="42.9047950" lon="0.1370550">
        <ele>1871.2</ele>
        <time>2020-07-25T13:37:14Z</time>
      </trkpt>
      <trkpt lat="42.9046270" lon="0.1370360">
        <ele>1870.0</ele>
        <time>2020-07-25T13:37:16Z</time>
      </trkpt>
      <trkpt lat="42.9045440" lon="0.1370530">
        <ele>1869.6</ele>
        <time>2020-07-25T13:37:17Z</time>
      </trkpt>
      <trkpt lat="42.9044620" lon="0.1370690">
        <ele>1868.8</ele>
        <time>2020-07-25T13:37:18Z</time>
      </trkpt>
      <trkpt lat="42.9043800" lon="0.1370730">
        <ele>1868.0</ele>
        <time>2020-07-25T13:37:19Z</time>
      </trkpt>
      <trkpt lat="42.9042930" lon="0.1370660">
        <ele>1867.2</ele>
        <time>2020-07-25T13:37:20Z</time>
      </trkpt>
      <trkpt lat="42.9042060" lon="0.1370490">
        <ele>1866.6</ele>
        <time>2020-07-25T13:37:21Z</time>
      </trkpt>
      <trkpt lat="42.9041190" lon="0.1370230">
        <ele>1866.2</ele>
        <time>2020-07-25T13:37:22Z</time>
      </trkpt>
      <trkpt lat="42.9039430" lon="0.1369500">
        <ele>1865.0</ele>
        <time>2020-07-25T13:37:24Z</time>
      </trkpt>
      <trkpt lat="42.9037820" lon="0.1368620">
        <ele>1863.6</ele>
        <time>2020-07-25T13:37:26Z</time>
      </trkpt>
      <trkpt lat="42.9036600" lon="0.1367260">
        <ele>1861.8</ele>
        <time>2020-07-25T13:37:28Z</time>
      </trkpt>
      <trkpt lat="42.9036170" lon="0.1366310">
        <ele>1860.8</ele>
        <time>2020-07-25T13:37:29Z</time>
      </trkpt>
      <trkpt lat="42.9035310" lon="0.1364200">
        <ele>1858.8</ele>
        <time>2020-07-25T13:37:31Z</time>
      </trkpt>
      <trkpt lat="42.9034050" lon="0.1362380">
        <ele>1857.0</ele>
        <time>2020-07-25T13:37:33Z</time>
      </trkpt>
      <trkpt lat="42.9032610" lon="0.1361060">
        <ele>1855.8</ele>
        <time>2020-07-25T13:37:35Z</time>
      </trkpt>
      <trkpt lat="42.9031900" lon="0.1360600">
        <ele>1855.2</ele>
        <time>2020-07-25T13:37:36Z</time>
      </trkpt>
      <trkpt lat="42.9031220" lon="0.1360360">
        <ele>1854.4</ele>
        <time>2020-07-25T13:37:37Z</time>
      </trkpt>
      <trkpt lat="42.9029860" lon="0.1360000">
        <ele>1853.6</ele>
        <time>2020-07-25T13:37:39Z</time>
      </trkpt>
      <trkpt lat="42.9029260" lon="0.1359530">
        <ele>1853.0</ele>
        <time>2020-07-25T13:37:40Z</time>
      </trkpt>
      <trkpt lat="42.9028680" lon="0.1358860">
        <ele>1852.2</ele>
        <time>2020-07-25T13:37:41Z</time>
      </trkpt>
      <trkpt lat="42.9028260" lon="0.1358050">
        <ele>1851.4</ele>
        <time>2020-07-25T13:37:42Z</time>
      </trkpt>
      <trkpt lat="42.9028160" lon="0.1356960">
        <ele>1850.4</ele>
        <time>2020-07-25T13:37:43Z</time>
      </trkpt>
      <trkpt lat="42.9028010" lon="0.1355750">
        <ele>1849.8</ele>
        <time>2020-07-25T13:37:44Z</time>
      </trkpt>
      <trkpt lat="42.9027450" lon="0.1353260">
        <ele>1848.2</ele>
        <time>2020-07-25T13:37:46Z</time>
      </trkpt>
      <trkpt lat="42.9027240" lon="0.1351890">
        <ele>1847.4</ele>
        <time>2020-07-25T13:37:47Z</time>
      </trkpt>
      <trkpt lat="42.9027250" lon="0.1350480">
        <ele>1846.6</ele>
        <time>2020-07-25T13:37:48Z</time>
      </trkpt>
      <trkpt lat="42.9027430" lon="0.1349090">
        <ele>1845.4</ele>
        <time>2020-07-25T13:37:49Z</time>
      </trkpt>
      <trkpt lat="42.9027670" lon="0.1347790">
        <ele>1844.4</ele>
        <time>2020-07-25T13:37:50Z</time>
      </trkpt>
      <trkpt lat="42.9027830" lon="0.1346530">
        <ele>1843.2</ele>
        <time>2020-07-25T13:37:51Z</time>
      </trkpt>
      <trkpt lat="42.9027800" lon="0.1345320">
        <ele>1842.2</ele>
        <time>2020-07-25T13:37:52Z</time>
      </trkpt>
      <trkpt lat="42.9027580" lon="0.1344160">
        <ele>1841.4</ele>
        <time>2020-07-25T13:37:53Z</time>
      </trkpt>
      <trkpt lat="42.9027290" lon="0.1343100">
        <ele>1840.8</ele>
        <time>2020-07-25T13:37:54Z</time>
      </trkpt>
      <trkpt lat="42.9026610" lon="0.1341320">
        <ele>1840.0</ele>
        <time>2020-07-25T13:37:56Z</time>
      </trkpt>
      <trkpt lat="42.9026200" lon="0.1340620">
        <ele>1839.8</ele>
        <time>2020-07-25T13:37:57Z</time>
      </trkpt>
      <trkpt lat="42.9025750" lon="0.1340040">
        <ele>1839.6</ele>
        <time>2020-07-25T13:37:58Z</time>
      </trkpt>
      <trkpt lat="42.9025260" lon="0.1339580">
        <ele>1839.2</ele>
        <time>2020-07-25T13:37:59Z</time>
      </trkpt>
      <trkpt lat="42.9024640" lon="0.1339270">
        <ele>1838.6</ele>
        <time>2020-07-25T13:38:00Z</time>
      </trkpt>
      <trkpt lat="42.9023480" lon="0.1338310">
        <ele>1837.6</ele>
        <time>2020-07-25T13:38:02Z</time>
      </trkpt>
      <trkpt lat="42.9023000" lon="0.1337500">
        <ele>1836.8</ele>
        <time>2020-07-25T13:38:03Z</time>
      </trkpt>
      <trkpt lat="42.9022700" lon="0.1336500">
        <ele>1835.8</ele>
        <time>2020-07-25T13:38:04Z</time>
      </trkpt>
      <trkpt lat="42.9022530" lon="0.1335370">
        <ele>1834.8</ele>
        <time>2020-07-25T13:38:05Z</time>
      </trkpt>
      <trkpt lat="42.9022360" lon="0.1334190">
        <ele>1833.8</ele>
        <time>2020-07-25T13:38:06Z</time>
      </trkpt>
      <trkpt lat="42.9022140" lon="0.1332940">
        <ele>1832.6</ele>
        <time>2020-07-25T13:38:07Z</time>
      </trkpt>
      <trkpt lat="42.9021790" lon="0.1331660">
        <ele>1831.2</ele>
        <time>2020-07-25T13:38:08Z</time>
      </trkpt>
      <trkpt lat="42.9021280" lon="0.1330390">
        <ele>1830.2</ele>
        <time>2020-07-25T13:38:09Z</time>
      </trkpt>
      <trkpt lat="42.9020750" lon="0.1329140">
        <ele>1829.0</ele>
        <time>2020-07-25T13:38:10Z</time>
      </trkpt>
      <trkpt lat="42.9019850" lon="0.1326870">
        <ele>1827.4</ele>
        <time>2020-07-25T13:38:12Z</time>
      </trkpt>
      <trkpt lat="42.9019590" lon="0.1325820">
        <ele>1827.0</ele>
        <time>2020-07-25T13:38:13Z</time>
      </trkpt>
      <trkpt lat="42.9019710" lon="0.1323790">
        <ele>1826.0</ele>
        <time>2020-07-25T13:38:15Z</time>
      </trkpt>
      <trkpt lat="42.9020040" lon="0.1322900">
        <ele>1825.6</ele>
        <time>2020-07-25T13:38:16Z</time>
      </trkpt>
      <trkpt lat="42.9020780" lon="0.1322670">
        <ele>1824.8</ele>
        <time>2020-07-25T13:38:17Z</time>
      </trkpt>
      <trkpt lat="42.9021630" lon="0.1322600">
        <ele>1824.0</ele>
        <time>2020-07-25T13:38:18Z</time>
      </trkpt>
      <trkpt lat="42.9022420" lon="0.1322490">
        <ele>1823.2</ele>
        <time>2020-07-25T13:38:19Z</time>
      </trkpt>
      <trkpt lat="42.9024070" lon="0.1322220">
        <ele>1821.6</ele>
        <time>2020-07-25T13:38:21Z</time>
      </trkpt>
      <trkpt lat="42.9025870" lon="0.1321870">
        <ele>1819.6</ele>
        <time>2020-07-25T13:38:23Z</time>
      </trkpt>
      <trkpt lat="42.9026770" lon="0.1321570">
        <ele>1818.6</ele>
        <time>2020-07-25T13:38:24Z</time>
      </trkpt>
      <trkpt lat="42.9027660" lon="0.1321210">
        <ele>1817.4</ele>
        <time>2020-07-25T13:38:25Z</time>
      </trkpt>
      <trkpt lat="42.9028390" lon="0.1320630">
        <ele>1816.4</ele>
        <time>2020-07-25T13:38:26Z</time>
      </trkpt>
      <trkpt lat="42.9028960" lon="0.1319920">
        <ele>1815.6</ele>
        <time>2020-07-25T13:38:27Z</time>
      </trkpt>
      <trkpt lat="42.9029430" lon="0.1319190">
        <ele>1815.0</ele>
        <time>2020-07-25T13:38:28Z</time>
      </trkpt>
      <trkpt lat="42.9030410" lon="0.1317850">
        <ele>1814.0</ele>
        <time>2020-07-25T13:38:30Z</time>
      </trkpt>
      <trkpt lat="42.9030970" lon="0.1317180">
        <ele>1813.6</ele>
        <time>2020-07-25T13:38:31Z</time>
      </trkpt>
      <trkpt lat="42.9032250" lon="0.1315850">
        <ele>1812.8</ele>
        <time>2020-07-25T13:38:33Z</time>
      </trkpt>
      <trkpt lat="42.9033550" lon="0.1314300">
        <ele>1811.0</ele>
        <time>2020-07-25T13:38:35Z</time>
      </trkpt>
      <trkpt lat="42.9034080" lon="0.1313350">
        <ele>1810.0</ele>
        <time>2020-07-25T13:38:36Z</time>
      </trkpt>
      <trkpt lat="42.9034450" lon="0.1312330">
        <ele>1808.8</ele>
        <time>2020-07-25T13:38:37Z</time>
      </trkpt>
      <trkpt lat="42.9034640" lon="0.1311290">
        <ele>1808.0</ele>
        <time>2020-07-25T13:38:38Z</time>
      </trkpt>
      <trkpt lat="42.9034560" lon="0.1310180">
        <ele>1807.2</ele>
        <time>2020-07-25T13:38:39Z</time>
      </trkpt>
      <trkpt lat="42.9034300" lon="0.1307800">
        <ele>1806.0</ele>
        <time>2020-07-25T13:38:41Z</time>
      </trkpt>
      <trkpt lat="42.9034320" lon="0.1306590">
        <ele>1805.2</ele>
        <time>2020-07-25T13:38:42Z</time>
      </trkpt>
      <trkpt lat="42.9034510" lon="0.1305350">
        <ele>1804.4</ele>
        <time>2020-07-25T13:38:43Z</time>
      </trkpt>
      <trkpt lat="42.9034790" lon="0.1304110">
        <ele>1803.6</ele>
        <time>2020-07-25T13:38:44Z</time>
      </trkpt>
      <trkpt lat="42.9035090" lon="0.1302860">
        <ele>1802.6</ele>
        <time>2020-07-25T13:38:45Z</time>
      </trkpt>
      <trkpt lat="42.9035750" lon="0.1300270">
        <ele>1800.8</ele>
        <time>2020-07-25T13:38:47Z</time>
      </trkpt>
      <trkpt lat="42.9036490" lon="0.1297850">
        <ele>1799.2</ele>
        <time>2020-07-25T13:38:49Z</time>
      </trkpt>
      <trkpt lat="42.9036890" lon="0.1296690">
        <ele>1798.4</ele>
        <time>2020-07-25T13:38:50Z</time>
      </trkpt>
      <trkpt lat="42.9037280" lon="0.1295600">
        <ele>1798.0</ele>
        <time>2020-07-25T13:38:51Z</time>
      </trkpt>
      <trkpt lat="42.9037980" lon="0.1293410">
        <ele>1797.0</ele>
        <time>2020-07-25T13:38:53Z</time>
      </trkpt>
      <trkpt lat="42.9038210" lon="0.1292240">
        <ele>1796.2</ele>
        <time>2020-07-25T13:38:54Z</time>
      </trkpt>
      <trkpt lat="42.9038380" lon="0.1291040">
        <ele>1795.0</ele>
        <time>2020-07-25T13:38:55Z</time>
      </trkpt>
      <trkpt lat="42.9038470" lon="0.1289830">
        <ele>1793.8</ele>
        <time>2020-07-25T13:38:56Z</time>
      </trkpt>
      <trkpt lat="42.9038500" lon="0.1288620">
        <ele>1792.4</ele>
        <time>2020-07-25T13:38:57Z</time>
      </trkpt>
      <trkpt lat="42.9038420" lon="0.1287470">
        <ele>1791.4</ele>
        <time>2020-07-25T13:38:58Z</time>
      </trkpt>
      <trkpt lat="42.9038200" lon="0.1286380">
        <ele>1790.6</ele>
        <time>2020-07-25T13:38:59Z</time>
      </trkpt>
      <trkpt lat="42.9037890" lon="0.1285310">
        <ele>1790.0</ele>
        <time>2020-07-25T13:39:00Z</time>
      </trkpt>
      <trkpt lat="42.9037510" lon="0.1284200">
        <ele>1789.4</ele>
        <time>2020-07-25T13:39:01Z</time>
      </trkpt>
      <trkpt lat="42.9037100" lon="0.1283020">
        <ele>1789.0</ele>
        <time>2020-07-25T13:39:02Z</time>
      </trkpt>
      <trkpt lat="42.9036740" lon="0.1281830">
        <ele>1788.2</ele>
        <time>2020-07-25T13:39:03Z</time>
      </trkpt>
      <trkpt lat="42.9036450" lon="0.1280680">
        <ele>1787.4</ele>
        <time>2020-07-25T13:39:04Z</time>
      </trkpt>
      <trkpt lat="42.9036260" lon="0.1279560">
        <ele>1786.6</ele>
        <time>2020-07-25T13:39:05Z</time>
      </trkpt>
      <trkpt lat="42.9036220" lon="0.1278470">
        <ele>1786.0</ele>
        <time>2020-07-25T13:39:06Z</time>
      </trkpt>
      <trkpt lat="42.9036330" lon="0.1277390">
        <ele>1785.2</ele>
        <time>2020-07-25T13:39:07Z</time>
      </trkpt>
      <trkpt lat="42.9036610" lon="0.1276340">
        <ele>1784.4</ele>
        <time>2020-07-25T13:39:08Z</time>
      </trkpt>
      <trkpt lat="42.9037030" lon="0.1275320">
        <ele>1783.4</ele>
        <time>2020-07-25T13:39:09Z</time>
      </trkpt>
      <trkpt lat="42.9037450" lon="0.1274320">
        <ele>1782.6</ele>
        <time>2020-07-25T13:39:10Z</time>
      </trkpt>
      <trkpt lat="42.9037740" lon="0.1273280">
        <ele>1781.8</ele>
        <time>2020-07-25T13:39:11Z</time>
      </trkpt>
      <trkpt lat="42.9037850" lon="0.1272220">
        <ele>1781.0</ele>
        <time>2020-07-25T13:39:12Z</time>
      </trkpt>
      <trkpt lat="42.9037830" lon="0.1271040">
        <ele>1780.2</ele>
        <time>2020-07-25T13:39:13Z</time>
      </trkpt>
      <trkpt lat="42.9037790" lon="0.1269810">
        <ele>1779.6</ele>
        <time>2020-07-25T13:39:14Z</time>
      </trkpt>
      <trkpt lat="42.9037850" lon="0.1268560">
        <ele>1778.8</ele>
        <time>2020-07-25T13:39:15Z</time>
      </trkpt>
      <trkpt lat="42.9038050" lon="0.1267350">
        <ele>1777.8</ele>
        <time>2020-07-25T13:39:16Z</time>
      </trkpt>
      <trkpt lat="42.9038360" lon="0.1266260">
        <ele>1776.8</ele>
        <time>2020-07-25T13:39:17Z</time>
      </trkpt>
      <trkpt lat="42.9039050" lon="0.1264590">
        <ele>1775.6</ele>
        <time>2020-07-25T13:39:19Z</time>
      </trkpt>
      <trkpt lat="42.9039400" lon="0.1264040">
        <ele>1775.4</ele>
        <time>2020-07-25T13:39:20Z</time>
      </trkpt>
      <trkpt lat="42.9039840" lon="0.1263840">
        <ele>1775.2</ele>
        <time>2020-07-25T13:39:21Z</time>
      </trkpt>
      <trkpt lat="42.9040360" lon="0.1264000">
        <ele>1775.0</ele>
        <time>2020-07-25T13:39:22Z</time>
      </trkpt>
      <trkpt lat="42.9040850" lon="0.1264470">
        <ele>1775.0</ele>
        <time>2020-07-25T13:39:23Z</time>
      </trkpt>
      <trkpt lat="42.9041150" lon="0.1265200">
        <ele>1774.4</ele>
        <time>2020-07-25T13:39:24Z</time>
      </trkpt>
      <trkpt lat="42.9041160" lon="0.1266180">
        <ele>1773.8</ele>
        <time>2020-07-25T13:39:25Z</time>
      </trkpt>
      <trkpt lat="42.9041050" lon="0.1267160">
        <ele>1773.2</ele>
        <time>2020-07-25T13:39:26Z</time>
      </trkpt>
      <trkpt lat="42.9040810" lon="0.1269240">
        <ele>1771.4</ele>
        <time>2020-07-25T13:39:28Z</time>
      </trkpt>
      <trkpt lat="42.9040840" lon="0.1270270">
        <ele>1770.4</ele>
        <time>2020-07-25T13:39:29Z</time>
      </trkpt>
      <trkpt lat="42.9040980" lon="0.1271190">
        <ele>1769.6</ele>
        <time>2020-07-25T13:39:30Z</time>
      </trkpt>
      <trkpt lat="42.9041150" lon="0.1271990">
        <ele>1769.2</ele>
        <time>2020-07-25T13:39:31Z</time>
      </trkpt>
      <trkpt lat="42.9041830" lon="0.1274140">
        <ele>1768.6</ele>
        <time>2020-07-25T13:39:34Z</time>
      </trkpt>
      <trkpt lat="42.9042050" lon="0.1274960">
        <ele>1768.6</ele>
        <time>2020-07-25T13:39:35Z</time>
      </trkpt>
      <trkpt lat="42.9042310" lon="0.1276820">
        <ele>1768.4</ele>
        <time>2020-07-25T13:39:37Z</time>
      </trkpt>
      <trkpt lat="42.9042370" lon="0.1277860">
        <ele>1768.4</ele>
        <time>2020-07-25T13:39:38Z</time>
      </trkpt>
      <trkpt lat="42.9042460" lon="0.1280020">
        <ele>1768.2</ele>
        <time>2020-07-25T13:39:40Z</time>
      </trkpt>
      <trkpt lat="42.9042820" lon="0.1284510">
        <ele>1767.0</ele>
        <time>2020-07-25T13:39:44Z</time>
      </trkpt>
      <trkpt lat="42.9043040" lon="0.1285690">
        <ele>1766.8</ele>
        <time>2020-07-25T13:39:45Z</time>
      </trkpt>
      <trkpt lat="42.9043480" lon="0.1288130">
        <ele>1766.0</ele>
        <time>2020-07-25T13:39:47Z</time>
      </trkpt>
      <trkpt lat="42.9044550" lon="0.1293300">
        <ele>1765.2</ele>
        <time>2020-07-25T13:39:51Z</time>
      </trkpt>
      <trkpt lat="42.9044910" lon="0.1294710">
        <ele>1765.0</ele>
        <time>2020-07-25T13:39:52Z</time>
      </trkpt>
      <trkpt lat="42.9045800" lon="0.1297330">
        <ele>1763.8</ele>
        <time>2020-07-25T13:39:54Z</time>
      </trkpt>
      <trkpt lat="42.9046470" lon="0.1298450">
        <ele>1762.8</ele>
        <time>2020-07-25T13:39:55Z</time>
      </trkpt>
      <trkpt lat="42.9047250" lon="0.1299380">
        <ele>1761.6</ele>
        <time>2020-07-25T13:39:56Z</time>
      </trkpt>
      <trkpt lat="42.9048120" lon="0.1300150">
        <ele>1760.6</ele>
        <time>2020-07-25T13:39:57Z</time>
      </trkpt>
      <trkpt lat="42.9049050" lon="0.1300820">
        <ele>1759.6</ele>
        <time>2020-07-25T13:39:58Z</time>
      </trkpt>
      <trkpt lat="42.9050040" lon="0.1301440">
        <ele>1758.8</ele>
        <time>2020-07-25T13:39:59Z</time>
      </trkpt>
      <trkpt lat="42.9052040" lon="0.1302800">
        <ele>1757.0</ele>
        <time>2020-07-25T13:40:01Z</time>
      </trkpt>
      <trkpt lat="42.9052920" lon="0.1303700">
        <ele>1756.2</ele>
        <time>2020-07-25T13:40:02Z</time>
      </trkpt>
      <trkpt lat="42.9053740" lon="0.1304780">
        <ele>1755.2</ele>
        <time>2020-07-25T13:40:03Z</time>
      </trkpt>
      <trkpt lat="42.9054480" lon="0.1305950">
        <ele>1754.0</ele>
        <time>2020-07-25T13:40:04Z</time>
      </trkpt>
      <trkpt lat="42.9055120" lon="0.1307150">
        <ele>1752.6</ele>
        <time>2020-07-25T13:40:05Z</time>
      </trkpt>
      <trkpt lat="42.9055690" lon="0.1308370">
        <ele>1751.2</ele>
        <time>2020-07-25T13:40:06Z</time>
      </trkpt>
      <trkpt lat="42.9056140" lon="0.1309650">
        <ele>1750.0</ele>
        <time>2020-07-25T13:40:07Z</time>
      </trkpt>
      <trkpt lat="42.9056480" lon="0.1310990">
        <ele>1749.2</ele>
        <time>2020-07-25T13:40:08Z</time>
      </trkpt>
      <trkpt lat="42.9056720" lon="0.1312360">
        <ele>1748.4</ele>
        <time>2020-07-25T13:40:09Z</time>
      </trkpt>
      <trkpt lat="42.9057000" lon="0.1313700">
        <ele>1748.0</ele>
        <time>2020-07-25T13:40:10Z</time>
      </trkpt>
      <trkpt lat="42.9057470" lon="0.1314880">
        <ele>1747.4</ele>
        <time>2020-07-25T13:40:11Z</time>
      </trkpt>
      <trkpt lat="42.9058110" lon="0.1315800">
        <ele>1746.6</ele>
        <time>2020-07-25T13:40:12Z</time>
      </trkpt>
      <trkpt lat="42.9058880" lon="0.1316430">
        <ele>1746.0</ele>
        <time>2020-07-25T13:40:13Z</time>
      </trkpt>
      <trkpt lat="42.9059810" lon="0.1316660">
        <ele>1745.4</ele>
        <time>2020-07-25T13:40:14Z</time>
      </trkpt>
      <trkpt lat="42.9060760" lon="0.1316680">
        <ele>1745.0</ele>
        <time>2020-07-25T13:40:15Z</time>
      </trkpt>
      <trkpt lat="42.9061690" lon="0.1316480">
        <ele>1744.6</ele>
        <time>2020-07-25T13:40:16Z</time>
      </trkpt>
      <trkpt lat="42.9062550" lon="0.1316120">
        <ele>1744.2</ele>
        <time>2020-07-25T13:40:17Z</time>
      </trkpt>
      <trkpt lat="42.9064100" lon="0.1315030">
        <ele>1743.8</ele>
        <time>2020-07-25T13:40:19Z</time>
      </trkpt>
      <trkpt lat="42.9064760" lon="0.1314310">
        <ele>1743.6</ele>
        <time>2020-07-25T13:40:20Z</time>
      </trkpt>
      <trkpt lat="42.9065310" lon="0.1313490">
        <ele>1743.4</ele>
        <time>2020-07-25T13:40:21Z</time>
      </trkpt>
      <trkpt lat="42.9066180" lon="0.1311740">
        <ele>1743.4</ele>
        <time>2020-07-25T13:40:23Z</time>
      </trkpt>
      <trkpt lat="42.9066490" lon="0.1310810">
        <ele>1743.4</ele>
        <time>2020-07-25T13:40:24Z</time>
      </trkpt>
      <trkpt lat="42.9067440" lon="0.1306540">
        <ele>1742.2</ele>
        <time>2020-07-25T13:40:29Z</time>
      </trkpt>
      <trkpt lat="42.9067580" lon="0.1305750">
        <ele>1741.6</ele>
        <time>2020-07-25T13:40:30Z</time>
      </trkpt>
      <trkpt lat="42.9067720" lon="0.1304920">
        <ele>1741.2</ele>
        <time>2020-07-25T13:40:31Z</time>
      </trkpt>
      <trkpt lat="42.9068120" lon="0.1303100">
        <ele>1740.4</ele>
        <time>2020-07-25T13:40:33Z</time>
      </trkpt>
      <trkpt lat="42.9068680" lon="0.1301220">
        <ele>1740.0</ele>
        <time>2020-07-25T13:40:35Z</time>
      </trkpt>
      <trkpt lat="42.9069500" lon="0.1298100">
        <ele>1739.4</ele>
        <time>2020-07-25T13:40:38Z</time>
      </trkpt>
      <trkpt lat="42.9069730" lon="0.1296950">
        <ele>1739.2</ele>
        <time>2020-07-25T13:40:39Z</time>
      </trkpt>
      <trkpt lat="42.9069890" lon="0.1295710">
        <ele>1739.0</ele>
        <time>2020-07-25T13:40:40Z</time>
      </trkpt>
      <trkpt lat="42.9069960" lon="0.1294430">
        <ele>1738.8</ele>
        <time>2020-07-25T13:40:41Z</time>
      </trkpt>
      <trkpt lat="42.9069980" lon="0.1293120">
        <ele>1738.6</ele>
        <time>2020-07-25T13:40:42Z</time>
      </trkpt>
      <trkpt lat="42.9070020" lon="0.1290340">
        <ele>1737.0</ele>
        <time>2020-07-25T13:40:44Z</time>
      </trkpt>
      <trkpt lat="42.9070090" lon="0.1287330">
        <ele>1735.6</ele>
        <time>2020-07-25T13:40:46Z</time>
      </trkpt>
      <trkpt lat="42.9070140" lon="0.1284190">
        <ele>1735.0</ele>
        <time>2020-07-25T13:40:48Z</time>
      </trkpt>
      <trkpt lat="42.9070170" lon="0.1282580">
        <ele>1734.6</ele>
        <time>2020-07-25T13:40:49Z</time>
      </trkpt>
      <trkpt lat="42.9070230" lon="0.1280940">
        <ele>1733.8</ele>
        <time>2020-07-25T13:40:50Z</time>
      </trkpt>
      <trkpt lat="42.9070330" lon="0.1279260">
        <ele>1733.0</ele>
        <time>2020-07-25T13:40:51Z</time>
      </trkpt>
      <trkpt lat="42.9070570" lon="0.1275880">
        <ele>1731.2</ele>
        <time>2020-07-25T13:40:53Z</time>
      </trkpt>
      <trkpt lat="42.9070700" lon="0.1274160">
        <ele>1729.8</ele>
        <time>2020-07-25T13:40:54Z</time>
      </trkpt>
      <trkpt lat="42.9070820" lon="0.1272420">
        <ele>1728.4</ele>
        <time>2020-07-25T13:40:55Z</time>
      </trkpt>
      <trkpt lat="42.9070950" lon="0.1270680">
        <ele>1727.6</ele>
        <time>2020-07-25T13:40:56Z</time>
      </trkpt>
      <trkpt lat="42.9071060" lon="0.1268970">
        <ele>1727.0</ele>
        <time>2020-07-25T13:40:57Z</time>
      </trkpt>
      <trkpt lat="42.9071300" lon="0.1263890">
        <ele>1725.4</ele>
        <time>2020-07-25T13:41:00Z</time>
      </trkpt>
      <trkpt lat="42.9071470" lon="0.1260530">
        <ele>1723.4</ele>
        <time>2020-07-25T13:41:02Z</time>
      </trkpt>
      <trkpt lat="42.9071530" lon="0.1258930">
        <ele>1722.4</ele>
        <time>2020-07-25T13:41:03Z</time>
      </trkpt>
      <trkpt lat="42.9071560" lon="0.1257400">
        <ele>1721.2</ele>
        <time>2020-07-25T13:41:04Z</time>
      </trkpt>
      <trkpt lat="42.9071530" lon="0.1255940">
        <ele>1719.8</ele>
        <time>2020-07-25T13:41:05Z</time>
      </trkpt>
      <trkpt lat="42.9071450" lon="0.1254500">
        <ele>1718.4</ele>
        <time>2020-07-25T13:41:06Z</time>
      </trkpt>
      <trkpt lat="42.9071370" lon="0.1253070">
        <ele>1717.0</ele>
        <time>2020-07-25T13:41:07Z</time>
      </trkpt>
      <trkpt lat="42.9071280" lon="0.1251580">
        <ele>1715.8</ele>
        <time>2020-07-25T13:41:08Z</time>
      </trkpt>
      <trkpt lat="42.9071110" lon="0.1248700">
        <ele>1713.6</ele>
        <time>2020-07-25T13:41:10Z</time>
      </trkpt>
      <trkpt lat="42.9071060" lon="0.1247320">
        <ele>1712.0</ele>
        <time>2020-07-25T13:41:11Z</time>
      </trkpt>
      <trkpt lat="42.9070990" lon="0.1245940">
        <ele>1711.0</ele>
        <time>2020-07-25T13:41:12Z</time>
      </trkpt>
      <trkpt lat="42.9070890" lon="0.1243250">
        <ele>1709.4</ele>
        <time>2020-07-25T13:41:14Z</time>
      </trkpt>
      <trkpt lat="42.9070840" lon="0.1240630">
        <ele>1708.4</ele>
        <time>2020-07-25T13:41:16Z</time>
      </trkpt>
      <trkpt lat="42.9070880" lon="0.1238090">
        <ele>1706.6</ele>
        <time>2020-07-25T13:41:18Z</time>
      </trkpt>
      <trkpt lat="42.9070920" lon="0.1236820">
        <ele>1705.8</ele>
        <time>2020-07-25T13:41:19Z</time>
      </trkpt>
      <trkpt lat="42.9070980" lon="0.1235600">
        <ele>1704.8</ele>
        <time>2020-07-25T13:41:20Z</time>
      </trkpt>
      <trkpt lat="42.9071040" lon="0.1234410">
        <ele>1703.4</ele>
        <time>2020-07-25T13:41:21Z</time>
      </trkpt>
      <trkpt lat="42.9071110" lon="0.1233220">
        <ele>1702.0</ele>
        <time>2020-07-25T13:41:22Z</time>
      </trkpt>
      <trkpt lat="42.9071180" lon="0.1232010">
        <ele>1700.6</ele>
        <time>2020-07-25T13:41:23Z</time>
      </trkpt>
      <trkpt lat="42.9071240" lon="0.1230740">
        <ele>1699.4</ele>
        <time>2020-07-25T13:41:24Z</time>
      </trkpt>
      <trkpt lat="42.9071280" lon="0.1229410">
        <ele>1698.6</ele>
        <time>2020-07-25T13:41:25Z</time>
      </trkpt>
      <trkpt lat="42.9071280" lon="0.1228050">
        <ele>1698.2</ele>
        <time>2020-07-25T13:41:26Z</time>
      </trkpt>
      <trkpt lat="42.9071220" lon="0.1225350">
        <ele>1697.2</ele>
        <time>2020-07-25T13:41:28Z</time>
      </trkpt>
      <trkpt lat="42.9071160" lon="0.1222790">
        <ele>1695.4</ele>
        <time>2020-07-25T13:41:30Z</time>
      </trkpt>
      <trkpt lat="42.9071170" lon="0.1221570">
        <ele>1694.4</ele>
        <time>2020-07-25T13:41:31Z</time>
      </trkpt>
      <trkpt lat="42.9071200" lon="0.1220380">
        <ele>1693.8</ele>
        <time>2020-07-25T13:41:32Z</time>
      </trkpt>
      <trkpt lat="42.9071230" lon="0.1218060">
        <ele>1692.0</ele>
        <time>2020-07-25T13:41:34Z</time>
      </trkpt>
      <trkpt lat="42.9071240" lon="0.1216910">
        <ele>1690.8</ele>
        <time>2020-07-25T13:41:35Z</time>
      </trkpt>
      <trkpt lat="42.9071240" lon="0.1215760">
        <ele>1689.8</ele>
        <time>2020-07-25T13:41:36Z</time>
      </trkpt>
      <trkpt lat="42.9071220" lon="0.1213540">
        <ele>1688.6</ele>
        <time>2020-07-25T13:41:38Z</time>
      </trkpt>
      <trkpt lat="42.9071210" lon="0.1212430">
        <ele>1688.2</ele>
        <time>2020-07-25T13:41:39Z</time>
      </trkpt>
      <trkpt lat="42.9071200" lon="0.1211300">
        <ele>1687.0</ele>
        <time>2020-07-25T13:41:40Z</time>
      </trkpt>
      <trkpt lat="42.9071200" lon="0.1210170">
        <ele>1685.6</ele>
        <time>2020-07-25T13:41:41Z</time>
      </trkpt>
      <trkpt lat="42.9071220" lon="0.1207880">
        <ele>1684.4</ele>
        <time>2020-07-25T13:41:43Z</time>
      </trkpt>
      <trkpt lat="42.9071370" lon="0.1205360">
        <ele>1683.2</ele>
        <time>2020-07-25T13:41:45Z</time>
      </trkpt>
      <trkpt lat="42.9071470" lon="0.1204020">
        <ele>1682.8</ele>
        <time>2020-07-25T13:41:46Z</time>
      </trkpt>
      <trkpt lat="42.9071610" lon="0.1202620">
        <ele>1682.0</ele>
        <time>2020-07-25T13:41:47Z</time>
      </trkpt>
      <trkpt lat="42.9071920" lon="0.1199680">
        <ele>1680.8</ele>
        <time>2020-07-25T13:41:49Z</time>
      </trkpt>
      <trkpt lat="42.9072220" lon="0.1196650">
        <ele>1679.8</ele>
        <time>2020-07-25T13:41:51Z</time>
      </trkpt>
      <trkpt lat="42.9072340" lon="0.1195140">
        <ele>1678.6</ele>
        <time>2020-07-25T13:41:52Z</time>
      </trkpt>
      <trkpt lat="42.9072460" lon="0.1193700">
        <ele>1677.2</ele>
        <time>2020-07-25T13:41:53Z</time>
      </trkpt>
      <trkpt lat="42.9072580" lon="0.1192270">
        <ele>1676.0</ele>
        <time>2020-07-25T13:41:54Z</time>
      </trkpt>
      <trkpt lat="42.9072720" lon="0.1190870">
        <ele>1674.2</ele>
        <time>2020-07-25T13:41:55Z</time>
      </trkpt>
      <trkpt lat="42.9072860" lon="0.1189440">
        <ele>1672.4</ele>
        <time>2020-07-25T13:41:56Z</time>
      </trkpt>
      <trkpt lat="42.9073010" lon="0.1187990">
        <ele>1671.2</ele>
        <time>2020-07-25T13:41:57Z</time>
      </trkpt>
      <trkpt lat="42.9073170" lon="0.1186560">
        <ele>1670.0</ele>
        <time>2020-07-25T13:41:58Z</time>
      </trkpt>
      <trkpt lat="42.9073450" lon="0.1183800">
        <ele>1668.2</ele>
        <time>2020-07-25T13:42:00Z</time>
      </trkpt>
      <trkpt lat="42.9073580" lon="0.1182490">
        <ele>1667.2</ele>
        <time>2020-07-25T13:42:01Z</time>
      </trkpt>
      <trkpt lat="42.9073910" lon="0.1179900">
        <ele>1665.6</ele>
        <time>2020-07-25T13:42:03Z</time>
      </trkpt>
      <trkpt lat="42.9074340" lon="0.1177310">
        <ele>1664.6</ele>
        <time>2020-07-25T13:42:05Z</time>
      </trkpt>
      <trkpt lat="42.9074560" lon="0.1175980">
        <ele>1663.8</ele>
        <time>2020-07-25T13:42:06Z</time>
      </trkpt>
      <trkpt lat="42.9074790" lon="0.1174670">
        <ele>1663.0</ele>
        <time>2020-07-25T13:42:07Z</time>
      </trkpt>
      <trkpt lat="42.9075020" lon="0.1173370">
        <ele>1662.0</ele>
        <time>2020-07-25T13:42:08Z</time>
      </trkpt>
      <trkpt lat="42.9075270" lon="0.1172090">
        <ele>1660.4</ele>
        <time>2020-07-25T13:42:09Z</time>
      </trkpt>
      <trkpt lat="42.9075570" lon="0.1170810">
        <ele>1659.0</ele>
        <time>2020-07-25T13:42:10Z</time>
      </trkpt>
      <trkpt lat="42.9076370" lon="0.1168230">
        <ele>1657.4</ele>
        <time>2020-07-25T13:42:12Z</time>
      </trkpt>
      <trkpt lat="42.9077360" lon="0.1165650">
        <ele>1656.2</ele>
        <time>2020-07-25T13:42:14Z</time>
      </trkpt>
      <trkpt lat="42.9078910" lon="0.1162090">
        <ele>1654.2</ele>
        <time>2020-07-25T13:42:17Z</time>
      </trkpt>
      <trkpt lat="42.9079480" lon="0.1161020">
        <ele>1653.0</ele>
        <time>2020-07-25T13:42:18Z</time>
      </trkpt>
      <trkpt lat="42.9080070" lon="0.1159990">
        <ele>1651.6</ele>
        <time>2020-07-25T13:42:19Z</time>
      </trkpt>
      <trkpt lat="42.9081200" lon="0.1157940">
        <ele>1650.0</ele>
        <time>2020-07-25T13:42:21Z</time>
      </trkpt>
      <trkpt lat="42.9081590" lon="0.1156950">
        <ele>1649.4</ele>
        <time>2020-07-25T13:42:22Z</time>
      </trkpt>
      <trkpt lat="42.9081760" lon="0.1155980">
        <ele>1648.8</ele>
        <time>2020-07-25T13:42:23Z</time>
      </trkpt>
      <trkpt lat="42.9081680" lon="0.1155040">
        <ele>1647.8</ele>
        <time>2020-07-25T13:42:24Z</time>
      </trkpt>
      <trkpt lat="42.9081410" lon="0.1154280">
        <ele>1646.6</ele>
        <time>2020-07-25T13:42:25Z</time>
      </trkpt>
      <trkpt lat="42.9080960" lon="0.1153890">
        <ele>1645.6</ele>
        <time>2020-07-25T13:42:26Z</time>
      </trkpt>
      <trkpt lat="42.9079850" lon="0.1154200">
        <ele>1644.2</ele>
        <time>2020-07-25T13:42:28Z</time>
      </trkpt>
      <trkpt lat="42.9078680" lon="0.1155350">
        <ele>1643.2</ele>
        <time>2020-07-25T13:42:30Z</time>
      </trkpt>
      <trkpt lat="42.9078070" lon="0.1156050">
        <ele>1642.4</ele>
        <time>2020-07-25T13:42:31Z</time>
      </trkpt>
      <trkpt lat="42.9077420" lon="0.1156800">
        <ele>1641.6</ele>
        <time>2020-07-25T13:42:32Z</time>
      </trkpt>
      <trkpt lat="42.9076730" lon="0.1157600">
        <ele>1641.0</ele>
        <time>2020-07-25T13:42:33Z</time>
      </trkpt>
      <trkpt lat="42.9075330" lon="0.1159390">
        <ele>1640.0</ele>
        <time>2020-07-25T13:42:35Z</time>
      </trkpt>
      <trkpt lat="42.9074630" lon="0.1160350">
        <ele>1639.8</ele>
        <time>2020-07-25T13:42:36Z</time>
      </trkpt>
      <trkpt lat="42.9073920" lon="0.1161180">
        <ele>1639.8</ele>
        <time>2020-07-25T13:42:37Z</time>
      </trkpt>
      <trkpt lat="42.9072510" lon="0.1161800">
        <ele>1638.8</ele>
        <time>2020-07-25T13:42:39Z</time>
      </trkpt>
      <trkpt lat="42.9071730" lon="0.1160740">
        <ele>1637.4</ele>
        <time>2020-07-25T13:42:41Z</time>
      </trkpt>
      <trkpt lat="42.9071950" lon="0.1158910">
        <ele>1636.2</ele>
        <time>2020-07-25T13:42:43Z</time>
      </trkpt>
      <trkpt lat="42.9072470" lon="0.1156810">
        <ele>1634.6</ele>
        <time>2020-07-25T13:42:45Z</time>
      </trkpt>
      <trkpt lat="42.9072870" lon="0.1154490">
        <ele>1633.4</ele>
        <time>2020-07-25T13:42:47Z</time>
      </trkpt>
      <trkpt lat="42.9073100" lon="0.1153250">
        <ele>1633.0</ele>
        <time>2020-07-25T13:42:48Z</time>
      </trkpt>
      <trkpt lat="42.9073610" lon="0.1150700">
        <ele>1631.8</ele>
        <time>2020-07-25T13:42:50Z</time>
      </trkpt>
      <trkpt lat="42.9073890" lon="0.1147960">
        <ele>1630.8</ele>
        <time>2020-07-25T13:42:52Z</time>
      </trkpt>
      <trkpt lat="42.9073940" lon="0.1146520">
        <ele>1630.2</ele>
        <time>2020-07-25T13:42:53Z</time>
      </trkpt>
      <trkpt lat="42.9073770" lon="0.1142000">
        <ele>1629.6</ele>
        <time>2020-07-25T13:42:56Z</time>
      </trkpt>
      <trkpt lat="42.9073450" lon="0.1138870">
        <ele>1628.2</ele>
        <time>2020-07-25T13:42:58Z</time>
      </trkpt>
      <trkpt lat="42.9073040" lon="0.1135640">
        <ele>1626.4</ele>
        <time>2020-07-25T13:43:00Z</time>
      </trkpt>
      <trkpt lat="42.9072770" lon="0.1132290">
        <ele>1624.8</ele>
        <time>2020-07-25T13:43:02Z</time>
      </trkpt>
      <trkpt lat="42.9072720" lon="0.1130570">
        <ele>1623.8</ele>
        <time>2020-07-25T13:43:03Z</time>
      </trkpt>
      <trkpt lat="42.9072700" lon="0.1128810">
        <ele>1622.8</ele>
        <time>2020-07-25T13:43:04Z</time>
      </trkpt>
      <trkpt lat="42.9072710" lon="0.1127010">
        <ele>1621.4</ele>
        <time>2020-07-25T13:43:05Z</time>
      </trkpt>
      <trkpt lat="42.9072710" lon="0.1125170">
        <ele>1620.0</ele>
        <time>2020-07-25T13:43:06Z</time>
      </trkpt>
      <trkpt lat="42.9072530" lon="0.1121510">
        <ele>1618.2</ele>
        <time>2020-07-25T13:43:08Z</time>
      </trkpt>
      <trkpt lat="42.9072010" lon="0.1117900">
        <ele>1616.8</ele>
        <time>2020-07-25T13:43:10Z</time>
      </trkpt>
      <trkpt lat="42.9071590" lon="0.1116060">
        <ele>1615.6</ele>
        <time>2020-07-25T13:43:11Z</time>
      </trkpt>
      <trkpt lat="42.9071140" lon="0.1114260">
        <ele>1614.6</ele>
        <time>2020-07-25T13:43:12Z</time>
      </trkpt>
      <trkpt lat="42.9070700" lon="0.1112530">
        <ele>1613.6</ele>
        <time>2020-07-25T13:43:13Z</time>
      </trkpt>
      <trkpt lat="42.9069890" lon="0.1109180">
        <ele>1612.2</ele>
        <time>2020-07-25T13:43:15Z</time>
      </trkpt>
      <trkpt lat="42.9069450" lon="0.1107540">
        <ele>1611.0</ele>
        <time>2020-07-25T13:43:16Z</time>
      </trkpt>
      <trkpt lat="42.9068980" lon="0.1105910">
        <ele>1609.6</ele>
        <time>2020-07-25T13:43:17Z</time>
      </trkpt>
      <trkpt lat="42.9068500" lon="0.1104270">
        <ele>1608.4</ele>
        <time>2020-07-25T13:43:18Z</time>
      </trkpt>
      <trkpt lat="42.9067500" lon="0.1101000">
        <ele>1606.8</ele>
        <time>2020-07-25T13:43:20Z</time>
      </trkpt>
      <trkpt lat="42.9066990" lon="0.1099380">
        <ele>1605.6</ele>
        <time>2020-07-25T13:43:21Z</time>
      </trkpt>
      <trkpt lat="42.9066510" lon="0.1097760">
        <ele>1604.4</ele>
        <time>2020-07-25T13:43:22Z</time>
      </trkpt>
      <trkpt lat="42.9066060" lon="0.1096120">
        <ele>1603.2</ele>
        <time>2020-07-25T13:43:23Z</time>
      </trkpt>
      <trkpt lat="42.9065690" lon="0.1094460">
        <ele>1601.4</ele>
        <time>2020-07-25T13:43:24Z</time>
      </trkpt>
      <trkpt lat="42.9065380" lon="0.1092750">
        <ele>1599.4</ele>
        <time>2020-07-25T13:43:25Z</time>
      </trkpt>
      <trkpt lat="42.9065110" lon="0.1091040">
        <ele>1597.8</ele>
        <time>2020-07-25T13:43:26Z</time>
      </trkpt>
      <trkpt lat="42.9064880" lon="0.1089310">
        <ele>1596.8</ele>
        <time>2020-07-25T13:43:27Z</time>
      </trkpt>
      <trkpt lat="42.9064670" lon="0.1087640">
        <ele>1595.6</ele>
        <time>2020-07-25T13:43:28Z</time>
      </trkpt>
      <trkpt lat="42.9064470" lon="0.1086010">
        <ele>1594.4</ele>
        <time>2020-07-25T13:43:29Z</time>
      </trkpt>
      <trkpt lat="42.9064240" lon="0.1084380">
        <ele>1593.2</ele>
        <time>2020-07-25T13:43:30Z</time>
      </trkpt>
      <trkpt lat="42.9064040" lon="0.1082720">
        <ele>1591.8</ele>
        <time>2020-07-25T13:43:31Z</time>
      </trkpt>
      <trkpt lat="42.9063900" lon="0.1081040">
        <ele>1590.6</ele>
        <time>2020-07-25T13:43:32Z</time>
      </trkpt>
      <trkpt lat="42.9063720" lon="0.1077680">
        <ele>1588.6</ele>
        <time>2020-07-25T13:43:34Z</time>
      </trkpt>
      <trkpt lat="42.9063660" lon="0.1076000">
        <ele>1588.0</ele>
        <time>2020-07-25T13:43:35Z</time>
      </trkpt>
      <trkpt lat="42.9063620" lon="0.1074280">
        <ele>1587.0</ele>
        <time>2020-07-25T13:43:36Z</time>
      </trkpt>
      <trkpt lat="42.9063500" lon="0.1070790">
        <ele>1585.2</ele>
        <time>2020-07-25T13:43:38Z</time>
      </trkpt>
      <trkpt lat="42.9063330" lon="0.1069030">
        <ele>1584.0</ele>
        <time>2020-07-25T13:43:39Z</time>
      </trkpt>
      <trkpt lat="42.9063070" lon="0.1067270">
        <ele>1582.8</ele>
        <time>2020-07-25T13:43:40Z</time>
      </trkpt>
      <trkpt lat="42.9062430" lon="0.1063810">
        <ele>1581.0</ele>
        <time>2020-07-25T13:43:42Z</time>
      </trkpt>
      <trkpt lat="42.9061890" lon="0.1060740">
        <ele>1579.0</ele>
        <time>2020-07-25T13:43:44Z</time>
      </trkpt>
      <trkpt lat="42.9061800" lon="0.1059330">
        <ele>1577.4</ele>
        <time>2020-07-25T13:43:45Z</time>
      </trkpt>
      <trkpt lat="42.9061860" lon="0.1057930">
        <ele>1575.2</ele>
        <time>2020-07-25T13:43:46Z</time>
      </trkpt>
      <trkpt lat="42.9062100" lon="0.1056540">
        <ele>1573.4</ele>
        <time>2020-07-25T13:43:47Z</time>
      </trkpt>
      <trkpt lat="42.9062470" lon="0.1055190">
        <ele>1571.8</ele>
        <time>2020-07-25T13:43:48Z</time>
      </trkpt>
      <trkpt lat="42.9062790" lon="0.1053810">
        <ele>1570.4</ele>
        <time>2020-07-25T13:43:49Z</time>
      </trkpt>
      <trkpt lat="42.9062960" lon="0.1052340">
        <ele>1569.0</ele>
        <time>2020-07-25T13:43:50Z</time>
      </trkpt>
      <trkpt lat="42.9063040" lon="0.1050850">
        <ele>1568.2</ele>
        <time>2020-07-25T13:43:51Z</time>
      </trkpt>
      <trkpt lat="42.9063070" lon="0.1049320">
        <ele>1567.8</ele>
        <time>2020-07-25T13:43:52Z</time>
      </trkpt>
      <trkpt lat="42.9063400" lon="0.1044580">
        <ele>1566.4</ele>
        <time>2020-07-25T13:43:55Z</time>
      </trkpt>
      <trkpt lat="42.9063570" lon="0.1042960">
        <ele>1565.4</ele>
        <time>2020-07-25T13:43:56Z</time>
      </trkpt>
      <trkpt lat="42.9063750" lon="0.1041310">
        <ele>1564.4</ele>
        <time>2020-07-25T13:43:57Z</time>
      </trkpt>
      <trkpt lat="42.9063950" lon="0.1039660">
        <ele>1563.2</ele>
        <time>2020-07-25T13:43:58Z</time>
      </trkpt>
      <trkpt lat="42.9064300" lon="0.1036440">
        <ele>1561.8</ele>
        <time>2020-07-25T13:44:00Z</time>
      </trkpt>
      <trkpt lat="42.9064470" lon="0.1034870">
        <ele>1561.2</ele>
        <time>2020-07-25T13:44:01Z</time>
      </trkpt>
      <trkpt lat="42.9064640" lon="0.1033330">
        <ele>1560.0</ele>
        <time>2020-07-25T13:44:02Z</time>
      </trkpt>
      <trkpt lat="42.9064820" lon="0.1031790">
        <ele>1558.6</ele>
        <time>2020-07-25T13:44:03Z</time>
      </trkpt>
      <trkpt lat="42.9065000" lon="0.1030260">
        <ele>1557.4</ele>
        <time>2020-07-25T13:44:04Z</time>
      </trkpt>
      <trkpt lat="42.9065370" lon="0.1027310">
        <ele>1555.6</ele>
        <time>2020-07-25T13:44:06Z</time>
      </trkpt>
      <trkpt lat="42.9065540" lon="0.1025900">
        <ele>1554.4</ele>
        <time>2020-07-25T13:44:07Z</time>
      </trkpt>
      <trkpt lat="42.9065710" lon="0.1024540">
        <ele>1553.0</ele>
        <time>2020-07-25T13:44:08Z</time>
      </trkpt>
      <trkpt lat="42.9065900" lon="0.1023210">
        <ele>1551.4</ele>
        <time>2020-07-25T13:44:09Z</time>
      </trkpt>
      <trkpt lat="42.9066100" lon="0.1021940">
        <ele>1550.2</ele>
        <time>2020-07-25T13:44:10Z</time>
      </trkpt>
      <trkpt lat="42.9066280" lon="0.1020800">
        <ele>1549.0</ele>
        <time>2020-07-25T13:44:11Z</time>
      </trkpt>
      <trkpt lat="42.9066390" lon="0.1019760">
        <ele>1547.6</ele>
        <time>2020-07-25T13:44:12Z</time>
      </trkpt>
      <trkpt lat="42.9066300" lon="0.1018920">
        <ele>1545.8</ele>
        <time>2020-07-25T13:44:13Z</time>
      </trkpt>
      <trkpt lat="42.9066040" lon="0.1018280">
        <ele>1544.6</ele>
        <time>2020-07-25T13:44:14Z</time>
      </trkpt>
      <trkpt lat="42.9065620" lon="0.1017870">
        <ele>1543.8</ele>
        <time>2020-07-25T13:44:15Z</time>
      </trkpt>
      <trkpt lat="42.9065130" lon="0.1017830">
        <ele>1543.2</ele>
        <time>2020-07-25T13:44:16Z</time>
      </trkpt>
      <trkpt lat="42.9064610" lon="0.1018110">
        <ele>1542.4</ele>
        <time>2020-07-25T13:44:17Z</time>
      </trkpt>
      <trkpt lat="42.9064170" lon="0.1018860">
        <ele>1541.6</ele>
        <time>2020-07-25T13:44:18Z</time>
      </trkpt>
      <trkpt lat="42.9063890" lon="0.1019780">
        <ele>1541.2</ele>
        <time>2020-07-25T13:44:19Z</time>
      </trkpt>
      <trkpt lat="42.9063780" lon="0.1020770">
        <ele>1540.6</ele>
        <time>2020-07-25T13:44:20Z</time>
      </trkpt>
      <trkpt lat="42.9063740" lon="0.1022650">
        <ele>1539.2</ele>
        <time>2020-07-25T13:44:22Z</time>
      </trkpt>
      <trkpt lat="42.9063670" lon="0.1023590">
        <ele>1539.0</ele>
        <time>2020-07-25T13:44:23Z</time>
      </trkpt>
      <trkpt lat="42.9063520" lon="0.1024580">
        <ele>1538.6</ele>
        <time>2020-07-25T13:44:24Z</time>
      </trkpt>
      <trkpt lat="42.9063290" lon="0.1025620">
        <ele>1538.2</ele>
        <time>2020-07-25T13:44:25Z</time>
      </trkpt>
      <trkpt lat="42.9062960" lon="0.1026640">
        <ele>1538.0</ele>
        <time>2020-07-25T13:44:26Z</time>
      </trkpt>
      <trkpt lat="42.9062550" lon="0.1027640">
        <ele>1537.6</ele>
        <time>2020-07-25T13:44:27Z</time>
      </trkpt>
      <trkpt lat="42.9062100" lon="0.1028680">
        <ele>1537.0</ele>
        <time>2020-07-25T13:44:28Z</time>
      </trkpt>
      <trkpt lat="42.9061210" lon="0.1031020">
        <ele>1536.0</ele>
        <time>2020-07-25T13:44:30Z</time>
      </trkpt>
      <trkpt lat="42.9060820" lon="0.1032270">
        <ele>1535.8</ele>
        <time>2020-07-25T13:44:31Z</time>
      </trkpt>
      <trkpt lat="42.9059560" lon="0.1036270">
        <ele>1535.2</ele>
        <time>2020-07-25T13:44:34Z</time>
      </trkpt>
      <trkpt lat="42.9058550" lon="0.1038650">
        <ele>1534.6</ele>
        <time>2020-07-25T13:44:36Z</time>
      </trkpt>
      <trkpt lat="42.9057510" lon="0.1040880">
        <ele>1532.8</ele>
        <time>2020-07-25T13:44:38Z</time>
      </trkpt>
      <trkpt lat="42.9056440" lon="0.1042950">
        <ele>1531.0</ele>
        <time>2020-07-25T13:44:40Z</time>
      </trkpt>
      <trkpt lat="42.9055260" lon="0.1044860">
        <ele>1529.4</ele>
        <time>2020-07-25T13:44:42Z</time>
      </trkpt>
      <trkpt lat="42.9054610" lon="0.1045630">
        <ele>1528.6</ele>
        <time>2020-07-25T13:44:43Z</time>
      </trkpt>
      <trkpt lat="42.9053900" lon="0.1046120">
        <ele>1527.8</ele>
        <time>2020-07-25T13:44:44Z</time>
      </trkpt>
      <trkpt lat="42.9053200" lon="0.1046260">
        <ele>1527.0</ele>
        <time>2020-07-25T13:44:45Z</time>
      </trkpt>
      <trkpt lat="42.9052610" lon="0.1045980">
        <ele>1526.0</ele>
        <time>2020-07-25T13:44:46Z</time>
      </trkpt>
      <trkpt lat="42.9052340" lon="0.1045330">
        <ele>1525.6</ele>
        <time>2020-07-25T13:44:47Z</time>
      </trkpt>
      <trkpt lat="42.9052660" lon="0.1043570">
        <ele>1524.4</ele>
        <time>2020-07-25T13:44:49Z</time>
      </trkpt>
      <trkpt lat="42.9053610" lon="0.1041870">
        <ele>1523.4</ele>
        <time>2020-07-25T13:44:51Z</time>
      </trkpt>
      <trkpt lat="42.9054600" lon="0.1039960">
        <ele>1522.8</ele>
        <time>2020-07-25T13:44:53Z</time>
      </trkpt>
      <trkpt lat="42.9055310" lon="0.1037700">
        <ele>1522.2</ele>
        <time>2020-07-25T13:44:55Z</time>
      </trkpt>
      <trkpt lat="42.9055820" lon="0.1035250">
        <ele>1522.2</ele>
        <time>2020-07-25T13:44:57Z</time>
      </trkpt>
      <trkpt lat="42.9056050" lon="0.1033960">
        <ele>1522.2</ele>
        <time>2020-07-25T13:44:58Z</time>
      </trkpt>
      <trkpt lat="42.9056640" lon="0.1028620">
        <ele>1520.8</ele>
        <time>2020-07-25T13:45:02Z</time>
      </trkpt>
      <trkpt lat="42.9056760" lon="0.1027240">
        <ele>1519.6</ele>
        <time>2020-07-25T13:45:03Z</time>
      </trkpt>
      <trkpt lat="42.9056870" lon="0.1025850">
        <ele>1518.4</ele>
        <time>2020-07-25T13:45:04Z</time>
      </trkpt>
      <trkpt lat="42.9056980" lon="0.1023000">
        <ele>1516.8</ele>
        <time>2020-07-25T13:45:06Z</time>
      </trkpt>
      <trkpt lat="42.9056770" lon="0.1020050">
        <ele>1515.2</ele>
        <time>2020-07-25T13:45:08Z</time>
      </trkpt>
      <trkpt lat="42.9056210" lon="0.1017470">
        <ele>1513.6</ele>
        <time>2020-07-25T13:45:10Z</time>
      </trkpt>
      <trkpt lat="42.9055820" lon="0.1016380">
        <ele>1512.2</ele>
        <time>2020-07-25T13:45:11Z</time>
      </trkpt>
      <trkpt lat="42.9055370" lon="0.1015520">
        <ele>1510.8</ele>
        <time>2020-07-25T13:45:12Z</time>
      </trkpt>
      <trkpt lat="42.9054810" lon="0.1014980">
        <ele>1509.6</ele>
        <time>2020-07-25T13:45:13Z</time>
      </trkpt>
      <trkpt lat="42.9054210" lon="0.1014820">
        <ele>1508.6</ele>
        <time>2020-07-25T13:45:14Z</time>
      </trkpt>
      <trkpt lat="42.9053620" lon="0.1015120">
        <ele>1507.6</ele>
        <time>2020-07-25T13:45:15Z</time>
      </trkpt>
      <trkpt lat="42.9053120" lon="0.1015860">
        <ele>1506.4</ele>
        <time>2020-07-25T13:45:16Z</time>
      </trkpt>
      <trkpt lat="42.9052700" lon="0.1017980">
        <ele>1504.6</ele>
        <time>2020-07-25T13:45:18Z</time>
      </trkpt>
      <trkpt lat="42.9052640" lon="0.1019170">
        <ele>1504.0</ele>
        <time>2020-07-25T13:45:19Z</time>
      </trkpt>
      <trkpt lat="42.9052650" lon="0.1020470">
        <ele>1503.4</ele>
        <time>2020-07-25T13:45:20Z</time>
      </trkpt>
      <trkpt lat="42.9052590" lon="0.1021860">
        <ele>1503.0</ele>
        <time>2020-07-25T13:45:21Z</time>
      </trkpt>
      <trkpt lat="42.9052080" lon="0.1024680">
        <ele>1502.2</ele>
        <time>2020-07-25T13:45:23Z</time>
      </trkpt>
      <trkpt lat="42.9050820" lon="0.1027240">
        <ele>1501.2</ele>
        <time>2020-07-25T13:45:25Z</time>
      </trkpt>
      <trkpt lat="42.9049990" lon="0.1028390">
        <ele>1500.6</ele>
        <time>2020-07-25T13:45:26Z</time>
      </trkpt>
      <trkpt lat="42.9048150" lon="0.1030520">
        <ele>1499.8</ele>
        <time>2020-07-25T13:45:28Z</time>
      </trkpt>
      <trkpt lat="42.9046430" lon="0.1032590">
        <ele>1497.8</ele>
        <time>2020-07-25T13:45:30Z</time>
      </trkpt>
      <trkpt lat="42.9045650" lon="0.1033540">
        <ele>1496.6</ele>
        <time>2020-07-25T13:45:31Z</time>
      </trkpt>
      <trkpt lat="42.9044910" lon="0.1034420">
        <ele>1495.4</ele>
        <time>2020-07-25T13:45:32Z</time>
      </trkpt>
      <trkpt lat="42.9044190" lon="0.1035200">
        <ele>1494.2</ele>
        <time>2020-07-25T13:45:33Z</time>
      </trkpt>
      <trkpt lat="42.9043460" lon="0.1035870">
        <ele>1493.2</ele>
        <time>2020-07-25T13:45:34Z</time>
      </trkpt>
      <trkpt lat="42.9042660" lon="0.1036260">
        <ele>1492.4</ele>
        <time>2020-07-25T13:45:35Z</time>
      </trkpt>
      <trkpt lat="42.9041850" lon="0.1036430">
        <ele>1491.8</ele>
        <time>2020-07-25T13:45:36Z</time>
      </trkpt>
      <trkpt lat="42.9041020" lon="0.1036430">
        <ele>1491.2</ele>
        <time>2020-07-25T13:45:37Z</time>
      </trkpt>
      <trkpt lat="42.9040250" lon="0.1036170">
        <ele>1490.8</ele>
        <time>2020-07-25T13:45:38Z</time>
      </trkpt>
      <trkpt lat="42.9038910" lon="0.1034970">
        <ele>1489.8</ele>
        <time>2020-07-25T13:45:40Z</time>
      </trkpt>
      <trkpt lat="42.9037960" lon="0.1033700">
        <ele>1488.4</ele>
        <time>2020-07-25T13:45:42Z</time>
      </trkpt>
      <trkpt lat="42.9037510" lon="0.1032990">
        <ele>1487.6</ele>
        <time>2020-07-25T13:45:43Z</time>
      </trkpt>
      <trkpt lat="42.9037070" lon="0.1032200">
        <ele>1487.0</ele>
        <time>2020-07-25T13:45:44Z</time>
      </trkpt>
      <trkpt lat="42.9035290" lon="0.1028510">
        <ele>1485.8</ele>
        <time>2020-07-25T13:45:48Z</time>
      </trkpt>
      <trkpt lat="42.9034920" lon="0.1027430">
        <ele>1485.6</ele>
        <time>2020-07-25T13:45:49Z</time>
      </trkpt>
      <trkpt lat="42.9034120" lon="0.1022550">
        <ele>1484.6</ele>
        <time>2020-07-25T13:45:53Z</time>
      </trkpt>
      <trkpt lat="42.9033140" lon="0.1014500">
        <ele>1483.6</ele>
        <time>2020-07-25T13:45:59Z</time>
      </trkpt>
      <trkpt lat="42.9032650" lon="0.1011880">
        <ele>1482.4</ele>
        <time>2020-07-25T13:46:01Z</time>
      </trkpt>
      <trkpt lat="42.9032320" lon="0.1009330">
        <ele>1481.6</ele>
        <time>2020-07-25T13:46:03Z</time>
      </trkpt>
      <trkpt lat="42.9032360" lon="0.1008060">
        <ele>1481.0</ele>
        <time>2020-07-25T13:46:04Z</time>
      </trkpt>
      <trkpt lat="42.9032580" lon="0.1006820">
        <ele>1480.6</ele>
        <time>2020-07-25T13:46:05Z</time>
      </trkpt>
      <trkpt lat="42.9033540" lon="0.1004560">
        <ele>1480.0</ele>
        <time>2020-07-25T13:46:07Z</time>
      </trkpt>
      <trkpt lat="42.9035130" lon="0.1001070">
        <ele>1478.6</ele>
        <time>2020-07-25T13:46:10Z</time>
      </trkpt>
      <trkpt lat="42.9035450" lon="0.0999710">
        <ele>1478.2</ele>
        <time>2020-07-25T13:46:11Z</time>
      </trkpt>
      <trkpt lat="42.9035650" lon="0.0998280">
        <ele>1477.8</ele>
        <time>2020-07-25T13:46:12Z</time>
      </trkpt>
      <trkpt lat="42.9035740" lon="0.0996760">
        <ele>1477.4</ele>
        <time>2020-07-25T13:46:13Z</time>
      </trkpt>
      <trkpt lat="42.9035770" lon="0.0995200">
        <ele>1476.6</ele>
        <time>2020-07-25T13:46:14Z</time>
      </trkpt>
      <trkpt lat="42.9035760" lon="0.0993640">
        <ele>1475.8</ele>
        <time>2020-07-25T13:46:15Z</time>
      </trkpt>
      <trkpt lat="42.9035640" lon="0.0990450">
        <ele>1474.2</ele>
        <time>2020-07-25T13:46:17Z</time>
      </trkpt>
      <trkpt lat="42.9035540" lon="0.0988830">
        <ele>1473.0</ele>
        <time>2020-07-25T13:46:18Z</time>
      </trkpt>
      <trkpt lat="42.9035400" lon="0.0987180">
        <ele>1471.8</ele>
        <time>2020-07-25T13:46:19Z</time>
      </trkpt>
      <trkpt lat="42.9035230" lon="0.0985510">
        <ele>1471.0</ele>
        <time>2020-07-25T13:46:20Z</time>
      </trkpt>
      <trkpt lat="42.9035030" lon="0.0983840">
        <ele>1470.0</ele>
        <time>2020-07-25T13:46:21Z</time>
      </trkpt>
      <trkpt lat="42.9034820" lon="0.0982130">
        <ele>1468.6</ele>
        <time>2020-07-25T13:46:22Z</time>
      </trkpt>
      <trkpt lat="42.9034620" lon="0.0980440">
        <ele>1467.2</ele>
        <time>2020-07-25T13:46:23Z</time>
      </trkpt>
      <trkpt lat="42.9034420" lon="0.0978770">
        <ele>1466.0</ele>
        <time>2020-07-25T13:46:24Z</time>
      </trkpt>
      <trkpt lat="42.9034240" lon="0.0977100">
        <ele>1465.0</ele>
        <time>2020-07-25T13:46:25Z</time>
      </trkpt>
      <trkpt lat="42.9033890" lon="0.0973760">
        <ele>1463.8</ele>
        <time>2020-07-25T13:46:27Z</time>
      </trkpt>
      <trkpt lat="42.9033750" lon="0.0972100">
        <ele>1463.0</ele>
        <time>2020-07-25T13:46:28Z</time>
      </trkpt>
      <trkpt lat="42.9033650" lon="0.0970460">
        <ele>1462.2</ele>
        <time>2020-07-25T13:46:29Z</time>
      </trkpt>
      <trkpt lat="42.9033530" lon="0.0967150">
        <ele>1461.2</ele>
        <time>2020-07-25T13:46:31Z</time>
      </trkpt>
      <trkpt lat="42.9033420" lon="0.0963820">
        <ele>1460.0</ele>
        <time>2020-07-25T13:46:33Z</time>
      </trkpt>
      <trkpt lat="42.9033380" lon="0.0962190">
        <ele>1459.2</ele>
        <time>2020-07-25T13:46:34Z</time>
      </trkpt>
      <trkpt lat="42.9033360" lon="0.0960590">
        <ele>1458.6</ele>
        <time>2020-07-25T13:46:35Z</time>
      </trkpt>
      <trkpt lat="42.9033380" lon="0.0957380">
        <ele>1457.0</ele>
        <time>2020-07-25T13:46:37Z</time>
      </trkpt>
      <trkpt lat="42.9033400" lon="0.0954180">
        <ele>1455.8</ele>
        <time>2020-07-25T13:46:39Z</time>
      </trkpt>
      <trkpt lat="42.9033360" lon="0.0951050">
        <ele>1454.6</ele>
        <time>2020-07-25T13:46:41Z</time>
      </trkpt>
      <trkpt lat="42.9033280" lon="0.0947950">
        <ele>1453.6</ele>
        <time>2020-07-25T13:46:43Z</time>
      </trkpt>
      <trkpt lat="42.9033190" lon="0.0944890">
        <ele>1451.8</ele>
        <time>2020-07-25T13:46:45Z</time>
      </trkpt>
      <trkpt lat="42.9033100" lon="0.0943370">
        <ele>1451.0</ele>
        <time>2020-07-25T13:46:46Z</time>
      </trkpt>
      <trkpt lat="42.9032980" lon="0.0941870">
        <ele>1450.2</ele>
        <time>2020-07-25T13:46:47Z</time>
      </trkpt>
      <trkpt lat="42.9032810" lon="0.0940360">
        <ele>1449.2</ele>
        <time>2020-07-25T13:46:48Z</time>
      </trkpt>
      <trkpt lat="42.9032600" lon="0.0938840">
        <ele>1448.6</ele>
        <time>2020-07-25T13:46:49Z</time>
      </trkpt>
      <trkpt lat="42.9031850" lon="0.0934460">
        <ele>1447.2</ele>
        <time>2020-07-25T13:46:52Z</time>
      </trkpt>
      <trkpt lat="42.9031610" lon="0.0933090">
        <ele>1446.4</ele>
        <time>2020-07-25T13:46:53Z</time>
      </trkpt>
      <trkpt lat="42.9031360" lon="0.0931750">
        <ele>1445.6</ele>
        <time>2020-07-25T13:46:54Z</time>
      </trkpt>
      <trkpt lat="42.9031100" lon="0.0930460">
        <ele>1444.4</ele>
        <time>2020-07-25T13:46:55Z</time>
      </trkpt>
      <trkpt lat="42.9030640" lon="0.0927940">
        <ele>1443.0</ele>
        <time>2020-07-25T13:46:57Z</time>
      </trkpt>
      <trkpt lat="42.9030140" lon="0.0925500">
        <ele>1441.4</ele>
        <time>2020-07-25T13:46:59Z</time>
      </trkpt>
      <trkpt lat="42.9029610" lon="0.0923140">
        <ele>1440.4</ele>
        <time>2020-07-25T13:47:01Z</time>
      </trkpt>
      <trkpt lat="42.9029330" lon="0.0921970">
        <ele>1440.2</ele>
        <time>2020-07-25T13:47:02Z</time>
      </trkpt>
      <trkpt lat="42.9028490" lon="0.0918390">
        <ele>1440.0</ele>
        <time>2020-07-25T13:47:05Z</time>
      </trkpt>
      <trkpt lat="42.9027620" lon="0.0914600">
        <ele>1439.0</ele>
        <time>2020-07-25T13:47:08Z</time>
      </trkpt>
      <trkpt lat="42.9027400" lon="0.0913230">
        <ele>1438.6</ele>
        <time>2020-07-25T13:47:09Z</time>
      </trkpt>
      <trkpt lat="42.9027180" lon="0.0910370">
        <ele>1437.0</ele>
        <time>2020-07-25T13:47:11Z</time>
      </trkpt>
      <trkpt lat="42.9027170" lon="0.0908850">
        <ele>1435.6</ele>
        <time>2020-07-25T13:47:12Z</time>
      </trkpt>
      <trkpt lat="42.9027220" lon="0.0907320">
        <ele>1434.6</ele>
        <time>2020-07-25T13:47:13Z</time>
      </trkpt>
      <trkpt lat="42.9027510" lon="0.0904260">
        <ele>1433.4</ele>
        <time>2020-07-25T13:47:15Z</time>
      </trkpt>
      <trkpt lat="42.9027630" lon="0.0901160">
        <ele>1432.0</ele>
        <time>2020-07-25T13:47:17Z</time>
      </trkpt>
      <trkpt lat="42.9027310" lon="0.0898040">
        <ele>1430.8</ele>
        <time>2020-07-25T13:47:19Z</time>
      </trkpt>
      <trkpt lat="42.9027010" lon="0.0896510">
        <ele>1430.4</ele>
        <time>2020-07-25T13:47:20Z</time>
      </trkpt>
      <trkpt lat="42.9026310" lon="0.0893550">
        <ele>1429.2</ele>
        <time>2020-07-25T13:47:22Z</time>
      </trkpt>
      <trkpt lat="42.9025580" lon="0.0890690">
        <ele>1428.2</ele>
        <time>2020-07-25T13:47:24Z</time>
      </trkpt>
      <trkpt lat="42.9024890" lon="0.0887970">
        <ele>1427.6</ele>
        <time>2020-07-25T13:47:26Z</time>
      </trkpt>
      <trkpt lat="42.9023880" lon="0.0884090">
        <ele>1427.0</ele>
        <time>2020-07-25T13:47:29Z</time>
      </trkpt>
      <trkpt lat="42.9023190" lon="0.0881660">
        <ele>1425.0</ele>
        <time>2020-07-25T13:47:31Z</time>
      </trkpt>
      <trkpt lat="42.9022530" lon="0.0879280">
        <ele>1423.6</ele>
        <time>2020-07-25T13:47:33Z</time>
      </trkpt>
      <trkpt lat="42.9020570" lon="0.0872400">
        <ele>1423.2</ele>
        <time>2020-07-25T13:47:39Z</time>
      </trkpt>
      <trkpt lat="42.9020000" lon="0.0870010">
        <ele>1422.6</ele>
        <time>2020-07-25T13:47:41Z</time>
      </trkpt>
      <trkpt lat="42.9019230" lon="0.0866180">
        <ele>1421.4</ele>
        <time>2020-07-25T13:47:44Z</time>
      </trkpt>
      <trkpt lat="42.9019010" lon="0.0864820">
        <ele>1421.0</ele>
        <time>2020-07-25T13:47:45Z</time>
      </trkpt>
      <trkpt lat="42.9018530" lon="0.0860440">
        <ele>1420.4</ele>
        <time>2020-07-25T13:47:48Z</time>
      </trkpt>
      <trkpt lat="42.9018260" lon="0.0857300">
        <ele>1419.4</ele>
        <time>2020-07-25T13:47:50Z</time>
      </trkpt>
      <trkpt lat="42.9018110" lon="0.0855650">
        <ele>1418.8</ele>
        <time>2020-07-25T13:47:51Z</time>
      </trkpt>
      <trkpt lat="42.9017790" lon="0.0852280">
        <ele>1417.2</ele>
        <time>2020-07-25T13:47:53Z</time>
      </trkpt>
      <trkpt lat="42.9017480" lon="0.0848780">
        <ele>1415.8</ele>
        <time>2020-07-25T13:47:55Z</time>
      </trkpt>
      <trkpt lat="42.9017260" lon="0.0847030">
        <ele>1415.2</ele>
        <time>2020-07-25T13:47:56Z</time>
      </trkpt>
      <trkpt lat="42.9017010" lon="0.0845220">
        <ele>1414.2</ele>
        <time>2020-07-25T13:47:57Z</time>
      </trkpt>
      <trkpt lat="42.9016710" lon="0.0843380">
        <ele>1412.6</ele>
        <time>2020-07-25T13:47:58Z</time>
      </trkpt>
      <trkpt lat="42.9016410" lon="0.0841510">
        <ele>1411.0</ele>
        <time>2020-07-25T13:47:59Z</time>
      </trkpt>
      <trkpt lat="42.9016200" lon="0.0839680">
        <ele>1410.0</ele>
        <time>2020-07-25T13:48:00Z</time>
      </trkpt>
      <trkpt lat="42.9016120" lon="0.0837820">
        <ele>1408.8</ele>
        <time>2020-07-25T13:48:01Z</time>
      </trkpt>
      <trkpt lat="42.9016130" lon="0.0836030">
        <ele>1407.4</ele>
        <time>2020-07-25T13:48:02Z</time>
      </trkpt>
      <trkpt lat="42.9016150" lon="0.0834310">
        <ele>1405.4</ele>
        <time>2020-07-25T13:48:03Z</time>
      </trkpt>
      <trkpt lat="42.9016060" lon="0.0832670">
        <ele>1404.0</ele>
        <time>2020-07-25T13:48:04Z</time>
      </trkpt>
      <trkpt lat="42.9015790" lon="0.0831030">
        <ele>1403.0</ele>
        <time>2020-07-25T13:48:05Z</time>
      </trkpt>
      <trkpt lat="42.9015360" lon="0.0829400">
        <ele>1402.4</ele>
        <time>2020-07-25T13:48:06Z</time>
      </trkpt>
      <trkpt lat="42.9014100" lon="0.0826260">
        <ele>1401.0</ele>
        <time>2020-07-25T13:48:08Z</time>
      </trkpt>
      <trkpt lat="42.9013360" lon="0.0824720">
        <ele>1400.0</ele>
        <time>2020-07-25T13:48:09Z</time>
      </trkpt>
      <trkpt lat="42.9011770" lon="0.0821690">
        <ele>1398.4</ele>
        <time>2020-07-25T13:48:11Z</time>
      </trkpt>
      <trkpt lat="42.9011010" lon="0.0820100">
        <ele>1397.4</ele>
        <time>2020-07-25T13:48:12Z</time>
      </trkpt>
      <trkpt lat="42.9010320" lon="0.0818440">
        <ele>1396.0</ele>
        <time>2020-07-25T13:48:13Z</time>
      </trkpt>
      <trkpt lat="42.9009720" lon="0.0816670">
        <ele>1394.6</ele>
        <time>2020-07-25T13:48:14Z</time>
      </trkpt>
      <trkpt lat="42.9009200" lon="0.0814840">
        <ele>1393.2</ele>
        <time>2020-07-25T13:48:15Z</time>
      </trkpt>
      <trkpt lat="42.9008710" lon="0.0812980">
        <ele>1391.8</ele>
        <time>2020-07-25T13:48:16Z</time>
      </trkpt>
      <trkpt lat="42.9008230" lon="0.0811110">
        <ele>1390.6</ele>
        <time>2020-07-25T13:48:17Z</time>
      </trkpt>
      <trkpt lat="42.9007730" lon="0.0809240">
        <ele>1389.4</ele>
        <time>2020-07-25T13:48:18Z</time>
      </trkpt>
      <trkpt lat="42.9007200" lon="0.0807370">
        <ele>1388.2</ele>
        <time>2020-07-25T13:48:19Z</time>
      </trkpt>
      <trkpt lat="42.9006630" lon="0.0805490">
        <ele>1386.6</ele>
        <time>2020-07-25T13:48:20Z</time>
      </trkpt>
      <trkpt lat="42.9006030" lon="0.0803630">
        <ele>1385.0</ele>
        <time>2020-07-25T13:48:21Z</time>
      </trkpt>
      <trkpt lat="42.9005420" lon="0.0801780">
        <ele>1383.6</ele>
        <time>2020-07-25T13:48:22Z</time>
      </trkpt>
      <trkpt lat="42.9004800" lon="0.0799970">
        <ele>1382.0</ele>
        <time>2020-07-25T13:48:23Z</time>
      </trkpt>
      <trkpt lat="42.9004200" lon="0.0798220">
        <ele>1380.6</ele>
        <time>2020-07-25T13:48:24Z</time>
      </trkpt>
      <trkpt lat="42.9003620" lon="0.0796510">
        <ele>1379.4</ele>
        <time>2020-07-25T13:48:25Z</time>
      </trkpt>
      <trkpt lat="42.9003020" lon="0.0794800">
        <ele>1377.6</ele>
        <time>2020-07-25T13:48:26Z</time>
      </trkpt>
      <trkpt lat="42.9002410" lon="0.0793070">
        <ele>1375.4</ele>
        <time>2020-07-25T13:48:27Z</time>
      </trkpt>
      <trkpt lat="42.9001800" lon="0.0791340">
        <ele>1373.2</ele>
        <time>2020-07-25T13:48:28Z</time>
      </trkpt>
      <trkpt lat="42.9001190" lon="0.0789620">
        <ele>1371.8</ele>
        <time>2020-07-25T13:48:29Z</time>
      </trkpt>
      <trkpt lat="42.9000580" lon="0.0787900">
        <ele>1370.6</ele>
        <time>2020-07-25T13:48:30Z</time>
      </trkpt>
      <trkpt lat="42.8999340" lon="0.0784400">
        <ele>1368.8</ele>
        <time>2020-07-25T13:48:32Z</time>
      </trkpt>
      <trkpt lat="42.8998750" lon="0.0782630">
        <ele>1367.6</ele>
        <time>2020-07-25T13:48:33Z</time>
      </trkpt>
      <trkpt lat="42.8998210" lon="0.0780820">
        <ele>1365.8</ele>
        <time>2020-07-25T13:48:34Z</time>
      </trkpt>
      <trkpt lat="42.8997750" lon="0.0778960">
        <ele>1363.8</ele>
        <time>2020-07-25T13:48:35Z</time>
      </trkpt>
      <trkpt lat="42.8997330" lon="0.0777070">
        <ele>1362.0</ele>
        <time>2020-07-25T13:48:36Z</time>
      </trkpt>
      <trkpt lat="42.8996900" lon="0.0775150">
        <ele>1360.6</ele>
        <time>2020-07-25T13:48:37Z</time>
      </trkpt>
      <trkpt lat="42.8996460" lon="0.0773240">
        <ele>1359.2</ele>
        <time>2020-07-25T13:48:38Z</time>
      </trkpt>
      <trkpt lat="42.8996010" lon="0.0771390">
        <ele>1358.0</ele>
        <time>2020-07-25T13:48:39Z</time>
      </trkpt>
      <trkpt lat="42.8995640" lon="0.0769570">
        <ele>1357.0</ele>
        <time>2020-07-25T13:48:40Z</time>
      </trkpt>
      <trkpt lat="42.8995370" lon="0.0767790">
        <ele>1355.8</ele>
        <time>2020-07-25T13:48:41Z</time>
      </trkpt>
      <trkpt lat="42.8995180" lon="0.0766060">
        <ele>1354.2</ele>
        <time>2020-07-25T13:48:42Z</time>
      </trkpt>
      <trkpt lat="42.8994930" lon="0.0764380">
        <ele>1353.0</ele>
        <time>2020-07-25T13:48:43Z</time>
      </trkpt>
      <trkpt lat="42.8994560" lon="0.0762730">
        <ele>1352.0</ele>
        <time>2020-07-25T13:48:44Z</time>
      </trkpt>
      <trkpt lat="42.8994030" lon="0.0761150">
        <ele>1350.8</ele>
        <time>2020-07-25T13:48:45Z</time>
      </trkpt>
      <trkpt lat="42.8993340" lon="0.0759640">
        <ele>1349.6</ele>
        <time>2020-07-25T13:48:46Z</time>
      </trkpt>
      <trkpt lat="42.8992610" lon="0.0758160">
        <ele>1348.6</ele>
        <time>2020-07-25T13:48:47Z</time>
      </trkpt>
      <trkpt lat="42.8991830" lon="0.0756700">
        <ele>1347.4</ele>
        <time>2020-07-25T13:48:48Z</time>
      </trkpt>
      <trkpt lat="42.8991020" lon="0.0755220">
        <ele>1346.0</ele>
        <time>2020-07-25T13:48:49Z</time>
      </trkpt>
      <trkpt lat="42.8990190" lon="0.0753740">
        <ele>1344.4</ele>
        <time>2020-07-25T13:48:50Z</time>
      </trkpt>
      <trkpt lat="42.8989380" lon="0.0752300">
        <ele>1343.2</ele>
        <time>2020-07-25T13:48:51Z</time>
      </trkpt>
      <trkpt lat="42.8988630" lon="0.0750910">
        <ele>1341.8</ele>
        <time>2020-07-25T13:48:52Z</time>
      </trkpt>
      <trkpt lat="42.8987950" lon="0.0749530">
        <ele>1339.8</ele>
        <time>2020-07-25T13:48:53Z</time>
      </trkpt>
      <trkpt lat="42.8987380" lon="0.0748090">
        <ele>1338.0</ele>
        <time>2020-07-25T13:48:54Z</time>
      </trkpt>
      <trkpt lat="42.8986980" lon="0.0746530">
        <ele>1336.6</ele>
        <time>2020-07-25T13:48:55Z</time>
      </trkpt>
      <trkpt lat="42.8986760" lon="0.0744900">
        <ele>1335.6</ele>
        <time>2020-07-25T13:48:56Z</time>
      </trkpt>
      <trkpt lat="42.8986660" lon="0.0743210">
        <ele>1334.2</ele>
        <time>2020-07-25T13:48:57Z</time>
      </trkpt>
      <trkpt lat="42.8986630" lon="0.0741500">
        <ele>1333.0</ele>
        <time>2020-07-25T13:48:58Z</time>
      </trkpt>
      <trkpt lat="42.8986520" lon="0.0738030">
        <ele>1331.2</ele>
        <time>2020-07-25T13:49:00Z</time>
      </trkpt>
      <trkpt lat="42.8986210" lon="0.0734470">
        <ele>1329.4</ele>
        <time>2020-07-25T13:49:02Z</time>
      </trkpt>
      <trkpt lat="42.8985750" lon="0.0730800">
        <ele>1327.8</ele>
        <time>2020-07-25T13:49:04Z</time>
      </trkpt>
      <trkpt lat="42.8985480" lon="0.0728990">
        <ele>1326.8</ele>
        <time>2020-07-25T13:49:05Z</time>
      </trkpt>
      <trkpt lat="42.8985190" lon="0.0727200">
        <ele>1325.2</ele>
        <time>2020-07-25T13:49:06Z</time>
      </trkpt>
      <trkpt lat="42.8984860" lon="0.0725490">
        <ele>1323.6</ele>
        <time>2020-07-25T13:49:07Z</time>
      </trkpt>
      <trkpt lat="42.8984520" lon="0.0723810">
        <ele>1322.2</ele>
        <time>2020-07-25T13:49:08Z</time>
      </trkpt>
      <trkpt lat="42.8984260" lon="0.0722110">
        <ele>1320.8</ele>
        <time>2020-07-25T13:49:09Z</time>
      </trkpt>
      <trkpt lat="42.8984170" lon="0.0720360">
        <ele>1319.8</ele>
        <time>2020-07-25T13:49:10Z</time>
      </trkpt>
      <trkpt lat="42.8984110" lon="0.0718610">
        <ele>1319.0</ele>
        <time>2020-07-25T13:49:11Z</time>
      </trkpt>
      <trkpt lat="42.8984040" lon="0.0716840">
        <ele>1318.4</ele>
        <time>2020-07-25T13:49:12Z</time>
      </trkpt>
      <trkpt lat="42.8983810" lon="0.0713210">
        <ele>1316.8</ele>
        <time>2020-07-25T13:49:14Z</time>
      </trkpt>
      <trkpt lat="42.8983580" lon="0.0711400">
        <ele>1315.4</ele>
        <time>2020-07-25T13:49:15Z</time>
      </trkpt>
      <trkpt lat="42.8983360" lon="0.0709650">
        <ele>1314.2</ele>
        <time>2020-07-25T13:49:16Z</time>
      </trkpt>
      <trkpt lat="42.8982840" lon="0.0706140">
        <ele>1312.8</ele>
        <time>2020-07-25T13:49:18Z</time>
      </trkpt>
      <trkpt lat="42.8982280" lon="0.0702570">
        <ele>1311.0</ele>
        <time>2020-07-25T13:49:20Z</time>
      </trkpt>
      <trkpt lat="42.8982000" lon="0.0700760">
        <ele>1309.4</ele>
        <time>2020-07-25T13:49:21Z</time>
      </trkpt>
      <trkpt lat="42.8981680" lon="0.0699000">
        <ele>1307.4</ele>
        <time>2020-07-25T13:49:22Z</time>
      </trkpt>
      <trkpt lat="42.8981350" lon="0.0697270">
        <ele>1305.2</ele>
        <time>2020-07-25T13:49:23Z</time>
      </trkpt>
      <trkpt lat="42.8981050" lon="0.0695540">
        <ele>1303.4</ele>
        <time>2020-07-25T13:49:24Z</time>
      </trkpt>
      <trkpt lat="42.8980750" lon="0.0693820">
        <ele>1301.8</ele>
        <time>2020-07-25T13:49:25Z</time>
      </trkpt>
      <trkpt lat="42.8980450" lon="0.0692110">
        <ele>1300.0</ele>
        <time>2020-07-25T13:49:26Z</time>
      </trkpt>
      <trkpt lat="42.8980140" lon="0.0690450">
        <ele>1298.4</ele>
        <time>2020-07-25T13:49:27Z</time>
      </trkpt>
      <trkpt lat="42.8979850" lon="0.0688770">
        <ele>1297.0</ele>
        <time>2020-07-25T13:49:28Z</time>
      </trkpt>
      <trkpt lat="42.8979560" lon="0.0687150">
        <ele>1296.2</ele>
        <time>2020-07-25T13:49:29Z</time>
      </trkpt>
      <trkpt lat="42.8979290" lon="0.0685610">
        <ele>1294.8</ele>
        <time>2020-07-25T13:49:30Z</time>
      </trkpt>
      <trkpt lat="42.8979020" lon="0.0684160">
        <ele>1292.8</ele>
        <time>2020-07-25T13:49:31Z</time>
      </trkpt>
      <trkpt lat="42.8978770" lon="0.0682740">
        <ele>1290.8</ele>
        <time>2020-07-25T13:49:32Z</time>
      </trkpt>
      <trkpt lat="42.8978550" lon="0.0681340">
        <ele>1289.4</ele>
        <time>2020-07-25T13:49:33Z</time>
      </trkpt>
      <trkpt lat="42.8978370" lon="0.0679950">
        <ele>1287.8</ele>
        <time>2020-07-25T13:49:34Z</time>
      </trkpt>
      <trkpt lat="42.8978180" lon="0.0678590">
        <ele>1286.4</ele>
        <time>2020-07-25T13:49:35Z</time>
      </trkpt>
      <trkpt lat="42.8977990" lon="0.0677240">
        <ele>1285.4</ele>
        <time>2020-07-25T13:49:36Z</time>
      </trkpt>
      <trkpt lat="42.8977750" lon="0.0675860">
        <ele>1284.2</ele>
        <time>2020-07-25T13:49:37Z</time>
      </trkpt>
      <trkpt lat="42.8977470" lon="0.0674450">
        <ele>1282.8</ele>
        <time>2020-07-25T13:49:38Z</time>
      </trkpt>
      <trkpt lat="42.8977140" lon="0.0673020">
        <ele>1281.6</ele>
        <time>2020-07-25T13:49:39Z</time>
      </trkpt>
      <trkpt lat="42.8976760" lon="0.0671570">
        <ele>1280.2</ele>
        <time>2020-07-25T13:49:40Z</time>
      </trkpt>
      <trkpt lat="42.8975820" lon="0.0668670">
        <ele>1278.6</ele>
        <time>2020-07-25T13:49:42Z</time>
      </trkpt>
      <trkpt lat="42.8974920" lon="0.0666270">
        <ele>1277.0</ele>
        <time>2020-07-25T13:49:44Z</time>
      </trkpt>
      <trkpt lat="42.8974540" lon="0.0665220">
        <ele>1275.6</ele>
        <time>2020-07-25T13:49:45Z</time>
      </trkpt>
      <trkpt lat="42.8974190" lon="0.0664260">
        <ele>1274.6</ele>
        <time>2020-07-25T13:49:46Z</time>
      </trkpt>
      <trkpt lat="42.8973160" lon="0.0661550">
        <ele>1273.4</ele>
        <time>2020-07-25T13:49:49Z</time>
      </trkpt>
      <trkpt lat="42.8972230" lon="0.0659470">
        <ele>1271.6</ele>
        <time>2020-07-25T13:49:52Z</time>
      </trkpt>
      <trkpt lat="42.8971970" lon="0.0658870">
        <ele>1270.4</ele>
        <time>2020-07-25T13:49:53Z</time>
      </trkpt>
      <trkpt lat="42.8971590" lon="0.0657570">
        <ele>1268.6</ele>
        <time>2020-07-25T13:49:55Z</time>
      </trkpt>
      <trkpt lat="42.8971630" lon="0.0656360">
        <ele>1267.6</ele>
        <time>2020-07-25T13:49:57Z</time>
      </trkpt>
      <trkpt lat="42.8972660" lon="0.0654730">
        <ele>1266.2</ele>
        <time>2020-07-25T13:50:01Z</time>
      </trkpt>
      <trkpt lat="42.8973130" lon="0.0653470">
        <ele>1265.6</ele>
        <time>2020-07-25T13:50:04Z</time>
      </trkpt>
      <trkpt lat="42.8973080" lon="0.0652960">
        <ele>1265.2</ele>
        <time>2020-07-25T13:50:05Z</time>
      </trkpt>
      <trkpt lat="42.8972820" lon="0.0652410">
        <ele>1264.4</ele>
        <time>2020-07-25T13:50:06Z</time>
      </trkpt>
      <trkpt lat="42.8972490" lon="0.0651770">
        <ele>1263.6</ele>
        <time>2020-07-25T13:50:07Z</time>
      </trkpt>
      <trkpt lat="42.8972180" lon="0.0651000">
        <ele>1263.0</ele>
        <time>2020-07-25T13:50:08Z</time>
      </trkpt>
      <trkpt lat="42.8971610" lon="0.0649290">
        <ele>1262.4</ele>
        <time>2020-07-25T13:50:10Z</time>
      </trkpt>
      <trkpt lat="42.8971430" lon="0.0648340">
        <ele>1262.2</ele>
        <time>2020-07-25T13:50:11Z</time>
      </trkpt>
      <trkpt lat="42.8971270" lon="0.0647430">
        <ele>1261.8</ele>
        <time>2020-07-25T13:50:12Z</time>
      </trkpt>
      <trkpt lat="42.8971130" lon="0.0646570">
        <ele>1261.2</ele>
        <time>2020-07-25T13:50:13Z</time>
      </trkpt>
      <trkpt lat="42.8970930" lon="0.0645100">
        <ele>1259.6</ele>
        <time>2020-07-25T13:50:15Z</time>
      </trkpt>
      <trkpt lat="42.8970810" lon="0.0643830">
        <ele>1258.4</ele>
        <time>2020-07-25T13:50:17Z</time>
      </trkpt>
      <trkpt lat="42.8970840" lon="0.0642620">
        <ele>1257.2</ele>
        <time>2020-07-25T13:50:19Z</time>
      </trkpt>
      <trkpt lat="42.8970880" lon="0.0640740">
        <ele>1256.0</ele>
        <time>2020-07-25T13:50:22Z</time>
      </trkpt>
      <trkpt lat="42.8970750" lon="0.0640070">
        <ele>1256.0</ele>
        <time>2020-07-25T13:50:23Z</time>
      </trkpt>
      <trkpt lat="42.8970520" lon="0.0639410">
        <ele>1256.0</ele>
        <time>2020-07-25T13:50:24Z</time>
      </trkpt>
      <trkpt lat="42.8969560" lon="0.0637520">
        <ele>1255.6</ele>
        <time>2020-07-25T13:50:27Z</time>
      </trkpt>
      <trkpt lat="42.8968960" lon="0.0636510">
        <ele>1254.6</ele>
        <time>2020-07-25T13:50:29Z</time>
      </trkpt>
      <trkpt lat="42.8968710" lon="0.0636150">
        <ele>1253.4</ele>
        <time>2020-07-25T13:50:30Z</time>
      </trkpt>
      <trkpt lat="42.8968450" lon="0.0635800">
        <ele>1252.6</ele>
        <time>2020-07-25T13:50:31Z</time>
      </trkpt>
      <trkpt lat="42.8968210" lon="0.0635380">
        <ele>1252.0</ele>
        <time>2020-07-25T13:50:32Z</time>
      </trkpt>
      <trkpt lat="42.8967730" lon="0.0634410">
        <ele>1251.6</ele>
        <time>2020-07-25T13:50:34Z</time>
      </trkpt>
      <trkpt lat="42.8967390" lon="0.0633240">
        <ele>1251.2</ele>
        <time>2020-07-25T13:50:36Z</time>
      </trkpt>
      <trkpt lat="42.8967230" lon="0.0632620">
        <ele>1251.0</ele>
        <time>2020-07-25T13:50:37Z</time>
      </trkpt>
      <trkpt lat="42.8966580" lon="0.0630430">
        <ele>1249.8</ele>
        <time>2020-07-25T13:50:41Z</time>
      </trkpt>
      <trkpt lat="42.8966330" lon="0.0630120">
        <ele>1249.6</ele>
        <time>2020-07-25T13:50:42Z</time>
      </trkpt>
      <trkpt lat="42.8964910" lon="0.0629620">
        <ele>1249.4</ele>
        <time>2020-07-25T13:50:47Z</time>
      </trkpt>
      <trkpt lat="42.8963040" lon="0.0629500">
        <ele>1249.6</ele>
        <time>2020-07-25T13:50:53Z</time>
      </trkpt>
      <trkpt lat="42.8962640" lon="0.0628500">
        <ele>1249.6</ele>
        <time>2020-07-25T13:50:55Z</time>
      </trkpt>
      <trkpt lat="42.8962500" lon="0.0627820">
        <ele>1249.6</ele>
        <time>2020-07-25T13:50:56Z</time>
      </trkpt>
      <trkpt lat="42.8962090" lon="0.0624070">
        <ele>1249.2</ele>
        <time>2020-07-25T13:51:00Z</time>
      </trkpt>
      <trkpt lat="42.8962000" lon="0.0622960">
        <ele>1248.8</ele>
        <time>2020-07-25T13:51:01Z</time>
      </trkpt>
      <trkpt lat="42.8961790" lon="0.0620640">
        <ele>1247.6</ele>
        <time>2020-07-25T13:51:03Z</time>
      </trkpt>
      <trkpt lat="42.8961570" lon="0.0616890">
        <ele>1246.2</ele>
        <time>2020-07-25T13:51:06Z</time>
      </trkpt>
      <trkpt lat="42.8961480" lon="0.0613170">
        <ele>1245.0</ele>
        <time>2020-07-25T13:51:09Z</time>
      </trkpt>
      <trkpt lat="42.8961470" lon="0.0609630">
        <ele>1244.6</ele>
        <time>2020-07-25T13:51:12Z</time>
      </trkpt>
      <trkpt lat="42.8961400" lon="0.0608420">
        <ele>1244.4</ele>
        <time>2020-07-25T13:51:13Z</time>
      </trkpt>
      <trkpt lat="42.8960760" lon="0.0603490">
        <ele>1244.0</ele>
        <time>2020-07-25T13:51:17Z</time>
      </trkpt>
      <trkpt lat="42.8960660" lon="0.0602270">
        <ele>1243.4</ele>
        <time>2020-07-25T13:51:18Z</time>
      </trkpt>
      <trkpt lat="42.8960590" lon="0.0601110">
        <ele>1243.0</ele>
        <time>2020-07-25T13:51:19Z</time>
      </trkpt>
      <trkpt lat="42.8960520" lon="0.0599990">
        <ele>1242.0</ele>
        <time>2020-07-25T13:51:20Z</time>
      </trkpt>
      <trkpt lat="42.8960400" lon="0.0598830">
        <ele>1240.8</ele>
        <time>2020-07-25T13:51:21Z</time>
      </trkpt>
      <trkpt lat="42.8960190" lon="0.0597660">
        <ele>1239.6</ele>
        <time>2020-07-25T13:51:22Z</time>
      </trkpt>
      <trkpt lat="42.8959850" lon="0.0596720">
        <ele>1238.6</ele>
        <time>2020-07-25T13:51:23Z</time>
      </trkpt>
      <trkpt lat="42.8959390" lon="0.0595840">
        <ele>1237.6</ele>
        <time>2020-07-25T13:51:24Z</time>
      </trkpt>
      <trkpt lat="42.8958830" lon="0.0595040">
        <ele>1236.6</ele>
        <time>2020-07-25T13:51:25Z</time>
      </trkpt>
      <trkpt lat="42.8958180" lon="0.0594430">
        <ele>1235.6</ele>
        <time>2020-07-25T13:51:26Z</time>
      </trkpt>
      <trkpt lat="42.8957470" lon="0.0594000">
        <ele>1234.4</ele>
        <time>2020-07-25T13:51:27Z</time>
      </trkpt>
      <trkpt lat="42.8956690" lon="0.0593780">
        <ele>1233.6</ele>
        <time>2020-07-25T13:51:28Z</time>
      </trkpt>
      <trkpt lat="42.8955900" lon="0.0593730">
        <ele>1233.0</ele>
        <time>2020-07-25T13:51:29Z</time>
      </trkpt>
      <trkpt lat="42.8955120" lon="0.0593830">
        <ele>1232.4</ele>
        <time>2020-07-25T13:51:30Z</time>
      </trkpt>
      <trkpt lat="42.8954300" lon="0.0594010">
        <ele>1231.8</ele>
        <time>2020-07-25T13:51:31Z</time>
      </trkpt>
      <trkpt lat="42.8952750" lon="0.0594440">
        <ele>1230.4</ele>
        <time>2020-07-25T13:51:33Z</time>
      </trkpt>
      <trkpt lat="42.8952000" lon="0.0594550">
        <ele>1230.0</ele>
        <time>2020-07-25T13:51:34Z</time>
      </trkpt>
      <trkpt lat="42.8951250" lon="0.0594430">
        <ele>1229.4</ele>
        <time>2020-07-25T13:51:35Z</time>
      </trkpt>
      <trkpt lat="42.8950550" lon="0.0594020">
        <ele>1228.8</ele>
        <time>2020-07-25T13:51:36Z</time>
      </trkpt>
      <trkpt lat="42.8949940" lon="0.0593440">
        <ele>1228.2</ele>
        <time>2020-07-25T13:51:37Z</time>
      </trkpt>
      <trkpt lat="42.8949660" lon="0.0592610">
        <ele>1227.8</ele>
        <time>2020-07-25T13:51:38Z</time>
      </trkpt>
      <trkpt lat="42.8949630" lon="0.0591710">
        <ele>1227.2</ele>
        <time>2020-07-25T13:51:39Z</time>
      </trkpt>
      <trkpt lat="42.8949840" lon="0.0590830">
        <ele>1226.6</ele>
        <time>2020-07-25T13:51:40Z</time>
      </trkpt>
      <trkpt lat="42.8950250" lon="0.0590140">
        <ele>1226.0</ele>
        <time>2020-07-25T13:51:41Z</time>
      </trkpt>
      <trkpt lat="42.8950760" lon="0.0589710">
        <ele>1225.4</ele>
        <time>2020-07-25T13:51:42Z</time>
      </trkpt>
      <trkpt lat="42.8951400" lon="0.0589660">
        <ele>1224.8</ele>
        <time>2020-07-25T13:51:43Z</time>
      </trkpt>
      <trkpt lat="42.8952070" lon="0.0589770">
        <ele>1224.2</ele>
        <time>2020-07-25T13:51:44Z</time>
      </trkpt>
      <trkpt lat="42.8952710" lon="0.0590120">
        <ele>1223.4</ele>
        <time>2020-07-25T13:51:45Z</time>
      </trkpt>
      <trkpt lat="42.8953340" lon="0.0590570">
        <ele>1222.8</ele>
        <time>2020-07-25T13:51:46Z</time>
      </trkpt>
      <trkpt lat="42.8953960" lon="0.0590960">
        <ele>1222.4</ele>
        <time>2020-07-25T13:51:47Z</time>
      </trkpt>
      <trkpt lat="42.8954620" lon="0.0591110">
        <ele>1222.0</ele>
        <time>2020-07-25T13:51:48Z</time>
      </trkpt>
      <trkpt lat="42.8955300" lon="0.0590970">
        <ele>1221.6</ele>
        <time>2020-07-25T13:51:49Z</time>
      </trkpt>
      <trkpt lat="42.8955930" lon="0.0590430">
        <ele>1221.2</ele>
        <time>2020-07-25T13:51:50Z</time>
      </trkpt>
      <trkpt lat="42.8956400" lon="0.0589750">
        <ele>1220.6</ele>
        <time>2020-07-25T13:51:51Z</time>
      </trkpt>
      <trkpt lat="42.8956680" lon="0.0588970">
        <ele>1220.4</ele>
        <time>2020-07-25T13:51:52Z</time>
      </trkpt>
      <trkpt lat="42.8956680" lon="0.0588020">
        <ele>1220.0</ele>
        <time>2020-07-25T13:51:53Z</time>
      </trkpt>
      <trkpt lat="42.8956460" lon="0.0587110">
        <ele>1219.4</ele>
        <time>2020-07-25T13:51:54Z</time>
      </trkpt>
      <trkpt lat="42.8955970" lon="0.0586320">
        <ele>1219.2</ele>
        <time>2020-07-25T13:51:55Z</time>
      </trkpt>
      <trkpt lat="42.8955280" lon="0.0585660">
        <ele>1218.8</ele>
        <time>2020-07-25T13:51:56Z</time>
      </trkpt>
      <trkpt lat="42.8953560" lon="0.0584600">
        <ele>1218.8</ele>
        <time>2020-07-25T13:51:58Z</time>
      </trkpt>
      <trkpt lat="42.8950780" lon="0.0582680">
        <ele>1218.4</ele>
        <time>2020-07-25T13:52:01Z</time>
      </trkpt>
      <trkpt lat="42.8949920" lon="0.0581790">
        <ele>1218.0</ele>
        <time>2020-07-25T13:52:02Z</time>
      </trkpt>
      <trkpt lat="42.8949080" lon="0.0580770">
        <ele>1217.2</ele>
        <time>2020-07-25T13:52:03Z</time>
      </trkpt>
      <trkpt lat="42.8947490" lon="0.0578490">
        <ele>1216.2</ele>
        <time>2020-07-25T13:52:05Z</time>
      </trkpt>
      <trkpt lat="42.8946680" lon="0.0577250">
        <ele>1216.0</ele>
        <time>2020-07-25T13:52:06Z</time>
      </trkpt>
      <trkpt lat="42.8945910" lon="0.0575930">
        <ele>1215.8</ele>
        <time>2020-07-25T13:52:07Z</time>
      </trkpt>
      <trkpt lat="42.8944550" lon="0.0572990">
        <ele>1213.8</ele>
        <time>2020-07-25T13:52:09Z</time>
      </trkpt>
      <trkpt lat="42.8943960" lon="0.0571400">
        <ele>1211.8</ele>
        <time>2020-07-25T13:52:10Z</time>
      </trkpt>
      <trkpt lat="42.8943400" lon="0.0569730">
        <ele>1210.2</ele>
        <time>2020-07-25T13:52:11Z</time>
      </trkpt>
      <trkpt lat="42.8942870" lon="0.0567980">
        <ele>1209.2</ele>
        <time>2020-07-25T13:52:12Z</time>
      </trkpt>
      <trkpt lat="42.8942350" lon="0.0566170">
        <ele>1208.4</ele>
        <time>2020-07-25T13:52:13Z</time>
      </trkpt>
      <trkpt lat="42.8941780" lon="0.0564360">
        <ele>1207.6</ele>
        <time>2020-07-25T13:52:14Z</time>
      </trkpt>
      <trkpt lat="42.8941150" lon="0.0562560">
        <ele>1206.8</ele>
        <time>2020-07-25T13:52:15Z</time>
      </trkpt>
      <trkpt lat="42.8940450" lon="0.0560790">
        <ele>1206.0</ele>
        <time>2020-07-25T13:52:16Z</time>
      </trkpt>
      <trkpt lat="42.8939700" lon="0.0559050">
        <ele>1204.8</ele>
        <time>2020-07-25T13:52:17Z</time>
      </trkpt>
      <trkpt lat="42.8938940" lon="0.0557300">
        <ele>1203.6</ele>
        <time>2020-07-25T13:52:18Z</time>
      </trkpt>
      <trkpt lat="42.8938190" lon="0.0555560">
        <ele>1202.2</ele>
        <time>2020-07-25T13:52:19Z</time>
      </trkpt>
      <trkpt lat="42.8937420" lon="0.0553830">
        <ele>1200.2</ele>
        <time>2020-07-25T13:52:20Z</time>
      </trkpt>
      <trkpt lat="42.8936650" lon="0.0552120">
        <ele>1198.6</ele>
        <time>2020-07-25T13:52:21Z</time>
      </trkpt>
      <trkpt lat="42.8935920" lon="0.0550420">
        <ele>1197.6</ele>
        <time>2020-07-25T13:52:22Z</time>
      </trkpt>
      <trkpt lat="42.8935160" lon="0.0548750">
        <ele>1196.2</ele>
        <time>2020-07-25T13:52:23Z</time>
      </trkpt>
      <trkpt lat="42.8934390" lon="0.0547090">
        <ele>1194.0</ele>
        <time>2020-07-25T13:52:24Z</time>
      </trkpt>
      <trkpt lat="42.8933600" lon="0.0545420">
        <ele>1192.0</ele>
        <time>2020-07-25T13:52:25Z</time>
      </trkpt>
      <trkpt lat="42.8932820" lon="0.0543730">
        <ele>1190.2</ele>
        <time>2020-07-25T13:52:26Z</time>
      </trkpt>
      <trkpt lat="42.8932060" lon="0.0542010">
        <ele>1189.0</ele>
        <time>2020-07-25T13:52:27Z</time>
      </trkpt>
      <trkpt lat="42.8931360" lon="0.0540260">
        <ele>1187.6</ele>
        <time>2020-07-25T13:52:28Z</time>
      </trkpt>
      <trkpt lat="42.8930720" lon="0.0538490">
        <ele>1186.0</ele>
        <time>2020-07-25T13:52:29Z</time>
      </trkpt>
      <trkpt lat="42.8930200" lon="0.0536710">
        <ele>1184.8</ele>
        <time>2020-07-25T13:52:30Z</time>
      </trkpt>
      <trkpt lat="42.8929770" lon="0.0534940">
        <ele>1183.6</ele>
        <time>2020-07-25T13:52:31Z</time>
      </trkpt>
      <trkpt lat="42.8929460" lon="0.0533160">
        <ele>1182.0</ele>
        <time>2020-07-25T13:52:32Z</time>
      </trkpt>
      <trkpt lat="42.8929200" lon="0.0531410">
        <ele>1180.6</ele>
        <time>2020-07-25T13:52:33Z</time>
      </trkpt>
      <trkpt lat="42.8928910" lon="0.0529690">
        <ele>1179.6</ele>
        <time>2020-07-25T13:52:34Z</time>
      </trkpt>
      <trkpt lat="42.8928550" lon="0.0528000">
        <ele>1178.6</ele>
        <time>2020-07-25T13:52:35Z</time>
      </trkpt>
      <trkpt lat="42.8928090" lon="0.0526330">
        <ele>1177.8</ele>
        <time>2020-07-25T13:52:36Z</time>
      </trkpt>
      <trkpt lat="42.8927510" lon="0.0524710">
        <ele>1177.0</ele>
        <time>2020-07-25T13:52:37Z</time>
      </trkpt>
      <trkpt lat="42.8926810" lon="0.0523130">
        <ele>1175.8</ele>
        <time>2020-07-25T13:52:38Z</time>
      </trkpt>
      <trkpt lat="42.8926050" lon="0.0521530">
        <ele>1174.6</ele>
        <time>2020-07-25T13:52:39Z</time>
      </trkpt>
      <trkpt lat="42.8924500" lon="0.0518330">
        <ele>1172.8</ele>
        <time>2020-07-25T13:52:41Z</time>
      </trkpt>
      <trkpt lat="42.8922910" lon="0.0515110">
        <ele>1171.2</ele>
        <time>2020-07-25T13:52:43Z</time>
      </trkpt>
      <trkpt lat="42.8922150" lon="0.0513570">
        <ele>1170.0</ele>
        <time>2020-07-25T13:52:44Z</time>
      </trkpt>
      <trkpt lat="42.8921410" lon="0.0512160">
        <ele>1168.8</ele>
        <time>2020-07-25T13:52:45Z</time>
      </trkpt>
      <trkpt lat="42.8920740" lon="0.0510880">
        <ele>1167.8</ele>
        <time>2020-07-25T13:52:46Z</time>
      </trkpt>
      <trkpt lat="42.8919990" lon="0.0509770">
        <ele>1166.6</ele>
        <time>2020-07-25T13:52:47Z</time>
      </trkpt>
      <trkpt lat="42.8919120" lon="0.0508880">
        <ele>1165.4</ele>
        <time>2020-07-25T13:52:48Z</time>
      </trkpt>
      <trkpt lat="42.8918150" lon="0.0508160">
        <ele>1164.6</ele>
        <time>2020-07-25T13:52:49Z</time>
      </trkpt>
      <trkpt lat="42.8917070" lon="0.0507590">
        <ele>1163.4</ele>
        <time>2020-07-25T13:52:50Z</time>
      </trkpt>
      <trkpt lat="42.8915940" lon="0.0507040">
        <ele>1162.2</ele>
        <time>2020-07-25T13:52:51Z</time>
      </trkpt>
      <trkpt lat="42.8914790" lon="0.0506450">
        <ele>1161.2</ele>
        <time>2020-07-25T13:52:52Z</time>
      </trkpt>
      <trkpt lat="42.8913650" lon="0.0505770">
        <ele>1160.0</ele>
        <time>2020-07-25T13:52:53Z</time>
      </trkpt>
      <trkpt lat="42.8912540" lon="0.0504940">
        <ele>1159.0</ele>
        <time>2020-07-25T13:52:54Z</time>
      </trkpt>
      <trkpt lat="42.8911480" lon="0.0503960">
        <ele>1158.2</ele>
        <time>2020-07-25T13:52:55Z</time>
      </trkpt>
      <trkpt lat="42.8910490" lon="0.0502810">
        <ele>1157.4</ele>
        <time>2020-07-25T13:52:56Z</time>
      </trkpt>
      <trkpt lat="42.8909550" lon="0.0501560">
        <ele>1156.2</ele>
        <time>2020-07-25T13:52:57Z</time>
      </trkpt>
      <trkpt lat="42.8908620" lon="0.0500310">
        <ele>1155.0</ele>
        <time>2020-07-25T13:52:58Z</time>
      </trkpt>
      <trkpt lat="42.8907710" lon="0.0499080">
        <ele>1153.8</ele>
        <time>2020-07-25T13:52:59Z</time>
      </trkpt>
      <trkpt lat="42.8906210" lon="0.0496500">
        <ele>1151.8</ele>
        <time>2020-07-25T13:53:01Z</time>
      </trkpt>
      <trkpt lat="42.8905690" lon="0.0495060">
        <ele>1150.6</ele>
        <time>2020-07-25T13:53:02Z</time>
      </trkpt>
      <trkpt lat="42.8905420" lon="0.0493500">
        <ele>1149.0</ele>
        <time>2020-07-25T13:53:03Z</time>
      </trkpt>
      <trkpt lat="42.8905320" lon="0.0491890">
        <ele>1147.6</ele>
        <time>2020-07-25T13:53:04Z</time>
      </trkpt>
      <trkpt lat="42.8905250" lon="0.0490300">
        <ele>1146.2</ele>
        <time>2020-07-25T13:53:05Z</time>
      </trkpt>
      <trkpt lat="42.8905050" lon="0.0488790">
        <ele>1144.8</ele>
        <time>2020-07-25T13:53:06Z</time>
      </trkpt>
      <trkpt lat="42.8904610" lon="0.0487430">
        <ele>1143.8</ele>
        <time>2020-07-25T13:53:07Z</time>
      </trkpt>
      <trkpt lat="42.8903980" lon="0.0486210">
        <ele>1142.8</ele>
        <time>2020-07-25T13:53:08Z</time>
      </trkpt>
      <trkpt lat="42.8903180" lon="0.0485170">
        <ele>1141.8</ele>
        <time>2020-07-25T13:53:09Z</time>
      </trkpt>
      <trkpt lat="42.8902420" lon="0.0484230">
        <ele>1140.8</ele>
        <time>2020-07-25T13:53:10Z</time>
      </trkpt>
      <trkpt lat="42.8901760" lon="0.0483390">
        <ele>1139.8</ele>
        <time>2020-07-25T13:53:11Z</time>
      </trkpt>
      <trkpt lat="42.8901350" lon="0.0482510">
        <ele>1138.8</ele>
        <time>2020-07-25T13:53:12Z</time>
      </trkpt>
      <trkpt lat="42.8901230" lon="0.0481560">
        <ele>1137.8</ele>
        <time>2020-07-25T13:53:13Z</time>
      </trkpt>
      <trkpt lat="42.8901440" lon="0.0480690">
        <ele>1136.6</ele>
        <time>2020-07-25T13:53:14Z</time>
      </trkpt>
      <trkpt lat="42.8901930" lon="0.0480070">
        <ele>1135.6</ele>
        <time>2020-07-25T13:53:15Z</time>
      </trkpt>
      <trkpt lat="42.8902580" lon="0.0479770">
        <ele>1135.2</ele>
        <time>2020-07-25T13:53:16Z</time>
      </trkpt>
      <trkpt lat="42.8903280" lon="0.0479990">
        <ele>1134.6</ele>
        <time>2020-07-25T13:53:17Z</time>
      </trkpt>
      <trkpt lat="42.8903890" lon="0.0480580">
        <ele>1134.2</ele>
        <time>2020-07-25T13:53:18Z</time>
      </trkpt>
      <trkpt lat="42.8904910" lon="0.0482070">
        <ele>1133.2</ele>
        <time>2020-07-25T13:53:20Z</time>
      </trkpt>
      <trkpt lat="42.8905410" lon="0.0482870">
        <ele>1132.6</ele>
        <time>2020-07-25T13:53:21Z</time>
      </trkpt>
      <trkpt lat="42.8907020" lon="0.0485420">
        <ele>1131.6</ele>
        <time>2020-07-25T13:53:24Z</time>
      </trkpt>
      <trkpt lat="42.8908330" lon="0.0487030">
        <ele>1130.6</ele>
        <time>2020-07-25T13:53:26Z</time>
      </trkpt>
      <trkpt lat="42.8909040" lon="0.0487600">
        <ele>1129.8</ele>
        <time>2020-07-25T13:53:27Z</time>
      </trkpt>
      <trkpt lat="42.8909730" lon="0.0487930">
        <ele>1129.2</ele>
        <time>2020-07-25T13:53:28Z</time>
      </trkpt>
      <trkpt lat="42.8910370" lon="0.0487970">
        <ele>1128.6</ele>
        <time>2020-07-25T13:53:29Z</time>
      </trkpt>
      <trkpt lat="42.8910920" lon="0.0487720">
        <ele>1128.2</ele>
        <time>2020-07-25T13:53:30Z</time>
      </trkpt>
      <trkpt lat="42.8911280" lon="0.0486930">
        <ele>1127.8</ele>
        <time>2020-07-25T13:53:31Z</time>
      </trkpt>
      <trkpt lat="42.8911440" lon="0.0486210">
        <ele>1127.6</ele>
        <time>2020-07-25T13:53:32Z</time>
      </trkpt>
      <trkpt lat="42.8911390" lon="0.0485390">
        <ele>1127.4</ele>
        <time>2020-07-25T13:53:33Z</time>
      </trkpt>
      <trkpt lat="42.8911180" lon="0.0484540">
        <ele>1127.2</ele>
        <time>2020-07-25T13:53:34Z</time>
      </trkpt>
      <trkpt lat="42.8910810" lon="0.0483710">
        <ele>1127.2</ele>
        <time>2020-07-25T13:53:35Z</time>
      </trkpt>
      <trkpt lat="42.8909880" lon="0.0482010">
        <ele>1127.0</ele>
        <time>2020-07-25T13:53:37Z</time>
      </trkpt>
      <trkpt lat="42.8908170" lon="0.0479210">
        <ele>1126.4</ele>
        <time>2020-07-25T13:53:40Z</time>
      </trkpt>
      <trkpt lat="42.8906870" lon="0.0477180">
        <ele>1125.0</ele>
        <time>2020-07-25T13:53:42Z</time>
      </trkpt>
      <trkpt lat="42.8906190" lon="0.0476120">
        <ele>1124.6</ele>
        <time>2020-07-25T13:53:43Z</time>
      </trkpt>
      <trkpt lat="42.8903210" lon="0.0471890">
        <ele>1124.2</ele>
        <time>2020-07-25T13:53:47Z</time>
      </trkpt>
      <trkpt lat="42.8902370" lon="0.0470950">
        <ele>1124.2</ele>
        <time>2020-07-25T13:53:48Z</time>
      </trkpt>
      <trkpt lat="42.8901390" lon="0.0470210">
        <ele>1124.0</ele>
        <time>2020-07-25T13:53:49Z</time>
      </trkpt>
      <trkpt lat="42.8900360" lon="0.0469590">
        <ele>1123.6</ele>
        <time>2020-07-25T13:53:50Z</time>
      </trkpt>
      <trkpt lat="42.8898120" lon="0.0468530">
        <ele>1122.2</ele>
        <time>2020-07-25T13:53:52Z</time>
      </trkpt>
      <trkpt lat="42.8896970" lon="0.0468000">
        <ele>1120.8</ele>
        <time>2020-07-25T13:53:53Z</time>
      </trkpt>
      <trkpt lat="42.8895830" lon="0.0467440">
        <ele>1119.2</ele>
        <time>2020-07-25T13:53:54Z</time>
      </trkpt>
      <trkpt lat="42.8894660" lon="0.0466850">
        <ele>1118.0</ele>
        <time>2020-07-25T13:53:55Z</time>
      </trkpt>
      <trkpt lat="42.8892200" lon="0.0465600">
        <ele>1116.0</ele>
        <time>2020-07-25T13:53:57Z</time>
      </trkpt>
      <trkpt lat="42.8890970" lon="0.0464930">
        <ele>1115.0</ele>
        <time>2020-07-25T13:53:58Z</time>
      </trkpt>
      <trkpt lat="42.8889740" lon="0.0464240">
        <ele>1113.8</ele>
        <time>2020-07-25T13:53:59Z</time>
      </trkpt>
      <trkpt lat="42.8888500" lon="0.0463580">
        <ele>1112.4</ele>
        <time>2020-07-25T13:54:00Z</time>
      </trkpt>
      <trkpt lat="42.8887240" lon="0.0462980">
        <ele>1111.0</ele>
        <time>2020-07-25T13:54:01Z</time>
      </trkpt>
      <trkpt lat="42.8885970" lon="0.0462460">
        <ele>1109.6</ele>
        <time>2020-07-25T13:54:02Z</time>
      </trkpt>
      <trkpt lat="42.8883360" lon="0.0461510">
        <ele>1107.6</ele>
        <time>2020-07-25T13:54:04Z</time>
      </trkpt>
      <trkpt lat="42.8882070" lon="0.0460960">
        <ele>1106.2</ele>
        <time>2020-07-25T13:54:05Z</time>
      </trkpt>
      <trkpt lat="42.8880830" lon="0.0460280">
        <ele>1104.8</ele>
        <time>2020-07-25T13:54:06Z</time>
      </trkpt>
      <trkpt lat="42.8879640" lon="0.0459460">
        <ele>1103.8</ele>
        <time>2020-07-25T13:54:07Z</time>
      </trkpt>
      <trkpt lat="42.8878510" lon="0.0458520">
        <ele>1102.6</ele>
        <time>2020-07-25T13:54:08Z</time>
      </trkpt>
      <trkpt lat="42.8877430" lon="0.0457500">
        <ele>1101.4</ele>
        <time>2020-07-25T13:54:09Z</time>
      </trkpt>
      <trkpt lat="42.8875360" lon="0.0455350">
        <ele>1099.8</ele>
        <time>2020-07-25T13:54:11Z</time>
      </trkpt>
      <trkpt lat="42.8873280" lon="0.0453240">
        <ele>1099.2</ele>
        <time>2020-07-25T13:54:13Z</time>
      </trkpt>
      <trkpt lat="42.8872240" lon="0.0452250">
        <ele>1098.6</ele>
        <time>2020-07-25T13:54:14Z</time>
      </trkpt>
      <trkpt lat="42.8870190" lon="0.0450300">
        <ele>1097.2</ele>
        <time>2020-07-25T13:54:16Z</time>
      </trkpt>
      <trkpt lat="42.8869150" lon="0.0449420">
        <ele>1096.2</ele>
        <time>2020-07-25T13:54:17Z</time>
      </trkpt>
      <trkpt lat="42.8868080" lon="0.0448560">
        <ele>1095.0</ele>
        <time>2020-07-25T13:54:18Z</time>
      </trkpt>
      <trkpt lat="42.8867000" lon="0.0447680">
        <ele>1093.8</ele>
        <time>2020-07-25T13:54:19Z</time>
      </trkpt>
      <trkpt lat="42.8865880" lon="0.0446760">
        <ele>1092.4</ele>
        <time>2020-07-25T13:54:20Z</time>
      </trkpt>
      <trkpt lat="42.8864760" lon="0.0445790">
        <ele>1091.4</ele>
        <time>2020-07-25T13:54:21Z</time>
      </trkpt>
      <trkpt lat="42.8863640" lon="0.0444790">
        <ele>1090.2</ele>
        <time>2020-07-25T13:54:22Z</time>
      </trkpt>
      <trkpt lat="42.8862530" lon="0.0443730">
        <ele>1088.6</ele>
        <time>2020-07-25T13:54:23Z</time>
      </trkpt>
      <trkpt lat="42.8861430" lon="0.0442620">
        <ele>1087.2</ele>
        <time>2020-07-25T13:54:24Z</time>
      </trkpt>
      <trkpt lat="42.8859390" lon="0.0440220">
        <ele>1085.4</ele>
        <time>2020-07-25T13:54:26Z</time>
      </trkpt>
      <trkpt lat="42.8857520" lon="0.0437620">
        <ele>1083.6</ele>
        <time>2020-07-25T13:54:28Z</time>
      </trkpt>
      <trkpt lat="42.8855750" lon="0.0434880">
        <ele>1081.6</ele>
        <time>2020-07-25T13:54:30Z</time>
      </trkpt>
      <trkpt lat="42.8854900" lon="0.0433440">
        <ele>1080.6</ele>
        <time>2020-07-25T13:54:31Z</time>
      </trkpt>
      <trkpt lat="42.8853330" lon="0.0430480">
        <ele>1078.8</ele>
        <time>2020-07-25T13:54:33Z</time>
      </trkpt>
      <trkpt lat="42.8851610" lon="0.0427820">
        <ele>1076.8</ele>
        <time>2020-07-25T13:54:35Z</time>
      </trkpt>
      <trkpt lat="42.8850650" lon="0.0426640">
        <ele>1075.4</ele>
        <time>2020-07-25T13:54:36Z</time>
      </trkpt>
      <trkpt lat="42.8849670" lon="0.0425500">
        <ele>1074.6</ele>
        <time>2020-07-25T13:54:37Z</time>
      </trkpt>
      <trkpt lat="42.8848680" lon="0.0424370">
        <ele>1073.4</ele>
        <time>2020-07-25T13:54:38Z</time>
      </trkpt>
      <trkpt lat="42.8847700" lon="0.0423220">
        <ele>1072.2</ele>
        <time>2020-07-25T13:54:39Z</time>
      </trkpt>
      <trkpt lat="42.8846730" lon="0.0422100">
        <ele>1071.0</ele>
        <time>2020-07-25T13:54:40Z</time>
      </trkpt>
      <trkpt lat="42.8845780" lon="0.0420950">
        <ele>1069.8</ele>
        <time>2020-07-25T13:54:41Z</time>
      </trkpt>
      <trkpt lat="42.8844880" lon="0.0419720">
        <ele>1068.4</ele>
        <time>2020-07-25T13:54:42Z</time>
      </trkpt>
      <trkpt lat="42.8844010" lon="0.0418440">
        <ele>1066.6</ele>
        <time>2020-07-25T13:54:43Z</time>
      </trkpt>
      <trkpt lat="42.8843160" lon="0.0417240">
        <ele>1065.2</ele>
        <time>2020-07-25T13:54:44Z</time>
      </trkpt>
      <trkpt lat="42.8842260" lon="0.0416000">
        <ele>1064.0</ele>
        <time>2020-07-25T13:54:45Z</time>
      </trkpt>
      <trkpt lat="42.8841330" lon="0.0414790">
        <ele>1063.0</ele>
        <time>2020-07-25T13:54:46Z</time>
      </trkpt>
      <trkpt lat="42.8839510" lon="0.0412230">
        <ele>1061.6</ele>
        <time>2020-07-25T13:54:48Z</time>
      </trkpt>
      <trkpt lat="42.8837710" lon="0.0409700">
        <ele>1060.2</ele>
        <time>2020-07-25T13:54:50Z</time>
      </trkpt>
      <trkpt lat="42.8836800" lon="0.0408450">
        <ele>1058.8</ele>
        <time>2020-07-25T13:54:51Z</time>
      </trkpt>
      <trkpt lat="42.8835880" lon="0.0407170">
        <ele>1057.4</ele>
        <time>2020-07-25T13:54:52Z</time>
      </trkpt>
      <trkpt lat="42.8834940" lon="0.0405880">
        <ele>1056.4</ele>
        <time>2020-07-25T13:54:53Z</time>
      </trkpt>
      <trkpt lat="42.8833120" lon="0.0403250">
        <ele>1054.8</ele>
        <time>2020-07-25T13:54:55Z</time>
      </trkpt>
      <trkpt lat="42.8831430" lon="0.0400810">
        <ele>1053.0</ele>
        <time>2020-07-25T13:54:57Z</time>
      </trkpt>
      <trkpt lat="42.8830660" lon="0.0399750">
        <ele>1051.6</ele>
        <time>2020-07-25T13:54:58Z</time>
      </trkpt>
      <trkpt lat="42.8829860" lon="0.0398880">
        <ele>1050.2</ele>
        <time>2020-07-25T13:54:59Z</time>
      </trkpt>
      <trkpt lat="42.8829020" lon="0.0398250">
        <ele>1048.8</ele>
        <time>2020-07-25T13:55:00Z</time>
      </trkpt>
      <trkpt lat="42.8828150" lon="0.0397880">
        <ele>1047.6</ele>
        <time>2020-07-25T13:55:01Z</time>
      </trkpt>
      <trkpt lat="42.8827310" lon="0.0397670">
        <ele>1046.6</ele>
        <time>2020-07-25T13:55:02Z</time>
      </trkpt>
      <trkpt lat="42.8826530" lon="0.0397450">
        <ele>1045.4</ele>
        <time>2020-07-25T13:55:03Z</time>
      </trkpt>
      <trkpt lat="42.8825860" lon="0.0397080">
        <ele>1044.2</ele>
        <time>2020-07-25T13:55:04Z</time>
      </trkpt>
      <trkpt lat="42.8825440" lon="0.0396420">
        <ele>1043.0</ele>
        <time>2020-07-25T13:55:05Z</time>
      </trkpt>
      <trkpt lat="42.8825350" lon="0.0395610">
        <ele>1042.0</ele>
        <time>2020-07-25T13:55:06Z</time>
      </trkpt>
      <trkpt lat="42.8825570" lon="0.0394830">
        <ele>1041.0</ele>
        <time>2020-07-25T13:55:07Z</time>
      </trkpt>
      <trkpt lat="42.8826070" lon="0.0394290">
        <ele>1040.2</ele>
        <time>2020-07-25T13:55:08Z</time>
      </trkpt>
      <trkpt lat="42.8826780" lon="0.0394250">
        <ele>1039.8</ele>
        <time>2020-07-25T13:55:09Z</time>
      </trkpt>
      <trkpt lat="42.8828220" lon="0.0395130">
        <ele>1038.8</ele>
        <time>2020-07-25T13:55:11Z</time>
      </trkpt>
      <trkpt lat="42.8830570" lon="0.0396960">
        <ele>1037.8</ele>
        <time>2020-07-25T13:55:14Z</time>
      </trkpt>
      <trkpt lat="42.8832150" lon="0.0398500">
        <ele>1037.2</ele>
        <time>2020-07-25T13:55:16Z</time>
      </trkpt>
      <trkpt lat="42.8833420" lon="0.0400460">
        <ele>1036.8</ele>
        <time>2020-07-25T13:55:18Z</time>
      </trkpt>
      <trkpt lat="42.8834610" lon="0.0402490">
        <ele>1035.4</ele>
        <time>2020-07-25T13:55:20Z</time>
      </trkpt>
      <trkpt lat="42.8835370" lon="0.0403090">
        <ele>1034.4</ele>
        <time>2020-07-25T13:55:21Z</time>
      </trkpt>
      <trkpt lat="42.8836150" lon="0.0403290">
        <ele>1033.6</ele>
        <time>2020-07-25T13:55:22Z</time>
      </trkpt>
      <trkpt lat="42.8836970" lon="0.0402820">
        <ele>1033.0</ele>
        <time>2020-07-25T13:55:23Z</time>
      </trkpt>
      <trkpt lat="42.8837530" lon="0.0401950">
        <ele>1032.4</ele>
        <time>2020-07-25T13:55:24Z</time>
      </trkpt>
      <trkpt lat="42.8837680" lon="0.0400810">
        <ele>1032.2</ele>
        <time>2020-07-25T13:55:25Z</time>
      </trkpt>
      <trkpt lat="42.8837560" lon="0.0399630">
        <ele>1032.0</ele>
        <time>2020-07-25T13:55:26Z</time>
      </trkpt>
      <trkpt lat="42.8837230" lon="0.0398470">
        <ele>1031.8</ele>
        <time>2020-07-25T13:55:27Z</time>
      </trkpt>
      <trkpt lat="42.8836360" lon="0.0396080">
        <ele>1031.8</ele>
        <time>2020-07-25T13:55:29Z</time>
      </trkpt>
      <trkpt lat="42.8835420" lon="0.0393520">
        <ele>1030.8</ele>
        <time>2020-07-25T13:55:31Z</time>
      </trkpt>
      <trkpt lat="42.8834370" lon="0.0390870">
        <ele>1028.8</ele>
        <time>2020-07-25T13:55:33Z</time>
      </trkpt>
      <trkpt lat="42.8833820" lon="0.0389490">
        <ele>1027.0</ele>
        <time>2020-07-25T13:55:34Z</time>
      </trkpt>
      <trkpt lat="42.8833280" lon="0.0388090">
        <ele>1025.6</ele>
        <time>2020-07-25T13:55:35Z</time>
      </trkpt>
      <trkpt lat="42.8832180" lon="0.0385130">
        <ele>1024.4</ele>
        <time>2020-07-25T13:55:37Z</time>
      </trkpt>
      <trkpt lat="42.8831050" lon="0.0382100">
        <ele>1024.0</ele>
        <time>2020-07-25T13:55:39Z</time>
      </trkpt>
      <trkpt lat="42.8829870" lon="0.0379000">
        <ele>1023.4</ele>
        <time>2020-07-25T13:55:41Z</time>
      </trkpt>
      <trkpt lat="42.8829370" lon="0.0377400">
        <ele>1023.2</ele>
        <time>2020-07-25T13:55:42Z</time>
      </trkpt>
      <trkpt lat="42.8828530" lon="0.0374020">
        <ele>1022.0</ele>
        <time>2020-07-25T13:55:44Z</time>
      </trkpt>
      <trkpt lat="42.8827860" lon="0.0370420">
        <ele>1020.0</ele>
        <time>2020-07-25T13:55:46Z</time>
      </trkpt>
      <trkpt lat="42.8827580" lon="0.0368590">
        <ele>1018.2</ele>
        <time>2020-07-25T13:55:47Z</time>
      </trkpt>
      <trkpt lat="42.8827400" lon="0.0366680">
        <ele>1016.4</ele>
        <time>2020-07-25T13:55:48Z</time>
      </trkpt>
      <trkpt lat="42.8827330" lon="0.0364730">
        <ele>1015.0</ele>
        <time>2020-07-25T13:55:49Z</time>
      </trkpt>
      <trkpt lat="42.8827380" lon="0.0360780">
        <ele>1013.4</ele>
        <time>2020-07-25T13:55:51Z</time>
      </trkpt>
      <trkpt lat="42.8827510" lon="0.0356880">
        <ele>1011.6</ele>
        <time>2020-07-25T13:55:53Z</time>
      </trkpt>
      <trkpt lat="42.8827600" lon="0.0354930">
        <ele>1010.4</ele>
        <time>2020-07-25T13:55:54Z</time>
      </trkpt>
      <trkpt lat="42.8827790" lon="0.0353000">
        <ele>1008.8</ele>
        <time>2020-07-25T13:55:55Z</time>
      </trkpt>
      <trkpt lat="42.8828130" lon="0.0351110">
        <ele>1007.4</ele>
        <time>2020-07-25T13:55:56Z</time>
      </trkpt>
      <trkpt lat="42.8828570" lon="0.0349300">
        <ele>1006.4</ele>
        <time>2020-07-25T13:55:57Z</time>
      </trkpt>
      <trkpt lat="42.8829040" lon="0.0347580">
        <ele>1005.2</ele>
        <time>2020-07-25T13:55:58Z</time>
      </trkpt>
      <trkpt lat="42.8829490" lon="0.0345890">
        <ele>1003.6</ele>
        <time>2020-07-25T13:55:59Z</time>
      </trkpt>
      <trkpt lat="42.8829840" lon="0.0344210">
        <ele>1001.8</ele>
        <time>2020-07-25T13:56:00Z</time>
      </trkpt>
      <trkpt lat="42.8830060" lon="0.0342530">
        <ele>1000.2</ele>
        <time>2020-07-25T13:56:01Z</time>
      </trkpt>
      <trkpt lat="42.8830150" lon="0.0340810">
        <ele>998.8</ele>
        <time>2020-07-25T13:56:02Z</time>
      </trkpt>
      <trkpt lat="42.8830180" lon="0.0339060">
        <ele>997.6</ele>
        <time>2020-07-25T13:56:03Z</time>
      </trkpt>
      <trkpt lat="42.8830150" lon="0.0337290">
        <ele>996.4</ele>
        <time>2020-07-25T13:56:04Z</time>
      </trkpt>
      <trkpt lat="42.8830120" lon="0.0335460">
        <ele>995.4</ele>
        <time>2020-07-25T13:56:05Z</time>
      </trkpt>
      <trkpt lat="42.8830090" lon="0.0333600">
        <ele>994.2</ele>
        <time>2020-07-25T13:56:06Z</time>
      </trkpt>
      <trkpt lat="42.8830070" lon="0.0331780">
        <ele>993.2</ele>
        <time>2020-07-25T13:56:07Z</time>
      </trkpt>
      <trkpt lat="42.8830040" lon="0.0329960">
        <ele>991.6</ele>
        <time>2020-07-25T13:56:08Z</time>
      </trkpt>
      <trkpt lat="42.8830100" lon="0.0328150">
        <ele>989.8</ele>
        <time>2020-07-25T13:56:09Z</time>
      </trkpt>
      <trkpt lat="42.8830240" lon="0.0326300">
        <ele>988.2</ele>
        <time>2020-07-25T13:56:10Z</time>
      </trkpt>
      <trkpt lat="42.8830480" lon="0.0324490">
        <ele>986.8</ele>
        <time>2020-07-25T13:56:11Z</time>
      </trkpt>
      <trkpt lat="42.8830990" lon="0.0322530">
        <ele>985.4</ele>
        <time>2020-07-25T13:56:12Z</time>
      </trkpt>
      <trkpt lat="42.8831600" lon="0.0320640">
        <ele>984.0</ele>
        <time>2020-07-25T13:56:13Z</time>
      </trkpt>
      <trkpt lat="42.8832210" lon="0.0318920">
        <ele>982.6</ele>
        <time>2020-07-25T13:56:14Z</time>
      </trkpt>
      <trkpt lat="42.8832830" lon="0.0317290">
        <ele>981.2</ele>
        <time>2020-07-25T13:56:15Z</time>
      </trkpt>
      <trkpt lat="42.8833330" lon="0.0315680">
        <ele>980.2</ele>
        <time>2020-07-25T13:56:16Z</time>
      </trkpt>
      <trkpt lat="42.8833600" lon="0.0314050">
        <ele>979.2</ele>
        <time>2020-07-25T13:56:17Z</time>
      </trkpt>
      <trkpt lat="42.8833640" lon="0.0312420">
        <ele>978.4</ele>
        <time>2020-07-25T13:56:18Z</time>
      </trkpt>
      <trkpt lat="42.8833550" lon="0.0310740">
        <ele>977.8</ele>
        <time>2020-07-25T13:56:19Z</time>
      </trkpt>
      <trkpt lat="42.8833370" lon="0.0309050">
        <ele>977.2</ele>
        <time>2020-07-25T13:56:20Z</time>
      </trkpt>
      <trkpt lat="42.8833020" lon="0.0307340">
        <ele>976.8</ele>
        <time>2020-07-25T13:56:21Z</time>
      </trkpt>
      <trkpt lat="42.8832510" lon="0.0305680">
        <ele>976.2</ele>
        <time>2020-07-25T13:56:22Z</time>
      </trkpt>
      <trkpt lat="42.8831830" lon="0.0304180">
        <ele>975.4</ele>
        <time>2020-07-25T13:56:23Z</time>
      </trkpt>
      <trkpt lat="42.8831020" lon="0.0302790">
        <ele>974.4</ele>
        <time>2020-07-25T13:56:24Z</time>
      </trkpt>
      <trkpt lat="42.8830100" lon="0.0301530">
        <ele>973.0</ele>
        <time>2020-07-25T13:56:25Z</time>
      </trkpt>
      <trkpt lat="42.8829140" lon="0.0300290">
        <ele>972.0</ele>
        <time>2020-07-25T13:56:26Z</time>
      </trkpt>
      <trkpt lat="42.8827110" lon="0.0297940">
        <ele>970.0</ele>
        <time>2020-07-25T13:56:28Z</time>
      </trkpt>
      <trkpt lat="42.8826070" lon="0.0296760">
        <ele>969.0</ele>
        <time>2020-07-25T13:56:29Z</time>
      </trkpt>
      <trkpt lat="42.8823960" lon="0.0294510">
        <ele>966.8</ele>
        <time>2020-07-25T13:56:31Z</time>
      </trkpt>
      <trkpt lat="42.8822880" lon="0.0293410">
        <ele>965.4</ele>
        <time>2020-07-25T13:56:32Z</time>
      </trkpt>
      <trkpt lat="42.8821790" lon="0.0292280">
        <ele>963.6</ele>
        <time>2020-07-25T13:56:33Z</time>
      </trkpt>
      <trkpt lat="42.8820710" lon="0.0291160">
        <ele>961.6</ele>
        <time>2020-07-25T13:56:34Z</time>
      </trkpt>
      <trkpt lat="42.8819620" lon="0.0290030">
        <ele>960.0</ele>
        <time>2020-07-25T13:56:35Z</time>
      </trkpt>
      <trkpt lat="42.8818530" lon="0.0288900">
        <ele>959.0</ele>
        <time>2020-07-25T13:56:36Z</time>
      </trkpt>
      <trkpt lat="42.8816420" lon="0.0286540">
        <ele>957.2</ele>
        <time>2020-07-25T13:56:38Z</time>
      </trkpt>
      <trkpt lat="42.8814300" lon="0.0284210">
        <ele>955.6</ele>
        <time>2020-07-25T13:56:40Z</time>
      </trkpt>
      <trkpt lat="42.8813240" lon="0.0283040">
        <ele>954.4</ele>
        <time>2020-07-25T13:56:41Z</time>
      </trkpt>
      <trkpt lat="42.8812200" lon="0.0281860">
        <ele>953.4</ele>
        <time>2020-07-25T13:56:42Z</time>
      </trkpt>
      <trkpt lat="42.8810100" lon="0.0279550">
        <ele>951.4</ele>
        <time>2020-07-25T13:56:44Z</time>
      </trkpt>
      <trkpt lat="42.8809070" lon="0.0278380">
        <ele>950.2</ele>
        <time>2020-07-25T13:56:45Z</time>
      </trkpt>
      <trkpt lat="42.8808020" lon="0.0277190">
        <ele>948.8</ele>
        <time>2020-07-25T13:56:46Z</time>
      </trkpt>
      <trkpt lat="42.8806970" lon="0.0276010">
        <ele>947.8</ele>
        <time>2020-07-25T13:56:47Z</time>
      </trkpt>
      <trkpt lat="42.8804830" lon="0.0273620">
        <ele>945.8</ele>
        <time>2020-07-25T13:56:49Z</time>
      </trkpt>
      <trkpt lat="42.8803740" lon="0.0272400">
        <ele>944.8</ele>
        <time>2020-07-25T13:56:50Z</time>
      </trkpt>
      <trkpt lat="42.8802650" lon="0.0271170">
        <ele>943.6</ele>
        <time>2020-07-25T13:56:51Z</time>
      </trkpt>
      <trkpt lat="42.8801560" lon="0.0269930">
        <ele>942.8</ele>
        <time>2020-07-25T13:56:52Z</time>
      </trkpt>
      <trkpt lat="42.8800470" lon="0.0268700">
        <ele>942.0</ele>
        <time>2020-07-25T13:56:53Z</time>
      </trkpt>
      <trkpt lat="42.8799370" lon="0.0267460">
        <ele>941.4</ele>
        <time>2020-07-25T13:56:54Z</time>
      </trkpt>
      <trkpt lat="42.8798290" lon="0.0266230">
        <ele>940.4</ele>
        <time>2020-07-25T13:56:55Z</time>
      </trkpt>
      <trkpt lat="42.8797240" lon="0.0264960">
        <ele>939.2</ele>
        <time>2020-07-25T13:56:56Z</time>
      </trkpt>
      <trkpt lat="42.8796250" lon="0.0263600">
        <ele>938.2</ele>
        <time>2020-07-25T13:56:57Z</time>
      </trkpt>
      <trkpt lat="42.8795350" lon="0.0262180">
        <ele>937.4</ele>
        <time>2020-07-25T13:56:58Z</time>
      </trkpt>
      <trkpt lat="42.8794520" lon="0.0260690">
        <ele>936.6</ele>
        <time>2020-07-25T13:56:59Z</time>
      </trkpt>
      <trkpt lat="42.8793130" lon="0.0257520">
        <ele>935.2</ele>
        <time>2020-07-25T13:57:01Z</time>
      </trkpt>
      <trkpt lat="42.8792560" lon="0.0255840">
        <ele>934.2</ele>
        <time>2020-07-25T13:57:02Z</time>
      </trkpt>
      <trkpt lat="42.8792090" lon="0.0254070">
        <ele>932.4</ele>
        <time>2020-07-25T13:57:03Z</time>
      </trkpt>
      <trkpt lat="42.8791680" lon="0.0252250">
        <ele>931.2</ele>
        <time>2020-07-25T13:57:04Z</time>
      </trkpt>
      <trkpt lat="42.8791320" lon="0.0250440">
        <ele>930.2</ele>
        <time>2020-07-25T13:57:05Z</time>
      </trkpt>
      <trkpt lat="42.8790960" lon="0.0248600">
        <ele>929.2</ele>
        <time>2020-07-25T13:57:06Z</time>
      </trkpt>
      <trkpt lat="42.8790220" lon="0.0244950">
        <ele>927.4</ele>
        <time>2020-07-25T13:57:08Z</time>
      </trkpt>
      <trkpt lat="42.8789470" lon="0.0241310">
        <ele>926.0</ele>
        <time>2020-07-25T13:57:10Z</time>
      </trkpt>
      <trkpt lat="42.8789120" lon="0.0239480">
        <ele>924.8</ele>
        <time>2020-07-25T13:57:11Z</time>
      </trkpt>
      <trkpt lat="42.8788800" lon="0.0237640">
        <ele>923.0</ele>
        <time>2020-07-25T13:57:12Z</time>
      </trkpt>
      <trkpt lat="42.8788460" lon="0.0235780">
        <ele>921.2</ele>
        <time>2020-07-25T13:57:13Z</time>
      </trkpt>
      <trkpt lat="42.8788080" lon="0.0233930">
        <ele>920.2</ele>
        <time>2020-07-25T13:57:14Z</time>
      </trkpt>
      <trkpt lat="42.8787670" lon="0.0232100">
        <ele>919.4</ele>
        <time>2020-07-25T13:57:15Z</time>
      </trkpt>
      <trkpt lat="42.8787200" lon="0.0230320">
        <ele>918.8</ele>
        <time>2020-07-25T13:57:16Z</time>
      </trkpt>
      <trkpt lat="42.8786330" lon="0.0226740">
        <ele>917.2</ele>
        <time>2020-07-25T13:57:18Z</time>
      </trkpt>
      <trkpt lat="42.8785980" lon="0.0224950">
        <ele>916.0</ele>
        <time>2020-07-25T13:57:19Z</time>
      </trkpt>
      <trkpt lat="42.8785790" lon="0.0223080">
        <ele>914.8</ele>
        <time>2020-07-25T13:57:20Z</time>
      </trkpt>
      <trkpt lat="42.8785620" lon="0.0221280">
        <ele>913.8</ele>
        <time>2020-07-25T13:57:21Z</time>
      </trkpt>
      <trkpt lat="42.8785480" lon="0.0217660">
        <ele>911.8</ele>
        <time>2020-07-25T13:57:23Z</time>
      </trkpt>
      <trkpt lat="42.8785460" lon="0.0215850">
        <ele>911.0</ele>
        <time>2020-07-25T13:57:24Z</time>
      </trkpt>
      <trkpt lat="42.8785430" lon="0.0214050">
        <ele>909.6</ele>
        <time>2020-07-25T13:57:25Z</time>
      </trkpt>
      <trkpt lat="42.8785380" lon="0.0212300">
        <ele>908.0</ele>
        <time>2020-07-25T13:57:26Z</time>
      </trkpt>
      <trkpt lat="42.8785350" lon="0.0210540">
        <ele>906.4</ele>
        <time>2020-07-25T13:57:27Z</time>
      </trkpt>
      <trkpt lat="42.8785300" lon="0.0208770">
        <ele>905.4</ele>
        <time>2020-07-25T13:57:28Z</time>
      </trkpt>
      <trkpt lat="42.8785210" lon="0.0205330">
        <ele>903.4</ele>
        <time>2020-07-25T13:57:30Z</time>
      </trkpt>
      <trkpt lat="42.8785140" lon="0.0203590">
        <ele>901.8</ele>
        <time>2020-07-25T13:57:31Z</time>
      </trkpt>
      <trkpt lat="42.8785060" lon="0.0201830">
        <ele>900.6</ele>
        <time>2020-07-25T13:57:32Z</time>
      </trkpt>
      <trkpt lat="42.8784890" lon="0.0198350">
        <ele>899.2</ele>
        <time>2020-07-25T13:57:34Z</time>
      </trkpt>
      <trkpt lat="42.8784720" lon="0.0194870">
        <ele>898.4</ele>
        <time>2020-07-25T13:57:36Z</time>
      </trkpt>
      <trkpt lat="42.8784640" lon="0.0193110">
        <ele>898.0</ele>
        <time>2020-07-25T13:57:37Z</time>
      </trkpt>
      <trkpt lat="42.8784510" lon="0.0189560">
        <ele>896.8</ele>
        <time>2020-07-25T13:57:39Z</time>
      </trkpt>
      <trkpt lat="42.8784420" lon="0.0187740">
        <ele>896.0</ele>
        <time>2020-07-25T13:57:40Z</time>
      </trkpt>
      <trkpt lat="42.8784340" lon="0.0185950">
        <ele>895.2</ele>
        <time>2020-07-25T13:57:41Z</time>
      </trkpt>
      <trkpt lat="42.8784200" lon="0.0182390">
        <ele>893.6</ele>
        <time>2020-07-25T13:57:43Z</time>
      </trkpt>
      <trkpt lat="42.8784120" lon="0.0180620">
        <ele>892.6</ele>
        <time>2020-07-25T13:57:44Z</time>
      </trkpt>
      <trkpt lat="42.8784030" lon="0.0178820">
        <ele>891.0</ele>
        <time>2020-07-25T13:57:45Z</time>
      </trkpt>
      <trkpt lat="42.8783930" lon="0.0177000">
        <ele>889.2</ele>
        <time>2020-07-25T13:57:46Z</time>
      </trkpt>
      <trkpt lat="42.8783820" lon="0.0175170">
        <ele>887.6</ele>
        <time>2020-07-25T13:57:47Z</time>
      </trkpt>
      <trkpt lat="42.8783690" lon="0.0173310">
        <ele>886.2</ele>
        <time>2020-07-25T13:57:48Z</time>
      </trkpt>
      <trkpt lat="42.8783550" lon="0.0171440">
        <ele>884.8</ele>
        <time>2020-07-25T13:57:49Z</time>
      </trkpt>
      <trkpt lat="42.8783250" lon="0.0167670">
        <ele>883.0</ele>
        <time>2020-07-25T13:57:51Z</time>
      </trkpt>
      <trkpt lat="42.8783100" lon="0.0165740">
        <ele>882.0</ele>
        <time>2020-07-25T13:57:52Z</time>
      </trkpt>
      <trkpt lat="42.8782960" lon="0.0163800">
        <ele>881.0</ele>
        <time>2020-07-25T13:57:53Z</time>
      </trkpt>
      <trkpt lat="42.8782820" lon="0.0161830">
        <ele>879.8</ele>
        <time>2020-07-25T13:57:54Z</time>
      </trkpt>
      <trkpt lat="42.8782680" lon="0.0159880">
        <ele>879.0</ele>
        <time>2020-07-25T13:57:55Z</time>
      </trkpt>
      <trkpt lat="42.8782520" lon="0.0157900">
        <ele>878.4</ele>
        <time>2020-07-25T13:57:56Z</time>
      </trkpt>
      <trkpt lat="42.8782210" lon="0.0154000">
        <ele>876.8</ele>
        <time>2020-07-25T13:57:58Z</time>
      </trkpt>
      <trkpt lat="42.8781960" lon="0.0150090">
        <ele>875.2</ele>
        <time>2020-07-25T13:58:00Z</time>
      </trkpt>
      <trkpt lat="42.8781910" lon="0.0148170">
        <ele>874.0</ele>
        <time>2020-07-25T13:58:01Z</time>
      </trkpt>
      <trkpt lat="42.8781890" lon="0.0146230">
        <ele>872.6</ele>
        <time>2020-07-25T13:58:02Z</time>
      </trkpt>
      <trkpt lat="42.8781900" lon="0.0144290">
        <ele>871.2</ele>
        <time>2020-07-25T13:58:03Z</time>
      </trkpt>
      <trkpt lat="42.8781930" lon="0.0142360">
        <ele>870.0</ele>
        <time>2020-07-25T13:58:04Z</time>
      </trkpt>
      <trkpt lat="42.8781960" lon="0.0140420">
        <ele>868.8</ele>
        <time>2020-07-25T13:58:05Z</time>
      </trkpt>
      <trkpt lat="42.8781960" lon="0.0136550">
        <ele>867.0</ele>
        <time>2020-07-25T13:58:07Z</time>
      </trkpt>
      <trkpt lat="42.8781940" lon="0.0134620">
        <ele>866.4</ele>
        <time>2020-07-25T13:58:08Z</time>
      </trkpt>
      <trkpt lat="42.8781880" lon="0.0132700">
        <ele>865.8</ele>
        <time>2020-07-25T13:58:09Z</time>
      </trkpt>
      <trkpt lat="42.8781520" lon="0.0129090">
        <ele>864.0</ele>
        <time>2020-07-25T13:58:11Z</time>
      </trkpt>
      <trkpt lat="42.8781210" lon="0.0127390">
        <ele>862.8</ele>
        <time>2020-07-25T13:58:12Z</time>
      </trkpt>
      <trkpt lat="42.8780790" lon="0.0125750">
        <ele>861.4</ele>
        <time>2020-07-25T13:58:13Z</time>
      </trkpt>
      <trkpt lat="42.8780320" lon="0.0124140">
        <ele>860.0</ele>
        <time>2020-07-25T13:58:14Z</time>
      </trkpt>
      <trkpt lat="42.8779790" lon="0.0122510">
        <ele>858.8</ele>
        <time>2020-07-25T13:58:15Z</time>
      </trkpt>
      <trkpt lat="42.8779210" lon="0.0120880">
        <ele>857.8</ele>
        <time>2020-07-25T13:58:16Z</time>
      </trkpt>
      <trkpt lat="42.8778610" lon="0.0119250">
        <ele>857.2</ele>
        <time>2020-07-25T13:58:17Z</time>
      </trkpt>
      <trkpt lat="42.8777390" lon="0.0115970">
        <ele>855.6</ele>
        <time>2020-07-25T13:58:19Z</time>
      </trkpt>
      <trkpt lat="42.8776100" lon="0.0112570">
        <ele>854.0</ele>
        <time>2020-07-25T13:58:21Z</time>
      </trkpt>
      <trkpt lat="42.8774750" lon="0.0109190">
        <ele>852.8</ele>
        <time>2020-07-25T13:58:23Z</time>
      </trkpt>
      <trkpt lat="42.8773430" lon="0.0105850">
        <ele>851.4</ele>
        <time>2020-07-25T13:58:25Z</time>
      </trkpt>
      <trkpt lat="42.8772810" lon="0.0104160">
        <ele>850.2</ele>
        <time>2020-07-25T13:58:26Z</time>
      </trkpt>
      <trkpt lat="42.8771670" lon="0.0100750">
        <ele>848.0</ele>
        <time>2020-07-25T13:58:28Z</time>
      </trkpt>
      <trkpt lat="42.8771150" lon="0.0099080">
        <ele>846.4</ele>
        <time>2020-07-25T13:58:29Z</time>
      </trkpt>
      <trkpt lat="42.8770640" lon="0.0097470">
        <ele>845.2</ele>
        <time>2020-07-25T13:58:30Z</time>
      </trkpt>
      <trkpt lat="42.8770140" lon="0.0095930">
        <ele>844.2</ele>
        <time>2020-07-25T13:58:31Z</time>
      </trkpt>
      <trkpt lat="42.8769170" lon="0.0092860">
        <ele>842.2</ele>
        <time>2020-07-25T13:58:33Z</time>
      </trkpt>
      <trkpt lat="42.8768690" lon="0.0091370">
        <ele>840.8</ele>
        <time>2020-07-25T13:58:34Z</time>
      </trkpt>
      <trkpt lat="42.8768180" lon="0.0089900">
        <ele>839.6</ele>
        <time>2020-07-25T13:58:35Z</time>
      </trkpt>
      <trkpt lat="42.8767580" lon="0.0088520">
        <ele>838.6</ele>
        <time>2020-07-25T13:58:36Z</time>
      </trkpt>
      <trkpt lat="42.8766200" lon="0.0086050">
        <ele>837.2</ele>
        <time>2020-07-25T13:58:38Z</time>
      </trkpt>
      <trkpt lat="42.8765490" lon="0.0084900">
        <ele>837.0</ele>
        <time>2020-07-25T13:58:39Z</time>
      </trkpt>
      <trkpt lat="42.8764780" lon="0.0083800">
        <ele>836.6</ele>
        <time>2020-07-25T13:58:40Z</time>
      </trkpt>
      <trkpt lat="42.8763280" lon="0.0081800">
        <ele>835.4</ele>
        <time>2020-07-25T13:58:42Z</time>
      </trkpt>
      <trkpt lat="42.8762540" lon="0.0080810">
        <ele>834.2</ele>
        <time>2020-07-25T13:58:43Z</time>
      </trkpt>
      <trkpt lat="42.8761810" lon="0.0079810">
        <ele>833.0</ele>
        <time>2020-07-25T13:58:44Z</time>
      </trkpt>
      <trkpt lat="42.8761090" lon="0.0078830">
        <ele>832.4</ele>
        <time>2020-07-25T13:58:45Z</time>
      </trkpt>
      <trkpt lat="42.8760350" lon="0.0077880">
        <ele>831.6</ele>
        <time>2020-07-25T13:58:46Z</time>
      </trkpt>
      <trkpt lat="42.8759620" lon="0.0076890">
        <ele>830.4</ele>
        <time>2020-07-25T13:58:47Z</time>
      </trkpt>
      <trkpt lat="42.8758910" lon="0.0075890">
        <ele>829.2</ele>
        <time>2020-07-25T13:58:48Z</time>
      </trkpt>
      <trkpt lat="42.8757490" lon="0.0073870">
        <ele>828.0</ele>
        <time>2020-07-25T13:58:50Z</time>
      </trkpt>
      <trkpt lat="42.8756770" lon="0.0072850">
        <ele>827.4</ele>
        <time>2020-07-25T13:58:51Z</time>
      </trkpt>
      <trkpt lat="42.8756060" lon="0.0071850">
        <ele>826.4</ele>
        <time>2020-07-25T13:58:52Z</time>
      </trkpt>
      <trkpt lat="42.8754740" lon="0.0069930">
        <ele>824.8</ele>
        <time>2020-07-25T13:58:54Z</time>
      </trkpt>
      <trkpt lat="42.8754080" lon="0.0069000">
        <ele>824.2</ele>
        <time>2020-07-25T13:58:55Z</time>
      </trkpt>
      <trkpt lat="42.8753410" lon="0.0068060">
        <ele>823.4</ele>
        <time>2020-07-25T13:58:56Z</time>
      </trkpt>
      <trkpt lat="42.8752750" lon="0.0067060">
        <ele>823.0</ele>
        <time>2020-07-25T13:58:57Z</time>
      </trkpt>
      <trkpt lat="42.8751440" lon="0.0065000">
        <ele>822.0</ele>
        <time>2020-07-25T13:58:59Z</time>
      </trkpt>
      <trkpt lat="42.8750120" lon="0.0063020">
        <ele>821.0</ele>
        <time>2020-07-25T13:59:01Z</time>
      </trkpt>
      <trkpt lat="42.8748710" lon="0.0061070">
        <ele>820.0</ele>
        <time>2020-07-25T13:59:03Z</time>
      </trkpt>
      <trkpt lat="42.8748030" lon="0.0060070">
        <ele>819.4</ele>
        <time>2020-07-25T13:59:04Z</time>
      </trkpt>
      <trkpt lat="42.8747340" lon="0.0059070">
        <ele>819.0</ele>
        <time>2020-07-25T13:59:05Z</time>
      </trkpt>
      <trkpt lat="42.8745350" lon="0.0056020">
        <ele>817.8</ele>
        <time>2020-07-25T13:59:08Z</time>
      </trkpt>
      <trkpt lat="42.8744140" lon="0.0054120">
        <ele>816.8</ele>
        <time>2020-07-25T13:59:10Z</time>
      </trkpt>
      <trkpt lat="42.8743580" lon="0.0053260">
        <ele>816.4</ele>
        <time>2020-07-25T13:59:11Z</time>
      </trkpt>
      <trkpt lat="42.8742590" lon="0.0051680">
        <ele>814.4</ele>
        <time>2020-07-25T13:59:13Z</time>
      </trkpt>
      <trkpt lat="42.8742130" lon="0.0050890">
        <ele>813.2</ele>
        <time>2020-07-25T13:59:14Z</time>
      </trkpt>
      <trkpt lat="42.8741720" lon="0.0050050">
        <ele>812.0</ele>
        <time>2020-07-25T13:59:15Z</time>
      </trkpt>
      <trkpt lat="42.8741330" lon="0.0049140">
        <ele>810.8</ele>
        <time>2020-07-25T13:59:16Z</time>
      </trkpt>
      <trkpt lat="42.8740670" lon="0.0047180">
        <ele>809.2</ele>
        <time>2020-07-25T13:59:18Z</time>
      </trkpt>
      <trkpt lat="42.8739770" lon="0.0043920">
        <ele>808.2</ele>
        <time>2020-07-25T13:59:21Z</time>
      </trkpt>
      <trkpt lat="42.8739460" lon="0.0042770">
        <ele>808.2</ele>
        <time>2020-07-25T13:59:22Z</time>
      </trkpt>
      <trkpt lat="42.8737590" lon="0.0035630">
        <ele>807.2</ele>
        <time>2020-07-25T13:59:28Z</time>
      </trkpt>
      <trkpt lat="42.8736940" lon="0.0033110">
        <ele>805.8</ele>
        <time>2020-07-25T13:59:30Z</time>
      </trkpt>
      <trkpt lat="42.8736610" lon="0.0031830">
        <ele>805.2</ele>
        <time>2020-07-25T13:59:31Z</time>
      </trkpt>
      <trkpt lat="42.8736310" lon="0.0030550">
        <ele>804.4</ele>
        <time>2020-07-25T13:59:32Z</time>
      </trkpt>
      <trkpt lat="42.8735590" lon="0.0028010">
        <ele>803.4</ele>
        <time>2020-07-25T13:59:34Z</time>
      </trkpt>
      <trkpt lat="42.8734960" lon="0.0025440">
        <ele>803.0</ele>
        <time>2020-07-25T13:59:36Z</time>
      </trkpt>
      <trkpt lat="42.8732990" lon="0.0018370">
        <ele>802.0</ele>
        <time>2020-07-25T13:59:42Z</time>
      </trkpt>
      <trkpt lat="42.8732380" lon="0.0016200">
        <ele>800.8</ele>
        <time>2020-07-25T13:59:44Z</time>
      </trkpt>
      <trkpt lat="42.8731840" lon="0.0014150">
        <ele>799.8</ele>
        <time>2020-07-25T13:59:46Z</time>
      </trkpt>
      <trkpt lat="42.8731380" lon="0.0012340">
        <ele>799.0</ele>
        <time>2020-07-25T13:59:48Z</time>
      </trkpt>
      <trkpt lat="42.8731120" lon="0.0011440">
        <ele>798.4</ele>
        <time>2020-07-25T13:59:49Z</time>
      </trkpt>
      <trkpt lat="42.8730110" lon="0.0007200">
        <ele>797.6</ele>
        <time>2020-07-25T13:59:54Z</time>
      </trkpt>
      <trkpt lat="42.8729880" lon="0.0006350">
        <ele>797.6</ele>
        <time>2020-07-25T13:59:55Z</time>
      </trkpt>
      <trkpt lat="42.8729650" lon="0.0005470">
        <ele>797.6</ele>
        <time>2020-07-25T13:59:56Z</time>
      </trkpt>
      <trkpt lat="42.8729400" lon="0.0004620">
        <ele>797.6</ele>
        <time>2020-07-25T13:59:57Z</time>
      </trkpt>
      <trkpt lat="42.8728940" lon="0.0002840">
        <ele>797.2</ele>
        <time>2020-07-25T13:59:59Z</time>
      </trkpt>
      <trkpt lat="42.8728400" lon="0.0000930">
        <ele>797.2</ele>
        <time>2020-07-25T14:00:01Z</time>
      </trkpt>
      <trkpt lat="42.8728090" lon="-0.0000020">
        <ele>797.2</ele>
        <time>2020-07-25T14:00:02Z</time>
      </trkpt>
      <trkpt lat="42.8727200" lon="-0.0002950">
        <ele>797.8</ele>
        <time>2020-07-25T14:00:05Z</time>
      </trkpt>
      <trkpt lat="42.8726650" lon="-0.0005000">
        <ele>797.4</ele>
        <time>2020-07-25T14:00:07Z</time>
      </trkpt>
      <trkpt lat="42.8726090" lon="-0.0007120">
        <ele>795.0</ele>
        <time>2020-07-25T14:00:09Z</time>
      </trkpt>
      <trkpt lat="42.8725460" lon="-0.0009300">
        <ele>794.0</ele>
        <time>2020-07-25T14:00:11Z</time>
      </trkpt>
      <trkpt lat="42.8724830" lon="-0.0011530">
        <ele>793.0</ele>
        <time>2020-07-25T14:00:13Z</time>
      </trkpt>
      <trkpt lat="42.8724510" lon="-0.0012650">
        <ele>792.8</ele>
        <time>2020-07-25T14:00:14Z</time>
      </trkpt>
      <trkpt lat="42.8723310" lon="-0.0016920">
        <ele>792.0</ele>
        <time>2020-07-25T14:00:18Z</time>
      </trkpt>
      <trkpt lat="42.8723240" lon="-0.0017780">
        <ele>791.8</ele>
        <time>2020-07-25T14:00:19Z</time>
      </trkpt>
      <trkpt lat="42.8723680" lon="-0.0019420">
        <ele>790.0</ele>
        <time>2020-07-25T14:00:21Z</time>
      </trkpt>
      <trkpt lat="42.8724590" lon="-0.0021070">
        <ele>788.2</ele>
        <time>2020-07-25T14:00:23Z</time>
      </trkpt>
      <trkpt lat="42.8725690" lon="-0.0022860">
        <ele>786.6</ele>
        <time>2020-07-25T14:00:25Z</time>
      </trkpt>
      <trkpt lat="42.8728190" lon="-0.0027140">
        <ele>785.6</ele>
        <time>2020-07-25T14:00:29Z</time>
      </trkpt>
      <trkpt lat="42.8728800" lon="-0.0028230">
        <ele>785.2</ele>
        <time>2020-07-25T14:00:30Z</time>
      </trkpt>
      <trkpt lat="42.8729370" lon="-0.0029230">
        <ele>784.2</ele>
        <time>2020-07-25T14:00:31Z</time>
      </trkpt>
      <trkpt lat="42.8729850" lon="-0.0030070">
        <ele>782.6</ele>
        <time>2020-07-25T14:00:32Z</time>
      </trkpt>
      <trkpt lat="42.8730220" lon="-0.0030730">
        <ele>781.2</ele>
        <time>2020-07-25T14:00:33Z</time>
      </trkpt>
      <trkpt lat="42.8730740" lon="-0.0031350">
        <ele>779.2</ele>
        <time>2020-07-25T14:00:35Z</time>
      </trkpt>
      <trkpt lat="42.8730950" lon="-0.0031480">
        <ele>778.4</ele>
        <time>2020-07-25T14:00:36Z</time>
      </trkpt>
      <trkpt lat="42.8731090" lon="-0.0031600">
        <ele>777.8</ele>
        <time>2020-07-25T14:00:37Z</time>
      </trkpt>
      <trkpt lat="42.8731190" lon="-0.0031770">
        <ele>777.0</ele>
        <time>2020-07-25T14:00:39Z</time>
      </trkpt>
      <trkpt lat="42.8732090" lon="-0.0032820">
        <ele>775.2</ele>
        <time>2020-07-25T14:02:37Z</time>
      </trkpt>
      <trkpt lat="42.8732370" lon="-0.0033000">
        <ele>775.2</ele>
        <time>2020-07-25T14:02:38Z</time>
      </trkpt>
      <trkpt lat="42.8733740" lon="-0.0033270">
        <ele>775.2</ele>
        <time>2020-07-25T14:02:42Z</time>
      </trkpt>
      <trkpt lat="42.8734510" lon="-0.0033280">
        <ele>774.6</ele>
        <time>2020-07-25T14:02:44Z</time>
      </trkpt>
      <trkpt lat="42.8734900" lon="-0.0033230">
        <ele>774.2</ele>
        <time>2020-07-25T14:02:45Z</time>
      </trkpt>
      <trkpt lat="42.8736240" lon="-0.0032970">
        <ele>773.6</ele>
        <time>2020-07-25T14:02:48Z</time>
      </trkpt>
      <trkpt lat="42.8736700" lon="-0.0032890">
        <ele>774.0</ele>
        <time>2020-07-25T14:02:49Z</time>
      </trkpt>
      <trkpt lat="42.8738110" lon="-0.0032530">
        <ele>775.2</ele>
        <time>2020-07-25T14:02:52Z</time>
      </trkpt>
      <trkpt lat="42.8739460" lon="-0.0032210">
        <ele>775.8</ele>
        <time>2020-07-25T14:02:55Z</time>
      </trkpt>
      <trkpt lat="42.8740330" lon="-0.0032080">
        <ele>775.4</ele>
        <time>2020-07-25T14:02:57Z</time>
      </trkpt>
      <trkpt lat="42.8741680" lon="-0.0032080">
        <ele>774.8</ele>
        <time>2020-07-25T14:03:00Z</time>
      </trkpt>
      <trkpt lat="42.8742160" lon="-0.0032230">
        <ele>774.8</ele>
        <time>2020-07-25T14:03:01Z</time>
      </trkpt>
      <trkpt lat="42.8742610" lon="-0.0032480">
        <ele>774.8</ele>
        <time>2020-07-25T14:03:02Z</time>
      </trkpt>
      <trkpt lat="42.8743110" lon="-0.0032690">
        <ele>774.8</ele>
        <time>2020-07-25T14:03:03Z</time>
      </trkpt>
      <trkpt lat="42.8743610" lon="-0.0032950">
        <ele>774.6</ele>
        <time>2020-07-25T14:03:04Z</time>
      </trkpt>
      <trkpt lat="42.8744530" lon="-0.0033690">
        <ele>774.6</ele>
        <time>2020-07-25T14:03:06Z</time>
      </trkpt>
      <trkpt lat="42.8745400" lon="-0.0034710">
        <ele>774.0</ele>
        <time>2020-07-25T14:03:08Z</time>
      </trkpt>
      <trkpt lat="42.8745800" lon="-0.0035270">
        <ele>773.4</ele>
        <time>2020-07-25T14:03:09Z</time>
      </trkpt>
      <trkpt lat="42.8746200" lon="-0.0035780">
        <ele>772.8</ele>
        <time>2020-07-25T14:03:10Z</time>
      </trkpt>
      <trkpt lat="42.8747360" lon="-0.0037350">
        <ele>771.8</ele>
        <time>2020-07-25T14:03:13Z</time>
      </trkpt>
      <trkpt lat="42.8747780" lon="-0.0037920">
        <ele>771.8</ele>
        <time>2020-07-25T14:03:14Z</time>
      </trkpt>
      <trkpt lat="42.8749040" lon="-0.0039710">
        <ele>771.0</ele>
        <time>2020-07-25T14:03:17Z</time>
      </trkpt>
      <trkpt lat="42.8749450" lon="-0.0040300">
        <ele>770.6</ele>
        <time>2020-07-25T14:03:18Z</time>
      </trkpt>
      <trkpt lat="42.8750230" lon="-0.0041460">
        <ele>769.6</ele>
        <time>2020-07-25T14:03:20Z</time>
      </trkpt>
      <trkpt lat="42.8750610" lon="-0.0042030">
        <ele>769.2</ele>
        <time>2020-07-25T14:03:21Z</time>
      </trkpt>
      <trkpt lat="42.8751810" lon="-0.0043840">
        <ele>767.8</ele>
        <time>2020-07-25T14:03:24Z</time>
      </trkpt>
      <trkpt lat="42.8753200" lon="-0.0045720">
        <ele>766.4</ele>
        <time>2020-07-25T14:03:27Z</time>
      </trkpt>
      <trkpt lat="42.8755130" lon="-0.0048190">
        <ele>765.4</ele>
        <time>2020-07-25T14:03:31Z</time>
      </trkpt>
      <trkpt lat="42.8756590" lon="-0.0050130">
        <ele>764.6</ele>
        <time>2020-07-25T14:03:34Z</time>
      </trkpt>
      <trkpt lat="42.8757610" lon="-0.0051570">
        <ele>764.4</ele>
        <time>2020-07-25T14:03:36Z</time>
      </trkpt>
      <trkpt lat="42.8760860" lon="-0.0056130">
        <ele>763.2</ele>
        <time>2020-07-25T14:03:42Z</time>
      </trkpt>
      <trkpt lat="42.8761430" lon="-0.0056930">
        <ele>761.8</ele>
        <time>2020-07-25T14:03:43Z</time>
      </trkpt>
      <trkpt lat="42.8762610" lon="-0.0058560">
        <ele>760.4</ele>
        <time>2020-07-25T14:03:45Z</time>
      </trkpt>
      <trkpt lat="42.8763830" lon="-0.0060250">
        <ele>759.2</ele>
        <time>2020-07-25T14:03:47Z</time>
      </trkpt>
      <trkpt lat="42.8765060" lon="-0.0061970">
        <ele>758.0</ele>
        <time>2020-07-25T14:03:49Z</time>
      </trkpt>
      <trkpt lat="42.8766810" lon="-0.0064580">
        <ele>756.6</ele>
        <time>2020-07-25T14:03:52Z</time>
      </trkpt>
      <trkpt lat="42.8769700" lon="-0.0068730">
        <ele>755.8</ele>
        <time>2020-07-25T14:03:57Z</time>
      </trkpt>
      <trkpt lat="42.8770280" lon="-0.0069570">
        <ele>755.4</ele>
        <time>2020-07-25T14:03:58Z</time>
      </trkpt>
      <trkpt lat="42.8770850" lon="-0.0070440">
        <ele>755.0</ele>
        <time>2020-07-25T14:03:59Z</time>
      </trkpt>
      <trkpt lat="42.8772630" lon="-0.0073030">
        <ele>754.2</ele>
        <time>2020-07-25T14:04:02Z</time>
      </trkpt>
      <trkpt lat="42.8773830" lon="-0.0074770">
        <ele>753.2</ele>
        <time>2020-07-25T14:04:04Z</time>
      </trkpt>
      <trkpt lat="42.8774430" lon="-0.0075680">
        <ele>752.6</ele>
        <time>2020-07-25T14:04:05Z</time>
      </trkpt>
      <trkpt lat="42.8775630" lon="-0.0077430">
        <ele>751.8</ele>
        <time>2020-07-25T14:04:07Z</time>
      </trkpt>
      <trkpt lat="42.8776220" lon="-0.0078300">
        <ele>751.2</ele>
        <time>2020-07-25T14:04:08Z</time>
      </trkpt>
      <trkpt lat="42.8777380" lon="-0.0080020">
        <ele>750.0</ele>
        <time>2020-07-25T14:04:10Z</time>
      </trkpt>
      <trkpt lat="42.8778500" lon="-0.0081590">
        <ele>749.6</ele>
        <time>2020-07-25T14:04:12Z</time>
      </trkpt>
      <trkpt lat="42.8779610" lon="-0.0083170">
        <ele>749.0</ele>
        <time>2020-07-25T14:04:14Z</time>
      </trkpt>
      <trkpt lat="42.8780720" lon="-0.0084830">
        <ele>749.2</ele>
        <time>2020-07-25T14:04:16Z</time>
      </trkpt>
      <trkpt lat="42.8782350" lon="-0.0087290">
        <ele>747.8</ele>
        <time>2020-07-25T14:04:19Z</time>
      </trkpt>
      <trkpt lat="42.8783470" lon="-0.0088860">
        <ele>747.0</ele>
        <time>2020-07-25T14:04:21Z</time>
      </trkpt>
      <trkpt lat="42.8784020" lon="-0.0089670">
        <ele>746.8</ele>
        <time>2020-07-25T14:04:22Z</time>
      </trkpt>
      <trkpt lat="42.8784560" lon="-0.0090480">
        <ele>746.6</ele>
        <time>2020-07-25T14:04:23Z</time>
      </trkpt>
      <trkpt lat="42.8786140" lon="-0.0092910">
        <ele>746.0</ele>
        <time>2020-07-25T14:04:26Z</time>
      </trkpt>
      <trkpt lat="42.8786680" lon="-0.0093710">
        <ele>746.0</ele>
        <time>2020-07-25T14:04:27Z</time>
      </trkpt>
      <trkpt lat="42.8787800" lon="-0.0095260">
        <ele>745.8</ele>
        <time>2020-07-25T14:04:29Z</time>
      </trkpt>
      <trkpt lat="42.8788370" lon="-0.0096030">
        <ele>745.6</ele>
        <time>2020-07-25T14:04:30Z</time>
      </trkpt>
      <trkpt lat="42.8789490" lon="-0.0097600">
        <ele>744.4</ele>
        <time>2020-07-25T14:04:32Z</time>
      </trkpt>
      <trkpt lat="42.8790000" lon="-0.0098380">
        <ele>743.6</ele>
        <time>2020-07-25T14:04:33Z</time>
      </trkpt>
      <trkpt lat="42.8790520" lon="-0.0099160">
        <ele>743.0</ele>
        <time>2020-07-25T14:04:34Z</time>
      </trkpt>
      <trkpt lat="42.8792560" lon="-0.0102110">
        <ele>741.8</ele>
        <time>2020-07-25T14:04:38Z</time>
      </trkpt>
      <trkpt lat="42.8795560" lon="-0.0106520">
        <ele>741.6</ele>
        <time>2020-07-25T14:04:44Z</time>
      </trkpt>
      <trkpt lat="42.8797090" lon="-0.0108760">
        <ele>741.0</ele>
        <time>2020-07-25T14:04:47Z</time>
      </trkpt>
      <trkpt lat="42.8798140" lon="-0.0110280">
        <ele>741.0</ele>
        <time>2020-07-25T14:04:49Z</time>
      </trkpt>
      <trkpt lat="42.8798660" lon="-0.0111080">
        <ele>740.8</ele>
        <time>2020-07-25T14:04:50Z</time>
      </trkpt>
      <trkpt lat="42.8800190" lon="-0.0113440">
        <ele>741.2</ele>
        <time>2020-07-25T14:04:53Z</time>
      </trkpt>
      <trkpt lat="42.8801790" lon="-0.0115630">
        <ele>740.4</ele>
        <time>2020-07-25T14:04:56Z</time>
      </trkpt>
      <trkpt lat="42.8802390" lon="-0.0116270">
        <ele>739.4</ele>
        <time>2020-07-25T14:04:57Z</time>
      </trkpt>
      <trkpt lat="42.8803690" lon="-0.0117460">
        <ele>738.0</ele>
        <time>2020-07-25T14:04:59Z</time>
      </trkpt>
      <trkpt lat="42.8805130" lon="-0.0118570">
        <ele>737.0</ele>
        <time>2020-07-25T14:05:01Z</time>
      </trkpt>
      <trkpt lat="42.8806650" lon="-0.0119720">
        <ele>736.2</ele>
        <time>2020-07-25T14:05:03Z</time>
      </trkpt>
      <trkpt lat="42.8807450" lon="-0.0120300">
        <ele>735.8</ele>
        <time>2020-07-25T14:05:04Z</time>
      </trkpt>
      <trkpt lat="42.8808210" lon="-0.0120880">
        <ele>735.6</ele>
        <time>2020-07-25T14:05:05Z</time>
      </trkpt>
      <trkpt lat="42.8809030" lon="-0.0121470">
        <ele>734.8</ele>
        <time>2020-07-25T14:05:06Z</time>
      </trkpt>
      <trkpt lat="42.8810720" lon="-0.0122620">
        <ele>733.6</ele>
        <time>2020-07-25T14:05:08Z</time>
      </trkpt>
      <trkpt lat="42.8814060" lon="-0.0125030">
        <ele>732.2</ele>
        <time>2020-07-25T14:05:12Z</time>
      </trkpt>
      <trkpt lat="42.8815740" lon="-0.0126340">
        <ele>731.4</ele>
        <time>2020-07-25T14:05:14Z</time>
      </trkpt>
      <trkpt lat="42.8816560" lon="-0.0126980">
        <ele>731.2</ele>
        <time>2020-07-25T14:05:15Z</time>
      </trkpt>
      <trkpt lat="42.8817390" lon="-0.0127600">
        <ele>731.0</ele>
        <time>2020-07-25T14:05:16Z</time>
      </trkpt>
      <trkpt lat="42.8818990" lon="-0.0128830">
        <ele>729.8</ele>
        <time>2020-07-25T14:05:18Z</time>
      </trkpt>
      <trkpt lat="42.8819750" lon="-0.0129460">
        <ele>729.0</ele>
        <time>2020-07-25T14:05:19Z</time>
      </trkpt>
      <trkpt lat="42.8820490" lon="-0.0130090">
        <ele>728.6</ele>
        <time>2020-07-25T14:05:20Z</time>
      </trkpt>
      <trkpt lat="42.8821990" lon="-0.0131300">
        <ele>727.2</ele>
        <time>2020-07-25T14:05:22Z</time>
      </trkpt>
      <trkpt lat="42.8822750" lon="-0.0131860">
        <ele>726.6</ele>
        <time>2020-07-25T14:05:23Z</time>
      </trkpt>
      <trkpt lat="42.8823510" lon="-0.0132410">
        <ele>726.2</ele>
        <time>2020-07-25T14:05:24Z</time>
      </trkpt>
      <trkpt lat="42.8825740" lon="-0.0134210">
        <ele>725.6</ele>
        <time>2020-07-25T14:05:27Z</time>
      </trkpt>
      <trkpt lat="42.8826490" lon="-0.0134800">
        <ele>725.4</ele>
        <time>2020-07-25T14:05:28Z</time>
      </trkpt>
      <trkpt lat="42.8828770" lon="-0.0136590">
        <ele>725.4</ele>
        <time>2020-07-25T14:05:31Z</time>
      </trkpt>
      <trkpt lat="42.8831840" lon="-0.0139000">
        <ele>727.2</ele>
        <time>2020-07-25T14:05:35Z</time>
      </trkpt>
      <trkpt lat="42.8832620" lon="-0.0139580">
        <ele>727.2</ele>
        <time>2020-07-25T14:05:36Z</time>
      </trkpt>
      <trkpt lat="42.8833390" lon="-0.0140180">
        <ele>725.8</ele>
        <time>2020-07-25T14:05:37Z</time>
      </trkpt>
      <trkpt lat="42.8834180" lon="-0.0140770">
        <ele>724.2</ele>
        <time>2020-07-25T14:05:38Z</time>
      </trkpt>
      <trkpt lat="42.8834980" lon="-0.0141350">
        <ele>723.2</ele>
        <time>2020-07-25T14:05:39Z</time>
      </trkpt>
      <trkpt lat="42.8835810" lon="-0.0141920">
        <ele>722.6</ele>
        <time>2020-07-25T14:05:40Z</time>
      </trkpt>
      <trkpt lat="42.8837400" lon="-0.0143130">
        <ele>721.2</ele>
        <time>2020-07-25T14:05:42Z</time>
      </trkpt>
      <trkpt lat="42.8839110" lon="-0.0144340">
        <ele>720.0</ele>
        <time>2020-07-25T14:05:44Z</time>
      </trkpt>
      <trkpt lat="42.8841700" lon="-0.0146270">
        <ele>719.4</ele>
        <time>2020-07-25T14:05:47Z</time>
      </trkpt>
      <trkpt lat="42.8844280" lon="-0.0148000">
        <ele>719.0</ele>
        <time>2020-07-25T14:05:50Z</time>
      </trkpt>
      <trkpt lat="42.8847580" lon="-0.0150090">
        <ele>718.6</ele>
        <time>2020-07-25T14:05:54Z</time>
      </trkpt>
      <trkpt lat="42.8852230" lon="-0.0153560">
        <ele>718.0</ele>
        <time>2020-07-25T14:06:00Z</time>
      </trkpt>
      <trkpt lat="42.8852890" lon="-0.0154250">
        <ele>718.0</ele>
        <time>2020-07-25T14:06:01Z</time>
      </trkpt>
      <trkpt lat="42.8853460" lon="-0.0155020">
        <ele>718.0</ele>
        <time>2020-07-25T14:06:02Z</time>
      </trkpt>
      <trkpt lat="42.8854240" lon="-0.0156840">
        <ele>718.6</ele>
        <time>2020-07-25T14:06:04Z</time>
      </trkpt>
      <trkpt lat="42.8854640" lon="-0.0158990">
        <ele>719.4</ele>
        <time>2020-07-25T14:06:06Z</time>
      </trkpt>
      <trkpt lat="42.8854880" lon="-0.0161180">
        <ele>719.8</ele>
        <time>2020-07-25T14:06:08Z</time>
      </trkpt>
      <trkpt lat="42.8855270" lon="-0.0163390">
        <ele>719.8</ele>
        <time>2020-07-25T14:06:10Z</time>
      </trkpt>
      <trkpt lat="42.8855670" lon="-0.0164320">
        <ele>719.8</ele>
        <time>2020-07-25T14:06:11Z</time>
      </trkpt>
      <trkpt lat="42.8856130" lon="-0.0165170">
        <ele>719.8</ele>
        <time>2020-07-25T14:06:12Z</time>
      </trkpt>
      <trkpt lat="42.8858360" lon="-0.0167750">
        <ele>719.6</ele>
        <time>2020-07-25T14:06:16Z</time>
      </trkpt>
      <trkpt lat="42.8862010" lon="-0.0171030">
        <ele>719.8</ele>
        <time>2020-07-25T14:06:22Z</time>
      </trkpt>
      <trkpt lat="42.8863360" lon="-0.0172240">
        <ele>718.4</ele>
        <time>2020-07-25T14:06:24Z</time>
      </trkpt>
      <trkpt lat="42.8864070" lon="-0.0172840">
        <ele>717.6</ele>
        <time>2020-07-25T14:06:25Z</time>
      </trkpt>
      <trkpt lat="42.8865480" lon="-0.0174090">
        <ele>716.0</ele>
        <time>2020-07-25T14:06:27Z</time>
      </trkpt>
      <trkpt lat="42.8866970" lon="-0.0175290">
        <ele>714.8</ele>
        <time>2020-07-25T14:06:29Z</time>
      </trkpt>
      <trkpt lat="42.8867690" lon="-0.0175890">
        <ele>715.0</ele>
        <time>2020-07-25T14:06:30Z</time>
      </trkpt>
      <trkpt lat="42.8872120" lon="-0.0179720">
        <ele>714.6</ele>
        <time>2020-07-25T14:06:36Z</time>
      </trkpt>
      <trkpt lat="42.8873590" lon="-0.0181000">
        <ele>714.2</ele>
        <time>2020-07-25T14:06:38Z</time>
      </trkpt>
      <trkpt lat="42.8874330" lon="-0.0181650">
        <ele>713.8</ele>
        <time>2020-07-25T14:06:39Z</time>
      </trkpt>
      <trkpt lat="42.8878750" lon="-0.0185490">
        <ele>713.2</ele>
        <time>2020-07-25T14:06:45Z</time>
      </trkpt>
      <trkpt lat="42.8880240" lon="-0.0186790">
        <ele>712.6</ele>
        <time>2020-07-25T14:06:47Z</time>
      </trkpt>
      <trkpt lat="42.8883210" lon="-0.0189880">
        <ele>711.4</ele>
        <time>2020-07-25T14:06:51Z</time>
      </trkpt>
      <trkpt lat="42.8883890" lon="-0.0190750">
        <ele>711.0</ele>
        <time>2020-07-25T14:06:52Z</time>
      </trkpt>
      <trkpt lat="42.8885040" lon="-0.0192450">
        <ele>710.0</ele>
        <time>2020-07-25T14:06:54Z</time>
      </trkpt>
      <trkpt lat="42.8885990" lon="-0.0194390">
        <ele>709.8</ele>
        <time>2020-07-25T14:06:56Z</time>
      </trkpt>
      <trkpt lat="42.8886860" lon="-0.0196440">
        <ele>709.4</ele>
        <time>2020-07-25T14:06:58Z</time>
      </trkpt>
      <trkpt lat="42.8889160" lon="-0.0201060">
        <ele>709.4</ele>
        <time>2020-07-25T14:07:03Z</time>
      </trkpt>
      <trkpt lat="42.8892580" lon="-0.0206260">
        <ele>709.2</ele>
        <time>2020-07-25T14:07:09Z</time>
      </trkpt>
      <trkpt lat="42.8893310" lon="-0.0207010">
        <ele>709.2</ele>
        <time>2020-07-25T14:07:10Z</time>
      </trkpt>
      <trkpt lat="42.8897680" lon="-0.0211220">
        <ele>708.6</ele>
        <time>2020-07-25T14:07:16Z</time>
      </trkpt>
      <trkpt lat="42.8900050" lon="-0.0214400">
        <ele>707.4</ele>
        <time>2020-07-25T14:07:20Z</time>
      </trkpt>
      <trkpt lat="42.8900560" lon="-0.0215170">
        <ele>707.0</ele>
        <time>2020-07-25T14:07:21Z</time>
      </trkpt>
      <trkpt lat="42.8902450" lon="-0.0218750">
        <ele>706.2</ele>
        <time>2020-07-25T14:07:25Z</time>
      </trkpt>
      <trkpt lat="42.8903320" lon="-0.0220490">
        <ele>706.2</ele>
        <time>2020-07-25T14:07:27Z</time>
      </trkpt>
      <trkpt lat="42.8906040" lon="-0.0226050">
        <ele>706.4</ele>
        <time>2020-07-25T14:07:33Z</time>
      </trkpt>
      <trkpt lat="42.8907000" lon="-0.0228050">
        <ele>706.2</ele>
        <time>2020-07-25T14:07:35Z</time>
      </trkpt>
      <trkpt lat="42.8909790" lon="-0.0232830">
        <ele>705.2</ele>
        <time>2020-07-25T14:07:40Z</time>
      </trkpt>
      <trkpt lat="42.8910430" lon="-0.0233710">
        <ele>704.8</ele>
        <time>2020-07-25T14:07:41Z</time>
      </trkpt>
      <trkpt lat="42.8911770" lon="-0.0235350">
        <ele>703.8</ele>
        <time>2020-07-25T14:07:43Z</time>
      </trkpt>
      <trkpt lat="42.8913990" lon="-0.0237470">
        <ele>703.0</ele>
        <time>2020-07-25T14:07:46Z</time>
      </trkpt>
      <trkpt lat="42.8918990" lon="-0.0240800">
        <ele>703.8</ele>
        <time>2020-07-25T14:07:52Z</time>
      </trkpt>
      <trkpt lat="42.8920680" lon="-0.0241960">
        <ele>703.8</ele>
        <time>2020-07-25T14:07:54Z</time>
      </trkpt>
      <trkpt lat="42.8925820" lon="-0.0245280">
        <ele>703.4</ele>
        <time>2020-07-25T14:08:00Z</time>
      </trkpt>
      <trkpt lat="42.8928450" lon="-0.0246870">
        <ele>702.6</ele>
        <time>2020-07-25T14:08:03Z</time>
      </trkpt>
      <trkpt lat="42.8933600" lon="-0.0249920">
        <ele>701.6</ele>
        <time>2020-07-25T14:08:09Z</time>
      </trkpt>
      <trkpt lat="42.8934450" lon="-0.0250440">
        <ele>701.4</ele>
        <time>2020-07-25T14:08:10Z</time>
      </trkpt>
      <trkpt lat="42.8939600" lon="-0.0253580">
        <ele>701.0</ele>
        <time>2020-07-25T14:08:16Z</time>
      </trkpt>
      <trkpt lat="42.8940450" lon="-0.0254120">
        <ele>700.8</ele>
        <time>2020-07-25T14:08:17Z</time>
      </trkpt>
      <trkpt lat="42.8942170" lon="-0.0255150">
        <ele>700.4</ele>
        <time>2020-07-25T14:08:19Z</time>
      </trkpt>
      <trkpt lat="42.8947410" lon="-0.0258290">
        <ele>699.2</ele>
        <time>2020-07-25T14:08:25Z</time>
      </trkpt>
      <trkpt lat="42.8948270" lon="-0.0258810">
        <ele>698.8</ele>
        <time>2020-07-25T14:08:26Z</time>
      </trkpt>
      <trkpt lat="42.8951560" lon="-0.0260860">
        <ele>698.0</ele>
        <time>2020-07-25T14:08:30Z</time>
      </trkpt>
      <trkpt lat="42.8954820" lon="-0.0262880">
        <ele>697.8</ele>
        <time>2020-07-25T14:08:34Z</time>
      </trkpt>
      <trkpt lat="42.8958100" lon="-0.0264900">
        <ele>697.4</ele>
        <time>2020-07-25T14:08:38Z</time>
      </trkpt>
      <trkpt lat="42.8959720" lon="-0.0265920">
        <ele>697.0</ele>
        <time>2020-07-25T14:08:40Z</time>
      </trkpt>
      <trkpt lat="42.8962860" lon="-0.0267820">
        <ele>696.4</ele>
        <time>2020-07-25T14:08:44Z</time>
      </trkpt>
      <trkpt lat="42.8965210" lon="-0.0269270">
        <ele>695.6</ele>
        <time>2020-07-25T14:08:47Z</time>
      </trkpt>
      <trkpt lat="42.8969930" lon="-0.0272210">
        <ele>695.0</ele>
        <time>2020-07-25T14:08:53Z</time>
      </trkpt>
      <trkpt lat="42.8970740" lon="-0.0272710">
        <ele>695.2</ele>
        <time>2020-07-25T14:08:54Z</time>
      </trkpt>
      <trkpt lat="42.8975540" lon="-0.0275710">
        <ele>694.4</ele>
        <time>2020-07-25T14:09:00Z</time>
      </trkpt>
      <trkpt lat="42.8976330" lon="-0.0276250">
        <ele>693.8</ele>
        <time>2020-07-25T14:09:01Z</time>
      </trkpt>
      <trkpt lat="42.8977140" lon="-0.0276790">
        <ele>693.2</ele>
        <time>2020-07-25T14:09:02Z</time>
      </trkpt>
      <trkpt lat="42.8979530" lon="-0.0278320">
        <ele>692.0</ele>
        <time>2020-07-25T14:09:05Z</time>
      </trkpt>
      <trkpt lat="42.8982650" lon="-0.0280000">
        <ele>692.2</ele>
        <time>2020-07-25T14:09:09Z</time>
      </trkpt>
      <trkpt lat="42.8984900" lon="-0.0281140">
        <ele>693.2</ele>
        <time>2020-07-25T14:09:12Z</time>
      </trkpt>
      <trkpt lat="42.8985620" lon="-0.0281500">
        <ele>693.8</ele>
        <time>2020-07-25T14:09:13Z</time>
      </trkpt>
      <trkpt lat="42.8987740" lon="-0.0282590">
        <ele>694.4</ele>
        <time>2020-07-25T14:09:16Z</time>
      </trkpt>
      <trkpt lat="42.8988440" lon="-0.0282950">
        <ele>694.2</ele>
        <time>2020-07-25T14:09:17Z</time>
      </trkpt>
      <trkpt lat="42.8989110" lon="-0.0283310">
        <ele>694.2</ele>
        <time>2020-07-25T14:09:18Z</time>
      </trkpt>
      <trkpt lat="42.8990970" lon="-0.0284590">
        <ele>693.4</ele>
        <time>2020-07-25T14:09:21Z</time>
      </trkpt>
      <trkpt lat="42.8992110" lon="-0.0285580">
        <ele>693.4</ele>
        <time>2020-07-25T14:09:23Z</time>
      </trkpt>
      <trkpt lat="42.8993150" lon="-0.0286570">
        <ele>693.8</ele>
        <time>2020-07-25T14:09:25Z</time>
      </trkpt>
      <trkpt lat="42.8995190" lon="-0.0288460">
        <ele>694.6</ele>
        <time>2020-07-25T14:09:29Z</time>
      </trkpt>
      <trkpt lat="42.8995760" lon="-0.0288880">
        <ele>694.8</ele>
        <time>2020-07-25T14:09:30Z</time>
      </trkpt>
      <trkpt lat="42.8999440" lon="-0.0291390">
        <ele>695.0</ele>
        <time>2020-07-25T14:09:36Z</time>
      </trkpt>
      <trkpt lat="42.9000090" lon="-0.0291830">
        <ele>694.8</ele>
        <time>2020-07-25T14:09:37Z</time>
      </trkpt>
      <trkpt lat="42.9002830" lon="-0.0293750">
        <ele>693.4</ele>
        <time>2020-07-25T14:09:41Z</time>
      </trkpt>
      <trkpt lat="42.9004200" lon="-0.0294700">
        <ele>692.0</ele>
        <time>2020-07-25T14:09:43Z</time>
      </trkpt>
      <trkpt lat="42.9004860" lon="-0.0295200">
        <ele>691.4</ele>
        <time>2020-07-25T14:09:44Z</time>
      </trkpt>
      <trkpt lat="42.9006140" lon="-0.0296170">
        <ele>690.8</ele>
        <time>2020-07-25T14:09:46Z</time>
      </trkpt>
      <trkpt lat="42.9009920" lon="-0.0299050">
        <ele>690.0</ele>
        <time>2020-07-25T14:09:52Z</time>
      </trkpt>
      <trkpt lat="42.9010530" lon="-0.0299530">
        <ele>690.0</ele>
        <time>2020-07-25T14:09:53Z</time>
      </trkpt>
      <trkpt lat="42.9011190" lon="-0.0300030">
        <ele>690.0</ele>
        <time>2020-07-25T14:09:54Z</time>
      </trkpt>
      <trkpt lat="42.9011850" lon="-0.0300540">
        <ele>689.6</ele>
        <time>2020-07-25T14:09:55Z</time>
      </trkpt>
      <trkpt lat="42.9015540" lon="-0.0303350">
        <ele>688.6</ele>
        <time>2020-07-25T14:10:00Z</time>
      </trkpt>
      <trkpt lat="42.9017960" lon="-0.0305170">
        <ele>687.2</ele>
        <time>2020-07-25T14:10:03Z</time>
      </trkpt>
      <trkpt lat="42.9020440" lon="-0.0307120">
        <ele>686.6</ele>
        <time>2020-07-25T14:10:06Z</time>
      </trkpt>
      <trkpt lat="42.9021270" lon="-0.0307750">
        <ele>686.6</ele>
        <time>2020-07-25T14:10:07Z</time>
      </trkpt>
      <trkpt lat="42.9022100" lon="-0.0308350">
        <ele>686.6</ele>
        <time>2020-07-25T14:10:08Z</time>
      </trkpt>
      <trkpt lat="42.9027390" lon="-0.0311780">
        <ele>686.2</ele>
        <time>2020-07-25T14:10:14Z</time>
      </trkpt>
      <trkpt lat="42.9028300" lon="-0.0312280">
        <ele>686.2</ele>
        <time>2020-07-25T14:10:15Z</time>
      </trkpt>
      <trkpt lat="42.9030120" lon="-0.0313190">
        <ele>685.8</ele>
        <time>2020-07-25T14:10:17Z</time>
      </trkpt>
      <trkpt lat="42.9032850" lon="-0.0314490">
        <ele>685.2</ele>
        <time>2020-07-25T14:10:20Z</time>
      </trkpt>
      <trkpt lat="42.9034740" lon="-0.0315010">
        <ele>684.8</ele>
        <time>2020-07-25T14:10:22Z</time>
      </trkpt>
      <trkpt lat="42.9036610" lon="-0.0314590">
        <ele>684.4</ele>
        <time>2020-07-25T14:10:24Z</time>
      </trkpt>
      <trkpt lat="42.9037500" lon="-0.0314220">
        <ele>684.2</ele>
        <time>2020-07-25T14:10:25Z</time>
      </trkpt>
      <trkpt lat="42.9038380" lon="-0.0313930">
        <ele>683.8</ele>
        <time>2020-07-25T14:10:26Z</time>
      </trkpt>
      <trkpt lat="42.9039260" lon="-0.0313840">
        <ele>683.4</ele>
        <time>2020-07-25T14:10:27Z</time>
      </trkpt>
      <trkpt lat="42.9040990" lon="-0.0314210">
        <ele>683.0</ele>
        <time>2020-07-25T14:10:29Z</time>
      </trkpt>
      <trkpt lat="42.9042630" lon="-0.0315300">
        <ele>682.8</ele>
        <time>2020-07-25T14:10:31Z</time>
      </trkpt>
      <trkpt lat="42.9043350" lon="-0.0316000">
        <ele>682.6</ele>
        <time>2020-07-25T14:10:32Z</time>
      </trkpt>
      <trkpt lat="42.9044040" lon="-0.0316750">
        <ele>682.4</ele>
        <time>2020-07-25T14:10:33Z</time>
      </trkpt>
      <trkpt lat="42.9045250" lon="-0.0318530">
        <ele>681.8</ele>
        <time>2020-07-25T14:10:35Z</time>
      </trkpt>
      <trkpt lat="42.9045770" lon="-0.0319460">
        <ele>681.4</ele>
        <time>2020-07-25T14:10:36Z</time>
      </trkpt>
      <trkpt lat="42.9048830" lon="-0.0325570">
        <ele>681.0</ele>
        <time>2020-07-25T14:10:42Z</time>
      </trkpt>
      <trkpt lat="42.9050960" lon="-0.0329470">
        <ele>680.4</ele>
        <time>2020-07-25T14:10:46Z</time>
      </trkpt>
      <trkpt lat="42.9052050" lon="-0.0331400">
        <ele>680.2</ele>
        <time>2020-07-25T14:10:48Z</time>
      </trkpt>
      <trkpt lat="42.9053240" lon="-0.0333370">
        <ele>679.4</ele>
        <time>2020-07-25T14:10:50Z</time>
      </trkpt>
      <trkpt lat="42.9055170" lon="-0.0336320">
        <ele>677.8</ele>
        <time>2020-07-25T14:10:53Z</time>
      </trkpt>
      <trkpt lat="42.9055830" lon="-0.0337320">
        <ele>676.8</ele>
        <time>2020-07-25T14:10:54Z</time>
      </trkpt>
      <trkpt lat="42.9056450" lon="-0.0338420">
        <ele>676.0</ele>
        <time>2020-07-25T14:10:55Z</time>
      </trkpt>
      <trkpt lat="42.9057050" lon="-0.0339520">
        <ele>675.6</ele>
        <time>2020-07-25T14:10:56Z</time>
      </trkpt>
      <trkpt lat="42.9059060" lon="-0.0344170">
        <ele>674.8</ele>
        <time>2020-07-25T14:11:00Z</time>
      </trkpt>
      <trkpt lat="42.9060050" lon="-0.0346060">
        <ele>674.8</ele>
        <time>2020-07-25T14:11:02Z</time>
      </trkpt>
      <trkpt lat="42.9060690" lon="-0.0346680">
        <ele>674.8</ele>
        <time>2020-07-25T14:11:03Z</time>
      </trkpt>
      <trkpt lat="42.9061420" lon="-0.0346850">
        <ele>674.8</ele>
        <time>2020-07-25T14:11:04Z</time>
      </trkpt>
      <trkpt lat="42.9062110" lon="-0.0346700">
        <ele>675.0</ele>
        <time>2020-07-25T14:11:05Z</time>
      </trkpt>
      <trkpt lat="42.9062780" lon="-0.0346390">
        <ele>675.4</ele>
        <time>2020-07-25T14:11:06Z</time>
      </trkpt>
      <trkpt lat="42.9064110" lon="-0.0345790">
        <ele>675.8</ele>
        <time>2020-07-25T14:11:08Z</time>
      </trkpt>
      <trkpt lat="42.9064790" lon="-0.0345790">
        <ele>676.2</ele>
        <time>2020-07-25T14:11:09Z</time>
      </trkpt>
      <trkpt lat="42.9065480" lon="-0.0346090">
        <ele>676.6</ele>
        <time>2020-07-25T14:11:10Z</time>
      </trkpt>
      <trkpt lat="42.9066770" lon="-0.0346920">
        <ele>677.2</ele>
        <time>2020-07-25T14:11:12Z</time>
      </trkpt>
      <trkpt lat="42.9067370" lon="-0.0347350">
        <ele>677.6</ele>
        <time>2020-07-25T14:11:13Z</time>
      </trkpt>
      <trkpt lat="42.9069670" lon="-0.0348910">
        <ele>678.8</ele>
        <time>2020-07-25T14:11:17Z</time>
      </trkpt>
      <trkpt lat="42.9070830" lon="-0.0349440">
        <ele>679.6</ele>
        <time>2020-07-25T14:11:19Z</time>
      </trkpt>
      <trkpt lat="42.9071960" lon="-0.0349960">
        <ele>680.0</ele>
        <time>2020-07-25T14:11:21Z</time>
      </trkpt>
      <trkpt lat="42.9073620" lon="-0.0350780">
        <ele>680.2</ele>
        <time>2020-07-25T14:11:24Z</time>
      </trkpt>
      <trkpt lat="42.9074150" lon="-0.0351110">
        <ele>680.2</ele>
        <time>2020-07-25T14:11:25Z</time>
      </trkpt>
      <trkpt lat="42.9075210" lon="-0.0351890">
        <ele>680.8</ele>
        <time>2020-07-25T14:11:27Z</time>
      </trkpt>
      <trkpt lat="42.9076260" lon="-0.0352790">
        <ele>681.0</ele>
        <time>2020-07-25T14:11:29Z</time>
      </trkpt>
      <trkpt lat="42.9076770" lon="-0.0353270">
        <ele>681.2</ele>
        <time>2020-07-25T14:11:30Z</time>
      </trkpt>
      <trkpt lat="42.9078440" lon="-0.0354550">
        <ele>681.8</ele>
        <time>2020-07-25T14:11:33Z</time>
      </trkpt>
      <trkpt lat="42.9081270" lon="-0.0356480">
        <ele>682.0</ele>
        <time>2020-07-25T14:11:38Z</time>
      </trkpt>
      <trkpt lat="42.9082380" lon="-0.0357360">
        <ele>682.2</ele>
        <time>2020-07-25T14:11:40Z</time>
      </trkpt>
      <trkpt lat="42.9084990" lon="-0.0359670">
        <ele>683.2</ele>
        <time>2020-07-25T14:11:45Z</time>
      </trkpt>
      <trkpt lat="42.9086000" lon="-0.0360750">
        <ele>683.6</ele>
        <time>2020-07-25T14:11:47Z</time>
      </trkpt>
      <trkpt lat="42.9087610" lon="-0.0362270">
        <ele>684.4</ele>
        <time>2020-07-25T14:11:50Z</time>
      </trkpt>
      <trkpt lat="42.9089830" lon="-0.0363770">
        <ele>684.8</ele>
        <time>2020-07-25T14:11:54Z</time>
      </trkpt>
      <trkpt lat="42.9091460" lon="-0.0364510">
        <ele>685.6</ele>
        <time>2020-07-25T14:11:57Z</time>
      </trkpt>
      <trkpt lat="42.9092980" lon="-0.0365130">
        <ele>686.2</ele>
        <time>2020-07-25T14:12:00Z</time>
      </trkpt>
      <trkpt lat="42.9094870" lon="-0.0365810">
        <ele>686.8</ele>
        <time>2020-07-25T14:12:04Z</time>
      </trkpt>
      <trkpt lat="42.9096270" lon="-0.0366100">
        <ele>688.4</ele>
        <time>2020-07-25T14:12:07Z</time>
      </trkpt>
      <trkpt lat="42.9096730" lon="-0.0366100">
        <ele>688.8</ele>
        <time>2020-07-25T14:12:08Z</time>
      </trkpt>
      <trkpt lat="42.9098510" lon="-0.0365840">
        <ele>689.4</ele>
        <time>2020-07-25T14:12:12Z</time>
      </trkpt>
      <trkpt lat="42.9099810" lon="-0.0365660">
        <ele>689.4</ele>
        <time>2020-07-25T14:12:15Z</time>
      </trkpt>
      <trkpt lat="42.9101660" lon="-0.0365630">
        <ele>690.6</ele>
        <time>2020-07-25T14:12:19Z</time>
      </trkpt>
      <trkpt lat="42.9103110" lon="-0.0365540">
        <ele>691.2</ele>
        <time>2020-07-25T14:12:22Z</time>
      </trkpt>
      <trkpt lat="42.9103660" lon="-0.0365580">
        <ele>691.2</ele>
        <time>2020-07-25T14:12:23Z</time>
      </trkpt>
      <trkpt lat="42.9107070" lon="-0.0365440">
        <ele>690.6</ele>
        <time>2020-07-25T14:12:29Z</time>
      </trkpt>
      <trkpt lat="42.9109870" lon="-0.0365750">
        <ele>689.6</ele>
        <time>2020-07-25T14:12:34Z</time>
      </trkpt>
      <trkpt lat="42.9110620" lon="-0.0366660">
        <ele>689.6</ele>
        <time>2020-07-25T14:12:35Z</time>
      </trkpt>
      <trkpt lat="42.9111230" lon="-0.0367110">
        <ele>689.6</ele>
        <time>2020-07-25T14:12:36Z</time>
      </trkpt>
      <trkpt lat="42.9115300" lon="-0.0370830">
        <ele>690.0</ele>
        <time>2020-07-25T14:12:42Z</time>
      </trkpt>
      <trkpt lat="42.9116020" lon="-0.0371180">
        <ele>689.2</ele>
        <time>2020-07-25T14:12:43Z</time>
      </trkpt>
      <trkpt lat="42.9117680" lon="-0.0371820">
        <ele>688.4</ele>
        <time>2020-07-25T14:12:45Z</time>
      </trkpt>
      <trkpt lat="42.9119950" lon="-0.0372720">
        <ele>688.0</ele>
        <time>2020-07-25T14:12:48Z</time>
      </trkpt>
      <trkpt lat="42.9120720" lon="-0.0373060">
        <ele>688.2</ele>
        <time>2020-07-25T14:12:49Z</time>
      </trkpt>
      <trkpt lat="42.9124510" lon="-0.0374120">
        <ele>688.0</ele>
        <time>2020-07-25T14:12:54Z</time>
      </trkpt>
      <trkpt lat="42.9125330" lon="-0.0374030">
        <ele>687.8</ele>
        <time>2020-07-25T14:12:55Z</time>
      </trkpt>
      <trkpt lat="42.9126160" lon="-0.0373820">
        <ele>687.0</ele>
        <time>2020-07-25T14:12:56Z</time>
      </trkpt>
      <trkpt lat="42.9126960" lon="-0.0373500">
        <ele>685.8</ele>
        <time>2020-07-25T14:12:57Z</time>
      </trkpt>
      <trkpt lat="42.9128510" lon="-0.0372680">
        <ele>684.0</ele>
        <time>2020-07-25T14:12:59Z</time>
      </trkpt>
      <trkpt lat="42.9129270" lon="-0.0372320">
        <ele>683.4</ele>
        <time>2020-07-25T14:13:00Z</time>
      </trkpt>
      <trkpt lat="42.9130070" lon="-0.0372030">
        <ele>682.8</ele>
        <time>2020-07-25T14:13:01Z</time>
      </trkpt>
      <trkpt lat="42.9131740" lon="-0.0371810">
        <ele>682.0</ele>
        <time>2020-07-25T14:13:03Z</time>
      </trkpt>
      <trkpt lat="42.9133540" lon="-0.0371600">
        <ele>681.8</ele>
        <time>2020-07-25T14:13:05Z</time>
      </trkpt>
      <trkpt lat="42.9134460" lon="-0.0371410">
        <ele>681.4</ele>
        <time>2020-07-25T14:13:06Z</time>
      </trkpt>
      <trkpt lat="42.9136220" lon="-0.0370580">
        <ele>680.6</ele>
        <time>2020-07-25T14:13:08Z</time>
      </trkpt>
      <trkpt lat="42.9138790" lon="-0.0369480">
        <ele>679.8</ele>
        <time>2020-07-25T14:13:11Z</time>
      </trkpt>
      <trkpt lat="42.9139690" lon="-0.0369370">
        <ele>679.6</ele>
        <time>2020-07-25T14:13:12Z</time>
      </trkpt>
      <trkpt lat="42.9140570" lon="-0.0369500">
        <ele>679.4</ele>
        <time>2020-07-25T14:13:13Z</time>
      </trkpt>
      <trkpt lat="42.9143990" lon="-0.0371060">
        <ele>679.0</ele>
        <time>2020-07-25T14:13:17Z</time>
      </trkpt>
      <trkpt lat="42.9148970" lon="-0.0373730">
        <ele>679.4</ele>
        <time>2020-07-25T14:13:23Z</time>
      </trkpt>
      <trkpt lat="42.9149740" lon="-0.0374200">
        <ele>679.6</ele>
        <time>2020-07-25T14:13:24Z</time>
      </trkpt>
      <trkpt lat="42.9154000" lon="-0.0376700">
        <ele>680.6</ele>
        <time>2020-07-25T14:13:30Z</time>
      </trkpt>
      <trkpt lat="42.9154660" lon="-0.0377050">
        <ele>680.8</ele>
        <time>2020-07-25T14:13:31Z</time>
      </trkpt>
      <trkpt lat="42.9155320" lon="-0.0377360">
        <ele>681.0</ele>
        <time>2020-07-25T14:13:32Z</time>
      </trkpt>
      <trkpt lat="42.9157240" lon="-0.0378370">
        <ele>681.8</ele>
        <time>2020-07-25T14:13:35Z</time>
      </trkpt>
      <trkpt lat="42.9159760" lon="-0.0379770">
        <ele>682.2</ele>
        <time>2020-07-25T14:13:39Z</time>
      </trkpt>
      <trkpt lat="42.9162840" lon="-0.0381390">
        <ele>683.4</ele>
        <time>2020-07-25T14:13:44Z</time>
      </trkpt>
      <trkpt lat="42.9164470" lon="-0.0382520">
        <ele>684.6</ele>
        <time>2020-07-25T14:13:47Z</time>
      </trkpt>
      <trkpt lat="42.9165000" lon="-0.0382980">
        <ele>684.6</ele>
        <time>2020-07-25T14:13:48Z</time>
      </trkpt>
      <trkpt lat="42.9166250" lon="-0.0384800">
        <ele>684.6</ele>
        <time>2020-07-25T14:13:51Z</time>
      </trkpt>
      <trkpt lat="42.9168220" lon="-0.0388210">
        <ele>684.4</ele>
        <time>2020-07-25T14:13:56Z</time>
      </trkpt>
      <trkpt lat="42.9169010" lon="-0.0389590">
        <ele>684.4</ele>
        <time>2020-07-25T14:13:58Z</time>
      </trkpt>
      <trkpt lat="42.9171360" lon="-0.0393820">
        <ele>684.6</ele>
        <time>2020-07-25T14:14:04Z</time>
      </trkpt>
      <trkpt lat="42.9172190" lon="-0.0395240">
        <ele>684.6</ele>
        <time>2020-07-25T14:14:06Z</time>
      </trkpt>
      <trkpt lat="42.9174000" lon="-0.0397960">
        <ele>683.4</ele>
        <time>2020-07-25T14:14:10Z</time>
      </trkpt>
      <trkpt lat="42.9175340" lon="-0.0398720">
        <ele>683.0</ele>
        <time>2020-07-25T14:14:12Z</time>
      </trkpt>
      <trkpt lat="42.9176820" lon="-0.0398870">
        <ele>682.4</ele>
        <time>2020-07-25T14:14:14Z</time>
      </trkpt>
      <trkpt lat="42.9178340" lon="-0.0398890">
        <ele>681.0</ele>
        <time>2020-07-25T14:14:16Z</time>
      </trkpt>
      <trkpt lat="42.9179880" lon="-0.0399120">
        <ele>680.0</ele>
        <time>2020-07-25T14:14:18Z</time>
      </trkpt>
      <trkpt lat="42.9181390" lon="-0.0399860">
        <ele>679.6</ele>
        <time>2020-07-25T14:14:20Z</time>
      </trkpt>
      <trkpt lat="42.9182760" lon="-0.0400980">
        <ele>679.4</ele>
        <time>2020-07-25T14:14:22Z</time>
      </trkpt>
      <trkpt lat="42.9183970" lon="-0.0402420">
        <ele>679.0</ele>
        <time>2020-07-25T14:14:24Z</time>
      </trkpt>
      <trkpt lat="42.9185220" lon="-0.0403790">
        <ele>678.2</ele>
        <time>2020-07-25T14:14:26Z</time>
      </trkpt>
      <trkpt lat="42.9186000" lon="-0.0404190">
        <ele>677.8</ele>
        <time>2020-07-25T14:14:27Z</time>
      </trkpt>
      <trkpt lat="42.9186840" lon="-0.0404260">
        <ele>677.6</ele>
        <time>2020-07-25T14:14:28Z</time>
      </trkpt>
      <trkpt lat="42.9190230" lon="-0.0403470">
        <ele>677.2</ele>
        <time>2020-07-25T14:14:32Z</time>
      </trkpt>
      <trkpt lat="42.9193390" lon="-0.0402550">
        <ele>677.0</ele>
        <time>2020-07-25T14:14:36Z</time>
      </trkpt>
      <trkpt lat="42.9194300" lon="-0.0402980">
        <ele>677.0</ele>
        <time>2020-07-25T14:14:37Z</time>
      </trkpt>
      <trkpt lat="42.9195960" lon="-0.0403310">
        <ele>677.0</ele>
        <time>2020-07-25T14:14:39Z</time>
      </trkpt>
      <trkpt lat="42.9196800" lon="-0.0403360">
        <ele>676.8</ele>
        <time>2020-07-25T14:14:40Z</time>
      </trkpt>
      <trkpt lat="42.9197640" lon="-0.0403320">
        <ele>676.8</ele>
        <time>2020-07-25T14:14:41Z</time>
      </trkpt>
      <trkpt lat="42.9200750" lon="-0.0403030">
        <ele>676.6</ele>
        <time>2020-07-25T14:14:45Z</time>
      </trkpt>
      <trkpt lat="42.9202220" lon="-0.0403330">
        <ele>677.0</ele>
        <time>2020-07-25T14:14:47Z</time>
      </trkpt>
      <trkpt lat="42.9202970" lon="-0.0403550">
        <ele>677.2</ele>
        <time>2020-07-25T14:14:48Z</time>
      </trkpt>
      <trkpt lat="42.9203660" lon="-0.0404160">
        <ele>678.0</ele>
        <time>2020-07-25T14:14:51Z</time>
      </trkpt>
      <trkpt lat="42.9204340" lon="-0.0404770">
        <ele>678.2</ele>
        <time>2020-07-25T14:14:52Z</time>
      </trkpt>
      <trkpt lat="42.9205710" lon="-0.0406000">
        <ele>678.4</ele>
        <time>2020-07-25T14:14:53Z</time>
      </trkpt>
      <trkpt lat="42.9207470" lon="-0.0407400">
        <ele>679.2</ele>
        <time>2020-07-25T14:14:56Z</time>
      </trkpt>
      <trkpt lat="42.9208300" lon="-0.0407430">
        <ele>680.2</ele>
        <time>2020-07-25T14:15:02Z</time>
      </trkpt>
      <trkpt lat="42.9209120" lon="-0.0407450">
        <ele>680.2</ele>
        <time>2020-07-25T14:15:03Z</time>
      </trkpt>
      <trkpt lat="42.9209950" lon="-0.0407480">
        <ele>679.2</ele>
        <time>2020-07-25T14:15:09Z</time>
      </trkpt>
      <trkpt lat="42.9210780" lon="-0.0407500">
        <ele>678.2</ele>
        <time>2020-07-25T14:15:10Z</time>
      </trkpt>
      <trkpt lat="42.9211610" lon="-0.0407530">
        <ele>677.0</ele>
        <time>2020-07-25T14:15:12Z</time>
      </trkpt>
      <trkpt lat="42.9212430" lon="-0.0407550">
        <ele>675.8</ele>
        <time>2020-07-25T14:15:14Z</time>
      </trkpt>
      <trkpt lat="42.9213260" lon="-0.0407580">
        <ele>675.4</ele>
        <time>2020-07-25T14:15:15Z</time>
      </trkpt>
      <trkpt lat="42.9219050" lon="-0.0407770">
        <ele>675.4</ele>
        <time>2020-07-25T14:15:16Z</time>
      </trkpt>
      <trkpt lat="42.9223200" lon="-0.0407540">
        <ele>674.4</ele>
        <time>2020-07-25T14:15:20Z</time>
      </trkpt>
      <trkpt lat="42.9225470" lon="-0.0407320">
        <ele>673.0</ele>
        <time>2020-07-25T14:15:22Z</time>
      </trkpt>
      <trkpt lat="42.9227740" lon="-0.0407020">
        <ele>671.6</ele>
        <time>2020-07-25T14:15:24Z</time>
      </trkpt>
      <trkpt lat="42.9229680" lon="-0.0407180">
        <ele>671.0</ele>
        <time>2020-07-25T14:15:26Z</time>
      </trkpt>
      <trkpt lat="42.9230530" lon="-0.0407320">
        <ele>670.6</ele>
        <time>2020-07-25T14:15:27Z</time>
      </trkpt>
      <trkpt lat="42.9233120" lon="-0.0408030">
        <ele>669.4</ele>
        <time>2020-07-25T14:15:30Z</time>
      </trkpt>
      <trkpt lat="42.9234920" lon="-0.0408440">
        <ele>668.8</ele>
        <time>2020-07-25T14:15:32Z</time>
      </trkpt>
      <trkpt lat="42.9235860" lon="-0.0408380">
        <ele>668.6</ele>
        <time>2020-07-25T14:15:33Z</time>
      </trkpt>
      <trkpt lat="42.9236810" lon="-0.0408340">
        <ele>668.2</ele>
        <time>2020-07-25T14:15:34Z</time>
      </trkpt>
      <trkpt lat="42.9239050" lon="-0.0408470">
        <ele>667.6</ele>
        <time>2020-07-25T14:15:36Z</time>
      </trkpt>
      <trkpt lat="42.9240160" lon="-0.0408850">
        <ele>667.2</ele>
        <time>2020-07-25T14:15:37Z</time>
      </trkpt>
      <trkpt lat="42.9242080" lon="-0.0410400">
        <ele>666.4</ele>
        <time>2020-07-25T14:15:39Z</time>
      </trkpt>
      <trkpt lat="42.9246250" lon="-0.0414600">
        <ele>666.6</ele>
        <time>2020-07-25T14:15:44Z</time>
      </trkpt>
      <trkpt lat="42.9247970" lon="-0.0416380">
        <ele>666.0</ele>
        <time>2020-07-25T14:15:46Z</time>
      </trkpt>
      <trkpt lat="42.9249740" lon="-0.0418030">
        <ele>664.0</ele>
        <time>2020-07-25T14:15:48Z</time>
      </trkpt>
      <trkpt lat="42.9251500" lon="-0.0419360">
        <ele>662.8</ele>
        <time>2020-07-25T14:15:50Z</time>
      </trkpt>
      <trkpt lat="42.9253270" lon="-0.0420630">
        <ele>661.4</ele>
        <time>2020-07-25T14:15:52Z</time>
      </trkpt>
      <trkpt lat="42.9254170" lon="-0.0421140">
        <ele>660.8</ele>
        <time>2020-07-25T14:15:53Z</time>
      </trkpt>
      <trkpt lat="42.9255100" lon="-0.0421580">
        <ele>660.2</ele>
        <time>2020-07-25T14:15:54Z</time>
      </trkpt>
      <trkpt lat="42.9256050" lon="-0.0421840">
        <ele>659.0</ele>
        <time>2020-07-25T14:15:55Z</time>
      </trkpt>
      <trkpt lat="42.9257000" lon="-0.0421930">
        <ele>658.0</ele>
        <time>2020-07-25T14:15:56Z</time>
      </trkpt>
      <trkpt lat="42.9257980" lon="-0.0421800">
        <ele>656.8</ele>
        <time>2020-07-25T14:15:57Z</time>
      </trkpt>
      <trkpt lat="42.9259610" lon="-0.0420290">
        <ele>655.2</ele>
        <time>2020-07-25T14:15:59Z</time>
      </trkpt>
      <trkpt lat="42.9261950" lon="-0.0417460">
        <ele>654.4</ele>
        <time>2020-07-25T14:16:02Z</time>
      </trkpt>
      <trkpt lat="42.9262920" lon="-0.0416850">
        <ele>653.8</ele>
        <time>2020-07-25T14:16:03Z</time>
      </trkpt>
      <trkpt lat="42.9263950" lon="-0.0416500">
        <ele>653.4</ele>
        <time>2020-07-25T14:16:04Z</time>
      </trkpt>
      <trkpt lat="42.9265050" lon="-0.0416350">
        <ele>653.0</ele>
        <time>2020-07-25T14:16:05Z</time>
      </trkpt>
      <trkpt lat="42.9266170" lon="-0.0416310">
        <ele>652.4</ele>
        <time>2020-07-25T14:16:06Z</time>
      </trkpt>
      <trkpt lat="42.9268430" lon="-0.0416400">
        <ele>651.4</ele>
        <time>2020-07-25T14:16:08Z</time>
      </trkpt>
      <trkpt lat="42.9270810" lon="-0.0416610">
        <ele>650.2</ele>
        <time>2020-07-25T14:16:10Z</time>
      </trkpt>
      <trkpt lat="42.9273190" lon="-0.0417330">
        <ele>648.8</ele>
        <time>2020-07-25T14:16:12Z</time>
      </trkpt>
      <trkpt lat="42.9274380" lon="-0.0417750">
        <ele>647.6</ele>
        <time>2020-07-25T14:16:13Z</time>
      </trkpt>
      <trkpt lat="42.9275560" lon="-0.0418160">
        <ele>645.8</ele>
        <time>2020-07-25T14:16:14Z</time>
      </trkpt>
      <trkpt lat="42.9276720" lon="-0.0418570">
        <ele>644.6</ele>
        <time>2020-07-25T14:16:15Z</time>
      </trkpt>
      <trkpt lat="42.9279040" lon="-0.0419610">
        <ele>642.8</ele>
        <time>2020-07-25T14:16:17Z</time>
      </trkpt>
      <trkpt lat="42.9280210" lon="-0.0420220">
        <ele>641.8</ele>
        <time>2020-07-25T14:16:18Z</time>
      </trkpt>
      <trkpt lat="42.9281390" lon="-0.0420860">
        <ele>640.8</ele>
        <time>2020-07-25T14:16:19Z</time>
      </trkpt>
      <trkpt lat="42.9282550" lon="-0.0421490">
        <ele>640.0</ele>
        <time>2020-07-25T14:16:20Z</time>
      </trkpt>
      <trkpt lat="42.9283680" lon="-0.0422130">
        <ele>639.6</ele>
        <time>2020-07-25T14:16:21Z</time>
      </trkpt>
      <trkpt lat="42.9287010" lon="-0.0424290">
        <ele>638.4</ele>
        <time>2020-07-25T14:16:24Z</time>
      </trkpt>
      <trkpt lat="42.9288010" lon="-0.0425180">
        <ele>638.2</ele>
        <time>2020-07-25T14:16:25Z</time>
      </trkpt>
      <trkpt lat="42.9291120" lon="-0.0428340">
        <ele>637.2</ele>
        <time>2020-07-25T14:16:28Z</time>
      </trkpt>
      <trkpt lat="42.9293060" lon="-0.0430490">
        <ele>635.2</ele>
        <time>2020-07-25T14:16:30Z</time>
      </trkpt>
      <trkpt lat="42.9293370" lon="-0.0432580">
        <ele>634.4</ele>
        <time>2020-07-25T14:16:31Z</time>
      </trkpt>
      <trkpt lat="42.9294620" lon="-0.0433650">
        <ele>633.4</ele>
        <time>2020-07-25T14:16:32Z</time>
      </trkpt>
      <trkpt lat="42.9295670" lon="-0.0434830">
        <ele>632.4</ele>
        <time>2020-07-25T14:16:33Z</time>
      </trkpt>
      <trkpt lat="42.9296640" lon="-0.0435790">
        <ele>631.4</ele>
        <time>2020-07-25T14:16:34Z</time>
      </trkpt>
      <trkpt lat="42.9298120" lon="-0.0437830">
        <ele>629.6</ele>
        <time>2020-07-25T14:16:36Z</time>
      </trkpt>
      <trkpt lat="42.9298990" lon="-0.0440430">
        <ele>628.2</ele>
        <time>2020-07-25T14:16:38Z</time>
      </trkpt>
      <trkpt lat="42.9299360" lon="-0.0441860">
        <ele>627.6</ele>
        <time>2020-07-25T14:16:39Z</time>
      </trkpt>
      <trkpt lat="42.9299820" lon="-0.0443280">
        <ele>626.8</ele>
        <time>2020-07-25T14:16:40Z</time>
      </trkpt>
      <trkpt lat="42.9300320" lon="-0.0444690">
        <ele>625.8</ele>
        <time>2020-07-25T14:16:41Z</time>
      </trkpt>
      <trkpt lat="42.9301460" lon="-0.0447520">
        <ele>624.2</ele>
        <time>2020-07-25T14:16:43Z</time>
      </trkpt>
      <trkpt lat="42.9303270" lon="-0.0451670">
        <ele>622.8</ele>
        <time>2020-07-25T14:16:46Z</time>
      </trkpt>
      <trkpt lat="42.9304710" lon="-0.0454130">
        <ele>621.0</ele>
        <time>2020-07-25T14:16:48Z</time>
      </trkpt>
      <trkpt lat="42.9306320" lon="-0.0456350">
        <ele>619.2</ele>
        <time>2020-07-25T14:16:50Z</time>
      </trkpt>
      <trkpt lat="42.9307100" lon="-0.0457410">
        <ele>617.8</ele>
        <time>2020-07-25T14:16:51Z</time>
      </trkpt>
      <trkpt lat="42.9307870" lon="-0.0458400">
        <ele>616.2</ele>
        <time>2020-07-25T14:16:52Z</time>
      </trkpt>
      <trkpt lat="42.9308730" lon="-0.0459250">
        <ele>615.2</ele>
        <time>2020-07-25T14:16:53Z</time>
      </trkpt>
      <trkpt lat="42.9309590" lon="-0.0459910">
        <ele>614.4</ele>
        <time>2020-07-25T14:16:54Z</time>
      </trkpt>
      <trkpt lat="42.9310450" lon="-0.0460470">
        <ele>614.0</ele>
        <time>2020-07-25T14:16:55Z</time>
      </trkpt>
      <trkpt lat="42.9312180" lon="-0.0461320">
        <ele>613.8</ele>
        <time>2020-07-25T14:16:57Z</time>
      </trkpt>
      <trkpt lat="42.9313080" lon="-0.0461410">
        <ele>613.6</ele>
        <time>2020-07-25T14:16:58Z</time>
      </trkpt>
      <trkpt lat="42.9313970" lon="-0.0461340">
        <ele>613.4</ele>
        <time>2020-07-25T14:16:59Z</time>
      </trkpt>
      <trkpt lat="42.9315720" lon="-0.0461000">
        <ele>613.4</ele>
        <time>2020-07-25T14:17:01Z</time>
      </trkpt>
      <trkpt lat="42.9316570" lon="-0.0460840">
        <ele>613.2</ele>
        <time>2020-07-25T14:17:02Z</time>
      </trkpt>
      <trkpt lat="42.9317430" lon="-0.0460750">
        <ele>613.2</ele>
        <time>2020-07-25T14:17:03Z</time>
      </trkpt>
      <trkpt lat="42.9319150" lon="-0.0460860">
        <ele>613.0</ele>
        <time>2020-07-25T14:17:05Z</time>
      </trkpt>
      <trkpt lat="42.9320900" lon="-0.0461230">
        <ele>613.0</ele>
        <time>2020-07-25T14:17:07Z</time>
      </trkpt>
      <trkpt lat="42.9325180" lon="-0.0463350">
        <ele>612.8</ele>
        <time>2020-07-25T14:17:12Z</time>
      </trkpt>
      <trkpt lat="42.9329760" lon="-0.0465670">
        <ele>611.6</ele>
        <time>2020-07-25T14:17:17Z</time>
      </trkpt>
      <trkpt lat="42.9332500" lon="-0.0466820">
        <ele>610.8</ele>
        <time>2020-07-25T14:17:20Z</time>
      </trkpt>
      <trkpt lat="42.9333360" lon="-0.0467340">
        <ele>610.2</ele>
        <time>2020-07-25T14:17:21Z</time>
      </trkpt>
      <trkpt lat="42.9334150" lon="-0.0468020">
        <ele>609.8</ele>
        <time>2020-07-25T14:17:22Z</time>
      </trkpt>
      <trkpt lat="42.9335850" lon="-0.0469270">
        <ele>609.0</ele>
        <time>2020-07-25T14:17:24Z</time>
      </trkpt>
      <trkpt lat="42.9338480" lon="-0.0470930">
        <ele>607.2</ele>
        <time>2020-07-25T14:17:27Z</time>
      </trkpt>
      <trkpt lat="42.9339390" lon="-0.0471630">
        <ele>606.2</ele>
        <time>2020-07-25T14:17:28Z</time>
      </trkpt>
      <trkpt lat="42.9341210" lon="-0.0473330">
        <ele>604.8</ele>
        <time>2020-07-25T14:17:30Z</time>
      </trkpt>
      <trkpt lat="42.9343770" lon="-0.0476100">
        <ele>604.6</ele>
        <time>2020-07-25T14:17:33Z</time>
      </trkpt>
      <trkpt lat="42.9345190" lon="-0.0478470">
        <ele>604.4</ele>
        <time>2020-07-25T14:17:35Z</time>
      </trkpt>
      <trkpt lat="42.9346440" lon="-0.0480630">
        <ele>603.8</ele>
        <time>2020-07-25T14:17:37Z</time>
      </trkpt>
      <trkpt lat="42.9346780" lon="-0.0482090">
        <ele>602.6</ele>
        <time>2020-07-25T14:17:38Z</time>
      </trkpt>
      <trkpt lat="42.9346990" lon="-0.0483380">
        <ele>601.2</ele>
        <time>2020-07-25T14:17:39Z</time>
      </trkpt>
      <trkpt lat="42.9347560" lon="-0.0484460">
        <ele>600.2</ele>
        <time>2020-07-25T14:17:40Z</time>
      </trkpt>
      <trkpt lat="42.9348860" lon="-0.0486190">
        <ele>598.6</ele>
        <time>2020-07-25T14:17:42Z</time>
      </trkpt>
      <trkpt lat="42.9349610" lon="-0.0486630">
        <ele>598.2</ele>
        <time>2020-07-25T14:17:43Z</time>
      </trkpt>
      <trkpt lat="42.9350450" lon="-0.0486860">
        <ele>597.8</ele>
        <time>2020-07-25T14:17:44Z</time>
      </trkpt>
      <trkpt lat="42.9352380" lon="-0.0486770">
        <ele>597.6</ele>
        <time>2020-07-25T14:17:46Z</time>
      </trkpt>
      <trkpt lat="42.9352380" lon="-0.0486770">
        <ele>597.4</ele>
        <time>2020-07-25T14:17:50Z</time>
      </trkpt>
      <trkpt lat="42.9352380" lon="-0.0486770">
        <ele>596.4</ele>
        <time>2020-07-25T14:17:52Z</time>
      </trkpt>
      <trkpt lat="42.9358310" lon="-0.0486120">
        <ele>595.2</ele>
        <time>2020-07-25T14:17:55Z</time>
      </trkpt>
      <trkpt lat="42.9364240" lon="-0.0485470">
        <ele>593.6</ele>
        <time>2020-07-25T14:17:58Z</time>
      </trkpt>
      <trkpt lat="42.9365250" lon="-0.0485560">
        <ele>593.0</ele>
        <time>2020-07-25T14:17:59Z</time>
      </trkpt>
      <trkpt lat="42.9367220" lon="-0.0486160">
        <ele>592.2</ele>
        <time>2020-07-25T14:18:01Z</time>
      </trkpt>
      <trkpt lat="42.9368050" lon="-0.0486770">
        <ele>591.4</ele>
        <time>2020-07-25T14:18:02Z</time>
      </trkpt>
      <trkpt lat="42.9368710" lon="-0.0487470">
        <ele>590.8</ele>
        <time>2020-07-25T14:18:03Z</time>
      </trkpt>
      <trkpt lat="42.9369330" lon="-0.0488390">
        <ele>590.4</ele>
        <time>2020-07-25T14:18:04Z</time>
      </trkpt>
      <trkpt lat="42.9371070" lon="-0.0491730">
        <ele>589.4</ele>
        <time>2020-07-25T14:18:07Z</time>
      </trkpt>
      <trkpt lat="42.9371750" lon="-0.0492840">
        <ele>589.0</ele>
        <time>2020-07-25T14:18:08Z</time>
      </trkpt>
      <trkpt lat="42.9372520" lon="-0.0493850">
        <ele>588.6</ele>
        <time>2020-07-25T14:18:09Z</time>
      </trkpt>
      <trkpt lat="42.9373360" lon="-0.0494730">
        <ele>588.2</ele>
        <time>2020-07-25T14:18:10Z</time>
      </trkpt>
      <trkpt lat="42.9374250" lon="-0.0495460">
        <ele>587.8</ele>
        <time>2020-07-25T14:18:11Z</time>
      </trkpt>
      <trkpt lat="42.9376090" lon="-0.0496610">
        <ele>587.0</ele>
        <time>2020-07-25T14:18:13Z</time>
      </trkpt>
      <trkpt lat="42.9377960" lon="-0.0497540">
        <ele>586.2</ele>
        <time>2020-07-25T14:18:15Z</time>
      </trkpt>
      <trkpt lat="42.9378910" lon="-0.0498000">
        <ele>586.0</ele>
        <time>2020-07-25T14:18:16Z</time>
      </trkpt>
      <trkpt lat="42.9383470" lon="-0.0500450">
        <ele>585.2</ele>
        <time>2020-07-25T14:18:21Z</time>
      </trkpt>
      <trkpt lat="42.9384410" lon="-0.0500960">
        <ele>585.0</ele>
        <time>2020-07-25T14:18:22Z</time>
      </trkpt>
      <trkpt lat="42.9385350" lon="-0.0501480">
        <ele>585.0</ele>
        <time>2020-07-25T14:18:23Z</time>
      </trkpt>
      <trkpt lat="42.9388930" lon="-0.0503670">
        <ele>584.0</ele>
        <time>2020-07-25T14:18:27Z</time>
      </trkpt>
      <trkpt lat="42.9391920" lon="-0.0507040">
        <ele>583.8</ele>
        <time>2020-07-25T14:18:31Z</time>
      </trkpt>
      <trkpt lat="42.9394300" lon="-0.0511170">
        <ele>583.2</ele>
        <time>2020-07-25T14:18:35Z</time>
      </trkpt>
      <trkpt lat="42.9395030" lon="-0.0513700">
        <ele>582.6</ele>
        <time>2020-07-25T14:18:37Z</time>
      </trkpt>
      <trkpt lat="42.9395510" lon="-0.0516640">
        <ele>582.0</ele>
        <time>2020-07-25T14:18:39Z</time>
      </trkpt>
      <trkpt lat="42.9396030" lon="-0.0519770">
        <ele>581.2</ele>
        <time>2020-07-25T14:18:41Z</time>
      </trkpt>
      <trkpt lat="42.9397230" lon="-0.0524570">
        <ele>579.8</ele>
        <time>2020-07-25T14:18:44Z</time>
      </trkpt>
      <trkpt lat="42.9398160" lon="-0.0527690">
        <ele>578.8</ele>
        <time>2020-07-25T14:18:46Z</time>
      </trkpt>
      <trkpt lat="42.9399300" lon="-0.0530510">
        <ele>577.0</ele>
        <time>2020-07-25T14:18:48Z</time>
      </trkpt>
      <trkpt lat="42.9401000" lon="-0.0532540">
        <ele>576.0</ele>
        <time>2020-07-25T14:18:50Z</time>
      </trkpt>
      <trkpt lat="42.9402040" lon="-0.0533130">
        <ele>575.4</ele>
        <time>2020-07-25T14:18:51Z</time>
      </trkpt>
      <trkpt lat="42.9403160" lon="-0.0533500">
        <ele>574.8</ele>
        <time>2020-07-25T14:18:52Z</time>
      </trkpt>
      <trkpt lat="42.9405390" lon="-0.0533200">
        <ele>574.2</ele>
        <time>2020-07-25T14:18:54Z</time>
      </trkpt>
      <trkpt lat="42.9406460" lon="-0.0532830">
        <ele>573.8</ele>
        <time>2020-07-25T14:18:55Z</time>
      </trkpt>
      <trkpt lat="42.9407470" lon="-0.0532220">
        <ele>573.4</ele>
        <time>2020-07-25T14:18:56Z</time>
      </trkpt>
      <trkpt lat="42.9409080" lon="-0.0529830">
        <ele>573.0</ele>
        <time>2020-07-25T14:18:58Z</time>
      </trkpt>
      <trkpt lat="42.9413460" lon="-0.0524370">
        <ele>572.6</ele>
        <time>2020-07-25T14:19:03Z</time>
      </trkpt>
      <trkpt lat="42.9414500" lon="-0.0523470">
        <ele>572.6</ele>
        <time>2020-07-25T14:19:04Z</time>
      </trkpt>
      <trkpt lat="42.9415590" lon="-0.0522710">
        <ele>572.6</ele>
        <time>2020-07-25T14:19:05Z</time>
      </trkpt>
      <trkpt lat="42.9417880" lon="-0.0521800">
        <ele>573.0</ele>
        <time>2020-07-25T14:19:07Z</time>
      </trkpt>
      <trkpt lat="42.9420100" lon="-0.0522010">
        <ele>573.6</ele>
        <time>2020-07-25T14:19:09Z</time>
      </trkpt>
      <trkpt lat="42.9421110" lon="-0.0522320">
        <ele>574.0</ele>
        <time>2020-07-25T14:19:10Z</time>
      </trkpt>
      <trkpt lat="42.9422040" lon="-0.0522900">
        <ele>574.2</ele>
        <time>2020-07-25T14:19:11Z</time>
      </trkpt>
      <trkpt lat="42.9423780" lon="-0.0524400">
        <ele>574.2</ele>
        <time>2020-07-25T14:19:13Z</time>
      </trkpt>
      <trkpt lat="42.9428920" lon="-0.0529490">
        <ele>572.8</ele>
        <time>2020-07-25T14:19:19Z</time>
      </trkpt>
      <trkpt lat="42.9432900" lon="-0.0531990">
        <ele>572.0</ele>
        <time>2020-07-25T14:19:23Z</time>
      </trkpt>
      <trkpt lat="42.9435830" lon="-0.0534020">
        <ele>571.6</ele>
        <time>2020-07-25T14:19:26Z</time>
      </trkpt>
      <trkpt lat="42.9437760" lon="-0.0535300">
        <ele>571.2</ele>
        <time>2020-07-25T14:19:28Z</time>
      </trkpt>
      <trkpt lat="42.9438740" lon="-0.0536030">
        <ele>571.0</ele>
        <time>2020-07-25T14:19:29Z</time>
      </trkpt>
      <trkpt lat="42.9441470" lon="-0.0538490">
        <ele>570.8</ele>
        <time>2020-07-25T14:19:32Z</time>
      </trkpt>
      <trkpt lat="42.9443150" lon="-0.0540260">
        <ele>570.6</ele>
        <time>2020-07-25T14:19:34Z</time>
      </trkpt>
      <trkpt lat="42.9444850" lon="-0.0542040">
        <ele>570.4</ele>
        <time>2020-07-25T14:19:36Z</time>
      </trkpt>
      <trkpt lat="42.9448080" lon="-0.0545800">
        <ele>569.2</ele>
        <time>2020-07-25T14:19:40Z</time>
      </trkpt>
      <trkpt lat="42.9448860" lon="-0.0546760">
        <ele>569.0</ele>
        <time>2020-07-25T14:19:41Z</time>
      </trkpt>
      <trkpt lat="42.9453440" lon="-0.0552460">
        <ele>569.0</ele>
        <time>2020-07-25T14:19:47Z</time>
      </trkpt>
      <trkpt lat="42.9456430" lon="-0.0556150">
        <ele>568.2</ele>
        <time>2020-07-25T14:19:51Z</time>
      </trkpt>
      <trkpt lat="42.9459500" lon="-0.0559650">
        <ele>568.0</ele>
        <time>2020-07-25T14:19:55Z</time>
      </trkpt>
      <trkpt lat="42.9461810" lon="-0.0562250">
        <ele>568.2</ele>
        <time>2020-07-25T14:19:58Z</time>
      </trkpt>
      <trkpt lat="42.9463410" lon="-0.0564040">
        <ele>567.2</ele>
        <time>2020-07-25T14:20:00Z</time>
      </trkpt>
      <trkpt lat="42.9464240" lon="-0.0564910">
        <ele>566.8</ele>
        <time>2020-07-25T14:20:01Z</time>
      </trkpt>
      <trkpt lat="42.9467380" lon="-0.0568560">
        <ele>565.8</ele>
        <time>2020-07-25T14:20:05Z</time>
      </trkpt>
      <trkpt lat="42.9468040" lon="-0.0569610">
        <ele>565.8</ele>
        <time>2020-07-25T14:20:06Z</time>
      </trkpt>
      <trkpt lat="42.9468630" lon="-0.0570740">
        <ele>565.6</ele>
        <time>2020-07-25T14:20:07Z</time>
      </trkpt>
      <trkpt lat="42.9469640" lon="-0.0573180">
        <ele>565.2</ele>
        <time>2020-07-25T14:20:09Z</time>
      </trkpt>
      <trkpt lat="42.9470500" lon="-0.0575730">
        <ele>564.6</ele>
        <time>2020-07-25T14:20:11Z</time>
      </trkpt>
      <trkpt lat="42.9470830" lon="-0.0577080">
        <ele>564.4</ele>
        <time>2020-07-25T14:20:12Z</time>
      </trkpt>
      <trkpt lat="42.9471100" lon="-0.0578440">
        <ele>564.2</ele>
        <time>2020-07-25T14:20:13Z</time>
      </trkpt>
      <trkpt lat="42.9472520" lon="-0.0586560">
        <ele>564.0</ele>
        <time>2020-07-25T14:20:19Z</time>
      </trkpt>
      <trkpt lat="42.9472840" lon="-0.0587860">
        <ele>563.8</ele>
        <time>2020-07-25T14:20:20Z</time>
      </trkpt>
      <trkpt lat="42.9473200" lon="-0.0589150">
        <ele>563.6</ele>
        <time>2020-07-25T14:20:21Z</time>
      </trkpt>
      <trkpt lat="42.9473600" lon="-0.0590450">
        <ele>563.4</ele>
        <time>2020-07-25T14:20:22Z</time>
      </trkpt>
      <trkpt lat="42.9474470" lon="-0.0593050">
        <ele>563.0</ele>
        <time>2020-07-25T14:20:24Z</time>
      </trkpt>
      <trkpt lat="42.9474930" lon="-0.0594300">
        <ele>562.6</ele>
        <time>2020-07-25T14:20:25Z</time>
      </trkpt>
      <trkpt lat="42.9475430" lon="-0.0595520">
        <ele>562.2</ele>
        <time>2020-07-25T14:20:26Z</time>
      </trkpt>
      <trkpt lat="42.9477810" lon="-0.0600120">
        <ele>561.2</ele>
        <time>2020-07-25T14:20:30Z</time>
      </trkpt>
      <trkpt lat="42.9481110" lon="-0.0605380">
        <ele>559.8</ele>
        <time>2020-07-25T14:20:35Z</time>
      </trkpt>
      <trkpt lat="42.9482300" lon="-0.0607540">
        <ele>559.0</ele>
        <time>2020-07-25T14:20:37Z</time>
      </trkpt>
      <trkpt lat="42.9482860" lon="-0.0608640">
        <ele>558.8</ele>
        <time>2020-07-25T14:20:38Z</time>
      </trkpt>
      <trkpt lat="42.9486200" lon="-0.0615010">
        <ele>558.0</ele>
        <time>2020-07-25T14:20:44Z</time>
      </trkpt>
      <trkpt lat="42.9486740" lon="-0.0616100">
        <ele>557.8</ele>
        <time>2020-07-25T14:20:45Z</time>
      </trkpt>
      <trkpt lat="42.9487780" lon="-0.0618280">
        <ele>557.2</ele>
        <time>2020-07-25T14:20:47Z</time>
      </trkpt>
      <trkpt lat="42.9490920" lon="-0.0624620">
        <ele>558.4</ele>
        <time>2020-07-25T14:20:53Z</time>
      </trkpt>
      <trkpt lat="42.9492070" lon="-0.0626630">
        <ele>558.8</ele>
        <time>2020-07-25T14:20:55Z</time>
      </trkpt>
      <trkpt lat="42.9494410" lon="-0.0630590">
        <ele>557.8</ele>
        <time>2020-07-25T14:20:59Z</time>
      </trkpt>
      <trkpt lat="42.9494970" lon="-0.0631600">
        <ele>557.6</ele>
        <time>2020-07-25T14:21:00Z</time>
      </trkpt>
      <trkpt lat="42.9496440" lon="-0.0634820">
        <ele>556.8</ele>
        <time>2020-07-25T14:21:03Z</time>
      </trkpt>
      <trkpt lat="42.9496900" lon="-0.0635940">
        <ele>556.4</ele>
        <time>2020-07-25T14:21:04Z</time>
      </trkpt>
      <trkpt lat="42.9498670" lon="-0.0640610">
        <ele>555.2</ele>
        <time>2020-07-25T14:21:08Z</time>
      </trkpt>
      <trkpt lat="42.9499550" lon="-0.0642930">
        <ele>554.8</ele>
        <time>2020-07-25T14:21:10Z</time>
      </trkpt>
      <trkpt lat="42.9500860" lon="-0.0647700">
        <ele>554.2</ele>
        <time>2020-07-25T14:21:14Z</time>
      </trkpt>
      <trkpt lat="42.9501110" lon="-0.0648900">
        <ele>554.0</ele>
        <time>2020-07-25T14:21:15Z</time>
      </trkpt>
      <trkpt lat="42.9502620" lon="-0.0656060">
        <ele>553.8</ele>
        <time>2020-07-25T14:21:21Z</time>
      </trkpt>
      <trkpt lat="42.9503270" lon="-0.0659650">
        <ele>553.8</ele>
        <time>2020-07-25T14:21:24Z</time>
      </trkpt>
      <trkpt lat="42.9504760" lon="-0.0666840">
        <ele>554.4</ele>
        <time>2020-07-25T14:21:30Z</time>
      </trkpt>
      <trkpt lat="42.9505060" lon="-0.0668020">
        <ele>554.4</ele>
        <time>2020-07-25T14:21:31Z</time>
      </trkpt>
      <trkpt lat="42.9506360" lon="-0.0672640">
        <ele>554.0</ele>
        <time>2020-07-25T14:21:35Z</time>
      </trkpt>
      <trkpt lat="42.9507560" lon="-0.0673880">
        <ele>553.8</ele>
        <time>2020-07-25T14:21:37Z</time>
      </trkpt>
      <trkpt lat="42.9509760" lon="-0.0674020">
        <ele>554.0</ele>
        <time>2020-07-25T14:21:40Z</time>
      </trkpt>
      <trkpt lat="42.9510920" lon="-0.0674990">
        <ele>554.2</ele>
        <time>2020-07-25T14:21:42Z</time>
      </trkpt>
      <trkpt lat="42.9511110" lon="-0.0675870">
        <ele>554.4</ele>
        <time>2020-07-25T14:21:43Z</time>
      </trkpt>
      <trkpt lat="42.9511030" lon="-0.0676900">
        <ele>554.6</ele>
        <time>2020-07-25T14:21:44Z</time>
      </trkpt>
      <trkpt lat="42.9510750" lon="-0.0679200">
        <ele>554.8</ele>
        <time>2020-07-25T14:21:46Z</time>
      </trkpt>
      <trkpt lat="42.9511110" lon="-0.0681540">
        <ele>554.6</ele>
        <time>2020-07-25T14:21:48Z</time>
      </trkpt>
      <trkpt lat="42.9511510" lon="-0.0682620">
        <ele>554.4</ele>
        <time>2020-07-25T14:21:49Z</time>
      </trkpt>
      <trkpt lat="42.9513720" lon="-0.0687290">
        <ele>554.0</ele>
        <time>2020-07-25T14:21:54Z</time>
      </trkpt>
      <trkpt lat="42.9514400" lon="-0.0689060">
        <ele>554.2</ele>
        <time>2020-07-25T14:21:56Z</time>
      </trkpt>
      <trkpt lat="42.9515570" lon="-0.0692420">
        <ele>554.8</ele>
        <time>2020-07-25T14:22:00Z</time>
      </trkpt>
      <trkpt lat="42.9517020" lon="-0.0696120">
        <ele>554.6</ele>
        <time>2020-07-25T14:22:05Z</time>
      </trkpt>
      <trkpt lat="42.9517470" lon="-0.0696830">
        <ele>554.6</ele>
        <time>2020-07-25T14:22:06Z</time>
      </trkpt>
      <trkpt lat="42.9518750" lon="-0.0697810">
        <ele>554.8</ele>
        <time>2020-07-25T14:22:08Z</time>
      </trkpt>
      <trkpt lat="42.9522160" lon="-0.0698980">
        <ele>554.8</ele>
        <time>2020-07-25T14:22:12Z</time>
      </trkpt>
      <trkpt lat="42.9523070" lon="-0.0699060">
        <ele>554.6</ele>
        <time>2020-07-25T14:22:13Z</time>
      </trkpt>
      <trkpt lat="42.9525910" lon="-0.0699500">
        <ele>554.2</ele>
        <time>2020-07-25T14:22:16Z</time>
      </trkpt>
      <trkpt lat="42.9530140" lon="-0.0701380">
        <ele>553.4</ele>
        <time>2020-07-25T14:22:20Z</time>
      </trkpt>
      <trkpt lat="42.9531220" lon="-0.0701930">
        <ele>552.8</ele>
        <time>2020-07-25T14:22:21Z</time>
      </trkpt>
      <trkpt lat="42.9535420" lon="-0.0704310">
        <ele>551.4</ele>
        <time>2020-07-25T14:22:25Z</time>
      </trkpt>
      <trkpt lat="42.9536420" lon="-0.0704910">
        <ele>551.4</ele>
        <time>2020-07-25T14:22:26Z</time>
      </trkpt>
      <trkpt lat="42.9540090" lon="-0.0707200">
        <ele>551.4</ele>
        <time>2020-07-25T14:22:30Z</time>
      </trkpt>
      <trkpt lat="42.9541690" lon="-0.0708230">
        <ele>552.0</ele>
        <time>2020-07-25T14:22:32Z</time>
      </trkpt>
      <trkpt lat="42.9543160" lon="-0.0709210">
        <ele>552.6</ele>
        <time>2020-07-25T14:22:34Z</time>
      </trkpt>
      <trkpt lat="42.9545860" lon="-0.0711270">
        <ele>553.2</ele>
        <time>2020-07-25T14:22:38Z</time>
      </trkpt>
      <trkpt lat="42.9547130" lon="-0.0712280">
        <ele>553.4</ele>
        <time>2020-07-25T14:22:40Z</time>
      </trkpt>
      <trkpt lat="42.9548330" lon="-0.0713380">
        <ele>553.8</ele>
        <time>2020-07-25T14:22:42Z</time>
      </trkpt>
      <trkpt lat="42.9550030" lon="-0.0715230">
        <ele>554.0</ele>
        <time>2020-07-25T14:22:45Z</time>
      </trkpt>
      <trkpt lat="42.9551010" lon="-0.0716630">
        <ele>554.4</ele>
        <time>2020-07-25T14:22:47Z</time>
      </trkpt>
      <trkpt lat="42.9551950" lon="-0.0718160">
        <ele>554.8</ele>
        <time>2020-07-25T14:22:49Z</time>
      </trkpt>
      <trkpt lat="42.9552450" lon="-0.0718920">
        <ele>555.0</ele>
        <time>2020-07-25T14:22:50Z</time>
      </trkpt>
      <trkpt lat="42.9555580" lon="-0.0723460">
        <ele>555.6</ele>
        <time>2020-07-25T14:22:56Z</time>
      </trkpt>
      <trkpt lat="42.9556070" lon="-0.0724210">
        <ele>556.0</ele>
        <time>2020-07-25T14:22:57Z</time>
      </trkpt>
      <trkpt lat="42.9557040" lon="-0.0725670">
        <ele>556.2</ele>
        <time>2020-07-25T14:22:59Z</time>
      </trkpt>
      <trkpt lat="42.9559670" lon="-0.0729710">
        <ele>557.0</ele>
        <time>2020-07-25T14:23:05Z</time>
      </trkpt>
      <trkpt lat="42.9560490" lon="-0.0730960">
        <ele>557.6</ele>
        <time>2020-07-25T14:23:07Z</time>
      </trkpt>
      <trkpt lat="42.9561290" lon="-0.0732200">
        <ele>558.4</ele>
        <time>2020-07-25T14:23:09Z</time>
      </trkpt>
      <trkpt lat="42.9562860" lon="-0.0734610">
        <ele>559.4</ele>
        <time>2020-07-25T14:23:13Z</time>
      </trkpt>
      <trkpt lat="42.9563600" lon="-0.0735790">
        <ele>559.4</ele>
        <time>2020-07-25T14:23:15Z</time>
      </trkpt>
      <trkpt lat="42.9564660" lon="-0.0737510">
        <ele>560.6</ele>
        <time>2020-07-25T14:23:18Z</time>
      </trkpt>
      <trkpt lat="42.9566290" lon="-0.0740500">
        <ele>561.6</ele>
        <time>2020-07-25T14:23:23Z</time>
      </trkpt>
      <trkpt lat="42.9566580" lon="-0.0741130">
        <ele>561.8</ele>
        <time>2020-07-25T14:23:24Z</time>
      </trkpt>
      <trkpt lat="42.9567350" lon="-0.0743030">
        <ele>563.0</ele>
        <time>2020-07-25T14:23:27Z</time>
      </trkpt>
      <trkpt lat="42.9567880" lon="-0.0745100">
        <ele>564.4</ele>
        <time>2020-07-25T14:23:30Z</time>
      </trkpt>
      <trkpt lat="42.9568550" lon="-0.0747880">
        <ele>565.4</ele>
        <time>2020-07-25T14:23:34Z</time>
      </trkpt>
      <trkpt lat="42.9569030" lon="-0.0749180">
        <ele>565.8</ele>
        <time>2020-07-25T14:23:36Z</time>
      </trkpt>
      <trkpt lat="42.9569370" lon="-0.0749770">
        <ele>566.0</ele>
        <time>2020-07-25T14:23:37Z</time>
      </trkpt>
      <trkpt lat="42.9569760" lon="-0.0750310">
        <ele>566.2</ele>
        <time>2020-07-25T14:23:38Z</time>
      </trkpt>
      <trkpt lat="42.9570700" lon="-0.0751070">
        <ele>566.4</ele>
        <time>2020-07-25T14:23:40Z</time>
      </trkpt>
      <trkpt lat="42.9571200" lon="-0.0751360">
        <ele>566.6</ele>
        <time>2020-07-25T14:23:41Z</time>
      </trkpt>
      <trkpt lat="42.9571760" lon="-0.0751500">
        <ele>566.8</ele>
        <time>2020-07-25T14:23:42Z</time>
      </trkpt>
      <trkpt lat="42.9573590" lon="-0.0751540">
        <ele>566.8</ele>
        <time>2020-07-25T14:23:45Z</time>
      </trkpt>
      <trkpt lat="42.9576450" lon="-0.0750640">
        <ele>566.2</ele>
        <time>2020-07-25T14:23:49Z</time>
      </trkpt>
      <trkpt lat="42.9577220" lon="-0.0750360">
        <ele>565.4</ele>
        <time>2020-07-25T14:23:50Z</time>
      </trkpt>
      <trkpt lat="42.9578860" lon="-0.0750050">
        <ele>564.2</ele>
        <time>2020-07-25T14:23:52Z</time>
      </trkpt>
      <trkpt lat="42.9580540" lon="-0.0749690">
        <ele>563.2</ele>
        <time>2020-07-25T14:23:54Z</time>
      </trkpt>
      <trkpt lat="42.9581360" lon="-0.0749330">
        <ele>562.8</ele>
        <time>2020-07-25T14:23:55Z</time>
      </trkpt>
      <trkpt lat="42.9584480" lon="-0.0747510">
        <ele>561.6</ele>
        <time>2020-07-25T14:23:59Z</time>
      </trkpt>
      <trkpt lat="42.9588140" lon="-0.0746000">
        <ele>560.6</ele>
        <time>2020-07-25T14:24:03Z</time>
      </trkpt>
      <trkpt lat="42.9589030" lon="-0.0745770">
        <ele>560.4</ele>
        <time>2020-07-25T14:24:04Z</time>
      </trkpt>
      <trkpt lat="42.9590480" lon="-0.0745440">
        <ele>559.4</ele>
        <time>2020-07-25T14:24:06Z</time>
      </trkpt>
      <trkpt lat="42.9591150" lon="-0.0745210">
        <ele>559.0</ele>
        <time>2020-07-25T14:24:07Z</time>
      </trkpt>
      <trkpt lat="42.9595030" lon="-0.0744670">
        <ele>558.4</ele>
        <time>2020-07-25T14:24:12Z</time>
      </trkpt>
      <trkpt lat="42.9598620" lon="-0.0744730">
        <ele>557.0</ele>
        <time>2020-07-25T14:24:16Z</time>
      </trkpt>
      <trkpt lat="42.9599590" lon="-0.0744740">
        <ele>556.4</ele>
        <time>2020-07-25T14:24:17Z</time>
      </trkpt>
      <trkpt lat="42.9600600" lon="-0.0744730">
        <ele>555.8</ele>
        <time>2020-07-25T14:24:18Z</time>
      </trkpt>
      <trkpt lat="42.9601590" lon="-0.0744670">
        <ele>555.2</ele>
        <time>2020-07-25T14:24:19Z</time>
      </trkpt>
      <trkpt lat="42.9602620" lon="-0.0744640">
        <ele>554.8</ele>
        <time>2020-07-25T14:24:20Z</time>
      </trkpt>
      <trkpt lat="42.9605790" lon="-0.0744420">
        <ele>553.6</ele>
        <time>2020-07-25T14:24:23Z</time>
      </trkpt>
      <trkpt lat="42.9607970" lon="-0.0744390">
        <ele>552.4</ele>
        <time>2020-07-25T14:24:25Z</time>
      </trkpt>
      <trkpt lat="42.9610160" lon="-0.0744500">
        <ele>550.8</ele>
        <time>2020-07-25T14:24:27Z</time>
      </trkpt>
      <trkpt lat="42.9612370" lon="-0.0744660">
        <ele>549.8</ele>
        <time>2020-07-25T14:24:29Z</time>
      </trkpt>
      <trkpt lat="42.9614720" lon="-0.0744860">
        <ele>548.2</ele>
        <time>2020-07-25T14:24:31Z</time>
      </trkpt>
      <trkpt lat="42.9620590" lon="-0.0744980">
        <ele>547.4</ele>
        <time>2020-07-25T14:24:36Z</time>
      </trkpt>
      <trkpt lat="42.9622800" lon="-0.0744940">
        <ele>547.4</ele>
        <time>2020-07-25T14:24:38Z</time>
      </trkpt>
      <trkpt lat="42.9623870" lon="-0.0744920">
        <ele>547.2</ele>
        <time>2020-07-25T14:24:39Z</time>
      </trkpt>
      <trkpt lat="42.9628080" lon="-0.0744990">
        <ele>546.2</ele>
        <time>2020-07-25T14:24:43Z</time>
      </trkpt>
      <trkpt lat="42.9631280" lon="-0.0744960">
        <ele>545.6</ele>
        <time>2020-07-25T14:24:46Z</time>
      </trkpt>
      <trkpt lat="42.9633510" lon="-0.0744860">
        <ele>545.0</ele>
        <time>2020-07-25T14:24:48Z</time>
      </trkpt>
      <trkpt lat="42.9635740" lon="-0.0744490">
        <ele>543.2</ele>
        <time>2020-07-25T14:24:50Z</time>
      </trkpt>
      <trkpt lat="42.9636800" lon="-0.0744190">
        <ele>542.8</ele>
        <time>2020-07-25T14:24:51Z</time>
      </trkpt>
      <trkpt lat="42.9638970" lon="-0.0743580">
        <ele>542.0</ele>
        <time>2020-07-25T14:24:53Z</time>
      </trkpt>
      <trkpt lat="42.9643360" lon="-0.0742450">
        <ele>541.4</ele>
        <time>2020-07-25T14:24:57Z</time>
      </trkpt>
      <trkpt lat="42.9645590" lon="-0.0741830">
        <ele>540.4</ele>
        <time>2020-07-25T14:24:59Z</time>
      </trkpt>
      <trkpt lat="42.9651100" lon="-0.0740180">
        <ele>539.6</ele>
        <time>2020-07-25T14:25:04Z</time>
      </trkpt>
      <trkpt lat="42.9652220" lon="-0.0739850">
        <ele>539.2</ele>
        <time>2020-07-25T14:25:05Z</time>
      </trkpt>
      <trkpt lat="42.9654360" lon="-0.0739200">
        <ele>537.8</ele>
        <time>2020-07-25T14:25:07Z</time>
      </trkpt>
      <trkpt lat="42.9658250" lon="-0.0737900">
        <ele>537.0</ele>
        <time>2020-07-25T14:25:11Z</time>
      </trkpt>
      <trkpt lat="42.9659560" lon="-0.0736870">
        <ele>537.0</ele>
        <time>2020-07-25T14:25:13Z</time>
      </trkpt>
      <trkpt lat="42.9660110" lon="-0.0736150">
        <ele>536.8</ele>
        <time>2020-07-25T14:25:14Z</time>
      </trkpt>
      <trkpt lat="42.9660520" lon="-0.0735280">
        <ele>536.4</ele>
        <time>2020-07-25T14:25:15Z</time>
      </trkpt>
      <trkpt lat="42.9661210" lon="-0.0733620">
        <ele>536.2</ele>
        <time>2020-07-25T14:25:17Z</time>
      </trkpt>
      <trkpt lat="42.9662360" lon="-0.0732910">
        <ele>535.6</ele>
        <time>2020-07-25T14:25:19Z</time>
      </trkpt>
      <trkpt lat="42.9662930" lon="-0.0733130">
        <ele>535.4</ele>
        <time>2020-07-25T14:25:20Z</time>
      </trkpt>
      <trkpt lat="42.9663400" lon="-0.0733520">
        <ele>535.4</ele>
        <time>2020-07-25T14:25:21Z</time>
      </trkpt>
      <trkpt lat="42.9664710" lon="-0.0734700">
        <ele>535.6</ele>
        <time>2020-07-25T14:25:24Z</time>
      </trkpt>
      <trkpt lat="42.9665880" lon="-0.0735200">
        <ele>535.8</ele>
        <time>2020-07-25T14:25:26Z</time>
      </trkpt>
      <trkpt lat="42.9667350" lon="-0.0735520">
        <ele>535.6</ele>
        <time>2020-07-25T14:25:28Z</time>
      </trkpt>
      <trkpt lat="42.9668190" lon="-0.0735690">
        <ele>535.6</ele>
        <time>2020-07-25T14:25:29Z</time>
      </trkpt>
      <trkpt lat="42.9669070" lon="-0.0735900">
        <ele>535.2</ele>
        <time>2020-07-25T14:25:30Z</time>
      </trkpt>
      <trkpt lat="42.9670940" lon="-0.0736400">
        <ele>535.4</ele>
        <time>2020-07-25T14:25:32Z</time>
      </trkpt>
      <trkpt lat="42.9675840" lon="-0.0737870">
        <ele>534.4</ele>
        <time>2020-07-25T14:25:37Z</time>
      </trkpt>
      <trkpt lat="42.9677840" lon="-0.0738510">
        <ele>533.2</ele>
        <time>2020-07-25T14:25:39Z</time>
      </trkpt>
      <trkpt lat="42.9678870" lon="-0.0738820">
        <ele>532.8</ele>
        <time>2020-07-25T14:25:40Z</time>
      </trkpt>
      <trkpt lat="42.9680890" lon="-0.0739400">
        <ele>532.0</ele>
        <time>2020-07-25T14:25:42Z</time>
      </trkpt>
      <trkpt lat="42.9684860" lon="-0.0740620">
        <ele>531.4</ele>
        <time>2020-07-25T14:25:46Z</time>
      </trkpt>
      <trkpt lat="42.9686800" lon="-0.0741180">
        <ele>530.8</ele>
        <time>2020-07-25T14:25:48Z</time>
      </trkpt>
      <trkpt lat="42.9690700" lon="-0.0742340">
        <ele>530.4</ele>
        <time>2020-07-25T14:25:52Z</time>
      </trkpt>
      <trkpt lat="42.9691700" lon="-0.0742630">
        <ele>530.2</ele>
        <time>2020-07-25T14:25:53Z</time>
      </trkpt>
      <trkpt lat="42.9693710" lon="-0.0743240">
        <ele>530.0</ele>
        <time>2020-07-25T14:25:55Z</time>
      </trkpt>
      <trkpt lat="42.9695660" lon="-0.0743890">
        <ele>529.6</ele>
        <time>2020-07-25T14:25:57Z</time>
      </trkpt>
      <trkpt lat="42.9698600" lon="-0.0744840">
        <ele>528.0</ele>
        <time>2020-07-25T14:26:00Z</time>
      </trkpt>
      <trkpt lat="42.9700570" lon="-0.0745420">
        <ele>526.8</ele>
        <time>2020-07-25T14:26:02Z</time>
      </trkpt>
      <trkpt lat="42.9706680" lon="-0.0747100">
        <ele>525.6</ele>
        <time>2020-07-25T14:26:08Z</time>
      </trkpt>
      <trkpt lat="42.9709810" lon="-0.0747900">
        <ele>524.8</ele>
        <time>2020-07-25T14:26:11Z</time>
      </trkpt>
      <trkpt lat="42.9712890" lon="-0.0748830">
        <ele>524.4</ele>
        <time>2020-07-25T14:26:14Z</time>
      </trkpt>
      <trkpt lat="42.9714990" lon="-0.0749490">
        <ele>523.2</ele>
        <time>2020-07-25T14:26:16Z</time>
      </trkpt>
      <trkpt lat="42.9716020" lon="-0.0749850">
        <ele>522.6</ele>
        <time>2020-07-25T14:26:17Z</time>
      </trkpt>
      <trkpt lat="42.9717010" lon="-0.0750250">
        <ele>522.2</ele>
        <time>2020-07-25T14:26:18Z</time>
      </trkpt>
      <trkpt lat="42.9720750" lon="-0.0752020">
        <ele>521.2</ele>
        <time>2020-07-25T14:26:22Z</time>
      </trkpt>
      <trkpt lat="42.9722550" lon="-0.0752910">
        <ele>520.8</ele>
        <time>2020-07-25T14:26:24Z</time>
      </trkpt>
      <trkpt lat="42.9727830" lon="-0.0755450">
        <ele>520.4</ele>
        <time>2020-07-25T14:26:30Z</time>
      </trkpt>
      <trkpt lat="42.9729550" lon="-0.0756280">
        <ele>520.4</ele>
        <time>2020-07-25T14:26:32Z</time>
      </trkpt>
      <trkpt lat="42.9732190" lon="-0.0757570">
        <ele>520.2</ele>
        <time>2020-07-25T14:26:35Z</time>
      </trkpt>
      <trkpt lat="42.9733070" lon="-0.0757990">
        <ele>520.0</ele>
        <time>2020-07-25T14:26:36Z</time>
      </trkpt>
      <trkpt lat="42.9734820" lon="-0.0758820">
        <ele>519.6</ele>
        <time>2020-07-25T14:26:38Z</time>
      </trkpt>
      <trkpt lat="42.9735680" lon="-0.0759270">
        <ele>519.4</ele>
        <time>2020-07-25T14:26:39Z</time>
      </trkpt>
      <trkpt lat="42.9737310" lon="-0.0760320">
        <ele>519.2</ele>
        <time>2020-07-25T14:26:41Z</time>
      </trkpt>
      <trkpt lat="42.9738920" lon="-0.0761660">
        <ele>519.0</ele>
        <time>2020-07-25T14:26:43Z</time>
      </trkpt>
      <trkpt lat="42.9741950" lon="-0.0764750">
        <ele>518.8</ele>
        <time>2020-07-25T14:26:47Z</time>
      </trkpt>
      <trkpt lat="42.9743990" lon="-0.0767540">
        <ele>518.0</ele>
        <time>2020-07-25T14:26:50Z</time>
      </trkpt>
      <trkpt lat="42.9745770" lon="-0.0770480">
        <ele>517.2</ele>
        <time>2020-07-25T14:26:53Z</time>
      </trkpt>
      <trkpt lat="42.9748600" lon="-0.0777130">
        <ele>517.8</ele>
        <time>2020-07-25T14:26:59Z</time>
      </trkpt>
      <trkpt lat="42.9751110" lon="-0.0783690">
        <ele>517.6</ele>
        <time>2020-07-25T14:27:05Z</time>
      </trkpt>
      <trkpt lat="42.9751980" lon="-0.0785810">
        <ele>517.8</ele>
        <time>2020-07-25T14:27:07Z</time>
      </trkpt>
      <trkpt lat="42.9755020" lon="-0.0791560">
        <ele>517.4</ele>
        <time>2020-07-25T14:27:13Z</time>
      </trkpt>
      <trkpt lat="42.9755580" lon="-0.0792430">
        <ele>517.4</ele>
        <time>2020-07-25T14:27:14Z</time>
      </trkpt>
      <trkpt lat="42.9759320" lon="-0.0797150">
        <ele>517.2</ele>
        <time>2020-07-25T14:27:20Z</time>
      </trkpt>
      <trkpt lat="42.9763530" lon="-0.0801440">
        <ele>517.0</ele>
        <time>2020-07-25T14:27:26Z</time>
      </trkpt>
      <trkpt lat="42.9764240" lon="-0.0802180">
        <ele>517.0</ele>
        <time>2020-07-25T14:27:27Z</time>
      </trkpt>
      <trkpt lat="42.9767090" lon="-0.0805050">
        <ele>515.6</ele>
        <time>2020-07-25T14:27:31Z</time>
      </trkpt>
      <trkpt lat="42.9770630" lon="-0.0808480">
        <ele>514.8</ele>
        <time>2020-07-25T14:27:36Z</time>
      </trkpt>
      <trkpt lat="42.9774990" lon="-0.0812170">
        <ele>515.4</ele>
        <time>2020-07-25T14:27:42Z</time>
      </trkpt>
      <trkpt lat="42.9776420" lon="-0.0813310">
        <ele>515.6</ele>
        <time>2020-07-25T14:27:44Z</time>
      </trkpt>
      <trkpt lat="42.9779270" lon="-0.0815650">
        <ele>514.4</ele>
        <time>2020-07-25T14:27:48Z</time>
      </trkpt>
      <trkpt lat="42.9781480" lon="-0.0817450">
        <ele>513.6</ele>
        <time>2020-07-25T14:27:51Z</time>
      </trkpt>
      <trkpt lat="42.9785890" lon="-0.0821000">
        <ele>513.4</ele>
        <time>2020-07-25T14:27:57Z</time>
      </trkpt>
      <trkpt lat="42.9788050" lon="-0.0822790">
        <ele>513.4</ele>
        <time>2020-07-25T14:28:00Z</time>
      </trkpt>
      <trkpt lat="42.9789460" lon="-0.0824000">
        <ele>513.2</ele>
        <time>2020-07-25T14:28:02Z</time>
      </trkpt>
      <trkpt lat="42.9793120" lon="-0.0826960">
        <ele>513.2</ele>
        <time>2020-07-25T14:28:07Z</time>
      </trkpt>
      <trkpt lat="42.9797550" lon="-0.0830660">
        <ele>512.4</ele>
        <time>2020-07-25T14:28:13Z</time>
      </trkpt>
      <trkpt lat="42.9798990" lon="-0.0831980">
        <ele>512.0</ele>
        <time>2020-07-25T14:28:15Z</time>
      </trkpt>
      <trkpt lat="42.9800430" lon="-0.0833340">
        <ele>512.0</ele>
        <time>2020-07-25T14:28:17Z</time>
      </trkpt>
      <trkpt lat="42.9803250" lon="-0.0836080">
        <ele>512.4</ele>
        <time>2020-07-25T14:28:21Z</time>
      </trkpt>
      <trkpt lat="42.9806730" lon="-0.0839550">
        <ele>512.8</ele>
        <time>2020-07-25T14:28:26Z</time>
      </trkpt>
      <trkpt lat="42.9807430" lon="-0.0840250">
        <ele>512.4</ele>
        <time>2020-07-25T14:28:27Z</time>
      </trkpt>
      <trkpt lat="42.9810310" lon="-0.0843010">
        <ele>511.0</ele>
        <time>2020-07-25T14:28:31Z</time>
      </trkpt>
      <trkpt lat="42.9813190" lon="-0.0845770">
        <ele>510.0</ele>
        <time>2020-07-25T14:28:35Z</time>
      </trkpt>
      <trkpt lat="42.9813910" lon="-0.0846470">
        <ele>510.0</ele>
        <time>2020-07-25T14:28:36Z</time>
      </trkpt>
      <trkpt lat="42.9818240" lon="-0.0850730">
        <ele>509.8</ele>
        <time>2020-07-25T14:28:42Z</time>
      </trkpt>
      <trkpt lat="42.9818950" lon="-0.0851430">
        <ele>509.6</ele>
        <time>2020-07-25T14:28:43Z</time>
      </trkpt>
      <trkpt lat="42.9821070" lon="-0.0853490">
        <ele>508.8</ele>
        <time>2020-07-25T14:28:46Z</time>
      </trkpt>
      <trkpt lat="42.9824460" lon="-0.0856820">
        <ele>508.6</ele>
        <time>2020-07-25T14:28:51Z</time>
      </trkpt>
      <trkpt lat="42.9825120" lon="-0.0857460">
        <ele>508.6</ele>
        <time>2020-07-25T14:28:52Z</time>
      </trkpt>
      <trkpt lat="42.9828310" lon="-0.0860660">
        <ele>509.4</ele>
        <time>2020-07-25T14:28:57Z</time>
      </trkpt>
      <trkpt lat="42.9829620" lon="-0.0861900">
        <ele>509.4</ele>
        <time>2020-07-25T14:28:59Z</time>
      </trkpt>
      <trkpt lat="42.9833630" lon="-0.0865600">
        <ele>509.0</ele>
        <time>2020-07-25T14:29:05Z</time>
      </trkpt>
      <trkpt lat="42.9835570" lon="-0.0867490">
        <ele>508.6</ele>
        <time>2020-07-25T14:29:08Z</time>
      </trkpt>
      <trkpt lat="42.9838800" lon="-0.0870550">
        <ele>507.8</ele>
        <time>2020-07-25T14:29:13Z</time>
      </trkpt>
      <trkpt lat="42.9840120" lon="-0.0871700">
        <ele>507.2</ele>
        <time>2020-07-25T14:29:15Z</time>
      </trkpt>
      <trkpt lat="42.9841500" lon="-0.0872760">
        <ele>506.6</ele>
        <time>2020-07-25T14:29:17Z</time>
      </trkpt>
      <trkpt lat="42.9842210" lon="-0.0873270">
        <ele>506.4</ele>
        <time>2020-07-25T14:29:18Z</time>
      </trkpt>
      <trkpt lat="42.9842940" lon="-0.0873750">
        <ele>506.4</ele>
        <time>2020-07-25T14:29:19Z</time>
      </trkpt>
      <trkpt lat="42.9846630" lon="-0.0875830">
        <ele>507.8</ele>
        <time>2020-07-25T14:29:24Z</time>
      </trkpt>
      <trkpt lat="42.9847380" lon="-0.0876200">
        <ele>507.6</ele>
        <time>2020-07-25T14:29:25Z</time>
      </trkpt>
      <trkpt lat="42.9851090" lon="-0.0878040">
        <ele>506.4</ele>
        <time>2020-07-25T14:29:30Z</time>
      </trkpt>
      <trkpt lat="42.9854760" lon="-0.0879730">
        <ele>506.6</ele>
        <time>2020-07-25T14:29:35Z</time>
      </trkpt>
      <trkpt lat="42.9857740" lon="-0.0881020">
        <ele>506.6</ele>
        <time>2020-07-25T14:29:39Z</time>
      </trkpt>
      <trkpt lat="42.9859940" lon="-0.0882120">
        <ele>505.4</ele>
        <time>2020-07-25T14:29:42Z</time>
      </trkpt>
      <trkpt lat="42.9861400" lon="-0.0882870">
        <ele>505.0</ele>
        <time>2020-07-25T14:29:44Z</time>
      </trkpt>
      <trkpt lat="42.9865840" lon="-0.0884830">
        <ele>505.8</ele>
        <time>2020-07-25T14:29:50Z</time>
      </trkpt>
      <trkpt lat="42.9867400" lon="-0.0885220">
        <ele>505.8</ele>
        <time>2020-07-25T14:29:52Z</time>
      </trkpt>
      <trkpt lat="42.9870530" lon="-0.0885960">
        <ele>505.4</ele>
        <time>2020-07-25T14:29:56Z</time>
      </trkpt>
      <trkpt lat="42.9873560" lon="-0.0886720">
        <ele>505.4</ele>
        <time>2020-07-25T14:30:00Z</time>
      </trkpt>
      <trkpt lat="42.9878100" lon="-0.0887870">
        <ele>505.6</ele>
        <time>2020-07-25T14:30:06Z</time>
      </trkpt>
      <trkpt lat="42.9879580" lon="-0.0888290">
        <ele>506.0</ele>
        <time>2020-07-25T14:30:08Z</time>
      </trkpt>
      <trkpt lat="42.9883690" lon="-0.0889740">
        <ele>506.2</ele>
        <time>2020-07-25T14:30:14Z</time>
      </trkpt>
      <trkpt lat="42.9884370" lon="-0.0890010">
        <ele>506.4</ele>
        <time>2020-07-25T14:30:15Z</time>
      </trkpt>
      <trkpt lat="42.9885020" lon="-0.0890280">
        <ele>506.6</ele>
        <time>2020-07-25T14:30:16Z</time>
      </trkpt>
      <trkpt lat="42.9888760" lon="-0.0891910">
        <ele>507.2</ele>
        <time>2020-07-25T14:30:22Z</time>
      </trkpt>
      <trkpt lat="42.9890540" lon="-0.0892730">
        <ele>507.0</ele>
        <time>2020-07-25T14:30:25Z</time>
      </trkpt>
      <trkpt lat="42.9893990" lon="-0.0894280">
        <ele>507.2</ele>
        <time>2020-07-25T14:30:31Z</time>
      </trkpt>
      <trkpt lat="42.9895110" lon="-0.0894740">
        <ele>507.8</ele>
        <time>2020-07-25T14:30:33Z</time>
      </trkpt>
      <trkpt lat="42.9898640" lon="-0.0896010">
        <ele>508.6</ele>
        <time>2020-07-25T14:30:39Z</time>
      </trkpt>
      <trkpt lat="42.9899880" lon="-0.0896390">
        <ele>508.6</ele>
        <time>2020-07-25T14:30:41Z</time>
      </trkpt>
      <trkpt lat="42.9903950" lon="-0.0897590">
        <ele>507.8</ele>
        <time>2020-07-25T14:30:47Z</time>
      </trkpt>
      <trkpt lat="42.9904670" lon="-0.0897800">
        <ele>507.6</ele>
        <time>2020-07-25T14:30:48Z</time>
      </trkpt>
      <trkpt lat="42.9909110" lon="-0.0899120">
        <ele>506.8</ele>
        <time>2020-07-25T14:30:54Z</time>
      </trkpt>
      <trkpt lat="42.9909890" lon="-0.0899360">
        <ele>506.4</ele>
        <time>2020-07-25T14:30:55Z</time>
      </trkpt>
      <trkpt lat="42.9913120" lon="-0.0900380">
        <ele>505.6</ele>
        <time>2020-07-25T14:30:59Z</time>
      </trkpt>
      <trkpt lat="42.9916500" lon="-0.0901590">
        <ele>504.6</ele>
        <time>2020-07-25T14:31:03Z</time>
      </trkpt>
      <trkpt lat="42.9921390" lon="-0.0903860">
        <ele>504.2</ele>
        <time>2020-07-25T14:31:09Z</time>
      </trkpt>
      <trkpt lat="42.9922190" lon="-0.0904260">
        <ele>504.0</ele>
        <time>2020-07-25T14:31:10Z</time>
      </trkpt>
      <trkpt lat="42.9923790" lon="-0.0905030">
        <ele>503.6</ele>
        <time>2020-07-25T14:31:12Z</time>
      </trkpt>
      <trkpt lat="42.9928440" lon="-0.0907300">
        <ele>503.6</ele>
        <time>2020-07-25T14:31:18Z</time>
      </trkpt>
      <trkpt lat="42.9930640" lon="-0.0908370">
        <ele>503.6</ele>
        <time>2020-07-25T14:31:21Z</time>
      </trkpt>
      <trkpt lat="42.9933890" lon="-0.0910010">
        <ele>504.6</ele>
        <time>2020-07-25T14:31:26Z</time>
      </trkpt>
      <trkpt lat="42.9934520" lon="-0.0910290">
        <ele>504.8</ele>
        <time>2020-07-25T14:31:27Z</time>
      </trkpt>
      <trkpt lat="42.9936340" lon="-0.0911100">
        <ele>505.2</ele>
        <time>2020-07-25T14:31:30Z</time>
      </trkpt>
      <trkpt lat="42.9937520" lon="-0.0911670">
        <ele>505.8</ele>
        <time>2020-07-25T14:31:32Z</time>
      </trkpt>
      <trkpt lat="42.9938670" lon="-0.0912240">
        <ele>506.4</ele>
        <time>2020-07-25T14:31:34Z</time>
      </trkpt>
      <trkpt lat="42.9939260" lon="-0.0912500">
        <ele>506.8</ele>
        <time>2020-07-25T14:31:35Z</time>
      </trkpt>
      <trkpt lat="42.9939840" lon="-0.0912770">
        <ele>506.8</ele>
        <time>2020-07-25T14:31:36Z</time>
      </trkpt>
      <trkpt lat="42.9943220" lon="-0.0914370">
        <ele>507.8</ele>
        <time>2020-07-25T14:31:42Z</time>
      </trkpt>
      <trkpt lat="42.9944960" lon="-0.0915130">
        <ele>508.4</ele>
        <time>2020-07-25T14:31:45Z</time>
      </trkpt>
      <trkpt lat="42.9948710" lon="-0.0915730">
        <ele>507.4</ele>
        <time>2020-07-25T14:31:51Z</time>
      </trkpt>
      <trkpt lat="42.9952490" lon="-0.0915980">
        <ele>507.0</ele>
        <time>2020-07-25T14:31:57Z</time>
      </trkpt>
      <trkpt lat="42.9956110" lon="-0.0917140">
        <ele>507.6</ele>
        <time>2020-07-25T14:32:03Z</time>
      </trkpt>
      <trkpt lat="42.9956700" lon="-0.0917400">
        <ele>507.8</ele>
        <time>2020-07-25T14:32:04Z</time>
      </trkpt>
      <trkpt lat="42.9958470" lon="-0.0918120">
        <ele>509.2</ele>
        <time>2020-07-25T14:32:07Z</time>
      </trkpt>
      <trkpt lat="42.9960720" lon="-0.0918980">
        <ele>509.4</ele>
        <time>2020-07-25T14:32:11Z</time>
      </trkpt>
      <trkpt lat="42.9961780" lon="-0.0919390">
        <ele>509.6</ele>
        <time>2020-07-25T14:32:13Z</time>
      </trkpt>
      <trkpt lat="42.9963890" lon="-0.0920250">
        <ele>510.2</ele>
        <time>2020-07-25T14:32:17Z</time>
      </trkpt>
      <trkpt lat="42.9964960" lon="-0.0920680">
        <ele>510.6</ele>
        <time>2020-07-25T14:32:19Z</time>
      </trkpt>
      <trkpt lat="42.9966440" lon="-0.0921460">
        <ele>511.2</ele>
        <time>2020-07-25T14:32:22Z</time>
      </trkpt>
      <trkpt lat="42.9967290" lon="-0.0922260">
        <ele>511.6</ele>
        <time>2020-07-25T14:32:24Z</time>
      </trkpt>
      <trkpt lat="42.9968880" lon="-0.0924250">
        <ele>512.2</ele>
        <time>2020-07-25T14:32:29Z</time>
      </trkpt>
      <trkpt lat="42.9969120" lon="-0.0924640">
        <ele>512.4</ele>
        <time>2020-07-25T14:32:30Z</time>
      </trkpt>
      <trkpt lat="42.9970160" lon="-0.0926220">
        <ele>513.0</ele>
        <time>2020-07-25T14:32:34Z</time>
      </trkpt>
      <trkpt lat="42.9970730" lon="-0.0927010">
        <ele>513.4</ele>
        <time>2020-07-25T14:32:36Z</time>
      </trkpt>
      <trkpt lat="42.9971000" lon="-0.0927440">
        <ele>513.4</ele>
        <time>2020-07-25T14:32:37Z</time>
      </trkpt>
      <trkpt lat="42.9972760" lon="-0.0930020">
        <ele>514.0</ele>
        <time>2020-07-25T14:32:43Z</time>
      </trkpt>
      <trkpt lat="42.9973060" lon="-0.0930460">
        <ele>514.2</ele>
        <time>2020-07-25T14:32:44Z</time>
      </trkpt>
      <trkpt lat="42.9974220" lon="-0.0932170">
        <ele>514.4</ele>
        <time>2020-07-25T14:32:48Z</time>
      </trkpt>
      <trkpt lat="42.9975080" lon="-0.0933430">
        <ele>514.8</ele>
        <time>2020-07-25T14:32:51Z</time>
      </trkpt>
      <trkpt lat="42.9975380" lon="-0.0933860">
        <ele>515.0</ele>
        <time>2020-07-25T14:32:52Z</time>
      </trkpt>
      <trkpt lat="42.9975670" lon="-0.0934270">
        <ele>515.2</ele>
        <time>2020-07-25T14:32:53Z</time>
      </trkpt>
      <trkpt lat="42.9975930" lon="-0.0934690">
        <ele>515.6</ele>
        <time>2020-07-25T14:32:54Z</time>
      </trkpt>
      <trkpt lat="42.9977190" lon="-0.0936610">
        <ele>516.8</ele>
        <time>2020-07-25T14:32:59Z</time>
      </trkpt>
      <trkpt lat="42.9978410" lon="-0.0938570">
        <ele>518.0</ele>
        <time>2020-07-25T14:33:04Z</time>
      </trkpt>
      <trkpt lat="42.9979140" lon="-0.0939810">
        <ele>518.6</ele>
        <time>2020-07-25T14:33:07Z</time>
      </trkpt>
      <trkpt lat="42.9980590" lon="-0.0942360">
        <ele>519.4</ele>
        <time>2020-07-25T14:33:13Z</time>
      </trkpt>
      <trkpt lat="42.9981400" lon="-0.0943660">
        <ele>520.4</ele>
        <time>2020-07-25T14:33:16Z</time>
      </trkpt>
      <trkpt lat="42.9983380" lon="-0.0946430">
        <ele>520.6</ele>
        <time>2020-07-25T14:33:22Z</time>
      </trkpt>
      <trkpt lat="42.9983700" lon="-0.0946900">
        <ele>520.8</ele>
        <time>2020-07-25T14:33:23Z</time>
      </trkpt>
      <trkpt lat="42.9985820" lon="-0.0949880">
        <ele>520.4</ele>
        <time>2020-07-25T14:33:29Z</time>
      </trkpt>
      <trkpt lat="42.9986190" lon="-0.0950430">
        <ele>520.4</ele>
        <time>2020-07-25T14:33:30Z</time>
      </trkpt>
      <trkpt lat="42.9987320" lon="-0.0952050">
        <ele>520.0</ele>
        <time>2020-07-25T14:33:33Z</time>
      </trkpt>
      <trkpt lat="42.9987730" lon="-0.0952550">
        <ele>520.0</ele>
        <time>2020-07-25T14:33:34Z</time>
      </trkpt>
      <trkpt lat="42.9988550" lon="-0.0953560">
        <ele>519.8</ele>
        <time>2020-07-25T14:33:36Z</time>
      </trkpt>
      <trkpt lat="42.9990040" lon="-0.0956180">
        <ele>520.6</ele>
        <time>2020-07-25T14:33:41Z</time>
      </trkpt>
      <trkpt lat="42.9990250" lon="-0.0957140">
        <ele>520.8</ele>
        <time>2020-07-25T14:33:44Z</time>
      </trkpt>
      <trkpt lat="42.9990460" lon="-0.0957460">
        <ele>519.8</ele>
        <time>2020-07-25T14:36:05Z</time>
      </trkpt>
      <trkpt lat="42.9990700" lon="-0.0957640">
        <ele>519.8</ele>
        <time>2020-07-25T14:36:06Z</time>
      </trkpt>
      <trkpt lat="42.9991230" lon="-0.0958190">
        <ele>520.0</ele>
        <time>2020-07-25T14:36:08Z</time>
      </trkpt>
      <trkpt lat="42.9992980" lon="-0.0960670">
        <ele>520.6</ele>
        <time>2020-07-25T14:36:14Z</time>
      </trkpt>
      <trkpt lat="42.9994460" lon="-0.0962720">
        <ele>521.0</ele>
        <time>2020-07-25T14:36:18Z</time>
      </trkpt>
      <trkpt lat="42.9994830" lon="-0.0963220">
        <ele>521.0</ele>
        <time>2020-07-25T14:36:19Z</time>
      </trkpt>
      <trkpt lat="42.9995170" lon="-0.0963740">
        <ele>521.0</ele>
        <time>2020-07-25T14:36:20Z</time>
      </trkpt>
      <trkpt lat="42.9995500" lon="-0.0964260">
        <ele>521.2</ele>
        <time>2020-07-25T14:36:21Z</time>
      </trkpt>
      <trkpt lat="42.9995860" lon="-0.0964770">
        <ele>521.2</ele>
        <time>2020-07-25T14:36:22Z</time>
      </trkpt>
      <trkpt lat="42.9996220" lon="-0.0965270">
        <ele>521.2</ele>
        <time>2020-07-25T14:36:23Z</time>
      </trkpt>
      <trkpt lat="42.9996910" lon="-0.0966230">
        <ele>521.4</ele>
        <time>2020-07-25T14:36:25Z</time>
      </trkpt>
      <trkpt lat="42.9998190" lon="-0.0968150">
        <ele>521.6</ele>
        <time>2020-07-25T14:36:29Z</time>
      </trkpt>
      <trkpt lat="42.9998800" lon="-0.0969130">
        <ele>522.2</ele>
        <time>2020-07-25T14:36:31Z</time>
      </trkpt>
      <trkpt lat="43.0000780" lon="-0.0972060">
        <ele>522.2</ele>
        <time>2020-07-25T14:36:37Z</time>
      </trkpt>
      <trkpt lat="43.0001120" lon="-0.0972550">
        <ele>522.4</ele>
        <time>2020-07-25T14:36:38Z</time>
      </trkpt>
      <trkpt lat="43.0002110" lon="-0.0974060">
        <ele>523.0</ele>
        <time>2020-07-25T14:36:41Z</time>
      </trkpt>
      <trkpt lat="43.0004030" lon="-0.0977150">
        <ele>523.4</ele>
        <time>2020-07-25T14:36:47Z</time>
      </trkpt>
      <trkpt lat="43.0005000" lon="-0.0978810">
        <ele>523.6</ele>
        <time>2020-07-25T14:36:50Z</time>
      </trkpt>
      <trkpt lat="43.0006390" lon="-0.0980980">
        <ele>524.6</ele>
        <time>2020-07-25T14:36:54Z</time>
      </trkpt>
      <trkpt lat="43.0008160" lon="-0.0983580">
        <ele>524.8</ele>
        <time>2020-07-25T14:36:59Z</time>
      </trkpt>
      <trkpt lat="43.0010240" lon="-0.0986510">
        <ele>524.6</ele>
        <time>2020-07-25T14:37:05Z</time>
      </trkpt>
      <trkpt lat="43.0011650" lon="-0.0988180">
        <ele>525.0</ele>
        <time>2020-07-25T14:37:09Z</time>
      </trkpt>
      <trkpt lat="43.0013090" lon="-0.0989830">
        <ele>525.6</ele>
        <time>2020-07-25T14:37:13Z</time>
      </trkpt>
      <trkpt lat="43.0014090" lon="-0.0991110">
        <ele>525.6</ele>
        <time>2020-07-25T14:37:16Z</time>
      </trkpt>
      <trkpt lat="43.0014910" lon="-0.0991600">
        <ele>525.6</ele>
        <time>2020-07-25T14:37:18Z</time>
      </trkpt>
      <trkpt lat="43.0016250" lon="-0.0992010">
        <ele>525.2</ele>
        <time>2020-07-25T14:37:21Z</time>
      </trkpt>
      <trkpt lat="43.0017200" lon="-0.0992340">
        <ele>525.0</ele>
        <time>2020-07-25T14:37:23Z</time>
      </trkpt>
      <trkpt lat="43.0017710" lon="-0.0992370">
        <ele>525.0</ele>
        <time>2020-07-25T14:37:24Z</time>
      </trkpt>
      <trkpt lat="43.0019840" lon="-0.0991990">
        <ele>524.4</ele>
        <time>2020-07-25T14:37:28Z</time>
      </trkpt>
      <trkpt lat="43.0020910" lon="-0.0991760">
        <ele>524.4</ele>
        <time>2020-07-25T14:37:30Z</time>
      </trkpt>
      <trkpt lat="43.0023580" lon="-0.0991230">
        <ele>523.4</ele>
        <time>2020-07-25T14:37:35Z</time>
      </trkpt>
      <trkpt lat="43.0025740" lon="-0.0991030">
        <ele>523.0</ele>
        <time>2020-07-25T14:37:39Z</time>
      </trkpt>
      <trkpt lat="43.0028990" lon="-0.0990540">
        <ele>522.6</ele>
        <time>2020-07-25T14:37:45Z</time>
      </trkpt>
      <trkpt lat="43.0029530" lon="-0.0990420">
        <ele>522.6</ele>
        <time>2020-07-25T14:37:46Z</time>
      </trkpt>
      <trkpt lat="43.0030660" lon="-0.0990290">
        <ele>522.6</ele>
        <time>2020-07-25T14:37:48Z</time>
      </trkpt>
      <trkpt lat="43.0031190" lon="-0.0990230">
        <ele>522.4</ele>
        <time>2020-07-25T14:37:49Z</time>
      </trkpt>
      <trkpt lat="43.0031730" lon="-0.0990160">
        <ele>522.2</ele>
        <time>2020-07-25T14:37:50Z</time>
      </trkpt>
      <trkpt lat="43.0032820" lon="-0.0989960">
        <ele>522.0</ele>
        <time>2020-07-25T14:37:52Z</time>
      </trkpt>
      <trkpt lat="43.0033360" lon="-0.0989870">
        <ele>522.0</ele>
        <time>2020-07-25T14:37:53Z</time>
      </trkpt>
      <trkpt lat="43.0036660" lon="-0.0989370">
        <ele>521.6</ele>
        <time>2020-07-25T14:37:59Z</time>
      </trkpt>
      <trkpt lat="43.0038260" lon="-0.0989070">
        <ele>521.4</ele>
        <time>2020-07-25T14:38:02Z</time>
      </trkpt>
      <trkpt lat="43.0040290" lon="-0.0988790">
        <ele>521.2</ele>
        <time>2020-07-25T14:38:06Z</time>
      </trkpt>
      <trkpt lat="43.0041730" lon="-0.0988660">
        <ele>520.6</ele>
        <time>2020-07-25T14:38:09Z</time>
      </trkpt>
      <trkpt lat="43.0042760" lon="-0.0988520">
        <ele>520.2</ele>
        <time>2020-07-25T14:38:11Z</time>
      </trkpt>
      <trkpt lat="43.0045430" lon="-0.0988200">
        <ele>520.0</ele>
        <time>2020-07-25T14:38:16Z</time>
      </trkpt>
      <trkpt lat="43.0047520" lon="-0.0988040">
        <ele>519.8</ele>
        <time>2020-07-25T14:38:20Z</time>
      </trkpt>
      <trkpt lat="43.0048040" lon="-0.0988240">
        <ele>519.6</ele>
        <time>2020-07-25T14:38:21Z</time>
      </trkpt>
      <trkpt lat="43.0048510" lon="-0.0988640">
        <ele>519.6</ele>
        <time>2020-07-25T14:38:22Z</time>
      </trkpt>
      <trkpt lat="43.0049040" lon="-0.0989570">
        <ele>519.6</ele>
        <time>2020-07-25T14:38:24Z</time>
      </trkpt>
      <trkpt lat="43.0048730" lon="-0.0990730">
        <ele>520.2</ele>
        <time>2020-07-25T14:38:27Z</time>
      </trkpt>
      <trkpt lat="43.0048600" lon="-0.0991030">
        <ele>520.6</ele>
        <time>2020-07-25T14:38:28Z</time>
      </trkpt>
      <trkpt lat="43.0039690" lon="-0.0989560">
        <ele>439.0</ele>
        <time>2020-07-26T08:12:43Z</time>
      </trkpt>
      <trkpt lat="43.0039320" lon="-0.0989600">
        <ele>438.0</ele>
        <time>2020-07-26T08:12:44Z</time>
      </trkpt>
      <trkpt lat="43.0038900" lon="-0.0989660">
        <ele>437.6</ele>
        <time>2020-07-26T08:12:45Z</time>
      </trkpt>
      <trkpt lat="43.0037090" lon="-0.0989740">
        <ele>437.8</ele>
        <time>2020-07-26T08:12:49Z</time>
      </trkpt>
      <trkpt lat="43.0034570" lon="-0.0989940">
        <ele>437.8</ele>
        <time>2020-07-26T08:12:54Z</time>
      </trkpt>
      <trkpt lat="43.0033500" lon="-0.0990010">
        <ele>438.0</ele>
        <time>2020-07-26T08:12:56Z</time>
      </trkpt>
      <trkpt lat="43.0031440" lon="-0.0990290">
        <ele>438.8</ele>
        <time>2020-07-26T08:13:00Z</time>
      </trkpt>
      <trkpt lat="43.0029880" lon="-0.0990630">
        <ele>439.2</ele>
        <time>2020-07-26T08:13:03Z</time>
      </trkpt>
      <trkpt lat="43.0027760" lon="-0.0990860">
        <ele>439.4</ele>
        <time>2020-07-26T08:13:07Z</time>
      </trkpt>
      <trkpt lat="43.0026200" lon="-0.0991090">
        <ele>439.4</ele>
        <time>2020-07-26T08:13:10Z</time>
      </trkpt>
      <trkpt lat="43.0025170" lon="-0.0991270">
        <ele>439.8</ele>
        <time>2020-07-26T08:13:12Z</time>
      </trkpt>
      <trkpt lat="43.0024660" lon="-0.0991350">
        <ele>439.8</ele>
        <time>2020-07-26T08:13:13Z</time>
      </trkpt>
      <trkpt lat="43.0022030" lon="-0.0991990">
        <ele>440.6</ele>
        <time>2020-07-26T08:13:18Z</time>
      </trkpt>
      <trkpt lat="43.0020960" lon="-0.0992310">
        <ele>440.8</ele>
        <time>2020-07-26T08:13:20Z</time>
      </trkpt>
      <trkpt lat="43.0020430" lon="-0.0992450">
        <ele>441.0</ele>
        <time>2020-07-26T08:13:21Z</time>
      </trkpt>
      <trkpt lat="43.0018870" lon="-0.0992900">
        <ele>441.0</ele>
        <time>2020-07-26T08:13:24Z</time>
      </trkpt>
      <trkpt lat="43.0017920" lon="-0.0993200">
        <ele>441.2</ele>
        <time>2020-07-26T08:13:26Z</time>
      </trkpt>
      <trkpt lat="43.0016550" lon="-0.0993570">
        <ele>442.0</ele>
        <time>2020-07-26T08:13:30Z</time>
      </trkpt>
      <trkpt lat="43.0016230" lon="-0.0993760">
        <ele>442.2</ele>
        <time>2020-07-26T08:13:31Z</time>
      </trkpt>
      <trkpt lat="43.0015510" lon="-0.0994200">
        <ele>442.6</ele>
        <time>2020-07-26T08:13:33Z</time>
      </trkpt>
      <trkpt lat="43.0014690" lon="-0.0994150">
        <ele>442.8</ele>
        <time>2020-07-26T08:13:35Z</time>
      </trkpt>
      <trkpt lat="43.0013970" lon="-0.0993400">
        <ele>443.0</ele>
        <time>2020-07-26T08:13:37Z</time>
      </trkpt>
      <trkpt lat="43.0013610" lon="-0.0992880">
        <ele>443.0</ele>
        <time>2020-07-26T08:13:38Z</time>
      </trkpt>
      <trkpt lat="43.0011110" lon="-0.0989320">
        <ele>443.0</ele>
        <time>2020-07-26T08:13:44Z</time>
      </trkpt>
      <trkpt lat="43.0010660" lon="-0.0988680">
        <ele>443.0</ele>
        <time>2020-07-26T08:13:45Z</time>
      </trkpt>
      <trkpt lat="43.0007930" lon="-0.0984720">
        <ele>442.2</ele>
        <time>2020-07-26T08:13:51Z</time>
      </trkpt>
      <trkpt lat="43.0007440" lon="-0.0984010">
        <ele>442.0</ele>
        <time>2020-07-26T08:13:52Z</time>
      </trkpt>
      <trkpt lat="43.0006970" lon="-0.0983220">
        <ele>442.0</ele>
        <time>2020-07-26T08:13:53Z</time>
      </trkpt>
      <trkpt lat="43.0004000" lon="-0.0978520">
        <ele>441.6</ele>
        <time>2020-07-26T08:13:59Z</time>
      </trkpt>
      <trkpt lat="43.0002970" lon="-0.0976950">
        <ele>441.0</ele>
        <time>2020-07-26T08:14:01Z</time>
      </trkpt>
      <trkpt lat="43.0002450" lon="-0.0976190">
        <ele>441.0</ele>
        <time>2020-07-26T08:14:02Z</time>
      </trkpt>
      <trkpt lat="43.0000270" lon="-0.0973100">
        <ele>440.2</ele>
        <time>2020-07-26T08:14:06Z</time>
      </trkpt>
      <trkpt lat="42.9999220" lon="-0.0971520">
        <ele>440.0</ele>
        <time>2020-07-26T08:14:08Z</time>
      </trkpt>
      <trkpt lat="42.9997640" lon="-0.0969190">
        <ele>439.8</ele>
        <time>2020-07-26T08:14:11Z</time>
      </trkpt>
      <trkpt lat="42.9994510" lon="-0.0964490">
        <ele>439.6</ele>
        <time>2020-07-26T08:14:17Z</time>
      </trkpt>
      <trkpt lat="42.9992280" lon="-0.0961140">
        <ele>438.8</ele>
        <time>2020-07-26T08:14:21Z</time>
      </trkpt>
      <trkpt lat="42.9990510" lon="-0.0958560">
        <ele>437.8</ele>
        <time>2020-07-26T08:14:24Z</time>
      </trkpt>
      <trkpt lat="42.9989310" lon="-0.0956790">
        <ele>437.2</ele>
        <time>2020-07-26T08:14:26Z</time>
      </trkpt>
      <trkpt lat="42.9986010" lon="-0.0951820">
        <ele>437.4</ele>
        <time>2020-07-26T08:14:32Z</time>
      </trkpt>
      <trkpt lat="42.9985490" lon="-0.0951070">
        <ele>437.6</ele>
        <time>2020-07-26T08:14:33Z</time>
      </trkpt>
      <trkpt lat="42.9982440" lon="-0.0946560">
        <ele>438.4</ele>
        <time>2020-07-26T08:14:39Z</time>
      </trkpt>
      <trkpt lat="42.9980430" lon="-0.0943460">
        <ele>438.0</ele>
        <time>2020-07-26T08:14:43Z</time>
      </trkpt>
      <trkpt lat="42.9977340" lon="-0.0938360">
        <ele>437.0</ele>
        <time>2020-07-26T08:14:49Z</time>
      </trkpt>
      <trkpt lat="42.9976790" lon="-0.0937430">
        <ele>436.6</ele>
        <time>2020-07-26T08:14:50Z</time>
      </trkpt>
      <trkpt lat="42.9975660" lon="-0.0935580">
        <ele>435.0</ele>
        <time>2020-07-26T08:14:52Z</time>
      </trkpt>
      <trkpt lat="42.9975060" lon="-0.0934710">
        <ele>434.4</ele>
        <time>2020-07-26T08:14:53Z</time>
      </trkpt>
      <trkpt lat="42.9974450" lon="-0.0933830">
        <ele>434.0</ele>
        <time>2020-07-26T08:14:54Z</time>
      </trkpt>
      <trkpt lat="42.9973830" lon="-0.0932920">
        <ele>433.6</ele>
        <time>2020-07-26T08:14:55Z</time>
      </trkpt>
      <trkpt lat="42.9972660" lon="-0.0931110">
        <ele>432.6</ele>
        <time>2020-07-26T08:14:57Z</time>
      </trkpt>
      <trkpt lat="42.9970240" lon="-0.0927480">
        <ele>431.4</ele>
        <time>2020-07-26T08:15:01Z</time>
      </trkpt>
      <trkpt lat="42.9969090" lon="-0.0925740">
        <ele>430.6</ele>
        <time>2020-07-26T08:15:03Z</time>
      </trkpt>
      <trkpt lat="42.9968560" lon="-0.0924930">
        <ele>430.4</ele>
        <time>2020-07-26T08:15:04Z</time>
      </trkpt>
      <trkpt lat="42.9966310" lon="-0.0921870">
        <ele>429.8</ele>
        <time>2020-07-26T08:15:08Z</time>
      </trkpt>
      <trkpt lat="42.9965620" lon="-0.0921270">
        <ele>429.4</ele>
        <time>2020-07-26T08:15:09Z</time>
      </trkpt>
      <trkpt lat="42.9964860" lon="-0.0920770">
        <ele>429.2</ele>
        <time>2020-07-26T08:15:10Z</time>
      </trkpt>
      <trkpt lat="42.9962430" lon="-0.0919720">
        <ele>428.8</ele>
        <time>2020-07-26T08:15:13Z</time>
      </trkpt>
      <trkpt lat="42.9959130" lon="-0.0918570">
        <ele>428.0</ele>
        <time>2020-07-26T08:15:17Z</time>
      </trkpt>
      <trkpt lat="42.9956690" lon="-0.0917660">
        <ele>427.0</ele>
        <time>2020-07-26T08:15:20Z</time>
      </trkpt>
      <trkpt lat="42.9955900" lon="-0.0917340">
        <ele>426.4</ele>
        <time>2020-07-26T08:15:21Z</time>
      </trkpt>
      <trkpt lat="42.9955090" lon="-0.0917020">
        <ele>425.8</ele>
        <time>2020-07-26T08:15:22Z</time>
      </trkpt>
      <trkpt lat="42.9954260" lon="-0.0916720">
        <ele>425.2</ele>
        <time>2020-07-26T08:15:23Z</time>
      </trkpt>
      <trkpt lat="42.9952590" lon="-0.0916240">
        <ele>424.8</ele>
        <time>2020-07-26T08:15:25Z</time>
      </trkpt>
      <trkpt lat="42.9951720" lon="-0.0916060">
        <ele>424.8</ele>
        <time>2020-07-26T08:15:26Z</time>
      </trkpt>
      <trkpt lat="42.9950850" lon="-0.0915940">
        <ele>424.8</ele>
        <time>2020-07-26T08:15:27Z</time>
      </trkpt>
      <trkpt lat="42.9948250" lon="-0.0915720">
        <ele>425.2</ele>
        <time>2020-07-26T08:15:30Z</time>
      </trkpt>
      <trkpt lat="42.9947380" lon="-0.0915690">
        <ele>425.2</ele>
        <time>2020-07-26T08:15:31Z</time>
      </trkpt>
      <trkpt lat="42.9945690" lon="-0.0915670">
        <ele>424.8</ele>
        <time>2020-07-26T08:15:33Z</time>
      </trkpt>
      <trkpt lat="42.9944860" lon="-0.0915560">
        <ele>424.8</ele>
        <time>2020-07-26T08:15:34Z</time>
      </trkpt>
      <trkpt lat="42.9942350" lon="-0.0914700">
        <ele>424.4</ele>
        <time>2020-07-26T08:15:37Z</time>
      </trkpt>
      <trkpt lat="42.9940690" lon="-0.0913870">
        <ele>424.4</ele>
        <time>2020-07-26T08:15:39Z</time>
      </trkpt>
      <trkpt lat="42.9938190" lon="-0.0912680">
        <ele>424.2</ele>
        <time>2020-07-26T08:15:42Z</time>
      </trkpt>
      <trkpt lat="42.9937370" lon="-0.0912310">
        <ele>424.2</ele>
        <time>2020-07-26T08:15:43Z</time>
      </trkpt>
      <trkpt lat="42.9936570" lon="-0.0911940">
        <ele>424.0</ele>
        <time>2020-07-26T08:15:44Z</time>
      </trkpt>
      <trkpt lat="42.9934940" lon="-0.0911180">
        <ele>423.6</ele>
        <time>2020-07-26T08:15:46Z</time>
      </trkpt>
      <trkpt lat="42.9934110" lon="-0.0910810">
        <ele>423.6</ele>
        <time>2020-07-26T08:15:47Z</time>
      </trkpt>
      <trkpt lat="42.9931610" lon="-0.0909640">
        <ele>423.0</ele>
        <time>2020-07-26T08:15:50Z</time>
      </trkpt>
      <trkpt lat="42.9929940" lon="-0.0908900">
        <ele>422.6</ele>
        <time>2020-07-26T08:15:52Z</time>
      </trkpt>
      <trkpt lat="42.9926650" lon="-0.0907280">
        <ele>421.6</ele>
        <time>2020-07-26T08:15:56Z</time>
      </trkpt>
      <trkpt lat="42.9921860" lon="-0.0904920">
        <ele>422.2</ele>
        <time>2020-07-26T08:16:02Z</time>
      </trkpt>
      <trkpt lat="42.9918870" lon="-0.0903400">
        <ele>422.4</ele>
        <time>2020-07-26T08:16:06Z</time>
      </trkpt>
      <trkpt lat="42.9917390" lon="-0.0902680">
        <ele>422.4</ele>
        <time>2020-07-26T08:16:08Z</time>
      </trkpt>
      <trkpt lat="42.9912950" lon="-0.0900830">
        <ele>422.4</ele>
        <time>2020-07-26T08:16:14Z</time>
      </trkpt>
      <trkpt lat="42.9911500" lon="-0.0900350">
        <ele>422.4</ele>
        <time>2020-07-26T08:16:16Z</time>
      </trkpt>
      <trkpt lat="42.9910780" lon="-0.0900140">
        <ele>422.6</ele>
        <time>2020-07-26T08:16:17Z</time>
      </trkpt>
      <trkpt lat="42.9907350" lon="-0.0899100">
        <ele>423.6</ele>
        <time>2020-07-26T08:16:22Z</time>
      </trkpt>
      <trkpt lat="42.9906010" lon="-0.0898730">
        <ele>423.8</ele>
        <time>2020-07-26T08:16:24Z</time>
      </trkpt>
      <trkpt lat="42.9902800" lon="-0.0897820">
        <ele>424.8</ele>
        <time>2020-07-26T08:16:29Z</time>
      </trkpt>
      <trkpt lat="42.9900890" lon="-0.0897250">
        <ele>425.4</ele>
        <time>2020-07-26T08:16:32Z</time>
      </trkpt>
      <trkpt lat="42.9900260" lon="-0.0897080">
        <ele>425.4</ele>
        <time>2020-07-26T08:16:33Z</time>
      </trkpt>
      <trkpt lat="42.9897800" lon="-0.0896380">
        <ele>425.8</ele>
        <time>2020-07-26T08:16:37Z</time>
      </trkpt>
      <trkpt lat="42.9895880" lon="-0.0895750">
        <ele>426.2</ele>
        <time>2020-07-26T08:16:40Z</time>
      </trkpt>
      <trkpt lat="42.9893820" lon="-0.0894890">
        <ele>426.2</ele>
        <time>2020-07-26T08:16:43Z</time>
      </trkpt>
      <trkpt lat="42.9893120" lon="-0.0894580">
        <ele>425.8</ele>
        <time>2020-07-26T08:16:44Z</time>
      </trkpt>
      <trkpt lat="42.9890950" lon="-0.0893600">
        <ele>424.6</ele>
        <time>2020-07-26T08:16:47Z</time>
      </trkpt>
      <trkpt lat="42.9886460" lon="-0.0891570">
        <ele>424.4</ele>
        <time>2020-07-26T08:16:53Z</time>
      </trkpt>
      <trkpt lat="42.9884190" lon="-0.0890540">
        <ele>424.0</ele>
        <time>2020-07-26T08:16:56Z</time>
      </trkpt>
      <trkpt lat="42.9881890" lon="-0.0889550">
        <ele>423.6</ele>
        <time>2020-07-26T08:16:59Z</time>
      </trkpt>
      <trkpt lat="42.9880330" lon="-0.0888980">
        <ele>423.4</ele>
        <time>2020-07-26T08:17:01Z</time>
      </trkpt>
      <trkpt lat="42.9877930" lon="-0.0888320">
        <ele>423.4</ele>
        <time>2020-07-26T08:17:04Z</time>
      </trkpt>
      <trkpt lat="42.9873200" lon="-0.0887220">
        <ele>423.6</ele>
        <time>2020-07-26T08:17:10Z</time>
      </trkpt>
      <trkpt lat="42.9871630" lon="-0.0886840">
        <ele>424.0</ele>
        <time>2020-07-26T08:17:12Z</time>
      </trkpt>
      <trkpt lat="42.9866930" lon="-0.0885710">
        <ele>423.8</ele>
        <time>2020-07-26T08:17:18Z</time>
      </trkpt>
      <trkpt lat="42.9864660" lon="-0.0885160">
        <ele>424.0</ele>
        <time>2020-07-26T08:17:21Z</time>
      </trkpt>
      <trkpt lat="42.9860270" lon="-0.0883540">
        <ele>424.6</ele>
        <time>2020-07-26T08:17:27Z</time>
      </trkpt>
      <trkpt lat="42.9859560" lon="-0.0883200">
        <ele>424.6</ele>
        <time>2020-07-26T08:17:28Z</time>
      </trkpt>
      <trkpt lat="42.9855370" lon="-0.0880980">
        <ele>425.4</ele>
        <time>2020-07-26T08:17:34Z</time>
      </trkpt>
      <trkpt lat="42.9853300" lon="-0.0879910">
        <ele>425.8</ele>
        <time>2020-07-26T08:17:37Z</time>
      </trkpt>
      <trkpt lat="42.9852610" lon="-0.0879540">
        <ele>425.8</ele>
        <time>2020-07-26T08:17:38Z</time>
      </trkpt>
      <trkpt lat="42.9848490" lon="-0.0877460">
        <ele>426.0</ele>
        <time>2020-07-26T08:17:44Z</time>
      </trkpt>
      <trkpt lat="42.9847090" lon="-0.0876750">
        <ele>426.0</ele>
        <time>2020-07-26T08:17:46Z</time>
      </trkpt>
      <trkpt lat="42.9844320" lon="-0.0875250">
        <ele>426.8</ele>
        <time>2020-07-26T08:17:50Z</time>
      </trkpt>
      <trkpt lat="42.9840290" lon="-0.0872760">
        <ele>427.2</ele>
        <time>2020-07-26T08:17:56Z</time>
      </trkpt>
      <trkpt lat="42.9836590" lon="-0.0869540">
        <ele>427.4</ele>
        <time>2020-07-26T08:18:02Z</time>
      </trkpt>
      <trkpt lat="42.9835360" lon="-0.0868370">
        <ele>427.2</ele>
        <time>2020-07-26T08:18:04Z</time>
      </trkpt>
      <trkpt lat="42.9833550" lon="-0.0866590">
        <ele>427.0</ele>
        <time>2020-07-26T08:18:07Z</time>
      </trkpt>
      <trkpt lat="42.9830520" lon="-0.0863670">
        <ele>428.0</ele>
        <time>2020-07-26T08:18:12Z</time>
      </trkpt>
      <trkpt lat="42.9829910" lon="-0.0863080">
        <ele>428.0</ele>
        <time>2020-07-26T08:18:13Z</time>
      </trkpt>
      <trkpt lat="42.9826250" lon="-0.0859520">
        <ele>428.2</ele>
        <time>2020-07-26T08:18:19Z</time>
      </trkpt>
      <trkpt lat="42.9823750" lon="-0.0857090">
        <ele>428.4</ele>
        <time>2020-07-26T08:18:23Z</time>
      </trkpt>
      <trkpt lat="42.9823130" lon="-0.0856480">
        <ele>428.4</ele>
        <time>2020-07-26T08:18:24Z</time>
      </trkpt>
      <trkpt lat="42.9821250" lon="-0.0854680">
        <ele>428.2</ele>
        <time>2020-07-26T08:18:27Z</time>
      </trkpt>
      <trkpt lat="42.9817500" lon="-0.0850920">
        <ele>428.0</ele>
        <time>2020-07-26T08:18:33Z</time>
      </trkpt>
      <trkpt lat="42.9814350" lon="-0.0847860">
        <ele>428.0</ele>
        <time>2020-07-26T08:18:38Z</time>
      </trkpt>
      <trkpt lat="42.9811930" lon="-0.0845470">
        <ele>428.2</ele>
        <time>2020-07-26T08:18:42Z</time>
      </trkpt>
      <trkpt lat="42.9808360" lon="-0.0841990">
        <ele>429.0</ele>
        <time>2020-07-26T08:18:48Z</time>
      </trkpt>
      <trkpt lat="42.9806590" lon="-0.0840260">
        <ele>429.4</ele>
        <time>2020-07-26T08:18:51Z</time>
      </trkpt>
      <trkpt lat="42.9804860" lon="-0.0838590">
        <ele>429.6</ele>
        <time>2020-07-26T08:18:54Z</time>
      </trkpt>
      <trkpt lat="42.9801380" lon="-0.0835200">
        <ele>429.6</ele>
        <time>2020-07-26T08:19:00Z</time>
      </trkpt>
      <trkpt lat="42.9798390" lon="-0.0832350">
        <ele>430.0</ele>
        <time>2020-07-26T08:19:05Z</time>
      </trkpt>
      <trkpt lat="42.9797780" lon="-0.0831790">
        <ele>430.2</ele>
        <time>2020-07-26T08:19:06Z</time>
      </trkpt>
      <trkpt lat="42.9794060" lon="-0.0828560">
        <ele>430.4</ele>
        <time>2020-07-26T08:19:12Z</time>
      </trkpt>
      <trkpt lat="42.9792210" lon="-0.0827010">
        <ele>430.8</ele>
        <time>2020-07-26T08:19:15Z</time>
      </trkpt>
      <trkpt lat="42.9790370" lon="-0.0825480">
        <ele>431.2</ele>
        <time>2020-07-26T08:19:18Z</time>
      </trkpt>
      <trkpt lat="42.9786690" lon="-0.0822500">
        <ele>431.4</ele>
        <time>2020-07-26T08:19:24Z</time>
      </trkpt>
      <trkpt lat="42.9783600" lon="-0.0819990">
        <ele>431.6</ele>
        <time>2020-07-26T08:19:29Z</time>
      </trkpt>
      <trkpt lat="42.9781750" lon="-0.0818460">
        <ele>431.8</ele>
        <time>2020-07-26T08:19:32Z</time>
      </trkpt>
      <trkpt lat="42.9778000" lon="-0.0815330">
        <ele>432.4</ele>
        <time>2020-07-26T08:19:38Z</time>
      </trkpt>
      <trkpt lat="42.9777370" lon="-0.0814840">
        <ele>432.6</ele>
        <time>2020-07-26T08:19:39Z</time>
      </trkpt>
      <trkpt lat="42.9773630" lon="-0.0811880">
        <ele>432.6</ele>
        <time>2020-07-26T08:19:45Z</time>
      </trkpt>
      <trkpt lat="42.9771800" lon="-0.0810380">
        <ele>433.0</ele>
        <time>2020-07-26T08:19:48Z</time>
      </trkpt>
      <trkpt lat="42.9769930" lon="-0.0808790">
        <ele>433.6</ele>
        <time>2020-07-26T08:19:51Z</time>
      </trkpt>
      <trkpt lat="42.9768680" lon="-0.0807670">
        <ele>433.6</ele>
        <time>2020-07-26T08:19:53Z</time>
      </trkpt>
      <trkpt lat="42.9767450" lon="-0.0806480">
        <ele>433.8</ele>
        <time>2020-07-26T08:19:55Z</time>
      </trkpt>
      <trkpt lat="42.9766830" lon="-0.0805890">
        <ele>433.8</ele>
        <time>2020-07-26T08:19:56Z</time>
      </trkpt>
      <trkpt lat="42.9765600" lon="-0.0804680">
        <ele>433.8</ele>
        <time>2020-07-26T08:19:58Z</time>
      </trkpt>
      <trkpt lat="42.9763160" lon="-0.0802210">
        <ele>433.8</ele>
        <time>2020-07-26T08:20:02Z</time>
      </trkpt>
      <trkpt lat="42.9760750" lon="-0.0799790">
        <ele>434.0</ele>
        <time>2020-07-26T08:20:06Z</time>
      </trkpt>
      <trkpt lat="42.9757270" lon="-0.0796170">
        <ele>434.6</ele>
        <time>2020-07-26T08:20:12Z</time>
      </trkpt>
      <trkpt lat="42.9756160" lon="-0.0794930">
        <ele>434.8</ele>
        <time>2020-07-26T08:20:14Z</time>
      </trkpt>
      <trkpt lat="42.9755620" lon="-0.0794270">
        <ele>435.0</ele>
        <time>2020-07-26T08:20:15Z</time>
      </trkpt>
      <trkpt lat="42.9754570" lon="-0.0792860">
        <ele>435.0</ele>
        <time>2020-07-26T08:20:17Z</time>
      </trkpt>
      <trkpt lat="42.9752690" lon="-0.0789810">
        <ele>435.4</ele>
        <time>2020-07-26T08:20:21Z</time>
      </trkpt>
      <trkpt lat="42.9750190" lon="-0.0784760">
        <ele>435.2</ele>
        <time>2020-07-26T08:20:27Z</time>
      </trkpt>
      <trkpt lat="42.9749410" lon="-0.0783000">
        <ele>435.2</ele>
        <time>2020-07-26T08:20:29Z</time>
      </trkpt>
      <trkpt lat="42.9747230" lon="-0.0777490">
        <ele>435.6</ele>
        <time>2020-07-26T08:20:35Z</time>
      </trkpt>
      <trkpt lat="42.9746530" lon="-0.0775640">
        <ele>435.8</ele>
        <time>2020-07-26T08:20:37Z</time>
      </trkpt>
      <trkpt lat="42.9744320" lon="-0.0770160">
        <ele>436.6</ele>
        <time>2020-07-26T08:20:43Z</time>
      </trkpt>
      <trkpt lat="42.9743390" lon="-0.0768460">
        <ele>436.6</ele>
        <time>2020-07-26T08:20:45Z</time>
      </trkpt>
      <trkpt lat="42.9742900" lon="-0.0767640">
        <ele>436.6</ele>
        <time>2020-07-26T08:20:46Z</time>
      </trkpt>
      <trkpt lat="42.9740740" lon="-0.0764610">
        <ele>436.8</ele>
        <time>2020-07-26T08:20:50Z</time>
      </trkpt>
      <trkpt lat="42.9738970" lon="-0.0762650">
        <ele>437.2</ele>
        <time>2020-07-26T08:20:53Z</time>
      </trkpt>
      <trkpt lat="42.9737750" lon="-0.0761480">
        <ele>437.6</ele>
        <time>2020-07-26T08:20:55Z</time>
      </trkpt>
      <trkpt lat="42.9734450" lon="-0.0759100">
        <ele>438.0</ele>
        <time>2020-07-26T08:21:00Z</time>
      </trkpt>
      <trkpt lat="42.9730080" lon="-0.0757080">
        <ele>438.2</ele>
        <time>2020-07-26T08:21:06Z</time>
      </trkpt>
      <trkpt lat="42.9729350" lon="-0.0756750">
        <ele>438.2</ele>
        <time>2020-07-26T08:21:07Z</time>
      </trkpt>
      <trkpt lat="42.9724980" lon="-0.0754630">
        <ele>438.4</ele>
        <time>2020-07-26T08:21:13Z</time>
      </trkpt>
      <trkpt lat="42.9723510" lon="-0.0754000">
        <ele>438.6</ele>
        <time>2020-07-26T08:21:15Z</time>
      </trkpt>
      <trkpt lat="42.9719190" lon="-0.0751980">
        <ele>439.2</ele>
        <time>2020-07-26T08:21:21Z</time>
      </trkpt>
      <trkpt lat="42.9718480" lon="-0.0751650">
        <ele>439.4</ele>
        <time>2020-07-26T08:21:22Z</time>
      </trkpt>
      <trkpt lat="42.9716410" lon="-0.0750670">
        <ele>439.8</ele>
        <time>2020-07-26T08:21:25Z</time>
      </trkpt>
      <trkpt lat="42.9712930" lon="-0.0749180">
        <ele>440.2</ele>
        <time>2020-07-26T08:21:30Z</time>
      </trkpt>
      <trkpt lat="42.9710170" lon="-0.0748250">
        <ele>440.8</ele>
        <time>2020-07-26T08:21:34Z</time>
      </trkpt>
      <trkpt lat="42.9709480" lon="-0.0748060">
        <ele>441.0</ele>
        <time>2020-07-26T08:21:35Z</time>
      </trkpt>
      <trkpt lat="42.9707470" lon="-0.0747490">
        <ele>441.6</ele>
        <time>2020-07-26T08:21:38Z</time>
      </trkpt>
      <trkpt lat="42.9706170" lon="-0.0747150">
        <ele>442.2</ele>
        <time>2020-07-26T08:21:40Z</time>
      </trkpt>
      <trkpt lat="42.9703770" lon="-0.0746610">
        <ele>443.2</ele>
        <time>2020-07-26T08:21:44Z</time>
      </trkpt>
      <trkpt lat="42.9703250" lon="-0.0746470">
        <ele>443.6</ele>
        <time>2020-07-26T08:21:45Z</time>
      </trkpt>
      <trkpt lat="42.9701100" lon="-0.0745880">
        <ele>444.4</ele>
        <time>2020-07-26T08:21:49Z</time>
      </trkpt>
      <trkpt lat="42.9697830" lon="-0.0744920">
        <ele>445.4</ele>
        <time>2020-07-26T08:21:55Z</time>
      </trkpt>
      <trkpt lat="42.9697280" lon="-0.0744750">
        <ele>445.4</ele>
        <time>2020-07-26T08:21:56Z</time>
      </trkpt>
      <trkpt lat="42.9693940" lon="-0.0743790">
        <ele>446.2</ele>
        <time>2020-07-26T08:22:02Z</time>
      </trkpt>
      <trkpt lat="42.9692830" lon="-0.0743490">
        <ele>446.6</ele>
        <time>2020-07-26T08:22:04Z</time>
      </trkpt>
      <trkpt lat="42.9691700" lon="-0.0743190">
        <ele>447.0</ele>
        <time>2020-07-26T08:22:06Z</time>
      </trkpt>
      <trkpt lat="42.9689370" lon="-0.0742560">
        <ele>447.2</ele>
        <time>2020-07-26T08:22:10Z</time>
      </trkpt>
      <trkpt lat="42.9686940" lon="-0.0741880">
        <ele>447.6</ele>
        <time>2020-07-26T08:22:14Z</time>
      </trkpt>
      <trkpt lat="42.9685720" lon="-0.0741530">
        <ele>448.0</ele>
        <time>2020-07-26T08:22:16Z</time>
      </trkpt>
      <trkpt lat="42.9682090" lon="-0.0740510">
        <ele>448.2</ele>
        <time>2020-07-26T08:22:22Z</time>
      </trkpt>
      <trkpt lat="42.9680850" lon="-0.0740170">
        <ele>448.6</ele>
        <time>2020-07-26T08:22:24Z</time>
      </trkpt>
      <trkpt lat="42.9679610" lon="-0.0739840">
        <ele>448.8</ele>
        <time>2020-07-26T08:22:26Z</time>
      </trkpt>
      <trkpt lat="42.9676530" lon="-0.0738990">
        <ele>449.0</ele>
        <time>2020-07-26T08:22:31Z</time>
      </trkpt>
      <trkpt lat="42.9675920" lon="-0.0738820">
        <ele>449.2</ele>
        <time>2020-07-26T08:22:32Z</time>
      </trkpt>
      <trkpt lat="42.9675310" lon="-0.0738690">
        <ele>449.4</ele>
        <time>2020-07-26T08:22:33Z</time>
      </trkpt>
      <trkpt lat="42.9674720" lon="-0.0738550">
        <ele>449.6</ele>
        <time>2020-07-26T08:22:34Z</time>
      </trkpt>
      <trkpt lat="42.9674130" lon="-0.0738360">
        <ele>449.8</ele>
        <time>2020-07-26T08:22:35Z</time>
      </trkpt>
      <trkpt lat="42.9672960" lon="-0.0738000">
        <ele>450.2</ele>
        <time>2020-07-26T08:22:37Z</time>
      </trkpt>
      <trkpt lat="42.9672360" lon="-0.0737830">
        <ele>450.6</ele>
        <time>2020-07-26T08:22:38Z</time>
      </trkpt>
      <trkpt lat="42.9671170" lon="-0.0737510">
        <ele>451.0</ele>
        <time>2020-07-26T08:22:40Z</time>
      </trkpt>
      <trkpt lat="42.9669450" lon="-0.0737070">
        <ele>451.6</ele>
        <time>2020-07-26T08:22:43Z</time>
      </trkpt>
      <trkpt lat="42.9667800" lon="-0.0736660">
        <ele>452.0</ele>
        <time>2020-07-26T08:22:46Z</time>
      </trkpt>
      <trkpt lat="42.9664890" lon="-0.0736350">
        <ele>453.0</ele>
        <time>2020-07-26T08:22:51Z</time>
      </trkpt>
      <trkpt lat="42.9664320" lon="-0.0736260">
        <ele>453.2</ele>
        <time>2020-07-26T08:22:52Z</time>
      </trkpt>
      <trkpt lat="42.9662660" lon="-0.0735840">
        <ele>453.8</ele>
        <time>2020-07-26T08:22:55Z</time>
      </trkpt>
      <trkpt lat="42.9662100" lon="-0.0735880">
        <ele>453.8</ele>
        <time>2020-07-26T08:22:56Z</time>
      </trkpt>
      <trkpt lat="42.9661020" lon="-0.0735950">
        <ele>454.0</ele>
        <time>2020-07-26T08:22:58Z</time>
      </trkpt>
      <trkpt lat="42.9660570" lon="-0.0735760">
        <ele>454.2</ele>
        <time>2020-07-26T08:22:59Z</time>
      </trkpt>
      <trkpt lat="42.9660200" lon="-0.0735380">
        <ele>454.2</ele>
        <time>2020-07-26T08:23:00Z</time>
      </trkpt>
      <trkpt lat="42.9658760" lon="-0.0732810">
        <ele>454.2</ele>
        <time>2020-07-26T08:23:04Z</time>
      </trkpt>
      <trkpt lat="42.9658010" lon="-0.0731460">
        <ele>454.2</ele>
        <time>2020-07-26T08:23:06Z</time>
      </trkpt>
      <trkpt lat="42.9657470" lon="-0.0729910">
        <ele>454.2</ele>
        <time>2020-07-26T08:23:08Z</time>
      </trkpt>
      <trkpt lat="42.9657270" lon="-0.0729060">
        <ele>454.2</ele>
        <time>2020-07-26T08:23:09Z</time>
      </trkpt>
      <trkpt lat="42.9656810" lon="-0.0726900">
        <ele>454.4</ele>
        <time>2020-07-26T08:23:13Z</time>
      </trkpt>
      <trkpt lat="42.9657270" lon="-0.0727750">
        <ele>454.6</ele>
        <time>2020-07-26T08:23:16Z</time>
      </trkpt>
      <trkpt lat="42.9657460" lon="-0.0728400">
        <ele>454.6</ele>
        <time>2020-07-26T08:23:17Z</time>
      </trkpt>
      <trkpt lat="42.9658060" lon="-0.0730480">
        <ele>454.6</ele>
        <time>2020-07-26T08:23:20Z</time>
      </trkpt>
      <trkpt lat="42.9658350" lon="-0.0731120">
        <ele>454.6</ele>
        <time>2020-07-26T08:23:21Z</time>
      </trkpt>
      <trkpt lat="42.9659180" lon="-0.0732090">
        <ele>454.4</ele>
        <time>2020-07-26T08:23:23Z</time>
      </trkpt>
      <trkpt lat="42.9660340" lon="-0.0732680">
        <ele>454.0</ele>
        <time>2020-07-26T08:23:25Z</time>
      </trkpt>
      <trkpt lat="42.9661600" lon="-0.0733130">
        <ele>454.0</ele>
        <time>2020-07-26T08:23:27Z</time>
      </trkpt>
      <trkpt lat="42.9662050" lon="-0.0733650">
        <ele>453.8</ele>
        <time>2020-07-26T08:23:28Z</time>
      </trkpt>
      <trkpt lat="42.9662310" lon="-0.0735010">
        <ele>453.8</ele>
        <time>2020-07-26T08:23:30Z</time>
      </trkpt>
      <trkpt lat="42.9661440" lon="-0.0736150">
        <ele>454.0</ele>
        <time>2020-07-26T08:23:32Z</time>
      </trkpt>
      <trkpt lat="42.9660840" lon="-0.0736530">
        <ele>454.0</ele>
        <time>2020-07-26T08:23:33Z</time>
      </trkpt>
      <trkpt lat="42.9658370" lon="-0.0738080">
        <ele>454.6</ele>
        <time>2020-07-26T08:23:37Z</time>
      </trkpt>
      <trkpt lat="42.9657150" lon="-0.0738740">
        <ele>454.8</ele>
        <time>2020-07-26T08:23:39Z</time>
      </trkpt>
      <trkpt lat="42.9655840" lon="-0.0739170">
        <ele>455.2</ele>
        <time>2020-07-26T08:23:41Z</time>
      </trkpt>
      <trkpt lat="42.9655170" lon="-0.0739330">
        <ele>455.2</ele>
        <time>2020-07-26T08:23:42Z</time>
      </trkpt>
      <trkpt lat="42.9653210" lon="-0.0739870">
        <ele>455.6</ele>
        <time>2020-07-26T08:23:45Z</time>
      </trkpt>
      <trkpt lat="42.9650040" lon="-0.0740830">
        <ele>456.2</ele>
        <time>2020-07-26T08:23:50Z</time>
      </trkpt>
      <trkpt lat="42.9649420" lon="-0.0740990">
        <ele>456.6</ele>
        <time>2020-07-26T08:23:51Z</time>
      </trkpt>
      <trkpt lat="42.9645580" lon="-0.0742090">
        <ele>457.4</ele>
        <time>2020-07-26T08:23:57Z</time>
      </trkpt>
      <trkpt lat="42.9644350" lon="-0.0742480">
        <ele>457.8</ele>
        <time>2020-07-26T08:23:59Z</time>
      </trkpt>
      <trkpt lat="42.9641850" lon="-0.0743190">
        <ele>458.4</ele>
        <time>2020-07-26T08:24:03Z</time>
      </trkpt>
      <trkpt lat="42.9639980" lon="-0.0743660">
        <ele>459.0</ele>
        <time>2020-07-26T08:24:06Z</time>
      </trkpt>
      <trkpt lat="42.9638780" lon="-0.0744030">
        <ele>459.4</ele>
        <time>2020-07-26T08:24:08Z</time>
      </trkpt>
      <trkpt lat="42.9635740" lon="-0.0744860">
        <ele>460.6</ele>
        <time>2020-07-26T08:24:13Z</time>
      </trkpt>
      <trkpt lat="42.9635120" lon="-0.0745020">
        <ele>460.8</ele>
        <time>2020-07-26T08:24:14Z</time>
      </trkpt>
      <trkpt lat="42.9634510" lon="-0.0745170">
        <ele>461.2</ele>
        <time>2020-07-26T08:24:15Z</time>
      </trkpt>
      <trkpt lat="42.9633310" lon="-0.0745440">
        <ele>461.6</ele>
        <time>2020-07-26T08:24:17Z</time>
      </trkpt>
      <trkpt lat="42.9632120" lon="-0.0745610">
        <ele>462.2</ele>
        <time>2020-07-26T08:24:19Z</time>
      </trkpt>
      <trkpt lat="42.9630310" lon="-0.0745670">
        <ele>462.8</ele>
        <time>2020-07-26T08:24:22Z</time>
      </trkpt>
      <trkpt lat="42.9626680" lon="-0.0745590">
        <ele>463.8</ele>
        <time>2020-07-26T08:24:28Z</time>
      </trkpt>
      <trkpt lat="42.9624180" lon="-0.0745500">
        <ele>464.8</ele>
        <time>2020-07-26T08:24:32Z</time>
      </trkpt>
      <trkpt lat="42.9623520" lon="-0.0745440">
        <ele>465.0</ele>
        <time>2020-07-26T08:24:33Z</time>
      </trkpt>
      <trkpt lat="42.9620520" lon="-0.0745480">
        <ele>465.6</ele>
        <time>2020-07-26T08:24:38Z</time>
      </trkpt>
      <trkpt lat="42.9619920" lon="-0.0745500">
        <ele>465.8</ele>
        <time>2020-07-26T08:24:39Z</time>
      </trkpt>
      <trkpt lat="42.9618120" lon="-0.0745520">
        <ele>466.2</ele>
        <time>2020-07-26T08:24:42Z</time>
      </trkpt>
      <trkpt lat="42.9616210" lon="-0.0745520">
        <ele>466.6</ele>
        <time>2020-07-26T08:24:45Z</time>
      </trkpt>
      <trkpt lat="42.9615590" lon="-0.0745510">
        <ele>466.8</ele>
        <time>2020-07-26T08:24:46Z</time>
      </trkpt>
      <trkpt lat="42.9613670" lon="-0.0745490">
        <ele>467.2</ele>
        <time>2020-07-26T08:24:49Z</time>
      </trkpt>
      <trkpt lat="42.9610390" lon="-0.0745440">
        <ele>468.0</ele>
        <time>2020-07-26T08:24:54Z</time>
      </trkpt>
      <trkpt lat="42.9609110" lon="-0.0745400">
        <ele>468.2</ele>
        <time>2020-07-26T08:24:56Z</time>
      </trkpt>
      <trkpt lat="42.9606770" lon="-0.0745310">
        <ele>469.4</ele>
        <time>2020-07-26T08:25:00Z</time>
      </trkpt>
      <trkpt lat="42.9605660" lon="-0.0745290">
        <ele>470.2</ele>
        <time>2020-07-26T08:25:02Z</time>
      </trkpt>
      <trkpt lat="42.9605100" lon="-0.0745210">
        <ele>470.6</ele>
        <time>2020-07-26T08:25:03Z</time>
      </trkpt>
      <trkpt lat="42.9602420" lon="-0.0745020">
        <ele>471.8</ele>
        <time>2020-07-26T08:25:08Z</time>
      </trkpt>
      <trkpt lat="42.9601350" lon="-0.0744940">
        <ele>472.4</ele>
        <time>2020-07-26T08:25:10Z</time>
      </trkpt>
      <trkpt lat="42.9600830" lon="-0.0744960">
        <ele>472.8</ele>
        <time>2020-07-26T08:25:11Z</time>
      </trkpt>
      <trkpt lat="42.9599310" lon="-0.0745080">
        <ele>474.0</ele>
        <time>2020-07-26T08:25:14Z</time>
      </trkpt>
      <trkpt lat="42.9598400" lon="-0.0745030">
        <ele>474.2</ele>
        <time>2020-07-26T08:25:16Z</time>
      </trkpt>
      <trkpt lat="42.9595760" lon="-0.0745160">
        <ele>474.6</ele>
        <time>2020-07-26T08:25:22Z</time>
      </trkpt>
      <trkpt lat="42.9595340" lon="-0.0745120">
        <ele>474.8</ele>
        <time>2020-07-26T08:25:23Z</time>
      </trkpt>
      <trkpt lat="42.9594930" lon="-0.0745140">
        <ele>475.0</ele>
        <time>2020-07-26T08:25:24Z</time>
      </trkpt>
      <trkpt lat="42.9593170" lon="-0.0745250">
        <ele>476.4</ele>
        <time>2020-07-26T08:25:28Z</time>
      </trkpt>
      <trkpt lat="42.9592250" lon="-0.0745440">
        <ele>477.0</ele>
        <time>2020-07-26T08:25:30Z</time>
      </trkpt>
      <trkpt lat="42.9591320" lon="-0.0745730">
        <ele>477.6</ele>
        <time>2020-07-26T08:25:32Z</time>
      </trkpt>
      <trkpt lat="42.9590870" lon="-0.0745810">
        <ele>477.8</ele>
        <time>2020-07-26T08:25:33Z</time>
      </trkpt>
      <trkpt lat="42.9588950" lon="-0.0745980">
        <ele>478.6</ele>
        <time>2020-07-26T08:25:37Z</time>
      </trkpt>
      <trkpt lat="42.9588460" lon="-0.0746050">
        <ele>478.8</ele>
        <time>2020-07-26T08:25:38Z</time>
      </trkpt>
      <trkpt lat="42.9585230" lon="-0.0746780">
        <ele>479.4</ele>
        <time>2020-07-26T08:25:44Z</time>
      </trkpt>
      <trkpt lat="42.9584230" lon="-0.0747280">
        <ele>479.8</ele>
        <time>2020-07-26T08:25:46Z</time>
      </trkpt>
      <trkpt lat="42.9581790" lon="-0.0748650">
        <ele>480.8</ele>
        <time>2020-07-26T08:25:51Z</time>
      </trkpt>
      <trkpt lat="42.9581330" lon="-0.0748930">
        <ele>481.0</ele>
        <time>2020-07-26T08:25:52Z</time>
      </trkpt>
      <trkpt lat="42.9579020" lon="-0.0750120">
        <ele>482.0</ele>
        <time>2020-07-26T08:25:57Z</time>
      </trkpt>
      <trkpt lat="42.9578010" lon="-0.0750370">
        <ele>482.2</ele>
        <time>2020-07-26T08:25:59Z</time>
      </trkpt>
      <trkpt lat="42.9576020" lon="-0.0750810">
        <ele>482.6</ele>
        <time>2020-07-26T08:26:03Z</time>
      </trkpt>
      <trkpt lat="42.9575110" lon="-0.0751200">
        <ele>483.0</ele>
        <time>2020-07-26T08:26:05Z</time>
      </trkpt>
      <trkpt lat="42.9574700" lon="-0.0751380">
        <ele>483.4</ele>
        <time>2020-07-26T08:26:06Z</time>
      </trkpt>
      <trkpt lat="42.9573500" lon="-0.0751860">
        <ele>484.4</ele>
        <time>2020-07-26T08:26:09Z</time>
      </trkpt>
      <trkpt lat="42.9572690" lon="-0.0751870">
        <ele>485.0</ele>
        <time>2020-07-26T08:26:11Z</time>
      </trkpt>
      <trkpt lat="42.9572260" lon="-0.0751810">
        <ele>485.4</ele>
        <time>2020-07-26T08:26:12Z</time>
      </trkpt>
      <trkpt lat="42.9571800" lon="-0.0751760">
        <ele>485.6</ele>
        <time>2020-07-26T08:26:13Z</time>
      </trkpt>
      <trkpt lat="42.9569900" lon="-0.0751410">
        <ele>485.8</ele>
        <time>2020-07-26T08:26:17Z</time>
      </trkpt>
      <trkpt lat="42.9569450" lon="-0.0751180">
        <ele>485.6</ele>
        <time>2020-07-26T08:26:18Z</time>
      </trkpt>
      <trkpt lat="42.9569160" lon="-0.0750670">
        <ele>485.6</ele>
        <time>2020-07-26T08:26:19Z</time>
      </trkpt>
      <trkpt lat="42.9568320" lon="-0.0749500">
        <ele>485.4</ele>
        <time>2020-07-26T08:26:21Z</time>
      </trkpt>
      <trkpt lat="42.9567570" lon="-0.0748060">
        <ele>485.0</ele>
        <time>2020-07-26T08:26:23Z</time>
      </trkpt>
      <trkpt lat="42.9567290" lon="-0.0747210">
        <ele>484.6</ele>
        <time>2020-07-26T08:26:24Z</time>
      </trkpt>
      <trkpt lat="42.9567010" lon="-0.0746330">
        <ele>484.2</ele>
        <time>2020-07-26T08:26:25Z</time>
      </trkpt>
      <trkpt lat="42.9566280" lon="-0.0743440">
        <ele>483.2</ele>
        <time>2020-07-26T08:26:28Z</time>
      </trkpt>
      <trkpt lat="42.9565630" lon="-0.0741480">
        <ele>482.2</ele>
        <time>2020-07-26T08:26:30Z</time>
      </trkpt>
      <trkpt lat="42.9564270" lon="-0.0738590">
        <ele>481.0</ele>
        <time>2020-07-26T08:26:33Z</time>
      </trkpt>
      <trkpt lat="42.9563160" lon="-0.0736690">
        <ele>479.6</ele>
        <time>2020-07-26T08:26:35Z</time>
      </trkpt>
      <trkpt lat="42.9561380" lon="-0.0733880">
        <ele>478.6</ele>
        <time>2020-07-26T08:26:38Z</time>
      </trkpt>
      <trkpt lat="42.9559520" lon="-0.0731020">
        <ele>476.8</ele>
        <time>2020-07-26T08:26:41Z</time>
      </trkpt>
      <trkpt lat="42.9558290" lon="-0.0729160">
        <ele>475.8</ele>
        <time>2020-07-26T08:26:43Z</time>
      </trkpt>
      <trkpt lat="42.9557110" lon="-0.0727310">
        <ele>475.2</ele>
        <time>2020-07-26T08:26:45Z</time>
      </trkpt>
      <trkpt lat="42.9554140" lon="-0.0723070">
        <ele>474.6</ele>
        <time>2020-07-26T08:26:50Z</time>
      </trkpt>
      <trkpt lat="42.9552440" lon="-0.0720660">
        <ele>473.6</ele>
        <time>2020-07-26T08:26:53Z</time>
      </trkpt>
      <trkpt lat="42.9550780" lon="-0.0718320">
        <ele>473.6</ele>
        <time>2020-07-26T08:26:56Z</time>
      </trkpt>
      <trkpt lat="42.9548510" lon="-0.0715620">
        <ele>473.2</ele>
        <time>2020-07-26T08:27:00Z</time>
      </trkpt>
      <trkpt lat="42.9545010" lon="-0.0712140">
        <ele>473.2</ele>
        <time>2020-07-26T08:27:06Z</time>
      </trkpt>
      <trkpt lat="42.9543290" lon="-0.0710420">
        <ele>472.8</ele>
        <time>2020-07-26T08:27:09Z</time>
      </trkpt>
      <trkpt lat="42.9541530" lon="-0.0708820">
        <ele>472.4</ele>
        <time>2020-07-26T08:27:12Z</time>
      </trkpt>
      <trkpt lat="42.9539700" lon="-0.0707430">
        <ele>471.6</ele>
        <time>2020-07-26T08:27:15Z</time>
      </trkpt>
      <trkpt lat="42.9539060" lon="-0.0707010">
        <ele>471.2</ele>
        <time>2020-07-26T08:27:16Z</time>
      </trkpt>
      <trkpt lat="42.9535770" lon="-0.0704910">
        <ele>470.2</ele>
        <time>2020-07-26T08:27:21Z</time>
      </trkpt>
      <trkpt lat="42.9534430" lon="-0.0704060">
        <ele>469.8</ele>
        <time>2020-07-26T08:27:23Z</time>
      </trkpt>
      <trkpt lat="42.9530020" lon="-0.0701500">
        <ele>469.8</ele>
        <time>2020-07-26T08:27:29Z</time>
      </trkpt>
      <trkpt lat="42.9527890" lon="-0.0700460">
        <ele>470.4</ele>
        <time>2020-07-26T08:27:32Z</time>
      </trkpt>
      <trkpt lat="42.9525890" lon="-0.0699520">
        <ele>471.0</ele>
        <time>2020-07-26T08:27:35Z</time>
      </trkpt>
      <trkpt lat="42.9524050" lon="-0.0698640">
        <ele>471.4</ele>
        <time>2020-07-26T08:27:38Z</time>
      </trkpt>
      <trkpt lat="42.9522760" lon="-0.0698300">
        <ele>472.2</ele>
        <time>2020-07-26T08:27:40Z</time>
      </trkpt>
      <trkpt lat="42.9522110" lon="-0.0698220">
        <ele>472.6</ele>
        <time>2020-07-26T08:27:41Z</time>
      </trkpt>
      <trkpt lat="42.9520880" lon="-0.0698070">
        <ele>473.0</ele>
        <time>2020-07-26T08:27:43Z</time>
      </trkpt>
      <trkpt lat="42.9520280" lon="-0.0697940">
        <ele>473.2</ele>
        <time>2020-07-26T08:27:44Z</time>
      </trkpt>
      <trkpt lat="42.9519150" lon="-0.0697620">
        <ele>473.4</ele>
        <time>2020-07-26T08:27:46Z</time>
      </trkpt>
      <trkpt lat="42.9518570" lon="-0.0697420">
        <ele>473.6</ele>
        <time>2020-07-26T08:27:47Z</time>
      </trkpt>
      <trkpt lat="42.9516900" lon="-0.0696630">
        <ele>473.6</ele>
        <time>2020-07-26T08:27:50Z</time>
      </trkpt>
      <trkpt lat="42.9515930" lon="-0.0695670">
        <ele>473.6</ele>
        <time>2020-07-26T08:27:52Z</time>
      </trkpt>
      <trkpt lat="42.9515250" lon="-0.0694360">
        <ele>473.6</ele>
        <time>2020-07-26T08:27:54Z</time>
      </trkpt>
      <trkpt lat="42.9514970" lon="-0.0693610">
        <ele>473.6</ele>
        <time>2020-07-26T08:27:55Z</time>
      </trkpt>
      <trkpt lat="42.9514130" lon="-0.0691180">
        <ele>473.6</ele>
        <time>2020-07-26T08:27:58Z</time>
      </trkpt>
      <trkpt lat="42.9512920" lon="-0.0687800">
        <ele>473.2</ele>
        <time>2020-07-26T08:28:02Z</time>
      </trkpt>
      <trkpt lat="42.9512600" lon="-0.0686970">
        <ele>473.2</ele>
        <time>2020-07-26T08:28:03Z</time>
      </trkpt>
      <trkpt lat="42.9510340" lon="-0.0682220">
        <ele>472.6</ele>
        <time>2020-07-26T08:28:09Z</time>
      </trkpt>
      <trkpt lat="42.9509560" lon="-0.0680710">
        <ele>472.4</ele>
        <time>2020-07-26T08:28:11Z</time>
      </trkpt>
      <trkpt lat="42.9508550" lon="-0.0678200">
        <ele>471.8</ele>
        <time>2020-07-26T08:28:14Z</time>
      </trkpt>
      <trkpt lat="42.9506240" lon="-0.0674390">
        <ele>471.8</ele>
        <time>2020-07-26T08:28:19Z</time>
      </trkpt>
      <trkpt lat="42.9504980" lon="-0.0671970">
        <ele>472.2</ele>
        <time>2020-07-26T08:28:22Z</time>
      </trkpt>
      <trkpt lat="42.9504410" lon="-0.0670150">
        <ele>472.4</ele>
        <time>2020-07-26T08:28:24Z</time>
      </trkpt>
      <trkpt lat="42.9503450" lon="-0.0666290">
        <ele>472.4</ele>
        <time>2020-07-26T08:28:28Z</time>
      </trkpt>
      <trkpt lat="42.9502920" lon="-0.0663250">
        <ele>472.6</ele>
        <time>2020-07-26T08:28:31Z</time>
      </trkpt>
      <trkpt lat="42.9501810" lon="-0.0656980">
        <ele>472.8</ele>
        <time>2020-07-26T08:28:37Z</time>
      </trkpt>
      <trkpt lat="42.9501610" lon="-0.0655920">
        <ele>472.8</ele>
        <time>2020-07-26T08:28:38Z</time>
      </trkpt>
      <trkpt lat="42.9501390" lon="-0.0654870">
        <ele>472.8</ele>
        <time>2020-07-26T08:28:39Z</time>
      </trkpt>
      <trkpt lat="42.9500730" lon="-0.0651680">
        <ele>472.8</ele>
        <time>2020-07-26T08:28:42Z</time>
      </trkpt>
      <trkpt lat="42.9500070" lon="-0.0648500">
        <ele>473.4</ele>
        <time>2020-07-26T08:28:45Z</time>
      </trkpt>
      <trkpt lat="42.9499830" lon="-0.0647450">
        <ele>473.6</ele>
        <time>2020-07-26T08:28:46Z</time>
      </trkpt>
      <trkpt lat="42.9499060" lon="-0.0644400">
        <ele>473.6</ele>
        <time>2020-07-26T08:28:49Z</time>
      </trkpt>
      <trkpt lat="42.9497020" lon="-0.0638580">
        <ele>474.0</ele>
        <time>2020-07-26T08:28:55Z</time>
      </trkpt>
      <trkpt lat="42.9496340" lon="-0.0636680">
        <ele>474.6</ele>
        <time>2020-07-26T08:28:57Z</time>
      </trkpt>
      <trkpt lat="42.9495250" lon="-0.0633930">
        <ele>475.0</ele>
        <time>2020-07-26T08:29:00Z</time>
      </trkpt>
      <trkpt lat="42.9494090" lon="-0.0631380">
        <ele>475.6</ele>
        <time>2020-07-26T08:29:03Z</time>
      </trkpt>
      <trkpt lat="42.9493220" lon="-0.0629800">
        <ele>475.8</ele>
        <time>2020-07-26T08:29:05Z</time>
      </trkpt>
      <trkpt lat="42.9491390" lon="-0.0626760">
        <ele>476.4</ele>
        <time>2020-07-26T08:29:09Z</time>
      </trkpt>
      <trkpt lat="42.9489990" lon="-0.0624390">
        <ele>476.6</ele>
        <time>2020-07-26T08:29:12Z</time>
      </trkpt>
      <trkpt lat="42.9489540" lon="-0.0623620">
        <ele>476.6</ele>
        <time>2020-07-26T08:29:13Z</time>
      </trkpt>
      <trkpt lat="42.9488000" lon="-0.0620280">
        <ele>476.8</ele>
        <time>2020-07-26T08:29:17Z</time>
      </trkpt>
      <trkpt lat="42.9486120" lon="-0.0615760">
        <ele>477.0</ele>
        <time>2020-07-26T08:29:22Z</time>
      </trkpt>
      <trkpt lat="42.9485250" lon="-0.0613990">
        <ele>477.2</ele>
        <time>2020-07-26T08:29:24Z</time>
      </trkpt>
      <trkpt lat="42.9482550" lon="-0.0609000">
        <ele>477.8</ele>
        <time>2020-07-26T08:29:30Z</time>
      </trkpt>
      <trkpt lat="42.9482130" lon="-0.0608160">
        <ele>478.0</ele>
        <time>2020-07-26T08:29:31Z</time>
      </trkpt>
      <trkpt lat="42.9481710" lon="-0.0607320">
        <ele>478.2</ele>
        <time>2020-07-26T08:29:32Z</time>
      </trkpt>
      <trkpt lat="42.9479500" lon="-0.0603280">
        <ele>479.0</ele>
        <time>2020-07-26T08:29:37Z</time>
      </trkpt>
      <trkpt lat="42.9478980" lon="-0.0602550">
        <ele>479.0</ele>
        <time>2020-07-26T08:29:38Z</time>
      </trkpt>
      <trkpt lat="42.9478480" lon="-0.0601820">
        <ele>479.0</ele>
        <time>2020-07-26T08:29:39Z</time>
      </trkpt>
      <trkpt lat="42.9475990" lon="-0.0598050">
        <ele>479.6</ele>
        <time>2020-07-26T08:29:44Z</time>
      </trkpt>
      <trkpt lat="42.9475140" lon="-0.0596540">
        <ele>480.0</ele>
        <time>2020-07-26T08:29:46Z</time>
      </trkpt>
      <trkpt lat="42.9474750" lon="-0.0595740">
        <ele>480.2</ele>
        <time>2020-07-26T08:29:47Z</time>
      </trkpt>
      <trkpt lat="42.9473010" lon="-0.0591590">
        <ele>480.8</ele>
        <time>2020-07-26T08:29:52Z</time>
      </trkpt>
      <trkpt lat="42.9472700" lon="-0.0590750">
        <ele>481.0</ele>
        <time>2020-07-26T08:29:53Z</time>
      </trkpt>
      <trkpt lat="42.9472100" lon="-0.0589090">
        <ele>481.2</ele>
        <time>2020-07-26T08:29:55Z</time>
      </trkpt>
      <trkpt lat="42.9470830" lon="-0.0585080">
        <ele>482.4</ele>
        <time>2020-07-26T08:30:00Z</time>
      </trkpt>
      <trkpt lat="42.9470640" lon="-0.0584220">
        <ele>482.6</ele>
        <time>2020-07-26T08:30:01Z</time>
      </trkpt>
      <trkpt lat="42.9469830" lon="-0.0578760">
        <ele>483.0</ele>
        <time>2020-07-26T08:30:07Z</time>
      </trkpt>
      <trkpt lat="42.9469240" lon="-0.0575130">
        <ele>483.6</ele>
        <time>2020-07-26T08:30:11Z</time>
      </trkpt>
      <trkpt lat="42.9468800" lon="-0.0573350">
        <ele>484.0</ele>
        <time>2020-07-26T08:30:13Z</time>
      </trkpt>
      <trkpt lat="42.9466620" lon="-0.0568570">
        <ele>484.4</ele>
        <time>2020-07-26T08:30:19Z</time>
      </trkpt>
      <trkpt lat="42.9465180" lon="-0.0566530">
        <ele>484.8</ele>
        <time>2020-07-26T08:30:22Z</time>
      </trkpt>
      <trkpt lat="42.9463550" lon="-0.0564650">
        <ele>485.2</ele>
        <time>2020-07-26T08:30:25Z</time>
      </trkpt>
      <trkpt lat="42.9461270" lon="-0.0562280">
        <ele>485.8</ele>
        <time>2020-07-26T08:30:29Z</time>
      </trkpt>
      <trkpt lat="42.9459040" lon="-0.0559790">
        <ele>486.0</ele>
        <time>2020-07-26T08:30:33Z</time>
      </trkpt>
      <trkpt lat="42.9455660" lon="-0.0555940">
        <ele>486.6</ele>
        <time>2020-07-26T08:30:39Z</time>
      </trkpt>
      <trkpt lat="42.9454570" lon="-0.0554610">
        <ele>486.6</ele>
        <time>2020-07-26T08:30:41Z</time>
      </trkpt>
      <trkpt lat="42.9453490" lon="-0.0553320">
        <ele>486.6</ele>
        <time>2020-07-26T08:30:43Z</time>
      </trkpt>
      <trkpt lat="42.9452390" lon="-0.0552020">
        <ele>486.8</ele>
        <time>2020-07-26T08:30:45Z</time>
      </trkpt>
      <trkpt lat="42.9449660" lon="-0.0548660">
        <ele>487.6</ele>
        <time>2020-07-26T08:30:50Z</time>
      </trkpt>
      <trkpt lat="42.9448510" lon="-0.0547260">
        <ele>487.8</ele>
        <time>2020-07-26T08:30:52Z</time>
      </trkpt>
      <trkpt lat="42.9445140" lon="-0.0543170">
        <ele>488.4</ele>
        <time>2020-07-26T08:30:58Z</time>
      </trkpt>
      <trkpt lat="42.9443370" lon="-0.0541260">
        <ele>488.8</ele>
        <time>2020-07-26T08:31:01Z</time>
      </trkpt>
      <trkpt lat="42.9440460" lon="-0.0538180">
        <ele>489.4</ele>
        <time>2020-07-26T08:31:06Z</time>
      </trkpt>
      <trkpt lat="42.9436540" lon="-0.0534820">
        <ele>489.8</ele>
        <time>2020-07-26T08:31:12Z</time>
      </trkpt>
      <trkpt lat="42.9435830" lon="-0.0534340">
        <ele>490.0</ele>
        <time>2020-07-26T08:31:13Z</time>
      </trkpt>
      <trkpt lat="42.9431540" lon="-0.0531520">
        <ele>490.4</ele>
        <time>2020-07-26T08:31:19Z</time>
      </trkpt>
      <trkpt lat="42.9427940" lon="-0.0529190">
        <ele>491.2</ele>
        <time>2020-07-26T08:31:24Z</time>
      </trkpt>
      <trkpt lat="42.9426640" lon="-0.0528080">
        <ele>491.4</ele>
        <time>2020-07-26T08:31:26Z</time>
      </trkpt>
      <trkpt lat="42.9426020" lon="-0.0527450">
        <ele>491.4</ele>
        <time>2020-07-26T08:31:27Z</time>
      </trkpt>
      <trkpt lat="42.9423030" lon="-0.0524100">
        <ele>492.2</ele>
        <time>2020-07-26T08:31:32Z</time>
      </trkpt>
      <trkpt lat="42.9422450" lon="-0.0523440">
        <ele>492.4</ele>
        <time>2020-07-26T08:31:33Z</time>
      </trkpt>
      <trkpt lat="42.9421200" lon="-0.0522190">
        <ele>492.6</ele>
        <time>2020-07-26T08:31:35Z</time>
      </trkpt>
      <trkpt lat="42.9419690" lon="-0.0521500">
        <ele>492.6</ele>
        <time>2020-07-26T08:31:37Z</time>
      </trkpt>
      <trkpt lat="42.9418020" lon="-0.0521370">
        <ele>492.0</ele>
        <time>2020-07-26T08:31:39Z</time>
      </trkpt>
      <trkpt lat="42.9416240" lon="-0.0521700">
        <ele>491.4</ele>
        <time>2020-07-26T08:31:41Z</time>
      </trkpt>
      <trkpt lat="42.9415370" lon="-0.0521980">
        <ele>491.2</ele>
        <time>2020-07-26T08:31:42Z</time>
      </trkpt>
      <trkpt lat="42.9413700" lon="-0.0522870">
        <ele>491.0</ele>
        <time>2020-07-26T08:31:44Z</time>
      </trkpt>
      <trkpt lat="42.9412900" lon="-0.0523430">
        <ele>491.0</ele>
        <time>2020-07-26T08:31:45Z</time>
      </trkpt>
      <trkpt lat="42.9409480" lon="-0.0526520">
        <ele>491.6</ele>
        <time>2020-07-26T08:31:50Z</time>
      </trkpt>
      <trkpt lat="42.9407750" lon="-0.0528620">
        <ele>492.2</ele>
        <time>2020-07-26T08:31:53Z</time>
      </trkpt>
      <trkpt lat="42.9406620" lon="-0.0529990">
        <ele>492.6</ele>
        <time>2020-07-26T08:31:55Z</time>
      </trkpt>
      <trkpt lat="42.9406070" lon="-0.0530620">
        <ele>492.6</ele>
        <time>2020-07-26T08:31:56Z</time>
      </trkpt>
      <trkpt lat="42.9404350" lon="-0.0532150">
        <ele>493.4</ele>
        <time>2020-07-26T08:31:59Z</time>
      </trkpt>
      <trkpt lat="42.9403110" lon="-0.0532630">
        <ele>494.2</ele>
        <time>2020-07-26T08:32:01Z</time>
      </trkpt>
      <trkpt lat="42.9402560" lon="-0.0532690">
        <ele>494.4</ele>
        <time>2020-07-26T08:32:02Z</time>
      </trkpt>
      <trkpt lat="42.9401310" lon="-0.0532650">
        <ele>494.8</ele>
        <time>2020-07-26T08:32:04Z</time>
      </trkpt>
      <trkpt lat="42.9400680" lon="-0.0532550">
        <ele>495.0</ele>
        <time>2020-07-26T08:32:05Z</time>
      </trkpt>
      <trkpt lat="42.9400120" lon="-0.0532210">
        <ele>495.0</ele>
        <time>2020-07-26T08:32:06Z</time>
      </trkpt>
      <trkpt lat="42.9399020" lon="-0.0531290">
        <ele>495.2</ele>
        <time>2020-07-26T08:32:08Z</time>
      </trkpt>
      <trkpt lat="42.9398570" lon="-0.0530680">
        <ele>495.4</ele>
        <time>2020-07-26T08:32:09Z</time>
      </trkpt>
      <trkpt lat="42.9398190" lon="-0.0529970">
        <ele>495.6</ele>
        <time>2020-07-26T08:32:10Z</time>
      </trkpt>
      <trkpt lat="42.9397680" lon="-0.0528330">
        <ele>496.0</ele>
        <time>2020-07-26T08:32:12Z</time>
      </trkpt>
      <trkpt lat="42.9397150" lon="-0.0526620">
        <ele>496.8</ele>
        <time>2020-07-26T08:32:14Z</time>
      </trkpt>
      <trkpt lat="42.9396180" lon="-0.0523270">
        <ele>497.4</ele>
        <time>2020-07-26T08:32:18Z</time>
      </trkpt>
      <trkpt lat="42.9395730" lon="-0.0521660">
        <ele>497.8</ele>
        <time>2020-07-26T08:32:20Z</time>
      </trkpt>
      <trkpt lat="42.9395100" lon="-0.0518460">
        <ele>499.0</ele>
        <time>2020-07-26T08:32:24Z</time>
      </trkpt>
      <trkpt lat="42.9394870" lon="-0.0517780">
        <ele>499.4</ele>
        <time>2020-07-26T08:32:25Z</time>
      </trkpt>
      <trkpt lat="42.9394310" lon="-0.0515680">
        <ele>500.2</ele>
        <time>2020-07-26T08:32:28Z</time>
      </trkpt>
      <trkpt lat="42.9393420" lon="-0.0512090">
        <ele>501.4</ele>
        <time>2020-07-26T08:32:33Z</time>
      </trkpt>
      <trkpt lat="42.9393170" lon="-0.0511400">
        <ele>501.6</ele>
        <time>2020-07-26T08:32:34Z</time>
      </trkpt>
      <trkpt lat="42.9391280" lon="-0.0507550">
        <ele>502.6</ele>
        <time>2020-07-26T08:32:40Z</time>
      </trkpt>
      <trkpt lat="42.9388740" lon="-0.0504110">
        <ele>502.8</ele>
        <time>2020-07-26T08:32:46Z</time>
      </trkpt>
      <trkpt lat="42.9388250" lon="-0.0503570">
        <ele>502.8</ele>
        <time>2020-07-26T08:32:47Z</time>
      </trkpt>
      <trkpt lat="42.9387710" lon="-0.0503120">
        <ele>503.0</ele>
        <time>2020-07-26T08:32:48Z</time>
      </trkpt>
      <trkpt lat="42.9385930" lon="-0.0502010">
        <ele>503.0</ele>
        <time>2020-07-26T08:32:51Z</time>
      </trkpt>
      <trkpt lat="42.9383510" lon="-0.0500500">
        <ele>503.8</ele>
        <time>2020-07-26T08:32:55Z</time>
      </trkpt>
      <trkpt lat="42.9381500" lon="-0.0499020">
        <ele>504.4</ele>
        <time>2020-07-26T08:32:59Z</time>
      </trkpt>
      <trkpt lat="42.9380360" lon="-0.0498350">
        <ele>504.8</ele>
        <time>2020-07-26T08:33:01Z</time>
      </trkpt>
      <trkpt lat="42.9377960" lon="-0.0497190">
        <ele>505.6</ele>
        <time>2020-07-26T08:33:05Z</time>
      </trkpt>
      <trkpt lat="42.9377360" lon="-0.0496880">
        <ele>505.8</ele>
        <time>2020-07-26T08:33:06Z</time>
      </trkpt>
      <trkpt lat="42.9374950" lon="-0.0495690">
        <ele>506.8</ele>
        <time>2020-07-26T08:33:10Z</time>
      </trkpt>
      <trkpt lat="42.9373210" lon="-0.0494560">
        <ele>507.4</ele>
        <time>2020-07-26T08:33:13Z</time>
      </trkpt>
      <trkpt lat="42.9371570" lon="-0.0493250">
        <ele>508.0</ele>
        <time>2020-07-26T08:33:16Z</time>
      </trkpt>
      <trkpt lat="42.9371060" lon="-0.0492730">
        <ele>508.4</ele>
        <time>2020-07-26T08:33:17Z</time>
      </trkpt>
      <trkpt lat="42.9370110" lon="-0.0491600">
        <ele>508.8</ele>
        <time>2020-07-26T08:33:19Z</time>
      </trkpt>
      <trkpt lat="42.9369310" lon="-0.0490310">
        <ele>509.2</ele>
        <time>2020-07-26T08:33:21Z</time>
      </trkpt>
      <trkpt lat="42.9368320" lon="-0.0488100">
        <ele>509.6</ele>
        <time>2020-07-26T08:33:24Z</time>
      </trkpt>
      <trkpt lat="42.9367160" lon="-0.0486010">
        <ele>509.8</ele>
        <time>2020-07-26T08:33:27Z</time>
      </trkpt>
      <trkpt lat="42.9366140" lon="-0.0484940">
        <ele>510.2</ele>
        <time>2020-07-26T08:33:29Z</time>
      </trkpt>
      <trkpt lat="42.9365630" lon="-0.0484590">
        <ele>510.6</ele>
        <time>2020-07-26T08:33:30Z</time>
      </trkpt>
      <trkpt lat="42.9365110" lon="-0.0484360">
        <ele>511.0</ele>
        <time>2020-07-26T08:33:31Z</time>
      </trkpt>
      <trkpt lat="42.9364080" lon="-0.0484120">
        <ele>511.6</ele>
        <time>2020-07-26T08:33:33Z</time>
      </trkpt>
      <trkpt lat="42.9362040" lon="-0.0483930">
        <ele>512.8</ele>
        <time>2020-07-26T08:33:37Z</time>
      </trkpt>
      <trkpt lat="42.9360500" lon="-0.0483840">
        <ele>513.6</ele>
        <time>2020-07-26T08:33:40Z</time>
      </trkpt>
      <trkpt lat="42.9359970" lon="-0.0483840">
        <ele>513.8</ele>
        <time>2020-07-26T08:33:41Z</time>
      </trkpt>
      <trkpt lat="42.9357380" lon="-0.0484310">
        <ele>515.0</ele>
        <time>2020-07-26T08:33:46Z</time>
      </trkpt>
      <trkpt lat="42.9356330" lon="-0.0484610">
        <ele>515.4</ele>
        <time>2020-07-26T08:33:48Z</time>
      </trkpt>
      <trkpt lat="42.9354780" lon="-0.0484980">
        <ele>516.2</ele>
        <time>2020-07-26T08:33:51Z</time>
      </trkpt>
      <trkpt lat="42.9353240" lon="-0.0485200">
        <ele>517.6</ele>
        <time>2020-07-26T08:33:54Z</time>
      </trkpt>
      <trkpt lat="42.9352250" lon="-0.0485480">
        <ele>518.0</ele>
        <time>2020-07-26T08:33:56Z</time>
      </trkpt>
      <trkpt lat="42.9351200" lon="-0.0485720">
        <ele>518.8</ele>
        <time>2020-07-26T08:33:58Z</time>
      </trkpt>
      <trkpt lat="42.9349250" lon="-0.0486200">
        <ele>519.8</ele>
        <time>2020-07-26T08:34:02Z</time>
      </trkpt>
      <trkpt lat="42.9348790" lon="-0.0486200">
        <ele>520.0</ele>
        <time>2020-07-26T08:34:03Z</time>
      </trkpt>
      <trkpt lat="42.9347820" lon="-0.0486270">
        <ele>520.4</ele>
        <time>2020-07-26T08:34:05Z</time>
      </trkpt>
      <trkpt lat="42.9346840" lon="-0.0485980">
        <ele>521.0</ele>
        <time>2020-07-26T08:34:07Z</time>
      </trkpt>
      <trkpt lat="42.9346010" lon="-0.0485290">
        <ele>521.6</ele>
        <time>2020-07-26T08:34:09Z</time>
      </trkpt>
      <trkpt lat="42.9345680" lon="-0.0484770">
        <ele>522.0</ele>
        <time>2020-07-26T08:34:10Z</time>
      </trkpt>
      <trkpt lat="42.9345360" lon="-0.0484200">
        <ele>522.2</ele>
        <time>2020-07-26T08:34:11Z</time>
      </trkpt>
      <trkpt lat="42.9344590" lon="-0.0482350">
        <ele>522.8</ele>
        <time>2020-07-26T08:34:14Z</time>
      </trkpt>
      <trkpt lat="42.9343890" lon="-0.0480450">
        <ele>523.0</ele>
        <time>2020-07-26T08:34:17Z</time>
      </trkpt>
      <trkpt lat="42.9343430" lon="-0.0479210">
        <ele>523.2</ele>
        <time>2020-07-26T08:34:19Z</time>
      </trkpt>
      <trkpt lat="42.9342330" lon="-0.0477080">
        <ele>523.6</ele>
        <time>2020-07-26T08:34:23Z</time>
      </trkpt>
      <trkpt lat="42.9340840" lon="-0.0475530">
        <ele>524.2</ele>
        <time>2020-07-26T08:34:27Z</time>
      </trkpt>
      <trkpt lat="42.9340010" lon="-0.0474810">
        <ele>525.0</ele>
        <time>2020-07-26T08:34:29Z</time>
      </trkpt>
      <trkpt lat="42.9339160" lon="-0.0474150">
        <ele>525.4</ele>
        <time>2020-07-26T08:34:31Z</time>
      </trkpt>
      <trkpt lat="42.9337090" lon="-0.0472260">
        <ele>526.6</ele>
        <time>2020-07-26T08:34:36Z</time>
      </trkpt>
      <trkpt lat="42.9335260" lon="-0.0471390">
        <ele>527.6</ele>
        <time>2020-07-26T08:34:40Z</time>
      </trkpt>
      <trkpt lat="42.9334350" lon="-0.0471070">
        <ele>528.4</ele>
        <time>2020-07-26T08:34:42Z</time>
      </trkpt>
      <trkpt lat="42.9333910" lon="-0.0470890">
        <ele>528.8</ele>
        <time>2020-07-26T08:34:43Z</time>
      </trkpt>
      <trkpt lat="42.9332710" lon="-0.0469720">
        <ele>529.4</ele>
        <time>2020-07-26T08:34:46Z</time>
      </trkpt>
      <trkpt lat="42.9331850" lon="-0.0468920">
        <ele>530.0</ele>
        <time>2020-07-26T08:34:48Z</time>
      </trkpt>
      <trkpt lat="42.9331440" lon="-0.0468490">
        <ele>530.2</ele>
        <time>2020-07-26T08:34:49Z</time>
      </trkpt>
      <trkpt lat="42.9328520" lon="-0.0466170">
        <ele>531.0</ele>
        <time>2020-07-26T08:34:55Z</time>
      </trkpt>
      <trkpt lat="42.9325500" lon="-0.0464320">
        <ele>532.0</ele>
        <time>2020-07-26T08:35:01Z</time>
      </trkpt>
      <trkpt lat="42.9325010" lon="-0.0463990">
        <ele>532.0</ele>
        <time>2020-07-26T08:35:02Z</time>
      </trkpt>
      <trkpt lat="42.9324540" lon="-0.0463650">
        <ele>532.2</ele>
        <time>2020-07-26T08:35:03Z</time>
      </trkpt>
      <trkpt lat="42.9321510" lon="-0.0461610">
        <ele>533.0</ele>
        <time>2020-07-26T08:35:09Z</time>
      </trkpt>
      <trkpt lat="42.9320420" lon="-0.0461000">
        <ele>533.0</ele>
        <time>2020-07-26T08:35:10Z</time>
      </trkpt>
      <trkpt lat="42.9320420" lon="-0.0461000">
        <ele>533.2</ele>
        <time>2020-07-26T08:35:11Z</time>
      </trkpt>
      <trkpt lat="42.9317750" lon="-0.0460280">
        <ele>534.2</ele>
        <time>2020-07-26T08:35:16Z</time>
      </trkpt>
      <trkpt lat="42.9317170" lon="-0.0460240">
        <ele>534.2</ele>
        <time>2020-07-26T08:35:17Z</time>
      </trkpt>
      <trkpt lat="42.9316030" lon="-0.0460240">
        <ele>534.4</ele>
        <time>2020-07-26T08:35:19Z</time>
      </trkpt>
      <trkpt lat="42.9313790" lon="-0.0460620">
        <ele>535.0</ele>
        <time>2020-07-26T08:35:23Z</time>
      </trkpt>
      <trkpt lat="42.9313260" lon="-0.0460720">
        <ele>535.4</ele>
        <time>2020-07-26T08:35:24Z</time>
      </trkpt>
      <trkpt lat="42.9310610" lon="-0.0460710">
        <ele>536.6</ele>
        <time>2020-07-26T08:35:29Z</time>
      </trkpt>
      <trkpt lat="42.9310090" lon="-0.0460510">
        <ele>536.8</ele>
        <time>2020-07-26T08:35:30Z</time>
      </trkpt>
      <trkpt lat="42.9307520" lon="-0.0459330">
        <ele>537.6</ele>
        <time>2020-07-26T08:35:35Z</time>
      </trkpt>
      <trkpt lat="42.9305470" lon="-0.0457040">
        <ele>538.8</ele>
        <time>2020-07-26T08:35:40Z</time>
      </trkpt>
      <trkpt lat="42.9303630" lon="-0.0454470">
        <ele>539.8</ele>
        <time>2020-07-26T08:35:45Z</time>
      </trkpt>
      <trkpt lat="42.9302930" lon="-0.0453600">
        <ele>540.6</ele>
        <time>2020-07-26T08:35:47Z</time>
      </trkpt>
      <trkpt lat="42.9302280" lon="-0.0452690">
        <ele>541.2</ele>
        <time>2020-07-26T08:35:49Z</time>
      </trkpt>
      <trkpt lat="42.9301470" lon="-0.0451230">
        <ele>542.4</ele>
        <time>2020-07-26T08:35:52Z</time>
      </trkpt>
      <trkpt lat="42.9301010" lon="-0.0450190">
        <ele>543.2</ele>
        <time>2020-07-26T08:35:54Z</time>
      </trkpt>
      <trkpt lat="42.9300770" lon="-0.0449680">
        <ele>543.6</ele>
        <time>2020-07-26T08:35:55Z</time>
      </trkpt>
      <trkpt lat="42.9299960" lon="-0.0447600">
        <ele>544.6</ele>
        <time>2020-07-26T08:35:59Z</time>
      </trkpt>
      <trkpt lat="42.9299560" lon="-0.0446500">
        <ele>545.2</ele>
        <time>2020-07-26T08:36:01Z</time>
      </trkpt>
      <trkpt lat="42.9298930" lon="-0.0444830">
        <ele>545.8</ele>
        <time>2020-07-26T08:36:04Z</time>
      </trkpt>
      <trkpt lat="42.9298360" lon="-0.0443150">
        <ele>546.4</ele>
        <time>2020-07-26T08:36:07Z</time>
      </trkpt>
      <trkpt lat="42.9298190" lon="-0.0442580">
        <ele>546.6</ele>
        <time>2020-07-26T08:36:08Z</time>
      </trkpt>
      <trkpt lat="42.9298050" lon="-0.0441990">
        <ele>546.8</ele>
        <time>2020-07-26T08:36:09Z</time>
      </trkpt>
      <trkpt lat="42.9297540" lon="-0.0439700">
        <ele>547.8</ele>
        <time>2020-07-26T08:36:13Z</time>
      </trkpt>
      <trkpt lat="42.9297150" lon="-0.0438050">
        <ele>548.6</ele>
        <time>2020-07-26T08:36:16Z</time>
      </trkpt>
      <trkpt lat="42.9296980" lon="-0.0437550">
        <ele>548.8</ele>
        <time>2020-07-26T08:36:17Z</time>
      </trkpt>
      <trkpt lat="42.9296750" lon="-0.0437120">
        <ele>549.0</ele>
        <time>2020-07-26T08:36:18Z</time>
      </trkpt>
      <trkpt lat="42.9296460" lon="-0.0436740">
        <ele>549.2</ele>
        <time>2020-07-26T08:36:19Z</time>
      </trkpt>
      <trkpt lat="42.9295820" lon="-0.0436090">
        <ele>549.8</ele>
        <time>2020-07-26T08:36:21Z</time>
      </trkpt>
      <trkpt lat="42.9295520" lon="-0.0435770">
        <ele>550.0</ele>
        <time>2020-07-26T08:36:22Z</time>
      </trkpt>
      <trkpt lat="42.9294140" lon="-0.0434030">
        <ele>551.4</ele>
        <time>2020-07-26T08:36:27Z</time>
      </trkpt>
      <trkpt lat="42.9293640" lon="-0.0433290">
        <ele>551.8</ele>
        <time>2020-07-26T08:36:29Z</time>
      </trkpt>
      <trkpt lat="42.9293130" lon="-0.0432540">
        <ele>552.4</ele>
        <time>2020-07-26T08:36:31Z</time>
      </trkpt>
      <trkpt lat="42.9292320" lon="-0.0431390">
        <ele>553.4</ele>
        <time>2020-07-26T08:36:34Z</time>
      </trkpt>
      <trkpt lat="42.9291550" lon="-0.0430470">
        <ele>554.2</ele>
        <time>2020-07-26T08:36:37Z</time>
      </trkpt>
      <trkpt lat="42.9291080" lon="-0.0429960">
        <ele>554.6</ele>
        <time>2020-07-26T08:36:39Z</time>
      </trkpt>
      <trkpt lat="42.9290140" lon="-0.0429310">
        <ele>555.8</ele>
        <time>2020-07-26T08:36:43Z</time>
      </trkpt>
      <trkpt lat="42.9289650" lon="-0.0428980">
        <ele>556.4</ele>
        <time>2020-07-26T08:36:45Z</time>
      </trkpt>
      <trkpt lat="42.9289020" lon="-0.0428450">
        <ele>557.0</ele>
        <time>2020-07-26T08:36:47Z</time>
      </trkpt>
      <trkpt lat="42.9287470" lon="-0.0426600">
        <ele>558.0</ele>
        <time>2020-07-26T08:36:52Z</time>
      </trkpt>
      <trkpt lat="42.9285830" lon="-0.0424950">
        <ele>559.2</ele>
        <time>2020-07-26T08:36:57Z</time>
      </trkpt>
      <trkpt lat="42.9284520" lon="-0.0422650">
        <ele>560.0</ele>
        <time>2020-07-26T08:37:00Z</time>
      </trkpt>
      <trkpt lat="42.9284110" lon="-0.0422160">
        <ele>560.4</ele>
        <time>2020-07-26T08:37:01Z</time>
      </trkpt>
      <trkpt lat="42.9282530" lon="-0.0421190">
        <ele>561.6</ele>
        <time>2020-07-26T08:37:05Z</time>
      </trkpt>
      <trkpt lat="42.9281750" lon="-0.0420790">
        <ele>561.8</ele>
        <time>2020-07-26T08:37:07Z</time>
      </trkpt>
      <trkpt lat="42.9280780" lon="-0.0420330">
        <ele>562.6</ele>
        <time>2020-07-26T08:37:10Z</time>
      </trkpt>
      <trkpt lat="42.9280130" lon="-0.0420020">
        <ele>563.0</ele>
        <time>2020-07-26T08:37:12Z</time>
      </trkpt>
      <trkpt lat="42.9279330" lon="-0.0419590">
        <ele>563.8</ele>
        <time>2020-07-26T08:37:14Z</time>
      </trkpt>
      <trkpt lat="42.9278050" lon="-0.0419150">
        <ele>564.6</ele>
        <time>2020-07-26T08:37:17Z</time>
      </trkpt>
      <trkpt lat="42.9277620" lon="-0.0419030">
        <ele>564.8</ele>
        <time>2020-07-26T08:37:18Z</time>
      </trkpt>
      <trkpt lat="42.9277210" lon="-0.0418950">
        <ele>565.2</ele>
        <time>2020-07-26T08:37:19Z</time>
      </trkpt>
      <trkpt lat="42.9276100" lon="-0.0418710">
        <ele>565.8</ele>
        <time>2020-07-26T08:37:22Z</time>
      </trkpt>
      <trkpt lat="42.9275660" lon="-0.0418580">
        <ele>566.0</ele>
        <time>2020-07-26T08:37:23Z</time>
      </trkpt>
      <trkpt lat="42.9274350" lon="-0.0418210">
        <ele>566.6</ele>
        <time>2020-07-26T08:37:26Z</time>
      </trkpt>
      <trkpt lat="42.9273510" lon="-0.0417930">
        <ele>567.0</ele>
        <time>2020-07-26T08:37:28Z</time>
      </trkpt>
      <trkpt lat="42.9271590" lon="-0.0417160">
        <ele>568.4</ele>
        <time>2020-07-26T08:37:33Z</time>
      </trkpt>
      <trkpt lat="42.9270040" lon="-0.0416730">
        <ele>569.4</ele>
        <time>2020-07-26T08:37:37Z</time>
      </trkpt>
      <trkpt lat="42.9268770" lon="-0.0416580">
        <ele>570.0</ele>
        <time>2020-07-26T08:37:40Z</time>
      </trkpt>
      <trkpt lat="42.9267920" lon="-0.0416420">
        <ele>570.6</ele>
        <time>2020-07-26T08:37:42Z</time>
      </trkpt>
      <trkpt lat="42.9265450" lon="-0.0416100">
        <ele>571.8</ele>
        <time>2020-07-26T08:37:48Z</time>
      </trkpt>
      <trkpt lat="42.9264630" lon="-0.0415940">
        <ele>572.2</ele>
        <time>2020-07-26T08:37:50Z</time>
      </trkpt>
      <trkpt lat="42.9263440" lon="-0.0415760">
        <ele>573.0</ele>
        <time>2020-07-26T08:37:53Z</time>
      </trkpt>
      <trkpt lat="42.9261760" lon="-0.0415750">
        <ele>574.0</ele>
        <time>2020-07-26T08:37:57Z</time>
      </trkpt>
      <trkpt lat="42.9261360" lon="-0.0415910">
        <ele>574.2</ele>
        <time>2020-07-26T08:37:58Z</time>
      </trkpt>
      <trkpt lat="42.9260990" lon="-0.0416150">
        <ele>574.4</ele>
        <time>2020-07-26T08:37:59Z</time>
      </trkpt>
      <trkpt lat="42.9260020" lon="-0.0417240">
        <ele>575.0</ele>
        <time>2020-07-26T08:38:02Z</time>
      </trkpt>
      <trkpt lat="42.9259760" lon="-0.0417720">
        <ele>575.4</ele>
        <time>2020-07-26T08:38:03Z</time>
      </trkpt>
      <trkpt lat="42.9259060" lon="-0.0419090">
        <ele>576.4</ele>
        <time>2020-07-26T08:38:06Z</time>
      </trkpt>
      <trkpt lat="42.9258510" lon="-0.0419780">
        <ele>577.2</ele>
        <time>2020-07-26T08:38:08Z</time>
      </trkpt>
      <trkpt lat="42.9258170" lon="-0.0420170">
        <ele>577.4</ele>
        <time>2020-07-26T08:38:09Z</time>
      </trkpt>
      <trkpt lat="42.9257830" lon="-0.0420480">
        <ele>577.8</ele>
        <time>2020-07-26T08:38:10Z</time>
      </trkpt>
      <trkpt lat="42.9256710" lon="-0.0421100">
        <ele>578.6</ele>
        <time>2020-07-26T08:38:13Z</time>
      </trkpt>
      <trkpt lat="42.9255550" lon="-0.0421340">
        <ele>579.6</ele>
        <time>2020-07-26T08:38:16Z</time>
      </trkpt>
      <trkpt lat="42.9254320" lon="-0.0421180">
        <ele>580.4</ele>
        <time>2020-07-26T08:38:19Z</time>
      </trkpt>
      <trkpt lat="42.9253510" lon="-0.0420800">
        <ele>580.8</ele>
        <time>2020-07-26T08:38:21Z</time>
      </trkpt>
      <trkpt lat="42.9252300" lon="-0.0419890">
        <ele>581.4</ele>
        <time>2020-07-26T08:38:24Z</time>
      </trkpt>
      <trkpt lat="42.9251440" lon="-0.0419230">
        <ele>581.8</ele>
        <time>2020-07-26T08:38:26Z</time>
      </trkpt>
      <trkpt lat="42.9248870" lon="-0.0417150">
        <ele>582.6</ele>
        <time>2020-07-26T08:38:32Z</time>
      </trkpt>
      <trkpt lat="42.9248470" lon="-0.0416820">
        <ele>582.6</ele>
        <time>2020-07-26T08:38:33Z</time>
      </trkpt>
      <trkpt lat="42.9246840" lon="-0.0415580">
        <ele>582.8</ele>
        <time>2020-07-26T08:38:37Z</time>
      </trkpt>
      <trkpt lat="42.9245370" lon="-0.0414340">
        <ele>583.8</ele>
        <time>2020-07-26T08:38:41Z</time>
      </trkpt>
      <trkpt lat="42.9245010" lon="-0.0414020">
        <ele>584.0</ele>
        <time>2020-07-26T08:38:42Z</time>
      </trkpt>
      <trkpt lat="42.9243310" lon="-0.0412180">
        <ele>585.0</ele>
        <time>2020-07-26T08:38:47Z</time>
      </trkpt>
      <trkpt lat="42.9242790" lon="-0.0411430">
        <ele>585.4</ele>
        <time>2020-07-26T08:38:49Z</time>
      </trkpt>
      <trkpt lat="42.9241710" lon="-0.0409850">
        <ele>586.0</ele>
        <time>2020-07-26T08:38:54Z</time>
      </trkpt>
      <trkpt lat="42.9241330" lon="-0.0409290">
        <ele>586.2</ele>
        <time>2020-07-26T08:38:56Z</time>
      </trkpt>
      <trkpt lat="42.9240150" lon="-0.0408140">
        <ele>586.8</ele>
        <time>2020-07-26T08:39:01Z</time>
      </trkpt>
      <trkpt lat="42.9238320" lon="-0.0407860">
        <ele>587.6</ele>
        <time>2020-07-26T08:39:18Z</time>
      </trkpt>
      <trkpt lat="42.9236370" lon="-0.0408400">
        <ele>588.8</ele>
        <time>2020-07-26T08:39:23Z</time>
      </trkpt>
      <trkpt lat="42.9235380" lon="-0.0408590">
        <ele>589.4</ele>
        <time>2020-07-26T08:39:25Z</time>
      </trkpt>
      <trkpt lat="42.9234300" lon="-0.0408490">
        <ele>589.8</ele>
        <time>2020-07-26T08:39:27Z</time>
      </trkpt>
      <trkpt lat="42.9233770" lon="-0.0408340">
        <ele>589.8</ele>
        <time>2020-07-26T08:39:28Z</time>
      </trkpt>
      <trkpt lat="42.9230760" lon="-0.0407400">
        <ele>590.6</ele>
        <time>2020-07-26T08:39:34Z</time>
      </trkpt>
      <trkpt lat="42.9229740" lon="-0.0406870">
        <ele>590.8</ele>
        <time>2020-07-26T08:39:36Z</time>
      </trkpt>
      <trkpt lat="42.9228750" lon="-0.0406520">
        <ele>591.2</ele>
        <time>2020-07-26T08:39:38Z</time>
      </trkpt>
      <trkpt lat="42.9227770" lon="-0.0406710">
        <ele>591.6</ele>
        <time>2020-07-26T08:39:40Z</time>
      </trkpt>
      <trkpt lat="42.9227310" lon="-0.0406890">
        <ele>592.0</ele>
        <time>2020-07-26T08:39:41Z</time>
      </trkpt>
      <trkpt lat="42.9226000" lon="-0.0407390">
        <ele>593.0</ele>
        <time>2020-07-26T08:39:44Z</time>
      </trkpt>
      <trkpt lat="42.9225140" lon="-0.0407660">
        <ele>593.6</ele>
        <time>2020-07-26T08:39:46Z</time>
      </trkpt>
      <trkpt lat="42.9224730" lon="-0.0407780">
        <ele>593.8</ele>
        <time>2020-07-26T08:39:47Z</time>
      </trkpt>
      <trkpt lat="42.9224260" lon="-0.0407890">
        <ele>594.0</ele>
        <time>2020-07-26T08:39:48Z</time>
      </trkpt>
      <trkpt lat="42.9222280" lon="-0.0407910">
        <ele>595.0</ele>
        <time>2020-07-26T08:39:52Z</time>
      </trkpt>
      <trkpt lat="42.9220730" lon="-0.0408010">
        <ele>595.6</ele>
        <time>2020-07-26T08:39:55Z</time>
      </trkpt>
      <trkpt lat="42.9219170" lon="-0.0408490">
        <ele>596.0</ele>
        <time>2020-07-26T08:39:58Z</time>
      </trkpt>
      <trkpt lat="42.9218670" lon="-0.0408660">
        <ele>596.2</ele>
        <time>2020-07-26T08:39:59Z</time>
      </trkpt>
      <trkpt lat="42.9216680" lon="-0.0409410">
        <ele>597.4</ele>
        <time>2020-07-26T08:40:03Z</time>
      </trkpt>
      <trkpt lat="42.9214420" lon="-0.0410410">
        <ele>598.6</ele>
        <time>2020-07-26T08:40:08Z</time>
      </trkpt>
      <trkpt lat="42.9214420" lon="-0.0410410">
        <ele>599.0</ele>
        <time>2020-07-26T08:40:12Z</time>
      </trkpt>
      <trkpt lat="42.9213180" lon="-0.0409930">
        <ele>599.2</ele>
        <time>2020-07-26T08:40:18Z</time>
      </trkpt>
      <trkpt lat="42.9211930" lon="-0.0409450">
        <ele>598.4</ele>
        <time>2020-07-26T08:40:24Z</time>
      </trkpt>
      <trkpt lat="42.9210690" lon="-0.0408960">
        <ele>597.2</ele>
        <time>2020-07-26T08:40:27Z</time>
      </trkpt>
      <trkpt lat="42.9209440" lon="-0.0408480">
        <ele>596.2</ele>
        <time>2020-07-26T08:40:32Z</time>
      </trkpt>
      <trkpt lat="42.9208200" lon="-0.0408000">
        <ele>595.6</ele>
        <time>2020-07-26T08:40:34Z</time>
      </trkpt>
      <trkpt lat="42.9206950" lon="-0.0407520">
        <ele>595.4</ele>
        <time>2020-07-26T08:40:35Z</time>
      </trkpt>
      <trkpt lat="42.9199480" lon="-0.0404630">
        <ele>595.2</ele>
        <time>2020-07-26T08:40:36Z</time>
      </trkpt>
      <trkpt lat="42.9198660" lon="-0.0404550">
        <ele>595.2</ele>
        <time>2020-07-26T08:40:37Z</time>
      </trkpt>
      <trkpt lat="42.9196980" lon="-0.0404090">
        <ele>595.0</ele>
        <time>2020-07-26T08:40:39Z</time>
      </trkpt>
      <trkpt lat="42.9195230" lon="-0.0403430">
        <ele>595.0</ele>
        <time>2020-07-26T08:40:41Z</time>
      </trkpt>
      <trkpt lat="42.9193590" lon="-0.0402870">
        <ele>595.2</ele>
        <time>2020-07-26T08:40:43Z</time>
      </trkpt>
      <trkpt lat="42.9192120" lon="-0.0402910">
        <ele>595.6</ele>
        <time>2020-07-26T08:40:45Z</time>
      </trkpt>
      <trkpt lat="42.9191440" lon="-0.0403150">
        <ele>596.0</ele>
        <time>2020-07-26T08:40:46Z</time>
      </trkpt>
      <trkpt lat="42.9190800" lon="-0.0403400">
        <ele>596.4</ele>
        <time>2020-07-26T08:40:47Z</time>
      </trkpt>
      <trkpt lat="42.9188410" lon="-0.0404490">
        <ele>597.4</ele>
        <time>2020-07-26T08:40:51Z</time>
      </trkpt>
      <trkpt lat="42.9187240" lon="-0.0404890">
        <ele>597.6</ele>
        <time>2020-07-26T08:40:53Z</time>
      </trkpt>
      <trkpt lat="42.9186690" lon="-0.0404980">
        <ele>597.8</ele>
        <time>2020-07-26T08:40:54Z</time>
      </trkpt>
      <trkpt lat="42.9185520" lon="-0.0404440">
        <ele>598.2</ele>
        <time>2020-07-26T08:40:56Z</time>
      </trkpt>
      <trkpt lat="42.9184950" lon="-0.0403930">
        <ele>598.6</ele>
        <time>2020-07-26T08:40:57Z</time>
      </trkpt>
      <trkpt lat="42.9184440" lon="-0.0403380">
        <ele>598.8</ele>
        <time>2020-07-26T08:40:58Z</time>
      </trkpt>
      <trkpt lat="42.9183090" lon="-0.0401650">
        <ele>599.6</ele>
        <time>2020-07-26T08:41:01Z</time>
      </trkpt>
      <trkpt lat="42.9182640" lon="-0.0401140">
        <ele>599.8</ele>
        <time>2020-07-26T08:41:02Z</time>
      </trkpt>
      <trkpt lat="42.9182170" lon="-0.0400660">
        <ele>599.8</ele>
        <time>2020-07-26T08:41:03Z</time>
      </trkpt>
      <trkpt lat="42.9181690" lon="-0.0400270">
        <ele>599.8</ele>
        <time>2020-07-26T08:41:04Z</time>
      </trkpt>
      <trkpt lat="42.9180020" lon="-0.0399460">
        <ele>600.6</ele>
        <time>2020-07-26T08:41:07Z</time>
      </trkpt>
      <trkpt lat="42.9178270" lon="-0.0399420">
        <ele>601.4</ele>
        <time>2020-07-26T08:41:10Z</time>
      </trkpt>
      <trkpt lat="42.9177140" lon="-0.0399440">
        <ele>601.6</ele>
        <time>2020-07-26T08:41:12Z</time>
      </trkpt>
      <trkpt lat="42.9176620" lon="-0.0399390">
        <ele>601.8</ele>
        <time>2020-07-26T08:41:13Z</time>
      </trkpt>
      <trkpt lat="42.9175550" lon="-0.0399250">
        <ele>602.4</ele>
        <time>2020-07-26T08:41:15Z</time>
      </trkpt>
      <trkpt lat="42.9174570" lon="-0.0398820">
        <ele>602.6</ele>
        <time>2020-07-26T08:41:17Z</time>
      </trkpt>
      <trkpt lat="42.9174110" lon="-0.0398410">
        <ele>602.8</ele>
        <time>2020-07-26T08:41:18Z</time>
      </trkpt>
      <trkpt lat="42.9173680" lon="-0.0397940">
        <ele>603.0</ele>
        <time>2020-07-26T08:41:19Z</time>
      </trkpt>
      <trkpt lat="42.9172820" lon="-0.0396820">
        <ele>603.4</ele>
        <time>2020-07-26T08:41:21Z</time>
      </trkpt>
      <trkpt lat="42.9171640" lon="-0.0395050">
        <ele>603.8</ele>
        <time>2020-07-26T08:41:24Z</time>
      </trkpt>
      <trkpt lat="42.9170100" lon="-0.0392570">
        <ele>604.6</ele>
        <time>2020-07-26T08:41:28Z</time>
      </trkpt>
      <trkpt lat="42.9169320" lon="-0.0391210">
        <ele>604.8</ele>
        <time>2020-07-26T08:41:30Z</time>
      </trkpt>
      <trkpt lat="42.9167680" lon="-0.0388240">
        <ele>604.4</ele>
        <time>2020-07-26T08:41:34Z</time>
      </trkpt>
      <trkpt lat="42.9167240" lon="-0.0387480">
        <ele>604.2</ele>
        <time>2020-07-26T08:41:35Z</time>
      </trkpt>
      <trkpt lat="42.9164340" lon="-0.0383020">
        <ele>603.8</ele>
        <time>2020-07-26T08:41:41Z</time>
      </trkpt>
      <trkpt lat="42.9163720" lon="-0.0382390">
        <ele>603.8</ele>
        <time>2020-07-26T08:41:42Z</time>
      </trkpt>
      <trkpt lat="42.9160290" lon="-0.0380110">
        <ele>602.8</ele>
        <time>2020-07-26T08:41:47Z</time>
      </trkpt>
      <trkpt lat="42.9157170" lon="-0.0378530">
        <ele>602.6</ele>
        <time>2020-07-26T08:41:51Z</time>
      </trkpt>
      <trkpt lat="42.9155600" lon="-0.0377720">
        <ele>602.4</ele>
        <time>2020-07-26T08:41:53Z</time>
      </trkpt>
      <trkpt lat="42.9153980" lon="-0.0376930">
        <ele>601.8</ele>
        <time>2020-07-26T08:41:55Z</time>
      </trkpt>
      <trkpt lat="42.9152340" lon="-0.0376080">
        <ele>600.8</ele>
        <time>2020-07-26T08:41:57Z</time>
      </trkpt>
      <trkpt lat="42.9149860" lon="-0.0374740">
        <ele>599.8</ele>
        <time>2020-07-26T08:42:00Z</time>
      </trkpt>
      <trkpt lat="42.9149020" lon="-0.0374300">
        <ele>599.4</ele>
        <time>2020-07-26T08:42:01Z</time>
      </trkpt>
      <trkpt lat="42.9143910" lon="-0.0371310">
        <ele>599.0</ele>
        <time>2020-07-26T08:42:07Z</time>
      </trkpt>
      <trkpt lat="42.9142130" lon="-0.0370400">
        <ele>598.6</ele>
        <time>2020-07-26T08:42:09Z</time>
      </trkpt>
      <trkpt lat="42.9138630" lon="-0.0369280">
        <ele>598.6</ele>
        <time>2020-07-26T08:42:13Z</time>
      </trkpt>
      <trkpt lat="42.9137760" lon="-0.0369370">
        <ele>598.8</ele>
        <time>2020-07-26T08:42:14Z</time>
      </trkpt>
      <trkpt lat="42.9136930" lon="-0.0369630">
        <ele>598.8</ele>
        <time>2020-07-26T08:42:15Z</time>
      </trkpt>
      <trkpt lat="42.9134600" lon="-0.0370840">
        <ele>599.6</ele>
        <time>2020-07-26T08:42:18Z</time>
      </trkpt>
      <trkpt lat="42.9132490" lon="-0.0371610">
        <ele>600.6</ele>
        <time>2020-07-26T08:42:21Z</time>
      </trkpt>
      <trkpt lat="42.9131110" lon="-0.0371680">
        <ele>600.8</ele>
        <time>2020-07-26T08:42:23Z</time>
      </trkpt>
      <trkpt lat="42.9129150" lon="-0.0371880">
        <ele>602.2</ele>
        <time>2020-07-26T08:42:26Z</time>
      </trkpt>
      <trkpt lat="42.9128000" lon="-0.0372450">
        <ele>603.2</ele>
        <time>2020-07-26T08:42:28Z</time>
      </trkpt>
      <trkpt lat="42.9127460" lon="-0.0372760">
        <ele>603.4</ele>
        <time>2020-07-26T08:42:29Z</time>
      </trkpt>
      <trkpt lat="42.9125880" lon="-0.0373510">
        <ele>604.6</ele>
        <time>2020-07-26T08:42:32Z</time>
      </trkpt>
      <trkpt lat="42.9124860" lon="-0.0373810">
        <ele>605.2</ele>
        <time>2020-07-26T08:42:34Z</time>
      </trkpt>
      <trkpt lat="42.9124350" lon="-0.0373880">
        <ele>605.6</ele>
        <time>2020-07-26T08:42:35Z</time>
      </trkpt>
      <trkpt lat="42.9122270" lon="-0.0373690">
        <ele>606.8</ele>
        <time>2020-07-26T08:42:39Z</time>
      </trkpt>
      <trkpt lat="42.9121750" lon="-0.0373540">
        <ele>607.2</ele>
        <time>2020-07-26T08:42:40Z</time>
      </trkpt>
      <trkpt lat="42.9120130" lon="-0.0372850">
        <ele>608.0</ele>
        <time>2020-07-26T08:42:43Z</time>
      </trkpt>
      <trkpt lat="42.9118380" lon="-0.0372160">
        <ele>608.2</ele>
        <time>2020-07-26T08:42:46Z</time>
      </trkpt>
      <trkpt lat="42.9116590" lon="-0.0371690">
        <ele>608.8</ele>
        <time>2020-07-26T08:42:49Z</time>
      </trkpt>
      <trkpt lat="42.9116000" lon="-0.0371500">
        <ele>609.0</ele>
        <time>2020-07-26T08:42:50Z</time>
      </trkpt>
      <trkpt lat="42.9115420" lon="-0.0371260">
        <ele>609.2</ele>
        <time>2020-07-26T08:42:51Z</time>
      </trkpt>
      <trkpt lat="42.9114850" lon="-0.0370990">
        <ele>609.4</ele>
        <time>2020-07-26T08:42:52Z</time>
      </trkpt>
      <trkpt lat="42.9112040" lon="-0.0369370">
        <ele>609.6</ele>
        <time>2020-07-26T08:42:57Z</time>
      </trkpt>
      <trkpt lat="42.9108250" lon="-0.0367520">
        <ele>609.4</ele>
        <time>2020-07-26T08:43:03Z</time>
      </trkpt>
      <trkpt lat="42.9107590" lon="-0.0367390">
        <ele>609.2</ele>
        <time>2020-07-26T08:43:04Z</time>
      </trkpt>
      <trkpt lat="42.9104160" lon="-0.0366570">
        <ele>608.8</ele>
        <time>2020-07-26T08:43:09Z</time>
      </trkpt>
      <trkpt lat="42.9102120" lon="-0.0366070">
        <ele>608.8</ele>
        <time>2020-07-26T08:43:12Z</time>
      </trkpt>
      <trkpt lat="42.9099950" lon="-0.0365910">
        <ele>608.6</ele>
        <time>2020-07-26T08:43:15Z</time>
      </trkpt>
      <trkpt lat="42.9096860" lon="-0.0365890">
        <ele>608.2</ele>
        <time>2020-07-26T08:43:19Z</time>
      </trkpt>
      <trkpt lat="42.9096080" lon="-0.0365910">
        <ele>608.0</ele>
        <time>2020-07-26T08:43:20Z</time>
      </trkpt>
      <trkpt lat="42.9092940" lon="-0.0365420">
        <ele>606.8</ele>
        <time>2020-07-26T08:43:24Z</time>
      </trkpt>
      <trkpt lat="42.9090360" lon="-0.0364540">
        <ele>605.4</ele>
        <time>2020-07-26T08:43:27Z</time>
      </trkpt>
      <trkpt lat="42.9088560" lon="-0.0363500">
        <ele>604.4</ele>
        <time>2020-07-26T08:43:29Z</time>
      </trkpt>
      <trkpt lat="42.9085870" lon="-0.0361580">
        <ele>603.0</ele>
        <time>2020-07-26T08:43:32Z</time>
      </trkpt>
      <trkpt lat="42.9084210" lon="-0.0359920">
        <ele>602.2</ele>
        <time>2020-07-26T08:43:34Z</time>
      </trkpt>
      <trkpt lat="42.9083380" lon="-0.0359070">
        <ele>601.6</ele>
        <time>2020-07-26T08:43:35Z</time>
      </trkpt>
      <trkpt lat="42.9080690" lon="-0.0356780">
        <ele>600.6</ele>
        <time>2020-07-26T08:43:38Z</time>
      </trkpt>
      <trkpt lat="42.9078970" lon="-0.0355530">
        <ele>600.4</ele>
        <time>2020-07-26T08:43:40Z</time>
      </trkpt>
      <trkpt lat="42.9074930" lon="-0.0352330">
        <ele>599.6</ele>
        <time>2020-07-26T08:43:45Z</time>
      </trkpt>
      <trkpt lat="42.9074170" lon="-0.0351670">
        <ele>599.4</ele>
        <time>2020-07-26T08:43:46Z</time>
      </trkpt>
      <trkpt lat="42.9070040" lon="-0.0349250">
        <ele>599.0</ele>
        <time>2020-07-26T08:43:51Z</time>
      </trkpt>
      <trkpt lat="42.9067470" lon="-0.0347860">
        <ele>598.6</ele>
        <time>2020-07-26T08:43:54Z</time>
      </trkpt>
      <trkpt lat="42.9065810" lon="-0.0346450">
        <ele>597.6</ele>
        <time>2020-07-26T08:43:56Z</time>
      </trkpt>
      <trkpt lat="42.9064020" lon="-0.0345330">
        <ele>596.6</ele>
        <time>2020-07-26T08:43:58Z</time>
      </trkpt>
      <trkpt lat="42.9063100" lon="-0.0345200">
        <ele>596.6</ele>
        <time>2020-07-26T08:43:59Z</time>
      </trkpt>
      <trkpt lat="42.9062200" lon="-0.0345360">
        <ele>596.4</ele>
        <time>2020-07-26T08:44:00Z</time>
      </trkpt>
      <trkpt lat="42.9060560" lon="-0.0346040">
        <ele>596.0</ele>
        <time>2020-07-26T08:44:02Z</time>
      </trkpt>
      <trkpt lat="42.9059760" lon="-0.0346030">
        <ele>595.8</ele>
        <time>2020-07-26T08:44:03Z</time>
      </trkpt>
      <trkpt lat="42.9059080" lon="-0.0345690">
        <ele>595.8</ele>
        <time>2020-07-26T08:44:04Z</time>
      </trkpt>
      <trkpt lat="42.9058480" lon="-0.0345080">
        <ele>595.6</ele>
        <time>2020-07-26T08:44:05Z</time>
      </trkpt>
      <trkpt lat="42.9057500" lon="-0.0343320">
        <ele>595.4</ele>
        <time>2020-07-26T08:44:07Z</time>
      </trkpt>
      <trkpt lat="42.9057070" lon="-0.0342300">
        <ele>595.4</ele>
        <time>2020-07-26T08:44:08Z</time>
      </trkpt>
      <trkpt lat="42.9055380" lon="-0.0338180">
        <ele>595.4</ele>
        <time>2020-07-26T08:44:12Z</time>
      </trkpt>
      <trkpt lat="42.9053070" lon="-0.0334000">
        <ele>596.6</ele>
        <time>2020-07-26T08:44:17Z</time>
      </trkpt>
      <trkpt lat="42.9051690" lon="-0.0331860">
        <ele>597.8</ele>
        <time>2020-07-26T08:44:20Z</time>
      </trkpt>
      <trkpt lat="42.9050720" lon="-0.0330500">
        <ele>598.4</ele>
        <time>2020-07-26T08:44:22Z</time>
      </trkpt>
      <trkpt lat="42.9049860" lon="-0.0329070">
        <ele>598.8</ele>
        <time>2020-07-26T08:44:24Z</time>
      </trkpt>
      <trkpt lat="42.9049460" lon="-0.0328390">
        <ele>599.0</ele>
        <time>2020-07-26T08:44:25Z</time>
      </trkpt>
      <trkpt lat="42.9047160" lon="-0.0323880">
        <ele>599.6</ele>
        <time>2020-07-26T08:44:31Z</time>
      </trkpt>
      <trkpt lat="42.9046420" lon="-0.0322330">
        <ele>599.8</ele>
        <time>2020-07-26T08:44:33Z</time>
      </trkpt>
      <trkpt lat="42.9044460" lon="-0.0318450">
        <ele>601.0</ele>
        <time>2020-07-26T08:44:38Z</time>
      </trkpt>
      <trkpt lat="42.9043100" lon="-0.0316310">
        <ele>601.6</ele>
        <time>2020-07-26T08:44:41Z</time>
      </trkpt>
      <trkpt lat="42.9041020" lon="-0.0313840">
        <ele>602.0</ele>
        <time>2020-07-26T08:44:45Z</time>
      </trkpt>
      <trkpt lat="42.9040420" lon="-0.0313410">
        <ele>602.2</ele>
        <time>2020-07-26T08:44:46Z</time>
      </trkpt>
      <trkpt lat="42.9039730" lon="-0.0313160">
        <ele>602.2</ele>
        <time>2020-07-26T08:44:47Z</time>
      </trkpt>
      <trkpt lat="42.9038970" lon="-0.0313120">
        <ele>602.4</ele>
        <time>2020-07-26T08:44:48Z</time>
      </trkpt>
      <trkpt lat="42.9037430" lon="-0.0313430">
        <ele>602.6</ele>
        <time>2020-07-26T08:44:50Z</time>
      </trkpt>
      <trkpt lat="42.9034490" lon="-0.0314470">
        <ele>603.2</ele>
        <time>2020-07-26T08:44:54Z</time>
      </trkpt>
      <trkpt lat="42.9033780" lon="-0.0314550">
        <ele>603.6</ele>
        <time>2020-07-26T08:44:55Z</time>
      </trkpt>
      <trkpt lat="42.9033080" lon="-0.0314490">
        <ele>603.6</ele>
        <time>2020-07-26T08:44:56Z</time>
      </trkpt>
      <trkpt lat="42.9031010" lon="-0.0313750">
        <ele>603.8</ele>
        <time>2020-07-26T08:44:59Z</time>
      </trkpt>
      <trkpt lat="42.9030340" lon="-0.0313410">
        <ele>603.8</ele>
        <time>2020-07-26T08:45:00Z</time>
      </trkpt>
      <trkpt lat="42.9026250" lon="-0.0311260">
        <ele>603.8</ele>
        <time>2020-07-26T08:45:06Z</time>
      </trkpt>
      <trkpt lat="42.9025600" lon="-0.0310920">
        <ele>604.0</ele>
        <time>2020-07-26T08:45:07Z</time>
      </trkpt>
      <trkpt lat="42.9024960" lon="-0.0310550">
        <ele>604.4</ele>
        <time>2020-07-26T08:45:08Z</time>
      </trkpt>
      <trkpt lat="42.9022290" lon="-0.0308690">
        <ele>604.4</ele>
        <time>2020-07-26T08:45:12Z</time>
      </trkpt>
      <trkpt lat="42.9021010" lon="-0.0307770">
        <ele>604.2</ele>
        <time>2020-07-26T08:45:14Z</time>
      </trkpt>
      <trkpt lat="42.9017270" lon="-0.0305080">
        <ele>605.2</ele>
        <time>2020-07-26T08:45:20Z</time>
      </trkpt>
      <trkpt lat="42.9016650" lon="-0.0304630">
        <ele>605.4</ele>
        <time>2020-07-26T08:45:21Z</time>
      </trkpt>
      <trkpt lat="42.9014880" lon="-0.0303300">
        <ele>606.0</ele>
        <time>2020-07-26T08:45:24Z</time>
      </trkpt>
      <trkpt lat="42.9013750" lon="-0.0302450">
        <ele>606.4</ele>
        <time>2020-07-26T08:45:26Z</time>
      </trkpt>
      <trkpt lat="42.9012100" lon="-0.0301190">
        <ele>607.6</ele>
        <time>2020-07-26T08:45:29Z</time>
      </trkpt>
      <trkpt lat="42.9010440" lon="-0.0299890">
        <ele>608.8</ele>
        <time>2020-07-26T08:45:32Z</time>
      </trkpt>
      <trkpt lat="42.9008260" lon="-0.0298260">
        <ele>609.2</ele>
        <time>2020-07-26T08:45:36Z</time>
      </trkpt>
      <trkpt lat="42.9006670" lon="-0.0297130">
        <ele>610.0</ele>
        <time>2020-07-26T08:45:39Z</time>
      </trkpt>
      <trkpt lat="42.9006150" lon="-0.0296750">
        <ele>610.4</ele>
        <time>2020-07-26T08:45:40Z</time>
      </trkpt>
      <trkpt lat="42.9005100" lon="-0.0295980">
        <ele>611.2</ele>
        <time>2020-07-26T08:45:42Z</time>
      </trkpt>
      <trkpt lat="42.9002960" lon="-0.0294340">
        <ele>611.6</ele>
        <time>2020-07-26T08:45:46Z</time>
      </trkpt>
      <trkpt lat="42.9001870" lon="-0.0293530">
        <ele>611.8</ele>
        <time>2020-07-26T08:45:48Z</time>
      </trkpt>
      <trkpt lat="42.9000230" lon="-0.0292320">
        <ele>612.4</ele>
        <time>2020-07-26T08:45:51Z</time>
      </trkpt>
      <trkpt lat="42.8997560" lon="-0.0290520">
        <ele>613.4</ele>
        <time>2020-07-26T08:45:56Z</time>
      </trkpt>
      <trkpt lat="42.8996510" lon="-0.0289800">
        <ele>613.8</ele>
        <time>2020-07-26T08:45:58Z</time>
      </trkpt>
      <trkpt lat="42.8994930" lon="-0.0288740">
        <ele>614.6</ele>
        <time>2020-07-26T08:46:01Z</time>
      </trkpt>
      <trkpt lat="42.8992870" lon="-0.0286940">
        <ele>614.8</ele>
        <time>2020-07-26T08:46:05Z</time>
      </trkpt>
      <trkpt lat="42.8989720" lon="-0.0284500">
        <ele>613.6</ele>
        <time>2020-07-26T08:46:10Z</time>
      </trkpt>
      <trkpt lat="42.8989010" lon="-0.0284050">
        <ele>613.2</ele>
        <time>2020-07-26T08:46:11Z</time>
      </trkpt>
      <trkpt lat="42.8986810" lon="-0.0282760">
        <ele>612.4</ele>
        <time>2020-07-26T08:46:14Z</time>
      </trkpt>
      <trkpt lat="42.8983850" lon="-0.0281090">
        <ele>611.8</ele>
        <time>2020-07-26T08:46:18Z</time>
      </trkpt>
      <trkpt lat="42.8980010" lon="-0.0279150">
        <ele>611.6</ele>
        <time>2020-07-26T08:46:23Z</time>
      </trkpt>
      <trkpt lat="42.8976990" lon="-0.0277430">
        <ele>612.4</ele>
        <time>2020-07-26T08:46:27Z</time>
      </trkpt>
      <trkpt lat="42.8972800" lon="-0.0274520">
        <ele>613.0</ele>
        <time>2020-07-26T08:46:33Z</time>
      </trkpt>
      <trkpt lat="42.8972110" lon="-0.0274080">
        <ele>613.4</ele>
        <time>2020-07-26T08:46:34Z</time>
      </trkpt>
      <trkpt lat="42.8970750" lon="-0.0273230">
        <ele>613.6</ele>
        <time>2020-07-26T08:46:36Z</time>
      </trkpt>
      <trkpt lat="42.8970090" lon="-0.0272810">
        <ele>613.6</ele>
        <time>2020-07-26T08:46:37Z</time>
      </trkpt>
      <trkpt lat="42.8968140" lon="-0.0271630">
        <ele>614.2</ele>
        <time>2020-07-26T08:46:40Z</time>
      </trkpt>
      <trkpt lat="42.8966800" lon="-0.0270780">
        <ele>614.4</ele>
        <time>2020-07-26T08:46:42Z</time>
      </trkpt>
      <trkpt lat="42.8966140" lon="-0.0270350">
        <ele>614.6</ele>
        <time>2020-07-26T08:46:43Z</time>
      </trkpt>
      <trkpt lat="42.8962920" lon="-0.0268350">
        <ele>615.8</ele>
        <time>2020-07-26T08:46:48Z</time>
      </trkpt>
      <trkpt lat="42.8960960" lon="-0.0267120">
        <ele>616.4</ele>
        <time>2020-07-26T08:46:51Z</time>
      </trkpt>
      <trkpt lat="42.8959660" lon="-0.0266350">
        <ele>616.6</ele>
        <time>2020-07-26T08:46:53Z</time>
      </trkpt>
      <trkpt lat="42.8959020" lon="-0.0265930">
        <ele>616.8</ele>
        <time>2020-07-26T08:46:54Z</time>
      </trkpt>
      <trkpt lat="42.8957070" lon="-0.0264690">
        <ele>617.2</ele>
        <time>2020-07-26T08:46:57Z</time>
      </trkpt>
      <trkpt lat="42.8955740" lon="-0.0263870">
        <ele>617.4</ele>
        <time>2020-07-26T08:46:59Z</time>
      </trkpt>
      <trkpt lat="42.8953140" lon="-0.0262270">
        <ele>617.8</ele>
        <time>2020-07-26T08:47:03Z</time>
      </trkpt>
      <trkpt lat="42.8949930" lon="-0.0260280">
        <ele>618.4</ele>
        <time>2020-07-26T08:47:08Z</time>
      </trkpt>
      <trkpt lat="42.8947340" lon="-0.0258740">
        <ele>618.6</ele>
        <time>2020-07-26T08:47:12Z</time>
      </trkpt>
      <trkpt lat="42.8943970" lon="-0.0256740">
        <ele>618.6</ele>
        <time>2020-07-26T08:47:17Z</time>
      </trkpt>
      <trkpt lat="42.8940450" lon="-0.0254620">
        <ele>619.0</ele>
        <time>2020-07-26T08:47:22Z</time>
      </trkpt>
      <trkpt lat="42.8938370" lon="-0.0253370">
        <ele>619.8</ele>
        <time>2020-07-26T08:47:25Z</time>
      </trkpt>
      <trkpt lat="42.8937690" lon="-0.0252960">
        <ele>620.2</ele>
        <time>2020-07-26T08:47:26Z</time>
      </trkpt>
      <trkpt lat="42.8937030" lon="-0.0252560">
        <ele>620.2</ele>
        <time>2020-07-26T08:47:27Z</time>
      </trkpt>
      <trkpt lat="42.8936370" lon="-0.0252150">
        <ele>620.4</ele>
        <time>2020-07-26T08:47:28Z</time>
      </trkpt>
      <trkpt lat="42.8935060" lon="-0.0251340">
        <ele>621.0</ele>
        <time>2020-07-26T08:47:30Z</time>
      </trkpt>
      <trkpt lat="42.8934410" lon="-0.0250950">
        <ele>621.2</ele>
        <time>2020-07-26T08:47:31Z</time>
      </trkpt>
      <trkpt lat="42.8932490" lon="-0.0249720">
        <ele>621.6</ele>
        <time>2020-07-26T08:47:34Z</time>
      </trkpt>
      <trkpt lat="42.8930560" lon="-0.0248470">
        <ele>621.6</ele>
        <time>2020-07-26T08:47:37Z</time>
      </trkpt>
      <trkpt lat="42.8926560" lon="-0.0245970">
        <ele>622.0</ele>
        <time>2020-07-26T08:47:43Z</time>
      </trkpt>
      <trkpt lat="42.8925900" lon="-0.0245520">
        <ele>622.2</ele>
        <time>2020-07-26T08:47:44Z</time>
      </trkpt>
      <trkpt lat="42.8924560" lon="-0.0244670">
        <ele>622.6</ele>
        <time>2020-07-26T08:47:46Z</time>
      </trkpt>
      <trkpt lat="42.8921890" lon="-0.0243000">
        <ele>622.8</ele>
        <time>2020-07-26T08:47:50Z</time>
      </trkpt>
      <trkpt lat="42.8919960" lon="-0.0241790">
        <ele>623.4</ele>
        <time>2020-07-26T08:47:53Z</time>
      </trkpt>
      <trkpt lat="42.8918040" lon="-0.0240620">
        <ele>623.8</ele>
        <time>2020-07-26T08:47:56Z</time>
      </trkpt>
      <trkpt lat="42.8914200" lon="-0.0238180">
        <ele>624.6</ele>
        <time>2020-07-26T08:48:02Z</time>
      </trkpt>
      <trkpt lat="42.8911830" lon="-0.0236380">
        <ele>625.4</ele>
        <time>2020-07-26T08:48:06Z</time>
      </trkpt>
      <trkpt lat="42.8910730" lon="-0.0235260">
        <ele>625.6</ele>
        <time>2020-07-26T08:48:08Z</time>
      </trkpt>
      <trkpt lat="42.8910190" lon="-0.0234650">
        <ele>625.8</ele>
        <time>2020-07-26T08:48:09Z</time>
      </trkpt>
      <trkpt lat="42.8907880" lon="-0.0231050">
        <ele>626.0</ele>
        <time>2020-07-26T08:48:14Z</time>
      </trkpt>
      <trkpt lat="42.8907470" lon="-0.0230260">
        <ele>626.2</ele>
        <time>2020-07-26T08:48:15Z</time>
      </trkpt>
      <trkpt lat="42.8905430" lon="-0.0226210">
        <ele>626.4</ele>
        <time>2020-07-26T08:48:20Z</time>
      </trkpt>
      <trkpt lat="42.8905050" lon="-0.0225410">
        <ele>626.4</ele>
        <time>2020-07-26T08:48:21Z</time>
      </trkpt>
      <trkpt lat="42.8902860" lon="-0.0220390">
        <ele>626.4</ele>
        <time>2020-07-26T08:48:27Z</time>
      </trkpt>
      <trkpt lat="42.8902480" lon="-0.0219530">
        <ele>626.6</ele>
        <time>2020-07-26T08:48:28Z</time>
      </trkpt>
      <trkpt lat="42.8902090" lon="-0.0218670">
        <ele>626.6</ele>
        <time>2020-07-26T08:48:29Z</time>
      </trkpt>
      <trkpt lat="42.8900070" lon="-0.0214350">
        <ele>627.2</ele>
        <time>2020-07-26T08:48:34Z</time>
      </trkpt>
      <trkpt lat="42.8899090" lon="-0.0212810">
        <ele>627.4</ele>
        <time>2020-07-26T08:48:36Z</time>
      </trkpt>
      <trkpt lat="42.8898130" lon="-0.0211320">
        <ele>627.8</ele>
        <time>2020-07-26T08:48:38Z</time>
      </trkpt>
      <trkpt lat="42.8896400" lon="-0.0209290">
        <ele>628.2</ele>
        <time>2020-07-26T08:48:41Z</time>
      </trkpt>
      <trkpt lat="42.8895180" lon="-0.0208070">
        <ele>628.4</ele>
        <time>2020-07-26T08:48:43Z</time>
      </trkpt>
      <trkpt lat="42.8893330" lon="-0.0206320">
        <ele>628.4</ele>
        <time>2020-07-26T08:48:46Z</time>
      </trkpt>
      <trkpt lat="42.8892740" lon="-0.0205740">
        <ele>628.4</ele>
        <time>2020-07-26T08:48:47Z</time>
      </trkpt>
      <trkpt lat="42.8889520" lon="-0.0201820">
        <ele>628.6</ele>
        <time>2020-07-26T08:48:53Z</time>
      </trkpt>
      <trkpt lat="42.8889000" lon="-0.0201060">
        <ele>629.0</ele>
        <time>2020-07-26T08:48:54Z</time>
      </trkpt>
      <trkpt lat="42.8887990" lon="-0.0199470">
        <ele>629.6</ele>
        <time>2020-07-26T08:48:56Z</time>
      </trkpt>
      <trkpt lat="42.8886650" lon="-0.0196990">
        <ele>630.2</ele>
        <time>2020-07-26T08:48:59Z</time>
      </trkpt>
      <trkpt lat="42.8886250" lon="-0.0196140">
        <ele>630.4</ele>
        <time>2020-07-26T08:49:00Z</time>
      </trkpt>
      <trkpt lat="42.8885850" lon="-0.0195280">
        <ele>630.4</ele>
        <time>2020-07-26T08:49:01Z</time>
      </trkpt>
      <trkpt lat="42.8884640" lon="-0.0192680">
        <ele>630.6</ele>
        <time>2020-07-26T08:49:04Z</time>
      </trkpt>
      <trkpt lat="42.8882530" lon="-0.0189480">
        <ele>630.8</ele>
        <time>2020-07-26T08:49:08Z</time>
      </trkpt>
      <trkpt lat="42.8879350" lon="-0.0186500">
        <ele>631.0</ele>
        <time>2020-07-26T08:49:13Z</time>
      </trkpt>
      <trkpt lat="42.8878730" lon="-0.0185980">
        <ele>631.2</ele>
        <time>2020-07-26T08:49:14Z</time>
      </trkpt>
      <trkpt lat="42.8878120" lon="-0.0185440">
        <ele>631.4</ele>
        <time>2020-07-26T08:49:15Z</time>
      </trkpt>
      <trkpt lat="42.8875230" lon="-0.0182950">
        <ele>632.4</ele>
        <time>2020-07-26T08:49:20Z</time>
      </trkpt>
      <trkpt lat="42.8874660" lon="-0.0182460">
        <ele>632.6</ele>
        <time>2020-07-26T08:49:21Z</time>
      </trkpt>
      <trkpt lat="42.8871240" lon="-0.0179620">
        <ele>633.4</ele>
        <time>2020-07-26T08:49:27Z</time>
      </trkpt>
      <trkpt lat="42.8870670" lon="-0.0179140">
        <ele>633.6</ele>
        <time>2020-07-26T08:49:28Z</time>
      </trkpt>
      <trkpt lat="42.8870090" lon="-0.0178630">
        <ele>633.6</ele>
        <time>2020-07-26T08:49:29Z</time>
      </trkpt>
      <trkpt lat="42.8866520" lon="-0.0175690">
        <ele>634.2</ele>
        <time>2020-07-26T08:49:35Z</time>
      </trkpt>
      <trkpt lat="42.8865400" lon="-0.0174670">
        <ele>634.4</ele>
        <time>2020-07-26T08:49:37Z</time>
      </trkpt>
      <trkpt lat="42.8864860" lon="-0.0174190">
        <ele>634.6</ele>
        <time>2020-07-26T08:49:38Z</time>
      </trkpt>
      <trkpt lat="42.8862760" lon="-0.0172290">
        <ele>635.8</ele>
        <time>2020-07-26T08:49:42Z</time>
      </trkpt>
      <trkpt lat="42.8861290" lon="-0.0171000">
        <ele>637.2</ele>
        <time>2020-07-26T08:49:45Z</time>
      </trkpt>
      <trkpt lat="42.8859950" lon="-0.0169710">
        <ele>638.4</ele>
        <time>2020-07-26T08:49:48Z</time>
      </trkpt>
      <trkpt lat="42.8857970" lon="-0.0167930">
        <ele>639.2</ele>
        <time>2020-07-26T08:49:52Z</time>
      </trkpt>
      <trkpt lat="42.8856440" lon="-0.0166480">
        <ele>639.4</ele>
        <time>2020-07-26T08:49:55Z</time>
      </trkpt>
      <trkpt lat="42.8854370" lon="-0.0164080">
        <ele>639.4</ele>
        <time>2020-07-26T08:49:59Z</time>
      </trkpt>
      <trkpt lat="42.8853730" lon="-0.0162370">
        <ele>639.4</ele>
        <time>2020-07-26T08:50:01Z</time>
      </trkpt>
      <trkpt lat="42.8853530" lon="-0.0161450">
        <ele>639.2</ele>
        <time>2020-07-26T08:50:02Z</time>
      </trkpt>
      <trkpt lat="42.8853420" lon="-0.0160470">
        <ele>639.0</ele>
        <time>2020-07-26T08:50:03Z</time>
      </trkpt>
      <trkpt lat="42.8852790" lon="-0.0156710">
        <ele>639.0</ele>
        <time>2020-07-26T08:50:07Z</time>
      </trkpt>
      <trkpt lat="42.8851990" lon="-0.0155030">
        <ele>639.0</ele>
        <time>2020-07-26T08:50:09Z</time>
      </trkpt>
      <trkpt lat="42.8851450" lon="-0.0154340">
        <ele>639.0</ele>
        <time>2020-07-26T08:50:10Z</time>
      </trkpt>
      <trkpt lat="42.8850840" lon="-0.0153740">
        <ele>639.2</ele>
        <time>2020-07-26T08:50:11Z</time>
      </trkpt>
      <trkpt lat="42.8848170" lon="-0.0151710">
        <ele>639.4</ele>
        <time>2020-07-26T08:50:15Z</time>
      </trkpt>
      <trkpt lat="42.8844120" lon="-0.0148540">
        <ele>639.8</ele>
        <time>2020-07-26T08:50:21Z</time>
      </trkpt>
      <trkpt lat="42.8842210" lon="-0.0147150">
        <ele>640.6</ele>
        <time>2020-07-26T08:50:24Z</time>
      </trkpt>
      <trkpt lat="42.8838520" lon="-0.0144570">
        <ele>641.4</ele>
        <time>2020-07-26T08:50:30Z</time>
      </trkpt>
      <trkpt lat="42.8837940" lon="-0.0144090">
        <ele>641.6</ele>
        <time>2020-07-26T08:50:31Z</time>
      </trkpt>
      <trkpt lat="42.8837350" lon="-0.0143620">
        <ele>641.8</ele>
        <time>2020-07-26T08:50:32Z</time>
      </trkpt>
      <trkpt lat="42.8835050" lon="-0.0141890">
        <ele>642.8</ele>
        <time>2020-07-26T08:50:36Z</time>
      </trkpt>
      <trkpt lat="42.8832860" lon="-0.0140340">
        <ele>643.4</ele>
        <time>2020-07-26T08:50:40Z</time>
      </trkpt>
      <trkpt lat="42.8831870" lon="-0.0139570">
        <ele>644.2</ele>
        <time>2020-07-26T08:50:42Z</time>
      </trkpt>
      <trkpt lat="42.8830050" lon="-0.0138050">
        <ele>645.2</ele>
        <time>2020-07-26T08:50:46Z</time>
      </trkpt>
      <trkpt lat="42.8829130" lon="-0.0137310">
        <ele>646.0</ele>
        <time>2020-07-26T08:50:48Z</time>
      </trkpt>
      <trkpt lat="42.8828670" lon="-0.0136940">
        <ele>646.4</ele>
        <time>2020-07-26T08:50:49Z</time>
      </trkpt>
      <trkpt lat="42.8826460" lon="-0.0135340">
        <ele>647.6</ele>
        <time>2020-07-26T08:50:54Z</time>
      </trkpt>
      <trkpt lat="42.8826010" lon="-0.0135020">
        <ele>647.8</ele>
        <time>2020-07-26T08:50:55Z</time>
      </trkpt>
      <trkpt lat="42.8824690" lon="-0.0134020">
        <ele>648.2</ele>
        <time>2020-07-26T08:50:58Z</time>
      </trkpt>
      <trkpt lat="42.8823790" lon="-0.0133320">
        <ele>648.8</ele>
        <time>2020-07-26T08:51:00Z</time>
      </trkpt>
      <trkpt lat="42.8822480" lon="-0.0132230">
        <ele>649.6</ele>
        <time>2020-07-26T08:51:03Z</time>
      </trkpt>
      <trkpt lat="42.8821610" lon="-0.0131580">
        <ele>649.6</ele>
        <time>2020-07-26T08:51:05Z</time>
      </trkpt>
      <trkpt lat="42.8820740" lon="-0.0130950">
        <ele>649.8</ele>
        <time>2020-07-26T08:51:07Z</time>
      </trkpt>
      <trkpt lat="42.8818650" lon="-0.0129360">
        <ele>650.8</ele>
        <time>2020-07-26T08:51:12Z</time>
      </trkpt>
      <trkpt lat="42.8818230" lon="-0.0129050">
        <ele>651.0</ele>
        <time>2020-07-26T08:51:13Z</time>
      </trkpt>
      <trkpt lat="42.8816090" lon="-0.0127270">
        <ele>652.0</ele>
        <time>2020-07-26T08:51:18Z</time>
      </trkpt>
      <trkpt lat="42.8815640" lon="-0.0126940">
        <ele>652.4</ele>
        <time>2020-07-26T08:51:19Z</time>
      </trkpt>
      <trkpt lat="42.8814300" lon="-0.0125910">
        <ele>653.2</ele>
        <time>2020-07-26T08:51:22Z</time>
      </trkpt>
      <trkpt lat="42.8812020" lon="-0.0124310">
        <ele>653.8</ele>
        <time>2020-07-26T08:51:27Z</time>
      </trkpt>
      <trkpt lat="42.8811150" lon="-0.0123660">
        <ele>654.4</ele>
        <time>2020-07-26T08:51:29Z</time>
      </trkpt>
      <trkpt lat="42.8809040" lon="-0.0122010">
        <ele>655.8</ele>
        <time>2020-07-26T08:51:34Z</time>
      </trkpt>
      <trkpt lat="42.8808620" lon="-0.0121690">
        <ele>656.2</ele>
        <time>2020-07-26T08:51:35Z</time>
      </trkpt>
      <trkpt lat="42.8807800" lon="-0.0120990">
        <ele>656.8</ele>
        <time>2020-07-26T08:51:37Z</time>
      </trkpt>
      <trkpt lat="42.8807420" lon="-0.0120640">
        <ele>656.8</ele>
        <time>2020-07-26T08:51:38Z</time>
      </trkpt>
      <trkpt lat="42.8805780" lon="-0.0119350">
        <ele>657.8</ele>
        <time>2020-07-26T08:51:42Z</time>
      </trkpt>
      <trkpt lat="42.8805330" lon="-0.0119010">
        <ele>658.0</ele>
        <time>2020-07-26T08:51:43Z</time>
      </trkpt>
      <trkpt lat="42.8803550" lon="-0.0117640">
        <ele>659.2</ele>
        <time>2020-07-26T08:51:47Z</time>
      </trkpt>
      <trkpt lat="42.8802700" lon="-0.0117000">
        <ele>659.6</ele>
        <time>2020-07-26T08:51:49Z</time>
      </trkpt>
      <trkpt lat="42.8801170" lon="-0.0115540">
        <ele>660.2</ele>
        <time>2020-07-26T08:51:53Z</time>
      </trkpt>
      <trkpt lat="42.8800050" lon="-0.0114110">
        <ele>660.8</ele>
        <time>2020-07-26T08:51:56Z</time>
      </trkpt>
      <trkpt lat="42.8798950" lon="-0.0112480">
        <ele>661.4</ele>
        <time>2020-07-26T08:51:59Z</time>
      </trkpt>
      <trkpt lat="42.8796810" lon="-0.0109310">
        <ele>662.2</ele>
        <time>2020-07-26T08:52:05Z</time>
      </trkpt>
      <trkpt lat="42.8796450" lon="-0.0108760">
        <ele>662.4</ele>
        <time>2020-07-26T08:52:06Z</time>
      </trkpt>
      <trkpt lat="42.8794690" lon="-0.0106020">
        <ele>663.2</ele>
        <time>2020-07-26T08:52:11Z</time>
      </trkpt>
      <trkpt lat="42.8794380" lon="-0.0105480">
        <ele>663.6</ele>
        <time>2020-07-26T08:52:12Z</time>
      </trkpt>
      <trkpt lat="42.8793090" lon="-0.0103380">
        <ele>664.8</ele>
        <time>2020-07-26T08:52:16Z</time>
      </trkpt>
      <trkpt lat="42.8790980" lon="-0.0100190">
        <ele>665.8</ele>
        <time>2020-07-26T08:52:22Z</time>
      </trkpt>
      <trkpt lat="42.8790620" lon="-0.0099700">
        <ele>666.0</ele>
        <time>2020-07-26T08:52:23Z</time>
      </trkpt>
      <trkpt lat="42.8788730" lon="-0.0097050">
        <ele>667.0</ele>
        <time>2020-07-26T08:52:28Z</time>
      </trkpt>
      <trkpt lat="42.8788370" lon="-0.0096490">
        <ele>667.0</ele>
        <time>2020-07-26T08:52:29Z</time>
      </trkpt>
      <trkpt lat="42.8786900" lon="-0.0094320">
        <ele>668.0</ele>
        <time>2020-07-26T08:52:33Z</time>
      </trkpt>
      <trkpt lat="42.8785030" lon="-0.0091690">
        <ele>669.2</ele>
        <time>2020-07-26T08:52:38Z</time>
      </trkpt>
      <trkpt lat="42.8783540" lon="-0.0089620">
        <ele>669.8</ele>
        <time>2020-07-26T08:52:42Z</time>
      </trkpt>
      <trkpt lat="42.8782800" lon="-0.0088550">
        <ele>670.2</ele>
        <time>2020-07-26T08:52:44Z</time>
      </trkpt>
      <trkpt lat="42.8782430" lon="-0.0088020">
        <ele>670.4</ele>
        <time>2020-07-26T08:52:45Z</time>
      </trkpt>
      <trkpt lat="42.8781700" lon="-0.0086940">
        <ele>670.8</ele>
        <time>2020-07-26T08:52:47Z</time>
      </trkpt>
      <trkpt lat="42.8780660" lon="-0.0085340">
        <ele>671.2</ele>
        <time>2020-07-26T08:52:50Z</time>
      </trkpt>
      <trkpt lat="42.8779230" lon="-0.0083250">
        <ele>672.2</ele>
        <time>2020-07-26T08:52:54Z</time>
      </trkpt>
      <trkpt lat="42.8778530" lon="-0.0082210">
        <ele>673.0</ele>
        <time>2020-07-26T08:52:56Z</time>
      </trkpt>
      <trkpt lat="42.8777780" lon="-0.0081190">
        <ele>673.4</ele>
        <time>2020-07-26T08:52:58Z</time>
      </trkpt>
      <trkpt lat="42.8775460" lon="-0.0077990">
        <ele>674.6</ele>
        <time>2020-07-26T08:53:04Z</time>
      </trkpt>
      <trkpt lat="42.8774700" lon="-0.0076930">
        <ele>675.0</ele>
        <time>2020-07-26T08:53:06Z</time>
      </trkpt>
      <trkpt lat="42.8773580" lon="-0.0075320">
        <ele>675.6</ele>
        <time>2020-07-26T08:53:09Z</time>
      </trkpt>
      <trkpt lat="42.8771730" lon="-0.0072690">
        <ele>676.6</ele>
        <time>2020-07-26T08:53:14Z</time>
      </trkpt>
      <trkpt lat="42.8769820" lon="-0.0070080">
        <ele>677.6</ele>
        <time>2020-07-26T08:53:19Z</time>
      </trkpt>
      <trkpt lat="42.8769120" lon="-0.0069060">
        <ele>678.4</ele>
        <time>2020-07-26T08:53:21Z</time>
      </trkpt>
      <trkpt lat="42.8768800" lon="-0.0068530">
        <ele>678.8</ele>
        <time>2020-07-26T08:53:22Z</time>
      </trkpt>
      <trkpt lat="42.8767160" lon="-0.0066080">
        <ele>679.2</ele>
        <time>2020-07-26T08:53:26Z</time>
      </trkpt>
      <trkpt lat="42.8765300" lon="-0.0063180">
        <ele>679.8</ele>
        <time>2020-07-26T08:53:30Z</time>
      </trkpt>
      <trkpt lat="42.8763880" lon="-0.0061040">
        <ele>680.8</ele>
        <time>2020-07-26T08:53:33Z</time>
      </trkpt>
      <trkpt lat="42.8763430" lon="-0.0060330">
        <ele>681.0</ele>
        <time>2020-07-26T08:53:34Z</time>
      </trkpt>
      <trkpt lat="42.8761170" lon="-0.0056940">
        <ele>682.2</ele>
        <time>2020-07-26T08:53:39Z</time>
      </trkpt>
      <trkpt lat="42.8760710" lon="-0.0056320">
        <ele>682.4</ele>
        <time>2020-07-26T08:53:40Z</time>
      </trkpt>
      <trkpt lat="42.8759850" lon="-0.0055090">
        <ele>683.2</ele>
        <time>2020-07-26T08:53:42Z</time>
      </trkpt>
      <trkpt lat="42.8758200" lon="-0.0052760">
        <ele>684.4</ele>
        <time>2020-07-26T08:53:46Z</time>
      </trkpt>
      <trkpt lat="42.8757410" lon="-0.0051700">
        <ele>685.0</ele>
        <time>2020-07-26T08:53:48Z</time>
      </trkpt>
      <trkpt lat="42.8757040" lon="-0.0051170">
        <ele>685.4</ele>
        <time>2020-07-26T08:53:49Z</time>
      </trkpt>
      <trkpt lat="42.8755960" lon="-0.0049610">
        <ele>686.6</ele>
        <time>2020-07-26T08:53:52Z</time>
      </trkpt>
      <trkpt lat="42.8754640" lon="-0.0047680">
        <ele>687.8</ele>
        <time>2020-07-26T08:53:56Z</time>
      </trkpt>
      <trkpt lat="42.8754060" lon="-0.0046780">
        <ele>688.2</ele>
        <time>2020-07-26T08:53:58Z</time>
      </trkpt>
      <trkpt lat="42.8752920" lon="-0.0045040">
        <ele>689.0</ele>
        <time>2020-07-26T08:54:02Z</time>
      </trkpt>
      <trkpt lat="42.8751780" lon="-0.0043410">
        <ele>690.2</ele>
        <time>2020-07-26T08:54:06Z</time>
      </trkpt>
      <trkpt lat="42.8751500" lon="-0.0043000">
        <ele>690.4</ele>
        <time>2020-07-26T08:54:07Z</time>
      </trkpt>
      <trkpt lat="42.8749950" lon="-0.0040530">
        <ele>691.2</ele>
        <time>2020-07-26T08:54:13Z</time>
      </trkpt>
      <trkpt lat="42.8749720" lon="-0.0040150">
        <ele>691.6</ele>
        <time>2020-07-26T08:54:14Z</time>
      </trkpt>
      <trkpt lat="42.8749470" lon="-0.0039790">
        <ele>692.0</ele>
        <time>2020-07-26T08:54:15Z</time>
      </trkpt>
      <trkpt lat="42.8749180" lon="-0.0039410">
        <ele>692.4</ele>
        <time>2020-07-26T08:54:16Z</time>
      </trkpt>
      <trkpt lat="42.8747800" lon="-0.0037460">
        <ele>693.4</ele>
        <time>2020-07-26T08:54:21Z</time>
      </trkpt>
      <trkpt lat="42.8746720" lon="-0.0035910">
        <ele>694.6</ele>
        <time>2020-07-26T08:54:25Z</time>
      </trkpt>
      <trkpt lat="42.8745790" lon="-0.0034330">
        <ele>695.6</ele>
        <time>2020-07-26T08:54:29Z</time>
      </trkpt>
      <trkpt lat="42.8745570" lon="-0.0033970">
        <ele>695.8</ele>
        <time>2020-07-26T08:54:30Z</time>
      </trkpt>
      <trkpt lat="42.8744700" lon="-0.0032730">
        <ele>696.8</ele>
        <time>2020-07-26T08:54:34Z</time>
      </trkpt>
      <trkpt lat="42.8744320" lon="-0.0032410">
        <ele>697.2</ele>
        <time>2020-07-26T08:54:36Z</time>
      </trkpt>
      <trkpt lat="42.8744140" lon="-0.0032370">
        <ele>697.4</ele>
        <time>2020-07-26T08:54:37Z</time>
      </trkpt>
      <trkpt lat="42.8742310" lon="-0.0031460">
        <ele>698.2</ele>
        <time>2020-07-26T08:54:49Z</time>
      </trkpt>
      <trkpt lat="42.8741210" lon="-0.0031490">
        <ele>698.2</ele>
        <time>2020-07-26T08:54:52Z</time>
      </trkpt>
      <trkpt lat="42.8738140" lon="-0.0031760">
        <ele>698.4</ele>
        <time>2020-07-26T08:54:58Z</time>
      </trkpt>
      <trkpt lat="42.8736270" lon="-0.0032340">
        <ele>698.6</ele>
        <time>2020-07-26T08:55:02Z</time>
      </trkpt>
      <trkpt lat="42.8735570" lon="-0.0032630">
        <ele>698.6</ele>
        <time>2020-07-26T08:55:04Z</time>
      </trkpt>
      <trkpt lat="42.8735400" lon="-0.0032610">
        <ele>698.6</ele>
        <time>2020-07-26T08:55:05Z</time>
      </trkpt>
      <trkpt lat="42.8735080" lon="-0.0032620">
        <ele>697.8</ele>
        <time>2020-07-26T09:01:21Z</time>
      </trkpt>
      <trkpt lat="42.8735070" lon="-0.0032600">
        <ele>697.8</ele>
        <time>2020-07-26T09:01:22Z</time>
      </trkpt>
      <trkpt lat="42.8734820" lon="-0.0032580">
        <ele>697.8</ele>
        <time>2020-07-26T09:01:24Z</time>
      </trkpt>
      <trkpt lat="42.8734640" lon="-0.0032590">
        <ele>697.6</ele>
        <time>2020-07-26T09:01:25Z</time>
      </trkpt>
      <trkpt lat="42.8734140" lon="-0.0032560">
        <ele>697.2</ele>
        <time>2020-07-26T09:01:27Z</time>
      </trkpt>
      <trkpt lat="42.8733840" lon="-0.0032540">
        <ele>697.2</ele>
        <time>2020-07-26T09:01:28Z</time>
      </trkpt>
      <trkpt lat="42.8732370" lon="-0.0032850">
        <ele>697.2</ele>
        <time>2020-07-26T09:01:34Z</time>
      </trkpt>
      <trkpt lat="42.8731010" lon="-0.0034040">
        <ele>696.6</ele>
        <time>2020-07-26T09:01:39Z</time>
      </trkpt>
      <trkpt lat="42.8730300" lon="-0.0034500">
        <ele>696.4</ele>
        <time>2020-07-26T09:01:42Z</time>
      </trkpt>
      <trkpt lat="42.8729660" lon="-0.0035050">
        <ele>696.2</ele>
        <time>2020-07-26T09:01:44Z</time>
      </trkpt>
      <trkpt lat="42.8729460" lon="-0.0035550">
        <ele>696.2</ele>
        <time>2020-07-26T09:01:45Z</time>
      </trkpt>
      <trkpt lat="42.8729250" lon="-0.0036070">
        <ele>696.0</ele>
        <time>2020-07-26T09:01:46Z</time>
      </trkpt>
      <trkpt lat="42.8728780" lon="-0.0037120">
        <ele>695.8</ele>
        <time>2020-07-26T09:01:48Z</time>
      </trkpt>
      <trkpt lat="42.8727560" lon="-0.0039050">
        <ele>695.2</ele>
        <time>2020-07-26T09:01:52Z</time>
      </trkpt>
      <trkpt lat="42.8727250" lon="-0.0039380">
        <ele>695.0</ele>
        <time>2020-07-26T09:01:53Z</time>
      </trkpt>
      <trkpt lat="42.8726400" lon="-0.0041650">
        <ele>694.0</ele>
        <time>2020-07-26T09:03:03Z</time>
      </trkpt>
      <trkpt lat="42.8726400" lon="-0.0041890">
        <ele>694.0</ele>
        <time>2020-07-26T09:03:04Z</time>
      </trkpt>
      <trkpt lat="42.8726300" lon="-0.0042470">
        <ele>693.8</ele>
        <time>2020-07-26T09:03:06Z</time>
      </trkpt>
      <trkpt lat="42.8725980" lon="-0.0043170">
        <ele>693.8</ele>
        <time>2020-07-26T09:03:08Z</time>
      </trkpt>
      <trkpt lat="42.8724680" lon="-0.0045910">
        <ele>693.2</ele>
        <time>2020-07-26T09:03:14Z</time>
      </trkpt>
      <trkpt lat="42.8724430" lon="-0.0046430">
        <ele>693.0</ele>
        <time>2020-07-26T09:03:15Z</time>
      </trkpt>
      <trkpt lat="42.8724180" lon="-0.0046890">
        <ele>692.8</ele>
        <time>2020-07-26T09:03:16Z</time>
      </trkpt>
      <trkpt lat="42.8723520" lon="-0.0047630">
        <ele>692.8</ele>
        <time>2020-07-26T09:03:19Z</time>
      </trkpt>
      <trkpt lat="42.8723080" lon="-0.0047870">
        <ele>692.8</ele>
        <time>2020-07-26T09:03:23Z</time>
      </trkpt>
      <trkpt lat="42.8722500" lon="-0.0049040">
        <ele>692.8</ele>
        <time>2020-07-26T09:03:26Z</time>
      </trkpt>
      <trkpt lat="42.8720790" lon="-0.0051540">
        <ele>691.8</ele>
        <time>2020-07-26T09:03:30Z</time>
      </trkpt>
      <trkpt lat="42.8720340" lon="-0.0052280">
        <ele>691.8</ele>
        <time>2020-07-26T09:03:31Z</time>
      </trkpt>
      <trkpt lat="42.8718650" lon="-0.0055060">
        <ele>690.4</ele>
        <time>2020-07-26T09:03:35Z</time>
      </trkpt>
      <trkpt lat="42.8718280" lon="-0.0055670">
        <ele>690.2</ele>
        <time>2020-07-26T09:03:36Z</time>
      </trkpt>
      <trkpt lat="42.8717380" lon="-0.0057080">
        <ele>689.4</ele>
        <time>2020-07-26T09:03:38Z</time>
      </trkpt>
      <trkpt lat="42.8716980" lon="-0.0057770">
        <ele>688.8</ele>
        <time>2020-07-26T09:03:39Z</time>
      </trkpt>
      <trkpt lat="42.8716570" lon="-0.0058470">
        <ele>688.4</ele>
        <time>2020-07-26T09:03:40Z</time>
      </trkpt>
      <trkpt lat="42.8715220" lon="-0.0060680">
        <ele>687.8</ele>
        <time>2020-07-26T09:03:43Z</time>
      </trkpt>
      <trkpt lat="42.8714320" lon="-0.0062190">
        <ele>687.2</ele>
        <time>2020-07-26T09:03:45Z</time>
      </trkpt>
      <trkpt lat="42.8713830" lon="-0.0063000">
        <ele>686.6</ele>
        <time>2020-07-26T09:03:46Z</time>
      </trkpt>
      <trkpt lat="42.8713320" lon="-0.0063810">
        <ele>686.2</ele>
        <time>2020-07-26T09:03:47Z</time>
      </trkpt>
      <trkpt lat="42.8712770" lon="-0.0064650">
        <ele>685.8</ele>
        <time>2020-07-26T09:03:48Z</time>
      </trkpt>
      <trkpt lat="42.8711700" lon="-0.0066360">
        <ele>685.2</ele>
        <time>2020-07-26T09:03:50Z</time>
      </trkpt>
      <trkpt lat="42.8711140" lon="-0.0067220">
        <ele>684.8</ele>
        <time>2020-07-26T09:03:51Z</time>
      </trkpt>
      <trkpt lat="42.8710070" lon="-0.0068970">
        <ele>684.4</ele>
        <time>2020-07-26T09:03:53Z</time>
      </trkpt>
      <trkpt lat="42.8708990" lon="-0.0070740">
        <ele>683.8</ele>
        <time>2020-07-26T09:03:55Z</time>
      </trkpt>
      <trkpt lat="42.8708450" lon="-0.0071640">
        <ele>683.6</ele>
        <time>2020-07-26T09:03:56Z</time>
      </trkpt>
      <trkpt lat="42.8706760" lon="-0.0074410">
        <ele>682.4</ele>
        <time>2020-07-26T09:03:59Z</time>
      </trkpt>
      <trkpt lat="42.8705850" lon="-0.0075820">
        <ele>681.6</ele>
        <time>2020-07-26T09:04:01Z</time>
      </trkpt>
      <trkpt lat="42.8705490" lon="-0.0076390">
        <ele>681.2</ele>
        <time>2020-07-26T09:04:02Z</time>
      </trkpt>
      <trkpt lat="42.8704580" lon="-0.0077900">
        <ele>680.8</ele>
        <time>2020-07-26T09:04:05Z</time>
      </trkpt>
      <trkpt lat="42.8703570" lon="-0.0079500">
        <ele>680.6</ele>
        <time>2020-07-26T09:04:08Z</time>
      </trkpt>
      <trkpt lat="42.8702820" lon="-0.0080730">
        <ele>680.2</ele>
        <time>2020-07-26T09:04:10Z</time>
      </trkpt>
      <trkpt lat="42.8702420" lon="-0.0081370">
        <ele>680.0</ele>
        <time>2020-07-26T09:04:11Z</time>
      </trkpt>
      <trkpt lat="42.8701170" lon="-0.0083420">
        <ele>678.8</ele>
        <time>2020-07-26T09:04:14Z</time>
      </trkpt>
      <trkpt lat="42.8699340" lon="-0.0086360">
        <ele>677.8</ele>
        <time>2020-07-26T09:04:18Z</time>
      </trkpt>
      <trkpt lat="42.8698880" lon="-0.0087130">
        <ele>677.8</ele>
        <time>2020-07-26T09:04:19Z</time>
      </trkpt>
      <trkpt lat="42.8697000" lon="-0.0090260">
        <ele>676.8</ele>
        <time>2020-07-26T09:04:23Z</time>
      </trkpt>
      <trkpt lat="42.8696480" lon="-0.0091130">
        <ele>676.4</ele>
        <time>2020-07-26T09:04:24Z</time>
      </trkpt>
      <trkpt lat="42.8695950" lon="-0.0092010">
        <ele>675.8</ele>
        <time>2020-07-26T09:04:25Z</time>
      </trkpt>
      <trkpt lat="42.8695400" lon="-0.0092860">
        <ele>675.2</ele>
        <time>2020-07-26T09:04:26Z</time>
      </trkpt>
      <trkpt lat="42.8694330" lon="-0.0094480">
        <ele>674.4</ele>
        <time>2020-07-26T09:04:28Z</time>
      </trkpt>
      <trkpt lat="42.8693810" lon="-0.0095230">
        <ele>674.0</ele>
        <time>2020-07-26T09:04:29Z</time>
      </trkpt>
      <trkpt lat="42.8693210" lon="-0.0095870">
        <ele>673.6</ele>
        <time>2020-07-26T09:04:30Z</time>
      </trkpt>
      <trkpt lat="42.8691870" lon="-0.0096930">
        <ele>672.6</ele>
        <time>2020-07-26T09:04:32Z</time>
      </trkpt>
      <trkpt lat="42.8690380" lon="-0.0097500">
        <ele>672.0</ele>
        <time>2020-07-26T09:04:34Z</time>
      </trkpt>
      <trkpt lat="42.8688820" lon="-0.0097730">
        <ele>671.4</ele>
        <time>2020-07-26T09:04:36Z</time>
      </trkpt>
      <trkpt lat="42.8687200" lon="-0.0097900">
        <ele>671.0</ele>
        <time>2020-07-26T09:04:38Z</time>
      </trkpt>
      <trkpt lat="42.8686400" lon="-0.0098000">
        <ele>671.0</ele>
        <time>2020-07-26T09:04:39Z</time>
      </trkpt>
      <trkpt lat="42.8684060" lon="-0.0098320">
        <ele>671.0</ele>
        <time>2020-07-26T09:04:42Z</time>
      </trkpt>
      <trkpt lat="42.8682520" lon="-0.0098490">
        <ele>671.0</ele>
        <time>2020-07-26T09:04:44Z</time>
      </trkpt>
      <trkpt lat="42.8681750" lon="-0.0098570">
        <ele>671.0</ele>
        <time>2020-07-26T09:04:45Z</time>
      </trkpt>
      <trkpt lat="42.8678800" lon="-0.0098960">
        <ele>671.0</ele>
        <time>2020-07-26T09:04:49Z</time>
      </trkpt>
      <trkpt lat="42.8677390" lon="-0.0099040">
        <ele>671.0</ele>
        <time>2020-07-26T09:04:51Z</time>
      </trkpt>
      <trkpt lat="42.8676160" lon="-0.0098940">
        <ele>671.2</ele>
        <time>2020-07-26T09:04:53Z</time>
      </trkpt>
      <trkpt lat="42.8674760" lon="-0.0098590">
        <ele>672.0</ele>
        <time>2020-07-26T09:04:56Z</time>
      </trkpt>
      <trkpt lat="42.8674380" lon="-0.0098440">
        <ele>672.6</ele>
        <time>2020-07-26T09:04:57Z</time>
      </trkpt>
      <trkpt lat="42.8673990" lon="-0.0098290">
        <ele>673.0</ele>
        <time>2020-07-26T09:04:58Z</time>
      </trkpt>
      <trkpt lat="42.8673280" lon="-0.0097930">
        <ele>674.0</ele>
        <time>2020-07-26T09:05:00Z</time>
      </trkpt>
      <trkpt lat="42.8672950" lon="-0.0097780">
        <ele>674.4</ele>
        <time>2020-07-26T09:05:01Z</time>
      </trkpt>
      <trkpt lat="42.8672610" lon="-0.0097660">
        <ele>675.0</ele>
        <time>2020-07-26T09:05:02Z</time>
      </trkpt>
      <trkpt lat="42.8671970" lon="-0.0097400">
        <ele>676.0</ele>
        <time>2020-07-26T09:05:04Z</time>
      </trkpt>
      <trkpt lat="42.8671650" lon="-0.0097280">
        <ele>676.4</ele>
        <time>2020-07-26T09:05:05Z</time>
      </trkpt>
      <trkpt lat="42.8671040" lon="-0.0097070">
        <ele>677.0</ele>
        <time>2020-07-26T09:05:07Z</time>
      </trkpt>
      <trkpt lat="42.8670490" lon="-0.0096950">
        <ele>677.8</ele>
        <time>2020-07-26T09:05:09Z</time>
      </trkpt>
      <trkpt lat="42.8670220" lon="-0.0096890">
        <ele>678.2</ele>
        <time>2020-07-26T09:05:10Z</time>
      </trkpt>
      <trkpt lat="42.8669640" lon="-0.0096760">
        <ele>678.6</ele>
        <time>2020-07-26T09:05:12Z</time>
      </trkpt>
      <trkpt lat="42.8668430" lon="-0.0096410">
        <ele>679.4</ele>
        <time>2020-07-26T09:05:16Z</time>
      </trkpt>
      <trkpt lat="42.8667320" lon="-0.0096020">
        <ele>680.4</ele>
        <time>2020-07-26T09:05:20Z</time>
      </trkpt>
      <trkpt lat="42.8667030" lon="-0.0095910">
        <ele>680.6</ele>
        <time>2020-07-26T09:05:21Z</time>
      </trkpt>
      <trkpt lat="42.8666190" lon="-0.0095510">
        <ele>681.6</ele>
        <time>2020-07-26T09:05:24Z</time>
      </trkpt>
      <trkpt lat="42.8665500" lon="-0.0094880">
        <ele>682.2</ele>
        <time>2020-07-26T09:05:27Z</time>
      </trkpt>
      <trkpt lat="42.8664870" lon="-0.0093980">
        <ele>682.8</ele>
        <time>2020-07-26T09:05:30Z</time>
      </trkpt>
      <trkpt lat="42.8664240" lon="-0.0093020">
        <ele>684.0</ele>
        <time>2020-07-26T09:05:33Z</time>
      </trkpt>
      <trkpt lat="42.8663820" lon="-0.0092390">
        <ele>684.4</ele>
        <time>2020-07-26T09:05:35Z</time>
      </trkpt>
      <trkpt lat="42.8663400" lon="-0.0091810">
        <ele>685.0</ele>
        <time>2020-07-26T09:05:37Z</time>
      </trkpt>
      <trkpt lat="42.8662700" lon="-0.0090950">
        <ele>685.6</ele>
        <time>2020-07-26T09:05:40Z</time>
      </trkpt>
      <trkpt lat="42.8661910" lon="-0.0090320">
        <ele>686.2</ele>
        <time>2020-07-26T09:05:43Z</time>
      </trkpt>
      <trkpt lat="42.8661620" lon="-0.0090140">
        <ele>686.6</ele>
        <time>2020-07-26T09:05:44Z</time>
      </trkpt>
      <trkpt lat="42.8661040" lon="-0.0089830">
        <ele>687.2</ele>
        <time>2020-07-26T09:05:46Z</time>
      </trkpt>
      <trkpt lat="42.8659820" lon="-0.0089390">
        <ele>688.4</ele>
        <time>2020-07-26T09:05:50Z</time>
      </trkpt>
      <trkpt lat="42.8658620" lon="-0.0088990">
        <ele>689.6</ele>
        <time>2020-07-26T09:05:54Z</time>
      </trkpt>
      <trkpt lat="42.8657440" lon="-0.0088610">
        <ele>690.6</ele>
        <time>2020-07-26T09:05:58Z</time>
      </trkpt>
      <trkpt lat="42.8656820" lon="-0.0088410">
        <ele>691.2</ele>
        <time>2020-07-26T09:06:00Z</time>
      </trkpt>
      <trkpt lat="42.8656250" lon="-0.0088240">
        <ele>691.8</ele>
        <time>2020-07-26T09:06:02Z</time>
      </trkpt>
      <trkpt lat="42.8655130" lon="-0.0087850">
        <ele>693.0</ele>
        <time>2020-07-26T09:06:06Z</time>
      </trkpt>
      <trkpt lat="42.8654250" lon="-0.0087570">
        <ele>693.8</ele>
        <time>2020-07-26T09:06:09Z</time>
      </trkpt>
      <trkpt lat="42.8653640" lon="-0.0087310">
        <ele>694.2</ele>
        <time>2020-07-26T09:06:11Z</time>
      </trkpt>
      <trkpt lat="42.8652490" lon="-0.0086810">
        <ele>695.4</ele>
        <time>2020-07-26T09:06:15Z</time>
      </trkpt>
      <trkpt lat="42.8651300" lon="-0.0086420">
        <ele>696.6</ele>
        <time>2020-07-26T09:06:19Z</time>
      </trkpt>
      <trkpt lat="42.8651000" lon="-0.0086320">
        <ele>696.8</ele>
        <time>2020-07-26T09:06:20Z</time>
      </trkpt>
      <trkpt lat="42.8649430" lon="-0.0085680">
        <ele>698.0</ele>
        <time>2020-07-26T09:06:25Z</time>
      </trkpt>
      <trkpt lat="42.8649130" lon="-0.0085570">
        <ele>698.2</ele>
        <time>2020-07-26T09:06:26Z</time>
      </trkpt>
      <trkpt lat="42.8647960" lon="-0.0085190">
        <ele>699.2</ele>
        <time>2020-07-26T09:06:30Z</time>
      </trkpt>
      <trkpt lat="42.8646870" lon="-0.0084810">
        <ele>700.0</ele>
        <time>2020-07-26T09:06:34Z</time>
      </trkpt>
      <trkpt lat="42.8646600" lon="-0.0084710">
        <ele>700.2</ele>
        <time>2020-07-26T09:06:35Z</time>
      </trkpt>
      <trkpt lat="42.8646030" lon="-0.0084520">
        <ele>700.8</ele>
        <time>2020-07-26T09:06:37Z</time>
      </trkpt>
      <trkpt lat="42.8645750" lon="-0.0084380">
        <ele>701.0</ele>
        <time>2020-07-26T09:06:38Z</time>
      </trkpt>
      <trkpt lat="42.8645430" lon="-0.0084260">
        <ele>701.2</ele>
        <time>2020-07-26T09:06:39Z</time>
      </trkpt>
      <trkpt lat="42.8645130" lon="-0.0084130">
        <ele>701.4</ele>
        <time>2020-07-26T09:06:40Z</time>
      </trkpt>
      <trkpt lat="42.8644820" lon="-0.0083970">
        <ele>701.6</ele>
        <time>2020-07-26T09:06:41Z</time>
      </trkpt>
      <trkpt lat="42.8644500" lon="-0.0083850">
        <ele>701.8</ele>
        <time>2020-07-26T09:06:42Z</time>
      </trkpt>
      <trkpt lat="42.8644200" lon="-0.0083710">
        <ele>702.0</ele>
        <time>2020-07-26T09:06:43Z</time>
      </trkpt>
      <trkpt lat="42.8643900" lon="-0.0083570">
        <ele>702.2</ele>
        <time>2020-07-26T09:06:44Z</time>
      </trkpt>
      <trkpt lat="42.8643600" lon="-0.0083410">
        <ele>702.4</ele>
        <time>2020-07-26T09:06:45Z</time>
      </trkpt>
      <trkpt lat="42.8643310" lon="-0.0083240">
        <ele>702.8</ele>
        <time>2020-07-26T09:06:46Z</time>
      </trkpt>
      <trkpt lat="42.8642730" lon="-0.0082850">
        <ele>703.4</ele>
        <time>2020-07-26T09:06:48Z</time>
      </trkpt>
      <trkpt lat="42.8641830" lon="-0.0082300">
        <ele>704.4</ele>
        <time>2020-07-26T09:06:51Z</time>
      </trkpt>
      <trkpt lat="42.8641510" lon="-0.0082080">
        <ele>704.8</ele>
        <time>2020-07-26T09:06:52Z</time>
      </trkpt>
      <trkpt lat="42.8640870" lon="-0.0081660">
        <ele>705.2</ele>
        <time>2020-07-26T09:06:54Z</time>
      </trkpt>
      <trkpt lat="42.8640250" lon="-0.0081250">
        <ele>705.6</ele>
        <time>2020-07-26T09:06:56Z</time>
      </trkpt>
      <trkpt lat="42.8639000" lon="-0.0080390">
        <ele>706.6</ele>
        <time>2020-07-26T09:07:00Z</time>
      </trkpt>
      <trkpt lat="42.8638390" lon="-0.0079940">
        <ele>707.2</ele>
        <time>2020-07-26T09:07:02Z</time>
      </trkpt>
      <trkpt lat="42.8637270" lon="-0.0079010">
        <ele>707.6</ele>
        <time>2020-07-26T09:07:06Z</time>
      </trkpt>
      <trkpt lat="42.8636120" lon="-0.0078090">
        <ele>708.6</ele>
        <time>2020-07-26T09:07:10Z</time>
      </trkpt>
      <trkpt lat="42.8635840" lon="-0.0077850">
        <ele>708.6</ele>
        <time>2020-07-26T09:07:11Z</time>
      </trkpt>
      <trkpt lat="42.8635260" lon="-0.0077370">
        <ele>708.8</ele>
        <time>2020-07-26T09:07:13Z</time>
      </trkpt>
      <trkpt lat="42.8633910" lon="-0.0076200">
        <ele>710.0</ele>
        <time>2020-07-26T09:07:18Z</time>
      </trkpt>
      <trkpt lat="42.8633350" lon="-0.0075650">
        <ele>710.2</ele>
        <time>2020-07-26T09:07:20Z</time>
      </trkpt>
      <trkpt lat="42.8632430" lon="-0.0074920">
        <ele>710.4</ele>
        <time>2020-07-26T09:07:23Z</time>
      </trkpt>
      <trkpt lat="42.8631270" lon="-0.0074030">
        <ele>710.8</ele>
        <time>2020-07-26T09:07:27Z</time>
      </trkpt>
      <trkpt lat="42.8630990" lon="-0.0073830">
        <ele>711.2</ele>
        <time>2020-07-26T09:07:28Z</time>
      </trkpt>
      <trkpt lat="42.8629210" lon="-0.0072470">
        <ele>712.2</ele>
        <time>2020-07-26T09:07:34Z</time>
      </trkpt>
      <trkpt lat="42.8628940" lon="-0.0072220">
        <ele>712.4</ele>
        <time>2020-07-26T09:07:35Z</time>
      </trkpt>
      <trkpt lat="42.8628440" lon="-0.0071670">
        <ele>712.8</ele>
        <time>2020-07-26T09:07:37Z</time>
      </trkpt>
      <trkpt lat="42.8627560" lon="-0.0070360">
        <ele>713.4</ele>
        <time>2020-07-26T09:07:41Z</time>
      </trkpt>
      <trkpt lat="42.8627130" lon="-0.0069650">
        <ele>713.4</ele>
        <time>2020-07-26T09:07:43Z</time>
      </trkpt>
      <trkpt lat="42.8626450" lon="-0.0068150">
        <ele>714.2</ele>
        <time>2020-07-26T09:07:47Z</time>
      </trkpt>
      <trkpt lat="42.8626330" lon="-0.0067740">
        <ele>714.4</ele>
        <time>2020-07-26T09:07:48Z</time>
      </trkpt>
      <trkpt lat="42.8625950" lon="-0.0066420">
        <ele>714.6</ele>
        <time>2020-07-26T09:07:51Z</time>
      </trkpt>
      <trkpt lat="42.8625080" lon="-0.0063950">
        <ele>715.6</ele>
        <time>2020-07-26T09:07:57Z</time>
      </trkpt>
      <trkpt lat="42.8624840" lon="-0.0063140">
        <ele>715.8</ele>
        <time>2020-07-26T09:07:59Z</time>
      </trkpt>
      <trkpt lat="42.8624430" lon="-0.0061820">
        <ele>716.6</ele>
        <time>2020-07-26T09:08:02Z</time>
      </trkpt>
      <trkpt lat="42.8623480" lon="-0.0059740">
        <ele>717.4</ele>
        <time>2020-07-26T09:08:07Z</time>
      </trkpt>
      <trkpt lat="42.8623160" lon="-0.0059520">
        <ele>717.6</ele>
        <time>2020-07-26T09:08:08Z</time>
      </trkpt>
      <trkpt lat="42.8622800" lon="-0.0059380">
        <ele>717.8</ele>
        <time>2020-07-26T09:08:09Z</time>
      </trkpt>
      <trkpt lat="42.8622050" lon="-0.0059210">
        <ele>718.0</ele>
        <time>2020-07-26T09:08:11Z</time>
      </trkpt>
      <trkpt lat="42.8621320" lon="-0.0059130">
        <ele>718.6</ele>
        <time>2020-07-26T09:08:13Z</time>
      </trkpt>
      <trkpt lat="42.8620270" lon="-0.0059010">
        <ele>719.6</ele>
        <time>2020-07-26T09:08:16Z</time>
      </trkpt>
      <trkpt lat="42.8619240" lon="-0.0058980">
        <ele>720.6</ele>
        <time>2020-07-26T09:08:19Z</time>
      </trkpt>
      <trkpt lat="42.8618900" lon="-0.0058990">
        <ele>720.8</ele>
        <time>2020-07-26T09:08:20Z</time>
      </trkpt>
      <trkpt lat="42.8617320" lon="-0.0058980">
        <ele>722.0</ele>
        <time>2020-07-26T09:08:25Z</time>
      </trkpt>
      <trkpt lat="42.8617020" lon="-0.0058940">
        <ele>722.4</ele>
        <time>2020-07-26T09:08:26Z</time>
      </trkpt>
      <trkpt lat="42.8616400" lon="-0.0058930">
        <ele>723.2</ele>
        <time>2020-07-26T09:08:28Z</time>
      </trkpt>
      <trkpt lat="42.8615450" lon="-0.0058910">
        <ele>724.0</ele>
        <time>2020-07-26T09:08:31Z</time>
      </trkpt>
      <trkpt lat="42.8615130" lon="-0.0058930">
        <ele>724.6</ele>
        <time>2020-07-26T09:08:32Z</time>
      </trkpt>
      <trkpt lat="42.8614490" lon="-0.0058910">
        <ele>725.4</ele>
        <time>2020-07-26T09:08:34Z</time>
      </trkpt>
      <trkpt lat="42.8614170" lon="-0.0058880">
        <ele>725.8</ele>
        <time>2020-07-26T09:08:35Z</time>
      </trkpt>
      <trkpt lat="42.8612800" lon="-0.0058830">
        <ele>727.2</ele>
        <time>2020-07-26T09:08:39Z</time>
      </trkpt>
      <trkpt lat="42.8611740" lon="-0.0058750">
        <ele>727.8</ele>
        <time>2020-07-26T09:08:42Z</time>
      </trkpt>
      <trkpt lat="42.8609780" lon="-0.0058440">
        <ele>728.2</ele>
        <time>2020-07-26T09:08:47Z</time>
      </trkpt>
      <trkpt lat="42.8608490" lon="-0.0058090">
        <ele>728.8</ele>
        <time>2020-07-26T09:08:50Z</time>
      </trkpt>
      <trkpt lat="42.8607610" lon="-0.0057870">
        <ele>729.4</ele>
        <time>2020-07-26T09:08:52Z</time>
      </trkpt>
      <trkpt lat="42.8606700" lon="-0.0057640">
        <ele>729.6</ele>
        <time>2020-07-26T09:08:54Z</time>
      </trkpt>
      <trkpt lat="42.8605330" lon="-0.0057220">
        <ele>729.8</ele>
        <time>2020-07-26T09:08:57Z</time>
      </trkpt>
      <trkpt lat="42.8604430" lon="-0.0056870">
        <ele>730.0</ele>
        <time>2020-07-26T09:08:59Z</time>
      </trkpt>
      <trkpt lat="42.8603620" lon="-0.0056440">
        <ele>730.4</ele>
        <time>2020-07-26T09:09:01Z</time>
      </trkpt>
      <trkpt lat="42.8603210" lon="-0.0056170">
        <ele>730.6</ele>
        <time>2020-07-26T09:09:02Z</time>
      </trkpt>
      <trkpt lat="42.8602070" lon="-0.0055270">
        <ele>731.2</ele>
        <time>2020-07-26T09:09:05Z</time>
      </trkpt>
      <trkpt lat="42.8601020" lon="-0.0054140">
        <ele>731.8</ele>
        <time>2020-07-26T09:09:08Z</time>
      </trkpt>
      <trkpt lat="42.8600080" lon="-0.0052770">
        <ele>732.8</ele>
        <time>2020-07-26T09:09:11Z</time>
      </trkpt>
      <trkpt lat="42.8599770" lon="-0.0052270">
        <ele>733.0</ele>
        <time>2020-07-26T09:09:12Z</time>
      </trkpt>
      <trkpt lat="42.8598720" lon="-0.0050880">
        <ele>733.2</ele>
        <time>2020-07-26T09:09:15Z</time>
      </trkpt>
      <trkpt lat="42.8597810" lon="-0.0050380">
        <ele>733.4</ele>
        <time>2020-07-26T09:09:17Z</time>
      </trkpt>
      <trkpt lat="42.8597310" lon="-0.0050270">
        <ele>733.6</ele>
        <time>2020-07-26T09:09:18Z</time>
      </trkpt>
      <trkpt lat="42.8596850" lon="-0.0050260">
        <ele>733.6</ele>
        <time>2020-07-26T09:09:19Z</time>
      </trkpt>
      <trkpt lat="42.8595930" lon="-0.0050420">
        <ele>734.2</ele>
        <time>2020-07-26T09:09:21Z</time>
      </trkpt>
      <trkpt lat="42.8594070" lon="-0.0050800">
        <ele>735.2</ele>
        <time>2020-07-26T09:09:25Z</time>
      </trkpt>
      <trkpt lat="42.8593200" lon="-0.0050610">
        <ele>735.8</ele>
        <time>2020-07-26T09:09:27Z</time>
      </trkpt>
      <trkpt lat="42.8592410" lon="-0.0050090">
        <ele>736.2</ele>
        <time>2020-07-26T09:09:29Z</time>
      </trkpt>
      <trkpt lat="42.8592030" lon="-0.0049760">
        <ele>736.4</ele>
        <time>2020-07-26T09:09:30Z</time>
      </trkpt>
      <trkpt lat="42.8591260" lon="-0.0049070">
        <ele>736.6</ele>
        <time>2020-07-26T09:09:32Z</time>
      </trkpt>
      <trkpt lat="42.8590060" lon="-0.0048110">
        <ele>736.8</ele>
        <time>2020-07-26T09:09:35Z</time>
      </trkpt>
      <trkpt lat="42.8589170" lon="-0.0047810">
        <ele>737.4</ele>
        <time>2020-07-26T09:09:37Z</time>
      </trkpt>
      <trkpt lat="42.8588210" lon="-0.0047890">
        <ele>738.0</ele>
        <time>2020-07-26T09:09:39Z</time>
      </trkpt>
      <trkpt lat="42.8586760" lon="-0.0048240">
        <ele>738.4</ele>
        <time>2020-07-26T09:09:42Z</time>
      </trkpt>
      <trkpt lat="42.8586290" lon="-0.0048350">
        <ele>738.6</ele>
        <time>2020-07-26T09:09:43Z</time>
      </trkpt>
      <trkpt lat="42.8583370" lon="-0.0049200">
        <ele>739.4</ele>
        <time>2020-07-26T09:09:49Z</time>
      </trkpt>
      <trkpt lat="42.8582940" lon="-0.0049500">
        <ele>739.8</ele>
        <time>2020-07-26T09:09:50Z</time>
      </trkpt>
      <trkpt lat="42.8582180" lon="-0.0050330">
        <ele>740.2</ele>
        <time>2020-07-26T09:09:52Z</time>
      </trkpt>
      <trkpt lat="42.8581450" lon="-0.0051150">
        <ele>740.6</ele>
        <time>2020-07-26T09:09:54Z</time>
      </trkpt>
      <trkpt lat="42.8579690" lon="-0.0052980">
        <ele>741.0</ele>
        <time>2020-07-26T09:11:29Z</time>
      </trkpt>
      <trkpt lat="42.8579460" lon="-0.0053080">
        <ele>741.0</ele>
        <time>2020-07-26T09:11:30Z</time>
      </trkpt>
      <trkpt lat="42.8577970" lon="-0.0054060">
        <ele>741.4</ele>
        <time>2020-07-26T09:11:35Z</time>
      </trkpt>
      <trkpt lat="42.8577520" lon="-0.0054270">
        <ele>741.4</ele>
        <time>2020-07-26T09:11:36Z</time>
      </trkpt>
      <trkpt lat="42.8575850" lon="-0.0054730">
        <ele>741.8</ele>
        <time>2020-07-26T09:11:40Z</time>
      </trkpt>
      <trkpt lat="42.8575440" lon="-0.0054760">
        <ele>742.0</ele>
        <time>2020-07-26T09:11:41Z</time>
      </trkpt>
      <trkpt lat="42.8574180" lon="-0.0054690">
        <ele>742.6</ele>
        <time>2020-07-26T09:11:44Z</time>
      </trkpt>
      <trkpt lat="42.8573270" lon="-0.0054350">
        <ele>743.0</ele>
        <time>2020-07-26T09:11:46Z</time>
      </trkpt>
      <trkpt lat="42.8571600" lon="-0.0053470">
        <ele>744.2</ele>
        <time>2020-07-26T09:11:50Z</time>
      </trkpt>
      <trkpt lat="42.8570300" lon="-0.0052770">
        <ele>745.4</ele>
        <time>2020-07-26T09:11:53Z</time>
      </trkpt>
      <trkpt lat="42.8568750" lon="-0.0051870">
        <ele>746.4</ele>
        <time>2020-07-26T09:11:57Z</time>
      </trkpt>
      <trkpt lat="42.8567310" lon="-0.0050950">
        <ele>747.2</ele>
        <time>2020-07-26T09:12:01Z</time>
      </trkpt>
      <trkpt lat="42.8566940" lon="-0.0050690">
        <ele>747.6</ele>
        <time>2020-07-26T09:12:02Z</time>
      </trkpt>
      <trkpt lat="42.8564990" lon="-0.0050040">
        <ele>748.8</ele>
        <time>2020-07-26T09:12:07Z</time>
      </trkpt>
      <trkpt lat="42.8563380" lon="-0.0050040">
        <ele>749.8</ele>
        <time>2020-07-26T09:12:11Z</time>
      </trkpt>
      <trkpt lat="42.8562260" lon="-0.0049990">
        <ele>750.8</ele>
        <time>2020-07-26T09:12:14Z</time>
      </trkpt>
      <trkpt lat="42.8561880" lon="-0.0049930">
        <ele>751.0</ele>
        <time>2020-07-26T09:12:15Z</time>
      </trkpt>
      <trkpt lat="42.8560370" lon="-0.0049850">
        <ele>752.2</ele>
        <time>2020-07-26T09:12:19Z</time>
      </trkpt>
      <trkpt lat="42.8560000" lon="-0.0049840">
        <ele>752.6</ele>
        <time>2020-07-26T09:12:20Z</time>
      </trkpt>
      <trkpt lat="42.8558880" lon="-0.0049820">
        <ele>753.2</ele>
        <time>2020-07-26T09:12:23Z</time>
      </trkpt>
      <trkpt lat="42.8558510" lon="-0.0049920">
        <ele>753.2</ele>
        <time>2020-07-26T09:12:24Z</time>
      </trkpt>
      <trkpt lat="42.8557140" lon="-0.0050800">
        <ele>754.2</ele>
        <time>2020-07-26T09:12:28Z</time>
      </trkpt>
      <trkpt lat="42.8556490" lon="-0.0051340">
        <ele>754.8</ele>
        <time>2020-07-26T09:12:30Z</time>
      </trkpt>
      <trkpt lat="42.8555850" lon="-0.0051850">
        <ele>755.4</ele>
        <time>2020-07-26T09:12:32Z</time>
      </trkpt>
      <trkpt lat="42.8554300" lon="-0.0053010">
        <ele>756.6</ele>
        <time>2020-07-26T09:12:37Z</time>
      </trkpt>
      <trkpt lat="42.8553650" lon="-0.0053480">
        <ele>757.2</ele>
        <time>2020-07-26T09:12:39Z</time>
      </trkpt>
      <trkpt lat="42.8553330" lon="-0.0053690">
        <ele>757.6</ele>
        <time>2020-07-26T09:12:40Z</time>
      </trkpt>
      <trkpt lat="42.8551610" lon="-0.0054760">
        <ele>758.8</ele>
        <time>2020-07-26T09:12:45Z</time>
      </trkpt>
      <trkpt lat="42.8550930" lon="-0.0055280">
        <ele>759.2</ele>
        <time>2020-07-26T09:12:47Z</time>
      </trkpt>
      <trkpt lat="42.8549840" lon="-0.0056090">
        <ele>760.0</ele>
        <time>2020-07-26T09:12:50Z</time>
      </trkpt>
      <trkpt lat="42.8547850" lon="-0.0057340">
        <ele>760.8</ele>
        <time>2020-07-26T09:12:55Z</time>
      </trkpt>
      <trkpt lat="42.8545970" lon="-0.0058270">
        <ele>761.2</ele>
        <time>2020-07-26T09:12:59Z</time>
      </trkpt>
      <trkpt lat="42.8544380" lon="-0.0058640">
        <ele>761.2</ele>
        <time>2020-07-26T09:13:02Z</time>
      </trkpt>
      <trkpt lat="42.8543810" lon="-0.0058730">
        <ele>761.4</ele>
        <time>2020-07-26T09:13:03Z</time>
      </trkpt>
      <trkpt lat="42.8541510" lon="-0.0058730">
        <ele>761.6</ele>
        <time>2020-07-26T09:13:07Z</time>
      </trkpt>
      <trkpt lat="42.8540940" lon="-0.0058650">
        <ele>761.8</ele>
        <time>2020-07-26T09:13:08Z</time>
      </trkpt>
      <trkpt lat="42.8538020" lon="-0.0057990">
        <ele>762.2</ele>
        <time>2020-07-26T09:13:13Z</time>
      </trkpt>
      <trkpt lat="42.8536790" lon="-0.0057990">
        <ele>762.4</ele>
        <time>2020-07-26T09:13:15Z</time>
      </trkpt>
      <trkpt lat="42.8534900" lon="-0.0058260">
        <ele>762.6</ele>
        <time>2020-07-26T09:13:18Z</time>
      </trkpt>
      <trkpt lat="42.8532340" lon="-0.0058760">
        <ele>762.4</ele>
        <time>2020-07-26T09:13:22Z</time>
      </trkpt>
      <trkpt lat="42.8528440" lon="-0.0059190">
        <ele>761.8</ele>
        <time>2020-07-26T09:13:28Z</time>
      </trkpt>
      <trkpt lat="42.8526610" lon="-0.0060070">
        <ele>761.6</ele>
        <time>2020-07-26T09:13:31Z</time>
      </trkpt>
      <trkpt lat="42.8526030" lon="-0.0060580">
        <ele>761.6</ele>
        <time>2020-07-26T09:13:32Z</time>
      </trkpt>
      <trkpt lat="42.8525530" lon="-0.0061280">
        <ele>761.6</ele>
        <time>2020-07-26T09:13:33Z</time>
      </trkpt>
      <trkpt lat="42.8524880" lon="-0.0062760">
        <ele>761.8</ele>
        <time>2020-07-26T09:13:35Z</time>
      </trkpt>
      <trkpt lat="42.8523800" lon="-0.0065560">
        <ele>762.8</ele>
        <time>2020-07-26T09:13:39Z</time>
      </trkpt>
      <trkpt lat="42.8523420" lon="-0.0066080">
        <ele>763.2</ele>
        <time>2020-07-26T09:13:40Z</time>
      </trkpt>
      <trkpt lat="42.8523010" lon="-0.0066510">
        <ele>763.6</ele>
        <time>2020-07-26T09:13:41Z</time>
      </trkpt>
      <trkpt lat="42.8522120" lon="-0.0067130">
        <ele>764.6</ele>
        <time>2020-07-26T09:13:43Z</time>
      </trkpt>
      <trkpt lat="42.8520670" lon="-0.0067890">
        <ele>765.4</ele>
        <time>2020-07-26T09:13:46Z</time>
      </trkpt>
      <trkpt lat="42.8519870" lon="-0.0068670">
        <ele>765.6</ele>
        <time>2020-07-26T09:13:48Z</time>
      </trkpt>
      <trkpt lat="42.8519500" lon="-0.0069960">
        <ele>766.0</ele>
        <time>2020-07-26T09:13:50Z</time>
      </trkpt>
      <trkpt lat="42.8519490" lon="-0.0072070">
        <ele>766.6</ele>
        <time>2020-07-26T09:13:53Z</time>
      </trkpt>
      <trkpt lat="42.8519430" lon="-0.0072730">
        <ele>767.0</ele>
        <time>2020-07-26T09:13:54Z</time>
      </trkpt>
      <trkpt lat="42.8519280" lon="-0.0073390">
        <ele>767.2</ele>
        <time>2020-07-26T09:13:55Z</time>
      </trkpt>
      <trkpt lat="42.8519050" lon="-0.0074000">
        <ele>767.4</ele>
        <time>2020-07-26T09:13:56Z</time>
      </trkpt>
      <trkpt lat="42.8518350" lon="-0.0074910">
        <ele>767.6</ele>
        <time>2020-07-26T09:13:58Z</time>
      </trkpt>
      <trkpt lat="42.8517930" lon="-0.0075210">
        <ele>767.8</ele>
        <time>2020-07-26T09:13:59Z</time>
      </trkpt>
      <trkpt lat="42.8517520" lon="-0.0075400">
        <ele>767.8</ele>
        <time>2020-07-26T09:14:00Z</time>
      </trkpt>
      <trkpt lat="42.8516570" lon="-0.0075200">
        <ele>767.8</ele>
        <time>2020-07-26T09:14:02Z</time>
      </trkpt>
      <trkpt lat="42.8516080" lon="-0.0074880">
        <ele>767.8</ele>
        <time>2020-07-26T09:14:03Z</time>
      </trkpt>
      <trkpt lat="42.8514500" lon="-0.0073620">
        <ele>767.8</ele>
        <time>2020-07-26T09:14:06Z</time>
      </trkpt>
      <trkpt lat="42.8513380" lon="-0.0072970">
        <ele>767.6</ele>
        <time>2020-07-26T09:14:08Z</time>
      </trkpt>
      <trkpt lat="42.8512190" lon="-0.0072630">
        <ele>767.2</ele>
        <time>2020-07-26T09:14:10Z</time>
      </trkpt>
      <trkpt lat="42.8510950" lon="-0.0072460">
        <ele>766.6</ele>
        <time>2020-07-26T09:14:12Z</time>
      </trkpt>
      <trkpt lat="42.8510330" lon="-0.0072410">
        <ele>766.4</ele>
        <time>2020-07-26T09:14:13Z</time>
      </trkpt>
      <trkpt lat="42.8507760" lon="-0.0072180">
        <ele>767.6</ele>
        <time>2020-07-26T09:14:17Z</time>
      </trkpt>
      <trkpt lat="42.8505970" lon="-0.0071520">
        <ele>768.2</ele>
        <time>2020-07-26T09:14:20Z</time>
      </trkpt>
      <trkpt lat="42.8505360" lon="-0.0071250">
        <ele>768.4</ele>
        <time>2020-07-26T09:14:21Z</time>
      </trkpt>
      <trkpt lat="42.8504790" lon="-0.0070930">
        <ele>768.6</ele>
        <time>2020-07-26T09:14:22Z</time>
      </trkpt>
      <trkpt lat="42.8504280" lon="-0.0070490">
        <ele>769.0</ele>
        <time>2020-07-26T09:14:23Z</time>
      </trkpt>
      <trkpt lat="42.8503810" lon="-0.0069980">
        <ele>769.0</ele>
        <time>2020-07-26T09:14:24Z</time>
      </trkpt>
      <trkpt lat="42.8502140" lon="-0.0067790">
        <ele>769.8</ele>
        <time>2020-07-26T09:14:28Z</time>
      </trkpt>
      <trkpt lat="42.8500810" lon="-0.0066400">
        <ele>770.6</ele>
        <time>2020-07-26T09:14:31Z</time>
      </trkpt>
      <trkpt lat="42.8499210" lon="-0.0065670">
        <ele>770.6</ele>
        <time>2020-07-26T09:14:34Z</time>
      </trkpt>
      <trkpt lat="42.8498150" lon="-0.0065470">
        <ele>770.8</ele>
        <time>2020-07-26T09:14:36Z</time>
      </trkpt>
      <trkpt lat="42.8496240" lon="-0.0065120">
        <ele>772.0</ele>
        <time>2020-07-26T09:14:40Z</time>
      </trkpt>
      <trkpt lat="42.8495360" lon="-0.0064850">
        <ele>772.4</ele>
        <time>2020-07-26T09:14:42Z</time>
      </trkpt>
      <trkpt lat="42.8494900" lon="-0.0064760">
        <ele>772.6</ele>
        <time>2020-07-26T09:14:43Z</time>
      </trkpt>
      <trkpt lat="42.8494020" lon="-0.0064630">
        <ele>773.0</ele>
        <time>2020-07-26T09:14:45Z</time>
      </trkpt>
      <trkpt lat="42.8492750" lon="-0.0064550">
        <ele>773.8</ele>
        <time>2020-07-26T09:14:48Z</time>
      </trkpt>
      <trkpt lat="42.8491880" lon="-0.0064560">
        <ele>774.4</ele>
        <time>2020-07-26T09:14:50Z</time>
      </trkpt>
      <trkpt lat="42.8491460" lon="-0.0064640">
        <ele>774.8</ele>
        <time>2020-07-26T09:14:51Z</time>
      </trkpt>
      <trkpt lat="42.8490660" lon="-0.0064900">
        <ele>775.6</ele>
        <time>2020-07-26T09:14:53Z</time>
      </trkpt>
      <trkpt lat="42.8490220" lon="-0.0065000">
        <ele>775.8</ele>
        <time>2020-07-26T09:14:54Z</time>
      </trkpt>
      <trkpt lat="42.8489380" lon="-0.0065230">
        <ele>776.6</ele>
        <time>2020-07-26T09:14:56Z</time>
      </trkpt>
      <trkpt lat="42.8487310" lon="-0.0065910">
        <ele>778.0</ele>
        <time>2020-07-26T09:15:01Z</time>
      </trkpt>
      <trkpt lat="42.8486920" lon="-0.0066040">
        <ele>778.2</ele>
        <time>2020-07-26T09:15:02Z</time>
      </trkpt>
      <trkpt lat="42.8485710" lon="-0.0066480">
        <ele>779.0</ele>
        <time>2020-07-26T09:15:05Z</time>
      </trkpt>
      <trkpt lat="42.8483080" lon="-0.0067130">
        <ele>780.2</ele>
        <time>2020-07-26T09:15:10Z</time>
      </trkpt>
      <trkpt lat="42.8482590" lon="-0.0067230">
        <ele>780.2</ele>
        <time>2020-07-26T09:15:12Z</time>
      </trkpt>
      <trkpt lat="42.8479510" lon="-0.0068040">
        <ele>780.8</ele>
        <time>2020-07-26T09:15:18Z</time>
      </trkpt>
      <trkpt lat="42.8479000" lon="-0.0068270">
        <ele>780.8</ele>
        <time>2020-07-26T09:15:19Z</time>
      </trkpt>
      <trkpt lat="42.8477480" lon="-0.0069030">
        <ele>781.2</ele>
        <time>2020-07-26T09:15:22Z</time>
      </trkpt>
      <trkpt lat="42.8474340" lon="-0.0069910">
        <ele>782.2</ele>
        <time>2020-07-26T09:15:28Z</time>
      </trkpt>
      <trkpt lat="42.8473820" lon="-0.0069870">
        <ele>782.4</ele>
        <time>2020-07-26T09:15:29Z</time>
      </trkpt>
      <trkpt lat="42.8471590" lon="-0.0069380">
        <ele>782.6</ele>
        <time>2020-07-26T09:15:33Z</time>
      </trkpt>
      <trkpt lat="42.8469830" lon="-0.0068970">
        <ele>782.8</ele>
        <time>2020-07-26T09:15:36Z</time>
      </trkpt>
      <trkpt lat="42.8468030" lon="-0.0068790">
        <ele>783.0</ele>
        <time>2020-07-26T09:15:39Z</time>
      </trkpt>
      <trkpt lat="42.8467490" lon="-0.0068930">
        <ele>783.0</ele>
        <time>2020-07-26T09:15:40Z</time>
      </trkpt>
      <trkpt lat="42.8466950" lon="-0.0069280">
        <ele>783.2</ele>
        <time>2020-07-26T09:15:41Z</time>
      </trkpt>
      <trkpt lat="42.8465890" lon="-0.0070040">
        <ele>783.6</ele>
        <time>2020-07-26T09:15:43Z</time>
      </trkpt>
      <trkpt lat="42.8465350" lon="-0.0070340">
        <ele>783.8</ele>
        <time>2020-07-26T09:15:44Z</time>
      </trkpt>
      <trkpt lat="42.8463750" lon="-0.0071030">
        <ele>784.8</ele>
        <time>2020-07-26T09:15:47Z</time>
      </trkpt>
      <trkpt lat="42.8461680" lon="-0.0071650">
        <ele>785.8</ele>
        <time>2020-07-26T09:15:51Z</time>
      </trkpt>
      <trkpt lat="42.8460220" lon="-0.0071890">
        <ele>787.0</ele>
        <time>2020-07-26T09:15:54Z</time>
      </trkpt>
      <trkpt lat="42.8458790" lon="-0.0071910">
        <ele>788.2</ele>
        <time>2020-07-26T09:15:57Z</time>
      </trkpt>
      <trkpt lat="42.8458320" lon="-0.0071900">
        <ele>788.4</ele>
        <time>2020-07-26T09:15:58Z</time>
      </trkpt>
      <trkpt lat="42.8455910" lon="-0.0071510">
        <ele>789.4</ele>
        <time>2020-07-26T09:16:03Z</time>
      </trkpt>
      <trkpt lat="42.8454600" lon="-0.0071210">
        <ele>790.8</ele>
        <time>2020-07-26T09:16:06Z</time>
      </trkpt>
      <trkpt lat="42.8454190" lon="-0.0071360">
        <ele>791.4</ele>
        <time>2020-07-26T09:16:07Z</time>
      </trkpt>
      <trkpt lat="42.8453310" lon="-0.0071580">
        <ele>792.0</ele>
        <time>2020-07-26T09:16:09Z</time>
      </trkpt>
      <trkpt lat="42.8452890" lon="-0.0071600">
        <ele>792.2</ele>
        <time>2020-07-26T09:16:10Z</time>
      </trkpt>
      <trkpt lat="42.8452410" lon="-0.0071670">
        <ele>792.4</ele>
        <time>2020-07-26T09:16:11Z</time>
      </trkpt>
      <trkpt lat="42.8450610" lon="-0.0071790">
        <ele>793.2</ele>
        <time>2020-07-26T09:16:15Z</time>
      </trkpt>
      <trkpt lat="42.8449270" lon="-0.0071880">
        <ele>794.0</ele>
        <time>2020-07-26T09:16:18Z</time>
      </trkpt>
      <trkpt lat="42.8448860" lon="-0.0071920">
        <ele>794.2</ele>
        <time>2020-07-26T09:16:19Z</time>
      </trkpt>
      <trkpt lat="42.8448490" lon="-0.0071800">
        <ele>794.4</ele>
        <time>2020-07-26T09:16:20Z</time>
      </trkpt>
      <trkpt lat="42.8446970" lon="-0.0071640">
        <ele>795.6</ele>
        <time>2020-07-26T09:16:24Z</time>
      </trkpt>
      <trkpt lat="42.8444400" lon="-0.0072160">
        <ele>796.6</ele>
        <time>2020-07-26T09:16:30Z</time>
      </trkpt>
      <trkpt lat="42.8443110" lon="-0.0072450">
        <ele>796.8</ele>
        <time>2020-07-26T09:16:33Z</time>
      </trkpt>
      <trkpt lat="42.8440990" lon="-0.0072820">
        <ele>797.8</ele>
        <time>2020-07-26T09:16:38Z</time>
      </trkpt>
      <trkpt lat="42.8439410" lon="-0.0073110">
        <ele>798.4</ele>
        <time>2020-07-26T09:16:42Z</time>
      </trkpt>
      <trkpt lat="42.8438240" lon="-0.0073120">
        <ele>799.2</ele>
        <time>2020-07-26T09:19:52Z</time>
      </trkpt>
      <trkpt lat="42.8438230" lon="-0.0073120">
        <ele>799.2</ele>
        <time>2020-07-26T09:19:53Z</time>
      </trkpt>
      <trkpt lat="42.8438240" lon="-0.0073080">
        <ele>799.2</ele>
        <time>2020-07-26T09:19:55Z</time>
      </trkpt>
      <trkpt lat="42.8438160" lon="-0.0072870">
        <ele>800.0</ele>
        <time>2020-07-26T09:19:58Z</time>
      </trkpt>
      <trkpt lat="42.8437880" lon="-0.0072620">
        <ele>800.0</ele>
        <time>2020-07-26T09:20:00Z</time>
      </trkpt>
      <trkpt lat="42.8437630" lon="-0.0072530">
        <ele>800.2</ele>
        <time>2020-07-26T09:20:01Z</time>
      </trkpt>
      <trkpt lat="42.8437290" lon="-0.0072460">
        <ele>800.2</ele>
        <time>2020-07-26T09:20:02Z</time>
      </trkpt>
      <trkpt lat="42.8436910" lon="-0.0072380">
        <ele>800.2</ele>
        <time>2020-07-26T09:20:03Z</time>
      </trkpt>
      <trkpt lat="42.8434780" lon="-0.0071190">
        <ele>800.6</ele>
        <time>2020-07-26T09:20:08Z</time>
      </trkpt>
      <trkpt lat="42.8433550" lon="-0.0070110">
        <ele>801.2</ele>
        <time>2020-07-26T09:20:11Z</time>
      </trkpt>
      <trkpt lat="42.8432760" lon="-0.0069250">
        <ele>801.6</ele>
        <time>2020-07-26T09:20:13Z</time>
      </trkpt>
      <trkpt lat="42.8431590" lon="-0.0067860">
        <ele>801.8</ele>
        <time>2020-07-26T09:20:16Z</time>
      </trkpt>
      <trkpt lat="42.8429680" lon="-0.0065340">
        <ele>802.4</ele>
        <time>2020-07-26T09:20:21Z</time>
      </trkpt>
      <trkpt lat="42.8427990" lon="-0.0063470">
        <ele>803.4</ele>
        <time>2020-07-26T09:20:25Z</time>
      </trkpt>
      <trkpt lat="42.8427540" lon="-0.0063130">
        <ele>803.6</ele>
        <time>2020-07-26T09:20:26Z</time>
      </trkpt>
      <trkpt lat="42.8425310" lon="-0.0061920">
        <ele>804.4</ele>
        <time>2020-07-26T09:20:31Z</time>
      </trkpt>
      <trkpt lat="42.8424830" lon="-0.0061730">
        <ele>804.6</ele>
        <time>2020-07-26T09:20:32Z</time>
      </trkpt>
      <trkpt lat="42.8422390" lon="-0.0060670">
        <ele>805.6</ele>
        <time>2020-07-26T09:20:37Z</time>
      </trkpt>
      <trkpt lat="42.8420530" lon="-0.0059860">
        <ele>806.4</ele>
        <time>2020-07-26T09:20:41Z</time>
      </trkpt>
      <trkpt lat="42.8420050" lon="-0.0059680">
        <ele>806.8</ele>
        <time>2020-07-26T09:20:42Z</time>
      </trkpt>
      <trkpt lat="42.8418030" lon="-0.0059250">
        <ele>808.0</ele>
        <time>2020-07-26T09:20:46Z</time>
      </trkpt>
      <trkpt lat="42.8416990" lon="-0.0059240">
        <ele>808.6</ele>
        <time>2020-07-26T09:20:48Z</time>
      </trkpt>
      <trkpt lat="42.8416060" lon="-0.0059260">
        <ele>809.0</ele>
        <time>2020-07-26T09:20:50Z</time>
      </trkpt>
      <trkpt lat="42.8414390" lon="-0.0058960">
        <ele>810.2</ele>
        <time>2020-07-26T09:20:54Z</time>
      </trkpt>
      <trkpt lat="42.8413970" lon="-0.0058830">
        <ele>810.4</ele>
        <time>2020-07-26T09:20:55Z</time>
      </trkpt>
      <trkpt lat="42.8412690" lon="-0.0058490">
        <ele>811.2</ele>
        <time>2020-07-26T09:20:58Z</time>
      </trkpt>
      <trkpt lat="42.8409990" lon="-0.0057490">
        <ele>811.8</ele>
        <time>2020-07-26T09:21:04Z</time>
      </trkpt>
      <trkpt lat="42.8409030" lon="-0.0057180">
        <ele>812.6</ele>
        <time>2020-07-26T09:21:06Z</time>
      </trkpt>
      <trkpt lat="42.8406730" lon="-0.0056260">
        <ele>813.2</ele>
        <time>2020-07-26T09:21:11Z</time>
      </trkpt>
      <trkpt lat="42.8405860" lon="-0.0055800">
        <ele>813.2</ele>
        <time>2020-07-26T09:21:13Z</time>
      </trkpt>
      <trkpt lat="42.8404860" lon="-0.0055380">
        <ele>813.6</ele>
        <time>2020-07-26T09:21:15Z</time>
      </trkpt>
      <trkpt lat="42.8404350" lon="-0.0055230">
        <ele>813.8</ele>
        <time>2020-07-26T09:21:16Z</time>
      </trkpt>
      <trkpt lat="42.8403330" lon="-0.0054950">
        <ele>814.2</ele>
        <time>2020-07-26T09:21:18Z</time>
      </trkpt>
      <trkpt lat="42.8400050" lon="-0.0053560">
        <ele>814.6</ele>
        <time>2020-07-26T09:21:24Z</time>
      </trkpt>
      <trkpt lat="42.8397220" lon="-0.0051470">
        <ele>814.2</ele>
        <time>2020-07-26T09:21:29Z</time>
      </trkpt>
      <trkpt lat="42.8396030" lon="-0.0050500">
        <ele>814.4</ele>
        <time>2020-07-26T09:21:31Z</time>
      </trkpt>
      <trkpt lat="42.8392340" lon="-0.0047270">
        <ele>814.4</ele>
        <time>2020-07-26T09:21:37Z</time>
      </trkpt>
      <trkpt lat="42.8391200" lon="-0.0046060">
        <ele>814.6</ele>
        <time>2020-07-26T09:21:39Z</time>
      </trkpt>
      <trkpt lat="42.8387800" lon="-0.0042260">
        <ele>814.6</ele>
        <time>2020-07-26T09:21:45Z</time>
      </trkpt>
      <trkpt lat="42.8387150" lon="-0.0041820">
        <ele>814.8</ele>
        <time>2020-07-26T09:21:46Z</time>
      </trkpt>
      <trkpt lat="42.8385030" lon="-0.0040740">
        <ele>814.8</ele>
        <time>2020-07-26T09:21:49Z</time>
      </trkpt>
      <trkpt lat="42.8383630" lon="-0.0039940">
        <ele>814.8</ele>
        <time>2020-07-26T09:21:51Z</time>
      </trkpt>
      <trkpt lat="42.8382510" lon="-0.0038620">
        <ele>815.0</ele>
        <time>2020-07-26T09:21:53Z</time>
      </trkpt>
      <trkpt lat="42.8382070" lon="-0.0037740">
        <ele>815.0</ele>
        <time>2020-07-26T09:21:54Z</time>
      </trkpt>
      <trkpt lat="42.8380410" lon="-0.0034140">
        <ele>815.0</ele>
        <time>2020-07-26T09:21:58Z</time>
      </trkpt>
      <trkpt lat="42.8379830" lon="-0.0033460">
        <ele>815.0</ele>
        <time>2020-07-26T09:21:59Z</time>
      </trkpt>
      <trkpt lat="42.8379160" lon="-0.0032940">
        <ele>815.0</ele>
        <time>2020-07-26T09:22:00Z</time>
      </trkpt>
      <trkpt lat="42.8377670" lon="-0.0032460">
        <ele>815.2</ele>
        <time>2020-07-26T09:22:02Z</time>
      </trkpt>
      <trkpt lat="42.8376160" lon="-0.0032970">
        <ele>815.2</ele>
        <time>2020-07-26T09:22:04Z</time>
      </trkpt>
      <trkpt lat="42.8375510" lon="-0.0033550">
        <ele>815.2</ele>
        <time>2020-07-26T09:22:05Z</time>
      </trkpt>
      <trkpt lat="42.8371980" lon="-0.0037480">
        <ele>814.8</ele>
        <time>2020-07-26T09:22:11Z</time>
      </trkpt>
      <trkpt lat="42.8370770" lon="-0.0037720">
        <ele>814.8</ele>
        <time>2020-07-26T09:22:13Z</time>
      </trkpt>
      <trkpt lat="42.8370230" lon="-0.0037310">
        <ele>814.8</ele>
        <time>2020-07-26T09:22:14Z</time>
      </trkpt>
      <trkpt lat="42.8369740" lon="-0.0036710">
        <ele>815.0</ele>
        <time>2020-07-26T09:22:15Z</time>
      </trkpt>
      <trkpt lat="42.8368220" lon="-0.0034690">
        <ele>815.0</ele>
        <time>2020-07-26T09:22:18Z</time>
      </trkpt>
      <trkpt lat="42.8364800" lon="-0.0031030">
        <ele>815.2</ele>
        <time>2020-07-26T09:22:24Z</time>
      </trkpt>
      <trkpt lat="42.8364240" lon="-0.0030450">
        <ele>815.2</ele>
        <time>2020-07-26T09:22:25Z</time>
      </trkpt>
      <trkpt lat="42.8362210" lon="-0.0028010">
        <ele>815.6</ele>
        <time>2020-07-26T09:22:29Z</time>
      </trkpt>
      <trkpt lat="42.8361820" lon="-0.0027370">
        <ele>816.2</ele>
        <time>2020-07-26T09:22:30Z</time>
      </trkpt>
      <trkpt lat="42.8361490" lon="-0.0026710">
        <ele>816.8</ele>
        <time>2020-07-26T09:22:31Z</time>
      </trkpt>
      <trkpt lat="42.8361190" lon="-0.0026060">
        <ele>817.4</ele>
        <time>2020-07-26T09:22:32Z</time>
      </trkpt>
      <trkpt lat="42.8360470" lon="-0.0024130">
        <ele>818.4</ele>
        <time>2020-07-26T09:22:35Z</time>
      </trkpt>
      <trkpt lat="42.8360110" lon="-0.0022870">
        <ele>818.8</ele>
        <time>2020-07-26T09:22:37Z</time>
      </trkpt>
      <trkpt lat="42.8359750" lon="-0.0021630">
        <ele>819.6</ele>
        <time>2020-07-26T09:22:39Z</time>
      </trkpt>
      <trkpt lat="42.8359350" lon="-0.0020410">
        <ele>820.8</ele>
        <time>2020-07-26T09:22:41Z</time>
      </trkpt>
      <trkpt lat="42.8358370" lon="-0.0018000">
        <ele>821.8</ele>
        <time>2020-07-26T09:22:45Z</time>
      </trkpt>
      <trkpt lat="42.8358110" lon="-0.0017360">
        <ele>822.2</ele>
        <time>2020-07-26T09:22:46Z</time>
      </trkpt>
      <trkpt lat="42.8357240" lon="-0.0015360">
        <ele>822.6</ele>
        <time>2020-07-26T09:22:49Z</time>
      </trkpt>
      <trkpt lat="42.8356120" lon="-0.0013400">
        <ele>822.6</ele>
        <time>2020-07-26T09:22:52Z</time>
      </trkpt>
      <trkpt lat="42.8353470" lon="-0.0009910">
        <ele>823.2</ele>
        <time>2020-07-26T09:22:58Z</time>
      </trkpt>
      <trkpt lat="42.8353000" lon="-0.0009360">
        <ele>823.4</ele>
        <time>2020-07-26T09:22:59Z</time>
      </trkpt>
      <trkpt lat="42.8351990" lon="-0.0008380">
        <ele>823.6</ele>
        <time>2020-07-26T09:23:01Z</time>
      </trkpt>
      <trkpt lat="42.8350880" lon="-0.0007730">
        <ele>824.2</ele>
        <time>2020-07-26T09:23:03Z</time>
      </trkpt>
      <trkpt lat="42.8347570" lon="-0.0006560">
        <ele>825.0</ele>
        <time>2020-07-26T09:23:09Z</time>
      </trkpt>
      <trkpt lat="42.8347050" lon="-0.0006370">
        <ele>825.6</ele>
        <time>2020-07-26T09:23:10Z</time>
      </trkpt>
      <trkpt lat="42.8344400" lon="-0.0005410">
        <ele>826.4</ele>
        <time>2020-07-26T09:23:15Z</time>
      </trkpt>
      <trkpt lat="42.8343900" lon="-0.0005190">
        <ele>827.0</ele>
        <time>2020-07-26T09:23:16Z</time>
      </trkpt>
      <trkpt lat="42.8342450" lon="-0.0004560">
        <ele>827.4</ele>
        <time>2020-07-26T09:23:19Z</time>
      </trkpt>
      <trkpt lat="42.8341960" lon="-0.0004400">
        <ele>827.6</ele>
        <time>2020-07-26T09:23:20Z</time>
      </trkpt>
      <trkpt lat="42.8340990" lon="-0.0004090">
        <ele>827.8</ele>
        <time>2020-07-26T09:23:22Z</time>
      </trkpt>
      <trkpt lat="42.8340550" lon="-0.0003860">
        <ele>828.0</ele>
        <time>2020-07-26T09:23:23Z</time>
      </trkpt>
      <trkpt lat="42.8340100" lon="-0.0003530">
        <ele>828.2</ele>
        <time>2020-07-26T09:23:24Z</time>
      </trkpt>
      <trkpt lat="42.8339640" lon="-0.0003140">
        <ele>828.6</ele>
        <time>2020-07-26T09:23:25Z</time>
      </trkpt>
      <trkpt lat="42.8337820" lon="-0.0001360">
        <ele>829.0</ele>
        <time>2020-07-26T09:23:29Z</time>
      </trkpt>
      <trkpt lat="42.8336900" lon="-0.0000570">
        <ele>829.4</ele>
        <time>2020-07-26T09:23:31Z</time>
      </trkpt>
      <trkpt lat="42.8335920" lon="0.0000020">
        <ele>829.8</ele>
        <time>2020-07-26T09:23:33Z</time>
      </trkpt>
      <trkpt lat="42.8334840" lon="0.0000290">
        <ele>830.0</ele>
        <time>2020-07-26T09:23:35Z</time>
      </trkpt>
      <trkpt lat="42.8334320" lon="0.0000390">
        <ele>830.2</ele>
        <time>2020-07-26T09:23:36Z</time>
      </trkpt>
      <trkpt lat="42.8333800" lon="0.0000520">
        <ele>830.2</ele>
        <time>2020-07-26T09:23:37Z</time>
      </trkpt>
      <trkpt lat="42.8333290" lon="0.0000680">
        <ele>830.4</ele>
        <time>2020-07-26T09:23:38Z</time>
      </trkpt>
      <trkpt lat="42.8332800" lon="0.0000920">
        <ele>830.6</ele>
        <time>2020-07-26T09:23:39Z</time>
      </trkpt>
      <trkpt lat="42.8331390" lon="0.0002050">
        <ele>831.0</ele>
        <time>2020-07-26T09:23:42Z</time>
      </trkpt>
      <trkpt lat="42.8330960" lon="0.0002460">
        <ele>831.2</ele>
        <time>2020-07-26T09:23:43Z</time>
      </trkpt>
      <trkpt lat="42.8330540" lon="0.0002900">
        <ele>831.4</ele>
        <time>2020-07-26T09:23:44Z</time>
      </trkpt>
      <trkpt lat="42.8329520" lon="0.0004540">
        <ele>832.2</ele>
        <time>2020-07-26T09:23:47Z</time>
      </trkpt>
      <trkpt lat="42.8329000" lon="0.0005740">
        <ele>832.8</ele>
        <time>2020-07-26T09:23:49Z</time>
      </trkpt>
      <trkpt lat="42.8328590" lon="0.0007070">
        <ele>833.2</ele>
        <time>2020-07-26T09:23:51Z</time>
      </trkpt>
      <trkpt lat="42.8328380" lon="0.0007730">
        <ele>833.4</ele>
        <time>2020-07-26T09:23:52Z</time>
      </trkpt>
      <trkpt lat="42.8327390" lon="0.0010910">
        <ele>834.4</ele>
        <time>2020-07-26T09:23:57Z</time>
      </trkpt>
      <trkpt lat="42.8326730" lon="0.0012680">
        <ele>835.2</ele>
        <time>2020-07-26T09:24:00Z</time>
      </trkpt>
      <trkpt lat="42.8326490" lon="0.0013230">
        <ele>835.6</ele>
        <time>2020-07-26T09:24:01Z</time>
      </trkpt>
      <trkpt lat="42.8325940" lon="0.0014320">
        <ele>836.0</ele>
        <time>2020-07-26T09:24:03Z</time>
      </trkpt>
      <trkpt lat="42.8324990" lon="0.0015630">
        <ele>836.8</ele>
        <time>2020-07-26T09:24:06Z</time>
      </trkpt>
      <trkpt lat="42.8323530" lon="0.0017140">
        <ele>837.8</ele>
        <time>2020-07-26T09:24:10Z</time>
      </trkpt>
      <trkpt lat="42.8322010" lon="0.0018700">
        <ele>838.6</ele>
        <time>2020-07-26T09:24:14Z</time>
      </trkpt>
      <trkpt lat="42.8321330" lon="0.0019570">
        <ele>839.0</ele>
        <time>2020-07-26T09:24:16Z</time>
      </trkpt>
      <trkpt lat="42.8319970" lon="0.0021270">
        <ele>839.4</ele>
        <time>2020-07-26T09:24:20Z</time>
      </trkpt>
      <trkpt lat="42.8319660" lon="0.0021730">
        <ele>839.6</ele>
        <time>2020-07-26T09:24:21Z</time>
      </trkpt>
      <trkpt lat="42.8319360" lon="0.0022160">
        <ele>840.0</ele>
        <time>2020-07-26T09:24:22Z</time>
      </trkpt>
      <trkpt lat="42.8318600" lon="0.0023470">
        <ele>841.0</ele>
        <time>2020-07-26T09:24:25Z</time>
      </trkpt>
      <trkpt lat="42.8317860" lon="0.0024670">
        <ele>842.0</ele>
        <time>2020-07-26T09:24:28Z</time>
      </trkpt>
      <trkpt lat="42.8317610" lon="0.0025110">
        <ele>842.4</ele>
        <time>2020-07-26T09:24:29Z</time>
      </trkpt>
      <trkpt lat="42.8317120" lon="0.0025930">
        <ele>843.0</ele>
        <time>2020-07-26T09:24:31Z</time>
      </trkpt>
      <trkpt lat="42.8316680" lon="0.0026700">
        <ele>844.0</ele>
        <time>2020-07-26T09:24:33Z</time>
      </trkpt>
      <trkpt lat="42.8316020" lon="0.0027810">
        <ele>844.8</ele>
        <time>2020-07-26T09:24:36Z</time>
      </trkpt>
      <trkpt lat="42.8315780" lon="0.0028190">
        <ele>845.2</ele>
        <time>2020-07-26T09:24:37Z</time>
      </trkpt>
      <trkpt lat="42.8314490" lon="0.0030050">
        <ele>846.2</ele>
        <time>2020-07-26T09:24:42Z</time>
      </trkpt>
      <trkpt lat="42.8314050" lon="0.0030750">
        <ele>846.6</ele>
        <time>2020-07-26T09:24:44Z</time>
      </trkpt>
      <trkpt lat="42.8313340" lon="0.0031770">
        <ele>847.6</ele>
        <time>2020-07-26T09:24:47Z</time>
      </trkpt>
      <trkpt lat="42.8312080" lon="0.0033710">
        <ele>848.6</ele>
        <time>2020-07-26T09:24:52Z</time>
      </trkpt>
      <trkpt lat="42.8311850" lon="0.0034120">
        <ele>848.8</ele>
        <time>2020-07-26T09:24:53Z</time>
      </trkpt>
      <trkpt lat="42.8310910" lon="0.0035610">
        <ele>850.2</ele>
        <time>2020-07-26T09:24:57Z</time>
      </trkpt>
      <trkpt lat="42.8310490" lon="0.0036280">
        <ele>850.6</ele>
        <time>2020-07-26T09:24:59Z</time>
      </trkpt>
      <trkpt lat="42.8309830" lon="0.0037520">
        <ele>851.2</ele>
        <time>2020-07-26T09:25:03Z</time>
      </trkpt>
      <trkpt lat="42.8309200" lon="0.0038680">
        <ele>852.2</ele>
        <time>2020-07-26T09:25:06Z</time>
      </trkpt>
      <trkpt lat="42.8308950" lon="0.0039030">
        <ele>852.6</ele>
        <time>2020-07-26T09:25:07Z</time>
      </trkpt>
      <trkpt lat="42.8308420" lon="0.0039770">
        <ele>853.4</ele>
        <time>2020-07-26T09:25:09Z</time>
      </trkpt>
      <trkpt lat="42.8307240" lon="0.0041720">
        <ele>854.6</ele>
        <time>2020-07-26T09:25:14Z</time>
      </trkpt>
      <trkpt lat="42.8306720" lon="0.0042460">
        <ele>855.4</ele>
        <time>2020-07-26T09:25:16Z</time>
      </trkpt>
      <trkpt lat="42.8306200" lon="0.0043230">
        <ele>855.8</ele>
        <time>2020-07-26T09:25:18Z</time>
      </trkpt>
      <trkpt lat="42.8305320" lon="0.0044360">
        <ele>856.4</ele>
        <time>2020-07-26T09:25:21Z</time>
      </trkpt>
      <trkpt lat="42.8304270" lon="0.0045260">
        <ele>857.2</ele>
        <time>2020-07-26T09:25:24Z</time>
      </trkpt>
      <trkpt lat="42.8301770" lon="0.0046770">
        <ele>858.0</ele>
        <time>2020-07-26T09:25:30Z</time>
      </trkpt>
      <trkpt lat="42.8301370" lon="0.0047070">
        <ele>858.0</ele>
        <time>2020-07-26T09:25:31Z</time>
      </trkpt>
      <trkpt lat="42.8300950" lon="0.0047360">
        <ele>858.2</ele>
        <time>2020-07-26T09:25:32Z</time>
      </trkpt>
      <trkpt lat="42.8298590" lon="0.0049340">
        <ele>859.0</ele>
        <time>2020-07-26T09:25:38Z</time>
      </trkpt>
      <trkpt lat="42.8297610" lon="0.0050860">
        <ele>859.2</ele>
        <time>2020-07-26T09:25:41Z</time>
      </trkpt>
      <trkpt lat="42.8297330" lon="0.0051440">
        <ele>859.2</ele>
        <time>2020-07-26T09:25:42Z</time>
      </trkpt>
      <trkpt lat="42.8297060" lon="0.0052070">
        <ele>859.4</ele>
        <time>2020-07-26T09:25:43Z</time>
      </trkpt>
      <trkpt lat="42.8296540" lon="0.0053350">
        <ele>859.6</ele>
        <time>2020-07-26T09:25:45Z</time>
      </trkpt>
      <trkpt lat="42.8294810" lon="0.0057110">
        <ele>860.2</ele>
        <time>2020-07-26T09:25:51Z</time>
      </trkpt>
      <trkpt lat="42.8293700" lon="0.0058920">
        <ele>860.2</ele>
        <time>2020-07-26T09:25:54Z</time>
      </trkpt>
      <trkpt lat="42.8292370" lon="0.0060500">
        <ele>860.2</ele>
        <time>2020-07-26T09:25:57Z</time>
      </trkpt>
      <trkpt lat="42.8289450" lon="0.0063430">
        <ele>860.4</ele>
        <time>2020-07-26T09:26:03Z</time>
      </trkpt>
      <trkpt lat="42.8288450" lon="0.0064400">
        <ele>860.4</ele>
        <time>2020-07-26T09:26:05Z</time>
      </trkpt>
      <trkpt lat="42.8285140" lon="0.0066790">
        <ele>861.0</ele>
        <time>2020-07-26T09:26:11Z</time>
      </trkpt>
      <trkpt lat="42.8281550" lon="0.0067670">
        <ele>861.0</ele>
        <time>2020-07-26T09:26:17Z</time>
      </trkpt>
      <trkpt lat="42.8278300" lon="0.0069600">
        <ele>861.2</ele>
        <time>2020-07-26T09:26:23Z</time>
      </trkpt>
      <trkpt lat="42.8277360" lon="0.0070570">
        <ele>861.4</ele>
        <time>2020-07-26T09:26:25Z</time>
      </trkpt>
      <trkpt lat="42.8276010" lon="0.0071970">
        <ele>861.6</ele>
        <time>2020-07-26T09:26:28Z</time>
      </trkpt>
      <trkpt lat="42.8275090" lon="0.0073050">
        <ele>861.6</ele>
        <time>2020-07-26T09:26:30Z</time>
      </trkpt>
      <trkpt lat="42.8272390" lon="0.0076220">
        <ele>862.4</ele>
        <time>2020-07-26T09:26:36Z</time>
      </trkpt>
      <trkpt lat="42.8271940" lon="0.0076730">
        <ele>862.4</ele>
        <time>2020-07-26T09:26:37Z</time>
      </trkpt>
      <trkpt lat="42.8271010" lon="0.0077770">
        <ele>862.8</ele>
        <time>2020-07-26T09:26:39Z</time>
      </trkpt>
      <trkpt lat="42.8270060" lon="0.0078820">
        <ele>863.4</ele>
        <time>2020-07-26T09:26:41Z</time>
      </trkpt>
      <trkpt lat="42.8269050" lon="0.0079830">
        <ele>863.4</ele>
        <time>2020-07-26T09:26:43Z</time>
      </trkpt>
      <trkpt lat="42.8266910" lon="0.0081570">
        <ele>864.0</ele>
        <time>2020-07-26T09:26:47Z</time>
      </trkpt>
      <trkpt lat="42.8264020" lon="0.0082530">
        <ele>864.4</ele>
        <time>2020-07-26T09:26:52Z</time>
      </trkpt>
      <trkpt lat="42.8263450" lon="0.0082680">
        <ele>864.6</ele>
        <time>2020-07-26T09:26:53Z</time>
      </trkpt>
      <trkpt lat="42.8261320" lon="0.0083200">
        <ele>865.6</ele>
        <time>2020-07-26T09:26:57Z</time>
      </trkpt>
      <trkpt lat="42.8259360" lon="0.0083770">
        <ele>866.6</ele>
        <time>2020-07-26T09:27:01Z</time>
      </trkpt>
      <trkpt lat="42.8258870" lon="0.0083910">
        <ele>866.8</ele>
        <time>2020-07-26T09:27:02Z</time>
      </trkpt>
      <trkpt lat="42.8257450" lon="0.0084320">
        <ele>867.6</ele>
        <time>2020-07-26T09:27:05Z</time>
      </trkpt>
      <trkpt lat="42.8256980" lon="0.0084480">
        <ele>867.8</ele>
        <time>2020-07-26T09:27:06Z</time>
      </trkpt>
      <trkpt lat="42.8256530" lon="0.0084620">
        <ele>868.0</ele>
        <time>2020-07-26T09:27:07Z</time>
      </trkpt>
      <trkpt lat="42.8254740" lon="0.0085160">
        <ele>868.8</ele>
        <time>2020-07-26T09:27:11Z</time>
      </trkpt>
      <trkpt lat="42.8253870" lon="0.0085410">
        <ele>869.2</ele>
        <time>2020-07-26T09:27:13Z</time>
      </trkpt>
      <trkpt lat="42.8251730" lon="0.0086010">
        <ele>870.4</ele>
        <time>2020-07-26T09:27:18Z</time>
      </trkpt>
      <trkpt lat="42.8250970" lon="0.0086170">
        <ele>871.0</ele>
        <time>2020-07-26T09:27:20Z</time>
      </trkpt>
      <trkpt lat="42.8250210" lon="0.0086330">
        <ele>871.6</ele>
        <time>2020-07-26T09:27:22Z</time>
      </trkpt>
      <trkpt lat="42.8248990" lon="0.0086420">
        <ele>872.8</ele>
        <time>2020-07-26T09:27:25Z</time>
      </trkpt>
      <trkpt lat="42.8248210" lon="0.0086400">
        <ele>873.6</ele>
        <time>2020-07-26T09:27:27Z</time>
      </trkpt>
      <trkpt lat="42.8247850" lon="0.0086400">
        <ele>874.0</ele>
        <time>2020-07-26T09:27:28Z</time>
      </trkpt>
      <trkpt lat="42.8246080" lon="0.0086410">
        <ele>875.0</ele>
        <time>2020-07-26T09:27:33Z</time>
      </trkpt>
      <trkpt lat="42.8245750" lon="0.0086650">
        <ele>875.4</ele>
        <time>2020-07-26T09:27:34Z</time>
      </trkpt>
      <trkpt lat="42.8245450" lon="0.0087010">
        <ele>875.8</ele>
        <time>2020-07-26T09:27:35Z</time>
      </trkpt>
      <trkpt lat="42.8245200" lon="0.0087480">
        <ele>876.0</ele>
        <time>2020-07-26T09:27:36Z</time>
      </trkpt>
      <trkpt lat="42.8244990" lon="0.0088040">
        <ele>876.4</ele>
        <time>2020-07-26T09:27:37Z</time>
      </trkpt>
      <trkpt lat="42.8244840" lon="0.0088680">
        <ele>876.4</ele>
        <time>2020-07-26T09:27:38Z</time>
      </trkpt>
      <trkpt lat="42.8244150" lon="0.0092160">
        <ele>876.8</ele>
        <time>2020-07-26T09:27:43Z</time>
      </trkpt>
      <trkpt lat="42.8243840" lon="0.0092710">
        <ele>876.8</ele>
        <time>2020-07-26T09:27:44Z</time>
      </trkpt>
      <trkpt lat="42.8243440" lon="0.0093130">
        <ele>876.6</ele>
        <time>2020-07-26T09:27:45Z</time>
      </trkpt>
      <trkpt lat="42.8242490" lon="0.0093600">
        <ele>877.0</ele>
        <time>2020-07-26T09:27:47Z</time>
      </trkpt>
      <trkpt lat="42.8242000" lon="0.0093670">
        <ele>877.2</ele>
        <time>2020-07-26T09:27:48Z</time>
      </trkpt>
      <trkpt lat="42.8241540" lon="0.0093650">
        <ele>877.4</ele>
        <time>2020-07-26T09:27:49Z</time>
      </trkpt>
      <trkpt lat="42.8240130" lon="0.0093600">
        <ele>878.4</ele>
        <time>2020-07-26T09:27:52Z</time>
      </trkpt>
      <trkpt lat="42.8238770" lon="0.0093600">
        <ele>879.6</ele>
        <time>2020-07-26T09:27:55Z</time>
      </trkpt>
      <trkpt lat="42.8236910" lon="0.0093490">
        <ele>880.8</ele>
        <time>2020-07-26T09:27:59Z</time>
      </trkpt>
      <trkpt lat="42.8236430" lon="0.0093520">
        <ele>881.0</ele>
        <time>2020-07-26T09:28:00Z</time>
      </trkpt>
      <trkpt lat="42.8233570" lon="0.0093660">
        <ele>881.8</ele>
        <time>2020-07-26T09:28:06Z</time>
      </trkpt>
      <trkpt lat="42.8231790" lon="0.0093670">
        <ele>882.6</ele>
        <time>2020-07-26T09:28:10Z</time>
      </trkpt>
      <trkpt lat="42.8231350" lon="0.0093670">
        <ele>883.0</ele>
        <time>2020-07-26T09:28:11Z</time>
      </trkpt>
      <trkpt lat="42.8228510" lon="0.0093410">
        <ele>883.8</ele>
        <time>2020-07-26T09:28:17Z</time>
      </trkpt>
      <trkpt lat="42.8228060" lon="0.0093370">
        <ele>884.0</ele>
        <time>2020-07-26T09:28:18Z</time>
      </trkpt>
      <trkpt lat="42.8226220" lon="0.0093280">
        <ele>885.0</ele>
        <time>2020-07-26T09:28:22Z</time>
      </trkpt>
      <trkpt lat="42.8225340" lon="0.0093030">
        <ele>885.2</ele>
        <time>2020-07-26T09:28:24Z</time>
      </trkpt>
      <trkpt lat="42.8224910" lon="0.0092910">
        <ele>885.2</ele>
        <time>2020-07-26T09:28:25Z</time>
      </trkpt>
      <trkpt lat="42.8223170" lon="0.0092390">
        <ele>886.2</ele>
        <time>2020-07-26T09:28:29Z</time>
      </trkpt>
      <trkpt lat="42.8221930" lon="0.0092150">
        <ele>886.8</ele>
        <time>2020-07-26T09:28:32Z</time>
      </trkpt>
      <trkpt lat="42.8220620" lon="0.0092160">
        <ele>887.2</ele>
        <time>2020-07-26T09:28:35Z</time>
      </trkpt>
      <trkpt lat="42.8220160" lon="0.0092210">
        <ele>887.4</ele>
        <time>2020-07-26T09:28:36Z</time>
      </trkpt>
      <trkpt lat="42.8219130" lon="0.0092480">
        <ele>888.0</ele>
        <time>2020-07-26T09:28:38Z</time>
      </trkpt>
      <trkpt lat="42.8218590" lon="0.0092660">
        <ele>888.2</ele>
        <time>2020-07-26T09:28:39Z</time>
      </trkpt>
      <trkpt lat="42.8218060" lon="0.0092880">
        <ele>888.2</ele>
        <time>2020-07-26T09:28:40Z</time>
      </trkpt>
      <trkpt lat="42.8217500" lon="0.0093140">
        <ele>888.4</ele>
        <time>2020-07-26T09:28:41Z</time>
      </trkpt>
      <trkpt lat="42.8215820" lon="0.0093880">
        <ele>888.8</ele>
        <time>2020-07-26T09:28:44Z</time>
      </trkpt>
      <trkpt lat="42.8212710" lon="0.0095450">
        <ele>889.4</ele>
        <time>2020-07-26T09:28:50Z</time>
      </trkpt>
      <trkpt lat="42.8212230" lon="0.0095770">
        <ele>889.6</ele>
        <time>2020-07-26T09:28:51Z</time>
      </trkpt>
      <trkpt lat="42.8211760" lon="0.0096100">
        <ele>889.8</ele>
        <time>2020-07-26T09:28:52Z</time>
      </trkpt>
      <trkpt lat="42.8209620" lon="0.0097290">
        <ele>890.0</ele>
        <time>2020-07-26T09:28:56Z</time>
      </trkpt>
      <trkpt lat="42.8207480" lon="0.0098480">
        <ele>890.8</ele>
        <time>2020-07-26T09:29:01Z</time>
      </trkpt>
      <trkpt lat="42.8205340" lon="0.0099670">
        <ele>891.2</ele>
        <time>2020-07-26T09:29:05Z</time>
      </trkpt>
      <trkpt lat="42.8203770" lon="0.0100120">
        <ele>891.4</ele>
        <time>2020-07-26T09:29:08Z</time>
      </trkpt>
      <trkpt lat="42.8202670" lon="0.0100080">
        <ele>892.0</ele>
        <time>2020-07-26T09:29:10Z</time>
      </trkpt>
      <trkpt lat="42.8200440" lon="0.0100310">
        <ele>892.8</ele>
        <time>2020-07-26T09:29:14Z</time>
      </trkpt>
      <trkpt lat="42.8199880" lon="0.0100380">
        <ele>893.2</ele>
        <time>2020-07-26T09:29:15Z</time>
      </trkpt>
      <trkpt lat="42.8196550" lon="0.0100820">
        <ele>893.8</ele>
        <time>2020-07-26T09:29:21Z</time>
      </trkpt>
      <trkpt lat="42.8195930" lon="0.0100810">
        <ele>894.0</ele>
        <time>2020-07-26T09:29:22Z</time>
      </trkpt>
      <trkpt lat="42.8195320" lon="0.0100860">
        <ele>894.2</ele>
        <time>2020-07-26T09:29:23Z</time>
      </trkpt>
      <trkpt lat="42.8191550" lon="0.0101050">
        <ele>894.8</ele>
        <time>2020-07-26T09:29:29Z</time>
      </trkpt>
      <trkpt lat="42.8190910" lon="0.0101140">
        <ele>895.0</ele>
        <time>2020-07-26T09:29:30Z</time>
      </trkpt>
      <trkpt lat="42.8190270" lon="0.0101130">
        <ele>895.0</ele>
        <time>2020-07-26T09:29:31Z</time>
      </trkpt>
      <trkpt lat="42.8189000" lon="0.0101010">
        <ele>895.0</ele>
        <time>2020-07-26T09:29:33Z</time>
      </trkpt>
      <trkpt lat="42.8187750" lon="0.0100780">
        <ele>895.4</ele>
        <time>2020-07-26T09:29:35Z</time>
      </trkpt>
      <trkpt lat="42.8187130" lon="0.0100610">
        <ele>895.6</ele>
        <time>2020-07-26T09:29:36Z</time>
      </trkpt>
      <trkpt lat="42.8186510" lon="0.0100410">
        <ele>895.8</ele>
        <time>2020-07-26T09:29:37Z</time>
      </trkpt>
      <trkpt lat="42.8184170" lon="0.0099390">
        <ele>896.2</ele>
        <time>2020-07-26T09:29:41Z</time>
      </trkpt>
      <trkpt lat="42.8183540" lon="0.0099060">
        <ele>896.0</ele>
        <time>2020-07-26T09:29:42Z</time>
      </trkpt>
      <trkpt lat="42.8179710" lon="0.0097440">
        <ele>895.4</ele>
        <time>2020-07-26T09:29:48Z</time>
      </trkpt>
      <trkpt lat="42.8178380" lon="0.0097090">
        <ele>895.4</ele>
        <time>2020-07-26T09:29:50Z</time>
      </trkpt>
      <trkpt lat="42.8174340" lon="0.0096110">
        <ele>896.2</ele>
        <time>2020-07-26T09:29:56Z</time>
      </trkpt>
      <trkpt lat="42.8173700" lon="0.0095870">
        <ele>896.2</ele>
        <time>2020-07-26T09:29:57Z</time>
      </trkpt>
      <trkpt lat="42.8172460" lon="0.0095250">
        <ele>896.4</ele>
        <time>2020-07-26T09:29:59Z</time>
      </trkpt>
      <trkpt lat="42.8170630" lon="0.0094000">
        <ele>896.8</ele>
        <time>2020-07-26T09:30:02Z</time>
      </trkpt>
      <trkpt lat="42.8168810" lon="0.0092560">
        <ele>897.2</ele>
        <time>2020-07-26T09:30:05Z</time>
      </trkpt>
      <trkpt lat="42.8168220" lon="0.0092080">
        <ele>897.4</ele>
        <time>2020-07-26T09:30:06Z</time>
      </trkpt>
      <trkpt lat="42.8167640" lon="0.0091620">
        <ele>897.4</ele>
        <time>2020-07-26T09:30:07Z</time>
      </trkpt>
      <trkpt lat="42.8166510" lon="0.0090700">
        <ele>897.6</ele>
        <time>2020-07-26T09:30:09Z</time>
      </trkpt>
      <trkpt lat="42.8165370" lon="0.0089840">
        <ele>897.8</ele>
        <time>2020-07-26T09:30:11Z</time>
      </trkpt>
      <trkpt lat="42.8161710" lon="0.0087120">
        <ele>898.0</ele>
        <time>2020-07-26T09:30:17Z</time>
      </trkpt>
      <trkpt lat="42.8159740" lon="0.0085950">
        <ele>898.0</ele>
        <time>2020-07-26T09:30:20Z</time>
      </trkpt>
      <trkpt lat="42.8156350" lon="0.0085240">
        <ele>898.0</ele>
        <time>2020-07-26T09:30:25Z</time>
      </trkpt>
      <trkpt lat="42.8153730" lon="0.0085080">
        <ele>898.6</ele>
        <time>2020-07-26T09:30:29Z</time>
      </trkpt>
      <trkpt lat="42.8151220" lon="0.0084860">
        <ele>899.2</ele>
        <time>2020-07-26T09:30:33Z</time>
      </trkpt>
      <trkpt lat="42.8150020" lon="0.0084710">
        <ele>899.4</ele>
        <time>2020-07-26T09:30:35Z</time>
      </trkpt>
      <trkpt lat="42.8148840" lon="0.0084420">
        <ele>899.6</ele>
        <time>2020-07-26T09:30:37Z</time>
      </trkpt>
      <trkpt lat="42.8147700" lon="0.0083940">
        <ele>900.2</ele>
        <time>2020-07-26T09:30:39Z</time>
      </trkpt>
      <trkpt lat="42.8147190" lon="0.0083620">
        <ele>900.4</ele>
        <time>2020-07-26T09:30:40Z</time>
      </trkpt>
      <trkpt lat="42.8146700" lon="0.0083250">
        <ele>900.8</ele>
        <time>2020-07-26T09:30:41Z</time>
      </trkpt>
      <trkpt lat="42.8146220" lon="0.0082860">
        <ele>900.8</ele>
        <time>2020-07-26T09:30:42Z</time>
      </trkpt>
      <trkpt lat="42.8144780" lon="0.0081780">
        <ele>901.2</ele>
        <time>2020-07-26T09:30:45Z</time>
      </trkpt>
      <trkpt lat="42.8143790" lon="0.0081090">
        <ele>901.8</ele>
        <time>2020-07-26T09:30:47Z</time>
      </trkpt>
      <trkpt lat="42.8142790" lon="0.0080610">
        <ele>902.2</ele>
        <time>2020-07-26T09:30:49Z</time>
      </trkpt>
      <trkpt lat="42.8141070" lon="0.0080360">
        <ele>902.4</ele>
        <time>2020-07-26T09:30:52Z</time>
      </trkpt>
      <trkpt lat="42.8140470" lon="0.0080380">
        <ele>902.6</ele>
        <time>2020-07-26T09:30:53Z</time>
      </trkpt>
      <trkpt lat="42.8137340" lon="0.0080330">
        <ele>902.2</ele>
        <time>2020-07-26T09:30:58Z</time>
      </trkpt>
      <trkpt lat="42.8133490" lon="0.0079750">
        <ele>902.6</ele>
        <time>2020-07-26T09:31:04Z</time>
      </trkpt>
      <trkpt lat="42.8132830" lon="0.0079600">
        <ele>902.8</ele>
        <time>2020-07-26T09:31:05Z</time>
      </trkpt>
      <trkpt lat="42.8128820" lon="0.0079270">
        <ele>902.8</ele>
        <time>2020-07-26T09:31:11Z</time>
      </trkpt>
      <trkpt lat="42.8128150" lon="0.0079270">
        <ele>902.8</ele>
        <time>2020-07-26T09:31:12Z</time>
      </trkpt>
      <trkpt lat="42.8126750" lon="0.0079410">
        <ele>903.0</ele>
        <time>2020-07-26T09:31:14Z</time>
      </trkpt>
      <trkpt lat="42.8122820" lon="0.0079530">
        <ele>903.8</ele>
        <time>2020-07-26T09:31:19Z</time>
      </trkpt>
      <trkpt lat="42.8121410" lon="0.0079710">
        <ele>904.0</ele>
        <time>2020-07-26T09:31:21Z</time>
      </trkpt>
      <trkpt lat="42.8118010" lon="0.0080250">
        <ele>904.0</ele>
        <time>2020-07-26T09:31:26Z</time>
      </trkpt>
      <trkpt lat="42.8114100" lon="0.0080880">
        <ele>905.0</ele>
        <time>2020-07-26T09:31:32Z</time>
      </trkpt>
      <trkpt lat="42.8112130" lon="0.0081150">
        <ele>905.4</ele>
        <time>2020-07-26T09:31:35Z</time>
      </trkpt>
      <trkpt lat="42.8110860" lon="0.0081430">
        <ele>906.0</ele>
        <time>2020-07-26T09:31:37Z</time>
      </trkpt>
      <trkpt lat="42.8110240" lon="0.0081550">
        <ele>906.2</ele>
        <time>2020-07-26T09:31:38Z</time>
      </trkpt>
      <trkpt lat="42.8109010" lon="0.0081740">
        <ele>906.6</ele>
        <time>2020-07-26T09:31:40Z</time>
      </trkpt>
      <trkpt lat="42.8108440" lon="0.0081870">
        <ele>906.6</ele>
        <time>2020-07-26T09:31:41Z</time>
      </trkpt>
      <trkpt lat="42.8106840" lon="0.0082260">
        <ele>907.6</ele>
        <time>2020-07-26T09:31:44Z</time>
      </trkpt>
      <trkpt lat="42.8105360" lon="0.0082650">
        <ele>908.6</ele>
        <time>2020-07-26T09:31:47Z</time>
      </trkpt>
      <trkpt lat="42.8104900" lon="0.0082790">
        <ele>908.8</ele>
        <time>2020-07-26T09:31:48Z</time>
      </trkpt>
      <trkpt lat="42.8104460" lon="0.0082960">
        <ele>909.2</ele>
        <time>2020-07-26T09:31:49Z</time>
      </trkpt>
      <trkpt lat="42.8103090" lon="0.0083690">
        <ele>909.6</ele>
        <time>2020-07-26T09:31:52Z</time>
      </trkpt>
      <trkpt lat="42.8101760" lon="0.0084530">
        <ele>910.2</ele>
        <time>2020-07-26T09:31:55Z</time>
      </trkpt>
      <trkpt lat="42.8101310" lon="0.0084800">
        <ele>910.4</ele>
        <time>2020-07-26T09:31:56Z</time>
      </trkpt>
      <trkpt lat="42.8100380" lon="0.0085320">
        <ele>910.8</ele>
        <time>2020-07-26T09:31:58Z</time>
      </trkpt>
      <trkpt lat="42.8098210" lon="0.0086660">
        <ele>912.0</ele>
        <time>2020-07-26T09:32:03Z</time>
      </trkpt>
      <trkpt lat="42.8097790" lon="0.0086950">
        <ele>912.4</ele>
        <time>2020-07-26T09:32:04Z</time>
      </trkpt>
      <trkpt lat="42.8097390" lon="0.0087240">
        <ele>912.8</ele>
        <time>2020-07-26T09:32:05Z</time>
      </trkpt>
      <trkpt lat="42.8096980" lon="0.0087520">
        <ele>913.2</ele>
        <time>2020-07-26T09:32:06Z</time>
      </trkpt>
      <trkpt lat="42.8096590" lon="0.0087800">
        <ele>913.4</ele>
        <time>2020-07-26T09:32:07Z</time>
      </trkpt>
      <trkpt lat="42.8095200" lon="0.0088950">
        <ele>914.4</ele>
        <time>2020-07-26T09:32:11Z</time>
      </trkpt>
      <trkpt lat="42.8094220" lon="0.0089850">
        <ele>915.4</ele>
        <time>2020-07-26T09:32:14Z</time>
      </trkpt>
      <trkpt lat="42.8092800" lon="0.0091030">
        <ele>916.2</ele>
        <time>2020-07-26T09:32:18Z</time>
      </trkpt>
      <trkpt lat="42.8092470" lon="0.0091370">
        <ele>916.4</ele>
        <time>2020-07-26T09:32:19Z</time>
      </trkpt>
      <trkpt lat="42.8090350" lon="0.0093670">
        <ele>917.2</ele>
        <time>2020-07-26T09:32:25Z</time>
      </trkpt>
      <trkpt lat="42.8089990" lon="0.0094090">
        <ele>917.4</ele>
        <time>2020-07-26T09:32:26Z</time>
      </trkpt>
      <trkpt lat="42.8089610" lon="0.0094530">
        <ele>917.6</ele>
        <time>2020-07-26T09:32:27Z</time>
      </trkpt>
      <trkpt lat="42.8087270" lon="0.0097170">
        <ele>918.0</ele>
        <time>2020-07-26T09:32:33Z</time>
      </trkpt>
      <trkpt lat="42.8086860" lon="0.0097550">
        <ele>918.0</ele>
        <time>2020-07-26T09:32:34Z</time>
      </trkpt>
      <trkpt lat="42.8084800" lon="0.0099230">
        <ele>918.8</ele>
        <time>2020-07-26T09:32:39Z</time>
      </trkpt>
      <trkpt lat="42.8083310" lon="0.0100180">
        <ele>919.0</ele>
        <time>2020-07-26T09:32:42Z</time>
      </trkpt>
      <trkpt lat="42.8081770" lon="0.0101100">
        <ele>918.8</ele>
        <time>2020-07-26T09:32:45Z</time>
      </trkpt>
      <trkpt lat="42.8079320" lon="0.0102740">
        <ele>918.8</ele>
        <time>2020-07-26T09:32:50Z</time>
      </trkpt>
      <trkpt lat="42.8077850" lon="0.0103970">
        <ele>918.8</ele>
        <time>2020-07-26T09:32:53Z</time>
      </trkpt>
      <trkpt lat="42.8076190" lon="0.0105190">
        <ele>918.8</ele>
        <time>2020-07-26T09:32:56Z</time>
      </trkpt>
      <trkpt lat="42.8075580" lon="0.0105560">
        <ele>918.8</ele>
        <time>2020-07-26T09:32:57Z</time>
      </trkpt>
      <trkpt lat="42.8072930" lon="0.0106680">
        <ele>919.2</ele>
        <time>2020-07-26T09:33:01Z</time>
      </trkpt>
      <trkpt lat="42.8072260" lon="0.0106990">
        <ele>919.4</ele>
        <time>2020-07-26T09:33:02Z</time>
      </trkpt>
      <trkpt lat="42.8070980" lon="0.0107700">
        <ele>919.8</ele>
        <time>2020-07-26T09:33:04Z</time>
      </trkpt>
      <trkpt lat="42.8069850" lon="0.0108650">
        <ele>920.2</ele>
        <time>2020-07-26T09:33:06Z</time>
      </trkpt>
      <trkpt lat="42.8068180" lon="0.0110070">
        <ele>920.6</ele>
        <time>2020-07-26T09:33:09Z</time>
      </trkpt>
      <trkpt lat="42.8067650" lon="0.0110570">
        <ele>921.2</ele>
        <time>2020-07-26T09:33:10Z</time>
      </trkpt>
      <trkpt lat="42.8064670" lon="0.0113530">
        <ele>921.8</ele>
        <time>2020-07-26T09:33:16Z</time>
      </trkpt>
      <trkpt lat="42.8063650" lon="0.0114480">
        <ele>922.0</ele>
        <time>2020-07-26T09:33:18Z</time>
      </trkpt>
      <trkpt lat="42.8062480" lon="0.0115330">
        <ele>922.4</ele>
        <time>2020-07-26T09:33:20Z</time>
      </trkpt>
      <trkpt lat="42.8059680" lon="0.0117470">
        <ele>923.0</ele>
        <time>2020-07-26T09:33:25Z</time>
      </trkpt>
      <trkpt lat="42.8058570" lon="0.0119540">
        <ele>923.0</ele>
        <time>2020-07-26T09:33:28Z</time>
      </trkpt>
      <trkpt lat="42.8058260" lon="0.0120330">
        <ele>923.0</ele>
        <time>2020-07-26T09:33:29Z</time>
      </trkpt>
      <trkpt lat="42.8056430" lon="0.0124170">
        <ele>922.8</ele>
        <time>2020-07-26T09:33:34Z</time>
      </trkpt>
      <trkpt lat="42.8055510" lon="0.0125470">
        <ele>922.8</ele>
        <time>2020-07-26T09:33:36Z</time>
      </trkpt>
      <trkpt lat="42.8052600" lon="0.0128850">
        <ele>922.8</ele>
        <time>2020-07-26T09:33:42Z</time>
      </trkpt>
      <trkpt lat="42.8049480" lon="0.0130920">
        <ele>923.2</ele>
        <time>2020-07-26T09:33:48Z</time>
      </trkpt>
      <trkpt lat="42.8048890" lon="0.0131200">
        <ele>923.4</ele>
        <time>2020-07-26T09:33:49Z</time>
      </trkpt>
      <trkpt lat="42.8045820" lon="0.0132190">
        <ele>923.6</ele>
        <time>2020-07-26T09:33:54Z</time>
      </trkpt>
      <trkpt lat="42.8045230" lon="0.0132460">
        <ele>923.8</ele>
        <time>2020-07-26T09:33:55Z</time>
      </trkpt>
      <trkpt lat="42.8041740" lon="0.0134400">
        <ele>924.0</ele>
        <time>2020-07-26T09:34:01Z</time>
      </trkpt>
      <trkpt lat="42.8041090" lon="0.0134690">
        <ele>924.0</ele>
        <time>2020-07-26T09:34:02Z</time>
      </trkpt>
      <trkpt lat="42.8036920" lon="0.0135770">
        <ele>923.8</ele>
        <time>2020-07-26T09:34:08Z</time>
      </trkpt>
      <trkpt lat="42.8035540" lon="0.0136000">
        <ele>923.8</ele>
        <time>2020-07-26T09:34:10Z</time>
      </trkpt>
      <trkpt lat="42.8033230" lon="0.0136420">
        <ele>924.4</ele>
        <time>2020-07-26T09:34:14Z</time>
      </trkpt>
      <trkpt lat="42.8031770" lon="0.0136010">
        <ele>924.6</ele>
        <time>2020-07-26T09:34:16Z</time>
      </trkpt>
      <trkpt lat="42.8027740" lon="0.0135440">
        <ele>925.2</ele>
        <time>2020-07-26T09:34:22Z</time>
      </trkpt>
      <trkpt lat="42.8026420" lon="0.0135380">
        <ele>925.2</ele>
        <time>2020-07-26T09:34:24Z</time>
      </trkpt>
      <trkpt lat="42.8025120" lon="0.0135180">
        <ele>925.4</ele>
        <time>2020-07-26T09:34:26Z</time>
      </trkpt>
      <trkpt lat="42.8020960" lon="0.0134440">
        <ele>925.8</ele>
        <time>2020-07-26T09:34:32Z</time>
      </trkpt>
      <trkpt lat="42.8020280" lon="0.0134350">
        <ele>925.8</ele>
        <time>2020-07-26T09:34:33Z</time>
      </trkpt>
      <trkpt lat="42.8016960" lon="0.0134400">
        <ele>926.4</ele>
        <time>2020-07-26T09:34:38Z</time>
      </trkpt>
      <trkpt lat="42.8016330" lon="0.0134460">
        <ele>926.6</ele>
        <time>2020-07-26T09:34:39Z</time>
      </trkpt>
      <trkpt lat="42.8012760" lon="0.0134960">
        <ele>927.6</ele>
        <time>2020-07-26T09:34:45Z</time>
      </trkpt>
      <trkpt lat="42.8011630" lon="0.0135090">
        <ele>928.4</ele>
        <time>2020-07-26T09:34:47Z</time>
      </trkpt>
      <trkpt lat="42.8011080" lon="0.0135140">
        <ele>928.6</ele>
        <time>2020-07-26T09:34:48Z</time>
      </trkpt>
      <trkpt lat="42.8010540" lon="0.0135170">
        <ele>929.0</ele>
        <time>2020-07-26T09:34:49Z</time>
      </trkpt>
      <trkpt lat="42.8009520" lon="0.0135270">
        <ele>929.8</ele>
        <time>2020-07-26T09:34:51Z</time>
      </trkpt>
      <trkpt lat="42.8008580" lon="0.0135380">
        <ele>930.6</ele>
        <time>2020-07-26T09:34:53Z</time>
      </trkpt>
      <trkpt lat="42.8008120" lon="0.0135400">
        <ele>930.8</ele>
        <time>2020-07-26T09:34:54Z</time>
      </trkpt>
      <trkpt lat="42.8007660" lon="0.0135490">
        <ele>931.2</ele>
        <time>2020-07-26T09:34:55Z</time>
      </trkpt>
      <trkpt lat="42.8007210" lon="0.0135630">
        <ele>931.6</ele>
        <time>2020-07-26T09:34:56Z</time>
      </trkpt>
      <trkpt lat="42.8006760" lon="0.0135810">
        <ele>931.8</ele>
        <time>2020-07-26T09:34:57Z</time>
      </trkpt>
      <trkpt lat="42.8005880" lon="0.0136250">
        <ele>932.0</ele>
        <time>2020-07-26T09:34:59Z</time>
      </trkpt>
      <trkpt lat="42.8005440" lon="0.0136530">
        <ele>932.4</ele>
        <time>2020-07-26T09:35:00Z</time>
      </trkpt>
      <trkpt lat="42.8004180" lon="0.0137530">
        <ele>933.2</ele>
        <time>2020-07-26T09:35:03Z</time>
      </trkpt>
      <trkpt lat="42.8003040" lon="0.0138620">
        <ele>933.6</ele>
        <time>2020-07-26T09:35:06Z</time>
      </trkpt>
      <trkpt lat="42.8002660" lon="0.0138970">
        <ele>933.8</ele>
        <time>2020-07-26T09:35:07Z</time>
      </trkpt>
      <trkpt lat="42.8002280" lon="0.0139340">
        <ele>934.2</ele>
        <time>2020-07-26T09:35:08Z</time>
      </trkpt>
      <trkpt lat="42.8001190" lon="0.0140490">
        <ele>935.0</ele>
        <time>2020-07-26T09:35:11Z</time>
      </trkpt>
      <trkpt lat="42.8000530" lon="0.0141260">
        <ele>935.2</ele>
        <time>2020-07-26T09:35:13Z</time>
      </trkpt>
      <trkpt lat="42.7999880" lon="0.0142020">
        <ele>935.8</ele>
        <time>2020-07-26T09:35:15Z</time>
      </trkpt>
      <trkpt lat="42.7999270" lon="0.0142790">
        <ele>936.6</ele>
        <time>2020-07-26T09:35:17Z</time>
      </trkpt>
      <trkpt lat="42.7997280" lon="0.0144880">
        <ele>937.6</ele>
        <time>2020-07-26T09:35:23Z</time>
      </trkpt>
      <trkpt lat="42.7996970" lon="0.0145220">
        <ele>937.6</ele>
        <time>2020-07-26T09:35:24Z</time>
      </trkpt>
      <trkpt lat="42.7995740" lon="0.0146650">
        <ele>939.0</ele>
        <time>2020-07-26T09:35:28Z</time>
      </trkpt>
      <trkpt lat="42.7994830" lon="0.0147850">
        <ele>939.8</ele>
        <time>2020-07-26T09:35:31Z</time>
      </trkpt>
      <trkpt lat="42.7994540" lon="0.0148230">
        <ele>940.0</ele>
        <time>2020-07-26T09:35:32Z</time>
      </trkpt>
      <trkpt lat="42.7993950" lon="0.0148980">
        <ele>940.4</ele>
        <time>2020-07-26T09:35:34Z</time>
      </trkpt>
      <trkpt lat="42.7993070" lon="0.0150050">
        <ele>941.2</ele>
        <time>2020-07-26T09:35:37Z</time>
      </trkpt>
      <trkpt lat="42.7992540" lon="0.0150740">
        <ele>941.6</ele>
        <time>2020-07-26T09:35:39Z</time>
      </trkpt>
      <trkpt lat="42.7992030" lon="0.0151400">
        <ele>942.4</ele>
        <time>2020-07-26T09:35:41Z</time>
      </trkpt>
      <trkpt lat="42.7991160" lon="0.0152310">
        <ele>943.0</ele>
        <time>2020-07-26T09:35:44Z</time>
      </trkpt>
      <trkpt lat="42.7990570" lon="0.0152850">
        <ele>943.6</ele>
        <time>2020-07-26T09:35:46Z</time>
      </trkpt>
      <trkpt lat="42.7990040" lon="0.0153420">
        <ele>944.4</ele>
        <time>2020-07-26T09:35:48Z</time>
      </trkpt>
      <trkpt lat="42.7989590" lon="0.0154110">
        <ele>944.8</ele>
        <time>2020-07-26T09:35:50Z</time>
      </trkpt>
      <trkpt lat="42.7988560" lon="0.0155620">
        <ele>945.6</ele>
        <time>2020-07-26T09:35:54Z</time>
      </trkpt>
      <trkpt lat="42.7988050" lon="0.0156350">
        <ele>946.0</ele>
        <time>2020-07-26T09:35:56Z</time>
      </trkpt>
      <trkpt lat="42.7987340" lon="0.0157410">
        <ele>947.2</ele>
        <time>2020-07-26T09:35:59Z</time>
      </trkpt>
      <trkpt lat="42.7986840" lon="0.0158130">
        <ele>947.6</ele>
        <time>2020-07-26T09:36:01Z</time>
      </trkpt>
      <trkpt lat="42.7986310" lon="0.0158850">
        <ele>948.0</ele>
        <time>2020-07-26T09:36:03Z</time>
      </trkpt>
      <trkpt lat="42.7985800" lon="0.0159560">
        <ele>948.2</ele>
        <time>2020-07-26T09:36:05Z</time>
      </trkpt>
      <trkpt lat="42.7985250" lon="0.0160210">
        <ele>948.8</ele>
        <time>2020-07-26T09:36:07Z</time>
      </trkpt>
      <trkpt lat="42.7984940" lon="0.0160510">
        <ele>948.8</ele>
        <time>2020-07-26T09:36:08Z</time>
      </trkpt>
      <trkpt lat="42.7984250" lon="0.0160970">
        <ele>949.4</ele>
        <time>2020-07-26T09:36:10Z</time>
      </trkpt>
      <trkpt lat="42.7983640" lon="0.0161440">
        <ele>950.0</ele>
        <time>2020-07-26T09:36:12Z</time>
      </trkpt>
      <trkpt lat="42.7983020" lon="0.0161910">
        <ele>950.6</ele>
        <time>2020-07-26T09:36:14Z</time>
      </trkpt>
      <trkpt lat="42.7981710" lon="0.0162780">
        <ele>951.8</ele>
        <time>2020-07-26T09:36:18Z</time>
      </trkpt>
      <trkpt lat="42.7981160" lon="0.0163130">
        <ele>952.2</ele>
        <time>2020-07-26T09:36:20Z</time>
      </trkpt>
      <trkpt lat="42.7980300" lon="0.0163610">
        <ele>953.0</ele>
        <time>2020-07-26T09:36:23Z</time>
      </trkpt>
      <trkpt lat="42.7979280" lon="0.0164350">
        <ele>953.8</ele>
        <time>2020-07-26T09:36:26Z</time>
      </trkpt>
      <trkpt lat="42.7978650" lon="0.0164900">
        <ele>954.2</ele>
        <time>2020-07-26T09:36:28Z</time>
      </trkpt>
      <trkpt lat="42.7977520" lon="0.0165400">
        <ele>954.6</ele>
        <time>2020-07-26T09:36:31Z</time>
      </trkpt>
      <trkpt lat="42.7976610" lon="0.0165520">
        <ele>955.0</ele>
        <time>2020-07-26T09:36:33Z</time>
      </trkpt>
      <trkpt lat="42.7976140" lon="0.0165520">
        <ele>955.4</ele>
        <time>2020-07-26T09:36:34Z</time>
      </trkpt>
      <trkpt lat="42.7974070" lon="0.0166080">
        <ele>956.6</ele>
        <time>2020-07-26T09:36:40Z</time>
      </trkpt>
      <trkpt lat="42.7973710" lon="0.0166080">
        <ele>957.0</ele>
        <time>2020-07-26T09:36:41Z</time>
      </trkpt>
      <trkpt lat="42.7972880" lon="0.0165860">
        <ele>957.4</ele>
        <time>2020-07-26T09:36:43Z</time>
      </trkpt>
      <trkpt lat="42.7971870" lon="0.0165210">
        <ele>957.8</ele>
        <time>2020-07-26T09:36:45Z</time>
      </trkpt>
      <trkpt lat="42.7971410" lon="0.0164840">
        <ele>957.8</ele>
        <time>2020-07-26T09:36:46Z</time>
      </trkpt>
      <trkpt lat="42.7969040" lon="0.0162530">
        <ele>958.6</ele>
        <time>2020-07-26T09:36:52Z</time>
      </trkpt>
      <trkpt lat="42.7968640" lon="0.0162080">
        <ele>958.8</ele>
        <time>2020-07-26T09:36:53Z</time>
      </trkpt>
      <trkpt lat="42.7967150" lon="0.0160340">
        <ele>959.8</ele>
        <time>2020-07-26T09:36:57Z</time>
      </trkpt>
      <trkpt lat="42.7965860" lon="0.0158330">
        <ele>960.4</ele>
        <time>2020-07-26T09:37:01Z</time>
      </trkpt>
      <trkpt lat="42.7965250" lon="0.0157330">
        <ele>961.0</ele>
        <time>2020-07-26T09:37:03Z</time>
      </trkpt>
      <trkpt lat="42.7963710" lon="0.0155700">
        <ele>962.0</ele>
        <time>2020-07-26T09:37:07Z</time>
      </trkpt>
      <trkpt lat="42.7962690" lon="0.0155400">
        <ele>962.6</ele>
        <time>2020-07-26T09:37:09Z</time>
      </trkpt>
      <trkpt lat="42.7962190" lon="0.0155470">
        <ele>963.0</ele>
        <time>2020-07-26T09:37:10Z</time>
      </trkpt>
      <trkpt lat="42.7961710" lon="0.0155660">
        <ele>963.0</ele>
        <time>2020-07-26T09:37:11Z</time>
      </trkpt>
      <trkpt lat="42.7961240" lon="0.0155920">
        <ele>963.0</ele>
        <time>2020-07-26T09:37:12Z</time>
      </trkpt>
      <trkpt lat="42.7960380" lon="0.0156520">
        <ele>963.4</ele>
        <time>2020-07-26T09:37:14Z</time>
      </trkpt>
      <trkpt lat="42.7959990" lon="0.0156880">
        <ele>963.4</ele>
        <time>2020-07-26T09:37:15Z</time>
      </trkpt>
      <trkpt lat="42.7959650" lon="0.0157290">
        <ele>963.6</ele>
        <time>2020-07-26T09:37:16Z</time>
      </trkpt>
      <trkpt lat="42.7959110" lon="0.0158310">
        <ele>964.0</ele>
        <time>2020-07-26T09:37:18Z</time>
      </trkpt>
      <trkpt lat="42.7958880" lon="0.0158900">
        <ele>964.4</ele>
        <time>2020-07-26T09:37:19Z</time>
      </trkpt>
      <trkpt lat="42.7958670" lon="0.0159510">
        <ele>964.6</ele>
        <time>2020-07-26T09:37:20Z</time>
      </trkpt>
      <trkpt lat="42.7958490" lon="0.0160170">
        <ele>964.8</ele>
        <time>2020-07-26T09:37:21Z</time>
      </trkpt>
      <trkpt lat="42.7958370" lon="0.0161590">
        <ele>965.0</ele>
        <time>2020-07-26T09:37:23Z</time>
      </trkpt>
      <trkpt lat="42.7958380" lon="0.0162340">
        <ele>965.0</ele>
        <time>2020-07-26T09:37:24Z</time>
      </trkpt>
      <trkpt lat="42.7959000" lon="0.0166940">
        <ele>965.0</ele>
        <time>2020-07-26T09:37:30Z</time>
      </trkpt>
      <trkpt lat="42.7959650" lon="0.0169980">
        <ele>965.4</ele>
        <time>2020-07-26T09:37:34Z</time>
      </trkpt>
      <trkpt lat="42.7959670" lon="0.0170780">
        <ele>965.4</ele>
        <time>2020-07-26T09:37:35Z</time>
      </trkpt>
      <trkpt lat="42.7959590" lon="0.0171590">
        <ele>965.6</ele>
        <time>2020-07-26T09:37:36Z</time>
      </trkpt>
      <trkpt lat="42.7958900" lon="0.0174810">
        <ele>965.6</ele>
        <time>2020-07-26T09:37:40Z</time>
      </trkpt>
      <trkpt lat="42.7958250" lon="0.0176230">
        <ele>965.6</ele>
        <time>2020-07-26T09:37:42Z</time>
      </trkpt>
      <trkpt lat="42.7956580" lon="0.0178660">
        <ele>965.6</ele>
        <time>2020-07-26T09:37:46Z</time>
      </trkpt>
      <trkpt lat="42.7956090" lon="0.0179170">
        <ele>965.4</ele>
        <time>2020-07-26T09:37:47Z</time>
      </trkpt>
      <trkpt lat="42.7955560" lon="0.0179610">
        <ele>965.4</ele>
        <time>2020-07-26T09:37:48Z</time>
      </trkpt>
      <trkpt lat="42.7953830" lon="0.0180550">
        <ele>965.4</ele>
        <time>2020-07-26T09:37:51Z</time>
      </trkpt>
      <trkpt lat="42.7952640" lon="0.0180710">
        <ele>965.4</ele>
        <time>2020-07-26T09:37:53Z</time>
      </trkpt>
      <trkpt lat="42.7951300" lon="0.0180540">
        <ele>965.2</ele>
        <time>2020-07-26T09:37:55Z</time>
      </trkpt>
      <trkpt lat="42.7947630" lon="0.0180050">
        <ele>966.2</ele>
        <time>2020-07-26T09:38:01Z</time>
      </trkpt>
      <trkpt lat="42.7947060" lon="0.0180110">
        <ele>966.4</ele>
        <time>2020-07-26T09:38:02Z</time>
      </trkpt>
      <trkpt lat="42.7946520" lon="0.0180360">
        <ele>966.4</ele>
        <time>2020-07-26T09:38:03Z</time>
      </trkpt>
      <trkpt lat="42.7946010" lon="0.0180750">
        <ele>966.6</ele>
        <time>2020-07-26T09:38:04Z</time>
      </trkpt>
      <trkpt lat="42.7945550" lon="0.0181250">
        <ele>966.6</ele>
        <time>2020-07-26T09:38:05Z</time>
      </trkpt>
      <trkpt lat="42.7945150" lon="0.0181830">
        <ele>966.6</ele>
        <time>2020-07-26T09:38:06Z</time>
      </trkpt>
      <trkpt lat="42.7944790" lon="0.0182520">
        <ele>966.6</ele>
        <time>2020-07-26T09:38:07Z</time>
      </trkpt>
      <trkpt lat="42.7944100" lon="0.0183950">
        <ele>966.8</ele>
        <time>2020-07-26T09:38:09Z</time>
      </trkpt>
      <trkpt lat="42.7942930" lon="0.0186120">
        <ele>966.8</ele>
        <time>2020-07-26T09:38:12Z</time>
      </trkpt>
      <trkpt lat="42.7941600" lon="0.0188010">
        <ele>966.6</ele>
        <time>2020-07-26T09:38:15Z</time>
      </trkpt>
      <trkpt lat="42.7941130" lon="0.0188510">
        <ele>966.4</ele>
        <time>2020-07-26T09:38:16Z</time>
      </trkpt>
      <trkpt lat="42.7940600" lon="0.0188880">
        <ele>966.4</ele>
        <time>2020-07-26T09:38:17Z</time>
      </trkpt>
      <trkpt lat="42.7938370" lon="0.0190230">
        <ele>967.0</ele>
        <time>2020-07-26T09:38:21Z</time>
      </trkpt>
      <trkpt lat="42.7935300" lon="0.0191610">
        <ele>967.4</ele>
        <time>2020-07-26T09:38:26Z</time>
      </trkpt>
      <trkpt lat="42.7933070" lon="0.0191850">
        <ele>967.4</ele>
        <time>2020-07-26T09:38:29Z</time>
      </trkpt>
      <trkpt lat="42.7929350" lon="0.0192510">
        <ele>968.2</ele>
        <time>2020-07-26T09:38:35Z</time>
      </trkpt>
      <trkpt lat="42.7928680" lon="0.0192390">
        <ele>968.4</ele>
        <time>2020-07-26T09:38:36Z</time>
      </trkpt>
      <trkpt lat="42.7927350" lon="0.0191990">
        <ele>968.4</ele>
        <time>2020-07-26T09:38:38Z</time>
      </trkpt>
      <trkpt lat="42.7926690" lon="0.0191730">
        <ele>968.4</ele>
        <time>2020-07-26T09:38:39Z</time>
      </trkpt>
      <trkpt lat="42.7924700" lon="0.0190690">
        <ele>968.6</ele>
        <time>2020-07-26T09:38:42Z</time>
      </trkpt>
      <trkpt lat="42.7923450" lon="0.0189800">
        <ele>968.8</ele>
        <time>2020-07-26T09:38:44Z</time>
      </trkpt>
      <trkpt lat="42.7919830" lon="0.0187160">
        <ele>969.8</ele>
        <time>2020-07-26T09:38:50Z</time>
      </trkpt>
      <trkpt lat="42.7918250" lon="0.0185820">
        <ele>970.2</ele>
        <time>2020-07-26T09:38:53Z</time>
      </trkpt>
      <trkpt lat="42.7916840" lon="0.0183580">
        <ele>971.0</ele>
        <time>2020-07-26T09:38:57Z</time>
      </trkpt>
      <trkpt lat="42.7916560" lon="0.0183070">
        <ele>971.6</ele>
        <time>2020-07-26T09:38:58Z</time>
      </trkpt>
      <trkpt lat="42.7916040" lon="0.0182080">
        <ele>972.2</ele>
        <time>2020-07-26T09:39:00Z</time>
      </trkpt>
      <trkpt lat="42.7915260" lon="0.0180650">
        <ele>973.6</ele>
        <time>2020-07-26T09:39:03Z</time>
      </trkpt>
      <trkpt lat="42.7914680" lon="0.0179800">
        <ele>974.4</ele>
        <time>2020-07-26T09:39:05Z</time>
      </trkpt>
      <trkpt lat="42.7914360" lon="0.0179420">
        <ele>974.6</ele>
        <time>2020-07-26T09:39:06Z</time>
      </trkpt>
      <trkpt lat="42.7912930" lon="0.0178160">
        <ele>975.8</ele>
        <time>2020-07-26T09:39:10Z</time>
      </trkpt>
      <trkpt lat="42.7912580" lon="0.0177920">
        <ele>975.8</ele>
        <time>2020-07-26T09:39:11Z</time>
      </trkpt>
      <trkpt lat="42.7910620" lon="0.0176920">
        <ele>976.8</ele>
        <time>2020-07-26T09:39:16Z</time>
      </trkpt>
      <trkpt lat="42.7909760" lon="0.0176780">
        <ele>977.2</ele>
        <time>2020-07-26T09:39:18Z</time>
      </trkpt>
      <trkpt lat="42.7907940" lon="0.0176750">
        <ele>977.6</ele>
        <time>2020-07-26T09:39:22Z</time>
      </trkpt>
      <trkpt lat="42.7906980" lon="0.0176940">
        <ele>978.0</ele>
        <time>2020-07-26T09:39:24Z</time>
      </trkpt>
      <trkpt lat="42.7906460" lon="0.0177150">
        <ele>978.4</ele>
        <time>2020-07-26T09:39:25Z</time>
      </trkpt>
      <trkpt lat="42.7905490" lon="0.0177670">
        <ele>978.6</ele>
        <time>2020-07-26T09:39:27Z</time>
      </trkpt>
      <trkpt lat="42.7904160" lon="0.0178690">
        <ele>978.8</ele>
        <time>2020-07-26T09:39:30Z</time>
      </trkpt>
      <trkpt lat="42.7903800" lon="0.0179130">
        <ele>978.8</ele>
        <time>2020-07-26T09:39:31Z</time>
      </trkpt>
      <trkpt lat="42.7901320" lon="0.0181640">
        <ele>978.8</ele>
        <time>2020-07-26T09:39:37Z</time>
      </trkpt>
      <trkpt lat="42.7900940" lon="0.0182120">
        <ele>979.0</ele>
        <time>2020-07-26T09:39:38Z</time>
      </trkpt>
      <trkpt lat="42.7900530" lon="0.0182630">
        <ele>979.2</ele>
        <time>2020-07-26T09:39:39Z</time>
      </trkpt>
      <trkpt lat="42.7898380" lon="0.0186120">
        <ele>979.6</ele>
        <time>2020-07-26T09:39:45Z</time>
      </trkpt>
      <trkpt lat="42.7898070" lon="0.0186770">
        <ele>979.8</ele>
        <time>2020-07-26T09:39:46Z</time>
      </trkpt>
      <trkpt lat="42.7896790" lon="0.0189390">
        <ele>980.2</ele>
        <time>2020-07-26T09:39:50Z</time>
      </trkpt>
      <trkpt lat="42.7895590" lon="0.0191160">
        <ele>980.4</ele>
        <time>2020-07-26T09:39:53Z</time>
      </trkpt>
      <trkpt lat="42.7893230" lon="0.0193250">
        <ele>980.2</ele>
        <time>2020-07-26T09:39:58Z</time>
      </trkpt>
      <trkpt lat="42.7892730" lon="0.0193500">
        <ele>980.0</ele>
        <time>2020-07-26T09:39:59Z</time>
      </trkpt>
      <trkpt lat="42.7889800" lon="0.0194950">
        <ele>979.8</ele>
        <time>2020-07-26T09:40:05Z</time>
      </trkpt>
      <trkpt lat="42.7889300" lon="0.0195190">
        <ele>979.6</ele>
        <time>2020-07-26T09:40:06Z</time>
      </trkpt>
      <trkpt lat="42.7887720" lon="0.0195940">
        <ele>979.0</ele>
        <time>2020-07-26T09:40:09Z</time>
      </trkpt>
      <trkpt lat="42.7886580" lon="0.0196010">
        <ele>978.6</ele>
        <time>2020-07-26T09:40:11Z</time>
      </trkpt>
      <trkpt lat="42.7886020" lon="0.0195870">
        <ele>978.6</ele>
        <time>2020-07-26T09:40:12Z</time>
      </trkpt>
      <trkpt lat="42.7884970" lon="0.0195460">
        <ele>978.4</ele>
        <time>2020-07-26T09:40:14Z</time>
      </trkpt>
      <trkpt lat="42.7883660" lon="0.0194860">
        <ele>978.4</ele>
        <time>2020-07-26T09:40:17Z</time>
      </trkpt>
      <trkpt lat="42.7882800" lon="0.0194480">
        <ele>978.4</ele>
        <time>2020-07-26T09:40:19Z</time>
      </trkpt>
      <trkpt lat="42.7881910" lon="0.0194480">
        <ele>978.6</ele>
        <time>2020-07-26T09:40:21Z</time>
      </trkpt>
      <trkpt lat="42.7881510" lon="0.0194550">
        <ele>978.6</ele>
        <time>2020-07-26T09:40:22Z</time>
      </trkpt>
      <trkpt lat="42.7881160" lon="0.0194730">
        <ele>978.6</ele>
        <time>2020-07-26T09:40:23Z</time>
      </trkpt>
      <trkpt lat="42.7880880" lon="0.0194970">
        <ele>979.0</ele>
        <time>2020-07-26T09:40:24Z</time>
      </trkpt>
      <trkpt lat="42.7880190" lon="0.0195430">
        <ele>979.8</ele>
        <time>2020-07-26T09:40:26Z</time>
      </trkpt>
      <trkpt lat="42.7879890" lon="0.0195640">
        <ele>980.0</ele>
        <time>2020-07-26T09:40:27Z</time>
      </trkpt>
      <trkpt lat="42.7878930" lon="0.0196250">
        <ele>981.0</ele>
        <time>2020-07-26T09:40:30Z</time>
      </trkpt>
      <trkpt lat="42.7878000" lon="0.0196780">
        <ele>982.0</ele>
        <time>2020-07-26T09:40:33Z</time>
      </trkpt>
      <trkpt lat="42.7877670" lon="0.0196950">
        <ele>982.4</ele>
        <time>2020-07-26T09:40:34Z</time>
      </trkpt>
      <trkpt lat="42.7875850" lon="0.0198290">
        <ele>983.2</ele>
        <time>2020-07-26T09:40:40Z</time>
      </trkpt>
      <trkpt lat="42.7875560" lon="0.0198630">
        <ele>983.6</ele>
        <time>2020-07-26T09:40:41Z</time>
      </trkpt>
      <trkpt lat="42.7874820" lon="0.0199890">
        <ele>984.6</ele>
        <time>2020-07-26T09:40:44Z</time>
      </trkpt>
      <trkpt lat="42.7874430" lon="0.0200890">
        <ele>985.0</ele>
        <time>2020-07-26T09:40:46Z</time>
      </trkpt>
      <trkpt lat="42.7873900" lon="0.0202340">
        <ele>985.4</ele>
        <time>2020-07-26T09:40:49Z</time>
      </trkpt>
      <trkpt lat="42.7873560" lon="0.0203330">
        <ele>985.8</ele>
        <time>2020-07-26T09:40:51Z</time>
      </trkpt>
      <trkpt lat="42.7873180" lon="0.0204940">
        <ele>986.2</ele>
        <time>2020-07-26T09:40:54Z</time>
      </trkpt>
      <trkpt lat="42.7872900" lon="0.0206500">
        <ele>987.0</ele>
        <time>2020-07-26T09:40:57Z</time>
      </trkpt>
      <trkpt lat="42.7872220" lon="0.0209480">
        <ele>988.2</ele>
        <time>2020-07-26T09:41:03Z</time>
      </trkpt>
      <trkpt lat="42.7872020" lon="0.0209940">
        <ele>988.4</ele>
        <time>2020-07-26T09:41:04Z</time>
      </trkpt>
      <trkpt lat="42.7870490" lon="0.0212380">
        <ele>989.2</ele>
        <time>2020-07-26T09:41:10Z</time>
      </trkpt>
      <trkpt lat="42.7870200" lon="0.0212760">
        <ele>989.2</ele>
        <time>2020-07-26T09:41:11Z</time>
      </trkpt>
      <trkpt lat="42.7869460" lon="0.0213240">
        <ele>989.2</ele>
        <time>2020-07-26T09:41:13Z</time>
      </trkpt>
      <trkpt lat="42.7868670" lon="0.0213190">
        <ele>989.0</ele>
        <time>2020-07-26T09:41:15Z</time>
      </trkpt>
      <trkpt lat="42.7867750" lon="0.0212540">
        <ele>988.8</ele>
        <time>2020-07-26T09:41:17Z</time>
      </trkpt>
      <trkpt lat="42.7866980" lon="0.0211610">
        <ele>988.6</ele>
        <time>2020-07-26T09:41:19Z</time>
      </trkpt>
      <trkpt lat="42.7865290" lon="0.0208410">
        <ele>989.0</ele>
        <time>2020-07-26T09:41:25Z</time>
      </trkpt>
      <trkpt lat="42.7865070" lon="0.0207840">
        <ele>989.4</ele>
        <time>2020-07-26T09:41:26Z</time>
      </trkpt>
      <trkpt lat="42.7864390" lon="0.0206220">
        <ele>990.4</ele>
        <time>2020-07-26T09:41:29Z</time>
      </trkpt>
      <trkpt lat="42.7864120" lon="0.0205740">
        <ele>990.6</ele>
        <time>2020-07-26T09:41:30Z</time>
      </trkpt>
      <trkpt lat="42.7863220" lon="0.0204430">
        <ele>991.6</ele>
        <time>2020-07-26T09:41:33Z</time>
      </trkpt>
      <trkpt lat="42.7861860" lon="0.0202980">
        <ele>992.6</ele>
        <time>2020-07-26T09:41:37Z</time>
      </trkpt>
      <trkpt lat="42.7861500" lon="0.0202710">
        <ele>992.8</ele>
        <time>2020-07-26T09:41:38Z</time>
      </trkpt>
      <trkpt lat="42.7860360" lon="0.0202120">
        <ele>993.4</ele>
        <time>2020-07-26T09:41:41Z</time>
      </trkpt>
      <trkpt lat="42.7859260" lon="0.0201740">
        <ele>994.0</ele>
        <time>2020-07-26T09:41:44Z</time>
      </trkpt>
      <trkpt lat="42.7858880" lon="0.0201660">
        <ele>994.2</ele>
        <time>2020-07-26T09:41:45Z</time>
      </trkpt>
      <trkpt lat="42.7858170" lon="0.0201590">
        <ele>994.8</ele>
        <time>2020-07-26T09:41:47Z</time>
      </trkpt>
      <trkpt lat="42.7857790" lon="0.0201600">
        <ele>995.2</ele>
        <time>2020-07-26T09:41:48Z</time>
      </trkpt>
      <trkpt lat="42.7857410" lon="0.0201590">
        <ele>995.4</ele>
        <time>2020-07-26T09:41:49Z</time>
      </trkpt>
      <trkpt lat="42.7855810" lon="0.0201670">
        <ele>996.0</ele>
        <time>2020-07-26T09:41:53Z</time>
      </trkpt>
      <trkpt lat="42.7855410" lon="0.0201720">
        <ele>996.2</ele>
        <time>2020-07-26T09:41:54Z</time>
      </trkpt>
      <trkpt lat="42.7854280" lon="0.0201990">
        <ele>997.2</ele>
        <time>2020-07-26T09:41:57Z</time>
      </trkpt>
      <trkpt lat="42.7853540" lon="0.0202130">
        <ele>997.6</ele>
        <time>2020-07-26T09:41:59Z</time>
      </trkpt>
      <trkpt lat="42.7852820" lon="0.0202250">
        <ele>998.2</ele>
        <time>2020-07-26T09:42:01Z</time>
      </trkpt>
      <trkpt lat="42.7852070" lon="0.0202470">
        <ele>998.2</ele>
        <time>2020-07-26T09:42:03Z</time>
      </trkpt>
      <trkpt lat="42.7850250" lon="0.0202450">
        <ele>999.6</ele>
        <time>2020-07-26T09:42:08Z</time>
      </trkpt>
      <trkpt lat="42.7849910" lon="0.0202310">
        <ele>999.8</ele>
        <time>2020-07-26T09:42:09Z</time>
      </trkpt>
      <trkpt lat="42.7848670" lon="0.0201600">
        <ele>1000.6</ele>
        <time>2020-07-26T09:42:13Z</time>
      </trkpt>
      <trkpt lat="42.7847690" lon="0.0200880">
        <ele>1001.4</ele>
        <time>2020-07-26T09:42:16Z</time>
      </trkpt>
      <trkpt lat="42.7847330" lon="0.0200660">
        <ele>1001.8</ele>
        <time>2020-07-26T09:42:17Z</time>
      </trkpt>
      <trkpt lat="42.7845300" lon="0.0198990">
        <ele>1002.8</ele>
        <time>2020-07-26T09:42:23Z</time>
      </trkpt>
      <trkpt lat="42.7844960" lon="0.0198660">
        <ele>1003.0</ele>
        <time>2020-07-26T09:42:24Z</time>
      </trkpt>
      <trkpt lat="42.7843410" lon="0.0196960">
        <ele>1004.2</ele>
        <time>2020-07-26T09:42:29Z</time>
      </trkpt>
      <trkpt lat="42.7842830" lon="0.0196290">
        <ele>1004.6</ele>
        <time>2020-07-26T09:42:31Z</time>
      </trkpt>
      <trkpt lat="42.7841250" lon="0.0194790">
        <ele>1005.2</ele>
        <time>2020-07-26T09:42:36Z</time>
      </trkpt>
      <trkpt lat="42.7840560" lon="0.0194210">
        <ele>1005.6</ele>
        <time>2020-07-26T09:42:38Z</time>
      </trkpt>
      <trkpt lat="42.7838850" lon="0.0192750">
        <ele>1006.4</ele>
        <time>2020-07-26T09:42:43Z</time>
      </trkpt>
      <trkpt lat="42.7837540" lon="0.0191510">
        <ele>1007.2</ele>
        <time>2020-07-26T09:42:47Z</time>
      </trkpt>
      <trkpt lat="42.7836970" lon="0.0190830">
        <ele>1007.6</ele>
        <time>2020-07-26T09:42:49Z</time>
      </trkpt>
      <trkpt lat="42.7835990" lon="0.0189260">
        <ele>1008.8</ele>
        <time>2020-07-26T09:42:53Z</time>
      </trkpt>
      <trkpt lat="42.7835770" lon="0.0188820">
        <ele>1008.8</ele>
        <time>2020-07-26T09:42:54Z</time>
      </trkpt>
      <trkpt lat="42.7834660" lon="0.0186110">
        <ele>1009.8</ele>
        <time>2020-07-26T09:43:00Z</time>
      </trkpt>
      <trkpt lat="42.7834130" lon="0.0184710">
        <ele>1010.2</ele>
        <time>2020-07-26T09:43:03Z</time>
      </trkpt>
      <trkpt lat="42.7833570" lon="0.0183150">
        <ele>1010.8</ele>
        <time>2020-07-26T09:43:07Z</time>
      </trkpt>
      <trkpt lat="42.7833410" lon="0.0182870">
        <ele>1011.2</ele>
        <time>2020-07-26T09:43:09Z</time>
      </trkpt>
      <trkpt lat="42.7832360" lon="0.0183540">
        <ele>1010.6</ele>
        <time>2020-07-26T09:45:27Z</time>
      </trkpt>
      <trkpt lat="42.7831810" lon="0.0183540">
        <ele>1010.6</ele>
        <time>2020-07-26T09:45:30Z</time>
      </trkpt>
      <trkpt lat="42.7831660" lon="0.0183740">
        <ele>1010.4</ele>
        <time>2020-07-26T09:45:31Z</time>
      </trkpt>
      <trkpt lat="42.7831330" lon="0.0184940">
        <ele>1010.2</ele>
        <time>2020-07-26T09:45:34Z</time>
      </trkpt>
      <trkpt lat="42.7831380" lon="0.0185500">
        <ele>1010.2</ele>
        <time>2020-07-26T09:45:35Z</time>
      </trkpt>
      <trkpt lat="42.7831720" lon="0.0186530">
        <ele>1010.2</ele>
        <time>2020-07-26T09:45:37Z</time>
      </trkpt>
      <trkpt lat="42.7832000" lon="0.0186980">
        <ele>1010.2</ele>
        <time>2020-07-26T09:45:38Z</time>
      </trkpt>
      <trkpt lat="42.7833620" lon="0.0189210">
        <ele>1011.2</ele>
        <time>2020-07-26T09:45:43Z</time>
      </trkpt>
      <trkpt lat="42.7833920" lon="0.0189670">
        <ele>1011.2</ele>
        <time>2020-07-26T09:45:44Z</time>
      </trkpt>
      <trkpt lat="42.7834200" lon="0.0190150">
        <ele>1011.4</ele>
        <time>2020-07-26T09:45:45Z</time>
      </trkpt>
      <trkpt lat="42.7834750" lon="0.0191120">
        <ele>1011.6</ele>
        <time>2020-07-26T09:45:47Z</time>
      </trkpt>
      <trkpt lat="42.7835010" lon="0.0191630">
        <ele>1011.6</ele>
        <time>2020-07-26T09:45:48Z</time>
      </trkpt>
      <trkpt lat="42.7835800" lon="0.0193280">
        <ele>1012.0</ele>
        <time>2020-07-26T09:45:51Z</time>
      </trkpt>
      <trkpt lat="42.7836300" lon="0.0194460">
        <ele>1012.2</ele>
        <time>2020-07-26T09:45:53Z</time>
      </trkpt>
      <trkpt lat="42.7837190" lon="0.0196550">
        <ele>1012.6</ele>
        <time>2020-07-26T09:45:57Z</time>
      </trkpt>
      <trkpt lat="42.7837370" lon="0.0197030">
        <ele>1012.8</ele>
        <time>2020-07-26T09:45:58Z</time>
      </trkpt>
      <trkpt lat="42.7837570" lon="0.0197520">
        <ele>1013.0</ele>
        <time>2020-07-26T09:45:59Z</time>
      </trkpt>
      <trkpt lat="42.7837810" lon="0.0198030">
        <ele>1013.4</ele>
        <time>2020-07-26T09:46:00Z</time>
      </trkpt>
      <trkpt lat="42.7838050" lon="0.0198510">
        <ele>1013.8</ele>
        <time>2020-07-26T09:46:01Z</time>
      </trkpt>
      <trkpt lat="42.7838270" lon="0.0198920">
        <ele>1014.2</ele>
        <time>2020-07-26T09:46:02Z</time>
      </trkpt>
      <trkpt lat="42.7838490" lon="0.0199320">
        <ele>1014.4</ele>
        <time>2020-07-26T09:46:03Z</time>
      </trkpt>
      <trkpt lat="42.7839450" lon="0.0200870">
        <ele>1015.6</ele>
        <time>2020-07-26T09:46:07Z</time>
      </trkpt>
      <trkpt lat="42.7840540" lon="0.0202640">
        <ele>1016.6</ele>
        <time>2020-07-26T09:46:12Z</time>
      </trkpt>
      <trkpt lat="42.7841470" lon="0.0204080">
        <ele>1017.8</ele>
        <time>2020-07-26T09:46:16Z</time>
      </trkpt>
      <trkpt lat="42.7841760" lon="0.0204440">
        <ele>1018.0</ele>
        <time>2020-07-26T09:46:17Z</time>
      </trkpt>
      <trkpt lat="42.7843350" lon="0.0206590">
        <ele>1018.8</ele>
        <time>2020-07-26T09:46:23Z</time>
      </trkpt>
      <trkpt lat="42.7843580" lon="0.0206950">
        <ele>1019.0</ele>
        <time>2020-07-26T09:46:24Z</time>
      </trkpt>
      <trkpt lat="42.7844100" lon="0.0207640">
        <ele>1019.2</ele>
        <time>2020-07-26T09:46:26Z</time>
      </trkpt>
      <trkpt lat="42.7844650" lon="0.0208260">
        <ele>1019.8</ele>
        <time>2020-07-26T09:46:28Z</time>
      </trkpt>
      <trkpt lat="42.7844920" lon="0.0208600">
        <ele>1020.0</ele>
        <time>2020-07-26T09:46:29Z</time>
      </trkpt>
      <trkpt lat="42.7845670" lon="0.0209580">
        <ele>1021.0</ele>
        <time>2020-07-26T09:46:32Z</time>
      </trkpt>
      <trkpt lat="42.7845910" lon="0.0209950">
        <ele>1021.2</ele>
        <time>2020-07-26T09:46:33Z</time>
      </trkpt>
      <trkpt lat="42.7847280" lon="0.0211740">
        <ele>1022.2</ele>
        <time>2020-07-26T09:46:38Z</time>
      </trkpt>
      <trkpt lat="42.7847840" lon="0.0212430">
        <ele>1023.0</ele>
        <time>2020-07-26T09:46:40Z</time>
      </trkpt>
      <trkpt lat="42.7848360" lon="0.0213130">
        <ele>1023.4</ele>
        <time>2020-07-26T09:46:42Z</time>
      </trkpt>
      <trkpt lat="42.7849220" lon="0.0214160">
        <ele>1024.0</ele>
        <time>2020-07-26T09:46:45Z</time>
      </trkpt>
      <trkpt lat="42.7849740" lon="0.0214850">
        <ele>1024.2</ele>
        <time>2020-07-26T09:46:47Z</time>
      </trkpt>
      <trkpt lat="42.7850250" lon="0.0215550">
        <ele>1024.4</ele>
        <time>2020-07-26T09:46:49Z</time>
      </trkpt>
      <trkpt lat="42.7851690" lon="0.0217610">
        <ele>1025.6</ele>
        <time>2020-07-26T09:46:55Z</time>
      </trkpt>
      <trkpt lat="42.7852660" lon="0.0219020">
        <ele>1026.6</ele>
        <time>2020-07-26T09:46:59Z</time>
      </trkpt>
      <trkpt lat="42.7853610" lon="0.0220490">
        <ele>1027.2</ele>
        <time>2020-07-26T09:47:03Z</time>
      </trkpt>
      <trkpt lat="42.7854060" lon="0.0221230">
        <ele>1027.6</ele>
        <time>2020-07-26T09:47:05Z</time>
      </trkpt>
      <trkpt lat="42.7854510" lon="0.0221980">
        <ele>1028.2</ele>
        <time>2020-07-26T09:47:07Z</time>
      </trkpt>
      <trkpt lat="42.7855120" lon="0.0223180">
        <ele>1029.0</ele>
        <time>2020-07-26T09:47:10Z</time>
      </trkpt>
      <trkpt lat="42.7855300" lon="0.0223580">
        <ele>1029.0</ele>
        <time>2020-07-26T09:47:11Z</time>
      </trkpt>
      <trkpt lat="42.7856460" lon="0.0226090">
        <ele>1030.2</ele>
        <time>2020-07-26T09:47:17Z</time>
      </trkpt>
      <trkpt lat="42.7856760" lon="0.0226960">
        <ele>1031.0</ele>
        <time>2020-07-26T09:47:19Z</time>
      </trkpt>
      <trkpt lat="42.7857100" lon="0.0227800">
        <ele>1031.6</ele>
        <time>2020-07-26T09:47:21Z</time>
      </trkpt>
      <trkpt lat="42.7857660" lon="0.0229060">
        <ele>1032.4</ele>
        <time>2020-07-26T09:47:24Z</time>
      </trkpt>
      <trkpt lat="42.7858080" lon="0.0229940">
        <ele>1032.6</ele>
        <time>2020-07-26T09:47:26Z</time>
      </trkpt>
      <trkpt lat="42.7858550" lon="0.0230800">
        <ele>1032.6</ele>
        <time>2020-07-26T09:47:28Z</time>
      </trkpt>
      <trkpt lat="42.7859430" lon="0.0232870">
        <ele>1033.0</ele>
        <time>2020-07-26T09:47:32Z</time>
      </trkpt>
      <trkpt lat="42.7859510" lon="0.0234090">
        <ele>1033.4</ele>
        <time>2020-07-26T09:47:34Z</time>
      </trkpt>
      <trkpt lat="42.7858970" lon="0.0235010">
        <ele>1033.6</ele>
        <time>2020-07-26T09:47:36Z</time>
      </trkpt>
      <trkpt lat="42.7858500" lon="0.0235130">
        <ele>1033.8</ele>
        <time>2020-07-26T09:47:37Z</time>
      </trkpt>
      <trkpt lat="42.7858050" lon="0.0234990">
        <ele>1034.0</ele>
        <time>2020-07-26T09:47:38Z</time>
      </trkpt>
      <trkpt lat="42.7857420" lon="0.0234010">
        <ele>1034.4</ele>
        <time>2020-07-26T09:47:40Z</time>
      </trkpt>
      <trkpt lat="42.7857070" lon="0.0232760">
        <ele>1034.6</ele>
        <time>2020-07-26T09:47:42Z</time>
      </trkpt>
      <trkpt lat="42.7856950" lon="0.0232120">
        <ele>1034.8</ele>
        <time>2020-07-26T09:47:43Z</time>
      </trkpt>
      <trkpt lat="42.7856670" lon="0.0230880">
        <ele>1035.0</ele>
        <time>2020-07-26T09:47:45Z</time>
      </trkpt>
      <trkpt lat="42.7856480" lon="0.0230280">
        <ele>1035.0</ele>
        <time>2020-07-26T09:47:46Z</time>
      </trkpt>
      <trkpt lat="42.7856020" lon="0.0229140">
        <ele>1035.4</ele>
        <time>2020-07-26T09:47:48Z</time>
      </trkpt>
      <trkpt lat="42.7855410" lon="0.0228080">
        <ele>1036.0</ele>
        <time>2020-07-26T09:47:50Z</time>
      </trkpt>
      <trkpt lat="42.7853930" lon="0.0226200">
        <ele>1036.6</ele>
        <time>2020-07-26T09:47:54Z</time>
      </trkpt>
      <trkpt lat="42.7853140" lon="0.0225370">
        <ele>1036.8</ele>
        <time>2020-07-26T09:47:56Z</time>
      </trkpt>
      <trkpt lat="42.7851960" lon="0.0224190">
        <ele>1037.2</ele>
        <time>2020-07-26T09:47:59Z</time>
      </trkpt>
      <trkpt lat="42.7850010" lon="0.0222200">
        <ele>1038.4</ele>
        <time>2020-07-26T09:48:04Z</time>
      </trkpt>
      <trkpt lat="42.7849250" lon="0.0221430">
        <ele>1039.0</ele>
        <time>2020-07-26T09:48:06Z</time>
      </trkpt>
      <trkpt lat="42.7848870" lon="0.0221070">
        <ele>1039.2</ele>
        <time>2020-07-26T09:48:07Z</time>
      </trkpt>
      <trkpt lat="42.7848130" lon="0.0220360">
        <ele>1039.6</ele>
        <time>2020-07-26T09:48:09Z</time>
      </trkpt>
      <trkpt lat="42.7846270" lon="0.0218600">
        <ele>1041.0</ele>
        <time>2020-07-26T09:48:14Z</time>
      </trkpt>
      <trkpt lat="42.7845530" lon="0.0217920">
        <ele>1041.4</ele>
        <time>2020-07-26T09:48:16Z</time>
      </trkpt>
      <trkpt lat="42.7844440" lon="0.0216900">
        <ele>1041.8</ele>
        <time>2020-07-26T09:48:19Z</time>
      </trkpt>
      <trkpt lat="42.7844090" lon="0.0216550">
        <ele>1042.0</ele>
        <time>2020-07-26T09:48:20Z</time>
      </trkpt>
      <trkpt lat="42.7843030" lon="0.0215540">
        <ele>1042.8</ele>
        <time>2020-07-26T09:48:23Z</time>
      </trkpt>
      <trkpt lat="42.7842300" lon="0.0214880">
        <ele>1043.2</ele>
        <time>2020-07-26T09:48:25Z</time>
      </trkpt>
      <trkpt lat="42.7840560" lon="0.0213180">
        <ele>1044.4</ele>
        <time>2020-07-26T09:48:30Z</time>
      </trkpt>
      <trkpt lat="42.7840220" lon="0.0212840">
        <ele>1044.6</ele>
        <time>2020-07-26T09:48:31Z</time>
      </trkpt>
      <trkpt lat="42.7839870" lon="0.0212510">
        <ele>1044.8</ele>
        <time>2020-07-26T09:48:32Z</time>
      </trkpt>
      <trkpt lat="42.7838460" lon="0.0211280">
        <ele>1045.4</ele>
        <time>2020-07-26T09:48:36Z</time>
      </trkpt>
      <trkpt lat="42.7837040" lon="0.0210090">
        <ele>1046.6</ele>
        <time>2020-07-26T09:48:40Z</time>
      </trkpt>
      <trkpt lat="42.7835370" lon="0.0208630">
        <ele>1047.8</ele>
        <time>2020-07-26T09:48:45Z</time>
      </trkpt>
      <trkpt lat="42.7834960" lon="0.0208450">
        <ele>1048.2</ele>
        <time>2020-07-26T09:48:46Z</time>
      </trkpt>
      <trkpt lat="42.7834620" lon="0.0208610">
        <ele>1048.4</ele>
        <time>2020-07-26T09:48:47Z</time>
      </trkpt>
      <trkpt lat="42.7834300" lon="0.0210230">
        <ele>1048.8</ele>
        <time>2020-07-26T09:48:51Z</time>
      </trkpt>
      <trkpt lat="42.7835610" lon="0.0211760">
        <ele>1050.0</ele>
        <time>2020-07-26T09:48:55Z</time>
      </trkpt>
      <trkpt lat="42.7836700" lon="0.0213270">
        <ele>1051.0</ele>
        <time>2020-07-26T09:48:59Z</time>
      </trkpt>
      <trkpt lat="42.7836930" lon="0.0213660">
        <ele>1051.2</ele>
        <time>2020-07-26T09:49:00Z</time>
      </trkpt>
      <trkpt lat="42.7837380" lon="0.0214490">
        <ele>1051.6</ele>
        <time>2020-07-26T09:49:02Z</time>
      </trkpt>
      <trkpt lat="42.7837910" lon="0.0215270">
        <ele>1052.0</ele>
        <time>2020-07-26T09:49:04Z</time>
      </trkpt>
      <trkpt lat="42.7838180" lon="0.0215630">
        <ele>1052.2</ele>
        <time>2020-07-26T09:49:05Z</time>
      </trkpt>
      <trkpt lat="42.7838420" lon="0.0216040">
        <ele>1052.6</ele>
        <time>2020-07-26T09:49:06Z</time>
      </trkpt>
      <trkpt lat="42.7839010" lon="0.0216750">
        <ele>1053.4</ele>
        <time>2020-07-26T09:49:08Z</time>
      </trkpt>
      <trkpt lat="42.7839280" lon="0.0217100">
        <ele>1053.8</ele>
        <time>2020-07-26T09:49:09Z</time>
      </trkpt>
      <trkpt lat="42.7840090" lon="0.0218130">
        <ele>1054.4</ele>
        <time>2020-07-26T09:49:12Z</time>
      </trkpt>
      <trkpt lat="42.7841270" lon="0.0219740">
        <ele>1055.4</ele>
        <time>2020-07-26T09:49:17Z</time>
      </trkpt>
      <trkpt lat="42.7841750" lon="0.0220460">
        <ele>1056.0</ele>
        <time>2020-07-26T09:49:19Z</time>
      </trkpt>
      <trkpt lat="42.7842180" lon="0.0221140">
        <ele>1056.8</ele>
        <time>2020-07-26T09:49:21Z</time>
      </trkpt>
      <trkpt lat="42.7842700" lon="0.0222210">
        <ele>1058.0</ele>
        <time>2020-07-26T09:49:24Z</time>
      </trkpt>
      <trkpt lat="42.7842980" lon="0.0222980">
        <ele>1058.6</ele>
        <time>2020-07-26T09:49:26Z</time>
      </trkpt>
      <trkpt lat="42.7843100" lon="0.0223380">
        <ele>1059.0</ele>
        <time>2020-07-26T09:49:27Z</time>
      </trkpt>
      <trkpt lat="42.7843200" lon="0.0223770">
        <ele>1059.2</ele>
        <time>2020-07-26T09:49:28Z</time>
      </trkpt>
      <trkpt lat="42.7843540" lon="0.0225710">
        <ele>1060.4</ele>
        <time>2020-07-26T09:49:33Z</time>
      </trkpt>
      <trkpt lat="42.7843620" lon="0.0226100">
        <ele>1060.6</ele>
        <time>2020-07-26T09:49:34Z</time>
      </trkpt>
      <trkpt lat="42.7843880" lon="0.0227240">
        <ele>1061.6</ele>
        <time>2020-07-26T09:49:37Z</time>
      </trkpt>
      <trkpt lat="42.7844050" lon="0.0228000">
        <ele>1062.2</ele>
        <time>2020-07-26T09:49:39Z</time>
      </trkpt>
      <trkpt lat="42.7844190" lon="0.0228760">
        <ele>1062.6</ele>
        <time>2020-07-26T09:49:41Z</time>
      </trkpt>
      <trkpt lat="42.7844430" lon="0.0230270">
        <ele>1063.6</ele>
        <time>2020-07-26T09:49:45Z</time>
      </trkpt>
      <trkpt lat="42.7844500" lon="0.0230650">
        <ele>1063.8</ele>
        <time>2020-07-26T09:49:46Z</time>
      </trkpt>
      <trkpt lat="42.7844740" lon="0.0231750">
        <ele>1064.8</ele>
        <time>2020-07-26T09:49:49Z</time>
      </trkpt>
      <trkpt lat="42.7845200" lon="0.0233570">
        <ele>1066.2</ele>
        <time>2020-07-26T09:49:54Z</time>
      </trkpt>
      <trkpt lat="42.7845320" lon="0.0233900">
        <ele>1066.4</ele>
        <time>2020-07-26T09:49:55Z</time>
      </trkpt>
      <trkpt lat="42.7845690" lon="0.0234940">
        <ele>1067.2</ele>
        <time>2020-07-26T09:49:58Z</time>
      </trkpt>
      <trkpt lat="42.7846260" lon="0.0236510">
        <ele>1068.4</ele>
        <time>2020-07-26T09:50:03Z</time>
      </trkpt>
      <trkpt lat="42.7846450" lon="0.0236920">
        <ele>1069.0</ele>
        <time>2020-07-26T09:50:05Z</time>
      </trkpt>
      <trkpt lat="42.7846770" lon="0.0237700">
        <ele>1069.6</ele>
        <time>2020-07-26T09:50:08Z</time>
      </trkpt>
      <trkpt lat="42.7847200" lon="0.0239040">
        <ele>1070.2</ele>
        <time>2020-07-26T09:50:12Z</time>
      </trkpt>
      <trkpt lat="42.7847370" lon="0.0239710">
        <ele>1070.8</ele>
        <time>2020-07-26T09:50:14Z</time>
      </trkpt>
      <trkpt lat="42.7847530" lon="0.0240380">
        <ele>1071.0</ele>
        <time>2020-07-26T09:50:16Z</time>
      </trkpt>
      <trkpt lat="42.7847670" lon="0.0241370">
        <ele>1072.0</ele>
        <time>2020-07-26T09:50:19Z</time>
      </trkpt>
      <trkpt lat="42.7847590" lon="0.0242850">
        <ele>1073.0</ele>
        <time>2020-07-26T09:50:23Z</time>
      </trkpt>
      <trkpt lat="42.7847560" lon="0.0243250">
        <ele>1073.2</ele>
        <time>2020-07-26T09:50:24Z</time>
      </trkpt>
      <trkpt lat="42.7847500" lon="0.0244550">
        <ele>1074.4</ele>
        <time>2020-07-26T09:50:27Z</time>
      </trkpt>
      <trkpt lat="42.7847380" lon="0.0245780">
        <ele>1075.6</ele>
        <time>2020-07-26T09:50:30Z</time>
      </trkpt>
      <trkpt lat="42.7847310" lon="0.0246150">
        <ele>1076.0</ele>
        <time>2020-07-26T09:50:31Z</time>
      </trkpt>
      <trkpt lat="42.7847140" lon="0.0246900">
        <ele>1076.6</ele>
        <time>2020-07-26T09:50:33Z</time>
      </trkpt>
      <trkpt lat="42.7846750" lon="0.0247970">
        <ele>1077.8</ele>
        <time>2020-07-26T09:50:36Z</time>
      </trkpt>
      <trkpt lat="42.7846440" lon="0.0248610">
        <ele>1078.2</ele>
        <time>2020-07-26T09:50:38Z</time>
      </trkpt>
      <trkpt lat="42.7845860" lon="0.0249510">
        <ele>1078.8</ele>
        <time>2020-07-26T09:50:41Z</time>
      </trkpt>
      <trkpt lat="42.7845180" lon="0.0251330">
        <ele>1080.0</ele>
        <time>2020-07-26T09:50:46Z</time>
      </trkpt>
      <trkpt lat="42.7845120" lon="0.0252840">
        <ele>1081.2</ele>
        <time>2020-07-26T09:50:50Z</time>
      </trkpt>
      <trkpt lat="42.7845170" lon="0.0253550">
        <ele>1081.6</ele>
        <time>2020-07-26T09:50:52Z</time>
      </trkpt>
      <trkpt lat="42.7845340" lon="0.0254900">
        <ele>1082.4</ele>
        <time>2020-07-26T09:50:56Z</time>
      </trkpt>
      <trkpt lat="42.7845580" lon="0.0255940">
        <ele>1083.4</ele>
        <time>2020-07-26T09:50:59Z</time>
      </trkpt>
      <trkpt lat="42.7845700" lon="0.0256260">
        <ele>1083.6</ele>
        <time>2020-07-26T09:51:00Z</time>
      </trkpt>
      <trkpt lat="42.7846220" lon="0.0257870">
        <ele>1084.8</ele>
        <time>2020-07-26T09:51:05Z</time>
      </trkpt>
      <trkpt lat="42.7846420" lon="0.0258560">
        <ele>1085.4</ele>
        <time>2020-07-26T09:51:07Z</time>
      </trkpt>
      <trkpt lat="42.7846640" lon="0.0259300">
        <ele>1086.0</ele>
        <time>2020-07-26T09:51:09Z</time>
      </trkpt>
      <trkpt lat="42.7847070" lon="0.0260810">
        <ele>1086.8</ele>
        <time>2020-07-26T09:51:13Z</time>
      </trkpt>
      <trkpt lat="42.7847190" lon="0.0261180">
        <ele>1087.2</ele>
        <time>2020-07-26T09:51:14Z</time>
      </trkpt>
      <trkpt lat="42.7847500" lon="0.0262300">
        <ele>1088.2</ele>
        <time>2020-07-26T09:51:17Z</time>
      </trkpt>
      <trkpt lat="42.7847780" lon="0.0263490">
        <ele>1088.8</ele>
        <time>2020-07-26T09:51:20Z</time>
      </trkpt>
      <trkpt lat="42.7847850" lon="0.0264300">
        <ele>1089.2</ele>
        <time>2020-07-26T09:51:22Z</time>
      </trkpt>
      <trkpt lat="42.7847760" lon="0.0264690">
        <ele>1089.6</ele>
        <time>2020-07-26T09:51:23Z</time>
      </trkpt>
      <trkpt lat="42.7847090" lon="0.0265400">
        <ele>1090.4</ele>
        <time>2020-07-26T09:51:26Z</time>
      </trkpt>
      <trkpt lat="42.7846790" lon="0.0265350">
        <ele>1090.6</ele>
        <time>2020-07-26T09:51:27Z</time>
      </trkpt>
      <trkpt lat="42.7846530" lon="0.0265190">
        <ele>1090.8</ele>
        <time>2020-07-26T09:51:28Z</time>
      </trkpt>
      <trkpt lat="42.7846300" lon="0.0264950">
        <ele>1091.2</ele>
        <time>2020-07-26T09:51:29Z</time>
      </trkpt>
      <trkpt lat="42.7846110" lon="0.0264670">
        <ele>1091.4</ele>
        <time>2020-07-26T09:51:30Z</time>
      </trkpt>
      <trkpt lat="42.7845940" lon="0.0264360">
        <ele>1091.6</ele>
        <time>2020-07-26T09:51:31Z</time>
      </trkpt>
      <trkpt lat="42.7845520" lon="0.0263410">
        <ele>1092.4</ele>
        <time>2020-07-26T09:51:34Z</time>
      </trkpt>
      <trkpt lat="42.7845070" lon="0.0262500">
        <ele>1093.6</ele>
        <time>2020-07-26T09:51:37Z</time>
      </trkpt>
      <trkpt lat="42.7843950" lon="0.0261510">
        <ele>1094.8</ele>
        <time>2020-07-26T09:51:42Z</time>
      </trkpt>
      <trkpt lat="42.7843680" lon="0.0261390">
        <ele>1095.0</ele>
        <time>2020-07-26T09:51:43Z</time>
      </trkpt>
      <trkpt lat="42.7842850" lon="0.0261260">
        <ele>1095.8</ele>
        <time>2020-07-26T09:51:46Z</time>
      </trkpt>
      <trkpt lat="42.7842040" lon="0.0261090">
        <ele>1097.0</ele>
        <time>2020-07-26T09:51:49Z</time>
      </trkpt>
      <trkpt lat="42.7840990" lon="0.0260690">
        <ele>1098.2</ele>
        <time>2020-07-26T09:51:53Z</time>
      </trkpt>
      <trkpt lat="42.7840570" lon="0.0260280">
        <ele>1098.6</ele>
        <time>2020-07-26T09:51:55Z</time>
      </trkpt>
      <trkpt lat="42.7840040" lon="0.0259410">
        <ele>1099.2</ele>
        <time>2020-07-26T09:51:58Z</time>
      </trkpt>
      <trkpt lat="42.7839560" lon="0.0258170">
        <ele>1100.2</ele>
        <time>2020-07-26T09:52:02Z</time>
      </trkpt>
      <trkpt lat="42.7839460" lon="0.0257820">
        <ele>1100.4</ele>
        <time>2020-07-26T09:52:03Z</time>
      </trkpt>
      <trkpt lat="42.7839270" lon="0.0256380">
        <ele>1101.4</ele>
        <time>2020-07-26T09:52:07Z</time>
      </trkpt>
      <trkpt lat="42.7839280" lon="0.0256010">
        <ele>1101.6</ele>
        <time>2020-07-26T09:52:08Z</time>
      </trkpt>
      <trkpt lat="42.7839450" lon="0.0254580">
        <ele>1102.6</ele>
        <time>2020-07-26T09:52:12Z</time>
      </trkpt>
      <trkpt lat="42.7839490" lon="0.0253530">
        <ele>1103.2</ele>
        <time>2020-07-26T09:52:15Z</time>
      </trkpt>
      <trkpt lat="42.7839300" lon="0.0252940">
        <ele>1103.4</ele>
        <time>2020-07-26T09:52:17Z</time>
      </trkpt>
      <trkpt lat="42.7838890" lon="0.0252550">
        <ele>1104.0</ele>
        <time>2020-07-26T09:52:19Z</time>
      </trkpt>
      <trkpt lat="42.7837830" lon="0.0252750">
        <ele>1104.8</ele>
        <time>2020-07-26T09:52:23Z</time>
      </trkpt>
      <trkpt lat="42.7837610" lon="0.0252980">
        <ele>1105.0</ele>
        <time>2020-07-26T09:52:24Z</time>
      </trkpt>
      <trkpt lat="42.7837060" lon="0.0254240">
        <ele>1106.0</ele>
        <time>2020-07-26T09:52:28Z</time>
      </trkpt>
      <trkpt lat="42.7836740" lon="0.0256080">
        <ele>1107.2</ele>
        <time>2020-07-26T09:52:33Z</time>
      </trkpt>
      <trkpt lat="42.7836370" lon="0.0257440">
        <ele>1108.0</ele>
        <time>2020-07-26T09:52:37Z</time>
      </trkpt>
      <trkpt lat="42.7836170" lon="0.0258130">
        <ele>1108.2</ele>
        <time>2020-07-26T09:52:39Z</time>
      </trkpt>
      <trkpt lat="42.7835870" lon="0.0259150">
        <ele>1109.4</ele>
        <time>2020-07-26T09:52:42Z</time>
      </trkpt>
      <trkpt lat="42.7835490" lon="0.0260920">
        <ele>1110.6</ele>
        <time>2020-07-26T09:52:47Z</time>
      </trkpt>
      <trkpt lat="42.7835460" lon="0.0261290">
        <ele>1110.6</ele>
        <time>2020-07-26T09:52:48Z</time>
      </trkpt>
      <trkpt lat="42.7835330" lon="0.0263040">
        <ele>1111.6</ele>
        <time>2020-07-26T09:52:53Z</time>
      </trkpt>
      <trkpt lat="42.7835320" lon="0.0263740">
        <ele>1112.0</ele>
        <time>2020-07-26T09:52:55Z</time>
      </trkpt>
      <trkpt lat="42.7835270" lon="0.0264800">
        <ele>1112.8</ele>
        <time>2020-07-26T09:52:58Z</time>
      </trkpt>
      <trkpt lat="42.7835340" lon="0.0266280">
        <ele>1113.6</ele>
        <time>2020-07-26T09:53:02Z</time>
      </trkpt>
      <trkpt lat="42.7835370" lon="0.0266650">
        <ele>1114.0</ele>
        <time>2020-07-26T09:53:03Z</time>
      </trkpt>
      <trkpt lat="42.7835390" lon="0.0267030">
        <ele>1114.2</ele>
        <time>2020-07-26T09:53:04Z</time>
      </trkpt>
      <trkpt lat="42.7835460" lon="0.0268130">
        <ele>1115.0</ele>
        <time>2020-07-26T09:53:07Z</time>
      </trkpt>
      <trkpt lat="42.7835670" lon="0.0269860">
        <ele>1115.8</ele>
        <time>2020-07-26T09:53:12Z</time>
      </trkpt>
      <trkpt lat="42.7835740" lon="0.0270550">
        <ele>1116.0</ele>
        <time>2020-07-26T09:53:14Z</time>
      </trkpt>
      <trkpt lat="42.7835610" lon="0.0272010">
        <ele>1117.2</ele>
        <time>2020-07-26T09:53:18Z</time>
      </trkpt>
      <trkpt lat="42.7835160" lon="0.0273450">
        <ele>1118.2</ele>
        <time>2020-07-26T09:53:22Z</time>
      </trkpt>
      <trkpt lat="42.7834840" lon="0.0274110">
        <ele>1118.6</ele>
        <time>2020-07-26T09:53:24Z</time>
      </trkpt>
      <trkpt lat="42.7834110" lon="0.0274920">
        <ele>1119.4</ele>
        <time>2020-07-26T09:53:27Z</time>
      </trkpt>
      <trkpt lat="42.7833670" lon="0.0275180">
        <ele>1120.0</ele>
        <time>2020-07-26T09:53:29Z</time>
      </trkpt>
      <trkpt lat="42.7833250" lon="0.0275250">
        <ele>1120.4</ele>
        <time>2020-07-26T09:53:31Z</time>
      </trkpt>
      <trkpt lat="42.7832340" lon="0.0275360">
        <ele>1120.8</ele>
        <time>2020-07-26T09:53:35Z</time>
      </trkpt>
      <trkpt lat="42.7831790" lon="0.0275430">
        <ele>1121.6</ele>
        <time>2020-07-26T09:53:38Z</time>
      </trkpt>
      <trkpt lat="42.7831110" lon="0.0275080">
        <ele>1122.2</ele>
        <time>2020-07-26T09:53:41Z</time>
      </trkpt>
      <trkpt lat="42.7829690" lon="0.0274350">
        <ele>1122.6</ele>
        <time>2020-07-26T09:53:47Z</time>
      </trkpt>
      <trkpt lat="42.7829430" lon="0.0274230">
        <ele>1122.6</ele>
        <time>2020-07-26T09:53:48Z</time>
      </trkpt>
      <trkpt lat="42.7828040" lon="0.0273820">
        <ele>1122.6</ele>
        <time>2020-07-26T09:53:53Z</time>
      </trkpt>
      <trkpt lat="42.7827420" lon="0.0273780">
        <ele>1123.0</ele>
        <time>2020-07-26T09:53:55Z</time>
      </trkpt>
      <trkpt lat="42.7825880" lon="0.0274200">
        <ele>1123.8</ele>
        <time>2020-07-26T09:54:00Z</time>
      </trkpt>
      <trkpt lat="42.7825590" lon="0.0274320">
        <ele>1124.0</ele>
        <time>2020-07-26T09:54:01Z</time>
      </trkpt>
      <trkpt lat="42.7824480" lon="0.0275050">
        <ele>1124.8</ele>
        <time>2020-07-26T09:54:05Z</time>
      </trkpt>
      <trkpt lat="42.7823700" lon="0.0275580">
        <ele>1125.8</ele>
        <time>2020-07-26T09:54:08Z</time>
      </trkpt>
      <trkpt lat="42.7823190" lon="0.0275900">
        <ele>1126.0</ele>
        <time>2020-07-26T09:54:10Z</time>
      </trkpt>
      <trkpt lat="42.7822960" lon="0.0276010">
        <ele>1126.2</ele>
        <time>2020-07-26T09:54:11Z</time>
      </trkpt>
      <trkpt lat="42.7821660" lon="0.0276920">
        <ele>1126.6</ele>
        <time>2020-07-26T09:54:16Z</time>
      </trkpt>
      <trkpt lat="42.7821140" lon="0.0277320">
        <ele>1127.2</ele>
        <time>2020-07-26T09:54:18Z</time>
      </trkpt>
      <trkpt lat="42.7820390" lon="0.0277970">
        <ele>1128.2</ele>
        <time>2020-07-26T09:54:21Z</time>
      </trkpt>
      <trkpt lat="42.7819590" lon="0.0278580">
        <ele>1129.4</ele>
        <time>2020-07-26T09:54:24Z</time>
      </trkpt>
      <trkpt lat="42.7819330" lon="0.0278790">
        <ele>1129.6</ele>
        <time>2020-07-26T09:54:25Z</time>
      </trkpt>
      <trkpt lat="42.7818080" lon="0.0280400">
        <ele>1130.4</ele>
        <time>2020-07-26T09:54:31Z</time>
      </trkpt>
      <trkpt lat="42.7817890" lon="0.0280700">
        <ele>1130.6</ele>
        <time>2020-07-26T09:54:32Z</time>
      </trkpt>
      <trkpt lat="42.7817290" lon="0.0281500">
        <ele>1131.6</ele>
        <time>2020-07-26T09:54:35Z</time>
      </trkpt>
      <trkpt lat="42.7816340" lon="0.0282480">
        <ele>1132.4</ele>
        <time>2020-07-26T09:54:39Z</time>
      </trkpt>
      <trkpt lat="42.7816100" lon="0.0282720">
        <ele>1132.8</ele>
        <time>2020-07-26T09:54:40Z</time>
      </trkpt>
      <trkpt lat="42.7815030" lon="0.0283850">
        <ele>1134.0</ele>
        <time>2020-07-26T09:54:45Z</time>
      </trkpt>
      <trkpt lat="42.7814640" lon="0.0284380">
        <ele>1134.4</ele>
        <time>2020-07-26T09:54:47Z</time>
      </trkpt>
      <trkpt lat="42.7813970" lon="0.0285610">
        <ele>1135.0</ele>
        <time>2020-07-26T09:54:51Z</time>
      </trkpt>
      <trkpt lat="42.7813590" lon="0.0286690">
        <ele>1135.6</ele>
        <time>2020-07-26T09:54:54Z</time>
      </trkpt>
      <trkpt lat="42.7813320" lon="0.0287450">
        <ele>1136.2</ele>
        <time>2020-07-26T09:54:56Z</time>
      </trkpt>
      <trkpt lat="42.7812390" lon="0.0289760">
        <ele>1137.2</ele>
        <time>2020-07-26T09:55:02Z</time>
      </trkpt>
      <trkpt lat="42.7810950" lon="0.0291770">
        <ele>1138.4</ele>
        <time>2020-07-26T09:55:08Z</time>
      </trkpt>
      <trkpt lat="42.7810670" lon="0.0292090">
        <ele>1138.4</ele>
        <time>2020-07-26T09:55:09Z</time>
      </trkpt>
      <trkpt lat="42.7809580" lon="0.0293750">
        <ele>1139.2</ele>
        <time>2020-07-26T09:55:14Z</time>
      </trkpt>
      <trkpt lat="42.7809360" lon="0.0294130">
        <ele>1139.4</ele>
        <time>2020-07-26T09:55:15Z</time>
      </trkpt>
      <trkpt lat="42.7808830" lon="0.0296220">
        <ele>1140.0</ele>
        <time>2020-07-26T09:55:20Z</time>
      </trkpt>
      <trkpt lat="42.7808770" lon="0.0297170">
        <ele>1140.4</ele>
        <time>2020-07-26T09:55:22Z</time>
      </trkpt>
      <trkpt lat="42.7808020" lon="0.0299160">
        <ele>1141.2</ele>
        <time>2020-07-26T09:55:27Z</time>
      </trkpt>
      <trkpt lat="42.7807440" lon="0.0300320">
        <ele>1141.4</ele>
        <time>2020-07-26T09:55:30Z</time>
      </trkpt>
      <trkpt lat="42.7806530" lon="0.0302070">
        <ele>1142.2</ele>
        <time>2020-07-26T09:55:34Z</time>
      </trkpt>
      <trkpt lat="42.7806070" lon="0.0303090">
        <ele>1142.6</ele>
        <time>2020-07-26T09:55:36Z</time>
      </trkpt>
      <trkpt lat="42.7804870" lon="0.0305840">
        <ele>1143.4</ele>
        <time>2020-07-26T09:55:42Z</time>
      </trkpt>
      <trkpt lat="42.7804430" lon="0.0306750">
        <ele>1143.6</ele>
        <time>2020-07-26T09:55:44Z</time>
      </trkpt>
      <trkpt lat="42.7804190" lon="0.0307190">
        <ele>1143.8</ele>
        <time>2020-07-26T09:55:45Z</time>
      </trkpt>
      <trkpt lat="42.7803080" lon="0.0309380">
        <ele>1144.8</ele>
        <time>2020-07-26T09:55:50Z</time>
      </trkpt>
      <trkpt lat="42.7802860" lon="0.0309820">
        <ele>1144.8</ele>
        <time>2020-07-26T09:55:51Z</time>
      </trkpt>
      <trkpt lat="42.7801460" lon="0.0312310">
        <ele>1145.4</ele>
        <time>2020-07-26T09:55:57Z</time>
      </trkpt>
      <trkpt lat="42.7801200" lon="0.0312750">
        <ele>1145.8</ele>
        <time>2020-07-26T09:55:58Z</time>
      </trkpt>
      <trkpt lat="42.7800910" lon="0.0313170">
        <ele>1146.2</ele>
        <time>2020-07-26T09:55:59Z</time>
      </trkpt>
      <trkpt lat="42.7800100" lon="0.0314420">
        <ele>1146.8</ele>
        <time>2020-07-26T09:56:02Z</time>
      </trkpt>
      <trkpt lat="42.7798880" lon="0.0316420">
        <ele>1148.2</ele>
        <time>2020-07-26T09:56:07Z</time>
      </trkpt>
      <trkpt lat="42.7797790" lon="0.0318400">
        <ele>1148.8</ele>
        <time>2020-07-26T09:56:12Z</time>
      </trkpt>
      <trkpt lat="42.7797240" lon="0.0319150">
        <ele>1149.2</ele>
        <time>2020-07-26T09:56:14Z</time>
      </trkpt>
      <trkpt lat="42.7796050" lon="0.0320540">
        <ele>1150.4</ele>
        <time>2020-07-26T09:56:18Z</time>
      </trkpt>
      <trkpt lat="42.7795510" lon="0.0321110">
        <ele>1150.6</ele>
        <time>2020-07-26T09:56:20Z</time>
      </trkpt>
      <trkpt lat="42.7795070" lon="0.0321710">
        <ele>1151.4</ele>
        <time>2020-07-26T09:56:22Z</time>
      </trkpt>
      <trkpt lat="42.7794170" lon="0.0322860">
        <ele>1152.4</ele>
        <time>2020-07-26T09:56:26Z</time>
      </trkpt>
      <trkpt lat="42.7793940" lon="0.0323170">
        <ele>1152.6</ele>
        <time>2020-07-26T09:56:27Z</time>
      </trkpt>
      <trkpt lat="42.7793320" lon="0.0324050">
        <ele>1153.4</ele>
        <time>2020-07-26T09:56:30Z</time>
      </trkpt>
      <trkpt lat="42.7793180" lon="0.0324380">
        <ele>1153.8</ele>
        <time>2020-07-26T09:56:31Z</time>
      </trkpt>
      <trkpt lat="42.7792620" lon="0.0325280">
        <ele>1154.6</ele>
        <time>2020-07-26T09:56:34Z</time>
      </trkpt>
      <trkpt lat="42.7792430" lon="0.0325580">
        <ele>1154.8</ele>
        <time>2020-07-26T09:56:35Z</time>
      </trkpt>
      <trkpt lat="42.7792250" lon="0.0325900">
        <ele>1155.0</ele>
        <time>2020-07-26T09:56:36Z</time>
      </trkpt>
      <trkpt lat="42.7791510" lon="0.0327460">
        <ele>1156.2</ele>
        <time>2020-07-26T09:56:41Z</time>
      </trkpt>
      <trkpt lat="42.7791250" lon="0.0328100">
        <ele>1156.8</ele>
        <time>2020-07-26T09:56:43Z</time>
      </trkpt>
      <trkpt lat="42.7790980" lon="0.0328750">
        <ele>1157.4</ele>
        <time>2020-07-26T09:56:45Z</time>
      </trkpt>
      <trkpt lat="42.7790290" lon="0.0330330">
        <ele>1158.6</ele>
        <time>2020-07-26T09:56:50Z</time>
      </trkpt>
      <trkpt lat="42.7789910" lon="0.0330930">
        <ele>1159.0</ele>
        <time>2020-07-26T09:56:52Z</time>
      </trkpt>
      <trkpt lat="42.7789370" lon="0.0331790">
        <ele>1159.6</ele>
        <time>2020-07-26T09:56:55Z</time>
      </trkpt>
      <trkpt lat="42.7789000" lon="0.0332280">
        <ele>1159.8</ele>
        <time>2020-07-26T09:56:58Z</time>
      </trkpt>
      <trkpt lat="42.7788740" lon="0.0332930">
        <ele>1160.6</ele>
        <time>2020-07-26T09:57:01Z</time>
      </trkpt>
      <trkpt lat="42.7788290" lon="0.0333710">
        <ele>1161.2</ele>
        <time>2020-07-26T09:57:04Z</time>
      </trkpt>
      <trkpt lat="42.7787810" lon="0.0334740">
        <ele>1161.8</ele>
        <time>2020-07-26T09:57:07Z</time>
      </trkpt>
      <trkpt lat="42.7786940" lon="0.0336450">
        <ele>1162.8</ele>
        <time>2020-07-26T09:57:12Z</time>
      </trkpt>
      <trkpt lat="42.7786060" lon="0.0338160">
        <ele>1164.0</ele>
        <time>2020-07-26T09:57:17Z</time>
      </trkpt>
      <trkpt lat="42.7785400" lon="0.0339480">
        <ele>1165.2</ele>
        <time>2020-07-26T09:57:21Z</time>
      </trkpt>
      <trkpt lat="42.7784770" lon="0.0340770">
        <ele>1166.2</ele>
        <time>2020-07-26T09:57:25Z</time>
      </trkpt>
      <trkpt lat="42.7784100" lon="0.0342040">
        <ele>1167.2</ele>
        <time>2020-07-26T09:57:29Z</time>
      </trkpt>
      <trkpt lat="42.7783800" lon="0.0342670">
        <ele>1167.8</ele>
        <time>2020-07-26T09:57:31Z</time>
      </trkpt>
      <trkpt lat="42.7783490" lon="0.0343260">
        <ele>1168.2</ele>
        <time>2020-07-26T09:57:33Z</time>
      </trkpt>
      <trkpt lat="42.7782960" lon="0.0344990">
        <ele>1169.2</ele>
        <time>2020-07-26T09:57:38Z</time>
      </trkpt>
      <trkpt lat="42.7782880" lon="0.0345380">
        <ele>1169.4</ele>
        <time>2020-07-26T09:57:39Z</time>
      </trkpt>
      <trkpt lat="42.7782440" lon="0.0347590">
        <ele>1170.6</ele>
        <time>2020-07-26T09:57:45Z</time>
      </trkpt>
      <trkpt lat="42.7782120" lon="0.0348710">
        <ele>1171.4</ele>
        <time>2020-07-26T09:57:48Z</time>
      </trkpt>
      <trkpt lat="42.7781990" lon="0.0349090">
        <ele>1171.6</ele>
        <time>2020-07-26T09:57:49Z</time>
      </trkpt>
      <trkpt lat="42.7781730" lon="0.0349890">
        <ele>1172.0</ele>
        <time>2020-07-26T09:57:51Z</time>
      </trkpt>
      <trkpt lat="42.7781250" lon="0.0351090">
        <ele>1172.8</ele>
        <time>2020-07-26T09:57:54Z</time>
      </trkpt>
      <trkpt lat="42.7781060" lon="0.0351490">
        <ele>1173.2</ele>
        <time>2020-07-26T09:57:55Z</time>
      </trkpt>
      <trkpt lat="42.7780420" lon="0.0352640">
        <ele>1174.2</ele>
        <time>2020-07-26T09:57:58Z</time>
      </trkpt>
      <trkpt lat="42.7779460" lon="0.0353970">
        <ele>1175.2</ele>
        <time>2020-07-26T09:58:02Z</time>
      </trkpt>
      <trkpt lat="42.7778260" lon="0.0356190">
        <ele>1176.4</ele>
        <time>2020-07-26T09:58:08Z</time>
      </trkpt>
      <trkpt lat="42.7777480" lon="0.0357890">
        <ele>1177.2</ele>
        <time>2020-07-26T09:58:12Z</time>
      </trkpt>
      <trkpt lat="42.7776070" lon="0.0359730">
        <ele>1177.6</ele>
        <time>2020-07-26T09:58:17Z</time>
      </trkpt>
      <trkpt lat="42.7775230" lon="0.0360400">
        <ele>1178.0</ele>
        <time>2020-07-26T09:58:20Z</time>
      </trkpt>
      <trkpt lat="42.7774510" lon="0.0360920">
        <ele>1178.6</ele>
        <time>2020-07-26T09:58:23Z</time>
      </trkpt>
      <trkpt lat="42.7774320" lon="0.0361120">
        <ele>1178.8</ele>
        <time>2020-07-26T09:58:24Z</time>
      </trkpt>
      <trkpt lat="42.7773520" lon="0.0361690">
        <ele>1178.8</ele>
        <time>2020-07-26T09:58:29Z</time>
      </trkpt>
      <trkpt lat="42.7773420" lon="0.0361860">
        <ele>1178.6</ele>
        <time>2020-07-26T09:58:30Z</time>
      </trkpt>
      <trkpt lat="42.7772430" lon="0.0362710">
        <ele>1178.6</ele>
        <time>2020-07-26T09:58:36Z</time>
      </trkpt>
      <trkpt lat="42.7772110" lon="0.0363200">
        <ele>1179.0</ele>
        <time>2020-07-26T09:58:38Z</time>
      </trkpt>
      <trkpt lat="42.7771700" lon="0.0363990">
        <ele>1179.2</ele>
        <time>2020-07-26T09:58:41Z</time>
      </trkpt>
      <trkpt lat="42.7770770" lon="0.0365870">
        <ele>1179.6</ele>
        <time>2020-07-26T09:58:47Z</time>
      </trkpt>
      <trkpt lat="42.7770410" lon="0.0366530">
        <ele>1179.8</ele>
        <time>2020-07-26T09:58:49Z</time>
      </trkpt>
      <trkpt lat="42.7769220" lon="0.0368490">
        <ele>1180.4</ele>
        <time>2020-07-26T09:58:55Z</time>
      </trkpt>
      <trkpt lat="42.7768860" lon="0.0369160">
        <ele>1180.4</ele>
        <time>2020-07-26T09:58:57Z</time>
      </trkpt>
      <trkpt lat="42.7768320" lon="0.0370190">
        <ele>1180.6</ele>
        <time>2020-07-26T09:59:00Z</time>
      </trkpt>
      <trkpt lat="42.7768130" lon="0.0370520">
        <ele>1180.8</ele>
        <time>2020-07-26T09:59:01Z</time>
      </trkpt>
      <trkpt lat="42.7767250" lon="0.0371640">
        <ele>1181.4</ele>
        <time>2020-07-26T09:59:05Z</time>
      </trkpt>
      <trkpt lat="42.7766320" lon="0.0372550">
        <ele>1181.8</ele>
        <time>2020-07-26T09:59:09Z</time>
      </trkpt>
      <trkpt lat="42.7765850" lon="0.0373010">
        <ele>1182.0</ele>
        <time>2020-07-26T09:59:11Z</time>
      </trkpt>
      <trkpt lat="42.7765650" lon="0.0373220">
        <ele>1182.2</ele>
        <time>2020-07-26T09:59:12Z</time>
      </trkpt>
      <trkpt lat="42.7764920" lon="0.0374180">
        <ele>1182.6</ele>
        <time>2020-07-26T09:59:16Z</time>
      </trkpt>
      <trkpt lat="42.7764470" lon="0.0374650">
        <ele>1182.8</ele>
        <time>2020-07-26T09:59:18Z</time>
      </trkpt>
      <trkpt lat="42.7764220" lon="0.0374820">
        <ele>1182.8</ele>
        <time>2020-07-26T09:59:19Z</time>
      </trkpt>
      <trkpt lat="42.7763980" lon="0.0374970">
        <ele>1183.0</ele>
        <time>2020-07-26T09:59:20Z</time>
      </trkpt>
      <trkpt lat="42.7762790" lon="0.0376070">
        <ele>1184.0</ele>
        <time>2020-07-26T09:59:26Z</time>
      </trkpt>
      <trkpt lat="42.7762590" lon="0.0376270">
        <ele>1184.4</ele>
        <time>2020-07-26T09:59:27Z</time>
      </trkpt>
      <trkpt lat="42.7761690" lon="0.0376790">
        <ele>1185.2</ele>
        <time>2020-07-26T09:59:31Z</time>
      </trkpt>
      <trkpt lat="42.7760410" lon="0.0377660">
        <ele>1186.0</ele>
        <time>2020-07-26T09:59:37Z</time>
      </trkpt>
      <trkpt lat="42.7760250" lon="0.0377850">
        <ele>1186.2</ele>
        <time>2020-07-26T09:59:38Z</time>
      </trkpt>
      <trkpt lat="42.7759400" lon="0.0379340">
        <ele>1187.0</ele>
        <time>2020-07-26T09:59:44Z</time>
      </trkpt>
      <trkpt lat="42.7759230" lon="0.0379540">
        <ele>1187.2</ele>
        <time>2020-07-26T09:59:45Z</time>
      </trkpt>
      <trkpt lat="42.7759040" lon="0.0379700">
        <ele>1187.4</ele>
        <time>2020-07-26T09:59:46Z</time>
      </trkpt>
      <trkpt lat="42.7758040" lon="0.0380340">
        <ele>1188.6</ele>
        <time>2020-07-26T09:59:51Z</time>
      </trkpt>
      <trkpt lat="42.7757410" lon="0.0380720">
        <ele>1189.2</ele>
        <time>2020-07-26T09:59:54Z</time>
      </trkpt>
      <trkpt lat="42.7757030" lon="0.0381060">
        <ele>1189.8</ele>
        <time>2020-07-26T09:59:56Z</time>
      </trkpt>
      <trkpt lat="42.7756500" lon="0.0381650">
        <ele>1190.6</ele>
        <time>2020-07-26T09:59:59Z</time>
      </trkpt>
      <trkpt lat="42.7756320" lon="0.0381840">
        <ele>1190.8</ele>
        <time>2020-07-26T10:00:00Z</time>
      </trkpt>
      <trkpt lat="42.7755900" lon="0.0382610">
        <ele>1191.6</ele>
        <time>2020-07-26T10:00:03Z</time>
      </trkpt>
      <trkpt lat="42.7755790" lon="0.0382880">
        <ele>1191.8</ele>
        <time>2020-07-26T10:00:04Z</time>
      </trkpt>
      <trkpt lat="42.7755080" lon="0.0384450">
        <ele>1193.0</ele>
        <time>2020-07-26T10:00:10Z</time>
      </trkpt>
      <trkpt lat="42.7754750" lon="0.0385280">
        <ele>1193.8</ele>
        <time>2020-07-26T10:00:13Z</time>
      </trkpt>
      <trkpt lat="42.7754530" lon="0.0385830">
        <ele>1194.4</ele>
        <time>2020-07-26T10:00:15Z</time>
      </trkpt>
      <trkpt lat="42.7754020" lon="0.0387240">
        <ele>1195.4</ele>
        <time>2020-07-26T10:00:20Z</time>
      </trkpt>
      <trkpt lat="42.7753840" lon="0.0387860">
        <ele>1196.2</ele>
        <time>2020-07-26T10:00:22Z</time>
      </trkpt>
      <trkpt lat="42.7753730" lon="0.0388140">
        <ele>1196.6</ele>
        <time>2020-07-26T10:00:23Z</time>
      </trkpt>
      <trkpt lat="42.7753360" lon="0.0389010">
        <ele>1197.0</ele>
        <time>2020-07-26T10:00:26Z</time>
      </trkpt>
      <trkpt lat="42.7752840" lon="0.0390120">
        <ele>1197.6</ele>
        <time>2020-07-26T10:00:30Z</time>
      </trkpt>
      <trkpt lat="42.7752700" lon="0.0390380">
        <ele>1198.0</ele>
        <time>2020-07-26T10:00:31Z</time>
      </trkpt>
      <trkpt lat="42.7752570" lon="0.0390660">
        <ele>1198.2</ele>
        <time>2020-07-26T10:00:32Z</time>
      </trkpt>
      <trkpt lat="42.7752450" lon="0.0390900">
        <ele>1198.4</ele>
        <time>2020-07-26T10:00:33Z</time>
      </trkpt>
      <trkpt lat="42.7752190" lon="0.0391420">
        <ele>1198.8</ele>
        <time>2020-07-26T10:00:35Z</time>
      </trkpt>
      <trkpt lat="42.7751730" lon="0.0392250">
        <ele>1199.8</ele>
        <time>2020-07-26T10:00:38Z</time>
      </trkpt>
      <trkpt lat="42.7751590" lon="0.0392520">
        <ele>1200.0</ele>
        <time>2020-07-26T10:00:39Z</time>
      </trkpt>
      <trkpt lat="42.7750960" lon="0.0393800">
        <ele>1201.0</ele>
        <time>2020-07-26T10:00:44Z</time>
      </trkpt>
      <trkpt lat="42.7750840" lon="0.0394080">
        <ele>1201.4</ele>
        <time>2020-07-26T10:00:45Z</time>
      </trkpt>
      <trkpt lat="42.7750480" lon="0.0394920">
        <ele>1202.0</ele>
        <time>2020-07-26T10:00:48Z</time>
      </trkpt>
      <trkpt lat="42.7750290" lon="0.0395830">
        <ele>1203.0</ele>
        <time>2020-07-26T10:00:51Z</time>
      </trkpt>
      <trkpt lat="42.7750040" lon="0.0396380">
        <ele>1203.4</ele>
        <time>2020-07-26T10:00:53Z</time>
      </trkpt>
      <trkpt lat="42.7749520" lon="0.0397440">
        <ele>1204.2</ele>
        <time>2020-07-26T10:00:57Z</time>
      </trkpt>
      <trkpt lat="42.7749410" lon="0.0397720">
        <ele>1204.6</ele>
        <time>2020-07-26T10:00:58Z</time>
      </trkpt>
      <trkpt lat="42.7749310" lon="0.0397990">
        <ele>1205.0</ele>
        <time>2020-07-26T10:00:59Z</time>
      </trkpt>
      <trkpt lat="42.7749080" lon="0.0398560">
        <ele>1205.4</ele>
        <time>2020-07-26T10:01:01Z</time>
      </trkpt>
      <trkpt lat="42.7748530" lon="0.0400160">
        <ele>1206.6</ele>
        <time>2020-07-26T10:01:06Z</time>
      </trkpt>
      <trkpt lat="42.7748410" lon="0.0400450">
        <ele>1207.0</ele>
        <time>2020-07-26T10:01:07Z</time>
      </trkpt>
      <trkpt lat="42.7747640" lon="0.0401850">
        <ele>1207.8</ele>
        <time>2020-07-26T10:01:12Z</time>
      </trkpt>
      <trkpt lat="42.7747280" lon="0.0402730">
        <ele>1208.2</ele>
        <time>2020-07-26T10:01:15Z</time>
      </trkpt>
      <trkpt lat="42.7746920" lon="0.0403220">
        <ele>1209.0</ele>
        <time>2020-07-26T10:01:17Z</time>
      </trkpt>
      <trkpt lat="42.7746040" lon="0.0403970">
        <ele>1209.6</ele>
        <time>2020-07-26T10:01:21Z</time>
      </trkpt>
      <trkpt lat="42.7745690" lon="0.0404480">
        <ele>1210.0</ele>
        <time>2020-07-26T10:01:23Z</time>
      </trkpt>
      <trkpt lat="42.7744960" lon="0.0405490">
        <ele>1211.2</ele>
        <time>2020-07-26T10:01:27Z</time>
      </trkpt>
      <trkpt lat="42.7744110" lon="0.0406360">
        <ele>1212.2</ele>
        <time>2020-07-26T10:01:31Z</time>
      </trkpt>
      <trkpt lat="42.7743050" lon="0.0407400">
        <ele>1213.4</ele>
        <time>2020-07-26T10:01:36Z</time>
      </trkpt>
      <trkpt lat="42.7742400" lon="0.0408080">
        <ele>1214.4</ele>
        <time>2020-07-26T10:01:39Z</time>
      </trkpt>
      <trkpt lat="42.7742180" lon="0.0408270">
        <ele>1214.8</ele>
        <time>2020-07-26T10:01:40Z</time>
      </trkpt>
      <trkpt lat="42.7741170" lon="0.0409340">
        <ele>1216.0</ele>
        <time>2020-07-26T10:01:45Z</time>
      </trkpt>
      <trkpt lat="42.7740620" lon="0.0410040">
        <ele>1217.0</ele>
        <time>2020-07-26T10:01:48Z</time>
      </trkpt>
      <trkpt lat="42.7740270" lon="0.0410470">
        <ele>1217.4</ele>
        <time>2020-07-26T10:01:50Z</time>
      </trkpt>
      <trkpt lat="42.7739110" lon="0.0411600">
        <ele>1218.0</ele>
        <time>2020-07-26T10:01:56Z</time>
      </trkpt>
      <trkpt lat="42.7738920" lon="0.0411850">
        <ele>1218.4</ele>
        <time>2020-07-26T10:01:57Z</time>
      </trkpt>
      <trkpt lat="42.7738480" lon="0.0412220">
        <ele>1219.4</ele>
        <time>2020-07-26T10:01:59Z</time>
      </trkpt>
      <trkpt lat="42.7737830" lon="0.0412760">
        <ele>1220.0</ele>
        <time>2020-07-26T10:02:02Z</time>
      </trkpt>
      <trkpt lat="42.7737620" lon="0.0412960">
        <ele>1220.2</ele>
        <time>2020-07-26T10:02:03Z</time>
      </trkpt>
      <trkpt lat="42.7737450" lon="0.0413150">
        <ele>1220.4</ele>
        <time>2020-07-26T10:02:04Z</time>
      </trkpt>
      <trkpt lat="42.7737280" lon="0.0413370">
        <ele>1220.6</ele>
        <time>2020-07-26T10:02:05Z</time>
      </trkpt>
      <trkpt lat="42.7737090" lon="0.0413570">
        <ele>1220.8</ele>
        <time>2020-07-26T10:02:06Z</time>
      </trkpt>
      <trkpt lat="42.7736670" lon="0.0413950">
        <ele>1221.4</ele>
        <time>2020-07-26T10:02:08Z</time>
      </trkpt>
      <trkpt lat="42.7735840" lon="0.0414720">
        <ele>1222.4</ele>
        <time>2020-07-26T10:02:12Z</time>
      </trkpt>
      <trkpt lat="42.7735470" lon="0.0415200">
        <ele>1223.0</ele>
        <time>2020-07-26T10:02:14Z</time>
      </trkpt>
      <trkpt lat="42.7735180" lon="0.0415630">
        <ele>1223.4</ele>
        <time>2020-07-26T10:02:16Z</time>
      </trkpt>
      <trkpt lat="42.7735010" lon="0.0415830">
        <ele>1223.6</ele>
        <time>2020-07-26T10:02:17Z</time>
      </trkpt>
      <trkpt lat="42.7734390" lon="0.0416440">
        <ele>1224.0</ele>
        <time>2020-07-26T10:02:20Z</time>
      </trkpt>
      <trkpt lat="42.7733730" lon="0.0417130">
        <ele>1224.8</ele>
        <time>2020-07-26T10:02:23Z</time>
      </trkpt>
      <trkpt lat="42.7733250" lon="0.0418010">
        <ele>1226.0</ele>
        <time>2020-07-26T10:02:26Z</time>
      </trkpt>
      <trkpt lat="42.7732940" lon="0.0418600">
        <ele>1226.4</ele>
        <time>2020-07-26T10:02:28Z</time>
      </trkpt>
      <trkpt lat="42.7732670" lon="0.0419210">
        <ele>1227.0</ele>
        <time>2020-07-26T10:02:30Z</time>
      </trkpt>
      <trkpt lat="42.7731740" lon="0.0420950">
        <ele>1228.0</ele>
        <time>2020-07-26T10:02:36Z</time>
      </trkpt>
      <trkpt lat="42.7731590" lon="0.0421220">
        <ele>1228.0</ele>
        <time>2020-07-26T10:02:37Z</time>
      </trkpt>
      <trkpt lat="42.7731400" lon="0.0421460">
        <ele>1228.4</ele>
        <time>2020-07-26T10:02:38Z</time>
      </trkpt>
      <trkpt lat="42.7730980" lon="0.0421820">
        <ele>1228.8</ele>
        <time>2020-07-26T10:02:40Z</time>
      </trkpt>
      <trkpt lat="42.7730570" lon="0.0422190">
        <ele>1229.2</ele>
        <time>2020-07-26T10:02:42Z</time>
      </trkpt>
      <trkpt lat="42.7729950" lon="0.0422720">
        <ele>1229.6</ele>
        <time>2020-07-26T10:02:45Z</time>
      </trkpt>
      <trkpt lat="42.7729540" lon="0.0423140">
        <ele>1230.2</ele>
        <time>2020-07-26T10:02:47Z</time>
      </trkpt>
      <trkpt lat="42.7728670" lon="0.0423910">
        <ele>1231.2</ele>
        <time>2020-07-26T10:02:51Z</time>
      </trkpt>
      <trkpt lat="42.7728020" lon="0.0424440">
        <ele>1232.0</ele>
        <time>2020-07-26T10:02:54Z</time>
      </trkpt>
      <trkpt lat="42.7727800" lon="0.0424590">
        <ele>1232.2</ele>
        <time>2020-07-26T10:02:55Z</time>
      </trkpt>
      <trkpt lat="42.7726690" lon="0.0425500">
        <ele>1233.4</ele>
        <time>2020-07-26T10:03:00Z</time>
      </trkpt>
      <trkpt lat="42.7726220" lon="0.0425880">
        <ele>1234.2</ele>
        <time>2020-07-26T10:03:02Z</time>
      </trkpt>
      <trkpt lat="42.7725670" lon="0.0426300">
        <ele>1234.6</ele>
        <time>2020-07-26T10:03:04Z</time>
      </trkpt>
      <trkpt lat="42.7724680" lon="0.0427300">
        <ele>1235.8</ele>
        <time>2020-07-26T10:03:08Z</time>
      </trkpt>
      <trkpt lat="42.7723520" lon="0.0428600">
        <ele>1236.8</ele>
        <time>2020-07-26T10:03:13Z</time>
      </trkpt>
      <trkpt lat="42.7722520" lon="0.0429610">
        <ele>1238.0</ele>
        <time>2020-07-26T10:03:17Z</time>
      </trkpt>
      <trkpt lat="42.7722300" lon="0.0429860">
        <ele>1238.2</ele>
        <time>2020-07-26T10:03:18Z</time>
      </trkpt>
      <trkpt lat="42.7721170" lon="0.0431070">
        <ele>1239.2</ele>
        <time>2020-07-26T10:03:23Z</time>
      </trkpt>
      <trkpt lat="42.7720270" lon="0.0431820">
        <ele>1239.6</ele>
        <time>2020-07-26T10:03:27Z</time>
      </trkpt>
      <trkpt lat="42.7719750" lon="0.0432300">
        <ele>1240.2</ele>
        <time>2020-07-26T10:03:29Z</time>
      </trkpt>
      <trkpt lat="42.7718680" lon="0.0433360">
        <ele>1241.4</ele>
        <time>2020-07-26T10:03:33Z</time>
      </trkpt>
      <trkpt lat="42.7718200" lon="0.0433850">
        <ele>1242.0</ele>
        <time>2020-07-26T10:03:35Z</time>
      </trkpt>
      <trkpt lat="42.7717690" lon="0.0434340">
        <ele>1242.4</ele>
        <time>2020-07-26T10:03:37Z</time>
      </trkpt>
      <trkpt lat="42.7716660" lon="0.0435310">
        <ele>1243.0</ele>
        <time>2020-07-26T10:03:40Z</time>
      </trkpt>
      <trkpt lat="42.7715680" lon="0.0436520">
        <ele>1243.6</ele>
        <time>2020-07-26T10:03:43Z</time>
      </trkpt>
      <trkpt lat="42.7714390" lon="0.0438040">
        <ele>1245.0</ele>
        <time>2020-07-26T10:03:47Z</time>
      </trkpt>
      <trkpt lat="42.7713440" lon="0.0438970">
        <ele>1246.4</ele>
        <time>2020-07-26T10:03:50Z</time>
      </trkpt>
      <trkpt lat="42.7712470" lon="0.0439630">
        <ele>1247.0</ele>
        <time>2020-07-26T10:03:53Z</time>
      </trkpt>
      <trkpt lat="42.7712150" lon="0.0439800">
        <ele>1247.2</ele>
        <time>2020-07-26T10:03:54Z</time>
      </trkpt>
      <trkpt lat="42.7711810" lon="0.0439980">
        <ele>1247.2</ele>
        <time>2020-07-26T10:03:55Z</time>
      </trkpt>
      <trkpt lat="42.7711450" lon="0.0440210">
        <ele>1247.4</ele>
        <time>2020-07-26T10:03:56Z</time>
      </trkpt>
      <trkpt lat="42.7711080" lon="0.0440450">
        <ele>1247.4</ele>
        <time>2020-07-26T10:03:57Z</time>
      </trkpt>
      <trkpt lat="42.7709710" lon="0.0441620">
        <ele>1247.6</ele>
        <time>2020-07-26T10:04:01Z</time>
      </trkpt>
      <trkpt lat="42.7708130" lon="0.0443410">
        <ele>1248.2</ele>
        <time>2020-07-26T10:04:06Z</time>
      </trkpt>
      <trkpt lat="42.7707830" lon="0.0443870">
        <ele>1248.4</ele>
        <time>2020-07-26T10:04:07Z</time>
      </trkpt>
      <trkpt lat="42.7706050" lon="0.0446730">
        <ele>1248.8</ele>
        <time>2020-07-26T10:04:13Z</time>
      </trkpt>
      <trkpt lat="42.7705490" lon="0.0447750">
        <ele>1249.0</ele>
        <time>2020-07-26T10:04:15Z</time>
      </trkpt>
      <trkpt lat="42.7703850" lon="0.0450640">
        <ele>1249.4</ele>
        <time>2020-07-26T10:04:21Z</time>
      </trkpt>
      <trkpt lat="42.7703600" lon="0.0451120">
        <ele>1249.8</ele>
        <time>2020-07-26T10:04:22Z</time>
      </trkpt>
      <trkpt lat="42.7702590" lon="0.0453020">
        <ele>1250.4</ele>
        <time>2020-07-26T10:04:26Z</time>
      </trkpt>
      <trkpt lat="42.7701610" lon="0.0454970">
        <ele>1251.2</ele>
        <time>2020-07-26T10:04:30Z</time>
      </trkpt>
      <trkpt lat="42.7700870" lon="0.0456470">
        <ele>1251.0</ele>
        <time>2020-07-26T10:04:33Z</time>
      </trkpt>
      <trkpt lat="42.7700310" lon="0.0458050">
        <ele>1251.4</ele>
        <time>2020-07-26T10:04:36Z</time>
      </trkpt>
      <trkpt lat="42.7700220" lon="0.0458600">
        <ele>1251.6</ele>
        <time>2020-07-26T10:04:37Z</time>
      </trkpt>
      <trkpt lat="42.7700190" lon="0.0459160">
        <ele>1252.0</ele>
        <time>2020-07-26T10:04:38Z</time>
      </trkpt>
      <trkpt lat="42.7700420" lon="0.0460310">
        <ele>1252.2</ele>
        <time>2020-07-26T10:04:40Z</time>
      </trkpt>
      <trkpt lat="42.7700770" lon="0.0461450">
        <ele>1252.6</ele>
        <time>2020-07-26T10:04:42Z</time>
      </trkpt>
      <trkpt lat="42.7701300" lon="0.0463250">
        <ele>1253.0</ele>
        <time>2020-07-26T10:04:45Z</time>
      </trkpt>
      <trkpt lat="42.7701360" lon="0.0464460">
        <ele>1253.2</ele>
        <time>2020-07-26T10:04:47Z</time>
      </trkpt>
      <trkpt lat="42.7700850" lon="0.0465920">
        <ele>1253.4</ele>
        <time>2020-07-26T10:04:50Z</time>
      </trkpt>
      <trkpt lat="42.7700620" lon="0.0466280">
        <ele>1253.6</ele>
        <time>2020-07-26T10:04:51Z</time>
      </trkpt>
      <trkpt lat="42.7700400" lon="0.0466610">
        <ele>1253.8</ele>
        <time>2020-07-26T10:04:52Z</time>
      </trkpt>
      <trkpt lat="42.7700170" lon="0.0466910">
        <ele>1254.2</ele>
        <time>2020-07-26T10:04:53Z</time>
      </trkpt>
      <trkpt lat="42.7699940" lon="0.0467190">
        <ele>1254.6</ele>
        <time>2020-07-26T10:04:54Z</time>
      </trkpt>
      <trkpt lat="42.7699730" lon="0.0467440">
        <ele>1255.2</ele>
        <time>2020-07-26T10:04:55Z</time>
      </trkpt>
      <trkpt lat="42.7699170" lon="0.0468320">
        <ele>1256.2</ele>
        <time>2020-07-26T10:04:58Z</time>
      </trkpt>
      <trkpt lat="42.7698950" lon="0.0468620">
        <ele>1256.4</ele>
        <time>2020-07-26T10:04:59Z</time>
      </trkpt>
      <trkpt lat="42.7698300" lon="0.0469530">
        <ele>1257.4</ele>
        <time>2020-07-26T10:05:02Z</time>
      </trkpt>
      <trkpt lat="42.7698080" lon="0.0469850">
        <ele>1257.6</ele>
        <time>2020-07-26T10:05:03Z</time>
      </trkpt>
      <trkpt lat="42.7697460" lon="0.0470760">
        <ele>1258.0</ele>
        <time>2020-07-26T10:05:06Z</time>
      </trkpt>
      <trkpt lat="42.7696640" lon="0.0471850">
        <ele>1259.0</ele>
        <time>2020-07-26T10:05:10Z</time>
      </trkpt>
      <trkpt lat="42.7695580" lon="0.0472950">
        <ele>1260.2</ele>
        <time>2020-07-26T10:05:15Z</time>
      </trkpt>
      <trkpt lat="42.7695120" lon="0.0473400">
        <ele>1260.6</ele>
        <time>2020-07-26T10:05:17Z</time>
      </trkpt>
      <trkpt lat="42.7694690" lon="0.0473830">
        <ele>1261.0</ele>
        <time>2020-07-26T10:05:19Z</time>
      </trkpt>
      <trkpt lat="42.7694470" lon="0.0474030">
        <ele>1261.2</ele>
        <time>2020-07-26T10:05:20Z</time>
      </trkpt>
      <trkpt lat="42.7693820" lon="0.0474610">
        <ele>1262.2</ele>
        <time>2020-07-26T10:05:23Z</time>
      </trkpt>
      <trkpt lat="42.7693590" lon="0.0474750">
        <ele>1262.6</ele>
        <time>2020-07-26T10:05:24Z</time>
      </trkpt>
      <trkpt lat="42.7692930" lon="0.0475160">
        <ele>1263.4</ele>
        <time>2020-07-26T10:05:27Z</time>
      </trkpt>
      <trkpt lat="42.7692090" lon="0.0475550">
        <ele>1264.4</ele>
        <time>2020-07-26T10:05:32Z</time>
      </trkpt>
      <trkpt lat="42.7691980" lon="0.0475540">
        <ele>1264.6</ele>
        <time>2020-07-26T10:05:33Z</time>
      </trkpt>
      <trkpt lat="42.7691110" lon="0.0475700">
        <ele>1265.0</ele>
        <time>2020-07-26T10:05:39Z</time>
      </trkpt>
      <trkpt lat="42.7690670" lon="0.0475920">
        <ele>1265.6</ele>
        <time>2020-07-26T10:05:41Z</time>
      </trkpt>
      <trkpt lat="42.7689720" lon="0.0476330">
        <ele>1266.6</ele>
        <time>2020-07-26T10:05:45Z</time>
      </trkpt>
      <trkpt lat="42.7689270" lon="0.0476540">
        <ele>1267.2</ele>
        <time>2020-07-26T10:05:47Z</time>
      </trkpt>
      <trkpt lat="42.7688650" lon="0.0476930">
        <ele>1267.8</ele>
        <time>2020-07-26T10:05:50Z</time>
      </trkpt>
      <trkpt lat="42.7687770" lon="0.0477470">
        <ele>1268.6</ele>
        <time>2020-07-26T10:05:54Z</time>
      </trkpt>
      <trkpt lat="42.7687550" lon="0.0477620">
        <ele>1268.8</ele>
        <time>2020-07-26T10:05:55Z</time>
      </trkpt>
      <trkpt lat="42.7687120" lon="0.0477890">
        <ele>1269.4</ele>
        <time>2020-07-26T10:05:57Z</time>
      </trkpt>
      <trkpt lat="42.7686700" lon="0.0478130">
        <ele>1269.8</ele>
        <time>2020-07-26T10:05:59Z</time>
      </trkpt>
      <trkpt lat="42.7686040" lon="0.0478330">
        <ele>1271.0</ele>
        <time>2020-07-26T10:06:02Z</time>
      </trkpt>
      <trkpt lat="42.7685580" lon="0.0478470">
        <ele>1271.6</ele>
        <time>2020-07-26T10:06:04Z</time>
      </trkpt>
      <trkpt lat="42.7684910" lon="0.0478740">
        <ele>1272.0</ele>
        <time>2020-07-26T10:06:07Z</time>
      </trkpt>
      <trkpt lat="42.7683650" lon="0.0479600">
        <ele>1273.4</ele>
        <time>2020-07-26T10:06:13Z</time>
      </trkpt>
      <trkpt lat="42.7682790" lon="0.0480180">
        <ele>1274.4</ele>
        <time>2020-07-26T10:06:17Z</time>
      </trkpt>
      <trkpt lat="42.7682590" lon="0.0480320">
        <ele>1274.6</ele>
        <time>2020-07-26T10:06:18Z</time>
      </trkpt>
      <trkpt lat="42.7681990" lon="0.0480740">
        <ele>1275.4</ele>
        <time>2020-07-26T10:06:21Z</time>
      </trkpt>
      <trkpt lat="42.7681550" lon="0.0481060">
        <ele>1275.8</ele>
        <time>2020-07-26T10:06:23Z</time>
      </trkpt>
      <trkpt lat="42.7680860" lon="0.0481540">
        <ele>1277.0</ele>
        <time>2020-07-26T10:06:26Z</time>
      </trkpt>
      <trkpt lat="42.7680460" lon="0.0481770">
        <ele>1277.6</ele>
        <time>2020-07-26T10:06:28Z</time>
      </trkpt>
      <trkpt lat="42.7679840" lon="0.0482120">
        <ele>1278.2</ele>
        <time>2020-07-26T10:06:31Z</time>
      </trkpt>
      <trkpt lat="42.7678570" lon="0.0482870">
        <ele>1279.4</ele>
        <time>2020-07-26T10:06:36Z</time>
      </trkpt>
      <trkpt lat="42.7677080" lon="0.0483230">
        <ele>1280.4</ele>
        <time>2020-07-26T10:06:41Z</time>
      </trkpt>
      <trkpt lat="42.7676120" lon="0.0483740">
        <ele>1280.8</ele>
        <time>2020-07-26T10:06:44Z</time>
      </trkpt>
      <trkpt lat="42.7674270" lon="0.0485630">
        <ele>1281.6</ele>
        <time>2020-07-26T10:06:50Z</time>
      </trkpt>
      <trkpt lat="42.7673690" lon="0.0486350">
        <ele>1281.8</ele>
        <time>2020-07-26T10:06:52Z</time>
      </trkpt>
      <trkpt lat="42.7672000" lon="0.0487690">
        <ele>1282.6</ele>
        <time>2020-07-26T10:06:57Z</time>
      </trkpt>
      <trkpt lat="42.7671670" lon="0.0487880">
        <ele>1282.8</ele>
        <time>2020-07-26T10:06:58Z</time>
      </trkpt>
      <trkpt lat="42.7669620" lon="0.0489150">
        <ele>1283.8</ele>
        <time>2020-07-26T10:07:04Z</time>
      </trkpt>
      <trkpt lat="42.7669260" lon="0.0489320">
        <ele>1284.0</ele>
        <time>2020-07-26T10:07:05Z</time>
      </trkpt>
      <trkpt lat="42.7667890" lon="0.0490020">
        <ele>1285.0</ele>
        <time>2020-07-26T10:07:09Z</time>
      </trkpt>
      <trkpt lat="42.7666550" lon="0.0490670">
        <ele>1286.2</ele>
        <time>2020-07-26T10:07:13Z</time>
      </trkpt>
      <trkpt lat="42.7666230" lon="0.0490900">
        <ele>1286.4</ele>
        <time>2020-07-26T10:07:14Z</time>
      </trkpt>
      <trkpt lat="42.7665020" lon="0.0491990">
        <ele>1287.2</ele>
        <time>2020-07-26T10:07:18Z</time>
      </trkpt>
      <trkpt lat="42.7664190" lon="0.0492970">
        <ele>1288.0</ele>
        <time>2020-07-26T10:07:21Z</time>
      </trkpt>
      <trkpt lat="42.7663920" lon="0.0493290">
        <ele>1288.2</ele>
        <time>2020-07-26T10:07:22Z</time>
      </trkpt>
      <trkpt lat="42.7662090" lon="0.0494880">
        <ele>1289.2</ele>
        <time>2020-07-26T10:07:28Z</time>
      </trkpt>
      <trkpt lat="42.7661740" lon="0.0494990">
        <ele>1289.4</ele>
        <time>2020-07-26T10:07:29Z</time>
      </trkpt>
      <trkpt lat="42.7660330" lon="0.0495050">
        <ele>1290.6</ele>
        <time>2020-07-26T10:07:33Z</time>
      </trkpt>
      <trkpt lat="42.7658220" lon="0.0495170">
        <ele>1291.2</ele>
        <time>2020-07-26T10:07:39Z</time>
      </trkpt>
      <trkpt lat="42.7657820" lon="0.0495140">
        <ele>1291.2</ele>
        <time>2020-07-26T10:07:40Z</time>
      </trkpt>
      <trkpt lat="42.7656780" lon="0.0495240">
        <ele>1291.6</ele>
        <time>2020-07-26T10:07:43Z</time>
      </trkpt>
      <trkpt lat="42.7656450" lon="0.0495290">
        <ele>1291.8</ele>
        <time>2020-07-26T10:07:44Z</time>
      </trkpt>
      <trkpt lat="42.7655060" lon="0.0495630">
        <ele>1292.8</ele>
        <time>2020-07-26T10:07:48Z</time>
      </trkpt>
      <trkpt lat="42.7653810" lon="0.0496410">
        <ele>1294.0</ele>
        <time>2020-07-26T10:07:52Z</time>
      </trkpt>
      <trkpt lat="42.7652230" lon="0.0497920">
        <ele>1294.6</ele>
        <time>2020-07-26T10:07:58Z</time>
      </trkpt>
      <trkpt lat="42.7651400" lon="0.0498710">
        <ele>1294.8</ele>
        <time>2020-07-26T10:08:01Z</time>
      </trkpt>
      <trkpt lat="42.7650610" lon="0.0499480">
        <ele>1294.8</ele>
        <time>2020-07-26T10:08:04Z</time>
      </trkpt>
      <trkpt lat="42.7649810" lon="0.0500310">
        <ele>1295.0</ele>
        <time>2020-07-26T10:08:07Z</time>
      </trkpt>
      <trkpt lat="42.7649230" lon="0.0500950">
        <ele>1295.2</ele>
        <time>2020-07-26T10:08:09Z</time>
      </trkpt>
      <trkpt lat="42.7647540" lon="0.0502680">
        <ele>1295.6</ele>
        <time>2020-07-26T10:08:15Z</time>
      </trkpt>
      <trkpt lat="42.7647160" lon="0.0503530">
        <ele>1295.8</ele>
        <time>2020-07-26T10:08:18Z</time>
      </trkpt>
      <trkpt lat="42.7645990" lon="0.0503890">
        <ele>1295.6</ele>
        <time>2020-07-26T10:09:01Z</time>
      </trkpt>
      <trkpt lat="42.7645200" lon="0.0504690">
        <ele>1295.6</ele>
        <time>2020-07-26T10:09:04Z</time>
      </trkpt>
      <trkpt lat="42.7644860" lon="0.0505050">
        <ele>1296.0</ele>
        <time>2020-07-26T10:09:05Z</time>
      </trkpt>
      <trkpt lat="42.7644490" lon="0.0505440">
        <ele>1296.2</ele>
        <time>2020-07-26T10:09:06Z</time>
      </trkpt>
      <trkpt lat="42.7642140" lon="0.0507890">
        <ele>1297.0</ele>
        <time>2020-07-26T10:09:12Z</time>
      </trkpt>
      <trkpt lat="42.7641740" lon="0.0508320">
        <ele>1297.4</ele>
        <time>2020-07-26T10:09:13Z</time>
      </trkpt>
      <trkpt lat="42.7639620" lon="0.0511360">
        <ele>1298.0</ele>
        <time>2020-07-26T10:09:19Z</time>
      </trkpt>
      <trkpt lat="42.7639340" lon="0.0511940">
        <ele>1298.2</ele>
        <time>2020-07-26T10:09:20Z</time>
      </trkpt>
      <trkpt lat="42.7639100" lon="0.0512550">
        <ele>1298.6</ele>
        <time>2020-07-26T10:09:21Z</time>
      </trkpt>
      <trkpt lat="42.7638440" lon="0.0514350">
        <ele>1299.4</ele>
        <time>2020-07-26T10:09:24Z</time>
      </trkpt>
      <trkpt lat="42.7638220" lon="0.0514950">
        <ele>1299.6</ele>
        <time>2020-07-26T10:09:25Z</time>
      </trkpt>
      <trkpt lat="42.7637760" lon="0.0516100">
        <ele>1300.0</ele>
        <time>2020-07-26T10:09:27Z</time>
      </trkpt>
      <trkpt lat="42.7635860" lon="0.0519350">
        <ele>1300.6</ele>
        <time>2020-07-26T10:09:33Z</time>
      </trkpt>
      <trkpt lat="42.7635460" lon="0.0519810">
        <ele>1300.6</ele>
        <time>2020-07-26T10:09:34Z</time>
      </trkpt>
      <trkpt lat="42.7634560" lon="0.0520560">
        <ele>1300.8</ele>
        <time>2020-07-26T10:09:36Z</time>
      </trkpt>
      <trkpt lat="42.7633150" lon="0.0521370">
        <ele>1301.2</ele>
        <time>2020-07-26T10:09:39Z</time>
      </trkpt>
      <trkpt lat="42.7631870" lon="0.0522090">
        <ele>1302.0</ele>
        <time>2020-07-26T10:09:42Z</time>
      </trkpt>
      <trkpt lat="42.7630700" lon="0.0522970">
        <ele>1302.4</ele>
        <time>2020-07-26T10:09:45Z</time>
      </trkpt>
      <trkpt lat="42.7629950" lon="0.0523720">
        <ele>1302.8</ele>
        <time>2020-07-26T10:09:47Z</time>
      </trkpt>
      <trkpt lat="42.7629190" lon="0.0524490">
        <ele>1303.2</ele>
        <time>2020-07-26T10:09:49Z</time>
      </trkpt>
      <trkpt lat="42.7627640" lon="0.0525950">
        <ele>1304.2</ele>
        <time>2020-07-26T10:09:53Z</time>
      </trkpt>
      <trkpt lat="42.7626440" lon="0.0526940">
        <ele>1305.0</ele>
        <time>2020-07-26T10:09:56Z</time>
      </trkpt>
      <trkpt lat="42.7625210" lon="0.0527840">
        <ele>1305.4</ele>
        <time>2020-07-26T10:09:59Z</time>
      </trkpt>
      <trkpt lat="42.7623550" lon="0.0528950">
        <ele>1306.4</ele>
        <time>2020-07-26T10:10:03Z</time>
      </trkpt>
      <trkpt lat="42.7623130" lon="0.0529210">
        <ele>1306.8</ele>
        <time>2020-07-26T10:10:04Z</time>
      </trkpt>
      <trkpt lat="42.7620860" lon="0.0530760">
        <ele>1307.6</ele>
        <time>2020-07-26T10:10:10Z</time>
      </trkpt>
      <trkpt lat="42.7620500" lon="0.0531000">
        <ele>1307.8</ele>
        <time>2020-07-26T10:10:11Z</time>
      </trkpt>
      <trkpt lat="42.7618890" lon="0.0532600">
        <ele>1308.8</ele>
        <time>2020-07-26T10:10:16Z</time>
      </trkpt>
      <trkpt lat="42.7618620" lon="0.0533040">
        <ele>1309.0</ele>
        <time>2020-07-26T10:10:17Z</time>
      </trkpt>
      <trkpt lat="42.7617620" lon="0.0534840">
        <ele>1309.8</ele>
        <time>2020-07-26T10:10:21Z</time>
      </trkpt>
      <trkpt lat="42.7616030" lon="0.0537570">
        <ele>1310.0</ele>
        <time>2020-07-26T10:10:27Z</time>
      </trkpt>
      <trkpt lat="42.7615500" lon="0.0538390">
        <ele>1310.2</ele>
        <time>2020-07-26T10:10:29Z</time>
      </trkpt>
      <trkpt lat="42.7615040" lon="0.0539130">
        <ele>1310.8</ele>
        <time>2020-07-26T10:10:31Z</time>
      </trkpt>
      <trkpt lat="42.7614470" lon="0.0540130">
        <ele>1312.4</ele>
        <time>2020-07-26T10:10:34Z</time>
      </trkpt>
      <trkpt lat="42.7613990" lon="0.0541100">
        <ele>1313.4</ele>
        <time>2020-07-26T10:10:37Z</time>
      </trkpt>
      <trkpt lat="42.7613070" lon="0.0542580">
        <ele>1314.8</ele>
        <time>2020-07-26T10:10:42Z</time>
      </trkpt>
      <trkpt lat="42.7612350" lon="0.0543720">
        <ele>1316.0</ele>
        <time>2020-07-26T10:10:46Z</time>
      </trkpt>
      <trkpt lat="42.7611650" lon="0.0544890">
        <ele>1317.0</ele>
        <time>2020-07-26T10:10:50Z</time>
      </trkpt>
      <trkpt lat="42.7611210" lon="0.0545890">
        <ele>1318.0</ele>
        <time>2020-07-26T10:10:53Z</time>
      </trkpt>
      <trkpt lat="42.7610840" lon="0.0547410">
        <ele>1319.4</ele>
        <time>2020-07-26T10:10:57Z</time>
      </trkpt>
      <trkpt lat="42.7610720" lon="0.0547750">
        <ele>1319.6</ele>
        <time>2020-07-26T10:10:58Z</time>
      </trkpt>
      <trkpt lat="42.7610410" lon="0.0548840">
        <ele>1320.4</ele>
        <time>2020-07-26T10:11:01Z</time>
      </trkpt>
      <trkpt lat="42.7609790" lon="0.0550130">
        <ele>1321.6</ele>
        <time>2020-07-26T10:11:05Z</time>
      </trkpt>
      <trkpt lat="42.7609620" lon="0.0550420">
        <ele>1321.8</ele>
        <time>2020-07-26T10:11:06Z</time>
      </trkpt>
      <trkpt lat="42.7609060" lon="0.0551220">
        <ele>1322.8</ele>
        <time>2020-07-26T10:11:09Z</time>
      </trkpt>
      <trkpt lat="42.7608290" lon="0.0552210">
        <ele>1323.8</ele>
        <time>2020-07-26T10:11:13Z</time>
      </trkpt>
      <trkpt lat="42.7608100" lon="0.0552450">
        <ele>1324.2</ele>
        <time>2020-07-26T10:11:14Z</time>
      </trkpt>
      <trkpt lat="42.7607560" lon="0.0553230">
        <ele>1325.0</ele>
        <time>2020-07-26T10:11:17Z</time>
      </trkpt>
      <trkpt lat="42.7607390" lon="0.0553470">
        <ele>1325.2</ele>
        <time>2020-07-26T10:11:18Z</time>
      </trkpt>
      <trkpt lat="42.7606600" lon="0.0554600">
        <ele>1326.4</ele>
        <time>2020-07-26T10:11:23Z</time>
      </trkpt>
      <trkpt lat="42.7606050" lon="0.0555700">
        <ele>1327.8</ele>
        <time>2020-07-26T10:11:27Z</time>
      </trkpt>
      <trkpt lat="42.7605470" lon="0.0556930">
        <ele>1328.2</ele>
        <time>2020-07-26T10:11:31Z</time>
      </trkpt>
      <trkpt lat="42.7604960" lon="0.0557760">
        <ele>1329.0</ele>
        <time>2020-07-26T10:11:34Z</time>
      </trkpt>
      <trkpt lat="42.7604240" lon="0.0558810">
        <ele>1330.0</ele>
        <time>2020-07-26T10:11:38Z</time>
      </trkpt>
      <trkpt lat="42.7603910" lon="0.0559330">
        <ele>1330.8</ele>
        <time>2020-07-26T10:11:40Z</time>
      </trkpt>
      <trkpt lat="42.7603730" lon="0.0559570">
        <ele>1331.0</ele>
        <time>2020-07-26T10:11:41Z</time>
      </trkpt>
      <trkpt lat="42.7603200" lon="0.0560380">
        <ele>1331.6</ele>
        <time>2020-07-26T10:11:44Z</time>
      </trkpt>
      <trkpt lat="42.7602890" lon="0.0561010">
        <ele>1332.2</ele>
        <time>2020-07-26T10:11:46Z</time>
      </trkpt>
      <trkpt lat="42.7602410" lon="0.0562140">
        <ele>1333.0</ele>
        <time>2020-07-26T10:11:50Z</time>
      </trkpt>
      <trkpt lat="42.7602300" lon="0.0562450">
        <ele>1333.4</ele>
        <time>2020-07-26T10:11:51Z</time>
      </trkpt>
      <trkpt lat="42.7602020" lon="0.0563130">
        <ele>1333.8</ele>
        <time>2020-07-26T10:11:53Z</time>
      </trkpt>
      <trkpt lat="42.7601760" lon="0.0563780">
        <ele>1334.6</ele>
        <time>2020-07-26T10:11:55Z</time>
      </trkpt>
      <trkpt lat="42.7601610" lon="0.0564090">
        <ele>1335.0</ele>
        <time>2020-07-26T10:11:56Z</time>
      </trkpt>
      <trkpt lat="42.7600970" lon="0.0565210">
        <ele>1335.8</ele>
        <time>2020-07-26T10:12:00Z</time>
      </trkpt>
      <trkpt lat="42.7600470" lon="0.0565940">
        <ele>1336.6</ele>
        <time>2020-07-26T10:12:03Z</time>
      </trkpt>
      <trkpt lat="42.7600290" lon="0.0566180">
        <ele>1336.8</ele>
        <time>2020-07-26T10:12:04Z</time>
      </trkpt>
      <trkpt lat="42.7599310" lon="0.0567410">
        <ele>1338.0</ele>
        <time>2020-07-26T10:12:09Z</time>
      </trkpt>
      <trkpt lat="42.7598790" lon="0.0568210">
        <ele>1338.8</ele>
        <time>2020-07-26T10:12:12Z</time>
      </trkpt>
      <trkpt lat="42.7598610" lon="0.0568480">
        <ele>1339.2</ele>
        <time>2020-07-26T10:12:13Z</time>
      </trkpt>
      <trkpt lat="42.7598180" lon="0.0569390">
        <ele>1340.2</ele>
        <time>2020-07-26T10:12:16Z</time>
      </trkpt>
      <trkpt lat="42.7597730" lon="0.0570330">
        <ele>1341.2</ele>
        <time>2020-07-26T10:12:19Z</time>
      </trkpt>
      <trkpt lat="42.7597450" lon="0.0570900">
        <ele>1341.4</ele>
        <time>2020-07-26T10:12:21Z</time>
      </trkpt>
      <trkpt lat="42.7597170" lon="0.0571470">
        <ele>1341.8</ele>
        <time>2020-07-26T10:12:23Z</time>
      </trkpt>
      <trkpt lat="42.7597040" lon="0.0571760">
        <ele>1342.0</ele>
        <time>2020-07-26T10:12:24Z</time>
      </trkpt>
      <trkpt lat="42.7596910" lon="0.0572050">
        <ele>1342.4</ele>
        <time>2020-07-26T10:12:25Z</time>
      </trkpt>
      <trkpt lat="42.7596400" lon="0.0573260">
        <ele>1343.8</ele>
        <time>2020-07-26T10:12:29Z</time>
      </trkpt>
      <trkpt lat="42.7596170" lon="0.0573930">
        <ele>1344.6</ele>
        <time>2020-07-26T10:12:31Z</time>
      </trkpt>
      <trkpt lat="42.7595870" lon="0.0574520">
        <ele>1344.8</ele>
        <time>2020-07-26T10:12:33Z</time>
      </trkpt>
      <trkpt lat="42.7595210" lon="0.0576050">
        <ele>1345.8</ele>
        <time>2020-07-26T10:12:38Z</time>
      </trkpt>
      <trkpt lat="42.7595090" lon="0.0576380">
        <ele>1346.0</ele>
        <time>2020-07-26T10:12:39Z</time>
      </trkpt>
      <trkpt lat="42.7594510" lon="0.0577630">
        <ele>1347.0</ele>
        <time>2020-07-26T10:12:43Z</time>
      </trkpt>
      <trkpt lat="42.7593810" lon="0.0578720">
        <ele>1348.0</ele>
        <time>2020-07-26T10:12:47Z</time>
      </trkpt>
      <trkpt lat="42.7593600" lon="0.0578960">
        <ele>1348.0</ele>
        <time>2020-07-26T10:12:48Z</time>
      </trkpt>
      <trkpt lat="42.7592780" lon="0.0579840">
        <ele>1349.2</ele>
        <time>2020-07-26T10:12:52Z</time>
      </trkpt>
      <trkpt lat="42.7592220" lon="0.0580540">
        <ele>1350.4</ele>
        <time>2020-07-26T10:12:55Z</time>
      </trkpt>
      <trkpt lat="42.7591350" lon="0.0581830">
        <ele>1351.6</ele>
        <time>2020-07-26T10:13:00Z</time>
      </trkpt>
      <trkpt lat="42.7591050" lon="0.0582340">
        <ele>1352.0</ele>
        <time>2020-07-26T10:13:02Z</time>
      </trkpt>
      <trkpt lat="42.7590430" lon="0.0583580">
        <ele>1352.8</ele>
        <time>2020-07-26T10:13:06Z</time>
      </trkpt>
      <trkpt lat="42.7590310" lon="0.0583930">
        <ele>1353.0</ele>
        <time>2020-07-26T10:13:07Z</time>
      </trkpt>
      <trkpt lat="42.7590060" lon="0.0584610">
        <ele>1353.8</ele>
        <time>2020-07-26T10:13:09Z</time>
      </trkpt>
      <trkpt lat="42.7589720" lon="0.0585650">
        <ele>1355.0</ele>
        <time>2020-07-26T10:13:12Z</time>
      </trkpt>
      <trkpt lat="42.7589380" lon="0.0587040">
        <ele>1356.2</ele>
        <time>2020-07-26T10:13:16Z</time>
      </trkpt>
      <trkpt lat="42.7589290" lon="0.0587400">
        <ele>1356.4</ele>
        <time>2020-07-26T10:13:17Z</time>
      </trkpt>
      <trkpt lat="42.7589140" lon="0.0588060">
        <ele>1356.8</ele>
        <time>2020-07-26T10:13:19Z</time>
      </trkpt>
      <trkpt lat="42.7588950" lon="0.0588670">
        <ele>1357.2</ele>
        <time>2020-07-26T10:13:21Z</time>
      </trkpt>
      <trkpt lat="42.7588530" lon="0.0589900">
        <ele>1358.6</ele>
        <time>2020-07-26T10:13:25Z</time>
      </trkpt>
      <trkpt lat="42.7588400" lon="0.0590200">
        <ele>1358.8</ele>
        <time>2020-07-26T10:13:26Z</time>
      </trkpt>
      <trkpt lat="42.7587750" lon="0.0591280">
        <ele>1359.6</ele>
        <time>2020-07-26T10:13:30Z</time>
      </trkpt>
      <trkpt lat="42.7587380" lon="0.0591760">
        <ele>1359.8</ele>
        <time>2020-07-26T10:13:32Z</time>
      </trkpt>
      <trkpt lat="42.7586980" lon="0.0592150">
        <ele>1360.8</ele>
        <time>2020-07-26T10:13:34Z</time>
      </trkpt>
      <trkpt lat="42.7586230" lon="0.0593070">
        <ele>1362.0</ele>
        <time>2020-07-26T10:13:38Z</time>
      </trkpt>
      <trkpt lat="42.7585900" lon="0.0593620">
        <ele>1362.6</ele>
        <time>2020-07-26T10:13:40Z</time>
      </trkpt>
      <trkpt lat="42.7585620" lon="0.0594190">
        <ele>1363.0</ele>
        <time>2020-07-26T10:13:42Z</time>
      </trkpt>
      <trkpt lat="42.7585160" lon="0.0595370">
        <ele>1364.0</ele>
        <time>2020-07-26T10:13:46Z</time>
      </trkpt>
      <trkpt lat="42.7585040" lon="0.0595660">
        <ele>1364.4</ele>
        <time>2020-07-26T10:13:47Z</time>
      </trkpt>
      <trkpt lat="42.7584790" lon="0.0596560">
        <ele>1365.2</ele>
        <time>2020-07-26T10:13:50Z</time>
      </trkpt>
      <trkpt lat="42.7584730" lon="0.0596870">
        <ele>1365.4</ele>
        <time>2020-07-26T10:13:51Z</time>
      </trkpt>
      <trkpt lat="42.7584540" lon="0.0597810">
        <ele>1366.2</ele>
        <time>2020-07-26T10:13:54Z</time>
      </trkpt>
      <trkpt lat="42.7584280" lon="0.0599310">
        <ele>1367.2</ele>
        <time>2020-07-26T10:13:59Z</time>
      </trkpt>
      <trkpt lat="42.7584210" lon="0.0599590">
        <ele>1367.2</ele>
        <time>2020-07-26T10:14:00Z</time>
      </trkpt>
      <trkpt lat="42.7583840" lon="0.0601030">
        <ele>1368.4</ele>
        <time>2020-07-26T10:14:05Z</time>
      </trkpt>
      <trkpt lat="42.7583530" lon="0.0602150">
        <ele>1369.4</ele>
        <time>2020-07-26T10:14:09Z</time>
      </trkpt>
      <trkpt lat="42.7583450" lon="0.0602460">
        <ele>1369.8</ele>
        <time>2020-07-26T10:14:10Z</time>
      </trkpt>
      <trkpt lat="42.7583230" lon="0.0603060">
        <ele>1370.4</ele>
        <time>2020-07-26T10:14:12Z</time>
      </trkpt>
      <trkpt lat="42.7582910" lon="0.0603810">
        <ele>1371.6</ele>
        <time>2020-07-26T10:14:15Z</time>
      </trkpt>
      <trkpt lat="42.7582680" lon="0.0604270">
        <ele>1372.0</ele>
        <time>2020-07-26T10:14:17Z</time>
      </trkpt>
      <trkpt lat="42.7582190" lon="0.0605710">
        <ele>1372.8</ele>
        <time>2020-07-26T10:14:22Z</time>
      </trkpt>
      <trkpt lat="42.7581960" lon="0.0606270">
        <ele>1373.6</ele>
        <time>2020-07-26T10:14:24Z</time>
      </trkpt>
      <trkpt lat="42.7581860" lon="0.0606550">
        <ele>1373.8</ele>
        <time>2020-07-26T10:14:25Z</time>
      </trkpt>
      <trkpt lat="42.7581290" lon="0.0607450">
        <ele>1374.8</ele>
        <time>2020-07-26T10:14:29Z</time>
      </trkpt>
      <trkpt lat="42.7580970" lon="0.0607830">
        <ele>1375.2</ele>
        <time>2020-07-26T10:14:31Z</time>
      </trkpt>
      <trkpt lat="42.7580540" lon="0.0608390">
        <ele>1376.0</ele>
        <time>2020-07-26T10:14:34Z</time>
      </trkpt>
      <trkpt lat="42.7580040" lon="0.0609200">
        <ele>1377.0</ele>
        <time>2020-07-26T10:14:38Z</time>
      </trkpt>
      <trkpt lat="42.7579540" lon="0.0610180">
        <ele>1377.8</ele>
        <time>2020-07-26T10:14:42Z</time>
      </trkpt>
      <trkpt lat="42.7579410" lon="0.0610410">
        <ele>1378.2</ele>
        <time>2020-07-26T10:14:43Z</time>
      </trkpt>
      <trkpt lat="42.7579100" lon="0.0611250">
        <ele>1379.2</ele>
        <time>2020-07-26T10:14:46Z</time>
      </trkpt>
      <trkpt lat="42.7579050" lon="0.0611540">
        <ele>1379.6</ele>
        <time>2020-07-26T10:14:47Z</time>
      </trkpt>
      <trkpt lat="42.7579050" lon="0.0612820">
        <ele>1381.0</ele>
        <time>2020-07-26T10:14:51Z</time>
      </trkpt>
      <trkpt lat="42.7579060" lon="0.0613510">
        <ele>1381.8</ele>
        <time>2020-07-26T10:14:53Z</time>
      </trkpt>
      <trkpt lat="42.7579040" lon="0.0613840">
        <ele>1382.2</ele>
        <time>2020-07-26T10:14:54Z</time>
      </trkpt>
      <trkpt lat="42.7578900" lon="0.0615240">
        <ele>1383.4</ele>
        <time>2020-07-26T10:14:58Z</time>
      </trkpt>
      <trkpt lat="42.7578820" lon="0.0616280">
        <ele>1384.6</ele>
        <time>2020-07-26T10:15:01Z</time>
      </trkpt>
      <trkpt lat="42.7578740" lon="0.0616940">
        <ele>1385.4</ele>
        <time>2020-07-26T10:15:03Z</time>
      </trkpt>
      <trkpt lat="42.7578560" lon="0.0617570">
        <ele>1385.8</ele>
        <time>2020-07-26T10:15:05Z</time>
      </trkpt>
      <trkpt lat="42.7577910" lon="0.0618620">
        <ele>1386.8</ele>
        <time>2020-07-26T10:15:09Z</time>
      </trkpt>
      <trkpt lat="42.7576780" lon="0.0619360">
        <ele>1388.0</ele>
        <time>2020-07-26T10:15:14Z</time>
      </trkpt>
      <trkpt lat="42.7576530" lon="0.0619410">
        <ele>1388.2</ele>
        <time>2020-07-26T10:15:15Z</time>
      </trkpt>
      <trkpt lat="42.7575550" lon="0.0619200">
        <ele>1389.4</ele>
        <time>2020-07-26T10:15:19Z</time>
      </trkpt>
      <trkpt lat="42.7575050" lon="0.0619010">
        <ele>1390.2</ele>
        <time>2020-07-26T10:15:21Z</time>
      </trkpt>
      <trkpt lat="42.7574790" lon="0.0618910">
        <ele>1390.4</ele>
        <time>2020-07-26T10:15:22Z</time>
      </trkpt>
      <trkpt lat="42.7573840" lon="0.0618600">
        <ele>1391.8</ele>
        <time>2020-07-26T10:15:26Z</time>
      </trkpt>
      <trkpt lat="42.7573620" lon="0.0618680">
        <ele>1392.2</ele>
        <time>2020-07-26T10:15:27Z</time>
      </trkpt>
      <trkpt lat="42.7573060" lon="0.0619110">
        <ele>1392.8</ele>
        <time>2020-07-26T10:15:30Z</time>
      </trkpt>
      <trkpt lat="42.7572790" lon="0.0619860">
        <ele>1393.2</ele>
        <time>2020-07-26T10:15:33Z</time>
      </trkpt>
      <trkpt lat="42.7572850" lon="0.0621110">
        <ele>1394.0</ele>
        <time>2020-07-26T10:15:37Z</time>
      </trkpt>
      <trkpt lat="42.7573010" lon="0.0621800">
        <ele>1394.8</ele>
        <time>2020-07-26T10:15:39Z</time>
      </trkpt>
      <trkpt lat="42.7573070" lon="0.0622140">
        <ele>1395.0</ele>
        <time>2020-07-26T10:15:40Z</time>
      </trkpt>
      <trkpt lat="42.7573560" lon="0.0623340">
        <ele>1396.2</ele>
        <time>2020-07-26T10:15:44Z</time>
      </trkpt>
      <trkpt lat="42.7573650" lon="0.0623620">
        <ele>1396.4</ele>
        <time>2020-07-26T10:15:45Z</time>
      </trkpt>
      <trkpt lat="42.7574000" lon="0.0624340">
        <ele>1396.8</ele>
        <time>2020-07-26T10:15:48Z</time>
      </trkpt>
      <trkpt lat="42.7574190" lon="0.0624860">
        <ele>1397.4</ele>
        <time>2020-07-26T10:15:50Z</time>
      </trkpt>
      <trkpt lat="42.7574340" lon="0.0625430">
        <ele>1397.8</ele>
        <time>2020-07-26T10:15:52Z</time>
      </trkpt>
      <trkpt lat="42.7574600" lon="0.0626500">
        <ele>1398.6</ele>
        <time>2020-07-26T10:15:56Z</time>
      </trkpt>
      <trkpt lat="42.7574650" lon="0.0627350">
        <ele>1399.6</ele>
        <time>2020-07-26T10:15:59Z</time>
      </trkpt>
      <trkpt lat="42.7574650" lon="0.0627650">
        <ele>1400.0</ele>
        <time>2020-07-26T10:16:00Z</time>
      </trkpt>
      <trkpt lat="42.7574620" lon="0.0628260">
        <ele>1400.6</ele>
        <time>2020-07-26T10:16:02Z</time>
      </trkpt>
      <trkpt lat="42.7574350" lon="0.0629400">
        <ele>1401.8</ele>
        <time>2020-07-26T10:16:06Z</time>
      </trkpt>
      <trkpt lat="42.7574230" lon="0.0629970">
        <ele>1402.4</ele>
        <time>2020-07-26T10:16:08Z</time>
      </trkpt>
      <trkpt lat="42.7573870" lon="0.0630660">
        <ele>1403.0</ele>
        <time>2020-07-26T10:16:11Z</time>
      </trkpt>
      <trkpt lat="42.7573570" lon="0.0631020">
        <ele>1403.6</ele>
        <time>2020-07-26T10:16:13Z</time>
      </trkpt>
      <trkpt lat="42.7573240" lon="0.0631330">
        <ele>1404.0</ele>
        <time>2020-07-26T10:16:15Z</time>
      </trkpt>
      <trkpt lat="42.7572320" lon="0.0631840">
        <ele>1405.2</ele>
        <time>2020-07-26T10:16:20Z</time>
      </trkpt>
      <trkpt lat="42.7571980" lon="0.0632060">
        <ele>1406.0</ele>
        <time>2020-07-26T10:16:22Z</time>
      </trkpt>
      <trkpt lat="42.7571810" lon="0.0632190">
        <ele>1406.4</ele>
        <time>2020-07-26T10:16:23Z</time>
      </trkpt>
      <trkpt lat="42.7570840" lon="0.0632910">
        <ele>1407.6</ele>
        <time>2020-07-26T10:16:29Z</time>
      </trkpt>
      <trkpt lat="42.7569870" lon="0.0633620">
        <ele>1408.8</ele>
        <time>2020-07-26T10:16:34Z</time>
      </trkpt>
      <trkpt lat="42.7569660" lon="0.0633800">
        <ele>1409.2</ele>
        <time>2020-07-26T10:16:35Z</time>
      </trkpt>
      <trkpt lat="42.7569300" lon="0.0634200">
        <ele>1410.2</ele>
        <time>2020-07-26T10:16:37Z</time>
      </trkpt>
      <trkpt lat="42.7568540" lon="0.0634980">
        <ele>1411.0</ele>
        <time>2020-07-26T10:16:41Z</time>
      </trkpt>
      <trkpt lat="42.7568370" lon="0.0635150">
        <ele>1411.2</ele>
        <time>2020-07-26T10:16:42Z</time>
      </trkpt>
      <trkpt lat="42.7567700" lon="0.0636020">
        <ele>1412.0</ele>
        <time>2020-07-26T10:16:46Z</time>
      </trkpt>
      <trkpt lat="42.7567390" lon="0.0636550">
        <ele>1412.6</ele>
        <time>2020-07-26T10:16:48Z</time>
      </trkpt>
      <trkpt lat="42.7567140" lon="0.0637150">
        <ele>1413.2</ele>
        <time>2020-07-26T10:16:50Z</time>
      </trkpt>
      <trkpt lat="42.7566790" lon="0.0638020">
        <ele>1413.6</ele>
        <time>2020-07-26T10:16:53Z</time>
      </trkpt>
      <trkpt lat="42.7566680" lon="0.0638310">
        <ele>1413.8</ele>
        <time>2020-07-26T10:16:54Z</time>
      </trkpt>
      <trkpt lat="42.7566220" lon="0.0639890">
        <ele>1414.8</ele>
        <time>2020-07-26T10:16:59Z</time>
      </trkpt>
      <trkpt lat="42.7566160" lon="0.0640210">
        <ele>1414.8</ele>
        <time>2020-07-26T10:17:00Z</time>
      </trkpt>
      <trkpt lat="42.7566130" lon="0.0640890">
        <ele>1415.4</ele>
        <time>2020-07-26T10:17:02Z</time>
      </trkpt>
      <trkpt lat="42.7566110" lon="0.0641900">
        <ele>1416.0</ele>
        <time>2020-07-26T10:17:05Z</time>
      </trkpt>
      <trkpt lat="42.7566380" lon="0.0643520">
        <ele>1416.2</ele>
        <time>2020-07-26T10:17:10Z</time>
      </trkpt>
      <trkpt lat="42.7566770" lon="0.0645000">
        <ele>1416.4</ele>
        <time>2020-07-26T10:17:14Z</time>
      </trkpt>
      <trkpt lat="42.7567080" lon="0.0646170">
        <ele>1416.8</ele>
        <time>2020-07-26T10:17:17Z</time>
      </trkpt>
      <trkpt lat="42.7567160" lon="0.0646600">
        <ele>1417.0</ele>
        <time>2020-07-26T10:17:18Z</time>
      </trkpt>
      <trkpt lat="42.7567350" lon="0.0648480">
        <ele>1417.8</ele>
        <time>2020-07-26T10:17:22Z</time>
      </trkpt>
      <trkpt lat="42.7567280" lon="0.0648900">
        <ele>1417.8</ele>
        <time>2020-07-26T10:17:23Z</time>
      </trkpt>
      <trkpt lat="42.7567130" lon="0.0649700">
        <ele>1418.0</ele>
        <time>2020-07-26T10:17:25Z</time>
      </trkpt>
      <trkpt lat="42.7566660" lon="0.0650990">
        <ele>1418.2</ele>
        <time>2020-07-26T10:17:29Z</time>
      </trkpt>
      <trkpt lat="42.7566610" lon="0.0651290">
        <ele>1418.4</ele>
        <time>2020-07-26T10:17:30Z</time>
      </trkpt>
      <trkpt lat="42.7566290" lon="0.0652170">
        <ele>1418.8</ele>
        <time>2020-07-26T10:17:33Z</time>
      </trkpt>
      <trkpt lat="42.7566120" lon="0.0652910">
        <ele>1419.0</ele>
        <time>2020-07-26T10:17:35Z</time>
      </trkpt>
      <trkpt lat="42.7566120" lon="0.0655190">
        <ele>1419.0</ele>
        <time>2020-07-26T10:17:40Z</time>
      </trkpt>
      <trkpt lat="42.7566170" lon="0.0655680">
        <ele>1419.2</ele>
        <time>2020-07-26T10:17:41Z</time>
      </trkpt>
      <trkpt lat="42.7566360" lon="0.0656730">
        <ele>1419.4</ele>
        <time>2020-07-26T10:17:43Z</time>
      </trkpt>
      <trkpt lat="42.7566620" lon="0.0658940">
        <ele>1419.8</ele>
        <time>2020-07-26T10:17:47Z</time>
      </trkpt>
      <trkpt lat="42.7566610" lon="0.0659520">
        <ele>1420.0</ele>
        <time>2020-07-26T10:17:48Z</time>
      </trkpt>
      <trkpt lat="42.7566550" lon="0.0660650">
        <ele>1420.0</ele>
        <time>2020-07-26T10:17:50Z</time>
      </trkpt>
      <trkpt lat="42.7566530" lon="0.0661150">
        <ele>1420.2</ele>
        <time>2020-07-26T10:17:51Z</time>
      </trkpt>
      <trkpt lat="42.7566490" lon="0.0662780">
        <ele>1420.4</ele>
        <time>2020-07-26T10:17:54Z</time>
      </trkpt>
      <trkpt lat="42.7566550" lon="0.0665080">
        <ele>1421.4</ele>
        <time>2020-07-26T10:17:58Z</time>
      </trkpt>
      <trkpt lat="42.7566630" lon="0.0667300">
        <ele>1422.2</ele>
        <time>2020-07-26T10:18:02Z</time>
      </trkpt>
      <trkpt lat="42.7566740" lon="0.0668380">
        <ele>1422.4</ele>
        <time>2020-07-26T10:18:04Z</time>
      </trkpt>
      <trkpt lat="42.7566840" lon="0.0668940">
        <ele>1422.6</ele>
        <time>2020-07-26T10:18:05Z</time>
      </trkpt>
      <trkpt lat="42.7567420" lon="0.0671280">
        <ele>1422.6</ele>
        <time>2020-07-26T10:18:09Z</time>
      </trkpt>
      <trkpt lat="42.7567990" lon="0.0674080">
        <ele>1422.2</ele>
        <time>2020-07-26T10:18:13Z</time>
      </trkpt>
      <trkpt lat="42.7567970" lon="0.0675620">
        <ele>1422.0</ele>
        <time>2020-07-26T10:18:15Z</time>
      </trkpt>
      <trkpt lat="42.7567890" lon="0.0676390">
        <ele>1422.0</ele>
        <time>2020-07-26T10:18:16Z</time>
      </trkpt>
      <trkpt lat="42.7567300" lon="0.0680290">
        <ele>1421.8</ele>
        <time>2020-07-26T10:18:21Z</time>
      </trkpt>
      <trkpt lat="42.7566020" lon="0.0685040">
        <ele>1421.6</ele>
        <time>2020-07-26T10:18:27Z</time>
      </trkpt>
      <trkpt lat="42.7565750" lon="0.0685840">
        <ele>1421.4</ele>
        <time>2020-07-26T10:18:28Z</time>
      </trkpt>
      <trkpt lat="42.7565500" lon="0.0686630">
        <ele>1421.2</ele>
        <time>2020-07-26T10:18:29Z</time>
      </trkpt>
      <trkpt lat="42.7565300" lon="0.0687420">
        <ele>1421.0</ele>
        <time>2020-07-26T10:18:30Z</time>
      </trkpt>
      <trkpt lat="42.7565100" lon="0.0689820">
        <ele>1421.0</ele>
        <time>2020-07-26T10:18:33Z</time>
      </trkpt>
      <trkpt lat="42.7565040" lon="0.0692950">
        <ele>1421.8</ele>
        <time>2020-07-26T10:18:37Z</time>
      </trkpt>
      <trkpt lat="42.7564640" lon="0.0695350">
        <ele>1421.8</ele>
        <time>2020-07-26T10:18:40Z</time>
      </trkpt>
      <trkpt lat="42.7563880" lon="0.0697680">
        <ele>1421.4</ele>
        <time>2020-07-26T10:18:43Z</time>
      </trkpt>
      <trkpt lat="42.7563530" lon="0.0698400">
        <ele>1421.2</ele>
        <time>2020-07-26T10:18:44Z</time>
      </trkpt>
      <trkpt lat="42.7563140" lon="0.0699080">
        <ele>1421.2</ele>
        <time>2020-07-26T10:18:45Z</time>
      </trkpt>
      <trkpt lat="42.7562690" lon="0.0699670">
        <ele>1421.2</ele>
        <time>2020-07-26T10:18:46Z</time>
      </trkpt>
      <trkpt lat="42.7561610" lon="0.0700520">
        <ele>1421.2</ele>
        <time>2020-07-26T10:18:48Z</time>
      </trkpt>
      <trkpt lat="42.7560080" lon="0.0701450">
        <ele>1421.8</ele>
        <time>2020-07-26T10:18:51Z</time>
      </trkpt>
      <trkpt lat="42.7559650" lon="0.0701780">
        <ele>1422.4</ele>
        <time>2020-07-26T10:18:52Z</time>
      </trkpt>
      <trkpt lat="42.7559260" lon="0.0702180">
        <ele>1422.8</ele>
        <time>2020-07-26T10:18:53Z</time>
      </trkpt>
      <trkpt lat="42.7558950" lon="0.0702650">
        <ele>1423.0</ele>
        <time>2020-07-26T10:18:54Z</time>
      </trkpt>
      <trkpt lat="42.7558690" lon="0.0703160">
        <ele>1423.4</ele>
        <time>2020-07-26T10:18:55Z</time>
      </trkpt>
      <trkpt lat="42.7558500" lon="0.0703680">
        <ele>1423.6</ele>
        <time>2020-07-26T10:18:56Z</time>
      </trkpt>
      <trkpt lat="42.7558350" lon="0.0704210">
        <ele>1423.8</ele>
        <time>2020-07-26T10:18:57Z</time>
      </trkpt>
      <trkpt lat="42.7557940" lon="0.0707240">
        <ele>1424.2</ele>
        <time>2020-07-26T10:19:02Z</time>
      </trkpt>
      <trkpt lat="42.7557860" lon="0.0707820">
        <ele>1424.6</ele>
        <time>2020-07-26T10:19:03Z</time>
      </trkpt>
      <trkpt lat="42.7557620" lon="0.0710010">
        <ele>1425.6</ele>
        <time>2020-07-26T10:19:07Z</time>
      </trkpt>
      <trkpt lat="42.7557380" lon="0.0711990">
        <ele>1426.8</ele>
        <time>2020-07-26T10:19:11Z</time>
      </trkpt>
      <trkpt lat="42.7556930" lon="0.0714320">
        <ele>1427.8</ele>
        <time>2020-07-26T10:19:16Z</time>
      </trkpt>
      <trkpt lat="42.7556350" lon="0.0716140">
        <ele>1428.4</ele>
        <time>2020-07-26T10:19:20Z</time>
      </trkpt>
      <trkpt lat="42.7555090" lon="0.0718950">
        <ele>1428.8</ele>
        <time>2020-07-26T10:19:26Z</time>
      </trkpt>
      <trkpt lat="42.7554580" lon="0.0719890">
        <ele>1429.0</ele>
        <time>2020-07-26T10:19:28Z</time>
      </trkpt>
      <trkpt lat="42.7553930" lon="0.0721320">
        <ele>1429.2</ele>
        <time>2020-07-26T10:19:31Z</time>
      </trkpt>
      <trkpt lat="42.7553740" lon="0.0721850">
        <ele>1429.2</ele>
        <time>2020-07-26T10:19:32Z</time>
      </trkpt>
      <trkpt lat="42.7553420" lon="0.0723020">
        <ele>1429.4</ele>
        <time>2020-07-26T10:19:34Z</time>
      </trkpt>
      <trkpt lat="42.7553270" lon="0.0723640">
        <ele>1429.4</ele>
        <time>2020-07-26T10:19:35Z</time>
      </trkpt>
      <trkpt lat="42.7552460" lon="0.0727430">
        <ele>1429.6</ele>
        <time>2020-07-26T10:19:41Z</time>
      </trkpt>
      <trkpt lat="42.7552150" lon="0.0728710">
        <ele>1430.0</ele>
        <time>2020-07-26T10:19:43Z</time>
      </trkpt>
      <trkpt lat="42.7552020" lon="0.0729340">
        <ele>1430.0</ele>
        <time>2020-07-26T10:19:44Z</time>
      </trkpt>
      <trkpt lat="42.7551520" lon="0.0733100">
        <ele>1430.8</ele>
        <time>2020-07-26T10:19:50Z</time>
      </trkpt>
      <trkpt lat="42.7551480" lon="0.0733750">
        <ele>1430.8</ele>
        <time>2020-07-26T10:19:51Z</time>
      </trkpt>
      <trkpt lat="42.7551450" lon="0.0735750">
        <ele>1431.0</ele>
        <time>2020-07-26T10:19:54Z</time>
      </trkpt>
      <trkpt lat="42.7551230" lon="0.0739040">
        <ele>1431.4</ele>
        <time>2020-07-26T10:19:59Z</time>
      </trkpt>
      <trkpt lat="42.7550500" lon="0.0741450">
        <ele>1431.8</ele>
        <time>2020-07-26T10:20:03Z</time>
      </trkpt>
      <trkpt lat="42.7549590" lon="0.0744660">
        <ele>1431.6</ele>
        <time>2020-07-26T10:20:09Z</time>
      </trkpt>
      <trkpt lat="42.7549610" lon="0.0746120">
        <ele>1432.0</ele>
        <time>2020-07-26T10:20:12Z</time>
      </trkpt>
      <trkpt lat="42.7549720" lon="0.0747890">
        <ele>1432.2</ele>
        <time>2020-07-26T10:20:15Z</time>
      </trkpt>
      <trkpt lat="42.7549570" lon="0.0749940">
        <ele>1432.2</ele>
        <time>2020-07-26T10:20:18Z</time>
      </trkpt>
      <trkpt lat="42.7549270" lon="0.0751130">
        <ele>1432.0</ele>
        <time>2020-07-26T10:20:20Z</time>
      </trkpt>
      <trkpt lat="42.7548090" lon="0.0753850">
        <ele>1432.4</ele>
        <time>2020-07-26T10:20:26Z</time>
      </trkpt>
      <trkpt lat="42.7546990" lon="0.0755720">
        <ele>1433.0</ele>
        <time>2020-07-26T10:20:32Z</time>
      </trkpt>
      <trkpt lat="42.7546820" lon="0.0756040">
        <ele>1433.0</ele>
        <time>2020-07-26T10:20:33Z</time>
      </trkpt>
      <trkpt lat="42.7546480" lon="0.0756680">
        <ele>1433.0</ele>
        <time>2020-07-26T10:20:35Z</time>
      </trkpt>
      <trkpt lat="42.7545550" lon="0.0758590">
        <ele>1433.6</ele>
        <time>2020-07-26T10:20:41Z</time>
      </trkpt>
      <trkpt lat="42.7545340" lon="0.0759010">
        <ele>1433.6</ele>
        <time>2020-07-26T10:20:44Z</time>
      </trkpt>
      <trkpt lat="42.7544720" lon="0.0760150">
        <ele>1433.4</ele>
        <time>2020-07-26T10:21:05Z</time>
      </trkpt>
      <trkpt lat="42.7544520" lon="0.0760500">
        <ele>1433.6</ele>
        <time>2020-07-26T10:21:06Z</time>
      </trkpt>
      <trkpt lat="42.7544330" lon="0.0760920">
        <ele>1433.6</ele>
        <time>2020-07-26T10:21:07Z</time>
      </trkpt>
      <trkpt lat="42.7544130" lon="0.0761390">
        <ele>1433.6</ele>
        <time>2020-07-26T10:21:08Z</time>
      </trkpt>
      <trkpt lat="42.7543660" lon="0.0762460">
        <ele>1433.6</ele>
        <time>2020-07-26T10:21:10Z</time>
      </trkpt>
      <trkpt lat="42.7543190" lon="0.0763590">
        <ele>1434.2</ele>
        <time>2020-07-26T10:21:12Z</time>
      </trkpt>
      <trkpt lat="42.7542380" lon="0.0765960">
        <ele>1435.2</ele>
        <time>2020-07-26T10:21:16Z</time>
      </trkpt>
      <trkpt lat="42.7542010" lon="0.0767120">
        <ele>1435.6</ele>
        <time>2020-07-26T10:21:18Z</time>
      </trkpt>
      <trkpt lat="42.7541120" lon="0.0770230">
        <ele>1436.2</ele>
        <time>2020-07-26T10:21:23Z</time>
      </trkpt>
      <trkpt lat="42.7540520" lon="0.0772060">
        <ele>1436.6</ele>
        <time>2020-07-26T10:21:26Z</time>
      </trkpt>
      <trkpt lat="42.7539610" lon="0.0774520">
        <ele>1437.2</ele>
        <time>2020-07-26T10:21:30Z</time>
      </trkpt>
      <trkpt lat="42.7539440" lon="0.0775150">
        <ele>1437.6</ele>
        <time>2020-07-26T10:21:31Z</time>
      </trkpt>
      <trkpt lat="42.7539060" lon="0.0777060">
        <ele>1438.6</ele>
        <time>2020-07-26T10:21:34Z</time>
      </trkpt>
      <trkpt lat="42.7539010" lon="0.0777690">
        <ele>1438.8</ele>
        <time>2020-07-26T10:21:35Z</time>
      </trkpt>
      <trkpt lat="42.7539150" lon="0.0780740">
        <ele>1439.2</ele>
        <time>2020-07-26T10:21:40Z</time>
      </trkpt>
      <trkpt lat="42.7539430" lon="0.0783000">
        <ele>1439.8</ele>
        <time>2020-07-26T10:21:44Z</time>
      </trkpt>
      <trkpt lat="42.7539540" lon="0.0785240">
        <ele>1440.8</ele>
        <time>2020-07-26T10:21:48Z</time>
      </trkpt>
      <trkpt lat="42.7539480" lon="0.0785800">
        <ele>1441.0</ele>
        <time>2020-07-26T10:21:49Z</time>
      </trkpt>
      <trkpt lat="42.7539220" lon="0.0787500">
        <ele>1441.8</ele>
        <time>2020-07-26T10:21:52Z</time>
      </trkpt>
      <trkpt lat="42.7538780" lon="0.0789790">
        <ele>1442.2</ele>
        <time>2020-07-26T10:21:56Z</time>
      </trkpt>
      <trkpt lat="42.7538140" lon="0.0793270">
        <ele>1442.8</ele>
        <time>2020-07-26T10:22:02Z</time>
      </trkpt>
      <trkpt lat="42.7537970" lon="0.0794470">
        <ele>1443.0</ele>
        <time>2020-07-26T10:22:04Z</time>
      </trkpt>
      <trkpt lat="42.7537880" lon="0.0795060">
        <ele>1443.2</ele>
        <time>2020-07-26T10:22:05Z</time>
      </trkpt>
      <trkpt lat="42.7537230" lon="0.0798590">
        <ele>1444.0</ele>
        <time>2020-07-26T10:22:11Z</time>
      </trkpt>
      <trkpt lat="42.7536940" lon="0.0799730">
        <ele>1444.2</ele>
        <time>2020-07-26T10:22:13Z</time>
      </trkpt>
      <trkpt lat="42.7536790" lon="0.0800300">
        <ele>1444.2</ele>
        <time>2020-07-26T10:22:14Z</time>
      </trkpt>
      <trkpt lat="42.7536610" lon="0.0800870">
        <ele>1444.2</ele>
        <time>2020-07-26T10:22:15Z</time>
      </trkpt>
      <trkpt lat="42.7536000" lon="0.0802470">
        <ele>1444.4</ele>
        <time>2020-07-26T10:22:18Z</time>
      </trkpt>
      <trkpt lat="42.7535640" lon="0.0803540">
        <ele>1444.8</ele>
        <time>2020-07-26T10:22:20Z</time>
      </trkpt>
      <trkpt lat="42.7535450" lon="0.0804070">
        <ele>1444.8</ele>
        <time>2020-07-26T10:22:21Z</time>
      </trkpt>
      <trkpt lat="42.7534650" lon="0.0806030">
        <ele>1445.2</ele>
        <time>2020-07-26T10:22:25Z</time>
      </trkpt>
      <trkpt lat="42.7534270" lon="0.0807030">
        <ele>1445.2</ele>
        <time>2020-07-26T10:22:27Z</time>
      </trkpt>
      <trkpt lat="42.7534070" lon="0.0807520">
        <ele>1445.4</ele>
        <time>2020-07-26T10:22:28Z</time>
      </trkpt>
      <trkpt lat="42.7533870" lon="0.0808020">
        <ele>1445.6</ele>
        <time>2020-07-26T10:22:29Z</time>
      </trkpt>
      <trkpt lat="42.7533210" lon="0.0810130">
        <ele>1446.2</ele>
        <time>2020-07-26T10:22:33Z</time>
      </trkpt>
      <trkpt lat="42.7532920" lon="0.0811230">
        <ele>1446.6</ele>
        <time>2020-07-26T10:22:35Z</time>
      </trkpt>
      <trkpt lat="42.7532780" lon="0.0811780">
        <ele>1446.8</ele>
        <time>2020-07-26T10:22:36Z</time>
      </trkpt>
      <trkpt lat="42.7532330" lon="0.0814030">
        <ele>1447.4</ele>
        <time>2020-07-26T10:22:40Z</time>
      </trkpt>
      <trkpt lat="42.7531760" lon="0.0816170">
        <ele>1447.8</ele>
        <time>2020-07-26T10:22:44Z</time>
      </trkpt>
      <trkpt lat="42.7531580" lon="0.0816680">
        <ele>1448.0</ele>
        <time>2020-07-26T10:22:45Z</time>
      </trkpt>
      <trkpt lat="42.7531230" lon="0.0817710">
        <ele>1448.8</ele>
        <time>2020-07-26T10:22:47Z</time>
      </trkpt>
      <trkpt lat="42.7530920" lon="0.0818720">
        <ele>1449.2</ele>
        <time>2020-07-26T10:22:49Z</time>
      </trkpt>
      <trkpt lat="42.7530500" lon="0.0820270">
        <ele>1449.8</ele>
        <time>2020-07-26T10:22:52Z</time>
      </trkpt>
      <trkpt lat="42.7530340" lon="0.0820780">
        <ele>1450.0</ele>
        <time>2020-07-26T10:22:53Z</time>
      </trkpt>
      <trkpt lat="42.7530010" lon="0.0821790">
        <ele>1450.2</ele>
        <time>2020-07-26T10:22:55Z</time>
      </trkpt>
      <trkpt lat="42.7529520" lon="0.0823970">
        <ele>1450.4</ele>
        <time>2020-07-26T10:22:59Z</time>
      </trkpt>
      <trkpt lat="42.7528780" lon="0.0826650">
        <ele>1451.2</ele>
        <time>2020-07-26T10:23:04Z</time>
      </trkpt>
      <trkpt lat="42.7528370" lon="0.0828150">
        <ele>1452.0</ele>
        <time>2020-07-26T10:23:07Z</time>
      </trkpt>
      <trkpt lat="42.7528210" lon="0.0828610">
        <ele>1452.0</ele>
        <time>2020-07-26T10:23:08Z</time>
      </trkpt>
      <trkpt lat="42.7528050" lon="0.0829110">
        <ele>1452.2</ele>
        <time>2020-07-26T10:23:09Z</time>
      </trkpt>
      <trkpt lat="42.7527550" lon="0.0830640">
        <ele>1452.8</ele>
        <time>2020-07-26T10:23:12Z</time>
      </trkpt>
      <trkpt lat="42.7527070" lon="0.0832150">
        <ele>1453.4</ele>
        <time>2020-07-26T10:23:15Z</time>
      </trkpt>
      <trkpt lat="42.7526920" lon="0.0832630">
        <ele>1453.4</ele>
        <time>2020-07-26T10:23:16Z</time>
      </trkpt>
      <trkpt lat="42.7525850" lon="0.0835280">
        <ele>1454.4</ele>
        <time>2020-07-26T10:23:22Z</time>
      </trkpt>
      <trkpt lat="42.7525680" lon="0.0835750">
        <ele>1454.6</ele>
        <time>2020-07-26T10:23:23Z</time>
      </trkpt>
      <trkpt lat="42.7525490" lon="0.0836220">
        <ele>1454.8</ele>
        <time>2020-07-26T10:23:24Z</time>
      </trkpt>
      <trkpt lat="42.7524940" lon="0.0837610">
        <ele>1455.4</ele>
        <time>2020-07-26T10:23:27Z</time>
      </trkpt>
      <trkpt lat="42.7523660" lon="0.0840250">
        <ele>1456.6</ele>
        <time>2020-07-26T10:23:33Z</time>
      </trkpt>
      <trkpt lat="42.7523220" lon="0.0841140">
        <ele>1457.0</ele>
        <time>2020-07-26T10:23:35Z</time>
      </trkpt>
      <trkpt lat="42.7522770" lon="0.0841980">
        <ele>1457.2</ele>
        <time>2020-07-26T10:23:37Z</time>
      </trkpt>
      <trkpt lat="42.7522330" lon="0.0842860">
        <ele>1457.6</ele>
        <time>2020-07-26T10:23:39Z</time>
      </trkpt>
      <trkpt lat="42.7522100" lon="0.0843280">
        <ele>1457.8</ele>
        <time>2020-07-26T10:23:40Z</time>
      </trkpt>
      <trkpt lat="42.7520910" lon="0.0845280">
        <ele>1458.8</ele>
        <time>2020-07-26T10:23:45Z</time>
      </trkpt>
      <trkpt lat="42.7520420" lon="0.0846030">
        <ele>1459.2</ele>
        <time>2020-07-26T10:23:47Z</time>
      </trkpt>
      <trkpt lat="42.7519950" lon="0.0846690">
        <ele>1459.8</ele>
        <time>2020-07-26T10:23:49Z</time>
      </trkpt>
      <trkpt lat="42.7519240" lon="0.0847850">
        <ele>1460.4</ele>
        <time>2020-07-26T10:23:52Z</time>
      </trkpt>
      <trkpt lat="42.7519000" lon="0.0848230">
        <ele>1460.8</ele>
        <time>2020-07-26T10:23:53Z</time>
      </trkpt>
      <trkpt lat="42.7518730" lon="0.0848560">
        <ele>1461.2</ele>
        <time>2020-07-26T10:23:54Z</time>
      </trkpt>
      <trkpt lat="42.7517620" lon="0.0850720">
        <ele>1462.0</ele>
        <time>2020-07-26T10:23:59Z</time>
      </trkpt>
      <trkpt lat="42.7517370" lon="0.0851210">
        <ele>1462.0</ele>
        <time>2020-07-26T10:24:00Z</time>
      </trkpt>
      <trkpt lat="42.7516040" lon="0.0853500">
        <ele>1462.2</ele>
        <time>2020-07-26T10:24:05Z</time>
      </trkpt>
      <trkpt lat="42.7514530" lon="0.0856420">
        <ele>1462.8</ele>
        <time>2020-07-26T10:24:11Z</time>
      </trkpt>
      <trkpt lat="42.7513990" lon="0.0857440">
        <ele>1463.2</ele>
        <time>2020-07-26T10:24:13Z</time>
      </trkpt>
      <trkpt lat="42.7513710" lon="0.0857920">
        <ele>1463.4</ele>
        <time>2020-07-26T10:24:14Z</time>
      </trkpt>
      <trkpt lat="42.7512000" lon="0.0860600">
        <ele>1464.2</ele>
        <time>2020-07-26T10:24:20Z</time>
      </trkpt>
      <trkpt lat="42.7511750" lon="0.0861050">
        <ele>1464.4</ele>
        <time>2020-07-26T10:24:21Z</time>
      </trkpt>
      <trkpt lat="42.7511520" lon="0.0861480">
        <ele>1464.6</ele>
        <time>2020-07-26T10:24:22Z</time>
      </trkpt>
      <trkpt lat="42.7510180" lon="0.0863400">
        <ele>1465.8</ele>
        <time>2020-07-26T10:24:27Z</time>
      </trkpt>
      <trkpt lat="42.7509900" lon="0.0863820">
        <ele>1466.0</ele>
        <time>2020-07-26T10:24:28Z</time>
      </trkpt>
      <trkpt lat="42.7508410" lon="0.0866400">
        <ele>1466.8</ele>
        <time>2020-07-26T10:24:34Z</time>
      </trkpt>
      <trkpt lat="42.7507700" lon="0.0867600">
        <ele>1467.6</ele>
        <time>2020-07-26T10:24:37Z</time>
      </trkpt>
      <trkpt lat="42.7507450" lon="0.0867980">
        <ele>1467.8</ele>
        <time>2020-07-26T10:24:38Z</time>
      </trkpt>
      <trkpt lat="42.7506530" lon="0.0869500">
        <ele>1468.8</ele>
        <time>2020-07-26T10:24:42Z</time>
      </trkpt>
      <trkpt lat="42.7506310" lon="0.0869860">
        <ele>1469.0</ele>
        <time>2020-07-26T10:24:43Z</time>
      </trkpt>
      <trkpt lat="42.7505650" lon="0.0870880">
        <ele>1469.8</ele>
        <time>2020-07-26T10:24:46Z</time>
      </trkpt>
      <trkpt lat="42.7505210" lon="0.0871440">
        <ele>1470.2</ele>
        <time>2020-07-26T10:24:48Z</time>
      </trkpt>
      <trkpt lat="42.7504530" lon="0.0872520">
        <ele>1471.0</ele>
        <time>2020-07-26T10:24:52Z</time>
      </trkpt>
      <trkpt lat="42.7502240" lon="0.0875110">
        <ele>1475.8</ele>
        <time>2020-07-26T10:37:25Z</time>
      </trkpt>
      <trkpt lat="42.7502100" lon="0.0875490">
        <ele>1475.8</ele>
        <time>2020-07-26T10:37:26Z</time>
      </trkpt>
      <trkpt lat="42.7501630" lon="0.0876180">
        <ele>1474.2</ele>
        <time>2020-07-26T10:37:28Z</time>
      </trkpt>
      <trkpt lat="42.7501280" lon="0.0876930">
        <ele>1472.6</ele>
        <time>2020-07-26T10:37:30Z</time>
      </trkpt>
      <trkpt lat="42.7500620" lon="0.0878650">
        <ele>1473.0</ele>
        <time>2020-07-26T10:37:35Z</time>
      </trkpt>
      <trkpt lat="42.7500100" lon="0.0880520">
        <ele>1473.8</ele>
        <time>2020-07-26T10:37:40Z</time>
      </trkpt>
      <trkpt lat="42.7499860" lon="0.0881240">
        <ele>1474.0</ele>
        <time>2020-07-26T10:37:42Z</time>
      </trkpt>
      <trkpt lat="42.7499360" lon="0.0882690">
        <ele>1474.8</ele>
        <time>2020-07-26T10:37:46Z</time>
      </trkpt>
      <trkpt lat="42.7499140" lon="0.0883420">
        <ele>1475.4</ele>
        <time>2020-07-26T10:37:48Z</time>
      </trkpt>
      <trkpt lat="42.7498920" lon="0.0884180">
        <ele>1475.8</ele>
        <time>2020-07-26T10:37:50Z</time>
      </trkpt>
      <trkpt lat="42.7498810" lon="0.0884550">
        <ele>1476.0</ele>
        <time>2020-07-26T10:37:51Z</time>
      </trkpt>
      <trkpt lat="42.7498590" lon="0.0885280">
        <ele>1476.2</ele>
        <time>2020-07-26T10:37:53Z</time>
      </trkpt>
      <trkpt lat="42.7498090" lon="0.0886740">
        <ele>1477.0</ele>
        <time>2020-07-26T10:37:57Z</time>
      </trkpt>
      <trkpt lat="42.7497830" lon="0.0887440">
        <ele>1477.4</ele>
        <time>2020-07-26T10:37:59Z</time>
      </trkpt>
      <trkpt lat="42.7497580" lon="0.0888100">
        <ele>1477.8</ele>
        <time>2020-07-26T10:38:01Z</time>
      </trkpt>
      <trkpt lat="42.7497340" lon="0.0888730">
        <ele>1478.2</ele>
        <time>2020-07-26T10:38:03Z</time>
      </trkpt>
      <trkpt lat="42.7496660" lon="0.0890320">
        <ele>1479.2</ele>
        <time>2020-07-26T10:38:08Z</time>
      </trkpt>
      <trkpt lat="42.7496530" lon="0.0890640">
        <ele>1479.4</ele>
        <time>2020-07-26T10:38:09Z</time>
      </trkpt>
      <trkpt lat="42.7495720" lon="0.0892700">
        <ele>1480.2</ele>
        <time>2020-07-26T10:38:15Z</time>
      </trkpt>
      <trkpt lat="42.7495410" lon="0.0893350">
        <ele>1480.6</ele>
        <time>2020-07-26T10:38:17Z</time>
      </trkpt>
      <trkpt lat="42.7495120" lon="0.0894020">
        <ele>1480.8</ele>
        <time>2020-07-26T10:38:19Z</time>
      </trkpt>
      <trkpt lat="42.7494680" lon="0.0895060">
        <ele>1481.4</ele>
        <time>2020-07-26T10:38:22Z</time>
      </trkpt>
      <trkpt lat="42.7494010" lon="0.0896190">
        <ele>1481.8</ele>
        <time>2020-07-26T10:38:25Z</time>
      </trkpt>
      <trkpt lat="42.7493700" lon="0.0896570">
        <ele>1481.8</ele>
        <time>2020-07-26T10:38:26Z</time>
      </trkpt>
      <trkpt lat="42.7493000" lon="0.0897160">
        <ele>1482.0</ele>
        <time>2020-07-26T10:38:28Z</time>
      </trkpt>
      <trkpt lat="42.7492170" lon="0.0897470">
        <ele>1482.4</ele>
        <time>2020-07-26T10:38:30Z</time>
      </trkpt>
      <trkpt lat="42.7491750" lon="0.0897520">
        <ele>1482.6</ele>
        <time>2020-07-26T10:38:31Z</time>
      </trkpt>
      <trkpt lat="42.7490550" lon="0.0897540">
        <ele>1483.0</ele>
        <time>2020-07-26T10:38:34Z</time>
      </trkpt>
      <trkpt lat="42.7489860" lon="0.0897520">
        <ele>1483.8</ele>
        <time>2020-07-26T10:38:36Z</time>
      </trkpt>
      <trkpt lat="42.7488940" lon="0.0897550">
        <ele>1484.6</ele>
        <time>2020-07-26T10:38:39Z</time>
      </trkpt>
      <trkpt lat="42.7487290" lon="0.0897370">
        <ele>1485.4</ele>
        <time>2020-07-26T10:39:16Z</time>
      </trkpt>
      <trkpt lat="42.7487060" lon="0.0897340">
        <ele>1485.4</ele>
        <time>2020-07-26T10:39:17Z</time>
      </trkpt>
      <trkpt lat="42.7486800" lon="0.0897310">
        <ele>1485.4</ele>
        <time>2020-07-26T10:39:18Z</time>
      </trkpt>
      <trkpt lat="42.7485530" lon="0.0897180">
        <ele>1486.2</ele>
        <time>2020-07-26T10:39:22Z</time>
      </trkpt>
      <trkpt lat="42.7485190" lon="0.0897130">
        <ele>1486.4</ele>
        <time>2020-07-26T10:39:23Z</time>
      </trkpt>
      <trkpt lat="42.7484510" lon="0.0897090">
        <ele>1487.2</ele>
        <time>2020-07-26T10:39:25Z</time>
      </trkpt>
      <trkpt lat="42.7484180" lon="0.0897090">
        <ele>1487.6</ele>
        <time>2020-07-26T10:39:26Z</time>
      </trkpt>
      <trkpt lat="42.7482660" lon="0.0897280">
        <ele>1488.8</ele>
        <time>2020-07-26T10:39:31Z</time>
      </trkpt>
      <trkpt lat="42.7482000" lon="0.0897520">
        <ele>1489.0</ele>
        <time>2020-07-26T10:39:33Z</time>
      </trkpt>
      <trkpt lat="42.7480690" lon="0.0898100">
        <ele>1489.8</ele>
        <time>2020-07-26T10:39:37Z</time>
      </trkpt>
      <trkpt lat="42.7479800" lon="0.0898520">
        <ele>1490.4</ele>
        <time>2020-07-26T10:39:40Z</time>
      </trkpt>
      <trkpt lat="42.7479240" lon="0.0898740">
        <ele>1490.8</ele>
        <time>2020-07-26T10:39:42Z</time>
      </trkpt>
      <trkpt lat="42.7478970" lon="0.0898870">
        <ele>1491.2</ele>
        <time>2020-07-26T10:39:43Z</time>
      </trkpt>
      <trkpt lat="42.7478010" lon="0.0899500">
        <ele>1492.2</ele>
        <time>2020-07-26T10:39:47Z</time>
      </trkpt>
      <trkpt lat="42.7477530" lon="0.0899730">
        <ele>1492.8</ele>
        <time>2020-07-26T10:39:49Z</time>
      </trkpt>
      <trkpt lat="42.7477070" lon="0.0899960">
        <ele>1493.4</ele>
        <time>2020-07-26T10:39:51Z</time>
      </trkpt>
      <trkpt lat="42.7476490" lon="0.0900680">
        <ele>1494.4</ele>
        <time>2020-07-26T10:39:54Z</time>
      </trkpt>
      <trkpt lat="42.7476320" lon="0.0900980">
        <ele>1494.6</ele>
        <time>2020-07-26T10:39:55Z</time>
      </trkpt>
      <trkpt lat="42.7475120" lon="0.0902900">
        <ele>1495.6</ele>
        <time>2020-07-26T10:40:01Z</time>
      </trkpt>
      <trkpt lat="42.7474850" lon="0.0903110">
        <ele>1495.8</ele>
        <time>2020-07-26T10:40:02Z</time>
      </trkpt>
      <trkpt lat="42.7473910" lon="0.0903150">
        <ele>1496.6</ele>
        <time>2020-07-26T10:40:05Z</time>
      </trkpt>
      <trkpt lat="42.7473250" lon="0.0903080">
        <ele>1497.0</ele>
        <time>2020-07-26T10:40:07Z</time>
      </trkpt>
      <trkpt lat="42.7472940" lon="0.0903100">
        <ele>1497.2</ele>
        <time>2020-07-26T10:40:08Z</time>
      </trkpt>
      <trkpt lat="42.7472640" lon="0.0903140">
        <ele>1497.6</ele>
        <time>2020-07-26T10:40:09Z</time>
      </trkpt>
      <trkpt lat="42.7472360" lon="0.0903230">
        <ele>1497.8</ele>
        <time>2020-07-26T10:40:10Z</time>
      </trkpt>
      <trkpt lat="42.7472080" lon="0.0903310">
        <ele>1498.0</ele>
        <time>2020-07-26T10:40:11Z</time>
      </trkpt>
      <trkpt lat="42.7471530" lon="0.0903480">
        <ele>1498.4</ele>
        <time>2020-07-26T10:40:13Z</time>
      </trkpt>
      <trkpt lat="42.7471010" lon="0.0903800">
        <ele>1499.4</ele>
        <time>2020-07-26T10:40:15Z</time>
      </trkpt>
      <trkpt lat="42.7470370" lon="0.0904370">
        <ele>1500.2</ele>
        <time>2020-07-26T10:40:18Z</time>
      </trkpt>
      <trkpt lat="42.7470180" lon="0.0904570">
        <ele>1500.4</ele>
        <time>2020-07-26T10:40:19Z</time>
      </trkpt>
      <trkpt lat="42.7469560" lon="0.0905590">
        <ele>1501.6</ele>
        <time>2020-07-26T10:40:23Z</time>
      </trkpt>
      <trkpt lat="42.7469260" lon="0.0906130">
        <ele>1502.2</ele>
        <time>2020-07-26T10:40:25Z</time>
      </trkpt>
      <trkpt lat="42.7468990" lon="0.0906740">
        <ele>1503.0</ele>
        <time>2020-07-26T10:40:27Z</time>
      </trkpt>
      <trkpt lat="42.7468360" lon="0.0907990">
        <ele>1504.0</ele>
        <time>2020-07-26T10:40:31Z</time>
      </trkpt>
      <trkpt lat="42.7467500" lon="0.0909650">
        <ele>1505.2</ele>
        <time>2020-07-26T10:40:36Z</time>
      </trkpt>
      <trkpt lat="42.7466740" lon="0.0910890">
        <ele>1506.4</ele>
        <time>2020-07-26T10:40:40Z</time>
      </trkpt>
      <trkpt lat="42.7466080" lon="0.0911600">
        <ele>1507.4</ele>
        <time>2020-07-26T10:40:43Z</time>
      </trkpt>
      <trkpt lat="42.7465440" lon="0.0911790">
        <ele>1508.2</ele>
        <time>2020-07-26T10:40:46Z</time>
      </trkpt>
      <trkpt lat="42.7465250" lon="0.0911670">
        <ele>1508.4</ele>
        <time>2020-07-26T10:40:47Z</time>
      </trkpt>
      <trkpt lat="42.7465140" lon="0.0911390">
        <ele>1508.6</ele>
        <time>2020-07-26T10:40:48Z</time>
      </trkpt>
      <trkpt lat="42.7465140" lon="0.0911020">
        <ele>1508.6</ele>
        <time>2020-07-26T10:40:49Z</time>
      </trkpt>
      <trkpt lat="42.7465820" lon="0.0908920">
        <ele>1509.2</ele>
        <time>2020-07-26T10:40:54Z</time>
      </trkpt>
      <trkpt lat="42.7465960" lon="0.0908510">
        <ele>1509.4</ele>
        <time>2020-07-26T10:40:55Z</time>
      </trkpt>
      <trkpt lat="42.7466080" lon="0.0908110">
        <ele>1509.6</ele>
        <time>2020-07-26T10:40:56Z</time>
      </trkpt>
      <trkpt lat="42.7466560" lon="0.0906480">
        <ele>1510.6</ele>
        <time>2020-07-26T10:41:00Z</time>
      </trkpt>
      <trkpt lat="42.7466650" lon="0.0906070">
        <ele>1511.0</ele>
        <time>2020-07-26T10:41:01Z</time>
      </trkpt>
      <trkpt lat="42.7466760" lon="0.0905660">
        <ele>1511.6</ele>
        <time>2020-07-26T10:41:02Z</time>
      </trkpt>
      <trkpt lat="42.7466930" lon="0.0904790">
        <ele>1512.2</ele>
        <time>2020-07-26T10:41:04Z</time>
      </trkpt>
      <trkpt lat="42.7466770" lon="0.0903480">
        <ele>1512.6</ele>
        <time>2020-07-26T10:41:07Z</time>
      </trkpt>
      <trkpt lat="42.7466240" lon="0.0902950">
        <ele>1513.0</ele>
        <time>2020-07-26T10:41:09Z</time>
      </trkpt>
      <trkpt lat="42.7465960" lon="0.0902890">
        <ele>1513.4</ele>
        <time>2020-07-26T10:41:10Z</time>
      </trkpt>
      <trkpt lat="42.7465700" lon="0.0902970">
        <ele>1514.0</ele>
        <time>2020-07-26T10:41:11Z</time>
      </trkpt>
      <trkpt lat="42.7465480" lon="0.0903100">
        <ele>1514.4</ele>
        <time>2020-07-26T10:41:12Z</time>
      </trkpt>
      <trkpt lat="42.7464720" lon="0.0904140">
        <ele>1515.6</ele>
        <time>2020-07-26T10:41:17Z</time>
      </trkpt>
      <trkpt lat="42.7463950" lon="0.0905440">
        <ele>1516.8</ele>
        <time>2020-07-26T10:41:22Z</time>
      </trkpt>
      <trkpt lat="42.7463500" lon="0.0906350">
        <ele>1517.6</ele>
        <time>2020-07-26T10:41:25Z</time>
      </trkpt>
      <trkpt lat="42.7463050" lon="0.0907280">
        <ele>1518.0</ele>
        <time>2020-07-26T10:41:28Z</time>
      </trkpt>
      <trkpt lat="42.7462570" lon="0.0908660">
        <ele>1519.2</ele>
        <time>2020-07-26T10:41:32Z</time>
      </trkpt>
      <trkpt lat="42.7462360" lon="0.0909340">
        <ele>1519.8</ele>
        <time>2020-07-26T10:41:34Z</time>
      </trkpt>
      <trkpt lat="42.7462180" lon="0.0910040">
        <ele>1520.2</ele>
        <time>2020-07-26T10:41:36Z</time>
      </trkpt>
      <trkpt lat="42.7462090" lon="0.0910370">
        <ele>1520.6</ele>
        <time>2020-07-26T10:41:37Z</time>
      </trkpt>
      <trkpt lat="42.7461830" lon="0.0911380">
        <ele>1521.6</ele>
        <time>2020-07-26T10:41:40Z</time>
      </trkpt>
      <trkpt lat="42.7461670" lon="0.0912070">
        <ele>1522.2</ele>
        <time>2020-07-26T10:41:42Z</time>
      </trkpt>
      <trkpt lat="42.7461300" lon="0.0913520">
        <ele>1522.8</ele>
        <time>2020-07-26T10:41:47Z</time>
      </trkpt>
      <trkpt lat="42.7461020" lon="0.0914890">
        <ele>1524.0</ele>
        <time>2020-07-26T10:41:51Z</time>
      </trkpt>
      <trkpt lat="42.7460830" lon="0.0915580">
        <ele>1524.4</ele>
        <time>2020-07-26T10:41:53Z</time>
      </trkpt>
      <trkpt lat="42.7460530" lon="0.0916650">
        <ele>1525.0</ele>
        <time>2020-07-26T10:41:56Z</time>
      </trkpt>
      <trkpt lat="42.7460180" lon="0.0917700">
        <ele>1526.2</ele>
        <time>2020-07-26T10:41:59Z</time>
      </trkpt>
      <trkpt lat="42.7459750" lon="0.0919080">
        <ele>1527.4</ele>
        <time>2020-07-26T10:42:03Z</time>
      </trkpt>
      <trkpt lat="42.7459310" lon="0.0920000">
        <ele>1528.0</ele>
        <time>2020-07-26T10:42:06Z</time>
      </trkpt>
      <trkpt lat="42.7458880" lon="0.0920380">
        <ele>1528.4</ele>
        <time>2020-07-26T10:42:08Z</time>
      </trkpt>
      <trkpt lat="42.7458620" lon="0.0920370">
        <ele>1528.6</ele>
        <time>2020-07-26T10:42:09Z</time>
      </trkpt>
      <trkpt lat="42.7458200" lon="0.0920100">
        <ele>1529.4</ele>
        <time>2020-07-26T10:42:11Z</time>
      </trkpt>
      <trkpt lat="42.7458040" lon="0.0919860">
        <ele>1529.6</ele>
        <time>2020-07-26T10:42:12Z</time>
      </trkpt>
      <trkpt lat="42.7457910" lon="0.0919580">
        <ele>1530.0</ele>
        <time>2020-07-26T10:42:13Z</time>
      </trkpt>
      <trkpt lat="42.7457570" lon="0.0918570">
        <ele>1530.8</ele>
        <time>2020-07-26T10:42:16Z</time>
      </trkpt>
      <trkpt lat="42.7457280" lon="0.0917520">
        <ele>1532.0</ele>
        <time>2020-07-26T10:42:19Z</time>
      </trkpt>
      <trkpt lat="42.7457180" lon="0.0917180">
        <ele>1532.2</ele>
        <time>2020-07-26T10:42:20Z</time>
      </trkpt>
      <trkpt lat="42.7457100" lon="0.0916820">
        <ele>1532.4</ele>
        <time>2020-07-26T10:42:21Z</time>
      </trkpt>
      <trkpt lat="42.7456990" lon="0.0916070">
        <ele>1533.2</ele>
        <time>2020-07-26T10:42:23Z</time>
      </trkpt>
      <trkpt lat="42.7457020" lon="0.0914080">
        <ele>1534.4</ele>
        <time>2020-07-26T10:42:28Z</time>
      </trkpt>
      <trkpt lat="42.7457300" lon="0.0912440">
        <ele>1535.4</ele>
        <time>2020-07-26T10:42:32Z</time>
      </trkpt>
      <trkpt lat="42.7457650" lon="0.0911210">
        <ele>1535.8</ele>
        <time>2020-07-26T10:42:35Z</time>
      </trkpt>
      <trkpt lat="42.7458990" lon="0.0909130">
        <ele>1536.2</ele>
        <time>2020-07-26T10:42:41Z</time>
      </trkpt>
      <trkpt lat="42.7459400" lon="0.0908470">
        <ele>1536.8</ele>
        <time>2020-07-26T10:42:43Z</time>
      </trkpt>
      <trkpt lat="42.7459520" lon="0.0907700">
        <ele>1537.6</ele>
        <time>2020-07-26T10:42:45Z</time>
      </trkpt>
      <trkpt lat="42.7459430" lon="0.0907330">
        <ele>1537.8</ele>
        <time>2020-07-26T10:42:46Z</time>
      </trkpt>
      <trkpt lat="42.7459250" lon="0.0907010">
        <ele>1538.0</ele>
        <time>2020-07-26T10:42:47Z</time>
      </trkpt>
      <trkpt lat="42.7458760" lon="0.0906810">
        <ele>1538.6</ele>
        <time>2020-07-26T10:42:49Z</time>
      </trkpt>
      <trkpt lat="42.7458310" lon="0.0907060">
        <ele>1539.0</ele>
        <time>2020-07-26T10:42:51Z</time>
      </trkpt>
      <trkpt lat="42.7457810" lon="0.0907570">
        <ele>1540.0</ele>
        <time>2020-07-26T10:42:54Z</time>
      </trkpt>
      <trkpt lat="42.7457680" lon="0.0907780">
        <ele>1540.2</ele>
        <time>2020-07-26T10:42:55Z</time>
      </trkpt>
      <trkpt lat="42.7457540" lon="0.0908010">
        <ele>1540.4</ele>
        <time>2020-07-26T10:42:56Z</time>
      </trkpt>
      <trkpt lat="42.7456780" lon="0.0909500">
        <ele>1541.2</ele>
        <time>2020-07-26T10:43:02Z</time>
      </trkpt>
      <trkpt lat="42.7456670" lon="0.0909770">
        <ele>1541.4</ele>
        <time>2020-07-26T10:43:03Z</time>
      </trkpt>
      <trkpt lat="42.7456260" lon="0.0910960">
        <ele>1542.2</ele>
        <time>2020-07-26T10:43:07Z</time>
      </trkpt>
      <trkpt lat="42.7455830" lon="0.0912030">
        <ele>1543.0</ele>
        <time>2020-07-26T10:43:11Z</time>
      </trkpt>
      <trkpt lat="42.7455640" lon="0.0912520">
        <ele>1543.4</ele>
        <time>2020-07-26T10:43:13Z</time>
      </trkpt>
      <trkpt lat="42.7455450" lon="0.0913020">
        <ele>1543.8</ele>
        <time>2020-07-26T10:43:15Z</time>
      </trkpt>
      <trkpt lat="42.7455140" lon="0.0913710">
        <ele>1544.4</ele>
        <time>2020-07-26T10:43:18Z</time>
      </trkpt>
      <trkpt lat="42.7454760" lon="0.0914500">
        <ele>1545.2</ele>
        <time>2020-07-26T10:43:21Z</time>
      </trkpt>
      <trkpt lat="42.7454480" lon="0.0914990">
        <ele>1545.4</ele>
        <time>2020-07-26T10:43:23Z</time>
      </trkpt>
      <trkpt lat="42.7454220" lon="0.0915470">
        <ele>1545.8</ele>
        <time>2020-07-26T10:43:25Z</time>
      </trkpt>
      <trkpt lat="42.7453920" lon="0.0916010">
        <ele>1546.8</ele>
        <time>2020-07-26T10:43:27Z</time>
      </trkpt>
      <trkpt lat="42.7453330" lon="0.0917130">
        <ele>1547.8</ele>
        <time>2020-07-26T10:43:31Z</time>
      </trkpt>
      <trkpt lat="42.7452860" lon="0.0917980">
        <ele>1548.6</ele>
        <time>2020-07-26T10:43:34Z</time>
      </trkpt>
      <trkpt lat="42.7452380" lon="0.0918730">
        <ele>1549.0</ele>
        <time>2020-07-26T10:43:37Z</time>
      </trkpt>
      <trkpt lat="42.7452220" lon="0.0918980">
        <ele>1549.2</ele>
        <time>2020-07-26T10:43:38Z</time>
      </trkpt>
      <trkpt lat="42.7451740" lon="0.0919670">
        <ele>1550.0</ele>
        <time>2020-07-26T10:43:41Z</time>
      </trkpt>
      <trkpt lat="42.7451560" lon="0.0919870">
        <ele>1550.0</ele>
        <time>2020-07-26T10:43:42Z</time>
      </trkpt>
      <trkpt lat="42.7450930" lon="0.0920380">
        <ele>1551.2</ele>
        <time>2020-07-26T10:43:45Z</time>
      </trkpt>
      <trkpt lat="42.7450490" lon="0.0920640">
        <ele>1552.0</ele>
        <time>2020-07-26T10:43:47Z</time>
      </trkpt>
      <trkpt lat="42.7450260" lon="0.0920760">
        <ele>1552.4</ele>
        <time>2020-07-26T10:43:48Z</time>
      </trkpt>
      <trkpt lat="42.7450050" lon="0.0920890">
        <ele>1552.6</ele>
        <time>2020-07-26T10:43:49Z</time>
      </trkpt>
      <trkpt lat="42.7448830" lon="0.0921030">
        <ele>1553.4</ele>
        <time>2020-07-26T10:43:54Z</time>
      </trkpt>
      <trkpt lat="42.7447830" lon="0.0921190">
        <ele>1554.4</ele>
        <time>2020-07-26T10:43:58Z</time>
      </trkpt>
      <trkpt lat="42.7447140" lon="0.0921570">
        <ele>1555.0</ele>
        <time>2020-07-26T10:44:01Z</time>
      </trkpt>
      <trkpt lat="42.7446750" lon="0.0921880">
        <ele>1555.4</ele>
        <time>2020-07-26T10:44:03Z</time>
      </trkpt>
      <trkpt lat="42.7446020" lon="0.0922650">
        <ele>1556.6</ele>
        <time>2020-07-26T10:44:07Z</time>
      </trkpt>
      <trkpt lat="42.7445840" lon="0.0922840">
        <ele>1556.8</ele>
        <time>2020-07-26T10:44:08Z</time>
      </trkpt>
      <trkpt lat="42.7445670" lon="0.0923020">
        <ele>1557.0</ele>
        <time>2020-07-26T10:44:09Z</time>
      </trkpt>
      <trkpt lat="42.7445330" lon="0.0923440">
        <ele>1557.4</ele>
        <time>2020-07-26T10:44:11Z</time>
      </trkpt>
      <trkpt lat="42.7445150" lon="0.0923640">
        <ele>1557.8</ele>
        <time>2020-07-26T10:44:12Z</time>
      </trkpt>
      <trkpt lat="42.7444530" lon="0.0924240">
        <ele>1558.6</ele>
        <time>2020-07-26T10:44:15Z</time>
      </trkpt>
      <trkpt lat="42.7444310" lon="0.0924450">
        <ele>1559.0</ele>
        <time>2020-07-26T10:44:16Z</time>
      </trkpt>
      <trkpt lat="42.7444080" lon="0.0924630">
        <ele>1559.2</ele>
        <time>2020-07-26T10:44:17Z</time>
      </trkpt>
      <trkpt lat="42.7443350" lon="0.0925010">
        <ele>1559.8</ele>
        <time>2020-07-26T10:44:20Z</time>
      </trkpt>
      <trkpt lat="42.7443080" lon="0.0925060">
        <ele>1560.2</ele>
        <time>2020-07-26T10:44:21Z</time>
      </trkpt>
      <trkpt lat="42.7442820" lon="0.0925090">
        <ele>1560.6</ele>
        <time>2020-07-26T10:44:22Z</time>
      </trkpt>
      <trkpt lat="42.7442550" lon="0.0925080">
        <ele>1560.6</ele>
        <time>2020-07-26T10:44:23Z</time>
      </trkpt>
      <trkpt lat="42.7441610" lon="0.0925140">
        <ele>1561.4</ele>
        <time>2020-07-26T10:44:27Z</time>
      </trkpt>
      <trkpt lat="42.7440940" lon="0.0925110">
        <ele>1562.0</ele>
        <time>2020-07-26T10:44:30Z</time>
      </trkpt>
      <trkpt lat="42.7440230" lon="0.0925170">
        <ele>1562.6</ele>
        <time>2020-07-26T10:44:33Z</time>
      </trkpt>
      <trkpt lat="42.7439690" lon="0.0925250">
        <ele>1563.0</ele>
        <time>2020-07-26T10:44:35Z</time>
      </trkpt>
      <trkpt lat="42.7438840" lon="0.0925450">
        <ele>1563.4</ele>
        <time>2020-07-26T10:44:38Z</time>
      </trkpt>
      <trkpt lat="42.7438570" lon="0.0925550">
        <ele>1563.8</ele>
        <time>2020-07-26T10:44:39Z</time>
      </trkpt>
      <trkpt lat="42.7437520" lon="0.0925890">
        <ele>1564.6</ele>
        <time>2020-07-26T10:44:43Z</time>
      </trkpt>
      <trkpt lat="42.7436990" lon="0.0926060">
        <ele>1565.0</ele>
        <time>2020-07-26T10:44:45Z</time>
      </trkpt>
      <trkpt lat="42.7436490" lon="0.0926360">
        <ele>1565.2</ele>
        <time>2020-07-26T10:44:47Z</time>
      </trkpt>
      <trkpt lat="42.7435670" lon="0.0927270">
        <ele>1566.2</ele>
        <time>2020-07-26T10:44:51Z</time>
      </trkpt>
      <trkpt lat="42.7435320" lon="0.0927670">
        <ele>1566.6</ele>
        <time>2020-07-26T10:44:53Z</time>
      </trkpt>
      <trkpt lat="42.7434730" lon="0.0928390">
        <ele>1567.2</ele>
        <time>2020-07-26T10:44:56Z</time>
      </trkpt>
      <trkpt lat="42.7434140" lon="0.0929150">
        <ele>1567.8</ele>
        <time>2020-07-26T10:44:59Z</time>
      </trkpt>
      <trkpt lat="42.7433680" lon="0.0929500">
        <ele>1568.4</ele>
        <time>2020-07-26T10:45:01Z</time>
      </trkpt>
      <trkpt lat="42.7433210" lon="0.0929810">
        <ele>1569.0</ele>
        <time>2020-07-26T10:45:03Z</time>
      </trkpt>
      <trkpt lat="42.7432960" lon="0.0929920">
        <ele>1569.2</ele>
        <time>2020-07-26T10:45:04Z</time>
      </trkpt>
      <trkpt lat="42.7432710" lon="0.0930020">
        <ele>1569.4</ele>
        <time>2020-07-26T10:45:05Z</time>
      </trkpt>
      <trkpt lat="42.7432450" lon="0.0930130">
        <ele>1569.6</ele>
        <time>2020-07-26T10:45:06Z</time>
      </trkpt>
      <trkpt lat="42.7431890" lon="0.0930350">
        <ele>1569.8</ele>
        <time>2020-07-26T10:45:08Z</time>
      </trkpt>
      <trkpt lat="42.7431300" lon="0.0930580">
        <ele>1570.6</ele>
        <time>2020-07-26T10:45:10Z</time>
      </trkpt>
      <trkpt lat="42.7430420" lon="0.0930710">
        <ele>1571.0</ele>
        <time>2020-07-26T10:45:13Z</time>
      </trkpt>
      <trkpt lat="42.7428770" lon="0.0930590">
        <ele>1571.8</ele>
        <time>2020-07-26T10:45:18Z</time>
      </trkpt>
      <trkpt lat="42.7428410" lon="0.0930490">
        <ele>1572.0</ele>
        <time>2020-07-26T10:45:19Z</time>
      </trkpt>
      <trkpt lat="42.7427020" lon="0.0929940">
        <ele>1572.8</ele>
        <time>2020-07-26T10:45:23Z</time>
      </trkpt>
      <trkpt lat="42.7425800" lon="0.0928990">
        <ele>1573.2</ele>
        <time>2020-07-26T10:45:27Z</time>
      </trkpt>
      <trkpt lat="42.7425220" lon="0.0927220">
        <ele>1574.0</ele>
        <time>2020-07-26T10:45:31Z</time>
      </trkpt>
      <trkpt lat="42.7425270" lon="0.0925870">
        <ele>1575.2</ele>
        <time>2020-07-26T10:45:34Z</time>
      </trkpt>
      <trkpt lat="42.7425410" lon="0.0925470">
        <ele>1575.4</ele>
        <time>2020-07-26T10:45:35Z</time>
      </trkpt>
      <trkpt lat="42.7426100" lon="0.0924130">
        <ele>1576.4</ele>
        <time>2020-07-26T10:45:39Z</time>
      </trkpt>
      <trkpt lat="42.7426720" lon="0.0923520">
        <ele>1577.0</ele>
        <time>2020-07-26T10:45:42Z</time>
      </trkpt>
      <trkpt lat="42.7427210" lon="0.0923200">
        <ele>1577.4</ele>
        <time>2020-07-26T10:45:44Z</time>
      </trkpt>
      <trkpt lat="42.7428100" lon="0.0922710">
        <ele>1578.4</ele>
        <time>2020-07-26T10:45:48Z</time>
      </trkpt>
      <trkpt lat="42.7428960" lon="0.0922130">
        <ele>1579.6</ele>
        <time>2020-07-26T10:45:52Z</time>
      </trkpt>
      <trkpt lat="42.7430140" lon="0.0921220">
        <ele>1580.6</ele>
        <time>2020-07-26T10:45:57Z</time>
      </trkpt>
      <trkpt lat="42.7431330" lon="0.0920140">
        <ele>1581.8</ele>
        <time>2020-07-26T10:46:02Z</time>
      </trkpt>
      <trkpt lat="42.7431970" lon="0.0919340">
        <ele>1582.6</ele>
        <time>2020-07-26T10:46:05Z</time>
      </trkpt>
      <trkpt lat="42.7432400" lon="0.0918790">
        <ele>1583.0</ele>
        <time>2020-07-26T10:46:07Z</time>
      </trkpt>
      <trkpt lat="42.7433420" lon="0.0917310">
        <ele>1583.8</ele>
        <time>2020-07-26T10:46:12Z</time>
      </trkpt>
      <trkpt lat="42.7433610" lon="0.0917000">
        <ele>1584.0</ele>
        <time>2020-07-26T10:46:13Z</time>
      </trkpt>
      <trkpt lat="42.7434240" lon="0.0916190">
        <ele>1584.6</ele>
        <time>2020-07-26T10:46:16Z</time>
      </trkpt>
      <trkpt lat="42.7434450" lon="0.0915920">
        <ele>1585.0</ele>
        <time>2020-07-26T10:46:17Z</time>
      </trkpt>
      <trkpt lat="42.7435320" lon="0.0914930">
        <ele>1585.8</ele>
        <time>2020-07-26T10:46:21Z</time>
      </trkpt>
      <trkpt lat="42.7435550" lon="0.0914710">
        <ele>1586.0</ele>
        <time>2020-07-26T10:46:22Z</time>
      </trkpt>
      <trkpt lat="42.7436020" lon="0.0914380">
        <ele>1586.6</ele>
        <time>2020-07-26T10:46:24Z</time>
      </trkpt>
      <trkpt lat="42.7436640" lon="0.0913920">
        <ele>1587.2</ele>
        <time>2020-07-26T10:46:27Z</time>
      </trkpt>
      <trkpt lat="42.7437230" lon="0.0913430">
        <ele>1588.4</ele>
        <time>2020-07-26T10:46:30Z</time>
      </trkpt>
      <trkpt lat="42.7437770" lon="0.0912980">
        <ele>1589.0</ele>
        <time>2020-07-26T10:46:33Z</time>
      </trkpt>
      <trkpt lat="42.7437980" lon="0.0912830">
        <ele>1589.2</ele>
        <time>2020-07-26T10:46:34Z</time>
      </trkpt>
      <trkpt lat="42.7438180" lon="0.0912660">
        <ele>1589.4</ele>
        <time>2020-07-26T10:46:35Z</time>
      </trkpt>
      <trkpt lat="42.7438390" lon="0.0912470">
        <ele>1589.4</ele>
        <time>2020-07-26T10:46:36Z</time>
      </trkpt>
      <trkpt lat="42.7438600" lon="0.0912290">
        <ele>1589.8</ele>
        <time>2020-07-26T10:46:37Z</time>
      </trkpt>
      <trkpt lat="42.7439060" lon="0.0911920">
        <ele>1590.6</ele>
        <time>2020-07-26T10:46:39Z</time>
      </trkpt>
      <trkpt lat="42.7439270" lon="0.0911720">
        <ele>1590.8</ele>
        <time>2020-07-26T10:46:40Z</time>
      </trkpt>
      <trkpt lat="42.7440120" lon="0.0910850">
        <ele>1591.6</ele>
        <time>2020-07-26T10:46:44Z</time>
      </trkpt>
      <trkpt lat="42.7440340" lon="0.0910620">
        <ele>1592.0</ele>
        <time>2020-07-26T10:46:45Z</time>
      </trkpt>
      <trkpt lat="42.7440720" lon="0.0910090">
        <ele>1592.6</ele>
        <time>2020-07-26T10:46:47Z</time>
      </trkpt>
      <trkpt lat="42.7441070" lon="0.0909530">
        <ele>1592.8</ele>
        <time>2020-07-26T10:46:49Z</time>
      </trkpt>
      <trkpt lat="42.7441730" lon="0.0908340">
        <ele>1594.0</ele>
        <time>2020-07-26T10:46:53Z</time>
      </trkpt>
      <trkpt lat="42.7442390" lon="0.0907350">
        <ele>1595.2</ele>
        <time>2020-07-26T10:46:57Z</time>
      </trkpt>
      <trkpt lat="42.7442550" lon="0.0907080">
        <ele>1595.4</ele>
        <time>2020-07-26T10:46:58Z</time>
      </trkpt>
      <trkpt lat="42.7443090" lon="0.0906020">
        <ele>1596.4</ele>
        <time>2020-07-26T10:47:02Z</time>
      </trkpt>
      <trkpt lat="42.7443770" lon="0.0904760">
        <ele>1597.6</ele>
        <time>2020-07-26T10:47:07Z</time>
      </trkpt>
      <trkpt lat="42.7444490" lon="0.0903450">
        <ele>1598.8</ele>
        <time>2020-07-26T10:47:12Z</time>
      </trkpt>
      <trkpt lat="42.7444840" lon="0.0902880">
        <ele>1599.2</ele>
        <time>2020-07-26T10:47:14Z</time>
      </trkpt>
      <trkpt lat="42.7445280" lon="0.0901980">
        <ele>1600.0</ele>
        <time>2020-07-26T10:47:17Z</time>
      </trkpt>
      <trkpt lat="42.7445890" lon="0.0900860">
        <ele>1600.8</ele>
        <time>2020-07-26T10:47:21Z</time>
      </trkpt>
      <trkpt lat="42.7446030" lon="0.0900560">
        <ele>1601.0</ele>
        <time>2020-07-26T10:47:22Z</time>
      </trkpt>
      <trkpt lat="42.7446520" lon="0.0899730">
        <ele>1602.2</ele>
        <time>2020-07-26T10:47:25Z</time>
      </trkpt>
      <trkpt lat="42.7447090" lon="0.0898570">
        <ele>1603.0</ele>
        <time>2020-07-26T10:47:29Z</time>
      </trkpt>
      <trkpt lat="42.7447670" lon="0.0897920">
        <ele>1603.4</ele>
        <time>2020-07-26T10:47:32Z</time>
      </trkpt>
      <trkpt lat="42.7448600" lon="0.0897380">
        <ele>1604.2</ele>
        <time>2020-07-26T10:47:36Z</time>
      </trkpt>
      <trkpt lat="42.7449020" lon="0.0897130">
        <ele>1604.4</ele>
        <time>2020-07-26T10:47:38Z</time>
      </trkpt>
      <trkpt lat="42.7449710" lon="0.0896190">
        <ele>1605.6</ele>
        <time>2020-07-26T10:47:43Z</time>
      </trkpt>
      <trkpt lat="42.7449580" lon="0.0895590">
        <ele>1606.2</ele>
        <time>2020-07-26T10:47:45Z</time>
      </trkpt>
      <trkpt lat="42.7449200" lon="0.0895270">
        <ele>1606.4</ele>
        <time>2020-07-26T10:47:47Z</time>
      </trkpt>
      <trkpt lat="42.7448960" lon="0.0895280">
        <ele>1606.6</ele>
        <time>2020-07-26T10:47:48Z</time>
      </trkpt>
      <trkpt lat="42.7447970" lon="0.0895710">
        <ele>1606.8</ele>
        <time>2020-07-26T10:47:52Z</time>
      </trkpt>
      <trkpt lat="42.7447070" lon="0.0896690">
        <ele>1607.6</ele>
        <time>2020-07-26T10:47:56Z</time>
      </trkpt>
      <trkpt lat="42.7446660" lon="0.0897180">
        <ele>1608.2</ele>
        <time>2020-07-26T10:47:58Z</time>
      </trkpt>
      <trkpt lat="42.7446290" lon="0.0897700">
        <ele>1608.6</ele>
        <time>2020-07-26T10:48:00Z</time>
      </trkpt>
      <trkpt lat="42.7446100" lon="0.0897940">
        <ele>1608.8</ele>
        <time>2020-07-26T10:48:01Z</time>
      </trkpt>
      <trkpt lat="42.7445330" lon="0.0898780">
        <ele>1609.8</ele>
        <time>2020-07-26T10:48:05Z</time>
      </trkpt>
      <trkpt lat="42.7444810" lon="0.0899290">
        <ele>1610.4</ele>
        <time>2020-07-26T10:48:08Z</time>
      </trkpt>
      <trkpt lat="42.7444390" lon="0.0899680">
        <ele>1611.0</ele>
        <time>2020-07-26T10:48:11Z</time>
      </trkpt>
      <trkpt lat="42.7443750" lon="0.0900110">
        <ele>1611.8</ele>
        <time>2020-07-26T10:48:15Z</time>
      </trkpt>
      <trkpt lat="42.7443570" lon="0.0900220">
        <ele>1612.0</ele>
        <time>2020-07-26T10:48:16Z</time>
      </trkpt>
      <trkpt lat="42.7442840" lon="0.0900600">
        <ele>1612.4</ele>
        <time>2020-07-26T10:48:20Z</time>
      </trkpt>
      <trkpt lat="42.7441860" lon="0.0901000">
        <ele>1612.8</ele>
        <time>2020-07-26T10:48:25Z</time>
      </trkpt>
      <trkpt lat="42.7441460" lon="0.0901180">
        <ele>1613.0</ele>
        <time>2020-07-26T10:48:27Z</time>
      </trkpt>
      <trkpt lat="42.7440340" lon="0.0901890">
        <ele>1614.2</ele>
        <time>2020-07-26T10:48:33Z</time>
      </trkpt>
      <trkpt lat="42.7440120" lon="0.0902040">
        <ele>1614.6</ele>
        <time>2020-07-26T10:48:34Z</time>
      </trkpt>
      <trkpt lat="42.7439320" lon="0.0902560">
        <ele>1615.2</ele>
        <time>2020-07-26T10:48:37Z</time>
      </trkpt>
      <trkpt lat="42.7438200" lon="0.0902950">
        <ele>1616.0</ele>
        <time>2020-07-26T10:48:41Z</time>
      </trkpt>
      <trkpt lat="42.7437920" lon="0.0903030">
        <ele>1616.4</ele>
        <time>2020-07-26T10:48:42Z</time>
      </trkpt>
      <trkpt lat="42.7436620" lon="0.0903350">
        <ele>1617.6</ele>
        <time>2020-07-26T10:48:47Z</time>
      </trkpt>
      <trkpt lat="42.7436400" lon="0.0903440">
        <ele>1618.0</ele>
        <time>2020-07-26T10:48:48Z</time>
      </trkpt>
      <trkpt lat="42.7435670" lon="0.0903750">
        <ele>1619.0</ele>
        <time>2020-07-26T10:48:51Z</time>
      </trkpt>
      <trkpt lat="42.7435440" lon="0.0903870">
        <ele>1619.2</ele>
        <time>2020-07-26T10:48:52Z</time>
      </trkpt>
      <trkpt lat="42.7434960" lon="0.0904130">
        <ele>1620.0</ele>
        <time>2020-07-26T10:48:54Z</time>
      </trkpt>
      <trkpt lat="42.7434710" lon="0.0904240">
        <ele>1620.2</ele>
        <time>2020-07-26T10:48:55Z</time>
      </trkpt>
      <trkpt lat="42.7433520" lon="0.0905020">
        <ele>1621.4</ele>
        <time>2020-07-26T10:49:00Z</time>
      </trkpt>
      <trkpt lat="42.7432910" lon="0.0905390">
        <ele>1622.0</ele>
        <time>2020-07-26T10:49:03Z</time>
      </trkpt>
      <trkpt lat="42.7432120" lon="0.0905850">
        <ele>1622.4</ele>
        <time>2020-07-26T10:49:07Z</time>
      </trkpt>
      <trkpt lat="42.7431420" lon="0.0906140">
        <ele>1622.8</ele>
        <time>2020-07-26T10:49:10Z</time>
      </trkpt>
      <trkpt lat="42.7430680" lon="0.0906490">
        <ele>1623.8</ele>
        <time>2020-07-26T10:49:13Z</time>
      </trkpt>
      <trkpt lat="42.7429620" lon="0.0906990">
        <ele>1624.8</ele>
        <time>2020-07-26T10:49:18Z</time>
      </trkpt>
      <trkpt lat="42.7429410" lon="0.0907070">
        <ele>1625.0</ele>
        <time>2020-07-26T10:49:19Z</time>
      </trkpt>
      <trkpt lat="42.7428580" lon="0.0907370">
        <ele>1626.2</ele>
        <time>2020-07-26T10:49:23Z</time>
      </trkpt>
      <trkpt lat="42.7427900" lon="0.0907590">
        <ele>1627.0</ele>
        <time>2020-07-26T10:49:26Z</time>
      </trkpt>
      <trkpt lat="42.7427680" lon="0.0907660">
        <ele>1627.2</ele>
        <time>2020-07-26T10:49:27Z</time>
      </trkpt>
      <trkpt lat="42.7426610" lon="0.0908070">
        <ele>1628.4</ele>
        <time>2020-07-26T10:49:32Z</time>
      </trkpt>
      <trkpt lat="42.7425800" lon="0.0908310">
        <ele>1629.0</ele>
        <time>2020-07-26T10:49:36Z</time>
      </trkpt>
      <trkpt lat="42.7425410" lon="0.0908490">
        <ele>1629.4</ele>
        <time>2020-07-26T10:49:38Z</time>
      </trkpt>
      <trkpt lat="42.7424570" lon="0.0908980">
        <ele>1630.4</ele>
        <time>2020-07-26T10:49:42Z</time>
      </trkpt>
      <trkpt lat="42.7423690" lon="0.0909560">
        <ele>1631.6</ele>
        <time>2020-07-26T10:49:46Z</time>
      </trkpt>
      <trkpt lat="42.7422730" lon="0.0909950">
        <ele>1632.2</ele>
        <time>2020-07-26T10:49:50Z</time>
      </trkpt>
      <trkpt lat="42.7422270" lon="0.0910090">
        <ele>1632.6</ele>
        <time>2020-07-26T10:49:52Z</time>
      </trkpt>
      <trkpt lat="42.7421090" lon="0.0909990">
        <ele>1633.8</ele>
        <time>2020-07-26T10:49:57Z</time>
      </trkpt>
      <trkpt lat="42.7420860" lon="0.0909930">
        <ele>1634.0</ele>
        <time>2020-07-26T10:49:58Z</time>
      </trkpt>
      <trkpt lat="42.7420290" lon="0.0909100">
        <ele>1634.6</ele>
        <time>2020-07-26T10:50:02Z</time>
      </trkpt>
      <trkpt lat="42.7420290" lon="0.0908810">
        <ele>1635.0</ele>
        <time>2020-07-26T10:50:03Z</time>
      </trkpt>
      <trkpt lat="42.7420380" lon="0.0908550">
        <ele>1635.4</ele>
        <time>2020-07-26T10:50:04Z</time>
      </trkpt>
      <trkpt lat="42.7420740" lon="0.0908160">
        <ele>1636.0</ele>
        <time>2020-07-26T10:50:06Z</time>
      </trkpt>
      <trkpt lat="42.7420970" lon="0.0908080">
        <ele>1636.2</ele>
        <time>2020-07-26T10:50:07Z</time>
      </trkpt>
      <trkpt lat="42.7421880" lon="0.0907930">
        <ele>1637.2</ele>
        <time>2020-07-26T10:50:11Z</time>
      </trkpt>
      <trkpt lat="42.7422150" lon="0.0907880">
        <ele>1637.6</ele>
        <time>2020-07-26T10:50:12Z</time>
      </trkpt>
      <trkpt lat="42.7423280" lon="0.0907420">
        <ele>1638.6</ele>
        <time>2020-07-26T10:50:16Z</time>
      </trkpt>
      <trkpt lat="42.7423850" lon="0.0907080">
        <ele>1639.2</ele>
        <time>2020-07-26T10:50:18Z</time>
      </trkpt>
      <trkpt lat="42.7424410" lon="0.0906660">
        <ele>1639.8</ele>
        <time>2020-07-26T10:50:20Z</time>
      </trkpt>
      <trkpt lat="42.7425700" lon="0.0905360">
        <ele>1640.8</ele>
        <time>2020-07-26T10:50:25Z</time>
      </trkpt>
      <trkpt lat="42.7425930" lon="0.0905110">
        <ele>1641.0</ele>
        <time>2020-07-26T10:50:26Z</time>
      </trkpt>
      <trkpt lat="42.7426620" lon="0.0904400">
        <ele>1642.0</ele>
        <time>2020-07-26T10:50:29Z</time>
      </trkpt>
      <trkpt lat="42.7427580" lon="0.0903290">
        <ele>1643.0</ele>
        <time>2020-07-26T10:50:33Z</time>
      </trkpt>
      <trkpt lat="42.7428070" lon="0.0902710">
        <ele>1643.2</ele>
        <time>2020-07-26T10:50:35Z</time>
      </trkpt>
      <trkpt lat="42.7429030" lon="0.0901700">
        <ele>1644.2</ele>
        <time>2020-07-26T10:50:39Z</time>
      </trkpt>
      <trkpt lat="42.7429980" lon="0.0900740">
        <ele>1645.2</ele>
        <time>2020-07-26T10:50:43Z</time>
      </trkpt>
      <trkpt lat="42.7431120" lon="0.0899560">
        <ele>1646.4</ele>
        <time>2020-07-26T10:50:48Z</time>
      </trkpt>
      <trkpt lat="42.7432050" lon="0.0898490">
        <ele>1647.4</ele>
        <time>2020-07-26T10:50:52Z</time>
      </trkpt>
      <trkpt lat="42.7433350" lon="0.0896790">
        <ele>1648.4</ele>
        <time>2020-07-26T10:50:58Z</time>
      </trkpt>
      <trkpt lat="42.7433540" lon="0.0896470">
        <ele>1648.6</ele>
        <time>2020-07-26T10:50:59Z</time>
      </trkpt>
      <trkpt lat="42.7433740" lon="0.0896170">
        <ele>1648.8</ele>
        <time>2020-07-26T10:51:00Z</time>
      </trkpt>
      <trkpt lat="42.7434370" lon="0.0895290">
        <ele>1649.6</ele>
        <time>2020-07-26T10:51:03Z</time>
      </trkpt>
      <trkpt lat="42.7435510" lon="0.0893410">
        <ele>1650.8</ele>
        <time>2020-07-26T10:51:09Z</time>
      </trkpt>
      <trkpt lat="42.7435720" lon="0.0893090">
        <ele>1651.0</ele>
        <time>2020-07-26T10:51:10Z</time>
      </trkpt>
      <trkpt lat="42.7436750" lon="0.0891560">
        <ele>1652.0</ele>
        <time>2020-07-26T10:51:15Z</time>
      </trkpt>
      <trkpt lat="42.7437250" lon="0.0891050">
        <ele>1652.2</ele>
        <time>2020-07-26T10:51:17Z</time>
      </trkpt>
      <trkpt lat="42.7437790" lon="0.0890680">
        <ele>1652.6</ele>
        <time>2020-07-26T10:51:19Z</time>
      </trkpt>
      <trkpt lat="42.7438340" lon="0.0890320">
        <ele>1653.4</ele>
        <time>2020-07-26T10:51:21Z</time>
      </trkpt>
      <trkpt lat="42.7439110" lon="0.0889670">
        <ele>1654.4</ele>
        <time>2020-07-26T10:51:24Z</time>
      </trkpt>
      <trkpt lat="42.7439350" lon="0.0889430">
        <ele>1654.6</ele>
        <time>2020-07-26T10:51:25Z</time>
      </trkpt>
      <trkpt lat="42.7440390" lon="0.0888530">
        <ele>1655.2</ele>
        <time>2020-07-26T10:51:29Z</time>
      </trkpt>
      <trkpt lat="42.7440710" lon="0.0887490">
        <ele>1655.4</ele>
        <time>2020-07-26T10:51:32Z</time>
      </trkpt>
      <trkpt lat="42.7440360" lon="0.0886960">
        <ele>1656.0</ele>
        <time>2020-07-26T10:51:34Z</time>
      </trkpt>
      <trkpt lat="42.7440110" lon="0.0886960">
        <ele>1656.2</ele>
        <time>2020-07-26T10:51:35Z</time>
      </trkpt>
      <trkpt lat="42.7439210" lon="0.0887380">
        <ele>1657.0</ele>
        <time>2020-07-26T10:51:38Z</time>
      </trkpt>
      <trkpt lat="42.7438350" lon="0.0887870">
        <ele>1657.4</ele>
        <time>2020-07-26T10:51:41Z</time>
      </trkpt>
      <trkpt lat="42.7436940" lon="0.0888650">
        <ele>1658.2</ele>
        <time>2020-07-26T10:51:46Z</time>
      </trkpt>
      <trkpt lat="42.7436480" lon="0.0888870">
        <ele>1658.6</ele>
        <time>2020-07-26T10:51:48Z</time>
      </trkpt>
      <trkpt lat="42.7436250" lon="0.0888990">
        <ele>1659.2</ele>
        <time>2020-07-26T10:51:49Z</time>
      </trkpt>
      <trkpt lat="42.7435170" lon="0.0889370">
        <ele>1660.2</ele>
        <time>2020-07-26T10:51:53Z</time>
      </trkpt>
      <trkpt lat="42.7434630" lon="0.0889540">
        <ele>1660.8</ele>
        <time>2020-07-26T10:51:55Z</time>
      </trkpt>
      <trkpt lat="42.7434090" lon="0.0889740">
        <ele>1661.4</ele>
        <time>2020-07-26T10:51:57Z</time>
      </trkpt>
      <trkpt lat="42.7432800" lon="0.0890360">
        <ele>1662.6</ele>
        <time>2020-07-26T10:52:02Z</time>
      </trkpt>
      <trkpt lat="42.7432560" lon="0.0890500">
        <ele>1662.8</ele>
        <time>2020-07-26T10:52:03Z</time>
      </trkpt>
      <trkpt lat="42.7431900" lon="0.0891220">
        <ele>1663.8</ele>
        <time>2020-07-26T10:52:06Z</time>
      </trkpt>
      <trkpt lat="42.7431370" lon="0.0891980">
        <ele>1664.6</ele>
        <time>2020-07-26T10:52:09Z</time>
      </trkpt>
      <trkpt lat="42.7431040" lon="0.0892450">
        <ele>1665.0</ele>
        <time>2020-07-26T10:52:11Z</time>
      </trkpt>
      <trkpt lat="42.7430440" lon="0.0893460">
        <ele>1666.4</ele>
        <time>2020-07-26T10:52:15Z</time>
      </trkpt>
      <trkpt lat="42.7429880" lon="0.0894100">
        <ele>1667.4</ele>
        <time>2020-07-26T10:52:18Z</time>
      </trkpt>
      <trkpt lat="42.7429650" lon="0.0894230">
        <ele>1667.6</ele>
        <time>2020-07-26T10:52:19Z</time>
      </trkpt>
      <trkpt lat="42.7429410" lon="0.0894220">
        <ele>1667.8</ele>
        <time>2020-07-26T10:52:20Z</time>
      </trkpt>
      <trkpt lat="42.7428940" lon="0.0893970">
        <ele>1668.6</ele>
        <time>2020-07-26T10:52:22Z</time>
      </trkpt>
      <trkpt lat="42.7428750" lon="0.0893720">
        <ele>1669.0</ele>
        <time>2020-07-26T10:52:23Z</time>
      </trkpt>
      <trkpt lat="42.7428650" lon="0.0893410">
        <ele>1669.4</ele>
        <time>2020-07-26T10:52:24Z</time>
      </trkpt>
      <trkpt lat="42.7428810" lon="0.0892630">
        <ele>1669.8</ele>
        <time>2020-07-26T10:52:26Z</time>
      </trkpt>
      <trkpt lat="42.7428990" lon="0.0892280">
        <ele>1670.0</ele>
        <time>2020-07-26T10:52:27Z</time>
      </trkpt>
      <trkpt lat="42.7429990" lon="0.0890540">
        <ele>1671.0</ele>
        <time>2020-07-26T10:52:32Z</time>
      </trkpt>
      <trkpt lat="42.7430140" lon="0.0890180">
        <ele>1671.2</ele>
        <time>2020-07-26T10:52:33Z</time>
      </trkpt>
      <trkpt lat="42.7430470" lon="0.0889040">
        <ele>1672.0</ele>
        <time>2020-07-26T10:52:36Z</time>
      </trkpt>
      <trkpt lat="42.7430510" lon="0.0887910">
        <ele>1672.8</ele>
        <time>2020-07-26T10:52:39Z</time>
      </trkpt>
      <trkpt lat="42.7430480" lon="0.0887550">
        <ele>1673.2</ele>
        <time>2020-07-26T10:52:40Z</time>
      </trkpt>
      <trkpt lat="42.7430110" lon="0.0886090">
        <ele>1674.2</ele>
        <time>2020-07-26T10:52:44Z</time>
      </trkpt>
      <trkpt lat="42.7429770" lon="0.0885380">
        <ele>1674.6</ele>
        <time>2020-07-26T10:52:46Z</time>
      </trkpt>
      <trkpt lat="42.7429160" lon="0.0884420">
        <ele>1675.2</ele>
        <time>2020-07-26T10:52:49Z</time>
      </trkpt>
      <trkpt lat="42.7427970" lon="0.0883190">
        <ele>1676.4</ele>
        <time>2020-07-26T10:52:54Z</time>
      </trkpt>
      <trkpt lat="42.7426540" lon="0.0882760">
        <ele>1676.8</ele>
        <time>2020-07-26T10:52:59Z</time>
      </trkpt>
      <trkpt lat="42.7425600" lon="0.0883720">
        <ele>1677.6</ele>
        <time>2020-07-26T10:53:03Z</time>
      </trkpt>
      <trkpt lat="42.7425020" lon="0.0885270">
        <ele>1678.6</ele>
        <time>2020-07-26T10:53:07Z</time>
      </trkpt>
      <trkpt lat="42.7424650" lon="0.0886380">
        <ele>1679.2</ele>
        <time>2020-07-26T10:53:10Z</time>
      </trkpt>
      <trkpt lat="42.7424280" lon="0.0887430">
        <ele>1679.8</ele>
        <time>2020-07-26T10:53:13Z</time>
      </trkpt>
      <trkpt lat="42.7423520" lon="0.0889110">
        <ele>1681.0</ele>
        <time>2020-07-26T10:53:18Z</time>
      </trkpt>
      <trkpt lat="42.7423360" lon="0.0889460">
        <ele>1681.4</ele>
        <time>2020-07-26T10:53:19Z</time>
      </trkpt>
      <trkpt lat="42.7421990" lon="0.0891240">
        <ele>1682.2</ele>
        <time>2020-07-26T10:53:25Z</time>
      </trkpt>
      <trkpt lat="42.7421730" lon="0.0891460">
        <ele>1682.4</ele>
        <time>2020-07-26T10:53:26Z</time>
      </trkpt>
      <trkpt lat="42.7420620" lon="0.0892240">
        <ele>1683.2</ele>
        <time>2020-07-26T10:53:30Z</time>
      </trkpt>
      <trkpt lat="42.7419080" lon="0.0892920">
        <ele>1684.4</ele>
        <time>2020-07-26T10:53:35Z</time>
      </trkpt>
      <trkpt lat="42.7417610" lon="0.0892680">
        <ele>1685.2</ele>
        <time>2020-07-26T10:53:40Z</time>
      </trkpt>
      <trkpt lat="42.7417340" lon="0.0892530">
        <ele>1685.4</ele>
        <time>2020-07-26T10:53:41Z</time>
      </trkpt>
      <trkpt lat="42.7416780" lon="0.0891700">
        <ele>1686.6</ele>
        <time>2020-07-26T10:53:44Z</time>
      </trkpt>
      <trkpt lat="42.7416720" lon="0.0891330">
        <ele>1686.8</ele>
        <time>2020-07-26T10:53:45Z</time>
      </trkpt>
      <trkpt lat="42.7416810" lon="0.0890550">
        <ele>1687.6</ele>
        <time>2020-07-26T10:53:47Z</time>
      </trkpt>
      <trkpt lat="42.7417210" lon="0.0889880">
        <ele>1688.6</ele>
        <time>2020-07-26T10:53:49Z</time>
      </trkpt>
      <trkpt lat="42.7418260" lon="0.0888880">
        <ele>1689.4</ele>
        <time>2020-07-26T10:53:53Z</time>
      </trkpt>
      <trkpt lat="42.7418750" lon="0.0888360">
        <ele>1689.6</ele>
        <time>2020-07-26T10:53:55Z</time>
      </trkpt>
      <trkpt lat="42.7418970" lon="0.0888080">
        <ele>1689.8</ele>
        <time>2020-07-26T10:53:56Z</time>
      </trkpt>
      <trkpt lat="42.7419180" lon="0.0887780">
        <ele>1690.2</ele>
        <time>2020-07-26T10:53:57Z</time>
      </trkpt>
      <trkpt lat="42.7419740" lon="0.0886800">
        <ele>1691.2</ele>
        <time>2020-07-26T10:54:00Z</time>
      </trkpt>
      <trkpt lat="42.7420460" lon="0.0885110">
        <ele>1692.2</ele>
        <time>2020-07-26T10:54:05Z</time>
      </trkpt>
      <trkpt lat="42.7420600" lon="0.0884800">
        <ele>1692.4</ele>
        <time>2020-07-26T10:54:06Z</time>
      </trkpt>
      <trkpt lat="42.7421440" lon="0.0883260">
        <ele>1693.4</ele>
        <time>2020-07-26T10:54:11Z</time>
      </trkpt>
      <trkpt lat="42.7421740" lon="0.0882570">
        <ele>1693.6</ele>
        <time>2020-07-26T10:54:13Z</time>
      </trkpt>
      <trkpt lat="42.7422240" lon="0.0881530">
        <ele>1694.6</ele>
        <time>2020-07-26T10:54:16Z</time>
      </trkpt>
      <trkpt lat="42.7422830" lon="0.0880200">
        <ele>1695.8</ele>
        <time>2020-07-26T10:54:20Z</time>
      </trkpt>
      <trkpt lat="42.7422980" lon="0.0879870">
        <ele>1696.0</ele>
        <time>2020-07-26T10:54:21Z</time>
      </trkpt>
      <trkpt lat="42.7423560" lon="0.0878560">
        <ele>1697.2</ele>
        <time>2020-07-26T10:54:25Z</time>
      </trkpt>
      <trkpt lat="42.7424210" lon="0.0877280">
        <ele>1698.2</ele>
        <time>2020-07-26T10:54:29Z</time>
      </trkpt>
      <trkpt lat="42.7424520" lon="0.0876670">
        <ele>1698.8</ele>
        <time>2020-07-26T10:54:31Z</time>
      </trkpt>
      <trkpt lat="42.7425390" lon="0.0875090">
        <ele>1699.4</ele>
        <time>2020-07-26T10:54:36Z</time>
      </trkpt>
      <trkpt lat="42.7425680" lon="0.0874440">
        <ele>1699.8</ele>
        <time>2020-07-26T10:54:38Z</time>
      </trkpt>
      <trkpt lat="42.7426020" lon="0.0873380">
        <ele>1700.6</ele>
        <time>2020-07-26T10:54:41Z</time>
      </trkpt>
      <trkpt lat="42.7426390" lon="0.0871900">
        <ele>1701.4</ele>
        <time>2020-07-26T10:54:45Z</time>
      </trkpt>
      <trkpt lat="42.7426460" lon="0.0871540">
        <ele>1701.8</ele>
        <time>2020-07-26T10:54:46Z</time>
      </trkpt>
      <trkpt lat="42.7426650" lon="0.0869980">
        <ele>1702.8</ele>
        <time>2020-07-26T10:54:50Z</time>
      </trkpt>
      <trkpt lat="42.7426770" lon="0.0868870">
        <ele>1703.2</ele>
        <time>2020-07-26T10:54:53Z</time>
      </trkpt>
      <trkpt lat="42.7426790" lon="0.0868140">
        <ele>1703.8</ele>
        <time>2020-07-26T10:54:55Z</time>
      </trkpt>
      <trkpt lat="42.7426690" lon="0.0866300">
        <ele>1704.6</ele>
        <time>2020-07-26T10:55:00Z</time>
      </trkpt>
      <trkpt lat="42.7426510" lon="0.0865610">
        <ele>1704.8</ele>
        <time>2020-07-26T10:55:02Z</time>
      </trkpt>
      <trkpt lat="42.7426140" lon="0.0864310">
        <ele>1706.0</ele>
        <time>2020-07-26T10:55:06Z</time>
      </trkpt>
      <trkpt lat="42.7426050" lon="0.0863970">
        <ele>1706.2</ele>
        <time>2020-07-26T10:55:07Z</time>
      </trkpt>
      <trkpt lat="42.7425810" lon="0.0862980">
        <ele>1707.0</ele>
        <time>2020-07-26T10:55:10Z</time>
      </trkpt>
      <trkpt lat="42.7425890" lon="0.0861970">
        <ele>1707.4</ele>
        <time>2020-07-26T10:55:13Z</time>
      </trkpt>
      <trkpt lat="42.7426370" lon="0.0860880">
        <ele>1708.4</ele>
        <time>2020-07-26T10:55:17Z</time>
      </trkpt>
      <trkpt lat="42.7427020" lon="0.0859890">
        <ele>1709.6</ele>
        <time>2020-07-26T10:55:21Z</time>
      </trkpt>
      <trkpt lat="42.7427530" lon="0.0858890">
        <ele>1710.8</ele>
        <time>2020-07-26T10:55:25Z</time>
      </trkpt>
      <trkpt lat="42.7427660" lon="0.0857910">
        <ele>1711.4</ele>
        <time>2020-07-26T10:55:28Z</time>
      </trkpt>
      <trkpt lat="42.7427400" lon="0.0857300">
        <ele>1711.4</ele>
        <time>2020-07-26T10:55:30Z</time>
      </trkpt>
      <trkpt lat="42.7426880" lon="0.0857080">
        <ele>1711.6</ele>
        <time>2020-07-26T10:55:32Z</time>
      </trkpt>
      <trkpt lat="42.7426020" lon="0.0857370">
        <ele>1711.8</ele>
        <time>2020-07-26T10:55:35Z</time>
      </trkpt>
      <trkpt lat="42.7425600" lon="0.0857850">
        <ele>1712.6</ele>
        <time>2020-07-26T10:55:37Z</time>
      </trkpt>
      <trkpt lat="42.7425190" lon="0.0858300">
        <ele>1713.0</ele>
        <time>2020-07-26T10:55:39Z</time>
      </trkpt>
      <trkpt lat="42.7424500" lon="0.0859120">
        <ele>1713.4</ele>
        <time>2020-07-26T10:55:43Z</time>
      </trkpt>
      <trkpt lat="42.7423920" lon="0.0859710">
        <ele>1714.2</ele>
        <time>2020-07-26T10:55:46Z</time>
      </trkpt>
      <trkpt lat="42.7423080" lon="0.0860440">
        <ele>1715.0</ele>
        <time>2020-07-26T10:55:50Z</time>
      </trkpt>
      <trkpt lat="42.7422880" lon="0.0860630">
        <ele>1715.2</ele>
        <time>2020-07-26T10:55:51Z</time>
      </trkpt>
      <trkpt lat="42.7421950" lon="0.0861360">
        <ele>1716.2</ele>
        <time>2020-07-26T10:55:55Z</time>
      </trkpt>
      <trkpt lat="42.7421420" lon="0.0861340">
        <ele>1716.8</ele>
        <time>2020-07-26T10:55:57Z</time>
      </trkpt>
      <trkpt lat="42.7421190" lon="0.0861150">
        <ele>1717.0</ele>
        <time>2020-07-26T10:55:58Z</time>
      </trkpt>
      <trkpt lat="42.7421020" lon="0.0860860">
        <ele>1717.4</ele>
        <time>2020-07-26T10:55:59Z</time>
      </trkpt>
      <trkpt lat="42.7420920" lon="0.0860500">
        <ele>1717.8</ele>
        <time>2020-07-26T10:56:00Z</time>
      </trkpt>
      <trkpt lat="42.7420950" lon="0.0860140">
        <ele>1718.2</ele>
        <time>2020-07-26T10:56:01Z</time>
      </trkpt>
      <trkpt lat="42.7421090" lon="0.0859830">
        <ele>1718.6</ele>
        <time>2020-07-26T10:56:02Z</time>
      </trkpt>
      <trkpt lat="42.7421880" lon="0.0858730">
        <ele>1719.6</ele>
        <time>2020-07-26T10:56:06Z</time>
      </trkpt>
      <trkpt lat="42.7422100" lon="0.0858420">
        <ele>1719.8</ele>
        <time>2020-07-26T10:56:07Z</time>
      </trkpt>
      <trkpt lat="42.7422880" lon="0.0857090">
        <ele>1721.0</ele>
        <time>2020-07-26T10:56:11Z</time>
      </trkpt>
      <trkpt lat="42.7423320" lon="0.0855990">
        <ele>1721.6</ele>
        <time>2020-07-26T10:56:14Z</time>
      </trkpt>
      <trkpt lat="42.7423680" lon="0.0854470">
        <ele>1722.2</ele>
        <time>2020-07-26T10:56:18Z</time>
      </trkpt>
      <trkpt lat="42.7423910" lon="0.0852930">
        <ele>1723.2</ele>
        <time>2020-07-26T10:56:22Z</time>
      </trkpt>
      <trkpt lat="42.7424000" lon="0.0851410">
        <ele>1724.2</ele>
        <time>2020-07-26T10:56:26Z</time>
      </trkpt>
      <trkpt lat="42.7423870" lon="0.0851080">
        <ele>1724.2</ele>
        <time>2020-07-26T10:56:27Z</time>
      </trkpt>
      <trkpt lat="42.7423390" lon="0.0850670">
        <ele>1724.6</ele>
        <time>2020-07-26T10:56:29Z</time>
      </trkpt>
      <trkpt lat="42.7422830" lon="0.0850760">
        <ele>1725.2</ele>
        <time>2020-07-26T10:56:31Z</time>
      </trkpt>
      <trkpt lat="42.7422570" lon="0.0850960">
        <ele>1725.4</ele>
        <time>2020-07-26T10:56:32Z</time>
      </trkpt>
      <trkpt lat="42.7421690" lon="0.0852140">
        <ele>1726.2</ele>
        <time>2020-07-26T10:56:36Z</time>
      </trkpt>
      <trkpt lat="42.7421470" lon="0.0852480">
        <ele>1726.4</ele>
        <time>2020-07-26T10:56:37Z</time>
      </trkpt>
      <trkpt lat="42.7420550" lon="0.0853570">
        <ele>1727.6</ele>
        <time>2020-07-26T10:56:41Z</time>
      </trkpt>
      <trkpt lat="42.7420080" lon="0.0854030">
        <ele>1728.0</ele>
        <time>2020-07-26T10:56:43Z</time>
      </trkpt>
      <trkpt lat="42.7419290" lon="0.0854630">
        <ele>1729.0</ele>
        <time>2020-07-26T10:56:46Z</time>
      </trkpt>
      <trkpt lat="42.7418360" lon="0.0854970">
        <ele>1729.8</ele>
        <time>2020-07-26T10:56:49Z</time>
      </trkpt>
      <trkpt lat="42.7417430" lon="0.0855150">
        <ele>1730.2</ele>
        <time>2020-07-26T10:56:52Z</time>
      </trkpt>
      <trkpt lat="42.7416240" lon="0.0855300">
        <ele>1731.2</ele>
        <time>2020-07-26T10:56:56Z</time>
      </trkpt>
      <trkpt lat="42.7415650" lon="0.0855370">
        <ele>1731.8</ele>
        <time>2020-07-26T10:56:58Z</time>
      </trkpt>
      <trkpt lat="42.7414350" lon="0.0855630">
        <ele>1732.2</ele>
        <time>2020-07-26T10:57:03Z</time>
      </trkpt>
      <trkpt lat="42.7413580" lon="0.0855690">
        <ele>1733.0</ele>
        <time>2020-07-26T10:57:06Z</time>
      </trkpt>
      <trkpt lat="42.7413070" lon="0.0855580">
        <ele>1733.4</ele>
        <time>2020-07-26T10:57:08Z</time>
      </trkpt>
      <trkpt lat="42.7412570" lon="0.0855210">
        <ele>1734.0</ele>
        <time>2020-07-26T10:57:10Z</time>
      </trkpt>
      <trkpt lat="42.7412410" lon="0.0854880">
        <ele>1734.4</ele>
        <time>2020-07-26T10:57:11Z</time>
      </trkpt>
      <trkpt lat="42.7412410" lon="0.0853660">
        <ele>1735.6</ele>
        <time>2020-07-26T10:57:14Z</time>
      </trkpt>
      <trkpt lat="42.7412540" lon="0.0853300">
        <ele>1735.8</ele>
        <time>2020-07-26T10:57:15Z</time>
      </trkpt>
      <trkpt lat="42.7413140" lon="0.0852450">
        <ele>1736.8</ele>
        <time>2020-07-26T10:57:18Z</time>
      </trkpt>
      <trkpt lat="42.7413600" lon="0.0852050">
        <ele>1737.6</ele>
        <time>2020-07-26T10:57:20Z</time>
      </trkpt>
      <trkpt lat="42.7413840" lon="0.0851900">
        <ele>1738.0</ele>
        <time>2020-07-26T10:57:21Z</time>
      </trkpt>
      <trkpt lat="42.7414410" lon="0.0851550">
        <ele>1739.2</ele>
        <time>2020-07-26T10:57:24Z</time>
      </trkpt>
      <trkpt lat="42.7414920" lon="0.0851160">
        <ele>1739.6</ele>
        <time>2020-07-26T10:57:27Z</time>
      </trkpt>
      <trkpt lat="42.7415580" lon="0.0850450">
        <ele>1740.4</ele>
        <time>2020-07-26T10:57:31Z</time>
      </trkpt>
      <trkpt lat="42.7415990" lon="0.0849820">
        <ele>1741.0</ele>
        <time>2020-07-26T10:57:34Z</time>
      </trkpt>
      <trkpt lat="42.7416080" lon="0.0849010">
        <ele>1741.6</ele>
        <time>2020-07-26T10:57:37Z</time>
      </trkpt>
      <trkpt lat="42.7415990" lon="0.0848720">
        <ele>1741.8</ele>
        <time>2020-07-26T10:57:38Z</time>
      </trkpt>
      <trkpt lat="42.7415830" lon="0.0848480">
        <ele>1741.8</ele>
        <time>2020-07-26T10:57:39Z</time>
      </trkpt>
      <trkpt lat="42.7415390" lon="0.0848120">
        <ele>1742.0</ele>
        <time>2020-07-26T10:57:41Z</time>
      </trkpt>
      <trkpt lat="42.7414900" lon="0.0847980">
        <ele>1742.6</ele>
        <time>2020-07-26T10:57:43Z</time>
      </trkpt>
      <trkpt lat="42.7414660" lon="0.0847970">
        <ele>1742.8</ele>
        <time>2020-07-26T10:57:44Z</time>
      </trkpt>
      <trkpt lat="42.7413460" lon="0.0848310">
        <ele>1743.6</ele>
        <time>2020-07-26T10:57:49Z</time>
      </trkpt>
      <trkpt lat="42.7413050" lon="0.0848460">
        <ele>1744.2</ele>
        <time>2020-07-26T10:57:51Z</time>
      </trkpt>
      <trkpt lat="42.7412100" lon="0.0849190">
        <ele>1744.8</ele>
        <time>2020-07-26T10:57:56Z</time>
      </trkpt>
      <trkpt lat="42.7411890" lon="0.0849340">
        <ele>1745.2</ele>
        <time>2020-07-26T10:57:57Z</time>
      </trkpt>
      <trkpt lat="42.7411260" lon="0.0849960">
        <ele>1746.0</ele>
        <time>2020-07-26T10:58:00Z</time>
      </trkpt>
      <trkpt lat="42.7410380" lon="0.0851000">
        <ele>1747.0</ele>
        <time>2020-07-26T10:58:05Z</time>
      </trkpt>
      <trkpt lat="42.7410210" lon="0.0851180">
        <ele>1747.2</ele>
        <time>2020-07-26T10:58:06Z</time>
      </trkpt>
      <trkpt lat="42.7409110" lon="0.0852330">
        <ele>1748.2</ele>
        <time>2020-07-26T10:58:12Z</time>
      </trkpt>
      <trkpt lat="42.7408910" lon="0.0852490">
        <ele>1748.2</ele>
        <time>2020-07-26T10:58:13Z</time>
      </trkpt>
      <trkpt lat="42.7408560" lon="0.0852850">
        <ele>1748.6</ele>
        <time>2020-07-26T10:58:15Z</time>
      </trkpt>
      <trkpt lat="42.7408170" lon="0.0853250">
        <ele>1749.0</ele>
        <time>2020-07-26T10:58:17Z</time>
      </trkpt>
      <trkpt lat="42.7407980" lon="0.0853440">
        <ele>1749.2</ele>
        <time>2020-07-26T10:58:18Z</time>
      </trkpt>
      <trkpt lat="42.7407800" lon="0.0853660">
        <ele>1749.4</ele>
        <time>2020-07-26T10:58:19Z</time>
      </trkpt>
      <trkpt lat="42.7406720" lon="0.0854840">
        <ele>1750.2</ele>
        <time>2020-07-26T10:58:24Z</time>
      </trkpt>
      <trkpt lat="42.7405890" lon="0.0855490">
        <ele>1750.8</ele>
        <time>2020-07-26T10:58:27Z</time>
      </trkpt>
      <trkpt lat="42.7404510" lon="0.0855730">
        <ele>1751.4</ele>
        <time>2020-07-26T10:58:31Z</time>
      </trkpt>
      <trkpt lat="42.7404150" lon="0.0855570">
        <ele>1751.4</ele>
        <time>2020-07-26T10:58:32Z</time>
      </trkpt>
      <trkpt lat="42.7403110" lon="0.0854960">
        <ele>1751.8</ele>
        <time>2020-07-26T10:58:35Z</time>
      </trkpt>
      <trkpt lat="42.7402020" lon="0.0854760">
        <ele>1752.0</ele>
        <time>2020-07-26T10:58:38Z</time>
      </trkpt>
      <trkpt lat="42.7401320" lon="0.0854960">
        <ele>1752.4</ele>
        <time>2020-07-26T10:58:40Z</time>
      </trkpt>
      <trkpt lat="42.7400340" lon="0.0855570">
        <ele>1752.8</ele>
        <time>2020-07-26T10:58:43Z</time>
      </trkpt>
      <trkpt lat="42.7399710" lon="0.0856100">
        <ele>1753.0</ele>
        <time>2020-07-26T10:58:45Z</time>
      </trkpt>
      <trkpt lat="42.7398300" lon="0.0857740">
        <ele>1753.2</ele>
        <time>2020-07-26T10:58:50Z</time>
      </trkpt>
      <trkpt lat="42.7397810" lon="0.0858490">
        <ele>1753.4</ele>
        <time>2020-07-26T10:58:52Z</time>
      </trkpt>
      <trkpt lat="42.7396580" lon="0.0860990">
        <ele>1754.6</ele>
        <time>2020-07-26T10:58:58Z</time>
      </trkpt>
      <trkpt lat="42.7395590" lon="0.0863590">
        <ele>1755.2</ele>
        <time>2020-07-26T10:59:04Z</time>
      </trkpt>
      <trkpt lat="42.7395450" lon="0.0864010">
        <ele>1755.4</ele>
        <time>2020-07-26T10:59:05Z</time>
      </trkpt>
      <trkpt lat="42.7395310" lon="0.0864420">
        <ele>1755.6</ele>
        <time>2020-07-26T10:59:06Z</time>
      </trkpt>
      <trkpt lat="42.7394430" lon="0.0866480">
        <ele>1756.8</ele>
        <time>2020-07-26T10:59:11Z</time>
      </trkpt>
      <trkpt lat="42.7394110" lon="0.0867270">
        <ele>1757.4</ele>
        <time>2020-07-26T10:59:13Z</time>
      </trkpt>
      <trkpt lat="42.7393700" lon="0.0867920">
        <ele>1757.8</ele>
        <time>2020-07-26T10:59:15Z</time>
      </trkpt>
      <trkpt lat="42.7392970" lon="0.0868430">
        <ele>1758.2</ele>
        <time>2020-07-26T10:59:18Z</time>
      </trkpt>
      <trkpt lat="42.7391770" lon="0.0868050">
        <ele>1759.2</ele>
        <time>2020-07-26T10:59:22Z</time>
      </trkpt>
      <trkpt lat="42.7391490" lon="0.0867850">
        <ele>1759.4</ele>
        <time>2020-07-26T10:59:23Z</time>
      </trkpt>
      <trkpt lat="42.7390400" lon="0.0867150">
        <ele>1760.4</ele>
        <time>2020-07-26T10:59:27Z</time>
      </trkpt>
      <trkpt lat="42.7389550" lon="0.0866690">
        <ele>1760.8</ele>
        <time>2020-07-26T10:59:30Z</time>
      </trkpt>
      <trkpt lat="42.7388690" lon="0.0866250">
        <ele>1761.4</ele>
        <time>2020-07-26T10:59:33Z</time>
      </trkpt>
      <trkpt lat="42.7387610" lon="0.0865450">
        <ele>1762.2</ele>
        <time>2020-07-26T10:59:37Z</time>
      </trkpt>
      <trkpt lat="42.7387200" lon="0.0864830">
        <ele>1762.6</ele>
        <time>2020-07-26T10:59:39Z</time>
      </trkpt>
      <trkpt lat="42.7386860" lon="0.0863670">
        <ele>1763.0</ele>
        <time>2020-07-26T10:59:42Z</time>
      </trkpt>
      <trkpt lat="42.7386690" lon="0.0860860">
        <ele>1763.4</ele>
        <time>2020-07-26T10:59:48Z</time>
      </trkpt>
      <trkpt lat="42.7386650" lon="0.0860430">
        <ele>1763.6</ele>
        <time>2020-07-26T10:59:49Z</time>
      </trkpt>
      <trkpt lat="42.7386610" lon="0.0860020">
        <ele>1764.0</ele>
        <time>2020-07-26T10:59:50Z</time>
      </trkpt>
      <trkpt lat="42.7386100" lon="0.0857700">
        <ele>1764.8</ele>
        <time>2020-07-26T10:59:56Z</time>
      </trkpt>
      <trkpt lat="42.7384920" lon="0.0855170">
        <ele>1764.0</ele>
        <time>2020-07-26T11:00:02Z</time>
      </trkpt>
      <trkpt lat="42.7384180" lon="0.0854180">
        <ele>1763.8</ele>
        <time>2020-07-26T11:00:04Z</time>
      </trkpt>
      <trkpt lat="42.7383260" lon="0.0853300">
        <ele>1763.2</ele>
        <time>2020-07-26T11:00:06Z</time>
      </trkpt>
      <trkpt lat="42.7382760" lon="0.0852990">
        <ele>1762.8</ele>
        <time>2020-07-26T11:00:07Z</time>
      </trkpt>
      <trkpt lat="42.7382270" lon="0.0852770">
        <ele>1762.4</ele>
        <time>2020-07-26T11:00:08Z</time>
      </trkpt>
      <trkpt lat="42.7381260" lon="0.0852660">
        <ele>1761.8</ele>
        <time>2020-07-26T11:00:10Z</time>
      </trkpt>
      <trkpt lat="42.7380780" lon="0.0852700">
        <ele>1761.8</ele>
        <time>2020-07-26T11:00:11Z</time>
      </trkpt>
      <trkpt lat="42.7380310" lon="0.0852760">
        <ele>1761.6</ele>
        <time>2020-07-26T11:00:12Z</time>
      </trkpt>
      <trkpt lat="42.7377470" lon="0.0853470">
        <ele>1761.6</ele>
        <time>2020-07-26T11:00:18Z</time>
      </trkpt>
      <trkpt lat="42.7376990" lon="0.0853690">
        <ele>1761.6</ele>
        <time>2020-07-26T11:00:19Z</time>
      </trkpt>
      <trkpt lat="42.7376530" lon="0.0854030">
        <ele>1761.4</ele>
        <time>2020-07-26T11:00:20Z</time>
      </trkpt>
      <trkpt lat="42.7375600" lon="0.0854920">
        <ele>1761.0</ele>
        <time>2020-07-26T11:00:22Z</time>
      </trkpt>
      <trkpt lat="42.7375170" lon="0.0855460">
        <ele>1760.4</ele>
        <time>2020-07-26T11:00:23Z</time>
      </trkpt>
      <trkpt lat="42.7373310" lon="0.0857970">
        <ele>1759.6</ele>
        <time>2020-07-26T11:00:28Z</time>
      </trkpt>
      <trkpt lat="42.7372910" lon="0.0858450">
        <ele>1759.6</ele>
        <time>2020-07-26T11:00:29Z</time>
      </trkpt>
      <trkpt lat="42.7372490" lon="0.0858920">
        <ele>1759.4</ele>
        <time>2020-07-26T11:00:30Z</time>
      </trkpt>
      <trkpt lat="42.7372070" lon="0.0859430">
        <ele>1759.4</ele>
        <time>2020-07-26T11:00:31Z</time>
      </trkpt>
      <trkpt lat="42.7370910" lon="0.0860940">
        <ele>1759.4</ele>
        <time>2020-07-26T11:00:34Z</time>
      </trkpt>
      <trkpt lat="42.7370540" lon="0.0861380">
        <ele>1759.6</ele>
        <time>2020-07-26T11:00:35Z</time>
      </trkpt>
      <trkpt lat="42.7370180" lon="0.0861750">
        <ele>1759.8</ele>
        <time>2020-07-26T11:00:36Z</time>
      </trkpt>
      <trkpt lat="42.7368780" lon="0.0862690">
        <ele>1760.4</ele>
        <time>2020-07-26T11:00:39Z</time>
      </trkpt>
      <trkpt lat="42.7368780" lon="0.0862690">
        <ele>1760.4</ele>
        <time>2020-07-26T11:00:40Z</time>
      </trkpt>
      <trkpt lat="42.7366390" lon="0.0863000">
        <ele>1760.6</ele>
        <time>2020-07-26T11:00:46Z</time>
      </trkpt>
      <trkpt lat="42.7365980" lon="0.0863040">
        <ele>1760.6</ele>
        <time>2020-07-26T11:00:47Z</time>
      </trkpt>
      <trkpt lat="42.7364600" lon="0.0863890">
        <ele>1760.2</ele>
        <time>2020-07-26T11:00:51Z</time>
      </trkpt>
      <trkpt lat="42.7363480" lon="0.0864970">
        <ele>1760.4</ele>
        <time>2020-07-26T11:00:56Z</time>
      </trkpt>
      <trkpt lat="42.7361930" lon="0.0865560">
        <ele>1760.6</ele>
        <time>2020-07-26T11:01:02Z</time>
      </trkpt>
      <trkpt lat="42.7360120" lon="0.0866050">
        <ele>1760.2</ele>
        <time>2020-07-26T11:01:08Z</time>
      </trkpt>
      <trkpt lat="42.7359710" lon="0.0865970">
        <ele>1759.8</ele>
        <time>2020-07-26T11:01:09Z</time>
      </trkpt>
      <trkpt lat="42.7359230" lon="0.0865850">
        <ele>1759.4</ele>
        <time>2020-07-26T11:01:10Z</time>
      </trkpt>
      <trkpt lat="42.7357600" lon="0.0865500">
        <ele>1758.4</ele>
        <time>2020-07-26T11:01:13Z</time>
      </trkpt>
      <trkpt lat="42.7356140" lon="0.0865450">
        <ele>1757.0</ele>
        <time>2020-07-26T11:01:16Z</time>
      </trkpt>
      <trkpt lat="42.7355800" lon="0.0865610">
        <ele>1756.6</ele>
        <time>2020-07-26T11:01:17Z</time>
      </trkpt>
      <trkpt lat="42.7355520" lon="0.0865920">
        <ele>1756.2</ele>
        <time>2020-07-26T11:01:18Z</time>
      </trkpt>
      <trkpt lat="42.7355130" lon="0.0866680">
        <ele>1755.8</ele>
        <time>2020-07-26T11:01:20Z</time>
      </trkpt>
      <trkpt lat="42.7354910" lon="0.0867580">
        <ele>1755.4</ele>
        <time>2020-07-26T11:01:22Z</time>
      </trkpt>
      <trkpt lat="42.7354920" lon="0.0867990">
        <ele>1755.0</ele>
        <time>2020-07-26T11:01:23Z</time>
      </trkpt>
      <trkpt lat="42.7355050" lon="0.0868340">
        <ele>1754.8</ele>
        <time>2020-07-26T11:01:24Z</time>
      </trkpt>
      <trkpt lat="42.7355440" lon="0.0868830">
        <ele>1754.6</ele>
        <time>2020-07-26T11:01:26Z</time>
      </trkpt>
      <trkpt lat="42.7355670" lon="0.0868960">
        <ele>1754.4</ele>
        <time>2020-07-26T11:01:27Z</time>
      </trkpt>
      <trkpt lat="42.7355820" lon="0.0869160">
        <ele>1754.4</ele>
        <time>2020-07-26T11:01:28Z</time>
      </trkpt>
      <trkpt lat="42.7355940" lon="0.0869690">
        <ele>1754.2</ele>
        <time>2020-07-26T11:01:31Z</time>
      </trkpt>
      <trkpt lat="42.7356840" lon="0.0873550">
        <ele>1751.8</ele>
        <time>2020-07-26T11:01:48Z</time>
      </trkpt>
      <trkpt lat="42.7357000" lon="0.0873870">
        <ele>1751.6</ele>
        <time>2020-07-26T11:01:49Z</time>
      </trkpt>
      <trkpt lat="42.7357160" lon="0.0874220">
        <ele>1751.4</ele>
        <time>2020-07-26T11:01:50Z</time>
      </trkpt>
      <trkpt lat="42.7357520" lon="0.0875000">
        <ele>1750.6</ele>
        <time>2020-07-26T11:01:52Z</time>
      </trkpt>
      <trkpt lat="42.7357830" lon="0.0876320">
        <ele>1749.6</ele>
        <time>2020-07-26T11:01:55Z</time>
      </trkpt>
      <trkpt lat="42.7357790" lon="0.0876660">
        <ele>1749.2</ele>
        <time>2020-07-26T11:01:56Z</time>
      </trkpt>
      <trkpt lat="42.7357230" lon="0.0877710">
        <ele>1748.8</ele>
        <time>2020-07-26T11:02:01Z</time>
      </trkpt>
      <trkpt lat="42.7356630" lon="0.0878520">
        <ele>1748.6</ele>
        <time>2020-07-26T11:02:05Z</time>
      </trkpt>
      <trkpt lat="42.7356570" lon="0.0877360">
        <ele>1747.0</ele>
        <time>2020-07-26T11:09:39Z</time>
      </trkpt>
      <trkpt lat="42.7356380" lon="0.0877240">
        <ele>1747.0</ele>
        <time>2020-07-26T11:09:40Z</time>
      </trkpt>
      <trkpt lat="42.7356230" lon="0.0877170">
        <ele>1746.8</ele>
        <time>2020-07-26T11:09:41Z</time>
      </trkpt>
      <trkpt lat="42.7355400" lon="0.0879920">
        <ele>1746.0</ele>
        <time>2020-07-26T11:10:14Z</time>
      </trkpt>
      <trkpt lat="42.7355150" lon="0.0880490">
        <ele>1746.2</ele>
        <time>2020-07-26T11:10:16Z</time>
      </trkpt>
      <trkpt lat="42.7353860" lon="0.0882270">
        <ele>1747.8</ele>
        <time>2020-07-26T11:10:22Z</time>
      </trkpt>
      <trkpt lat="42.7353620" lon="0.0882530">
        <ele>1748.0</ele>
        <time>2020-07-26T11:10:23Z</time>
      </trkpt>
      <trkpt lat="42.7352350" lon="0.0883380">
        <ele>1749.2</ele>
        <time>2020-07-26T11:10:28Z</time>
      </trkpt>
      <trkpt lat="42.7352090" lon="0.0883440">
        <ele>1749.6</ele>
        <time>2020-07-26T11:10:29Z</time>
      </trkpt>
      <trkpt lat="42.7351830" lon="0.0883480">
        <ele>1750.0</ele>
        <time>2020-07-26T11:10:30Z</time>
      </trkpt>
      <trkpt lat="42.7351310" lon="0.0883540">
        <ele>1750.4</ele>
        <time>2020-07-26T11:10:32Z</time>
      </trkpt>
      <trkpt lat="42.7350580" lon="0.0883590">
        <ele>1751.0</ele>
        <time>2020-07-26T11:10:35Z</time>
      </trkpt>
      <trkpt lat="42.7350050" lon="0.0883700">
        <ele>1751.6</ele>
        <time>2020-07-26T11:10:37Z</time>
      </trkpt>
      <trkpt lat="42.7349530" lon="0.0883830">
        <ele>1752.0</ele>
        <time>2020-07-26T11:10:39Z</time>
      </trkpt>
      <trkpt lat="42.7349260" lon="0.0883900">
        <ele>1752.2</ele>
        <time>2020-07-26T11:10:40Z</time>
      </trkpt>
      <trkpt lat="42.7349020" lon="0.0883970">
        <ele>1752.6</ele>
        <time>2020-07-26T11:10:41Z</time>
      </trkpt>
      <trkpt lat="42.7348770" lon="0.0884040">
        <ele>1753.0</ele>
        <time>2020-07-26T11:10:42Z</time>
      </trkpt>
      <trkpt lat="42.7348510" lon="0.0884140">
        <ele>1753.2</ele>
        <time>2020-07-26T11:10:43Z</time>
      </trkpt>
      <trkpt lat="42.7348020" lon="0.0884330">
        <ele>1753.6</ele>
        <time>2020-07-26T11:10:45Z</time>
      </trkpt>
      <trkpt lat="42.7347630" lon="0.0884630">
        <ele>1754.2</ele>
        <time>2020-07-26T11:10:47Z</time>
      </trkpt>
      <trkpt lat="42.7347450" lon="0.0884770">
        <ele>1754.2</ele>
        <time>2020-07-26T11:10:48Z</time>
      </trkpt>
      <trkpt lat="42.7347240" lon="0.0884880">
        <ele>1754.4</ele>
        <time>2020-07-26T11:10:49Z</time>
      </trkpt>
      <trkpt lat="42.7346780" lon="0.0885110">
        <ele>1754.8</ele>
        <time>2020-07-26T11:10:51Z</time>
      </trkpt>
      <trkpt lat="42.7346320" lon="0.0885470">
        <ele>1755.2</ele>
        <time>2020-07-26T11:10:53Z</time>
      </trkpt>
      <trkpt lat="42.7345270" lon="0.0886360">
        <ele>1756.0</ele>
        <time>2020-07-26T11:10:58Z</time>
      </trkpt>
      <trkpt lat="42.7344720" lon="0.0887070">
        <ele>1756.8</ele>
        <time>2020-07-26T11:11:01Z</time>
      </trkpt>
      <trkpt lat="42.7344570" lon="0.0887330">
        <ele>1757.0</ele>
        <time>2020-07-26T11:11:02Z</time>
      </trkpt>
      <trkpt lat="42.7344440" lon="0.0887610">
        <ele>1757.4</ele>
        <time>2020-07-26T11:11:03Z</time>
      </trkpt>
      <trkpt lat="42.7344060" lon="0.0889050">
        <ele>1758.0</ele>
        <time>2020-07-26T11:11:08Z</time>
      </trkpt>
      <trkpt lat="42.7343960" lon="0.0889610">
        <ele>1758.6</ele>
        <time>2020-07-26T11:11:10Z</time>
      </trkpt>
      <trkpt lat="42.7343870" lon="0.0890460">
        <ele>1759.0</ele>
        <time>2020-07-26T11:11:13Z</time>
      </trkpt>
      <trkpt lat="42.7343850" lon="0.0890730">
        <ele>1759.2</ele>
        <time>2020-07-26T11:11:14Z</time>
      </trkpt>
      <trkpt lat="42.7343770" lon="0.0891300">
        <ele>1759.8</ele>
        <time>2020-07-26T11:11:16Z</time>
      </trkpt>
      <trkpt lat="42.7343380" lon="0.0892350">
        <ele>1761.2</ele>
        <time>2020-07-26T11:11:20Z</time>
      </trkpt>
      <trkpt lat="42.7343160" lon="0.0892510">
        <ele>1761.8</ele>
        <time>2020-07-26T11:11:21Z</time>
      </trkpt>
      <trkpt lat="42.7342920" lon="0.0892600">
        <ele>1762.2</ele>
        <time>2020-07-26T11:11:22Z</time>
      </trkpt>
      <trkpt lat="42.7342190" lon="0.0892400">
        <ele>1763.2</ele>
        <time>2020-07-26T11:11:25Z</time>
      </trkpt>
      <trkpt lat="42.7341980" lon="0.0892200">
        <ele>1763.6</ele>
        <time>2020-07-26T11:11:26Z</time>
      </trkpt>
      <trkpt lat="42.7341810" lon="0.0891950">
        <ele>1763.8</ele>
        <time>2020-07-26T11:11:27Z</time>
      </trkpt>
      <trkpt lat="42.7341520" lon="0.0891380">
        <ele>1764.4</ele>
        <time>2020-07-26T11:11:29Z</time>
      </trkpt>
      <trkpt lat="42.7341390" lon="0.0891090">
        <ele>1764.6</ele>
        <time>2020-07-26T11:11:30Z</time>
      </trkpt>
      <trkpt lat="42.7340950" lon="0.0890250">
        <ele>1765.4</ele>
        <time>2020-07-26T11:11:33Z</time>
      </trkpt>
      <trkpt lat="42.7340790" lon="0.0889990">
        <ele>1765.8</ele>
        <time>2020-07-26T11:11:34Z</time>
      </trkpt>
      <trkpt lat="42.7340310" lon="0.0889250">
        <ele>1766.4</ele>
        <time>2020-07-26T11:11:37Z</time>
      </trkpt>
      <trkpt lat="42.7340030" lon="0.0888700">
        <ele>1766.8</ele>
        <time>2020-07-26T11:11:39Z</time>
      </trkpt>
      <trkpt lat="42.7339530" lon="0.0887930">
        <ele>1767.8</ele>
        <time>2020-07-26T11:11:42Z</time>
      </trkpt>
      <trkpt lat="42.7339350" lon="0.0887700">
        <ele>1768.0</ele>
        <time>2020-07-26T11:11:43Z</time>
      </trkpt>
      <trkpt lat="42.7338960" lon="0.0887330">
        <ele>1768.6</ele>
        <time>2020-07-26T11:11:45Z</time>
      </trkpt>
      <trkpt lat="42.7338730" lon="0.0887270">
        <ele>1768.8</ele>
        <time>2020-07-26T11:11:46Z</time>
      </trkpt>
      <trkpt lat="42.7338520" lon="0.0887310">
        <ele>1769.0</ele>
        <time>2020-07-26T11:11:47Z</time>
      </trkpt>
      <trkpt lat="42.7338340" lon="0.0887500">
        <ele>1769.2</ele>
        <time>2020-07-26T11:11:48Z</time>
      </trkpt>
      <trkpt lat="42.7338270" lon="0.0888430">
        <ele>1769.4</ele>
        <time>2020-07-26T11:11:51Z</time>
      </trkpt>
      <trkpt lat="42.7338420" lon="0.0888730">
        <ele>1769.6</ele>
        <time>2020-07-26T11:11:52Z</time>
      </trkpt>
      <trkpt lat="42.7339030" lon="0.0889950">
        <ele>1770.2</ele>
        <time>2020-07-26T11:11:56Z</time>
      </trkpt>
      <trkpt lat="42.7339280" lon="0.0890540">
        <ele>1770.6</ele>
        <time>2020-07-26T11:11:58Z</time>
      </trkpt>
      <trkpt lat="42.7339520" lon="0.0891130">
        <ele>1771.4</ele>
        <time>2020-07-26T11:12:00Z</time>
      </trkpt>
      <trkpt lat="42.7339720" lon="0.0891750">
        <ele>1772.0</ele>
        <time>2020-07-26T11:12:02Z</time>
      </trkpt>
      <trkpt lat="42.7339920" lon="0.0892330">
        <ele>1772.4</ele>
        <time>2020-07-26T11:12:04Z</time>
      </trkpt>
      <trkpt lat="42.7340320" lon="0.0893500">
        <ele>1773.2</ele>
        <time>2020-07-26T11:12:08Z</time>
      </trkpt>
      <trkpt lat="42.7340430" lon="0.0893800">
        <ele>1773.6</ele>
        <time>2020-07-26T11:12:09Z</time>
      </trkpt>
      <trkpt lat="42.7340550" lon="0.0894100">
        <ele>1773.8</ele>
        <time>2020-07-26T11:12:10Z</time>
      </trkpt>
      <trkpt lat="42.7341100" lon="0.0895210">
        <ele>1774.6</ele>
        <time>2020-07-26T11:12:14Z</time>
      </trkpt>
      <trkpt lat="42.7341700" lon="0.0896250">
        <ele>1775.6</ele>
        <time>2020-07-26T11:12:18Z</time>
      </trkpt>
      <trkpt lat="42.7341890" lon="0.0896450">
        <ele>1775.8</ele>
        <time>2020-07-26T11:12:19Z</time>
      </trkpt>
      <trkpt lat="42.7342420" lon="0.0897060">
        <ele>1776.6</ele>
        <time>2020-07-26T11:12:22Z</time>
      </trkpt>
      <trkpt lat="42.7343200" lon="0.0897590">
        <ele>1777.4</ele>
        <time>2020-07-26T11:12:26Z</time>
      </trkpt>
      <trkpt lat="42.7343390" lon="0.0897740">
        <ele>1777.8</ele>
        <time>2020-07-26T11:12:27Z</time>
      </trkpt>
      <trkpt lat="42.7343740" lon="0.0898020">
        <ele>1778.2</ele>
        <time>2020-07-26T11:12:29Z</time>
      </trkpt>
      <trkpt lat="42.7344020" lon="0.0898460">
        <ele>1778.8</ele>
        <time>2020-07-26T11:12:31Z</time>
      </trkpt>
      <trkpt lat="42.7344050" lon="0.0898810">
        <ele>1779.2</ele>
        <time>2020-07-26T11:12:32Z</time>
      </trkpt>
      <trkpt lat="42.7343390" lon="0.0899190">
        <ele>1779.6</ele>
        <time>2020-07-26T11:12:35Z</time>
      </trkpt>
      <trkpt lat="42.7342860" lon="0.0898940">
        <ele>1780.0</ele>
        <time>2020-07-26T11:12:37Z</time>
      </trkpt>
      <trkpt lat="42.7341920" lon="0.0898140">
        <ele>1780.4</ele>
        <time>2020-07-26T11:12:41Z</time>
      </trkpt>
      <trkpt lat="42.7341200" lon="0.0897530">
        <ele>1781.2</ele>
        <time>2020-07-26T11:12:44Z</time>
      </trkpt>
      <trkpt lat="42.7340540" lon="0.0896870">
        <ele>1781.8</ele>
        <time>2020-07-26T11:12:47Z</time>
      </trkpt>
      <trkpt lat="42.7340170" lon="0.0896370">
        <ele>1782.2</ele>
        <time>2020-07-26T11:12:49Z</time>
      </trkpt>
      <trkpt lat="42.7339990" lon="0.0896130">
        <ele>1782.4</ele>
        <time>2020-07-26T11:12:50Z</time>
      </trkpt>
      <trkpt lat="42.7339300" lon="0.0895190">
        <ele>1783.8</ele>
        <time>2020-07-26T11:12:54Z</time>
      </trkpt>
      <trkpt lat="42.7338790" lon="0.0894510">
        <ele>1784.8</ele>
        <time>2020-07-26T11:12:57Z</time>
      </trkpt>
      <trkpt lat="42.7338610" lon="0.0894300">
        <ele>1785.2</ele>
        <time>2020-07-26T11:12:58Z</time>
      </trkpt>
      <trkpt lat="42.7338090" lon="0.0893710">
        <ele>1786.0</ele>
        <time>2020-07-26T11:13:01Z</time>
      </trkpt>
      <trkpt lat="42.7337280" lon="0.0892790">
        <ele>1787.0</ele>
        <time>2020-07-26T11:13:06Z</time>
      </trkpt>
      <trkpt lat="42.7337130" lon="0.0892610">
        <ele>1787.2</ele>
        <time>2020-07-26T11:13:07Z</time>
      </trkpt>
      <trkpt lat="42.7336610" lon="0.0892120">
        <ele>1788.2</ele>
        <time>2020-07-26T11:13:10Z</time>
      </trkpt>
      <trkpt lat="42.7336230" lon="0.0891810">
        <ele>1788.8</ele>
        <time>2020-07-26T11:13:12Z</time>
      </trkpt>
      <trkpt lat="42.7335710" lon="0.0891330">
        <ele>1789.4</ele>
        <time>2020-07-26T11:13:15Z</time>
      </trkpt>
      <trkpt lat="42.7334810" lon="0.0890340">
        <ele>1790.6</ele>
        <time>2020-07-26T11:13:21Z</time>
      </trkpt>
      <trkpt lat="42.7334380" lon="0.0889890">
        <ele>1791.4</ele>
        <time>2020-07-26T11:13:24Z</time>
      </trkpt>
      <trkpt lat="42.7334110" lon="0.0889510">
        <ele>1791.6</ele>
        <time>2020-07-26T11:13:26Z</time>
      </trkpt>
      <trkpt lat="42.7333990" lon="0.0889320">
        <ele>1791.8</ele>
        <time>2020-07-26T11:13:27Z</time>
      </trkpt>
      <trkpt lat="42.7333320" lon="0.0888620">
        <ele>1792.8</ele>
        <time>2020-07-26T11:13:31Z</time>
      </trkpt>
      <trkpt lat="42.7333130" lon="0.0888430">
        <ele>1793.2</ele>
        <time>2020-07-26T11:13:32Z</time>
      </trkpt>
      <trkpt lat="42.7332540" lon="0.0887850">
        <ele>1794.0</ele>
        <time>2020-07-26T11:13:35Z</time>
      </trkpt>
      <trkpt lat="42.7331750" lon="0.0887010">
        <ele>1795.4</ele>
        <time>2020-07-26T11:13:39Z</time>
      </trkpt>
      <trkpt lat="42.7331110" lon="0.0886480">
        <ele>1796.4</ele>
        <time>2020-07-26T11:13:42Z</time>
      </trkpt>
      <trkpt lat="42.7330890" lon="0.0886300">
        <ele>1796.6</ele>
        <time>2020-07-26T11:13:43Z</time>
      </trkpt>
      <trkpt lat="42.7329750" lon="0.0885420">
        <ele>1797.8</ele>
        <time>2020-07-26T11:13:48Z</time>
      </trkpt>
      <trkpt lat="42.7329330" lon="0.0885000">
        <ele>1798.2</ele>
        <time>2020-07-26T11:13:50Z</time>
      </trkpt>
      <trkpt lat="42.7329100" lon="0.0884830">
        <ele>1798.4</ele>
        <time>2020-07-26T11:13:51Z</time>
      </trkpt>
      <trkpt lat="42.7328660" lon="0.0884520">
        <ele>1799.0</ele>
        <time>2020-07-26T11:13:53Z</time>
      </trkpt>
      <trkpt lat="42.7327780" lon="0.0883910">
        <ele>1800.2</ele>
        <time>2020-07-26T11:13:57Z</time>
      </trkpt>
      <trkpt lat="42.7327140" lon="0.0883370">
        <ele>1801.0</ele>
        <time>2020-07-26T11:14:00Z</time>
      </trkpt>
      <trkpt lat="42.7326920" lon="0.0883190">
        <ele>1801.2</ele>
        <time>2020-07-26T11:14:01Z</time>
      </trkpt>
      <trkpt lat="42.7326030" lon="0.0882520">
        <ele>1802.2</ele>
        <time>2020-07-26T11:14:05Z</time>
      </trkpt>
      <trkpt lat="42.7325370" lon="0.0881930">
        <ele>1803.4</ele>
        <time>2020-07-26T11:14:08Z</time>
      </trkpt>
      <trkpt lat="42.7325160" lon="0.0881730">
        <ele>1803.8</ele>
        <time>2020-07-26T11:14:09Z</time>
      </trkpt>
      <trkpt lat="42.7324530" lon="0.0881110">
        <ele>1804.6</ele>
        <time>2020-07-26T11:14:12Z</time>
      </trkpt>
      <trkpt lat="42.7323700" lon="0.0880230">
        <ele>1805.4</ele>
        <time>2020-07-26T11:14:16Z</time>
      </trkpt>
      <trkpt lat="42.7323250" lon="0.0879840">
        <ele>1805.8</ele>
        <time>2020-07-26T11:14:18Z</time>
      </trkpt>
      <trkpt lat="42.7323020" lon="0.0879670">
        <ele>1806.0</ele>
        <time>2020-07-26T11:14:19Z</time>
      </trkpt>
      <trkpt lat="42.7322050" lon="0.0879070">
        <ele>1807.0</ele>
        <time>2020-07-26T11:14:23Z</time>
      </trkpt>
      <trkpt lat="42.7321090" lon="0.0878550">
        <ele>1808.0</ele>
        <time>2020-07-26T11:14:27Z</time>
      </trkpt>
      <trkpt lat="42.7320820" lon="0.0878480">
        <ele>1808.2</ele>
        <time>2020-07-26T11:14:28Z</time>
      </trkpt>
      <trkpt lat="42.7320080" lon="0.0878380">
        <ele>1809.2</ele>
        <time>2020-07-26T11:14:31Z</time>
      </trkpt>
      <trkpt lat="42.7319080" lon="0.0878260">
        <ele>1810.2</ele>
        <time>2020-07-26T11:14:35Z</time>
      </trkpt>
      <trkpt lat="42.7318600" lon="0.0878090">
        <ele>1810.6</ele>
        <time>2020-07-26T11:14:37Z</time>
      </trkpt>
      <trkpt lat="42.7317940" lon="0.0877720">
        <ele>1811.4</ele>
        <time>2020-07-26T11:14:40Z</time>
      </trkpt>
      <trkpt lat="42.7317730" lon="0.0877610">
        <ele>1811.6</ele>
        <time>2020-07-26T11:14:41Z</time>
      </trkpt>
      <trkpt lat="42.7316940" lon="0.0877030">
        <ele>1812.6</ele>
        <time>2020-07-26T11:14:45Z</time>
      </trkpt>
      <trkpt lat="42.7316340" lon="0.0876230">
        <ele>1813.4</ele>
        <time>2020-07-26T11:14:49Z</time>
      </trkpt>
      <trkpt lat="42.7316250" lon="0.0875990">
        <ele>1813.8</ele>
        <time>2020-07-26T11:14:50Z</time>
      </trkpt>
      <trkpt lat="42.7316110" lon="0.0875810">
        <ele>1814.2</ele>
        <time>2020-07-26T11:14:51Z</time>
      </trkpt>
      <trkpt lat="42.7315710" lon="0.0875240">
        <ele>1814.8</ele>
        <time>2020-07-26T11:14:54Z</time>
      </trkpt>
      <trkpt lat="42.7315330" lon="0.0874200">
        <ele>1816.2</ele>
        <time>2020-07-26T11:14:58Z</time>
      </trkpt>
      <trkpt lat="42.7315090" lon="0.0873720">
        <ele>1816.8</ele>
        <time>2020-07-26T11:15:00Z</time>
      </trkpt>
      <trkpt lat="42.7314440" lon="0.0872850">
        <ele>1817.4</ele>
        <time>2020-07-26T11:15:04Z</time>
      </trkpt>
      <trkpt lat="42.7313860" lon="0.0872240">
        <ele>1818.0</ele>
        <time>2020-07-26T11:15:07Z</time>
      </trkpt>
      <trkpt lat="42.7313370" lon="0.0872000">
        <ele>1818.8</ele>
        <time>2020-07-26T11:15:09Z</time>
      </trkpt>
      <trkpt lat="42.7312630" lon="0.0871670">
        <ele>1819.6</ele>
        <time>2020-07-26T11:15:12Z</time>
      </trkpt>
      <trkpt lat="42.7312120" lon="0.0871470">
        <ele>1820.0</ele>
        <time>2020-07-26T11:15:14Z</time>
      </trkpt>
      <trkpt lat="42.7311860" lon="0.0871430">
        <ele>1820.4</ele>
        <time>2020-07-26T11:15:15Z</time>
      </trkpt>
      <trkpt lat="42.7310870" lon="0.0871080">
        <ele>1821.2</ele>
        <time>2020-07-26T11:15:19Z</time>
      </trkpt>
      <trkpt lat="42.7310090" lon="0.0870860">
        <ele>1822.2</ele>
        <time>2020-07-26T11:15:22Z</time>
      </trkpt>
      <trkpt lat="42.7309850" lon="0.0870730">
        <ele>1822.4</ele>
        <time>2020-07-26T11:15:23Z</time>
      </trkpt>
      <trkpt lat="42.7308400" lon="0.0870060">
        <ele>1823.6</ele>
        <time>2020-07-26T11:15:29Z</time>
      </trkpt>
      <trkpt lat="42.7307920" lon="0.0870030">
        <ele>1824.2</ele>
        <time>2020-07-26T11:15:31Z</time>
      </trkpt>
      <trkpt lat="42.7307500" lon="0.0870260">
        <ele>1824.6</ele>
        <time>2020-07-26T11:15:33Z</time>
      </trkpt>
      <trkpt lat="42.7307390" lon="0.0870510">
        <ele>1824.8</ele>
        <time>2020-07-26T11:15:34Z</time>
      </trkpt>
      <trkpt lat="42.7307340" lon="0.0870880">
        <ele>1824.8</ele>
        <time>2020-07-26T11:15:35Z</time>
      </trkpt>
      <trkpt lat="42.7307340" lon="0.0871220">
        <ele>1825.2</ele>
        <time>2020-07-26T11:15:36Z</time>
      </trkpt>
      <trkpt lat="42.7307390" lon="0.0871540">
        <ele>1825.4</ele>
        <time>2020-07-26T11:15:37Z</time>
      </trkpt>
      <trkpt lat="42.7307550" lon="0.0872220">
        <ele>1826.0</ele>
        <time>2020-07-26T11:15:39Z</time>
      </trkpt>
      <trkpt lat="42.7307720" lon="0.0872900">
        <ele>1826.6</ele>
        <time>2020-07-26T11:15:41Z</time>
      </trkpt>
      <trkpt lat="42.7307810" lon="0.0873590">
        <ele>1827.2</ele>
        <time>2020-07-26T11:15:43Z</time>
      </trkpt>
      <trkpt lat="42.7307500" lon="0.0874460">
        <ele>1828.0</ele>
        <time>2020-07-26T11:15:46Z</time>
      </trkpt>
      <trkpt lat="42.7307280" lon="0.0874610">
        <ele>1828.2</ele>
        <time>2020-07-26T11:15:47Z</time>
      </trkpt>
      <trkpt lat="42.7307040" lon="0.0874680">
        <ele>1828.6</ele>
        <time>2020-07-26T11:15:48Z</time>
      </trkpt>
      <trkpt lat="42.7306540" lon="0.0874590">
        <ele>1829.2</ele>
        <time>2020-07-26T11:15:50Z</time>
      </trkpt>
      <trkpt lat="42.7306310" lon="0.0874490">
        <ele>1829.6</ele>
        <time>2020-07-26T11:15:51Z</time>
      </trkpt>
      <trkpt lat="42.7305680" lon="0.0874110">
        <ele>1830.2</ele>
        <time>2020-07-26T11:15:54Z</time>
      </trkpt>
      <trkpt lat="42.7305300" lon="0.0873850">
        <ele>1830.6</ele>
        <time>2020-07-26T11:15:56Z</time>
      </trkpt>
      <trkpt lat="42.7304900" lon="0.0873660">
        <ele>1831.0</ele>
        <time>2020-07-26T11:15:58Z</time>
      </trkpt>
      <trkpt lat="42.7304220" lon="0.0873330">
        <ele>1831.8</ele>
        <time>2020-07-26T11:16:01Z</time>
      </trkpt>
      <trkpt lat="42.7303450" lon="0.0873000">
        <ele>1832.4</ele>
        <time>2020-07-26T11:16:04Z</time>
      </trkpt>
      <trkpt lat="42.7303210" lon="0.0872900">
        <ele>1832.8</ele>
        <time>2020-07-26T11:16:05Z</time>
      </trkpt>
      <trkpt lat="42.7302970" lon="0.0872820">
        <ele>1833.0</ele>
        <time>2020-07-26T11:16:06Z</time>
      </trkpt>
      <trkpt lat="42.7302730" lon="0.0872710">
        <ele>1833.4</ele>
        <time>2020-07-26T11:16:07Z</time>
      </trkpt>
      <trkpt lat="42.7302260" lon="0.0872500">
        <ele>1833.8</ele>
        <time>2020-07-26T11:16:09Z</time>
      </trkpt>
      <trkpt lat="42.7302030" lon="0.0872350">
        <ele>1834.0</ele>
        <time>2020-07-26T11:16:10Z</time>
      </trkpt>
      <trkpt lat="42.7301580" lon="0.0872010">
        <ele>1834.6</ele>
        <time>2020-07-26T11:16:12Z</time>
      </trkpt>
      <trkpt lat="42.7301030" lon="0.0870810">
        <ele>1835.2</ele>
        <time>2020-07-26T11:16:16Z</time>
      </trkpt>
      <trkpt lat="42.7300980" lon="0.0870470">
        <ele>1835.2</ele>
        <time>2020-07-26T11:16:17Z</time>
      </trkpt>
      <trkpt lat="42.7300980" lon="0.0869030">
        <ele>1836.4</ele>
        <time>2020-07-26T11:16:21Z</time>
      </trkpt>
      <trkpt lat="42.7300900" lon="0.0868310">
        <ele>1837.0</ele>
        <time>2020-07-26T11:16:23Z</time>
      </trkpt>
      <trkpt lat="42.7300730" lon="0.0867610">
        <ele>1837.4</ele>
        <time>2020-07-26T11:16:25Z</time>
      </trkpt>
      <trkpt lat="42.7299940" lon="0.0866610">
        <ele>1838.2</ele>
        <time>2020-07-26T11:16:29Z</time>
      </trkpt>
      <trkpt lat="42.7299690" lon="0.0866450">
        <ele>1838.6</ele>
        <time>2020-07-26T11:16:30Z</time>
      </trkpt>
      <trkpt lat="42.7298670" lon="0.0866030">
        <ele>1839.6</ele>
        <time>2020-07-26T11:16:34Z</time>
      </trkpt>
      <trkpt lat="42.7297960" lon="0.0865870">
        <ele>1840.6</ele>
        <time>2020-07-26T11:16:37Z</time>
      </trkpt>
      <trkpt lat="42.7297720" lon="0.0865820">
        <ele>1841.0</ele>
        <time>2020-07-26T11:16:38Z</time>
      </trkpt>
      <trkpt lat="42.7297250" lon="0.0865700">
        <ele>1841.6</ele>
        <time>2020-07-26T11:16:40Z</time>
      </trkpt>
      <trkpt lat="42.7296790" lon="0.0865570">
        <ele>1842.0</ele>
        <time>2020-07-26T11:16:42Z</time>
      </trkpt>
      <trkpt lat="42.7295950" lon="0.0865410">
        <ele>1842.8</ele>
        <time>2020-07-26T11:16:46Z</time>
      </trkpt>
      <trkpt lat="42.7295550" lon="0.0865390">
        <ele>1843.2</ele>
        <time>2020-07-26T11:16:48Z</time>
      </trkpt>
      <trkpt lat="42.7295370" lon="0.0865420">
        <ele>1843.4</ele>
        <time>2020-07-26T11:16:49Z</time>
      </trkpt>
      <trkpt lat="42.7295170" lon="0.0865510">
        <ele>1843.6</ele>
        <time>2020-07-26T11:16:50Z</time>
      </trkpt>
      <trkpt lat="42.7294790" lon="0.0865940">
        <ele>1844.2</ele>
        <time>2020-07-26T11:16:52Z</time>
      </trkpt>
      <trkpt lat="42.7294690" lon="0.0866260">
        <ele>1844.8</ele>
        <time>2020-07-26T11:16:53Z</time>
      </trkpt>
      <trkpt lat="42.7294670" lon="0.0866630">
        <ele>1845.2</ele>
        <time>2020-07-26T11:16:54Z</time>
      </trkpt>
      <trkpt lat="42.7294870" lon="0.0867280">
        <ele>1846.0</ele>
        <time>2020-07-26T11:16:56Z</time>
      </trkpt>
      <trkpt lat="42.7295490" lon="0.0868700">
        <ele>1847.0</ele>
        <time>2020-07-26T11:17:01Z</time>
      </trkpt>
      <trkpt lat="42.7295730" lon="0.0869280">
        <ele>1847.4</ele>
        <time>2020-07-26T11:17:03Z</time>
      </trkpt>
      <trkpt lat="42.7295920" lon="0.0869890">
        <ele>1848.2</ele>
        <time>2020-07-26T11:17:05Z</time>
      </trkpt>
      <trkpt lat="42.7296390" lon="0.0871100">
        <ele>1849.4</ele>
        <time>2020-07-26T11:17:09Z</time>
      </trkpt>
      <trkpt lat="42.7296650" lon="0.0871720">
        <ele>1849.8</ele>
        <time>2020-07-26T11:17:11Z</time>
      </trkpt>
      <trkpt lat="42.7297360" lon="0.0872710">
        <ele>1850.6</ele>
        <time>2020-07-26T11:17:15Z</time>
      </trkpt>
      <trkpt lat="42.7297960" lon="0.0873390">
        <ele>1851.0</ele>
        <time>2020-07-26T11:17:18Z</time>
      </trkpt>
      <trkpt lat="42.7298150" lon="0.0873650">
        <ele>1851.2</ele>
        <time>2020-07-26T11:17:19Z</time>
      </trkpt>
      <trkpt lat="42.7298260" lon="0.0873970">
        <ele>1851.2</ele>
        <time>2020-07-26T11:17:20Z</time>
      </trkpt>
      <trkpt lat="42.7298190" lon="0.0874670">
        <ele>1851.6</ele>
        <time>2020-07-26T11:17:22Z</time>
      </trkpt>
      <trkpt lat="42.7298060" lon="0.0874930">
        <ele>1851.8</ele>
        <time>2020-07-26T11:17:23Z</time>
      </trkpt>
      <trkpt lat="42.7297850" lon="0.0875090">
        <ele>1852.2</ele>
        <time>2020-07-26T11:17:24Z</time>
      </trkpt>
      <trkpt lat="42.7297600" lon="0.0875120">
        <ele>1852.4</ele>
        <time>2020-07-26T11:17:25Z</time>
      </trkpt>
      <trkpt lat="42.7297350" lon="0.0875110">
        <ele>1852.6</ele>
        <time>2020-07-26T11:17:26Z</time>
      </trkpt>
      <trkpt lat="42.7296460" lon="0.0874760">
        <ele>1853.8</ele>
        <time>2020-07-26T11:17:30Z</time>
      </trkpt>
      <trkpt lat="42.7296240" lon="0.0874630">
        <ele>1854.0</ele>
        <time>2020-07-26T11:17:31Z</time>
      </trkpt>
      <trkpt lat="42.7295640" lon="0.0874220">
        <ele>1854.8</ele>
        <time>2020-07-26T11:17:34Z</time>
      </trkpt>
      <trkpt lat="42.7295280" lon="0.0873910">
        <ele>1855.2</ele>
        <time>2020-07-26T11:17:36Z</time>
      </trkpt>
      <trkpt lat="42.7295080" lon="0.0873810">
        <ele>1855.4</ele>
        <time>2020-07-26T11:17:37Z</time>
      </trkpt>
      <trkpt lat="42.7294700" lon="0.0873530">
        <ele>1856.0</ele>
        <time>2020-07-26T11:17:39Z</time>
      </trkpt>
      <trkpt lat="42.7294240" lon="0.0872990">
        <ele>1856.4</ele>
        <time>2020-07-26T11:17:42Z</time>
      </trkpt>
      <trkpt lat="42.7294080" lon="0.0872800">
        <ele>1856.6</ele>
        <time>2020-07-26T11:17:43Z</time>
      </trkpt>
      <trkpt lat="42.7293910" lon="0.0872620">
        <ele>1856.8</ele>
        <time>2020-07-26T11:17:44Z</time>
      </trkpt>
      <trkpt lat="42.7293720" lon="0.0872420">
        <ele>1857.0</ele>
        <time>2020-07-26T11:17:45Z</time>
      </trkpt>
      <trkpt lat="42.7293080" lon="0.0871520">
        <ele>1857.8</ele>
        <time>2020-07-26T11:17:49Z</time>
      </trkpt>
      <trkpt lat="42.7292910" lon="0.0871300">
        <ele>1858.0</ele>
        <time>2020-07-26T11:17:50Z</time>
      </trkpt>
      <trkpt lat="42.7292150" lon="0.0870500">
        <ele>1859.0</ele>
        <time>2020-07-26T11:17:54Z</time>
      </trkpt>
      <trkpt lat="42.7291550" lon="0.0870020">
        <ele>1859.6</ele>
        <time>2020-07-26T11:17:57Z</time>
      </trkpt>
      <trkpt lat="42.7290940" lon="0.0869670">
        <ele>1860.2</ele>
        <time>2020-07-26T11:18:00Z</time>
      </trkpt>
      <trkpt lat="42.7290350" lon="0.0869390">
        <ele>1861.0</ele>
        <time>2020-07-26T11:18:03Z</time>
      </trkpt>
      <trkpt lat="42.7290160" lon="0.0869400">
        <ele>1861.2</ele>
        <time>2020-07-26T11:18:04Z</time>
      </trkpt>
      <trkpt lat="42.7289930" lon="0.0869510">
        <ele>1861.4</ele>
        <time>2020-07-26T11:18:05Z</time>
      </trkpt>
      <trkpt lat="42.7289750" lon="0.0869710">
        <ele>1861.6</ele>
        <time>2020-07-26T11:18:06Z</time>
      </trkpt>
      <trkpt lat="42.7289640" lon="0.0870040">
        <ele>1861.6</ele>
        <time>2020-07-26T11:18:07Z</time>
      </trkpt>
      <trkpt lat="42.7289610" lon="0.0870390">
        <ele>1861.8</ele>
        <time>2020-07-26T11:18:08Z</time>
      </trkpt>
      <trkpt lat="42.7289840" lon="0.0870970">
        <ele>1862.6</ele>
        <time>2020-07-26T11:18:10Z</time>
      </trkpt>
      <trkpt lat="42.7290620" lon="0.0871970">
        <ele>1863.4</ele>
        <time>2020-07-26T11:18:14Z</time>
      </trkpt>
      <trkpt lat="42.7290820" lon="0.0872220">
        <ele>1863.8</ele>
        <time>2020-07-26T11:18:15Z</time>
      </trkpt>
      <trkpt lat="42.7291280" lon="0.0873090">
        <ele>1864.4</ele>
        <time>2020-07-26T11:18:18Z</time>
      </trkpt>
      <trkpt lat="42.7291400" lon="0.0873390">
        <ele>1864.6</ele>
        <time>2020-07-26T11:18:19Z</time>
      </trkpt>
      <trkpt lat="42.7291520" lon="0.0873690">
        <ele>1864.8</ele>
        <time>2020-07-26T11:18:20Z</time>
      </trkpt>
      <trkpt lat="42.7292020" lon="0.0875480">
        <ele>1866.2</ele>
        <time>2020-07-26T11:18:26Z</time>
      </trkpt>
      <trkpt lat="42.7292530" lon="0.0876570">
        <ele>1867.2</ele>
        <time>2020-07-26T11:18:30Z</time>
      </trkpt>
      <trkpt lat="42.7293070" lon="0.0877620">
        <ele>1868.2</ele>
        <time>2020-07-26T11:18:34Z</time>
      </trkpt>
      <trkpt lat="42.7293980" lon="0.0878600">
        <ele>1869.6</ele>
        <time>2020-07-26T11:18:39Z</time>
      </trkpt>
      <trkpt lat="42.7294350" lon="0.0878980">
        <ele>1870.0</ele>
        <time>2020-07-26T11:18:41Z</time>
      </trkpt>
      <trkpt lat="42.7295140" lon="0.0879540">
        <ele>1870.8</ele>
        <time>2020-07-26T11:18:45Z</time>
      </trkpt>
      <trkpt lat="42.7295570" lon="0.0879750">
        <ele>1871.6</ele>
        <time>2020-07-26T11:18:47Z</time>
      </trkpt>
      <trkpt lat="42.7295770" lon="0.0879880">
        <ele>1871.8</ele>
        <time>2020-07-26T11:18:48Z</time>
      </trkpt>
      <trkpt lat="42.7296970" lon="0.0880600">
        <ele>1873.0</ele>
        <time>2020-07-26T11:18:54Z</time>
      </trkpt>
      <trkpt lat="42.7298160" lon="0.0880820">
        <ele>1874.0</ele>
        <time>2020-07-26T11:18:59Z</time>
      </trkpt>
      <trkpt lat="42.7298590" lon="0.0881190">
        <ele>1874.2</ele>
        <time>2020-07-26T11:19:01Z</time>
      </trkpt>
      <trkpt lat="42.7298780" lon="0.0881810">
        <ele>1874.4</ele>
        <time>2020-07-26T11:19:03Z</time>
      </trkpt>
      <trkpt lat="42.7298530" lon="0.0882320">
        <ele>1875.0</ele>
        <time>2020-07-26T11:19:05Z</time>
      </trkpt>
      <trkpt lat="42.7298320" lon="0.0882450">
        <ele>1875.2</ele>
        <time>2020-07-26T11:19:06Z</time>
      </trkpt>
      <trkpt lat="42.7297360" lon="0.0882390">
        <ele>1876.0</ele>
        <time>2020-07-26T11:19:10Z</time>
      </trkpt>
      <trkpt lat="42.7297120" lon="0.0882350">
        <ele>1876.2</ele>
        <time>2020-07-26T11:19:11Z</time>
      </trkpt>
      <trkpt lat="42.7296230" lon="0.0882230">
        <ele>1877.4</ele>
        <time>2020-07-26T11:19:15Z</time>
      </trkpt>
      <trkpt lat="42.7295780" lon="0.0882300">
        <ele>1877.8</ele>
        <time>2020-07-26T11:19:17Z</time>
      </trkpt>
      <trkpt lat="42.7295130" lon="0.0882470">
        <ele>1878.6</ele>
        <time>2020-07-26T11:19:20Z</time>
      </trkpt>
      <trkpt lat="42.7294450" lon="0.0882720">
        <ele>1879.4</ele>
        <time>2020-07-26T11:19:23Z</time>
      </trkpt>
      <trkpt lat="42.7294230" lon="0.0882780">
        <ele>1879.6</ele>
        <time>2020-07-26T11:19:24Z</time>
      </trkpt>
      <trkpt lat="42.7293340" lon="0.0882800">
        <ele>1880.2</ele>
        <time>2020-07-26T11:19:28Z</time>
      </trkpt>
      <trkpt lat="42.7292820" lon="0.0882820">
        <ele>1880.8</ele>
        <time>2020-07-26T11:19:30Z</time>
      </trkpt>
      <trkpt lat="42.7292290" lon="0.0882880">
        <ele>1881.6</ele>
        <time>2020-07-26T11:19:32Z</time>
      </trkpt>
      <trkpt lat="42.7291790" lon="0.0882970">
        <ele>1882.0</ele>
        <time>2020-07-26T11:19:34Z</time>
      </trkpt>
      <trkpt lat="42.7291060" lon="0.0883050">
        <ele>1882.4</ele>
        <time>2020-07-26T11:19:37Z</time>
      </trkpt>
      <trkpt lat="42.7290350" lon="0.0882940">
        <ele>1883.2</ele>
        <time>2020-07-26T11:19:40Z</time>
      </trkpt>
      <trkpt lat="42.7289480" lon="0.0882400">
        <ele>1884.2</ele>
        <time>2020-07-26T11:19:44Z</time>
      </trkpt>
      <trkpt lat="42.7289050" lon="0.0881710">
        <ele>1885.2</ele>
        <time>2020-07-26T11:19:47Z</time>
      </trkpt>
      <trkpt lat="42.7288740" lon="0.0881290">
        <ele>1885.8</ele>
        <time>2020-07-26T11:19:49Z</time>
      </trkpt>
      <trkpt lat="42.7288140" lon="0.0880920">
        <ele>1886.4</ele>
        <time>2020-07-26T11:19:52Z</time>
      </trkpt>
      <trkpt lat="42.7287680" lon="0.0881030">
        <ele>1886.8</ele>
        <time>2020-07-26T11:19:54Z</time>
      </trkpt>
      <trkpt lat="42.7287310" lon="0.0882260">
        <ele>1887.2</ele>
        <time>2020-07-26T11:19:58Z</time>
      </trkpt>
      <trkpt lat="42.7287380" lon="0.0882590">
        <ele>1887.6</ele>
        <time>2020-07-26T11:19:59Z</time>
      </trkpt>
      <trkpt lat="42.7287850" lon="0.0883810">
        <ele>1888.6</ele>
        <time>2020-07-26T11:20:03Z</time>
      </trkpt>
      <trkpt lat="42.7287990" lon="0.0884080">
        <ele>1888.8</ele>
        <time>2020-07-26T11:20:04Z</time>
      </trkpt>
      <trkpt lat="42.7288160" lon="0.0884340">
        <ele>1889.0</ele>
        <time>2020-07-26T11:20:05Z</time>
      </trkpt>
      <trkpt lat="42.7289000" lon="0.0885160">
        <ele>1890.0</ele>
        <time>2020-07-26T11:20:09Z</time>
      </trkpt>
      <trkpt lat="42.7289720" lon="0.0885420">
        <ele>1890.4</ele>
        <time>2020-07-26T11:20:12Z</time>
      </trkpt>
      <trkpt lat="42.7290190" lon="0.0885560">
        <ele>1891.0</ele>
        <time>2020-07-26T11:20:14Z</time>
      </trkpt>
      <trkpt lat="42.7291170" lon="0.0885840">
        <ele>1892.2</ele>
        <time>2020-07-26T11:20:18Z</time>
      </trkpt>
      <trkpt lat="42.7292670" lon="0.0886260">
        <ele>1893.4</ele>
        <time>2020-07-26T11:20:24Z</time>
      </trkpt>
      <trkpt lat="42.7292910" lon="0.0886360">
        <ele>1893.8</ele>
        <time>2020-07-26T11:20:25Z</time>
      </trkpt>
      <trkpt lat="42.7293610" lon="0.0886690">
        <ele>1894.6</ele>
        <time>2020-07-26T11:20:28Z</time>
      </trkpt>
      <trkpt lat="42.7294740" lon="0.0887110">
        <ele>1895.6</ele>
        <time>2020-07-26T11:20:33Z</time>
      </trkpt>
      <trkpt lat="42.7294980" lon="0.0887190">
        <ele>1895.8</ele>
        <time>2020-07-26T11:20:34Z</time>
      </trkpt>
      <trkpt lat="42.7296030" lon="0.0887450">
        <ele>1896.8</ele>
        <time>2020-07-26T11:20:39Z</time>
      </trkpt>
      <trkpt lat="42.7296670" lon="0.0887420">
        <ele>1897.8</ele>
        <time>2020-07-26T11:20:42Z</time>
      </trkpt>
      <trkpt lat="42.7296890" lon="0.0887430">
        <ele>1898.0</ele>
        <time>2020-07-26T11:20:43Z</time>
      </trkpt>
      <trkpt lat="42.7297320" lon="0.0887510">
        <ele>1898.4</ele>
        <time>2020-07-26T11:20:45Z</time>
      </trkpt>
      <trkpt lat="42.7297780" lon="0.0887600">
        <ele>1899.0</ele>
        <time>2020-07-26T11:20:47Z</time>
      </trkpt>
      <trkpt lat="42.7298470" lon="0.0887740">
        <ele>1900.2</ele>
        <time>2020-07-26T11:20:50Z</time>
      </trkpt>
      <trkpt lat="42.7299410" lon="0.0887800">
        <ele>1901.2</ele>
        <time>2020-07-26T11:20:54Z</time>
      </trkpt>
      <trkpt lat="42.7300260" lon="0.0887830">
        <ele>1902.2</ele>
        <time>2020-07-26T11:20:58Z</time>
      </trkpt>
      <trkpt lat="42.7300640" lon="0.0887810">
        <ele>1902.8</ele>
        <time>2020-07-26T11:21:00Z</time>
      </trkpt>
      <trkpt lat="42.7301020" lon="0.0887670">
        <ele>1903.4</ele>
        <time>2020-07-26T11:21:02Z</time>
      </trkpt>
      <trkpt lat="42.7302010" lon="0.0887610">
        <ele>1904.6</ele>
        <time>2020-07-26T11:21:07Z</time>
      </trkpt>
      <trkpt lat="42.7303280" lon="0.0887320">
        <ele>1905.6</ele>
        <time>2020-07-26T11:21:13Z</time>
      </trkpt>
      <trkpt lat="42.7303670" lon="0.0887180">
        <ele>1906.2</ele>
        <time>2020-07-26T11:21:15Z</time>
      </trkpt>
      <trkpt lat="42.7303890" lon="0.0887130">
        <ele>1906.6</ele>
        <time>2020-07-26T11:21:16Z</time>
      </trkpt>
      <trkpt lat="42.7304110" lon="0.0887080">
        <ele>1907.0</ele>
        <time>2020-07-26T11:21:17Z</time>
      </trkpt>
      <trkpt lat="42.7305270" lon="0.0886810">
        <ele>1908.2</ele>
        <time>2020-07-26T11:21:22Z</time>
      </trkpt>
      <trkpt lat="42.7305750" lon="0.0886770">
        <ele>1908.8</ele>
        <time>2020-07-26T11:21:24Z</time>
      </trkpt>
      <trkpt lat="42.7305960" lon="0.0886810">
        <ele>1909.2</ele>
        <time>2020-07-26T11:21:25Z</time>
      </trkpt>
      <trkpt lat="42.7306170" lon="0.0886870">
        <ele>1909.6</ele>
        <time>2020-07-26T11:21:26Z</time>
      </trkpt>
      <trkpt lat="42.7306630" lon="0.0886970">
        <ele>1910.4</ele>
        <time>2020-07-26T11:21:28Z</time>
      </trkpt>
      <trkpt lat="42.7307310" lon="0.0887180">
        <ele>1910.8</ele>
        <time>2020-07-26T11:21:31Z</time>
      </trkpt>
      <trkpt lat="42.7307530" lon="0.0887220">
        <ele>1911.0</ele>
        <time>2020-07-26T11:21:32Z</time>
      </trkpt>
      <trkpt lat="42.7307960" lon="0.0887350">
        <ele>1911.4</ele>
        <time>2020-07-26T11:21:34Z</time>
      </trkpt>
      <trkpt lat="42.7308850" lon="0.0887490">
        <ele>1912.6</ele>
        <time>2020-07-26T11:21:38Z</time>
      </trkpt>
      <trkpt lat="42.7309850" lon="0.0888140">
        <ele>1913.6</ele>
        <time>2020-07-26T11:21:43Z</time>
      </trkpt>
      <trkpt lat="42.7309870" lon="0.0888440">
        <ele>1913.8</ele>
        <time>2020-07-26T11:21:44Z</time>
      </trkpt>
      <trkpt lat="42.7309770" lon="0.0888710">
        <ele>1914.2</ele>
        <time>2020-07-26T11:21:45Z</time>
      </trkpt>
      <trkpt lat="42.7309290" lon="0.0888900">
        <ele>1914.8</ele>
        <time>2020-07-26T11:21:47Z</time>
      </trkpt>
      <trkpt lat="42.7307730" lon="0.0888900">
        <ele>1916.2</ele>
        <time>2020-07-26T11:21:53Z</time>
      </trkpt>
      <trkpt lat="42.7307490" lon="0.0888870">
        <ele>1916.6</ele>
        <time>2020-07-26T11:21:54Z</time>
      </trkpt>
      <trkpt lat="42.7306810" lon="0.0888870">
        <ele>1917.0</ele>
        <time>2020-07-26T11:21:57Z</time>
      </trkpt>
      <trkpt lat="42.7306600" lon="0.0888870">
        <ele>1917.2</ele>
        <time>2020-07-26T11:21:58Z</time>
      </trkpt>
      <trkpt lat="42.7306400" lon="0.0888920">
        <ele>1917.2</ele>
        <time>2020-07-26T11:21:59Z</time>
      </trkpt>
      <trkpt lat="42.7305700" lon="0.0889430">
        <ele>1918.4</ele>
        <time>2020-07-26T11:22:02Z</time>
      </trkpt>
      <trkpt lat="42.7304730" lon="0.0890070">
        <ele>1919.6</ele>
        <time>2020-07-26T11:22:06Z</time>
      </trkpt>
      <trkpt lat="42.7304280" lon="0.0890410">
        <ele>1920.0</ele>
        <time>2020-07-26T11:22:08Z</time>
      </trkpt>
      <trkpt lat="42.7304070" lon="0.0890600">
        <ele>1920.4</ele>
        <time>2020-07-26T11:22:09Z</time>
      </trkpt>
      <trkpt lat="42.7303850" lon="0.0890780">
        <ele>1920.6</ele>
        <time>2020-07-26T11:22:10Z</time>
      </trkpt>
      <trkpt lat="42.7303400" lon="0.0891130">
        <ele>1921.2</ele>
        <time>2020-07-26T11:22:12Z</time>
      </trkpt>
      <trkpt lat="42.7302940" lon="0.0891460">
        <ele>1922.0</ele>
        <time>2020-07-26T11:22:14Z</time>
      </trkpt>
      <trkpt lat="42.7302050" lon="0.0891970">
        <ele>1923.2</ele>
        <time>2020-07-26T11:22:18Z</time>
      </trkpt>
      <trkpt lat="42.7301270" lon="0.0892590">
        <ele>1924.2</ele>
        <time>2020-07-26T11:22:22Z</time>
      </trkpt>
      <trkpt lat="42.7300500" lon="0.0893340">
        <ele>1925.2</ele>
        <time>2020-07-26T11:22:26Z</time>
      </trkpt>
      <trkpt lat="42.7299250" lon="0.0894260">
        <ele>1926.6</ele>
        <time>2020-07-26T11:22:32Z</time>
      </trkpt>
      <trkpt lat="42.7299030" lon="0.0894360">
        <ele>1926.8</ele>
        <time>2020-07-26T11:22:33Z</time>
      </trkpt>
      <trkpt lat="42.7298600" lon="0.0894600">
        <ele>1927.2</ele>
        <time>2020-07-26T11:22:35Z</time>
      </trkpt>
      <trkpt lat="42.7298380" lon="0.0894720">
        <ele>1927.6</ele>
        <time>2020-07-26T11:22:36Z</time>
      </trkpt>
      <trkpt lat="42.7297520" lon="0.0894960">
        <ele>1928.8</ele>
        <time>2020-07-26T11:22:40Z</time>
      </trkpt>
      <trkpt lat="42.7297320" lon="0.0895060">
        <ele>1929.0</ele>
        <time>2020-07-26T11:22:41Z</time>
      </trkpt>
      <trkpt lat="42.7296300" lon="0.0895980">
        <ele>1929.8</ele>
        <time>2020-07-26T11:22:47Z</time>
      </trkpt>
      <trkpt lat="42.7296860" lon="0.0896840">
        <ele>1931.2</ele>
        <time>2020-07-26T11:22:51Z</time>
      </trkpt>
      <trkpt lat="42.7298030" lon="0.0896700">
        <ele>1932.2</ele>
        <time>2020-07-26T11:22:55Z</time>
      </trkpt>
      <trkpt lat="42.7298310" lon="0.0896610">
        <ele>1932.4</ele>
        <time>2020-07-26T11:22:56Z</time>
      </trkpt>
      <trkpt lat="42.7300090" lon="0.0896190">
        <ele>1933.2</ele>
        <time>2020-07-26T11:23:02Z</time>
      </trkpt>
      <trkpt lat="42.7301020" lon="0.0895980">
        <ele>1934.0</ele>
        <time>2020-07-26T11:23:05Z</time>
      </trkpt>
      <trkpt lat="42.7301330" lon="0.0895890">
        <ele>1934.0</ele>
        <time>2020-07-26T11:23:06Z</time>
      </trkpt>
      <trkpt lat="42.7301620" lon="0.0895790">
        <ele>1934.2</ele>
        <time>2020-07-26T11:23:07Z</time>
      </trkpt>
      <trkpt lat="42.7303370" lon="0.0895490">
        <ele>1935.4</ele>
        <time>2020-07-26T11:23:13Z</time>
      </trkpt>
      <trkpt lat="42.7305060" lon="0.0895000">
        <ele>1936.4</ele>
        <time>2020-07-26T11:23:19Z</time>
      </trkpt>
      <trkpt lat="42.7305320" lon="0.0894930">
        <ele>1936.8</ele>
        <time>2020-07-26T11:23:20Z</time>
      </trkpt>
      <trkpt lat="42.7306350" lon="0.0894750">
        <ele>1937.6</ele>
        <time>2020-07-26T11:23:24Z</time>
      </trkpt>
      <trkpt lat="42.7307090" lon="0.0894590">
        <ele>1938.2</ele>
        <time>2020-07-26T11:23:27Z</time>
      </trkpt>
      <trkpt lat="42.7307660" lon="0.0894420">
        <ele>1938.6</ele>
        <time>2020-07-26T11:23:30Z</time>
      </trkpt>
      <trkpt lat="42.7308510" lon="0.0894200">
        <ele>1939.8</ele>
        <time>2020-07-26T11:23:34Z</time>
      </trkpt>
      <trkpt lat="42.7309410" lon="0.0893970">
        <ele>1941.0</ele>
        <time>2020-07-26T11:23:38Z</time>
      </trkpt>
      <trkpt lat="42.7310040" lon="0.0894260">
        <ele>1941.8</ele>
        <time>2020-07-26T11:23:41Z</time>
      </trkpt>
      <trkpt lat="42.7310150" lon="0.0894500">
        <ele>1942.2</ele>
        <time>2020-07-26T11:23:42Z</time>
      </trkpt>
      <trkpt lat="42.7310030" lon="0.0895080">
        <ele>1942.6</ele>
        <time>2020-07-26T11:23:44Z</time>
      </trkpt>
      <trkpt lat="42.7309840" lon="0.0895280">
        <ele>1943.0</ele>
        <time>2020-07-26T11:23:45Z</time>
      </trkpt>
      <trkpt lat="42.7309590" lon="0.0895380">
        <ele>1943.4</ele>
        <time>2020-07-26T11:23:46Z</time>
      </trkpt>
      <trkpt lat="42.7309400" lon="0.0895460">
        <ele>1943.6</ele>
        <time>2020-07-26T11:23:47Z</time>
      </trkpt>
      <trkpt lat="42.7308670" lon="0.0895750">
        <ele>1944.4</ele>
        <time>2020-07-26T11:23:50Z</time>
      </trkpt>
      <trkpt lat="42.7308210" lon="0.0895920">
        <ele>1944.8</ele>
        <time>2020-07-26T11:23:52Z</time>
      </trkpt>
      <trkpt lat="42.7307510" lon="0.0896300">
        <ele>1945.4</ele>
        <time>2020-07-26T11:23:55Z</time>
      </trkpt>
      <trkpt lat="42.7306910" lon="0.0896770">
        <ele>1946.2</ele>
        <time>2020-07-26T11:23:58Z</time>
      </trkpt>
      <trkpt lat="42.7306690" lon="0.0896950">
        <ele>1946.6</ele>
        <time>2020-07-26T11:23:59Z</time>
      </trkpt>
      <trkpt lat="42.7305950" lon="0.0897660">
        <ele>1947.8</ele>
        <time>2020-07-26T11:24:03Z</time>
      </trkpt>
      <trkpt lat="42.7305840" lon="0.0897760">
        <ele>1948.0</ele>
        <time>2020-07-26T11:24:04Z</time>
      </trkpt>
      <trkpt lat="42.7305560" lon="0.0898920">
        <ele>1947.8</ele>
        <time>2020-07-26T11:24:43Z</time>
      </trkpt>
      <trkpt lat="42.7305390" lon="0.0899090">
        <ele>1948.0</ele>
        <time>2020-07-26T11:24:44Z</time>
      </trkpt>
      <trkpt lat="42.7304410" lon="0.0899850">
        <ele>1948.8</ele>
        <time>2020-07-26T11:24:48Z</time>
      </trkpt>
      <trkpt lat="42.7303650" lon="0.0900450">
        <ele>1950.0</ele>
        <time>2020-07-26T11:24:51Z</time>
      </trkpt>
      <trkpt lat="42.7302760" lon="0.0901260">
        <ele>1951.0</ele>
        <time>2020-07-26T11:24:55Z</time>
      </trkpt>
      <trkpt lat="42.7302540" lon="0.0901450">
        <ele>1951.2</ele>
        <time>2020-07-26T11:24:56Z</time>
      </trkpt>
      <trkpt lat="42.7301880" lon="0.0901910">
        <ele>1952.4</ele>
        <time>2020-07-26T11:24:59Z</time>
      </trkpt>
      <trkpt lat="42.7301060" lon="0.0902700">
        <ele>1953.4</ele>
        <time>2020-07-26T11:25:03Z</time>
      </trkpt>
      <trkpt lat="42.7300870" lon="0.0902920">
        <ele>1953.6</ele>
        <time>2020-07-26T11:25:04Z</time>
      </trkpt>
      <trkpt lat="42.7299800" lon="0.0903990">
        <ele>1954.4</ele>
        <time>2020-07-26T11:25:09Z</time>
      </trkpt>
      <trkpt lat="42.7299570" lon="0.0904180">
        <ele>1954.8</ele>
        <time>2020-07-26T11:25:10Z</time>
      </trkpt>
      <trkpt lat="42.7298870" lon="0.0904670">
        <ele>1955.6</ele>
        <time>2020-07-26T11:25:13Z</time>
      </trkpt>
      <trkpt lat="42.7298000" lon="0.0905260">
        <ele>1956.8</ele>
        <time>2020-07-26T11:25:17Z</time>
      </trkpt>
      <trkpt lat="42.7297780" lon="0.0905390">
        <ele>1957.0</ele>
        <time>2020-07-26T11:25:18Z</time>
      </trkpt>
      <trkpt lat="42.7297140" lon="0.0905850">
        <ele>1957.8</ele>
        <time>2020-07-26T11:25:21Z</time>
      </trkpt>
      <trkpt lat="42.7296530" lon="0.0906380">
        <ele>1958.4</ele>
        <time>2020-07-26T11:25:24Z</time>
      </trkpt>
      <trkpt lat="42.7296000" lon="0.0907000">
        <ele>1959.0</ele>
        <time>2020-07-26T11:25:27Z</time>
      </trkpt>
      <trkpt lat="42.7295620" lon="0.0907930">
        <ele>1960.2</ele>
        <time>2020-07-26T11:25:30Z</time>
      </trkpt>
      <trkpt lat="42.7295440" lon="0.0908580">
        <ele>1960.8</ele>
        <time>2020-07-26T11:25:32Z</time>
      </trkpt>
      <trkpt lat="42.7295400" lon="0.0909200">
        <ele>1961.2</ele>
        <time>2020-07-26T11:25:34Z</time>
      </trkpt>
      <trkpt lat="42.7295440" lon="0.0909880">
        <ele>1961.4</ele>
        <time>2020-07-26T11:25:36Z</time>
      </trkpt>
      <trkpt lat="42.7295510" lon="0.0910880">
        <ele>1962.2</ele>
        <time>2020-07-26T11:25:39Z</time>
      </trkpt>
      <trkpt lat="42.7295550" lon="0.0911180">
        <ele>1962.4</ele>
        <time>2020-07-26T11:25:40Z</time>
      </trkpt>
      <trkpt lat="42.7295620" lon="0.0911450">
        <ele>1962.8</ele>
        <time>2020-07-26T11:25:41Z</time>
      </trkpt>
      <trkpt lat="42.7295670" lon="0.0912060">
        <ele>1963.2</ele>
        <time>2020-07-26T11:25:43Z</time>
      </trkpt>
      <trkpt lat="42.7295660" lon="0.0912370">
        <ele>1963.6</ele>
        <time>2020-07-26T11:25:44Z</time>
      </trkpt>
      <trkpt lat="42.7295670" lon="0.0912670">
        <ele>1963.6</ele>
        <time>2020-07-26T11:25:45Z</time>
      </trkpt>
      <trkpt lat="42.7295570" lon="0.0913320">
        <ele>1963.8</ele>
        <time>2020-07-26T11:25:47Z</time>
      </trkpt>
      <trkpt lat="42.7295350" lon="0.0913950">
        <ele>1964.6</ele>
        <time>2020-07-26T11:25:49Z</time>
      </trkpt>
      <trkpt lat="42.7294970" lon="0.0914320">
        <ele>1965.6</ele>
        <time>2020-07-26T11:25:51Z</time>
      </trkpt>
      <trkpt lat="42.7293860" lon="0.0913990">
        <ele>1966.8</ele>
        <time>2020-07-26T11:25:56Z</time>
      </trkpt>
      <trkpt lat="42.7292940" lon="0.0913090">
        <ele>1967.8</ele>
        <time>2020-07-26T11:26:01Z</time>
      </trkpt>
      <trkpt lat="42.7292800" lon="0.0912880">
        <ele>1968.0</ele>
        <time>2020-07-26T11:26:02Z</time>
      </trkpt>
      <trkpt lat="42.7292510" lon="0.0912460">
        <ele>1968.6</ele>
        <time>2020-07-26T11:26:04Z</time>
      </trkpt>
      <trkpt lat="42.7292360" lon="0.0912250">
        <ele>1968.8</ele>
        <time>2020-07-26T11:26:05Z</time>
      </trkpt>
      <trkpt lat="42.7292200" lon="0.0912050">
        <ele>1969.2</ele>
        <time>2020-07-26T11:26:06Z</time>
      </trkpt>
      <trkpt lat="42.7291580" lon="0.0911270">
        <ele>1970.4</ele>
        <time>2020-07-26T11:26:10Z</time>
      </trkpt>
      <trkpt lat="42.7291290" lon="0.0910900">
        <ele>1970.8</ele>
        <time>2020-07-26T11:26:13Z</time>
      </trkpt>
      <trkpt lat="42.7291080" lon="0.0910820">
        <ele>1971.4</ele>
        <time>2020-07-26T11:26:17Z</time>
      </trkpt>
      <trkpt lat="42.7290960" lon="0.0910880">
        <ele>1971.6</ele>
        <time>2020-07-26T11:26:18Z</time>
      </trkpt>
      <trkpt lat="42.7290870" lon="0.0910980">
        <ele>1971.6</ele>
        <time>2020-07-26T11:26:19Z</time>
      </trkpt>
      <trkpt lat="42.7290820" lon="0.0911180">
        <ele>1971.8</ele>
        <time>2020-07-26T11:26:20Z</time>
      </trkpt>
      <trkpt lat="42.7290820" lon="0.0911540">
        <ele>1971.8</ele>
        <time>2020-07-26T11:26:22Z</time>
      </trkpt>
      <trkpt lat="42.7290850" lon="0.0911730">
        <ele>1971.8</ele>
        <time>2020-07-26T11:26:23Z</time>
      </trkpt>
      <trkpt lat="42.7291000" lon="0.0912780">
        <ele>1972.0</ele>
        <time>2020-07-26T11:26:28Z</time>
      </trkpt>
      <trkpt lat="42.7291100" lon="0.0913190">
        <ele>1972.0</ele>
        <time>2020-07-26T11:26:30Z</time>
      </trkpt>
      <trkpt lat="42.7291260" lon="0.0913980">
        <ele>1972.6</ele>
        <time>2020-07-26T11:26:33Z</time>
      </trkpt>
      <trkpt lat="42.7291420" lon="0.0914520">
        <ele>1973.2</ele>
        <time>2020-07-26T11:26:36Z</time>
      </trkpt>
      <trkpt lat="42.7291560" lon="0.0914730">
        <ele>1973.8</ele>
        <time>2020-07-26T11:26:39Z</time>
      </trkpt>
      <trkpt lat="42.7291600" lon="0.0915070">
        <ele>1974.2</ele>
        <time>2020-07-26T11:26:41Z</time>
      </trkpt>
      <trkpt lat="42.7291640" lon="0.0915310">
        <ele>1974.4</ele>
        <time>2020-07-26T11:26:42Z</time>
      </trkpt>
      <trkpt lat="42.7291690" lon="0.0915600">
        <ele>1974.6</ele>
        <time>2020-07-26T11:26:43Z</time>
      </trkpt>
      <trkpt lat="42.7291800" lon="0.0916280">
        <ele>1974.8</ele>
        <time>2020-07-26T11:26:45Z</time>
      </trkpt>
      <trkpt lat="42.7291760" lon="0.0917010">
        <ele>1975.2</ele>
        <time>2020-07-26T11:26:47Z</time>
      </trkpt>
      <trkpt lat="42.7291580" lon="0.0918010">
        <ele>1976.0</ele>
        <time>2020-07-26T11:26:50Z</time>
      </trkpt>
      <trkpt lat="42.7291090" lon="0.0919180">
        <ele>1977.0</ele>
        <time>2020-07-26T11:26:54Z</time>
      </trkpt>
      <trkpt lat="42.7290970" lon="0.0919500">
        <ele>1977.2</ele>
        <time>2020-07-26T11:26:55Z</time>
      </trkpt>
      <trkpt lat="42.7290570" lon="0.0920460">
        <ele>1978.4</ele>
        <time>2020-07-26T11:26:58Z</time>
      </trkpt>
      <trkpt lat="42.7290140" lon="0.0921770">
        <ele>1979.6</ele>
        <time>2020-07-26T11:27:02Z</time>
      </trkpt>
      <trkpt lat="42.7289690" lon="0.0922830">
        <ele>1980.6</ele>
        <time>2020-07-26T11:27:06Z</time>
      </trkpt>
      <trkpt lat="42.7289520" lon="0.0923260">
        <ele>1981.2</ele>
        <time>2020-07-26T11:27:08Z</time>
      </trkpt>
      <trkpt lat="42.7289370" lon="0.0923690">
        <ele>1981.6</ele>
        <time>2020-07-26T11:27:10Z</time>
      </trkpt>
      <trkpt lat="42.7289270" lon="0.0924160">
        <ele>1981.6</ele>
        <time>2020-07-26T11:27:12Z</time>
      </trkpt>
      <trkpt lat="42.7288960" lon="0.0925380">
        <ele>1982.4</ele>
        <time>2020-07-26T11:27:18Z</time>
      </trkpt>
      <trkpt lat="42.7288810" lon="0.0925990">
        <ele>1982.8</ele>
        <time>2020-07-26T11:27:21Z</time>
      </trkpt>
      <trkpt lat="42.7288610" lon="0.0927140">
        <ele>1983.8</ele>
        <time>2020-07-26T11:27:27Z</time>
      </trkpt>
      <trkpt lat="42.7288570" lon="0.0927340">
        <ele>1984.0</ele>
        <time>2020-07-26T11:27:28Z</time>
      </trkpt>
      <trkpt lat="42.7288410" lon="0.0928660">
        <ele>1985.0</ele>
        <time>2020-07-26T11:27:34Z</time>
      </trkpt>
      <trkpt lat="42.7288390" lon="0.0928910">
        <ele>1985.2</ele>
        <time>2020-07-26T11:27:35Z</time>
      </trkpt>
      <trkpt lat="42.7288300" lon="0.0929910">
        <ele>1986.0</ele>
        <time>2020-07-26T11:27:39Z</time>
      </trkpt>
      <trkpt lat="42.7288120" lon="0.0931020">
        <ele>1986.8</ele>
        <time>2020-07-26T11:27:43Z</time>
      </trkpt>
      <trkpt lat="42.7288000" lon="0.0931580">
        <ele>1987.0</ele>
        <time>2020-07-26T11:27:45Z</time>
      </trkpt>
      <trkpt lat="42.7287800" lon="0.0932390">
        <ele>1987.2</ele>
        <time>2020-07-26T11:27:48Z</time>
      </trkpt>
      <trkpt lat="42.7287710" lon="0.0932930">
        <ele>1987.8</ele>
        <time>2020-07-26T11:27:50Z</time>
      </trkpt>
      <trkpt lat="42.7287640" lon="0.0933200">
        <ele>1988.0</ele>
        <time>2020-07-26T11:27:51Z</time>
      </trkpt>
      <trkpt lat="42.7287580" lon="0.0933460">
        <ele>1988.4</ele>
        <time>2020-07-26T11:27:52Z</time>
      </trkpt>
      <trkpt lat="42.7287370" lon="0.0934230">
        <ele>1988.8</ele>
        <time>2020-07-26T11:27:55Z</time>
      </trkpt>
      <trkpt lat="42.7287220" lon="0.0934740">
        <ele>1989.2</ele>
        <time>2020-07-26T11:27:57Z</time>
      </trkpt>
      <trkpt lat="42.7287030" lon="0.0935260">
        <ele>1989.4</ele>
        <time>2020-07-26T11:27:59Z</time>
      </trkpt>
      <trkpt lat="42.7286950" lon="0.0935490">
        <ele>1989.4</ele>
        <time>2020-07-26T11:28:00Z</time>
      </trkpt>
      <trkpt lat="42.7286610" lon="0.0936460">
        <ele>1990.6</ele>
        <time>2020-07-26T11:28:04Z</time>
      </trkpt>
      <trkpt lat="42.7286280" lon="0.0936990">
        <ele>1990.8</ele>
        <time>2020-07-26T11:28:06Z</time>
      </trkpt>
      <trkpt lat="42.7285740" lon="0.0938370">
        <ele>1991.6</ele>
        <time>2020-07-26T11:28:10Z</time>
      </trkpt>
      <trkpt lat="42.7285330" lon="0.0939260">
        <ele>1992.4</ele>
        <time>2020-07-26T11:28:13Z</time>
      </trkpt>
      <trkpt lat="42.7285060" lon="0.0939810">
        <ele>1993.0</ele>
        <time>2020-07-26T11:28:15Z</time>
      </trkpt>
      <trkpt lat="42.7284430" lon="0.0940970">
        <ele>1994.2</ele>
        <time>2020-07-26T11:28:19Z</time>
      </trkpt>
      <trkpt lat="42.7284100" lon="0.0941560">
        <ele>1994.8</ele>
        <time>2020-07-26T11:28:21Z</time>
      </trkpt>
      <trkpt lat="42.7283800" lon="0.0942190">
        <ele>1995.4</ele>
        <time>2020-07-26T11:28:23Z</time>
      </trkpt>
      <trkpt lat="42.7283300" lon="0.0943550">
        <ele>1996.6</ele>
        <time>2020-07-26T11:28:27Z</time>
      </trkpt>
      <trkpt lat="42.7283210" lon="0.0943940">
        <ele>1997.0</ele>
        <time>2020-07-26T11:28:28Z</time>
      </trkpt>
      <trkpt lat="42.7282780" lon="0.0945320">
        <ele>1997.8</ele>
        <time>2020-07-26T11:28:32Z</time>
      </trkpt>
      <trkpt lat="42.7282680" lon="0.0945660">
        <ele>1998.0</ele>
        <time>2020-07-26T11:28:33Z</time>
      </trkpt>
      <trkpt lat="42.7282580" lon="0.0946000">
        <ele>1998.2</ele>
        <time>2020-07-26T11:28:34Z</time>
      </trkpt>
      <trkpt lat="42.7282230" lon="0.0947010">
        <ele>1998.8</ele>
        <time>2020-07-26T11:28:37Z</time>
      </trkpt>
      <trkpt lat="42.7282100" lon="0.0947330">
        <ele>1999.0</ele>
        <time>2020-07-26T11:28:38Z</time>
      </trkpt>
      <trkpt lat="42.7281410" lon="0.0948810">
        <ele>2000.0</ele>
        <time>2020-07-26T11:28:43Z</time>
      </trkpt>
      <trkpt lat="42.7281060" lon="0.0949560">
        <ele>2000.6</ele>
        <time>2020-07-26T11:28:46Z</time>
      </trkpt>
      <trkpt lat="42.7280810" lon="0.0950100">
        <ele>2001.0</ele>
        <time>2020-07-26T11:28:48Z</time>
      </trkpt>
      <trkpt lat="42.7280670" lon="0.0950380">
        <ele>2001.2</ele>
        <time>2020-07-26T11:28:49Z</time>
      </trkpt>
      <trkpt lat="42.7280090" lon="0.0951360">
        <ele>2002.4</ele>
        <time>2020-07-26T11:28:53Z</time>
      </trkpt>
      <trkpt lat="42.7279410" lon="0.0952530">
        <ele>2003.8</ele>
        <time>2020-07-26T11:28:57Z</time>
      </trkpt>
      <trkpt lat="42.7279100" lon="0.0953200">
        <ele>2004.6</ele>
        <time>2020-07-26T11:28:59Z</time>
      </trkpt>
      <trkpt lat="42.7278910" lon="0.0953750">
        <ele>2005.0</ele>
        <time>2020-07-26T11:29:01Z</time>
      </trkpt>
      <trkpt lat="42.7278770" lon="0.0954440">
        <ele>2005.6</ele>
        <time>2020-07-26T11:29:04Z</time>
      </trkpt>
      <trkpt lat="42.7279680" lon="0.0954370">
        <ele>2006.0</ele>
        <time>2020-07-26T11:46:21Z</time>
      </trkpt>
      <trkpt lat="42.7279660" lon="0.0954370">
        <ele>2006.0</ele>
        <time>2020-07-26T11:46:22Z</time>
      </trkpt>
      <trkpt lat="42.7279630" lon="0.0954410">
        <ele>2006.0</ele>
        <time>2020-07-26T11:46:24Z</time>
      </trkpt>
      <trkpt lat="42.7279440" lon="0.0954180">
        <ele>2005.8</ele>
        <time>2020-07-26T11:46:27Z</time>
      </trkpt>
      <trkpt lat="42.7279380" lon="0.0953740">
        <ele>2005.8</ele>
        <time>2020-07-26T11:46:29Z</time>
      </trkpt>
      <trkpt lat="42.7279420" lon="0.0953420">
        <ele>2006.0</ele>
        <time>2020-07-26T11:46:30Z</time>
      </trkpt>
      <trkpt lat="42.7279530" lon="0.0953060">
        <ele>2006.0</ele>
        <time>2020-07-26T11:46:31Z</time>
      </trkpt>
      <trkpt lat="42.7279680" lon="0.0952680">
        <ele>2006.0</ele>
        <time>2020-07-26T11:46:32Z</time>
      </trkpt>
      <trkpt lat="42.7279880" lon="0.0952270">
        <ele>2006.0</ele>
        <time>2020-07-26T11:46:33Z</time>
      </trkpt>
      <trkpt lat="42.7280130" lon="0.0951820">
        <ele>2005.8</ele>
        <time>2020-07-26T11:46:34Z</time>
      </trkpt>
      <trkpt lat="42.7281080" lon="0.0950030">
        <ele>2005.6</ele>
        <time>2020-07-26T11:46:37Z</time>
      </trkpt>
      <trkpt lat="42.7282520" lon="0.0946580">
        <ele>2003.8</ele>
        <time>2020-07-26T11:46:41Z</time>
      </trkpt>
      <trkpt lat="42.7282850" lon="0.0945640">
        <ele>2003.2</ele>
        <time>2020-07-26T11:46:42Z</time>
      </trkpt>
      <trkpt lat="42.7283170" lon="0.0944700">
        <ele>2002.2</ele>
        <time>2020-07-26T11:46:43Z</time>
      </trkpt>
      <trkpt lat="42.7283480" lon="0.0943770">
        <ele>2000.4</ele>
        <time>2020-07-26T11:46:44Z</time>
      </trkpt>
      <trkpt lat="42.7283790" lon="0.0942870">
        <ele>1998.4</ele>
        <time>2020-07-26T11:46:45Z</time>
      </trkpt>
      <trkpt lat="42.7284130" lon="0.0941990">
        <ele>1997.0</ele>
        <time>2020-07-26T11:46:46Z</time>
      </trkpt>
      <trkpt lat="42.7284850" lon="0.0940330">
        <ele>1995.6</ele>
        <time>2020-07-26T11:46:48Z</time>
      </trkpt>
      <trkpt lat="42.7285210" lon="0.0939630">
        <ele>1995.0</ele>
        <time>2020-07-26T11:46:49Z</time>
      </trkpt>
      <trkpt lat="42.7285580" lon="0.0938960">
        <ele>1994.4</ele>
        <time>2020-07-26T11:46:50Z</time>
      </trkpt>
      <trkpt lat="42.7286700" lon="0.0936630">
        <ele>1992.6</ele>
        <time>2020-07-26T11:46:53Z</time>
      </trkpt>
      <trkpt lat="42.7287050" lon="0.0935790">
        <ele>1991.6</ele>
        <time>2020-07-26T11:46:54Z</time>
      </trkpt>
      <trkpt lat="42.7287360" lon="0.0934940">
        <ele>1990.8</ele>
        <time>2020-07-26T11:46:55Z</time>
      </trkpt>
      <trkpt lat="42.7287650" lon="0.0934120">
        <ele>1989.6</ele>
        <time>2020-07-26T11:46:56Z</time>
      </trkpt>
      <trkpt lat="42.7288140" lon="0.0932520">
        <ele>1988.0</ele>
        <time>2020-07-26T11:46:58Z</time>
      </trkpt>
      <trkpt lat="42.7288500" lon="0.0930840">
        <ele>1987.2</ele>
        <time>2020-07-26T11:47:00Z</time>
      </trkpt>
      <trkpt lat="42.7288620" lon="0.0929970">
        <ele>1986.8</ele>
        <time>2020-07-26T11:47:01Z</time>
      </trkpt>
      <trkpt lat="42.7288820" lon="0.0928140">
        <ele>1985.6</ele>
        <time>2020-07-26T11:47:03Z</time>
      </trkpt>
      <trkpt lat="42.7289120" lon="0.0926140">
        <ele>1984.4</ele>
        <time>2020-07-26T11:47:05Z</time>
      </trkpt>
      <trkpt lat="42.7289480" lon="0.0924160">
        <ele>1982.4</ele>
        <time>2020-07-26T11:47:07Z</time>
      </trkpt>
      <trkpt lat="42.7289720" lon="0.0923290">
        <ele>1981.2</ele>
        <time>2020-07-26T11:47:08Z</time>
      </trkpt>
      <trkpt lat="42.7290270" lon="0.0921730">
        <ele>1979.8</ele>
        <time>2020-07-26T11:47:10Z</time>
      </trkpt>
      <trkpt lat="42.7291370" lon="0.0919150">
        <ele>1978.0</ele>
        <time>2020-07-26T11:47:13Z</time>
      </trkpt>
      <trkpt lat="42.7291750" lon="0.0918290">
        <ele>1977.6</ele>
        <time>2020-07-26T11:47:14Z</time>
      </trkpt>
      <trkpt lat="42.7292080" lon="0.0917480">
        <ele>1977.0</ele>
        <time>2020-07-26T11:47:15Z</time>
      </trkpt>
      <trkpt lat="42.7292290" lon="0.0916720">
        <ele>1976.6</ele>
        <time>2020-07-26T11:47:16Z</time>
      </trkpt>
      <trkpt lat="42.7292340" lon="0.0915990">
        <ele>1976.2</ele>
        <time>2020-07-26T11:47:17Z</time>
      </trkpt>
      <trkpt lat="42.7292270" lon="0.0915270">
        <ele>1975.8</ele>
        <time>2020-07-26T11:47:18Z</time>
      </trkpt>
      <trkpt lat="42.7292080" lon="0.0914550">
        <ele>1975.4</ele>
        <time>2020-07-26T11:47:19Z</time>
      </trkpt>
      <trkpt lat="42.7291760" lon="0.0913790">
        <ele>1975.0</ele>
        <time>2020-07-26T11:47:20Z</time>
      </trkpt>
      <trkpt lat="42.7291450" lon="0.0913030">
        <ele>1974.4</ele>
        <time>2020-07-26T11:47:21Z</time>
      </trkpt>
      <trkpt lat="42.7291040" lon="0.0911750">
        <ele>1973.0</ele>
        <time>2020-07-26T11:47:23Z</time>
      </trkpt>
      <trkpt lat="42.7291330" lon="0.0910940">
        <ele>1972.0</ele>
        <time>2020-07-26T11:47:25Z</time>
      </trkpt>
      <trkpt lat="42.7291720" lon="0.0911080">
        <ele>1971.8</ele>
        <time>2020-07-26T11:47:26Z</time>
      </trkpt>
      <trkpt lat="42.7292160" lon="0.0911480">
        <ele>1971.8</ele>
        <time>2020-07-26T11:47:27Z</time>
      </trkpt>
      <trkpt lat="42.7292610" lon="0.0912070">
        <ele>1971.4</ele>
        <time>2020-07-26T11:47:28Z</time>
      </trkpt>
      <trkpt lat="42.7293730" lon="0.0913270">
        <ele>1970.0</ele>
        <time>2020-07-26T11:47:30Z</time>
      </trkpt>
      <trkpt lat="42.7294320" lon="0.0913680">
        <ele>1969.2</ele>
        <time>2020-07-26T11:47:31Z</time>
      </trkpt>
      <trkpt lat="42.7294900" lon="0.0913870">
        <ele>1968.2</ele>
        <time>2020-07-26T11:47:32Z</time>
      </trkpt>
      <trkpt lat="42.7295860" lon="0.0913420">
        <ele>1967.0</ele>
        <time>2020-07-26T11:47:34Z</time>
      </trkpt>
      <trkpt lat="42.7296140" lon="0.0912000">
        <ele>1966.0</ele>
        <time>2020-07-26T11:47:36Z</time>
      </trkpt>
      <trkpt lat="42.7296090" lon="0.0911070">
        <ele>1965.4</ele>
        <time>2020-07-26T11:47:37Z</time>
      </trkpt>
      <trkpt lat="42.7296060" lon="0.0909110">
        <ele>1964.4</ele>
        <time>2020-07-26T11:47:39Z</time>
      </trkpt>
      <trkpt lat="42.7296360" lon="0.0907460">
        <ele>1962.2</ele>
        <time>2020-07-26T11:47:41Z</time>
      </trkpt>
      <trkpt lat="42.7297270" lon="0.0906320">
        <ele>1960.6</ele>
        <time>2020-07-26T11:47:43Z</time>
      </trkpt>
      <trkpt lat="42.7297870" lon="0.0905810">
        <ele>1959.8</ele>
        <time>2020-07-26T11:47:44Z</time>
      </trkpt>
      <trkpt lat="42.7298520" lon="0.0905290">
        <ele>1958.2</ele>
        <time>2020-07-26T11:47:45Z</time>
      </trkpt>
      <trkpt lat="42.7299140" lon="0.0904810">
        <ele>1956.0</ele>
        <time>2020-07-26T11:47:46Z</time>
      </trkpt>
      <trkpt lat="42.7299720" lon="0.0904380">
        <ele>1954.4</ele>
        <time>2020-07-26T11:47:47Z</time>
      </trkpt>
      <trkpt lat="42.7300850" lon="0.0903400">
        <ele>1953.0</ele>
        <time>2020-07-26T11:47:49Z</time>
      </trkpt>
      <trkpt lat="42.7303400" lon="0.0900760">
        <ele>1954.6</ele>
        <time>2020-07-26T11:47:53Z</time>
      </trkpt>
      <trkpt lat="42.7304130" lon="0.0900060">
        <ele>1954.8</ele>
        <time>2020-07-26T11:47:54Z</time>
      </trkpt>
      <trkpt lat="42.7306780" lon="0.0897350">
        <ele>1953.0</ele>
        <time>2020-07-26T11:47:58Z</time>
      </trkpt>
      <trkpt lat="42.7307330" lon="0.0896770">
        <ele>1951.8</ele>
        <time>2020-07-26T11:47:59Z</time>
      </trkpt>
      <trkpt lat="42.7307860" lon="0.0896260">
        <ele>1950.6</ele>
        <time>2020-07-26T11:48:00Z</time>
      </trkpt>
      <trkpt lat="42.7308390" lon="0.0895870">
        <ele>1949.6</ele>
        <time>2020-07-26T11:48:01Z</time>
      </trkpt>
      <trkpt lat="42.7308930" lon="0.0895590">
        <ele>1948.2</ele>
        <time>2020-07-26T11:48:02Z</time>
      </trkpt>
      <trkpt lat="42.7309460" lon="0.0895410">
        <ele>1947.2</ele>
        <time>2020-07-26T11:48:03Z</time>
      </trkpt>
      <trkpt lat="42.7310370" lon="0.0894960">
        <ele>1945.8</ele>
        <time>2020-07-26T11:48:05Z</time>
      </trkpt>
      <trkpt lat="42.7310970" lon="0.0894170">
        <ele>1944.4</ele>
        <time>2020-07-26T11:48:07Z</time>
      </trkpt>
      <trkpt lat="42.7310730" lon="0.0893720">
        <ele>1943.8</ele>
        <time>2020-07-26T11:48:08Z</time>
      </trkpt>
      <trkpt lat="42.7310400" lon="0.0893400">
        <ele>1943.2</ele>
        <time>2020-07-26T11:48:09Z</time>
      </trkpt>
      <trkpt lat="42.7310000" lon="0.0893250">
        <ele>1942.6</ele>
        <time>2020-07-26T11:48:10Z</time>
      </trkpt>
      <trkpt lat="42.7309070" lon="0.0893320">
        <ele>1942.0</ele>
        <time>2020-07-26T11:48:12Z</time>
      </trkpt>
      <trkpt lat="42.7306490" lon="0.0893940">
        <ele>1940.6</ele>
        <time>2020-07-26T11:48:16Z</time>
      </trkpt>
      <trkpt lat="42.7304780" lon="0.0894380">
        <ele>1939.6</ele>
        <time>2020-07-26T11:48:18Z</time>
      </trkpt>
      <trkpt lat="42.7302330" lon="0.0894930">
        <ele>1938.4</ele>
        <time>2020-07-26T11:48:21Z</time>
      </trkpt>
      <trkpt lat="42.7300680" lon="0.0895350">
        <ele>1937.4</ele>
        <time>2020-07-26T11:48:23Z</time>
      </trkpt>
      <trkpt lat="42.7299110" lon="0.0895780">
        <ele>1935.4</ele>
        <time>2020-07-26T11:48:25Z</time>
      </trkpt>
      <trkpt lat="42.7297870" lon="0.0896290">
        <ele>1934.2</ele>
        <time>2020-07-26T11:48:27Z</time>
      </trkpt>
      <trkpt lat="42.7297360" lon="0.0896450">
        <ele>1933.6</ele>
        <time>2020-07-26T11:48:28Z</time>
      </trkpt>
      <trkpt lat="42.7296940" lon="0.0896380">
        <ele>1932.8</ele>
        <time>2020-07-26T11:48:29Z</time>
      </trkpt>
      <trkpt lat="42.7296680" lon="0.0896030">
        <ele>1932.4</ele>
        <time>2020-07-26T11:48:30Z</time>
      </trkpt>
      <trkpt lat="42.7296750" lon="0.0895050">
        <ele>1931.8</ele>
        <time>2020-07-26T11:48:32Z</time>
      </trkpt>
      <trkpt lat="42.7297140" lon="0.0894750">
        <ele>1931.8</ele>
        <time>2020-07-26T11:48:33Z</time>
      </trkpt>
      <trkpt lat="42.7297720" lon="0.0894510">
        <ele>1931.6</ele>
        <time>2020-07-26T11:48:34Z</time>
      </trkpt>
      <trkpt lat="42.7299360" lon="0.0893660">
        <ele>1930.8</ele>
        <time>2020-07-26T11:48:36Z</time>
      </trkpt>
      <trkpt lat="42.7301870" lon="0.0891790">
        <ele>1929.6</ele>
        <time>2020-07-26T11:48:39Z</time>
      </trkpt>
      <trkpt lat="42.7302760" lon="0.0891140">
        <ele>1929.0</ele>
        <time>2020-07-26T11:48:40Z</time>
      </trkpt>
      <trkpt lat="42.7303620" lon="0.0890460">
        <ele>1928.4</ele>
        <time>2020-07-26T11:48:41Z</time>
      </trkpt>
      <trkpt lat="42.7305180" lon="0.0889240">
        <ele>1926.8</ele>
        <time>2020-07-26T11:48:43Z</time>
      </trkpt>
      <trkpt lat="42.7305900" lon="0.0888760">
        <ele>1925.6</ele>
        <time>2020-07-26T11:48:44Z</time>
      </trkpt>
      <trkpt lat="42.7306590" lon="0.0888390">
        <ele>1924.2</ele>
        <time>2020-07-26T11:48:45Z</time>
      </trkpt>
      <trkpt lat="42.7307250" lon="0.0888160">
        <ele>1923.0</ele>
        <time>2020-07-26T11:48:46Z</time>
      </trkpt>
      <trkpt lat="42.7307900" lon="0.0888150">
        <ele>1921.8</ele>
        <time>2020-07-26T11:48:47Z</time>
      </trkpt>
      <trkpt lat="42.7308560" lon="0.0888290">
        <ele>1920.6</ele>
        <time>2020-07-26T11:48:48Z</time>
      </trkpt>
      <trkpt lat="42.7309190" lon="0.0888420">
        <ele>1919.4</ele>
        <time>2020-07-26T11:48:49Z</time>
      </trkpt>
      <trkpt lat="42.7309750" lon="0.0888380">
        <ele>1918.4</ele>
        <time>2020-07-26T11:48:50Z</time>
      </trkpt>
      <trkpt lat="42.7310160" lon="0.0888170">
        <ele>1917.8</ele>
        <time>2020-07-26T11:48:51Z</time>
      </trkpt>
      <trkpt lat="42.7310160" lon="0.0887420">
        <ele>1916.0</ele>
        <time>2020-07-26T11:48:53Z</time>
      </trkpt>
      <trkpt lat="42.7309770" lon="0.0887100">
        <ele>1915.2</ele>
        <time>2020-07-26T11:48:54Z</time>
      </trkpt>
      <trkpt lat="42.7309220" lon="0.0886920">
        <ele>1914.8</ele>
        <time>2020-07-26T11:48:55Z</time>
      </trkpt>
      <trkpt lat="42.7307810" lon="0.0886580">
        <ele>1914.0</ele>
        <time>2020-07-26T11:48:57Z</time>
      </trkpt>
      <trkpt lat="42.7307080" lon="0.0886380">
        <ele>1913.4</ele>
        <time>2020-07-26T11:48:58Z</time>
      </trkpt>
      <trkpt lat="42.7305530" lon="0.0886240">
        <ele>1912.6</ele>
        <time>2020-07-26T11:49:00Z</time>
      </trkpt>
      <trkpt lat="42.7304730" lon="0.0886350">
        <ele>1912.2</ele>
        <time>2020-07-26T11:49:01Z</time>
      </trkpt>
      <trkpt lat="42.7303900" lon="0.0886530">
        <ele>1911.6</ele>
        <time>2020-07-26T11:49:02Z</time>
      </trkpt>
      <trkpt lat="42.7303050" lon="0.0886740">
        <ele>1910.6</ele>
        <time>2020-07-26T11:49:03Z</time>
      </trkpt>
      <trkpt lat="42.7301400" lon="0.0887050">
        <ele>1909.0</ele>
        <time>2020-07-26T11:49:05Z</time>
      </trkpt>
      <trkpt lat="42.7299910" lon="0.0887190">
        <ele>1907.4</ele>
        <time>2020-07-26T11:49:07Z</time>
      </trkpt>
      <trkpt lat="42.7299180" lon="0.0887170">
        <ele>1906.8</ele>
        <time>2020-07-26T11:49:08Z</time>
      </trkpt>
      <trkpt lat="42.7298440" lon="0.0887110">
        <ele>1906.0</ele>
        <time>2020-07-26T11:49:09Z</time>
      </trkpt>
      <trkpt lat="42.7297730" lon="0.0887010">
        <ele>1905.0</ele>
        <time>2020-07-26T11:49:10Z</time>
      </trkpt>
      <trkpt lat="42.7297050" lon="0.0886940">
        <ele>1903.4</ele>
        <time>2020-07-26T11:49:11Z</time>
      </trkpt>
      <trkpt lat="42.7296380" lon="0.0886900">
        <ele>1902.0</ele>
        <time>2020-07-26T11:49:12Z</time>
      </trkpt>
      <trkpt lat="42.7295710" lon="0.0886880">
        <ele>1900.8</ele>
        <time>2020-07-26T11:49:13Z</time>
      </trkpt>
      <trkpt lat="42.7294370" lon="0.0886690">
        <ele>1899.6</ele>
        <time>2020-07-26T11:49:15Z</time>
      </trkpt>
      <trkpt lat="42.7293040" lon="0.0886270">
        <ele>1898.4</ele>
        <time>2020-07-26T11:49:17Z</time>
      </trkpt>
      <trkpt lat="42.7292370" lon="0.0886080">
        <ele>1897.6</ele>
        <time>2020-07-26T11:49:18Z</time>
      </trkpt>
      <trkpt lat="42.7291680" lon="0.0885940">
        <ele>1897.0</ele>
        <time>2020-07-26T11:49:19Z</time>
      </trkpt>
      <trkpt lat="42.7290260" lon="0.0885690">
        <ele>1895.4</ele>
        <time>2020-07-26T11:49:21Z</time>
      </trkpt>
      <trkpt lat="42.7289580" lon="0.0885490">
        <ele>1894.8</ele>
        <time>2020-07-26T11:49:22Z</time>
      </trkpt>
      <trkpt lat="42.7288950" lon="0.0885170">
        <ele>1894.4</ele>
        <time>2020-07-26T11:49:23Z</time>
      </trkpt>
      <trkpt lat="42.7288370" lon="0.0884690">
        <ele>1894.0</ele>
        <time>2020-07-26T11:49:24Z</time>
      </trkpt>
      <trkpt lat="42.7287900" lon="0.0884060">
        <ele>1893.8</ele>
        <time>2020-07-26T11:49:25Z</time>
      </trkpt>
      <trkpt lat="42.7287510" lon="0.0883310">
        <ele>1893.0</ele>
        <time>2020-07-26T11:49:26Z</time>
      </trkpt>
      <trkpt lat="42.7287180" lon="0.0882600">
        <ele>1891.6</ele>
        <time>2020-07-26T11:49:27Z</time>
      </trkpt>
      <trkpt lat="42.7286960" lon="0.0881950">
        <ele>1890.4</ele>
        <time>2020-07-26T11:49:28Z</time>
      </trkpt>
      <trkpt lat="42.7286890" lon="0.0881380">
        <ele>1889.6</ele>
        <time>2020-07-26T11:49:29Z</time>
      </trkpt>
      <trkpt lat="42.7287140" lon="0.0881010">
        <ele>1889.2</ele>
        <time>2020-07-26T11:49:30Z</time>
      </trkpt>
      <trkpt lat="42.7287540" lon="0.0880990">
        <ele>1889.0</ele>
        <time>2020-07-26T11:49:31Z</time>
      </trkpt>
      <trkpt lat="42.7288640" lon="0.0881870">
        <ele>1888.2</ele>
        <time>2020-07-26T11:49:33Z</time>
      </trkpt>
      <trkpt lat="42.7289810" lon="0.0882830">
        <ele>1887.4</ele>
        <time>2020-07-26T11:49:35Z</time>
      </trkpt>
      <trkpt lat="42.7291370" lon="0.0883030">
        <ele>1887.0</ele>
        <time>2020-07-26T11:49:37Z</time>
      </trkpt>
      <trkpt lat="42.7294080" lon="0.0882500">
        <ele>1885.8</ele>
        <time>2020-07-26T11:49:40Z</time>
      </trkpt>
      <trkpt lat="42.7294970" lon="0.0882270">
        <ele>1885.2</ele>
        <time>2020-07-26T11:49:41Z</time>
      </trkpt>
      <trkpt lat="42.7296600" lon="0.0882060">
        <ele>1884.0</ele>
        <time>2020-07-26T11:49:43Z</time>
      </trkpt>
      <trkpt lat="42.7297330" lon="0.0882120">
        <ele>1882.8</ele>
        <time>2020-07-26T11:49:44Z</time>
      </trkpt>
      <trkpt lat="42.7298030" lon="0.0882230">
        <ele>1881.6</ele>
        <time>2020-07-26T11:49:45Z</time>
      </trkpt>
      <trkpt lat="42.7298650" lon="0.0882220">
        <ele>1880.0</ele>
        <time>2020-07-26T11:49:46Z</time>
      </trkpt>
      <trkpt lat="42.7299120" lon="0.0882060">
        <ele>1878.6</ele>
        <time>2020-07-26T11:49:47Z</time>
      </trkpt>
      <trkpt lat="42.7299370" lon="0.0881650">
        <ele>1877.8</ele>
        <time>2020-07-26T11:49:48Z</time>
      </trkpt>
      <trkpt lat="42.7299410" lon="0.0881120">
        <ele>1877.0</ele>
        <time>2020-07-26T11:49:49Z</time>
      </trkpt>
      <trkpt lat="42.7299060" lon="0.0880630">
        <ele>1876.6</ele>
        <time>2020-07-26T11:49:50Z</time>
      </trkpt>
      <trkpt lat="42.7298560" lon="0.0880330">
        <ele>1876.2</ele>
        <time>2020-07-26T11:49:51Z</time>
      </trkpt>
      <trkpt lat="42.7297990" lon="0.0880160">
        <ele>1875.8</ele>
        <time>2020-07-26T11:49:52Z</time>
      </trkpt>
      <trkpt lat="42.7296720" lon="0.0879650">
        <ele>1875.4</ele>
        <time>2020-07-26T11:49:54Z</time>
      </trkpt>
      <trkpt lat="42.7295330" lon="0.0878800">
        <ele>1874.4</ele>
        <time>2020-07-26T11:49:56Z</time>
      </trkpt>
      <trkpt lat="42.7294630" lon="0.0878250">
        <ele>1874.0</ele>
        <time>2020-07-26T11:49:57Z</time>
      </trkpt>
      <trkpt lat="42.7293960" lon="0.0877620">
        <ele>1873.4</ele>
        <time>2020-07-26T11:49:58Z</time>
      </trkpt>
      <trkpt lat="42.7293340" lon="0.0876880">
        <ele>1873.2</ele>
        <time>2020-07-26T11:49:59Z</time>
      </trkpt>
      <trkpt lat="42.7292410" lon="0.0875100">
        <ele>1872.0</ele>
        <time>2020-07-26T11:50:01Z</time>
      </trkpt>
      <trkpt lat="42.7292060" lon="0.0874150">
        <ele>1871.0</ele>
        <time>2020-07-26T11:50:02Z</time>
      </trkpt>
      <trkpt lat="42.7291760" lon="0.0873140">
        <ele>1869.8</ele>
        <time>2020-07-26T11:50:03Z</time>
      </trkpt>
      <trkpt lat="42.7291390" lon="0.0872220">
        <ele>1868.8</ele>
        <time>2020-07-26T11:50:04Z</time>
      </trkpt>
      <trkpt lat="42.7290880" lon="0.0871440">
        <ele>1867.6</ele>
        <time>2020-07-26T11:50:05Z</time>
      </trkpt>
      <trkpt lat="42.7290420" lon="0.0870930">
        <ele>1866.6</ele>
        <time>2020-07-26T11:50:06Z</time>
      </trkpt>
      <trkpt lat="42.7290050" lon="0.0870470">
        <ele>1866.0</ele>
        <time>2020-07-26T11:50:07Z</time>
      </trkpt>
      <trkpt lat="42.7289930" lon="0.0869460">
        <ele>1864.2</ele>
        <time>2020-07-26T11:50:09Z</time>
      </trkpt>
      <trkpt lat="42.7290690" lon="0.0869270">
        <ele>1863.6</ele>
        <time>2020-07-26T11:50:11Z</time>
      </trkpt>
      <trkpt lat="42.7291210" lon="0.0869470">
        <ele>1863.4</ele>
        <time>2020-07-26T11:50:12Z</time>
      </trkpt>
      <trkpt lat="42.7291810" lon="0.0869870">
        <ele>1863.2</ele>
        <time>2020-07-26T11:50:13Z</time>
      </trkpt>
      <trkpt lat="42.7292380" lon="0.0870420">
        <ele>1862.8</ele>
        <time>2020-07-26T11:50:14Z</time>
      </trkpt>
      <trkpt lat="42.7292950" lon="0.0871110">
        <ele>1862.0</ele>
        <time>2020-07-26T11:50:15Z</time>
      </trkpt>
      <trkpt lat="42.7294210" lon="0.0872630">
        <ele>1860.8</ele>
        <time>2020-07-26T11:50:17Z</time>
      </trkpt>
      <trkpt lat="42.7294920" lon="0.0873290">
        <ele>1860.6</ele>
        <time>2020-07-26T11:50:18Z</time>
      </trkpt>
      <trkpt lat="42.7296280" lon="0.0874210">
        <ele>1859.4</ele>
        <time>2020-07-26T11:50:20Z</time>
      </trkpt>
      <trkpt lat="42.7298110" lon="0.0874940">
        <ele>1857.4</ele>
        <time>2020-07-26T11:50:22Z</time>
      </trkpt>
      <trkpt lat="42.7298490" lon="0.0874790">
        <ele>1856.4</ele>
        <time>2020-07-26T11:50:23Z</time>
      </trkpt>
      <trkpt lat="42.7298790" lon="0.0874440">
        <ele>1855.4</ele>
        <time>2020-07-26T11:50:24Z</time>
      </trkpt>
      <trkpt lat="42.7298790" lon="0.0874440">
        <ele>1854.6</ele>
        <time>2020-07-26T11:50:25Z</time>
      </trkpt>
      <trkpt lat="42.7298560" lon="0.0873870">
        <ele>1854.2</ele>
        <time>2020-07-26T11:50:26Z</time>
      </trkpt>
      <trkpt lat="42.7298260" lon="0.0873340">
        <ele>1853.8</ele>
        <time>2020-07-26T11:50:27Z</time>
      </trkpt>
      <trkpt lat="42.7297800" lon="0.0872840">
        <ele>1853.8</ele>
        <time>2020-07-26T11:50:28Z</time>
      </trkpt>
      <trkpt lat="42.7297330" lon="0.0872240">
        <ele>1853.4</ele>
        <time>2020-07-26T11:50:29Z</time>
      </trkpt>
      <trkpt lat="42.7296700" lon="0.0870580">
        <ele>1853.0</ele>
        <time>2020-07-26T11:50:30Z</time>
      </trkpt>
      <trkpt lat="42.7296420" lon="0.0869720">
        <ele>1852.0</ele>
        <time>2020-07-26T11:50:32Z</time>
      </trkpt>
      <trkpt lat="42.7295780" lon="0.0868290">
        <ele>1851.0</ele>
        <time>2020-07-26T11:50:33Z</time>
      </trkpt>
      <trkpt lat="42.7295780" lon="0.0868290">
        <ele>1850.2</ele>
        <time>2020-07-26T11:50:34Z</time>
      </trkpt>
      <trkpt lat="42.7295280" lon="0.0867450">
        <ele>1849.4</ele>
        <time>2020-07-26T11:50:35Z</time>
      </trkpt>
      <trkpt lat="42.7295130" lon="0.0867180">
        <ele>1848.8</ele>
        <time>2020-07-26T11:50:36Z</time>
      </trkpt>
      <trkpt lat="42.7294990" lon="0.0866630">
        <ele>1848.2</ele>
        <time>2020-07-26T11:50:37Z</time>
      </trkpt>
      <trkpt lat="42.7294970" lon="0.0866090">
        <ele>1847.8</ele>
        <time>2020-07-26T11:50:38Z</time>
      </trkpt>
      <trkpt lat="42.7295200" lon="0.0865750">
        <ele>1847.6</ele>
        <time>2020-07-26T11:50:39Z</time>
      </trkpt>
      <trkpt lat="42.7296160" lon="0.0865740">
        <ele>1847.2</ele>
        <time>2020-07-26T11:50:41Z</time>
      </trkpt>
      <trkpt lat="42.7298340" lon="0.0866120">
        <ele>1846.4</ele>
        <time>2020-07-26T11:50:44Z</time>
      </trkpt>
      <trkpt lat="42.7299030" lon="0.0866250">
        <ele>1845.8</ele>
        <time>2020-07-26T11:50:45Z</time>
      </trkpt>
      <trkpt lat="42.7300070" lon="0.0867000">
        <ele>1844.4</ele>
        <time>2020-07-26T11:50:47Z</time>
      </trkpt>
      <trkpt lat="42.7300360" lon="0.0867750">
        <ele>1843.0</ele>
        <time>2020-07-26T11:50:48Z</time>
      </trkpt>
      <trkpt lat="42.7300540" lon="0.0868630">
        <ele>1841.4</ele>
        <time>2020-07-26T11:50:49Z</time>
      </trkpt>
      <trkpt lat="42.7300740" lon="0.0870500">
        <ele>1840.0</ele>
        <time>2020-07-26T11:50:51Z</time>
      </trkpt>
      <trkpt lat="42.7301650" lon="0.0871960">
        <ele>1839.6</ele>
        <time>2020-07-26T11:50:53Z</time>
      </trkpt>
      <trkpt lat="42.7302240" lon="0.0872440">
        <ele>1839.6</ele>
        <time>2020-07-26T11:50:54Z</time>
      </trkpt>
      <trkpt lat="42.7302860" lon="0.0872830">
        <ele>1839.6</ele>
        <time>2020-07-26T11:50:55Z</time>
      </trkpt>
      <trkpt lat="42.7305600" lon="0.0874270">
        <ele>1838.8</ele>
        <time>2020-07-26T11:50:58Z</time>
      </trkpt>
      <trkpt lat="42.7306780" lon="0.0874760">
        <ele>1837.4</ele>
        <time>2020-07-26T11:51:00Z</time>
      </trkpt>
      <trkpt lat="42.7307040" lon="0.0874690">
        <ele>1836.2</ele>
        <time>2020-07-26T11:51:01Z</time>
      </trkpt>
      <trkpt lat="42.7307290" lon="0.0874620">
        <ele>1834.6</ele>
        <time>2020-07-26T11:51:02Z</time>
      </trkpt>
      <trkpt lat="42.7307830" lon="0.0874240">
        <ele>1833.0</ele>
        <time>2020-07-26T11:51:03Z</time>
      </trkpt>
      <trkpt lat="42.7307900" lon="0.0873650">
        <ele>1831.8</ele>
        <time>2020-07-26T11:51:04Z</time>
      </trkpt>
      <trkpt lat="42.7307730" lon="0.0872920">
        <ele>1831.2</ele>
        <time>2020-07-26T11:51:05Z</time>
      </trkpt>
      <trkpt lat="42.7307440" lon="0.0872160">
        <ele>1830.6</ele>
        <time>2020-07-26T11:51:06Z</time>
      </trkpt>
      <trkpt lat="42.7307280" lon="0.0871410">
        <ele>1830.0</ele>
        <time>2020-07-26T11:51:07Z</time>
      </trkpt>
      <trkpt lat="42.7307240" lon="0.0870720">
        <ele>1829.4</ele>
        <time>2020-07-26T11:51:08Z</time>
      </trkpt>
      <trkpt lat="42.7307500" lon="0.0870230">
        <ele>1828.8</ele>
        <time>2020-07-26T11:51:09Z</time>
      </trkpt>
      <trkpt lat="42.7307880" lon="0.0870050">
        <ele>1828.2</ele>
        <time>2020-07-26T11:51:10Z</time>
      </trkpt>
      <trkpt lat="42.7309770" lon="0.0870780">
        <ele>1827.4</ele>
        <time>2020-07-26T11:51:13Z</time>
      </trkpt>
      <trkpt lat="42.7311080" lon="0.0871270">
        <ele>1827.2</ele>
        <time>2020-07-26T11:51:15Z</time>
      </trkpt>
      <trkpt lat="42.7311660" lon="0.0871410">
        <ele>1826.8</ele>
        <time>2020-07-26T11:51:16Z</time>
      </trkpt>
      <trkpt lat="42.7312130" lon="0.0871480">
        <ele>1825.6</ele>
        <time>2020-07-26T11:51:17Z</time>
      </trkpt>
      <trkpt lat="42.7312550" lon="0.0871560">
        <ele>1824.4</ele>
        <time>2020-07-26T11:51:18Z</time>
      </trkpt>
      <trkpt lat="42.7312950" lon="0.0871710">
        <ele>1823.4</ele>
        <time>2020-07-26T11:51:19Z</time>
      </trkpt>
      <trkpt lat="42.7313340" lon="0.0871980">
        <ele>1822.8</ele>
        <time>2020-07-26T11:51:20Z</time>
      </trkpt>
      <trkpt lat="42.7313760" lon="0.0872350">
        <ele>1822.4</ele>
        <time>2020-07-26T11:51:21Z</time>
      </trkpt>
      <trkpt lat="42.7314200" lon="0.0872850">
        <ele>1822.2</ele>
        <time>2020-07-26T11:51:22Z</time>
      </trkpt>
      <trkpt lat="42.7314660" lon="0.0873460">
        <ele>1821.6</ele>
        <time>2020-07-26T11:51:23Z</time>
      </trkpt>
      <trkpt lat="42.7315600" lon="0.0875080">
        <ele>1820.8</ele>
        <time>2020-07-26T11:51:25Z</time>
      </trkpt>
      <trkpt lat="42.7316080" lon="0.0875910">
        <ele>1820.6</ele>
        <time>2020-07-26T11:51:26Z</time>
      </trkpt>
      <trkpt lat="42.7316590" lon="0.0876650">
        <ele>1820.4</ele>
        <time>2020-07-26T11:51:27Z</time>
      </trkpt>
      <trkpt lat="42.7317860" lon="0.0877790">
        <ele>1819.4</ele>
        <time>2020-07-26T11:51:29Z</time>
      </trkpt>
      <trkpt lat="42.7318590" lon="0.0878230">
        <ele>1818.8</ele>
        <time>2020-07-26T11:51:30Z</time>
      </trkpt>
      <trkpt lat="42.7319310" lon="0.0878560">
        <ele>1818.2</ele>
        <time>2020-07-26T11:51:31Z</time>
      </trkpt>
      <trkpt lat="42.7320710" lon="0.0879010">
        <ele>1816.4</ele>
        <time>2020-07-26T11:51:33Z</time>
      </trkpt>
      <trkpt lat="42.7322120" lon="0.0879510">
        <ele>1815.0</ele>
        <time>2020-07-26T11:51:35Z</time>
      </trkpt>
      <trkpt lat="42.7323520" lon="0.0880530">
        <ele>1813.0</ele>
        <time>2020-07-26T11:51:37Z</time>
      </trkpt>
      <trkpt lat="42.7324080" lon="0.0881110">
        <ele>1811.6</ele>
        <time>2020-07-26T11:51:38Z</time>
      </trkpt>
      <trkpt lat="42.7324540" lon="0.0881640">
        <ele>1810.4</ele>
        <time>2020-07-26T11:51:39Z</time>
      </trkpt>
      <trkpt lat="42.7325570" lon="0.0882490">
        <ele>1808.8</ele>
        <time>2020-07-26T11:51:41Z</time>
      </trkpt>
      <trkpt lat="42.7326080" lon="0.0882870">
        <ele>1807.8</ele>
        <time>2020-07-26T11:51:42Z</time>
      </trkpt>
      <trkpt lat="42.7326600" lon="0.0883250">
        <ele>1806.6</ele>
        <time>2020-07-26T11:51:43Z</time>
      </trkpt>
      <trkpt lat="42.7327770" lon="0.0884080">
        <ele>1805.4</ele>
        <time>2020-07-26T11:51:45Z</time>
      </trkpt>
      <trkpt lat="42.7328450" lon="0.0884540">
        <ele>1805.2</ele>
        <time>2020-07-26T11:51:46Z</time>
      </trkpt>
      <trkpt lat="42.7331310" lon="0.0886590">
        <ele>1804.2</ele>
        <time>2020-07-26T11:51:50Z</time>
      </trkpt>
      <trkpt lat="42.7332730" lon="0.0887920">
        <ele>1803.6</ele>
        <time>2020-07-26T11:51:52Z</time>
      </trkpt>
      <trkpt lat="42.7333440" lon="0.0888610">
        <ele>1802.8</ele>
        <time>2020-07-26T11:51:53Z</time>
      </trkpt>
      <trkpt lat="42.7334070" lon="0.0889310">
        <ele>1801.8</ele>
        <time>2020-07-26T11:51:54Z</time>
      </trkpt>
      <trkpt lat="42.7334710" lon="0.0889970">
        <ele>1800.4</ele>
        <time>2020-07-26T11:51:55Z</time>
      </trkpt>
      <trkpt lat="42.7335320" lon="0.0890610">
        <ele>1798.6</ele>
        <time>2020-07-26T11:51:56Z</time>
      </trkpt>
      <trkpt lat="42.7335950" lon="0.0891240">
        <ele>1796.8</ele>
        <time>2020-07-26T11:51:57Z</time>
      </trkpt>
      <trkpt lat="42.7336580" lon="0.0891880">
        <ele>1795.8</ele>
        <time>2020-07-26T11:51:58Z</time>
      </trkpt>
      <trkpt lat="42.7337830" lon="0.0893270">
        <ele>1794.6</ele>
        <time>2020-07-26T11:52:00Z</time>
      </trkpt>
      <trkpt lat="42.7338430" lon="0.0893990">
        <ele>1794.2</ele>
        <time>2020-07-26T11:52:01Z</time>
      </trkpt>
      <trkpt lat="42.7339020" lon="0.0894740">
        <ele>1793.8</ele>
        <time>2020-07-26T11:52:02Z</time>
      </trkpt>
      <trkpt lat="42.7339590" lon="0.0895470">
        <ele>1793.4</ele>
        <time>2020-07-26T11:52:03Z</time>
      </trkpt>
      <trkpt lat="42.7340170" lon="0.0896160">
        <ele>1792.8</ele>
        <time>2020-07-26T11:52:04Z</time>
      </trkpt>
      <trkpt lat="42.7340780" lon="0.0896760">
        <ele>1791.4</ele>
        <time>2020-07-26T11:52:05Z</time>
      </trkpt>
      <trkpt lat="42.7341340" lon="0.0897320">
        <ele>1789.8</ele>
        <time>2020-07-26T11:52:06Z</time>
      </trkpt>
      <trkpt lat="42.7341880" lon="0.0897850">
        <ele>1788.2</ele>
        <time>2020-07-26T11:52:07Z</time>
      </trkpt>
      <trkpt lat="42.7342420" lon="0.0898380">
        <ele>1786.8</ele>
        <time>2020-07-26T11:52:08Z</time>
      </trkpt>
      <trkpt lat="42.7342930" lon="0.0898890">
        <ele>1785.8</ele>
        <time>2020-07-26T11:52:09Z</time>
      </trkpt>
      <trkpt lat="42.7343480" lon="0.0899290">
        <ele>1785.0</ele>
        <time>2020-07-26T11:52:10Z</time>
      </trkpt>
      <trkpt lat="42.7344390" lon="0.0899410">
        <ele>1784.4</ele>
        <time>2020-07-26T11:52:11Z</time>
      </trkpt>
      <trkpt lat="42.7344390" lon="0.0899410">
        <ele>1783.8</ele>
        <time>2020-07-26T11:52:12Z</time>
      </trkpt>
      <trkpt lat="42.7344670" lon="0.0899180">
        <ele>1783.2</ele>
        <time>2020-07-26T11:52:13Z</time>
      </trkpt>
      <trkpt lat="42.7344400" lon="0.0898750">
        <ele>1782.6</ele>
        <time>2020-07-26T11:52:14Z</time>
      </trkpt>
      <trkpt lat="42.7344090" lon="0.0898350">
        <ele>1782.2</ele>
        <time>2020-07-26T11:52:15Z</time>
      </trkpt>
      <trkpt lat="42.7343240" lon="0.0897490">
        <ele>1781.6</ele>
        <time>2020-07-26T11:52:16Z</time>
      </trkpt>
      <trkpt lat="42.7342740" lon="0.0897010">
        <ele>1781.0</ele>
        <time>2020-07-26T11:52:18Z</time>
      </trkpt>
      <trkpt lat="42.7342260" lon="0.0896420">
        <ele>1780.6</ele>
        <time>2020-07-26T11:52:19Z</time>
      </trkpt>
      <trkpt lat="42.7341300" lon="0.0894920">
        <ele>1779.8</ele>
        <time>2020-07-26T11:52:21Z</time>
      </trkpt>
      <trkpt lat="42.7340880" lon="0.0894030">
        <ele>1779.4</ele>
        <time>2020-07-26T11:52:22Z</time>
      </trkpt>
      <trkpt lat="42.7340590" lon="0.0893080">
        <ele>1778.6</ele>
        <time>2020-07-26T11:52:23Z</time>
      </trkpt>
      <trkpt lat="42.7339860" lon="0.0891040">
        <ele>1777.6</ele>
        <time>2020-07-26T11:52:25Z</time>
      </trkpt>
      <trkpt lat="42.7339000" lon="0.0889220">
        <ele>1776.2</ele>
        <time>2020-07-26T11:52:27Z</time>
      </trkpt>
      <trkpt lat="42.7338520" lon="0.0887840">
        <ele>1774.6</ele>
        <time>2020-07-26T11:52:29Z</time>
      </trkpt>
      <trkpt lat="42.7338550" lon="0.0887330">
        <ele>1773.6</ele>
        <time>2020-07-26T11:52:30Z</time>
      </trkpt>
      <trkpt lat="42.7338850" lon="0.0887130">
        <ele>1772.8</ele>
        <time>2020-07-26T11:52:31Z</time>
      </trkpt>
      <trkpt lat="42.7339220" lon="0.0887310">
        <ele>1772.2</ele>
        <time>2020-07-26T11:52:32Z</time>
      </trkpt>
      <trkpt lat="42.7339940" lon="0.0888340">
        <ele>1771.6</ele>
        <time>2020-07-26T11:52:34Z</time>
      </trkpt>
      <trkpt lat="42.7340330" lon="0.0889000">
        <ele>1771.8</ele>
        <time>2020-07-26T11:52:35Z</time>
      </trkpt>
      <trkpt lat="42.7340760" lon="0.0889720">
        <ele>1771.6</ele>
        <time>2020-07-26T11:52:36Z</time>
      </trkpt>
      <trkpt lat="42.7341660" lon="0.0891230">
        <ele>1771.2</ele>
        <time>2020-07-26T11:52:38Z</time>
      </trkpt>
      <trkpt lat="42.7342110" lon="0.0891810">
        <ele>1770.8</ele>
        <time>2020-07-26T11:52:39Z</time>
      </trkpt>
      <trkpt lat="42.7342570" lon="0.0892180">
        <ele>1770.0</ele>
        <time>2020-07-26T11:52:40Z</time>
      </trkpt>
      <trkpt lat="42.7343070" lon="0.0892300">
        <ele>1768.8</ele>
        <time>2020-07-26T11:52:41Z</time>
      </trkpt>
      <trkpt lat="42.7343470" lon="0.0892130">
        <ele>1767.6</ele>
        <time>2020-07-26T11:52:42Z</time>
      </trkpt>
      <trkpt lat="42.7343810" lon="0.0891740">
        <ele>1766.6</ele>
        <time>2020-07-26T11:52:43Z</time>
      </trkpt>
      <trkpt lat="42.7344040" lon="0.0891070">
        <ele>1766.0</ele>
        <time>2020-07-26T11:52:44Z</time>
      </trkpt>
      <trkpt lat="42.7344230" lon="0.0890220">
        <ele>1765.4</ele>
        <time>2020-07-26T11:52:45Z</time>
      </trkpt>
      <trkpt lat="42.7344410" lon="0.0889290">
        <ele>1764.8</ele>
        <time>2020-07-26T11:52:46Z</time>
      </trkpt>
      <trkpt lat="42.7344960" lon="0.0887410">
        <ele>1763.8</ele>
        <time>2020-07-26T11:52:48Z</time>
      </trkpt>
      <trkpt lat="42.7345410" lon="0.0886640">
        <ele>1763.4</ele>
        <time>2020-07-26T11:52:49Z</time>
      </trkpt>
      <trkpt lat="42.7345920" lon="0.0886010">
        <ele>1763.0</ele>
        <time>2020-07-26T11:52:50Z</time>
      </trkpt>
      <trkpt lat="42.7347040" lon="0.0884960">
        <ele>1762.4</ele>
        <time>2020-07-26T11:52:52Z</time>
      </trkpt>
      <trkpt lat="42.7347670" lon="0.0884520">
        <ele>1762.0</ele>
        <time>2020-07-26T11:52:53Z</time>
      </trkpt>
      <trkpt lat="42.7348360" lon="0.0884080">
        <ele>1761.6</ele>
        <time>2020-07-26T11:52:54Z</time>
      </trkpt>
      <trkpt lat="42.7349080" lon="0.0883690">
        <ele>1761.2</ele>
        <time>2020-07-26T11:52:55Z</time>
      </trkpt>
      <trkpt lat="42.7349840" lon="0.0883420">
        <ele>1760.6</ele>
        <time>2020-07-26T11:52:56Z</time>
      </trkpt>
      <trkpt lat="42.7350620" lon="0.0883290">
        <ele>1760.2</ele>
        <time>2020-07-26T11:52:57Z</time>
      </trkpt>
      <trkpt lat="42.7353010" lon="0.0882940">
        <ele>1758.8</ele>
        <time>2020-07-26T11:53:00Z</time>
      </trkpt>
      <trkpt lat="42.7354350" lon="0.0882060">
        <ele>1757.0</ele>
        <time>2020-07-26T11:53:02Z</time>
      </trkpt>
      <trkpt lat="42.7354930" lon="0.0881440">
        <ele>1755.8</ele>
        <time>2020-07-26T11:53:03Z</time>
      </trkpt>
      <trkpt lat="42.7355470" lon="0.0880710">
        <ele>1755.2</ele>
        <time>2020-07-26T11:53:04Z</time>
      </trkpt>
      <trkpt lat="42.7356000" lon="0.0879940">
        <ele>1754.6</ele>
        <time>2020-07-26T11:53:05Z</time>
      </trkpt>
      <trkpt lat="42.7356510" lon="0.0879180">
        <ele>1753.8</ele>
        <time>2020-07-26T11:53:06Z</time>
      </trkpt>
      <trkpt lat="42.7357000" lon="0.0878460">
        <ele>1753.4</ele>
        <time>2020-07-26T11:53:07Z</time>
      </trkpt>
      <trkpt lat="42.7358180" lon="0.0876770">
        <ele>1752.0</ele>
        <time>2020-07-26T11:53:10Z</time>
      </trkpt>
      <trkpt lat="42.7358430" lon="0.0876270">
        <ele>1751.6</ele>
        <time>2020-07-26T11:53:11Z</time>
      </trkpt>
      <trkpt lat="42.7358580" lon="0.0875280">
        <ele>1751.0</ele>
        <time>2020-07-26T11:53:13Z</time>
      </trkpt>
      <trkpt lat="42.7358490" lon="0.0874770">
        <ele>1750.8</ele>
        <time>2020-07-26T11:53:14Z</time>
      </trkpt>
      <trkpt lat="42.7358070" lon="0.0873900">
        <ele>1750.8</ele>
        <time>2020-07-26T11:53:16Z</time>
      </trkpt>
      <trkpt lat="42.7357640" lon="0.0873210">
        <ele>1751.2</ele>
        <time>2020-07-26T11:53:18Z</time>
      </trkpt>
      <trkpt lat="42.7357090" lon="0.0872070">
        <ele>1752.0</ele>
        <time>2020-07-26T11:53:21Z</time>
      </trkpt>
      <trkpt lat="42.7356400" lon="0.0870760">
        <ele>1753.2</ele>
        <time>2020-07-26T11:53:25Z</time>
      </trkpt>
      <trkpt lat="42.7356220" lon="0.0870080">
        <ele>1753.4</ele>
        <time>2020-07-26T11:53:27Z</time>
      </trkpt>
      <trkpt lat="42.7356140" lon="0.0868780">
        <ele>1754.2</ele>
        <time>2020-07-26T11:53:31Z</time>
      </trkpt>
      <trkpt lat="42.7356210" lon="0.0868460">
        <ele>1754.6</ele>
        <time>2020-07-26T11:53:32Z</time>
      </trkpt>
      <trkpt lat="42.7356760" lon="0.0867040">
        <ele>1755.6</ele>
        <time>2020-07-26T11:53:37Z</time>
      </trkpt>
      <trkpt lat="42.7356880" lon="0.0866830">
        <ele>1756.0</ele>
        <time>2020-07-26T11:53:38Z</time>
      </trkpt>
      <trkpt lat="42.7357320" lon="0.0866340">
        <ele>1756.8</ele>
        <time>2020-07-26T11:53:41Z</time>
      </trkpt>
      <trkpt lat="42.7357920" lon="0.0866140">
        <ele>1757.4</ele>
        <time>2020-07-26T11:53:44Z</time>
      </trkpt>
      <trkpt lat="42.7358610" lon="0.0866030">
        <ele>1757.8</ele>
        <time>2020-07-26T11:53:47Z</time>
      </trkpt>
      <trkpt lat="42.7359020" lon="0.0866010">
        <ele>1758.4</ele>
        <time>2020-07-26T11:53:49Z</time>
      </trkpt>
      <trkpt lat="42.7359640" lon="0.0865970">
        <ele>1759.0</ele>
        <time>2020-07-26T11:53:52Z</time>
      </trkpt>
      <trkpt lat="42.7360270" lon="0.0865940">
        <ele>1760.0</ele>
        <time>2020-07-26T11:53:55Z</time>
      </trkpt>
      <trkpt lat="42.7360470" lon="0.0865930">
        <ele>1760.2</ele>
        <time>2020-07-26T11:53:56Z</time>
      </trkpt>
      <trkpt lat="42.7361550" lon="0.0865670">
        <ele>1761.2</ele>
        <time>2020-07-26T11:54:01Z</time>
      </trkpt>
      <trkpt lat="42.7362010" lon="0.0865540">
        <ele>1761.2</ele>
        <time>2020-07-26T11:54:03Z</time>
      </trkpt>
      <trkpt lat="42.7362250" lon="0.0865460">
        <ele>1761.4</ele>
        <time>2020-07-26T11:54:04Z</time>
      </trkpt>
      <trkpt lat="42.7362990" lon="0.0865200">
        <ele>1761.6</ele>
        <time>2020-07-26T11:54:07Z</time>
      </trkpt>
      <trkpt lat="42.7363890" lon="0.0864700">
        <ele>1762.2</ele>
        <time>2020-07-26T11:54:10Z</time>
      </trkpt>
      <trkpt lat="42.7364210" lon="0.0864430">
        <ele>1762.4</ele>
        <time>2020-07-26T11:54:11Z</time>
      </trkpt>
      <trkpt lat="42.7365830" lon="0.0862950">
        <ele>1762.0</ele>
        <time>2020-07-26T11:54:16Z</time>
      </trkpt>
      <trkpt lat="42.7366220" lon="0.0862760">
        <ele>1762.0</ele>
        <time>2020-07-26T11:54:17Z</time>
      </trkpt>
      <trkpt lat="42.7367570" lon="0.0862510">
        <ele>1761.6</ele>
        <time>2020-07-26T11:54:20Z</time>
      </trkpt>
      <trkpt lat="42.7369410" lon="0.0862190">
        <ele>1761.6</ele>
        <time>2020-07-26T11:54:24Z</time>
      </trkpt>
      <trkpt lat="42.7369840" lon="0.0861960">
        <ele>1761.4</ele>
        <time>2020-07-26T11:54:25Z</time>
      </trkpt>
      <trkpt lat="42.7370280" lon="0.0861670">
        <ele>1761.4</ele>
        <time>2020-07-26T11:54:26Z</time>
      </trkpt>
      <trkpt lat="42.7371130" lon="0.0860900">
        <ele>1761.4</ele>
        <time>2020-07-26T11:54:28Z</time>
      </trkpt>
      <trkpt lat="42.7372360" lon="0.0859430">
        <ele>1761.4</ele>
        <time>2020-07-26T11:54:31Z</time>
      </trkpt>
      <trkpt lat="42.7373470" lon="0.0858150">
        <ele>1761.2</ele>
        <time>2020-07-26T11:54:34Z</time>
      </trkpt>
      <trkpt lat="42.7374400" lon="0.0856850">
        <ele>1761.0</ele>
        <time>2020-07-26T11:54:37Z</time>
      </trkpt>
      <trkpt lat="42.7376540" lon="0.0854190">
        <ele>1761.8</ele>
        <time>2020-07-26T11:54:43Z</time>
      </trkpt>
      <trkpt lat="42.7376930" lon="0.0853900">
        <ele>1762.0</ele>
        <time>2020-07-26T11:54:44Z</time>
      </trkpt>
      <trkpt lat="42.7377360" lon="0.0853670">
        <ele>1762.2</ele>
        <time>2020-07-26T11:54:45Z</time>
      </trkpt>
      <trkpt lat="42.7378290" lon="0.0853320">
        <ele>1762.6</ele>
        <time>2020-07-26T11:54:47Z</time>
      </trkpt>
      <trkpt lat="42.7380590" lon="0.0852760">
        <ele>1763.0</ele>
        <time>2020-07-26T11:54:52Z</time>
      </trkpt>
      <trkpt lat="42.7382050" lon="0.0852650">
        <ele>1763.6</ele>
        <time>2020-07-26T11:54:55Z</time>
      </trkpt>
      <trkpt lat="42.7382570" lon="0.0852700">
        <ele>1763.8</ele>
        <time>2020-07-26T11:54:56Z</time>
      </trkpt>
      <trkpt lat="42.7383070" lon="0.0852840">
        <ele>1763.8</ele>
        <time>2020-07-26T11:54:57Z</time>
      </trkpt>
      <trkpt lat="42.7383540" lon="0.0853070">
        <ele>1763.8</ele>
        <time>2020-07-26T11:54:58Z</time>
      </trkpt>
      <trkpt lat="42.7383980" lon="0.0853410">
        <ele>1763.8</ele>
        <time>2020-07-26T11:54:59Z</time>
      </trkpt>
      <trkpt lat="42.7385040" lon="0.0854740">
        <ele>1763.6</ele>
        <time>2020-07-26T11:55:02Z</time>
      </trkpt>
      <trkpt lat="42.7385280" lon="0.0855230">
        <ele>1763.8</ele>
        <time>2020-07-26T11:55:03Z</time>
      </trkpt>
      <trkpt lat="42.7386050" lon="0.0857230">
        <ele>1764.6</ele>
        <time>2020-07-26T11:55:07Z</time>
      </trkpt>
      <trkpt lat="42.7386220" lon="0.0857760">
        <ele>1764.8</ele>
        <time>2020-07-26T11:55:08Z</time>
      </trkpt>
      <trkpt lat="42.7386610" lon="0.0859490">
        <ele>1765.2</ele>
        <time>2020-07-26T11:55:11Z</time>
      </trkpt>
      <trkpt lat="42.7386740" lon="0.0860830">
        <ele>1765.4</ele>
        <time>2020-07-26T11:55:13Z</time>
      </trkpt>
      <trkpt lat="42.7386840" lon="0.0863080">
        <ele>1765.2</ele>
        <time>2020-07-26T11:55:16Z</time>
      </trkpt>
      <trkpt lat="42.7387150" lon="0.0864490">
        <ele>1765.4</ele>
        <time>2020-07-26T11:55:18Z</time>
      </trkpt>
      <trkpt lat="42.7387770" lon="0.0865590">
        <ele>1765.4</ele>
        <time>2020-07-26T11:55:20Z</time>
      </trkpt>
      <trkpt lat="42.7388220" lon="0.0865970">
        <ele>1765.2</ele>
        <time>2020-07-26T11:55:21Z</time>
      </trkpt>
      <trkpt lat="42.7389820" lon="0.0866940">
        <ele>1763.0</ele>
        <time>2020-07-26T11:55:24Z</time>
      </trkpt>
      <trkpt lat="42.7390460" lon="0.0867320">
        <ele>1762.0</ele>
        <time>2020-07-26T11:55:25Z</time>
      </trkpt>
      <trkpt lat="42.7391100" lon="0.0867760">
        <ele>1761.2</ele>
        <time>2020-07-26T11:55:26Z</time>
      </trkpt>
      <trkpt lat="42.7391710" lon="0.0868150">
        <ele>1760.8</ele>
        <time>2020-07-26T11:55:27Z</time>
      </trkpt>
      <trkpt lat="42.7392920" lon="0.0868400">
        <ele>1760.0</ele>
        <time>2020-07-26T11:55:29Z</time>
      </trkpt>
      <trkpt lat="42.7394080" lon="0.0867800">
        <ele>1759.6</ele>
        <time>2020-07-26T11:55:31Z</time>
      </trkpt>
      <trkpt lat="42.7394560" lon="0.0867210">
        <ele>1759.4</ele>
        <time>2020-07-26T11:55:32Z</time>
      </trkpt>
      <trkpt lat="42.7394990" lon="0.0866460">
        <ele>1759.4</ele>
        <time>2020-07-26T11:55:33Z</time>
      </trkpt>
      <trkpt lat="42.7395730" lon="0.0864670">
        <ele>1759.2</ele>
        <time>2020-07-26T11:55:35Z</time>
      </trkpt>
      <trkpt lat="42.7396050" lon="0.0863680">
        <ele>1759.0</ele>
        <time>2020-07-26T11:55:36Z</time>
      </trkpt>
      <trkpt lat="42.7396390" lon="0.0862670">
        <ele>1758.6</ele>
        <time>2020-07-26T11:55:37Z</time>
      </trkpt>
      <trkpt lat="42.7397130" lon="0.0860570">
        <ele>1757.6</ele>
        <time>2020-07-26T11:55:39Z</time>
      </trkpt>
      <trkpt lat="42.7397570" lon="0.0859550">
        <ele>1756.4</ele>
        <time>2020-07-26T11:55:40Z</time>
      </trkpt>
      <trkpt lat="42.7398040" lon="0.0858600">
        <ele>1754.8</ele>
        <time>2020-07-26T11:55:41Z</time>
      </trkpt>
      <trkpt lat="42.7398520" lon="0.0857740">
        <ele>1753.4</ele>
        <time>2020-07-26T11:55:42Z</time>
      </trkpt>
      <trkpt lat="42.7399560" lon="0.0856250">
        <ele>1752.2</ele>
        <time>2020-07-26T11:55:44Z</time>
      </trkpt>
      <trkpt lat="42.7400140" lon="0.0855640">
        <ele>1751.8</ele>
        <time>2020-07-26T11:55:45Z</time>
      </trkpt>
      <trkpt lat="42.7400780" lon="0.0855130">
        <ele>1751.6</ele>
        <time>2020-07-26T11:55:46Z</time>
      </trkpt>
      <trkpt lat="42.7402000" lon="0.0854470">
        <ele>1751.6</ele>
        <time>2020-07-26T11:55:48Z</time>
      </trkpt>
      <trkpt lat="42.7402590" lon="0.0854400">
        <ele>1751.8</ele>
        <time>2020-07-26T11:55:49Z</time>
      </trkpt>
      <trkpt lat="42.7403190" lon="0.0854560">
        <ele>1751.8</ele>
        <time>2020-07-26T11:55:50Z</time>
      </trkpt>
      <trkpt lat="42.7404260" lon="0.0855290">
        <ele>1751.8</ele>
        <time>2020-07-26T11:55:52Z</time>
      </trkpt>
      <trkpt lat="42.7404780" lon="0.0855550">
        <ele>1752.0</ele>
        <time>2020-07-26T11:55:53Z</time>
      </trkpt>
      <trkpt lat="42.7405880" lon="0.0855470">
        <ele>1752.4</ele>
        <time>2020-07-26T11:55:55Z</time>
      </trkpt>
      <trkpt lat="42.7406950" lon="0.0854720">
        <ele>1752.4</ele>
        <time>2020-07-26T11:55:57Z</time>
      </trkpt>
      <trkpt lat="42.7408000" lon="0.0853580">
        <ele>1752.4</ele>
        <time>2020-07-26T11:55:59Z</time>
      </trkpt>
      <trkpt lat="42.7410470" lon="0.0850970">
        <ele>1750.6</ele>
        <time>2020-07-26T11:56:03Z</time>
      </trkpt>
      <trkpt lat="42.7411160" lon="0.0850280">
        <ele>1749.4</ele>
        <time>2020-07-26T11:56:04Z</time>
      </trkpt>
      <trkpt lat="42.7411840" lon="0.0849600">
        <ele>1748.2</ele>
        <time>2020-07-26T11:56:05Z</time>
      </trkpt>
      <trkpt lat="42.7412520" lon="0.0848950">
        <ele>1747.0</ele>
        <time>2020-07-26T11:56:06Z</time>
      </trkpt>
      <trkpt lat="42.7413160" lon="0.0848390">
        <ele>1745.8</ele>
        <time>2020-07-26T11:56:07Z</time>
      </trkpt>
      <trkpt lat="42.7414430" lon="0.0847730">
        <ele>1744.4</ele>
        <time>2020-07-26T11:56:09Z</time>
      </trkpt>
      <trkpt lat="42.7415650" lon="0.0847870">
        <ele>1743.8</ele>
        <time>2020-07-26T11:56:11Z</time>
      </trkpt>
      <trkpt lat="42.7416070" lon="0.0848330">
        <ele>1743.6</ele>
        <time>2020-07-26T11:56:12Z</time>
      </trkpt>
      <trkpt lat="42.7416290" lon="0.0848980">
        <ele>1743.4</ele>
        <time>2020-07-26T11:56:13Z</time>
      </trkpt>
      <trkpt lat="42.7416180" lon="0.0849700">
        <ele>1743.6</ele>
        <time>2020-07-26T11:56:14Z</time>
      </trkpt>
      <trkpt lat="42.7415840" lon="0.0850380">
        <ele>1743.4</ele>
        <time>2020-07-26T11:56:15Z</time>
      </trkpt>
      <trkpt lat="42.7415280" lon="0.0850970">
        <ele>1743.0</ele>
        <time>2020-07-26T11:56:16Z</time>
      </trkpt>
      <trkpt lat="42.7414630" lon="0.0851430">
        <ele>1742.2</ele>
        <time>2020-07-26T11:56:17Z</time>
      </trkpt>
      <trkpt lat="42.7413510" lon="0.0852270">
        <ele>1740.6</ele>
        <time>2020-07-26T11:56:19Z</time>
      </trkpt>
      <trkpt lat="42.7413060" lon="0.0852790">
        <ele>1739.8</ele>
        <time>2020-07-26T11:56:20Z</time>
      </trkpt>
      <trkpt lat="42.7412700" lon="0.0853400">
        <ele>1739.0</ele>
        <time>2020-07-26T11:56:21Z</time>
      </trkpt>
      <trkpt lat="42.7412400" lon="0.0854650">
        <ele>1737.8</ele>
        <time>2020-07-26T11:56:23Z</time>
      </trkpt>
      <trkpt lat="42.7412710" lon="0.0855710">
        <ele>1737.0</ele>
        <time>2020-07-26T11:56:25Z</time>
      </trkpt>
      <trkpt lat="42.7413130" lon="0.0855940">
        <ele>1737.0</ele>
        <time>2020-07-26T11:56:26Z</time>
      </trkpt>
      <trkpt lat="42.7413640" lon="0.0856000">
        <ele>1737.0</ele>
        <time>2020-07-26T11:56:27Z</time>
      </trkpt>
      <trkpt lat="42.7414910" lon="0.0855880">
        <ele>1736.6</ele>
        <time>2020-07-26T11:56:29Z</time>
      </trkpt>
      <trkpt lat="42.7418110" lon="0.0855410">
        <ele>1735.2</ele>
        <time>2020-07-26T11:56:33Z</time>
      </trkpt>
      <trkpt lat="42.7418940" lon="0.0855120">
        <ele>1734.6</ele>
        <time>2020-07-26T11:56:34Z</time>
      </trkpt>
      <trkpt lat="42.7419730" lon="0.0854720">
        <ele>1734.0</ele>
        <time>2020-07-26T11:56:35Z</time>
      </trkpt>
      <trkpt lat="42.7421070" lon="0.0853700">
        <ele>1731.8</ele>
        <time>2020-07-26T11:56:37Z</time>
      </trkpt>
      <trkpt lat="42.7421600" lon="0.0853100">
        <ele>1730.6</ele>
        <time>2020-07-26T11:56:38Z</time>
      </trkpt>
      <trkpt lat="42.7422030" lon="0.0852440">
        <ele>1729.6</ele>
        <time>2020-07-26T11:56:39Z</time>
      </trkpt>
      <trkpt lat="42.7422380" lon="0.0851760">
        <ele>1728.8</ele>
        <time>2020-07-26T11:56:40Z</time>
      </trkpt>
      <trkpt lat="42.7423070" lon="0.0850680">
        <ele>1727.8</ele>
        <time>2020-07-26T11:56:42Z</time>
      </trkpt>
      <trkpt lat="42.7423830" lon="0.0850970">
        <ele>1727.2</ele>
        <time>2020-07-26T11:56:44Z</time>
      </trkpt>
      <trkpt lat="42.7424010" lon="0.0851560">
        <ele>1727.0</ele>
        <time>2020-07-26T11:56:45Z</time>
      </trkpt>
      <trkpt lat="42.7424040" lon="0.0852280">
        <ele>1726.6</ele>
        <time>2020-07-26T11:56:46Z</time>
      </trkpt>
      <trkpt lat="42.7423990" lon="0.0853110">
        <ele>1726.4</ele>
        <time>2020-07-26T11:56:47Z</time>
      </trkpt>
      <trkpt lat="42.7423740" lon="0.0854950">
        <ele>1725.4</ele>
        <time>2020-07-26T11:56:49Z</time>
      </trkpt>
      <trkpt lat="42.7423100" lon="0.0856890">
        <ele>1724.0</ele>
        <time>2020-07-26T11:56:51Z</time>
      </trkpt>
      <trkpt lat="42.7422060" lon="0.0858580">
        <ele>1722.6</ele>
        <time>2020-07-26T11:56:53Z</time>
      </trkpt>
      <trkpt lat="42.7421100" lon="0.0859980">
        <ele>1721.6</ele>
        <time>2020-07-26T11:56:55Z</time>
      </trkpt>
      <trkpt lat="42.7420880" lon="0.0861340">
        <ele>1720.4</ele>
        <time>2020-07-26T11:56:57Z</time>
      </trkpt>
      <trkpt lat="42.7421110" lon="0.0861820">
        <ele>1720.0</ele>
        <time>2020-07-26T11:56:58Z</time>
      </trkpt>
      <trkpt lat="42.7421520" lon="0.0861950">
        <ele>1719.8</ele>
        <time>2020-07-26T11:56:59Z</time>
      </trkpt>
      <trkpt lat="42.7422010" lon="0.0861780">
        <ele>1719.8</ele>
        <time>2020-07-26T11:57:00Z</time>
      </trkpt>
      <trkpt lat="42.7422560" lon="0.0861410">
        <ele>1719.6</ele>
        <time>2020-07-26T11:57:01Z</time>
      </trkpt>
      <trkpt lat="42.7423130" lon="0.0860930">
        <ele>1719.4</ele>
        <time>2020-07-26T11:57:02Z</time>
      </trkpt>
      <trkpt lat="42.7423740" lon="0.0860380">
        <ele>1718.8</ele>
        <time>2020-07-26T11:57:03Z</time>
      </trkpt>
      <trkpt lat="42.7424940" lon="0.0859250">
        <ele>1718.0</ele>
        <time>2020-07-26T11:57:05Z</time>
      </trkpt>
      <trkpt lat="42.7425910" lon="0.0858240">
        <ele>1717.0</ele>
        <time>2020-07-26T11:57:07Z</time>
      </trkpt>
      <trkpt lat="42.7426340" lon="0.0857830">
        <ele>1716.2</ele>
        <time>2020-07-26T11:57:08Z</time>
      </trkpt>
      <trkpt lat="42.7426760" lon="0.0857660">
        <ele>1715.2</ele>
        <time>2020-07-26T11:57:09Z</time>
      </trkpt>
      <trkpt lat="42.7427120" lon="0.0857790">
        <ele>1714.0</ele>
        <time>2020-07-26T11:57:10Z</time>
      </trkpt>
      <trkpt lat="42.7427350" lon="0.0858180">
        <ele>1713.2</ele>
        <time>2020-07-26T11:57:11Z</time>
      </trkpt>
      <trkpt lat="42.7427350" lon="0.0858730">
        <ele>1712.4</ele>
        <time>2020-07-26T11:57:12Z</time>
      </trkpt>
      <trkpt lat="42.7427140" lon="0.0859330">
        <ele>1711.8</ele>
        <time>2020-07-26T11:57:13Z</time>
      </trkpt>
      <trkpt lat="42.7426820" lon="0.0859980">
        <ele>1711.4</ele>
        <time>2020-07-26T11:57:14Z</time>
      </trkpt>
      <trkpt lat="42.7426200" lon="0.0861410">
        <ele>1710.0</ele>
        <time>2020-07-26T11:57:16Z</time>
      </trkpt>
      <trkpt lat="42.7426000" lon="0.0862200">
        <ele>1709.6</ele>
        <time>2020-07-26T11:57:17Z</time>
      </trkpt>
      <trkpt lat="42.7425890" lon="0.0863060">
        <ele>1709.2</ele>
        <time>2020-07-26T11:57:18Z</time>
      </trkpt>
      <trkpt lat="42.7425930" lon="0.0863980">
        <ele>1708.8</ele>
        <time>2020-07-26T11:57:19Z</time>
      </trkpt>
      <trkpt lat="42.7426060" lon="0.0864920">
        <ele>1708.4</ele>
        <time>2020-07-26T11:57:20Z</time>
      </trkpt>
      <trkpt lat="42.7426470" lon="0.0866890">
        <ele>1707.8</ele>
        <time>2020-07-26T11:57:22Z</time>
      </trkpt>
      <trkpt lat="42.7426570" lon="0.0867920">
        <ele>1707.6</ele>
        <time>2020-07-26T11:57:23Z</time>
      </trkpt>
      <trkpt lat="42.7426540" lon="0.0868990">
        <ele>1707.4</ele>
        <time>2020-07-26T11:57:24Z</time>
      </trkpt>
      <trkpt lat="42.7426270" lon="0.0871150">
        <ele>1706.4</ele>
        <time>2020-07-26T11:57:26Z</time>
      </trkpt>
      <trkpt lat="42.7425910" lon="0.0873110">
        <ele>1705.0</ele>
        <time>2020-07-26T11:57:28Z</time>
      </trkpt>
      <trkpt lat="42.7425250" lon="0.0874870">
        <ele>1703.2</ele>
        <time>2020-07-26T11:57:30Z</time>
      </trkpt>
      <trkpt lat="42.7424350" lon="0.0876710">
        <ele>1701.2</ele>
        <time>2020-07-26T11:57:32Z</time>
      </trkpt>
      <trkpt lat="42.7423830" lon="0.0877660">
        <ele>1700.2</ele>
        <time>2020-07-26T11:57:33Z</time>
      </trkpt>
      <trkpt lat="42.7423320" lon="0.0878650">
        <ele>1698.8</ele>
        <time>2020-07-26T11:57:34Z</time>
      </trkpt>
      <trkpt lat="42.7422800" lon="0.0879690">
        <ele>1697.6</ele>
        <time>2020-07-26T11:57:35Z</time>
      </trkpt>
      <trkpt lat="42.7421820" lon="0.0881780">
        <ele>1696.0</ele>
        <time>2020-07-26T11:57:37Z</time>
      </trkpt>
      <trkpt lat="42.7421340" lon="0.0882810">
        <ele>1695.4</ele>
        <time>2020-07-26T11:57:38Z</time>
      </trkpt>
      <trkpt lat="42.7420860" lon="0.0883820">
        <ele>1694.6</ele>
        <time>2020-07-26T11:57:39Z</time>
      </trkpt>
      <trkpt lat="42.7419970" lon="0.0885760">
        <ele>1692.8</ele>
        <time>2020-07-26T11:57:41Z</time>
      </trkpt>
      <trkpt lat="42.7419030" lon="0.0887640">
        <ele>1691.6</ele>
        <time>2020-07-26T11:57:43Z</time>
      </trkpt>
      <trkpt lat="42.7418510" lon="0.0888420">
        <ele>1691.4</ele>
        <time>2020-07-26T11:57:44Z</time>
      </trkpt>
      <trkpt lat="42.7417940" lon="0.0889050">
        <ele>1691.0</ele>
        <time>2020-07-26T11:57:45Z</time>
      </trkpt>
      <trkpt lat="42.7417380" lon="0.0889590">
        <ele>1690.6</ele>
        <time>2020-07-26T11:57:46Z</time>
      </trkpt>
      <trkpt lat="42.7416560" lon="0.0890530">
        <ele>1689.6</ele>
        <time>2020-07-26T11:57:48Z</time>
      </trkpt>
      <trkpt lat="42.7416360" lon="0.0892090">
        <ele>1688.4</ele>
        <time>2020-07-26T11:57:51Z</time>
      </trkpt>
      <trkpt lat="42.7416610" lon="0.0892590">
        <ele>1688.0</ele>
        <time>2020-07-26T11:57:52Z</time>
      </trkpt>
      <trkpt lat="42.7417520" lon="0.0893300">
        <ele>1687.2</ele>
        <time>2020-07-26T11:57:54Z</time>
      </trkpt>
      <trkpt lat="42.7418670" lon="0.0893440">
        <ele>1686.8</ele>
        <time>2020-07-26T11:57:56Z</time>
      </trkpt>
      <trkpt lat="42.7419380" lon="0.0893250">
        <ele>1686.6</ele>
        <time>2020-07-26T11:57:57Z</time>
      </trkpt>
      <trkpt lat="42.7420080" lon="0.0892920">
        <ele>1686.4</ele>
        <time>2020-07-26T11:57:58Z</time>
      </trkpt>
      <trkpt lat="42.7420760" lon="0.0892500">
        <ele>1686.4</ele>
        <time>2020-07-26T11:57:59Z</time>
      </trkpt>
      <trkpt lat="42.7422050" lon="0.0891430">
        <ele>1686.4</ele>
        <time>2020-07-26T11:58:01Z</time>
      </trkpt>
      <trkpt lat="42.7423180" lon="0.0889940">
        <ele>1686.4</ele>
        <time>2020-07-26T11:58:03Z</time>
      </trkpt>
      <trkpt lat="42.7423680" lon="0.0889060">
        <ele>1686.0</ele>
        <time>2020-07-26T11:58:04Z</time>
      </trkpt>
      <trkpt lat="42.7424130" lon="0.0888140">
        <ele>1685.4</ele>
        <time>2020-07-26T11:58:05Z</time>
      </trkpt>
      <trkpt lat="42.7424510" lon="0.0887220">
        <ele>1684.8</ele>
        <time>2020-07-26T11:58:06Z</time>
      </trkpt>
      <trkpt lat="42.7425140" lon="0.0885490">
        <ele>1683.0</ele>
        <time>2020-07-26T11:58:08Z</time>
      </trkpt>
      <trkpt lat="42.7425760" lon="0.0883990">
        <ele>1681.6</ele>
        <time>2020-07-26T11:58:10Z</time>
      </trkpt>
      <trkpt lat="42.7426630" lon="0.0883080">
        <ele>1680.8</ele>
        <time>2020-07-26T11:58:12Z</time>
      </trkpt>
      <trkpt lat="42.7427200" lon="0.0883030">
        <ele>1680.2</ele>
        <time>2020-07-26T11:58:13Z</time>
      </trkpt>
      <trkpt lat="42.7427810" lon="0.0883230">
        <ele>1679.6</ele>
        <time>2020-07-26T11:58:14Z</time>
      </trkpt>
      <trkpt lat="42.7428400" lon="0.0883620">
        <ele>1679.0</ele>
        <time>2020-07-26T11:58:15Z</time>
      </trkpt>
      <trkpt lat="42.7428940" lon="0.0884150">
        <ele>1678.4</ele>
        <time>2020-07-26T11:58:16Z</time>
      </trkpt>
      <trkpt lat="42.7429430" lon="0.0884830">
        <ele>1678.0</ele>
        <time>2020-07-26T11:58:17Z</time>
      </trkpt>
      <trkpt lat="42.7430250" lon="0.0886400">
        <ele>1677.4</ele>
        <time>2020-07-26T11:58:19Z</time>
      </trkpt>
      <trkpt lat="42.7430510" lon="0.0887230">
        <ele>1677.2</ele>
        <time>2020-07-26T11:58:20Z</time>
      </trkpt>
      <trkpt lat="42.7430610" lon="0.0888080">
        <ele>1676.8</ele>
        <time>2020-07-26T11:58:21Z</time>
      </trkpt>
      <trkpt lat="42.7430570" lon="0.0888900">
        <ele>1676.4</ele>
        <time>2020-07-26T11:58:22Z</time>
      </trkpt>
      <trkpt lat="42.7430410" lon="0.0889700">
        <ele>1676.0</ele>
        <time>2020-07-26T11:58:23Z</time>
      </trkpt>
      <trkpt lat="42.7430120" lon="0.0890460">
        <ele>1675.2</ele>
        <time>2020-07-26T11:58:24Z</time>
      </trkpt>
      <trkpt lat="42.7429710" lon="0.0891210">
        <ele>1674.4</ele>
        <time>2020-07-26T11:58:25Z</time>
      </trkpt>
      <trkpt lat="42.7429250" lon="0.0891890">
        <ele>1673.8</ele>
        <time>2020-07-26T11:58:26Z</time>
      </trkpt>
      <trkpt lat="42.7428860" lon="0.0892520">
        <ele>1673.0</ele>
        <time>2020-07-26T11:58:27Z</time>
      </trkpt>
      <trkpt lat="42.7428660" lon="0.0893110">
        <ele>1672.2</ele>
        <time>2020-07-26T11:58:28Z</time>
      </trkpt>
      <trkpt lat="42.7428640" lon="0.0893700">
        <ele>1671.4</ele>
        <time>2020-07-26T11:58:29Z</time>
      </trkpt>
      <trkpt lat="42.7428790" lon="0.0894170">
        <ele>1670.8</ele>
        <time>2020-07-26T11:58:30Z</time>
      </trkpt>
      <trkpt lat="42.7429420" lon="0.0894380">
        <ele>1669.8</ele>
        <time>2020-07-26T11:58:32Z</time>
      </trkpt>
      <trkpt lat="42.7429840" lon="0.0894040">
        <ele>1669.6</ele>
        <time>2020-07-26T11:58:33Z</time>
      </trkpt>
      <trkpt lat="42.7430270" lon="0.0893490">
        <ele>1669.4</ele>
        <time>2020-07-26T11:58:34Z</time>
      </trkpt>
      <trkpt lat="42.7430710" lon="0.0892790">
        <ele>1669.4</ele>
        <time>2020-07-26T11:58:35Z</time>
      </trkpt>
      <trkpt lat="42.7431820" lon="0.0891350">
        <ele>1669.2</ele>
        <time>2020-07-26T11:58:37Z</time>
      </trkpt>
      <trkpt lat="42.7432980" lon="0.0890410">
        <ele>1668.6</ele>
        <time>2020-07-26T11:58:39Z</time>
      </trkpt>
      <trkpt lat="42.7433620" lon="0.0890110">
        <ele>1667.0</ele>
        <time>2020-07-26T11:58:40Z</time>
      </trkpt>
      <trkpt lat="42.7434340" lon="0.0889860">
        <ele>1665.4</ele>
        <time>2020-07-26T11:58:41Z</time>
      </trkpt>
      <trkpt lat="42.7435060" lon="0.0889610">
        <ele>1664.0</ele>
        <time>2020-07-26T11:58:42Z</time>
      </trkpt>
      <trkpt lat="42.7435780" lon="0.0889370">
        <ele>1663.2</ele>
        <time>2020-07-26T11:58:43Z</time>
      </trkpt>
      <trkpt lat="42.7436450" lon="0.0889120">
        <ele>1662.6</ele>
        <time>2020-07-26T11:58:44Z</time>
      </trkpt>
      <trkpt lat="42.7437100" lon="0.0888840">
        <ele>1662.0</ele>
        <time>2020-07-26T11:58:45Z</time>
      </trkpt>
      <trkpt lat="42.7437750" lon="0.0888520">
        <ele>1661.2</ele>
        <time>2020-07-26T11:58:46Z</time>
      </trkpt>
      <trkpt lat="42.7438390" lon="0.0888140">
        <ele>1659.8</ele>
        <time>2020-07-26T11:58:47Z</time>
      </trkpt>
      <trkpt lat="42.7439000" lon="0.0887740">
        <ele>1658.6</ele>
        <time>2020-07-26T11:58:48Z</time>
      </trkpt>
      <trkpt lat="42.7439510" lon="0.0887320">
        <ele>1657.8</ele>
        <time>2020-07-26T11:58:49Z</time>
      </trkpt>
      <trkpt lat="42.7439980" lon="0.0887000">
        <ele>1657.2</ele>
        <time>2020-07-26T11:58:50Z</time>
      </trkpt>
      <trkpt lat="42.7440400" lon="0.0886940">
        <ele>1657.0</ele>
        <time>2020-07-26T11:58:51Z</time>
      </trkpt>
      <trkpt lat="42.7440660" lon="0.0887250">
        <ele>1656.8</ele>
        <time>2020-07-26T11:58:52Z</time>
      </trkpt>
      <trkpt lat="42.7440730" lon="0.0887770">
        <ele>1656.8</ele>
        <time>2020-07-26T11:58:53Z</time>
      </trkpt>
      <trkpt lat="42.7440620" lon="0.0888310">
        <ele>1656.6</ele>
        <time>2020-07-26T11:58:54Z</time>
      </trkpt>
      <trkpt lat="42.7440250" lon="0.0888780">
        <ele>1656.4</ele>
        <time>2020-07-26T11:58:55Z</time>
      </trkpt>
      <trkpt lat="42.7439730" lon="0.0889170">
        <ele>1656.0</ele>
        <time>2020-07-26T11:58:56Z</time>
      </trkpt>
      <trkpt lat="42.7438600" lon="0.0889970">
        <ele>1655.2</ele>
        <time>2020-07-26T11:58:58Z</time>
      </trkpt>
      <trkpt lat="42.7438000" lon="0.0890450">
        <ele>1654.8</ele>
        <time>2020-07-26T11:58:59Z</time>
      </trkpt>
      <trkpt lat="42.7437380" lon="0.0891000">
        <ele>1654.4</ele>
        <time>2020-07-26T11:59:00Z</time>
      </trkpt>
      <trkpt lat="42.7436750" lon="0.0891610">
        <ele>1654.2</ele>
        <time>2020-07-26T11:59:01Z</time>
      </trkpt>
      <trkpt lat="42.7436130" lon="0.0892350">
        <ele>1653.8</ele>
        <time>2020-07-26T11:59:02Z</time>
      </trkpt>
      <trkpt lat="42.7435540" lon="0.0893180">
        <ele>1653.6</ele>
        <time>2020-07-26T11:59:03Z</time>
      </trkpt>
      <trkpt lat="42.7433140" lon="0.0896840">
        <ele>1652.8</ele>
        <time>2020-07-26T11:59:07Z</time>
      </trkpt>
      <trkpt lat="42.7432480" lon="0.0897670">
        <ele>1652.4</ele>
        <time>2020-07-26T11:59:08Z</time>
      </trkpt>
      <trkpt lat="42.7431800" lon="0.0898420">
        <ele>1651.8</ele>
        <time>2020-07-26T11:59:09Z</time>
      </trkpt>
      <trkpt lat="42.7431120" lon="0.0899120">
        <ele>1651.4</ele>
        <time>2020-07-26T11:59:10Z</time>
      </trkpt>
      <trkpt lat="42.7429120" lon="0.0901130">
        <ele>1649.8</ele>
        <time>2020-07-26T11:59:13Z</time>
      </trkpt>
      <trkpt lat="42.7427760" lon="0.0902450">
        <ele>1647.6</ele>
        <time>2020-07-26T11:59:15Z</time>
      </trkpt>
      <trkpt lat="42.7426420" lon="0.0903830">
        <ele>1645.8</ele>
        <time>2020-07-26T11:59:17Z</time>
      </trkpt>
      <trkpt lat="42.7425140" lon="0.0905150">
        <ele>1644.2</ele>
        <time>2020-07-26T11:59:19Z</time>
      </trkpt>
      <trkpt lat="42.7423960" lon="0.0906260">
        <ele>1643.2</ele>
        <time>2020-07-26T11:59:21Z</time>
      </trkpt>
      <trkpt lat="42.7423370" lon="0.0906690">
        <ele>1642.2</ele>
        <time>2020-07-26T11:59:22Z</time>
      </trkpt>
      <trkpt lat="42.7422740" lon="0.0907050">
        <ele>1641.4</ele>
        <time>2020-07-26T11:59:23Z</time>
      </trkpt>
      <trkpt lat="42.7422090" lon="0.0907300">
        <ele>1641.0</ele>
        <time>2020-07-26T11:59:24Z</time>
      </trkpt>
      <trkpt lat="42.7420830" lon="0.0907640">
        <ele>1640.6</ele>
        <time>2020-07-26T11:59:26Z</time>
      </trkpt>
      <trkpt lat="42.7420340" lon="0.0907870">
        <ele>1640.0</ele>
        <time>2020-07-26T11:59:27Z</time>
      </trkpt>
      <trkpt lat="42.7419840" lon="0.0908640">
        <ele>1638.2</ele>
        <time>2020-07-26T11:59:29Z</time>
      </trkpt>
      <trkpt lat="42.7420050" lon="0.0909600">
        <ele>1637.4</ele>
        <time>2020-07-26T11:59:31Z</time>
      </trkpt>
      <trkpt lat="42.7420440" lon="0.0909940">
        <ele>1637.2</ele>
        <time>2020-07-26T11:59:32Z</time>
      </trkpt>
      <trkpt lat="42.7420950" lon="0.0910100">
        <ele>1637.0</ele>
        <time>2020-07-26T11:59:33Z</time>
      </trkpt>
      <trkpt lat="42.7422240" lon="0.0909950">
        <ele>1637.0</ele>
        <time>2020-07-26T11:59:35Z</time>
      </trkpt>
      <trkpt lat="42.7425350" lon="0.0908660">
        <ele>1636.2</ele>
        <time>2020-07-26T11:59:39Z</time>
      </trkpt>
      <trkpt lat="42.7426110" lon="0.0908320">
        <ele>1635.8</ele>
        <time>2020-07-26T11:59:40Z</time>
      </trkpt>
      <trkpt lat="42.7427630" lon="0.0907710">
        <ele>1634.2</ele>
        <time>2020-07-26T11:59:42Z</time>
      </trkpt>
      <trkpt lat="42.7429220" lon="0.0907120">
        <ele>1632.6</ele>
        <time>2020-07-26T11:59:44Z</time>
      </trkpt>
      <trkpt lat="42.7430720" lon="0.0906510">
        <ele>1631.2</ele>
        <time>2020-07-26T11:59:46Z</time>
      </trkpt>
      <trkpt lat="42.7432230" lon="0.0905770">
        <ele>1629.6</ele>
        <time>2020-07-26T11:59:48Z</time>
      </trkpt>
      <trkpt lat="42.7433700" lon="0.0904840">
        <ele>1628.4</ele>
        <time>2020-07-26T11:59:50Z</time>
      </trkpt>
      <trkpt lat="42.7435200" lon="0.0903910">
        <ele>1626.8</ele>
        <time>2020-07-26T11:59:52Z</time>
      </trkpt>
      <trkpt lat="42.7436770" lon="0.0903250">
        <ele>1625.4</ele>
        <time>2020-07-26T11:59:54Z</time>
      </trkpt>
      <trkpt lat="42.7438310" lon="0.0902770">
        <ele>1624.0</ele>
        <time>2020-07-26T11:59:56Z</time>
      </trkpt>
      <trkpt lat="42.7439050" lon="0.0902500">
        <ele>1623.0</ele>
        <time>2020-07-26T11:59:57Z</time>
      </trkpt>
      <trkpt lat="42.7439760" lon="0.0902150">
        <ele>1622.2</ele>
        <time>2020-07-26T11:59:58Z</time>
      </trkpt>
      <trkpt lat="42.7441130" lon="0.0901320">
        <ele>1621.0</ele>
        <time>2020-07-26T12:00:00Z</time>
      </trkpt>
      <trkpt lat="42.7442490" lon="0.0900520">
        <ele>1619.4</ele>
        <time>2020-07-26T12:00:02Z</time>
      </trkpt>
      <trkpt lat="42.7443190" lon="0.0900180">
        <ele>1618.4</ele>
        <time>2020-07-26T12:00:03Z</time>
      </trkpt>
      <trkpt lat="42.7443860" lon="0.0899790">
        <ele>1617.6</ele>
        <time>2020-07-26T12:00:04Z</time>
      </trkpt>
      <trkpt lat="42.7445180" lon="0.0898810">
        <ele>1615.8</ele>
        <time>2020-07-26T12:00:06Z</time>
      </trkpt>
      <trkpt lat="42.7445830" lon="0.0898200">
        <ele>1614.8</ele>
        <time>2020-07-26T12:00:07Z</time>
      </trkpt>
      <trkpt lat="42.7446470" lon="0.0897550">
        <ele>1613.6</ele>
        <time>2020-07-26T12:00:08Z</time>
      </trkpt>
      <trkpt lat="42.7447640" lon="0.0896320">
        <ele>1611.4</ele>
        <time>2020-07-26T12:00:10Z</time>
      </trkpt>
      <trkpt lat="42.7448160" lon="0.0895790">
        <ele>1610.0</ele>
        <time>2020-07-26T12:00:11Z</time>
      </trkpt>
      <trkpt lat="42.7448670" lon="0.0895370">
        <ele>1608.6</ele>
        <time>2020-07-26T12:00:12Z</time>
      </trkpt>
      <trkpt lat="42.7449570" lon="0.0895120">
        <ele>1607.2</ele>
        <time>2020-07-26T12:00:14Z</time>
      </trkpt>
      <trkpt lat="42.7449880" lon="0.0895310">
        <ele>1607.0</ele>
        <time>2020-07-26T12:00:15Z</time>
      </trkpt>
      <trkpt lat="42.7450050" lon="0.0895640">
        <ele>1606.8</ele>
        <time>2020-07-26T12:00:16Z</time>
      </trkpt>
      <trkpt lat="42.7449710" lon="0.0896410">
        <ele>1606.2</ele>
        <time>2020-07-26T12:00:18Z</time>
      </trkpt>
      <trkpt lat="42.7448400" lon="0.0897560">
        <ele>1605.0</ele>
        <time>2020-07-26T12:00:21Z</time>
      </trkpt>
      <trkpt lat="42.7447920" lon="0.0898130">
        <ele>1604.4</ele>
        <time>2020-07-26T12:00:22Z</time>
      </trkpt>
      <trkpt lat="42.7447490" lon="0.0898850">
        <ele>1604.0</ele>
        <time>2020-07-26T12:00:23Z</time>
      </trkpt>
      <trkpt lat="42.7447020" lon="0.0899660">
        <ele>1603.6</ele>
        <time>2020-07-26T12:00:24Z</time>
      </trkpt>
      <trkpt lat="42.7446030" lon="0.0901360">
        <ele>1603.0</ele>
        <time>2020-07-26T12:00:26Z</time>
      </trkpt>
      <trkpt lat="42.7445070" lon="0.0903060">
        <ele>1602.2</ele>
        <time>2020-07-26T12:00:28Z</time>
      </trkpt>
      <trkpt lat="42.7443090" lon="0.0906360">
        <ele>1600.4</ele>
        <time>2020-07-26T12:00:32Z</time>
      </trkpt>
      <trkpt lat="42.7442160" lon="0.0907920">
        <ele>1598.8</ele>
        <time>2020-07-26T12:00:34Z</time>
      </trkpt>
      <trkpt lat="42.7441310" lon="0.0909310">
        <ele>1596.8</ele>
        <time>2020-07-26T12:00:36Z</time>
      </trkpt>
      <trkpt lat="42.7440430" lon="0.0910570">
        <ele>1595.2</ele>
        <time>2020-07-26T12:00:38Z</time>
      </trkpt>
      <trkpt lat="42.7439880" lon="0.0911140">
        <ele>1594.4</ele>
        <time>2020-07-26T12:00:39Z</time>
      </trkpt>
      <trkpt lat="42.7439270" lon="0.0911680">
        <ele>1593.6</ele>
        <time>2020-07-26T12:00:40Z</time>
      </trkpt>
      <trkpt lat="42.7438630" lon="0.0912220">
        <ele>1593.2</ele>
        <time>2020-07-26T12:00:41Z</time>
      </trkpt>
      <trkpt lat="42.7437950" lon="0.0912780">
        <ele>1592.6</ele>
        <time>2020-07-26T12:00:42Z</time>
      </trkpt>
      <trkpt lat="42.7436650" lon="0.0913850">
        <ele>1590.8</ele>
        <time>2020-07-26T12:00:44Z</time>
      </trkpt>
      <trkpt lat="42.7436000" lon="0.0914440">
        <ele>1590.0</ele>
        <time>2020-07-26T12:00:45Z</time>
      </trkpt>
      <trkpt lat="42.7435330" lon="0.0915100">
        <ele>1589.6</ele>
        <time>2020-07-26T12:00:46Z</time>
      </trkpt>
      <trkpt lat="42.7433990" lon="0.0916570">
        <ele>1588.4</ele>
        <time>2020-07-26T12:00:48Z</time>
      </trkpt>
      <trkpt lat="42.7432750" lon="0.0918180">
        <ele>1587.0</ele>
        <time>2020-07-26T12:00:50Z</time>
      </trkpt>
      <trkpt lat="42.7431660" lon="0.0919670">
        <ele>1585.6</ele>
        <time>2020-07-26T12:00:52Z</time>
      </trkpt>
      <trkpt lat="42.7431130" lon="0.0920310">
        <ele>1585.0</ele>
        <time>2020-07-26T12:00:53Z</time>
      </trkpt>
      <trkpt lat="42.7430600" lon="0.0920870">
        <ele>1584.4</ele>
        <time>2020-07-26T12:00:54Z</time>
      </trkpt>
      <trkpt lat="42.7430050" lon="0.0921390">
        <ele>1584.0</ele>
        <time>2020-07-26T12:00:55Z</time>
      </trkpt>
      <trkpt lat="42.7429450" lon="0.0921860">
        <ele>1583.4</ele>
        <time>2020-07-26T12:00:56Z</time>
      </trkpt>
      <trkpt lat="42.7428800" lon="0.0922270">
        <ele>1582.8</ele>
        <time>2020-07-26T12:00:57Z</time>
      </trkpt>
      <trkpt lat="42.7427450" lon="0.0923040">
        <ele>1581.4</ele>
        <time>2020-07-26T12:00:59Z</time>
      </trkpt>
      <trkpt lat="42.7426830" lon="0.0923480">
        <ele>1580.6</ele>
        <time>2020-07-26T12:01:00Z</time>
      </trkpt>
      <trkpt lat="42.7426310" lon="0.0923970">
        <ele>1579.8</ele>
        <time>2020-07-26T12:01:01Z</time>
      </trkpt>
      <trkpt lat="42.7425870" lon="0.0924520">
        <ele>1579.0</ele>
        <time>2020-07-26T12:01:02Z</time>
      </trkpt>
      <trkpt lat="42.7425550" lon="0.0925110">
        <ele>1578.4</ele>
        <time>2020-07-26T12:01:03Z</time>
      </trkpt>
      <trkpt lat="42.7425320" lon="0.0925780">
        <ele>1577.8</ele>
        <time>2020-07-26T12:01:04Z</time>
      </trkpt>
      <trkpt lat="42.7425180" lon="0.0926500">
        <ele>1577.2</ele>
        <time>2020-07-26T12:01:05Z</time>
      </trkpt>
      <trkpt lat="42.7425120" lon="0.0927220">
        <ele>1576.8</ele>
        <time>2020-07-26T12:01:06Z</time>
      </trkpt>
      <trkpt lat="42.7425170" lon="0.0927900">
        <ele>1576.4</ele>
        <time>2020-07-26T12:01:07Z</time>
      </trkpt>
      <trkpt lat="42.7425330" lon="0.0928550">
        <ele>1576.2</ele>
        <time>2020-07-26T12:01:08Z</time>
      </trkpt>
      <trkpt lat="42.7425920" lon="0.0929620">
        <ele>1575.6</ele>
        <time>2020-07-26T12:01:10Z</time>
      </trkpt>
      <trkpt lat="42.7426760" lon="0.0930330">
        <ele>1575.0</ele>
        <time>2020-07-26T12:01:12Z</time>
      </trkpt>
      <trkpt lat="42.7427210" lon="0.0930590">
        <ele>1574.8</ele>
        <time>2020-07-26T12:01:13Z</time>
      </trkpt>
      <trkpt lat="42.7427650" lon="0.0930790">
        <ele>1574.4</ele>
        <time>2020-07-26T12:01:14Z</time>
      </trkpt>
      <trkpt lat="42.7428580" lon="0.0931080">
        <ele>1574.2</ele>
        <time>2020-07-26T12:01:16Z</time>
      </trkpt>
      <trkpt lat="42.7429090" lon="0.0931180">
        <ele>1574.0</ele>
        <time>2020-07-26T12:01:17Z</time>
      </trkpt>
      <trkpt lat="42.7430240" lon="0.0931240">
        <ele>1573.8</ele>
        <time>2020-07-26T12:01:19Z</time>
      </trkpt>
      <trkpt lat="42.7430870" lon="0.0931170">
        <ele>1573.6</ele>
        <time>2020-07-26T12:01:20Z</time>
      </trkpt>
      <trkpt lat="42.7431530" lon="0.0931000">
        <ele>1573.4</ele>
        <time>2020-07-26T12:01:21Z</time>
      </trkpt>
      <trkpt lat="42.7432200" lon="0.0930730">
        <ele>1573.2</ele>
        <time>2020-07-26T12:01:22Z</time>
      </trkpt>
      <trkpt lat="42.7432890" lon="0.0930350">
        <ele>1572.8</ele>
        <time>2020-07-26T12:01:23Z</time>
      </trkpt>
      <trkpt lat="42.7433570" lon="0.0929880">
        <ele>1572.6</ele>
        <time>2020-07-26T12:01:24Z</time>
      </trkpt>
      <trkpt lat="42.7434730" lon="0.0928760">
        <ele>1572.2</ele>
        <time>2020-07-26T12:01:26Z</time>
      </trkpt>
      <trkpt lat="42.7435690" lon="0.0927460">
        <ele>1571.6</ele>
        <time>2020-07-26T12:01:28Z</time>
      </trkpt>
      <trkpt lat="42.7436580" lon="0.0926400">
        <ele>1570.8</ele>
        <time>2020-07-26T12:01:30Z</time>
      </trkpt>
      <trkpt lat="42.7436990" lon="0.0926150">
        <ele>1570.4</ele>
        <time>2020-07-26T12:01:31Z</time>
      </trkpt>
      <trkpt lat="42.7437390" lon="0.0925970">
        <ele>1569.4</ele>
        <time>2020-07-26T12:01:32Z</time>
      </trkpt>
      <trkpt lat="42.7437820" lon="0.0925840">
        <ele>1568.2</ele>
        <time>2020-07-26T12:01:33Z</time>
      </trkpt>
      <trkpt lat="42.7438820" lon="0.0925600">
        <ele>1567.2</ele>
        <time>2020-07-26T12:01:35Z</time>
      </trkpt>
      <trkpt lat="42.7440030" lon="0.0925290">
        <ele>1566.8</ele>
        <time>2020-07-26T12:01:37Z</time>
      </trkpt>
      <trkpt lat="42.7442680" lon="0.0925100">
        <ele>1565.6</ele>
        <time>2020-07-26T12:01:41Z</time>
      </trkpt>
      <trkpt lat="42.7443340" lon="0.0924960">
        <ele>1565.0</ele>
        <time>2020-07-26T12:01:42Z</time>
      </trkpt>
      <trkpt lat="42.7443970" lon="0.0924660">
        <ele>1564.6</ele>
        <time>2020-07-26T12:01:43Z</time>
      </trkpt>
      <trkpt lat="42.7444590" lon="0.0924200">
        <ele>1564.4</ele>
        <time>2020-07-26T12:01:44Z</time>
      </trkpt>
      <trkpt lat="42.7445200" lon="0.0923640">
        <ele>1564.2</ele>
        <time>2020-07-26T12:01:45Z</time>
      </trkpt>
      <trkpt lat="42.7446330" lon="0.0922480">
        <ele>1563.4</ele>
        <time>2020-07-26T12:01:47Z</time>
      </trkpt>
      <trkpt lat="42.7447410" lon="0.0921480">
        <ele>1561.4</ele>
        <time>2020-07-26T12:01:49Z</time>
      </trkpt>
      <trkpt lat="42.7447990" lon="0.0921170">
        <ele>1560.6</ele>
        <time>2020-07-26T12:01:50Z</time>
      </trkpt>
      <trkpt lat="42.7448600" lon="0.0921010">
        <ele>1560.0</ele>
        <time>2020-07-26T12:01:51Z</time>
      </trkpt>
      <trkpt lat="42.7449590" lon="0.0920880">
        <ele>1558.6</ele>
        <time>2020-07-26T12:01:53Z</time>
      </trkpt>
      <trkpt lat="42.7449940" lon="0.0920790">
        <ele>1557.8</ele>
        <time>2020-07-26T12:01:54Z</time>
      </trkpt>
      <trkpt lat="42.7450270" lon="0.0920650">
        <ele>1556.8</ele>
        <time>2020-07-26T12:01:55Z</time>
      </trkpt>
      <trkpt lat="42.7450660" lon="0.0920460">
        <ele>1555.8</ele>
        <time>2020-07-26T12:01:56Z</time>
      </trkpt>
      <trkpt lat="42.7451090" lon="0.0920200">
        <ele>1555.2</ele>
        <time>2020-07-26T12:01:57Z</time>
      </trkpt>
      <trkpt lat="42.7451550" lon="0.0919820">
        <ele>1554.6</ele>
        <time>2020-07-26T12:01:58Z</time>
      </trkpt>
      <trkpt lat="42.7452020" lon="0.0919320">
        <ele>1554.2</ele>
        <time>2020-07-26T12:01:59Z</time>
      </trkpt>
      <trkpt lat="42.7452500" lon="0.0918680">
        <ele>1553.8</ele>
        <time>2020-07-26T12:02:00Z</time>
      </trkpt>
      <trkpt lat="42.7453490" lon="0.0917160">
        <ele>1553.0</ele>
        <time>2020-07-26T12:02:02Z</time>
      </trkpt>
      <trkpt lat="42.7454830" lon="0.0914630">
        <ele>1552.0</ele>
        <time>2020-07-26T12:02:05Z</time>
      </trkpt>
      <trkpt lat="42.7455630" lon="0.0913000">
        <ele>1551.2</ele>
        <time>2020-07-26T12:02:07Z</time>
      </trkpt>
      <trkpt lat="42.7455990" lon="0.0912230">
        <ele>1550.2</ele>
        <time>2020-07-26T12:02:08Z</time>
      </trkpt>
      <trkpt lat="42.7456330" lon="0.0911450">
        <ele>1548.8</ele>
        <time>2020-07-26T12:02:09Z</time>
      </trkpt>
      <trkpt lat="42.7456630" lon="0.0910680">
        <ele>1547.6</ele>
        <time>2020-07-26T12:02:10Z</time>
      </trkpt>
      <trkpt lat="42.7457180" lon="0.0909260">
        <ele>1546.2</ele>
        <time>2020-07-26T12:02:12Z</time>
      </trkpt>
      <trkpt lat="42.7457710" lon="0.0908090">
        <ele>1544.2</ele>
        <time>2020-07-26T12:02:14Z</time>
      </trkpt>
      <trkpt lat="42.7458200" lon="0.0907110">
        <ele>1542.8</ele>
        <time>2020-07-26T12:02:16Z</time>
      </trkpt>
      <trkpt lat="42.7458710" lon="0.0906390">
        <ele>1541.8</ele>
        <time>2020-07-26T12:02:18Z</time>
      </trkpt>
      <trkpt lat="42.7459000" lon="0.0906340">
        <ele>1541.2</ele>
        <time>2020-07-26T12:02:19Z</time>
      </trkpt>
      <trkpt lat="42.7459290" lon="0.0906520">
        <ele>1540.4</ele>
        <time>2020-07-26T12:02:20Z</time>
      </trkpt>
      <trkpt lat="42.7459490" lon="0.0906920">
        <ele>1539.8</ele>
        <time>2020-07-26T12:02:21Z</time>
      </trkpt>
      <trkpt lat="42.7459480" lon="0.0907420">
        <ele>1539.4</ele>
        <time>2020-07-26T12:02:22Z</time>
      </trkpt>
      <trkpt lat="42.7459340" lon="0.0907940">
        <ele>1539.2</ele>
        <time>2020-07-26T12:02:23Z</time>
      </trkpt>
      <trkpt lat="42.7459020" lon="0.0908440">
        <ele>1539.2</ele>
        <time>2020-07-26T12:02:24Z</time>
      </trkpt>
      <trkpt lat="42.7458610" lon="0.0908930">
        <ele>1539.0</ele>
        <time>2020-07-26T12:02:25Z</time>
      </trkpt>
      <trkpt lat="42.7458240" lon="0.0909480">
        <ele>1539.0</ele>
        <time>2020-07-26T12:02:26Z</time>
      </trkpt>
      <trkpt lat="42.7457900" lon="0.0910090">
        <ele>1539.0</ele>
        <time>2020-07-26T12:02:27Z</time>
      </trkpt>
      <trkpt lat="42.7457630" lon="0.0910790">
        <ele>1538.8</ele>
        <time>2020-07-26T12:02:28Z</time>
      </trkpt>
      <trkpt lat="42.7457380" lon="0.0911550">
        <ele>1538.6</ele>
        <time>2020-07-26T12:02:29Z</time>
      </trkpt>
      <trkpt lat="42.7456980" lon="0.0913180">
        <ele>1538.2</ele>
        <time>2020-07-26T12:02:31Z</time>
      </trkpt>
      <trkpt lat="42.7456850" lon="0.0914870">
        <ele>1537.4</ele>
        <time>2020-07-26T12:02:33Z</time>
      </trkpt>
      <trkpt lat="42.7456950" lon="0.0915780">
        <ele>1536.8</ele>
        <time>2020-07-26T12:02:34Z</time>
      </trkpt>
      <trkpt lat="42.7457210" lon="0.0917640">
        <ele>1535.8</ele>
        <time>2020-07-26T12:02:36Z</time>
      </trkpt>
      <trkpt lat="42.7457600" lon="0.0919230">
        <ele>1534.4</ele>
        <time>2020-07-26T12:02:38Z</time>
      </trkpt>
      <trkpt lat="42.7457800" lon="0.0919830">
        <ele>1533.6</ele>
        <time>2020-07-26T12:02:39Z</time>
      </trkpt>
      <trkpt lat="42.7458060" lon="0.0920220">
        <ele>1532.8</ele>
        <time>2020-07-26T12:02:40Z</time>
      </trkpt>
      <trkpt lat="42.7458360" lon="0.0920420">
        <ele>1532.2</ele>
        <time>2020-07-26T12:02:41Z</time>
      </trkpt>
      <trkpt lat="42.7458730" lon="0.0920390">
        <ele>1531.8</ele>
        <time>2020-07-26T12:02:42Z</time>
      </trkpt>
      <trkpt lat="42.7459420" lon="0.0919590">
        <ele>1531.2</ele>
        <time>2020-07-26T12:02:44Z</time>
      </trkpt>
      <trkpt lat="42.7460330" lon="0.0917260">
        <ele>1530.8</ele>
        <time>2020-07-26T12:02:47Z</time>
      </trkpt>
      <trkpt lat="42.7460600" lon="0.0916280">
        <ele>1530.6</ele>
        <time>2020-07-26T12:02:48Z</time>
      </trkpt>
      <trkpt lat="42.7461920" lon="0.0911780">
        <ele>1529.4</ele>
        <time>2020-07-26T12:02:52Z</time>
      </trkpt>
      <trkpt lat="42.7462270" lon="0.0910600">
        <ele>1529.0</ele>
        <time>2020-07-26T12:02:53Z</time>
      </trkpt>
      <trkpt lat="42.7462570" lon="0.0909430">
        <ele>1528.0</ele>
        <time>2020-07-26T12:02:54Z</time>
      </trkpt>
      <trkpt lat="42.7463230" lon="0.0907320">
        <ele>1526.0</ele>
        <time>2020-07-26T12:02:56Z</time>
      </trkpt>
      <trkpt lat="42.7463620" lon="0.0906390">
        <ele>1524.6</ele>
        <time>2020-07-26T12:02:57Z</time>
      </trkpt>
      <trkpt lat="42.7464010" lon="0.0905530">
        <ele>1523.0</ele>
        <time>2020-07-26T12:02:58Z</time>
      </trkpt>
      <trkpt lat="42.7464390" lon="0.0904760">
        <ele>1521.2</ele>
        <time>2020-07-26T12:02:59Z</time>
      </trkpt>
      <trkpt lat="42.7464740" lon="0.0904080">
        <ele>1519.8</ele>
        <time>2020-07-26T12:03:00Z</time>
      </trkpt>
      <trkpt lat="42.7465100" lon="0.0903510">
        <ele>1519.0</ele>
        <time>2020-07-26T12:03:01Z</time>
      </trkpt>
      <trkpt lat="42.7465460" lon="0.0903040">
        <ele>1518.4</ele>
        <time>2020-07-26T12:03:02Z</time>
      </trkpt>
      <trkpt lat="42.7466200" lon="0.0902630">
        <ele>1517.6</ele>
        <time>2020-07-26T12:03:04Z</time>
      </trkpt>
      <trkpt lat="42.7466520" lon="0.0902890">
        <ele>1516.6</ele>
        <time>2020-07-26T12:03:05Z</time>
      </trkpt>
      <trkpt lat="42.7466840" lon="0.0904030">
        <ele>1515.0</ele>
        <time>2020-07-26T12:03:07Z</time>
      </trkpt>
      <trkpt lat="42.7466810" lon="0.0904750">
        <ele>1514.8</ele>
        <time>2020-07-26T12:03:08Z</time>
      </trkpt>
      <trkpt lat="42.7466680" lon="0.0905560">
        <ele>1514.6</ele>
        <time>2020-07-26T12:03:09Z</time>
      </trkpt>
      <trkpt lat="42.7466290" lon="0.0907280">
        <ele>1514.2</ele>
        <time>2020-07-26T12:03:11Z</time>
      </trkpt>
      <trkpt lat="42.7466030" lon="0.0908140">
        <ele>1514.0</ele>
        <time>2020-07-26T12:03:12Z</time>
      </trkpt>
      <trkpt lat="42.7465560" lon="0.0909720">
        <ele>1512.4</ele>
        <time>2020-07-26T12:03:14Z</time>
      </trkpt>
      <trkpt lat="42.7465310" lon="0.0911030">
        <ele>1511.0</ele>
        <time>2020-07-26T12:03:16Z</time>
      </trkpt>
      <trkpt lat="42.7465410" lon="0.0911480">
        <ele>1510.6</ele>
        <time>2020-07-26T12:03:17Z</time>
      </trkpt>
      <trkpt lat="42.7465920" lon="0.0911730">
        <ele>1510.0</ele>
        <time>2020-07-26T12:03:19Z</time>
      </trkpt>
      <trkpt lat="42.7466340" lon="0.0911460">
        <ele>1509.6</ele>
        <time>2020-07-26T12:03:20Z</time>
      </trkpt>
      <trkpt lat="42.7466750" lon="0.0911020">
        <ele>1509.4</ele>
        <time>2020-07-26T12:03:21Z</time>
      </trkpt>
      <trkpt lat="42.7467560" lon="0.0909830">
        <ele>1509.2</ele>
        <time>2020-07-26T12:03:23Z</time>
      </trkpt>
      <trkpt lat="42.7467960" lon="0.0909100">
        <ele>1509.2</ele>
        <time>2020-07-26T12:03:24Z</time>
      </trkpt>
      <trkpt lat="42.7468820" lon="0.0907410">
        <ele>1508.8</ele>
        <time>2020-07-26T12:03:26Z</time>
      </trkpt>
      <trkpt lat="42.7470100" lon="0.0905190">
        <ele>1507.8</ele>
        <time>2020-07-26T12:03:29Z</time>
      </trkpt>
      <trkpt lat="42.7470950" lon="0.0904030">
        <ele>1506.2</ele>
        <time>2020-07-26T12:03:31Z</time>
      </trkpt>
      <trkpt lat="42.7471430" lon="0.0903580">
        <ele>1505.2</ele>
        <time>2020-07-26T12:03:32Z</time>
      </trkpt>
      <trkpt lat="42.7471920" lon="0.0903270">
        <ele>1504.0</ele>
        <time>2020-07-26T12:03:33Z</time>
      </trkpt>
      <trkpt lat="42.7472460" lon="0.0903100">
        <ele>1503.0</ele>
        <time>2020-07-26T12:03:34Z</time>
      </trkpt>
      <trkpt lat="42.7473050" lon="0.0903060">
        <ele>1502.2</ele>
        <time>2020-07-26T12:03:35Z</time>
      </trkpt>
      <trkpt lat="42.7473640" lon="0.0903120">
        <ele>1501.4</ele>
        <time>2020-07-26T12:03:36Z</time>
      </trkpt>
      <trkpt lat="42.7474250" lon="0.0903190">
        <ele>1500.6</ele>
        <time>2020-07-26T12:03:37Z</time>
      </trkpt>
      <trkpt lat="42.7474810" lon="0.0903140">
        <ele>1499.8</ele>
        <time>2020-07-26T12:03:38Z</time>
      </trkpt>
      <trkpt lat="42.7475250" lon="0.0902870">
        <ele>1499.4</ele>
        <time>2020-07-26T12:03:39Z</time>
      </trkpt>
      <trkpt lat="42.7475680" lon="0.0902440">
        <ele>1499.2</ele>
        <time>2020-07-26T12:03:40Z</time>
      </trkpt>
      <trkpt lat="42.7476110" lon="0.0901900">
        <ele>1498.8</ele>
        <time>2020-07-26T12:03:41Z</time>
      </trkpt>
      <trkpt lat="42.7478170" lon="0.0899940">
        <ele>1498.0</ele>
        <time>2020-07-26T12:03:45Z</time>
      </trkpt>
      <trkpt lat="42.7478850" lon="0.0899470">
        <ele>1497.8</ele>
        <time>2020-07-26T12:03:46Z</time>
      </trkpt>
      <trkpt lat="42.7480530" lon="0.0898590">
        <ele>1497.2</ele>
        <time>2020-07-26T12:03:48Z</time>
      </trkpt>
      <trkpt lat="42.7481380" lon="0.0898160">
        <ele>1496.0</ele>
        <time>2020-07-26T12:03:49Z</time>
      </trkpt>
      <trkpt lat="42.7482240" lon="0.0897810">
        <ele>1495.0</ele>
        <time>2020-07-26T12:03:50Z</time>
      </trkpt>
      <trkpt lat="42.7483080" lon="0.0897590">
        <ele>1494.2</ele>
        <time>2020-07-26T12:03:51Z</time>
      </trkpt>
      <trkpt lat="42.7483900" lon="0.0897500">
        <ele>1493.8</ele>
        <time>2020-07-26T12:03:52Z</time>
      </trkpt>
      <trkpt lat="42.7484750" lon="0.0897470">
        <ele>1493.4</ele>
        <time>2020-07-26T12:03:53Z</time>
      </trkpt>
      <trkpt lat="42.7485590" lon="0.0897510">
        <ele>1493.2</ele>
        <time>2020-07-26T12:03:54Z</time>
      </trkpt>
      <trkpt lat="42.7486460" lon="0.0897600">
        <ele>1492.8</ele>
        <time>2020-07-26T12:03:55Z</time>
      </trkpt>
      <trkpt lat="42.7487340" lon="0.0897680">
        <ele>1492.4</ele>
        <time>2020-07-26T12:03:56Z</time>
      </trkpt>
      <trkpt lat="42.7489180" lon="0.0897680">
        <ele>1491.8</ele>
        <time>2020-07-26T12:03:58Z</time>
      </trkpt>
      <trkpt lat="42.7490110" lon="0.0897620">
        <ele>1491.4</ele>
        <time>2020-07-26T12:03:59Z</time>
      </trkpt>
      <trkpt lat="42.7491970" lon="0.0897420">
        <ele>1490.0</ele>
        <time>2020-07-26T12:04:01Z</time>
      </trkpt>
      <trkpt lat="42.7492860" lon="0.0897180">
        <ele>1489.4</ele>
        <time>2020-07-26T12:04:02Z</time>
      </trkpt>
      <trkpt lat="42.7493720" lon="0.0896760">
        <ele>1488.8</ele>
        <time>2020-07-26T12:04:03Z</time>
      </trkpt>
      <trkpt lat="42.7494480" lon="0.0896130">
        <ele>1488.4</ele>
        <time>2020-07-26T12:04:04Z</time>
      </trkpt>
      <trkpt lat="42.7495590" lon="0.0894420">
        <ele>1487.8</ele>
        <time>2020-07-26T12:04:06Z</time>
      </trkpt>
      <trkpt lat="42.7497310" lon="0.0890540">
        <ele>1486.8</ele>
        <time>2020-07-26T12:04:10Z</time>
      </trkpt>
      <trkpt lat="42.7498140" lon="0.0888410">
        <ele>1486.4</ele>
        <time>2020-07-26T12:04:12Z</time>
      </trkpt>
      <trkpt lat="42.7498570" lon="0.0887310">
        <ele>1486.2</ele>
        <time>2020-07-26T12:04:13Z</time>
      </trkpt>
      <trkpt lat="42.7499430" lon="0.0885000">
        <ele>1485.2</ele>
        <time>2020-07-26T12:04:15Z</time>
      </trkpt>
      <trkpt lat="42.7499850" lon="0.0883780">
        <ele>1484.2</ele>
        <time>2020-07-26T12:04:16Z</time>
      </trkpt>
      <trkpt lat="42.7500620" lon="0.0881250">
        <ele>1482.6</ele>
        <time>2020-07-26T12:04:18Z</time>
      </trkpt>
      <trkpt lat="42.7501210" lon="0.0879100">
        <ele>1481.4</ele>
        <time>2020-07-26T12:04:20Z</time>
      </trkpt>
      <trkpt lat="42.7501460" lon="0.0878270">
        <ele>1480.2</ele>
        <time>2020-07-26T12:04:21Z</time>
      </trkpt>
      <trkpt lat="42.7501710" lon="0.0877480">
        <ele>1478.8</ele>
        <time>2020-07-26T12:04:22Z</time>
      </trkpt>
      <trkpt lat="42.7502360" lon="0.0875950">
        <ele>1477.4</ele>
        <time>2020-07-26T12:04:24Z</time>
      </trkpt>
      <trkpt lat="42.7503250" lon="0.0874500">
        <ele>1476.4</ele>
        <time>2020-07-26T12:04:26Z</time>
      </trkpt>
      <trkpt lat="42.7504330" lon="0.0873060">
        <ele>1474.8</ele>
        <time>2020-07-26T12:04:28Z</time>
      </trkpt>
      <trkpt lat="42.7505450" lon="0.0871510">
        <ele>1473.6</ele>
        <time>2020-07-26T12:04:30Z</time>
      </trkpt>
      <trkpt lat="42.7506590" lon="0.0869880">
        <ele>1472.4</ele>
        <time>2020-07-26T12:04:32Z</time>
      </trkpt>
      <trkpt lat="42.7507160" lon="0.0869000">
        <ele>1472.2</ele>
        <time>2020-07-26T12:04:33Z</time>
      </trkpt>
      <trkpt lat="42.7507710" lon="0.0868170">
        <ele>1472.0</ele>
        <time>2020-07-26T12:04:34Z</time>
      </trkpt>
      <trkpt lat="42.7508190" lon="0.0867370">
        <ele>1471.8</ele>
        <time>2020-07-26T12:04:35Z</time>
      </trkpt>
      <trkpt lat="42.7509100" lon="0.0865810">
        <ele>1471.4</ele>
        <time>2020-07-26T12:04:37Z</time>
      </trkpt>
      <trkpt lat="42.7509630" lon="0.0865050">
        <ele>1471.0</ele>
        <time>2020-07-26T12:04:38Z</time>
      </trkpt>
      <trkpt lat="42.7510790" lon="0.0863630">
        <ele>1470.2</ele>
        <time>2020-07-26T12:04:40Z</time>
      </trkpt>
      <trkpt lat="42.7511800" lon="0.0862180">
        <ele>1469.0</ele>
        <time>2020-07-26T12:04:42Z</time>
      </trkpt>
      <trkpt lat="42.7513550" lon="0.0859850">
        <ele>1467.8</ele>
        <time>2020-07-26T12:04:45Z</time>
      </trkpt>
      <trkpt lat="42.7515380" lon="0.0857390">
        <ele>1467.0</ele>
        <time>2020-07-26T12:04:48Z</time>
      </trkpt>
      <trkpt lat="42.7515960" lon="0.0856550">
        <ele>1466.6</ele>
        <time>2020-07-26T12:04:49Z</time>
      </trkpt>
      <trkpt lat="42.7517040" lon="0.0854900">
        <ele>1465.2</ele>
        <time>2020-07-26T12:04:51Z</time>
      </trkpt>
      <trkpt lat="42.7518090" lon="0.0853300">
        <ele>1463.8</ele>
        <time>2020-07-26T12:04:53Z</time>
      </trkpt>
      <trkpt lat="42.7519360" lon="0.0850740">
        <ele>1463.2</ele>
        <time>2020-07-26T12:04:56Z</time>
      </trkpt>
      <trkpt lat="42.7520260" lon="0.0849210">
        <ele>1462.8</ele>
        <time>2020-07-26T12:04:58Z</time>
      </trkpt>
      <trkpt lat="42.7521180" lon="0.0847910">
        <ele>1462.2</ele>
        <time>2020-07-26T12:05:00Z</time>
      </trkpt>
      <trkpt lat="42.7521610" lon="0.0847210">
        <ele>1462.0</ele>
        <time>2020-07-26T12:05:01Z</time>
      </trkpt>
      <trkpt lat="42.7522010" lon="0.0846490">
        <ele>1461.6</ele>
        <time>2020-07-26T12:05:02Z</time>
      </trkpt>
      <trkpt lat="42.7522900" lon="0.0844910">
        <ele>1460.0</ele>
        <time>2020-07-26T12:05:04Z</time>
      </trkpt>
      <trkpt lat="42.7524340" lon="0.0842190">
        <ele>1458.6</ele>
        <time>2020-07-26T12:05:07Z</time>
      </trkpt>
      <trkpt lat="42.7524880" lon="0.0841290">
        <ele>1457.4</ele>
        <time>2020-07-26T12:05:08Z</time>
      </trkpt>
      <trkpt lat="42.7525920" lon="0.0839440">
        <ele>1456.4</ele>
        <time>2020-07-26T12:05:10Z</time>
      </trkpt>
      <trkpt lat="42.7528280" lon="0.0834490">
        <ele>1456.8</ele>
        <time>2020-07-26T12:05:15Z</time>
      </trkpt>
      <trkpt lat="42.7529830" lon="0.0830240">
        <ele>1454.4</ele>
        <time>2020-07-26T12:05:19Z</time>
      </trkpt>
      <trkpt lat="42.7530160" lon="0.0829110">
        <ele>1452.2</ele>
        <time>2020-07-26T12:05:20Z</time>
      </trkpt>
      <trkpt lat="42.7530400" lon="0.0827920">
        <ele>1450.4</ele>
        <time>2020-07-26T12:05:21Z</time>
      </trkpt>
      <trkpt lat="42.7530670" lon="0.0826800">
        <ele>1449.4</ele>
        <time>2020-07-26T12:05:22Z</time>
      </trkpt>
      <trkpt lat="42.7531030" lon="0.0824390">
        <ele>1448.0</ele>
        <time>2020-07-26T12:05:24Z</time>
      </trkpt>
      <trkpt lat="42.7531250" lon="0.0823240">
        <ele>1447.6</ele>
        <time>2020-07-26T12:05:25Z</time>
      </trkpt>
      <trkpt lat="42.7531910" lon="0.0819870">
        <ele>1447.0</ele>
        <time>2020-07-26T12:05:28Z</time>
      </trkpt>
      <trkpt lat="42.7532150" lon="0.0818780">
        <ele>1447.0</ele>
        <time>2020-07-26T12:05:29Z</time>
      </trkpt>
      <trkpt lat="42.7532420" lon="0.0817710">
        <ele>1446.8</ele>
        <time>2020-07-26T12:05:30Z</time>
      </trkpt>
      <trkpt lat="42.7532670" lon="0.0816630">
        <ele>1446.6</ele>
        <time>2020-07-26T12:05:31Z</time>
      </trkpt>
      <trkpt lat="42.7533420" lon="0.0813390">
        <ele>1446.2</ele>
        <time>2020-07-26T12:05:34Z</time>
      </trkpt>
      <trkpt lat="42.7534140" lon="0.0810170">
        <ele>1445.4</ele>
        <time>2020-07-26T12:05:37Z</time>
      </trkpt>
      <trkpt lat="42.7534420" lon="0.0809110">
        <ele>1444.8</ele>
        <time>2020-07-26T12:05:38Z</time>
      </trkpt>
      <trkpt lat="42.7535100" lon="0.0807050">
        <ele>1444.2</ele>
        <time>2020-07-26T12:05:40Z</time>
      </trkpt>
      <trkpt lat="42.7536610" lon="0.0803040">
        <ele>1443.4</ele>
        <time>2020-07-26T12:05:44Z</time>
      </trkpt>
      <trkpt lat="42.7536930" lon="0.0802000">
        <ele>1443.0</ele>
        <time>2020-07-26T12:05:45Z</time>
      </trkpt>
      <trkpt lat="42.7538220" lon="0.0796670">
        <ele>1442.0</ele>
        <time>2020-07-26T12:05:50Z</time>
      </trkpt>
      <trkpt lat="42.7538370" lon="0.0795560">
        <ele>1441.8</ele>
        <time>2020-07-26T12:05:51Z</time>
      </trkpt>
      <trkpt lat="42.7538510" lon="0.0794450">
        <ele>1441.6</ele>
        <time>2020-07-26T12:05:52Z</time>
      </trkpt>
      <trkpt lat="42.7538880" lon="0.0791090">
        <ele>1440.8</ele>
        <time>2020-07-26T12:05:55Z</time>
      </trkpt>
      <trkpt lat="42.7539380" lon="0.0787910">
        <ele>1440.0</ele>
        <time>2020-07-26T12:05:58Z</time>
      </trkpt>
      <trkpt lat="42.7539550" lon="0.0786880">
        <ele>1440.0</ele>
        <time>2020-07-26T12:05:59Z</time>
      </trkpt>
      <trkpt lat="42.7539690" lon="0.0785860">
        <ele>1439.8</ele>
        <time>2020-07-26T12:06:00Z</time>
      </trkpt>
      <trkpt lat="42.7539820" lon="0.0783860">
        <ele>1439.4</ele>
        <time>2020-07-26T12:06:02Z</time>
      </trkpt>
      <trkpt lat="42.7539660" lon="0.0781840">
        <ele>1438.8</ele>
        <time>2020-07-26T12:06:04Z</time>
      </trkpt>
      <trkpt lat="42.7539500" lon="0.0780780">
        <ele>1438.6</ele>
        <time>2020-07-26T12:06:05Z</time>
      </trkpt>
      <trkpt lat="42.7539210" lon="0.0777560">
        <ele>1437.6</ele>
        <time>2020-07-26T12:06:08Z</time>
      </trkpt>
      <trkpt lat="42.7539320" lon="0.0775360">
        <ele>1437.0</ele>
        <time>2020-07-26T12:06:09Z</time>
      </trkpt>
      <trkpt lat="42.7539420" lon="0.0774830">
        <ele>1436.8</ele>
        <time>2020-07-26T12:06:10Z</time>
      </trkpt>
      <trkpt lat="42.7539510" lon="0.0774300">
        <ele>1436.4</ele>
        <time>2020-07-26T12:06:11Z</time>
      </trkpt>
      <trkpt lat="42.7540370" lon="0.0771240">
        <ele>1435.4</ele>
        <time>2020-07-26T12:06:14Z</time>
      </trkpt>
      <trkpt lat="42.7540680" lon="0.0770240">
        <ele>1435.2</ele>
        <time>2020-07-26T12:06:15Z</time>
      </trkpt>
      <trkpt lat="42.7541270" lon="0.0768270">
        <ele>1434.0</ele>
        <time>2020-07-26T12:06:17Z</time>
      </trkpt>
      <trkpt lat="42.7543300" lon="0.0762550">
        <ele>1433.0</ele>
        <time>2020-07-26T12:06:23Z</time>
      </trkpt>
      <trkpt lat="42.7545860" lon="0.0757140">
        <ele>1432.6</ele>
        <time>2020-07-26T12:06:29Z</time>
      </trkpt>
      <trkpt lat="42.7546770" lon="0.0755360">
        <ele>1432.6</ele>
        <time>2020-07-26T12:06:31Z</time>
      </trkpt>
      <trkpt lat="42.7549580" lon="0.0750020">
        <ele>1432.8</ele>
        <time>2020-07-26T12:06:37Z</time>
      </trkpt>
      <trkpt lat="42.7550210" lon="0.0748030">
        <ele>1432.0</ele>
        <time>2020-07-26T12:06:39Z</time>
      </trkpt>
      <trkpt lat="42.7550340" lon="0.0747010">
        <ele>1431.0</ele>
        <time>2020-07-26T12:06:40Z</time>
      </trkpt>
      <trkpt lat="42.7550350" lon="0.0745980">
        <ele>1430.2</ele>
        <time>2020-07-26T12:06:41Z</time>
      </trkpt>
      <trkpt lat="42.7550400" lon="0.0744990">
        <ele>1429.8</ele>
        <time>2020-07-26T12:06:42Z</time>
      </trkpt>
      <trkpt lat="42.7550870" lon="0.0741280">
        <ele>1429.4</ele>
        <time>2020-07-26T12:06:46Z</time>
      </trkpt>
      <trkpt lat="42.7551110" lon="0.0740420">
        <ele>1429.4</ele>
        <time>2020-07-26T12:06:47Z</time>
      </trkpt>
      <trkpt lat="42.7551920" lon="0.0737840">
        <ele>1429.4</ele>
        <time>2020-07-26T12:06:50Z</time>
      </trkpt>
      <trkpt lat="42.7552270" lon="0.0736040">
        <ele>1429.6</ele>
        <time>2020-07-26T12:06:52Z</time>
      </trkpt>
      <trkpt lat="42.7552280" lon="0.0735100">
        <ele>1429.8</ele>
        <time>2020-07-26T12:06:53Z</time>
      </trkpt>
      <trkpt lat="42.7552210" lon="0.0730270">
        <ele>1428.8</ele>
        <time>2020-07-26T12:06:58Z</time>
      </trkpt>
      <trkpt lat="42.7552320" lon="0.0729310">
        <ele>1428.8</ele>
        <time>2020-07-26T12:06:59Z</time>
      </trkpt>
      <trkpt lat="42.7553500" lon="0.0723780">
        <ele>1428.6</ele>
        <time>2020-07-26T12:07:05Z</time>
      </trkpt>
      <trkpt lat="42.7553750" lon="0.0722860">
        <ele>1428.6</ele>
        <time>2020-07-26T12:07:06Z</time>
      </trkpt>
      <trkpt lat="42.7555010" lon="0.0719400">
        <ele>1427.6</ele>
        <time>2020-07-26T12:07:10Z</time>
      </trkpt>
      <trkpt lat="42.7555660" lon="0.0717810">
        <ele>1427.2</ele>
        <time>2020-07-26T12:07:12Z</time>
      </trkpt>
      <trkpt lat="42.7556950" lon="0.0714760">
        <ele>1426.6</ele>
        <time>2020-07-26T12:07:16Z</time>
      </trkpt>
      <trkpt lat="42.7557600" lon="0.0712370">
        <ele>1426.2</ele>
        <time>2020-07-26T12:07:19Z</time>
      </trkpt>
      <trkpt lat="42.7557760" lon="0.0711520">
        <ele>1426.0</ele>
        <time>2020-07-26T12:07:20Z</time>
      </trkpt>
      <trkpt lat="42.7558160" lon="0.0709740">
        <ele>1425.2</ele>
        <time>2020-07-26T12:07:22Z</time>
      </trkpt>
      <trkpt lat="42.7558680" lon="0.0706870">
        <ele>1424.2</ele>
        <time>2020-07-26T12:07:25Z</time>
      </trkpt>
      <trkpt lat="42.7558820" lon="0.0705890">
        <ele>1424.0</ele>
        <time>2020-07-26T12:07:26Z</time>
      </trkpt>
      <trkpt lat="42.7559380" lon="0.0702840">
        <ele>1423.6</ele>
        <time>2020-07-26T12:07:29Z</time>
      </trkpt>
      <trkpt lat="42.7560420" lon="0.0701100">
        <ele>1423.0</ele>
        <time>2020-07-26T12:07:31Z</time>
      </trkpt>
      <trkpt lat="42.7561730" lon="0.0699970">
        <ele>1421.8</ele>
        <time>2020-07-26T12:07:33Z</time>
      </trkpt>
      <trkpt lat="42.7562490" lon="0.0699460">
        <ele>1421.4</ele>
        <time>2020-07-26T12:07:34Z</time>
      </trkpt>
      <trkpt lat="42.7563180" lon="0.0698840">
        <ele>1421.0</ele>
        <time>2020-07-26T12:07:35Z</time>
      </trkpt>
      <trkpt lat="42.7563740" lon="0.0698080">
        <ele>1420.6</ele>
        <time>2020-07-26T12:07:36Z</time>
      </trkpt>
      <trkpt lat="42.7564190" lon="0.0697220">
        <ele>1420.2</ele>
        <time>2020-07-26T12:07:37Z</time>
      </trkpt>
      <trkpt lat="42.7565620" lon="0.0693580">
        <ele>1419.8</ele>
        <time>2020-07-26T12:07:41Z</time>
      </trkpt>
      <trkpt lat="42.7566030" lon="0.0691690">
        <ele>1420.2</ele>
        <time>2020-07-26T12:07:43Z</time>
      </trkpt>
      <trkpt lat="42.7566150" lon="0.0689740">
        <ele>1420.4</ele>
        <time>2020-07-26T12:07:45Z</time>
      </trkpt>
      <trkpt lat="42.7566430" lon="0.0686850">
        <ele>1420.6</ele>
        <time>2020-07-26T12:07:48Z</time>
      </trkpt>
      <trkpt lat="42.7566980" lon="0.0684990">
        <ele>1420.8</ele>
        <time>2020-07-26T12:07:50Z</time>
      </trkpt>
      <trkpt lat="42.7567620" lon="0.0683170">
        <ele>1420.8</ele>
        <time>2020-07-26T12:07:52Z</time>
      </trkpt>
      <trkpt lat="42.7568170" lon="0.0681390">
        <ele>1421.2</ele>
        <time>2020-07-26T12:07:54Z</time>
      </trkpt>
      <trkpt lat="42.7568750" lon="0.0678760">
        <ele>1421.4</ele>
        <time>2020-07-26T12:07:57Z</time>
      </trkpt>
      <trkpt lat="42.7568920" lon="0.0677890">
        <ele>1421.6</ele>
        <time>2020-07-26T12:07:58Z</time>
      </trkpt>
      <trkpt lat="42.7569100" lon="0.0677050">
        <ele>1421.8</ele>
        <time>2020-07-26T12:07:59Z</time>
      </trkpt>
      <trkpt lat="42.7569400" lon="0.0673790">
        <ele>1422.4</ele>
        <time>2020-07-26T12:08:03Z</time>
      </trkpt>
      <trkpt lat="42.7569110" lon="0.0672210">
        <ele>1422.8</ele>
        <time>2020-07-26T12:08:05Z</time>
      </trkpt>
      <trkpt lat="42.7568880" lon="0.0671450">
        <ele>1422.8</ele>
        <time>2020-07-26T12:08:06Z</time>
      </trkpt>
      <trkpt lat="42.7568420" lon="0.0670010">
        <ele>1423.0</ele>
        <time>2020-07-26T12:08:08Z</time>
      </trkpt>
      <trkpt lat="42.7567710" lon="0.0667850">
        <ele>1422.6</ele>
        <time>2020-07-26T12:08:11Z</time>
      </trkpt>
      <trkpt lat="42.7567500" lon="0.0666500">
        <ele>1422.4</ele>
        <time>2020-07-26T12:08:13Z</time>
      </trkpt>
      <trkpt lat="42.7567450" lon="0.0665840">
        <ele>1422.4</ele>
        <time>2020-07-26T12:08:14Z</time>
      </trkpt>
      <trkpt lat="42.7567370" lon="0.0664390">
        <ele>1422.4</ele>
        <time>2020-07-26T12:08:16Z</time>
      </trkpt>
      <trkpt lat="42.7567310" lon="0.0663600">
        <ele>1422.2</ele>
        <time>2020-07-26T12:08:17Z</time>
      </trkpt>
      <trkpt lat="42.7567300" lon="0.0662760">
        <ele>1422.2</ele>
        <time>2020-07-26T12:08:18Z</time>
      </trkpt>
      <trkpt lat="42.7567300" lon="0.0661860">
        <ele>1422.2</ele>
        <time>2020-07-26T12:08:19Z</time>
      </trkpt>
      <trkpt lat="42.7567320" lon="0.0660940">
        <ele>1422.0</ele>
        <time>2020-07-26T12:08:20Z</time>
      </trkpt>
      <trkpt lat="42.7567400" lon="0.0659060">
        <ele>1421.8</ele>
        <time>2020-07-26T12:08:22Z</time>
      </trkpt>
      <trkpt lat="42.7567360" lon="0.0657210">
        <ele>1421.6</ele>
        <time>2020-07-26T12:08:24Z</time>
      </trkpt>
      <trkpt lat="42.7567030" lon="0.0655380">
        <ele>1420.8</ele>
        <time>2020-07-26T12:08:26Z</time>
      </trkpt>
      <trkpt lat="42.7566710" lon="0.0652480">
        <ele>1419.6</ele>
        <time>2020-07-26T12:08:29Z</time>
      </trkpt>
      <trkpt lat="42.7566830" lon="0.0651510">
        <ele>1419.4</ele>
        <time>2020-07-26T12:08:30Z</time>
      </trkpt>
      <trkpt lat="42.7567040" lon="0.0650560">
        <ele>1419.2</ele>
        <time>2020-07-26T12:08:31Z</time>
      </trkpt>
      <trkpt lat="42.7567750" lon="0.0647790">
        <ele>1418.8</ele>
        <time>2020-07-26T12:08:34Z</time>
      </trkpt>
      <trkpt lat="42.7567790" lon="0.0646770">
        <ele>1418.4</ele>
        <time>2020-07-26T12:08:35Z</time>
      </trkpt>
      <trkpt lat="42.7567750" lon="0.0645730">
        <ele>1418.0</ele>
        <time>2020-07-26T12:08:36Z</time>
      </trkpt>
      <trkpt lat="42.7567620" lon="0.0644690">
        <ele>1417.4</ele>
        <time>2020-07-26T12:08:37Z</time>
      </trkpt>
      <trkpt lat="42.7567170" lon="0.0642560">
        <ele>1416.8</ele>
        <time>2020-07-26T12:08:39Z</time>
      </trkpt>
      <trkpt lat="42.7566920" lon="0.0641460">
        <ele>1416.6</ele>
        <time>2020-07-26T12:08:40Z</time>
      </trkpt>
      <trkpt lat="42.7566810" lon="0.0640330">
        <ele>1416.4</ele>
        <time>2020-07-26T12:08:41Z</time>
      </trkpt>
      <trkpt lat="42.7567050" lon="0.0638050">
        <ele>1415.6</ele>
        <time>2020-07-26T12:08:43Z</time>
      </trkpt>
      <trkpt lat="42.7567390" lon="0.0636940">
        <ele>1414.8</ele>
        <time>2020-07-26T12:08:44Z</time>
      </trkpt>
      <trkpt lat="42.7567830" lon="0.0635870">
        <ele>1413.8</ele>
        <time>2020-07-26T12:08:45Z</time>
      </trkpt>
      <trkpt lat="42.7568420" lon="0.0634910">
        <ele>1413.0</ele>
        <time>2020-07-26T12:08:46Z</time>
      </trkpt>
      <trkpt lat="42.7569150" lon="0.0634010">
        <ele>1412.0</ele>
        <time>2020-07-26T12:08:47Z</time>
      </trkpt>
      <trkpt lat="42.7569980" lon="0.0633160">
        <ele>1410.8</ele>
        <time>2020-07-26T12:08:48Z</time>
      </trkpt>
      <trkpt lat="42.7570920" lon="0.0632350">
        <ele>1409.6</ele>
        <time>2020-07-26T12:08:49Z</time>
      </trkpt>
      <trkpt lat="42.7572790" lon="0.0630890">
        <ele>1407.8</ele>
        <time>2020-07-26T12:08:51Z</time>
      </trkpt>
      <trkpt lat="42.7573620" lon="0.0630110">
        <ele>1406.4</ele>
        <time>2020-07-26T12:08:52Z</time>
      </trkpt>
      <trkpt lat="42.7574390" lon="0.0629190">
        <ele>1405.2</ele>
        <time>2020-07-26T12:08:53Z</time>
      </trkpt>
      <trkpt lat="42.7575050" lon="0.0628160">
        <ele>1404.2</ele>
        <time>2020-07-26T12:08:54Z</time>
      </trkpt>
      <trkpt lat="42.7575470" lon="0.0625800">
        <ele>1402.2</ele>
        <time>2020-07-26T12:08:56Z</time>
      </trkpt>
      <trkpt lat="42.7575230" lon="0.0624490">
        <ele>1401.2</ele>
        <time>2020-07-26T12:08:57Z</time>
      </trkpt>
      <trkpt lat="42.7574740" lon="0.0623120">
        <ele>1400.0</ele>
        <time>2020-07-26T12:08:58Z</time>
      </trkpt>
      <trkpt lat="42.7573820" lon="0.0620720">
        <ele>1398.4</ele>
        <time>2020-07-26T12:09:00Z</time>
      </trkpt>
      <trkpt lat="42.7573620" lon="0.0619770">
        <ele>1397.4</ele>
        <time>2020-07-26T12:09:01Z</time>
      </trkpt>
      <trkpt lat="42.7573670" lon="0.0618930">
        <ele>1396.2</ele>
        <time>2020-07-26T12:09:02Z</time>
      </trkpt>
      <trkpt lat="42.7573940" lon="0.0618260">
        <ele>1395.4</ele>
        <time>2020-07-26T12:09:03Z</time>
      </trkpt>
      <trkpt lat="42.7574290" lon="0.0617860">
        <ele>1394.4</ele>
        <time>2020-07-26T12:09:04Z</time>
      </trkpt>
      <trkpt lat="42.7575040" lon="0.0617880">
        <ele>1393.4</ele>
        <time>2020-07-26T12:09:05Z</time>
      </trkpt>
      <trkpt lat="42.7575930" lon="0.0618110">
        <ele>1392.4</ele>
        <time>2020-07-26T12:09:06Z</time>
      </trkpt>
      <trkpt lat="42.7576720" lon="0.0618170">
        <ele>1391.2</ele>
        <time>2020-07-26T12:09:07Z</time>
      </trkpt>
      <trkpt lat="42.7578110" lon="0.0617240">
        <ele>1389.4</ele>
        <time>2020-07-26T12:09:09Z</time>
      </trkpt>
      <trkpt lat="42.7578670" lon="0.0616260">
        <ele>1388.2</ele>
        <time>2020-07-26T12:09:10Z</time>
      </trkpt>
      <trkpt lat="42.7579080" lon="0.0615030">
        <ele>1387.0</ele>
        <time>2020-07-26T12:09:11Z</time>
      </trkpt>
      <trkpt lat="42.7579450" lon="0.0613720">
        <ele>1385.8</ele>
        <time>2020-07-26T12:09:12Z</time>
      </trkpt>
      <trkpt lat="42.7579700" lon="0.0612450">
        <ele>1384.4</ele>
        <time>2020-07-26T12:09:13Z</time>
      </trkpt>
      <trkpt lat="42.7579870" lon="0.0611270">
        <ele>1383.2</ele>
        <time>2020-07-26T12:09:14Z</time>
      </trkpt>
      <trkpt lat="42.7580110" lon="0.0610170">
        <ele>1382.4</ele>
        <time>2020-07-26T12:09:15Z</time>
      </trkpt>
      <trkpt lat="42.7580460" lon="0.0609150">
        <ele>1381.4</ele>
        <time>2020-07-26T12:09:16Z</time>
      </trkpt>
      <trkpt lat="42.7581030" lon="0.0608210">
        <ele>1380.2</ele>
        <time>2020-07-26T12:09:17Z</time>
      </trkpt>
      <trkpt lat="42.7581650" lon="0.0607290">
        <ele>1378.8</ele>
        <time>2020-07-26T12:09:18Z</time>
      </trkpt>
      <trkpt lat="42.7582260" lon="0.0606270">
        <ele>1377.2</ele>
        <time>2020-07-26T12:09:19Z</time>
      </trkpt>
      <trkpt lat="42.7582850" lon="0.0605100">
        <ele>1375.4</ele>
        <time>2020-07-26T12:09:20Z</time>
      </trkpt>
      <trkpt lat="42.7583410" lon="0.0603840">
        <ele>1374.0</ele>
        <time>2020-07-26T12:09:21Z</time>
      </trkpt>
      <trkpt lat="42.7583850" lon="0.0602410">
        <ele>1373.0</ele>
        <time>2020-07-26T12:09:22Z</time>
      </trkpt>
      <trkpt lat="42.7584280" lon="0.0600850">
        <ele>1371.8</ele>
        <time>2020-07-26T12:09:23Z</time>
      </trkpt>
      <trkpt lat="42.7584710" lon="0.0599200">
        <ele>1370.4</ele>
        <time>2020-07-26T12:09:24Z</time>
      </trkpt>
      <trkpt lat="42.7585100" lon="0.0597600">
        <ele>1368.8</ele>
        <time>2020-07-26T12:09:25Z</time>
      </trkpt>
      <trkpt lat="42.7585500" lon="0.0596070">
        <ele>1367.2</ele>
        <time>2020-07-26T12:09:26Z</time>
      </trkpt>
      <trkpt lat="42.7585930" lon="0.0594670">
        <ele>1365.8</ele>
        <time>2020-07-26T12:09:27Z</time>
      </trkpt>
      <trkpt lat="42.7586480" lon="0.0593400">
        <ele>1364.6</ele>
        <time>2020-07-26T12:09:28Z</time>
      </trkpt>
      <trkpt lat="42.7587180" lon="0.0592270">
        <ele>1363.2</ele>
        <time>2020-07-26T12:09:29Z</time>
      </trkpt>
      <trkpt lat="42.7587920" lon="0.0591250">
        <ele>1362.2</ele>
        <time>2020-07-26T12:09:30Z</time>
      </trkpt>
      <trkpt lat="42.7589160" lon="0.0589030">
        <ele>1360.4</ele>
        <time>2020-07-26T12:09:32Z</time>
      </trkpt>
      <trkpt lat="42.7589580" lon="0.0587690">
        <ele>1359.0</ele>
        <time>2020-07-26T12:09:33Z</time>
      </trkpt>
      <trkpt lat="42.7589980" lon="0.0586270">
        <ele>1357.6</ele>
        <time>2020-07-26T12:09:34Z</time>
      </trkpt>
      <trkpt lat="42.7590380" lon="0.0584810">
        <ele>1356.2</ele>
        <time>2020-07-26T12:09:35Z</time>
      </trkpt>
      <trkpt lat="42.7590890" lon="0.0583420">
        <ele>1355.0</ele>
        <time>2020-07-26T12:09:36Z</time>
      </trkpt>
      <trkpt lat="42.7591550" lon="0.0582120">
        <ele>1354.0</ele>
        <time>2020-07-26T12:09:37Z</time>
      </trkpt>
      <trkpt lat="42.7592320" lon="0.0580900">
        <ele>1352.8</ele>
        <time>2020-07-26T12:09:38Z</time>
      </trkpt>
      <trkpt lat="42.7593160" lon="0.0579740">
        <ele>1351.6</ele>
        <time>2020-07-26T12:09:39Z</time>
      </trkpt>
      <trkpt lat="42.7594010" lon="0.0578550">
        <ele>1350.6</ele>
        <time>2020-07-26T12:09:40Z</time>
      </trkpt>
      <trkpt lat="42.7594840" lon="0.0577300">
        <ele>1349.4</ele>
        <time>2020-07-26T12:09:41Z</time>
      </trkpt>
      <trkpt lat="42.7595630" lon="0.0575880">
        <ele>1347.8</ele>
        <time>2020-07-26T12:09:42Z</time>
      </trkpt>
      <trkpt lat="42.7596350" lon="0.0574370">
        <ele>1346.2</ele>
        <time>2020-07-26T12:09:43Z</time>
      </trkpt>
      <trkpt lat="42.7597040" lon="0.0572780">
        <ele>1344.8</ele>
        <time>2020-07-26T12:09:44Z</time>
      </trkpt>
      <trkpt lat="42.7597760" lon="0.0571180">
        <ele>1343.6</ele>
        <time>2020-07-26T12:09:45Z</time>
      </trkpt>
      <trkpt lat="42.7598480" lon="0.0569610">
        <ele>1342.2</ele>
        <time>2020-07-26T12:09:46Z</time>
      </trkpt>
      <trkpt lat="42.7599220" lon="0.0568120">
        <ele>1340.8</ele>
        <time>2020-07-26T12:09:47Z</time>
      </trkpt>
      <trkpt lat="42.7600040" lon="0.0566730">
        <ele>1339.6</ele>
        <time>2020-07-26T12:09:48Z</time>
      </trkpt>
      <trkpt lat="42.7600890" lon="0.0565450">
        <ele>1338.4</ele>
        <time>2020-07-26T12:09:49Z</time>
      </trkpt>
      <trkpt lat="42.7601760" lon="0.0564230">
        <ele>1337.2</ele>
        <time>2020-07-26T12:09:50Z</time>
      </trkpt>
      <trkpt lat="42.7602530" lon="0.0562920">
        <ele>1335.8</ele>
        <time>2020-07-26T12:09:51Z</time>
      </trkpt>
      <trkpt lat="42.7603250" lon="0.0561510">
        <ele>1334.4</ele>
        <time>2020-07-26T12:09:52Z</time>
      </trkpt>
      <trkpt lat="42.7603940" lon="0.0560040">
        <ele>1333.2</ele>
        <time>2020-07-26T12:09:53Z</time>
      </trkpt>
      <trkpt lat="42.7604710" lon="0.0558580">
        <ele>1332.0</ele>
        <time>2020-07-26T12:09:54Z</time>
      </trkpt>
      <trkpt lat="42.7605500" lon="0.0557100">
        <ele>1330.6</ele>
        <time>2020-07-26T12:09:55Z</time>
      </trkpt>
      <trkpt lat="42.7606320" lon="0.0555650">
        <ele>1328.8</ele>
        <time>2020-07-26T12:09:56Z</time>
      </trkpt>
      <trkpt lat="42.7607120" lon="0.0554200">
        <ele>1327.2</ele>
        <time>2020-07-26T12:09:57Z</time>
      </trkpt>
      <trkpt lat="42.7607890" lon="0.0552820">
        <ele>1323.8</ele>
        <time>2020-07-26T12:09:58Z</time>
      </trkpt>
      <trkpt lat="42.7608660" lon="0.0551510">
        <ele>1324.4</ele>
        <time>2020-07-26T12:09:59Z</time>
      </trkpt>
      <trkpt lat="42.7609400" lon="0.0550230">
        <ele>1322.8</ele>
        <time>2020-07-26T12:10:00Z</time>
      </trkpt>
      <trkpt lat="42.7610070" lon="0.0548900">
        <ele>1319.4</ele>
        <time>2020-07-26T12:10:01Z</time>
      </trkpt>
      <trkpt lat="42.7610610" lon="0.0547460">
        <ele>1319.4</ele>
        <time>2020-07-26T12:10:02Z</time>
      </trkpt>
      <trkpt lat="42.7611170" lon="0.0546060">
        <ele>1318.8</ele>
        <time>2020-07-26T12:10:03Z</time>
      </trkpt>
      <trkpt lat="42.7613010" lon="0.0542050">
        <ele>1318.2</ele>
        <time>2020-07-26T12:10:06Z</time>
      </trkpt>
      <trkpt lat="42.7613670" lon="0.0540900">
        <ele>1317.6</ele>
        <time>2020-07-26T12:10:07Z</time>
      </trkpt>
      <trkpt lat="42.7615120" lon="0.0538670">
        <ele>1316.4</ele>
        <time>2020-07-26T12:10:09Z</time>
      </trkpt>
      <trkpt lat="42.7615810" lon="0.0537470">
        <ele>1315.2</ele>
        <time>2020-07-26T12:10:10Z</time>
      </trkpt>
      <trkpt lat="42.7616570" lon="0.0536300">
        <ele>1313.6</ele>
        <time>2020-07-26T12:10:11Z</time>
      </trkpt>
      <trkpt lat="42.7617290" lon="0.0535110">
        <ele>1312.2</ele>
        <time>2020-07-26T12:10:12Z</time>
      </trkpt>
      <trkpt lat="42.7617960" lon="0.0533910">
        <ele>1311.6</ele>
        <time>2020-07-26T12:10:13Z</time>
      </trkpt>
      <trkpt lat="42.7618630" lon="0.0532740">
        <ele>1311.0</ele>
        <time>2020-07-26T12:10:14Z</time>
      </trkpt>
      <trkpt lat="42.7620120" lon="0.0530680">
        <ele>1310.4</ele>
        <time>2020-07-26T12:10:16Z</time>
      </trkpt>
      <trkpt lat="42.7621000" lon="0.0529870">
        <ele>1310.4</ele>
        <time>2020-07-26T12:10:17Z</time>
      </trkpt>
      <trkpt lat="42.7621900" lon="0.0529200">
        <ele>1310.6</ele>
        <time>2020-07-26T12:10:18Z</time>
      </trkpt>
      <trkpt lat="42.7624540" lon="0.0527280">
        <ele>1310.6</ele>
        <time>2020-07-26T12:10:21Z</time>
      </trkpt>
      <trkpt lat="42.7627100" lon="0.0525450">
        <ele>1308.8</ele>
        <time>2020-07-26T12:10:24Z</time>
      </trkpt>
      <trkpt lat="42.7627930" lon="0.0524790">
        <ele>1307.4</ele>
        <time>2020-07-26T12:10:25Z</time>
      </trkpt>
      <trkpt lat="42.7629490" lon="0.0523400">
        <ele>1306.4</ele>
        <time>2020-07-26T12:10:27Z</time>
      </trkpt>
      <trkpt lat="42.7630240" lon="0.0522690">
        <ele>1306.2</ele>
        <time>2020-07-26T12:10:28Z</time>
      </trkpt>
      <trkpt lat="42.7632550" lon="0.0520860">
        <ele>1305.2</ele>
        <time>2020-07-26T12:10:31Z</time>
      </trkpt>
      <trkpt lat="42.7634230" lon="0.0519840">
        <ele>1304.4</ele>
        <time>2020-07-26T12:10:33Z</time>
      </trkpt>
      <trkpt lat="42.7635030" lon="0.0519280">
        <ele>1304.0</ele>
        <time>2020-07-26T12:10:34Z</time>
      </trkpt>
      <trkpt lat="42.7635500" lon="0.0518720">
        <ele>1302.8</ele>
        <time>2020-07-26T12:10:37Z</time>
      </trkpt>
      <trkpt lat="42.7635970" lon="0.0518160">
        <ele>1302.0</ele>
        <time>2020-07-26T12:10:43Z</time>
      </trkpt>
      <trkpt lat="42.7636450" lon="0.0517600">
        <ele>1301.8</ele>
        <time>2020-07-26T12:10:44Z</time>
      </trkpt>
      <trkpt lat="42.7636920" lon="0.0517040">
        <ele>1300.6</ele>
        <time>2020-07-26T12:10:47Z</time>
      </trkpt>
      <trkpt lat="42.7637390" lon="0.0516490">
        <ele>1299.8</ele>
        <time>2020-07-26T12:10:50Z</time>
      </trkpt>
      <trkpt lat="42.7637860" lon="0.0515930">
        <ele>1299.2</ele>
        <time>2020-07-26T12:10:52Z</time>
      </trkpt>
      <trkpt lat="42.7638330" lon="0.0515370">
        <ele>1298.2</ele>
        <time>2020-07-26T12:10:55Z</time>
      </trkpt>
      <trkpt lat="42.7638810" lon="0.0514810">
        <ele>1298.2</ele>
        <time>2020-07-26T12:10:57Z</time>
      </trkpt>
      <trkpt lat="42.7639280" lon="0.0514250">
        <ele>1297.0</ele>
        <time>2020-07-26T12:11:02Z</time>
      </trkpt>
      <trkpt lat="42.7639750" lon="0.0513690">
        <ele>1296.8</ele>
        <time>2020-07-26T12:11:03Z</time>
      </trkpt>
      <trkpt lat="42.7655280" lon="0.0496390">
        <ele>1295.8</ele>
        <time>2020-07-26T12:11:06Z</time>
      </trkpt>
      <trkpt lat="42.7656650" lon="0.0495870">
        <ele>1294.6</ele>
        <time>2020-07-26T12:11:11Z</time>
      </trkpt>
      <trkpt lat="42.7658030" lon="0.0495360">
        <ele>1293.4</ele>
        <time>2020-07-26T12:11:14Z</time>
      </trkpt>
      <trkpt lat="42.7659400" lon="0.0494840">
        <ele>1293.0</ele>
        <time>2020-07-26T12:11:16Z</time>
      </trkpt>
      <trkpt lat="42.7660770" lon="0.0494330">
        <ele>1291.8</ele>
        <time>2020-07-26T12:11:18Z</time>
      </trkpt>
      <trkpt lat="42.7667630" lon="0.0491750">
        <ele>1290.2</ele>
        <time>2020-07-26T12:11:20Z</time>
      </trkpt>
      <trkpt lat="42.7669300" lon="0.0490740">
        <ele>1289.4</ele>
        <time>2020-07-26T12:11:23Z</time>
      </trkpt>
      <trkpt lat="42.7670610" lon="0.0489540">
        <ele>1289.2</ele>
        <time>2020-07-26T12:11:24Z</time>
      </trkpt>
      <trkpt lat="42.7672010" lon="0.0488180">
        <ele>1288.8</ele>
        <time>2020-07-26T12:11:26Z</time>
      </trkpt>
      <trkpt lat="42.7672710" lon="0.0487420">
        <ele>1288.4</ele>
        <time>2020-07-26T12:11:28Z</time>
      </trkpt>
      <trkpt lat="42.7673500" lon="0.0486680">
        <ele>1288.0</ele>
        <time>2020-07-26T12:11:29Z</time>
      </trkpt>
      <trkpt lat="42.7675960" lon="0.0484460">
        <ele>1286.8</ele>
        <time>2020-07-26T12:11:32Z</time>
      </trkpt>
      <trkpt lat="42.7677320" lon="0.0483650">
        <ele>1286.4</ele>
        <time>2020-07-26T12:11:33Z</time>
      </trkpt>
      <trkpt lat="42.7678670" lon="0.0482830">
        <ele>1285.8</ele>
        <time>2020-07-26T12:11:34Z</time>
      </trkpt>
      <trkpt lat="42.7679600" lon="0.0482360">
        <ele>1284.8</ele>
        <time>2020-07-26T12:11:36Z</time>
      </trkpt>
      <trkpt lat="42.7680510" lon="0.0481860">
        <ele>1284.2</ele>
        <time>2020-07-26T12:11:37Z</time>
      </trkpt>
      <trkpt lat="42.7682330" lon="0.0480710">
        <ele>1283.2</ele>
        <time>2020-07-26T12:11:39Z</time>
      </trkpt>
      <trkpt lat="42.7685240" lon="0.0478750">
        <ele>1281.2</ele>
        <time>2020-07-26T12:11:41Z</time>
      </trkpt>
      <trkpt lat="42.7685750" lon="0.0478460">
        <ele>1279.6</ele>
        <time>2020-07-26T12:11:42Z</time>
      </trkpt>
      <trkpt lat="42.7686260" lon="0.0478160">
        <ele>1278.2</ele>
        <time>2020-07-26T12:11:43Z</time>
      </trkpt>
      <trkpt lat="42.7687270" lon="0.0477570">
        <ele>1277.2</ele>
        <time>2020-07-26T12:11:44Z</time>
      </trkpt>
      <trkpt lat="42.7688350" lon="0.0477000">
        <ele>1276.2</ele>
        <time>2020-07-26T12:11:45Z</time>
      </trkpt>
      <trkpt lat="42.7689420" lon="0.0476430">
        <ele>1275.2</ele>
        <time>2020-07-26T12:11:46Z</time>
      </trkpt>
      <trkpt lat="42.7689420" lon="0.0476430">
        <ele>1273.2</ele>
        <time>2020-07-26T12:11:48Z</time>
      </trkpt>
      <trkpt lat="42.7690040" lon="0.0475800">
        <ele>1271.8</ele>
        <time>2020-07-26T12:11:49Z</time>
      </trkpt>
      <trkpt lat="42.7690660" lon="0.0475160">
        <ele>1269.6</ele>
        <time>2020-07-26T12:11:50Z</time>
      </trkpt>
      <trkpt lat="42.7691280" lon="0.0474530">
        <ele>1267.8</ele>
        <time>2020-07-26T12:11:51Z</time>
      </trkpt>
      <trkpt lat="42.7691900" lon="0.0473900">
        <ele>1266.0</ele>
        <time>2020-07-26T12:11:52Z</time>
      </trkpt>
      <trkpt lat="42.7692520" lon="0.0473260">
        <ele>1264.6</ele>
        <time>2020-07-26T12:11:53Z</time>
      </trkpt>
      <trkpt lat="42.7693130" lon="0.0472630">
        <ele>1263.0</ele>
        <time>2020-07-26T12:11:54Z</time>
      </trkpt>
      <trkpt lat="42.7693750" lon="0.0471990">
        <ele>1261.6</ele>
        <time>2020-07-26T12:11:55Z</time>
      </trkpt>
      <trkpt lat="42.7694370" lon="0.0471360">
        <ele>1260.6</ele>
        <time>2020-07-26T12:11:56Z</time>
      </trkpt>
      <trkpt lat="42.7694990" lon="0.0470730">
        <ele>1258.8</ele>
        <time>2020-07-26T12:11:58Z</time>
      </trkpt>
      <trkpt lat="42.7695610" lon="0.0470090">
        <ele>1257.8</ele>
        <time>2020-07-26T12:12:00Z</time>
      </trkpt>
      <trkpt lat="42.7696230" lon="0.0469460">
        <ele>1257.4</ele>
        <time>2020-07-26T12:12:01Z</time>
      </trkpt>
      <trkpt lat="42.7703030" lon="0.0462490">
        <ele>1257.0</ele>
        <time>2020-07-26T12:12:02Z</time>
      </trkpt>
      <trkpt lat="42.7702460" lon="0.0461240">
        <ele>1256.8</ele>
        <time>2020-07-26T12:12:03Z</time>
      </trkpt>
      <trkpt lat="42.7701310" lon="0.0458730">
        <ele>1256.6</ele>
        <time>2020-07-26T12:12:05Z</time>
      </trkpt>
      <trkpt lat="42.7702020" lon="0.0454810">
        <ele>1256.0</ele>
        <time>2020-07-26T12:12:09Z</time>
      </trkpt>
      <trkpt lat="42.7702540" lon="0.0453190">
        <ele>1255.6</ele>
        <time>2020-07-26T12:12:10Z</time>
      </trkpt>
      <trkpt lat="42.7702900" lon="0.0452360">
        <ele>1254.6</ele>
        <time>2020-07-26T12:12:12Z</time>
      </trkpt>
      <trkpt lat="42.7703690" lon="0.0450640">
        <ele>1253.4</ele>
        <time>2020-07-26T12:12:14Z</time>
      </trkpt>
      <trkpt lat="42.7704050" lon="0.0449710">
        <ele>1253.2</ele>
        <time>2020-07-26T12:12:15Z</time>
      </trkpt>
      <trkpt lat="42.7707320" lon="0.0444610">
        <ele>1252.6</ele>
        <time>2020-07-26T12:12:20Z</time>
      </trkpt>
      <trkpt lat="42.7707910" lon="0.0443810">
        <ele>1252.2</ele>
        <time>2020-07-26T12:12:22Z</time>
      </trkpt>
      <trkpt lat="42.7708860" lon="0.0442720">
        <ele>1251.8</ele>
        <time>2020-07-26T12:12:23Z</time>
      </trkpt>
      <trkpt lat="42.7709140" lon="0.0442360">
        <ele>1251.2</ele>
        <time>2020-07-26T12:12:24Z</time>
      </trkpt>
      <trkpt lat="42.7710280" lon="0.0440930">
        <ele>1250.2</ele>
        <time>2020-07-26T12:12:26Z</time>
      </trkpt>
      <trkpt lat="42.7710980" lon="0.0440350">
        <ele>1250.0</ele>
        <time>2020-07-26T12:12:27Z</time>
      </trkpt>
      <trkpt lat="42.7713600" lon="0.0438160">
        <ele>1249.0</ele>
        <time>2020-07-26T12:12:31Z</time>
      </trkpt>
      <trkpt lat="42.7714230" lon="0.0437550">
        <ele>1248.8</ele>
        <time>2020-07-26T12:12:32Z</time>
      </trkpt>
      <trkpt lat="42.7717600" lon="0.0434120">
        <ele>1247.4</ele>
        <time>2020-07-26T12:12:36Z</time>
      </trkpt>
      <trkpt lat="42.7718400" lon="0.0433440">
        <ele>1246.0</ele>
        <time>2020-07-26T12:12:38Z</time>
      </trkpt>
      <trkpt lat="42.7720750" lon="0.0431220">
        <ele>1244.6</ele>
        <time>2020-07-26T12:12:41Z</time>
      </trkpt>
      <trkpt lat="42.7722380" lon="0.0429570">
        <ele>1243.4</ele>
        <time>2020-07-26T12:12:43Z</time>
      </trkpt>
      <trkpt lat="42.7723170" lon="0.0428680">
        <ele>1242.6</ele>
        <time>2020-07-26T12:12:44Z</time>
      </trkpt>
      <trkpt lat="42.7723990" lon="0.0427790">
        <ele>1241.6</ele>
        <time>2020-07-26T12:12:45Z</time>
      </trkpt>
      <trkpt lat="42.7725830" lon="0.0426070">
        <ele>1240.4</ele>
        <time>2020-07-26T12:12:47Z</time>
      </trkpt>
      <trkpt lat="42.7726810" lon="0.0425210">
        <ele>1239.8</ele>
        <time>2020-07-26T12:12:48Z</time>
      </trkpt>
      <trkpt lat="42.7728280" lon="0.0423880">
        <ele>1238.8</ele>
        <time>2020-07-26T12:12:49Z</time>
      </trkpt>
      <trkpt lat="42.7728780" lon="0.0423410">
        <ele>1237.6</ele>
        <time>2020-07-26T12:12:50Z</time>
      </trkpt>
      <trkpt lat="42.7729770" lon="0.0422470">
        <ele>1236.6</ele>
        <time>2020-07-26T12:12:51Z</time>
      </trkpt>
      <trkpt lat="42.7730670" lon="0.0421460">
        <ele>1235.4</ele>
        <time>2020-07-26T12:12:52Z</time>
      </trkpt>
      <trkpt lat="42.7731440" lon="0.0420320">
        <ele>1234.2</ele>
        <time>2020-07-26T12:12:53Z</time>
      </trkpt>
      <trkpt lat="42.7732130" lon="0.0419050">
        <ele>1233.2</ele>
        <time>2020-07-26T12:12:54Z</time>
      </trkpt>
      <trkpt lat="42.7733520" lon="0.0416360">
        <ele>1231.6</ele>
        <time>2020-07-26T12:12:56Z</time>
      </trkpt>
      <trkpt lat="42.7734350" lon="0.0415120">
        <ele>1230.6</ele>
        <time>2020-07-26T12:12:57Z</time>
      </trkpt>
      <trkpt lat="42.7735700" lon="0.0413580">
        <ele>1229.6</ele>
        <time>2020-07-26T12:12:58Z</time>
      </trkpt>
      <trkpt lat="42.7738400" lon="0.0410500">
        <ele>1227.2</ele>
        <time>2020-07-26T12:13:00Z</time>
      </trkpt>
      <trkpt lat="42.7738950" lon="0.0409910">
        <ele>1225.2</ele>
        <time>2020-07-26T12:13:01Z</time>
      </trkpt>
      <trkpt lat="42.7739500" lon="0.0409320">
        <ele>1223.6</ele>
        <time>2020-07-26T12:13:02Z</time>
      </trkpt>
      <trkpt lat="42.7740590" lon="0.0408130">
        <ele>1222.2</ele>
        <time>2020-07-26T12:13:03Z</time>
      </trkpt>
      <trkpt lat="42.7741550" lon="0.0406950">
        <ele>1221.0</ele>
        <time>2020-07-26T12:13:04Z</time>
      </trkpt>
      <trkpt lat="42.7742480" lon="0.0405880">
        <ele>1219.8</ele>
        <time>2020-07-26T12:13:05Z</time>
      </trkpt>
      <trkpt lat="42.7743370" lon="0.0404900">
        <ele>1218.2</ele>
        <time>2020-07-26T12:13:06Z</time>
      </trkpt>
      <trkpt lat="42.7744290" lon="0.0403980">
        <ele>1217.0</ele>
        <time>2020-07-26T12:13:07Z</time>
      </trkpt>
      <trkpt lat="42.7746220" lon="0.0401990">
        <ele>1215.0</ele>
        <time>2020-07-26T12:13:09Z</time>
      </trkpt>
      <trkpt lat="42.7747090" lon="0.0400850">
        <ele>1213.8</ele>
        <time>2020-07-26T12:13:10Z</time>
      </trkpt>
      <trkpt lat="42.7747950" lon="0.0399620">
        <ele>1212.8</ele>
        <time>2020-07-26T12:13:11Z</time>
      </trkpt>
      <trkpt lat="42.7749510" lon="0.0396910">
        <ele>1210.6</ele>
        <time>2020-07-26T12:13:13Z</time>
      </trkpt>
      <trkpt lat="42.7750190" lon="0.0395480">
        <ele>1209.2</ele>
        <time>2020-07-26T12:13:14Z</time>
      </trkpt>
      <trkpt lat="42.7750820" lon="0.0393990">
        <ele>1208.2</ele>
        <time>2020-07-26T12:13:15Z</time>
      </trkpt>
      <trkpt lat="42.7751470" lon="0.0392480">
        <ele>1207.6</ele>
        <time>2020-07-26T12:13:16Z</time>
      </trkpt>
      <trkpt lat="42.7752730" lon="0.0389370">
        <ele>1205.0</ele>
        <time>2020-07-26T12:13:18Z</time>
      </trkpt>
      <trkpt lat="42.7753420" lon="0.0387810">
        <ele>1203.4</ele>
        <time>2020-07-26T12:13:19Z</time>
      </trkpt>
      <trkpt lat="42.7754190" lon="0.0386280">
        <ele>1202.2</ele>
        <time>2020-07-26T12:13:20Z</time>
      </trkpt>
      <trkpt lat="42.7754970" lon="0.0384780">
        <ele>1201.4</ele>
        <time>2020-07-26T12:13:21Z</time>
      </trkpt>
      <trkpt lat="42.7755730" lon="0.0383390">
        <ele>1200.4</ele>
        <time>2020-07-26T12:13:22Z</time>
      </trkpt>
      <trkpt lat="42.7756500" lon="0.0382140">
        <ele>1199.0</ele>
        <time>2020-07-26T12:13:23Z</time>
      </trkpt>
      <trkpt lat="42.7757330" lon="0.0381050">
        <ele>1197.4</ele>
        <time>2020-07-26T12:13:24Z</time>
      </trkpt>
      <trkpt lat="42.7758180" lon="0.0380100">
        <ele>1196.2</ele>
        <time>2020-07-26T12:13:25Z</time>
      </trkpt>
      <trkpt lat="42.7759090" lon="0.0379180">
        <ele>1194.8</ele>
        <time>2020-07-26T12:13:26Z</time>
      </trkpt>
      <trkpt lat="42.7759960" lon="0.0378220">
        <ele>1193.4</ele>
        <time>2020-07-26T12:13:27Z</time>
      </trkpt>
      <trkpt lat="42.7760970" lon="0.0377270">
        <ele>1192.4</ele>
        <time>2020-07-26T12:13:28Z</time>
      </trkpt>
      <trkpt lat="42.7761990" lon="0.0376380">
        <ele>1191.6</ele>
        <time>2020-07-26T12:13:29Z</time>
      </trkpt>
      <trkpt lat="42.7763040" lon="0.0375510">
        <ele>1190.8</ele>
        <time>2020-07-26T12:13:30Z</time>
      </trkpt>
      <trkpt lat="42.7765070" lon="0.0373690">
        <ele>1188.6</ele>
        <time>2020-07-26T12:13:32Z</time>
      </trkpt>
      <trkpt lat="42.7766130" lon="0.0372790">
        <ele>1187.6</ele>
        <time>2020-07-26T12:13:33Z</time>
      </trkpt>
      <trkpt lat="42.7768100" lon="0.0370810">
        <ele>1186.2</ele>
        <time>2020-07-26T12:13:35Z</time>
      </trkpt>
      <trkpt lat="42.7769730" lon="0.0368440">
        <ele>1184.6</ele>
        <time>2020-07-26T12:13:37Z</time>
      </trkpt>
      <trkpt lat="42.7771090" lon="0.0365910">
        <ele>1183.6</ele>
        <time>2020-07-26T12:13:39Z</time>
      </trkpt>
      <trkpt lat="42.7771730" lon="0.0364660">
        <ele>1183.2</ele>
        <time>2020-07-26T12:13:40Z</time>
      </trkpt>
      <trkpt lat="42.7773610" lon="0.0361270">
        <ele>1182.4</ele>
        <time>2020-07-26T12:13:43Z</time>
      </trkpt>
      <trkpt lat="42.7775980" lon="0.0359270">
        <ele>1181.8</ele>
        <time>2020-07-26T12:13:46Z</time>
      </trkpt>
      <trkpt lat="42.7777480" lon="0.0357800">
        <ele>1181.4</ele>
        <time>2020-07-26T12:13:48Z</time>
      </trkpt>
      <trkpt lat="42.7778840" lon="0.0356100">
        <ele>1180.8</ele>
        <time>2020-07-26T12:13:50Z</time>
      </trkpt>
      <trkpt lat="42.7779340" lon="0.0355120">
        <ele>1180.8</ele>
        <time>2020-07-26T12:13:51Z</time>
      </trkpt>
      <trkpt lat="42.7781430" lon="0.0351280">
        <ele>1179.4</ele>
        <time>2020-07-26T12:13:55Z</time>
      </trkpt>
      <trkpt lat="42.7781950" lon="0.0350240">
        <ele>1178.6</ele>
        <time>2020-07-26T12:13:56Z</time>
      </trkpt>
      <trkpt lat="42.7782420" lon="0.0349190">
        <ele>1177.8</ele>
        <time>2020-07-26T12:13:57Z</time>
      </trkpt>
      <trkpt lat="42.7783170" lon="0.0347580">
        <ele>1176.6</ele>
        <time>2020-07-26T12:13:59Z</time>
      </trkpt>
      <trkpt lat="42.7783480" lon="0.0346860">
        <ele>1176.2</ele>
        <time>2020-07-26T12:14:01Z</time>
      </trkpt>
      <trkpt lat="42.7782980" lon="0.0345400">
        <ele>1175.8</ele>
        <time>2020-07-26T12:15:00Z</time>
      </trkpt>
      <trkpt lat="42.7783230" lon="0.0344240">
        <ele>1175.6</ele>
        <time>2020-07-26T12:15:02Z</time>
      </trkpt>
      <trkpt lat="42.7783690" lon="0.0342690">
        <ele>1174.4</ele>
        <time>2020-07-26T12:15:04Z</time>
      </trkpt>
      <trkpt lat="42.7784060" lon="0.0341840">
        <ele>1173.8</ele>
        <time>2020-07-26T12:15:05Z</time>
      </trkpt>
      <trkpt lat="42.7784440" lon="0.0340930">
        <ele>1173.2</ele>
        <time>2020-07-26T12:15:06Z</time>
      </trkpt>
      <trkpt lat="42.7785350" lon="0.0339010">
        <ele>1171.2</ele>
        <time>2020-07-26T12:15:08Z</time>
      </trkpt>
      <trkpt lat="42.7785810" lon="0.0337990">
        <ele>1170.2</ele>
        <time>2020-07-26T12:15:09Z</time>
      </trkpt>
      <trkpt lat="42.7786320" lon="0.0336930">
        <ele>1169.2</ele>
        <time>2020-07-26T12:15:10Z</time>
      </trkpt>
      <trkpt lat="42.7787360" lon="0.0334740">
        <ele>1167.6</ele>
        <time>2020-07-26T12:15:12Z</time>
      </trkpt>
      <trkpt lat="42.7788560" lon="0.0332460">
        <ele>1166.4</ele>
        <time>2020-07-26T12:15:14Z</time>
      </trkpt>
      <trkpt lat="42.7789870" lon="0.0330070">
        <ele>1164.4</ele>
        <time>2020-07-26T12:15:16Z</time>
      </trkpt>
      <trkpt lat="42.7791180" lon="0.0327530">
        <ele>1162.2</ele>
        <time>2020-07-26T12:15:18Z</time>
      </trkpt>
      <trkpt lat="42.7791830" lon="0.0326340">
        <ele>1160.8</ele>
        <time>2020-07-26T12:15:19Z</time>
      </trkpt>
      <trkpt lat="42.7792510" lon="0.0325170">
        <ele>1159.8</ele>
        <time>2020-07-26T12:15:20Z</time>
      </trkpt>
      <trkpt lat="42.7794050" lon="0.0322990">
        <ele>1158.4</ele>
        <time>2020-07-26T12:15:22Z</time>
      </trkpt>
      <trkpt lat="42.7795470" lon="0.0321010">
        <ele>1156.8</ele>
        <time>2020-07-26T12:15:24Z</time>
      </trkpt>
      <trkpt lat="42.7796170" lon="0.0320160">
        <ele>1155.6</ele>
        <time>2020-07-26T12:15:25Z</time>
      </trkpt>
      <trkpt lat="42.7797390" lon="0.0318700">
        <ele>1154.2</ele>
        <time>2020-07-26T12:15:27Z</time>
      </trkpt>
      <trkpt lat="42.7797920" lon="0.0317980">
        <ele>1153.8</ele>
        <time>2020-07-26T12:15:28Z</time>
      </trkpt>
      <trkpt lat="42.7798810" lon="0.0316470">
        <ele>1153.2</ele>
        <time>2020-07-26T12:15:30Z</time>
      </trkpt>
      <trkpt lat="42.7800080" lon="0.0313910">
        <ele>1152.6</ele>
        <time>2020-07-26T12:15:33Z</time>
      </trkpt>
      <trkpt lat="42.7800510" lon="0.0312990">
        <ele>1152.2</ele>
        <time>2020-07-26T12:15:34Z</time>
      </trkpt>
      <trkpt lat="42.7801000" lon="0.0312080">
        <ele>1151.6</ele>
        <time>2020-07-26T12:15:35Z</time>
      </trkpt>
      <trkpt lat="42.7801540" lon="0.0311160">
        <ele>1150.8</ele>
        <time>2020-07-26T12:15:36Z</time>
      </trkpt>
      <trkpt lat="42.7802600" lon="0.0309300">
        <ele>1149.4</ele>
        <time>2020-07-26T12:15:38Z</time>
      </trkpt>
      <trkpt lat="42.7803600" lon="0.0307340">
        <ele>1148.8</ele>
        <time>2020-07-26T12:15:40Z</time>
      </trkpt>
      <trkpt lat="42.7804080" lon="0.0306320">
        <ele>1148.4</ele>
        <time>2020-07-26T12:15:41Z</time>
      </trkpt>
      <trkpt lat="42.7805130" lon="0.0304220">
        <ele>1147.4</ele>
        <time>2020-07-26T12:15:43Z</time>
      </trkpt>
      <trkpt lat="42.7805660" lon="0.0303170">
        <ele>1146.8</ele>
        <time>2020-07-26T12:15:44Z</time>
      </trkpt>
      <trkpt lat="42.7807140" lon="0.0299830">
        <ele>1146.0</ele>
        <time>2020-07-26T12:15:47Z</time>
      </trkpt>
      <trkpt lat="42.7807630" lon="0.0298650">
        <ele>1145.6</ele>
        <time>2020-07-26T12:15:48Z</time>
      </trkpt>
      <trkpt lat="42.7810720" lon="0.0293270">
        <ele>1144.4</ele>
        <time>2020-07-26T12:15:53Z</time>
      </trkpt>
      <trkpt lat="42.7813880" lon="0.0289400">
        <ele>1143.4</ele>
        <time>2020-07-26T12:15:57Z</time>
      </trkpt>
      <trkpt lat="42.7814670" lon="0.0288400">
        <ele>1143.2</ele>
        <time>2020-07-26T12:15:58Z</time>
      </trkpt>
      <trkpt lat="42.7816920" lon="0.0285390">
        <ele>1142.0</ele>
        <time>2020-07-26T12:16:01Z</time>
      </trkpt>
      <trkpt lat="42.7818500" lon="0.0283520">
        <ele>1140.6</ele>
        <time>2020-07-26T12:16:03Z</time>
      </trkpt>
      <trkpt lat="42.7820590" lon="0.0280270">
        <ele>1138.6</ele>
        <time>2020-07-26T12:16:05Z</time>
      </trkpt>
      <trkpt lat="42.7821290" lon="0.0279170">
        <ele>1137.4</ele>
        <time>2020-07-26T12:16:06Z</time>
      </trkpt>
      <trkpt lat="42.7822090" lon="0.0278180">
        <ele>1135.8</ele>
        <time>2020-07-26T12:16:08Z</time>
      </trkpt>
      <trkpt lat="42.7823800" lon="0.0276480">
        <ele>1135.2</ele>
        <time>2020-07-26T12:16:09Z</time>
      </trkpt>
      <trkpt lat="42.7824240" lon="0.0276100">
        <ele>1134.8</ele>
        <time>2020-07-26T12:16:10Z</time>
      </trkpt>
      <trkpt lat="42.7824680" lon="0.0275720">
        <ele>1133.6</ele>
        <time>2020-07-26T12:16:11Z</time>
      </trkpt>
      <trkpt lat="42.7825560" lon="0.0274970">
        <ele>1131.8</ele>
        <time>2020-07-26T12:16:12Z</time>
      </trkpt>
      <trkpt lat="42.7826870" lon="0.0273960">
        <ele>1130.4</ele>
        <time>2020-07-26T12:16:13Z</time>
      </trkpt>
      <trkpt lat="42.7827300" lon="0.0273700">
        <ele>1129.2</ele>
        <time>2020-07-26T12:16:14Z</time>
      </trkpt>
      <trkpt lat="42.7829130" lon="0.0273460">
        <ele>1128.0</ele>
        <time>2020-07-26T12:16:16Z</time>
      </trkpt>
      <trkpt lat="42.7831810" lon="0.0274550">
        <ele>1127.8</ele>
        <time>2020-07-26T12:16:19Z</time>
      </trkpt>
      <trkpt lat="42.7833340" lon="0.0274980">
        <ele>1127.2</ele>
        <time>2020-07-26T12:16:21Z</time>
      </trkpt>
      <trkpt lat="42.7834020" lon="0.0274810">
        <ele>1126.8</ele>
        <time>2020-07-26T12:16:22Z</time>
      </trkpt>
      <trkpt lat="42.7834680" lon="0.0274430">
        <ele>1126.4</ele>
        <time>2020-07-26T12:16:23Z</time>
      </trkpt>
      <trkpt lat="42.7835780" lon="0.0273070">
        <ele>1124.8</ele>
        <time>2020-07-26T12:16:25Z</time>
      </trkpt>
      <trkpt lat="42.7836480" lon="0.0271270">
        <ele>1123.4</ele>
        <time>2020-07-26T12:16:27Z</time>
      </trkpt>
      <trkpt lat="42.7836610" lon="0.0270290">
        <ele>1122.8</ele>
        <time>2020-07-26T12:16:28Z</time>
      </trkpt>
      <trkpt lat="42.7836570" lon="0.0269240">
        <ele>1122.6</ele>
        <time>2020-07-26T12:16:29Z</time>
      </trkpt>
      <trkpt lat="42.7836530" lon="0.0268140">
        <ele>1122.4</ele>
        <time>2020-07-26T12:16:30Z</time>
      </trkpt>
      <trkpt lat="42.7836460" lon="0.0266970">
        <ele>1122.2</ele>
        <time>2020-07-26T12:16:31Z</time>
      </trkpt>
      <trkpt lat="42.7836330" lon="0.0264470">
        <ele>1121.2</ele>
        <time>2020-07-26T12:16:33Z</time>
      </trkpt>
      <trkpt lat="42.7836260" lon="0.0261750">
        <ele>1119.2</ele>
        <time>2020-07-26T12:16:35Z</time>
      </trkpt>
      <trkpt lat="42.7836360" lon="0.0260330">
        <ele>1117.8</ele>
        <time>2020-07-26T12:16:36Z</time>
      </trkpt>
      <trkpt lat="42.7836610" lon="0.0258920">
        <ele>1116.0</ele>
        <time>2020-07-26T12:16:37Z</time>
      </trkpt>
      <trkpt lat="42.7836930" lon="0.0257570">
        <ele>1114.2</ele>
        <time>2020-07-26T12:16:38Z</time>
      </trkpt>
      <trkpt lat="42.7837280" lon="0.0256270">
        <ele>1112.6</ele>
        <time>2020-07-26T12:16:39Z</time>
      </trkpt>
      <trkpt lat="42.7837540" lon="0.0255050">
        <ele>1111.6</ele>
        <time>2020-07-26T12:16:40Z</time>
      </trkpt>
      <trkpt lat="42.7837630" lon="0.0253910">
        <ele>1110.8</ele>
        <time>2020-07-26T12:16:41Z</time>
      </trkpt>
      <trkpt lat="42.7837760" lon="0.0252930">
        <ele>1110.6</ele>
        <time>2020-07-26T12:16:42Z</time>
      </trkpt>
      <trkpt lat="42.7838030" lon="0.0252240">
        <ele>1110.2</ele>
        <time>2020-07-26T12:16:43Z</time>
      </trkpt>
      <trkpt lat="42.7838910" lon="0.0251970">
        <ele>1110.0</ele>
        <time>2020-07-26T12:16:45Z</time>
      </trkpt>
      <trkpt lat="42.7839380" lon="0.0253270">
        <ele>1109.8</ele>
        <time>2020-07-26T12:16:47Z</time>
      </trkpt>
      <trkpt lat="42.7839340" lon="0.0255140">
        <ele>1109.4</ele>
        <time>2020-07-26T12:16:49Z</time>
      </trkpt>
      <trkpt lat="42.7839430" lon="0.0256180">
        <ele>1108.8</ele>
        <time>2020-07-26T12:16:50Z</time>
      </trkpt>
      <trkpt lat="42.7839650" lon="0.0257270">
        <ele>1108.2</ele>
        <time>2020-07-26T12:16:51Z</time>
      </trkpt>
      <trkpt lat="42.7840000" lon="0.0258360">
        <ele>1107.4</ele>
        <time>2020-07-26T12:16:52Z</time>
      </trkpt>
      <trkpt lat="42.7840500" lon="0.0259340">
        <ele>1106.4</ele>
        <time>2020-07-26T12:16:53Z</time>
      </trkpt>
      <trkpt lat="42.7841110" lon="0.0260120">
        <ele>1105.4</ele>
        <time>2020-07-26T12:16:54Z</time>
      </trkpt>
      <trkpt lat="42.7841930" lon="0.0260620">
        <ele>1104.0</ele>
        <time>2020-07-26T12:16:55Z</time>
      </trkpt>
      <trkpt lat="42.7842900" lon="0.0260920">
        <ele>1102.2</ele>
        <time>2020-07-26T12:16:56Z</time>
      </trkpt>
      <trkpt lat="42.7843780" lon="0.0261280">
        <ele>1100.8</ele>
        <time>2020-07-26T12:16:57Z</time>
      </trkpt>
      <trkpt lat="42.7844560" lon="0.0261820">
        <ele>1100.0</ele>
        <time>2020-07-26T12:16:58Z</time>
      </trkpt>
      <trkpt lat="42.7845140" lon="0.0262640">
        <ele>1099.2</ele>
        <time>2020-07-26T12:16:59Z</time>
      </trkpt>
      <trkpt lat="42.7845660" lon="0.0263560">
        <ele>1098.6</ele>
        <time>2020-07-26T12:17:00Z</time>
      </trkpt>
      <trkpt lat="42.7846150" lon="0.0264390">
        <ele>1097.8</ele>
        <time>2020-07-26T12:17:01Z</time>
      </trkpt>
      <trkpt lat="42.7846650" lon="0.0264910">
        <ele>1097.4</ele>
        <time>2020-07-26T12:17:02Z</time>
      </trkpt>
      <trkpt lat="42.7847390" lon="0.0264820">
        <ele>1096.6</ele>
        <time>2020-07-26T12:17:04Z</time>
      </trkpt>
      <trkpt lat="42.7847410" lon="0.0263260">
        <ele>1095.8</ele>
        <time>2020-07-26T12:17:06Z</time>
      </trkpt>
      <trkpt lat="42.7847190" lon="0.0262340">
        <ele>1095.2</ele>
        <time>2020-07-26T12:17:07Z</time>
      </trkpt>
      <trkpt lat="42.7846330" lon="0.0259130">
        <ele>1093.8</ele>
        <time>2020-07-26T12:17:10Z</time>
      </trkpt>
      <trkpt lat="42.7845650" lon="0.0256720">
        <ele>1092.0</ele>
        <time>2020-07-26T12:17:12Z</time>
      </trkpt>
      <trkpt lat="42.7844940" lon="0.0254110">
        <ele>1090.4</ele>
        <time>2020-07-26T12:17:14Z</time>
      </trkpt>
      <trkpt lat="42.7844700" lon="0.0252870">
        <ele>1089.8</ele>
        <time>2020-07-26T12:17:15Z</time>
      </trkpt>
      <trkpt lat="42.7844620" lon="0.0251670">
        <ele>1089.0</ele>
        <time>2020-07-26T12:17:16Z</time>
      </trkpt>
      <trkpt lat="42.7844710" lon="0.0250480">
        <ele>1087.8</ele>
        <time>2020-07-26T12:17:17Z</time>
      </trkpt>
      <trkpt lat="42.7844970" lon="0.0249350">
        <ele>1086.6</ele>
        <time>2020-07-26T12:17:18Z</time>
      </trkpt>
      <trkpt lat="42.7845350" lon="0.0248330">
        <ele>1085.8</ele>
        <time>2020-07-26T12:17:19Z</time>
      </trkpt>
      <trkpt lat="42.7845800" lon="0.0247350">
        <ele>1084.8</ele>
        <time>2020-07-26T12:17:20Z</time>
      </trkpt>
      <trkpt lat="42.7846270" lon="0.0246350">
        <ele>1083.8</ele>
        <time>2020-07-26T12:17:21Z</time>
      </trkpt>
      <trkpt lat="42.7846680" lon="0.0245280">
        <ele>1082.6</ele>
        <time>2020-07-26T12:17:22Z</time>
      </trkpt>
      <trkpt lat="42.7847160" lon="0.0242830">
        <ele>1081.0</ele>
        <time>2020-07-26T12:17:24Z</time>
      </trkpt>
      <trkpt lat="42.7847320" lon="0.0241540">
        <ele>1080.0</ele>
        <time>2020-07-26T12:17:25Z</time>
      </trkpt>
      <trkpt lat="42.7847370" lon="0.0240260">
        <ele>1078.4</ele>
        <time>2020-07-26T12:17:26Z</time>
      </trkpt>
      <trkpt lat="42.7847290" lon="0.0238980">
        <ele>1077.0</ele>
        <time>2020-07-26T12:17:27Z</time>
      </trkpt>
      <trkpt lat="42.7846920" lon="0.0237730">
        <ele>1076.0</ele>
        <time>2020-07-26T12:17:28Z</time>
      </trkpt>
      <trkpt lat="42.7846340" lon="0.0236450">
        <ele>1074.8</ele>
        <time>2020-07-26T12:17:29Z</time>
      </trkpt>
      <trkpt lat="42.7845780" lon="0.0235210">
        <ele>1073.8</ele>
        <time>2020-07-26T12:17:30Z</time>
      </trkpt>
      <trkpt lat="42.7845220" lon="0.0233940">
        <ele>1072.8</ele>
        <time>2020-07-26T12:17:31Z</time>
      </trkpt>
      <trkpt lat="42.7844800" lon="0.0232560">
        <ele>1072.2</ele>
        <time>2020-07-26T12:17:32Z</time>
      </trkpt>
      <trkpt lat="42.7844070" lon="0.0229590">
        <ele>1070.4</ele>
        <time>2020-07-26T12:17:34Z</time>
      </trkpt>
      <trkpt lat="42.7843790" lon="0.0228060">
        <ele>1069.4</ele>
        <time>2020-07-26T12:17:35Z</time>
      </trkpt>
      <trkpt lat="42.7843520" lon="0.0226570">
        <ele>1068.0</ele>
        <time>2020-07-26T12:17:36Z</time>
      </trkpt>
      <trkpt lat="42.7843270" lon="0.0225130">
        <ele>1066.8</ele>
        <time>2020-07-26T12:17:37Z</time>
      </trkpt>
      <trkpt lat="42.7842660" lon="0.0222490">
        <ele>1065.0</ele>
        <time>2020-07-26T12:17:39Z</time>
      </trkpt>
      <trkpt lat="42.7841840" lon="0.0220100">
        <ele>1063.0</ele>
        <time>2020-07-26T12:17:41Z</time>
      </trkpt>
      <trkpt lat="42.7840700" lon="0.0217850">
        <ele>1061.4</ele>
        <time>2020-07-26T12:17:43Z</time>
      </trkpt>
      <trkpt lat="42.7839610" lon="0.0215810">
        <ele>1060.0</ele>
        <time>2020-07-26T12:17:45Z</time>
      </trkpt>
      <trkpt lat="42.7838650" lon="0.0214090">
        <ele>1058.8</ele>
        <time>2020-07-26T12:17:47Z</time>
      </trkpt>
      <trkpt lat="42.7838200" lon="0.0213330">
        <ele>1058.6</ele>
        <time>2020-07-26T12:17:48Z</time>
      </trkpt>
      <trkpt lat="42.7836900" lon="0.0211230">
        <ele>1057.2</ele>
        <time>2020-07-26T12:17:51Z</time>
      </trkpt>
      <trkpt lat="42.7836160" lon="0.0210250">
        <ele>1056.4</ele>
        <time>2020-07-26T12:17:53Z</time>
      </trkpt>
      <trkpt lat="42.7835880" lon="0.0209920">
        <ele>1056.2</ele>
        <time>2020-07-26T12:17:54Z</time>
      </trkpt>
      <trkpt lat="42.7835190" lon="0.0209500">
        <ele>1055.4</ele>
        <time>2020-07-26T12:17:57Z</time>
      </trkpt>
      <trkpt lat="42.7834680" lon="0.0209220">
        <ele>1055.2</ele>
        <time>2020-07-26T12:17:59Z</time>
      </trkpt>
      <trkpt lat="42.7834330" lon="0.0208980">
        <ele>1055.0</ele>
        <time>2020-07-26T12:18:01Z</time>
      </trkpt>
      <trkpt lat="42.7834200" lon="0.0208840">
        <ele>1055.0</ele>
        <time>2020-07-26T12:18:02Z</time>
      </trkpt>
      <trkpt lat="42.7833950" lon="0.0208400">
        <ele>1054.8</ele>
        <time>2020-07-26T12:18:05Z</time>
      </trkpt>
      <trkpt lat="42.7834140" lon="0.0208000">
        <ele>1054.8</ele>
        <time>2020-07-26T12:18:07Z</time>
      </trkpt>
      <trkpt lat="42.7835000" lon="0.0208460">
        <ele>1054.0</ele>
        <time>2020-07-26T12:18:10Z</time>
      </trkpt>
      <trkpt lat="42.7836170" lon="0.0209640">
        <ele>1052.8</ele>
        <time>2020-07-26T12:18:13Z</time>
      </trkpt>
      <trkpt lat="42.7836640" lon="0.0210090">
        <ele>1052.6</ele>
        <time>2020-07-26T12:18:14Z</time>
      </trkpt>
      <trkpt lat="42.7838190" lon="0.0211640">
        <ele>1052.4</ele>
        <time>2020-07-26T12:18:17Z</time>
      </trkpt>
      <trkpt lat="42.7839220" lon="0.0212590">
        <ele>1051.4</ele>
        <time>2020-07-26T12:18:19Z</time>
      </trkpt>
      <trkpt lat="42.7840200" lon="0.0213520">
        <ele>1050.4</ele>
        <time>2020-07-26T12:18:21Z</time>
      </trkpt>
      <trkpt lat="42.7840710" lon="0.0214010">
        <ele>1050.0</ele>
        <time>2020-07-26T12:18:22Z</time>
      </trkpt>
      <trkpt lat="42.7841890" lon="0.0215090">
        <ele>1049.4</ele>
        <time>2020-07-26T12:18:24Z</time>
      </trkpt>
      <trkpt lat="42.7842490" lon="0.0215660">
        <ele>1049.0</ele>
        <time>2020-07-26T12:18:25Z</time>
      </trkpt>
      <trkpt lat="42.7843100" lon="0.0216200">
        <ele>1048.6</ele>
        <time>2020-07-26T12:18:26Z</time>
      </trkpt>
      <trkpt lat="42.7845660" lon="0.0218360">
        <ele>1047.6</ele>
        <time>2020-07-26T12:18:30Z</time>
      </trkpt>
      <trkpt lat="42.7846890" lon="0.0219520">
        <ele>1047.0</ele>
        <time>2020-07-26T12:18:32Z</time>
      </trkpt>
      <trkpt lat="42.7848190" lon="0.0220790">
        <ele>1046.4</ele>
        <time>2020-07-26T12:18:34Z</time>
      </trkpt>
      <trkpt lat="42.7849580" lon="0.0222130">
        <ele>1045.2</ele>
        <time>2020-07-26T12:18:36Z</time>
      </trkpt>
      <trkpt lat="42.7851010" lon="0.0223520">
        <ele>1043.8</ele>
        <time>2020-07-26T12:18:38Z</time>
      </trkpt>
      <trkpt lat="42.7851710" lon="0.0224190">
        <ele>1043.4</ele>
        <time>2020-07-26T12:18:39Z</time>
      </trkpt>
      <trkpt lat="42.7853090" lon="0.0225490">
        <ele>1042.4</ele>
        <time>2020-07-26T12:18:41Z</time>
      </trkpt>
      <trkpt lat="42.7854900" lon="0.0227550">
        <ele>1041.2</ele>
        <time>2020-07-26T12:18:44Z</time>
      </trkpt>
      <trkpt lat="42.7855370" lon="0.0228290">
        <ele>1041.0</ele>
        <time>2020-07-26T12:18:45Z</time>
      </trkpt>
      <trkpt lat="42.7856320" lon="0.0230540">
        <ele>1040.4</ele>
        <time>2020-07-26T12:18:48Z</time>
      </trkpt>
      <trkpt lat="42.7856510" lon="0.0231330">
        <ele>1040.2</ele>
        <time>2020-07-26T12:18:49Z</time>
      </trkpt>
      <trkpt lat="42.7856830" lon="0.0232880">
        <ele>1040.0</ele>
        <time>2020-07-26T12:18:51Z</time>
      </trkpt>
      <trkpt lat="42.7857000" lon="0.0233600">
        <ele>1040.0</ele>
        <time>2020-07-26T12:18:52Z</time>
      </trkpt>
      <trkpt lat="42.7857510" lon="0.0234690">
        <ele>1039.8</ele>
        <time>2020-07-26T12:18:54Z</time>
      </trkpt>
      <trkpt lat="42.7858250" lon="0.0235070">
        <ele>1039.8</ele>
        <time>2020-07-26T12:18:56Z</time>
      </trkpt>
      <trkpt lat="42.7858670" lon="0.0235030">
        <ele>1039.8</ele>
        <time>2020-07-26T12:18:57Z</time>
      </trkpt>
      <trkpt lat="42.7859100" lon="0.0234860">
        <ele>1039.8</ele>
        <time>2020-07-26T12:18:58Z</time>
      </trkpt>
      <trkpt lat="42.7859630" lon="0.0233890">
        <ele>1039.6</ele>
        <time>2020-07-26T12:19:00Z</time>
      </trkpt>
      <trkpt lat="42.7859470" lon="0.0232410">
        <ele>1039.4</ele>
        <time>2020-07-26T12:19:02Z</time>
      </trkpt>
      <trkpt lat="42.7859140" lon="0.0231630">
        <ele>1039.2</ele>
        <time>2020-07-26T12:19:03Z</time>
      </trkpt>
      <trkpt lat="42.7858780" lon="0.0230830">
        <ele>1039.2</ele>
        <time>2020-07-26T12:19:04Z</time>
      </trkpt>
      <trkpt lat="42.7857150" lon="0.0227590">
        <ele>1039.0</ele>
        <time>2020-07-26T12:19:08Z</time>
      </trkpt>
      <trkpt lat="42.7856790" lon="0.0226770">
        <ele>1038.8</ele>
        <time>2020-07-26T12:19:09Z</time>
      </trkpt>
      <trkpt lat="42.7856130" lon="0.0225090">
        <ele>1037.8</ele>
        <time>2020-07-26T12:19:11Z</time>
      </trkpt>
      <trkpt lat="42.7855010" lon="0.0222590">
        <ele>1036.8</ele>
        <time>2020-07-26T12:19:14Z</time>
      </trkpt>
      <trkpt lat="42.7854100" lon="0.0220850">
        <ele>1036.4</ele>
        <time>2020-07-26T12:19:16Z</time>
      </trkpt>
      <trkpt lat="42.7852960" lon="0.0219030">
        <ele>1035.0</ele>
        <time>2020-07-26T12:19:18Z</time>
      </trkpt>
      <trkpt lat="42.7852340" lon="0.0218120">
        <ele>1034.2</ele>
        <time>2020-07-26T12:19:19Z</time>
      </trkpt>
      <trkpt lat="42.7851710" lon="0.0217230">
        <ele>1033.6</ele>
        <time>2020-07-26T12:19:20Z</time>
      </trkpt>
      <trkpt lat="42.7849940" lon="0.0214850">
        <ele>1032.4</ele>
        <time>2020-07-26T12:19:23Z</time>
      </trkpt>
      <trkpt lat="42.7849400" lon="0.0214110">
        <ele>1032.0</ele>
        <time>2020-07-26T12:19:24Z</time>
      </trkpt>
      <trkpt lat="42.7848290" lon="0.0212620">
        <ele>1031.0</ele>
        <time>2020-07-26T12:19:26Z</time>
      </trkpt>
      <trkpt lat="42.7846560" lon="0.0210230">
        <ele>1029.6</ele>
        <time>2020-07-26T12:19:29Z</time>
      </trkpt>
      <trkpt lat="42.7845260" lon="0.0208590">
        <ele>1028.4</ele>
        <time>2020-07-26T12:19:31Z</time>
      </trkpt>
      <trkpt lat="42.7843900" lon="0.0206850">
        <ele>1027.2</ele>
        <time>2020-07-26T12:19:33Z</time>
      </trkpt>
      <trkpt lat="42.7841940" lon="0.0204170">
        <ele>1026.0</ele>
        <time>2020-07-26T12:19:36Z</time>
      </trkpt>
      <trkpt lat="42.7840700" lon="0.0202390">
        <ele>1025.2</ele>
        <time>2020-07-26T12:19:38Z</time>
      </trkpt>
      <trkpt lat="42.7840110" lon="0.0201500">
        <ele>1024.8</ele>
        <time>2020-07-26T12:19:39Z</time>
      </trkpt>
      <trkpt lat="42.7838440" lon="0.0198870">
        <ele>1023.2</ele>
        <time>2020-07-26T12:19:42Z</time>
      </trkpt>
      <trkpt lat="42.7837460" lon="0.0197050">
        <ele>1022.0</ele>
        <time>2020-07-26T12:19:44Z</time>
      </trkpt>
      <trkpt lat="42.7836210" lon="0.0194170">
        <ele>1020.8</ele>
        <time>2020-07-26T12:19:47Z</time>
      </trkpt>
      <trkpt lat="42.7834960" lon="0.0191340">
        <ele>1019.8</ele>
        <time>2020-07-26T12:19:50Z</time>
      </trkpt>
      <trkpt lat="42.7834570" lon="0.0190460">
        <ele>1019.8</ele>
        <time>2020-07-26T12:19:51Z</time>
      </trkpt>
      <trkpt lat="42.7833470" lon="0.0188430">
        <ele>1019.2</ele>
        <time>2020-07-26T12:19:54Z</time>
      </trkpt>
      <trkpt lat="42.7831520" lon="0.0185480">
        <ele>1019.0</ele>
        <time>2020-07-26T12:20:00Z</time>
      </trkpt>
      <trkpt lat="42.7830880" lon="0.0183700">
        <ele>1018.8</ele>
        <time>2020-07-26T12:20:04Z</time>
      </trkpt>
      <trkpt lat="42.7830990" lon="0.0183240">
        <ele>1018.6</ele>
        <time>2020-07-26T12:20:05Z</time>
      </trkpt>
      <trkpt lat="42.7831280" lon="0.0182870">
        <ele>1018.6</ele>
        <time>2020-07-26T12:20:06Z</time>
      </trkpt>
      <trkpt lat="42.7831680" lon="0.0182640">
        <ele>1018.6</ele>
        <time>2020-07-26T12:20:07Z</time>
      </trkpt>
      <trkpt lat="42.7832150" lon="0.0182610">
        <ele>1018.6</ele>
        <time>2020-07-26T12:20:08Z</time>
      </trkpt>
      <trkpt lat="42.7832940" lon="0.0183270">
        <ele>1018.0</ele>
        <time>2020-07-26T12:20:10Z</time>
      </trkpt>
      <trkpt lat="42.7833580" lon="0.0184550">
        <ele>1017.2</ele>
        <time>2020-07-26T12:20:12Z</time>
      </trkpt>
      <trkpt lat="42.7834230" lon="0.0185970">
        <ele>1015.8</ele>
        <time>2020-07-26T12:20:14Z</time>
      </trkpt>
      <trkpt lat="42.7835510" lon="0.0188820">
        <ele>1014.8</ele>
        <time>2020-07-26T12:20:18Z</time>
      </trkpt>
      <trkpt lat="42.7837150" lon="0.0191270">
        <ele>1014.0</ele>
        <time>2020-07-26T12:20:22Z</time>
      </trkpt>
      <trkpt lat="42.7837640" lon="0.0191780">
        <ele>1013.6</ele>
        <time>2020-07-26T12:20:23Z</time>
      </trkpt>
      <trkpt lat="42.7839860" lon="0.0193870">
        <ele>1012.2</ele>
        <time>2020-07-26T12:20:27Z</time>
      </trkpt>
      <trkpt lat="42.7840460" lon="0.0194360">
        <ele>1011.8</ele>
        <time>2020-07-26T12:20:28Z</time>
      </trkpt>
      <trkpt lat="42.7841640" lon="0.0195330">
        <ele>1011.0</ele>
        <time>2020-07-26T12:20:30Z</time>
      </trkpt>
      <trkpt lat="42.7843600" lon="0.0197370">
        <ele>1010.6</ele>
        <time>2020-07-26T12:20:34Z</time>
      </trkpt>
      <trkpt lat="42.7844610" lon="0.0198430">
        <ele>1010.0</ele>
        <time>2020-07-26T12:20:36Z</time>
      </trkpt>
      <trkpt lat="42.7846990" lon="0.0200490">
        <ele>1009.0</ele>
        <time>2020-07-26T12:20:40Z</time>
      </trkpt>
      <trkpt lat="42.7847660" lon="0.0200980">
        <ele>1008.4</ele>
        <time>2020-07-26T12:20:41Z</time>
      </trkpt>
      <trkpt lat="42.7848340" lon="0.0201480">
        <ele>1007.2</ele>
        <time>2020-07-26T12:20:42Z</time>
      </trkpt>
      <trkpt lat="42.7849020" lon="0.0201960">
        <ele>1006.0</ele>
        <time>2020-07-26T12:20:43Z</time>
      </trkpt>
      <trkpt lat="42.7849700" lon="0.0202380">
        <ele>1004.8</ele>
        <time>2020-07-26T12:20:44Z</time>
      </trkpt>
      <trkpt lat="42.7850390" lon="0.0202680">
        <ele>1004.2</ele>
        <time>2020-07-26T12:20:45Z</time>
      </trkpt>
      <trkpt lat="42.7851080" lon="0.0202810">
        <ele>1003.6</ele>
        <time>2020-07-26T12:20:46Z</time>
      </trkpt>
      <trkpt lat="42.7851770" lon="0.0202810">
        <ele>1003.0</ele>
        <time>2020-07-26T12:20:47Z</time>
      </trkpt>
      <trkpt lat="42.7852480" lon="0.0202730">
        <ele>1002.6</ele>
        <time>2020-07-26T12:20:48Z</time>
      </trkpt>
      <trkpt lat="42.7853220" lon="0.0202580">
        <ele>1002.4</ele>
        <time>2020-07-26T12:20:49Z</time>
      </trkpt>
      <trkpt lat="42.7854590" lon="0.0202210">
        <ele>1002.2</ele>
        <time>2020-07-26T12:20:51Z</time>
      </trkpt>
      <trkpt lat="42.7855220" lon="0.0202050">
        <ele>1002.2</ele>
        <time>2020-07-26T12:20:52Z</time>
      </trkpt>
      <trkpt lat="42.7856450" lon="0.0201880">
        <ele>1002.0</ele>
        <time>2020-07-26T12:20:54Z</time>
      </trkpt>
      <trkpt lat="42.7857640" lon="0.0201810">
        <ele>1001.8</ele>
        <time>2020-07-26T12:20:56Z</time>
      </trkpt>
      <trkpt lat="42.7858720" lon="0.0201850">
        <ele>1001.4</ele>
        <time>2020-07-26T12:20:58Z</time>
      </trkpt>
      <trkpt lat="42.7859220" lon="0.0201950">
        <ele>1000.8</ele>
        <time>2020-07-26T12:20:59Z</time>
      </trkpt>
      <trkpt lat="42.7859710" lon="0.0202120">
        <ele>1000.2</ele>
        <time>2020-07-26T12:21:00Z</time>
      </trkpt>
      <trkpt lat="42.7860200" lon="0.0202360">
        <ele>999.8</ele>
        <time>2020-07-26T12:21:01Z</time>
      </trkpt>
      <trkpt lat="42.7861790" lon="0.0203230">
        <ele>999.2</ele>
        <time>2020-07-26T12:21:04Z</time>
      </trkpt>
      <trkpt lat="42.7862310" lon="0.0203610">
        <ele>999.0</ele>
        <time>2020-07-26T12:21:05Z</time>
      </trkpt>
      <trkpt lat="42.7863270" lon="0.0204610">
        <ele>998.8</ele>
        <time>2020-07-26T12:21:07Z</time>
      </trkpt>
      <trkpt lat="42.7864340" lon="0.0206580">
        <ele>997.8</ele>
        <time>2020-07-26T12:21:10Z</time>
      </trkpt>
      <trkpt lat="42.7864880" lon="0.0207930">
        <ele>997.0</ele>
        <time>2020-07-26T12:21:12Z</time>
      </trkpt>
      <trkpt lat="42.7865130" lon="0.0208580">
        <ele>996.6</ele>
        <time>2020-07-26T12:21:13Z</time>
      </trkpt>
      <trkpt lat="42.7866180" lon="0.0210860">
        <ele>996.2</ele>
        <time>2020-07-26T12:21:17Z</time>
      </trkpt>
      <trkpt lat="42.7866510" lon="0.0211350">
        <ele>996.2</ele>
        <time>2020-07-26T12:21:18Z</time>
      </trkpt>
      <trkpt lat="42.7866870" lon="0.0211820">
        <ele>996.0</ele>
        <time>2020-07-26T12:21:19Z</time>
      </trkpt>
      <trkpt lat="42.7867750" lon="0.0212450">
        <ele>995.8</ele>
        <time>2020-07-26T12:21:21Z</time>
      </trkpt>
      <trkpt lat="42.7868200" lon="0.0212710">
        <ele>995.4</ele>
        <time>2020-07-26T12:21:22Z</time>
      </trkpt>
      <trkpt lat="42.7868660" lon="0.0212860">
        <ele>995.2</ele>
        <time>2020-07-26T12:21:23Z</time>
      </trkpt>
      <trkpt lat="42.7869580" lon="0.0212950">
        <ele>995.0</ele>
        <time>2020-07-26T12:21:25Z</time>
      </trkpt>
      <trkpt lat="42.7870040" lon="0.0212740">
        <ele>995.2</ele>
        <time>2020-07-26T12:21:26Z</time>
      </trkpt>
      <trkpt lat="42.7870450" lon="0.0212360">
        <ele>995.6</ele>
        <time>2020-07-26T12:21:27Z</time>
      </trkpt>
      <trkpt lat="42.7871300" lon="0.0211370">
        <ele>995.8</ele>
        <time>2020-07-26T12:21:29Z</time>
      </trkpt>
      <trkpt lat="42.7871680" lon="0.0210810">
        <ele>996.0</ele>
        <time>2020-07-26T12:21:30Z</time>
      </trkpt>
      <trkpt lat="42.7871980" lon="0.0210180">
        <ele>996.0</ele>
        <time>2020-07-26T12:21:31Z</time>
      </trkpt>
      <trkpt lat="42.7872750" lon="0.0207950">
        <ele>995.4</ele>
        <time>2020-07-26T12:21:34Z</time>
      </trkpt>
      <trkpt lat="42.7873070" lon="0.0206270">
        <ele>994.0</ele>
        <time>2020-07-26T12:21:36Z</time>
      </trkpt>
      <trkpt lat="42.7873490" lon="0.0203920">
        <ele>993.2</ele>
        <time>2020-07-26T12:21:39Z</time>
      </trkpt>
      <trkpt lat="42.7873640" lon="0.0203220">
        <ele>993.2</ele>
        <time>2020-07-26T12:21:40Z</time>
      </trkpt>
      <trkpt lat="42.7874430" lon="0.0200850">
        <ele>993.4</ele>
        <time>2020-07-26T12:21:44Z</time>
      </trkpt>
      <trkpt lat="42.7875200" lon="0.0198700">
        <ele>993.0</ele>
        <time>2020-07-26T12:21:48Z</time>
      </trkpt>
      <trkpt lat="42.7875780" lon="0.0197780">
        <ele>992.2</ele>
        <time>2020-07-26T12:21:50Z</time>
      </trkpt>
      <trkpt lat="42.7876190" lon="0.0197350">
        <ele>991.8</ele>
        <time>2020-07-26T12:21:51Z</time>
      </trkpt>
      <trkpt lat="42.7877100" lon="0.0196540">
        <ele>991.2</ele>
        <time>2020-07-26T12:21:53Z</time>
      </trkpt>
      <trkpt lat="42.7877610" lon="0.0196150">
        <ele>990.8</ele>
        <time>2020-07-26T12:21:54Z</time>
      </trkpt>
      <trkpt lat="42.7878620" lon="0.0195430">
        <ele>989.8</ele>
        <time>2020-07-26T12:21:56Z</time>
      </trkpt>
      <trkpt lat="42.7879030" lon="0.0195140">
        <ele>989.4</ele>
        <time>2020-07-26T12:21:57Z</time>
      </trkpt>
      <trkpt lat="42.7880130" lon="0.0194390">
        <ele>988.8</ele>
        <time>2020-07-26T12:22:00Z</time>
      </trkpt>
      <trkpt lat="42.7881130" lon="0.0193880">
        <ele>988.2</ele>
        <time>2020-07-26T12:22:03Z</time>
      </trkpt>
      <trkpt lat="42.7881750" lon="0.0193860">
        <ele>987.6</ele>
        <time>2020-07-26T12:22:05Z</time>
      </trkpt>
      <trkpt lat="42.7882040" lon="0.0193850">
        <ele>987.4</ele>
        <time>2020-07-26T12:22:06Z</time>
      </trkpt>
      <trkpt lat="42.7883320" lon="0.0193920">
        <ele>987.6</ele>
        <time>2020-07-26T12:22:09Z</time>
      </trkpt>
      <trkpt lat="42.7884040" lon="0.0194290">
        <ele>987.6</ele>
        <time>2020-07-26T12:22:10Z</time>
      </trkpt>
      <trkpt lat="42.7887350" lon="0.0195480">
        <ele>987.4</ele>
        <time>2020-07-26T12:22:14Z</time>
      </trkpt>
      <trkpt lat="42.7888190" lon="0.0195460">
        <ele>987.2</ele>
        <time>2020-07-26T12:22:15Z</time>
      </trkpt>
      <trkpt lat="42.7889020" lon="0.0195290">
        <ele>987.0</ele>
        <time>2020-07-26T12:22:16Z</time>
      </trkpt>
      <trkpt lat="42.7890610" lon="0.0194600">
        <ele>987.2</ele>
        <time>2020-07-26T12:22:18Z</time>
      </trkpt>
      <trkpt lat="42.7895320" lon="0.0191760">
        <ele>987.6</ele>
        <time>2020-07-26T12:22:24Z</time>
      </trkpt>
      <trkpt lat="42.7897730" lon="0.0188470">
        <ele>988.2</ele>
        <time>2020-07-26T12:22:28Z</time>
      </trkpt>
      <trkpt lat="42.7899310" lon="0.0185500">
        <ele>988.0</ele>
        <time>2020-07-26T12:22:31Z</time>
      </trkpt>
      <trkpt lat="42.7900410" lon="0.0183670">
        <ele>987.0</ele>
        <time>2020-07-26T12:22:33Z</time>
      </trkpt>
      <trkpt lat="42.7901020" lon="0.0182810">
        <ele>986.8</ele>
        <time>2020-07-26T12:22:34Z</time>
      </trkpt>
      <trkpt lat="42.7902320" lon="0.0181210">
        <ele>987.2</ele>
        <time>2020-07-26T12:22:36Z</time>
      </trkpt>
      <trkpt lat="42.7903920" lon="0.0179920">
        <ele>987.2</ele>
        <time>2020-07-26T12:22:38Z</time>
      </trkpt>
      <trkpt lat="42.7908040" lon="0.0177320">
        <ele>985.8</ele>
        <time>2020-07-26T12:22:43Z</time>
      </trkpt>
      <trkpt lat="42.7909820" lon="0.0176940">
        <ele>984.8</ele>
        <time>2020-07-26T12:22:45Z</time>
      </trkpt>
      <trkpt lat="42.7910700" lon="0.0177000">
        <ele>984.4</ele>
        <time>2020-07-26T12:22:46Z</time>
      </trkpt>
      <trkpt lat="42.7911590" lon="0.0177300">
        <ele>983.8</ele>
        <time>2020-07-26T12:22:47Z</time>
      </trkpt>
      <trkpt lat="42.7912470" lon="0.0177760">
        <ele>983.2</ele>
        <time>2020-07-26T12:22:48Z</time>
      </trkpt>
      <trkpt lat="42.7913300" lon="0.0178380">
        <ele>982.6</ele>
        <time>2020-07-26T12:22:49Z</time>
      </trkpt>
      <trkpt lat="42.7914810" lon="0.0179920">
        <ele>981.8</ele>
        <time>2020-07-26T12:22:51Z</time>
      </trkpt>
      <trkpt lat="42.7916120" lon="0.0181960">
        <ele>981.0</ele>
        <time>2020-07-26T12:22:53Z</time>
      </trkpt>
      <trkpt lat="42.7916740" lon="0.0183090">
        <ele>980.6</ele>
        <time>2020-07-26T12:22:54Z</time>
      </trkpt>
      <trkpt lat="42.7918110" lon="0.0185330">
        <ele>979.6</ele>
        <time>2020-07-26T12:22:56Z</time>
      </trkpt>
      <trkpt lat="42.7918940" lon="0.0186320">
        <ele>978.6</ele>
        <time>2020-07-26T12:22:57Z</time>
      </trkpt>
      <trkpt lat="42.7919850" lon="0.0187170">
        <ele>977.8</ele>
        <time>2020-07-26T12:22:58Z</time>
      </trkpt>
      <trkpt lat="42.7920790" lon="0.0187920">
        <ele>977.4</ele>
        <time>2020-07-26T12:22:59Z</time>
      </trkpt>
      <trkpt lat="42.7922600" lon="0.0189370">
        <ele>976.8</ele>
        <time>2020-07-26T12:23:01Z</time>
      </trkpt>
      <trkpt lat="42.7923540" lon="0.0190020">
        <ele>976.8</ele>
        <time>2020-07-26T12:23:02Z</time>
      </trkpt>
      <trkpt lat="42.7924490" lon="0.0190650">
        <ele>977.0</ele>
        <time>2020-07-26T12:23:03Z</time>
      </trkpt>
      <trkpt lat="42.7925450" lon="0.0191220">
        <ele>977.8</ele>
        <time>2020-07-26T12:23:04Z</time>
      </trkpt>
      <trkpt lat="42.7926420" lon="0.0191720">
        <ele>978.4</ele>
        <time>2020-07-26T12:23:05Z</time>
      </trkpt>
      <trkpt lat="42.7927390" lon="0.0192100">
        <ele>978.8</ele>
        <time>2020-07-26T12:23:06Z</time>
      </trkpt>
      <trkpt lat="42.7929350" lon="0.0192510">
        <ele>978.8</ele>
        <time>2020-07-26T12:23:07Z</time>
      </trkpt>
      <trkpt lat="42.7931350" lon="0.0192530">
        <ele>978.6</ele>
        <time>2020-07-26T12:23:09Z</time>
      </trkpt>
      <trkpt lat="42.7935360" lon="0.0191320">
        <ele>977.0</ele>
        <time>2020-07-26T12:23:13Z</time>
      </trkpt>
      <trkpt lat="42.7940190" lon="0.0188740">
        <ele>976.6</ele>
        <time>2020-07-26T12:23:19Z</time>
      </trkpt>
      <trkpt lat="42.7941140" lon="0.0188140">
        <ele>976.4</ele>
        <time>2020-07-26T12:23:20Z</time>
      </trkpt>
      <trkpt lat="42.7942910" lon="0.0186700">
        <ele>976.0</ele>
        <time>2020-07-26T12:23:22Z</time>
      </trkpt>
      <trkpt lat="42.7944360" lon="0.0184530">
        <ele>974.8</ele>
        <time>2020-07-26T12:23:24Z</time>
      </trkpt>
      <trkpt lat="42.7945420" lon="0.0181990">
        <ele>973.8</ele>
        <time>2020-07-26T12:23:26Z</time>
      </trkpt>
      <trkpt lat="42.7946080" lon="0.0180980">
        <ele>973.4</ele>
        <time>2020-07-26T12:23:27Z</time>
      </trkpt>
      <trkpt lat="42.7947770" lon="0.0179910">
        <ele>973.2</ele>
        <time>2020-07-26T12:23:29Z</time>
      </trkpt>
      <trkpt lat="42.7950570" lon="0.0180010">
        <ele>973.6</ele>
        <time>2020-07-26T12:23:32Z</time>
      </trkpt>
      <trkpt lat="42.7953460" lon="0.0180160">
        <ele>973.4</ele>
        <time>2020-07-26T12:23:35Z</time>
      </trkpt>
      <trkpt lat="42.7954430" lon="0.0180000">
        <ele>973.6</ele>
        <time>2020-07-26T12:23:36Z</time>
      </trkpt>
      <trkpt lat="42.7955360" lon="0.0179620">
        <ele>973.6</ele>
        <time>2020-07-26T12:23:37Z</time>
      </trkpt>
      <trkpt lat="42.7956240" lon="0.0179080">
        <ele>973.6</ele>
        <time>2020-07-26T12:23:38Z</time>
      </trkpt>
      <trkpt lat="42.7957800" lon="0.0177480">
        <ele>973.8</ele>
        <time>2020-07-26T12:23:40Z</time>
      </trkpt>
      <trkpt lat="42.7958500" lon="0.0176550">
        <ele>974.0</ele>
        <time>2020-07-26T12:23:41Z</time>
      </trkpt>
      <trkpt lat="42.7959140" lon="0.0175500">
        <ele>974.2</ele>
        <time>2020-07-26T12:23:42Z</time>
      </trkpt>
      <trkpt lat="42.7960020" lon="0.0172980">
        <ele>974.2</ele>
        <time>2020-07-26T12:23:44Z</time>
      </trkpt>
      <trkpt lat="42.7960340" lon="0.0170180">
        <ele>974.2</ele>
        <time>2020-07-26T12:23:46Z</time>
      </trkpt>
      <trkpt lat="42.7960290" lon="0.0168810">
        <ele>974.2</ele>
        <time>2020-07-26T12:23:47Z</time>
      </trkpt>
      <trkpt lat="42.7960130" lon="0.0167540">
        <ele>973.8</ele>
        <time>2020-07-26T12:23:48Z</time>
      </trkpt>
      <trkpt lat="42.7959360" lon="0.0163700">
        <ele>972.6</ele>
        <time>2020-07-26T12:23:51Z</time>
      </trkpt>
      <trkpt lat="42.7959180" lon="0.0161320">
        <ele>972.2</ele>
        <time>2020-07-26T12:23:53Z</time>
      </trkpt>
      <trkpt lat="42.7959200" lon="0.0160120">
        <ele>972.0</ele>
        <time>2020-07-26T12:23:54Z</time>
      </trkpt>
      <trkpt lat="42.7959350" lon="0.0158950">
        <ele>972.0</ele>
        <time>2020-07-26T12:23:55Z</time>
      </trkpt>
      <trkpt lat="42.7959660" lon="0.0157880">
        <ele>972.0</ele>
        <time>2020-07-26T12:23:56Z</time>
      </trkpt>
      <trkpt lat="42.7960760" lon="0.0156250">
        <ele>971.8</ele>
        <time>2020-07-26T12:23:58Z</time>
      </trkpt>
      <trkpt lat="42.7961580" lon="0.0155770">
        <ele>971.2</ele>
        <time>2020-07-26T12:23:59Z</time>
      </trkpt>
      <trkpt lat="42.7962680" lon="0.0155690">
        <ele>970.6</ele>
        <time>2020-07-26T12:24:00Z</time>
      </trkpt>
      <trkpt lat="42.7963600" lon="0.0155900">
        <ele>970.0</ele>
        <time>2020-07-26T12:24:01Z</time>
      </trkpt>
      <trkpt lat="42.7964380" lon="0.0156420">
        <ele>969.8</ele>
        <time>2020-07-26T12:24:02Z</time>
      </trkpt>
      <trkpt lat="42.7966250" lon="0.0158950">
        <ele>969.4</ele>
        <time>2020-07-26T12:24:05Z</time>
      </trkpt>
      <trkpt lat="42.7966880" lon="0.0159870">
        <ele>969.2</ele>
        <time>2020-07-26T12:24:06Z</time>
      </trkpt>
      <trkpt lat="42.7967530" lon="0.0160770">
        <ele>968.8</ele>
        <time>2020-07-26T12:24:07Z</time>
      </trkpt>
      <trkpt lat="42.7968860" lon="0.0162460">
        <ele>967.8</ele>
        <time>2020-07-26T12:24:09Z</time>
      </trkpt>
      <trkpt lat="42.7969570" lon="0.0163280">
        <ele>967.4</ele>
        <time>2020-07-26T12:24:10Z</time>
      </trkpt>
      <trkpt lat="42.7971140" lon="0.0164780">
        <ele>966.2</ele>
        <time>2020-07-26T12:24:12Z</time>
      </trkpt>
      <trkpt lat="42.7972090" lon="0.0165380">
        <ele>965.6</ele>
        <time>2020-07-26T12:24:13Z</time>
      </trkpt>
      <trkpt lat="42.7973020" lon="0.0165880">
        <ele>965.0</ele>
        <time>2020-07-26T12:24:14Z</time>
      </trkpt>
      <trkpt lat="42.7973980" lon="0.0166250">
        <ele>964.6</ele>
        <time>2020-07-26T12:24:15Z</time>
      </trkpt>
      <trkpt lat="42.7977060" lon="0.0166330">
        <ele>964.0</ele>
        <time>2020-07-26T12:24:17Z</time>
      </trkpt>
      <trkpt lat="42.7977570" lon="0.0166050">
        <ele>963.6</ele>
        <time>2020-07-26T12:24:18Z</time>
      </trkpt>
      <trkpt lat="42.7978080" lon="0.0165770">
        <ele>963.2</ele>
        <time>2020-07-26T12:24:19Z</time>
      </trkpt>
      <trkpt lat="42.7980130" lon="0.0164650">
        <ele>962.0</ele>
        <time>2020-07-26T12:24:21Z</time>
      </trkpt>
      <trkpt lat="42.7982120" lon="0.0163180">
        <ele>960.4</ele>
        <time>2020-07-26T12:24:23Z</time>
      </trkpt>
      <trkpt lat="42.7986120" lon="0.0159890">
        <ele>959.2</ele>
        <time>2020-07-26T12:24:27Z</time>
      </trkpt>
      <trkpt lat="42.7987950" lon="0.0157720">
        <ele>957.8</ele>
        <time>2020-07-26T12:24:29Z</time>
      </trkpt>
      <trkpt lat="42.7989630" lon="0.0155170">
        <ele>956.4</ele>
        <time>2020-07-26T12:24:31Z</time>
      </trkpt>
      <trkpt lat="42.7991490" lon="0.0152750">
        <ele>954.6</ele>
        <time>2020-07-26T12:24:33Z</time>
      </trkpt>
      <trkpt lat="42.7992510" lon="0.0151640">
        <ele>953.6</ele>
        <time>2020-07-26T12:24:34Z</time>
      </trkpt>
      <trkpt lat="42.7993530" lon="0.0150540">
        <ele>952.6</ele>
        <time>2020-07-26T12:24:35Z</time>
      </trkpt>
      <trkpt lat="42.7994520" lon="0.0149400">
        <ele>951.4</ele>
        <time>2020-07-26T12:24:36Z</time>
      </trkpt>
      <trkpt lat="42.7995510" lon="0.0148250">
        <ele>950.2</ele>
        <time>2020-07-26T12:24:37Z</time>
      </trkpt>
      <trkpt lat="42.7996490" lon="0.0147060">
        <ele>949.0</ele>
        <time>2020-07-26T12:24:38Z</time>
      </trkpt>
      <trkpt lat="42.7997450" lon="0.0145850">
        <ele>947.6</ele>
        <time>2020-07-26T12:24:39Z</time>
      </trkpt>
      <trkpt lat="42.7999280" lon="0.0143400">
        <ele>946.2</ele>
        <time>2020-07-26T12:24:41Z</time>
      </trkpt>
      <trkpt lat="42.8000190" lon="0.0142200">
        <ele>945.0</ele>
        <time>2020-07-26T12:24:42Z</time>
      </trkpt>
      <trkpt lat="42.8001120" lon="0.0141060">
        <ele>943.6</ele>
        <time>2020-07-26T12:24:43Z</time>
      </trkpt>
      <trkpt lat="42.8002030" lon="0.0139940">
        <ele>942.2</ele>
        <time>2020-07-26T12:24:44Z</time>
      </trkpt>
      <trkpt lat="42.8005010" lon="0.0137100">
        <ele>940.6</ele>
        <time>2020-07-26T12:24:47Z</time>
      </trkpt>
      <trkpt lat="42.8007260" lon="0.0135800">
        <ele>939.4</ele>
        <time>2020-07-26T12:24:49Z</time>
      </trkpt>
      <trkpt lat="42.8008430" lon="0.0135400">
        <ele>939.4</ele>
        <time>2020-07-26T12:24:50Z</time>
      </trkpt>
      <trkpt lat="42.8009620" lon="0.0135160">
        <ele>939.0</ele>
        <time>2020-07-26T12:24:51Z</time>
      </trkpt>
      <trkpt lat="42.8011980" lon="0.0134820">
        <ele>937.8</ele>
        <time>2020-07-26T12:24:53Z</time>
      </trkpt>
      <trkpt lat="42.8013170" lon="0.0134670">
        <ele>937.2</ele>
        <time>2020-07-26T12:24:54Z</time>
      </trkpt>
      <trkpt lat="42.8014370" lon="0.0134510">
        <ele>936.6</ele>
        <time>2020-07-26T12:24:55Z</time>
      </trkpt>
      <trkpt lat="42.8016820" lon="0.0134240">
        <ele>934.8</ele>
        <time>2020-07-26T12:24:57Z</time>
      </trkpt>
      <trkpt lat="42.8018050" lon="0.0134150">
        <ele>933.8</ele>
        <time>2020-07-26T12:24:58Z</time>
      </trkpt>
      <trkpt lat="42.8019250" lon="0.0134120">
        <ele>932.6</ele>
        <time>2020-07-26T12:24:59Z</time>
      </trkpt>
      <trkpt lat="42.8020400" lon="0.0134150">
        <ele>931.8</ele>
        <time>2020-07-26T12:25:00Z</time>
      </trkpt>
      <trkpt lat="42.8021530" lon="0.0134230">
        <ele>931.4</ele>
        <time>2020-07-26T12:25:01Z</time>
      </trkpt>
      <trkpt lat="42.8025760" lon="0.0134680">
        <ele>931.4</ele>
        <time>2020-07-26T12:25:05Z</time>
      </trkpt>
      <trkpt lat="42.8031520" lon="0.0135490">
        <ele>931.2</ele>
        <time>2020-07-26T12:25:10Z</time>
      </trkpt>
      <trkpt lat="42.8032460" lon="0.0135640">
        <ele>931.2</ele>
        <time>2020-07-26T12:25:12Z</time>
      </trkpt>
      <trkpt lat="42.8034300" lon="0.0135910">
        <ele>931.2</ele>
        <time>2020-07-26T12:25:14Z</time>
      </trkpt>
      <trkpt lat="42.8037950" lon="0.0135620">
        <ele>931.2</ele>
        <time>2020-07-26T12:25:18Z</time>
      </trkpt>
      <trkpt lat="42.8040530" lon="0.0134350">
        <ele>931.2</ele>
        <time>2020-07-26T12:25:21Z</time>
      </trkpt>
      <trkpt lat="42.8041370" lon="0.0133870">
        <ele>931.2</ele>
        <time>2020-07-26T12:25:22Z</time>
      </trkpt>
      <trkpt lat="42.8045500" lon="0.0131840">
        <ele>930.2</ele>
        <time>2020-07-26T12:25:27Z</time>
      </trkpt>
      <trkpt lat="42.8047160" lon="0.0131180">
        <ele>930.0</ele>
        <time>2020-07-26T12:25:29Z</time>
      </trkpt>
      <trkpt lat="42.8051850" lon="0.0128770">
        <ele>929.2</ele>
        <time>2020-07-26T12:25:35Z</time>
      </trkpt>
      <trkpt lat="42.8055460" lon="0.0125750">
        <ele>929.8</ele>
        <time>2020-07-26T12:25:40Z</time>
      </trkpt>
      <trkpt lat="42.8057910" lon="0.0122300">
        <ele>929.6</ele>
        <time>2020-07-26T12:25:44Z</time>
      </trkpt>
      <trkpt lat="42.8060410" lon="0.0117260">
        <ele>929.6</ele>
        <time>2020-07-26T12:25:49Z</time>
      </trkpt>
      <trkpt lat="42.8063160" lon="0.0114180">
        <ele>929.4</ele>
        <time>2020-07-26T12:25:53Z</time>
      </trkpt>
      <trkpt lat="42.8065480" lon="0.0112060">
        <ele>929.0</ele>
        <time>2020-07-26T12:25:56Z</time>
      </trkpt>
      <trkpt lat="42.8068660" lon="0.0109090">
        <ele>928.2</ele>
        <time>2020-07-26T12:26:00Z</time>
      </trkpt>
      <trkpt lat="42.8069510" lon="0.0108340">
        <ele>928.0</ele>
        <time>2020-07-26T12:26:01Z</time>
      </trkpt>
      <trkpt lat="42.8071300" lon="0.0106940">
        <ele>927.6</ele>
        <time>2020-07-26T12:26:03Z</time>
      </trkpt>
      <trkpt lat="42.8074160" lon="0.0105180">
        <ele>927.2</ele>
        <time>2020-07-26T12:26:06Z</time>
      </trkpt>
      <trkpt lat="42.8075110" lon="0.0104610">
        <ele>927.0</ele>
        <time>2020-07-26T12:26:07Z</time>
      </trkpt>
      <trkpt lat="42.8077880" lon="0.0102880">
        <ele>926.2</ele>
        <time>2020-07-26T12:26:10Z</time>
      </trkpt>
      <trkpt lat="42.8079710" lon="0.0101740">
        <ele>925.8</ele>
        <time>2020-07-26T12:26:12Z</time>
      </trkpt>
      <trkpt lat="42.8080630" lon="0.0101210">
        <ele>926.0</ele>
        <time>2020-07-26T12:26:13Z</time>
      </trkpt>
      <trkpt lat="42.8085970" lon="0.0097360">
        <ele>926.0</ele>
        <time>2020-07-26T12:26:19Z</time>
      </trkpt>
      <trkpt lat="42.8086820" lon="0.0096610">
        <ele>926.0</ele>
        <time>2020-07-26T12:26:20Z</time>
      </trkpt>
      <trkpt lat="42.8087620" lon="0.0095790">
        <ele>926.0</ele>
        <time>2020-07-26T12:26:21Z</time>
      </trkpt>
      <trkpt lat="42.8091650" lon="0.0091390">
        <ele>925.2</ele>
        <time>2020-07-26T12:26:26Z</time>
      </trkpt>
      <trkpt lat="42.8092520" lon="0.0090510">
        <ele>924.8</ele>
        <time>2020-07-26T12:26:27Z</time>
      </trkpt>
      <trkpt lat="42.8094390" lon="0.0088860">
        <ele>924.2</ele>
        <time>2020-07-26T12:26:29Z</time>
      </trkpt>
      <trkpt lat="42.8096400" lon="0.0087270">
        <ele>923.4</ele>
        <time>2020-07-26T12:26:31Z</time>
      </trkpt>
      <trkpt lat="42.8098540" lon="0.0085750">
        <ele>922.0</ele>
        <time>2020-07-26T12:26:33Z</time>
      </trkpt>
      <trkpt lat="42.8099710" lon="0.0085070">
        <ele>920.8</ele>
        <time>2020-07-26T12:26:34Z</time>
      </trkpt>
      <trkpt lat="42.8100900" lon="0.0084490">
        <ele>919.8</ele>
        <time>2020-07-26T12:26:35Z</time>
      </trkpt>
      <trkpt lat="42.8102120" lon="0.0084010">
        <ele>919.0</ele>
        <time>2020-07-26T12:26:36Z</time>
      </trkpt>
      <trkpt lat="42.8103390" lon="0.0083650">
        <ele>918.6</ele>
        <time>2020-07-26T12:26:37Z</time>
      </trkpt>
      <trkpt lat="42.8108290" lon="0.0082500">
        <ele>917.2</ele>
        <time>2020-07-26T12:26:41Z</time>
      </trkpt>
      <trkpt lat="42.8111920" lon="0.0081560">
        <ele>915.6</ele>
        <time>2020-07-26T12:26:44Z</time>
      </trkpt>
      <trkpt lat="42.8114320" lon="0.0081000">
        <ele>914.6</ele>
        <time>2020-07-26T12:26:46Z</time>
      </trkpt>
      <trkpt lat="42.8115490" lon="0.0080770">
        <ele>914.2</ele>
        <time>2020-07-26T12:26:47Z</time>
      </trkpt>
      <trkpt lat="42.8116630" lon="0.0080560">
        <ele>913.8</ele>
        <time>2020-07-26T12:26:48Z</time>
      </trkpt>
      <trkpt lat="42.8117760" lon="0.0080410">
        <ele>913.6</ele>
        <time>2020-07-26T12:26:49Z</time>
      </trkpt>
      <trkpt lat="42.8123390" lon="0.0079910">
        <ele>912.4</ele>
        <time>2020-07-26T12:26:54Z</time>
      </trkpt>
      <trkpt lat="42.8124500" lon="0.0079850">
        <ele>912.2</ele>
        <time>2020-07-26T12:26:55Z</time>
      </trkpt>
      <trkpt lat="42.8126640" lon="0.0079710">
        <ele>911.8</ele>
        <time>2020-07-26T12:26:57Z</time>
      </trkpt>
      <trkpt lat="42.8130000" lon="0.0079920">
        <ele>911.2</ele>
        <time>2020-07-26T12:27:00Z</time>
      </trkpt>
      <trkpt lat="42.8132070" lon="0.0080130">
        <ele>910.8</ele>
        <time>2020-07-26T12:27:02Z</time>
      </trkpt>
      <trkpt lat="42.8135260" lon="0.0080740">
        <ele>910.4</ele>
        <time>2020-07-26T12:27:05Z</time>
      </trkpt>
      <trkpt lat="42.8139400" lon="0.0080990">
        <ele>910.2</ele>
        <time>2020-07-26T12:27:09Z</time>
      </trkpt>
      <trkpt lat="42.8142400" lon="0.0081010">
        <ele>909.4</ele>
        <time>2020-07-26T12:27:12Z</time>
      </trkpt>
      <trkpt lat="42.8144450" lon="0.0081840">
        <ele>909.0</ele>
        <time>2020-07-26T12:27:14Z</time>
      </trkpt>
      <trkpt lat="42.8148000" lon="0.0084120">
        <ele>908.4</ele>
        <time>2020-07-26T12:27:18Z</time>
      </trkpt>
      <trkpt lat="42.8151680" lon="0.0085590">
        <ele>907.8</ele>
        <time>2020-07-26T12:27:22Z</time>
      </trkpt>
      <trkpt lat="42.8153520" lon="0.0085870">
        <ele>907.6</ele>
        <time>2020-07-26T12:27:24Z</time>
      </trkpt>
      <trkpt lat="42.8156430" lon="0.0086120">
        <ele>906.8</ele>
        <time>2020-07-26T12:27:27Z</time>
      </trkpt>
      <trkpt lat="42.8157300" lon="0.0086020">
        <ele>906.2</ele>
        <time>2020-07-26T12:27:28Z</time>
      </trkpt>
      <trkpt lat="42.8158160" lon="0.0085930">
        <ele>905.8</ele>
        <time>2020-07-26T12:27:29Z</time>
      </trkpt>
      <trkpt lat="42.8160050" lon="0.0086330">
        <ele>905.2</ele>
        <time>2020-07-26T12:27:31Z</time>
      </trkpt>
      <trkpt lat="42.8160970" lon="0.0086760">
        <ele>904.8</ele>
        <time>2020-07-26T12:27:32Z</time>
      </trkpt>
      <trkpt lat="42.8161850" lon="0.0087280">
        <ele>904.4</ele>
        <time>2020-07-26T12:27:33Z</time>
      </trkpt>
      <trkpt lat="42.8165100" lon="0.0089760">
        <ele>903.8</ele>
        <time>2020-07-26T12:27:37Z</time>
      </trkpt>
      <trkpt lat="42.8166660" lon="0.0091080">
        <ele>904.6</ele>
        <time>2020-07-26T12:27:39Z</time>
      </trkpt>
      <trkpt lat="42.8170510" lon="0.0094240">
        <ele>904.6</ele>
        <time>2020-07-26T12:27:44Z</time>
      </trkpt>
      <trkpt lat="42.8174430" lon="0.0096770">
        <ele>903.6</ele>
        <time>2020-07-26T12:27:49Z</time>
      </trkpt>
      <trkpt lat="42.8175260" lon="0.0097010">
        <ele>903.2</ele>
        <time>2020-07-26T12:27:50Z</time>
      </trkpt>
      <trkpt lat="42.8180280" lon="0.0098240">
        <ele>903.6</ele>
        <time>2020-07-26T12:27:56Z</time>
      </trkpt>
      <trkpt lat="42.8182760" lon="0.0099290">
        <ele>903.4</ele>
        <time>2020-07-26T12:27:59Z</time>
      </trkpt>
      <trkpt lat="42.8187690" lon="0.0101480">
        <ele>903.0</ele>
        <time>2020-07-26T12:28:05Z</time>
      </trkpt>
      <trkpt lat="42.8189370" lon="0.0102020">
        <ele>903.0</ele>
        <time>2020-07-26T12:28:07Z</time>
      </trkpt>
      <trkpt lat="42.8190980" lon="0.0102470">
        <ele>902.8</ele>
        <time>2020-07-26T12:28:09Z</time>
      </trkpt>
      <trkpt lat="42.8192690" lon="0.0102530">
        <ele>902.4</ele>
        <time>2020-07-26T12:28:11Z</time>
      </trkpt>
      <trkpt lat="42.8193540" lon="0.0102490">
        <ele>902.0</ele>
        <time>2020-07-26T12:28:12Z</time>
      </trkpt>
      <trkpt lat="42.8198750" lon="0.0102210">
        <ele>900.8</ele>
        <time>2020-07-26T12:28:18Z</time>
      </trkpt>
      <trkpt lat="42.8201420" lon="0.0102060">
        <ele>899.8</ele>
        <time>2020-07-26T12:28:21Z</time>
      </trkpt>
      <trkpt lat="42.8204160" lon="0.0101820">
        <ele>898.2</ele>
        <time>2020-07-26T12:28:24Z</time>
      </trkpt>
      <trkpt lat="42.8205080" lon="0.0101650">
        <ele>897.8</ele>
        <time>2020-07-26T12:28:25Z</time>
      </trkpt>
      <trkpt lat="42.8205970" lon="0.0101350">
        <ele>897.4</ele>
        <time>2020-07-26T12:28:26Z</time>
      </trkpt>
      <trkpt lat="42.8207700" lon="0.0100420">
        <ele>897.2</ele>
        <time>2020-07-26T12:28:28Z</time>
      </trkpt>
      <trkpt lat="42.8208580" lon="0.0099870">
        <ele>897.4</ele>
        <time>2020-07-26T12:28:29Z</time>
      </trkpt>
      <trkpt lat="42.8209470" lon="0.0099310">
        <ele>897.6</ele>
        <time>2020-07-26T12:28:30Z</time>
      </trkpt>
      <trkpt lat="42.8210350" lon="0.0098740">
        <ele>898.0</ele>
        <time>2020-07-26T12:28:31Z</time>
      </trkpt>
      <trkpt lat="42.8211230" lon="0.0098140">
        <ele>898.0</ele>
        <time>2020-07-26T12:28:32Z</time>
      </trkpt>
      <trkpt lat="42.8215600" lon="0.0095030">
        <ele>897.4</ele>
        <time>2020-07-26T12:28:37Z</time>
      </trkpt>
      <trkpt lat="42.8216440" lon="0.0094380">
        <ele>897.0</ele>
        <time>2020-07-26T12:28:38Z</time>
      </trkpt>
      <trkpt lat="42.8219020" lon="0.0092720">
        <ele>895.8</ele>
        <time>2020-07-26T12:28:41Z</time>
      </trkpt>
      <trkpt lat="42.8219910" lon="0.0092400">
        <ele>895.2</ele>
        <time>2020-07-26T12:28:42Z</time>
      </trkpt>
      <trkpt lat="42.8220840" lon="0.0092290">
        <ele>894.8</ele>
        <time>2020-07-26T12:28:43Z</time>
      </trkpt>
      <trkpt lat="42.8221780" lon="0.0092350">
        <ele>894.4</ele>
        <time>2020-07-26T12:28:44Z</time>
      </trkpt>
      <trkpt lat="42.8224640" lon="0.0092850">
        <ele>893.4</ele>
        <time>2020-07-26T12:28:47Z</time>
      </trkpt>
      <trkpt lat="42.8227520" lon="0.0093470">
        <ele>892.0</ele>
        <time>2020-07-26T12:28:49Z</time>
      </trkpt>
      <trkpt lat="42.8228480" lon="0.0093560">
        <ele>890.8</ele>
        <time>2020-07-26T12:28:51Z</time>
      </trkpt>
      <trkpt lat="42.8230410" lon="0.0093490">
        <ele>890.2</ele>
        <time>2020-07-26T12:28:53Z</time>
      </trkpt>
      <trkpt lat="42.8231380" lon="0.0093450">
        <ele>889.6</ele>
        <time>2020-07-26T12:28:54Z</time>
      </trkpt>
      <trkpt lat="42.8232380" lon="0.0093390">
        <ele>888.2</ele>
        <time>2020-07-26T12:28:55Z</time>
      </trkpt>
      <trkpt lat="42.8233370" lon="0.0093380">
        <ele>887.0</ele>
        <time>2020-07-26T12:28:56Z</time>
      </trkpt>
      <trkpt lat="42.8235260" lon="0.0093290">
        <ele>885.8</ele>
        <time>2020-07-26T12:28:58Z</time>
      </trkpt>
      <trkpt lat="42.8237070" lon="0.0093280">
        <ele>885.4</ele>
        <time>2020-07-26T12:29:00Z</time>
      </trkpt>
      <trkpt lat="42.8241360" lon="0.0093390">
        <ele>884.6</ele>
        <time>2020-07-26T12:29:05Z</time>
      </trkpt>
      <trkpt lat="42.8242180" lon="0.0093220">
        <ele>884.4</ele>
        <time>2020-07-26T12:29:06Z</time>
      </trkpt>
      <trkpt lat="42.8243790" lon="0.0092400">
        <ele>884.2</ele>
        <time>2020-07-26T12:29:08Z</time>
      </trkpt>
      <trkpt lat="42.8244530" lon="0.0091730">
        <ele>884.0</ele>
        <time>2020-07-26T12:29:09Z</time>
      </trkpt>
      <trkpt lat="42.8246450" lon="0.0089480">
        <ele>884.0</ele>
        <time>2020-07-26T12:29:11Z</time>
      </trkpt>
      <trkpt lat="42.8247800" lon="0.0088250">
        <ele>884.0</ele>
        <time>2020-07-26T12:29:13Z</time>
      </trkpt>
      <trkpt lat="42.8248340" lon="0.0087850">
        <ele>883.4</ele>
        <time>2020-07-26T12:29:14Z</time>
      </trkpt>
      <trkpt lat="42.8249260" lon="0.0087220">
        <ele>882.2</ele>
        <time>2020-07-26T12:29:16Z</time>
      </trkpt>
      <trkpt lat="42.8250840" lon="0.0085620">
        <ele>880.8</ele>
        <time>2020-07-26T12:29:19Z</time>
      </trkpt>
      <trkpt lat="42.8251570" lon="0.0085020">
        <ele>880.0</ele>
        <time>2020-07-26T12:29:20Z</time>
      </trkpt>
      <trkpt lat="42.8252620" lon="0.0084600">
        <ele>879.2</ele>
        <time>2020-07-26T12:29:21Z</time>
      </trkpt>
      <trkpt lat="42.8254640" lon="0.0083600">
        <ele>878.2</ele>
        <time>2020-07-26T12:29:23Z</time>
      </trkpt>
      <trkpt lat="42.8255740" lon="0.0083110">
        <ele>877.2</ele>
        <time>2020-07-26T12:29:24Z</time>
      </trkpt>
      <trkpt lat="42.8257130" lon="0.0082850">
        <ele>876.6</ele>
        <time>2020-07-26T12:29:25Z</time>
      </trkpt>
      <trkpt lat="42.8259810" lon="0.0082350">
        <ele>875.6</ele>
        <time>2020-07-26T12:29:27Z</time>
      </trkpt>
      <trkpt lat="42.8261070" lon="0.0082060">
        <ele>874.8</ele>
        <time>2020-07-26T12:29:28Z</time>
      </trkpt>
      <trkpt lat="42.8262340" lon="0.0081800">
        <ele>874.2</ele>
        <time>2020-07-26T12:29:29Z</time>
      </trkpt>
      <trkpt lat="42.8264740" lon="0.0081190">
        <ele>872.6</ele>
        <time>2020-07-26T12:29:31Z</time>
      </trkpt>
      <trkpt lat="42.8267080" lon="0.0080310">
        <ele>871.4</ele>
        <time>2020-07-26T12:29:33Z</time>
      </trkpt>
      <trkpt lat="42.8267710" lon="0.0079770">
        <ele>871.2</ele>
        <time>2020-07-26T12:29:34Z</time>
      </trkpt>
      <trkpt lat="42.8268340" lon="0.0079230">
        <ele>870.8</ele>
        <time>2020-07-26T12:29:35Z</time>
      </trkpt>
      <trkpt lat="42.8270850" lon="0.0077070">
        <ele>870.0</ele>
        <time>2020-07-26T12:29:37Z</time>
      </trkpt>
      <trkpt lat="42.8274150" lon="0.0073400">
        <ele>868.6</ele>
        <time>2020-07-26T12:29:41Z</time>
      </trkpt>
      <trkpt lat="42.8274150" lon="0.0073400">
        <ele>868.4</ele>
        <time>2020-07-26T12:29:42Z</time>
      </trkpt>
      <trkpt lat="42.8276490" lon="0.0070730">
        <ele>868.0</ele>
        <time>2020-07-26T12:29:44Z</time>
      </trkpt>
      <trkpt lat="42.8278140" lon="0.0069160">
        <ele>868.2</ele>
        <time>2020-07-26T12:29:46Z</time>
      </trkpt>
      <trkpt lat="42.8280790" lon="0.0067220">
        <ele>868.4</ele>
        <time>2020-07-26T12:29:49Z</time>
      </trkpt>
      <trkpt lat="42.8282900" lon="0.0066630">
        <ele>868.4</ele>
        <time>2020-07-26T12:29:51Z</time>
      </trkpt>
      <trkpt lat="42.8283960" lon="0.0066500">
        <ele>868.4</ele>
        <time>2020-07-26T12:29:53Z</time>
      </trkpt>
      <trkpt lat="42.8285940" lon="0.0066120">
        <ele>868.8</ele>
        <time>2020-07-26T12:29:55Z</time>
      </trkpt>
      <trkpt lat="42.8286850" lon="0.0065740">
        <ele>869.0</ele>
        <time>2020-07-26T12:29:56Z</time>
      </trkpt>
      <trkpt lat="42.8287720" lon="0.0065210">
        <ele>869.6</ele>
        <time>2020-07-26T12:29:57Z</time>
      </trkpt>
      <trkpt lat="42.8288560" lon="0.0064620">
        <ele>870.4</ele>
        <time>2020-07-26T12:29:58Z</time>
      </trkpt>
      <trkpt lat="42.8290230" lon="0.0063260">
        <ele>871.4</ele>
        <time>2020-07-26T12:30:00Z</time>
      </trkpt>
      <trkpt lat="42.8291850" lon="0.0061830">
        <ele>871.2</ele>
        <time>2020-07-26T12:30:02Z</time>
      </trkpt>
      <trkpt lat="42.8292620" lon="0.0061080">
        <ele>870.0</ele>
        <time>2020-07-26T12:30:03Z</time>
      </trkpt>
      <trkpt lat="42.8293320" lon="0.0060290">
        <ele>868.6</ele>
        <time>2020-07-26T12:30:04Z</time>
      </trkpt>
      <trkpt lat="42.8294000" lon="0.0059490">
        <ele>867.4</ele>
        <time>2020-07-26T12:30:05Z</time>
      </trkpt>
      <trkpt lat="42.8295240" lon="0.0057790">
        <ele>866.0</ele>
        <time>2020-07-26T12:30:07Z</time>
      </trkpt>
      <trkpt lat="42.8298230" lon="0.0051870">
        <ele>866.2</ele>
        <time>2020-07-26T12:30:13Z</time>
      </trkpt>
      <trkpt lat="42.8298650" lon="0.0050780">
        <ele>866.2</ele>
        <time>2020-07-26T12:30:14Z</time>
      </trkpt>
      <trkpt lat="42.8300490" lon="0.0048140">
        <ele>866.0</ele>
        <time>2020-07-26T12:30:17Z</time>
      </trkpt>
      <trkpt lat="42.8303550" lon="0.0045910">
        <ele>864.8</ele>
        <time>2020-07-26T12:30:21Z</time>
      </trkpt>
      <trkpt lat="42.8305050" lon="0.0044620">
        <ele>864.2</ele>
        <time>2020-07-26T12:30:23Z</time>
      </trkpt>
      <trkpt lat="42.8306280" lon="0.0042810">
        <ele>863.8</ele>
        <time>2020-07-26T12:30:25Z</time>
      </trkpt>
      <trkpt lat="42.8306900" lon="0.0041830">
        <ele>863.4</ele>
        <time>2020-07-26T12:30:26Z</time>
      </trkpt>
      <trkpt lat="42.8308280" lon="0.0039790">
        <ele>863.0</ele>
        <time>2020-07-26T12:30:28Z</time>
      </trkpt>
      <trkpt lat="42.8309020" lon="0.0038740">
        <ele>862.6</ele>
        <time>2020-07-26T12:30:29Z</time>
      </trkpt>
      <trkpt lat="42.8309800" lon="0.0037670">
        <ele>861.6</ele>
        <time>2020-07-26T12:30:30Z</time>
      </trkpt>
      <trkpt lat="42.8310530" lon="0.0036520">
        <ele>860.0</ele>
        <time>2020-07-26T12:30:31Z</time>
      </trkpt>
      <trkpt lat="42.8311250" lon="0.0035350">
        <ele>858.8</ele>
        <time>2020-07-26T12:30:32Z</time>
      </trkpt>
      <trkpt lat="42.8312690" lon="0.0033000">
        <ele>857.4</ele>
        <time>2020-07-26T12:30:34Z</time>
      </trkpt>
      <trkpt lat="42.8314210" lon="0.0030740">
        <ele>855.6</ele>
        <time>2020-07-26T12:30:36Z</time>
      </trkpt>
      <trkpt lat="42.8315710" lon="0.0028350">
        <ele>853.8</ele>
        <time>2020-07-26T12:30:38Z</time>
      </trkpt>
      <trkpt lat="42.8317140" lon="0.0025880">
        <ele>852.2</ele>
        <time>2020-07-26T12:30:40Z</time>
      </trkpt>
      <trkpt lat="42.8317830" lon="0.0024610">
        <ele>851.2</ele>
        <time>2020-07-26T12:30:41Z</time>
      </trkpt>
      <trkpt lat="42.8318460" lon="0.0023230">
        <ele>850.0</ele>
        <time>2020-07-26T12:30:42Z</time>
      </trkpt>
      <trkpt lat="42.8319720" lon="0.0020410">
        <ele>848.2</ele>
        <time>2020-07-26T12:30:44Z</time>
      </trkpt>
      <trkpt lat="42.8320380" lon="0.0019020">
        <ele>847.4</ele>
        <time>2020-07-26T12:30:45Z</time>
      </trkpt>
      <trkpt lat="42.8321130" lon="0.0017730">
        <ele>846.6</ele>
        <time>2020-07-26T12:30:46Z</time>
      </trkpt>
      <trkpt lat="42.8321940" lon="0.0016530">
        <ele>846.0</ele>
        <time>2020-07-26T12:30:47Z</time>
      </trkpt>
      <trkpt lat="42.8322700" lon="0.0015360">
        <ele>845.4</ele>
        <time>2020-07-26T12:30:48Z</time>
      </trkpt>
      <trkpt lat="42.8324220" lon="0.0013100">
        <ele>844.4</ele>
        <time>2020-07-26T12:30:50Z</time>
      </trkpt>
      <trkpt lat="42.8325740" lon="0.0010750">
        <ele>842.4</ele>
        <time>2020-07-26T12:30:52Z</time>
      </trkpt>
      <trkpt lat="42.8326320" lon="0.0009430">
        <ele>841.6</ele>
        <time>2020-07-26T12:30:53Z</time>
      </trkpt>
      <trkpt lat="42.8326610" lon="0.0007890">
        <ele>841.0</ele>
        <time>2020-07-26T12:30:54Z</time>
      </trkpt>
      <trkpt lat="42.8327480" lon="0.0005060">
        <ele>840.0</ele>
        <time>2020-07-26T12:30:56Z</time>
      </trkpt>
      <trkpt lat="42.8328520" lon="0.0002390">
        <ele>838.6</ele>
        <time>2020-07-26T12:30:58Z</time>
      </trkpt>
      <trkpt lat="42.8329150" lon="0.0001200">
        <ele>838.2</ele>
        <time>2020-07-26T12:30:59Z</time>
      </trkpt>
      <trkpt lat="42.8329960" lon="0.0000300">
        <ele>838.2</ele>
        <time>2020-07-26T12:31:00Z</time>
      </trkpt>
      <trkpt lat="42.8331570" lon="-0.0001510">
        <ele>837.8</ele>
        <time>2020-07-26T12:31:02Z</time>
      </trkpt>
      <trkpt lat="42.8334200" lon="-0.0001590">
        <ele>837.8</ele>
        <time>2020-07-26T12:31:04Z</time>
      </trkpt>
      <trkpt lat="42.8335160" lon="-0.0001990">
        <ele>837.4</ele>
        <time>2020-07-26T12:31:05Z</time>
      </trkpt>
      <trkpt lat="42.8337020" lon="-0.0003260">
        <ele>835.8</ele>
        <time>2020-07-26T12:31:07Z</time>
      </trkpt>
      <trkpt lat="42.8338390" lon="-0.0004140">
        <ele>835.0</ele>
        <time>2020-07-26T12:31:10Z</time>
      </trkpt>
      <trkpt lat="42.8339760" lon="-0.0005010">
        <ele>834.6</ele>
        <time>2020-07-26T12:31:11Z</time>
      </trkpt>
      <trkpt lat="42.8341130" lon="-0.0005890">
        <ele>833.4</ele>
        <time>2020-07-26T12:31:16Z</time>
      </trkpt>
      <trkpt lat="42.8342500" lon="-0.0006760">
        <ele>831.6</ele>
        <time>2020-07-26T12:31:18Z</time>
      </trkpt>
      <trkpt lat="42.8343870" lon="-0.0007640">
        <ele>830.4</ele>
        <time>2020-07-26T12:31:20Z</time>
      </trkpt>
      <trkpt lat="42.8345240" lon="-0.0008510">
        <ele>829.2</ele>
        <time>2020-07-26T12:31:22Z</time>
      </trkpt>
      <trkpt lat="42.8346610" lon="-0.0009390">
        <ele>828.0</ele>
        <time>2020-07-26T12:31:24Z</time>
      </trkpt>
      <trkpt lat="42.8356200" lon="-0.0015520">
        <ele>827.4</ele>
        <time>2020-07-26T12:31:26Z</time>
      </trkpt>
      <trkpt lat="42.8357810" lon="-0.0018560">
        <ele>826.8</ele>
        <time>2020-07-26T12:31:29Z</time>
      </trkpt>
      <trkpt lat="42.8358300" lon="-0.0019540">
        <ele>826.6</ele>
        <time>2020-07-26T12:31:30Z</time>
      </trkpt>
      <trkpt lat="42.8360040" lon="-0.0023640">
        <ele>826.0</ele>
        <time>2020-07-26T12:31:34Z</time>
      </trkpt>
      <trkpt lat="42.8360420" lon="-0.0024720">
        <ele>825.8</ele>
        <time>2020-07-26T12:31:35Z</time>
      </trkpt>
      <trkpt lat="42.8360840" lon="-0.0025820">
        <ele>825.6</ele>
        <time>2020-07-26T12:31:36Z</time>
      </trkpt>
      <trkpt lat="42.8361850" lon="-0.0027930">
        <ele>825.0</ele>
        <time>2020-07-26T12:31:38Z</time>
      </trkpt>
      <trkpt lat="42.8362470" lon="-0.0028920">
        <ele>824.6</ele>
        <time>2020-07-26T12:31:39Z</time>
      </trkpt>
      <trkpt lat="42.8363150" lon="-0.0029850">
        <ele>824.4</ele>
        <time>2020-07-26T12:31:40Z</time>
      </trkpt>
      <trkpt lat="42.8364640" lon="-0.0031460">
        <ele>823.4</ele>
        <time>2020-07-26T12:31:42Z</time>
      </trkpt>
      <trkpt lat="42.8365410" lon="-0.0032210">
        <ele>822.2</ele>
        <time>2020-07-26T12:31:43Z</time>
      </trkpt>
      <trkpt lat="42.8366960" lon="-0.0033590">
        <ele>820.8</ele>
        <time>2020-07-26T12:31:45Z</time>
      </trkpt>
      <trkpt lat="42.8369700" lon="-0.0036130">
        <ele>819.8</ele>
        <time>2020-07-26T12:31:49Z</time>
      </trkpt>
      <trkpt lat="42.8370250" lon="-0.0036390">
        <ele>819.8</ele>
        <time>2020-07-26T12:31:52Z</time>
      </trkpt>
      <trkpt lat="42.8370800" lon="-0.0036650">
        <ele>819.8</ele>
        <time>2020-07-26T12:31:53Z</time>
      </trkpt>
      <trkpt lat="42.8372990" lon="-0.0037700">
        <ele>820.4</ele>
        <time>2020-07-26T12:31:55Z</time>
      </trkpt>
      <trkpt lat="42.8373510" lon="-0.0037160">
        <ele>821.0</ele>
        <time>2020-07-26T12:31:56Z</time>
      </trkpt>
      <trkpt lat="42.8376350" lon="-0.0034040">
        <ele>822.0</ele>
        <time>2020-07-26T12:32:00Z</time>
      </trkpt>
      <trkpt lat="42.8377990" lon="-0.0032520">
        <ele>821.8</ele>
        <time>2020-07-26T12:32:02Z</time>
      </trkpt>
      <trkpt lat="42.8378780" lon="-0.0032100">
        <ele>821.4</ele>
        <time>2020-07-26T12:32:03Z</time>
      </trkpt>
      <trkpt lat="42.8379550" lon="-0.0031950">
        <ele>821.4</ele>
        <time>2020-07-26T12:32:04Z</time>
      </trkpt>
      <trkpt lat="42.8380320" lon="-0.0032020">
        <ele>821.2</ele>
        <time>2020-07-26T12:32:05Z</time>
      </trkpt>
      <trkpt lat="42.8380960" lon="-0.0032440">
        <ele>821.2</ele>
        <time>2020-07-26T12:32:06Z</time>
      </trkpt>
      <trkpt lat="42.8381430" lon="-0.0033160">
        <ele>821.0</ele>
        <time>2020-07-26T12:32:07Z</time>
      </trkpt>
      <trkpt lat="42.8381870" lon="-0.0034010">
        <ele>821.2</ele>
        <time>2020-07-26T12:32:08Z</time>
      </trkpt>
      <trkpt lat="42.8382200" lon="-0.0035010">
        <ele>821.2</ele>
        <time>2020-07-26T12:32:09Z</time>
      </trkpt>
      <trkpt lat="42.8382430" lon="-0.0036110">
        <ele>821.4</ele>
        <time>2020-07-26T12:32:10Z</time>
      </trkpt>
      <trkpt lat="42.8383510" lon="-0.0039200">
        <ele>821.4</ele>
        <time>2020-07-26T12:32:13Z</time>
      </trkpt>
      <trkpt lat="42.8384680" lon="-0.0040640">
        <ele>821.0</ele>
        <time>2020-07-26T12:32:15Z</time>
      </trkpt>
      <trkpt lat="42.8387500" lon="-0.0042380">
        <ele>820.2</ele>
        <time>2020-07-26T12:32:19Z</time>
      </trkpt>
      <trkpt lat="42.8388200" lon="-0.0042800">
        <ele>820.2</ele>
        <time>2020-07-26T12:32:20Z</time>
      </trkpt>
      <trkpt lat="42.8388880" lon="-0.0043270">
        <ele>820.0</ele>
        <time>2020-07-26T12:32:21Z</time>
      </trkpt>
      <trkpt lat="42.8391310" lon="-0.0045740">
        <ele>820.4</ele>
        <time>2020-07-26T12:32:25Z</time>
      </trkpt>
      <trkpt lat="42.8395070" lon="-0.0049110">
        <ele>819.8</ele>
        <time>2020-07-26T12:32:31Z</time>
      </trkpt>
      <trkpt lat="42.8396970" lon="-0.0050590">
        <ele>819.0</ele>
        <time>2020-07-26T12:32:34Z</time>
      </trkpt>
      <trkpt lat="42.8397600" lon="-0.0051100">
        <ele>818.8</ele>
        <time>2020-07-26T12:32:35Z</time>
      </trkpt>
      <trkpt lat="42.8400080" lon="-0.0053310">
        <ele>819.0</ele>
        <time>2020-07-26T12:32:39Z</time>
      </trkpt>
      <trkpt lat="42.8403480" lon="-0.0055170">
        <ele>819.0</ele>
        <time>2020-07-26T12:32:44Z</time>
      </trkpt>
      <trkpt lat="42.8405540" lon="-0.0055950">
        <ele>818.8</ele>
        <time>2020-07-26T12:32:47Z</time>
      </trkpt>
      <trkpt lat="42.8409800" lon="-0.0057530">
        <ele>817.8</ele>
        <time>2020-07-26T12:32:53Z</time>
      </trkpt>
      <trkpt lat="42.8412050" lon="-0.0058380">
        <ele>817.6</ele>
        <time>2020-07-26T12:32:56Z</time>
      </trkpt>
      <trkpt lat="42.8415370" lon="-0.0059150">
        <ele>817.2</ele>
        <time>2020-07-26T12:33:00Z</time>
      </trkpt>
      <trkpt lat="42.8417190" lon="-0.0059390">
        <ele>816.4</ele>
        <time>2020-07-26T12:33:02Z</time>
      </trkpt>
      <trkpt lat="42.8419100" lon="-0.0059940">
        <ele>815.0</ele>
        <time>2020-07-26T12:33:04Z</time>
      </trkpt>
      <trkpt lat="42.8420060" lon="-0.0060370">
        <ele>814.8</ele>
        <time>2020-07-26T12:33:05Z</time>
      </trkpt>
      <trkpt lat="42.8422070" lon="-0.0061350">
        <ele>814.0</ele>
        <time>2020-07-26T12:33:07Z</time>
      </trkpt>
      <trkpt lat="42.8425270" lon="-0.0062850">
        <ele>812.6</ele>
        <time>2020-07-26T12:33:10Z</time>
      </trkpt>
      <trkpt lat="42.8426360" lon="-0.0063350">
        <ele>812.2</ele>
        <time>2020-07-26T12:33:11Z</time>
      </trkpt>
      <trkpt lat="42.8427380" lon="-0.0064080">
        <ele>811.8</ele>
        <time>2020-07-26T12:33:12Z</time>
      </trkpt>
      <trkpt lat="42.8428370" lon="-0.0064900">
        <ele>811.4</ele>
        <time>2020-07-26T12:33:13Z</time>
      </trkpt>
      <trkpt lat="42.8429250" lon="-0.0065960">
        <ele>811.0</ele>
        <time>2020-07-26T12:33:14Z</time>
      </trkpt>
      <trkpt lat="42.8430950" lon="-0.0068030">
        <ele>809.8</ele>
        <time>2020-07-26T12:33:16Z</time>
      </trkpt>
      <trkpt lat="42.8432590" lon="-0.0070050">
        <ele>808.4</ele>
        <time>2020-07-26T12:33:18Z</time>
      </trkpt>
      <trkpt lat="42.8433430" lon="-0.0070940">
        <ele>807.8</ele>
        <time>2020-07-26T12:33:19Z</time>
      </trkpt>
      <trkpt lat="42.8434320" lon="-0.0071680">
        <ele>807.4</ele>
        <time>2020-07-26T12:33:20Z</time>
      </trkpt>
      <trkpt lat="42.8436190" lon="-0.0072760">
        <ele>806.4</ele>
        <time>2020-07-26T12:33:22Z</time>
      </trkpt>
      <trkpt lat="42.8437140" lon="-0.0073180">
        <ele>805.8</ele>
        <time>2020-07-26T12:33:23Z</time>
      </trkpt>
      <trkpt lat="42.8439080" lon="-0.0073700">
        <ele>804.8</ele>
        <time>2020-07-26T12:33:25Z</time>
      </trkpt>
      <trkpt lat="42.8440090" lon="-0.0073780">
        <ele>804.6</ele>
        <time>2020-07-26T12:33:26Z</time>
      </trkpt>
      <trkpt lat="42.8441080" lon="-0.0073740">
        <ele>804.4</ele>
        <time>2020-07-26T12:33:27Z</time>
      </trkpt>
      <trkpt lat="42.8447310" lon="-0.0072750">
        <ele>803.4</ele>
        <time>2020-07-26T12:33:33Z</time>
      </trkpt>
      <trkpt lat="42.8449430" lon="-0.0072460">
        <ele>802.2</ele>
        <time>2020-07-26T12:33:35Z</time>
      </trkpt>
      <trkpt lat="42.8451590" lon="-0.0072170">
        <ele>800.8</ele>
        <time>2020-07-26T12:33:37Z</time>
      </trkpt>
      <trkpt lat="42.8454900" lon="-0.0071800">
        <ele>799.4</ele>
        <time>2020-07-26T12:33:40Z</time>
      </trkpt>
      <trkpt lat="42.8457090" lon="-0.0071980">
        <ele>798.2</ele>
        <time>2020-07-26T12:33:42Z</time>
      </trkpt>
      <trkpt lat="42.8457830" lon="-0.0071880">
        <ele>796.4</ele>
        <time>2020-07-26T12:33:44Z</time>
      </trkpt>
      <trkpt lat="42.8458570" lon="-0.0071780">
        <ele>795.2</ele>
        <time>2020-07-26T12:33:45Z</time>
      </trkpt>
      <trkpt lat="42.8459310" lon="-0.0071680">
        <ele>794.0</ele>
        <time>2020-07-26T12:33:46Z</time>
      </trkpt>
      <trkpt lat="42.8460050" lon="-0.0071580">
        <ele>792.6</ele>
        <time>2020-07-26T12:33:48Z</time>
      </trkpt>
      <trkpt lat="42.8460780" lon="-0.0071470">
        <ele>791.0</ele>
        <time>2020-07-26T12:33:50Z</time>
      </trkpt>
      <trkpt lat="42.8461520" lon="-0.0071370">
        <ele>789.8</ele>
        <time>2020-07-26T12:33:52Z</time>
      </trkpt>
      <trkpt lat="42.8462260" lon="-0.0071270">
        <ele>788.6</ele>
        <time>2020-07-26T12:33:56Z</time>
      </trkpt>
      <trkpt lat="42.8463000" lon="-0.0071170">
        <ele>788.4</ele>
        <time>2020-07-26T12:33:57Z</time>
      </trkpt>
      <trkpt lat="42.8474810" lon="-0.0069540">
        <ele>787.8</ele>
        <time>2020-07-26T12:33:59Z</time>
      </trkpt>
      <trkpt lat="42.8475810" lon="-0.0069320">
        <ele>787.6</ele>
        <time>2020-07-26T12:34:00Z</time>
      </trkpt>
      <trkpt lat="42.8478680" lon="-0.0068230">
        <ele>787.2</ele>
        <time>2020-07-26T12:34:03Z</time>
      </trkpt>
      <trkpt lat="42.8481560" lon="-0.0066850">
        <ele>787.0</ele>
        <time>2020-07-26T12:34:06Z</time>
      </trkpt>
      <trkpt lat="42.8484470" lon="-0.0065770">
        <ele>786.6</ele>
        <time>2020-07-26T12:34:09Z</time>
      </trkpt>
      <trkpt lat="42.8485420" lon="-0.0065520">
        <ele>786.4</ele>
        <time>2020-07-26T12:34:11Z</time>
      </trkpt>
      <trkpt lat="42.8491370" lon="-0.0063880">
        <ele>785.2</ele>
        <time>2020-07-26T12:34:16Z</time>
      </trkpt>
      <trkpt lat="42.8492420" lon="-0.0063750">
        <ele>784.4</ele>
        <time>2020-07-26T12:34:17Z</time>
      </trkpt>
      <trkpt lat="42.8493500" lon="-0.0063820">
        <ele>783.4</ele>
        <time>2020-07-26T12:34:18Z</time>
      </trkpt>
      <trkpt lat="42.8494620" lon="-0.0063970">
        <ele>782.2</ele>
        <time>2020-07-26T12:34:19Z</time>
      </trkpt>
      <trkpt lat="42.8495750" lon="-0.0064130">
        <ele>781.2</ele>
        <time>2020-07-26T12:34:20Z</time>
      </trkpt>
      <trkpt lat="42.8496900" lon="-0.0064300">
        <ele>780.6</ele>
        <time>2020-07-26T12:34:21Z</time>
      </trkpt>
      <trkpt lat="42.8499220" lon="-0.0064700">
        <ele>779.6</ele>
        <time>2020-07-26T12:34:23Z</time>
      </trkpt>
      <trkpt lat="42.8500350" lon="-0.0065110">
        <ele>778.6</ele>
        <time>2020-07-26T12:34:25Z</time>
      </trkpt>
      <trkpt lat="42.8501440" lon="-0.0065700">
        <ele>778.2</ele>
        <time>2020-07-26T12:34:26Z</time>
      </trkpt>
      <trkpt lat="42.8502060" lon="-0.0067390">
        <ele>777.8</ele>
        <time>2020-07-26T12:34:27Z</time>
      </trkpt>
      <trkpt lat="42.8502910" lon="-0.0068540">
        <ele>777.4</ele>
        <time>2020-07-26T12:34:28Z</time>
      </trkpt>
      <trkpt lat="42.8503710" lon="-0.0069730">
        <ele>776.8</ele>
        <time>2020-07-26T12:34:29Z</time>
      </trkpt>
      <trkpt lat="42.8504620" lon="-0.0070670">
        <ele>776.2</ele>
        <time>2020-07-26T12:34:30Z</time>
      </trkpt>
      <trkpt lat="42.8506630" lon="-0.0071860">
        <ele>775.4</ele>
        <time>2020-07-26T12:34:32Z</time>
      </trkpt>
      <trkpt lat="42.8512010" lon="-0.0072590">
        <ele>775.2</ele>
        <time>2020-07-26T12:34:36Z</time>
      </trkpt>
      <trkpt lat="42.8513040" lon="-0.0072830">
        <ele>775.0</ele>
        <time>2020-07-26T12:34:37Z</time>
      </trkpt>
      <trkpt lat="42.8514050" lon="-0.0073200">
        <ele>774.4</ele>
        <time>2020-07-26T12:34:39Z</time>
      </trkpt>
      <trkpt lat="42.8515020" lon="-0.0073640">
        <ele>774.0</ele>
        <time>2020-07-26T12:34:40Z</time>
      </trkpt>
      <trkpt lat="42.8516950" lon="-0.0074250">
        <ele>773.6</ele>
        <time>2020-07-26T12:34:41Z</time>
      </trkpt>
      <trkpt lat="42.8518040" lon="-0.0073890">
        <ele>773.0</ele>
        <time>2020-07-26T12:34:43Z</time>
      </trkpt>
      <trkpt lat="42.8518830" lon="-0.0073360">
        <ele>772.8</ele>
        <time>2020-07-26T12:34:44Z</time>
      </trkpt>
      <trkpt lat="42.8519330" lon="-0.0072560">
        <ele>772.8</ele>
        <time>2020-07-26T12:34:45Z</time>
      </trkpt>
      <trkpt lat="42.8519740" lon="-0.0070480">
        <ele>772.2</ele>
        <time>2020-07-26T12:34:47Z</time>
      </trkpt>
      <trkpt lat="42.8520260" lon="-0.0068420">
        <ele>771.8</ele>
        <time>2020-07-26T12:34:49Z</time>
      </trkpt>
      <trkpt lat="42.8521470" lon="-0.0067170">
        <ele>771.0</ele>
        <time>2020-07-26T12:34:51Z</time>
      </trkpt>
      <trkpt lat="42.8522990" lon="-0.0066290">
        <ele>770.6</ele>
        <time>2020-07-26T12:34:52Z</time>
      </trkpt>
      <trkpt lat="42.8523350" lon="-0.0065670">
        <ele>770.4</ele>
        <time>2020-07-26T12:34:53Z</time>
      </trkpt>
      <trkpt lat="42.8523710" lon="-0.0065050">
        <ele>770.2</ele>
        <time>2020-07-26T12:34:54Z</time>
      </trkpt>
      <trkpt lat="42.8525160" lon="-0.0062580">
        <ele>770.0</ele>
        <time>2020-07-26T12:34:56Z</time>
      </trkpt>
      <trkpt lat="42.8525610" lon="-0.0061480">
        <ele>769.8</ele>
        <time>2020-07-26T12:34:57Z</time>
      </trkpt>
      <trkpt lat="42.8526180" lon="-0.0060520">
        <ele>769.6</ele>
        <time>2020-07-26T12:34:58Z</time>
      </trkpt>
      <trkpt lat="42.8528300" lon="-0.0060190">
        <ele>769.4</ele>
        <time>2020-07-26T12:34:59Z</time>
      </trkpt>
      <trkpt lat="42.8530420" lon="-0.0059850">
        <ele>768.2</ele>
        <time>2020-07-26T12:35:02Z</time>
      </trkpt>
      <trkpt lat="42.8532550" lon="-0.0059520">
        <ele>768.0</ele>
        <time>2020-07-26T12:35:08Z</time>
      </trkpt>
      <trkpt lat="42.8534670" lon="-0.0059180">
        <ele>768.2</ele>
        <time>2020-07-26T12:35:14Z</time>
      </trkpt>
      <trkpt lat="42.8536790" lon="-0.0058850">
        <ele>768.2</ele>
        <time>2020-07-26T12:35:16Z</time>
      </trkpt>
      <trkpt lat="42.8542090" lon="-0.0058010">
        <ele>768.0</ele>
        <time>2020-07-26T12:35:17Z</time>
      </trkpt>
      <trkpt lat="42.8544620" lon="-0.0057850">
        <ele>767.8</ele>
        <time>2020-07-26T12:35:20Z</time>
      </trkpt>
      <trkpt lat="42.8545480" lon="-0.0057660">
        <ele>767.0</ele>
        <time>2020-07-26T12:35:22Z</time>
      </trkpt>
      <trkpt lat="42.8547190" lon="-0.0057140">
        <ele>766.8</ele>
        <time>2020-07-26T12:35:24Z</time>
      </trkpt>
      <trkpt lat="42.8549540" lon="-0.0055950">
        <ele>766.4</ele>
        <time>2020-07-26T12:35:27Z</time>
      </trkpt>
      <trkpt lat="42.8550950" lon="-0.0055030">
        <ele>765.6</ele>
        <time>2020-07-26T12:35:29Z</time>
      </trkpt>
      <trkpt lat="42.8552370" lon="-0.0054200">
        <ele>764.2</ele>
        <time>2020-07-26T12:35:31Z</time>
      </trkpt>
      <trkpt lat="42.8553860" lon="-0.0053200">
        <ele>762.2</ele>
        <time>2020-07-26T12:35:33Z</time>
      </trkpt>
      <trkpt lat="42.8554690" lon="-0.0052570">
        <ele>761.2</ele>
        <time>2020-07-26T12:35:34Z</time>
      </trkpt>
      <trkpt lat="42.8555500" lon="-0.0051940">
        <ele>760.2</ele>
        <time>2020-07-26T12:35:35Z</time>
      </trkpt>
      <trkpt lat="42.8557120" lon="-0.0050650">
        <ele>758.8</ele>
        <time>2020-07-26T12:35:37Z</time>
      </trkpt>
      <trkpt lat="42.8557990" lon="-0.0050060">
        <ele>758.4</ele>
        <time>2020-07-26T12:35:38Z</time>
      </trkpt>
      <trkpt lat="42.8558910" lon="-0.0049680">
        <ele>758.2</ele>
        <time>2020-07-26T12:35:39Z</time>
      </trkpt>
      <trkpt lat="42.8559820" lon="-0.0049610">
        <ele>757.8</ele>
        <time>2020-07-26T12:35:40Z</time>
      </trkpt>
      <trkpt lat="42.8561660" lon="-0.0049750">
        <ele>757.0</ele>
        <time>2020-07-26T12:35:42Z</time>
      </trkpt>
      <trkpt lat="42.8562560" lon="-0.0049820">
        <ele>756.2</ele>
        <time>2020-07-26T12:35:43Z</time>
      </trkpt>
      <trkpt lat="42.8564380" lon="-0.0050070">
        <ele>755.0</ele>
        <time>2020-07-26T12:35:45Z</time>
      </trkpt>
      <trkpt lat="42.8565320" lon="-0.0050360">
        <ele>754.0</ele>
        <time>2020-07-26T12:35:46Z</time>
      </trkpt>
      <trkpt lat="42.8566270" lon="-0.0050760">
        <ele>753.2</ele>
        <time>2020-07-26T12:35:47Z</time>
      </trkpt>
      <trkpt lat="42.8568160" lon="-0.0051830">
        <ele>752.0</ele>
        <time>2020-07-26T12:35:49Z</time>
      </trkpt>
      <trkpt lat="42.8570030" lon="-0.0053070">
        <ele>751.0</ele>
        <time>2020-07-26T12:35:51Z</time>
      </trkpt>
      <trkpt lat="42.8571960" lon="-0.0054200">
        <ele>749.8</ele>
        <time>2020-07-26T12:35:53Z</time>
      </trkpt>
      <trkpt lat="42.8572950" lon="-0.0054670">
        <ele>749.2</ele>
        <time>2020-07-26T12:35:54Z</time>
      </trkpt>
      <trkpt lat="42.8573990" lon="-0.0054990">
        <ele>748.6</ele>
        <time>2020-07-26T12:35:55Z</time>
      </trkpt>
      <trkpt lat="42.8575150" lon="-0.0054940">
        <ele>748.0</ele>
        <time>2020-07-26T12:35:56Z</time>
      </trkpt>
      <trkpt lat="42.8576140" lon="-0.0054660">
        <ele>747.6</ele>
        <time>2020-07-26T12:35:57Z</time>
      </trkpt>
      <trkpt lat="42.8577070" lon="-0.0054240">
        <ele>747.2</ele>
        <time>2020-07-26T12:35:58Z</time>
      </trkpt>
      <trkpt lat="42.8577940" lon="-0.0053750">
        <ele>746.8</ele>
        <time>2020-07-26T12:35:59Z</time>
      </trkpt>
      <trkpt lat="42.8578790" lon="-0.0053110">
        <ele>746.4</ele>
        <time>2020-07-26T12:36:00Z</time>
      </trkpt>
      <trkpt lat="42.8580200" lon="-0.0052050">
        <ele>746.0</ele>
        <time>2020-07-26T12:36:02Z</time>
      </trkpt>
      <trkpt lat="42.8580850" lon="-0.0051470">
        <ele>745.8</ele>
        <time>2020-07-26T12:36:03Z</time>
      </trkpt>
      <trkpt lat="42.8581970" lon="-0.0050750">
        <ele>746.0</ele>
        <time>2020-07-26T12:36:06Z</time>
      </trkpt>
      <trkpt lat="42.8583240" lon="-0.0050160">
        <ele>746.6</ele>
        <time>2020-07-26T12:36:08Z</time>
      </trkpt>
      <trkpt lat="42.8584290" lon="-0.0049290">
        <ele>745.8</ele>
        <time>2020-07-26T12:42:35Z</time>
      </trkpt>
      <trkpt lat="42.8585340" lon="-0.0048410">
        <ele>745.8</ele>
        <time>2020-07-26T12:42:36Z</time>
      </trkpt>
      <trkpt lat="42.8587540" lon="-0.0047680">
        <ele>744.8</ele>
        <time>2020-07-26T12:42:40Z</time>
      </trkpt>
      <trkpt lat="42.8588130" lon="-0.0047540">
        <ele>744.2</ele>
        <time>2020-07-26T12:42:41Z</time>
      </trkpt>
      <trkpt lat="42.8588720" lon="-0.0047400">
        <ele>743.8</ele>
        <time>2020-07-26T12:42:42Z</time>
      </trkpt>
      <trkpt lat="42.8589340" lon="-0.0047360">
        <ele>743.4</ele>
        <time>2020-07-26T12:42:43Z</time>
      </trkpt>
      <trkpt lat="42.8590600" lon="-0.0047740">
        <ele>743.0</ele>
        <time>2020-07-26T12:42:45Z</time>
      </trkpt>
      <trkpt lat="42.8591190" lon="-0.0048190">
        <ele>742.6</ele>
        <time>2020-07-26T12:42:46Z</time>
      </trkpt>
      <trkpt lat="42.8592990" lon="-0.0049720">
        <ele>741.2</ele>
        <time>2020-07-26T12:42:49Z</time>
      </trkpt>
      <trkpt lat="42.8593660" lon="-0.0050070">
        <ele>740.8</ele>
        <time>2020-07-26T12:42:50Z</time>
      </trkpt>
      <trkpt lat="42.8595130" lon="-0.0050260">
        <ele>740.0</ele>
        <time>2020-07-26T12:42:52Z</time>
      </trkpt>
      <trkpt lat="42.8596640" lon="-0.0049960">
        <ele>739.0</ele>
        <time>2020-07-26T12:42:54Z</time>
      </trkpt>
      <trkpt lat="42.8597390" lon="-0.0049890">
        <ele>738.8</ele>
        <time>2020-07-26T12:42:55Z</time>
      </trkpt>
      <trkpt lat="42.8598150" lon="-0.0049960">
        <ele>738.6</ele>
        <time>2020-07-26T12:42:56Z</time>
      </trkpt>
      <trkpt lat="42.8598870" lon="-0.0050240">
        <ele>738.4</ele>
        <time>2020-07-26T12:42:57Z</time>
      </trkpt>
      <trkpt lat="42.8600060" lon="-0.0051690">
        <ele>737.8</ele>
        <time>2020-07-26T12:42:59Z</time>
      </trkpt>
      <trkpt lat="42.8601180" lon="-0.0053460">
        <ele>736.6</ele>
        <time>2020-07-26T12:43:01Z</time>
      </trkpt>
      <trkpt lat="42.8601800" lon="-0.0054270">
        <ele>736.2</ele>
        <time>2020-07-26T12:43:02Z</time>
      </trkpt>
      <trkpt lat="42.8603210" lon="-0.0055720">
        <ele>735.4</ele>
        <time>2020-07-26T12:43:04Z</time>
      </trkpt>
      <trkpt lat="42.8604820" lon="-0.0056710">
        <ele>733.8</ele>
        <time>2020-07-26T12:43:06Z</time>
      </trkpt>
      <trkpt lat="42.8606520" lon="-0.0057330">
        <ele>733.2</ele>
        <time>2020-07-26T12:43:08Z</time>
      </trkpt>
      <trkpt lat="42.8610030" lon="-0.0058210">
        <ele>732.8</ele>
        <time>2020-07-26T12:43:12Z</time>
      </trkpt>
      <trkpt lat="42.8612700" lon="-0.0058610">
        <ele>731.8</ele>
        <time>2020-07-26T12:43:15Z</time>
      </trkpt>
      <trkpt lat="42.8613600" lon="-0.0058650">
        <ele>731.4</ele>
        <time>2020-07-26T12:43:16Z</time>
      </trkpt>
      <trkpt lat="42.8615530" lon="-0.0058640">
        <ele>730.0</ele>
        <time>2020-07-26T12:43:18Z</time>
      </trkpt>
      <trkpt lat="42.8617620" lon="-0.0058620">
        <ele>728.0</ele>
        <time>2020-07-26T12:43:20Z</time>
      </trkpt>
      <trkpt lat="42.8618750" lon="-0.0058650">
        <ele>726.8</ele>
        <time>2020-07-26T12:43:21Z</time>
      </trkpt>
      <trkpt lat="42.8619900" lon="-0.0058730">
        <ele>725.8</ele>
        <time>2020-07-26T12:43:22Z</time>
      </trkpt>
      <trkpt lat="42.8622110" lon="-0.0058920">
        <ele>724.4</ele>
        <time>2020-07-26T12:43:24Z</time>
      </trkpt>
      <trkpt lat="42.8623140" lon="-0.0059120">
        <ele>723.8</ele>
        <time>2020-07-26T12:43:25Z</time>
      </trkpt>
      <trkpt lat="42.8624060" lon="-0.0059520">
        <ele>723.4</ele>
        <time>2020-07-26T12:43:26Z</time>
      </trkpt>
      <trkpt lat="42.8624470" lon="-0.0060420">
        <ele>723.2</ele>
        <time>2020-07-26T12:43:27Z</time>
      </trkpt>
      <trkpt lat="42.8624910" lon="-0.0061490">
        <ele>722.8</ele>
        <time>2020-07-26T12:43:28Z</time>
      </trkpt>
      <trkpt lat="42.8625820" lon="-0.0063860">
        <ele>722.4</ele>
        <time>2020-07-26T12:43:30Z</time>
      </trkpt>
      <trkpt lat="42.8626240" lon="-0.0065140">
        <ele>721.6</ele>
        <time>2020-07-26T12:43:31Z</time>
      </trkpt>
      <trkpt lat="42.8627170" lon="-0.0067710">
        <ele>720.4</ele>
        <time>2020-07-26T12:43:33Z</time>
      </trkpt>
      <trkpt lat="42.8627700" lon="-0.0068940">
        <ele>719.4</ele>
        <time>2020-07-26T12:43:34Z</time>
      </trkpt>
      <trkpt lat="42.8628340" lon="-0.0070080">
        <ele>718.2</ele>
        <time>2020-07-26T12:43:35Z</time>
      </trkpt>
      <trkpt lat="42.8629840" lon="-0.0072030">
        <ele>716.8</ele>
        <time>2020-07-26T12:43:37Z</time>
      </trkpt>
      <trkpt lat="42.8631530" lon="-0.0073630">
        <ele>715.6</ele>
        <time>2020-07-26T12:43:39Z</time>
      </trkpt>
      <trkpt lat="42.8634970" lon="-0.0076380">
        <ele>714.4</ele>
        <time>2020-07-26T12:43:43Z</time>
      </trkpt>
      <trkpt lat="42.8636590" lon="-0.0077790">
        <ele>712.8</ele>
        <time>2020-07-26T12:43:45Z</time>
      </trkpt>
      <trkpt lat="42.8637400" lon="-0.0078520">
        <ele>711.8</ele>
        <time>2020-07-26T12:43:46Z</time>
      </trkpt>
      <trkpt lat="42.8639010" lon="-0.0079950">
        <ele>710.0</ele>
        <time>2020-07-26T12:43:48Z</time>
      </trkpt>
      <trkpt lat="42.8640690" lon="-0.0081210">
        <ele>708.8</ele>
        <time>2020-07-26T12:43:50Z</time>
      </trkpt>
      <trkpt lat="42.8642400" lon="-0.0082390">
        <ele>707.8</ele>
        <time>2020-07-26T12:43:52Z</time>
      </trkpt>
      <trkpt lat="42.8643280" lon="-0.0082950">
        <ele>706.8</ele>
        <time>2020-07-26T12:43:53Z</time>
      </trkpt>
      <trkpt lat="42.8644170" lon="-0.0083470">
        <ele>705.6</ele>
        <time>2020-07-26T12:43:54Z</time>
      </trkpt>
      <trkpt lat="42.8646070" lon="-0.0084320">
        <ele>704.0</ele>
        <time>2020-07-26T12:43:56Z</time>
      </trkpt>
      <trkpt lat="42.8648050" lon="-0.0085180">
        <ele>702.8</ele>
        <time>2020-07-26T12:43:58Z</time>
      </trkpt>
      <trkpt lat="42.8651140" lon="-0.0086560">
        <ele>701.6</ele>
        <time>2020-07-26T12:44:01Z</time>
      </trkpt>
      <trkpt lat="42.8653220" lon="-0.0087290">
        <ele>699.4</ele>
        <time>2020-07-26T12:44:03Z</time>
      </trkpt>
      <trkpt lat="42.8654310" lon="-0.0087650">
        <ele>698.2</ele>
        <time>2020-07-26T12:44:04Z</time>
      </trkpt>
      <trkpt lat="42.8655420" lon="-0.0088010">
        <ele>697.2</ele>
        <time>2020-07-26T12:44:05Z</time>
      </trkpt>
      <trkpt lat="42.8656520" lon="-0.0088380">
        <ele>696.4</ele>
        <time>2020-07-26T12:44:06Z</time>
      </trkpt>
      <trkpt lat="42.8658760" lon="-0.0089040">
        <ele>694.4</ele>
        <time>2020-07-26T12:44:08Z</time>
      </trkpt>
      <trkpt lat="42.8660890" lon="-0.0089720">
        <ele>693.2</ele>
        <time>2020-07-26T12:44:10Z</time>
      </trkpt>
      <trkpt lat="42.8662900" lon="-0.0090700">
        <ele>692.2</ele>
        <time>2020-07-26T12:44:12Z</time>
      </trkpt>
      <trkpt lat="42.8664580" lon="-0.0092460">
        <ele>690.8</ele>
        <time>2020-07-26T12:44:14Z</time>
      </trkpt>
      <trkpt lat="42.8665320" lon="-0.0093460">
        <ele>690.0</ele>
        <time>2020-07-26T12:44:15Z</time>
      </trkpt>
      <trkpt lat="42.8666100" lon="-0.0094370">
        <ele>689.2</ele>
        <time>2020-07-26T12:44:16Z</time>
      </trkpt>
      <trkpt lat="42.8667970" lon="-0.0095760">
        <ele>687.6</ele>
        <time>2020-07-26T12:44:18Z</time>
      </trkpt>
      <trkpt lat="42.8669020" lon="-0.0096270">
        <ele>686.4</ele>
        <time>2020-07-26T12:44:19Z</time>
      </trkpt>
      <trkpt lat="42.8670090" lon="-0.0096660">
        <ele>684.6</ele>
        <time>2020-07-26T12:44:20Z</time>
      </trkpt>
      <trkpt lat="42.8671200" lon="-0.0097030">
        <ele>683.0</ele>
        <time>2020-07-26T12:44:21Z</time>
      </trkpt>
      <trkpt lat="42.8672310" lon="-0.0097380">
        <ele>682.0</ele>
        <time>2020-07-26T12:44:22Z</time>
      </trkpt>
      <trkpt lat="42.8673380" lon="-0.0097730">
        <ele>681.2</ele>
        <time>2020-07-26T12:44:23Z</time>
      </trkpt>
      <trkpt lat="42.8675260" lon="-0.0098340">
        <ele>679.4</ele>
        <time>2020-07-26T12:44:25Z</time>
      </trkpt>
      <trkpt lat="42.8676080" lon="-0.0098610">
        <ele>679.0</ele>
        <time>2020-07-26T12:44:26Z</time>
      </trkpt>
      <trkpt lat="42.8678000" lon="-0.0099150">
        <ele>678.2</ele>
        <time>2020-07-26T12:44:29Z</time>
      </trkpt>
      <trkpt lat="42.8678420" lon="-0.0099230">
        <ele>678.0</ele>
        <time>2020-07-26T12:44:30Z</time>
      </trkpt>
      <trkpt lat="42.8679110" lon="-0.0099180">
        <ele>677.6</ele>
        <time>2020-07-26T12:44:32Z</time>
      </trkpt>
      <trkpt lat="42.8679890" lon="-0.0099030">
        <ele>677.4</ele>
        <time>2020-07-26T12:44:34Z</time>
      </trkpt>
      <trkpt lat="42.8680850" lon="-0.0098810">
        <ele>677.4</ele>
        <time>2020-07-26T12:44:36Z</time>
      </trkpt>
      <trkpt lat="42.8681400" lon="-0.0098700">
        <ele>677.2</ele>
        <time>2020-07-26T12:44:37Z</time>
      </trkpt>
      <trkpt lat="42.8682560" lon="-0.0098490">
        <ele>676.8</ele>
        <time>2020-07-26T12:44:39Z</time>
      </trkpt>
      <trkpt lat="42.8685160" lon="-0.0098040">
        <ele>676.6</ele>
        <time>2020-07-26T12:44:43Z</time>
      </trkpt>
      <trkpt lat="42.8687140" lon="-0.0097730">
        <ele>677.0</ele>
        <time>2020-07-26T12:44:46Z</time>
      </trkpt>
      <trkpt lat="42.8688430" lon="-0.0097540">
        <ele>677.2</ele>
        <time>2020-07-26T12:44:48Z</time>
      </trkpt>
      <trkpt lat="42.8692150" lon="-0.0096730">
        <ele>677.8</ele>
        <time>2020-07-26T12:44:54Z</time>
      </trkpt>
      <trkpt lat="42.8693210" lon="-0.0096060">
        <ele>678.2</ele>
        <time>2020-07-26T12:44:56Z</time>
      </trkpt>
      <trkpt lat="42.8693680" lon="-0.0095660">
        <ele>678.2</ele>
        <time>2020-07-26T12:44:57Z</time>
      </trkpt>
      <trkpt lat="42.8694100" lon="-0.0095230">
        <ele>678.4</ele>
        <time>2020-07-26T12:44:58Z</time>
      </trkpt>
      <trkpt lat="42.8694450" lon="-0.0094700">
        <ele>678.6</ele>
        <time>2020-07-26T12:44:59Z</time>
      </trkpt>
      <trkpt lat="42.8695680" lon="-0.0092500">
        <ele>679.4</ele>
        <time>2020-07-26T12:45:03Z</time>
      </trkpt>
      <trkpt lat="42.8696690" lon="-0.0090340">
        <ele>680.2</ele>
        <time>2020-07-26T12:45:07Z</time>
      </trkpt>
      <trkpt lat="42.8697260" lon="-0.0089380">
        <ele>680.6</ele>
        <time>2020-07-26T12:45:09Z</time>
      </trkpt>
      <trkpt lat="42.8697530" lon="-0.0088920">
        <ele>680.8</ele>
        <time>2020-07-26T12:45:10Z</time>
      </trkpt>
      <trkpt lat="42.8697810" lon="-0.0088460">
        <ele>681.2</ele>
        <time>2020-07-26T12:45:11Z</time>
      </trkpt>
      <trkpt lat="42.8698090" lon="-0.0088000">
        <ele>681.6</ele>
        <time>2020-07-26T12:45:12Z</time>
      </trkpt>
      <trkpt lat="42.8698640" lon="-0.0087150">
        <ele>682.4</ele>
        <time>2020-07-26T12:45:14Z</time>
      </trkpt>
      <trkpt lat="42.8699200" lon="-0.0086350">
        <ele>682.8</ele>
        <time>2020-07-26T12:45:16Z</time>
      </trkpt>
      <trkpt lat="42.8700570" lon="-0.0084080">
        <ele>683.4</ele>
        <time>2020-07-26T12:45:21Z</time>
      </trkpt>
      <trkpt lat="42.8701170" lon="-0.0083140">
        <ele>683.8</ele>
        <time>2020-07-26T12:45:23Z</time>
      </trkpt>
      <trkpt lat="42.8703020" lon="-0.0080300">
        <ele>685.0</ele>
        <time>2020-07-26T12:45:29Z</time>
      </trkpt>
      <trkpt lat="42.8703310" lon="-0.0079820">
        <ele>685.2</ele>
        <time>2020-07-26T12:45:30Z</time>
      </trkpt>
      <trkpt lat="42.8703590" lon="-0.0079330">
        <ele>685.6</ele>
        <time>2020-07-26T12:45:31Z</time>
      </trkpt>
      <trkpt lat="42.8704200" lon="-0.0078380">
        <ele>686.2</ele>
        <time>2020-07-26T12:45:33Z</time>
      </trkpt>
      <trkpt lat="42.8706090" lon="-0.0075640">
        <ele>687.2</ele>
        <time>2020-07-26T12:45:39Z</time>
      </trkpt>
      <trkpt lat="42.8706400" lon="-0.0075170">
        <ele>687.6</ele>
        <time>2020-07-26T12:45:40Z</time>
      </trkpt>
      <trkpt lat="42.8707860" lon="-0.0072840">
        <ele>688.6</ele>
        <time>2020-07-26T12:45:45Z</time>
      </trkpt>
      <trkpt lat="42.8709580" lon="-0.0070070">
        <ele>689.8</ele>
        <time>2020-07-26T12:45:51Z</time>
      </trkpt>
      <trkpt lat="42.8710990" lon="-0.0067800">
        <ele>690.8</ele>
        <time>2020-07-26T12:45:56Z</time>
      </trkpt>
      <trkpt lat="42.8712060" lon="-0.0065910">
        <ele>691.2</ele>
        <time>2020-07-26T12:46:00Z</time>
      </trkpt>
      <trkpt lat="42.8713660" lon="-0.0063230">
        <ele>692.0</ele>
        <time>2020-07-26T12:46:06Z</time>
      </trkpt>
      <trkpt lat="42.8714200" lon="-0.0062310">
        <ele>693.0</ele>
        <time>2020-07-26T12:46:08Z</time>
      </trkpt>
      <trkpt lat="42.8715300" lon="-0.0060530">
        <ele>694.0</ele>
        <time>2020-07-26T12:46:12Z</time>
      </trkpt>
      <trkpt lat="42.8716110" lon="-0.0059240">
        <ele>695.2</ele>
        <time>2020-07-26T12:46:15Z</time>
      </trkpt>
      <trkpt lat="42.8716380" lon="-0.0058790">
        <ele>695.6</ele>
        <time>2020-07-26T12:46:16Z</time>
      </trkpt>
      <trkpt lat="42.8718190" lon="-0.0055990">
        <ele>696.0</ele>
        <time>2020-07-26T12:46:22Z</time>
      </trkpt>
      <trkpt lat="42.8718810" lon="-0.0055060">
        <ele>696.0</ele>
        <time>2020-07-26T12:46:24Z</time>
      </trkpt>
      <trkpt lat="42.8719450" lon="-0.0054130">
        <ele>696.0</ele>
        <time>2020-07-26T12:46:26Z</time>
      </trkpt>
      <trkpt lat="42.8719770" lon="-0.0053660">
        <ele>696.2</ele>
        <time>2020-07-26T12:46:27Z</time>
      </trkpt>
      <trkpt lat="42.8721260" lon="-0.0051330">
        <ele>696.8</ele>
        <time>2020-07-26T12:46:32Z</time>
      </trkpt>
      <trkpt lat="42.8721860" lon="-0.0050450">
        <ele>697.6</ele>
        <time>2020-07-26T12:46:34Z</time>
      </trkpt>
      <trkpt lat="42.8723280" lon="-0.0048230">
        <ele>698.4</ele>
        <time>2020-07-26T12:46:39Z</time>
      </trkpt>
      <trkpt lat="42.8723600" lon="-0.0047760">
        <ele>698.6</ele>
        <time>2020-07-26T12:46:40Z</time>
      </trkpt>
      <trkpt lat="42.8724570" lon="-0.0046360">
        <ele>699.6</ele>
        <time>2020-07-26T12:46:43Z</time>
      </trkpt>
      <trkpt lat="42.8725260" lon="-0.0045400">
        <ele>700.0</ele>
        <time>2020-07-26T12:46:45Z</time>
      </trkpt>
      <trkpt lat="42.8726530" lon="-0.0043440">
        <ele>700.6</ele>
        <time>2020-07-26T12:46:49Z</time>
      </trkpt>
      <trkpt lat="42.8726860" lon="-0.0042950">
        <ele>700.8</ele>
        <time>2020-07-26T12:46:50Z</time>
      </trkpt>
      <trkpt lat="42.8728790" lon="-0.0039710">
        <ele>701.8</ele>
        <time>2020-07-26T12:46:56Z</time>
      </trkpt>
      <trkpt lat="42.8730720" lon="-0.0036920">
        <ele>702.8</ele>
        <time>2020-07-26T12:47:02Z</time>
      </trkpt>
      <trkpt lat="42.8730960" lon="-0.0036490">
        <ele>703.0</ele>
        <time>2020-07-26T12:47:03Z</time>
      </trkpt>
      <trkpt lat="42.8731480" lon="-0.0035690">
        <ele>703.2</ele>
        <time>2020-07-26T12:47:05Z</time>
      </trkpt>
      <trkpt lat="42.8732160" lon="-0.0035180">
        <ele>703.2</ele>
        <time>2020-07-26T12:47:07Z</time>
      </trkpt>
      <trkpt lat="42.8732700" lon="-0.0034450">
        <ele>703.2</ele>
        <time>2020-07-26T12:47:09Z</time>
      </trkpt>
      <trkpt lat="42.8733230" lon="-0.0033370">
        <ele>703.2</ele>
        <time>2020-07-26T12:47:12Z</time>
      </trkpt>
      <trkpt lat="42.8733420" lon="-0.0033070">
        <ele>703.2</ele>
        <time>2020-07-26T12:47:13Z</time>
      </trkpt>
      <trkpt lat="42.8733610" lon="-0.0032910">
        <ele>703.4</ele>
        <time>2020-07-26T12:47:14Z</time>
      </trkpt>
      <trkpt lat="42.8735090" lon="-0.0032770">
        <ele>703.6</ele>
        <time>2020-07-26T12:47:19Z</time>
      </trkpt>
      <trkpt lat="42.8736570" lon="-0.0032700">
        <ele>704.2</ele>
        <time>2020-07-26T12:47:23Z</time>
      </trkpt>
      <trkpt lat="42.8737690" lon="-0.0032430">
        <ele>704.8</ele>
        <time>2020-07-26T12:47:26Z</time>
      </trkpt>
      <trkpt lat="42.8738770" lon="-0.0032010">
        <ele>705.0</ele>
        <time>2020-07-26T12:47:29Z</time>
      </trkpt>
      <trkpt lat="42.8740310" lon="-0.0031810">
        <ele>704.0</ele>
        <time>2020-07-26T12:47:33Z</time>
      </trkpt>
      <trkpt lat="42.8741790" lon="-0.0031830">
        <ele>703.6</ele>
        <time>2020-07-26T12:47:37Z</time>
      </trkpt>
      <trkpt lat="42.8742420" lon="-0.0031570">
        <ele>703.6</ele>
        <time>2020-07-26T12:47:39Z</time>
      </trkpt>
      <trkpt lat="42.8742780" lon="-0.0031500">
        <ele>703.8</ele>
        <time>2020-07-26T12:47:40Z</time>
      </trkpt>
      <trkpt lat="42.8749550" lon="-0.0039900">
        <ele>697.2</ele>
        <time>2020-07-26T13:10:23Z</time>
      </trkpt>
      <trkpt lat="42.8749680" lon="-0.0040090">
        <ele>697.2</ele>
        <time>2020-07-26T13:10:24Z</time>
      </trkpt>
      <trkpt lat="42.8750320" lon="-0.0040920">
        <ele>697.2</ele>
        <time>2020-07-26T13:10:26Z</time>
      </trkpt>
      <trkpt lat="42.8750660" lon="-0.0041380">
        <ele>697.0</ele>
        <time>2020-07-26T13:10:27Z</time>
      </trkpt>
      <trkpt lat="42.8751360" lon="-0.0042430">
        <ele>696.4</ele>
        <time>2020-07-26T13:10:29Z</time>
      </trkpt>
      <trkpt lat="42.8751760" lon="-0.0042990">
        <ele>696.0</ele>
        <time>2020-07-26T13:10:30Z</time>
      </trkpt>
      <trkpt lat="42.8752610" lon="-0.0044150">
        <ele>695.0</ele>
        <time>2020-07-26T13:10:32Z</time>
      </trkpt>
      <trkpt lat="42.8753060" lon="-0.0044790">
        <ele>694.4</ele>
        <time>2020-07-26T13:10:33Z</time>
      </trkpt>
      <trkpt lat="42.8754560" lon="-0.0046890">
        <ele>693.2</ele>
        <time>2020-07-26T13:10:36Z</time>
      </trkpt>
      <trkpt lat="42.8755600" lon="-0.0048400">
        <ele>692.2</ele>
        <time>2020-07-26T13:10:38Z</time>
      </trkpt>
      <trkpt lat="42.8756650" lon="-0.0049940">
        <ele>691.0</ele>
        <time>2020-07-26T13:10:40Z</time>
      </trkpt>
      <trkpt lat="42.8757740" lon="-0.0051530">
        <ele>690.2</ele>
        <time>2020-07-26T13:10:42Z</time>
      </trkpt>
      <trkpt lat="42.8758860" lon="-0.0053120">
        <ele>689.8</ele>
        <time>2020-07-26T13:10:44Z</time>
      </trkpt>
      <trkpt lat="42.8759420" lon="-0.0053940">
        <ele>689.6</ele>
        <time>2020-07-26T13:10:45Z</time>
      </trkpt>
      <trkpt lat="42.8761140" lon="-0.0056430">
        <ele>688.4</ele>
        <time>2020-07-26T13:10:48Z</time>
      </trkpt>
      <trkpt lat="42.8763430" lon="-0.0059840">
        <ele>687.4</ele>
        <time>2020-07-26T13:10:52Z</time>
      </trkpt>
      <trkpt lat="42.8764030" lon="-0.0060710">
        <ele>687.2</ele>
        <time>2020-07-26T13:10:53Z</time>
      </trkpt>
      <trkpt lat="42.8764620" lon="-0.0061590">
        <ele>686.8</ele>
        <time>2020-07-26T13:10:54Z</time>
      </trkpt>
      <trkpt lat="42.8765800" lon="-0.0063340">
        <ele>686.0</ele>
        <time>2020-07-26T13:10:56Z</time>
      </trkpt>
      <trkpt lat="42.8767570" lon="-0.0066010">
        <ele>684.8</ele>
        <time>2020-07-26T13:10:59Z</time>
      </trkpt>
      <trkpt lat="42.8769380" lon="-0.0068590">
        <ele>683.8</ele>
        <time>2020-07-26T13:11:02Z</time>
      </trkpt>
      <trkpt lat="42.8770490" lon="-0.0070360">
        <ele>683.2</ele>
        <time>2020-07-26T13:11:04Z</time>
      </trkpt>
      <trkpt lat="42.8771640" lon="-0.0072110">
        <ele>682.6</ele>
        <time>2020-07-26T13:11:06Z</time>
      </trkpt>
      <trkpt lat="42.8773410" lon="-0.0074630">
        <ele>681.6</ele>
        <time>2020-07-26T13:11:09Z</time>
      </trkpt>
      <trkpt lat="42.8773990" lon="-0.0075450">
        <ele>681.6</ele>
        <time>2020-07-26T13:11:10Z</time>
      </trkpt>
      <trkpt lat="42.8775160" lon="-0.0077090">
        <ele>681.2</ele>
        <time>2020-07-26T13:11:12Z</time>
      </trkpt>
      <trkpt lat="42.8776900" lon="-0.0079630">
        <ele>680.4</ele>
        <time>2020-07-26T13:11:15Z</time>
      </trkpt>
      <trkpt lat="42.8778660" lon="-0.0082190">
        <ele>679.0</ele>
        <time>2020-07-26T13:11:18Z</time>
      </trkpt>
      <trkpt lat="42.8780430" lon="-0.0084720">
        <ele>678.2</ele>
        <time>2020-07-26T13:11:21Z</time>
      </trkpt>
      <trkpt lat="42.8781000" lon="-0.0085590">
        <ele>678.0</ele>
        <time>2020-07-26T13:11:22Z</time>
      </trkpt>
      <trkpt lat="42.8783360" lon="-0.0089100">
        <ele>677.2</ele>
        <time>2020-07-26T13:11:26Z</time>
      </trkpt>
      <trkpt lat="42.8783950" lon="-0.0089970">
        <ele>676.4</ele>
        <time>2020-07-26T13:11:27Z</time>
      </trkpt>
      <trkpt lat="42.8786290" lon="-0.0093470">
        <ele>675.4</ele>
        <time>2020-07-26T13:11:31Z</time>
      </trkpt>
      <trkpt lat="42.8788650" lon="-0.0096920">
        <ele>674.6</ele>
        <time>2020-07-26T13:11:35Z</time>
      </trkpt>
      <trkpt lat="42.8789230" lon="-0.0097780">
        <ele>673.8</ele>
        <time>2020-07-26T13:11:36Z</time>
      </trkpt>
      <trkpt lat="42.8791000" lon="-0.0100310">
        <ele>672.4</ele>
        <time>2020-07-26T13:11:39Z</time>
      </trkpt>
      <trkpt lat="42.8791610" lon="-0.0101160">
        <ele>672.4</ele>
        <time>2020-07-26T13:11:40Z</time>
      </trkpt>
      <trkpt lat="42.8793400" lon="-0.0103780">
        <ele>671.2</ele>
        <time>2020-07-26T13:11:43Z</time>
      </trkpt>
      <trkpt lat="42.8794600" lon="-0.0105550">
        <ele>670.4</ele>
        <time>2020-07-26T13:11:45Z</time>
      </trkpt>
      <trkpt lat="42.8795210" lon="-0.0106450">
        <ele>670.0</ele>
        <time>2020-07-26T13:11:46Z</time>
      </trkpt>
      <trkpt lat="42.8796430" lon="-0.0108220">
        <ele>669.0</ele>
        <time>2020-07-26T13:11:48Z</time>
      </trkpt>
      <trkpt lat="42.8797040" lon="-0.0109100">
        <ele>668.6</ele>
        <time>2020-07-26T13:11:49Z</time>
      </trkpt>
      <trkpt lat="42.8797630" lon="-0.0109980">
        <ele>668.0</ele>
        <time>2020-07-26T13:11:50Z</time>
      </trkpt>
      <trkpt lat="42.8799390" lon="-0.0112620">
        <ele>666.8</ele>
        <time>2020-07-26T13:11:53Z</time>
      </trkpt>
      <trkpt lat="42.8801240" lon="-0.0115180">
        <ele>665.6</ele>
        <time>2020-07-26T13:11:56Z</time>
      </trkpt>
      <trkpt lat="42.8803440" lon="-0.0117420">
        <ele>665.2</ele>
        <time>2020-07-26T13:11:59Z</time>
      </trkpt>
      <trkpt lat="42.8805130" lon="-0.0118770">
        <ele>665.0</ele>
        <time>2020-07-26T13:12:01Z</time>
      </trkpt>
      <trkpt lat="42.8806000" lon="-0.0119420">
        <ele>664.4</ele>
        <time>2020-07-26T13:12:02Z</time>
      </trkpt>
      <trkpt lat="42.8806870" lon="-0.0120090">
        <ele>663.2</ele>
        <time>2020-07-26T13:12:03Z</time>
      </trkpt>
      <trkpt lat="42.8807770" lon="-0.0120730">
        <ele>662.2</ele>
        <time>2020-07-26T13:12:04Z</time>
      </trkpt>
      <trkpt lat="42.8809540" lon="-0.0122080">
        <ele>661.2</ele>
        <time>2020-07-26T13:12:06Z</time>
      </trkpt>
      <trkpt lat="42.8811280" lon="-0.0123410">
        <ele>660.4</ele>
        <time>2020-07-26T13:12:08Z</time>
      </trkpt>
      <trkpt lat="42.8812140" lon="-0.0124080">
        <ele>660.2</ele>
        <time>2020-07-26T13:12:09Z</time>
      </trkpt>
      <trkpt lat="42.8815500" lon="-0.0126620">
        <ele>659.0</ele>
        <time>2020-07-26T13:12:13Z</time>
      </trkpt>
      <trkpt lat="42.8817190" lon="-0.0127880">
        <ele>658.0</ele>
        <time>2020-07-26T13:12:15Z</time>
      </trkpt>
      <trkpt lat="42.8818030" lon="-0.0128500">
        <ele>657.4</ele>
        <time>2020-07-26T13:12:16Z</time>
      </trkpt>
      <trkpt lat="42.8819700" lon="-0.0129770">
        <ele>656.8</ele>
        <time>2020-07-26T13:12:18Z</time>
      </trkpt>
      <trkpt lat="42.8822180" lon="-0.0131580">
        <ele>655.8</ele>
        <time>2020-07-26T13:12:21Z</time>
      </trkpt>
      <trkpt lat="42.8823840" lon="-0.0132830">
        <ele>654.6</ele>
        <time>2020-07-26T13:12:23Z</time>
      </trkpt>
      <trkpt lat="42.8825490" lon="-0.0134100">
        <ele>653.6</ele>
        <time>2020-07-26T13:12:25Z</time>
      </trkpt>
      <trkpt lat="42.8826310" lon="-0.0134730">
        <ele>653.4</ele>
        <time>2020-07-26T13:12:26Z</time>
      </trkpt>
      <trkpt lat="42.8828770" lon="-0.0136670">
        <ele>653.0</ele>
        <time>2020-07-26T13:12:29Z</time>
      </trkpt>
      <trkpt lat="42.8830470" lon="-0.0137950">
        <ele>652.2</ele>
        <time>2020-07-26T13:12:31Z</time>
      </trkpt>
      <trkpt lat="42.8833080" lon="-0.0139870">
        <ele>651.0</ele>
        <time>2020-07-26T13:12:34Z</time>
      </trkpt>
      <trkpt lat="42.8835740" lon="-0.0141780">
        <ele>649.6</ele>
        <time>2020-07-26T13:12:37Z</time>
      </trkpt>
      <trkpt lat="42.8836610" lon="-0.0142420">
        <ele>649.4</ele>
        <time>2020-07-26T13:12:38Z</time>
      </trkpt>
      <trkpt lat="42.8840170" lon="-0.0145020">
        <ele>648.6</ele>
        <time>2020-07-26T13:12:42Z</time>
      </trkpt>
      <trkpt lat="42.8841080" lon="-0.0145670">
        <ele>648.4</ele>
        <time>2020-07-26T13:12:43Z</time>
      </trkpt>
      <trkpt lat="42.8843860" lon="-0.0147640">
        <ele>647.8</ele>
        <time>2020-07-26T13:12:46Z</time>
      </trkpt>
      <trkpt lat="42.8844790" lon="-0.0148260">
        <ele>647.0</ele>
        <time>2020-07-26T13:12:47Z</time>
      </trkpt>
      <trkpt lat="42.8846590" lon="-0.0149480">
        <ele>645.6</ele>
        <time>2020-07-26T13:12:49Z</time>
      </trkpt>
      <trkpt lat="42.8848340" lon="-0.0150590">
        <ele>645.4</ele>
        <time>2020-07-26T13:12:51Z</time>
      </trkpt>
      <trkpt lat="42.8852930" lon="-0.0154150">
        <ele>645.8</ele>
        <time>2020-07-26T13:12:57Z</time>
      </trkpt>
      <trkpt lat="42.8853930" lon="-0.0155840">
        <ele>646.0</ele>
        <time>2020-07-26T13:12:59Z</time>
      </trkpt>
      <trkpt lat="42.8854220" lon="-0.0156870">
        <ele>646.4</ele>
        <time>2020-07-26T13:13:00Z</time>
      </trkpt>
      <trkpt lat="42.8854390" lon="-0.0157980">
        <ele>646.6</ele>
        <time>2020-07-26T13:13:01Z</time>
      </trkpt>
      <trkpt lat="42.8854500" lon="-0.0159130">
        <ele>646.8</ele>
        <time>2020-07-26T13:13:02Z</time>
      </trkpt>
      <trkpt lat="42.8854700" lon="-0.0161420">
        <ele>646.8</ele>
        <time>2020-07-26T13:13:04Z</time>
      </trkpt>
      <trkpt lat="42.8854890" lon="-0.0162510">
        <ele>646.8</ele>
        <time>2020-07-26T13:13:05Z</time>
      </trkpt>
      <trkpt lat="42.8855630" lon="-0.0164510">
        <ele>646.8</ele>
        <time>2020-07-26T13:13:07Z</time>
      </trkpt>
      <trkpt lat="42.8857360" lon="-0.0166770">
        <ele>647.0</ele>
        <time>2020-07-26T13:13:10Z</time>
      </trkpt>
      <trkpt lat="42.8859960" lon="-0.0169240">
        <ele>647.0</ele>
        <time>2020-07-26T13:13:14Z</time>
      </trkpt>
      <trkpt lat="42.8862080" lon="-0.0171180">
        <ele>646.8</ele>
        <time>2020-07-26T13:13:17Z</time>
      </trkpt>
      <trkpt lat="42.8864370" lon="-0.0173280">
        <ele>645.4</ele>
        <time>2020-07-26T13:13:20Z</time>
      </trkpt>
      <trkpt lat="42.8865190" lon="-0.0174010">
        <ele>644.4</ele>
        <time>2020-07-26T13:13:21Z</time>
      </trkpt>
      <trkpt lat="42.8866850" lon="-0.0175500">
        <ele>643.0</ele>
        <time>2020-07-26T13:13:23Z</time>
      </trkpt>
      <trkpt lat="42.8871100" lon="-0.0179250">
        <ele>641.8</ele>
        <time>2020-07-26T13:13:28Z</time>
      </trkpt>
      <trkpt lat="42.8874430" lon="-0.0182280">
        <ele>641.0</ele>
        <time>2020-07-26T13:13:32Z</time>
      </trkpt>
      <trkpt lat="42.8875230" lon="-0.0183020">
        <ele>640.2</ele>
        <time>2020-07-26T13:13:33Z</time>
      </trkpt>
      <trkpt lat="42.8877670" lon="-0.0185180">
        <ele>639.2</ele>
        <time>2020-07-26T13:13:36Z</time>
      </trkpt>
      <trkpt lat="42.8881100" lon="-0.0188200">
        <ele>638.4</ele>
        <time>2020-07-26T13:13:40Z</time>
      </trkpt>
      <trkpt lat="42.8881930" lon="-0.0189000">
        <ele>637.8</ele>
        <time>2020-07-26T13:13:41Z</time>
      </trkpt>
      <trkpt lat="42.8883440" lon="-0.0190760">
        <ele>636.8</ele>
        <time>2020-07-26T13:13:43Z</time>
      </trkpt>
      <trkpt lat="42.8884110" lon="-0.0191700">
        <ele>636.6</ele>
        <time>2020-07-26T13:13:44Z</time>
      </trkpt>
      <trkpt lat="42.8884710" lon="-0.0192680">
        <ele>636.4</ele>
        <time>2020-07-26T13:13:45Z</time>
      </trkpt>
      <trkpt lat="42.8886330" lon="-0.0195650">
        <ele>636.0</ele>
        <time>2020-07-26T13:13:48Z</time>
      </trkpt>
      <trkpt lat="42.8889280" lon="-0.0201550">
        <ele>636.2</ele>
        <time>2020-07-26T13:13:54Z</time>
      </trkpt>
      <trkpt lat="42.8889860" lon="-0.0202440">
        <ele>636.4</ele>
        <time>2020-07-26T13:13:55Z</time>
      </trkpt>
      <trkpt lat="42.8893760" lon="-0.0207380">
        <ele>635.6</ele>
        <time>2020-07-26T13:14:01Z</time>
      </trkpt>
      <trkpt lat="42.8896010" lon="-0.0209370">
        <ele>635.0</ele>
        <time>2020-07-26T13:14:04Z</time>
      </trkpt>
      <trkpt lat="42.8898750" lon="-0.0212220">
        <ele>634.4</ele>
        <time>2020-07-26T13:14:08Z</time>
      </trkpt>
      <trkpt lat="42.8899910" lon="-0.0213840">
        <ele>634.0</ele>
        <time>2020-07-26T13:14:10Z</time>
      </trkpt>
      <trkpt lat="42.8900430" lon="-0.0214690">
        <ele>633.8</ele>
        <time>2020-07-26T13:14:11Z</time>
      </trkpt>
      <trkpt lat="42.8902050" lon="-0.0217270">
        <ele>634.2</ele>
        <time>2020-07-26T13:14:14Z</time>
      </trkpt>
      <trkpt lat="42.8904040" lon="-0.0221000">
        <ele>634.2</ele>
        <time>2020-07-26T13:14:18Z</time>
      </trkpt>
      <trkpt lat="42.8904930" lon="-0.0222960">
        <ele>633.2</ele>
        <time>2020-07-26T13:14:20Z</time>
      </trkpt>
      <trkpt lat="42.8905370" lon="-0.0223930">
        <ele>632.8</ele>
        <time>2020-07-26T13:14:21Z</time>
      </trkpt>
      <trkpt lat="42.8905800" lon="-0.0224910">
        <ele>632.6</ele>
        <time>2020-07-26T13:14:22Z</time>
      </trkpt>
      <trkpt lat="42.8908450" lon="-0.0230610">
        <ele>632.2</ele>
        <time>2020-07-26T13:14:28Z</time>
      </trkpt>
      <trkpt lat="42.8908920" lon="-0.0231510">
        <ele>632.0</ele>
        <time>2020-07-26T13:14:29Z</time>
      </trkpt>
      <trkpt lat="42.8911880" lon="-0.0235640">
        <ele>631.4</ele>
        <time>2020-07-26T13:14:34Z</time>
      </trkpt>
      <trkpt lat="42.8912590" lon="-0.0236310">
        <ele>631.4</ele>
        <time>2020-07-26T13:14:35Z</time>
      </trkpt>
      <trkpt lat="42.8914820" lon="-0.0238090">
        <ele>631.2</ele>
        <time>2020-07-26T13:14:38Z</time>
      </trkpt>
      <trkpt lat="42.8915610" lon="-0.0238610">
        <ele>631.2</ele>
        <time>2020-07-26T13:14:39Z</time>
      </trkpt>
      <trkpt lat="42.8919550" lon="-0.0241220">
        <ele>630.2</ele>
        <time>2020-07-26T13:14:44Z</time>
      </trkpt>
      <trkpt lat="42.8920320" lon="-0.0241750">
        <ele>629.8</ele>
        <time>2020-07-26T13:14:45Z</time>
      </trkpt>
      <trkpt lat="42.8921820" lon="-0.0242750">
        <ele>629.4</ele>
        <time>2020-07-26T13:14:47Z</time>
      </trkpt>
      <trkpt lat="42.8924000" lon="-0.0244150">
        <ele>629.2</ele>
        <time>2020-07-26T13:14:50Z</time>
      </trkpt>
      <trkpt lat="42.8927150" lon="-0.0246100">
        <ele>630.2</ele>
        <time>2020-07-26T13:14:54Z</time>
      </trkpt>
      <trkpt lat="42.8928870" lon="-0.0247050">
        <ele>630.2</ele>
        <time>2020-07-26T13:14:56Z</time>
      </trkpt>
      <trkpt lat="42.8931500" lon="-0.0248530">
        <ele>629.0</ele>
        <time>2020-07-26T13:14:59Z</time>
      </trkpt>
      <trkpt lat="42.8933240" lon="-0.0249500">
        <ele>627.6</ele>
        <time>2020-07-26T13:15:01Z</time>
      </trkpt>
      <trkpt lat="42.8934070" lon="-0.0250000">
        <ele>627.2</ele>
        <time>2020-07-26T13:15:02Z</time>
      </trkpt>
      <trkpt lat="42.8938950" lon="-0.0252940">
        <ele>627.0</ele>
        <time>2020-07-26T13:15:08Z</time>
      </trkpt>
      <trkpt lat="42.8942200" lon="-0.0254960">
        <ele>626.2</ele>
        <time>2020-07-26T13:15:12Z</time>
      </trkpt>
      <trkpt lat="42.8943000" lon="-0.0255460">
        <ele>625.8</ele>
        <time>2020-07-26T13:15:13Z</time>
      </trkpt>
      <trkpt lat="42.8944550" lon="-0.0256420">
        <ele>625.0</ele>
        <time>2020-07-26T13:15:15Z</time>
      </trkpt>
      <trkpt lat="42.8946810" lon="-0.0257780">
        <ele>625.2</ele>
        <time>2020-07-26T13:15:18Z</time>
      </trkpt>
      <trkpt lat="42.8949020" lon="-0.0259090">
        <ele>626.2</ele>
        <time>2020-07-26T13:15:21Z</time>
      </trkpt>
      <trkpt lat="42.8949750" lon="-0.0259540">
        <ele>626.4</ele>
        <time>2020-07-26T13:15:22Z</time>
      </trkpt>
      <trkpt lat="42.8951190" lon="-0.0260430">
        <ele>626.2</ele>
        <time>2020-07-26T13:15:24Z</time>
      </trkpt>
      <trkpt lat="42.8953350" lon="-0.0261770">
        <ele>625.2</ele>
        <time>2020-07-26T13:15:27Z</time>
      </trkpt>
      <trkpt lat="42.8954790" lon="-0.0262650">
        <ele>624.6</ele>
        <time>2020-07-26T13:15:29Z</time>
      </trkpt>
      <trkpt lat="42.8956990" lon="-0.0264010">
        <ele>624.0</ele>
        <time>2020-07-26T13:15:32Z</time>
      </trkpt>
      <trkpt lat="42.8958510" lon="-0.0264930">
        <ele>623.8</ele>
        <time>2020-07-26T13:15:34Z</time>
      </trkpt>
      <trkpt lat="42.8960770" lon="-0.0266300">
        <ele>623.8</ele>
        <time>2020-07-26T13:15:37Z</time>
      </trkpt>
      <trkpt lat="42.8963750" lon="-0.0268120">
        <ele>622.8</ele>
        <time>2020-07-26T13:15:41Z</time>
      </trkpt>
      <trkpt lat="42.8965270" lon="-0.0269090">
        <ele>622.4</ele>
        <time>2020-07-26T13:15:43Z</time>
      </trkpt>
      <trkpt lat="42.8969080" lon="-0.0271440">
        <ele>621.8</ele>
        <time>2020-07-26T13:15:48Z</time>
      </trkpt>
      <trkpt lat="42.8971360" lon="-0.0272820">
        <ele>621.2</ele>
        <time>2020-07-26T13:15:51Z</time>
      </trkpt>
      <trkpt lat="42.8973640" lon="-0.0274200">
        <ele>620.6</ele>
        <time>2020-07-26T13:15:54Z</time>
      </trkpt>
      <trkpt lat="42.8975960" lon="-0.0275620">
        <ele>620.2</ele>
        <time>2020-07-26T13:15:57Z</time>
      </trkpt>
      <trkpt lat="42.8977530" lon="-0.0276610">
        <ele>619.8</ele>
        <time>2020-07-26T13:15:59Z</time>
      </trkpt>
      <trkpt lat="42.8978320" lon="-0.0277100">
        <ele>619.6</ele>
        <time>2020-07-26T13:16:00Z</time>
      </trkpt>
      <trkpt lat="42.8983220" lon="-0.0279800">
        <ele>619.2</ele>
        <time>2020-07-26T13:16:06Z</time>
      </trkpt>
      <trkpt lat="42.8984840" lon="-0.0280670">
        <ele>619.4</ele>
        <time>2020-07-26T13:16:08Z</time>
      </trkpt>
      <trkpt lat="42.8989740" lon="-0.0283320">
        <ele>620.2</ele>
        <time>2020-07-26T13:16:14Z</time>
      </trkpt>
      <trkpt lat="42.8991230" lon="-0.0284470">
        <ele>620.6</ele>
        <time>2020-07-26T13:16:16Z</time>
      </trkpt>
      <trkpt lat="42.8995200" lon="-0.0288210">
        <ele>621.8</ele>
        <time>2020-07-26T13:16:22Z</time>
      </trkpt>
      <trkpt lat="42.8995880" lon="-0.0288750">
        <ele>622.2</ele>
        <time>2020-07-26T13:16:23Z</time>
      </trkpt>
      <trkpt lat="42.9000300" lon="-0.0291910">
        <ele>621.2</ele>
        <time>2020-07-26T13:16:29Z</time>
      </trkpt>
      <trkpt lat="42.9001080" lon="-0.0292480">
        <ele>621.0</ele>
        <time>2020-07-26T13:16:30Z</time>
      </trkpt>
      <trkpt lat="42.9001870" lon="-0.0293070">
        <ele>620.6</ele>
        <time>2020-07-26T13:16:31Z</time>
      </trkpt>
      <trkpt lat="42.9004350" lon="-0.0294930">
        <ele>620.0</ele>
        <time>2020-07-26T13:16:34Z</time>
      </trkpt>
      <trkpt lat="42.9006970" lon="-0.0296860">
        <ele>619.6</ele>
        <time>2020-07-26T13:16:37Z</time>
      </trkpt>
      <trkpt lat="42.9007840" lon="-0.0297510">
        <ele>619.6</ele>
        <time>2020-07-26T13:16:38Z</time>
      </trkpt>
      <trkpt lat="42.9010460" lon="-0.0299550">
        <ele>618.6</ele>
        <time>2020-07-26T13:16:41Z</time>
      </trkpt>
      <trkpt lat="42.9011360" lon="-0.0300240">
        <ele>618.2</ele>
        <time>2020-07-26T13:16:42Z</time>
      </trkpt>
      <trkpt lat="42.9014150" lon="-0.0302350">
        <ele>617.2</ele>
        <time>2020-07-26T13:16:45Z</time>
      </trkpt>
      <trkpt lat="42.9016960" lon="-0.0304540">
        <ele>616.0</ele>
        <time>2020-07-26T13:16:48Z</time>
      </trkpt>
      <trkpt lat="42.9018840" lon="-0.0306020">
        <ele>614.4</ele>
        <time>2020-07-26T13:16:50Z</time>
      </trkpt>
      <trkpt lat="42.9022600" lon="-0.0308910">
        <ele>613.8</ele>
        <time>2020-07-26T13:16:54Z</time>
      </trkpt>
      <trkpt lat="42.9028380" lon="-0.0312840">
        <ele>614.2</ele>
        <time>2020-07-26T13:17:00Z</time>
      </trkpt>
      <trkpt lat="42.9029360" lon="-0.0313370">
        <ele>613.6</ele>
        <time>2020-07-26T13:17:01Z</time>
      </trkpt>
      <trkpt lat="42.9030350" lon="-0.0313900">
        <ele>613.0</ele>
        <time>2020-07-26T13:17:02Z</time>
      </trkpt>
      <trkpt lat="42.9034290" lon="-0.0315530">
        <ele>612.0</ele>
        <time>2020-07-26T13:17:06Z</time>
      </trkpt>
      <trkpt lat="42.9035330" lon="-0.0315420">
        <ele>611.6</ele>
        <time>2020-07-26T13:17:07Z</time>
      </trkpt>
      <trkpt lat="42.9036340" lon="-0.0315140">
        <ele>611.6</ele>
        <time>2020-07-26T13:17:08Z</time>
      </trkpt>
      <trkpt lat="42.9038290" lon="-0.0314480">
        <ele>611.4</ele>
        <time>2020-07-26T13:17:10Z</time>
      </trkpt>
      <trkpt lat="42.9039280" lon="-0.0314390">
        <ele>611.2</ele>
        <time>2020-07-26T13:17:11Z</time>
      </trkpt>
      <trkpt lat="42.9040240" lon="-0.0314580">
        <ele>610.8</ele>
        <time>2020-07-26T13:17:12Z</time>
      </trkpt>
      <trkpt lat="42.9041170" lon="-0.0315000">
        <ele>610.8</ele>
        <time>2020-07-26T13:17:13Z</time>
      </trkpt>
      <trkpt lat="42.9044550" lon="-0.0318060">
        <ele>610.0</ele>
        <time>2020-07-26T13:17:17Z</time>
      </trkpt>
      <trkpt lat="42.9045210" lon="-0.0319100">
        <ele>609.8</ele>
        <time>2020-07-26T13:17:18Z</time>
      </trkpt>
      <trkpt lat="42.9046340" lon="-0.0321380">
        <ele>609.0</ele>
        <time>2020-07-26T13:17:20Z</time>
      </trkpt>
      <trkpt lat="42.9046840" lon="-0.0322580">
        <ele>608.8</ele>
        <time>2020-07-26T13:17:21Z</time>
      </trkpt>
      <trkpt lat="42.9050460" lon="-0.0329390">
        <ele>608.4</ele>
        <time>2020-07-26T13:17:27Z</time>
      </trkpt>
      <trkpt lat="42.9051810" lon="-0.0331600">
        <ele>607.8</ele>
        <time>2020-07-26T13:17:29Z</time>
      </trkpt>
      <trkpt lat="42.9053260" lon="-0.0333710">
        <ele>606.6</ele>
        <time>2020-07-26T13:17:31Z</time>
      </trkpt>
      <trkpt lat="42.9054720" lon="-0.0335820">
        <ele>605.2</ele>
        <time>2020-07-26T13:17:33Z</time>
      </trkpt>
      <trkpt lat="42.9056100" lon="-0.0337890">
        <ele>603.6</ele>
        <time>2020-07-26T13:17:35Z</time>
      </trkpt>
      <trkpt lat="42.9056710" lon="-0.0339010">
        <ele>602.2</ele>
        <time>2020-07-26T13:17:36Z</time>
      </trkpt>
      <trkpt lat="42.9057780" lon="-0.0341290">
        <ele>600.6</ele>
        <time>2020-07-26T13:17:38Z</time>
      </trkpt>
      <trkpt lat="42.9059090" lon="-0.0344590">
        <ele>599.8</ele>
        <time>2020-07-26T13:17:41Z</time>
      </trkpt>
      <trkpt lat="42.9059510" lon="-0.0345580">
        <ele>600.2</ele>
        <time>2020-07-26T13:17:42Z</time>
      </trkpt>
      <trkpt lat="42.9059970" lon="-0.0346460">
        <ele>600.8</ele>
        <time>2020-07-26T13:17:43Z</time>
      </trkpt>
      <trkpt lat="42.9061320" lon="-0.0347120">
        <ele>601.4</ele>
        <time>2020-07-26T13:17:45Z</time>
      </trkpt>
      <trkpt lat="42.9061990" lon="-0.0347020">
        <ele>602.0</ele>
        <time>2020-07-26T13:17:46Z</time>
      </trkpt>
      <trkpt lat="42.9062660" lon="-0.0346740">
        <ele>602.4</ele>
        <time>2020-07-26T13:17:47Z</time>
      </trkpt>
      <trkpt lat="42.9063370" lon="-0.0346460">
        <ele>602.6</ele>
        <time>2020-07-26T13:17:48Z</time>
      </trkpt>
      <trkpt lat="42.9064160" lon="-0.0346300">
        <ele>602.6</ele>
        <time>2020-07-26T13:17:49Z</time>
      </trkpt>
      <trkpt lat="42.9065690" lon="-0.0346730">
        <ele>603.4</ele>
        <time>2020-07-26T13:17:51Z</time>
      </trkpt>
      <trkpt lat="42.9067130" lon="-0.0347650">
        <ele>603.8</ele>
        <time>2020-07-26T13:17:53Z</time>
      </trkpt>
      <trkpt lat="42.9067830" lon="-0.0348140">
        <ele>604.4</ele>
        <time>2020-07-26T13:17:54Z</time>
      </trkpt>
      <trkpt lat="42.9069230" lon="-0.0349020">
        <ele>605.0</ele>
        <time>2020-07-26T13:17:56Z</time>
      </trkpt>
      <trkpt lat="42.9071990" lon="-0.0350160">
        <ele>606.0</ele>
        <time>2020-07-26T13:18:00Z</time>
      </trkpt>
      <trkpt lat="42.9073400" lon="-0.0350690">
        <ele>607.0</ele>
        <time>2020-07-26T13:18:02Z</time>
      </trkpt>
      <trkpt lat="42.9074080" lon="-0.0351090">
        <ele>607.4</ele>
        <time>2020-07-26T13:18:03Z</time>
      </trkpt>
      <trkpt lat="42.9074730" lon="-0.0351580">
        <ele>607.8</ele>
        <time>2020-07-26T13:18:04Z</time>
      </trkpt>
      <trkpt lat="42.9075380" lon="-0.0352140">
        <ele>608.2</ele>
        <time>2020-07-26T13:18:05Z</time>
      </trkpt>
      <trkpt lat="42.9076690" lon="-0.0353340">
        <ele>608.4</ele>
        <time>2020-07-26T13:18:07Z</time>
      </trkpt>
      <trkpt lat="42.9077370" lon="-0.0353800">
        <ele>608.4</ele>
        <time>2020-07-26T13:18:08Z</time>
      </trkpt>
      <trkpt lat="42.9081600" lon="-0.0356710">
        <ele>609.2</ele>
        <time>2020-07-26T13:18:14Z</time>
      </trkpt>
      <trkpt lat="42.9082290" lon="-0.0357220">
        <ele>609.4</ele>
        <time>2020-07-26T13:18:15Z</time>
      </trkpt>
      <trkpt lat="42.9084300" lon="-0.0358960">
        <ele>610.2</ele>
        <time>2020-07-26T13:18:18Z</time>
      </trkpt>
      <trkpt lat="42.9086220" lon="-0.0361000">
        <ele>610.6</ele>
        <time>2020-07-26T13:18:21Z</time>
      </trkpt>
      <trkpt lat="42.9088990" lon="-0.0363290">
        <ele>611.4</ele>
        <time>2020-07-26T13:18:25Z</time>
      </trkpt>
      <trkpt lat="42.9089700" lon="-0.0363750">
        <ele>611.6</ele>
        <time>2020-07-26T13:18:26Z</time>
      </trkpt>
      <trkpt lat="42.9090400" lon="-0.0364130">
        <ele>611.8</ele>
        <time>2020-07-26T13:18:27Z</time>
      </trkpt>
      <trkpt lat="42.9091100" lon="-0.0364490">
        <ele>612.2</ele>
        <time>2020-07-26T13:18:28Z</time>
      </trkpt>
      <trkpt lat="42.9091760" lon="-0.0364830">
        <ele>612.6</ele>
        <time>2020-07-26T13:18:29Z</time>
      </trkpt>
      <trkpt lat="42.9093050" lon="-0.0365350">
        <ele>613.4</ele>
        <time>2020-07-26T13:18:31Z</time>
      </trkpt>
      <trkpt lat="42.9093680" lon="-0.0365570">
        <ele>613.6</ele>
        <time>2020-07-26T13:18:32Z</time>
      </trkpt>
      <trkpt lat="42.9096280" lon="-0.0366350">
        <ele>615.0</ele>
        <time>2020-07-26T13:18:36Z</time>
      </trkpt>
      <trkpt lat="42.9097590" lon="-0.0366460">
        <ele>615.8</ele>
        <time>2020-07-26T13:18:38Z</time>
      </trkpt>
      <trkpt lat="42.9098270" lon="-0.0366480">
        <ele>616.2</ele>
        <time>2020-07-26T13:18:39Z</time>
      </trkpt>
      <trkpt lat="42.9100300" lon="-0.0366450">
        <ele>616.8</ele>
        <time>2020-07-26T13:18:42Z</time>
      </trkpt>
      <trkpt lat="42.9102350" lon="-0.0366520">
        <ele>617.2</ele>
        <time>2020-07-26T13:18:45Z</time>
      </trkpt>
      <trkpt lat="42.9103050" lon="-0.0366500">
        <ele>617.4</ele>
        <time>2020-07-26T13:18:46Z</time>
      </trkpt>
      <trkpt lat="42.9105210" lon="-0.0366570">
        <ele>618.4</ele>
        <time>2020-07-26T13:18:49Z</time>
      </trkpt>
      <trkpt lat="42.9107580" lon="-0.0366740">
        <ele>618.8</ele>
        <time>2020-07-26T13:18:52Z</time>
      </trkpt>
      <trkpt lat="42.9111500" lon="-0.0367750">
        <ele>618.4</ele>
        <time>2020-07-26T13:18:57Z</time>
      </trkpt>
      <trkpt lat="42.9112260" lon="-0.0368140">
        <ele>618.2</ele>
        <time>2020-07-26T13:18:58Z</time>
      </trkpt>
      <trkpt lat="42.9113780" lon="-0.0369040">
        <ele>617.6</ele>
        <time>2020-07-26T13:19:00Z</time>
      </trkpt>
      <trkpt lat="42.9116190" lon="-0.0370430">
        <ele>617.4</ele>
        <time>2020-07-26T13:19:03Z</time>
      </trkpt>
      <trkpt lat="42.9117970" lon="-0.0371180">
        <ele>617.8</ele>
        <time>2020-07-26T13:19:05Z</time>
      </trkpt>
      <trkpt lat="42.9123270" lon="-0.0373220">
        <ele>618.2</ele>
        <time>2020-07-26T13:19:11Z</time>
      </trkpt>
      <trkpt lat="42.9124180" lon="-0.0373290">
        <ele>617.8</ele>
        <time>2020-07-26T13:19:12Z</time>
      </trkpt>
      <trkpt lat="42.9125090" lon="-0.0373360">
        <ele>617.6</ele>
        <time>2020-07-26T13:19:13Z</time>
      </trkpt>
      <trkpt lat="42.9126010" lon="-0.0373230">
        <ele>616.8</ele>
        <time>2020-07-26T13:19:14Z</time>
      </trkpt>
      <trkpt lat="42.9127840" lon="-0.0372490">
        <ele>614.4</ele>
        <time>2020-07-26T13:19:16Z</time>
      </trkpt>
      <trkpt lat="42.9128780" lon="-0.0372030">
        <ele>612.6</ele>
        <time>2020-07-26T13:19:17Z</time>
      </trkpt>
      <trkpt lat="42.9129750" lon="-0.0371650">
        <ele>611.2</ele>
        <time>2020-07-26T13:19:18Z</time>
      </trkpt>
      <trkpt lat="42.9130740" lon="-0.0371420">
        <ele>610.6</ele>
        <time>2020-07-26T13:19:19Z</time>
      </trkpt>
      <trkpt lat="42.9131760" lon="-0.0371380">
        <ele>610.0</ele>
        <time>2020-07-26T13:19:20Z</time>
      </trkpt>
      <trkpt lat="42.9132810" lon="-0.0371320">
        <ele>609.6</ele>
        <time>2020-07-26T13:19:21Z</time>
      </trkpt>
      <trkpt lat="42.9134900" lon="-0.0370760">
        <ele>608.6</ele>
        <time>2020-07-26T13:19:23Z</time>
      </trkpt>
      <trkpt lat="42.9135900" lon="-0.0370280">
        <ele>608.0</ele>
        <time>2020-07-26T13:19:24Z</time>
      </trkpt>
      <trkpt lat="42.9136880" lon="-0.0369820">
        <ele>607.4</ele>
        <time>2020-07-26T13:19:25Z</time>
      </trkpt>
      <trkpt lat="42.9138860" lon="-0.0369040">
        <ele>606.6</ele>
        <time>2020-07-26T13:19:27Z</time>
      </trkpt>
      <trkpt lat="42.9139840" lon="-0.0369070">
        <ele>606.4</ele>
        <time>2020-07-26T13:19:28Z</time>
      </trkpt>
      <trkpt lat="42.9140830" lon="-0.0369240">
        <ele>606.4</ele>
        <time>2020-07-26T13:19:29Z</time>
      </trkpt>
      <trkpt lat="42.9144620" lon="-0.0371010">
        <ele>606.2</ele>
        <time>2020-07-26T13:19:33Z</time>
      </trkpt>
      <trkpt lat="42.9149960" lon="-0.0374210">
        <ele>606.0</ele>
        <time>2020-07-26T13:19:39Z</time>
      </trkpt>
      <trkpt lat="42.9151630" lon="-0.0375150">
        <ele>606.4</ele>
        <time>2020-07-26T13:19:41Z</time>
      </trkpt>
      <trkpt lat="42.9155680" lon="-0.0377400">
        <ele>607.8</ele>
        <time>2020-07-26T13:19:46Z</time>
      </trkpt>
      <trkpt lat="42.9158850" lon="-0.0379120">
        <ele>608.6</ele>
        <time>2020-07-26T13:19:50Z</time>
      </trkpt>
      <trkpt lat="42.9159630" lon="-0.0379530">
        <ele>608.8</ele>
        <time>2020-07-26T13:19:51Z</time>
      </trkpt>
      <trkpt lat="42.9161170" lon="-0.0380330">
        <ele>609.0</ele>
        <time>2020-07-26T13:19:53Z</time>
      </trkpt>
      <trkpt lat="42.9161930" lon="-0.0380690">
        <ele>609.2</ele>
        <time>2020-07-26T13:19:54Z</time>
      </trkpt>
      <trkpt lat="42.9163410" lon="-0.0381460">
        <ele>610.0</ele>
        <time>2020-07-26T13:19:56Z</time>
      </trkpt>
      <trkpt lat="42.9164110" lon="-0.0381910">
        <ele>610.2</ele>
        <time>2020-07-26T13:19:57Z</time>
      </trkpt>
      <trkpt lat="42.9164770" lon="-0.0382460">
        <ele>610.4</ele>
        <time>2020-07-26T13:19:58Z</time>
      </trkpt>
      <trkpt lat="42.9165380" lon="-0.0383140">
        <ele>610.8</ele>
        <time>2020-07-26T13:19:59Z</time>
      </trkpt>
      <trkpt lat="42.9166450" lon="-0.0384830">
        <ele>611.0</ele>
        <time>2020-07-26T13:20:01Z</time>
      </trkpt>
      <trkpt lat="42.9166960" lon="-0.0385710">
        <ele>611.0</ele>
        <time>2020-07-26T13:20:02Z</time>
      </trkpt>
      <trkpt lat="42.9168520" lon="-0.0388350">
        <ele>611.2</ele>
        <time>2020-07-26T13:20:05Z</time>
      </trkpt>
      <trkpt lat="42.9171480" lon="-0.0393490">
        <ele>611.6</ele>
        <time>2020-07-26T13:20:11Z</time>
      </trkpt>
      <trkpt lat="42.9171980" lon="-0.0394310">
        <ele>611.6</ele>
        <time>2020-07-26T13:20:12Z</time>
      </trkpt>
      <trkpt lat="42.9174760" lon="-0.0398210">
        <ele>610.8</ele>
        <time>2020-07-26T13:20:17Z</time>
      </trkpt>
      <trkpt lat="42.9175490" lon="-0.0398640">
        <ele>610.4</ele>
        <time>2020-07-26T13:20:18Z</time>
      </trkpt>
      <trkpt lat="42.9176300" lon="-0.0398840">
        <ele>609.8</ele>
        <time>2020-07-26T13:20:19Z</time>
      </trkpt>
      <trkpt lat="42.9178060" lon="-0.0398900">
        <ele>609.2</ele>
        <time>2020-07-26T13:20:21Z</time>
      </trkpt>
      <trkpt lat="42.9179890" lon="-0.0398960">
        <ele>608.8</ele>
        <time>2020-07-26T13:20:23Z</time>
      </trkpt>
      <trkpt lat="42.9180800" lon="-0.0399130">
        <ele>608.2</ele>
        <time>2020-07-26T13:20:24Z</time>
      </trkpt>
      <trkpt lat="42.9181680" lon="-0.0399460">
        <ele>607.8</ele>
        <time>2020-07-26T13:20:25Z</time>
      </trkpt>
      <trkpt lat="42.9182530" lon="-0.0399930">
        <ele>607.6</ele>
        <time>2020-07-26T13:20:26Z</time>
      </trkpt>
      <trkpt lat="42.9184050" lon="-0.0401400">
        <ele>607.0</ele>
        <time>2020-07-26T13:20:28Z</time>
      </trkpt>
      <trkpt lat="42.9184740" lon="-0.0402290">
        <ele>607.0</ele>
        <time>2020-07-26T13:20:29Z</time>
      </trkpt>
      <trkpt lat="42.9186190" lon="-0.0403870">
        <ele>606.6</ele>
        <time>2020-07-26T13:20:31Z</time>
      </trkpt>
      <trkpt lat="42.9187030" lon="-0.0404260">
        <ele>606.0</ele>
        <time>2020-07-26T13:20:32Z</time>
      </trkpt>
      <trkpt lat="42.9187900" lon="-0.0404360">
        <ele>605.2</ele>
        <time>2020-07-26T13:20:33Z</time>
      </trkpt>
      <trkpt lat="42.9189650" lon="-0.0403820">
        <ele>604.8</ele>
        <time>2020-07-26T13:20:35Z</time>
      </trkpt>
      <trkpt lat="42.9191490" lon="-0.0402930">
        <ele>604.4</ele>
        <time>2020-07-26T13:20:37Z</time>
      </trkpt>
      <trkpt lat="42.9193450" lon="-0.0402430">
        <ele>604.6</ele>
        <time>2020-07-26T13:20:39Z</time>
      </trkpt>
      <trkpt lat="42.9194480" lon="-0.0402530">
        <ele>604.6</ele>
        <time>2020-07-26T13:20:40Z</time>
      </trkpt>
      <trkpt lat="42.9196530" lon="-0.0402930">
        <ele>604.0</ele>
        <time>2020-07-26T13:20:42Z</time>
      </trkpt>
      <trkpt lat="42.9197590" lon="-0.0402950">
        <ele>603.6</ele>
        <time>2020-07-26T13:20:43Z</time>
      </trkpt>
      <trkpt lat="42.9199640" lon="-0.0402780">
        <ele>603.4</ele>
        <time>2020-07-26T13:20:45Z</time>
      </trkpt>
      <trkpt lat="42.9201530" lon="-0.0402770">
        <ele>603.6</ele>
        <time>2020-07-26T13:20:47Z</time>
      </trkpt>
      <trkpt lat="42.9202300" lon="-0.0403030">
        <ele>604.0</ele>
        <time>2020-07-26T13:20:48Z</time>
      </trkpt>
      <trkpt lat="42.9202960" lon="-0.0403560">
        <ele>604.4</ele>
        <time>2020-07-26T13:20:49Z</time>
      </trkpt>
      <trkpt lat="42.9203520" lon="-0.0404210">
        <ele>604.8</ele>
        <time>2020-07-26T13:20:50Z</time>
      </trkpt>
      <trkpt lat="42.9204050" lon="-0.0404860">
        <ele>605.0</ele>
        <time>2020-07-26T13:20:51Z</time>
      </trkpt>
      <trkpt lat="42.9205070" lon="-0.0406200">
        <ele>605.8</ele>
        <time>2020-07-26T13:20:53Z</time>
      </trkpt>
      <trkpt lat="42.9206220" lon="-0.0407340">
        <ele>606.2</ele>
        <time>2020-07-26T13:20:55Z</time>
      </trkpt>
      <trkpt lat="42.9206910" lon="-0.0407790">
        <ele>606.4</ele>
        <time>2020-07-26T13:20:56Z</time>
      </trkpt>
      <trkpt lat="42.9209040" lon="-0.0408670">
        <ele>606.6</ele>
        <time>2020-07-26T13:20:59Z</time>
      </trkpt>
      <trkpt lat="42.9209860" lon="-0.0408570">
        <ele>606.8</ele>
        <time>2020-07-26T13:21:00Z</time>
      </trkpt>
      <trkpt lat="42.9210640" lon="-0.0408320">
        <ele>607.0</ele>
        <time>2020-07-26T13:21:01Z</time>
      </trkpt>
      <trkpt lat="42.9211460" lon="-0.0407980">
        <ele>607.2</ele>
        <time>2020-07-26T13:21:02Z</time>
      </trkpt>
      <trkpt lat="42.9213960" lon="-0.0406810">
        <ele>607.2</ele>
        <time>2020-07-26T13:21:05Z</time>
      </trkpt>
      <trkpt lat="42.9216610" lon="-0.0406190">
        <ele>606.8</ele>
        <time>2020-07-26T13:21:07Z</time>
      </trkpt>
      <trkpt lat="42.9217780" lon="-0.0406610">
        <ele>605.6</ele>
        <time>2020-07-26T13:21:09Z</time>
      </trkpt>
      <trkpt lat="42.9218950" lon="-0.0407030">
        <ele>604.0</ele>
        <time>2020-07-26T13:21:11Z</time>
      </trkpt>
      <trkpt lat="42.9221660" lon="-0.0407660">
        <ele>603.0</ele>
        <time>2020-07-26T13:21:13Z</time>
      </trkpt>
      <trkpt lat="42.9222160" lon="-0.0407770">
        <ele>602.8</ele>
        <time>2020-07-26T13:21:14Z</time>
      </trkpt>
      <trkpt lat="42.9222660" lon="-0.0407880">
        <ele>602.8</ele>
        <time>2020-07-26T13:21:15Z</time>
      </trkpt>
      <trkpt lat="42.9227230" lon="-0.0407320">
        <ele>602.0</ele>
        <time>2020-07-26T13:21:19Z</time>
      </trkpt>
      <trkpt lat="42.9228410" lon="-0.0407060">
        <ele>601.6</ele>
        <time>2020-07-26T13:21:20Z</time>
      </trkpt>
      <trkpt lat="42.9229590" lon="-0.0406920">
        <ele>600.8</ele>
        <time>2020-07-26T13:21:21Z</time>
      </trkpt>
      <trkpt lat="42.9230700" lon="-0.0407150">
        <ele>600.0</ele>
        <time>2020-07-26T13:21:22Z</time>
      </trkpt>
      <trkpt lat="42.9231790" lon="-0.0407480">
        <ele>599.2</ele>
        <time>2020-07-26T13:21:23Z</time>
      </trkpt>
      <trkpt lat="42.9232870" lon="-0.0407960">
        <ele>598.6</ele>
        <time>2020-07-26T13:21:24Z</time>
      </trkpt>
      <trkpt lat="42.9236200" lon="-0.0408800">
        <ele>597.2</ele>
        <time>2020-07-26T13:21:27Z</time>
      </trkpt>
      <trkpt lat="42.9237310" lon="-0.0408620">
        <ele>596.2</ele>
        <time>2020-07-26T13:21:28Z</time>
      </trkpt>
      <trkpt lat="42.9238410" lon="-0.0408410">
        <ele>595.4</ele>
        <time>2020-07-26T13:21:29Z</time>
      </trkpt>
      <trkpt lat="42.9239520" lon="-0.0408250">
        <ele>594.6</ele>
        <time>2020-07-26T13:21:30Z</time>
      </trkpt>
      <trkpt lat="42.9240620" lon="-0.0408430">
        <ele>594.2</ele>
        <time>2020-07-26T13:21:31Z</time>
      </trkpt>
      <trkpt lat="42.9241650" lon="-0.0408950">
        <ele>594.0</ele>
        <time>2020-07-26T13:21:32Z</time>
      </trkpt>
      <trkpt lat="42.9243480" lon="-0.0410800">
        <ele>593.8</ele>
        <time>2020-07-26T13:21:34Z</time>
      </trkpt>
      <trkpt lat="42.9244400" lon="-0.0411810">
        <ele>593.8</ele>
        <time>2020-07-26T13:21:35Z</time>
      </trkpt>
      <trkpt lat="42.9247430" lon="-0.0414970">
        <ele>593.6</ele>
        <time>2020-07-26T13:21:38Z</time>
      </trkpt>
      <trkpt lat="42.9248470" lon="-0.0415960">
        <ele>593.2</ele>
        <time>2020-07-26T13:21:39Z</time>
      </trkpt>
      <trkpt lat="42.9250550" lon="-0.0417810">
        <ele>591.8</ele>
        <time>2020-07-26T13:21:41Z</time>
      </trkpt>
      <trkpt lat="42.9251580" lon="-0.0418680">
        <ele>591.2</ele>
        <time>2020-07-26T13:21:42Z</time>
      </trkpt>
      <trkpt lat="42.9252590" lon="-0.0419490">
        <ele>590.4</ele>
        <time>2020-07-26T13:21:43Z</time>
      </trkpt>
      <trkpt lat="42.9253630" lon="-0.0420210">
        <ele>589.2</ele>
        <time>2020-07-26T13:21:44Z</time>
      </trkpt>
      <trkpt lat="42.9254670" lon="-0.0420810">
        <ele>588.2</ele>
        <time>2020-07-26T13:21:45Z</time>
      </trkpt>
      <trkpt lat="42.9255740" lon="-0.0421180">
        <ele>587.2</ele>
        <time>2020-07-26T13:21:46Z</time>
      </trkpt>
      <trkpt lat="42.9257300" lon="-0.0420890">
        <ele>586.0</ele>
        <time>2020-07-26T13:21:47Z</time>
      </trkpt>
      <trkpt lat="42.9258860" lon="-0.0420600">
        <ele>585.0</ele>
        <time>2020-07-26T13:21:48Z</time>
      </trkpt>
      <trkpt lat="42.9259260" lon="-0.0420190">
        <ele>584.2</ele>
        <time>2020-07-26T13:21:49Z</time>
      </trkpt>
      <trkpt lat="42.9259660" lon="-0.0419780">
        <ele>583.6</ele>
        <time>2020-07-26T13:21:50Z</time>
      </trkpt>
      <trkpt lat="42.9260450" lon="-0.0418960">
        <ele>582.6</ele>
        <time>2020-07-26T13:21:51Z</time>
      </trkpt>
      <trkpt lat="42.9261250" lon="-0.0418080">
        <ele>581.4</ele>
        <time>2020-07-26T13:21:52Z</time>
      </trkpt>
      <trkpt lat="42.9264350" lon="-0.0416560">
        <ele>580.0</ele>
        <time>2020-07-26T13:21:54Z</time>
      </trkpt>
      <trkpt lat="42.9265550" lon="-0.0416580">
        <ele>579.6</ele>
        <time>2020-07-26T13:21:55Z</time>
      </trkpt>
      <trkpt lat="42.9268100" lon="-0.0416790">
        <ele>578.6</ele>
        <time>2020-07-26T13:21:58Z</time>
      </trkpt>
      <trkpt lat="42.9272250" lon="-0.0417440">
        <ele>577.0</ele>
        <time>2020-07-26T13:22:00Z</time>
      </trkpt>
      <trkpt lat="42.9273650" lon="-0.0417810">
        <ele>575.4</ele>
        <time>2020-07-26T13:22:01Z</time>
      </trkpt>
      <trkpt lat="42.9275040" lon="-0.0418200">
        <ele>574.0</ele>
        <time>2020-07-26T13:22:02Z</time>
      </trkpt>
      <trkpt lat="42.9275710" lon="-0.0418470">
        <ele>572.8</ele>
        <time>2020-07-26T13:22:03Z</time>
      </trkpt>
      <trkpt lat="42.9276370" lon="-0.0418750">
        <ele>571.8</ele>
        <time>2020-07-26T13:22:04Z</time>
      </trkpt>
      <trkpt lat="42.9279030" lon="-0.0419850">
        <ele>570.2</ele>
        <time>2020-07-26T13:22:06Z</time>
      </trkpt>
      <trkpt lat="42.9280330" lon="-0.0420570">
        <ele>569.4</ele>
        <time>2020-07-26T13:22:07Z</time>
      </trkpt>
      <trkpt lat="42.9281650" lon="-0.0421200">
        <ele>568.4</ele>
        <time>2020-07-26T13:22:08Z</time>
      </trkpt>
      <trkpt lat="42.9284170" lon="-0.0422600">
        <ele>567.0</ele>
        <time>2020-07-26T13:22:10Z</time>
      </trkpt>
      <trkpt lat="42.9287480" lon="-0.0425280">
        <ele>565.8</ele>
        <time>2020-07-26T13:22:12Z</time>
      </trkpt>
      <trkpt lat="42.9289580" lon="-0.0427540">
        <ele>564.2</ele>
        <time>2020-07-26T13:22:14Z</time>
      </trkpt>
      <trkpt lat="42.9290070" lon="-0.0428200">
        <ele>563.0</ele>
        <time>2020-07-26T13:22:15Z</time>
      </trkpt>
      <trkpt lat="42.9290560" lon="-0.0428860">
        <ele>562.2</ele>
        <time>2020-07-26T13:22:16Z</time>
      </trkpt>
      <trkpt lat="42.9291530" lon="-0.0430180">
        <ele>561.4</ele>
        <time>2020-07-26T13:22:17Z</time>
      </trkpt>
      <trkpt lat="42.9293540" lon="-0.0433190">
        <ele>560.4</ele>
        <time>2020-07-26T13:22:19Z</time>
      </trkpt>
      <trkpt lat="42.9294560" lon="-0.0434270">
        <ele>559.4</ele>
        <time>2020-07-26T13:22:20Z</time>
      </trkpt>
      <trkpt lat="42.9295570" lon="-0.0435340">
        <ele>558.4</ele>
        <time>2020-07-26T13:22:21Z</time>
      </trkpt>
      <trkpt lat="42.9297330" lon="-0.0437470">
        <ele>557.0</ele>
        <time>2020-07-26T13:22:23Z</time>
      </trkpt>
      <trkpt lat="42.9297970" lon="-0.0438790">
        <ele>556.2</ele>
        <time>2020-07-26T13:22:24Z</time>
      </trkpt>
      <trkpt lat="42.9298450" lon="-0.0440250">
        <ele>555.6</ele>
        <time>2020-07-26T13:22:25Z</time>
      </trkpt>
      <trkpt lat="42.9299260" lon="-0.0443420">
        <ele>554.0</ele>
        <time>2020-07-26T13:22:27Z</time>
      </trkpt>
      <trkpt lat="42.9299690" lon="-0.0445010">
        <ele>552.8</ele>
        <time>2020-07-26T13:22:28Z</time>
      </trkpt>
      <trkpt lat="42.9300190" lon="-0.0446460">
        <ele>551.6</ele>
        <time>2020-07-26T13:22:29Z</time>
      </trkpt>
      <trkpt lat="42.9300710" lon="-0.0447830">
        <ele>550.6</ele>
        <time>2020-07-26T13:22:30Z</time>
      </trkpt>
      <trkpt lat="42.9301880" lon="-0.0450520">
        <ele>549.2</ele>
        <time>2020-07-26T13:22:32Z</time>
      </trkpt>
      <trkpt lat="42.9303920" lon="-0.0454480">
        <ele>547.8</ele>
        <time>2020-07-26T13:22:35Z</time>
      </trkpt>
      <trkpt lat="42.9304770" lon="-0.0455690">
        <ele>546.6</ele>
        <time>2020-07-26T13:22:36Z</time>
      </trkpt>
      <trkpt lat="42.9305640" lon="-0.0456880">
        <ele>545.2</ele>
        <time>2020-07-26T13:22:37Z</time>
      </trkpt>
      <trkpt lat="42.9306510" lon="-0.0458040">
        <ele>544.2</ele>
        <time>2020-07-26T13:22:38Z</time>
      </trkpt>
      <trkpt lat="42.9307390" lon="-0.0459150">
        <ele>542.8</ele>
        <time>2020-07-26T13:22:39Z</time>
      </trkpt>
      <trkpt lat="42.9308330" lon="-0.0460110">
        <ele>541.8</ele>
        <time>2020-07-26T13:22:40Z</time>
      </trkpt>
      <trkpt lat="42.9309310" lon="-0.0460890">
        <ele>540.8</ele>
        <time>2020-07-26T13:22:41Z</time>
      </trkpt>
      <trkpt lat="42.9310360" lon="-0.0461500">
        <ele>540.4</ele>
        <time>2020-07-26T13:22:42Z</time>
      </trkpt>
      <trkpt lat="42.9311410" lon="-0.0461970">
        <ele>540.4</ele>
        <time>2020-07-26T13:22:43Z</time>
      </trkpt>
      <trkpt lat="42.9312490" lon="-0.0462150">
        <ele>540.6</ele>
        <time>2020-07-26T13:22:44Z</time>
      </trkpt>
      <trkpt lat="42.9314700" lon="-0.0461820">
        <ele>540.4</ele>
        <time>2020-07-26T13:22:46Z</time>
      </trkpt>
      <trkpt lat="42.9315810" lon="-0.0461510">
        <ele>540.4</ele>
        <time>2020-07-26T13:22:47Z</time>
      </trkpt>
      <trkpt lat="42.9318210" lon="-0.0461280">
        <ele>540.2</ele>
        <time>2020-07-26T13:22:49Z</time>
      </trkpt>
      <trkpt lat="42.9319430" lon="-0.0461440">
        <ele>540.0</ele>
        <time>2020-07-26T13:22:50Z</time>
      </trkpt>
      <trkpt lat="42.9320630" lon="-0.0461760">
        <ele>539.8</ele>
        <time>2020-07-26T13:22:51Z</time>
      </trkpt>
      <trkpt lat="42.9322970" lon="-0.0462840">
        <ele>539.2</ele>
        <time>2020-07-26T13:22:53Z</time>
      </trkpt>
      <trkpt lat="42.9326530" lon="-0.0464930">
        <ele>537.8</ele>
        <time>2020-07-26T13:22:56Z</time>
      </trkpt>
      <trkpt lat="42.9328970" lon="-0.0466080">
        <ele>537.0</ele>
        <time>2020-07-26T13:22:58Z</time>
      </trkpt>
      <trkpt lat="42.9330190" lon="-0.0466600">
        <ele>536.8</ele>
        <time>2020-07-26T13:22:59Z</time>
      </trkpt>
      <trkpt lat="42.9331390" lon="-0.0467210">
        <ele>536.6</ele>
        <time>2020-07-26T13:23:00Z</time>
      </trkpt>
      <trkpt lat="42.9333730" lon="-0.0468700">
        <ele>536.0</ele>
        <time>2020-07-26T13:23:02Z</time>
      </trkpt>
      <trkpt lat="42.9334890" lon="-0.0469520">
        <ele>535.6</ele>
        <time>2020-07-26T13:23:03Z</time>
      </trkpt>
      <trkpt lat="42.9337200" lon="-0.0471230">
        <ele>534.6</ele>
        <time>2020-07-26T13:23:05Z</time>
      </trkpt>
      <trkpt lat="42.9339530" lon="-0.0472980">
        <ele>533.2</ele>
        <time>2020-07-26T13:23:07Z</time>
      </trkpt>
      <trkpt lat="42.9342700" lon="-0.0475940">
        <ele>532.2</ele>
        <time>2020-07-26T13:23:10Z</time>
      </trkpt>
      <trkpt lat="42.9343640" lon="-0.0477170">
        <ele>532.0</ele>
        <time>2020-07-26T13:23:11Z</time>
      </trkpt>
      <trkpt lat="42.9345210" lon="-0.0479750">
        <ele>531.0</ele>
        <time>2020-07-26T13:23:13Z</time>
      </trkpt>
      <trkpt lat="42.9345950" lon="-0.0482070">
        <ele>530.0</ele>
        <time>2020-07-26T13:23:14Z</time>
      </trkpt>
      <trkpt lat="42.9346690" lon="-0.0484400">
        <ele>528.6</ele>
        <time>2020-07-26T13:23:15Z</time>
      </trkpt>
      <trkpt lat="42.9347280" lon="-0.0485670">
        <ele>527.2</ele>
        <time>2020-07-26T13:23:16Z</time>
      </trkpt>
      <trkpt lat="42.9348040" lon="-0.0486630">
        <ele>525.8</ele>
        <time>2020-07-26T13:23:17Z</time>
      </trkpt>
      <trkpt lat="42.9348890" lon="-0.0487260">
        <ele>525.0</ele>
        <time>2020-07-26T13:23:18Z</time>
      </trkpt>
      <trkpt lat="42.9349860" lon="-0.0487470">
        <ele>524.4</ele>
        <time>2020-07-26T13:23:19Z</time>
      </trkpt>
      <trkpt lat="42.9350870" lon="-0.0487370">
        <ele>524.2</ele>
        <time>2020-07-26T13:23:20Z</time>
      </trkpt>
      <trkpt lat="42.9353030" lon="-0.0486800">
        <ele>523.8</ele>
        <time>2020-07-26T13:23:22Z</time>
      </trkpt>
      <trkpt lat="42.9355330" lon="-0.0486250">
        <ele>523.2</ele>
        <time>2020-07-26T13:23:24Z</time>
      </trkpt>
      <trkpt lat="42.9357760" lon="-0.0485750">
        <ele>521.6</ele>
        <time>2020-07-26T13:23:27Z</time>
      </trkpt>
      <trkpt lat="42.9359630" lon="-0.0485610">
        <ele>521.2</ele>
        <time>2020-07-26T13:23:28Z</time>
      </trkpt>
      <trkpt lat="42.9361500" lon="-0.0485470">
        <ele>520.6</ele>
        <time>2020-07-26T13:23:29Z</time>
      </trkpt>
      <trkpt lat="42.9363970" lon="-0.0485470">
        <ele>519.2</ele>
        <time>2020-07-26T13:23:31Z</time>
      </trkpt>
      <trkpt lat="42.9365200" lon="-0.0485600">
        <ele>518.6</ele>
        <time>2020-07-26T13:23:32Z</time>
      </trkpt>
      <trkpt lat="42.9366380" lon="-0.0486120">
        <ele>518.2</ele>
        <time>2020-07-26T13:23:33Z</time>
      </trkpt>
      <trkpt lat="42.9367490" lon="-0.0486990">
        <ele>517.8</ele>
        <time>2020-07-26T13:23:34Z</time>
      </trkpt>
      <trkpt lat="42.9368460" lon="-0.0488100">
        <ele>517.2</ele>
        <time>2020-07-26T13:23:35Z</time>
      </trkpt>
      <trkpt lat="42.9369260" lon="-0.0489400">
        <ele>516.8</ele>
        <time>2020-07-26T13:23:36Z</time>
      </trkpt>
      <trkpt lat="42.9369920" lon="-0.0490890">
        <ele>514.8</ele>
        <time>2020-07-26T13:23:38Z</time>
      </trkpt>
      <trkpt lat="42.9371530" lon="-0.0493620">
        <ele>513.6</ele>
        <time>2020-07-26T13:23:40Z</time>
      </trkpt>
      <trkpt lat="42.9373520" lon="-0.0495640">
        <ele>512.6</ele>
        <time>2020-07-26T13:23:42Z</time>
      </trkpt>
      <trkpt lat="42.9374650" lon="-0.0496340">
        <ele>512.2</ele>
        <time>2020-07-26T13:23:43Z</time>
      </trkpt>
      <trkpt lat="42.9378090" lon="-0.0498070">
        <ele>511.6</ele>
        <time>2020-07-26T13:23:46Z</time>
      </trkpt>
      <trkpt lat="42.9380330" lon="-0.0499240">
        <ele>511.0</ele>
        <time>2020-07-26T13:23:48Z</time>
      </trkpt>
      <trkpt lat="42.9383640" lon="-0.0501120">
        <ele>509.4</ele>
        <time>2020-07-26T13:23:51Z</time>
      </trkpt>
      <trkpt lat="42.9386940" lon="-0.0502900">
        <ele>508.6</ele>
        <time>2020-07-26T13:23:54Z</time>
      </trkpt>
      <trkpt lat="42.9387990" lon="-0.0503630">
        <ele>508.4</ele>
        <time>2020-07-26T13:23:55Z</time>
      </trkpt>
      <trkpt lat="42.9388970" lon="-0.0504500">
        <ele>508.4</ele>
        <time>2020-07-26T13:23:56Z</time>
      </trkpt>
      <trkpt lat="42.9389860" lon="-0.0505640">
        <ele>508.4</ele>
        <time>2020-07-26T13:23:57Z</time>
      </trkpt>
      <trkpt lat="42.9391580" lon="-0.0507990">
        <ele>508.4</ele>
        <time>2020-07-26T13:23:59Z</time>
      </trkpt>
      <trkpt lat="42.9392370" lon="-0.0509270">
        <ele>508.2</ele>
        <time>2020-07-26T13:24:00Z</time>
      </trkpt>
      <trkpt lat="42.9393060" lon="-0.0510660">
        <ele>507.8</ele>
        <time>2020-07-26T13:24:01Z</time>
      </trkpt>
      <trkpt lat="42.9394080" lon="-0.0513710">
        <ele>506.8</ele>
        <time>2020-07-26T13:24:03Z</time>
      </trkpt>
      <trkpt lat="42.9394390" lon="-0.0515320">
        <ele>506.0</ele>
        <time>2020-07-26T13:24:04Z</time>
      </trkpt>
      <trkpt lat="42.9394660" lon="-0.0516990">
        <ele>505.0</ele>
        <time>2020-07-26T13:24:05Z</time>
      </trkpt>
      <trkpt lat="42.9395980" lon="-0.0523670">
        <ele>503.6</ele>
        <time>2020-07-26T13:24:08Z</time>
      </trkpt>
      <trkpt lat="42.9396440" lon="-0.0525280">
        <ele>503.0</ele>
        <time>2020-07-26T13:24:09Z</time>
      </trkpt>
      <trkpt lat="42.9396900" lon="-0.0526900">
        <ele>502.6</ele>
        <time>2020-07-26T13:24:10Z</time>
      </trkpt>
      <trkpt lat="42.9397880" lon="-0.0529980">
        <ele>501.0</ele>
        <time>2020-07-26T13:24:12Z</time>
      </trkpt>
      <trkpt lat="42.9398460" lon="-0.0531350">
        <ele>500.2</ele>
        <time>2020-07-26T13:24:13Z</time>
      </trkpt>
      <trkpt lat="42.9399140" lon="-0.0532530">
        <ele>499.4</ele>
        <time>2020-07-26T13:24:14Z</time>
      </trkpt>
      <trkpt lat="42.9399940" lon="-0.0533500">
        <ele>499.0</ele>
        <time>2020-07-26T13:24:15Z</time>
      </trkpt>
      <trkpt lat="42.9401900" lon="-0.0534610">
        <ele>498.6</ele>
        <time>2020-07-26T13:24:17Z</time>
      </trkpt>
      <trkpt lat="42.9404030" lon="-0.0534380">
        <ele>498.2</ele>
        <time>2020-07-26T13:24:19Z</time>
      </trkpt>
      <trkpt lat="42.9405040" lon="-0.0533780">
        <ele>498.0</ele>
        <time>2020-07-26T13:24:21Z</time>
      </trkpt>
      <trkpt lat="42.9407730" lon="-0.0531090">
        <ele>497.6</ele>
        <time>2020-07-26T13:24:23Z</time>
      </trkpt>
      <trkpt lat="42.9410370" lon="-0.0527830">
        <ele>497.2</ele>
        <time>2020-07-26T13:24:26Z</time>
      </trkpt>
      <trkpt lat="42.9412310" lon="-0.0525780">
        <ele>496.6</ele>
        <time>2020-07-26T13:24:28Z</time>
      </trkpt>
      <trkpt lat="42.9414300" lon="-0.0523960">
        <ele>496.4</ele>
        <time>2020-07-26T13:24:30Z</time>
      </trkpt>
      <trkpt lat="42.9415330" lon="-0.0523250">
        <ele>496.2</ele>
        <time>2020-07-26T13:24:31Z</time>
      </trkpt>
      <trkpt lat="42.9416400" lon="-0.0522730">
        <ele>496.4</ele>
        <time>2020-07-26T13:24:32Z</time>
      </trkpt>
      <trkpt lat="42.9417480" lon="-0.0522460">
        <ele>496.8</ele>
        <time>2020-07-26T13:24:33Z</time>
      </trkpt>
      <trkpt lat="42.9419600" lon="-0.0522660">
        <ele>497.4</ele>
        <time>2020-07-26T13:24:35Z</time>
      </trkpt>
      <trkpt lat="42.9421560" lon="-0.0523750">
        <ele>497.6</ele>
        <time>2020-07-26T13:24:37Z</time>
      </trkpt>
      <trkpt lat="42.9422440" lon="-0.0524530">
        <ele>497.6</ele>
        <time>2020-07-26T13:24:38Z</time>
      </trkpt>
      <trkpt lat="42.9423260" lon="-0.0525370">
        <ele>497.8</ele>
        <time>2020-07-26T13:24:39Z</time>
      </trkpt>
      <trkpt lat="42.9425680" lon="-0.0528160">
        <ele>497.6</ele>
        <time>2020-07-26T13:24:42Z</time>
      </trkpt>
      <trkpt lat="42.9428230" lon="-0.0530790">
        <ele>495.8</ele>
        <time>2020-07-26T13:24:45Z</time>
      </trkpt>
      <trkpt lat="42.9430350" lon="-0.0531630">
        <ele>495.4</ele>
        <time>2020-07-26T13:24:47Z</time>
      </trkpt>
      <trkpt lat="42.9433290" lon="-0.0533160">
        <ele>494.8</ele>
        <time>2020-07-26T13:24:50Z</time>
      </trkpt>
      <trkpt lat="42.9436090" lon="-0.0534870">
        <ele>494.2</ele>
        <time>2020-07-26T13:24:54Z</time>
      </trkpt>
      <trkpt lat="42.9441210" lon="-0.0538730">
        <ele>493.8</ele>
        <time>2020-07-26T13:25:00Z</time>
      </trkpt>
      <trkpt lat="42.9442720" lon="-0.0540250">
        <ele>493.8</ele>
        <time>2020-07-26T13:25:02Z</time>
      </trkpt>
      <trkpt lat="42.9445790" lon="-0.0543550">
        <ele>493.6</ele>
        <time>2020-07-26T13:25:06Z</time>
      </trkpt>
      <trkpt lat="42.9447290" lon="-0.0545330">
        <ele>493.0</ele>
        <time>2020-07-26T13:25:08Z</time>
      </trkpt>
      <trkpt lat="42.9449450" lon="-0.0548280">
        <ele>492.4</ele>
        <time>2020-07-26T13:25:10Z</time>
      </trkpt>
      <trkpt lat="42.9451720" lon="-0.0551090">
        <ele>492.2</ele>
        <time>2020-07-26T13:25:14Z</time>
      </trkpt>
      <trkpt lat="42.9452480" lon="-0.0552040">
        <ele>492.0</ele>
        <time>2020-07-26T13:25:15Z</time>
      </trkpt>
      <trkpt lat="42.9453980" lon="-0.0553940">
        <ele>491.8</ele>
        <time>2020-07-26T13:25:17Z</time>
      </trkpt>
      <trkpt lat="42.9455490" lon="-0.0555800">
        <ele>491.4</ele>
        <time>2020-07-26T13:25:19Z</time>
      </trkpt>
      <trkpt lat="42.9458620" lon="-0.0559540">
        <ele>490.8</ele>
        <time>2020-07-26T13:25:23Z</time>
      </trkpt>
      <trkpt lat="42.9462850" lon="-0.0563950">
        <ele>490.2</ele>
        <time>2020-07-26T13:25:28Z</time>
      </trkpt>
      <trkpt lat="42.9464570" lon="-0.0565790">
        <ele>490.2</ele>
        <time>2020-07-26T13:25:30Z</time>
      </trkpt>
      <trkpt lat="42.9468370" lon="-0.0571120">
        <ele>489.8</ele>
        <time>2020-07-26T13:25:35Z</time>
      </trkpt>
      <trkpt lat="42.9469490" lon="-0.0573800">
        <ele>488.8</ele>
        <time>2020-07-26T13:25:37Z</time>
      </trkpt>
      <trkpt lat="42.9470330" lon="-0.0576710">
        <ele>488.0</ele>
        <time>2020-07-26T13:25:39Z</time>
      </trkpt>
      <trkpt lat="42.9470910" lon="-0.0579720">
        <ele>487.6</ele>
        <time>2020-07-26T13:25:41Z</time>
      </trkpt>
      <trkpt lat="42.9471710" lon="-0.0584310">
        <ele>487.2</ele>
        <time>2020-07-26T13:25:44Z</time>
      </trkpt>
      <trkpt lat="42.9472820" lon="-0.0588800">
        <ele>486.2</ele>
        <time>2020-07-26T13:25:47Z</time>
      </trkpt>
      <trkpt lat="42.9473270" lon="-0.0590230">
        <ele>485.8</ele>
        <time>2020-07-26T13:25:48Z</time>
      </trkpt>
      <trkpt lat="42.9474260" lon="-0.0592980">
        <ele>485.0</ele>
        <time>2020-07-26T13:25:50Z</time>
      </trkpt>
      <trkpt lat="42.9476520" lon="-0.0598350">
        <ele>484.4</ele>
        <time>2020-07-26T13:25:54Z</time>
      </trkpt>
      <trkpt lat="42.9477860" lon="-0.0600880">
        <ele>483.6</ele>
        <time>2020-07-26T13:25:56Z</time>
      </trkpt>
      <trkpt lat="42.9480000" lon="-0.0604310">
        <ele>483.2</ele>
        <time>2020-07-26T13:25:59Z</time>
      </trkpt>
      <trkpt lat="42.9483510" lon="-0.0610700">
        <ele>482.6</ele>
        <time>2020-07-26T13:26:05Z</time>
      </trkpt>
      <trkpt lat="42.9484030" lon="-0.0611780">
        <ele>482.4</ele>
        <time>2020-07-26T13:26:06Z</time>
      </trkpt>
      <trkpt lat="42.9487270" lon="-0.0618730">
        <ele>481.6</ele>
        <time>2020-07-26T13:26:12Z</time>
      </trkpt>
      <trkpt lat="42.9487850" lon="-0.0619950">
        <ele>481.4</ele>
        <time>2020-07-26T13:26:13Z</time>
      </trkpt>
      <trkpt lat="42.9489020" lon="-0.0622390">
        <ele>481.4</ele>
        <time>2020-07-26T13:26:15Z</time>
      </trkpt>
      <trkpt lat="42.9491600" lon="-0.0627180">
        <ele>481.0</ele>
        <time>2020-07-26T13:26:19Z</time>
      </trkpt>
      <trkpt lat="42.9495140" lon="-0.0633240">
        <ele>481.0</ele>
        <time>2020-07-26T13:26:24Z</time>
      </trkpt>
      <trkpt lat="42.9495780" lon="-0.0634590">
        <ele>481.0</ele>
        <time>2020-07-26T13:26:25Z</time>
      </trkpt>
      <trkpt lat="42.9497660" lon="-0.0638870">
        <ele>480.2</ele>
        <time>2020-07-26T13:26:28Z</time>
      </trkpt>
      <trkpt lat="42.9499380" lon="-0.0643330">
        <ele>479.0</ele>
        <time>2020-07-26T13:26:31Z</time>
      </trkpt>
      <trkpt lat="42.9499890" lon="-0.0644850">
        <ele>478.8</ele>
        <time>2020-07-26T13:26:32Z</time>
      </trkpt>
      <trkpt lat="42.9501010" lon="-0.0649620">
        <ele>478.0</ele>
        <time>2020-07-26T13:26:35Z</time>
      </trkpt>
      <trkpt lat="42.9501350" lon="-0.0651250">
        <ele>477.6</ele>
        <time>2020-07-26T13:26:36Z</time>
      </trkpt>
      <trkpt lat="42.9502260" lon="-0.0656120">
        <ele>476.8</ele>
        <time>2020-07-26T13:26:39Z</time>
      </trkpt>
      <trkpt lat="42.9503090" lon="-0.0660620">
        <ele>476.2</ele>
        <time>2020-07-26T13:26:42Z</time>
      </trkpt>
      <trkpt lat="42.9504600" lon="-0.0667880">
        <ele>476.4</ele>
        <time>2020-07-26T13:26:47Z</time>
      </trkpt>
      <trkpt lat="42.9505280" lon="-0.0670580">
        <ele>475.8</ele>
        <time>2020-07-26T13:26:49Z</time>
      </trkpt>
      <trkpt lat="42.9505610" lon="-0.0671800">
        <ele>475.0</ele>
        <time>2020-07-26T13:26:50Z</time>
      </trkpt>
      <trkpt lat="42.9505950" lon="-0.0672890">
        <ele>474.6</ele>
        <time>2020-07-26T13:26:51Z</time>
      </trkpt>
      <trkpt lat="42.9506390" lon="-0.0673770">
        <ele>474.4</ele>
        <time>2020-07-26T13:26:52Z</time>
      </trkpt>
      <trkpt lat="42.9507020" lon="-0.0674230">
        <ele>474.8</ele>
        <time>2020-07-26T13:26:53Z</time>
      </trkpt>
      <trkpt lat="42.9507750" lon="-0.0674300">
        <ele>475.0</ele>
        <time>2020-07-26T13:26:54Z</time>
      </trkpt>
      <trkpt lat="42.9508510" lon="-0.0674250">
        <ele>475.4</ele>
        <time>2020-07-26T13:26:55Z</time>
      </trkpt>
      <trkpt lat="42.9509270" lon="-0.0674400">
        <ele>475.6</ele>
        <time>2020-07-26T13:26:56Z</time>
      </trkpt>
      <trkpt lat="42.9509930" lon="-0.0674810">
        <ele>475.8</ele>
        <time>2020-07-26T13:26:57Z</time>
      </trkpt>
      <trkpt lat="42.9510390" lon="-0.0675600">
        <ele>475.8</ele>
        <time>2020-07-26T13:26:58Z</time>
      </trkpt>
      <trkpt lat="42.9510480" lon="-0.0677560">
        <ele>476.0</ele>
        <time>2020-07-26T13:27:00Z</time>
      </trkpt>
      <trkpt lat="42.9510270" lon="-0.0679760">
        <ele>476.2</ele>
        <time>2020-07-26T13:27:02Z</time>
      </trkpt>
      <trkpt lat="42.9510670" lon="-0.0682020">
        <ele>476.4</ele>
        <time>2020-07-26T13:27:04Z</time>
      </trkpt>
      <trkpt lat="42.9512690" lon="-0.0686100">
        <ele>476.8</ele>
        <time>2020-07-26T13:27:08Z</time>
      </trkpt>
      <trkpt lat="42.9513570" lon="-0.0688230">
        <ele>477.0</ele>
        <time>2020-07-26T13:27:10Z</time>
      </trkpt>
      <trkpt lat="42.9514800" lon="-0.0691620">
        <ele>477.0</ele>
        <time>2020-07-26T13:27:13Z</time>
      </trkpt>
      <trkpt lat="42.9515630" lon="-0.0693990">
        <ele>477.6</ele>
        <time>2020-07-26T13:27:15Z</time>
      </trkpt>
      <trkpt lat="42.9516660" lon="-0.0696270">
        <ele>478.0</ele>
        <time>2020-07-26T13:27:17Z</time>
      </trkpt>
      <trkpt lat="42.9517430" lon="-0.0697140">
        <ele>477.8</ele>
        <time>2020-07-26T13:27:18Z</time>
      </trkpt>
      <trkpt lat="42.9518310" lon="-0.0697870">
        <ele>478.0</ele>
        <time>2020-07-26T13:27:19Z</time>
      </trkpt>
      <trkpt lat="42.9520300" lon="-0.0698890">
        <ele>477.6</ele>
        <time>2020-07-26T13:27:21Z</time>
      </trkpt>
      <trkpt lat="42.9522470" lon="-0.0699290">
        <ele>476.6</ele>
        <time>2020-07-26T13:27:23Z</time>
      </trkpt>
      <trkpt lat="42.9523560" lon="-0.0699390">
        <ele>476.6</ele>
        <time>2020-07-26T13:27:24Z</time>
      </trkpt>
      <trkpt lat="42.9525750" lon="-0.0699860">
        <ele>475.8</ele>
        <time>2020-07-26T13:27:26Z</time>
      </trkpt>
      <trkpt lat="42.9527890" lon="-0.0700800">
        <ele>474.8</ele>
        <time>2020-07-26T13:27:28Z</time>
      </trkpt>
      <trkpt lat="42.9528950" lon="-0.0701260">
        <ele>474.4</ele>
        <time>2020-07-26T13:27:29Z</time>
      </trkpt>
      <trkpt lat="42.9534130" lon="-0.0703840">
        <ele>473.4</ele>
        <time>2020-07-26T13:27:34Z</time>
      </trkpt>
      <trkpt lat="42.9536110" lon="-0.0705030">
        <ele>473.6</ele>
        <time>2020-07-26T13:27:36Z</time>
      </trkpt>
      <trkpt lat="42.9538930" lon="-0.0706730">
        <ele>474.4</ele>
        <time>2020-07-26T13:27:39Z</time>
      </trkpt>
      <trkpt lat="42.9541560" lon="-0.0708510">
        <ele>475.2</ele>
        <time>2020-07-26T13:27:42Z</time>
      </trkpt>
      <trkpt lat="42.9542420" lon="-0.0709110">
        <ele>475.6</ele>
        <time>2020-07-26T13:27:43Z</time>
      </trkpt>
      <trkpt lat="42.9544850" lon="-0.0710980">
        <ele>476.2</ele>
        <time>2020-07-26T13:27:46Z</time>
      </trkpt>
      <trkpt lat="42.9546210" lon="-0.0712270">
        <ele>476.0</ele>
        <time>2020-07-26T13:27:48Z</time>
      </trkpt>
      <trkpt lat="42.9548160" lon="-0.0714080">
        <ele>476.2</ele>
        <time>2020-07-26T13:27:51Z</time>
      </trkpt>
      <trkpt lat="42.9550040" lon="-0.0716070">
        <ele>476.4</ele>
        <time>2020-07-26T13:27:54Z</time>
      </trkpt>
      <trkpt lat="42.9550640" lon="-0.0716770">
        <ele>476.6</ele>
        <time>2020-07-26T13:27:55Z</time>
      </trkpt>
      <trkpt lat="42.9551210" lon="-0.0717490">
        <ele>476.6</ele>
        <time>2020-07-26T13:27:56Z</time>
      </trkpt>
      <trkpt lat="42.9553190" lon="-0.0720520">
        <ele>476.8</ele>
        <time>2020-07-26T13:28:00Z</time>
      </trkpt>
      <trkpt lat="42.9554760" lon="-0.0722660">
        <ele>478.2</ele>
        <time>2020-07-26T13:28:03Z</time>
      </trkpt>
      <trkpt lat="42.9556190" lon="-0.0724770">
        <ele>479.4</ele>
        <time>2020-07-26T13:28:06Z</time>
      </trkpt>
      <trkpt lat="42.9558820" lon="-0.0728770">
        <ele>480.0</ele>
        <time>2020-07-26T13:28:12Z</time>
      </trkpt>
      <trkpt lat="42.9559650" lon="-0.0730110">
        <ele>480.0</ele>
        <time>2020-07-26T13:28:14Z</time>
      </trkpt>
      <trkpt lat="42.9560460" lon="-0.0731370">
        <ele>480.4</ele>
        <time>2020-07-26T13:28:16Z</time>
      </trkpt>
      <trkpt lat="42.9562350" lon="-0.0734310">
        <ele>481.4</ele>
        <time>2020-07-26T13:28:21Z</time>
      </trkpt>
      <trkpt lat="42.9563390" lon="-0.0735950">
        <ele>482.6</ele>
        <time>2020-07-26T13:28:24Z</time>
      </trkpt>
      <trkpt lat="42.9564990" lon="-0.0738620">
        <ele>483.0</ele>
        <time>2020-07-26T13:28:29Z</time>
      </trkpt>
      <trkpt lat="42.9566650" lon="-0.0741830">
        <ele>484.0</ele>
        <time>2020-07-26T13:28:35Z</time>
      </trkpt>
      <trkpt lat="42.9567040" lon="-0.0742900">
        <ele>485.2</ele>
        <time>2020-07-26T13:28:37Z</time>
      </trkpt>
      <trkpt lat="42.9567540" lon="-0.0744570">
        <ele>486.4</ele>
        <time>2020-07-26T13:28:40Z</time>
      </trkpt>
      <trkpt lat="42.9567980" lon="-0.0746320">
        <ele>487.4</ele>
        <time>2020-07-26T13:28:43Z</time>
      </trkpt>
      <trkpt lat="42.9568110" lon="-0.0746930">
        <ele>487.6</ele>
        <time>2020-07-26T13:28:44Z</time>
      </trkpt>
      <trkpt lat="42.9568250" lon="-0.0747540">
        <ele>488.0</ele>
        <time>2020-07-26T13:28:45Z</time>
      </trkpt>
      <trkpt lat="42.9568420" lon="-0.0748160">
        <ele>488.0</ele>
        <time>2020-07-26T13:28:46Z</time>
      </trkpt>
      <trkpt lat="42.9568880" lon="-0.0749310">
        <ele>488.4</ele>
        <time>2020-07-26T13:28:48Z</time>
      </trkpt>
      <trkpt lat="42.9569550" lon="-0.0750310">
        <ele>488.6</ele>
        <time>2020-07-26T13:28:50Z</time>
      </trkpt>
      <trkpt lat="42.9569940" lon="-0.0750730">
        <ele>489.0</ele>
        <time>2020-07-26T13:28:51Z</time>
      </trkpt>
      <trkpt lat="42.9570370" lon="-0.0751080">
        <ele>489.2</ele>
        <time>2020-07-26T13:28:52Z</time>
      </trkpt>
      <trkpt lat="42.9570810" lon="-0.0751400">
        <ele>489.4</ele>
        <time>2020-07-26T13:28:53Z</time>
      </trkpt>
      <trkpt lat="42.9571280" lon="-0.0751660">
        <ele>489.8</ele>
        <time>2020-07-26T13:28:54Z</time>
      </trkpt>
      <trkpt lat="42.9571800" lon="-0.0751840">
        <ele>489.8</ele>
        <time>2020-07-26T13:28:55Z</time>
      </trkpt>
      <trkpt lat="42.9572880" lon="-0.0752020">
        <ele>489.6</ele>
        <time>2020-07-26T13:28:57Z</time>
      </trkpt>
      <trkpt lat="42.9574100" lon="-0.0751690">
        <ele>489.4</ele>
        <time>2020-07-26T13:28:59Z</time>
      </trkpt>
      <trkpt lat="42.9577500" lon="-0.0750440">
        <ele>487.6</ele>
        <time>2020-07-26T13:29:04Z</time>
      </trkpt>
      <trkpt lat="42.9578200" lon="-0.0750210">
        <ele>487.0</ele>
        <time>2020-07-26T13:29:05Z</time>
      </trkpt>
      <trkpt lat="42.9579580" lon="-0.0749840">
        <ele>486.4</ele>
        <time>2020-07-26T13:29:07Z</time>
      </trkpt>
      <trkpt lat="42.9580990" lon="-0.0749430">
        <ele>485.4</ele>
        <time>2020-07-26T13:29:09Z</time>
      </trkpt>
      <trkpt lat="42.9582350" lon="-0.0748750">
        <ele>484.8</ele>
        <time>2020-07-26T13:29:11Z</time>
      </trkpt>
      <trkpt lat="42.9583040" lon="-0.0748350">
        <ele>484.4</ele>
        <time>2020-07-26T13:29:12Z</time>
      </trkpt>
      <trkpt lat="42.9584430" lon="-0.0747500">
        <ele>483.2</ele>
        <time>2020-07-26T13:29:14Z</time>
      </trkpt>
      <trkpt lat="42.9587380" lon="-0.0745780">
        <ele>482.0</ele>
        <time>2020-07-26T13:29:18Z</time>
      </trkpt>
      <trkpt lat="42.9589730" lon="-0.0745210">
        <ele>480.8</ele>
        <time>2020-07-26T13:29:21Z</time>
      </trkpt>
      <trkpt lat="42.9591160" lon="-0.0745190">
        <ele>480.6</ele>
        <time>2020-07-26T13:29:23Z</time>
      </trkpt>
      <trkpt lat="42.9594770" lon="-0.0745250">
        <ele>479.8</ele>
        <time>2020-07-26T13:29:28Z</time>
      </trkpt>
      <trkpt lat="42.9595530" lon="-0.0745250">
        <ele>479.6</ele>
        <time>2020-07-26T13:29:29Z</time>
      </trkpt>
      <trkpt lat="42.9597900" lon="-0.0745260">
        <ele>478.2</ele>
        <time>2020-07-26T13:29:32Z</time>
      </trkpt>
      <trkpt lat="42.9598660" lon="-0.0745300">
        <ele>477.2</ele>
        <time>2020-07-26T13:29:33Z</time>
      </trkpt>
      <trkpt lat="42.9600180" lon="-0.0745350">
        <ele>476.0</ele>
        <time>2020-07-26T13:29:35Z</time>
      </trkpt>
      <trkpt lat="42.9601780" lon="-0.0745370">
        <ele>475.8</ele>
        <time>2020-07-26T13:29:37Z</time>
      </trkpt>
      <trkpt lat="42.9604330" lon="-0.0745320">
        <ele>475.8</ele>
        <time>2020-07-26T13:29:40Z</time>
      </trkpt>
      <trkpt lat="42.9606920" lon="-0.0745230">
        <ele>474.6</ele>
        <time>2020-07-26T13:29:43Z</time>
      </trkpt>
      <trkpt lat="42.9608660" lon="-0.0745240">
        <ele>473.2</ele>
        <time>2020-07-26T13:29:45Z</time>
      </trkpt>
      <trkpt lat="42.9611280" lon="-0.0745260">
        <ele>472.2</ele>
        <time>2020-07-26T13:29:48Z</time>
      </trkpt>
      <trkpt lat="42.9612160" lon="-0.0745280">
        <ele>471.6</ele>
        <time>2020-07-26T13:29:49Z</time>
      </trkpt>
      <trkpt lat="42.9613050" lon="-0.0745320">
        <ele>471.0</ele>
        <time>2020-07-26T13:29:50Z</time>
      </trkpt>
      <trkpt lat="42.9614790" lon="-0.0745410">
        <ele>469.8</ele>
        <time>2020-07-26T13:29:52Z</time>
      </trkpt>
      <trkpt lat="42.9616450" lon="-0.0745380">
        <ele>468.8</ele>
        <time>2020-07-26T13:29:54Z</time>
      </trkpt>
      <trkpt lat="42.9617250" lon="-0.0745370">
        <ele>468.6</ele>
        <time>2020-07-26T13:29:55Z</time>
      </trkpt>
      <trkpt lat="42.9618030" lon="-0.0745330">
        <ele>468.6</ele>
        <time>2020-07-26T13:29:56Z</time>
      </trkpt>
      <trkpt lat="42.9620940" lon="-0.0745170">
        <ele>468.4</ele>
        <time>2020-07-26T13:30:00Z</time>
      </trkpt>
      <trkpt lat="42.9623060" lon="-0.0744990">
        <ele>468.2</ele>
        <time>2020-07-26T13:30:03Z</time>
      </trkpt>
      <trkpt lat="42.9627470" lon="-0.0744960">
        <ele>467.6</ele>
        <time>2020-07-26T13:30:09Z</time>
      </trkpt>
      <trkpt lat="42.9628210" lon="-0.0744990">
        <ele>467.4</ele>
        <time>2020-07-26T13:30:10Z</time>
      </trkpt>
      <trkpt lat="42.9631110" lon="-0.0744960">
        <ele>466.2</ele>
        <time>2020-07-26T13:30:14Z</time>
      </trkpt>
      <trkpt lat="42.9633990" lon="-0.0744660">
        <ele>465.2</ele>
        <time>2020-07-26T13:30:18Z</time>
      </trkpt>
      <trkpt lat="42.9636890" lon="-0.0743910">
        <ele>463.8</ele>
        <time>2020-07-26T13:30:22Z</time>
      </trkpt>
      <trkpt lat="42.9640570" lon="-0.0742960">
        <ele>462.8</ele>
        <time>2020-07-26T13:30:27Z</time>
      </trkpt>
      <trkpt lat="42.9644270" lon="-0.0741860">
        <ele>461.8</ele>
        <time>2020-07-26T13:30:32Z</time>
      </trkpt>
      <trkpt lat="42.9645000" lon="-0.0741640">
        <ele>461.6</ele>
        <time>2020-07-26T13:30:33Z</time>
      </trkpt>
      <trkpt lat="42.9648060" lon="-0.0740700">
        <ele>460.8</ele>
        <time>2020-07-26T13:30:37Z</time>
      </trkpt>
      <trkpt lat="42.9648840" lon="-0.0740470">
        <ele>460.4</ele>
        <time>2020-07-26T13:30:38Z</time>
      </trkpt>
      <trkpt lat="42.9649620" lon="-0.0740250">
        <ele>460.0</ele>
        <time>2020-07-26T13:30:39Z</time>
      </trkpt>
      <trkpt lat="42.9651940" lon="-0.0739610">
        <ele>459.4</ele>
        <time>2020-07-26T13:30:42Z</time>
      </trkpt>
      <trkpt lat="42.9652710" lon="-0.0739380">
        <ele>459.2</ele>
        <time>2020-07-26T13:30:43Z</time>
      </trkpt>
      <trkpt lat="42.9657230" lon="-0.0738000">
        <ele>458.4</ele>
        <time>2020-07-26T13:30:49Z</time>
      </trkpt>
      <trkpt lat="42.9657950" lon="-0.0737700">
        <ele>458.2</ele>
        <time>2020-07-26T13:30:50Z</time>
      </trkpt>
      <trkpt lat="42.9659240" lon="-0.0736730">
        <ele>458.2</ele>
        <time>2020-07-26T13:30:52Z</time>
      </trkpt>
      <trkpt lat="42.9659790" lon="-0.0736050">
        <ele>458.0</ele>
        <time>2020-07-26T13:30:53Z</time>
      </trkpt>
      <trkpt lat="42.9660220" lon="-0.0735220">
        <ele>458.0</ele>
        <time>2020-07-26T13:30:54Z</time>
      </trkpt>
      <trkpt lat="42.9660990" lon="-0.0733650">
        <ele>458.2</ele>
        <time>2020-07-26T13:30:56Z</time>
      </trkpt>
      <trkpt lat="42.9662300" lon="-0.0733110">
        <ele>457.8</ele>
        <time>2020-07-26T13:30:58Z</time>
      </trkpt>
      <trkpt lat="42.9662970" lon="-0.0733370">
        <ele>457.8</ele>
        <time>2020-07-26T13:30:59Z</time>
      </trkpt>
      <trkpt lat="42.9663590" lon="-0.0733840">
        <ele>457.8</ele>
        <time>2020-07-26T13:31:00Z</time>
      </trkpt>
      <trkpt lat="42.9664210" lon="-0.0734370">
        <ele>457.6</ele>
        <time>2020-07-26T13:31:01Z</time>
      </trkpt>
      <trkpt lat="42.9664880" lon="-0.0734780">
        <ele>457.6</ele>
        <time>2020-07-26T13:31:02Z</time>
      </trkpt>
      <trkpt lat="42.9666360" lon="-0.0735250">
        <ele>457.4</ele>
        <time>2020-07-26T13:31:04Z</time>
      </trkpt>
      <trkpt lat="42.9667920" lon="-0.0735510">
        <ele>457.0</ele>
        <time>2020-07-26T13:31:06Z</time>
      </trkpt>
      <trkpt lat="42.9670320" lon="-0.0736090">
        <ele>456.0</ele>
        <time>2020-07-26T13:31:09Z</time>
      </trkpt>
      <trkpt lat="42.9671130" lon="-0.0736320">
        <ele>455.4</ele>
        <time>2020-07-26T13:31:10Z</time>
      </trkpt>
      <trkpt lat="42.9671950" lon="-0.0736550">
        <ele>454.8</ele>
        <time>2020-07-26T13:31:11Z</time>
      </trkpt>
      <trkpt lat="42.9673580" lon="-0.0737060">
        <ele>453.8</ele>
        <time>2020-07-26T13:31:13Z</time>
      </trkpt>
      <trkpt lat="42.9678380" lon="-0.0738550">
        <ele>452.8</ele>
        <time>2020-07-26T13:31:19Z</time>
      </trkpt>
      <trkpt lat="42.9679200" lon="-0.0738790">
        <ele>452.8</ele>
        <time>2020-07-26T13:31:20Z</time>
      </trkpt>
      <trkpt lat="42.9683950" lon="-0.0740250">
        <ele>451.6</ele>
        <time>2020-07-26T13:31:26Z</time>
      </trkpt>
      <trkpt lat="42.9686270" lon="-0.0740930">
        <ele>451.6</ele>
        <time>2020-07-26T13:31:29Z</time>
      </trkpt>
      <trkpt lat="42.9690070" lon="-0.0742050">
        <ele>451.6</ele>
        <time>2020-07-26T13:31:34Z</time>
      </trkpt>
      <trkpt lat="42.9693050" lon="-0.0742940">
        <ele>451.0</ele>
        <time>2020-07-26T13:31:38Z</time>
      </trkpt>
      <trkpt lat="42.9693800" lon="-0.0743130">
        <ele>450.4</ele>
        <time>2020-07-26T13:31:39Z</time>
      </trkpt>
      <trkpt lat="42.9697580" lon="-0.0744260">
        <ele>449.2</ele>
        <time>2020-07-26T13:31:44Z</time>
      </trkpt>
      <trkpt lat="42.9698350" lon="-0.0744490">
        <ele>448.8</ele>
        <time>2020-07-26T13:31:45Z</time>
      </trkpt>
      <trkpt lat="42.9699130" lon="-0.0744710">
        <ele>448.2</ele>
        <time>2020-07-26T13:31:46Z</time>
      </trkpt>
      <trkpt lat="42.9701430" lon="-0.0745360">
        <ele>447.0</ele>
        <time>2020-07-26T13:31:49Z</time>
      </trkpt>
      <trkpt lat="42.9704530" lon="-0.0746250">
        <ele>445.8</ele>
        <time>2020-07-26T13:31:53Z</time>
      </trkpt>
      <trkpt lat="42.9708610" lon="-0.0747310">
        <ele>444.8</ele>
        <time>2020-07-26T13:31:58Z</time>
      </trkpt>
      <trkpt lat="42.9711070" lon="-0.0748040">
        <ele>444.2</ele>
        <time>2020-07-26T13:32:01Z</time>
      </trkpt>
      <trkpt lat="42.9712660" lon="-0.0748550">
        <ele>443.8</ele>
        <time>2020-07-26T13:32:03Z</time>
      </trkpt>
      <trkpt lat="42.9715020" lon="-0.0749490">
        <ele>442.6</ele>
        <time>2020-07-26T13:32:06Z</time>
      </trkpt>
      <trkpt lat="42.9717370" lon="-0.0750590">
        <ele>442.6</ele>
        <time>2020-07-26T13:32:09Z</time>
      </trkpt>
      <trkpt lat="42.9718900" lon="-0.0751320">
        <ele>442.4</ele>
        <time>2020-07-26T13:32:11Z</time>
      </trkpt>
      <trkpt lat="42.9721930" lon="-0.0752800">
        <ele>441.8</ele>
        <time>2020-07-26T13:32:15Z</time>
      </trkpt>
      <trkpt lat="42.9722690" lon="-0.0753160">
        <ele>441.4</ele>
        <time>2020-07-26T13:32:16Z</time>
      </trkpt>
      <trkpt lat="42.9725690" lon="-0.0754610">
        <ele>440.4</ele>
        <time>2020-07-26T13:32:20Z</time>
      </trkpt>
      <trkpt lat="42.9727170" lon="-0.0755310">
        <ele>440.4</ele>
        <time>2020-07-26T13:32:22Z</time>
      </trkpt>
      <trkpt lat="42.9729370" lon="-0.0756340">
        <ele>440.8</ele>
        <time>2020-07-26T13:32:25Z</time>
      </trkpt>
      <trkpt lat="42.9731500" lon="-0.0757450">
        <ele>440.8</ele>
        <time>2020-07-26T13:32:28Z</time>
      </trkpt>
      <trkpt lat="42.9733610" lon="-0.0758490">
        <ele>440.2</ele>
        <time>2020-07-26T13:32:31Z</time>
      </trkpt>
      <trkpt lat="42.9737610" lon="-0.0760770">
        <ele>440.0</ele>
        <time>2020-07-26T13:32:37Z</time>
      </trkpt>
      <trkpt lat="42.9738840" lon="-0.0761770">
        <ele>440.2</ele>
        <time>2020-07-26T13:32:39Z</time>
      </trkpt>
      <trkpt lat="42.9742170" lon="-0.0765360">
        <ele>440.2</ele>
        <time>2020-07-26T13:32:45Z</time>
      </trkpt>
      <trkpt lat="42.9743180" lon="-0.0766730">
        <ele>440.4</ele>
        <time>2020-07-26T13:32:47Z</time>
      </trkpt>
      <trkpt lat="42.9745490" lon="-0.0770490">
        <ele>439.8</ele>
        <time>2020-07-26T13:32:52Z</time>
      </trkpt>
      <trkpt lat="42.9746640" lon="-0.0773040">
        <ele>439.2</ele>
        <time>2020-07-26T13:32:55Z</time>
      </trkpt>
      <trkpt lat="42.9748120" lon="-0.0776620">
        <ele>438.6</ele>
        <time>2020-07-26T13:32:59Z</time>
      </trkpt>
      <trkpt lat="42.9748480" lon="-0.0777550">
        <ele>438.6</ele>
        <time>2020-07-26T13:33:00Z</time>
      </trkpt>
      <trkpt lat="42.9749240" lon="-0.0779380">
        <ele>438.8</ele>
        <time>2020-07-26T13:33:02Z</time>
      </trkpt>
      <trkpt lat="42.9749950" lon="-0.0781230">
        <ele>438.8</ele>
        <time>2020-07-26T13:33:04Z</time>
      </trkpt>
      <trkpt lat="42.9751820" lon="-0.0785740">
        <ele>438.0</ele>
        <time>2020-07-26T13:33:09Z</time>
      </trkpt>
      <trkpt lat="42.9753930" lon="-0.0789990">
        <ele>438.0</ele>
        <time>2020-07-26T13:33:14Z</time>
      </trkpt>
      <trkpt lat="42.9756950" lon="-0.0794560">
        <ele>438.2</ele>
        <time>2020-07-26T13:33:20Z</time>
      </trkpt>
      <trkpt lat="42.9757510" lon="-0.0795250">
        <ele>438.0</ele>
        <time>2020-07-26T13:33:21Z</time>
      </trkpt>
      <trkpt lat="42.9761050" lon="-0.0799040">
        <ele>437.6</ele>
        <time>2020-07-26T13:33:27Z</time>
      </trkpt>
      <trkpt lat="42.9761680" lon="-0.0799660">
        <ele>437.6</ele>
        <time>2020-07-26T13:33:28Z</time>
      </trkpt>
      <trkpt lat="42.9765470" lon="-0.0803490">
        <ele>436.8</ele>
        <time>2020-07-26T13:33:34Z</time>
      </trkpt>
      <trkpt lat="42.9767980" lon="-0.0806000">
        <ele>436.2</ele>
        <time>2020-07-26T13:33:38Z</time>
      </trkpt>
      <trkpt lat="42.9769810" lon="-0.0807760">
        <ele>435.8</ele>
        <time>2020-07-26T13:33:41Z</time>
      </trkpt>
      <trkpt lat="42.9772780" lon="-0.0810390">
        <ele>436.0</ele>
        <time>2020-07-26T13:33:46Z</time>
      </trkpt>
      <trkpt lat="42.9776600" lon="-0.0813510">
        <ele>435.8</ele>
        <time>2020-07-26T13:33:52Z</time>
      </trkpt>
      <trkpt lat="42.9779220" lon="-0.0815630">
        <ele>435.2</ele>
        <time>2020-07-26T13:33:56Z</time>
      </trkpt>
      <trkpt lat="42.9782510" lon="-0.0818310">
        <ele>434.6</ele>
        <time>2020-07-26T13:34:01Z</time>
      </trkpt>
      <trkpt lat="42.9785760" lon="-0.0821010">
        <ele>433.8</ele>
        <time>2020-07-26T13:34:06Z</time>
      </trkpt>
      <trkpt lat="42.9786410" lon="-0.0821550">
        <ele>433.8</ele>
        <time>2020-07-26T13:34:07Z</time>
      </trkpt>
      <trkpt lat="42.9787050" lon="-0.0822080">
        <ele>433.6</ele>
        <time>2020-07-26T13:34:08Z</time>
      </trkpt>
      <trkpt lat="42.9791060" lon="-0.0825320">
        <ele>433.8</ele>
        <time>2020-07-26T13:34:14Z</time>
      </trkpt>
      <trkpt lat="42.9792410" lon="-0.0826420">
        <ele>433.6</ele>
        <time>2020-07-26T13:34:16Z</time>
      </trkpt>
      <trkpt lat="42.9796460" lon="-0.0829810">
        <ele>433.2</ele>
        <time>2020-07-26T13:34:22Z</time>
      </trkpt>
      <trkpt lat="42.9799190" lon="-0.0832160">
        <ele>433.2</ele>
        <time>2020-07-26T13:34:26Z</time>
      </trkpt>
      <trkpt lat="42.9803150" lon="-0.0835940">
        <ele>433.4</ele>
        <time>2020-07-26T13:34:32Z</time>
      </trkpt>
      <trkpt lat="42.9805110" lon="-0.0837860">
        <ele>433.2</ele>
        <time>2020-07-26T13:34:35Z</time>
      </trkpt>
      <trkpt lat="42.9807720" lon="-0.0840430">
        <ele>432.6</ele>
        <time>2020-07-26T13:34:39Z</time>
      </trkpt>
      <trkpt lat="42.9811070" lon="-0.0843600">
        <ele>432.2</ele>
        <time>2020-07-26T13:34:44Z</time>
      </trkpt>
      <trkpt lat="42.9814420" lon="-0.0846780">
        <ele>432.0</ele>
        <time>2020-07-26T13:34:49Z</time>
      </trkpt>
      <trkpt lat="42.9815750" lon="-0.0848070">
        <ele>431.4</ele>
        <time>2020-07-26T13:34:51Z</time>
      </trkpt>
      <trkpt lat="42.9816400" lon="-0.0848690">
        <ele>431.2</ele>
        <time>2020-07-26T13:34:52Z</time>
      </trkpt>
      <trkpt lat="42.9817050" lon="-0.0849310">
        <ele>431.2</ele>
        <time>2020-07-26T13:34:53Z</time>
      </trkpt>
      <trkpt lat="42.9817700" lon="-0.0849930">
        <ele>431.4</ele>
        <time>2020-07-26T13:34:54Z</time>
      </trkpt>
      <trkpt lat="42.9818980" lon="-0.0851210">
        <ele>431.6</ele>
        <time>2020-07-26T13:34:56Z</time>
      </trkpt>
      <trkpt lat="42.9822790" lon="-0.0855020">
        <ele>432.4</ele>
        <time>2020-07-26T13:35:02Z</time>
      </trkpt>
      <trkpt lat="42.9825860" lon="-0.0858030">
        <ele>431.8</ele>
        <time>2020-07-26T13:35:07Z</time>
      </trkpt>
      <trkpt lat="42.9827680" lon="-0.0859890">
        <ele>432.0</ele>
        <time>2020-07-26T13:35:10Z</time>
      </trkpt>
      <trkpt lat="42.9829520" lon="-0.0861720">
        <ele>432.0</ele>
        <time>2020-07-26T13:35:13Z</time>
      </trkpt>
      <trkpt lat="42.9832010" lon="-0.0864140">
        <ele>430.2</ele>
        <time>2020-07-26T13:35:17Z</time>
      </trkpt>
      <trkpt lat="42.9833230" lon="-0.0865350">
        <ele>429.8</ele>
        <time>2020-07-26T13:35:19Z</time>
      </trkpt>
      <trkpt lat="42.9836990" lon="-0.0868920">
        <ele>429.6</ele>
        <time>2020-07-26T13:35:25Z</time>
      </trkpt>
      <trkpt lat="42.9839500" lon="-0.0871270">
        <ele>429.4</ele>
        <time>2020-07-26T13:35:29Z</time>
      </trkpt>
      <trkpt lat="42.9840820" lon="-0.0872380">
        <ele>429.2</ele>
        <time>2020-07-26T13:35:31Z</time>
      </trkpt>
      <trkpt lat="42.9841500" lon="-0.0872900">
        <ele>429.2</ele>
        <time>2020-07-26T13:35:32Z</time>
      </trkpt>
      <trkpt lat="42.9843580" lon="-0.0874290">
        <ele>429.0</ele>
        <time>2020-07-26T13:35:35Z</time>
      </trkpt>
      <trkpt lat="42.9847960" lon="-0.0876550">
        <ele>429.0</ele>
        <time>2020-07-26T13:35:41Z</time>
      </trkpt>
      <trkpt lat="42.9850910" lon="-0.0878020">
        <ele>428.4</ele>
        <time>2020-07-26T13:35:45Z</time>
      </trkpt>
      <trkpt lat="42.9852350" lon="-0.0878770">
        <ele>428.0</ele>
        <time>2020-07-26T13:35:47Z</time>
      </trkpt>
      <trkpt lat="42.9856610" lon="-0.0880720">
        <ele>427.4</ele>
        <time>2020-07-26T13:35:53Z</time>
      </trkpt>
      <trkpt lat="42.9857330" lon="-0.0881030">
        <ele>427.8</ele>
        <time>2020-07-26T13:35:54Z</time>
      </trkpt>
      <trkpt lat="42.9861670" lon="-0.0883140">
        <ele>427.2</ele>
        <time>2020-07-26T13:36:00Z</time>
      </trkpt>
      <trkpt lat="42.9863100" lon="-0.0883790">
        <ele>427.2</ele>
        <time>2020-07-26T13:36:02Z</time>
      </trkpt>
      <trkpt lat="42.9866630" lon="-0.0885160">
        <ele>427.8</ele>
        <time>2020-07-26T13:36:07Z</time>
      </trkpt>
      <trkpt lat="42.9868100" lon="-0.0885510">
        <ele>428.0</ele>
        <time>2020-07-26T13:36:09Z</time>
      </trkpt>
      <trkpt lat="42.9868850" lon="-0.0885660">
        <ele>428.0</ele>
        <time>2020-07-26T13:36:10Z</time>
      </trkpt>
      <trkpt lat="42.9873290" lon="-0.0886680">
        <ele>426.8</ele>
        <time>2020-07-26T13:36:16Z</time>
      </trkpt>
      <trkpt lat="42.9874720" lon="-0.0886990">
        <ele>426.8</ele>
        <time>2020-07-26T13:36:18Z</time>
      </trkpt>
      <trkpt lat="42.9878980" lon="-0.0888040">
        <ele>427.8</ele>
        <time>2020-07-26T13:36:24Z</time>
      </trkpt>
      <trkpt lat="42.9879680" lon="-0.0888210">
        <ele>428.0</ele>
        <time>2020-07-26T13:36:25Z</time>
      </trkpt>
      <trkpt lat="42.9882390" lon="-0.0889110">
        <ele>429.0</ele>
        <time>2020-07-26T13:36:29Z</time>
      </trkpt>
      <trkpt lat="42.9885090" lon="-0.0890210">
        <ele>429.2</ele>
        <time>2020-07-26T13:36:33Z</time>
      </trkpt>
      <trkpt lat="42.9887780" lon="-0.0891400">
        <ele>429.4</ele>
        <time>2020-07-26T13:36:37Z</time>
      </trkpt>
      <trkpt lat="42.9891810" lon="-0.0893240">
        <ele>429.8</ele>
        <time>2020-07-26T13:36:43Z</time>
      </trkpt>
      <trkpt lat="42.9894520" lon="-0.0894430">
        <ele>429.2</ele>
        <time>2020-07-26T13:36:47Z</time>
      </trkpt>
      <trkpt lat="42.9895840" lon="-0.0894980">
        <ele>429.2</ele>
        <time>2020-07-26T13:36:49Z</time>
      </trkpt>
      <trkpt lat="42.9897160" lon="-0.0895510">
        <ele>429.4</ele>
        <time>2020-07-26T13:36:51Z</time>
      </trkpt>
      <trkpt lat="42.9899120" lon="-0.0896180">
        <ele>429.6</ele>
        <time>2020-07-26T13:36:54Z</time>
      </trkpt>
      <trkpt lat="42.9899780" lon="-0.0896400">
        <ele>429.8</ele>
        <time>2020-07-26T13:36:55Z</time>
      </trkpt>
      <trkpt lat="42.9903990" lon="-0.0897650">
        <ele>428.8</ele>
        <time>2020-07-26T13:37:01Z</time>
      </trkpt>
      <trkpt lat="42.9904700" lon="-0.0897850">
        <ele>428.6</ele>
        <time>2020-07-26T13:37:02Z</time>
      </trkpt>
      <trkpt lat="42.9906080" lon="-0.0898270">
        <ele>428.0</ele>
        <time>2020-07-26T13:37:04Z</time>
      </trkpt>
      <trkpt lat="42.9909470" lon="-0.0899290">
        <ele>427.6</ele>
        <time>2020-07-26T13:37:09Z</time>
      </trkpt>
      <trkpt lat="42.9914170" lon="-0.0900730">
        <ele>427.2</ele>
        <time>2020-07-26T13:37:15Z</time>
      </trkpt>
      <trkpt lat="42.9915780" lon="-0.0901330">
        <ele>427.0</ele>
        <time>2020-07-26T13:37:17Z</time>
      </trkpt>
      <trkpt lat="42.9917380" lon="-0.0901980">
        <ele>427.0</ele>
        <time>2020-07-26T13:37:19Z</time>
      </trkpt>
      <trkpt lat="42.9918940" lon="-0.0902730">
        <ele>425.8</ele>
        <time>2020-07-26T13:37:21Z</time>
      </trkpt>
      <trkpt lat="42.9920480" lon="-0.0903480">
        <ele>425.2</ele>
        <time>2020-07-26T13:37:23Z</time>
      </trkpt>
      <trkpt lat="42.9923520" lon="-0.0904960">
        <ele>424.8</ele>
        <time>2020-07-26T13:37:27Z</time>
      </trkpt>
      <trkpt lat="42.9925760" lon="-0.0906040">
        <ele>424.6</ele>
        <time>2020-07-26T13:37:30Z</time>
      </trkpt>
      <trkpt lat="42.9928710" lon="-0.0907510">
        <ele>424.8</ele>
        <time>2020-07-26T13:37:34Z</time>
      </trkpt>
      <trkpt lat="42.9932700" lon="-0.0909600">
        <ele>425.6</ele>
        <time>2020-07-26T13:37:40Z</time>
      </trkpt>
      <trkpt lat="42.9933330" lon="-0.0909900">
        <ele>425.8</ele>
        <time>2020-07-26T13:37:41Z</time>
      </trkpt>
      <trkpt lat="42.9936910" lon="-0.0911530">
        <ele>426.2</ele>
        <time>2020-07-26T13:37:47Z</time>
      </trkpt>
      <trkpt lat="42.9937460" lon="-0.0911800">
        <ele>426.2</ele>
        <time>2020-07-26T13:37:48Z</time>
      </trkpt>
      <trkpt lat="42.9940230" lon="-0.0913140">
        <ele>427.0</ele>
        <time>2020-07-26T13:37:53Z</time>
      </trkpt>
      <trkpt lat="42.9941880" lon="-0.0913980">
        <ele>428.0</ele>
        <time>2020-07-26T13:37:56Z</time>
      </trkpt>
      <trkpt lat="42.9943560" lon="-0.0914780">
        <ele>428.0</ele>
        <time>2020-07-26T13:37:59Z</time>
      </trkpt>
      <trkpt lat="42.9947060" lon="-0.0915790">
        <ele>427.8</ele>
        <time>2020-07-26T13:38:05Z</time>
      </trkpt>
      <trkpt lat="42.9947650" lon="-0.0915840">
        <ele>428.0</ele>
        <time>2020-07-26T13:38:06Z</time>
      </trkpt>
      <trkpt lat="42.9951150" lon="-0.0916010">
        <ele>427.8</ele>
        <time>2020-07-26T13:38:12Z</time>
      </trkpt>
      <trkpt lat="42.9952900" lon="-0.0916240">
        <ele>428.0</ele>
        <time>2020-07-26T13:38:15Z</time>
      </trkpt>
      <trkpt lat="42.9955180" lon="-0.0916950">
        <ele>429.2</ele>
        <time>2020-07-26T13:38:19Z</time>
      </trkpt>
      <trkpt lat="42.9956930" lon="-0.0917560">
        <ele>430.0</ele>
        <time>2020-07-26T13:38:22Z</time>
      </trkpt>
      <trkpt lat="42.9957520" lon="-0.0917790">
        <ele>430.2</ele>
        <time>2020-07-26T13:38:23Z</time>
      </trkpt>
      <trkpt lat="42.9958100" lon="-0.0918040">
        <ele>430.6</ele>
        <time>2020-07-26T13:38:24Z</time>
      </trkpt>
      <trkpt lat="42.9958680" lon="-0.0918270">
        <ele>430.6</ele>
        <time>2020-07-26T13:38:25Z</time>
      </trkpt>
      <trkpt lat="42.9959830" lon="-0.0918710">
        <ele>430.6</ele>
        <time>2020-07-26T13:38:27Z</time>
      </trkpt>
      <trkpt lat="42.9962630" lon="-0.0919800">
        <ele>430.8</ele>
        <time>2020-07-26T13:38:32Z</time>
      </trkpt>
      <trkpt lat="42.9965950" lon="-0.0921160">
        <ele>431.0</ele>
        <time>2020-07-26T13:38:38Z</time>
      </trkpt>
      <trkpt lat="42.9966940" lon="-0.0921840">
        <ele>431.2</ele>
        <time>2020-07-26T13:38:40Z</time>
      </trkpt>
      <trkpt lat="42.9967800" lon="-0.0922760">
        <ele>431.4</ele>
        <time>2020-07-26T13:38:42Z</time>
      </trkpt>
      <trkpt lat="42.9968950" lon="-0.0924390">
        <ele>431.8</ele>
        <time>2020-07-26T13:38:45Z</time>
      </trkpt>
      <trkpt lat="42.9969290" lon="-0.0924990">
        <ele>432.0</ele>
        <time>2020-07-26T13:38:46Z</time>
      </trkpt>
      <trkpt lat="42.9969650" lon="-0.0925580">
        <ele>432.4</ele>
        <time>2020-07-26T13:38:47Z</time>
      </trkpt>
      <trkpt lat="42.9970750" lon="-0.0927290">
        <ele>433.2</ele>
        <time>2020-07-26T13:38:50Z</time>
      </trkpt>
      <trkpt lat="42.9971130" lon="-0.0927840">
        <ele>433.6</ele>
        <time>2020-07-26T13:38:51Z</time>
      </trkpt>
      <trkpt lat="42.9972310" lon="-0.0929440">
        <ele>434.2</ele>
        <time>2020-07-26T13:38:54Z</time>
      </trkpt>
      <trkpt lat="42.9973040" lon="-0.0930530">
        <ele>434.8</ele>
        <time>2020-07-26T13:38:56Z</time>
      </trkpt>
      <trkpt lat="42.9973400" lon="-0.0931060">
        <ele>435.0</ele>
        <time>2020-07-26T13:38:57Z</time>
      </trkpt>
      <trkpt lat="42.9974450" lon="-0.0932600">
        <ele>435.8</ele>
        <time>2020-07-26T13:39:00Z</time>
      </trkpt>
      <trkpt lat="42.9976500" lon="-0.0935750">
        <ele>437.0</ele>
        <time>2020-07-26T13:39:06Z</time>
      </trkpt>
      <trkpt lat="42.9977180" lon="-0.0936750">
        <ele>437.2</ele>
        <time>2020-07-26T13:39:08Z</time>
      </trkpt>
      <trkpt lat="42.9978360" lon="-0.0938810">
        <ele>438.0</ele>
        <time>2020-07-26T13:39:12Z</time>
      </trkpt>
      <trkpt lat="42.9979210" lon="-0.0940340">
        <ele>439.2</ele>
        <time>2020-07-26T13:39:15Z</time>
      </trkpt>
      <trkpt lat="42.9979810" lon="-0.0941310">
        <ele>440.2</ele>
        <time>2020-07-26T13:39:17Z</time>
      </trkpt>
      <trkpt lat="42.9981090" lon="-0.0943290">
        <ele>441.6</ele>
        <time>2020-07-26T13:39:21Z</time>
      </trkpt>
      <trkpt lat="42.9981790" lon="-0.0944300">
        <ele>442.0</ele>
        <time>2020-07-26T13:39:23Z</time>
      </trkpt>
      <trkpt lat="42.9983950" lon="-0.0947480">
        <ele>442.0</ele>
        <time>2020-07-26T13:39:29Z</time>
      </trkpt>
      <trkpt lat="42.9985200" lon="-0.0949260">
        <ele>441.8</ele>
        <time>2020-07-26T13:39:32Z</time>
      </trkpt>
      <trkpt lat="42.9987930" lon="-0.0953080">
        <ele>441.0</ele>
        <time>2020-07-26T13:39:38Z</time>
      </trkpt>
      <trkpt lat="42.9988870" lon="-0.0954330">
        <ele>441.0</ele>
        <time>2020-07-26T13:39:40Z</time>
      </trkpt>
      <trkpt lat="42.9990240" lon="-0.0956190">
        <ele>441.2</ele>
        <time>2020-07-26T13:39:43Z</time>
      </trkpt>
      <trkpt lat="42.9991970" lon="-0.0958800">
        <ele>441.6</ele>
        <time>2020-07-26T13:39:47Z</time>
      </trkpt>
      <trkpt lat="42.9993290" lon="-0.0960630">
        <ele>442.4</ele>
        <time>2020-07-26T13:39:50Z</time>
      </trkpt>
      <trkpt lat="42.9993730" lon="-0.0961220">
        <ele>442.6</ele>
        <time>2020-07-26T13:39:51Z</time>
      </trkpt>
      <trkpt lat="42.9995870" lon="-0.0964180">
        <ele>443.0</ele>
        <time>2020-07-26T13:39:56Z</time>
      </trkpt>
      <trkpt lat="42.9996970" lon="-0.0966040">
        <ele>443.6</ele>
        <time>2020-07-26T13:39:59Z</time>
      </trkpt>
      <trkpt lat="42.9997320" lon="-0.0966680">
        <ele>443.8</ele>
        <time>2020-07-26T13:40:00Z</time>
      </trkpt>
      <trkpt lat="42.9997680" lon="-0.0967320">
        <ele>443.8</ele>
        <time>2020-07-26T13:40:01Z</time>
      </trkpt>
      <trkpt lat="42.9998460" lon="-0.0968570">
        <ele>444.2</ele>
        <time>2020-07-26T13:40:03Z</time>
      </trkpt>
      <trkpt lat="42.9998870" lon="-0.0969190">
        <ele>444.4</ele>
        <time>2020-07-26T13:40:04Z</time>
      </trkpt>
      <trkpt lat="43.0001420" lon="-0.0972830">
        <ele>444.6</ele>
        <time>2020-07-26T13:40:10Z</time>
      </trkpt>
      <trkpt lat="43.0002300" lon="-0.0973980">
        <ele>444.6</ele>
        <time>2020-07-26T13:40:12Z</time>
      </trkpt>
      <trkpt lat="43.0003480" lon="-0.0975820">
        <ele>444.8</ele>
        <time>2020-07-26T13:40:15Z</time>
      </trkpt>
      <trkpt lat="43.0005420" lon="-0.0979070">
        <ele>445.0</ele>
        <time>2020-07-26T13:40:20Z</time>
      </trkpt>
      <trkpt lat="43.0006680" lon="-0.0980940">
        <ele>444.8</ele>
        <time>2020-07-26T13:40:23Z</time>
      </trkpt>
      <trkpt lat="43.0008330" lon="-0.0983370">
        <ele>445.0</ele>
        <time>2020-07-26T13:40:27Z</time>
      </trkpt>
      <trkpt lat="43.0010730" lon="-0.0986940">
        <ele>445.6</ele>
        <time>2020-07-26T13:40:33Z</time>
      </trkpt>
      <trkpt lat="43.0012320" lon="-0.0988820">
        <ele>446.0</ele>
        <time>2020-07-26T13:40:37Z</time>
      </trkpt>
      <trkpt lat="43.0013000" lon="-0.0989660">
        <ele>446.2</ele>
        <time>2020-07-26T13:40:39Z</time>
      </trkpt>
      <trkpt lat="43.0013560" lon="-0.0990390">
        <ele>446.4</ele>
        <time>2020-07-26T13:40:41Z</time>
      </trkpt>
      <trkpt lat="43.0014200" lon="-0.0991220">
        <ele>447.2</ele>
        <time>2020-07-26T13:40:44Z</time>
      </trkpt>
      <trkpt lat="43.0015290" lon="-0.0991700">
        <ele>447.4</ele>
        <time>2020-07-26T13:40:48Z</time>
      </trkpt>
      <trkpt lat="43.0016520" lon="-0.0992090">
        <ele>446.6</ele>
        <time>2020-07-26T13:40:51Z</time>
      </trkpt>
      <trkpt lat="43.0017380" lon="-0.0992480">
        <ele>446.6</ele>
        <time>2020-07-26T13:40:53Z</time>
      </trkpt>
      <trkpt lat="43.0017900" lon="-0.0992460">
        <ele>446.4</ele>
        <time>2020-07-26T13:40:54Z</time>
      </trkpt>
      <trkpt lat="43.0019530" lon="-0.0992160">
        <ele>446.2</ele>
        <time>2020-07-26T13:40:57Z</time>
      </trkpt>
      <trkpt lat="43.0020040" lon="-0.0992070">
        <ele>445.6</ele>
        <time>2020-07-26T13:40:58Z</time>
      </trkpt>
      <trkpt lat="43.0023320" lon="-0.0991480">
        <ele>446.0</ele>
        <time>2020-07-26T13:41:04Z</time>
      </trkpt>
      <trkpt lat="43.0024930" lon="-0.0991070">
        <ele>446.2</ele>
        <time>2020-07-26T13:41:07Z</time>
      </trkpt>
      <trkpt lat="43.0026670" lon="-0.0990870">
        <ele>445.6</ele>
        <time>2020-07-26T13:41:10Z</time>
      </trkpt>
      <trkpt lat="43.0029920" lon="-0.0990510">
        <ele>444.2</ele>
        <time>2020-07-26T13:41:15Z</time>
      </trkpt>
      <trkpt lat="43.0031900" lon="-0.0990300">
        <ele>443.0</ele>
        <time>2020-07-26T13:41:18Z</time>
      </trkpt>
      <trkpt lat="43.0033860" lon="-0.0990150">
        <ele>442.4</ele>
        <time>2020-07-26T13:41:21Z</time>
      </trkpt>
      <trkpt lat="43.0035160" lon="-0.0989990">
        <ele>442.6</ele>
        <time>2020-07-26T13:41:23Z</time>
      </trkpt>
      <trkpt lat="43.0038450" lon="-0.0989390">
        <ele>442.0</ele>
        <time>2020-07-26T13:41:28Z</time>
      </trkpt>
      <trkpt lat="43.0039770" lon="-0.0989170">
        <ele>441.4</ele>
        <time>2020-07-26T13:41:30Z</time>
      </trkpt>
      <trkpt lat="43.0042270" lon="-0.0988870">
        <ele>441.0</ele>
        <time>2020-07-26T13:41:34Z</time>
      </trkpt>
      <trkpt lat="43.0042840" lon="-0.0988840">
        <ele>441.0</ele>
        <time>2020-07-26T13:41:35Z</time>
      </trkpt>
      <trkpt lat="43.0043940" lon="-0.0988710">
        <ele>441.2</ele>
        <time>2020-07-26T13:41:37Z</time>
      </trkpt>
      <trkpt lat="43.0047040" lon="-0.0988400">
        <ele>440.8</ele>
        <time>2020-07-26T13:41:43Z</time>
      </trkpt>
      <trkpt lat="43.0047580" lon="-0.0988330">
        <ele>440.8</ele>
        <time>2020-07-26T13:41:44Z</time>
      </trkpt>
      <trkpt lat="43.0045030" lon="-0.0986090">
        <ele>440.6</ele>
        <time>2020-07-27T07:03:37Z</time>
      </trkpt>
      <trkpt lat="43.0043460" lon="-0.0986190">
        <ele>441.0</ele>
        <time>2020-07-27T07:03:41Z</time>
      </trkpt>
      <trkpt lat="43.0041170" lon="-0.0986640">
        <ele>441.0</ele>
        <time>2020-07-27T07:03:46Z</time>
      </trkpt>
      <trkpt lat="43.0040680" lon="-0.0986750">
        <ele>441.0</ele>
        <time>2020-07-27T07:03:47Z</time>
      </trkpt>
      <trkpt lat="43.0040200" lon="-0.0986870">
        <ele>440.8</ele>
        <time>2020-07-27T07:03:48Z</time>
      </trkpt>
      <trkpt lat="43.0039240" lon="-0.0987080">
        <ele>441.0</ele>
        <time>2020-07-27T07:03:50Z</time>
      </trkpt>
      <trkpt lat="43.0038250" lon="-0.0987320">
        <ele>441.0</ele>
        <time>2020-07-27T07:03:52Z</time>
      </trkpt>
      <trkpt lat="43.0037750" lon="-0.0987440">
        <ele>441.2</ele>
        <time>2020-07-27T07:03:53Z</time>
      </trkpt>
      <trkpt lat="43.0036800" lon="-0.0987700">
        <ele>441.2</ele>
        <time>2020-07-27T07:03:55Z</time>
      </trkpt>
      <trkpt lat="43.0036340" lon="-0.0987770">
        <ele>441.4</ele>
        <time>2020-07-27T07:03:56Z</time>
      </trkpt>
      <trkpt lat="43.0035480" lon="-0.0987910">
        <ele>441.6</ele>
        <time>2020-07-27T07:03:58Z</time>
      </trkpt>
      <trkpt lat="43.0032650" lon="-0.0988600">
        <ele>442.4</ele>
        <time>2020-07-27T07:04:04Z</time>
      </trkpt>
      <trkpt lat="43.0031240" lon="-0.0988950">
        <ele>442.6</ele>
        <time>2020-07-27T07:04:07Z</time>
      </trkpt>
      <trkpt lat="43.0030270" lon="-0.0989190">
        <ele>442.8</ele>
        <time>2020-07-27T07:04:09Z</time>
      </trkpt>
      <trkpt lat="43.0028740" lon="-0.0989550">
        <ele>443.0</ele>
        <time>2020-07-27T07:04:12Z</time>
      </trkpt>
      <trkpt lat="43.0027730" lon="-0.0989780">
        <ele>443.4</ele>
        <time>2020-07-27T07:04:14Z</time>
      </trkpt>
      <trkpt lat="43.0026790" lon="-0.0990040">
        <ele>443.6</ele>
        <time>2020-07-27T07:04:16Z</time>
      </trkpt>
      <trkpt lat="43.0025730" lon="-0.0990220">
        <ele>443.8</ele>
        <time>2020-07-27T07:04:18Z</time>
      </trkpt>
      <trkpt lat="43.0024160" lon="-0.0990420">
        <ele>444.0</ele>
        <time>2020-07-27T07:04:21Z</time>
      </trkpt>
      <trkpt lat="43.0023670" lon="-0.0990510">
        <ele>444.2</ele>
        <time>2020-07-27T07:04:22Z</time>
      </trkpt>
      <trkpt lat="43.0022640" lon="-0.0990730">
        <ele>444.4</ele>
        <time>2020-07-27T07:04:24Z</time>
      </trkpt>
      <trkpt lat="43.0021720" lon="-0.0990990">
        <ele>444.6</ele>
        <time>2020-07-27T07:04:26Z</time>
      </trkpt>
      <trkpt lat="43.0020850" lon="-0.0991260">
        <ele>444.8</ele>
        <time>2020-07-27T07:04:28Z</time>
      </trkpt>
      <trkpt lat="43.0018330" lon="-0.0992440">
        <ele>446.0</ele>
        <time>2020-07-27T07:04:34Z</time>
      </trkpt>
      <trkpt lat="43.0017870" lon="-0.0992520">
        <ele>446.0</ele>
        <time>2020-07-27T07:04:35Z</time>
      </trkpt>
      <trkpt lat="43.0016630" lon="-0.0993000">
        <ele>446.4</ele>
        <time>2020-07-27T07:04:38Z</time>
      </trkpt>
      <trkpt lat="43.0015340" lon="-0.0993790">
        <ele>446.6</ele>
        <time>2020-07-27T07:04:41Z</time>
      </trkpt>
      <trkpt lat="43.0014500" lon="-0.0993620">
        <ele>446.8</ele>
        <time>2020-07-27T07:04:43Z</time>
      </trkpt>
      <trkpt lat="43.0014100" lon="-0.0993040">
        <ele>446.8</ele>
        <time>2020-07-27T07:04:44Z</time>
      </trkpt>
      <trkpt lat="43.0013760" lon="-0.0992500">
        <ele>446.8</ele>
        <time>2020-07-27T07:04:45Z</time>
      </trkpt>
      <trkpt lat="43.0012110" lon="-0.0989860">
        <ele>446.8</ele>
        <time>2020-07-27T07:04:49Z</time>
      </trkpt>
      <trkpt lat="43.0009390" lon="-0.0985860">
        <ele>446.0</ele>
        <time>2020-07-27T07:04:55Z</time>
      </trkpt>
      <trkpt lat="43.0008580" lon="-0.0984590">
        <ele>446.0</ele>
        <time>2020-07-27T07:04:57Z</time>
      </trkpt>
      <trkpt lat="43.0006380" lon="-0.0981410">
        <ele>445.4</ele>
        <time>2020-07-27T07:05:02Z</time>
      </trkpt>
      <trkpt lat="43.0005550" lon="-0.0980230">
        <ele>445.2</ele>
        <time>2020-07-27T07:05:04Z</time>
      </trkpt>
      <trkpt lat="43.0005130" lon="-0.0979650">
        <ele>445.0</ele>
        <time>2020-07-27T07:05:05Z</time>
      </trkpt>
      <trkpt lat="43.0004720" lon="-0.0979070">
        <ele>444.8</ele>
        <time>2020-07-27T07:05:06Z</time>
      </trkpt>
      <trkpt lat="43.0002320" lon="-0.0975540">
        <ele>444.4</ele>
        <time>2020-07-27T07:05:12Z</time>
      </trkpt>
      <trkpt lat="42.9999840" lon="-0.0971910">
        <ele>443.8</ele>
        <time>2020-07-27T07:05:18Z</time>
      </trkpt>
      <trkpt lat="42.9998990" lon="-0.0970650">
        <ele>443.4</ele>
        <time>2020-07-27T07:05:20Z</time>
      </trkpt>
      <trkpt lat="42.9997690" lon="-0.0968700">
        <ele>443.0</ele>
        <time>2020-07-27T07:05:23Z</time>
      </trkpt>
      <trkpt lat="42.9997240" lon="-0.0968060">
        <ele>443.0</ele>
        <time>2020-07-27T07:05:24Z</time>
      </trkpt>
      <trkpt lat="42.9995450" lon="-0.0965310">
        <ele>442.8</ele>
        <time>2020-07-27T07:05:28Z</time>
      </trkpt>
      <trkpt lat="42.9993220" lon="-0.0961900">
        <ele>442.8</ele>
        <time>2020-07-27T07:05:33Z</time>
      </trkpt>
      <trkpt lat="42.9992750" lon="-0.0961210">
        <ele>442.8</ele>
        <time>2020-07-27T07:05:34Z</time>
      </trkpt>
      <trkpt lat="42.9990430" lon="-0.0957540">
        <ele>442.0</ele>
        <time>2020-07-27T07:05:39Z</time>
      </trkpt>
      <trkpt lat="42.9989930" lon="-0.0956860">
        <ele>441.8</ele>
        <time>2020-07-27T07:05:40Z</time>
      </trkpt>
      <trkpt lat="42.9989430" lon="-0.0956170">
        <ele>441.4</ele>
        <time>2020-07-27T07:05:41Z</time>
      </trkpt>
      <trkpt lat="42.9987970" lon="-0.0953980">
        <ele>440.6</ele>
        <time>2020-07-27T07:05:44Z</time>
      </trkpt>
      <trkpt lat="42.9986020" lon="-0.0951170">
        <ele>440.8</ele>
        <time>2020-07-27T07:05:48Z</time>
      </trkpt>
      <trkpt lat="42.9983130" lon="-0.0947110">
        <ele>441.2</ele>
        <time>2020-07-27T07:05:54Z</time>
      </trkpt>
      <trkpt lat="42.9982260" lon="-0.0945800">
        <ele>441.4</ele>
        <time>2020-07-27T07:05:56Z</time>
      </trkpt>
      <trkpt lat="42.9981830" lon="-0.0945140">
        <ele>441.4</ele>
        <time>2020-07-27T07:05:57Z</time>
      </trkpt>
      <trkpt lat="42.9981400" lon="-0.0944510">
        <ele>441.4</ele>
        <time>2020-07-27T07:05:58Z</time>
      </trkpt>
      <trkpt lat="42.9978800" lon="-0.0940450">
        <ele>440.8</ele>
        <time>2020-07-27T07:06:04Z</time>
      </trkpt>
      <trkpt lat="42.9976790" lon="-0.0937240">
        <ele>440.2</ele>
        <time>2020-07-27T07:06:08Z</time>
      </trkpt>
      <trkpt lat="42.9975720" lon="-0.0935510">
        <ele>438.4</ele>
        <time>2020-07-27T07:06:10Z</time>
      </trkpt>
      <trkpt lat="42.9974600" lon="-0.0933740">
        <ele>436.8</ele>
        <time>2020-07-27T07:06:12Z</time>
      </trkpt>
      <trkpt lat="42.9972840" lon="-0.0931050">
        <ele>435.4</ele>
        <time>2020-07-27T07:06:15Z</time>
      </trkpt>
      <trkpt lat="42.9971040" lon="-0.0928350">
        <ele>434.2</ele>
        <time>2020-07-27T07:06:18Z</time>
      </trkpt>
      <trkpt lat="42.9969820" lon="-0.0926570">
        <ele>433.4</ele>
        <time>2020-07-27T07:06:20Z</time>
      </trkpt>
      <trkpt lat="42.9969220" lon="-0.0925700">
        <ele>433.2</ele>
        <time>2020-07-27T07:06:21Z</time>
      </trkpt>
      <trkpt lat="42.9968620" lon="-0.0924830">
        <ele>432.8</ele>
        <time>2020-07-27T07:06:22Z</time>
      </trkpt>
      <trkpt lat="42.9967410" lon="-0.0923110">
        <ele>432.0</ele>
        <time>2020-07-27T07:06:24Z</time>
      </trkpt>
      <trkpt lat="42.9966790" lon="-0.0922320">
        <ele>431.8</ele>
        <time>2020-07-27T07:06:25Z</time>
      </trkpt>
      <trkpt lat="42.9966130" lon="-0.0921590">
        <ele>431.6</ele>
        <time>2020-07-27T07:06:26Z</time>
      </trkpt>
      <trkpt lat="42.9964630" lon="-0.0920560">
        <ele>431.2</ele>
        <time>2020-07-27T07:06:28Z</time>
      </trkpt>
      <trkpt lat="42.9963860" lon="-0.0920220">
        <ele>431.0</ele>
        <time>2020-07-27T07:06:29Z</time>
      </trkpt>
      <trkpt lat="42.9961510" lon="-0.0919370">
        <ele>430.8</ele>
        <time>2020-07-27T07:06:32Z</time>
      </trkpt>
      <trkpt lat="42.9958440" lon="-0.0918300">
        <ele>430.2</ele>
        <time>2020-07-27T07:06:36Z</time>
      </trkpt>
      <trkpt lat="42.9955460" lon="-0.0917220">
        <ele>429.6</ele>
        <time>2020-07-27T07:06:40Z</time>
      </trkpt>
      <trkpt lat="42.9952550" lon="-0.0916250">
        <ele>428.6</ele>
        <time>2020-07-27T07:06:44Z</time>
      </trkpt>
      <trkpt lat="42.9948820" lon="-0.0915880">
        <ele>428.8</ele>
        <time>2020-07-27T07:06:49Z</time>
      </trkpt>
      <trkpt lat="42.9948080" lon="-0.0915860">
        <ele>428.6</ele>
        <time>2020-07-27T07:06:50Z</time>
      </trkpt>
      <trkpt lat="42.9946620" lon="-0.0915920">
        <ele>428.4</ele>
        <time>2020-07-27T07:06:52Z</time>
      </trkpt>
      <trkpt lat="42.9943690" lon="-0.0915340">
        <ele>428.2</ele>
        <time>2020-07-27T07:06:56Z</time>
      </trkpt>
      <trkpt lat="42.9942970" lon="-0.0915100">
        <ele>428.2</ele>
        <time>2020-07-27T07:06:57Z</time>
      </trkpt>
      <trkpt lat="42.9940800" lon="-0.0914130">
        <ele>427.6</ele>
        <time>2020-07-27T07:07:00Z</time>
      </trkpt>
      <trkpt lat="42.9939360" lon="-0.0913440">
        <ele>427.2</ele>
        <time>2020-07-27T07:07:02Z</time>
      </trkpt>
      <trkpt lat="42.9938630" lon="-0.0913090">
        <ele>427.0</ele>
        <time>2020-07-27T07:07:03Z</time>
      </trkpt>
      <trkpt lat="42.9937900" lon="-0.0912720">
        <ele>427.0</ele>
        <time>2020-07-27T07:07:04Z</time>
      </trkpt>
      <trkpt lat="42.9934920" lon="-0.0911270">
        <ele>426.2</ele>
        <time>2020-07-27T07:07:08Z</time>
      </trkpt>
      <trkpt lat="42.9934150" lon="-0.0910860">
        <ele>426.0</ele>
        <time>2020-07-27T07:07:09Z</time>
      </trkpt>
      <trkpt lat="42.9932600" lon="-0.0910100">
        <ele>425.8</ele>
        <time>2020-07-27T07:07:11Z</time>
      </trkpt>
      <trkpt lat="42.9930250" lon="-0.0909020">
        <ele>425.2</ele>
        <time>2020-07-27T07:07:14Z</time>
      </trkpt>
      <trkpt lat="42.9929470" lon="-0.0908650">
        <ele>425.0</ele>
        <time>2020-07-27T07:07:15Z</time>
      </trkpt>
      <trkpt lat="42.9924810" lon="-0.0906440">
        <ele>424.4</ele>
        <time>2020-07-27T07:07:21Z</time>
      </trkpt>
      <trkpt lat="42.9924040" lon="-0.0906080">
        <ele>424.4</ele>
        <time>2020-07-27T07:07:22Z</time>
      </trkpt>
      <trkpt lat="42.9919700" lon="-0.0903950">
        <ele>424.6</ele>
        <time>2020-07-27T07:07:28Z</time>
      </trkpt>
      <trkpt lat="42.9918310" lon="-0.0903270">
        <ele>424.8</ele>
        <time>2020-07-27T07:07:30Z</time>
      </trkpt>
      <trkpt lat="42.9915530" lon="-0.0901990">
        <ele>425.6</ele>
        <time>2020-07-27T07:07:34Z</time>
      </trkpt>
      <trkpt lat="42.9912040" lon="-0.0900780">
        <ele>425.8</ele>
        <time>2020-07-27T07:07:39Z</time>
      </trkpt>
      <trkpt lat="42.9909410" lon="-0.0900050">
        <ele>426.2</ele>
        <time>2020-07-27T07:07:43Z</time>
      </trkpt>
      <trkpt lat="42.9907010" lon="-0.0899320">
        <ele>427.4</ele>
        <time>2020-07-27T07:07:47Z</time>
      </trkpt>
      <trkpt lat="42.9903490" lon="-0.0898240">
        <ele>428.8</ele>
        <time>2020-07-27T07:07:53Z</time>
      </trkpt>
      <trkpt lat="42.9902910" lon="-0.0898060">
        <ele>429.0</ele>
        <time>2020-07-27T07:07:54Z</time>
      </trkpt>
      <trkpt lat="42.9900560" lon="-0.0897350">
        <ele>429.6</ele>
        <time>2020-07-27T07:07:58Z</time>
      </trkpt>
      <trkpt lat="42.9898820" lon="-0.0896880">
        <ele>430.0</ele>
        <time>2020-07-27T07:08:01Z</time>
      </trkpt>
      <trkpt lat="42.9896510" lon="-0.0896150">
        <ele>430.8</ele>
        <time>2020-07-27T07:08:05Z</time>
      </trkpt>
      <trkpt lat="42.9895920" lon="-0.0895950">
        <ele>430.8</ele>
        <time>2020-07-27T07:08:06Z</time>
      </trkpt>
      <trkpt lat="42.9895320" lon="-0.0895730">
        <ele>430.8</ele>
        <time>2020-07-27T07:08:07Z</time>
      </trkpt>
      <trkpt lat="42.9894690" lon="-0.0895460">
        <ele>430.8</ele>
        <time>2020-07-27T07:08:08Z</time>
      </trkpt>
      <trkpt lat="42.9893380" lon="-0.0894910">
        <ele>430.2</ele>
        <time>2020-07-27T07:08:10Z</time>
      </trkpt>
      <trkpt lat="42.9891370" lon="-0.0893990">
        <ele>429.2</ele>
        <time>2020-07-27T07:08:13Z</time>
      </trkpt>
      <trkpt lat="42.9889310" lon="-0.0893050">
        <ele>428.8</ele>
        <time>2020-07-27T07:08:16Z</time>
      </trkpt>
      <trkpt lat="42.9886550" lon="-0.0891780">
        <ele>428.6</ele>
        <time>2020-07-27T07:08:20Z</time>
      </trkpt>
      <trkpt lat="42.9885870" lon="-0.0891450">
        <ele>428.4</ele>
        <time>2020-07-27T07:08:21Z</time>
      </trkpt>
      <trkpt lat="42.9883830" lon="-0.0890470">
        <ele>428.0</ele>
        <time>2020-07-27T07:08:24Z</time>
      </trkpt>
      <trkpt lat="42.9881760" lon="-0.0889470">
        <ele>427.8</ele>
        <time>2020-07-27T07:08:27Z</time>
      </trkpt>
      <trkpt lat="42.9880410" lon="-0.0888880">
        <ele>428.0</ele>
        <time>2020-07-27T07:08:29Z</time>
      </trkpt>
      <trkpt lat="42.9879030" lon="-0.0888360">
        <ele>428.0</ele>
        <time>2020-07-27T07:08:31Z</time>
      </trkpt>
      <trkpt lat="42.9877700" lon="-0.0887890">
        <ele>428.0</ele>
        <time>2020-07-27T07:08:33Z</time>
      </trkpt>
      <trkpt lat="42.9875640" lon="-0.0887320">
        <ele>427.8</ele>
        <time>2020-07-27T07:08:36Z</time>
      </trkpt>
      <trkpt lat="42.9875010" lon="-0.0887130">
        <ele>427.4</ele>
        <time>2020-07-27T07:08:37Z</time>
      </trkpt>
      <trkpt lat="42.9871630" lon="-0.0886210">
        <ele>427.2</ele>
        <time>2020-07-27T07:08:42Z</time>
      </trkpt>
      <trkpt lat="42.9869520" lon="-0.0885700">
        <ele>427.6</ele>
        <time>2020-07-27T07:08:45Z</time>
      </trkpt>
      <trkpt lat="42.9865380" lon="-0.0884720">
        <ele>428.0</ele>
        <time>2020-07-27T07:08:51Z</time>
      </trkpt>
      <trkpt lat="42.9864700" lon="-0.0884570">
        <ele>427.8</ele>
        <time>2020-07-27T07:08:52Z</time>
      </trkpt>
      <trkpt lat="42.9860740" lon="-0.0883190">
        <ele>428.4</ele>
        <time>2020-07-27T07:08:58Z</time>
      </trkpt>
      <trkpt lat="42.9860080" lon="-0.0882910">
        <ele>428.4</ele>
        <time>2020-07-27T07:08:59Z</time>
      </trkpt>
      <trkpt lat="42.9856270" lon="-0.0881000">
        <ele>428.6</ele>
        <time>2020-07-27T07:09:05Z</time>
      </trkpt>
      <trkpt lat="42.9855630" lon="-0.0880680">
        <ele>428.8</ele>
        <time>2020-07-27T07:09:06Z</time>
      </trkpt>
      <trkpt lat="42.9855010" lon="-0.0880360">
        <ele>429.0</ele>
        <time>2020-07-27T07:09:07Z</time>
      </trkpt>
      <trkpt lat="42.9851330" lon="-0.0878440">
        <ele>429.4</ele>
        <time>2020-07-27T07:09:13Z</time>
      </trkpt>
      <trkpt lat="42.9848820" lon="-0.0877150">
        <ele>429.8</ele>
        <time>2020-07-27T07:09:17Z</time>
      </trkpt>
      <trkpt lat="42.9847540" lon="-0.0876480">
        <ele>430.2</ele>
        <time>2020-07-27T07:09:19Z</time>
      </trkpt>
      <trkpt lat="42.9844340" lon="-0.0874950">
        <ele>430.0</ele>
        <time>2020-07-27T07:09:24Z</time>
      </trkpt>
      <trkpt lat="42.9840560" lon="-0.0872560">
        <ele>430.4</ele>
        <time>2020-07-27T07:09:30Z</time>
      </trkpt>
      <trkpt lat="42.9838820" lon="-0.0871250">
        <ele>430.8</ele>
        <time>2020-07-27T07:09:33Z</time>
      </trkpt>
      <trkpt lat="42.9835500" lon="-0.0868180">
        <ele>431.0</ele>
        <time>2020-07-27T07:09:39Z</time>
      </trkpt>
      <trkpt lat="42.9834960" lon="-0.0867640">
        <ele>431.2</ele>
        <time>2020-07-27T07:09:40Z</time>
      </trkpt>
      <trkpt lat="42.9834440" lon="-0.0867090">
        <ele>431.2</ele>
        <time>2020-07-27T07:09:41Z</time>
      </trkpt>
      <trkpt lat="42.9831130" lon="-0.0863880">
        <ele>431.4</ele>
        <time>2020-07-27T07:09:47Z</time>
      </trkpt>
      <trkpt lat="42.9829440" lon="-0.0862240">
        <ele>432.0</ele>
        <time>2020-07-27T07:09:50Z</time>
      </trkpt>
      <trkpt lat="42.9826190" lon="-0.0858970">
        <ele>431.8</ele>
        <time>2020-07-27T07:09:56Z</time>
      </trkpt>
      <trkpt lat="42.9824090" lon="-0.0856800">
        <ele>432.0</ele>
        <time>2020-07-27T07:10:00Z</time>
      </trkpt>
      <trkpt lat="42.9823540" lon="-0.0856280">
        <ele>432.2</ele>
        <time>2020-07-27T07:10:01Z</time>
      </trkpt>
      <trkpt lat="42.9820080" lon="-0.0853000">
        <ele>432.4</ele>
        <time>2020-07-27T07:10:07Z</time>
      </trkpt>
      <trkpt lat="42.9819510" lon="-0.0852430">
        <ele>432.2</ele>
        <time>2020-07-27T07:10:08Z</time>
      </trkpt>
      <trkpt lat="42.9816180" lon="-0.0849200">
        <ele>432.2</ele>
        <time>2020-07-27T07:10:14Z</time>
      </trkpt>
      <trkpt lat="42.9814520" lon="-0.0847660">
        <ele>432.4</ele>
        <time>2020-07-27T07:10:17Z</time>
      </trkpt>
      <trkpt lat="42.9811220" lon="-0.0844620">
        <ele>433.0</ele>
        <time>2020-07-27T07:10:23Z</time>
      </trkpt>
      <trkpt lat="42.9809600" lon="-0.0843080">
        <ele>432.8</ele>
        <time>2020-07-27T07:10:26Z</time>
      </trkpt>
      <trkpt lat="42.9807960" lon="-0.0841510">
        <ele>432.8</ele>
        <time>2020-07-27T07:10:29Z</time>
      </trkpt>
      <trkpt lat="42.9805830" lon="-0.0839500">
        <ele>433.0</ele>
        <time>2020-07-27T07:10:33Z</time>
      </trkpt>
      <trkpt lat="42.9804800" lon="-0.0838480">
        <ele>433.4</ele>
        <time>2020-07-27T07:10:35Z</time>
      </trkpt>
      <trkpt lat="42.9801620" lon="-0.0835250">
        <ele>433.2</ele>
        <time>2020-07-27T07:10:41Z</time>
      </trkpt>
      <trkpt lat="42.9800580" lon="-0.0834210">
        <ele>433.4</ele>
        <time>2020-07-27T07:10:43Z</time>
      </trkpt>
      <trkpt lat="42.9797400" lon="-0.0831120">
        <ele>433.8</ele>
        <time>2020-07-27T07:10:49Z</time>
      </trkpt>
      <trkpt lat="42.9795760" lon="-0.0829690">
        <ele>433.2</ele>
        <time>2020-07-27T07:10:52Z</time>
      </trkpt>
      <trkpt lat="42.9792940" lon="-0.0827310">
        <ele>433.6</ele>
        <time>2020-07-27T07:10:57Z</time>
      </trkpt>
      <trkpt lat="42.9791800" lon="-0.0826360">
        <ele>433.8</ele>
        <time>2020-07-27T07:10:59Z</time>
      </trkpt>
      <trkpt lat="42.9789530" lon="-0.0824530">
        <ele>434.2</ele>
        <time>2020-07-27T07:11:03Z</time>
      </trkpt>
      <trkpt lat="42.9788970" lon="-0.0824100">
        <ele>434.4</ele>
        <time>2020-07-27T07:11:04Z</time>
      </trkpt>
      <trkpt lat="42.9788420" lon="-0.0823650">
        <ele>434.4</ele>
        <time>2020-07-27T07:11:05Z</time>
      </trkpt>
      <trkpt lat="42.9785040" lon="-0.0820880">
        <ele>434.6</ele>
        <time>2020-07-27T07:11:11Z</time>
      </trkpt>
      <trkpt lat="42.9781630" lon="-0.0818140">
        <ele>435.2</ele>
        <time>2020-07-27T07:11:17Z</time>
      </trkpt>
      <trkpt lat="42.9781060" lon="-0.0817680">
        <ele>435.6</ele>
        <time>2020-07-27T07:11:18Z</time>
      </trkpt>
      <trkpt lat="42.9779340" lon="-0.0816300">
        <ele>436.4</ele>
        <time>2020-07-27T07:11:21Z</time>
      </trkpt>
      <trkpt lat="42.9777010" lon="-0.0814380">
        <ele>436.4</ele>
        <time>2020-07-27T07:11:25Z</time>
      </trkpt>
      <trkpt lat="42.9775330" lon="-0.0812960">
        <ele>436.6</ele>
        <time>2020-07-27T07:11:28Z</time>
      </trkpt>
      <trkpt lat="42.9774760" lon="-0.0812510">
        <ele>436.4</ele>
        <time>2020-07-27T07:11:29Z</time>
      </trkpt>
      <trkpt lat="42.9774200" lon="-0.0812040">
        <ele>436.6</ele>
        <time>2020-07-27T07:11:30Z</time>
      </trkpt>
      <trkpt lat="42.9770860" lon="-0.0809230">
        <ele>437.0</ele>
        <time>2020-07-27T07:11:36Z</time>
      </trkpt>
      <trkpt lat="42.9769230" lon="-0.0807760">
        <ele>437.4</ele>
        <time>2020-07-27T07:11:39Z</time>
      </trkpt>
      <trkpt lat="42.9765860" lon="-0.0804370">
        <ele>437.0</ele>
        <time>2020-07-27T07:11:45Z</time>
      </trkpt>
      <trkpt lat="42.9764760" lon="-0.0803220">
        <ele>437.2</ele>
        <time>2020-07-27T07:11:47Z</time>
      </trkpt>
      <trkpt lat="42.9763630" lon="-0.0802040">
        <ele>437.6</ele>
        <time>2020-07-27T07:11:49Z</time>
      </trkpt>
      <trkpt lat="42.9760330" lon="-0.0798650">
        <ele>438.0</ele>
        <time>2020-07-27T07:11:55Z</time>
      </trkpt>
      <trkpt lat="42.9759790" lon="-0.0798130">
        <ele>438.0</ele>
        <time>2020-07-27T07:11:56Z</time>
      </trkpt>
      <trkpt lat="42.9757680" lon="-0.0795960">
        <ele>438.6</ele>
        <time>2020-07-27T07:12:00Z</time>
      </trkpt>
      <trkpt lat="42.9755170" lon="-0.0793180">
        <ele>438.6</ele>
        <time>2020-07-27T07:12:05Z</time>
      </trkpt>
      <trkpt lat="42.9752940" lon="-0.0789780">
        <ele>438.8</ele>
        <time>2020-07-27T07:12:10Z</time>
      </trkpt>
      <trkpt lat="42.9752110" lon="-0.0788300">
        <ele>439.0</ele>
        <time>2020-07-27T07:12:12Z</time>
      </trkpt>
      <trkpt lat="42.9749860" lon="-0.0783610">
        <ele>439.0</ele>
        <time>2020-07-27T07:12:18Z</time>
      </trkpt>
      <trkpt lat="42.9749240" lon="-0.0781950">
        <ele>439.0</ele>
        <time>2020-07-27T07:12:20Z</time>
      </trkpt>
      <trkpt lat="42.9747370" lon="-0.0776870">
        <ele>439.4</ele>
        <time>2020-07-27T07:12:26Z</time>
      </trkpt>
      <trkpt lat="42.9746710" lon="-0.0775190">
        <ele>439.6</ele>
        <time>2020-07-27T07:12:28Z</time>
      </trkpt>
      <trkpt lat="42.9745020" lon="-0.0771070">
        <ele>439.8</ele>
        <time>2020-07-27T07:12:33Z</time>
      </trkpt>
      <trkpt lat="42.9743870" lon="-0.0768660">
        <ele>440.0</ele>
        <time>2020-07-27T07:12:36Z</time>
      </trkpt>
      <trkpt lat="42.9741020" lon="-0.0764340">
        <ele>440.6</ele>
        <time>2020-07-27T07:12:42Z</time>
      </trkpt>
      <trkpt lat="42.9739980" lon="-0.0763060">
        <ele>440.8</ele>
        <time>2020-07-27T07:12:44Z</time>
      </trkpt>
      <trkpt lat="42.9739430" lon="-0.0762470">
        <ele>440.8</ele>
        <time>2020-07-27T07:12:45Z</time>
      </trkpt>
      <trkpt lat="42.9737190" lon="-0.0760260">
        <ele>441.2</ele>
        <time>2020-07-27T07:12:49Z</time>
      </trkpt>
      <trkpt lat="42.9734730" lon="-0.0758520">
        <ele>441.8</ele>
        <time>2020-07-27T07:12:53Z</time>
      </trkpt>
      <trkpt lat="42.9733430" lon="-0.0757850">
        <ele>442.0</ele>
        <time>2020-07-27T07:12:55Z</time>
      </trkpt>
      <trkpt lat="42.9729360" lon="-0.0756010">
        <ele>442.0</ele>
        <time>2020-07-27T07:13:01Z</time>
      </trkpt>
      <trkpt lat="42.9727310" lon="-0.0755070">
        <ele>442.2</ele>
        <time>2020-07-27T07:13:04Z</time>
      </trkpt>
      <trkpt lat="42.9724600" lon="-0.0753810">
        <ele>442.6</ele>
        <time>2020-07-27T07:13:08Z</time>
      </trkpt>
      <trkpt lat="42.9720550" lon="-0.0751860">
        <ele>443.0</ele>
        <time>2020-07-27T07:13:14Z</time>
      </trkpt>
      <trkpt lat="42.9716560" lon="-0.0749880">
        <ele>443.0</ele>
        <time>2020-07-27T07:13:20Z</time>
      </trkpt>
      <trkpt lat="42.9714570" lon="-0.0748960">
        <ele>443.2</ele>
        <time>2020-07-27T07:13:23Z</time>
      </trkpt>
      <trkpt lat="42.9711200" lon="-0.0747700">
        <ele>444.2</ele>
        <time>2020-07-27T07:13:28Z</time>
      </trkpt>
      <trkpt lat="42.9709210" lon="-0.0747140">
        <ele>444.6</ele>
        <time>2020-07-27T07:13:31Z</time>
      </trkpt>
      <trkpt lat="42.9707310" lon="-0.0746670">
        <ele>445.0</ele>
        <time>2020-07-27T07:13:34Z</time>
      </trkpt>
      <trkpt lat="42.9705520" lon="-0.0746170">
        <ele>445.2</ele>
        <time>2020-07-27T07:13:37Z</time>
      </trkpt>
      <trkpt lat="42.9704930" lon="-0.0746020">
        <ele>445.4</ele>
        <time>2020-07-27T07:13:38Z</time>
      </trkpt>
      <trkpt lat="42.9703820" lon="-0.0745750">
        <ele>446.4</ele>
        <time>2020-07-27T07:13:40Z</time>
      </trkpt>
      <trkpt lat="42.9702240" lon="-0.0745380">
        <ele>447.4</ele>
        <time>2020-07-27T07:13:43Z</time>
      </trkpt>
      <trkpt lat="42.9700150" lon="-0.0744830">
        <ele>448.4</ele>
        <time>2020-07-27T07:13:47Z</time>
      </trkpt>
      <trkpt lat="42.9696980" lon="-0.0744010">
        <ele>449.2</ele>
        <time>2020-07-27T07:13:53Z</time>
      </trkpt>
      <trkpt lat="42.9695420" lon="-0.0743570">
        <ele>449.6</ele>
        <time>2020-07-27T07:13:56Z</time>
      </trkpt>
      <trkpt lat="42.9692220" lon="-0.0742730">
        <ele>450.4</ele>
        <time>2020-07-27T07:14:02Z</time>
      </trkpt>
      <trkpt lat="42.9691680" lon="-0.0742600">
        <ele>450.6</ele>
        <time>2020-07-27T07:14:03Z</time>
      </trkpt>
      <trkpt lat="42.9691130" lon="-0.0742440">
        <ele>450.8</ele>
        <time>2020-07-27T07:14:04Z</time>
      </trkpt>
      <trkpt lat="42.9687830" lon="-0.0741600">
        <ele>451.4</ele>
        <time>2020-07-27T07:14:10Z</time>
      </trkpt>
      <trkpt lat="42.9687280" lon="-0.0741450">
        <ele>451.8</ele>
        <time>2020-07-27T07:14:11Z</time>
      </trkpt>
      <trkpt lat="42.9686720" lon="-0.0741300">
        <ele>452.0</ele>
        <time>2020-07-27T07:14:12Z</time>
      </trkpt>
      <trkpt lat="42.9683390" lon="-0.0740500">
        <ele>452.2</ele>
        <time>2020-07-27T07:14:18Z</time>
      </trkpt>
      <trkpt lat="42.9682220" lon="-0.0740270">
        <ele>452.0</ele>
        <time>2020-07-27T07:14:20Z</time>
      </trkpt>
      <trkpt lat="42.9679830" lon="-0.0739550">
        <ele>452.4</ele>
        <time>2020-07-27T07:14:24Z</time>
      </trkpt>
      <trkpt lat="42.9678050" lon="-0.0739030">
        <ele>452.6</ele>
        <time>2020-07-27T07:14:27Z</time>
      </trkpt>
      <trkpt lat="42.9677430" lon="-0.0738830">
        <ele>452.8</ele>
        <time>2020-07-27T07:14:28Z</time>
      </trkpt>
      <trkpt lat="42.9676210" lon="-0.0738440">
        <ele>453.0</ele>
        <time>2020-07-27T07:14:30Z</time>
      </trkpt>
      <trkpt lat="42.9674440" lon="-0.0737840">
        <ele>453.2</ele>
        <time>2020-07-27T07:14:33Z</time>
      </trkpt>
      <trkpt lat="42.9672110" lon="-0.0737100">
        <ele>453.8</ele>
        <time>2020-07-27T07:14:37Z</time>
      </trkpt>
      <trkpt lat="42.9669800" lon="-0.0736590">
        <ele>455.0</ele>
        <time>2020-07-27T07:14:41Z</time>
      </trkpt>
      <trkpt lat="42.9667590" lon="-0.0736000">
        <ele>455.4</ele>
        <time>2020-07-27T07:14:45Z</time>
      </trkpt>
      <trkpt lat="42.9665430" lon="-0.0735730">
        <ele>456.0</ele>
        <time>2020-07-27T07:14:49Z</time>
      </trkpt>
      <trkpt lat="42.9663890" lon="-0.0735650">
        <ele>456.8</ele>
        <time>2020-07-27T07:14:52Z</time>
      </trkpt>
      <trkpt lat="42.9663390" lon="-0.0735500">
        <ele>457.0</ele>
        <time>2020-07-27T07:14:53Z</time>
      </trkpt>
      <trkpt lat="42.9662370" lon="-0.0735320">
        <ele>457.2</ele>
        <time>2020-07-27T07:14:55Z</time>
      </trkpt>
      <trkpt lat="42.9661340" lon="-0.0735630">
        <ele>457.6</ele>
        <time>2020-07-27T07:14:57Z</time>
      </trkpt>
      <trkpt lat="42.9660340" lon="-0.0736060">
        <ele>458.2</ele>
        <time>2020-07-27T07:14:59Z</time>
      </trkpt>
      <trkpt lat="42.9657870" lon="-0.0737600">
        <ele>458.4</ele>
        <time>2020-07-27T07:15:04Z</time>
      </trkpt>
      <trkpt lat="42.9657370" lon="-0.0737940">
        <ele>458.4</ele>
        <time>2020-07-27T07:15:05Z</time>
      </trkpt>
      <trkpt lat="42.9654780" lon="-0.0739040">
        <ele>459.0</ele>
        <time>2020-07-27T07:15:10Z</time>
      </trkpt>
      <trkpt lat="42.9653720" lon="-0.0739390">
        <ele>459.2</ele>
        <time>2020-07-27T07:15:12Z</time>
      </trkpt>
      <trkpt lat="42.9650450" lon="-0.0740380">
        <ele>459.8</ele>
        <time>2020-07-27T07:15:18Z</time>
      </trkpt>
      <trkpt lat="42.9649900" lon="-0.0740570">
        <ele>459.6</ele>
        <time>2020-07-27T07:15:19Z</time>
      </trkpt>
      <trkpt lat="42.9647710" lon="-0.0741250">
        <ele>460.4</ele>
        <time>2020-07-27T07:15:23Z</time>
      </trkpt>
      <trkpt lat="42.9644940" lon="-0.0742090">
        <ele>461.4</ele>
        <time>2020-07-27T07:15:28Z</time>
      </trkpt>
      <trkpt lat="42.9642220" lon="-0.0742990">
        <ele>462.0</ele>
        <time>2020-07-27T07:15:33Z</time>
      </trkpt>
      <trkpt lat="42.9640590" lon="-0.0743480">
        <ele>462.6</ele>
        <time>2020-07-27T07:15:36Z</time>
      </trkpt>
      <trkpt lat="42.9639490" lon="-0.0743820">
        <ele>462.6</ele>
        <time>2020-07-27T07:15:38Z</time>
      </trkpt>
      <trkpt lat="42.9636870" lon="-0.0744600">
        <ele>463.6</ele>
        <time>2020-07-27T07:15:43Z</time>
      </trkpt>
      <trkpt lat="42.9635860" lon="-0.0744910">
        <ele>463.8</ele>
        <time>2020-07-27T07:15:45Z</time>
      </trkpt>
      <trkpt lat="42.9634840" lon="-0.0745230">
        <ele>464.0</ele>
        <time>2020-07-27T07:15:47Z</time>
      </trkpt>
      <trkpt lat="42.9633880" lon="-0.0745490">
        <ele>465.0</ele>
        <time>2020-07-27T07:15:49Z</time>
      </trkpt>
      <trkpt lat="42.9631950" lon="-0.0745880">
        <ele>466.0</ele>
        <time>2020-07-27T07:15:53Z</time>
      </trkpt>
      <trkpt lat="42.9631430" lon="-0.0745910">
        <ele>466.2</ele>
        <time>2020-07-27T07:15:54Z</time>
      </trkpt>
      <trkpt lat="42.9628340" lon="-0.0745870">
        <ele>466.8</ele>
        <time>2020-07-27T07:16:00Z</time>
      </trkpt>
      <trkpt lat="42.9627820" lon="-0.0745840">
        <ele>467.0</ele>
        <time>2020-07-27T07:16:01Z</time>
      </trkpt>
      <trkpt lat="42.9627300" lon="-0.0745810">
        <ele>467.2</ele>
        <time>2020-07-27T07:16:02Z</time>
      </trkpt>
      <trkpt lat="42.9624080" lon="-0.0745550">
        <ele>467.8</ele>
        <time>2020-07-27T07:16:08Z</time>
      </trkpt>
      <trkpt lat="42.9623030" lon="-0.0745490">
        <ele>468.2</ele>
        <time>2020-07-27T07:16:10Z</time>
      </trkpt>
      <trkpt lat="42.9622540" lon="-0.0745490">
        <ele>468.4</ele>
        <time>2020-07-27T07:16:11Z</time>
      </trkpt>
      <trkpt lat="42.9620030" lon="-0.0745370">
        <ele>469.4</ele>
        <time>2020-07-27T07:16:16Z</time>
      </trkpt>
      <trkpt lat="42.9618480" lon="-0.0745240">
        <ele>469.8</ele>
        <time>2020-07-27T07:16:19Z</time>
      </trkpt>
      <trkpt lat="42.9615220" lon="-0.0744990">
        <ele>470.4</ele>
        <time>2020-07-27T07:16:25Z</time>
      </trkpt>
      <trkpt lat="42.9614660" lon="-0.0745000">
        <ele>470.4</ele>
        <time>2020-07-27T07:16:26Z</time>
      </trkpt>
      <trkpt lat="42.9614100" lon="-0.0744970">
        <ele>470.6</ele>
        <time>2020-07-27T07:16:27Z</time>
      </trkpt>
      <trkpt lat="42.9612400" lon="-0.0744910">
        <ele>470.6</ele>
        <time>2020-07-27T07:16:30Z</time>
      </trkpt>
      <trkpt lat="42.9610240" lon="-0.0744810">
        <ele>471.2</ele>
        <time>2020-07-27T07:16:34Z</time>
      </trkpt>
      <trkpt lat="42.9608720" lon="-0.0744740">
        <ele>471.6</ele>
        <time>2020-07-27T07:16:37Z</time>
      </trkpt>
      <trkpt lat="42.9606810" lon="-0.0744650">
        <ele>472.6</ele>
        <time>2020-07-27T07:16:41Z</time>
      </trkpt>
      <trkpt lat="42.9606340" lon="-0.0744670">
        <ele>472.8</ele>
        <time>2020-07-27T07:16:42Z</time>
      </trkpt>
      <trkpt lat="42.9604490" lon="-0.0744450">
        <ele>473.8</ele>
        <time>2020-07-27T07:16:46Z</time>
      </trkpt>
      <trkpt lat="42.9604020" lon="-0.0744420">
        <ele>474.0</ele>
        <time>2020-07-27T07:16:47Z</time>
      </trkpt>
      <trkpt lat="42.9602120" lon="-0.0744330">
        <ele>475.0</ele>
        <time>2020-07-27T07:16:51Z</time>
      </trkpt>
      <trkpt lat="42.9600210" lon="-0.0744480">
        <ele>476.2</ele>
        <time>2020-07-27T07:16:55Z</time>
      </trkpt>
      <trkpt lat="42.9597660" lon="-0.0744450">
        <ele>477.6</ele>
        <time>2020-07-27T07:17:00Z</time>
      </trkpt>
      <trkpt lat="42.9596600" lon="-0.0744450">
        <ele>478.0</ele>
        <time>2020-07-27T07:17:02Z</time>
      </trkpt>
      <trkpt lat="42.9595010" lon="-0.0744350">
        <ele>478.6</ele>
        <time>2020-07-27T07:17:05Z</time>
      </trkpt>
      <trkpt lat="42.9592970" lon="-0.0744360">
        <ele>479.6</ele>
        <time>2020-07-27T07:17:09Z</time>
      </trkpt>
      <trkpt lat="42.9592520" lon="-0.0744450">
        <ele>479.8</ele>
        <time>2020-07-27T07:17:10Z</time>
      </trkpt>
      <trkpt lat="42.9590880" lon="-0.0744920">
        <ele>480.4</ele>
        <time>2020-07-27T07:17:13Z</time>
      </trkpt>
      <trkpt lat="42.9590390" lon="-0.0745000">
        <ele>481.0</ele>
        <time>2020-07-27T07:17:14Z</time>
      </trkpt>
      <trkpt lat="42.9588360" lon="-0.0745250">
        <ele>482.0</ele>
        <time>2020-07-27T07:17:18Z</time>
      </trkpt>
      <trkpt lat="42.9587320" lon="-0.0745350">
        <ele>482.2</ele>
        <time>2020-07-27T07:17:20Z</time>
      </trkpt>
      <trkpt lat="42.9584380" lon="-0.0746310">
        <ele>483.2</ele>
        <time>2020-07-27T07:17:26Z</time>
      </trkpt>
      <trkpt lat="42.9582600" lon="-0.0747330">
        <ele>484.4</ele>
        <time>2020-07-27T07:17:30Z</time>
      </trkpt>
      <trkpt lat="42.9580790" lon="-0.0748550">
        <ele>485.4</ele>
        <time>2020-07-27T07:17:34Z</time>
      </trkpt>
      <trkpt lat="42.9579830" lon="-0.0749040">
        <ele>485.6</ele>
        <time>2020-07-27T07:17:36Z</time>
      </trkpt>
      <trkpt lat="42.9578930" lon="-0.0749470">
        <ele>485.6</ele>
        <time>2020-07-27T07:17:38Z</time>
      </trkpt>
      <trkpt lat="42.9578460" lon="-0.0749580">
        <ele>485.6</ele>
        <time>2020-07-27T07:17:39Z</time>
      </trkpt>
      <trkpt lat="42.9577970" lon="-0.0749540">
        <ele>485.6</ele>
        <time>2020-07-27T07:17:40Z</time>
      </trkpt>
      <trkpt lat="42.9576970" lon="-0.0749560">
        <ele>485.8</ele>
        <time>2020-07-27T07:17:42Z</time>
      </trkpt>
      <trkpt lat="42.9575910" lon="-0.0749870">
        <ele>486.2</ele>
        <time>2020-07-27T07:17:44Z</time>
      </trkpt>
      <trkpt lat="42.9575380" lon="-0.0750070">
        <ele>486.6</ele>
        <time>2020-07-27T07:17:45Z</time>
      </trkpt>
      <trkpt lat="42.9573480" lon="-0.0750860">
        <ele>487.8</ele>
        <time>2020-07-27T07:17:49Z</time>
      </trkpt>
      <trkpt lat="42.9572600" lon="-0.0751040">
        <ele>488.6</ele>
        <time>2020-07-27T07:17:51Z</time>
      </trkpt>
      <trkpt lat="42.9572160" lon="-0.0751050">
        <ele>489.2</ele>
        <time>2020-07-27T07:17:52Z</time>
      </trkpt>
      <trkpt lat="42.9571290" lon="-0.0750870">
        <ele>489.8</ele>
        <time>2020-07-27T07:17:54Z</time>
      </trkpt>
      <trkpt lat="42.9569810" lon="-0.0750420">
        <ele>489.8</ele>
        <time>2020-07-27T07:17:57Z</time>
      </trkpt>
      <trkpt lat="42.9569380" lon="-0.0750120">
        <ele>489.8</ele>
        <time>2020-07-27T07:17:58Z</time>
      </trkpt>
      <trkpt lat="42.9568410" lon="-0.0749420">
        <ele>489.6</ele>
        <time>2020-07-27T07:18:00Z</time>
      </trkpt>
      <trkpt lat="42.9567970" lon="-0.0748980">
        <ele>489.4</ele>
        <time>2020-07-27T07:18:01Z</time>
      </trkpt>
      <trkpt lat="42.9567600" lon="-0.0748400">
        <ele>489.4</ele>
        <time>2020-07-27T07:18:02Z</time>
      </trkpt>
      <trkpt lat="42.9567110" lon="-0.0746940">
        <ele>489.0</ele>
        <time>2020-07-27T07:18:04Z</time>
      </trkpt>
      <trkpt lat="42.9566470" lon="-0.0744290">
        <ele>487.8</ele>
        <time>2020-07-27T07:18:07Z</time>
      </trkpt>
      <trkpt lat="42.9566010" lon="-0.0742360">
        <ele>486.6</ele>
        <time>2020-07-27T07:18:09Z</time>
      </trkpt>
      <trkpt lat="42.9565680" lon="-0.0741400">
        <ele>486.2</ele>
        <time>2020-07-27T07:18:10Z</time>
      </trkpt>
      <trkpt lat="42.9564850" lon="-0.0739400">
        <ele>485.6</ele>
        <time>2020-07-27T07:18:12Z</time>
      </trkpt>
      <trkpt lat="42.9564360" lon="-0.0738390">
        <ele>485.2</ele>
        <time>2020-07-27T07:18:13Z</time>
      </trkpt>
      <trkpt lat="42.9563230" lon="-0.0736320">
        <ele>484.4</ele>
        <time>2020-07-27T07:18:15Z</time>
      </trkpt>
      <trkpt lat="42.9561900" lon="-0.0734210">
        <ele>483.2</ele>
        <time>2020-07-27T07:18:17Z</time>
      </trkpt>
      <trkpt lat="42.9560470" lon="-0.0731940">
        <ele>482.0</ele>
        <time>2020-07-27T07:18:19Z</time>
      </trkpt>
      <trkpt lat="42.9558990" lon="-0.0729630">
        <ele>480.8</ele>
        <time>2020-07-27T07:18:21Z</time>
      </trkpt>
      <trkpt lat="42.9557520" lon="-0.0727330">
        <ele>479.6</ele>
        <time>2020-07-27T07:18:23Z</time>
      </trkpt>
      <trkpt lat="42.9556790" lon="-0.0726180">
        <ele>479.2</ele>
        <time>2020-07-27T07:18:24Z</time>
      </trkpt>
      <trkpt lat="42.9554610" lon="-0.0722910">
        <ele>478.6</ele>
        <time>2020-07-27T07:18:27Z</time>
      </trkpt>
      <trkpt lat="42.9551580" lon="-0.0718350">
        <ele>477.4</ele>
        <time>2020-07-27T07:18:31Z</time>
      </trkpt>
      <trkpt lat="42.9550050" lon="-0.0716230">
        <ele>476.8</ele>
        <time>2020-07-27T07:18:33Z</time>
      </trkpt>
      <trkpt lat="42.9547590" lon="-0.0713390">
        <ele>476.4</ele>
        <time>2020-07-27T07:18:36Z</time>
      </trkpt>
      <trkpt lat="42.9545030" lon="-0.0710850">
        <ele>475.2</ele>
        <time>2020-07-27T07:18:39Z</time>
      </trkpt>
      <trkpt lat="42.9542430" lon="-0.0708440">
        <ele>474.4</ele>
        <time>2020-07-27T07:18:42Z</time>
      </trkpt>
      <trkpt lat="42.9541520" lon="-0.0707720">
        <ele>474.4</ele>
        <time>2020-07-27T07:18:43Z</time>
      </trkpt>
      <trkpt lat="42.9537740" lon="-0.0705060">
        <ele>474.0</ele>
        <time>2020-07-27T07:18:47Z</time>
      </trkpt>
      <trkpt lat="42.9534830" lon="-0.0703290">
        <ele>473.0</ele>
        <time>2020-07-27T07:18:50Z</time>
      </trkpt>
      <trkpt lat="42.9533860" lon="-0.0702700">
        <ele>472.6</ele>
        <time>2020-07-27T07:18:51Z</time>
      </trkpt>
      <trkpt lat="42.9530960" lon="-0.0701010">
        <ele>472.0</ele>
        <time>2020-07-27T07:18:54Z</time>
      </trkpt>
      <trkpt lat="42.9528120" lon="-0.0699640">
        <ele>471.8</ele>
        <time>2020-07-27T07:18:57Z</time>
      </trkpt>
      <trkpt lat="42.9527200" lon="-0.0699250">
        <ele>471.8</ele>
        <time>2020-07-27T07:18:58Z</time>
      </trkpt>
      <trkpt lat="42.9523800" lon="-0.0697950">
        <ele>473.6</ele>
        <time>2020-07-27T07:19:02Z</time>
      </trkpt>
      <trkpt lat="42.9522990" lon="-0.0697820">
        <ele>473.8</ele>
        <time>2020-07-27T07:19:03Z</time>
      </trkpt>
      <trkpt lat="42.9522190" lon="-0.0697770">
        <ele>474.0</ele>
        <time>2020-07-27T07:19:04Z</time>
      </trkpt>
      <trkpt lat="42.9521420" lon="-0.0697740">
        <ele>474.4</ele>
        <time>2020-07-27T07:19:05Z</time>
      </trkpt>
      <trkpt lat="42.9519930" lon="-0.0697520">
        <ele>475.0</ele>
        <time>2020-07-27T07:19:07Z</time>
      </trkpt>
      <trkpt lat="42.9518470" lon="-0.0697010">
        <ele>475.8</ele>
        <time>2020-07-27T07:19:09Z</time>
      </trkpt>
      <trkpt lat="42.9517750" lon="-0.0696710">
        <ele>476.0</ele>
        <time>2020-07-27T07:19:10Z</time>
      </trkpt>
      <trkpt lat="42.9516370" lon="-0.0695860">
        <ele>476.6</ele>
        <time>2020-07-27T07:19:12Z</time>
      </trkpt>
      <trkpt lat="42.9515260" lon="-0.0694430">
        <ele>477.0</ele>
        <time>2020-07-27T07:19:14Z</time>
      </trkpt>
      <trkpt lat="42.9514430" lon="-0.0692500">
        <ele>477.0</ele>
        <time>2020-07-27T07:19:16Z</time>
      </trkpt>
      <trkpt lat="42.9513790" lon="-0.0690500">
        <ele>477.0</ele>
        <time>2020-07-27T07:19:18Z</time>
      </trkpt>
      <trkpt lat="42.9512030" lon="-0.0685410">
        <ele>477.0</ele>
        <time>2020-07-27T07:19:23Z</time>
      </trkpt>
      <trkpt lat="42.9511170" lon="-0.0683410">
        <ele>476.6</ele>
        <time>2020-07-27T07:19:25Z</time>
      </trkpt>
      <trkpt lat="42.9509560" lon="-0.0680280">
        <ele>476.2</ele>
        <time>2020-07-27T07:19:29Z</time>
      </trkpt>
      <trkpt lat="42.9509300" lon="-0.0679610">
        <ele>476.0</ele>
        <time>2020-07-27T07:19:30Z</time>
      </trkpt>
      <trkpt lat="42.9508510" lon="-0.0677240">
        <ele>476.0</ele>
        <time>2020-07-27T07:19:34Z</time>
      </trkpt>
      <trkpt lat="42.9507730" lon="-0.0676380">
        <ele>476.0</ele>
        <time>2020-07-27T07:19:37Z</time>
      </trkpt>
      <trkpt lat="42.9507360" lon="-0.0676100">
        <ele>476.0</ele>
        <time>2020-07-27T07:19:38Z</time>
      </trkpt>
      <trkpt lat="42.9507010" lon="-0.0675710">
        <ele>476.0</ele>
        <time>2020-07-27T07:19:39Z</time>
      </trkpt>
      <trkpt lat="42.9506410" lon="-0.0674460">
        <ele>476.0</ele>
        <time>2020-07-27T07:19:41Z</time>
      </trkpt>
      <trkpt lat="42.9504870" lon="-0.0671420">
        <ele>475.8</ele>
        <time>2020-07-27T07:19:45Z</time>
      </trkpt>
      <trkpt lat="42.9504510" lon="-0.0670460">
        <ele>475.8</ele>
        <time>2020-07-27T07:19:46Z</time>
      </trkpt>
      <trkpt lat="42.9503310" lon="-0.0666190">
        <ele>475.8</ele>
        <time>2020-07-27T07:19:50Z</time>
      </trkpt>
      <trkpt lat="42.9502820" lon="-0.0664020">
        <ele>475.4</ele>
        <time>2020-07-27T07:19:52Z</time>
      </trkpt>
      <trkpt lat="42.9501620" lon="-0.0658440">
        <ele>475.2</ele>
        <time>2020-07-27T07:19:57Z</time>
      </trkpt>
      <trkpt lat="42.9500970" lon="-0.0654920">
        <ele>475.2</ele>
        <time>2020-07-27T07:20:00Z</time>
      </trkpt>
      <trkpt lat="42.9500520" lon="-0.0652620">
        <ele>475.0</ele>
        <time>2020-07-27T07:20:02Z</time>
      </trkpt>
      <trkpt lat="42.9500060" lon="-0.0650370">
        <ele>474.8</ele>
        <time>2020-07-27T07:20:04Z</time>
      </trkpt>
      <trkpt lat="42.9499630" lon="-0.0648090">
        <ele>474.8</ele>
        <time>2020-07-27T07:20:06Z</time>
      </trkpt>
      <trkpt lat="42.9498850" lon="-0.0644730">
        <ele>475.6</ele>
        <time>2020-07-27T07:20:09Z</time>
      </trkpt>
      <trkpt lat="42.9498280" lon="-0.0642450">
        <ele>476.0</ele>
        <time>2020-07-27T07:20:11Z</time>
      </trkpt>
      <trkpt lat="42.9497570" lon="-0.0640300">
        <ele>476.0</ele>
        <time>2020-07-27T07:20:13Z</time>
      </trkpt>
      <trkpt lat="42.9497190" lon="-0.0639250">
        <ele>476.0</ele>
        <time>2020-07-27T07:20:14Z</time>
      </trkpt>
      <trkpt lat="42.9494990" lon="-0.0633260">
        <ele>477.4</ele>
        <time>2020-07-27T07:20:20Z</time>
      </trkpt>
      <trkpt lat="42.9494180" lon="-0.0631420">
        <ele>478.0</ele>
        <time>2020-07-27T07:20:22Z</time>
      </trkpt>
      <trkpt lat="42.9493270" lon="-0.0629670">
        <ele>478.6</ele>
        <time>2020-07-27T07:20:24Z</time>
      </trkpt>
      <trkpt lat="42.9490710" lon="-0.0625540">
        <ele>478.8</ele>
        <time>2020-07-27T07:20:29Z</time>
      </trkpt>
      <trkpt lat="42.9489730" lon="-0.0623860">
        <ele>478.8</ele>
        <time>2020-07-27T07:20:31Z</time>
      </trkpt>
      <trkpt lat="42.9487950" lon="-0.0620470">
        <ele>478.0</ele>
        <time>2020-07-27T07:20:35Z</time>
      </trkpt>
      <trkpt lat="42.9487530" lon="-0.0619630">
        <ele>478.0</ele>
        <time>2020-07-27T07:20:36Z</time>
      </trkpt>
      <trkpt lat="42.9485500" lon="-0.0615130">
        <ele>479.6</ele>
        <time>2020-07-27T07:20:41Z</time>
      </trkpt>
      <trkpt lat="42.9484620" lon="-0.0613380">
        <ele>479.8</ele>
        <time>2020-07-27T07:20:43Z</time>
      </trkpt>
      <trkpt lat="42.9483380" lon="-0.0610640">
        <ele>479.8</ele>
        <time>2020-07-27T07:20:46Z</time>
      </trkpt>
      <trkpt lat="42.9481150" lon="-0.0606480">
        <ele>480.2</ele>
        <time>2020-07-27T07:20:51Z</time>
      </trkpt>
      <trkpt lat="42.9480230" lon="-0.0604840">
        <ele>480.8</ele>
        <time>2020-07-27T07:20:53Z</time>
      </trkpt>
      <trkpt lat="42.9479290" lon="-0.0603200">
        <ele>482.0</ele>
        <time>2020-07-27T07:20:55Z</time>
      </trkpt>
      <trkpt lat="42.9478740" lon="-0.0602490">
        <ele>482.2</ele>
        <time>2020-07-27T07:20:56Z</time>
      </trkpt>
      <trkpt lat="42.9477240" lon="-0.0600280">
        <ele>482.4</ele>
        <time>2020-07-27T07:20:59Z</time>
      </trkpt>
      <trkpt lat="42.9474660" lon="-0.0595460">
        <ele>482.2</ele>
        <time>2020-07-27T07:21:05Z</time>
      </trkpt>
      <trkpt lat="42.9474320" lon="-0.0594530">
        <ele>482.0</ele>
        <time>2020-07-27T07:21:06Z</time>
      </trkpt>
      <trkpt lat="42.9473260" lon="-0.0591820">
        <ele>482.0</ele>
        <time>2020-07-27T07:21:09Z</time>
      </trkpt>
      <trkpt lat="42.9472920" lon="-0.0590920">
        <ele>482.4</ele>
        <time>2020-07-27T07:21:10Z</time>
      </trkpt>
      <trkpt lat="42.9471700" lon="-0.0587490">
        <ele>483.0</ele>
        <time>2020-07-27T07:21:14Z</time>
      </trkpt>
      <trkpt lat="42.9470900" lon="-0.0584950">
        <ele>483.8</ele>
        <time>2020-07-27T07:21:17Z</time>
      </trkpt>
      <trkpt lat="42.9470650" lon="-0.0584100">
        <ele>484.0</ele>
        <time>2020-07-27T07:21:18Z</time>
      </trkpt>
      <trkpt lat="42.9469800" lon="-0.0579630">
        <ele>484.4</ele>
        <time>2020-07-27T07:21:23Z</time>
      </trkpt>
      <trkpt lat="42.9469690" lon="-0.0578720">
        <ele>484.4</ele>
        <time>2020-07-27T07:21:24Z</time>
      </trkpt>
      <trkpt lat="42.9469250" lon="-0.0575120">
        <ele>485.0</ele>
        <time>2020-07-27T07:21:28Z</time>
      </trkpt>
      <trkpt lat="42.9468420" lon="-0.0571690">
        <ele>486.2</ele>
        <time>2020-07-27T07:21:32Z</time>
      </trkpt>
      <trkpt lat="42.9466810" lon="-0.0567940">
        <ele>486.6</ele>
        <time>2020-07-27T07:21:37Z</time>
      </trkpt>
      <trkpt lat="42.9464870" lon="-0.0565490">
        <ele>487.4</ele>
        <time>2020-07-27T07:21:41Z</time>
      </trkpt>
      <trkpt lat="42.9463840" lon="-0.0564360">
        <ele>487.6</ele>
        <time>2020-07-27T07:21:43Z</time>
      </trkpt>
      <trkpt lat="42.9462760" lon="-0.0563240">
        <ele>488.0</ele>
        <time>2020-07-27T07:21:45Z</time>
      </trkpt>
      <trkpt lat="42.9461650" lon="-0.0562120">
        <ele>488.4</ele>
        <time>2020-07-27T07:21:47Z</time>
      </trkpt>
      <trkpt lat="42.9459390" lon="-0.0559810">
        <ele>488.6</ele>
        <time>2020-07-27T07:21:51Z</time>
      </trkpt>
      <trkpt lat="42.9457720" lon="-0.0558040">
        <ele>488.8</ele>
        <time>2020-07-27T07:21:54Z</time>
      </trkpt>
      <trkpt lat="42.9454960" lon="-0.0555020">
        <ele>489.4</ele>
        <time>2020-07-27T07:21:59Z</time>
      </trkpt>
      <trkpt lat="42.9454390" lon="-0.0554440">
        <ele>489.6</ele>
        <time>2020-07-27T07:22:00Z</time>
      </trkpt>
      <trkpt lat="42.9451000" lon="-0.0550680">
        <ele>490.2</ele>
        <time>2020-07-27T07:22:06Z</time>
      </trkpt>
      <trkpt lat="42.9450440" lon="-0.0550010">
        <ele>490.4</ele>
        <time>2020-07-27T07:22:07Z</time>
      </trkpt>
      <trkpt lat="42.9448210" lon="-0.0547350">
        <ele>490.6</ele>
        <time>2020-07-27T07:22:11Z</time>
      </trkpt>
      <trkpt lat="42.9445970" lon="-0.0544700">
        <ele>491.0</ele>
        <time>2020-07-27T07:22:15Z</time>
      </trkpt>
      <trkpt lat="42.9443620" lon="-0.0542110">
        <ele>491.8</ele>
        <time>2020-07-27T07:22:19Z</time>
      </trkpt>
      <trkpt lat="42.9441750" lon="-0.0540310">
        <ele>492.2</ele>
        <time>2020-07-27T07:22:22Z</time>
      </trkpt>
      <trkpt lat="42.9440550" lon="-0.0539070">
        <ele>492.8</ele>
        <time>2020-07-27T07:22:24Z</time>
      </trkpt>
      <trkpt lat="42.9439370" lon="-0.0537850">
        <ele>493.0</ele>
        <time>2020-07-27T07:22:26Z</time>
      </trkpt>
      <trkpt lat="42.9436780" lon="-0.0535720">
        <ele>492.8</ele>
        <time>2020-07-27T07:22:30Z</time>
      </trkpt>
      <trkpt lat="42.9433370" lon="-0.0533470">
        <ele>493.2</ele>
        <time>2020-07-27T07:22:35Z</time>
      </trkpt>
      <trkpt lat="42.9431940" lon="-0.0532630">
        <ele>493.2</ele>
        <time>2020-07-27T07:22:37Z</time>
      </trkpt>
      <trkpt lat="42.9427670" lon="-0.0529980">
        <ele>492.8</ele>
        <time>2020-07-27T07:22:43Z</time>
      </trkpt>
      <trkpt lat="42.9426330" lon="-0.0529050">
        <ele>493.4</ele>
        <time>2020-07-27T07:22:45Z</time>
      </trkpt>
      <trkpt lat="42.9425700" lon="-0.0528480">
        <ele>493.6</ele>
        <time>2020-07-27T07:22:46Z</time>
      </trkpt>
      <trkpt lat="42.9425080" lon="-0.0527900">
        <ele>493.8</ele>
        <time>2020-07-27T07:22:47Z</time>
      </trkpt>
      <trkpt lat="42.9423320" lon="-0.0526020">
        <ele>494.6</ele>
        <time>2020-07-27T07:22:50Z</time>
      </trkpt>
      <trkpt lat="42.9422190" lon="-0.0524750">
        <ele>494.8</ele>
        <time>2020-07-27T07:22:52Z</time>
      </trkpt>
      <trkpt lat="42.9420320" lon="-0.0522960">
        <ele>495.0</ele>
        <time>2020-07-27T07:22:55Z</time>
      </trkpt>
      <trkpt lat="42.9419590" lon="-0.0522550">
        <ele>495.0</ele>
        <time>2020-07-27T07:22:56Z</time>
      </trkpt>
      <trkpt lat="42.9418780" lon="-0.0522290">
        <ele>495.0</ele>
        <time>2020-07-27T07:22:57Z</time>
      </trkpt>
      <trkpt lat="42.9416990" lon="-0.0522340">
        <ele>494.6</ele>
        <time>2020-07-27T07:22:59Z</time>
      </trkpt>
      <trkpt lat="42.9415230" lon="-0.0522790">
        <ele>493.6</ele>
        <time>2020-07-27T07:23:01Z</time>
      </trkpt>
      <trkpt lat="42.9414370" lon="-0.0523110">
        <ele>493.4</ele>
        <time>2020-07-27T07:23:02Z</time>
      </trkpt>
      <trkpt lat="42.9411240" lon="-0.0524970">
        <ele>493.4</ele>
        <time>2020-07-27T07:23:06Z</time>
      </trkpt>
      <trkpt lat="42.9411240" lon="-0.0524970">
        <ele>494.4</ele>
        <time>2020-07-27T07:23:12Z</time>
      </trkpt>
      <trkpt lat="42.9410240" lon="-0.0524130">
        <ele>494.6</ele>
        <time>2020-07-27T07:23:14Z</time>
      </trkpt>
      <trkpt lat="42.9409250" lon="-0.0523300">
        <ele>495.0</ele>
        <time>2020-07-27T07:23:18Z</time>
      </trkpt>
      <trkpt lat="42.9408250" lon="-0.0522460">
        <ele>495.6</ele>
        <time>2020-07-27T07:23:22Z</time>
      </trkpt>
      <trkpt lat="42.9407250" lon="-0.0521630">
        <ele>496.8</ele>
        <time>2020-07-27T07:23:26Z</time>
      </trkpt>
      <trkpt lat="42.9406260" lon="-0.0520790">
        <ele>498.0</ele>
        <time>2020-07-27T07:23:30Z</time>
      </trkpt>
      <trkpt lat="42.9405260" lon="-0.0519960">
        <ele>498.8</ele>
        <time>2020-07-27T07:23:33Z</time>
      </trkpt>
      <trkpt lat="42.9404260" lon="-0.0519120">
        <ele>499.0</ele>
        <time>2020-07-27T07:23:34Z</time>
      </trkpt>
      <trkpt lat="42.9403270" lon="-0.0518290">
        <ele>499.8</ele>
        <time>2020-07-27T07:23:40Z</time>
      </trkpt>
      <trkpt lat="42.9402270" lon="-0.0517450">
        <ele>500.4</ele>
        <time>2020-07-27T07:23:42Z</time>
      </trkpt>
      <trkpt lat="42.9401270" lon="-0.0516620">
        <ele>501.6</ele>
        <time>2020-07-27T07:23:45Z</time>
      </trkpt>
      <trkpt lat="42.9400280" lon="-0.0515780">
        <ele>502.6</ele>
        <time>2020-07-27T07:23:49Z</time>
      </trkpt>
      <trkpt lat="42.9399280" lon="-0.0514950">
        <ele>503.2</ele>
        <time>2020-07-27T07:23:53Z</time>
      </trkpt>
      <trkpt lat="42.9398280" lon="-0.0514110">
        <ele>503.8</ele>
        <time>2020-07-27T07:23:56Z</time>
      </trkpt>
      <trkpt lat="42.9397290" lon="-0.0513280">
        <ele>504.6</ele>
        <time>2020-07-27T07:24:00Z</time>
      </trkpt>
      <trkpt lat="42.9396290" lon="-0.0512440">
        <ele>504.8</ele>
        <time>2020-07-27T07:24:02Z</time>
      </trkpt>
      <trkpt lat="42.9388810" lon="-0.0506180">
        <ele>505.0</ele>
        <time>2020-07-27T07:24:03Z</time>
      </trkpt>
      <trkpt lat="42.9387630" lon="-0.0504240">
        <ele>505.2</ele>
        <time>2020-07-27T07:24:06Z</time>
      </trkpt>
      <trkpt lat="42.9386070" lon="-0.0502810">
        <ele>505.6</ele>
        <time>2020-07-27T07:24:09Z</time>
      </trkpt>
      <trkpt lat="42.9383380" lon="-0.0500740">
        <ele>506.0</ele>
        <time>2020-07-27T07:24:14Z</time>
      </trkpt>
      <trkpt lat="42.9381690" lon="-0.0499750">
        <ele>506.4</ele>
        <time>2020-07-27T07:24:17Z</time>
      </trkpt>
      <trkpt lat="42.9379390" lon="-0.0498530">
        <ele>507.2</ele>
        <time>2020-07-27T07:24:21Z</time>
      </trkpt>
      <trkpt lat="42.9377000" lon="-0.0497410">
        <ele>507.8</ele>
        <time>2020-07-27T07:24:25Z</time>
      </trkpt>
      <trkpt lat="42.9375790" lon="-0.0496830">
        <ele>508.2</ele>
        <time>2020-07-27T07:24:27Z</time>
      </trkpt>
      <trkpt lat="42.9372230" lon="-0.0494880">
        <ele>509.0</ele>
        <time>2020-07-27T07:24:33Z</time>
      </trkpt>
      <trkpt lat="42.9371110" lon="-0.0494100">
        <ele>509.4</ele>
        <time>2020-07-27T07:24:35Z</time>
      </trkpt>
      <trkpt lat="42.9369120" lon="-0.0492230">
        <ele>510.2</ele>
        <time>2020-07-27T07:24:39Z</time>
      </trkpt>
      <trkpt lat="42.9368680" lon="-0.0491740">
        <ele>510.8</ele>
        <time>2020-07-27T07:24:40Z</time>
      </trkpt>
      <trkpt lat="42.9367960" lon="-0.0490450">
        <ele>511.2</ele>
        <time>2020-07-27T07:24:42Z</time>
      </trkpt>
      <trkpt lat="42.9367050" lon="-0.0488370">
        <ele>511.4</ele>
        <time>2020-07-27T07:24:45Z</time>
      </trkpt>
      <trkpt lat="42.9366700" lon="-0.0487720">
        <ele>511.6</ele>
        <time>2020-07-27T07:24:46Z</time>
      </trkpt>
      <trkpt lat="42.9365860" lon="-0.0486540">
        <ele>511.8</ele>
        <time>2020-07-27T07:24:48Z</time>
      </trkpt>
      <trkpt lat="42.9364880" lon="-0.0485680">
        <ele>512.4</ele>
        <time>2020-07-27T07:24:50Z</time>
      </trkpt>
      <trkpt lat="42.9363910" lon="-0.0485170">
        <ele>513.0</ele>
        <time>2020-07-27T07:24:52Z</time>
      </trkpt>
      <trkpt lat="42.9363400" lon="-0.0485010">
        <ele>513.4</ele>
        <time>2020-07-27T07:24:53Z</time>
      </trkpt>
      <trkpt lat="42.9362880" lon="-0.0484950">
        <ele>514.0</ele>
        <time>2020-07-27T07:24:54Z</time>
      </trkpt>
      <trkpt lat="42.9362350" lon="-0.0484910">
        <ele>514.2</ele>
        <time>2020-07-27T07:24:55Z</time>
      </trkpt>
      <trkpt lat="42.9359800" lon="-0.0484820">
        <ele>515.4</ele>
        <time>2020-07-27T07:25:00Z</time>
      </trkpt>
      <trkpt lat="42.9358780" lon="-0.0484770">
        <ele>516.0</ele>
        <time>2020-07-27T07:25:02Z</time>
      </trkpt>
      <trkpt lat="42.9358240" lon="-0.0484860">
        <ele>516.4</ele>
        <time>2020-07-27T07:25:03Z</time>
      </trkpt>
      <trkpt lat="42.9356070" lon="-0.0485270">
        <ele>517.2</ele>
        <time>2020-07-27T07:25:07Z</time>
      </trkpt>
      <trkpt lat="42.9355480" lon="-0.0485350">
        <ele>517.4</ele>
        <time>2020-07-27T07:25:08Z</time>
      </trkpt>
      <trkpt lat="42.9354530" lon="-0.0485500">
        <ele>517.8</ele>
        <time>2020-07-27T07:25:10Z</time>
      </trkpt>
      <trkpt lat="42.9353510" lon="-0.0485780">
        <ele>518.2</ele>
        <time>2020-07-27T07:25:12Z</time>
      </trkpt>
      <trkpt lat="42.9353000" lon="-0.0485870">
        <ele>518.6</ele>
        <time>2020-07-27T07:25:13Z</time>
      </trkpt>
      <trkpt lat="42.9350550" lon="-0.0486460">
        <ele>519.8</ele>
        <time>2020-07-27T07:25:18Z</time>
      </trkpt>
      <trkpt lat="42.9350080" lon="-0.0486670">
        <ele>519.8</ele>
        <time>2020-07-27T07:25:19Z</time>
      </trkpt>
      <trkpt lat="42.9347840" lon="-0.0487230">
        <ele>521.0</ele>
        <time>2020-07-27T07:25:24Z</time>
      </trkpt>
      <trkpt lat="42.9347350" lon="-0.0487130">
        <ele>521.2</ele>
        <time>2020-07-27T07:25:25Z</time>
      </trkpt>
      <trkpt lat="42.9346900" lon="-0.0486940">
        <ele>521.4</ele>
        <time>2020-07-27T07:25:26Z</time>
      </trkpt>
      <trkpt lat="42.9346000" lon="-0.0486450">
        <ele>522.2</ele>
        <time>2020-07-27T07:25:28Z</time>
      </trkpt>
      <trkpt lat="42.9345580" lon="-0.0486050">
        <ele>522.6</ele>
        <time>2020-07-27T07:25:29Z</time>
      </trkpt>
      <trkpt lat="42.9345220" lon="-0.0485570">
        <ele>522.6</ele>
        <time>2020-07-27T07:25:30Z</time>
      </trkpt>
      <trkpt lat="42.9344250" lon="-0.0483930">
        <ele>523.2</ele>
        <time>2020-07-27T07:25:33Z</time>
      </trkpt>
      <trkpt lat="42.9344040" lon="-0.0483270">
        <ele>523.4</ele>
        <time>2020-07-27T07:25:34Z</time>
      </trkpt>
      <trkpt lat="42.9343630" lon="-0.0481910">
        <ele>523.6</ele>
        <time>2020-07-27T07:25:36Z</time>
      </trkpt>
      <trkpt lat="42.9343040" lon="-0.0479840">
        <ele>524.4</ele>
        <time>2020-07-27T07:25:39Z</time>
      </trkpt>
      <trkpt lat="42.9342170" lon="-0.0477950">
        <ele>525.0</ele>
        <time>2020-07-27T07:25:42Z</time>
      </trkpt>
      <trkpt lat="42.9341270" lon="-0.0476310">
        <ele>525.4</ele>
        <time>2020-07-27T07:25:45Z</time>
      </trkpt>
      <trkpt lat="42.9340840" lon="-0.0475910">
        <ele>525.8</ele>
        <time>2020-07-27T07:25:46Z</time>
      </trkpt>
      <trkpt lat="42.9339900" lon="-0.0475180">
        <ele>526.2</ele>
        <time>2020-07-27T07:25:48Z</time>
      </trkpt>
      <trkpt lat="42.9339010" lon="-0.0474520">
        <ele>526.6</ele>
        <time>2020-07-27T07:25:50Z</time>
      </trkpt>
      <trkpt lat="42.9337190" lon="-0.0473160">
        <ele>527.6</ele>
        <time>2020-07-27T07:25:54Z</time>
      </trkpt>
      <trkpt lat="42.9336690" lon="-0.0472800">
        <ele>528.0</ele>
        <time>2020-07-27T07:25:55Z</time>
      </trkpt>
      <trkpt lat="42.9336690" lon="-0.0472800">
        <ele>529.0</ele>
        <time>2020-07-27T07:25:59Z</time>
      </trkpt>
      <trkpt lat="42.9333090" lon="-0.0470050">
        <ele>529.8</ele>
        <time>2020-07-27T07:26:03Z</time>
      </trkpt>
      <trkpt lat="42.9332830" lon="-0.0469840">
        <ele>530.0</ele>
        <time>2020-07-27T07:26:04Z</time>
      </trkpt>
      <trkpt lat="42.9332570" lon="-0.0469630">
        <ele>531.2</ele>
        <time>2020-07-27T07:26:09Z</time>
      </trkpt>
      <trkpt lat="42.9332310" lon="-0.0469420">
        <ele>531.4</ele>
        <time>2020-07-27T07:26:10Z</time>
      </trkpt>
      <trkpt lat="42.9329970" lon="-0.0467520">
        <ele>532.4</ele>
        <time>2020-07-27T07:26:13Z</time>
      </trkpt>
      <trkpt lat="42.9326310" lon="-0.0465850">
        <ele>533.0</ele>
        <time>2020-07-27T07:26:17Z</time>
      </trkpt>
      <trkpt lat="42.9324570" lon="-0.0464720">
        <ele>533.4</ele>
        <time>2020-07-27T07:26:21Z</time>
      </trkpt>
      <trkpt lat="42.9322830" lon="-0.0463600">
        <ele>534.2</ele>
        <time>2020-07-27T07:26:24Z</time>
      </trkpt>
      <trkpt lat="42.9322830" lon="-0.0463600">
        <ele>534.4</ele>
        <time>2020-07-27T07:26:25Z</time>
      </trkpt>
      <trkpt lat="42.9318870" lon="-0.0461870">
        <ele>535.0</ele>
        <time>2020-07-27T07:26:31Z</time>
      </trkpt>
      <trkpt lat="42.9316770" lon="-0.0461680">
        <ele>535.0</ele>
        <time>2020-07-27T07:26:35Z</time>
      </trkpt>
      <trkpt lat="42.9314660" lon="-0.0461490">
        <ele>535.4</ele>
        <time>2020-07-27T07:26:38Z</time>
      </trkpt>
      <trkpt lat="42.9314660" lon="-0.0461490">
        <ele>535.6</ele>
        <time>2020-07-27T07:26:39Z</time>
      </trkpt>
      <trkpt lat="42.9312330" lon="-0.0461940">
        <ele>536.6</ele>
        <time>2020-07-27T07:26:42Z</time>
      </trkpt>
      <trkpt lat="42.9311790" lon="-0.0462040">
        <ele>536.8</ele>
        <time>2020-07-27T07:26:43Z</time>
      </trkpt>
      <trkpt lat="42.9310670" lon="-0.0462110">
        <ele>537.4</ele>
        <time>2020-07-27T07:26:45Z</time>
      </trkpt>
      <trkpt lat="42.9309650" lon="-0.0461910">
        <ele>538.0</ele>
        <time>2020-07-27T07:26:47Z</time>
      </trkpt>
      <trkpt lat="42.9307140" lon="-0.0460240">
        <ele>538.2</ele>
        <time>2020-07-27T07:26:52Z</time>
      </trkpt>
      <trkpt lat="42.9305380" lon="-0.0458090">
        <ele>539.0</ele>
        <time>2020-07-27T07:26:56Z</time>
      </trkpt>
      <trkpt lat="42.9304530" lon="-0.0456970">
        <ele>540.0</ele>
        <time>2020-07-27T07:26:58Z</time>
      </trkpt>
      <trkpt lat="42.9303740" lon="-0.0455910">
        <ele>540.6</ele>
        <time>2020-07-27T07:27:00Z</time>
      </trkpt>
      <trkpt lat="42.9302640" lon="-0.0454430">
        <ele>541.0</ele>
        <time>2020-07-27T07:27:03Z</time>
      </trkpt>
      <trkpt lat="42.9301760" lon="-0.0453110">
        <ele>542.0</ele>
        <time>2020-07-27T07:27:06Z</time>
      </trkpt>
      <trkpt lat="42.9301490" lon="-0.0452710">
        <ele>542.4</ele>
        <time>2020-07-27T07:27:07Z</time>
      </trkpt>
      <trkpt lat="42.9300670" lon="-0.0451320">
        <ele>543.2</ele>
        <time>2020-07-27T07:27:10Z</time>
      </trkpt>
      <trkpt lat="42.9300450" lon="-0.0450820">
        <ele>543.6</ele>
        <time>2020-07-27T07:27:11Z</time>
      </trkpt>
      <trkpt lat="42.9300200" lon="-0.0450370">
        <ele>543.8</ele>
        <time>2020-07-27T07:27:12Z</time>
      </trkpt>
      <trkpt lat="42.9299580" lon="-0.0448860">
        <ele>544.6</ele>
        <time>2020-07-27T07:27:15Z</time>
      </trkpt>
      <trkpt lat="42.9298710" lon="-0.0446870">
        <ele>546.0</ele>
        <time>2020-07-27T07:27:19Z</time>
      </trkpt>
      <trkpt lat="42.9298470" lon="-0.0446400">
        <ele>546.6</ele>
        <time>2020-07-27T07:27:20Z</time>
      </trkpt>
      <trkpt lat="42.9298010" lon="-0.0445400">
        <ele>547.2</ele>
        <time>2020-07-27T07:27:22Z</time>
      </trkpt>
      <trkpt lat="42.9298010" lon="-0.0445400">
        <ele>548.2</ele>
        <time>2020-07-27T07:27:28Z</time>
      </trkpt>
      <trkpt lat="42.9297890" lon="-0.0444970">
        <ele>548.2</ele>
        <time>2020-07-27T07:27:29Z</time>
      </trkpt>
      <trkpt lat="42.9297770" lon="-0.0444540">
        <ele>549.4</ele>
        <time>2020-07-27T07:27:33Z</time>
      </trkpt>
      <trkpt lat="42.9297650" lon="-0.0444110">
        <ele>549.6</ele>
        <time>2020-07-27T07:27:34Z</time>
      </trkpt>
      <trkpt lat="42.9296190" lon="-0.0438940">
        <ele>550.6</ele>
        <time>2020-07-27T07:27:38Z</time>
      </trkpt>
      <trkpt lat="42.9294660" lon="-0.0435920">
        <ele>551.2</ele>
        <time>2020-07-27T07:27:41Z</time>
      </trkpt>
      <trkpt lat="42.9294660" lon="-0.0435920">
        <ele>551.6</ele>
        <time>2020-07-27T07:27:42Z</time>
      </trkpt>
      <trkpt lat="42.9294660" lon="-0.0435920">
        <ele>552.8</ele>
        <time>2020-07-27T07:27:47Z</time>
      </trkpt>
      <trkpt lat="42.9294660" lon="-0.0435920">
        <ele>553.6</ele>
        <time>2020-07-27T07:27:49Z</time>
      </trkpt>
      <trkpt lat="42.9294660" lon="-0.0435920">
        <ele>553.8</ele>
        <time>2020-07-27T07:27:50Z</time>
      </trkpt>
      <trkpt lat="42.9290740" lon="-0.0431330">
        <ele>555.2</ele>
        <time>2020-07-27T07:27:55Z</time>
      </trkpt>
      <trkpt lat="42.9289530" lon="-0.0430120">
        <ele>556.4</ele>
        <time>2020-07-27T07:28:00Z</time>
      </trkpt>
      <trkpt lat="42.9288610" lon="-0.0428950">
        <ele>557.6</ele>
        <time>2020-07-27T07:28:04Z</time>
      </trkpt>
      <trkpt lat="42.9288380" lon="-0.0428610">
        <ele>557.8</ele>
        <time>2020-07-27T07:28:05Z</time>
      </trkpt>
      <trkpt lat="42.9287320" lon="-0.0427170">
        <ele>558.8</ele>
        <time>2020-07-27T07:28:10Z</time>
      </trkpt>
      <trkpt lat="42.9286620" lon="-0.0426240">
        <ele>559.6</ele>
        <time>2020-07-27T07:28:13Z</time>
      </trkpt>
      <trkpt lat="42.9286020" lon="-0.0425880">
        <ele>560.0</ele>
        <time>2020-07-27T07:28:15Z</time>
      </trkpt>
      <trkpt lat="42.9283360" lon="-0.0423540">
        <ele>561.2</ele>
        <time>2020-07-27T07:28:21Z</time>
      </trkpt>
      <trkpt lat="42.9282770" lon="-0.0423250">
        <ele>561.6</ele>
        <time>2020-07-27T07:28:22Z</time>
      </trkpt>
      <trkpt lat="42.9281550" lon="-0.0422650">
        <ele>562.6</ele>
        <time>2020-07-27T07:28:25Z</time>
      </trkpt>
      <trkpt lat="42.9280030" lon="-0.0421850">
        <ele>563.6</ele>
        <time>2020-07-27T07:28:29Z</time>
      </trkpt>
      <trkpt lat="42.9279660" lon="-0.0421640">
        <ele>563.8</ele>
        <time>2020-07-27T07:28:30Z</time>
      </trkpt>
      <trkpt lat="42.9278090" lon="-0.0420990">
        <ele>564.8</ele>
        <time>2020-07-27T07:28:34Z</time>
      </trkpt>
      <trkpt lat="42.9276820" lon="-0.0420230">
        <ele>565.8</ele>
        <time>2020-07-27T07:28:38Z</time>
      </trkpt>
      <trkpt lat="42.9276820" lon="-0.0420230">
        <ele>566.8</ele>
        <time>2020-07-27T07:28:44Z</time>
      </trkpt>
      <trkpt lat="42.9276820" lon="-0.0420230">
        <ele>567.0</ele>
        <time>2020-07-27T07:28:45Z</time>
      </trkpt>
      <trkpt lat="42.9272690" lon="-0.0419060">
        <ele>568.0</ele>
        <time>2020-07-27T07:28:49Z</time>
      </trkpt>
      <trkpt lat="42.9272310" lon="-0.0418920">
        <ele>568.2</ele>
        <time>2020-07-27T07:28:50Z</time>
      </trkpt>
      <trkpt lat="42.9271920" lon="-0.0418780">
        <ele>568.4</ele>
        <time>2020-07-27T07:28:51Z</time>
      </trkpt>
      <trkpt lat="42.9271130" lon="-0.0418500">
        <ele>569.2</ele>
        <time>2020-07-27T07:28:53Z</time>
      </trkpt>
      <trkpt lat="42.9270120" lon="-0.0417940">
        <ele>570.2</ele>
        <time>2020-07-27T07:28:56Z</time>
      </trkpt>
      <trkpt lat="42.9269740" lon="-0.0417780">
        <ele>570.6</ele>
        <time>2020-07-27T07:28:57Z</time>
      </trkpt>
      <trkpt lat="42.9267360" lon="-0.0417210">
        <ele>571.8</ele>
        <time>2020-07-27T07:29:03Z</time>
      </trkpt>
      <trkpt lat="42.9265520" lon="-0.0416870">
        <ele>573.0</ele>
        <time>2020-07-27T07:29:08Z</time>
      </trkpt>
      <trkpt lat="42.9265140" lon="-0.0416830">
        <ele>573.2</ele>
        <time>2020-07-27T07:29:09Z</time>
      </trkpt>
      <trkpt lat="42.9264770" lon="-0.0416800">
        <ele>573.4</ele>
        <time>2020-07-27T07:29:10Z</time>
      </trkpt>
      <trkpt lat="42.9263700" lon="-0.0416600">
        <ele>574.2</ele>
        <time>2020-07-27T07:29:13Z</time>
      </trkpt>
      <trkpt lat="42.9262510" lon="-0.0416500">
        <ele>575.2</ele>
        <time>2020-07-27T07:29:16Z</time>
      </trkpt>
      <trkpt lat="42.9262100" lon="-0.0416530">
        <ele>575.4</ele>
        <time>2020-07-27T07:29:17Z</time>
      </trkpt>
      <trkpt lat="42.9261020" lon="-0.0416820">
        <ele>576.2</ele>
        <time>2020-07-27T07:29:20Z</time>
      </trkpt>
      <trkpt lat="42.9260300" lon="-0.0417220">
        <ele>576.6</ele>
        <time>2020-07-27T07:29:22Z</time>
      </trkpt>
      <trkpt lat="42.9259000" lon="-0.0418560">
        <ele>577.4</ele>
        <time>2020-07-27T07:29:26Z</time>
      </trkpt>
      <trkpt lat="42.9258520" lon="-0.0419330">
        <ele>578.2</ele>
        <time>2020-07-27T07:29:28Z</time>
      </trkpt>
      <trkpt lat="42.9258000" lon="-0.0420140">
        <ele>578.6</ele>
        <time>2020-07-27T07:29:30Z</time>
      </trkpt>
      <trkpt lat="42.9256590" lon="-0.0421710">
        <ele>579.6</ele>
        <time>2020-07-27T07:29:35Z</time>
      </trkpt>
      <trkpt lat="42.9256280" lon="-0.0421930">
        <ele>579.6</ele>
        <time>2020-07-27T07:29:36Z</time>
      </trkpt>
      <trkpt lat="42.9254470" lon="-0.0422340">
        <ele>580.8</ele>
        <time>2020-07-27T07:29:41Z</time>
      </trkpt>
      <trkpt lat="42.9252330" lon="-0.0421650">
        <ele>581.8</ele>
        <time>2020-07-27T07:29:47Z</time>
      </trkpt>
      <trkpt lat="42.9250300" lon="-0.0420130">
        <ele>582.8</ele>
        <time>2020-07-27T07:29:52Z</time>
      </trkpt>
      <trkpt lat="42.9249880" lon="-0.0419790">
        <ele>583.0</ele>
        <time>2020-07-27T07:29:53Z</time>
      </trkpt>
      <trkpt lat="42.9247460" lon="-0.0417560">
        <ele>583.8</ele>
        <time>2020-07-27T07:29:59Z</time>
      </trkpt>
      <trkpt lat="42.9246240" lon="-0.0416380">
        <ele>584.2</ele>
        <time>2020-07-27T07:30:02Z</time>
      </trkpt>
      <trkpt lat="42.9244270" lon="-0.0414460">
        <ele>585.2</ele>
        <time>2020-07-27T07:30:07Z</time>
      </trkpt>
      <trkpt lat="42.9243840" lon="-0.0414100">
        <ele>585.4</ele>
        <time>2020-07-27T07:30:08Z</time>
      </trkpt>
      <trkpt lat="42.9242330" lon="-0.0412440">
        <ele>586.2</ele>
        <time>2020-07-27T07:30:12Z</time>
      </trkpt>
      <trkpt lat="42.9241660" lon="-0.0411420">
        <ele>586.6</ele>
        <time>2020-07-27T07:30:14Z</time>
      </trkpt>
      <trkpt lat="42.9239820" lon="-0.0409020">
        <ele>587.2</ele>
        <time>2020-07-27T07:30:19Z</time>
      </trkpt>
      <trkpt lat="42.9239380" lon="-0.0408680">
        <ele>587.6</ele>
        <time>2020-07-27T07:30:20Z</time>
      </trkpt>
      <trkpt lat="42.9238870" lon="-0.0408470">
        <ele>587.8</ele>
        <time>2020-07-27T07:30:21Z</time>
      </trkpt>
      <trkpt lat="42.9237830" lon="-0.0408470">
        <ele>588.2</ele>
        <time>2020-07-27T07:30:23Z</time>
      </trkpt>
      <trkpt lat="42.9236840" lon="-0.0408690">
        <ele>588.4</ele>
        <time>2020-07-27T07:30:25Z</time>
      </trkpt>
      <trkpt lat="42.9236350" lon="-0.0408890">
        <ele>588.6</ele>
        <time>2020-07-27T07:30:26Z</time>
      </trkpt>
      <trkpt lat="42.9234990" lon="-0.0409300">
        <ele>589.2</ele>
        <time>2020-07-27T07:30:29Z</time>
      </trkpt>
      <trkpt lat="42.9234090" lon="-0.0409320">
        <ele>589.8</ele>
        <time>2020-07-27T07:30:31Z</time>
      </trkpt>
      <trkpt lat="42.9233170" lon="-0.0409160">
        <ele>590.4</ele>
        <time>2020-07-27T07:30:33Z</time>
      </trkpt>
      <trkpt lat="42.9232260" lon="-0.0408830">
        <ele>590.8</ele>
        <time>2020-07-27T07:30:35Z</time>
      </trkpt>
      <trkpt lat="42.9231370" lon="-0.0408540">
        <ele>591.2</ele>
        <time>2020-07-27T07:30:37Z</time>
      </trkpt>
      <trkpt lat="42.9229530" lon="-0.0407980">
        <ele>591.8</ele>
        <time>2020-07-27T07:30:41Z</time>
      </trkpt>
      <trkpt lat="42.9229080" lon="-0.0407790">
        <ele>592.0</ele>
        <time>2020-07-27T07:30:42Z</time>
      </trkpt>
      <trkpt lat="42.9228160" lon="-0.0407390">
        <ele>592.4</ele>
        <time>2020-07-27T07:30:44Z</time>
      </trkpt>
      <trkpt lat="42.9227680" lon="-0.0407320">
        <ele>592.6</ele>
        <time>2020-07-27T07:30:45Z</time>
      </trkpt>
      <trkpt lat="42.9227200" lon="-0.0407380">
        <ele>593.0</ele>
        <time>2020-07-27T07:30:46Z</time>
      </trkpt>
      <trkpt lat="42.9226740" lon="-0.0407520">
        <ele>593.2</ele>
        <time>2020-07-27T07:30:47Z</time>
      </trkpt>
      <trkpt lat="42.9225860" lon="-0.0407960">
        <ele>593.8</ele>
        <time>2020-07-27T07:30:49Z</time>
      </trkpt>
      <trkpt lat="42.9225410" lon="-0.0408130">
        <ele>594.2</ele>
        <time>2020-07-27T07:30:50Z</time>
      </trkpt>
      <trkpt lat="42.9223090" lon="-0.0408540">
        <ele>595.0</ele>
        <time>2020-07-27T07:30:55Z</time>
      </trkpt>
      <trkpt lat="42.9222620" lon="-0.0408550">
        <ele>595.4</ele>
        <time>2020-07-27T07:30:56Z</time>
      </trkpt>
      <trkpt lat="42.9219790" lon="-0.0408460">
        <ele>596.2</ele>
        <time>2020-07-27T07:31:02Z</time>
      </trkpt>
      <trkpt lat="42.9219350" lon="-0.0408680">
        <ele>596.6</ele>
        <time>2020-07-27T07:31:03Z</time>
      </trkpt>
      <trkpt lat="42.9218080" lon="-0.0409330">
        <ele>597.4</ele>
        <time>2020-07-27T07:31:06Z</time>
      </trkpt>
      <trkpt lat="42.9217620" lon="-0.0409530">
        <ele>597.6</ele>
        <time>2020-07-27T07:31:07Z</time>
      </trkpt>
      <trkpt lat="42.9214920" lon="-0.0410600">
        <ele>598.6</ele>
        <time>2020-07-27T07:31:13Z</time>
      </trkpt>
      <trkpt lat="42.9213550" lon="-0.0410050">
        <ele>599.4</ele>
        <time>2020-07-27T07:31:19Z</time>
      </trkpt>
      <trkpt lat="42.9212170" lon="-0.0409490">
        <ele>599.6</ele>
        <time>2020-07-27T07:31:25Z</time>
      </trkpt>
      <trkpt lat="42.9210800" lon="-0.0408940">
        <ele>599.4</ele>
        <time>2020-07-27T07:31:31Z</time>
      </trkpt>
      <trkpt lat="42.9209420" lon="-0.0408380">
        <ele>597.8</ele>
        <time>2020-07-27T07:31:37Z</time>
      </trkpt>
      <trkpt lat="42.9208050" lon="-0.0407830">
        <ele>597.6</ele>
        <time>2020-07-27T07:31:38Z</time>
      </trkpt>
      <trkpt lat="42.9206670" lon="-0.0407270">
        <ele>596.4</ele>
        <time>2020-07-27T07:31:41Z</time>
      </trkpt>
      <trkpt lat="42.9205300" lon="-0.0406720">
        <ele>596.0</ele>
        <time>2020-07-27T07:31:42Z</time>
      </trkpt>
      <trkpt lat="42.9195680" lon="-0.0402850">
        <ele>595.8</ele>
        <time>2020-07-27T07:31:43Z</time>
      </trkpt>
      <trkpt lat="42.9194840" lon="-0.0402720">
        <ele>595.8</ele>
        <time>2020-07-27T07:31:44Z</time>
      </trkpt>
      <trkpt lat="42.9192460" lon="-0.0402090">
        <ele>596.4</ele>
        <time>2020-07-27T07:31:47Z</time>
      </trkpt>
      <trkpt lat="42.9191650" lon="-0.0402020">
        <ele>596.6</ele>
        <time>2020-07-27T07:31:48Z</time>
      </trkpt>
      <trkpt lat="42.9190090" lon="-0.0402280">
        <ele>597.2</ele>
        <time>2020-07-27T07:31:50Z</time>
      </trkpt>
      <trkpt lat="42.9189360" lon="-0.0402540">
        <ele>597.6</ele>
        <time>2020-07-27T07:31:51Z</time>
      </trkpt>
      <trkpt lat="42.9186690" lon="-0.0403840">
        <ele>599.0</ele>
        <time>2020-07-27T07:31:55Z</time>
      </trkpt>
      <trkpt lat="42.9186020" lon="-0.0404020">
        <ele>599.2</ele>
        <time>2020-07-27T07:31:56Z</time>
      </trkpt>
      <trkpt lat="42.9184730" lon="-0.0403920">
        <ele>599.6</ele>
        <time>2020-07-27T07:31:58Z</time>
      </trkpt>
      <trkpt lat="42.9184130" lon="-0.0403650">
        <ele>599.6</ele>
        <time>2020-07-27T07:31:59Z</time>
      </trkpt>
      <trkpt lat="42.9183610" lon="-0.0403240">
        <ele>599.8</ele>
        <time>2020-07-27T07:32:00Z</time>
      </trkpt>
      <trkpt lat="42.9183120" lon="-0.0402720">
        <ele>600.0</ele>
        <time>2020-07-27T07:32:01Z</time>
      </trkpt>
      <trkpt lat="42.9182640" lon="-0.0402130">
        <ele>600.4</ele>
        <time>2020-07-27T07:32:02Z</time>
      </trkpt>
      <trkpt lat="42.9181670" lon="-0.0400980">
        <ele>601.0</ele>
        <time>2020-07-27T07:32:04Z</time>
      </trkpt>
      <trkpt lat="42.9180030" lon="-0.0399590">
        <ele>601.6</ele>
        <time>2020-07-27T07:32:07Z</time>
      </trkpt>
      <trkpt lat="42.9179420" lon="-0.0399270">
        <ele>602.0</ele>
        <time>2020-07-27T07:32:08Z</time>
      </trkpt>
      <trkpt lat="42.9178770" lon="-0.0399100">
        <ele>602.2</ele>
        <time>2020-07-27T07:32:09Z</time>
      </trkpt>
      <trkpt lat="42.9176950" lon="-0.0399060">
        <ele>602.6</ele>
        <time>2020-07-27T07:32:12Z</time>
      </trkpt>
      <trkpt lat="42.9174250" lon="-0.0398830">
        <ele>603.4</ele>
        <time>2020-07-27T07:32:17Z</time>
      </trkpt>
      <trkpt lat="42.9173790" lon="-0.0398640">
        <ele>604.0</ele>
        <time>2020-07-27T07:32:18Z</time>
      </trkpt>
      <trkpt lat="42.9173350" lon="-0.0398390">
        <ele>604.4</ele>
        <time>2020-07-27T07:32:19Z</time>
      </trkpt>
      <trkpt lat="42.9172940" lon="-0.0398000">
        <ele>604.8</ele>
        <time>2020-07-27T07:32:20Z</time>
      </trkpt>
      <trkpt lat="42.9172070" lon="-0.0397040">
        <ele>605.4</ele>
        <time>2020-07-27T07:32:22Z</time>
      </trkpt>
      <trkpt lat="42.9171660" lon="-0.0396490">
        <ele>605.4</ele>
        <time>2020-07-27T07:32:23Z</time>
      </trkpt>
      <trkpt lat="42.9170840" lon="-0.0395360">
        <ele>606.2</ele>
        <time>2020-07-27T07:32:25Z</time>
      </trkpt>
      <trkpt lat="42.9170020" lon="-0.0394160">
        <ele>606.4</ele>
        <time>2020-07-27T07:32:27Z</time>
      </trkpt>
      <trkpt lat="42.9167670" lon="-0.0389920">
        <ele>606.6</ele>
        <time>2020-07-27T07:32:33Z</time>
      </trkpt>
      <trkpt lat="42.9166760" lon="-0.0388400">
        <ele>606.6</ele>
        <time>2020-07-27T07:32:35Z</time>
      </trkpt>
      <trkpt lat="42.9164830" lon="-0.0385220">
        <ele>605.2</ele>
        <time>2020-07-27T07:32:39Z</time>
      </trkpt>
      <trkpt lat="42.9162770" lon="-0.0384520">
        <ele>604.4</ele>
        <time>2020-07-27T07:32:43Z</time>
      </trkpt>
      <trkpt lat="42.9160710" lon="-0.0383830">
        <ele>604.0</ele>
        <time>2020-07-27T07:32:44Z</time>
      </trkpt>
      <trkpt lat="42.9158650" lon="-0.0383130">
        <ele>603.0</ele>
        <time>2020-07-27T07:32:49Z</time>
      </trkpt>
      <trkpt lat="42.9156590" lon="-0.0382430">
        <ele>602.2</ele>
        <time>2020-07-27T07:32:55Z</time>
      </trkpt>
      <trkpt lat="42.9154530" lon="-0.0381730">
        <ele>602.0</ele>
        <time>2020-07-27T07:32:56Z</time>
      </trkpt>
      <trkpt lat="42.9152470" lon="-0.0381040">
        <ele>601.0</ele>
        <time>2020-07-27T07:33:00Z</time>
      </trkpt>
      <trkpt lat="42.9150410" lon="-0.0380340">
        <ele>600.8</ele>
        <time>2020-07-27T07:33:01Z</time>
      </trkpt>
      <trkpt lat="42.9148350" lon="-0.0379640">
        <ele>599.8</ele>
        <time>2020-07-27T07:33:05Z</time>
      </trkpt>
      <trkpt lat="42.9146290" lon="-0.0378950">
        <ele>598.8</ele>
        <time>2020-07-27T07:33:11Z</time>
      </trkpt>
      <trkpt lat="42.9144230" lon="-0.0378250">
        <ele>599.4</ele>
        <time>2020-07-27T07:33:14Z</time>
      </trkpt>
      <trkpt lat="42.9142170" lon="-0.0377550">
        <ele>601.2</ele>
        <time>2020-07-27T07:33:19Z</time>
      </trkpt>
      <trkpt lat="42.9140110" lon="-0.0376850">
        <ele>602.4</ele>
        <time>2020-07-27T07:33:21Z</time>
      </trkpt>
      <trkpt lat="42.9138050" lon="-0.0376160">
        <ele>603.4</ele>
        <time>2020-07-27T07:33:23Z</time>
      </trkpt>
      <trkpt lat="42.9135990" lon="-0.0375460">
        <ele>604.6</ele>
        <time>2020-07-27T07:33:26Z</time>
      </trkpt>
      <trkpt lat="42.9133930" lon="-0.0374760">
        <ele>605.8</ele>
        <time>2020-07-27T07:33:29Z</time>
      </trkpt>
      <trkpt lat="42.9131870" lon="-0.0374070">
        <ele>606.8</ele>
        <time>2020-07-27T07:33:31Z</time>
      </trkpt>
      <trkpt lat="42.9129810" lon="-0.0373370">
        <ele>607.4</ele>
        <time>2020-07-27T07:33:33Z</time>
      </trkpt>
      <trkpt lat="42.9127750" lon="-0.0372670">
        <ele>608.0</ele>
        <time>2020-07-27T07:33:35Z</time>
      </trkpt>
      <trkpt lat="42.9125690" lon="-0.0371970">
        <ele>608.6</ele>
        <time>2020-07-27T07:33:38Z</time>
      </trkpt>
      <trkpt lat="42.9123630" lon="-0.0371280">
        <ele>609.2</ele>
        <time>2020-07-27T07:33:42Z</time>
      </trkpt>
      <trkpt lat="42.9121570" lon="-0.0370580">
        <ele>609.2</ele>
        <time>2020-07-27T07:33:43Z</time>
      </trkpt>
      <trkpt lat="42.9119510" lon="-0.0369880">
        <ele>609.4</ele>
        <time>2020-07-27T07:33:44Z</time>
      </trkpt>
      <trkpt lat="42.9117450" lon="-0.0369190">
        <ele>609.8</ele>
        <time>2020-07-27T07:33:50Z</time>
      </trkpt>
      <trkpt lat="42.9115390" lon="-0.0368490">
        <ele>610.0</ele>
        <time>2020-07-27T07:33:52Z</time>
      </trkpt>
      <trkpt lat="42.9113330" lon="-0.0367790">
        <ele>610.2</ele>
        <time>2020-07-27T07:33:56Z</time>
      </trkpt>
      <trkpt lat="42.9111270" lon="-0.0367090">
        <ele>610.8</ele>
        <time>2020-07-27T07:34:02Z</time>
      </trkpt>
      <trkpt lat="42.9109210" lon="-0.0366400">
        <ele>611.0</ele>
        <time>2020-07-27T07:34:04Z</time>
      </trkpt>
      <trkpt lat="42.9107150" lon="-0.0365700">
        <ele>611.2</ele>
        <time>2020-07-27T07:34:07Z</time>
      </trkpt>
      <trkpt lat="42.9105090" lon="-0.0365000">
        <ele>609.4</ele>
        <time>2020-07-27T07:34:13Z</time>
      </trkpt>
      <trkpt lat="42.9103030" lon="-0.0364310">
        <ele>608.6</ele>
        <time>2020-07-27T07:34:14Z</time>
      </trkpt>
      <trkpt lat="42.9100970" lon="-0.0363610">
        <ele>606.6</ele>
        <time>2020-07-27T07:34:16Z</time>
      </trkpt>
      <trkpt lat="42.9098910" lon="-0.0362910">
        <ele>604.8</ele>
        <time>2020-07-27T07:34:17Z</time>
      </trkpt>
      <trkpt lat="42.9096850" lon="-0.0362210">
        <ele>603.8</ele>
        <time>2020-07-27T07:34:18Z</time>
      </trkpt>
      <trkpt lat="42.9094790" lon="-0.0361520">
        <ele>602.8</ele>
        <time>2020-07-27T07:34:20Z</time>
      </trkpt>
      <trkpt lat="42.9092730" lon="-0.0360820">
        <ele>601.8</ele>
        <time>2020-07-27T07:34:25Z</time>
      </trkpt>
      <trkpt lat="42.9078310" lon="-0.0355940">
        <ele>601.2</ele>
        <time>2020-07-27T07:34:26Z</time>
      </trkpt>
      <trkpt lat="42.9077300" lon="-0.0355170">
        <ele>600.8</ele>
        <time>2020-07-27T07:34:27Z</time>
      </trkpt>
      <trkpt lat="42.9075410" lon="-0.0353610">
        <ele>600.8</ele>
        <time>2020-07-27T07:34:29Z</time>
      </trkpt>
      <trkpt lat="42.9073620" lon="-0.0351990">
        <ele>600.0</ele>
        <time>2020-07-27T07:34:31Z</time>
      </trkpt>
      <trkpt lat="42.9072720" lon="-0.0351240">
        <ele>599.6</ele>
        <time>2020-07-27T07:34:32Z</time>
      </trkpt>
      <trkpt lat="42.9072720" lon="-0.0351240">
        <ele>598.6</ele>
        <time>2020-07-27T07:34:36Z</time>
      </trkpt>
      <trkpt lat="42.9070820" lon="-0.0350330">
        <ele>597.6</ele>
        <time>2020-07-27T07:34:39Z</time>
      </trkpt>
      <trkpt lat="42.9068910" lon="-0.0349410">
        <ele>596.6</ele>
        <time>2020-07-27T07:34:42Z</time>
      </trkpt>
      <trkpt lat="42.9067010" lon="-0.0348500">
        <ele>596.2</ele>
        <time>2020-07-27T07:34:43Z</time>
      </trkpt>
      <trkpt lat="42.9061300" lon="-0.0345760">
        <ele>596.0</ele>
        <time>2020-07-27T07:34:44Z</time>
      </trkpt>
      <trkpt lat="42.9060580" lon="-0.0345970">
        <ele>596.0</ele>
        <time>2020-07-27T07:34:45Z</time>
      </trkpt>
      <trkpt lat="42.9059140" lon="-0.0345980">
        <ele>595.4</ele>
        <time>2020-07-27T07:34:47Z</time>
      </trkpt>
      <trkpt lat="42.9058560" lon="-0.0345540">
        <ele>595.2</ele>
        <time>2020-07-27T07:34:48Z</time>
      </trkpt>
      <trkpt lat="42.9058000" lon="-0.0344820">
        <ele>594.8</ele>
        <time>2020-07-27T07:34:49Z</time>
      </trkpt>
      <trkpt lat="42.9057050" lon="-0.0342810">
        <ele>594.8</ele>
        <time>2020-07-27T07:34:51Z</time>
      </trkpt>
      <trkpt lat="42.9056630" lon="-0.0341700">
        <ele>594.8</ele>
        <time>2020-07-27T07:34:52Z</time>
      </trkpt>
      <trkpt lat="42.9054870" lon="-0.0337550">
        <ele>595.2</ele>
        <time>2020-07-27T07:34:56Z</time>
      </trkpt>
      <trkpt lat="42.9053880" lon="-0.0335640">
        <ele>595.6</ele>
        <time>2020-07-27T07:34:58Z</time>
      </trkpt>
      <trkpt lat="42.9052830" lon="-0.0333890">
        <ele>596.6</ele>
        <time>2020-07-27T07:35:00Z</time>
      </trkpt>
      <trkpt lat="42.9051220" lon="-0.0331450">
        <ele>597.8</ele>
        <time>2020-07-27T07:35:03Z</time>
      </trkpt>
      <trkpt lat="42.9050700" lon="-0.0330670">
        <ele>598.0</ele>
        <time>2020-07-27T07:35:04Z</time>
      </trkpt>
      <trkpt lat="42.9049220" lon="-0.0328230">
        <ele>598.8</ele>
        <time>2020-07-27T07:35:07Z</time>
      </trkpt>
      <trkpt lat="42.9047990" lon="-0.0325870">
        <ele>599.2</ele>
        <time>2020-07-27T07:35:10Z</time>
      </trkpt>
      <trkpt lat="42.9047180" lon="-0.0324380">
        <ele>599.8</ele>
        <time>2020-07-27T07:35:12Z</time>
      </trkpt>
      <trkpt lat="42.9046400" lon="-0.0322780">
        <ele>600.4</ele>
        <time>2020-07-27T07:35:14Z</time>
      </trkpt>
      <trkpt lat="42.9044820" lon="-0.0319450">
        <ele>600.8</ele>
        <time>2020-07-27T07:35:18Z</time>
      </trkpt>
      <trkpt lat="42.9044400" lon="-0.0318620">
        <ele>601.0</ele>
        <time>2020-07-27T07:35:19Z</time>
      </trkpt>
      <trkpt lat="42.9043020" lon="-0.0316290">
        <ele>601.6</ele>
        <time>2020-07-27T07:35:22Z</time>
      </trkpt>
      <trkpt lat="42.9041890" lon="-0.0315030">
        <ele>602.0</ele>
        <time>2020-07-27T07:35:24Z</time>
      </trkpt>
      <trkpt lat="42.9040080" lon="-0.0313460">
        <ele>602.2</ele>
        <time>2020-07-27T07:35:27Z</time>
      </trkpt>
      <trkpt lat="42.9038650" lon="-0.0312890">
        <ele>602.4</ele>
        <time>2020-07-27T07:35:29Z</time>
      </trkpt>
      <trkpt lat="42.9037150" lon="-0.0312930">
        <ele>602.6</ele>
        <time>2020-07-27T07:35:31Z</time>
      </trkpt>
      <trkpt lat="42.9035670" lon="-0.0313470">
        <ele>602.8</ele>
        <time>2020-07-27T07:35:33Z</time>
      </trkpt>
      <trkpt lat="42.9032990" lon="-0.0314440">
        <ele>603.0</ele>
        <time>2020-07-27T07:35:37Z</time>
      </trkpt>
      <trkpt lat="42.9032300" lon="-0.0314370">
        <ele>603.2</ele>
        <time>2020-07-27T07:35:38Z</time>
      </trkpt>
      <trkpt lat="42.9031630" lon="-0.0314190">
        <ele>603.4</ele>
        <time>2020-07-27T07:35:39Z</time>
      </trkpt>
      <trkpt lat="42.9029610" lon="-0.0313300">
        <ele>603.4</ele>
        <time>2020-07-27T07:35:42Z</time>
      </trkpt>
      <trkpt lat="42.9027520" lon="-0.0312200">
        <ele>604.0</ele>
        <time>2020-07-27T07:35:45Z</time>
      </trkpt>
      <trkpt lat="42.9026150" lon="-0.0311360">
        <ele>604.6</ele>
        <time>2020-07-27T07:35:47Z</time>
      </trkpt>
      <trkpt lat="42.9024770" lon="-0.0310480">
        <ele>604.8</ele>
        <time>2020-07-27T07:35:49Z</time>
      </trkpt>
      <trkpt lat="42.9024080" lon="-0.0309980">
        <ele>604.6</ele>
        <time>2020-07-27T07:35:50Z</time>
      </trkpt>
      <trkpt lat="42.9019950" lon="-0.0306990">
        <ele>604.2</ele>
        <time>2020-07-27T07:35:56Z</time>
      </trkpt>
      <trkpt lat="42.9017840" lon="-0.0305610">
        <ele>604.8</ele>
        <time>2020-07-27T07:35:59Z</time>
      </trkpt>
      <trkpt lat="42.9017150" lon="-0.0305090">
        <ele>605.2</ele>
        <time>2020-07-27T07:36:00Z</time>
      </trkpt>
      <trkpt lat="42.9015130" lon="-0.0303630">
        <ele>606.4</ele>
        <time>2020-07-27T07:36:03Z</time>
      </trkpt>
      <trkpt lat="42.9012700" lon="-0.0301760">
        <ele>607.2</ele>
        <time>2020-07-27T07:36:07Z</time>
      </trkpt>
      <trkpt lat="42.9012130" lon="-0.0301320">
        <ele>607.4</ele>
        <time>2020-07-27T07:36:08Z</time>
      </trkpt>
      <trkpt lat="42.9009770" lon="-0.0299540">
        <ele>608.6</ele>
        <time>2020-07-27T07:36:12Z</time>
      </trkpt>
      <trkpt lat="42.9008150" lon="-0.0298350">
        <ele>609.8</ele>
        <time>2020-07-27T07:36:15Z</time>
      </trkpt>
      <trkpt lat="42.9007630" lon="-0.0297950">
        <ele>610.0</ele>
        <time>2020-07-27T07:36:16Z</time>
      </trkpt>
      <trkpt lat="42.9006160" lon="-0.0296770">
        <ele>610.8</ele>
        <time>2020-07-27T07:36:19Z</time>
      </trkpt>
      <trkpt lat="42.9004070" lon="-0.0295350">
        <ele>611.6</ele>
        <time>2020-07-27T07:36:23Z</time>
      </trkpt>
      <trkpt lat="42.9002440" lon="-0.0294180">
        <ele>612.0</ele>
        <time>2020-07-27T07:36:26Z</time>
      </trkpt>
      <trkpt lat="42.8999210" lon="-0.0291760">
        <ele>613.0</ele>
        <time>2020-07-27T07:36:32Z</time>
      </trkpt>
      <trkpt lat="42.8996340" lon="-0.0289800">
        <ele>614.2</ele>
        <time>2020-07-27T07:36:37Z</time>
      </trkpt>
      <trkpt lat="42.8994100" lon="-0.0288150">
        <ele>614.6</ele>
        <time>2020-07-27T07:36:41Z</time>
      </trkpt>
      <trkpt lat="42.8991670" lon="-0.0285950">
        <ele>614.6</ele>
        <time>2020-07-27T07:36:45Z</time>
      </trkpt>
      <trkpt lat="42.8990970" lon="-0.0285320">
        <ele>614.6</ele>
        <time>2020-07-27T07:36:46Z</time>
      </trkpt>
      <trkpt lat="42.8986240" lon="-0.0281930">
        <ele>613.8</ele>
        <time>2020-07-27T07:36:52Z</time>
      </trkpt>
      <trkpt lat="42.8983650" lon="-0.0280570">
        <ele>613.0</ele>
        <time>2020-07-27T07:36:55Z</time>
      </trkpt>
      <trkpt lat="42.8979100" lon="-0.0278240">
        <ele>612.2</ele>
        <time>2020-07-27T07:37:00Z</time>
      </trkpt>
      <trkpt lat="42.8973970" lon="-0.0274990">
        <ele>612.8</ele>
        <time>2020-07-27T07:37:06Z</time>
      </trkpt>
      <trkpt lat="42.8969320" lon="-0.0272060">
        <ele>614.4</ele>
        <time>2020-07-27T07:37:12Z</time>
      </trkpt>
      <trkpt lat="42.8965490" lon="-0.0269900">
        <ele>614.8</ele>
        <time>2020-07-27T07:37:17Z</time>
      </trkpt>
      <trkpt lat="42.8963280" lon="-0.0268590">
        <ele>614.8</ele>
        <time>2020-07-27T07:37:20Z</time>
      </trkpt>
      <trkpt lat="42.8962540" lon="-0.0268150">
        <ele>615.0</ele>
        <time>2020-07-27T07:37:21Z</time>
      </trkpt>
      <trkpt lat="42.8959610" lon="-0.0266470">
        <ele>615.4</ele>
        <time>2020-07-27T07:37:25Z</time>
      </trkpt>
      <trkpt lat="42.8955980" lon="-0.0264290">
        <ele>616.0</ele>
        <time>2020-07-27T07:37:30Z</time>
      </trkpt>
      <trkpt lat="42.8952440" lon="-0.0262110">
        <ele>616.4</ele>
        <time>2020-07-27T07:37:35Z</time>
      </trkpt>
      <trkpt lat="42.8950360" lon="-0.0260820">
        <ele>617.6</ele>
        <time>2020-07-27T07:37:38Z</time>
      </trkpt>
      <trkpt lat="42.8949670" lon="-0.0260380">
        <ele>618.0</ele>
        <time>2020-07-27T07:37:39Z</time>
      </trkpt>
      <trkpt lat="42.8947560" lon="-0.0259150">
        <ele>618.4</ele>
        <time>2020-07-27T07:37:42Z</time>
      </trkpt>
      <trkpt lat="42.8946140" lon="-0.0258290">
        <ele>618.6</ele>
        <time>2020-07-27T07:37:44Z</time>
      </trkpt>
      <trkpt lat="42.8943960" lon="-0.0256950">
        <ele>618.8</ele>
        <time>2020-07-27T07:37:47Z</time>
      </trkpt>
      <trkpt lat="42.8941760" lon="-0.0255590">
        <ele>618.4</ele>
        <time>2020-07-27T07:37:50Z</time>
      </trkpt>
      <trkpt lat="42.8937430" lon="-0.0252890">
        <ele>618.8</ele>
        <time>2020-07-27T07:37:56Z</time>
      </trkpt>
      <trkpt lat="42.8935320" lon="-0.0251620">
        <ele>619.4</ele>
        <time>2020-07-27T07:37:59Z</time>
      </trkpt>
      <trkpt lat="42.8934620" lon="-0.0251200">
        <ele>619.8</ele>
        <time>2020-07-27T07:38:00Z</time>
      </trkpt>
      <trkpt lat="42.8932530" lon="-0.0249920">
        <ele>620.8</ele>
        <time>2020-07-27T07:38:03Z</time>
      </trkpt>
      <trkpt lat="42.8929800" lon="-0.0248120">
        <ele>621.2</ele>
        <time>2020-07-27T07:38:07Z</time>
      </trkpt>
      <trkpt lat="42.8927710" lon="-0.0246830">
        <ele>621.4</ele>
        <time>2020-07-27T07:38:10Z</time>
      </trkpt>
      <trkpt lat="42.8926320" lon="-0.0245990">
        <ele>622.0</ele>
        <time>2020-07-27T07:38:12Z</time>
      </trkpt>
      <trkpt lat="42.8922150" lon="-0.0243410">
        <ele>622.6</ele>
        <time>2020-07-27T07:38:18Z</time>
      </trkpt>
      <trkpt lat="42.8920780" lon="-0.0242560">
        <ele>623.0</ele>
        <time>2020-07-27T07:38:20Z</time>
      </trkpt>
      <trkpt lat="42.8916610" lon="-0.0240010">
        <ele>623.8</ele>
        <time>2020-07-27T07:38:26Z</time>
      </trkpt>
      <trkpt lat="42.8915920" lon="-0.0239580">
        <ele>623.8</ele>
        <time>2020-07-27T07:38:27Z</time>
      </trkpt>
      <trkpt lat="42.8915240" lon="-0.0239140">
        <ele>624.0</ele>
        <time>2020-07-27T07:38:28Z</time>
      </trkpt>
      <trkpt lat="42.8911900" lon="-0.0236760">
        <ele>625.4</ele>
        <time>2020-07-27T07:38:33Z</time>
      </trkpt>
      <trkpt lat="42.8910680" lon="-0.0235550">
        <ele>625.8</ele>
        <time>2020-07-27T07:38:35Z</time>
      </trkpt>
      <trkpt lat="42.8909550" lon="-0.0234230">
        <ele>625.8</ele>
        <time>2020-07-27T07:38:37Z</time>
      </trkpt>
      <trkpt lat="42.8909040" lon="-0.0233470">
        <ele>625.8</ele>
        <time>2020-07-27T07:38:38Z</time>
      </trkpt>
      <trkpt lat="42.8908120" lon="-0.0231860">
        <ele>625.8</ele>
        <time>2020-07-27T07:38:40Z</time>
      </trkpt>
      <trkpt lat="42.8905560" lon="-0.0226550">
        <ele>626.4</ele>
        <time>2020-07-27T07:38:46Z</time>
      </trkpt>
      <trkpt lat="42.8905130" lon="-0.0225630">
        <ele>626.4</ele>
        <time>2020-07-27T07:38:47Z</time>
      </trkpt>
      <trkpt lat="42.8904720" lon="-0.0224720">
        <ele>626.4</ele>
        <time>2020-07-27T07:38:48Z</time>
      </trkpt>
      <trkpt lat="42.8903900" lon="-0.0222950">
        <ele>626.8</ele>
        <time>2020-07-27T07:38:50Z</time>
      </trkpt>
      <trkpt lat="42.8901340" lon="-0.0217460">
        <ele>627.4</ele>
        <time>2020-07-27T07:38:56Z</time>
      </trkpt>
      <trkpt lat="42.8898390" lon="-0.0212240">
        <ele>628.4</ele>
        <time>2020-07-27T07:39:02Z</time>
      </trkpt>
      <trkpt lat="42.8897810" lon="-0.0211450">
        <ele>628.4</ele>
        <time>2020-07-27T07:39:03Z</time>
      </trkpt>
      <trkpt lat="42.8893920" lon="-0.0207270">
        <ele>627.8</ele>
        <time>2020-07-27T07:39:09Z</time>
      </trkpt>
      <trkpt lat="42.8891190" lon="-0.0204620">
        <ele>628.2</ele>
        <time>2020-07-27T07:39:13Z</time>
      </trkpt>
      <trkpt lat="42.8890560" lon="-0.0203860">
        <ele>628.2</ele>
        <time>2020-07-27T07:39:14Z</time>
      </trkpt>
      <trkpt lat="42.8889430" lon="-0.0202240">
        <ele>628.4</ele>
        <time>2020-07-27T07:39:16Z</time>
      </trkpt>
      <trkpt lat="42.8888350" lon="-0.0200540">
        <ele>628.8</ele>
        <time>2020-07-27T07:39:18Z</time>
      </trkpt>
      <trkpt lat="42.8886420" lon="-0.0197030">
        <ele>629.6</ele>
        <time>2020-07-27T07:39:22Z</time>
      </trkpt>
      <trkpt lat="42.8885990" lon="-0.0196120">
        <ele>629.8</ele>
        <time>2020-07-27T07:39:23Z</time>
      </trkpt>
      <trkpt lat="42.8883150" lon="-0.0190760">
        <ele>630.4</ele>
        <time>2020-07-27T07:39:29Z</time>
      </trkpt>
      <trkpt lat="42.8882580" lon="-0.0189940">
        <ele>630.4</ele>
        <time>2020-07-27T07:39:30Z</time>
      </trkpt>
      <trkpt lat="42.8879390" lon="-0.0186480">
        <ele>630.6</ele>
        <time>2020-07-27T07:39:35Z</time>
      </trkpt>
      <trkpt lat="42.8876840" lon="-0.0184150">
        <ele>631.2</ele>
        <time>2020-07-27T07:39:39Z</time>
      </trkpt>
      <trkpt lat="42.8875620" lon="-0.0183030">
        <ele>631.4</ele>
        <time>2020-07-27T07:39:41Z</time>
      </trkpt>
      <trkpt lat="42.8875020" lon="-0.0182520">
        <ele>631.6</ele>
        <time>2020-07-27T07:39:42Z</time>
      </trkpt>
      <trkpt lat="42.8874420" lon="-0.0182010">
        <ele>632.0</ele>
        <time>2020-07-27T07:39:43Z</time>
      </trkpt>
      <trkpt lat="42.8873220" lon="-0.0180950">
        <ele>632.8</ele>
        <time>2020-07-27T07:39:45Z</time>
      </trkpt>
      <trkpt lat="42.8869570" lon="-0.0177760">
        <ele>633.0</ele>
        <time>2020-07-27T07:39:51Z</time>
      </trkpt>
      <trkpt lat="42.8868970" lon="-0.0177250">
        <ele>633.2</ele>
        <time>2020-07-27T07:39:52Z</time>
      </trkpt>
      <trkpt lat="42.8868400" lon="-0.0176710">
        <ele>633.2</ele>
        <time>2020-07-27T07:39:53Z</time>
      </trkpt>
      <trkpt lat="42.8866660" lon="-0.0175130">
        <ele>633.8</ele>
        <time>2020-07-27T07:39:56Z</time>
      </trkpt>
      <trkpt lat="42.8864340" lon="-0.0173060">
        <ele>635.0</ele>
        <time>2020-07-27T07:40:00Z</time>
      </trkpt>
      <trkpt lat="42.8862700" lon="-0.0171620">
        <ele>635.6</ele>
        <time>2020-07-27T07:40:03Z</time>
      </trkpt>
      <trkpt lat="42.8862170" lon="-0.0171210">
        <ele>636.0</ele>
        <time>2020-07-27T07:40:04Z</time>
      </trkpt>
      <trkpt lat="42.8860680" lon="-0.0170000">
        <ele>636.8</ele>
        <time>2020-07-27T07:40:07Z</time>
      </trkpt>
      <trkpt lat="42.8860210" lon="-0.0169620">
        <ele>637.0</ele>
        <time>2020-07-27T07:40:08Z</time>
      </trkpt>
      <trkpt lat="42.8859750" lon="-0.0169240">
        <ele>637.2</ele>
        <time>2020-07-27T07:40:09Z</time>
      </trkpt>
      <trkpt lat="42.8858390" lon="-0.0168060">
        <ele>638.4</ele>
        <time>2020-07-27T07:40:12Z</time>
      </trkpt>
      <trkpt lat="42.8856460" lon="-0.0166260">
        <ele>639.2</ele>
        <time>2020-07-27T07:40:16Z</time>
      </trkpt>
      <trkpt lat="42.8854450" lon="-0.0164050">
        <ele>639.0</ele>
        <time>2020-07-27T07:40:20Z</time>
      </trkpt>
      <trkpt lat="42.8853670" lon="-0.0162450">
        <ele>639.0</ele>
        <time>2020-07-27T07:40:22Z</time>
      </trkpt>
      <trkpt lat="42.8853320" lon="-0.0160720">
        <ele>638.8</ele>
        <time>2020-07-27T07:40:24Z</time>
      </trkpt>
      <trkpt lat="42.8853150" lon="-0.0158920">
        <ele>639.0</ele>
        <time>2020-07-27T07:40:26Z</time>
      </trkpt>
      <trkpt lat="42.8853040" lon="-0.0157970">
        <ele>638.8</ele>
        <time>2020-07-27T07:40:27Z</time>
      </trkpt>
      <trkpt lat="42.8852850" lon="-0.0157010">
        <ele>638.8</ele>
        <time>2020-07-27T07:40:28Z</time>
      </trkpt>
      <trkpt lat="42.8852150" lon="-0.0155190">
        <ele>638.8</ele>
        <time>2020-07-27T07:40:30Z</time>
      </trkpt>
      <trkpt lat="42.8851010" lon="-0.0153710">
        <ele>638.6</ele>
        <time>2020-07-27T07:40:32Z</time>
      </trkpt>
      <trkpt lat="42.8850340" lon="-0.0153130">
        <ele>638.6</ele>
        <time>2020-07-27T07:40:33Z</time>
      </trkpt>
      <trkpt lat="42.8846210" lon="-0.0150140">
        <ele>638.6</ele>
        <time>2020-07-27T07:40:39Z</time>
      </trkpt>
      <trkpt lat="42.8844220" lon="-0.0148660">
        <ele>638.8</ele>
        <time>2020-07-27T07:40:42Z</time>
      </trkpt>
      <trkpt lat="42.8840350" lon="-0.0145950">
        <ele>639.4</ele>
        <time>2020-07-27T07:40:48Z</time>
      </trkpt>
      <trkpt lat="42.8837870" lon="-0.0144160">
        <ele>640.2</ele>
        <time>2020-07-27T07:40:52Z</time>
      </trkpt>
      <trkpt lat="42.8836000" lon="-0.0142750">
        <ele>640.6</ele>
        <time>2020-07-27T07:40:55Z</time>
      </trkpt>
      <trkpt lat="42.8835370" lon="-0.0142280">
        <ele>641.0</ele>
        <time>2020-07-27T07:40:56Z</time>
      </trkpt>
      <trkpt lat="42.8834090" lon="-0.0141360">
        <ele>641.8</ele>
        <time>2020-07-27T07:40:58Z</time>
      </trkpt>
      <trkpt lat="42.8832440" lon="-0.0140160">
        <ele>643.4</ele>
        <time>2020-07-27T07:41:01Z</time>
      </trkpt>
      <trkpt lat="42.8831940" lon="-0.0139750">
        <ele>643.8</ele>
        <time>2020-07-27T07:41:02Z</time>
      </trkpt>
      <trkpt lat="42.8831020" lon="-0.0138970">
        <ele>644.8</ele>
        <time>2020-07-27T07:41:04Z</time>
      </trkpt>
      <trkpt lat="42.8828810" lon="-0.0137330">
        <ele>645.8</ele>
        <time>2020-07-27T07:41:09Z</time>
      </trkpt>
      <trkpt lat="42.8826980" lon="-0.0135950">
        <ele>646.4</ele>
        <time>2020-07-27T07:41:13Z</time>
      </trkpt>
      <trkpt lat="42.8825470" lon="-0.0134820">
        <ele>646.8</ele>
        <time>2020-07-27T07:41:16Z</time>
      </trkpt>
      <trkpt lat="42.8824980" lon="-0.0134440">
        <ele>647.0</ele>
        <time>2020-07-27T07:41:17Z</time>
      </trkpt>
      <trkpt lat="42.8823580" lon="-0.0133290">
        <ele>648.0</ele>
        <time>2020-07-27T07:41:20Z</time>
      </trkpt>
      <trkpt lat="42.8821260" lon="-0.0131540">
        <ele>649.2</ele>
        <time>2020-07-27T07:41:25Z</time>
      </trkpt>
      <trkpt lat="42.8819440" lon="-0.0130140">
        <ele>650.2</ele>
        <time>2020-07-27T07:41:29Z</time>
      </trkpt>
      <trkpt lat="42.8818190" lon="-0.0129180">
        <ele>650.8</ele>
        <time>2020-07-27T07:41:32Z</time>
      </trkpt>
      <trkpt lat="42.8816850" lon="-0.0128190">
        <ele>651.4</ele>
        <time>2020-07-27T07:41:35Z</time>
      </trkpt>
      <trkpt lat="42.8815040" lon="-0.0126860">
        <ele>652.2</ele>
        <time>2020-07-27T07:41:39Z</time>
      </trkpt>
      <trkpt lat="42.8813220" lon="-0.0125520">
        <ele>652.6</ele>
        <time>2020-07-27T07:41:43Z</time>
      </trkpt>
      <trkpt lat="42.8811880" lon="-0.0124520">
        <ele>653.8</ele>
        <time>2020-07-27T07:41:46Z</time>
      </trkpt>
      <trkpt lat="42.8811430" lon="-0.0124180">
        <ele>654.0</ele>
        <time>2020-07-27T07:41:47Z</time>
      </trkpt>
      <trkpt lat="42.8810540" lon="-0.0123510">
        <ele>654.6</ele>
        <time>2020-07-27T07:41:49Z</time>
      </trkpt>
      <trkpt lat="42.8809730" lon="-0.0122920">
        <ele>655.0</ele>
        <time>2020-07-27T07:41:51Z</time>
      </trkpt>
      <trkpt lat="42.8808440" lon="-0.0121930">
        <ele>655.2</ele>
        <time>2020-07-27T07:41:54Z</time>
      </trkpt>
      <trkpt lat="42.8807240" lon="-0.0121030">
        <ele>656.2</ele>
        <time>2020-07-27T07:41:57Z</time>
      </trkpt>
      <trkpt lat="42.8806830" lon="-0.0120720">
        <ele>656.4</ele>
        <time>2020-07-27T07:41:58Z</time>
      </trkpt>
      <trkpt lat="42.8805880" lon="-0.0119970">
        <ele>656.8</ele>
        <time>2020-07-27T07:42:00Z</time>
      </trkpt>
      <trkpt lat="42.8804950" lon="-0.0119220">
        <ele>657.2</ele>
        <time>2020-07-27T07:42:02Z</time>
      </trkpt>
      <trkpt lat="42.8804090" lon="-0.0118530">
        <ele>657.6</ele>
        <time>2020-07-27T07:42:04Z</time>
      </trkpt>
      <trkpt lat="42.8803220" lon="-0.0117850">
        <ele>658.2</ele>
        <time>2020-07-27T07:42:06Z</time>
      </trkpt>
      <trkpt lat="42.8801430" lon="-0.0116340">
        <ele>659.4</ele>
        <time>2020-07-27T07:42:11Z</time>
      </trkpt>
      <trkpt lat="42.8801080" lon="-0.0115950">
        <ele>659.6</ele>
        <time>2020-07-27T07:42:12Z</time>
      </trkpt>
      <trkpt lat="42.8799700" lon="-0.0114020">
        <ele>660.4</ele>
        <time>2020-07-27T07:42:16Z</time>
      </trkpt>
      <trkpt lat="42.8798970" lon="-0.0112940">
        <ele>660.6</ele>
        <time>2020-07-27T07:42:18Z</time>
      </trkpt>
      <trkpt lat="42.8797200" lon="-0.0110270">
        <ele>661.4</ele>
        <time>2020-07-27T07:42:23Z</time>
      </trkpt>
      <trkpt lat="42.8796840" lon="-0.0109750">
        <ele>661.6</ele>
        <time>2020-07-27T07:42:24Z</time>
      </trkpt>
      <trkpt lat="42.8795790" lon="-0.0108160">
        <ele>661.8</ele>
        <time>2020-07-27T07:42:27Z</time>
      </trkpt>
      <trkpt lat="42.8794020" lon="-0.0105520">
        <ele>662.8</ele>
        <time>2020-07-27T07:42:32Z</time>
      </trkpt>
      <trkpt lat="42.8792150" lon="-0.0102820">
        <ele>663.8</ele>
        <time>2020-07-27T07:42:37Z</time>
      </trkpt>
      <trkpt lat="42.8791370" lon="-0.0101710">
        <ele>663.8</ele>
        <time>2020-07-27T07:42:39Z</time>
      </trkpt>
      <trkpt lat="42.8790990" lon="-0.0101150">
        <ele>664.0</ele>
        <time>2020-07-27T07:42:40Z</time>
      </trkpt>
      <trkpt lat="42.8789160" lon="-0.0098550">
        <ele>665.0</ele>
        <time>2020-07-27T07:42:45Z</time>
      </trkpt>
      <trkpt lat="42.8788800" lon="-0.0098040">
        <ele>665.2</ele>
        <time>2020-07-27T07:42:46Z</time>
      </trkpt>
      <trkpt lat="42.8787330" lon="-0.0095940">
        <ele>666.0</ele>
        <time>2020-07-27T07:42:50Z</time>
      </trkpt>
      <trkpt lat="42.8785940" lon="-0.0093850">
        <ele>666.6</ele>
        <time>2020-07-27T07:42:54Z</time>
      </trkpt>
      <trkpt lat="42.8784510" lon="-0.0091680">
        <ele>667.4</ele>
        <time>2020-07-27T07:42:58Z</time>
      </trkpt>
      <trkpt lat="42.8783390" lon="-0.0090000">
        <ele>668.6</ele>
        <time>2020-07-27T07:43:01Z</time>
      </trkpt>
      <trkpt lat="42.8783040" lon="-0.0089470">
        <ele>668.8</ele>
        <time>2020-07-27T07:43:02Z</time>
      </trkpt>
      <trkpt lat="42.8781320" lon="-0.0086820">
        <ele>669.6</ele>
        <time>2020-07-27T07:43:07Z</time>
      </trkpt>
      <trkpt lat="42.8780270" lon="-0.0085240">
        <ele>670.4</ele>
        <time>2020-07-27T07:43:10Z</time>
      </trkpt>
      <trkpt lat="42.8779570" lon="-0.0084210">
        <ele>670.6</ele>
        <time>2020-07-27T07:43:12Z</time>
      </trkpt>
      <trkpt lat="42.8778150" lon="-0.0082210">
        <ele>671.4</ele>
        <time>2020-07-27T07:43:16Z</time>
      </trkpt>
      <trkpt lat="42.8777510" lon="-0.0081200">
        <ele>671.8</ele>
        <time>2020-07-27T07:43:18Z</time>
      </trkpt>
      <trkpt lat="42.8776820" lon="-0.0080220">
        <ele>672.0</ele>
        <time>2020-07-27T07:43:20Z</time>
      </trkpt>
      <trkpt lat="42.8775790" lon="-0.0078700">
        <ele>673.0</ele>
        <time>2020-07-27T07:43:23Z</time>
      </trkpt>
      <trkpt lat="42.8774720" lon="-0.0077130">
        <ele>673.4</ele>
        <time>2020-07-27T07:43:26Z</time>
      </trkpt>
      <trkpt lat="42.8774340" lon="-0.0076630">
        <ele>673.4</ele>
        <time>2020-07-27T07:43:27Z</time>
      </trkpt>
      <trkpt lat="42.8773600" lon="-0.0075650">
        <ele>674.0</ele>
        <time>2020-07-27T07:43:29Z</time>
      </trkpt>
      <trkpt lat="42.8772150" lon="-0.0073610">
        <ele>675.4</ele>
        <time>2020-07-27T07:43:33Z</time>
      </trkpt>
      <trkpt lat="42.8771420" lon="-0.0072600">
        <ele>675.8</ele>
        <time>2020-07-27T07:43:35Z</time>
      </trkpt>
      <trkpt lat="42.8770320" lon="-0.0071110">
        <ele>676.4</ele>
        <time>2020-07-27T07:43:38Z</time>
      </trkpt>
      <trkpt lat="42.8768210" lon="-0.0068010">
        <ele>677.2</ele>
        <time>2020-07-27T07:43:44Z</time>
      </trkpt>
      <trkpt lat="42.8767860" lon="-0.0067480">
        <ele>677.6</ele>
        <time>2020-07-27T07:43:45Z</time>
      </trkpt>
      <trkpt lat="42.8766920" lon="-0.0065740">
        <ele>678.6</ele>
        <time>2020-07-27T07:43:48Z</time>
      </trkpt>
      <trkpt lat="42.8765160" lon="-0.0063070">
        <ele>679.2</ele>
        <time>2020-07-27T07:43:53Z</time>
      </trkpt>
      <trkpt lat="42.8764820" lon="-0.0062520">
        <ele>679.4</ele>
        <time>2020-07-27T07:43:54Z</time>
      </trkpt>
      <trkpt lat="42.8764120" lon="-0.0061470">
        <ele>679.8</ele>
        <time>2020-07-27T07:43:56Z</time>
      </trkpt>
      <trkpt lat="42.8762990" lon="-0.0059990">
        <ele>680.4</ele>
        <time>2020-07-27T07:43:59Z</time>
      </trkpt>
      <trkpt lat="42.8761930" lon="-0.0058540">
        <ele>681.0</ele>
        <time>2020-07-27T07:44:02Z</time>
      </trkpt>
      <trkpt lat="42.8761230" lon="-0.0057570">
        <ele>681.2</ele>
        <time>2020-07-27T07:44:04Z</time>
      </trkpt>
      <trkpt lat="42.8759820" lon="-0.0055620">
        <ele>682.0</ele>
        <time>2020-07-27T07:44:08Z</time>
      </trkpt>
      <trkpt lat="42.8759120" lon="-0.0054610">
        <ele>682.4</ele>
        <time>2020-07-27T07:44:10Z</time>
      </trkpt>
      <trkpt lat="42.8758090" lon="-0.0053100">
        <ele>683.2</ele>
        <time>2020-07-27T07:44:13Z</time>
      </trkpt>
      <trkpt lat="42.8757060" lon="-0.0051600">
        <ele>684.0</ele>
        <time>2020-07-27T07:44:16Z</time>
      </trkpt>
      <trkpt lat="42.8756390" lon="-0.0050640">
        <ele>684.4</ele>
        <time>2020-07-27T07:44:18Z</time>
      </trkpt>
      <trkpt lat="42.8754710" lon="-0.0048350">
        <ele>685.6</ele>
        <time>2020-07-27T07:44:23Z</time>
      </trkpt>
      <trkpt lat="42.8754060" lon="-0.0047430">
        <ele>686.2</ele>
        <time>2020-07-27T07:44:25Z</time>
      </trkpt>
      <trkpt lat="42.8753500" lon="-0.0046530">
        <ele>687.0</ele>
        <time>2020-07-27T07:44:27Z</time>
      </trkpt>
      <trkpt lat="42.8752350" lon="-0.0044780">
        <ele>688.0</ele>
        <time>2020-07-27T07:44:31Z</time>
      </trkpt>
      <trkpt lat="42.8751440" lon="-0.0043390">
        <ele>688.6</ele>
        <time>2020-07-27T07:44:34Z</time>
      </trkpt>
      <trkpt lat="42.8750540" lon="-0.0041980">
        <ele>689.2</ele>
        <time>2020-07-27T07:44:37Z</time>
      </trkpt>
      <trkpt lat="42.8749680" lon="-0.0040650">
        <ele>689.8</ele>
        <time>2020-07-27T07:44:40Z</time>
      </trkpt>
      <trkpt lat="42.8749110" lon="-0.0039760">
        <ele>690.4</ele>
        <time>2020-07-27T07:44:42Z</time>
      </trkpt>
      <trkpt lat="42.8748240" lon="-0.0038420">
        <ele>691.4</ele>
        <time>2020-07-27T07:44:45Z</time>
      </trkpt>
      <trkpt lat="42.8747420" lon="-0.0037140">
        <ele>692.2</ele>
        <time>2020-07-27T07:44:48Z</time>
      </trkpt>
      <trkpt lat="42.8747140" lon="-0.0036710">
        <ele>692.4</ele>
        <time>2020-07-27T07:44:49Z</time>
      </trkpt>
      <trkpt lat="42.8746100" lon="-0.0035060">
        <ele>693.4</ele>
        <time>2020-07-27T07:44:53Z</time>
      </trkpt>
      <trkpt lat="42.8745310" lon="-0.0033800">
        <ele>694.6</ele>
        <time>2020-07-27T07:44:56Z</time>
      </trkpt>
      <trkpt lat="42.8743790" lon="-0.0031790">
        <ele>695.8</ele>
        <time>2020-07-27T07:45:01Z</time>
      </trkpt>
      <trkpt lat="42.8743000" lon="-0.0031320">
        <ele>696.0</ele>
        <time>2020-07-27T07:45:03Z</time>
      </trkpt>
      <trkpt lat="42.8742120" lon="-0.0031130">
        <ele>696.4</ele>
        <time>2020-07-27T07:45:05Z</time>
      </trkpt>
      <trkpt lat="42.8741180" lon="-0.0031170">
        <ele>696.8</ele>
        <time>2020-07-27T07:45:07Z</time>
      </trkpt>
      <trkpt lat="42.8740730" lon="-0.0031220">
        <ele>697.0</ele>
        <time>2020-07-27T07:45:08Z</time>
      </trkpt>
      <trkpt lat="42.8738210" lon="-0.0031670">
        <ele>697.2</ele>
        <time>2020-07-27T07:45:13Z</time>
      </trkpt>
      <trkpt lat="42.8737180" lon="-0.0032050">
        <ele>697.4</ele>
        <time>2020-07-27T07:45:15Z</time>
      </trkpt>
      <trkpt lat="42.8735830" lon="-0.0032430">
        <ele>697.8</ele>
        <time>2020-07-27T07:45:18Z</time>
      </trkpt>
      <trkpt lat="42.8735400" lon="-0.0032600">
        <ele>697.8</ele>
        <time>2020-07-27T07:45:19Z</time>
      </trkpt>
      <trkpt lat="42.8734280" lon="-0.0032870">
        <ele>697.6</ele>
        <time>2020-07-27T07:45:22Z</time>
      </trkpt>
      <trkpt lat="42.8732360" lon="-0.0033050">
        <ele>697.4</ele>
        <time>2020-07-27T07:45:26Z</time>
      </trkpt>
      <trkpt lat="42.8731920" lon="-0.0033410">
        <ele>697.2</ele>
        <time>2020-07-27T07:45:27Z</time>
      </trkpt>
      <trkpt lat="42.8731520" lon="-0.0033880">
        <ele>697.0</ele>
        <time>2020-07-27T07:45:28Z</time>
      </trkpt>
      <trkpt lat="42.8731130" lon="-0.0034420">
        <ele>696.8</ele>
        <time>2020-07-27T07:45:29Z</time>
      </trkpt>
      <trkpt lat="42.8730360" lon="-0.0035570">
        <ele>696.2</ele>
        <time>2020-07-27T07:45:31Z</time>
      </trkpt>
      <trkpt lat="42.8730000" lon="-0.0036110">
        <ele>695.8</ele>
        <time>2020-07-27T07:45:32Z</time>
      </trkpt>
      <trkpt lat="42.8728260" lon="-0.0039290">
        <ele>695.0</ele>
        <time>2020-07-27T07:45:37Z</time>
      </trkpt>
      <trkpt lat="42.8727910" lon="-0.0039930">
        <ele>694.8</ele>
        <time>2020-07-27T07:45:38Z</time>
      </trkpt>
      <trkpt lat="42.8727170" lon="-0.0041350">
        <ele>694.6</ele>
        <time>2020-07-27T07:45:40Z</time>
      </trkpt>
      <trkpt lat="42.8726570" lon="-0.0042680">
        <ele>694.6</ele>
        <time>2020-07-27T07:45:42Z</time>
      </trkpt>
      <trkpt lat="42.8726240" lon="-0.0043200">
        <ele>694.6</ele>
        <time>2020-07-27T07:45:43Z</time>
      </trkpt>
      <trkpt lat="42.8725740" lon="-0.0044130">
        <ele>694.4</ele>
        <time>2020-07-27T07:45:45Z</time>
      </trkpt>
      <trkpt lat="42.8725390" lon="-0.0044720">
        <ele>694.0</ele>
        <time>2020-07-27T07:45:47Z</time>
      </trkpt>
      <trkpt lat="42.8725170" lon="-0.0045030">
        <ele>693.6</ele>
        <time>2020-07-27T07:45:49Z</time>
      </trkpt>
      <trkpt lat="42.8724890" lon="-0.0045430">
        <ele>693.6</ele>
        <time>2020-07-27T07:45:51Z</time>
      </trkpt>
      <trkpt lat="42.8723760" lon="-0.0047020">
        <ele>693.4</ele>
        <time>2020-07-27T07:45:57Z</time>
      </trkpt>
      <trkpt lat="42.8723650" lon="-0.0047180">
        <ele>693.4</ele>
        <time>2020-07-27T07:45:58Z</time>
      </trkpt>
      <trkpt lat="42.8723200" lon="-0.0047980">
        <ele>693.0</ele>
        <time>2020-07-27T07:46:04Z</time>
      </trkpt>
      <trkpt lat="42.8722530" lon="-0.0048910">
        <ele>692.6</ele>
        <time>2020-07-27T07:46:07Z</time>
      </trkpt>
      <trkpt lat="42.8722210" lon="-0.0049320">
        <ele>692.4</ele>
        <time>2020-07-27T07:46:08Z</time>
      </trkpt>
      <trkpt lat="42.8720820" lon="-0.0051390">
        <ele>691.8</ele>
        <time>2020-07-27T07:46:12Z</time>
      </trkpt>
      <trkpt lat="42.8720420" lon="-0.0051950">
        <ele>691.4</ele>
        <time>2020-07-27T07:46:13Z</time>
      </trkpt>
      <trkpt lat="42.8720020" lon="-0.0052530">
        <ele>691.2</ele>
        <time>2020-07-27T07:46:14Z</time>
      </trkpt>
      <trkpt lat="42.8719630" lon="-0.0053190">
        <ele>691.0</ele>
        <time>2020-07-27T07:46:15Z</time>
      </trkpt>
      <trkpt lat="42.8717930" lon="-0.0055840">
        <ele>690.4</ele>
        <time>2020-07-27T07:46:19Z</time>
      </trkpt>
      <trkpt lat="42.8717470" lon="-0.0056630">
        <ele>690.2</ele>
        <time>2020-07-27T07:46:20Z</time>
      </trkpt>
      <trkpt lat="42.8716480" lon="-0.0058180">
        <ele>689.4</ele>
        <time>2020-07-27T07:46:22Z</time>
      </trkpt>
      <trkpt lat="42.8716000" lon="-0.0058960">
        <ele>689.0</ele>
        <time>2020-07-27T07:46:23Z</time>
      </trkpt>
      <trkpt lat="42.8714720" lon="-0.0061140">
        <ele>688.0</ele>
        <time>2020-07-27T07:46:26Z</time>
      </trkpt>
      <trkpt lat="42.8714290" lon="-0.0061880">
        <ele>687.8</ele>
        <time>2020-07-27T07:46:27Z</time>
      </trkpt>
      <trkpt lat="42.8712470" lon="-0.0064970">
        <ele>686.4</ele>
        <time>2020-07-27T07:46:31Z</time>
      </trkpt>
      <trkpt lat="42.8710940" lon="-0.0067340">
        <ele>685.2</ele>
        <time>2020-07-27T07:46:34Z</time>
      </trkpt>
      <trkpt lat="42.8710430" lon="-0.0068110">
        <ele>685.0</ele>
        <time>2020-07-27T07:46:35Z</time>
      </trkpt>
      <trkpt lat="42.8709450" lon="-0.0069610">
        <ele>684.2</ele>
        <time>2020-07-27T07:46:37Z</time>
      </trkpt>
      <trkpt lat="42.8707920" lon="-0.0071960">
        <ele>682.8</ele>
        <time>2020-07-27T07:46:40Z</time>
      </trkpt>
      <trkpt lat="42.8706530" lon="-0.0074520">
        <ele>681.6</ele>
        <time>2020-07-27T07:46:43Z</time>
      </trkpt>
      <trkpt lat="42.8705140" lon="-0.0076950">
        <ele>680.6</ele>
        <time>2020-07-27T07:46:46Z</time>
      </trkpt>
      <trkpt lat="42.8704660" lon="-0.0077710">
        <ele>680.4</ele>
        <time>2020-07-27T07:46:47Z</time>
      </trkpt>
      <trkpt lat="42.8702670" lon="-0.0080880">
        <ele>679.4</ele>
        <time>2020-07-27T07:46:51Z</time>
      </trkpt>
      <trkpt lat="42.8701000" lon="-0.0083430">
        <ele>678.2</ele>
        <time>2020-07-27T07:46:54Z</time>
      </trkpt>
      <trkpt lat="42.8699880" lon="-0.0085170">
        <ele>677.0</ele>
        <time>2020-07-27T07:46:56Z</time>
      </trkpt>
      <trkpt lat="42.8698780" lon="-0.0087060">
        <ele>676.2</ele>
        <time>2020-07-27T07:46:58Z</time>
      </trkpt>
      <trkpt lat="42.8697630" lon="-0.0088830">
        <ele>675.8</ele>
        <time>2020-07-27T07:47:00Z</time>
      </trkpt>
      <trkpt lat="42.8695900" lon="-0.0091620">
        <ele>674.4</ele>
        <time>2020-07-27T07:47:03Z</time>
      </trkpt>
      <trkpt lat="42.8694760" lon="-0.0093500">
        <ele>673.2</ele>
        <time>2020-07-27T07:47:05Z</time>
      </trkpt>
      <trkpt lat="42.8693630" lon="-0.0095380">
        <ele>672.0</ele>
        <time>2020-07-27T07:47:07Z</time>
      </trkpt>
      <trkpt lat="42.8692310" lon="-0.0096940">
        <ele>671.0</ele>
        <time>2020-07-27T07:47:09Z</time>
      </trkpt>
      <trkpt lat="42.8691560" lon="-0.0097490">
        <ele>670.2</ele>
        <time>2020-07-27T07:47:10Z</time>
      </trkpt>
      <trkpt lat="42.8690740" lon="-0.0097780">
        <ele>669.8</ele>
        <time>2020-07-27T07:47:11Z</time>
      </trkpt>
      <trkpt lat="42.8689050" lon="-0.0098100">
        <ele>669.4</ele>
        <time>2020-07-27T07:47:13Z</time>
      </trkpt>
      <trkpt lat="42.8685700" lon="-0.0098460">
        <ele>669.2</ele>
        <time>2020-07-27T07:47:17Z</time>
      </trkpt>
      <trkpt lat="42.8682610" lon="-0.0098690">
        <ele>669.0</ele>
        <time>2020-07-27T07:47:21Z</time>
      </trkpt>
      <trkpt lat="42.8679080" lon="-0.0099140">
        <ele>669.6</ele>
        <time>2020-07-27T07:47:26Z</time>
      </trkpt>
      <trkpt lat="42.8677940" lon="-0.0099950">
        <ele>670.0</ele>
        <time>2020-07-27T07:47:28Z</time>
      </trkpt>
      <trkpt lat="42.8677210" lon="-0.0101300">
        <ele>670.2</ele>
        <time>2020-07-27T07:47:30Z</time>
      </trkpt>
      <trkpt lat="42.8676900" lon="-0.0102040">
        <ele>670.4</ele>
        <time>2020-07-27T07:47:31Z</time>
      </trkpt>
      <trkpt lat="42.8675240" lon="-0.0106830">
        <ele>670.6</ele>
        <time>2020-07-27T07:47:37Z</time>
      </trkpt>
      <trkpt lat="42.8675060" lon="-0.0107670">
        <ele>670.6</ele>
        <time>2020-07-27T07:47:38Z</time>
      </trkpt>
      <trkpt lat="42.8674840" lon="-0.0109330">
        <ele>670.8</ele>
        <time>2020-07-27T07:47:40Z</time>
      </trkpt>
      <trkpt lat="42.8674820" lon="-0.0110100">
        <ele>671.2</ele>
        <time>2020-07-27T07:47:41Z</time>
      </trkpt>
      <trkpt lat="42.8674810" lon="-0.0110820">
        <ele>671.6</ele>
        <time>2020-07-27T07:47:42Z</time>
      </trkpt>
      <trkpt lat="42.8674830" lon="-0.0111490">
        <ele>672.2</ele>
        <time>2020-07-27T07:47:43Z</time>
      </trkpt>
      <trkpt lat="42.8674850" lon="-0.0112110">
        <ele>673.0</ele>
        <time>2020-07-27T07:47:44Z</time>
      </trkpt>
      <trkpt lat="42.8674890" lon="-0.0112710">
        <ele>673.8</ele>
        <time>2020-07-27T07:47:45Z</time>
      </trkpt>
      <trkpt lat="42.8675270" lon="-0.0114850">
        <ele>675.0</ele>
        <time>2020-07-27T07:47:49Z</time>
      </trkpt>
      <trkpt lat="42.8675910" lon="-0.0116120">
        <ele>676.2</ele>
        <time>2020-07-27T07:47:52Z</time>
      </trkpt>
      <trkpt lat="42.8676260" lon="-0.0116460">
        <ele>676.6</ele>
        <time>2020-07-27T07:47:53Z</time>
      </trkpt>
      <trkpt lat="42.8676600" lon="-0.0116800">
        <ele>676.8</ele>
        <time>2020-07-27T07:47:54Z</time>
      </trkpt>
      <trkpt lat="42.8677150" lon="-0.0117570">
        <ele>677.4</ele>
        <time>2020-07-27T07:47:56Z</time>
      </trkpt>
      <trkpt lat="42.8677930" lon="-0.0118730">
        <ele>678.6</ele>
        <time>2020-07-27T07:47:59Z</time>
      </trkpt>
      <trkpt lat="42.8678740" lon="-0.0119950">
        <ele>679.6</ele>
        <time>2020-07-27T07:48:02Z</time>
      </trkpt>
      <trkpt lat="42.8679050" lon="-0.0120360">
        <ele>679.8</ele>
        <time>2020-07-27T07:48:03Z</time>
      </trkpt>
      <trkpt lat="42.8679950" lon="-0.0121580">
        <ele>680.6</ele>
        <time>2020-07-27T07:48:06Z</time>
      </trkpt>
      <trkpt lat="42.8680210" lon="-0.0122030">
        <ele>681.0</ele>
        <time>2020-07-27T07:48:07Z</time>
      </trkpt>
      <trkpt lat="42.8680820" lon="-0.0123510">
        <ele>681.8</ele>
        <time>2020-07-27T07:48:10Z</time>
      </trkpt>
      <trkpt lat="42.8680840" lon="-0.0124520">
        <ele>682.0</ele>
        <time>2020-07-27T07:48:12Z</time>
      </trkpt>
      <trkpt lat="42.8680620" lon="-0.0125430">
        <ele>682.4</ele>
        <time>2020-07-27T07:48:14Z</time>
      </trkpt>
      <trkpt lat="42.8680230" lon="-0.0126140">
        <ele>682.8</ele>
        <time>2020-07-27T07:48:16Z</time>
      </trkpt>
      <trkpt lat="42.8679590" lon="-0.0126400">
        <ele>683.0</ele>
        <time>2020-07-27T07:48:18Z</time>
      </trkpt>
      <trkpt lat="42.8679180" lon="-0.0126240">
        <ele>683.2</ele>
        <time>2020-07-27T07:48:19Z</time>
      </trkpt>
      <trkpt lat="42.8678810" lon="-0.0125920">
        <ele>683.2</ele>
        <time>2020-07-27T07:48:20Z</time>
      </trkpt>
      <trkpt lat="42.8678410" lon="-0.0125560">
        <ele>683.4</ele>
        <time>2020-07-27T07:48:21Z</time>
      </trkpt>
      <trkpt lat="42.8677740" lon="-0.0124720">
        <ele>683.6</ele>
        <time>2020-07-27T07:48:23Z</time>
      </trkpt>
      <trkpt lat="42.8677170" lon="-0.0123790">
        <ele>684.2</ele>
        <time>2020-07-27T07:48:25Z</time>
      </trkpt>
      <trkpt lat="42.8676880" lon="-0.0123350">
        <ele>684.6</ele>
        <time>2020-07-27T07:48:26Z</time>
      </trkpt>
      <trkpt lat="42.8676280" lon="-0.0122440">
        <ele>685.4</ele>
        <time>2020-07-27T07:48:28Z</time>
      </trkpt>
      <trkpt lat="42.8675360" lon="-0.0121280">
        <ele>686.4</ele>
        <time>2020-07-27T07:48:31Z</time>
      </trkpt>
      <trkpt lat="42.8674960" lon="-0.0121000">
        <ele>686.8</ele>
        <time>2020-07-27T07:48:32Z</time>
      </trkpt>
      <trkpt lat="42.8674540" lon="-0.0120810">
        <ele>687.0</ele>
        <time>2020-07-27T07:48:33Z</time>
      </trkpt>
      <trkpt lat="42.8673450" lon="-0.0120370">
        <ele>687.8</ele>
        <time>2020-07-27T07:48:36Z</time>
      </trkpt>
      <trkpt lat="42.8672970" lon="-0.0120150">
        <ele>688.4</ele>
        <time>2020-07-27T07:48:38Z</time>
      </trkpt>
      <trkpt lat="42.8671960" lon="-0.0119700">
        <ele>688.8</ele>
        <time>2020-07-27T07:48:41Z</time>
      </trkpt>
      <trkpt lat="42.8671610" lon="-0.0119440">
        <ele>689.0</ele>
        <time>2020-07-27T07:48:42Z</time>
      </trkpt>
      <trkpt lat="42.8671250" lon="-0.0119150">
        <ele>689.0</ele>
        <time>2020-07-27T07:48:43Z</time>
      </trkpt>
      <trkpt lat="42.8670040" lon="-0.0117610">
        <ele>689.8</ele>
        <time>2020-07-27T07:48:47Z</time>
      </trkpt>
      <trkpt lat="42.8669420" lon="-0.0116880">
        <ele>691.0</ele>
        <time>2020-07-27T07:48:49Z</time>
      </trkpt>
      <trkpt lat="42.8668570" lon="-0.0115730">
        <ele>692.0</ele>
        <time>2020-07-27T07:48:52Z</time>
      </trkpt>
      <trkpt lat="42.8667610" lon="-0.0114880">
        <ele>692.4</ele>
        <time>2020-07-27T07:48:55Z</time>
      </trkpt>
      <trkpt lat="42.8667270" lon="-0.0114680">
        <ele>692.6</ele>
        <time>2020-07-27T07:48:56Z</time>
      </trkpt>
      <trkpt lat="42.8666530" lon="-0.0114570">
        <ele>693.2</ele>
        <time>2020-07-27T07:48:58Z</time>
      </trkpt>
      <trkpt lat="42.8666200" lon="-0.0114800">
        <ele>693.6</ele>
        <time>2020-07-27T07:48:59Z</time>
      </trkpt>
      <trkpt lat="42.8665960" lon="-0.0115190">
        <ele>694.0</ele>
        <time>2020-07-27T07:49:00Z</time>
      </trkpt>
      <trkpt lat="42.8665840" lon="-0.0115710">
        <ele>694.4</ele>
        <time>2020-07-27T07:49:01Z</time>
      </trkpt>
      <trkpt lat="42.8665930" lon="-0.0116890">
        <ele>695.4</ele>
        <time>2020-07-27T07:49:03Z</time>
      </trkpt>
      <trkpt lat="42.8666100" lon="-0.0117450">
        <ele>695.6</ele>
        <time>2020-07-27T07:49:04Z</time>
      </trkpt>
      <trkpt lat="42.8666450" lon="-0.0117860">
        <ele>695.8</ele>
        <time>2020-07-27T07:49:05Z</time>
      </trkpt>
      <trkpt lat="42.8667200" lon="-0.0118710">
        <ele>696.2</ele>
        <time>2020-07-27T07:49:07Z</time>
      </trkpt>
      <trkpt lat="42.8669470" lon="-0.0121130">
        <ele>696.6</ele>
        <time>2020-07-27T07:49:13Z</time>
      </trkpt>
      <trkpt lat="42.8669900" lon="-0.0121480">
        <ele>696.8</ele>
        <time>2020-07-27T07:49:14Z</time>
      </trkpt>
      <trkpt lat="42.8670760" lon="-0.0122330">
        <ele>697.4</ele>
        <time>2020-07-27T07:49:16Z</time>
      </trkpt>
      <trkpt lat="42.8671460" lon="-0.0123420">
        <ele>697.8</ele>
        <time>2020-07-27T07:49:18Z</time>
      </trkpt>
      <trkpt lat="42.8671740" lon="-0.0124040">
        <ele>698.2</ele>
        <time>2020-07-27T07:49:19Z</time>
      </trkpt>
      <trkpt lat="42.8672340" lon="-0.0125980">
        <ele>698.6</ele>
        <time>2020-07-27T07:49:22Z</time>
      </trkpt>
      <trkpt lat="42.8672520" lon="-0.0126610">
        <ele>698.8</ele>
        <time>2020-07-27T07:49:23Z</time>
      </trkpt>
      <trkpt lat="42.8672910" lon="-0.0127820">
        <ele>699.4</ele>
        <time>2020-07-27T07:49:25Z</time>
      </trkpt>
      <trkpt lat="42.8673170" lon="-0.0128370">
        <ele>699.6</ele>
        <time>2020-07-27T07:49:26Z</time>
      </trkpt>
      <trkpt lat="42.8673490" lon="-0.0128870">
        <ele>699.8</ele>
        <time>2020-07-27T07:49:27Z</time>
      </trkpt>
      <trkpt lat="42.8673810" lon="-0.0129340">
        <ele>700.0</ele>
        <time>2020-07-27T07:49:28Z</time>
      </trkpt>
      <trkpt lat="42.8674610" lon="-0.0130190">
        <ele>700.2</ele>
        <time>2020-07-27T07:49:30Z</time>
      </trkpt>
      <trkpt lat="42.8675060" lon="-0.0130590">
        <ele>700.4</ele>
        <time>2020-07-27T07:49:31Z</time>
      </trkpt>
      <trkpt lat="42.8675940" lon="-0.0131380">
        <ele>701.0</ele>
        <time>2020-07-27T07:49:33Z</time>
      </trkpt>
      <trkpt lat="42.8677830" lon="-0.0132730">
        <ele>702.2</ele>
        <time>2020-07-27T07:49:37Z</time>
      </trkpt>
      <trkpt lat="42.8678350" lon="-0.0132950">
        <ele>702.4</ele>
        <time>2020-07-27T07:49:38Z</time>
      </trkpt>
      <trkpt lat="42.8681480" lon="-0.0134000">
        <ele>703.0</ele>
        <time>2020-07-27T07:49:44Z</time>
      </trkpt>
      <trkpt lat="42.8682000" lon="-0.0134150">
        <ele>703.4</ele>
        <time>2020-07-27T07:49:45Z</time>
      </trkpt>
      <trkpt lat="42.8682510" lon="-0.0134310">
        <ele>703.2</ele>
        <time>2020-07-27T07:49:46Z</time>
      </trkpt>
      <trkpt lat="42.8684020" lon="-0.0134880">
        <ele>704.2</ele>
        <time>2020-07-27T07:49:49Z</time>
      </trkpt>
      <trkpt lat="42.8684960" lon="-0.0135480">
        <ele>704.4</ele>
        <time>2020-07-27T07:49:51Z</time>
      </trkpt>
      <trkpt lat="42.8685820" lon="-0.0136160">
        <ele>704.6</ele>
        <time>2020-07-27T07:49:53Z</time>
      </trkpt>
      <trkpt lat="42.8686620" lon="-0.0136770">
        <ele>705.2</ele>
        <time>2020-07-27T07:49:55Z</time>
      </trkpt>
      <trkpt lat="42.8687000" lon="-0.0137080">
        <ele>705.6</ele>
        <time>2020-07-27T07:49:56Z</time>
      </trkpt>
      <trkpt lat="42.8688350" lon="-0.0137850">
        <ele>707.0</ele>
        <time>2020-07-27T07:49:59Z</time>
      </trkpt>
      <trkpt lat="42.8689140" lon="-0.0138610">
        <ele>708.0</ele>
        <time>2020-07-27T07:50:01Z</time>
      </trkpt>
      <trkpt lat="42.8689570" lon="-0.0138940">
        <ele>708.4</ele>
        <time>2020-07-27T07:50:02Z</time>
      </trkpt>
      <trkpt lat="42.8690630" lon="-0.0139950">
        <ele>708.8</ele>
        <time>2020-07-27T07:50:05Z</time>
      </trkpt>
      <trkpt lat="42.8691290" lon="-0.0140890">
        <ele>709.4</ele>
        <time>2020-07-27T07:50:07Z</time>
      </trkpt>
      <trkpt lat="42.8692450" lon="-0.0142960">
        <ele>710.4</ele>
        <time>2020-07-27T07:50:11Z</time>
      </trkpt>
      <trkpt lat="42.8693560" lon="-0.0144800">
        <ele>711.6</ele>
        <time>2020-07-27T07:50:15Z</time>
      </trkpt>
      <trkpt lat="42.8694160" lon="-0.0145710">
        <ele>712.4</ele>
        <time>2020-07-27T07:50:17Z</time>
      </trkpt>
      <trkpt lat="42.8694800" lon="-0.0146600">
        <ele>712.8</ele>
        <time>2020-07-27T07:50:19Z</time>
      </trkpt>
      <trkpt lat="42.8696690" lon="-0.0149290">
        <ele>714.0</ele>
        <time>2020-07-27T07:50:25Z</time>
      </trkpt>
      <trkpt lat="42.8697360" lon="-0.0150170">
        <ele>714.6</ele>
        <time>2020-07-27T07:50:27Z</time>
      </trkpt>
      <trkpt lat="42.8697720" lon="-0.0150570">
        <ele>714.8</ele>
        <time>2020-07-27T07:50:28Z</time>
      </trkpt>
      <trkpt lat="42.8698090" lon="-0.0150920">
        <ele>715.0</ele>
        <time>2020-07-27T07:50:29Z</time>
      </trkpt>
      <trkpt lat="42.8699190" lon="-0.0151810">
        <ele>716.0</ele>
        <time>2020-07-27T07:50:32Z</time>
      </trkpt>
      <trkpt lat="42.8699820" lon="-0.0152400">
        <ele>717.0</ele>
        <time>2020-07-27T07:50:34Z</time>
      </trkpt>
      <trkpt lat="42.8701190" lon="-0.0153390">
        <ele>718.2</ele>
        <time>2020-07-27T07:50:38Z</time>
      </trkpt>
      <trkpt lat="42.8701580" lon="-0.0153580">
        <ele>718.6</ele>
        <time>2020-07-27T07:50:39Z</time>
      </trkpt>
      <trkpt lat="42.8702370" lon="-0.0154050">
        <ele>719.4</ele>
        <time>2020-07-27T07:50:41Z</time>
      </trkpt>
      <trkpt lat="42.8704280" lon="-0.0155500">
        <ele>720.4</ele>
        <time>2020-07-27T07:50:46Z</time>
      </trkpt>
      <trkpt lat="42.8705350" lon="-0.0156560">
        <ele>721.4</ele>
        <time>2020-07-27T07:50:49Z</time>
      </trkpt>
      <trkpt lat="42.8706360" lon="-0.0157620">
        <ele>722.6</ele>
        <time>2020-07-27T07:50:52Z</time>
      </trkpt>
      <trkpt lat="42.8706660" lon="-0.0157980">
        <ele>722.8</ele>
        <time>2020-07-27T07:50:53Z</time>
      </trkpt>
      <trkpt lat="42.8708040" lon="-0.0159240">
        <ele>724.0</ele>
        <time>2020-07-27T07:50:57Z</time>
      </trkpt>
      <trkpt lat="42.8709480" lon="-0.0160290">
        <ele>725.0</ele>
        <time>2020-07-27T07:51:01Z</time>
      </trkpt>
      <trkpt lat="42.8710520" lon="-0.0161080">
        <ele>725.0</ele>
        <time>2020-07-27T07:51:04Z</time>
      </trkpt>
      <trkpt lat="42.8711360" lon="-0.0162110">
        <ele>726.6</ele>
        <time>2020-07-27T07:51:07Z</time>
      </trkpt>
      <trkpt lat="42.8712170" lon="-0.0163300">
        <ele>727.6</ele>
        <time>2020-07-27T07:51:10Z</time>
      </trkpt>
      <trkpt lat="42.8712490" lon="-0.0163750">
        <ele>727.8</ele>
        <time>2020-07-27T07:51:11Z</time>
      </trkpt>
      <trkpt lat="42.8714240" lon="-0.0165770">
        <ele>728.8</ele>
        <time>2020-07-27T07:51:16Z</time>
      </trkpt>
      <trkpt lat="42.8715550" lon="-0.0167240">
        <ele>729.6</ele>
        <time>2020-07-27T07:51:20Z</time>
      </trkpt>
      <trkpt lat="42.8715930" lon="-0.0167560">
        <ele>730.0</ele>
        <time>2020-07-27T07:51:21Z</time>
      </trkpt>
      <trkpt lat="42.8716620" lon="-0.0168250">
        <ele>730.6</ele>
        <time>2020-07-27T07:51:23Z</time>
      </trkpt>
      <trkpt lat="42.8717300" lon="-0.0168910">
        <ele>731.2</ele>
        <time>2020-07-27T07:51:25Z</time>
      </trkpt>
      <trkpt lat="42.8718690" lon="-0.0170250">
        <ele>732.4</ele>
        <time>2020-07-27T07:51:29Z</time>
      </trkpt>
      <trkpt lat="42.8720020" lon="-0.0171470">
        <ele>733.6</ele>
        <time>2020-07-27T07:51:33Z</time>
      </trkpt>
      <trkpt lat="42.8721320" lon="-0.0172950">
        <ele>734.6</ele>
        <time>2020-07-27T07:51:37Z</time>
      </trkpt>
      <trkpt lat="42.8721960" lon="-0.0173660">
        <ele>734.8</ele>
        <time>2020-07-27T07:51:39Z</time>
      </trkpt>
      <trkpt lat="42.8723490" lon="-0.0175490">
        <ele>735.6</ele>
        <time>2020-07-27T07:51:44Z</time>
      </trkpt>
      <trkpt lat="42.8724620" lon="-0.0176520">
        <ele>736.4</ele>
        <time>2020-07-27T07:51:47Z</time>
      </trkpt>
      <trkpt lat="42.8724960" lon="-0.0176870">
        <ele>736.8</ele>
        <time>2020-07-27T07:51:48Z</time>
      </trkpt>
      <trkpt lat="42.8726240" lon="-0.0177610">
        <ele>738.2</ele>
        <time>2020-07-27T07:51:51Z</time>
      </trkpt>
      <trkpt lat="42.8727790" lon="-0.0178680">
        <ele>738.8</ele>
        <time>2020-07-27T07:51:55Z</time>
      </trkpt>
      <trkpt lat="42.8728200" lon="-0.0178870">
        <ele>739.0</ele>
        <time>2020-07-27T07:51:56Z</time>
      </trkpt>
      <trkpt lat="42.8728570" lon="-0.0179090">
        <ele>739.4</ele>
        <time>2020-07-27T07:51:57Z</time>
      </trkpt>
      <trkpt lat="42.8729280" lon="-0.0179540">
        <ele>740.0</ele>
        <time>2020-07-27T07:51:59Z</time>
      </trkpt>
      <trkpt lat="42.8729980" lon="-0.0180070">
        <ele>740.6</ele>
        <time>2020-07-27T07:52:01Z</time>
      </trkpt>
      <trkpt lat="42.8730780" lon="-0.0180530">
        <ele>741.2</ele>
        <time>2020-07-27T07:52:03Z</time>
      </trkpt>
      <trkpt lat="42.8731190" lon="-0.0180780">
        <ele>741.6</ele>
        <time>2020-07-27T07:52:04Z</time>
      </trkpt>
      <trkpt lat="42.8733510" lon="-0.0182480">
        <ele>742.2</ele>
        <time>2020-07-27T07:52:10Z</time>
      </trkpt>
      <trkpt lat="42.8734610" lon="-0.0183370">
        <ele>742.8</ele>
        <time>2020-07-27T07:52:13Z</time>
      </trkpt>
      <trkpt lat="42.8735960" lon="-0.0184640">
        <ele>743.6</ele>
        <time>2020-07-27T07:52:17Z</time>
      </trkpt>
      <trkpt lat="42.8736320" lon="-0.0184950">
        <ele>743.8</ele>
        <time>2020-07-27T07:52:18Z</time>
      </trkpt>
      <trkpt lat="42.8737350" lon="-0.0185810">
        <ele>745.2</ele>
        <time>2020-07-27T07:52:21Z</time>
      </trkpt>
      <trkpt lat="42.8738540" lon="-0.0186540">
        <ele>745.4</ele>
        <time>2020-07-27T07:52:24Z</time>
      </trkpt>
      <trkpt lat="42.8741280" lon="-0.0187610">
        <ele>746.0</ele>
        <time>2020-07-27T07:52:30Z</time>
      </trkpt>
      <trkpt lat="42.8741780" lon="-0.0187840">
        <ele>746.2</ele>
        <time>2020-07-27T07:52:31Z</time>
      </trkpt>
      <trkpt lat="42.8743220" lon="-0.0188660">
        <ele>747.0</ele>
        <time>2020-07-27T07:52:34Z</time>
      </trkpt>
      <trkpt lat="42.8744050" lon="-0.0189460">
        <ele>747.2</ele>
        <time>2020-07-27T07:52:36Z</time>
      </trkpt>
      <trkpt lat="42.8744420" lon="-0.0189910">
        <ele>747.2</ele>
        <time>2020-07-27T07:52:37Z</time>
      </trkpt>
      <trkpt lat="42.8744770" lon="-0.0190380">
        <ele>747.2</ele>
        <time>2020-07-27T07:52:38Z</time>
      </trkpt>
      <trkpt lat="42.8745930" lon="-0.0191620">
        <ele>747.8</ele>
        <time>2020-07-27T07:52:41Z</time>
      </trkpt>
      <trkpt lat="42.8746850" lon="-0.0192190">
        <ele>748.2</ele>
        <time>2020-07-27T07:52:43Z</time>
      </trkpt>
      <trkpt lat="42.8747360" lon="-0.0192430">
        <ele>748.4</ele>
        <time>2020-07-27T07:52:44Z</time>
      </trkpt>
      <trkpt lat="42.8750330" lon="-0.0194120">
        <ele>749.4</ele>
        <time>2020-07-27T07:52:50Z</time>
      </trkpt>
      <trkpt lat="42.8750760" lon="-0.0194490">
        <ele>749.8</ele>
        <time>2020-07-27T07:52:51Z</time>
      </trkpt>
      <trkpt lat="42.8751140" lon="-0.0194960">
        <ele>750.0</ele>
        <time>2020-07-27T07:52:52Z</time>
      </trkpt>
      <trkpt lat="42.8752180" lon="-0.0196350">
        <ele>750.6</ele>
        <time>2020-07-27T07:52:55Z</time>
      </trkpt>
      <trkpt lat="42.8753010" lon="-0.0197130">
        <ele>751.0</ele>
        <time>2020-07-27T07:52:57Z</time>
      </trkpt>
      <trkpt lat="42.8754760" lon="-0.0197610">
        <ele>751.6</ele>
        <time>2020-07-27T07:53:00Z</time>
      </trkpt>
      <trkpt lat="42.8755330" lon="-0.0197690">
        <ele>751.8</ele>
        <time>2020-07-27T07:53:01Z</time>
      </trkpt>
      <trkpt lat="42.8755770" lon="-0.0197840">
        <ele>752.0</ele>
        <time>2020-07-27T07:53:02Z</time>
      </trkpt>
      <trkpt lat="42.8757640" lon="-0.0198090">
        <ele>752.8</ele>
        <time>2020-07-27T07:53:06Z</time>
      </trkpt>
      <trkpt lat="42.8759030" lon="-0.0198280">
        <ele>754.0</ele>
        <time>2020-07-27T07:53:09Z</time>
      </trkpt>
      <trkpt lat="42.8759460" lon="-0.0198400">
        <ele>754.4</ele>
        <time>2020-07-27T07:53:10Z</time>
      </trkpt>
      <trkpt lat="42.8760300" lon="-0.0198550">
        <ele>755.0</ele>
        <time>2020-07-27T07:53:12Z</time>
      </trkpt>
      <trkpt lat="42.8761670" lon="-0.0198930">
        <ele>755.6</ele>
        <time>2020-07-27T07:53:15Z</time>
      </trkpt>
      <trkpt lat="42.8762130" lon="-0.0199130">
        <ele>756.0</ele>
        <time>2020-07-27T07:53:16Z</time>
      </trkpt>
      <trkpt lat="42.8763550" lon="-0.0199810">
        <ele>757.2</ele>
        <time>2020-07-27T07:53:19Z</time>
      </trkpt>
      <trkpt lat="42.8765820" lon="-0.0200750">
        <ele>758.2</ele>
        <time>2020-07-27T07:53:24Z</time>
      </trkpt>
      <trkpt lat="42.8767450" lon="-0.0201780">
        <ele>759.2</ele>
        <time>2020-07-27T07:53:28Z</time>
      </trkpt>
      <trkpt lat="42.8767860" lon="-0.0202130">
        <ele>759.4</ele>
        <time>2020-07-27T07:53:29Z</time>
      </trkpt>
      <trkpt lat="42.8768690" lon="-0.0202940">
        <ele>760.0</ele>
        <time>2020-07-27T07:53:31Z</time>
      </trkpt>
      <trkpt lat="42.8769530" lon="-0.0203700">
        <ele>760.4</ele>
        <time>2020-07-27T07:53:33Z</time>
      </trkpt>
      <trkpt lat="42.8769930" lon="-0.0203990">
        <ele>760.4</ele>
        <time>2020-07-27T07:53:34Z</time>
      </trkpt>
      <trkpt lat="42.8770360" lon="-0.0204220">
        <ele>760.6</ele>
        <time>2020-07-27T07:53:35Z</time>
      </trkpt>
      <trkpt lat="42.8770800" lon="-0.0204360">
        <ele>761.0</ele>
        <time>2020-07-27T07:53:36Z</time>
      </trkpt>
      <trkpt lat="42.8771280" lon="-0.0204420">
        <ele>761.4</ele>
        <time>2020-07-27T07:53:37Z</time>
      </trkpt>
      <trkpt lat="42.8771760" lon="-0.0204370">
        <ele>761.6</ele>
        <time>2020-07-27T07:53:38Z</time>
      </trkpt>
      <trkpt lat="42.8772650" lon="-0.0204070">
        <ele>762.0</ele>
        <time>2020-07-27T07:53:40Z</time>
      </trkpt>
      <trkpt lat="42.8773090" lon="-0.0203780">
        <ele>762.2</ele>
        <time>2020-07-27T07:53:41Z</time>
      </trkpt>
      <trkpt lat="42.8774020" lon="-0.0203110">
        <ele>762.6</ele>
        <time>2020-07-27T07:53:43Z</time>
      </trkpt>
      <trkpt lat="42.8774490" lon="-0.0202870">
        <ele>762.8</ele>
        <time>2020-07-27T07:53:44Z</time>
      </trkpt>
      <trkpt lat="42.8775910" lon="-0.0202800">
        <ele>763.8</ele>
        <time>2020-07-27T07:53:47Z</time>
      </trkpt>
      <trkpt lat="42.8776360" lon="-0.0203050">
        <ele>764.0</ele>
        <time>2020-07-27T07:53:48Z</time>
      </trkpt>
      <trkpt lat="42.8778140" lon="-0.0204360">
        <ele>765.2</ele>
        <time>2020-07-27T07:53:52Z</time>
      </trkpt>
      <trkpt lat="42.8778590" lon="-0.0204540">
        <ele>765.4</ele>
        <time>2020-07-27T07:53:53Z</time>
      </trkpt>
      <trkpt lat="42.8779520" lon="-0.0204610">
        <ele>766.0</ele>
        <time>2020-07-27T07:53:55Z</time>
      </trkpt>
      <trkpt lat="42.8779960" lon="-0.0204470">
        <ele>766.4</ele>
        <time>2020-07-27T07:53:56Z</time>
      </trkpt>
      <trkpt lat="42.8780370" lon="-0.0204220">
        <ele>766.6</ele>
        <time>2020-07-27T07:53:57Z</time>
      </trkpt>
      <trkpt lat="42.8781260" lon="-0.0203930">
        <ele>767.0</ele>
        <time>2020-07-27T07:53:59Z</time>
      </trkpt>
      <trkpt lat="42.8782190" lon="-0.0204040">
        <ele>767.2</ele>
        <time>2020-07-27T07:54:01Z</time>
      </trkpt>
      <trkpt lat="42.8782660" lon="-0.0204200">
        <ele>767.4</ele>
        <time>2020-07-27T07:54:02Z</time>
      </trkpt>
      <trkpt lat="42.8784170" lon="-0.0205300">
        <ele>768.6</ele>
        <time>2020-07-27T07:54:05Z</time>
      </trkpt>
      <trkpt lat="42.8785030" lon="-0.0206040">
        <ele>769.2</ele>
        <time>2020-07-27T07:54:07Z</time>
      </trkpt>
      <trkpt lat="42.8785900" lon="-0.0206790">
        <ele>769.6</ele>
        <time>2020-07-27T07:54:09Z</time>
      </trkpt>
      <trkpt lat="42.8787600" lon="-0.0208030">
        <ele>770.8</ele>
        <time>2020-07-27T07:54:13Z</time>
      </trkpt>
      <trkpt lat="42.8788930" lon="-0.0208880">
        <ele>771.6</ele>
        <time>2020-07-27T07:54:16Z</time>
      </trkpt>
      <trkpt lat="42.8789810" lon="-0.0209380">
        <ele>772.0</ele>
        <time>2020-07-27T07:54:18Z</time>
      </trkpt>
      <trkpt lat="42.8791490" lon="-0.0210490">
        <ele>773.2</ele>
        <time>2020-07-27T07:54:22Z</time>
      </trkpt>
      <trkpt lat="42.8792730" lon="-0.0211360">
        <ele>773.8</ele>
        <time>2020-07-27T07:54:25Z</time>
      </trkpt>
      <trkpt lat="42.8793550" lon="-0.0211980">
        <ele>774.4</ele>
        <time>2020-07-27T07:54:27Z</time>
      </trkpt>
      <trkpt lat="42.8795090" lon="-0.0213490">
        <ele>775.8</ele>
        <time>2020-07-27T07:54:31Z</time>
      </trkpt>
      <trkpt lat="42.8795400" lon="-0.0214000">
        <ele>776.0</ele>
        <time>2020-07-27T07:54:32Z</time>
      </trkpt>
      <trkpt lat="42.8795690" lon="-0.0214540">
        <ele>776.2</ele>
        <time>2020-07-27T07:54:33Z</time>
      </trkpt>
      <trkpt lat="42.8796230" lon="-0.0215710">
        <ele>777.0</ele>
        <time>2020-07-27T07:54:35Z</time>
      </trkpt>
      <trkpt lat="42.8797540" lon="-0.0217690">
        <ele>778.0</ele>
        <time>2020-07-27T07:54:39Z</time>
      </trkpt>
      <trkpt lat="42.8799930" lon="-0.0219700">
        <ele>778.6</ele>
        <time>2020-07-27T07:54:45Z</time>
      </trkpt>
      <trkpt lat="42.8800970" lon="-0.0220740">
        <ele>779.0</ele>
        <time>2020-07-27T07:54:48Z</time>
      </trkpt>
      <trkpt lat="42.8802330" lon="-0.0222230">
        <ele>780.0</ele>
        <time>2020-07-27T07:54:52Z</time>
      </trkpt>
      <trkpt lat="42.8802620" lon="-0.0222570">
        <ele>780.2</ele>
        <time>2020-07-27T07:54:53Z</time>
      </trkpt>
      <trkpt lat="42.8803530" lon="-0.0223630">
        <ele>781.4</ele>
        <time>2020-07-27T07:54:56Z</time>
      </trkpt>
      <trkpt lat="42.8804360" lon="-0.0223860">
        <ele>782.2</ele>
        <time>2020-07-27T07:54:58Z</time>
      </trkpt>
      <trkpt lat="42.8804800" lon="-0.0223720">
        <ele>782.4</ele>
        <time>2020-07-27T07:54:59Z</time>
      </trkpt>
      <trkpt lat="42.8805240" lon="-0.0223420">
        <ele>782.8</ele>
        <time>2020-07-27T07:55:00Z</time>
      </trkpt>
      <trkpt lat="42.8805580" lon="-0.0222990">
        <ele>783.2</ele>
        <time>2020-07-27T07:55:01Z</time>
      </trkpt>
      <trkpt lat="42.8805790" lon="-0.0222490">
        <ele>783.4</ele>
        <time>2020-07-27T07:55:02Z</time>
      </trkpt>
      <trkpt lat="42.8805980" lon="-0.0221970">
        <ele>783.8</ele>
        <time>2020-07-27T07:55:03Z</time>
      </trkpt>
      <trkpt lat="42.8806290" lon="-0.0220980">
        <ele>784.8</ele>
        <time>2020-07-27T07:55:05Z</time>
      </trkpt>
      <trkpt lat="42.8807420" lon="-0.0219560">
        <ele>786.0</ele>
        <time>2020-07-27T07:55:09Z</time>
      </trkpt>
      <trkpt lat="42.8808160" lon="-0.0219110">
        <ele>787.2</ele>
        <time>2020-07-27T07:55:11Z</time>
      </trkpt>
      <trkpt lat="42.8809720" lon="-0.0218620">
        <ele>788.8</ele>
        <time>2020-07-27T07:55:15Z</time>
      </trkpt>
      <trkpt lat="42.8810950" lon="-0.0218130">
        <ele>790.0</ele>
        <time>2020-07-27T07:55:18Z</time>
      </trkpt>
      <trkpt lat="42.8812440" lon="-0.0217220">
        <ele>791.0</ele>
        <time>2020-07-27T07:55:22Z</time>
      </trkpt>
      <trkpt lat="42.8812780" lon="-0.0216930">
        <ele>791.2</ele>
        <time>2020-07-27T07:55:23Z</time>
      </trkpt>
      <trkpt lat="42.8813760" lon="-0.0216030">
        <ele>792.4</ele>
        <time>2020-07-27T07:55:26Z</time>
      </trkpt>
      <trkpt lat="42.8815040" lon="-0.0214910">
        <ele>793.6</ele>
        <time>2020-07-27T07:55:30Z</time>
      </trkpt>
      <trkpt lat="42.8816020" lon="-0.0214070">
        <ele>794.8</ele>
        <time>2020-07-27T07:55:33Z</time>
      </trkpt>
      <trkpt lat="42.8817010" lon="-0.0213600">
        <ele>796.2</ele>
        <time>2020-07-27T07:55:36Z</time>
      </trkpt>
      <trkpt lat="42.8817380" lon="-0.0213620">
        <ele>796.6</ele>
        <time>2020-07-27T07:55:37Z</time>
      </trkpt>
      <trkpt lat="42.8818100" lon="-0.0213940">
        <ele>797.4</ele>
        <time>2020-07-27T07:55:39Z</time>
      </trkpt>
      <trkpt lat="42.8818420" lon="-0.0214230">
        <ele>797.6</ele>
        <time>2020-07-27T07:55:40Z</time>
      </trkpt>
      <trkpt lat="42.8818690" lon="-0.0214640">
        <ele>798.0</ele>
        <time>2020-07-27T07:55:41Z</time>
      </trkpt>
      <trkpt lat="42.8819160" lon="-0.0215600">
        <ele>798.8</ele>
        <time>2020-07-27T07:55:43Z</time>
      </trkpt>
      <trkpt lat="42.8819800" lon="-0.0217600">
        <ele>800.0</ele>
        <time>2020-07-27T07:55:47Z</time>
      </trkpt>
      <trkpt lat="42.8820170" lon="-0.0218990">
        <ele>801.0</ele>
        <time>2020-07-27T07:55:50Z</time>
      </trkpt>
      <trkpt lat="42.8820600" lon="-0.0221340">
        <ele>802.2</ele>
        <time>2020-07-27T07:55:55Z</time>
      </trkpt>
      <trkpt lat="42.8820820" lon="-0.0222740">
        <ele>803.2</ele>
        <time>2020-07-27T07:55:58Z</time>
      </trkpt>
      <trkpt lat="42.8821010" lon="-0.0224910">
        <ele>804.2</ele>
        <time>2020-07-27T07:56:03Z</time>
      </trkpt>
      <trkpt lat="42.8821080" lon="-0.0225340">
        <ele>804.4</ele>
        <time>2020-07-27T07:56:04Z</time>
      </trkpt>
      <trkpt lat="42.8820850" lon="-0.0227390">
        <ele>805.4</ele>
        <time>2020-07-27T07:56:09Z</time>
      </trkpt>
      <trkpt lat="42.8820640" lon="-0.0227710">
        <ele>805.4</ele>
        <time>2020-07-27T07:56:10Z</time>
      </trkpt>
      <trkpt lat="42.8819800" lon="-0.0228310">
        <ele>806.0</ele>
        <time>2020-07-27T07:56:13Z</time>
      </trkpt>
      <trkpt lat="42.8818470" lon="-0.0228520">
        <ele>806.4</ele>
        <time>2020-07-27T07:56:17Z</time>
      </trkpt>
      <trkpt lat="42.8817780" lon="-0.0228480">
        <ele>807.0</ele>
        <time>2020-07-27T07:56:19Z</time>
      </trkpt>
      <trkpt lat="42.8816680" lon="-0.0228580">
        <ele>807.6</ele>
        <time>2020-07-27T07:56:22Z</time>
      </trkpt>
      <trkpt lat="42.8815490" lon="-0.0228570">
        <ele>808.0</ele>
        <time>2020-07-27T07:56:25Z</time>
      </trkpt>
      <trkpt lat="42.8813120" lon="-0.0228480">
        <ele>808.8</ele>
        <time>2020-07-27T07:56:31Z</time>
      </trkpt>
      <trkpt lat="42.8812380" lon="-0.0228490">
        <ele>809.4</ele>
        <time>2020-07-27T07:56:33Z</time>
      </trkpt>
      <trkpt lat="42.8811310" lon="-0.0228440">
        <ele>810.0</ele>
        <time>2020-07-27T07:56:36Z</time>
      </trkpt>
      <trkpt lat="42.8810330" lon="-0.0228540">
        <ele>811.0</ele>
        <time>2020-07-27T07:56:39Z</time>
      </trkpt>
      <trkpt lat="42.8809390" lon="-0.0228660">
        <ele>812.0</ele>
        <time>2020-07-27T07:56:42Z</time>
      </trkpt>
      <trkpt lat="42.8808750" lon="-0.0228690">
        <ele>812.8</ele>
        <time>2020-07-27T07:56:44Z</time>
      </trkpt>
      <trkpt lat="42.8808450" lon="-0.0228740">
        <ele>813.0</ele>
        <time>2020-07-27T07:56:45Z</time>
      </trkpt>
      <trkpt lat="42.8808160" lon="-0.0228790">
        <ele>813.4</ele>
        <time>2020-07-27T07:56:46Z</time>
      </trkpt>
      <trkpt lat="42.8807600" lon="-0.0228900">
        <ele>814.0</ele>
        <time>2020-07-27T07:56:48Z</time>
      </trkpt>
      <trkpt lat="42.8806430" lon="-0.0229280">
        <ele>815.2</ele>
        <time>2020-07-27T07:56:52Z</time>
      </trkpt>
      <trkpt lat="42.8806240" lon="-0.0229590">
        <ele>815.6</ele>
        <time>2020-07-27T07:56:53Z</time>
      </trkpt>
      <trkpt lat="42.8806250" lon="-0.0230300">
        <ele>816.0</ele>
        <time>2020-07-27T07:56:55Z</time>
      </trkpt>
      <trkpt lat="42.8806370" lon="-0.0230580">
        <ele>816.2</ele>
        <time>2020-07-27T07:56:56Z</time>
      </trkpt>
      <trkpt lat="42.8806550" lon="-0.0230760">
        <ele>816.4</ele>
        <time>2020-07-27T07:56:57Z</time>
      </trkpt>
      <trkpt lat="42.8806840" lon="-0.0230720">
        <ele>816.6</ele>
        <time>2020-07-27T07:56:58Z</time>
      </trkpt>
      <trkpt lat="42.8807460" lon="-0.0230870">
        <ele>817.2</ele>
        <time>2020-07-27T07:57:00Z</time>
      </trkpt>
      <trkpt lat="42.8808040" lon="-0.0230980">
        <ele>817.6</ele>
        <time>2020-07-27T07:57:02Z</time>
      </trkpt>
      <trkpt lat="42.8809300" lon="-0.0231270">
        <ele>818.8</ele>
        <time>2020-07-27T07:57:07Z</time>
      </trkpt>
      <trkpt lat="42.8809550" lon="-0.0231330">
        <ele>819.2</ele>
        <time>2020-07-27T07:57:08Z</time>
      </trkpt>
      <trkpt lat="42.8810000" lon="-0.0231440">
        <ele>819.8</ele>
        <time>2020-07-27T07:57:10Z</time>
      </trkpt>
      <trkpt lat="42.8810510" lon="-0.0231670">
        <ele>820.6</ele>
        <time>2020-07-27T07:57:13Z</time>
      </trkpt>
      <trkpt lat="42.8810990" lon="-0.0231750">
        <ele>821.0</ele>
        <time>2020-07-27T07:57:15Z</time>
      </trkpt>
      <trkpt lat="42.8812040" lon="-0.0232140">
        <ele>821.4</ele>
        <time>2020-07-27T07:57:19Z</time>
      </trkpt>
      <trkpt lat="42.8812600" lon="-0.0232310">
        <ele>822.4</ele>
        <time>2020-07-27T07:57:21Z</time>
      </trkpt>
      <trkpt lat="42.8813700" lon="-0.0232680">
        <ele>823.6</ele>
        <time>2020-07-27T07:57:25Z</time>
      </trkpt>
      <trkpt lat="42.8813990" lon="-0.0232770">
        <ele>824.0</ele>
        <time>2020-07-27T07:57:26Z</time>
      </trkpt>
      <trkpt lat="42.8814520" lon="-0.0232970">
        <ele>824.6</ele>
        <time>2020-07-27T07:57:28Z</time>
      </trkpt>
      <trkpt lat="42.8815510" lon="-0.0233290">
        <ele>825.6</ele>
        <time>2020-07-27T07:57:32Z</time>
      </trkpt>
      <trkpt lat="42.8815750" lon="-0.0233390">
        <ele>825.8</ele>
        <time>2020-07-27T07:57:33Z</time>
      </trkpt>
      <trkpt lat="42.8816740" lon="-0.0233900">
        <ele>826.8</ele>
        <time>2020-07-27T07:57:37Z</time>
      </trkpt>
      <trkpt lat="42.8817470" lon="-0.0234280">
        <ele>827.8</ele>
        <time>2020-07-27T07:57:40Z</time>
      </trkpt>
      <trkpt lat="42.8817730" lon="-0.0234420">
        <ele>828.0</ele>
        <time>2020-07-27T07:57:41Z</time>
      </trkpt>
      <trkpt lat="42.8818700" lon="-0.0235040">
        <ele>829.2</ele>
        <time>2020-07-27T07:57:46Z</time>
      </trkpt>
      <trkpt lat="42.8819530" lon="-0.0235840">
        <ele>830.4</ele>
        <time>2020-07-27T07:57:51Z</time>
      </trkpt>
      <trkpt lat="42.8819960" lon="-0.0236570">
        <ele>830.8</ele>
        <time>2020-07-27T07:57:54Z</time>
      </trkpt>
      <trkpt lat="42.8820230" lon="-0.0237120">
        <ele>831.6</ele>
        <time>2020-07-27T07:57:56Z</time>
      </trkpt>
      <trkpt lat="42.8820570" lon="-0.0238080">
        <ele>832.2</ele>
        <time>2020-07-27T07:57:59Z</time>
      </trkpt>
      <trkpt lat="42.8820800" lon="-0.0238730">
        <ele>832.6</ele>
        <time>2020-07-27T07:58:01Z</time>
      </trkpt>
      <trkpt lat="42.8820900" lon="-0.0239090">
        <ele>832.8</ele>
        <time>2020-07-27T07:58:02Z</time>
      </trkpt>
      <trkpt lat="42.8821030" lon="-0.0239740">
        <ele>833.2</ele>
        <time>2020-07-27T07:58:04Z</time>
      </trkpt>
      <trkpt lat="42.8820930" lon="-0.0240370">
        <ele>833.6</ele>
        <time>2020-07-27T07:58:06Z</time>
      </trkpt>
      <trkpt lat="42.8820750" lon="-0.0240540">
        <ele>833.8</ele>
        <time>2020-07-27T07:58:07Z</time>
      </trkpt>
      <trkpt lat="42.8820080" lon="-0.0240650">
        <ele>834.4</ele>
        <time>2020-07-27T07:58:10Z</time>
      </trkpt>
      <trkpt lat="42.8819570" lon="-0.0240310">
        <ele>834.6</ele>
        <time>2020-07-27T07:58:13Z</time>
      </trkpt>
      <trkpt lat="42.8819440" lon="-0.0240200">
        <ele>834.8</ele>
        <time>2020-07-27T07:58:14Z</time>
      </trkpt>
      <trkpt lat="42.8818980" lon="-0.0239830">
        <ele>835.4</ele>
        <time>2020-07-27T07:58:17Z</time>
      </trkpt>
      <trkpt lat="42.8818790" lon="-0.0239490">
        <ele>835.8</ele>
        <time>2020-07-27T07:58:19Z</time>
      </trkpt>
      <trkpt lat="42.8818060" lon="-0.0238840">
        <ele>836.2</ele>
        <time>2020-07-27T07:58:24Z</time>
      </trkpt>
      <trkpt lat="42.8817650" lon="-0.0238740">
        <ele>836.8</ele>
        <time>2020-07-27T07:58:26Z</time>
      </trkpt>
      <trkpt lat="42.8817480" lon="-0.0238740">
        <ele>837.2</ele>
        <time>2020-07-27T07:58:27Z</time>
      </trkpt>
      <trkpt lat="42.8817140" lon="-0.0238770">
        <ele>837.6</ele>
        <time>2020-07-27T07:58:29Z</time>
      </trkpt>
      <trkpt lat="42.8816580" lon="-0.0238720">
        <ele>838.2</ele>
        <time>2020-07-27T07:58:32Z</time>
      </trkpt>
      <trkpt lat="42.8816210" lon="-0.0238620">
        <ele>838.6</ele>
        <time>2020-07-27T07:58:34Z</time>
      </trkpt>
      <trkpt lat="42.8815640" lon="-0.0238320">
        <ele>839.2</ele>
        <time>2020-07-27T07:58:37Z</time>
      </trkpt>
      <trkpt lat="42.8814990" lon="-0.0238080">
        <ele>839.8</ele>
        <time>2020-07-27T07:58:40Z</time>
      </trkpt>
      <trkpt lat="42.8814800" lon="-0.0238130">
        <ele>840.0</ele>
        <time>2020-07-27T07:58:41Z</time>
      </trkpt>
      <trkpt lat="42.8814630" lon="-0.0238170">
        <ele>840.2</ele>
        <time>2020-07-27T07:58:42Z</time>
      </trkpt>
      <trkpt lat="42.8814460" lon="-0.0238250">
        <ele>840.2</ele>
        <time>2020-07-27T07:58:43Z</time>
      </trkpt>
      <trkpt lat="42.8814280" lon="-0.0238340">
        <ele>840.4</ele>
        <time>2020-07-27T07:58:44Z</time>
      </trkpt>
      <trkpt lat="42.8814150" lon="-0.0238510">
        <ele>840.6</ele>
        <time>2020-07-27T07:58:45Z</time>
      </trkpt>
      <trkpt lat="42.8814060" lon="-0.0238720">
        <ele>840.8</ele>
        <time>2020-07-27T07:58:46Z</time>
      </trkpt>
      <trkpt lat="42.8814080" lon="-0.0239130">
        <ele>841.2</ele>
        <time>2020-07-27T07:58:48Z</time>
      </trkpt>
      <trkpt lat="42.8814170" lon="-0.0239290">
        <ele>841.6</ele>
        <time>2020-07-27T07:58:49Z</time>
      </trkpt>
      <trkpt lat="42.8814310" lon="-0.0239380">
        <ele>841.8</ele>
        <time>2020-07-27T07:58:50Z</time>
      </trkpt>
      <trkpt lat="42.8814940" lon="-0.0239570">
        <ele>842.2</ele>
        <time>2020-07-27T07:58:53Z</time>
      </trkpt>
      <trkpt lat="42.8815440" lon="-0.0239670">
        <ele>842.6</ele>
        <time>2020-07-27T07:58:55Z</time>
      </trkpt>
      <trkpt lat="42.8815690" lon="-0.0239700">
        <ele>842.8</ele>
        <time>2020-07-27T07:58:56Z</time>
      </trkpt>
      <trkpt lat="42.8816790" lon="-0.0240250">
        <ele>843.2</ele>
        <time>2020-07-27T07:59:00Z</time>
      </trkpt>
      <trkpt lat="42.8817470" lon="-0.0240770">
        <ele>843.8</ele>
        <time>2020-07-27T07:59:03Z</time>
      </trkpt>
      <trkpt lat="42.8817680" lon="-0.0240960">
        <ele>844.0</ele>
        <time>2020-07-27T07:59:04Z</time>
      </trkpt>
      <trkpt lat="42.8818570" lon="-0.0241830">
        <ele>844.8</ele>
        <time>2020-07-27T07:59:09Z</time>
      </trkpt>
      <trkpt lat="42.8819170" lon="-0.0242490">
        <ele>845.6</ele>
        <time>2020-07-27T07:59:12Z</time>
      </trkpt>
      <trkpt lat="42.8819550" lon="-0.0242870">
        <ele>846.0</ele>
        <time>2020-07-27T07:59:14Z</time>
      </trkpt>
      <trkpt lat="42.8820360" lon="-0.0243660">
        <ele>847.0</ele>
        <time>2020-07-27T07:59:18Z</time>
      </trkpt>
      <trkpt lat="42.8821010" lon="-0.0244170">
        <ele>848.0</ele>
        <time>2020-07-27T07:59:21Z</time>
      </trkpt>
      <trkpt lat="42.8821220" lon="-0.0244390">
        <ele>848.2</ele>
        <time>2020-07-27T07:59:22Z</time>
      </trkpt>
      <trkpt lat="42.8822210" lon="-0.0245540">
        <ele>849.0</ele>
        <time>2020-07-27T07:59:27Z</time>
      </trkpt>
      <trkpt lat="42.8822400" lon="-0.0245820">
        <ele>849.2</ele>
        <time>2020-07-27T07:59:28Z</time>
      </trkpt>
      <trkpt lat="42.8823300" lon="-0.0247140">
        <ele>850.4</ele>
        <time>2020-07-27T07:59:32Z</time>
      </trkpt>
      <trkpt lat="42.8823910" lon="-0.0248410">
        <ele>851.2</ele>
        <time>2020-07-27T07:59:36Z</time>
      </trkpt>
      <trkpt lat="42.8824200" lon="-0.0249040">
        <ele>851.4</ele>
        <time>2020-07-27T07:59:38Z</time>
      </trkpt>
      <trkpt lat="42.8824660" lon="-0.0250030">
        <ele>852.4</ele>
        <time>2020-07-27T07:59:41Z</time>
      </trkpt>
      <trkpt lat="42.8824820" lon="-0.0250360">
        <ele>852.6</ele>
        <time>2020-07-27T07:59:42Z</time>
      </trkpt>
      <trkpt lat="42.8825460" lon="-0.0251690">
        <ele>853.4</ele>
        <time>2020-07-27T07:59:46Z</time>
      </trkpt>
      <trkpt lat="42.8825640" lon="-0.0251960">
        <ele>853.6</ele>
        <time>2020-07-27T07:59:47Z</time>
      </trkpt>
      <trkpt lat="42.8826650" lon="-0.0253480">
        <ele>854.6</ele>
        <time>2020-07-27T07:59:52Z</time>
      </trkpt>
      <trkpt lat="42.8827150" lon="-0.0254100">
        <ele>855.0</ele>
        <time>2020-07-27T07:59:54Z</time>
      </trkpt>
      <trkpt lat="42.8828080" lon="-0.0255360">
        <ele>856.0</ele>
        <time>2020-07-27T07:59:58Z</time>
      </trkpt>
      <trkpt lat="42.8829370" lon="-0.0256940">
        <ele>856.8</ele>
        <time>2020-07-27T08:00:03Z</time>
      </trkpt>
      <trkpt lat="42.8829590" lon="-0.0257260">
        <ele>857.2</ele>
        <time>2020-07-27T08:00:04Z</time>
      </trkpt>
      <trkpt lat="42.8830790" lon="-0.0258740">
        <ele>858.4</ele>
        <time>2020-07-27T08:00:09Z</time>
      </trkpt>
      <trkpt lat="42.8831690" lon="-0.0259930">
        <ele>859.2</ele>
        <time>2020-07-27T08:00:13Z</time>
      </trkpt>
      <trkpt lat="42.8831950" lon="-0.0260200">
        <ele>859.4</ele>
        <time>2020-07-27T08:00:14Z</time>
      </trkpt>
      <trkpt lat="42.8833240" lon="-0.0262120">
        <ele>860.0</ele>
        <time>2020-07-27T08:00:20Z</time>
      </trkpt>
      <trkpt lat="42.8833630" lon="-0.0262830">
        <ele>860.4</ele>
        <time>2020-07-27T08:00:22Z</time>
      </trkpt>
      <trkpt lat="42.8834520" lon="-0.0264120">
        <ele>861.6</ele>
        <time>2020-07-27T08:00:26Z</time>
      </trkpt>
      <trkpt lat="42.8835000" lon="-0.0264830">
        <ele>862.0</ele>
        <time>2020-07-27T08:00:28Z</time>
      </trkpt>
      <trkpt lat="42.8836140" lon="-0.0266530">
        <ele>862.8</ele>
        <time>2020-07-27T08:00:33Z</time>
      </trkpt>
      <trkpt lat="42.8837010" lon="-0.0267720">
        <ele>863.8</ele>
        <time>2020-07-27T08:00:37Z</time>
      </trkpt>
      <trkpt lat="42.8837240" lon="-0.0268040">
        <ele>864.0</ele>
        <time>2020-07-27T08:00:38Z</time>
      </trkpt>
      <trkpt lat="42.8837980" lon="-0.0269910">
        <ele>865.4</ele>
        <time>2020-07-27T08:00:43Z</time>
      </trkpt>
      <trkpt lat="42.8838020" lon="-0.0270320">
        <ele>865.8</ele>
        <time>2020-07-27T08:00:44Z</time>
      </trkpt>
      <trkpt lat="42.8838040" lon="-0.0271110">
        <ele>866.4</ele>
        <time>2020-07-27T08:00:46Z</time>
      </trkpt>
      <trkpt lat="42.8838000" lon="-0.0272990">
        <ele>867.4</ele>
        <time>2020-07-27T08:00:51Z</time>
      </trkpt>
      <trkpt lat="42.8838060" lon="-0.0273710">
        <ele>867.6</ele>
        <time>2020-07-27T08:00:53Z</time>
      </trkpt>
      <trkpt lat="42.8838560" lon="-0.0274680">
        <ele>868.6</ele>
        <time>2020-07-27T08:00:56Z</time>
      </trkpt>
      <trkpt lat="42.8839510" lon="-0.0275480">
        <ele>869.4</ele>
        <time>2020-07-27T08:01:00Z</time>
      </trkpt>
      <trkpt lat="42.8839710" lon="-0.0275670">
        <ele>869.8</ele>
        <time>2020-07-27T08:01:01Z</time>
      </trkpt>
      <trkpt lat="42.8840240" lon="-0.0276370">
        <ele>871.0</ele>
        <time>2020-07-27T08:01:04Z</time>
      </trkpt>
      <trkpt lat="42.8840980" lon="-0.0277410">
        <ele>872.2</ele>
        <time>2020-07-27T08:01:08Z</time>
      </trkpt>
      <trkpt lat="42.8841140" lon="-0.0277670">
        <ele>872.2</ele>
        <time>2020-07-27T08:01:09Z</time>
      </trkpt>
      <trkpt lat="42.8842030" lon="-0.0279280">
        <ele>873.4</ele>
        <time>2020-07-27T08:01:15Z</time>
      </trkpt>
      <trkpt lat="42.8842690" lon="-0.0280450">
        <ele>874.6</ele>
        <time>2020-07-27T08:01:19Z</time>
      </trkpt>
      <trkpt lat="42.8843650" lon="-0.0282690">
        <ele>875.8</ele>
        <time>2020-07-27T08:01:25Z</time>
      </trkpt>
      <trkpt lat="42.8844160" lon="-0.0283640">
        <ele>876.2</ele>
        <time>2020-07-27T08:01:28Z</time>
      </trkpt>
      <trkpt lat="42.8844580" lon="-0.0284260">
        <ele>876.8</ele>
        <time>2020-07-27T08:01:30Z</time>
      </trkpt>
      <trkpt lat="42.8845660" lon="-0.0285440">
        <ele>877.8</ele>
        <time>2020-07-27T08:01:34Z</time>
      </trkpt>
      <trkpt lat="42.8845930" lon="-0.0285700">
        <ele>878.0</ele>
        <time>2020-07-27T08:01:35Z</time>
      </trkpt>
      <trkpt lat="42.8846600" lon="-0.0286420">
        <ele>879.0</ele>
        <time>2020-07-27T08:01:38Z</time>
      </trkpt>
      <trkpt lat="42.8847520" lon="-0.0287330">
        <ele>880.0</ele>
        <time>2020-07-27T08:01:42Z</time>
      </trkpt>
      <trkpt lat="42.8847760" lon="-0.0287630">
        <ele>880.2</ele>
        <time>2020-07-27T08:01:43Z</time>
      </trkpt>
      <trkpt lat="42.8848700" lon="-0.0288760">
        <ele>881.4</ele>
        <time>2020-07-27T08:01:47Z</time>
      </trkpt>
      <trkpt lat="42.8849170" lon="-0.0289190">
        <ele>882.0</ele>
        <time>2020-07-27T08:01:49Z</time>
      </trkpt>
      <trkpt lat="42.8849370" lon="-0.0289450">
        <ele>882.4</ele>
        <time>2020-07-27T08:01:50Z</time>
      </trkpt>
      <trkpt lat="42.8850720" lon="-0.0290520">
        <ele>883.4</ele>
        <time>2020-07-27T08:01:55Z</time>
      </trkpt>
      <trkpt lat="42.8850940" lon="-0.0290750">
        <ele>883.8</ele>
        <time>2020-07-27T08:01:56Z</time>
      </trkpt>
      <trkpt lat="42.8851160" lon="-0.0290970">
        <ele>884.0</ele>
        <time>2020-07-27T08:01:57Z</time>
      </trkpt>
      <trkpt lat="42.8851930" lon="-0.0291410">
        <ele>884.6</ele>
        <time>2020-07-27T08:01:59Z</time>
      </trkpt>
      <trkpt lat="42.8853410" lon="-0.0292480">
        <ele>886.0</ele>
        <time>2020-07-27T08:02:04Z</time>
      </trkpt>
      <trkpt lat="42.8853650" lon="-0.0292740">
        <ele>886.2</ele>
        <time>2020-07-27T08:02:05Z</time>
      </trkpt>
      <trkpt lat="42.8854310" lon="-0.0293810">
        <ele>887.0</ele>
        <time>2020-07-27T08:02:09Z</time>
      </trkpt>
      <trkpt lat="42.8854720" lon="-0.0294760">
        <ele>887.8</ele>
        <time>2020-07-27T08:02:12Z</time>
      </trkpt>
      <trkpt lat="42.8854850" lon="-0.0295060">
        <ele>888.2</ele>
        <time>2020-07-27T08:02:13Z</time>
      </trkpt>
      <trkpt lat="42.8855490" lon="-0.0296530">
        <ele>889.4</ele>
        <time>2020-07-27T08:02:18Z</time>
      </trkpt>
      <trkpt lat="42.8855760" lon="-0.0297090">
        <ele>889.8</ele>
        <time>2020-07-27T08:02:20Z</time>
      </trkpt>
      <trkpt lat="42.8856600" lon="-0.0298140">
        <ele>890.6</ele>
        <time>2020-07-27T08:02:24Z</time>
      </trkpt>
      <trkpt lat="42.8857240" lon="-0.0298960">
        <ele>891.6</ele>
        <time>2020-07-27T08:02:27Z</time>
      </trkpt>
      <trkpt lat="42.8857580" lon="-0.0299470">
        <ele>892.2</ele>
        <time>2020-07-27T08:02:29Z</time>
      </trkpt>
      <trkpt lat="42.8857970" lon="-0.0299900">
        <ele>892.8</ele>
        <time>2020-07-27T08:02:31Z</time>
      </trkpt>
      <trkpt lat="42.8858900" lon="-0.0300810">
        <ele>893.6</ele>
        <time>2020-07-27T08:02:36Z</time>
      </trkpt>
      <trkpt lat="42.8859180" lon="-0.0300930">
        <ele>893.8</ele>
        <time>2020-07-27T08:02:37Z</time>
      </trkpt>
      <trkpt lat="42.8860400" lon="-0.0301750">
        <ele>895.0</ele>
        <time>2020-07-27T08:02:43Z</time>
      </trkpt>
      <trkpt lat="42.8860530" lon="-0.0301870">
        <ele>895.2</ele>
        <time>2020-07-27T08:02:44Z</time>
      </trkpt>
      <trkpt lat="42.8861070" lon="-0.0302130">
        <ele>896.0</ele>
        <time>2020-07-27T08:02:47Z</time>
      </trkpt>
      <trkpt lat="42.8861840" lon="-0.0302220">
        <ele>897.2</ele>
        <time>2020-07-27T08:02:51Z</time>
      </trkpt>
      <trkpt lat="42.8863260" lon="-0.0302210">
        <ele>898.0</ele>
        <time>2020-07-27T08:02:55Z</time>
      </trkpt>
      <trkpt lat="42.8863670" lon="-0.0302200">
        <ele>898.2</ele>
        <time>2020-07-27T08:02:56Z</time>
      </trkpt>
      <trkpt lat="42.8865210" lon="-0.0302200">
        <ele>899.4</ele>
        <time>2020-07-27T08:03:00Z</time>
      </trkpt>
      <trkpt lat="42.8866710" lon="-0.0302170">
        <ele>900.2</ele>
        <time>2020-07-27T08:03:04Z</time>
      </trkpt>
      <trkpt lat="42.8867060" lon="-0.0302210">
        <ele>900.4</ele>
        <time>2020-07-27T08:03:05Z</time>
      </trkpt>
      <trkpt lat="42.8868370" lon="-0.0302850">
        <ele>901.4</ele>
        <time>2020-07-27T08:03:09Z</time>
      </trkpt>
      <trkpt lat="42.8868630" lon="-0.0303230">
        <ele>902.0</ele>
        <time>2020-07-27T08:03:10Z</time>
      </trkpt>
      <trkpt lat="42.8868940" lon="-0.0304100">
        <ele>902.4</ele>
        <time>2020-07-27T08:03:12Z</time>
      </trkpt>
      <trkpt lat="42.8868940" lon="-0.0304560">
        <ele>902.6</ele>
        <time>2020-07-27T08:03:13Z</time>
      </trkpt>
      <trkpt lat="42.8868890" lon="-0.0304990">
        <ele>902.8</ele>
        <time>2020-07-27T08:03:14Z</time>
      </trkpt>
      <trkpt lat="42.8868240" lon="-0.0305870">
        <ele>903.2</ele>
        <time>2020-07-27T08:03:17Z</time>
      </trkpt>
      <trkpt lat="42.8867940" lon="-0.0306030">
        <ele>903.4</ele>
        <time>2020-07-27T08:03:18Z</time>
      </trkpt>
      <trkpt lat="42.8867350" lon="-0.0306260">
        <ele>903.6</ele>
        <time>2020-07-27T08:03:20Z</time>
      </trkpt>
      <trkpt lat="42.8866410" lon="-0.0306350">
        <ele>904.8</ele>
        <time>2020-07-27T08:03:23Z</time>
      </trkpt>
      <trkpt lat="42.8865780" lon="-0.0306300">
        <ele>905.4</ele>
        <time>2020-07-27T08:03:25Z</time>
      </trkpt>
      <trkpt lat="42.8864490" lon="-0.0306000">
        <ele>906.0</ele>
        <time>2020-07-27T08:03:29Z</time>
      </trkpt>
      <trkpt lat="42.8863310" lon="-0.0305820">
        <ele>906.8</ele>
        <time>2020-07-27T08:03:33Z</time>
      </trkpt>
      <trkpt lat="42.8863050" lon="-0.0305900">
        <ele>907.2</ele>
        <time>2020-07-27T08:03:34Z</time>
      </trkpt>
      <trkpt lat="42.8862180" lon="-0.0306470">
        <ele>908.2</ele>
        <time>2020-07-27T08:03:38Z</time>
      </trkpt>
      <trkpt lat="42.8861880" lon="-0.0306380">
        <ele>908.6</ele>
        <time>2020-07-27T08:03:39Z</time>
      </trkpt>
      <trkpt lat="42.8860920" lon="-0.0306100">
        <ele>909.2</ele>
        <time>2020-07-27T08:03:42Z</time>
      </trkpt>
      <trkpt lat="42.8859850" lon="-0.0305580">
        <ele>910.2</ele>
        <time>2020-07-27T08:03:46Z</time>
      </trkpt>
      <trkpt lat="42.8859650" lon="-0.0305440">
        <ele>910.4</ele>
        <time>2020-07-27T08:03:47Z</time>
      </trkpt>
      <trkpt lat="42.8858430" lon="-0.0304460">
        <ele>911.6</ele>
        <time>2020-07-27T08:03:53Z</time>
      </trkpt>
      <trkpt lat="42.8858140" lon="-0.0304300">
        <ele>911.6</ele>
        <time>2020-07-27T08:03:54Z</time>
      </trkpt>
      <trkpt lat="42.8857910" lon="-0.0304260">
        <ele>912.2</ele>
        <time>2020-07-27T08:03:56Z</time>
      </trkpt>
      <trkpt lat="42.8857920" lon="-0.0304380">
        <ele>912.4</ele>
        <time>2020-07-27T08:03:57Z</time>
      </trkpt>
      <trkpt lat="42.8857920" lon="-0.0304600">
        <ele>912.6</ele>
        <time>2020-07-27T08:03:58Z</time>
      </trkpt>
      <trkpt lat="42.8857990" lon="-0.0304830">
        <ele>913.0</ele>
        <time>2020-07-27T08:03:59Z</time>
      </trkpt>
      <trkpt lat="42.8858420" lon="-0.0305040">
        <ele>914.0</ele>
        <time>2020-07-27T08:04:01Z</time>
      </trkpt>
      <trkpt lat="42.8858970" lon="-0.0305220">
        <ele>914.4</ele>
        <time>2020-07-27T08:04:03Z</time>
      </trkpt>
      <trkpt lat="42.8859710" lon="-0.0305460">
        <ele>915.0</ele>
        <time>2020-07-27T08:04:06Z</time>
      </trkpt>
      <trkpt lat="42.8860800" lon="-0.0305710">
        <ele>915.6</ele>
        <time>2020-07-27T08:04:10Z</time>
      </trkpt>
      <trkpt lat="42.8861250" lon="-0.0306270">
        <ele>916.0</ele>
        <time>2020-07-27T08:04:13Z</time>
      </trkpt>
      <trkpt lat="42.8861960" lon="-0.0306610">
        <ele>917.4</ele>
        <time>2020-07-27T08:04:16Z</time>
      </trkpt>
      <trkpt lat="42.8862530" lon="-0.0306890">
        <ele>918.2</ele>
        <time>2020-07-27T08:04:18Z</time>
      </trkpt>
      <trkpt lat="42.8862820" lon="-0.0306980">
        <ele>918.6</ele>
        <time>2020-07-27T08:04:19Z</time>
      </trkpt>
      <trkpt lat="42.8863350" lon="-0.0307200">
        <ele>919.0</ele>
        <time>2020-07-27T08:04:21Z</time>
      </trkpt>
      <trkpt lat="42.8863970" lon="-0.0307740">
        <ele>919.4</ele>
        <time>2020-07-27T08:04:23Z</time>
      </trkpt>
      <trkpt lat="42.8864230" lon="-0.0307990">
        <ele>919.6</ele>
        <time>2020-07-27T08:04:24Z</time>
      </trkpt>
      <trkpt lat="42.8864470" lon="-0.0308230">
        <ele>919.6</ele>
        <time>2020-07-27T08:04:25Z</time>
      </trkpt>
      <trkpt lat="42.8865280" lon="-0.0309170">
        <ele>920.8</ele>
        <time>2020-07-27T08:04:29Z</time>
      </trkpt>
      <trkpt lat="42.8865650" lon="-0.0309900">
        <ele>922.0</ele>
        <time>2020-07-27T08:04:32Z</time>
      </trkpt>
      <trkpt lat="42.8866630" lon="-0.0311070">
        <ele>923.2</ele>
        <time>2020-07-27T08:04:37Z</time>
      </trkpt>
      <trkpt lat="42.8867290" lon="-0.0311630">
        <ele>924.0</ele>
        <time>2020-07-27T08:04:40Z</time>
      </trkpt>
      <trkpt lat="42.8867480" lon="-0.0311820">
        <ele>924.2</ele>
        <time>2020-07-27T08:04:41Z</time>
      </trkpt>
      <trkpt lat="42.8868450" lon="-0.0312540">
        <ele>925.2</ele>
        <time>2020-07-27T08:04:46Z</time>
      </trkpt>
      <trkpt lat="42.8868870" lon="-0.0312860">
        <ele>926.0</ele>
        <time>2020-07-27T08:04:48Z</time>
      </trkpt>
      <trkpt lat="42.8869300" lon="-0.0313160">
        <ele>926.4</ele>
        <time>2020-07-27T08:04:50Z</time>
      </trkpt>
      <trkpt lat="42.8870440" lon="-0.0314050">
        <ele>927.4</ele>
        <time>2020-07-27T08:04:55Z</time>
      </trkpt>
      <trkpt lat="42.8871880" lon="-0.0314860">
        <ele>928.4</ele>
        <time>2020-07-27T08:05:00Z</time>
      </trkpt>
      <trkpt lat="42.8872690" lon="-0.0315570">
        <ele>929.2</ele>
        <time>2020-07-27T08:05:03Z</time>
      </trkpt>
      <trkpt lat="42.8872980" lon="-0.0315850">
        <ele>929.6</ele>
        <time>2020-07-27T08:05:04Z</time>
      </trkpt>
      <trkpt lat="42.8873650" lon="-0.0316670">
        <ele>930.8</ele>
        <time>2020-07-27T08:05:07Z</time>
      </trkpt>
      <trkpt lat="42.8874440" lon="-0.0317780">
        <ele>931.8</ele>
        <time>2020-07-27T08:05:11Z</time>
      </trkpt>
      <trkpt lat="42.8875480" lon="-0.0318950">
        <ele>933.0</ele>
        <time>2020-07-27T08:05:16Z</time>
      </trkpt>
      <trkpt lat="42.8876180" lon="-0.0319630">
        <ele>933.6</ele>
        <time>2020-07-27T08:05:19Z</time>
      </trkpt>
      <trkpt lat="42.8876610" lon="-0.0320040">
        <ele>934.2</ele>
        <time>2020-07-27T08:05:21Z</time>
      </trkpt>
      <trkpt lat="42.8877920" lon="-0.0320330">
        <ele>935.0</ele>
        <time>2020-07-27T08:05:26Z</time>
      </trkpt>
      <trkpt lat="42.8878200" lon="-0.0320290">
        <ele>935.2</ele>
        <time>2020-07-27T08:05:27Z</time>
      </trkpt>
      <trkpt lat="42.8879260" lon="-0.0320100">
        <ele>936.4</ele>
        <time>2020-07-27T08:05:31Z</time>
      </trkpt>
      <trkpt lat="42.8880270" lon="-0.0319450">
        <ele>937.4</ele>
        <time>2020-07-27T08:05:35Z</time>
      </trkpt>
      <trkpt lat="42.8881510" lon="-0.0319020">
        <ele>938.8</ele>
        <time>2020-07-27T08:05:39Z</time>
      </trkpt>
      <trkpt lat="42.8882420" lon="-0.0319090">
        <ele>939.6</ele>
        <time>2020-07-27T08:05:42Z</time>
      </trkpt>
      <trkpt lat="42.8882680" lon="-0.0319290">
        <ele>939.8</ele>
        <time>2020-07-27T08:05:43Z</time>
      </trkpt>
      <trkpt lat="42.8883210" lon="-0.0320210">
        <ele>940.8</ele>
        <time>2020-07-27T08:05:46Z</time>
      </trkpt>
      <trkpt lat="42.8883340" lon="-0.0321080">
        <ele>941.4</ele>
        <time>2020-07-27T08:05:48Z</time>
      </trkpt>
      <trkpt lat="42.8883310" lon="-0.0322020">
        <ele>941.8</ele>
        <time>2020-07-27T08:05:50Z</time>
      </trkpt>
      <trkpt lat="42.8882780" lon="-0.0323070">
        <ele>942.8</ele>
        <time>2020-07-27T08:05:53Z</time>
      </trkpt>
      <trkpt lat="42.8882540" lon="-0.0323340">
        <ele>943.0</ele>
        <time>2020-07-27T08:05:54Z</time>
      </trkpt>
      <trkpt lat="42.8882070" lon="-0.0323800">
        <ele>943.6</ele>
        <time>2020-07-27T08:05:56Z</time>
      </trkpt>
      <trkpt lat="42.8881520" lon="-0.0324080">
        <ele>944.2</ele>
        <time>2020-07-27T08:05:58Z</time>
      </trkpt>
      <trkpt lat="42.8880940" lon="-0.0324380">
        <ele>945.0</ele>
        <time>2020-07-27T08:06:00Z</time>
      </trkpt>
      <trkpt lat="42.8880410" lon="-0.0324740">
        <ele>945.4</ele>
        <time>2020-07-27T08:06:02Z</time>
      </trkpt>
      <trkpt lat="42.8879470" lon="-0.0325980">
        <ele>946.4</ele>
        <time>2020-07-27T08:06:06Z</time>
      </trkpt>
      <trkpt lat="42.8879260" lon="-0.0326310">
        <ele>946.8</ele>
        <time>2020-07-27T08:06:07Z</time>
      </trkpt>
      <trkpt lat="42.8878790" lon="-0.0326910">
        <ele>947.4</ele>
        <time>2020-07-27T08:06:09Z</time>
      </trkpt>
      <trkpt lat="42.8877760" lon="-0.0327800">
        <ele>948.6</ele>
        <time>2020-07-27T08:06:13Z</time>
      </trkpt>
      <trkpt lat="42.8876070" lon="-0.0327740">
        <ele>950.0</ele>
        <time>2020-07-27T08:06:19Z</time>
      </trkpt>
      <trkpt lat="42.8875280" lon="-0.0327290">
        <ele>951.0</ele>
        <time>2020-07-27T08:06:22Z</time>
      </trkpt>
      <trkpt lat="42.8874550" lon="-0.0326710">
        <ele>951.6</ele>
        <time>2020-07-27T08:06:25Z</time>
      </trkpt>
      <trkpt lat="42.8874100" lon="-0.0326350">
        <ele>952.2</ele>
        <time>2020-07-27T08:06:27Z</time>
      </trkpt>
      <trkpt lat="42.8873110" lon="-0.0325560">
        <ele>953.6</ele>
        <time>2020-07-27T08:06:31Z</time>
      </trkpt>
      <trkpt lat="42.8872880" lon="-0.0325400">
        <ele>954.0</ele>
        <time>2020-07-27T08:06:32Z</time>
      </trkpt>
      <trkpt lat="42.8872380" lon="-0.0325060">
        <ele>954.8</ele>
        <time>2020-07-27T08:06:34Z</time>
      </trkpt>
      <trkpt lat="42.8871300" lon="-0.0324480">
        <ele>955.6</ele>
        <time>2020-07-27T08:06:38Z</time>
      </trkpt>
      <trkpt lat="42.8871030" lon="-0.0324340">
        <ele>955.8</ele>
        <time>2020-07-27T08:06:39Z</time>
      </trkpt>
      <trkpt lat="42.8870740" lon="-0.0324220">
        <ele>956.0</ele>
        <time>2020-07-27T08:06:40Z</time>
      </trkpt>
      <trkpt lat="42.8870200" lon="-0.0324120">
        <ele>956.8</ele>
        <time>2020-07-27T08:06:42Z</time>
      </trkpt>
      <trkpt lat="42.8869450" lon="-0.0324180">
        <ele>958.0</ele>
        <time>2020-07-27T08:06:45Z</time>
      </trkpt>
      <trkpt lat="42.8869190" lon="-0.0324230">
        <ele>958.2</ele>
        <time>2020-07-27T08:06:46Z</time>
      </trkpt>
      <trkpt lat="42.8868400" lon="-0.0324490">
        <ele>959.2</ele>
        <time>2020-07-27T08:06:49Z</time>
      </trkpt>
      <trkpt lat="42.8867150" lon="-0.0324830">
        <ele>960.4</ele>
        <time>2020-07-27T08:06:54Z</time>
      </trkpt>
      <trkpt lat="42.8866080" lon="-0.0324870">
        <ele>961.4</ele>
        <time>2020-07-27T08:06:58Z</time>
      </trkpt>
      <trkpt lat="42.8865000" lon="-0.0324500">
        <ele>962.2</ele>
        <time>2020-07-27T08:07:02Z</time>
      </trkpt>
      <trkpt lat="42.8864740" lon="-0.0324300">
        <ele>962.4</ele>
        <time>2020-07-27T08:07:03Z</time>
      </trkpt>
      <trkpt lat="42.8863680" lon="-0.0323750">
        <ele>963.4</ele>
        <time>2020-07-27T08:07:08Z</time>
      </trkpt>
      <trkpt lat="42.8863470" lon="-0.0323690">
        <ele>963.6</ele>
        <time>2020-07-27T08:07:09Z</time>
      </trkpt>
      <trkpt lat="42.8863100" lon="-0.0323830">
        <ele>964.2</ele>
        <time>2020-07-27T08:07:11Z</time>
      </trkpt>
      <trkpt lat="42.8862870" lon="-0.0324400">
        <ele>964.4</ele>
        <time>2020-07-27T08:07:13Z</time>
      </trkpt>
      <trkpt lat="42.8862850" lon="-0.0324740">
        <ele>964.6</ele>
        <time>2020-07-27T08:07:14Z</time>
      </trkpt>
      <trkpt lat="42.8863000" lon="-0.0325190">
        <ele>965.4</ele>
        <time>2020-07-27T08:07:16Z</time>
      </trkpt>
      <trkpt lat="42.8863130" lon="-0.0325270">
        <ele>965.8</ele>
        <time>2020-07-27T08:07:17Z</time>
      </trkpt>
      <trkpt lat="42.8863830" lon="-0.0325750">
        <ele>966.8</ele>
        <time>2020-07-27T08:07:21Z</time>
      </trkpt>
      <trkpt lat="42.8864540" lon="-0.0326050">
        <ele>968.0</ele>
        <time>2020-07-27T08:07:25Z</time>
      </trkpt>
      <trkpt lat="42.8865320" lon="-0.0326340">
        <ele>969.0</ele>
        <time>2020-07-27T08:07:29Z</time>
      </trkpt>
      <trkpt lat="42.8866210" lon="-0.0326530">
        <ele>969.8</ele>
        <time>2020-07-27T08:07:32Z</time>
      </trkpt>
      <trkpt lat="42.8866490" lon="-0.0326640">
        <ele>970.2</ele>
        <time>2020-07-27T08:07:33Z</time>
      </trkpt>
      <trkpt lat="42.8867180" lon="-0.0326890">
        <ele>971.2</ele>
        <time>2020-07-27T08:07:36Z</time>
      </trkpt>
      <trkpt lat="42.8867600" lon="-0.0327130">
        <ele>971.6</ele>
        <time>2020-07-27T08:07:38Z</time>
      </trkpt>
      <trkpt lat="42.8868810" lon="-0.0328310">
        <ele>972.4</ele>
        <time>2020-07-27T08:07:43Z</time>
      </trkpt>
      <trkpt lat="42.8869110" lon="-0.0328710">
        <ele>972.8</ele>
        <time>2020-07-27T08:07:44Z</time>
      </trkpt>
      <trkpt lat="42.8870180" lon="-0.0329810">
        <ele>973.8</ele>
        <time>2020-07-27T08:07:48Z</time>
      </trkpt>
      <trkpt lat="42.8870900" lon="-0.0330570">
        <ele>974.4</ele>
        <time>2020-07-27T08:07:50Z</time>
      </trkpt>
      <trkpt lat="42.8871470" lon="-0.0331400">
        <ele>974.8</ele>
        <time>2020-07-27T08:07:52Z</time>
      </trkpt>
      <trkpt lat="42.8872730" lon="-0.0333620">
        <ele>975.8</ele>
        <time>2020-07-27T08:07:57Z</time>
      </trkpt>
      <trkpt lat="42.8874080" lon="-0.0336060">
        <ele>976.6</ele>
        <time>2020-07-27T08:08:03Z</time>
      </trkpt>
      <trkpt lat="42.8874350" lon="-0.0336340">
        <ele>976.8</ele>
        <time>2020-07-27T08:08:04Z</time>
      </trkpt>
      <trkpt lat="42.8874630" lon="-0.0336590">
        <ele>977.2</ele>
        <time>2020-07-27T08:08:05Z</time>
      </trkpt>
      <trkpt lat="42.8875880" lon="-0.0337420">
        <ele>978.0</ele>
        <time>2020-07-27T08:08:09Z</time>
      </trkpt>
      <trkpt lat="42.8876670" lon="-0.0338050">
        <ele>979.0</ele>
        <time>2020-07-27T08:08:12Z</time>
      </trkpt>
      <trkpt lat="42.8876900" lon="-0.0338280">
        <ele>979.4</ele>
        <time>2020-07-27T08:08:13Z</time>
      </trkpt>
      <trkpt lat="42.8877350" lon="-0.0338770">
        <ele>980.0</ele>
        <time>2020-07-27T08:08:15Z</time>
      </trkpt>
      <trkpt lat="42.8877550" lon="-0.0339110">
        <ele>980.4</ele>
        <time>2020-07-27T08:08:16Z</time>
      </trkpt>
      <trkpt lat="42.8877820" lon="-0.0340310">
        <ele>981.2</ele>
        <time>2020-07-27T08:08:19Z</time>
      </trkpt>
      <trkpt lat="42.8877190" lon="-0.0341200">
        <ele>982.2</ele>
        <time>2020-07-27T08:08:22Z</time>
      </trkpt>
      <trkpt lat="42.8876870" lon="-0.0341260">
        <ele>982.4</ele>
        <time>2020-07-27T08:08:23Z</time>
      </trkpt>
      <trkpt lat="42.8875860" lon="-0.0340850">
        <ele>982.8</ele>
        <time>2020-07-27T08:08:26Z</time>
      </trkpt>
      <trkpt lat="42.8875000" lon="-0.0340130">
        <ele>983.4</ele>
        <time>2020-07-27T08:08:29Z</time>
      </trkpt>
      <trkpt lat="42.8873980" lon="-0.0339130">
        <ele>984.4</ele>
        <time>2020-07-27T08:08:33Z</time>
      </trkpt>
      <trkpt lat="42.8873770" lon="-0.0338910">
        <ele>984.6</ele>
        <time>2020-07-27T08:08:34Z</time>
      </trkpt>
      <trkpt lat="42.8872640" lon="-0.0338010">
        <ele>985.6</ele>
        <time>2020-07-27T08:08:39Z</time>
      </trkpt>
      <trkpt lat="42.8872400" lon="-0.0337850">
        <ele>985.8</ele>
        <time>2020-07-27T08:08:40Z</time>
      </trkpt>
      <trkpt lat="42.8871460" lon="-0.0337160">
        <ele>986.8</ele>
        <time>2020-07-27T08:08:44Z</time>
      </trkpt>
      <trkpt lat="42.8870600" lon="-0.0336780">
        <ele>987.4</ele>
        <time>2020-07-27T08:08:47Z</time>
      </trkpt>
      <trkpt lat="42.8870000" lon="-0.0336610">
        <ele>988.0</ele>
        <time>2020-07-27T08:08:49Z</time>
      </trkpt>
      <trkpt lat="42.8868920" lon="-0.0336300">
        <ele>989.2</ele>
        <time>2020-07-27T08:08:53Z</time>
      </trkpt>
      <trkpt lat="42.8868400" lon="-0.0336130">
        <ele>990.0</ele>
        <time>2020-07-27T08:08:55Z</time>
      </trkpt>
      <trkpt lat="42.8868170" lon="-0.0336040">
        <ele>990.2</ele>
        <time>2020-07-27T08:08:56Z</time>
      </trkpt>
      <trkpt lat="42.8867450" lon="-0.0335380">
        <ele>990.8</ele>
        <time>2020-07-27T08:09:00Z</time>
      </trkpt>
      <trkpt lat="42.8867090" lon="-0.0335060">
        <ele>991.2</ele>
        <time>2020-07-27T08:09:02Z</time>
      </trkpt>
      <trkpt lat="42.8866940" lon="-0.0334900">
        <ele>991.4</ele>
        <time>2020-07-27T08:09:03Z</time>
      </trkpt>
      <trkpt lat="42.8866490" lon="-0.0334350">
        <ele>992.4</ele>
        <time>2020-07-27T08:09:06Z</time>
      </trkpt>
      <trkpt lat="42.8865800" lon="-0.0333470">
        <ele>993.6</ele>
        <time>2020-07-27T08:09:10Z</time>
      </trkpt>
      <trkpt lat="42.8864870" lon="-0.0332430">
        <ele>994.6</ele>
        <time>2020-07-27T08:09:15Z</time>
      </trkpt>
      <trkpt lat="42.8864500" lon="-0.0332080">
        <ele>995.8</ele>
        <time>2020-07-27T08:09:17Z</time>
      </trkpt>
      <trkpt lat="42.8864340" lon="-0.0331890">
        <ele>996.2</ele>
        <time>2020-07-27T08:09:18Z</time>
      </trkpt>
      <trkpt lat="42.8864020" lon="-0.0331570">
        <ele>996.8</ele>
        <time>2020-07-27T08:09:20Z</time>
      </trkpt>
      <trkpt lat="42.8863340" lon="-0.0330740">
        <ele>998.0</ele>
        <time>2020-07-27T08:09:25Z</time>
      </trkpt>
      <trkpt lat="42.8863160" lon="-0.0330540">
        <ele>998.2</ele>
        <time>2020-07-27T08:09:26Z</time>
      </trkpt>
      <trkpt lat="42.8861820" lon="-0.0329990">
        <ele>999.2</ele>
        <time>2020-07-27T08:09:31Z</time>
      </trkpt>
      <trkpt lat="42.8860940" lon="-0.0329520">
        <ele>1000.2</ele>
        <time>2020-07-27T08:09:34Z</time>
      </trkpt>
      <trkpt lat="42.8860620" lon="-0.0329410">
        <ele>1000.6</ele>
        <time>2020-07-27T08:09:35Z</time>
      </trkpt>
      <trkpt lat="42.8859740" lon="-0.0329060">
        <ele>1001.4</ele>
        <time>2020-07-27T08:09:38Z</time>
      </trkpt>
      <trkpt lat="42.8858070" lon="-0.0328580">
        <ele>1002.6</ele>
        <time>2020-07-27T08:09:43Z</time>
      </trkpt>
      <trkpt lat="42.8857070" lon="-0.0328000">
        <ele>1003.8</ele>
        <time>2020-07-27T08:09:47Z</time>
      </trkpt>
      <trkpt lat="42.8856210" lon="-0.0327760">
        <ele>1004.6</ele>
        <time>2020-07-27T08:09:50Z</time>
      </trkpt>
      <trkpt lat="42.8855910" lon="-0.0327680">
        <ele>1004.8</ele>
        <time>2020-07-27T08:09:51Z</time>
      </trkpt>
      <trkpt lat="42.8855020" lon="-0.0327280">
        <ele>1006.0</ele>
        <time>2020-07-27T08:09:55Z</time>
      </trkpt>
      <trkpt lat="42.8854760" lon="-0.0327180">
        <ele>1006.2</ele>
        <time>2020-07-27T08:09:56Z</time>
      </trkpt>
      <trkpt lat="42.8853890" lon="-0.0327340">
        <ele>1007.0</ele>
        <time>2020-07-27T08:09:59Z</time>
      </trkpt>
      <trkpt lat="42.8853650" lon="-0.0327630">
        <ele>1007.2</ele>
        <time>2020-07-27T08:10:00Z</time>
      </trkpt>
      <trkpt lat="42.8853470" lon="-0.0327970">
        <ele>1007.4</ele>
        <time>2020-07-27T08:10:01Z</time>
      </trkpt>
      <trkpt lat="42.8853410" lon="-0.0328400">
        <ele>1007.4</ele>
        <time>2020-07-27T08:10:02Z</time>
      </trkpt>
      <trkpt lat="42.8853630" lon="-0.0329200">
        <ele>1007.8</ele>
        <time>2020-07-27T08:10:04Z</time>
      </trkpt>
      <trkpt lat="42.8853840" lon="-0.0329500">
        <ele>1008.2</ele>
        <time>2020-07-27T08:10:05Z</time>
      </trkpt>
      <trkpt lat="42.8854760" lon="-0.0330310">
        <ele>1009.0</ele>
        <time>2020-07-27T08:10:09Z</time>
      </trkpt>
      <trkpt lat="42.8854960" lon="-0.0330490">
        <ele>1009.4</ele>
        <time>2020-07-27T08:10:10Z</time>
      </trkpt>
      <trkpt lat="42.8855860" lon="-0.0331400">
        <ele>1010.4</ele>
        <time>2020-07-27T08:10:15Z</time>
      </trkpt>
      <trkpt lat="42.8856310" lon="-0.0331760">
        <ele>1010.8</ele>
        <time>2020-07-27T08:10:17Z</time>
      </trkpt>
      <trkpt lat="42.8856960" lon="-0.0332350">
        <ele>1011.6</ele>
        <time>2020-07-27T08:10:20Z</time>
      </trkpt>
      <trkpt lat="42.8857860" lon="-0.0333460">
        <ele>1013.0</ele>
        <time>2020-07-27T08:10:25Z</time>
      </trkpt>
      <trkpt lat="42.8858050" lon="-0.0333710">
        <ele>1013.6</ele>
        <time>2020-07-27T08:10:26Z</time>
      </trkpt>
      <trkpt lat="42.8858420" lon="-0.0334180">
        <ele>1014.0</ele>
        <time>2020-07-27T08:10:28Z</time>
      </trkpt>
      <trkpt lat="42.8858870" lon="-0.0334660">
        <ele>1014.6</ele>
        <time>2020-07-27T08:10:30Z</time>
      </trkpt>
      <trkpt lat="42.8859320" lon="-0.0335140">
        <ele>1015.2</ele>
        <time>2020-07-27T08:10:32Z</time>
      </trkpt>
      <trkpt lat="42.8859560" lon="-0.0335400">
        <ele>1015.4</ele>
        <time>2020-07-27T08:10:33Z</time>
      </trkpt>
      <trkpt lat="42.8860580" lon="-0.0336410">
        <ele>1016.4</ele>
        <time>2020-07-27T08:10:37Z</time>
      </trkpt>
      <trkpt lat="42.8861450" lon="-0.0337450">
        <ele>1017.4</ele>
        <time>2020-07-27T08:10:41Z</time>
      </trkpt>
      <trkpt lat="42.8861680" lon="-0.0337720">
        <ele>1017.8</ele>
        <time>2020-07-27T08:10:42Z</time>
      </trkpt>
      <trkpt lat="42.8862020" lon="-0.0338380">
        <ele>1018.4</ele>
        <time>2020-07-27T08:10:44Z</time>
      </trkpt>
      <trkpt lat="42.8862620" lon="-0.0339670">
        <ele>1019.6</ele>
        <time>2020-07-27T08:10:48Z</time>
      </trkpt>
      <trkpt lat="42.8863350" lon="-0.0341130">
        <ele>1020.8</ele>
        <time>2020-07-27T08:10:53Z</time>
      </trkpt>
      <trkpt lat="42.8863560" lon="-0.0341720">
        <ele>1021.4</ele>
        <time>2020-07-27T08:10:55Z</time>
      </trkpt>
      <trkpt lat="42.8863810" lon="-0.0342270">
        <ele>1022.2</ele>
        <time>2020-07-27T08:10:57Z</time>
      </trkpt>
      <trkpt lat="42.8863950" lon="-0.0342530">
        <ele>1022.4</ele>
        <time>2020-07-27T08:10:58Z</time>
      </trkpt>
      <trkpt lat="42.8864340" lon="-0.0343290">
        <ele>1023.0</ele>
        <time>2020-07-27T08:11:01Z</time>
      </trkpt>
      <trkpt lat="42.8864430" lon="-0.0343530">
        <ele>1023.4</ele>
        <time>2020-07-27T08:11:02Z</time>
      </trkpt>
      <trkpt lat="42.8864530" lon="-0.0343790">
        <ele>1023.8</ele>
        <time>2020-07-27T08:11:03Z</time>
      </trkpt>
      <trkpt lat="42.8864730" lon="-0.0344240">
        <ele>1024.6</ele>
        <time>2020-07-27T08:11:05Z</time>
      </trkpt>
      <trkpt lat="42.8865250" lon="-0.0345350">
        <ele>1025.4</ele>
        <time>2020-07-27T08:11:10Z</time>
      </trkpt>
      <trkpt lat="42.8865370" lon="-0.0345580">
        <ele>1025.4</ele>
        <time>2020-07-27T08:11:11Z</time>
      </trkpt>
      <trkpt lat="42.8865490" lon="-0.0345820">
        <ele>1025.6</ele>
        <time>2020-07-27T08:11:12Z</time>
      </trkpt>
      <trkpt lat="42.8865930" lon="-0.0346850">
        <ele>1027.0</ele>
        <time>2020-07-27T08:11:16Z</time>
      </trkpt>
      <trkpt lat="42.8866390" lon="-0.0348010">
        <ele>1028.2</ele>
        <time>2020-07-27T08:11:20Z</time>
      </trkpt>
      <trkpt lat="42.8866490" lon="-0.0348300">
        <ele>1028.6</ele>
        <time>2020-07-27T08:11:21Z</time>
      </trkpt>
      <trkpt lat="42.8866770" lon="-0.0349040">
        <ele>1029.4</ele>
        <time>2020-07-27T08:11:24Z</time>
      </trkpt>
      <trkpt lat="42.8867350" lon="-0.0350540">
        <ele>1030.6</ele>
        <time>2020-07-27T08:11:30Z</time>
      </trkpt>
      <trkpt lat="42.8867870" lon="-0.0351510">
        <ele>1031.6</ele>
        <time>2020-07-27T08:11:34Z</time>
      </trkpt>
      <trkpt lat="42.8868670" lon="-0.0352320">
        <ele>1032.6</ele>
        <time>2020-07-27T08:11:38Z</time>
      </trkpt>
      <trkpt lat="42.8869520" lon="-0.0353880">
        <ele>1034.0</ele>
        <time>2020-07-27T08:11:44Z</time>
      </trkpt>
      <trkpt lat="42.8869790" lon="-0.0354420">
        <ele>1034.6</ele>
        <time>2020-07-27T08:11:46Z</time>
      </trkpt>
      <trkpt lat="42.8870350" lon="-0.0355440">
        <ele>1035.0</ele>
        <time>2020-07-27T08:11:50Z</time>
      </trkpt>
      <trkpt lat="42.8871020" lon="-0.0356390">
        <ele>1035.8</ele>
        <time>2020-07-27T08:11:54Z</time>
      </trkpt>
      <trkpt lat="42.8871220" lon="-0.0356600">
        <ele>1036.0</ele>
        <time>2020-07-27T08:11:55Z</time>
      </trkpt>
      <trkpt lat="42.8871980" lon="-0.0357440">
        <ele>1037.2</ele>
        <time>2020-07-27T08:11:59Z</time>
      </trkpt>
      <trkpt lat="42.8872530" lon="-0.0358150">
        <ele>1038.2</ele>
        <time>2020-07-27T08:12:02Z</time>
      </trkpt>
      <trkpt lat="42.8872680" lon="-0.0358390">
        <ele>1038.4</ele>
        <time>2020-07-27T08:12:03Z</time>
      </trkpt>
      <trkpt lat="42.8873330" lon="-0.0359050">
        <ele>1039.4</ele>
        <time>2020-07-27T08:12:06Z</time>
      </trkpt>
      <trkpt lat="42.8874090" lon="-0.0359870">
        <ele>1040.4</ele>
        <time>2020-07-27T08:12:10Z</time>
      </trkpt>
      <trkpt lat="42.8874300" lon="-0.0360080">
        <ele>1040.6</ele>
        <time>2020-07-27T08:12:11Z</time>
      </trkpt>
      <trkpt lat="42.8875130" lon="-0.0360820">
        <ele>1041.6</ele>
        <time>2020-07-27T08:12:15Z</time>
      </trkpt>
      <trkpt lat="42.8875920" lon="-0.0361650">
        <ele>1042.6</ele>
        <time>2020-07-27T08:12:19Z</time>
      </trkpt>
      <trkpt lat="42.8877280" lon="-0.0363060">
        <ele>1043.6</ele>
        <time>2020-07-27T08:12:25Z</time>
      </trkpt>
      <trkpt lat="42.8877490" lon="-0.0363330">
        <ele>1043.8</ele>
        <time>2020-07-27T08:12:26Z</time>
      </trkpt>
      <trkpt lat="42.8878260" lon="-0.0364350">
        <ele>1044.8</ele>
        <time>2020-07-27T08:12:30Z</time>
      </trkpt>
      <trkpt lat="42.8879240" lon="-0.0365470">
        <ele>1045.8</ele>
        <time>2020-07-27T08:12:36Z</time>
      </trkpt>
      <trkpt lat="42.8880200" lon="-0.0366090">
        <ele>1046.6</ele>
        <time>2020-07-27T08:12:41Z</time>
      </trkpt>
      <trkpt lat="42.8880650" lon="-0.0366200">
        <ele>1047.0</ele>
        <time>2020-07-27T08:12:43Z</time>
      </trkpt>
      <trkpt lat="42.8882460" lon="-0.0365990">
        <ele>1048.0</ele>
        <time>2020-07-27T08:12:49Z</time>
      </trkpt>
      <trkpt lat="42.8882790" lon="-0.0365880">
        <ele>1048.0</ele>
        <time>2020-07-27T08:12:50Z</time>
      </trkpt>
      <trkpt lat="42.8883030" lon="-0.0365830">
        <ele>1048.0</ele>
        <time>2020-07-27T08:12:51Z</time>
      </trkpt>
      <trkpt lat="42.8884690" lon="-0.0365070">
        <ele>1048.8</ele>
        <time>2020-07-27T08:12:57Z</time>
      </trkpt>
      <trkpt lat="42.8884960" lon="-0.0364960">
        <ele>1049.0</ele>
        <time>2020-07-27T08:12:58Z</time>
      </trkpt>
      <trkpt lat="42.8885500" lon="-0.0364700">
        <ele>1049.4</ele>
        <time>2020-07-27T08:13:00Z</time>
      </trkpt>
      <trkpt lat="42.8886410" lon="-0.0363980">
        <ele>1050.0</ele>
        <time>2020-07-27T08:13:04Z</time>
      </trkpt>
      <trkpt lat="42.8886630" lon="-0.0363790">
        <ele>1050.2</ele>
        <time>2020-07-27T08:13:05Z</time>
      </trkpt>
      <trkpt lat="42.8887970" lon="-0.0362960">
        <ele>1051.6</ele>
        <time>2020-07-27T08:13:10Z</time>
      </trkpt>
      <trkpt lat="42.8888530" lon="-0.0362760">
        <ele>1052.0</ele>
        <time>2020-07-27T08:13:12Z</time>
      </trkpt>
      <trkpt lat="42.8889560" lon="-0.0362510">
        <ele>1052.8</ele>
        <time>2020-07-27T08:13:16Z</time>
      </trkpt>
      <trkpt lat="42.8890140" lon="-0.0362410">
        <ele>1053.2</ele>
        <time>2020-07-27T08:13:18Z</time>
      </trkpt>
      <trkpt lat="42.8890710" lon="-0.0362410">
        <ele>1053.8</ele>
        <time>2020-07-27T08:13:20Z</time>
      </trkpt>
      <trkpt lat="42.8891530" lon="-0.0362380">
        <ele>1055.0</ele>
        <time>2020-07-27T08:13:23Z</time>
      </trkpt>
      <trkpt lat="42.8892360" lon="-0.0362240">
        <ele>1056.0</ele>
        <time>2020-07-27T08:13:26Z</time>
      </trkpt>
      <trkpt lat="42.8892630" lon="-0.0362130">
        <ele>1056.2</ele>
        <time>2020-07-27T08:13:27Z</time>
      </trkpt>
      <trkpt lat="42.8894040" lon="-0.0361640">
        <ele>1057.2</ele>
        <time>2020-07-27T08:13:32Z</time>
      </trkpt>
      <trkpt lat="42.8894740" lon="-0.0361340">
        <ele>1058.4</ele>
        <time>2020-07-27T08:13:35Z</time>
      </trkpt>
      <trkpt lat="42.8895930" lon="-0.0360790">
        <ele>1059.4</ele>
        <time>2020-07-27T08:13:40Z</time>
      </trkpt>
      <trkpt lat="42.8896170" lon="-0.0360690">
        <ele>1059.4</ele>
        <time>2020-07-27T08:13:41Z</time>
      </trkpt>
      <trkpt lat="42.8897130" lon="-0.0360480">
        <ele>1060.6</ele>
        <time>2020-07-27T08:13:45Z</time>
      </trkpt>
      <trkpt lat="42.8897830" lon="-0.0360210">
        <ele>1061.6</ele>
        <time>2020-07-27T08:13:48Z</time>
      </trkpt>
      <trkpt lat="42.8899210" lon="-0.0360120">
        <ele>1062.4</ele>
        <time>2020-07-27T08:13:54Z</time>
      </trkpt>
      <trkpt lat="42.8899420" lon="-0.0360120">
        <ele>1062.8</ele>
        <time>2020-07-27T08:13:55Z</time>
      </trkpt>
      <trkpt lat="42.8900160" lon="-0.0360290">
        <ele>1064.0</ele>
        <time>2020-07-27T08:13:59Z</time>
      </trkpt>
      <trkpt lat="42.8900900" lon="-0.0360520">
        <ele>1064.6</ele>
        <time>2020-07-27T08:14:02Z</time>
      </trkpt>
      <trkpt lat="42.8901440" lon="-0.0360660">
        <ele>1065.0</ele>
        <time>2020-07-27T08:14:04Z</time>
      </trkpt>
      <trkpt lat="42.8902640" lon="-0.0360900">
        <ele>1065.8</ele>
        <time>2020-07-27T08:14:08Z</time>
      </trkpt>
      <trkpt lat="42.8903230" lon="-0.0360970">
        <ele>1066.2</ele>
        <time>2020-07-27T08:14:10Z</time>
      </trkpt>
      <trkpt lat="42.8904530" lon="-0.0361190">
        <ele>1067.2</ele>
        <time>2020-07-27T08:14:15Z</time>
      </trkpt>
      <trkpt lat="42.8905050" lon="-0.0361240">
        <ele>1067.6</ele>
        <time>2020-07-27T08:14:17Z</time>
      </trkpt>
      <trkpt lat="42.8905820" lon="-0.0361210">
        <ele>1068.2</ele>
        <time>2020-07-27T08:14:20Z</time>
      </trkpt>
      <trkpt lat="42.8906820" lon="-0.0361230">
        <ele>1068.8</ele>
        <time>2020-07-27T08:14:24Z</time>
      </trkpt>
      <trkpt lat="42.8907300" lon="-0.0361270">
        <ele>1069.4</ele>
        <time>2020-07-27T08:14:26Z</time>
      </trkpt>
      <trkpt lat="42.8908520" lon="-0.0361380">
        <ele>1070.4</ele>
        <time>2020-07-27T08:14:31Z</time>
      </trkpt>
      <trkpt lat="42.8909250" lon="-0.0361360">
        <ele>1071.0</ele>
        <time>2020-07-27T08:14:34Z</time>
      </trkpt>
      <trkpt lat="42.8909970" lon="-0.0361280">
        <ele>1071.6</ele>
        <time>2020-07-27T08:14:37Z</time>
      </trkpt>
      <trkpt lat="42.8910990" lon="-0.0361190">
        <ele>1072.6</ele>
        <time>2020-07-27T08:14:41Z</time>
      </trkpt>
      <trkpt lat="42.8911260" lon="-0.0361190">
        <ele>1072.8</ele>
        <time>2020-07-27T08:14:42Z</time>
      </trkpt>
      <trkpt lat="42.8912060" lon="-0.0361150">
        <ele>1074.0</ele>
        <time>2020-07-27T08:14:45Z</time>
      </trkpt>
      <trkpt lat="42.8913090" lon="-0.0361170">
        <ele>1075.2</ele>
        <time>2020-07-27T08:14:49Z</time>
      </trkpt>
      <trkpt lat="42.8913620" lon="-0.0361260">
        <ele>1075.6</ele>
        <time>2020-07-27T08:14:51Z</time>
      </trkpt>
      <trkpt lat="42.8914210" lon="-0.0361290">
        <ele>1076.4</ele>
        <time>2020-07-27T08:14:53Z</time>
      </trkpt>
      <trkpt lat="42.8915090" lon="-0.0361340">
        <ele>1077.4</ele>
        <time>2020-07-27T08:14:56Z</time>
      </trkpt>
      <trkpt lat="42.8915380" lon="-0.0361380">
        <ele>1077.8</ele>
        <time>2020-07-27T08:14:57Z</time>
      </trkpt>
      <trkpt lat="42.8916170" lon="-0.0361490">
        <ele>1078.6</ele>
        <time>2020-07-27T08:15:00Z</time>
      </trkpt>
      <trkpt lat="42.8916770" lon="-0.0361680">
        <ele>1079.4</ele>
        <time>2020-07-27T08:15:03Z</time>
      </trkpt>
      <trkpt lat="42.8916940" lon="-0.0361750">
        <ele>1079.8</ele>
        <time>2020-07-27T08:15:04Z</time>
      </trkpt>
      <trkpt lat="42.8917950" lon="-0.0362050">
        <ele>1080.8</ele>
        <time>2020-07-27T08:15:10Z</time>
      </trkpt>
      <trkpt lat="42.8918870" lon="-0.0362350">
        <ele>1082.0</ele>
        <time>2020-07-27T08:15:14Z</time>
      </trkpt>
      <trkpt lat="42.8919530" lon="-0.0362710">
        <ele>1082.6</ele>
        <time>2020-07-27T08:15:17Z</time>
      </trkpt>
      <trkpt lat="42.8919970" lon="-0.0362920">
        <ele>1083.0</ele>
        <time>2020-07-27T08:15:19Z</time>
      </trkpt>
      <trkpt lat="42.8921060" lon="-0.0363370">
        <ele>1084.0</ele>
        <time>2020-07-27T08:15:24Z</time>
      </trkpt>
      <trkpt lat="42.8922020" lon="-0.0363500">
        <ele>1085.0</ele>
        <time>2020-07-27T08:15:28Z</time>
      </trkpt>
      <trkpt lat="42.8922990" lon="-0.0363670">
        <ele>1086.2</ele>
        <time>2020-07-27T08:15:32Z</time>
      </trkpt>
      <trkpt lat="42.8923720" lon="-0.0363870">
        <ele>1087.0</ele>
        <time>2020-07-27T08:15:35Z</time>
      </trkpt>
      <trkpt lat="42.8923950" lon="-0.0363930">
        <ele>1087.4</ele>
        <time>2020-07-27T08:15:36Z</time>
      </trkpt>
      <trkpt lat="42.8925020" lon="-0.0364390">
        <ele>1088.8</ele>
        <time>2020-07-27T08:15:41Z</time>
      </trkpt>
      <trkpt lat="42.8926150" lon="-0.0364460">
        <ele>1090.0</ele>
        <time>2020-07-27T08:15:46Z</time>
      </trkpt>
      <trkpt lat="42.8926550" lon="-0.0364530">
        <ele>1090.6</ele>
        <time>2020-07-27T08:15:48Z</time>
      </trkpt>
      <trkpt lat="42.8926970" lon="-0.0364780">
        <ele>1091.0</ele>
        <time>2020-07-27T08:15:50Z</time>
      </trkpt>
      <trkpt lat="42.8927780" lon="-0.0365430">
        <ele>1092.0</ele>
        <time>2020-07-27T08:15:54Z</time>
      </trkpt>
      <trkpt lat="42.8927960" lon="-0.0365620">
        <ele>1092.2</ele>
        <time>2020-07-27T08:15:55Z</time>
      </trkpt>
      <trkpt lat="42.8928420" lon="-0.0366730">
        <ele>1092.6</ele>
        <time>2020-07-27T08:15:59Z</time>
      </trkpt>
      <trkpt lat="42.8928200" lon="-0.0367670">
        <ele>1093.4</ele>
        <time>2020-07-27T08:16:02Z</time>
      </trkpt>
      <trkpt lat="42.8928020" lon="-0.0367900">
        <ele>1093.6</ele>
        <time>2020-07-27T08:16:03Z</time>
      </trkpt>
      <trkpt lat="42.8927020" lon="-0.0368260">
        <ele>1094.6</ele>
        <time>2020-07-27T08:16:07Z</time>
      </trkpt>
      <trkpt lat="42.8926760" lon="-0.0368270">
        <ele>1094.8</ele>
        <time>2020-07-27T08:16:08Z</time>
      </trkpt>
      <trkpt lat="42.8925640" lon="-0.0368360">
        <ele>1095.8</ele>
        <time>2020-07-27T08:16:12Z</time>
      </trkpt>
      <trkpt lat="42.8924840" lon="-0.0368350">
        <ele>1096.2</ele>
        <time>2020-07-27T08:16:15Z</time>
      </trkpt>
      <trkpt lat="42.8924040" lon="-0.0368310">
        <ele>1097.0</ele>
        <time>2020-07-27T08:16:18Z</time>
      </trkpt>
      <trkpt lat="42.8923030" lon="-0.0368550">
        <ele>1098.0</ele>
        <time>2020-07-27T08:16:22Z</time>
      </trkpt>
      <trkpt lat="42.8922560" lon="-0.0368740">
        <ele>1098.4</ele>
        <time>2020-07-27T08:16:24Z</time>
      </trkpt>
      <trkpt lat="42.8922130" lon="-0.0369000">
        <ele>1099.0</ele>
        <time>2020-07-27T08:16:26Z</time>
      </trkpt>
      <trkpt lat="42.8921320" lon="-0.0369640">
        <ele>1100.0</ele>
        <time>2020-07-27T08:16:30Z</time>
      </trkpt>
      <trkpt lat="42.8920780" lon="-0.0370250">
        <ele>1100.6</ele>
        <time>2020-07-27T08:16:33Z</time>
      </trkpt>
      <trkpt lat="42.8920450" lon="-0.0370540">
        <ele>1101.2</ele>
        <time>2020-07-27T08:16:35Z</time>
      </trkpt>
      <trkpt lat="42.8919820" lon="-0.0370920">
        <ele>1101.8</ele>
        <time>2020-07-27T08:16:38Z</time>
      </trkpt>
      <trkpt lat="42.8919430" lon="-0.0371250">
        <ele>1102.4</ele>
        <time>2020-07-27T08:16:40Z</time>
      </trkpt>
      <trkpt lat="42.8918810" lon="-0.0371730">
        <ele>1103.6</ele>
        <time>2020-07-27T08:16:43Z</time>
      </trkpt>
      <trkpt lat="42.8918230" lon="-0.0372240">
        <ele>1104.4</ele>
        <time>2020-07-27T08:16:46Z</time>
      </trkpt>
      <trkpt lat="42.8918030" lon="-0.0372380">
        <ele>1104.6</ele>
        <time>2020-07-27T08:16:47Z</time>
      </trkpt>
      <trkpt lat="42.8916830" lon="-0.0373290">
        <ele>1105.4</ele>
        <time>2020-07-27T08:16:53Z</time>
      </trkpt>
      <trkpt lat="42.8916650" lon="-0.0373460">
        <ele>1105.6</ele>
        <time>2020-07-27T08:16:54Z</time>
      </trkpt>
      <trkpt lat="42.8916460" lon="-0.0373610">
        <ele>1105.8</ele>
        <time>2020-07-27T08:16:55Z</time>
      </trkpt>
      <trkpt lat="42.8915700" lon="-0.0374220">
        <ele>1106.8</ele>
        <time>2020-07-27T08:16:59Z</time>
      </trkpt>
      <trkpt lat="42.8914820" lon="-0.0374730">
        <ele>1107.6</ele>
        <time>2020-07-27T08:17:03Z</time>
      </trkpt>
      <trkpt lat="42.8914430" lon="-0.0375080">
        <ele>1108.0</ele>
        <time>2020-07-27T08:17:05Z</time>
      </trkpt>
      <trkpt lat="42.8913390" lon="-0.0375820">
        <ele>1109.2</ele>
        <time>2020-07-27T08:17:10Z</time>
      </trkpt>
      <trkpt lat="42.8913170" lon="-0.0375920">
        <ele>1109.4</ele>
        <time>2020-07-27T08:17:11Z</time>
      </trkpt>
      <trkpt lat="42.8912090" lon="-0.0376470">
        <ele>1110.2</ele>
        <time>2020-07-27T08:17:16Z</time>
      </trkpt>
      <trkpt lat="42.8911430" lon="-0.0376810">
        <ele>1111.4</ele>
        <time>2020-07-27T08:17:19Z</time>
      </trkpt>
      <trkpt lat="42.8910960" lon="-0.0377050">
        <ele>1111.8</ele>
        <time>2020-07-27T08:17:21Z</time>
      </trkpt>
      <trkpt lat="42.8909750" lon="-0.0377990">
        <ele>1112.4</ele>
        <time>2020-07-27T08:17:27Z</time>
      </trkpt>
      <trkpt lat="42.8909210" lon="-0.0378620">
        <ele>1113.4</ele>
        <time>2020-07-27T08:17:30Z</time>
      </trkpt>
      <trkpt lat="42.8909020" lon="-0.0378810">
        <ele>1113.6</ele>
        <time>2020-07-27T08:17:31Z</time>
      </trkpt>
      <trkpt lat="42.8907740" lon="-0.0379580">
        <ele>1114.2</ele>
        <time>2020-07-27T08:17:37Z</time>
      </trkpt>
      <trkpt lat="42.8907320" lon="-0.0379840">
        <ele>1114.6</ele>
        <time>2020-07-27T08:17:39Z</time>
      </trkpt>
      <trkpt lat="42.8906510" lon="-0.0380360">
        <ele>1115.6</ele>
        <time>2020-07-27T08:17:43Z</time>
      </trkpt>
      <trkpt lat="42.8905790" lon="-0.0380640">
        <ele>1116.4</ele>
        <time>2020-07-27T08:17:46Z</time>
      </trkpt>
      <trkpt lat="42.8905530" lon="-0.0380760">
        <ele>1116.8</ele>
        <time>2020-07-27T08:17:47Z</time>
      </trkpt>
      <trkpt lat="42.8904540" lon="-0.0381040">
        <ele>1117.8</ele>
        <time>2020-07-27T08:17:51Z</time>
      </trkpt>
      <trkpt lat="42.8903840" lon="-0.0381360">
        <ele>1118.4</ele>
        <time>2020-07-27T08:17:54Z</time>
      </trkpt>
      <trkpt lat="42.8903570" lon="-0.0381430">
        <ele>1118.4</ele>
        <time>2020-07-27T08:17:55Z</time>
      </trkpt>
      <trkpt lat="42.8903050" lon="-0.0381510">
        <ele>1119.0</ele>
        <time>2020-07-27T08:17:57Z</time>
      </trkpt>
      <trkpt lat="42.8902160" lon="-0.0381800">
        <ele>1120.2</ele>
        <time>2020-07-27T08:18:01Z</time>
      </trkpt>
      <trkpt lat="42.8901920" lon="-0.0381860">
        <ele>1120.4</ele>
        <time>2020-07-27T08:18:02Z</time>
      </trkpt>
      <trkpt lat="42.8901210" lon="-0.0382080">
        <ele>1121.2</ele>
        <time>2020-07-27T08:18:05Z</time>
      </trkpt>
      <trkpt lat="42.8900290" lon="-0.0382400">
        <ele>1122.4</ele>
        <time>2020-07-27T08:18:09Z</time>
      </trkpt>
      <trkpt lat="42.8900090" lon="-0.0382470">
        <ele>1122.6</ele>
        <time>2020-07-27T08:18:10Z</time>
      </trkpt>
      <trkpt lat="42.8899160" lon="-0.0382940">
        <ele>1123.8</ele>
        <time>2020-07-27T08:18:15Z</time>
      </trkpt>
      <trkpt lat="42.8898730" lon="-0.0383090">
        <ele>1124.2</ele>
        <time>2020-07-27T08:18:17Z</time>
      </trkpt>
      <trkpt lat="42.8898500" lon="-0.0383160">
        <ele>1124.4</ele>
        <time>2020-07-27T08:18:18Z</time>
      </trkpt>
      <trkpt lat="42.8898110" lon="-0.0383340">
        <ele>1124.6</ele>
        <time>2020-07-27T08:18:20Z</time>
      </trkpt>
      <trkpt lat="42.8897730" lon="-0.0383580">
        <ele>1124.8</ele>
        <time>2020-07-27T08:18:22Z</time>
      </trkpt>
      <trkpt lat="42.8897090" lon="-0.0383820">
        <ele>1126.0</ele>
        <time>2020-07-27T08:18:25Z</time>
      </trkpt>
      <trkpt lat="42.8896870" lon="-0.0383900">
        <ele>1126.4</ele>
        <time>2020-07-27T08:18:26Z</time>
      </trkpt>
      <trkpt lat="42.8895950" lon="-0.0384380">
        <ele>1127.2</ele>
        <time>2020-07-27T08:18:30Z</time>
      </trkpt>
      <trkpt lat="42.8894790" lon="-0.0385080">
        <ele>1128.2</ele>
        <time>2020-07-27T08:18:35Z</time>
      </trkpt>
      <trkpt lat="42.8894490" lon="-0.0385230">
        <ele>1128.4</ele>
        <time>2020-07-27T08:18:36Z</time>
      </trkpt>
      <trkpt lat="42.8894080" lon="-0.0385680">
        <ele>1128.6</ele>
        <time>2020-07-27T08:18:38Z</time>
      </trkpt>
      <trkpt lat="42.8894020" lon="-0.0386240">
        <ele>1129.4</ele>
        <time>2020-07-27T08:18:40Z</time>
      </trkpt>
      <trkpt lat="42.8894150" lon="-0.0386470">
        <ele>1129.6</ele>
        <time>2020-07-27T08:18:41Z</time>
      </trkpt>
      <trkpt lat="42.8894360" lon="-0.0386600">
        <ele>1129.8</ele>
        <time>2020-07-27T08:18:42Z</time>
      </trkpt>
      <trkpt lat="42.8894860" lon="-0.0386500">
        <ele>1130.4</ele>
        <time>2020-07-27T08:18:44Z</time>
      </trkpt>
      <trkpt lat="42.8895120" lon="-0.0386380">
        <ele>1130.8</ele>
        <time>2020-07-27T08:18:45Z</time>
      </trkpt>
      <trkpt lat="42.8896350" lon="-0.0385750">
        <ele>1131.8</ele>
        <time>2020-07-27T08:18:50Z</time>
      </trkpt>
      <trkpt lat="42.8896900" lon="-0.0385550">
        <ele>1132.2</ele>
        <time>2020-07-27T08:18:52Z</time>
      </trkpt>
      <trkpt lat="42.8898070" lon="-0.0385200">
        <ele>1133.0</ele>
        <time>2020-07-27T08:18:56Z</time>
      </trkpt>
      <trkpt lat="42.8899000" lon="-0.0385120">
        <ele>1134.0</ele>
        <time>2020-07-27T08:18:59Z</time>
      </trkpt>
      <trkpt lat="42.8899300" lon="-0.0385120">
        <ele>1134.4</ele>
        <time>2020-07-27T08:19:00Z</time>
      </trkpt>
      <trkpt lat="42.8900480" lon="-0.0385190">
        <ele>1135.4</ele>
        <time>2020-07-27T08:19:05Z</time>
      </trkpt>
      <trkpt lat="42.8900970" lon="-0.0385220">
        <ele>1136.0</ele>
        <time>2020-07-27T08:19:07Z</time>
      </trkpt>
      <trkpt lat="42.8901730" lon="-0.0385170">
        <ele>1136.4</ele>
        <time>2020-07-27T08:19:10Z</time>
      </trkpt>
      <trkpt lat="42.8903070" lon="-0.0384950">
        <ele>1137.6</ele>
        <time>2020-07-27T08:19:15Z</time>
      </trkpt>
      <trkpt lat="42.8904500" lon="-0.0384690">
        <ele>1138.8</ele>
        <time>2020-07-27T08:19:20Z</time>
      </trkpt>
      <trkpt lat="42.8905080" lon="-0.0384610">
        <ele>1139.4</ele>
        <time>2020-07-27T08:19:22Z</time>
      </trkpt>
      <trkpt lat="42.8905690" lon="-0.0384490">
        <ele>1140.0</ele>
        <time>2020-07-27T08:19:24Z</time>
      </trkpt>
      <trkpt lat="42.8907160" lon="-0.0384040">
        <ele>1141.2</ele>
        <time>2020-07-27T08:19:29Z</time>
      </trkpt>
      <trkpt lat="42.8907430" lon="-0.0383930">
        <ele>1141.6</ele>
        <time>2020-07-27T08:19:30Z</time>
      </trkpt>
      <trkpt lat="42.8908040" lon="-0.0383750">
        <ele>1142.2</ele>
        <time>2020-07-27T08:19:32Z</time>
      </trkpt>
      <trkpt lat="42.8909330" lon="-0.0383720">
        <ele>1143.4</ele>
        <time>2020-07-27T08:19:36Z</time>
      </trkpt>
      <trkpt lat="42.8909650" lon="-0.0383780">
        <ele>1143.6</ele>
        <time>2020-07-27T08:19:37Z</time>
      </trkpt>
      <trkpt lat="42.8910610" lon="-0.0383830">
        <ele>1144.4</ele>
        <time>2020-07-27T08:19:40Z</time>
      </trkpt>
      <trkpt lat="42.8911940" lon="-0.0384460">
        <ele>1145.6</ele>
        <time>2020-07-27T08:19:44Z</time>
      </trkpt>
      <trkpt lat="42.8913660" lon="-0.0385140">
        <ele>1146.4</ele>
        <time>2020-07-27T08:19:50Z</time>
      </trkpt>
      <trkpt lat="42.8913900" lon="-0.0385280">
        <ele>1147.0</ele>
        <time>2020-07-27T08:19:51Z</time>
      </trkpt>
      <trkpt lat="42.8914330" lon="-0.0385470">
        <ele>1148.0</ele>
        <time>2020-07-27T08:19:53Z</time>
      </trkpt>
      <trkpt lat="42.8915690" lon="-0.0385990">
        <ele>1149.4</ele>
        <time>2020-07-27T08:19:59Z</time>
      </trkpt>
      <trkpt lat="42.8916250" lon="-0.0386160">
        <ele>1150.0</ele>
        <time>2020-07-27T08:20:01Z</time>
      </trkpt>
      <trkpt lat="42.8916920" lon="-0.0386290">
        <ele>1150.4</ele>
        <time>2020-07-27T08:20:03Z</time>
      </trkpt>
      <trkpt lat="42.8918510" lon="-0.0386090">
        <ele>1151.2</ele>
        <time>2020-07-27T08:20:07Z</time>
      </trkpt>
      <trkpt lat="42.8919230" lon="-0.0386000">
        <ele>1151.6</ele>
        <time>2020-07-27T08:20:09Z</time>
      </trkpt>
      <trkpt lat="42.8920310" lon="-0.0385970">
        <ele>1152.6</ele>
        <time>2020-07-27T08:20:12Z</time>
      </trkpt>
      <trkpt lat="42.8921290" lon="-0.0385840">
        <ele>1153.4</ele>
        <time>2020-07-27T08:20:15Z</time>
      </trkpt>
      <trkpt lat="42.8921590" lon="-0.0385810">
        <ele>1153.8</ele>
        <time>2020-07-27T08:20:16Z</time>
      </trkpt>
      <trkpt lat="42.8922740" lon="-0.0385660">
        <ele>1155.2</ele>
        <time>2020-07-27T08:20:20Z</time>
      </trkpt>
      <trkpt lat="42.8923280" lon="-0.0385580">
        <ele>1156.2</ele>
        <time>2020-07-27T08:20:22Z</time>
      </trkpt>
      <trkpt lat="42.8923540" lon="-0.0385530">
        <ele>1156.4</ele>
        <time>2020-07-27T08:20:23Z</time>
      </trkpt>
      <trkpt lat="42.8924270" lon="-0.0385470">
        <ele>1157.2</ele>
        <time>2020-07-27T08:20:26Z</time>
      </trkpt>
      <trkpt lat="42.8925310" lon="-0.0385460">
        <ele>1158.0</ele>
        <time>2020-07-27T08:20:30Z</time>
      </trkpt>
      <trkpt lat="42.8925570" lon="-0.0385450">
        <ele>1158.4</ele>
        <time>2020-07-27T08:20:31Z</time>
      </trkpt>
      <trkpt lat="42.8926480" lon="-0.0385560">
        <ele>1159.4</ele>
        <time>2020-07-27T08:20:34Z</time>
      </trkpt>
      <trkpt lat="42.8927250" lon="-0.0385550">
        <ele>1160.2</ele>
        <time>2020-07-27T08:20:37Z</time>
      </trkpt>
      <trkpt lat="42.8927510" lon="-0.0385650">
        <ele>1160.6</ele>
        <time>2020-07-27T08:20:38Z</time>
      </trkpt>
      <trkpt lat="42.8928720" lon="-0.0386050">
        <ele>1161.8</ele>
        <time>2020-07-27T08:20:43Z</time>
      </trkpt>
      <trkpt lat="42.8929420" lon="-0.0386390">
        <ele>1163.0</ele>
        <time>2020-07-27T08:20:47Z</time>
      </trkpt>
      <trkpt lat="42.8930020" lon="-0.0386700">
        <ele>1163.8</ele>
        <time>2020-07-27T08:20:50Z</time>
      </trkpt>
      <trkpt lat="42.8930380" lon="-0.0386940">
        <ele>1164.0</ele>
        <time>2020-07-27T08:20:52Z</time>
      </trkpt>
      <trkpt lat="42.8930650" lon="-0.0387160">
        <ele>1164.2</ele>
        <time>2020-07-27T08:20:53Z</time>
      </trkpt>
      <trkpt lat="42.8931190" lon="-0.0387620">
        <ele>1164.8</ele>
        <time>2020-07-27T08:20:55Z</time>
      </trkpt>
      <trkpt lat="42.8931570" lon="-0.0387910">
        <ele>1165.6</ele>
        <time>2020-07-27T08:20:57Z</time>
      </trkpt>
      <trkpt lat="42.8931910" lon="-0.0388190">
        <ele>1166.4</ele>
        <time>2020-07-27T08:20:59Z</time>
      </trkpt>
      <trkpt lat="42.8932320" lon="-0.0388410">
        <ele>1167.0</ele>
        <time>2020-07-27T08:21:01Z</time>
      </trkpt>
      <trkpt lat="42.8933570" lon="-0.0389200">
        <ele>1168.0</ele>
        <time>2020-07-27T08:21:06Z</time>
      </trkpt>
      <trkpt lat="42.8933800" lon="-0.0389330">
        <ele>1168.4</ele>
        <time>2020-07-27T08:21:07Z</time>
      </trkpt>
      <trkpt lat="42.8934480" lon="-0.0389640">
        <ele>1169.4</ele>
        <time>2020-07-27T08:21:10Z</time>
      </trkpt>
      <trkpt lat="42.8935070" lon="-0.0390000">
        <ele>1170.2</ele>
        <time>2020-07-27T08:21:13Z</time>
      </trkpt>
      <trkpt lat="42.8935250" lon="-0.0390180">
        <ele>1170.4</ele>
        <time>2020-07-27T08:21:14Z</time>
      </trkpt>
      <trkpt lat="42.8935480" lon="-0.0390420">
        <ele>1170.4</ele>
        <time>2020-07-27T08:21:15Z</time>
      </trkpt>
      <trkpt lat="42.8936420" lon="-0.0391070">
        <ele>1171.8</ele>
        <time>2020-07-27T08:21:20Z</time>
      </trkpt>
      <trkpt lat="42.8936650" lon="-0.0391180">
        <ele>1172.2</ele>
        <time>2020-07-27T08:21:21Z</time>
      </trkpt>
      <trkpt lat="42.8937470" lon="-0.0391490">
        <ele>1172.8</ele>
        <time>2020-07-27T08:21:24Z</time>
      </trkpt>
      <trkpt lat="42.8938170" lon="-0.0391970">
        <ele>1173.6</ele>
        <time>2020-07-27T08:21:27Z</time>
      </trkpt>
      <trkpt lat="42.8938540" lon="-0.0392130">
        <ele>1174.0</ele>
        <time>2020-07-27T08:21:28Z</time>
      </trkpt>
      <trkpt lat="42.8939880" lon="-0.0393030">
        <ele>1175.0</ele>
        <time>2020-07-27T08:21:33Z</time>
      </trkpt>
      <trkpt lat="42.8940950" lon="-0.0393580">
        <ele>1175.8</ele>
        <time>2020-07-27T08:21:37Z</time>
      </trkpt>
      <trkpt lat="42.8941240" lon="-0.0393660">
        <ele>1176.2</ele>
        <time>2020-07-27T08:21:38Z</time>
      </trkpt>
      <trkpt lat="42.8942060" lon="-0.0393910">
        <ele>1177.0</ele>
        <time>2020-07-27T08:21:41Z</time>
      </trkpt>
      <trkpt lat="42.8942300" lon="-0.0394040">
        <ele>1177.4</ele>
        <time>2020-07-27T08:21:42Z</time>
      </trkpt>
      <trkpt lat="42.8942720" lon="-0.0394260">
        <ele>1178.0</ele>
        <time>2020-07-27T08:21:44Z</time>
      </trkpt>
      <trkpt lat="42.8943130" lon="-0.0394500">
        <ele>1178.4</ele>
        <time>2020-07-27T08:21:46Z</time>
      </trkpt>
      <trkpt lat="42.8944120" lon="-0.0395030">
        <ele>1179.6</ele>
        <time>2020-07-27T08:21:50Z</time>
      </trkpt>
      <trkpt lat="42.8944640" lon="-0.0395320">
        <ele>1180.2</ele>
        <time>2020-07-27T08:21:52Z</time>
      </trkpt>
      <trkpt lat="42.8945120" lon="-0.0395690">
        <ele>1180.6</ele>
        <time>2020-07-27T08:21:54Z</time>
      </trkpt>
      <trkpt lat="42.8946260" lon="-0.0396500">
        <ele>1181.6</ele>
        <time>2020-07-27T08:21:59Z</time>
      </trkpt>
      <trkpt lat="42.8946700" lon="-0.0396860">
        <ele>1182.2</ele>
        <time>2020-07-27T08:22:01Z</time>
      </trkpt>
      <trkpt lat="42.8946880" lon="-0.0397070">
        <ele>1182.4</ele>
        <time>2020-07-27T08:22:02Z</time>
      </trkpt>
      <trkpt lat="42.8947050" lon="-0.0397250">
        <ele>1182.8</ele>
        <time>2020-07-27T08:22:03Z</time>
      </trkpt>
      <trkpt lat="42.8947220" lon="-0.0397440">
        <ele>1183.0</ele>
        <time>2020-07-27T08:22:04Z</time>
      </trkpt>
      <trkpt lat="42.8947850" lon="-0.0397960">
        <ele>1183.8</ele>
        <time>2020-07-27T08:22:07Z</time>
      </trkpt>
      <trkpt lat="42.8948290" lon="-0.0398300">
        <ele>1184.4</ele>
        <time>2020-07-27T08:22:09Z</time>
      </trkpt>
      <trkpt lat="42.8948660" lon="-0.0398760">
        <ele>1185.2</ele>
        <time>2020-07-27T08:22:11Z</time>
      </trkpt>
      <trkpt lat="42.8949300" lon="-0.0399760">
        <ele>1186.2</ele>
        <time>2020-07-27T08:22:15Z</time>
      </trkpt>
      <trkpt lat="42.8949660" lon="-0.0400320">
        <ele>1186.6</ele>
        <time>2020-07-27T08:22:17Z</time>
      </trkpt>
      <trkpt lat="42.8950320" lon="-0.0401120">
        <ele>1187.4</ele>
        <time>2020-07-27T08:22:20Z</time>
      </trkpt>
      <trkpt lat="42.8951320" lon="-0.0402230">
        <ele>1188.4</ele>
        <time>2020-07-27T08:22:24Z</time>
      </trkpt>
      <trkpt lat="42.8951550" lon="-0.0402500">
        <ele>1188.6</ele>
        <time>2020-07-27T08:22:25Z</time>
      </trkpt>
      <trkpt lat="42.8952240" lon="-0.0403270">
        <ele>1189.0</ele>
        <time>2020-07-27T08:22:28Z</time>
      </trkpt>
      <trkpt lat="42.8952660" lon="-0.0403800">
        <ele>1189.6</ele>
        <time>2020-07-27T08:22:30Z</time>
      </trkpt>
      <trkpt lat="42.8953270" lon="-0.0404560">
        <ele>1190.4</ele>
        <time>2020-07-27T08:22:33Z</time>
      </trkpt>
      <trkpt lat="42.8953960" lon="-0.0405210">
        <ele>1190.8</ele>
        <time>2020-07-27T08:22:36Z</time>
      </trkpt>
      <trkpt lat="42.8954590" lon="-0.0405880">
        <ele>1192.0</ele>
        <time>2020-07-27T08:22:39Z</time>
      </trkpt>
      <trkpt lat="42.8955010" lon="-0.0406420">
        <ele>1192.4</ele>
        <time>2020-07-27T08:22:41Z</time>
      </trkpt>
      <trkpt lat="42.8955970" lon="-0.0407640">
        <ele>1193.0</ele>
        <time>2020-07-27T08:22:46Z</time>
      </trkpt>
      <trkpt lat="42.8956590" lon="-0.0408350">
        <ele>1194.0</ele>
        <time>2020-07-27T08:22:49Z</time>
      </trkpt>
      <trkpt lat="42.8956790" lon="-0.0408580">
        <ele>1194.2</ele>
        <time>2020-07-27T08:22:50Z</time>
      </trkpt>
      <trkpt lat="42.8957670" lon="-0.0409330">
        <ele>1195.4</ele>
        <time>2020-07-27T08:22:54Z</time>
      </trkpt>
      <trkpt lat="42.8958160" lon="-0.0409720">
        <ele>1195.8</ele>
        <time>2020-07-27T08:22:56Z</time>
      </trkpt>
      <trkpt lat="42.8959200" lon="-0.0410540">
        <ele>1196.4</ele>
        <time>2020-07-27T08:23:00Z</time>
      </trkpt>
      <trkpt lat="42.8960060" lon="-0.0411120">
        <ele>1197.0</ele>
        <time>2020-07-27T08:23:03Z</time>
      </trkpt>
      <trkpt lat="42.8960340" lon="-0.0411340">
        <ele>1197.4</ele>
        <time>2020-07-27T08:23:04Z</time>
      </trkpt>
      <trkpt lat="42.8960610" lon="-0.0411590">
        <ele>1197.6</ele>
        <time>2020-07-27T08:23:05Z</time>
      </trkpt>
      <trkpt lat="42.8961760" lon="-0.0412430">
        <ele>1198.8</ele>
        <time>2020-07-27T08:23:09Z</time>
      </trkpt>
      <trkpt lat="42.8962360" lon="-0.0412760">
        <ele>1199.4</ele>
        <time>2020-07-27T08:23:11Z</time>
      </trkpt>
      <trkpt lat="42.8963200" lon="-0.0413300">
        <ele>1200.0</ele>
        <time>2020-07-27T08:23:14Z</time>
      </trkpt>
      <trkpt lat="42.8964030" lon="-0.0413780">
        <ele>1201.2</ele>
        <time>2020-07-27T08:23:17Z</time>
      </trkpt>
      <trkpt lat="42.8965120" lon="-0.0414360">
        <ele>1202.2</ele>
        <time>2020-07-27T08:23:21Z</time>
      </trkpt>
      <trkpt lat="42.8965400" lon="-0.0414500">
        <ele>1202.2</ele>
        <time>2020-07-27T08:23:22Z</time>
      </trkpt>
      <trkpt lat="42.8966870" lon="-0.0415430">
        <ele>1203.4</ele>
        <time>2020-07-27T08:23:28Z</time>
      </trkpt>
      <trkpt lat="42.8967300" lon="-0.0415840">
        <ele>1203.8</ele>
        <time>2020-07-27T08:23:30Z</time>
      </trkpt>
      <trkpt lat="42.8967680" lon="-0.0416270">
        <ele>1204.4</ele>
        <time>2020-07-27T08:23:32Z</time>
      </trkpt>
      <trkpt lat="42.8968180" lon="-0.0417080">
        <ele>1205.6</ele>
        <time>2020-07-27T08:23:35Z</time>
      </trkpt>
      <trkpt lat="42.8968460" lon="-0.0417680">
        <ele>1206.2</ele>
        <time>2020-07-27T08:23:37Z</time>
      </trkpt>
      <trkpt lat="42.8968580" lon="-0.0418000">
        <ele>1206.6</ele>
        <time>2020-07-27T08:23:38Z</time>
      </trkpt>
      <trkpt lat="42.8968870" lon="-0.0419730">
        <ele>1207.6</ele>
        <time>2020-07-27T08:23:43Z</time>
      </trkpt>
      <trkpt lat="42.8968830" lon="-0.0420090">
        <ele>1207.8</ele>
        <time>2020-07-27T08:23:44Z</time>
      </trkpt>
      <trkpt lat="42.8968250" lon="-0.0421730">
        <ele>1208.8</ele>
        <time>2020-07-27T08:23:49Z</time>
      </trkpt>
      <trkpt lat="42.8968070" lon="-0.0422020">
        <ele>1209.2</ele>
        <time>2020-07-27T08:23:50Z</time>
      </trkpt>
      <trkpt lat="42.8967490" lon="-0.0422800">
        <ele>1209.8</ele>
        <time>2020-07-27T08:23:53Z</time>
      </trkpt>
      <trkpt lat="42.8966710" lon="-0.0423800">
        <ele>1211.0</ele>
        <time>2020-07-27T08:23:57Z</time>
      </trkpt>
      <trkpt lat="42.8966060" lon="-0.0424460">
        <ele>1211.6</ele>
        <time>2020-07-27T08:24:00Z</time>
      </trkpt>
      <trkpt lat="42.8965610" lon="-0.0424920">
        <ele>1212.2</ele>
        <time>2020-07-27T08:24:02Z</time>
      </trkpt>
      <trkpt lat="42.8964820" lon="-0.0425960">
        <ele>1213.4</ele>
        <time>2020-07-27T08:24:06Z</time>
      </trkpt>
      <trkpt lat="42.8964490" lon="-0.0426520">
        <ele>1214.0</ele>
        <time>2020-07-27T08:24:08Z</time>
      </trkpt>
      <trkpt lat="42.8964240" lon="-0.0427140">
        <ele>1214.4</ele>
        <time>2020-07-27T08:24:10Z</time>
      </trkpt>
      <trkpt lat="42.8963960" lon="-0.0428220">
        <ele>1215.6</ele>
        <time>2020-07-27T08:24:13Z</time>
      </trkpt>
      <trkpt lat="42.8963810" lon="-0.0428970">
        <ele>1216.0</ele>
        <time>2020-07-27T08:24:15Z</time>
      </trkpt>
      <trkpt lat="42.8963810" lon="-0.0431520">
        <ele>1216.6</ele>
        <time>2020-07-27T08:24:21Z</time>
      </trkpt>
      <trkpt lat="42.8964460" lon="-0.0434540">
        <ele>1217.4</ele>
        <time>2020-07-27T08:24:27Z</time>
      </trkpt>
      <trkpt lat="42.8964600" lon="-0.0435100">
        <ele>1217.4</ele>
        <time>2020-07-27T08:24:28Z</time>
      </trkpt>
      <trkpt lat="42.8965320" lon="-0.0437910">
        <ele>1217.8</ele>
        <time>2020-07-27T08:24:33Z</time>
      </trkpt>
      <trkpt lat="42.8965790" lon="-0.0439510">
        <ele>1218.2</ele>
        <time>2020-07-27T08:24:36Z</time>
      </trkpt>
      <trkpt lat="42.8966550" lon="-0.0442020">
        <ele>1218.6</ele>
        <time>2020-07-27T08:24:41Z</time>
      </trkpt>
      <trkpt lat="42.8966740" lon="-0.0442480">
        <ele>1218.8</ele>
        <time>2020-07-27T08:24:42Z</time>
      </trkpt>
      <trkpt lat="42.8966910" lon="-0.0442980">
        <ele>1219.0</ele>
        <time>2020-07-27T08:24:43Z</time>
      </trkpt>
      <trkpt lat="42.8967510" lon="-0.0444910">
        <ele>1220.0</ele>
        <time>2020-07-27T08:24:47Z</time>
      </trkpt>
      <trkpt lat="42.8968060" lon="-0.0446540">
        <ele>1221.2</ele>
        <time>2020-07-27T08:24:51Z</time>
      </trkpt>
      <trkpt lat="42.8968190" lon="-0.0446950">
        <ele>1221.4</ele>
        <time>2020-07-27T08:24:52Z</time>
      </trkpt>
      <trkpt lat="42.8968650" lon="-0.0448060">
        <ele>1222.2</ele>
        <time>2020-07-27T08:24:55Z</time>
      </trkpt>
      <trkpt lat="42.8969630" lon="-0.0449730">
        <ele>1223.2</ele>
        <time>2020-07-27T08:25:01Z</time>
      </trkpt>
      <trkpt lat="42.8970280" lon="-0.0451140">
        <ele>1224.4</ele>
        <time>2020-07-27T08:25:05Z</time>
      </trkpt>
      <trkpt lat="42.8970520" lon="-0.0451960">
        <ele>1224.8</ele>
        <time>2020-07-27T08:25:07Z</time>
      </trkpt>
      <trkpt lat="42.8970740" lon="-0.0453150">
        <ele>1225.4</ele>
        <time>2020-07-27T08:25:10Z</time>
      </trkpt>
      <trkpt lat="42.8971040" lon="-0.0454640">
        <ele>1226.0</ele>
        <time>2020-07-27T08:25:14Z</time>
      </trkpt>
      <trkpt lat="42.8970810" lon="-0.0456660">
        <ele>1226.4</ele>
        <time>2020-07-27T08:25:19Z</time>
      </trkpt>
      <trkpt lat="42.8970590" lon="-0.0456890">
        <ele>1226.6</ele>
        <time>2020-07-27T08:25:20Z</time>
      </trkpt>
      <trkpt lat="42.8970060" lon="-0.0456830">
        <ele>1227.0</ele>
        <time>2020-07-27T08:25:22Z</time>
      </trkpt>
      <trkpt lat="42.8969340" lon="-0.0455990">
        <ele>1227.8</ele>
        <time>2020-07-27T08:25:25Z</time>
      </trkpt>
      <trkpt lat="42.8968970" lon="-0.0455280">
        <ele>1228.0</ele>
        <time>2020-07-27T08:25:27Z</time>
      </trkpt>
      <trkpt lat="42.8968670" lon="-0.0453510">
        <ele>1228.8</ele>
        <time>2020-07-27T08:25:32Z</time>
      </trkpt>
      <trkpt lat="42.8967940" lon="-0.0451570">
        <ele>1229.6</ele>
        <time>2020-07-27T08:25:38Z</time>
      </trkpt>
      <trkpt lat="42.8967740" lon="-0.0451280">
        <ele>1229.6</ele>
        <time>2020-07-27T08:25:39Z</time>
      </trkpt>
      <trkpt lat="42.8967270" lon="-0.0450700">
        <ele>1230.0</ele>
        <time>2020-07-27T08:25:41Z</time>
      </trkpt>
      <trkpt lat="42.8965820" lon="-0.0449150">
        <ele>1231.2</ele>
        <time>2020-07-27T08:25:46Z</time>
      </trkpt>
      <trkpt lat="42.8964020" lon="-0.0446820">
        <ele>1232.2</ele>
        <time>2020-07-27T08:25:52Z</time>
      </trkpt>
      <trkpt lat="42.8963460" lon="-0.0446000">
        <ele>1232.6</ele>
        <time>2020-07-27T08:25:54Z</time>
      </trkpt>
      <trkpt lat="42.8962900" lon="-0.0445120">
        <ele>1232.6</ele>
        <time>2020-07-27T08:25:56Z</time>
      </trkpt>
      <trkpt lat="42.8962150" lon="-0.0443800">
        <ele>1233.2</ele>
        <time>2020-07-27T08:25:59Z</time>
      </trkpt>
      <trkpt lat="42.8961720" lon="-0.0442890">
        <ele>1233.4</ele>
        <time>2020-07-27T08:26:01Z</time>
      </trkpt>
      <trkpt lat="42.8960680" lon="-0.0440470">
        <ele>1233.4</ele>
        <time>2020-07-27T08:26:06Z</time>
      </trkpt>
      <trkpt lat="42.8960010" lon="-0.0440060">
        <ele>1233.8</ele>
        <time>2020-07-27T08:26:08Z</time>
      </trkpt>
      <trkpt lat="42.8959660" lon="-0.0440550">
        <ele>1234.4</ele>
        <time>2020-07-27T08:26:10Z</time>
      </trkpt>
      <trkpt lat="42.8959730" lon="-0.0441010">
        <ele>1234.6</ele>
        <time>2020-07-27T08:26:11Z</time>
      </trkpt>
      <trkpt lat="42.8959920" lon="-0.0441480">
        <ele>1234.8</ele>
        <time>2020-07-27T08:26:12Z</time>
      </trkpt>
      <trkpt lat="42.8960640" lon="-0.0442840">
        <ele>1235.4</ele>
        <time>2020-07-27T08:26:15Z</time>
      </trkpt>
      <trkpt lat="42.8960890" lon="-0.0443250">
        <ele>1235.8</ele>
        <time>2020-07-27T08:26:16Z</time>
      </trkpt>
      <trkpt lat="42.8962030" lon="-0.0445190">
        <ele>1237.0</ele>
        <time>2020-07-27T08:26:21Z</time>
      </trkpt>
      <trkpt lat="42.8962460" lon="-0.0446030">
        <ele>1237.4</ele>
        <time>2020-07-27T08:26:23Z</time>
      </trkpt>
      <trkpt lat="42.8963010" lon="-0.0447440">
        <ele>1238.0</ele>
        <time>2020-07-27T08:26:26Z</time>
      </trkpt>
      <trkpt lat="42.8963750" lon="-0.0449270">
        <ele>1238.4</ele>
        <time>2020-07-27T08:26:30Z</time>
      </trkpt>
      <trkpt lat="42.8964390" lon="-0.0450860">
        <ele>1239.2</ele>
        <time>2020-07-27T08:26:34Z</time>
      </trkpt>
      <trkpt lat="42.8964830" lon="-0.0452370">
        <ele>1240.4</ele>
        <time>2020-07-27T08:26:38Z</time>
      </trkpt>
      <trkpt lat="42.8965230" lon="-0.0453860">
        <ele>1241.6</ele>
        <time>2020-07-27T08:26:42Z</time>
      </trkpt>
      <trkpt lat="42.8965740" lon="-0.0455330">
        <ele>1242.8</ele>
        <time>2020-07-27T08:26:46Z</time>
      </trkpt>
      <trkpt lat="42.8966230" lon="-0.0457610">
        <ele>1244.0</ele>
        <time>2020-07-27T08:26:52Z</time>
      </trkpt>
      <trkpt lat="42.8966350" lon="-0.0458350">
        <ele>1244.2</ele>
        <time>2020-07-27T08:26:54Z</time>
      </trkpt>
      <trkpt lat="42.8966350" lon="-0.0459160">
        <ele>1244.8</ele>
        <time>2020-07-27T08:26:56Z</time>
      </trkpt>
      <trkpt lat="42.8966280" lon="-0.0459540">
        <ele>1245.2</ele>
        <time>2020-07-27T08:26:57Z</time>
      </trkpt>
      <trkpt lat="42.8965840" lon="-0.0460260">
        <ele>1245.6</ele>
        <time>2020-07-27T08:26:59Z</time>
      </trkpt>
      <trkpt lat="42.8965600" lon="-0.0460410">
        <ele>1245.8</ele>
        <time>2020-07-27T08:27:00Z</time>
      </trkpt>
      <trkpt lat="42.8965140" lon="-0.0460120">
        <ele>1246.2</ele>
        <time>2020-07-27T08:27:02Z</time>
      </trkpt>
      <trkpt lat="42.8964170" lon="-0.0458170">
        <ele>1247.4</ele>
        <time>2020-07-27T08:27:07Z</time>
      </trkpt>
      <trkpt lat="42.8963970" lon="-0.0457760">
        <ele>1247.8</ele>
        <time>2020-07-27T08:27:08Z</time>
      </trkpt>
      <trkpt lat="42.8963070" lon="-0.0455340">
        <ele>1248.4</ele>
        <time>2020-07-27T08:27:14Z</time>
      </trkpt>
      <trkpt lat="42.8962620" lon="-0.0454680">
        <ele>1249.2</ele>
        <time>2020-07-27T08:27:16Z</time>
      </trkpt>
      <trkpt lat="42.8962420" lon="-0.0454340">
        <ele>1249.6</ele>
        <time>2020-07-27T08:27:17Z</time>
      </trkpt>
      <trkpt lat="42.8961830" lon="-0.0453320">
        <ele>1250.6</ele>
        <time>2020-07-27T08:27:20Z</time>
      </trkpt>
      <trkpt lat="42.8960910" lon="-0.0451650">
        <ele>1252.0</ele>
        <time>2020-07-27T08:27:25Z</time>
      </trkpt>
      <trkpt lat="42.8960740" lon="-0.0451300">
        <ele>1252.6</ele>
        <time>2020-07-27T08:27:26Z</time>
      </trkpt>
      <trkpt lat="42.8960320" lon="-0.0450690">
        <ele>1253.2</ele>
        <time>2020-07-27T08:27:28Z</time>
      </trkpt>
      <trkpt lat="42.8959210" lon="-0.0449330">
        <ele>1254.2</ele>
        <time>2020-07-27T08:27:33Z</time>
      </trkpt>
      <trkpt lat="42.8958960" lon="-0.0449090">
        <ele>1254.8</ele>
        <time>2020-07-27T08:27:34Z</time>
      </trkpt>
      <trkpt lat="42.8958460" lon="-0.0448680">
        <ele>1255.6</ele>
        <time>2020-07-27T08:27:36Z</time>
      </trkpt>
      <trkpt lat="42.8957730" lon="-0.0448150">
        <ele>1256.6</ele>
        <time>2020-07-27T08:27:39Z</time>
      </trkpt>
      <trkpt lat="42.8956840" lon="-0.0447410">
        <ele>1257.4</ele>
        <time>2020-07-27T08:27:43Z</time>
      </trkpt>
      <trkpt lat="42.8956430" lon="-0.0447050">
        <ele>1257.6</ele>
        <time>2020-07-27T08:27:45Z</time>
      </trkpt>
      <trkpt lat="42.8955600" lon="-0.0446310">
        <ele>1259.0</ele>
        <time>2020-07-27T08:27:49Z</time>
      </trkpt>
      <trkpt lat="42.8955160" lon="-0.0445890">
        <ele>1259.8</ele>
        <time>2020-07-27T08:27:51Z</time>
      </trkpt>
      <trkpt lat="42.8954690" lon="-0.0445400">
        <ele>1260.4</ele>
        <time>2020-07-27T08:27:53Z</time>
      </trkpt>
      <trkpt lat="42.8954460" lon="-0.0445110">
        <ele>1260.8</ele>
        <time>2020-07-27T08:27:54Z</time>
      </trkpt>
      <trkpt lat="42.8954250" lon="-0.0444810">
        <ele>1261.2</ele>
        <time>2020-07-27T08:27:55Z</time>
      </trkpt>
      <trkpt lat="42.8954020" lon="-0.0444500">
        <ele>1261.4</ele>
        <time>2020-07-27T08:27:56Z</time>
      </trkpt>
      <trkpt lat="42.8953220" lon="-0.0443330">
        <ele>1262.2</ele>
        <time>2020-07-27T08:28:00Z</time>
      </trkpt>
      <trkpt lat="42.8953030" lon="-0.0443030">
        <ele>1262.8</ele>
        <time>2020-07-27T08:28:01Z</time>
      </trkpt>
      <trkpt lat="42.8952640" lon="-0.0442460">
        <ele>1264.0</ele>
        <time>2020-07-27T08:28:03Z</time>
      </trkpt>
      <trkpt lat="42.8952230" lon="-0.0441900">
        <ele>1264.6</ele>
        <time>2020-07-27T08:28:05Z</time>
      </trkpt>
      <trkpt lat="42.8951940" lon="-0.0441230">
        <ele>1265.0</ele>
        <time>2020-07-27T08:28:07Z</time>
      </trkpt>
      <trkpt lat="42.8951650" lon="-0.0440600">
        <ele>1265.4</ele>
        <time>2020-07-27T08:28:09Z</time>
      </trkpt>
      <trkpt lat="42.8951520" lon="-0.0440290">
        <ele>1265.4</ele>
        <time>2020-07-27T08:28:10Z</time>
      </trkpt>
      <trkpt lat="42.8951380" lon="-0.0440000">
        <ele>1265.4</ele>
        <time>2020-07-27T08:28:11Z</time>
      </trkpt>
      <trkpt lat="42.8951220" lon="-0.0439710">
        <ele>1265.6</ele>
        <time>2020-07-27T08:28:12Z</time>
      </trkpt>
      <trkpt lat="42.8950960" lon="-0.0439070">
        <ele>1266.2</ele>
        <time>2020-07-27T08:28:14Z</time>
      </trkpt>
      <trkpt lat="42.8950420" lon="-0.0438290">
        <ele>1267.0</ele>
        <time>2020-07-27T08:28:17Z</time>
      </trkpt>
      <trkpt lat="42.8950220" lon="-0.0438030">
        <ele>1267.2</ele>
        <time>2020-07-27T08:28:18Z</time>
      </trkpt>
      <trkpt lat="42.8949230" lon="-0.0436780">
        <ele>1268.4</ele>
        <time>2020-07-27T08:28:23Z</time>
      </trkpt>
      <trkpt lat="42.8948500" lon="-0.0436290">
        <ele>1269.2</ele>
        <time>2020-07-27T08:28:26Z</time>
      </trkpt>
      <trkpt lat="42.8948250" lon="-0.0436160">
        <ele>1269.4</ele>
        <time>2020-07-27T08:28:27Z</time>
      </trkpt>
      <trkpt lat="42.8946920" lon="-0.0435690">
        <ele>1270.6</ele>
        <time>2020-07-27T08:28:32Z</time>
      </trkpt>
      <trkpt lat="42.8946130" lon="-0.0435450">
        <ele>1271.2</ele>
        <time>2020-07-27T08:28:35Z</time>
      </trkpt>
      <trkpt lat="42.8945560" lon="-0.0435370">
        <ele>1271.6</ele>
        <time>2020-07-27T08:28:37Z</time>
      </trkpt>
      <trkpt lat="42.8944980" lon="-0.0435360">
        <ele>1271.8</ele>
        <time>2020-07-27T08:28:39Z</time>
      </trkpt>
      <trkpt lat="42.8943800" lon="-0.0435510">
        <ele>1272.8</ele>
        <time>2020-07-27T08:28:43Z</time>
      </trkpt>
      <trkpt lat="42.8943040" lon="-0.0435870">
        <ele>1273.8</ele>
        <time>2020-07-27T08:28:46Z</time>
      </trkpt>
      <trkpt lat="42.8942050" lon="-0.0436520">
        <ele>1274.4</ele>
        <time>2020-07-27T08:28:50Z</time>
      </trkpt>
      <trkpt lat="42.8941580" lon="-0.0437010">
        <ele>1275.0</ele>
        <time>2020-07-27T08:28:52Z</time>
      </trkpt>
      <trkpt lat="42.8941110" lon="-0.0437470">
        <ele>1275.8</ele>
        <time>2020-07-27T08:28:54Z</time>
      </trkpt>
      <trkpt lat="42.8940850" lon="-0.0437640">
        <ele>1276.0</ele>
        <time>2020-07-27T08:28:55Z</time>
      </trkpt>
      <trkpt lat="42.8940020" lon="-0.0438230">
        <ele>1276.8</ele>
        <time>2020-07-27T08:28:58Z</time>
      </trkpt>
      <trkpt lat="42.8939730" lon="-0.0438480">
        <ele>1277.2</ele>
        <time>2020-07-27T08:28:59Z</time>
      </trkpt>
      <trkpt lat="42.8938320" lon="-0.0439630">
        <ele>1278.4</ele>
        <time>2020-07-27T08:29:04Z</time>
      </trkpt>
      <trkpt lat="42.8937780" lon="-0.0440080">
        <ele>1279.0</ele>
        <time>2020-07-27T08:29:06Z</time>
      </trkpt>
      <trkpt lat="42.8937020" lon="-0.0440800">
        <ele>1279.6</ele>
        <time>2020-07-27T08:29:09Z</time>
      </trkpt>
      <trkpt lat="42.8936110" lon="-0.0441860">
        <ele>1280.6</ele>
        <time>2020-07-27T08:29:13Z</time>
      </trkpt>
      <trkpt lat="42.8934570" lon="-0.0442930">
        <ele>1281.4</ele>
        <time>2020-07-27T08:29:19Z</time>
      </trkpt>
      <trkpt lat="42.8934300" lon="-0.0443000">
        <ele>1281.6</ele>
        <time>2020-07-27T08:29:20Z</time>
      </trkpt>
      <trkpt lat="42.8934010" lon="-0.0443030">
        <ele>1281.8</ele>
        <time>2020-07-27T08:29:21Z</time>
      </trkpt>
      <trkpt lat="42.8932250" lon="-0.0443180">
        <ele>1282.4</ele>
        <time>2020-07-27T08:29:27Z</time>
      </trkpt>
      <trkpt lat="42.8931740" lon="-0.0443170">
        <ele>1283.0</ele>
        <time>2020-07-27T08:29:29Z</time>
      </trkpt>
      <trkpt lat="42.8930980" lon="-0.0443090">
        <ele>1284.0</ele>
        <time>2020-07-27T08:29:32Z</time>
      </trkpt>
      <trkpt lat="42.8930190" lon="-0.0442860">
        <ele>1285.4</ele>
        <time>2020-07-27T08:29:36Z</time>
      </trkpt>
      <trkpt lat="42.8928500" lon="-0.0442220">
        <ele>1286.2</ele>
        <time>2020-07-27T08:29:42Z</time>
      </trkpt>
      <trkpt lat="42.8927810" lon="-0.0441810">
        <ele>1286.6</ele>
        <time>2020-07-27T08:29:44Z</time>
      </trkpt>
      <trkpt lat="42.8926030" lon="-0.0441130">
        <ele>1287.4</ele>
        <time>2020-07-27T08:29:49Z</time>
      </trkpt>
      <trkpt lat="42.8925790" lon="-0.0441260">
        <ele>1287.8</ele>
        <time>2020-07-27T08:29:50Z</time>
      </trkpt>
      <trkpt lat="42.8925640" lon="-0.0441540">
        <ele>1288.4</ele>
        <time>2020-07-27T08:29:51Z</time>
      </trkpt>
      <trkpt lat="42.8925820" lon="-0.0442180">
        <ele>1289.0</ele>
        <time>2020-07-27T08:29:53Z</time>
      </trkpt>
      <trkpt lat="42.8927120" lon="-0.0443120">
        <ele>1290.0</ele>
        <time>2020-07-27T08:29:57Z</time>
      </trkpt>
      <trkpt lat="42.8928970" lon="-0.0444120">
        <ele>1291.0</ele>
        <time>2020-07-27T08:30:03Z</time>
      </trkpt>
      <trkpt lat="42.8929250" lon="-0.0444260">
        <ele>1291.2</ele>
        <time>2020-07-27T08:30:04Z</time>
      </trkpt>
      <trkpt lat="42.8930840" lon="-0.0445350">
        <ele>1292.0</ele>
        <time>2020-07-27T08:30:10Z</time>
      </trkpt>
      <trkpt lat="42.8931130" lon="-0.0445540">
        <ele>1292.2</ele>
        <time>2020-07-27T08:30:11Z</time>
      </trkpt>
      <trkpt lat="42.8931370" lon="-0.0445750">
        <ele>1292.4</ele>
        <time>2020-07-27T08:30:12Z</time>
      </trkpt>
      <trkpt lat="42.8932960" lon="-0.0446890">
        <ele>1293.2</ele>
        <time>2020-07-27T08:30:17Z</time>
      </trkpt>
      <trkpt lat="42.8933550" lon="-0.0447540">
        <ele>1293.6</ele>
        <time>2020-07-27T08:30:19Z</time>
      </trkpt>
      <trkpt lat="42.8934310" lon="-0.0448510">
        <ele>1294.6</ele>
        <time>2020-07-27T08:30:22Z</time>
      </trkpt>
      <trkpt lat="42.8935190" lon="-0.0449840">
        <ele>1295.8</ele>
        <time>2020-07-27T08:30:26Z</time>
      </trkpt>
      <trkpt lat="42.8935450" lon="-0.0450150">
        <ele>1296.0</ele>
        <time>2020-07-27T08:30:27Z</time>
      </trkpt>
      <trkpt lat="42.8936400" lon="-0.0451420">
        <ele>1297.0</ele>
        <time>2020-07-27T08:30:31Z</time>
      </trkpt>
      <trkpt lat="42.8937150" lon="-0.0452310">
        <ele>1297.8</ele>
        <time>2020-07-27T08:30:34Z</time>
      </trkpt>
      <trkpt lat="42.8937430" lon="-0.0452580">
        <ele>1298.0</ele>
        <time>2020-07-27T08:30:35Z</time>
      </trkpt>
      <trkpt lat="42.8938440" lon="-0.0453620">
        <ele>1299.2</ele>
        <time>2020-07-27T08:30:39Z</time>
      </trkpt>
      <trkpt lat="42.8939390" lon="-0.0454290">
        <ele>1299.8</ele>
        <time>2020-07-27T08:30:42Z</time>
      </trkpt>
      <trkpt lat="42.8939730" lon="-0.0454510">
        <ele>1300.0</ele>
        <time>2020-07-27T08:30:43Z</time>
      </trkpt>
      <trkpt lat="42.8940080" lon="-0.0454690">
        <ele>1300.4</ele>
        <time>2020-07-27T08:30:44Z</time>
      </trkpt>
      <trkpt lat="42.8941590" lon="-0.0455640">
        <ele>1301.6</ele>
        <time>2020-07-27T08:30:49Z</time>
      </trkpt>
      <trkpt lat="42.8942600" lon="-0.0456600">
        <ele>1302.8</ele>
        <time>2020-07-27T08:30:53Z</time>
      </trkpt>
      <trkpt lat="42.8943160" lon="-0.0457600">
        <ele>1303.8</ele>
        <time>2020-07-27T08:30:56Z</time>
      </trkpt>
      <trkpt lat="42.8943330" lon="-0.0458010">
        <ele>1304.0</ele>
        <time>2020-07-27T08:30:57Z</time>
      </trkpt>
      <trkpt lat="42.8943790" lon="-0.0459740">
        <ele>1305.2</ele>
        <time>2020-07-27T08:31:01Z</time>
      </trkpt>
      <trkpt lat="42.8943960" lon="-0.0460560">
        <ele>1306.0</ele>
        <time>2020-07-27T08:31:03Z</time>
      </trkpt>
      <trkpt lat="42.8944030" lon="-0.0460940">
        <ele>1306.2</ele>
        <time>2020-07-27T08:31:04Z</time>
      </trkpt>
      <trkpt lat="42.8944130" lon="-0.0462050">
        <ele>1307.6</ele>
        <time>2020-07-27T08:31:07Z</time>
      </trkpt>
      <trkpt lat="42.8944190" lon="-0.0463140">
        <ele>1308.0</ele>
        <time>2020-07-27T08:31:10Z</time>
      </trkpt>
      <trkpt lat="42.8944220" lon="-0.0463850">
        <ele>1308.4</ele>
        <time>2020-07-27T08:31:12Z</time>
      </trkpt>
      <trkpt lat="42.8944160" lon="-0.0464220">
        <ele>1308.8</ele>
        <time>2020-07-27T08:31:13Z</time>
      </trkpt>
      <trkpt lat="42.8944180" lon="-0.0465210">
        <ele>1310.0</ele>
        <time>2020-07-27T08:31:16Z</time>
      </trkpt>
      <trkpt lat="42.8944320" lon="-0.0465850">
        <ele>1310.4</ele>
        <time>2020-07-27T08:31:18Z</time>
      </trkpt>
      <trkpt lat="42.8944410" lon="-0.0466340">
        <ele>1311.0</ele>
        <time>2020-07-27T08:31:20Z</time>
      </trkpt>
      <trkpt lat="42.8944620" lon="-0.0467090">
        <ele>1311.6</ele>
        <time>2020-07-27T08:31:23Z</time>
      </trkpt>
      <trkpt lat="42.8945270" lon="-0.0468240">
        <ele>1312.2</ele>
        <time>2020-07-27T08:31:27Z</time>
      </trkpt>
      <trkpt lat="42.8945580" lon="-0.0469040">
        <ele>1313.0</ele>
        <time>2020-07-27T08:31:30Z</time>
      </trkpt>
      <trkpt lat="42.8945810" lon="-0.0469560">
        <ele>1313.4</ele>
        <time>2020-07-27T08:31:32Z</time>
      </trkpt>
      <trkpt lat="42.8946460" lon="-0.0470930">
        <ele>1314.6</ele>
        <time>2020-07-27T08:31:37Z</time>
      </trkpt>
      <trkpt lat="42.8946840" lon="-0.0471840">
        <ele>1315.6</ele>
        <time>2020-07-27T08:31:40Z</time>
      </trkpt>
      <trkpt lat="42.8946960" lon="-0.0472150">
        <ele>1315.8</ele>
        <time>2020-07-27T08:31:41Z</time>
      </trkpt>
      <trkpt lat="42.8947710" lon="-0.0473700">
        <ele>1316.8</ele>
        <time>2020-07-27T08:31:46Z</time>
      </trkpt>
      <trkpt lat="42.8948000" lon="-0.0474270">
        <ele>1317.6</ele>
        <time>2020-07-27T08:31:48Z</time>
      </trkpt>
      <trkpt lat="42.8948280" lon="-0.0474850">
        <ele>1318.2</ele>
        <time>2020-07-27T08:31:50Z</time>
      </trkpt>
      <trkpt lat="42.8948860" lon="-0.0476180">
        <ele>1318.8</ele>
        <time>2020-07-27T08:31:54Z</time>
      </trkpt>
      <trkpt lat="42.8949290" lon="-0.0477100">
        <ele>1319.2</ele>
        <time>2020-07-27T08:31:57Z</time>
      </trkpt>
      <trkpt lat="42.8949710" lon="-0.0478040">
        <ele>1320.2</ele>
        <time>2020-07-27T08:32:00Z</time>
      </trkpt>
      <trkpt lat="42.8950190" lon="-0.0479020">
        <ele>1320.8</ele>
        <time>2020-07-27T08:32:03Z</time>
      </trkpt>
      <trkpt lat="42.8950540" lon="-0.0480090">
        <ele>1321.4</ele>
        <time>2020-07-27T08:32:06Z</time>
      </trkpt>
      <trkpt lat="42.8950660" lon="-0.0481440">
        <ele>1322.4</ele>
        <time>2020-07-27T08:32:10Z</time>
      </trkpt>
      <trkpt lat="42.8950310" lon="-0.0483460">
        <ele>1323.4</ele>
        <time>2020-07-27T08:32:16Z</time>
      </trkpt>
      <trkpt lat="42.8950260" lon="-0.0483820">
        <ele>1323.8</ele>
        <time>2020-07-27T08:32:17Z</time>
      </trkpt>
      <trkpt lat="42.8949990" lon="-0.0485240">
        <ele>1324.8</ele>
        <time>2020-07-27T08:32:21Z</time>
      </trkpt>
      <trkpt lat="42.8949770" lon="-0.0486210">
        <ele>1326.2</ele>
        <time>2020-07-27T08:32:24Z</time>
      </trkpt>
      <trkpt lat="42.8949240" lon="-0.0487570">
        <ele>1327.0</ele>
        <time>2020-07-27T08:32:28Z</time>
      </trkpt>
      <trkpt lat="42.8949060" lon="-0.0487900">
        <ele>1327.4</ele>
        <time>2020-07-27T08:32:29Z</time>
      </trkpt>
      <trkpt lat="42.8948350" lon="-0.0489170">
        <ele>1328.4</ele>
        <time>2020-07-27T08:32:33Z</time>
      </trkpt>
      <trkpt lat="42.8947410" lon="-0.0490620">
        <ele>1329.4</ele>
        <time>2020-07-27T08:32:38Z</time>
      </trkpt>
      <trkpt lat="42.8947220" lon="-0.0490900">
        <ele>1329.6</ele>
        <time>2020-07-27T08:32:39Z</time>
      </trkpt>
      <trkpt lat="42.8946550" lon="-0.0492030">
        <ele>1330.8</ele>
        <time>2020-07-27T08:32:43Z</time>
      </trkpt>
      <trkpt lat="42.8945960" lon="-0.0492970">
        <ele>1331.4</ele>
        <time>2020-07-27T08:32:46Z</time>
      </trkpt>
      <trkpt lat="42.8945790" lon="-0.0493310">
        <ele>1331.8</ele>
        <time>2020-07-27T08:32:47Z</time>
      </trkpt>
      <trkpt lat="42.8945090" lon="-0.0495030">
        <ele>1332.8</ele>
        <time>2020-07-27T08:32:52Z</time>
      </trkpt>
      <trkpt lat="42.8944610" lon="-0.0496070">
        <ele>1333.6</ele>
        <time>2020-07-27T08:32:55Z</time>
      </trkpt>
      <trkpt lat="42.8944430" lon="-0.0496420">
        <ele>1334.0</ele>
        <time>2020-07-27T08:32:56Z</time>
      </trkpt>
      <trkpt lat="42.8943280" lon="-0.0498380">
        <ele>1335.2</ele>
        <time>2020-07-27T08:33:02Z</time>
      </trkpt>
      <trkpt lat="42.8942800" lon="-0.0498900">
        <ele>1335.6</ele>
        <time>2020-07-27T08:33:04Z</time>
      </trkpt>
      <trkpt lat="42.8942390" lon="-0.0499460">
        <ele>1336.4</ele>
        <time>2020-07-27T08:33:06Z</time>
      </trkpt>
      <trkpt lat="42.8941370" lon="-0.0500920">
        <ele>1337.4</ele>
        <time>2020-07-27T08:33:11Z</time>
      </trkpt>
      <trkpt lat="42.8941150" lon="-0.0501180">
        <ele>1337.6</ele>
        <time>2020-07-27T08:33:12Z</time>
      </trkpt>
      <trkpt lat="42.8940240" lon="-0.0502170">
        <ele>1338.6</ele>
        <time>2020-07-27T08:33:16Z</time>
      </trkpt>
      <trkpt lat="42.8939610" lon="-0.0503050">
        <ele>1339.4</ele>
        <time>2020-07-27T08:33:19Z</time>
      </trkpt>
      <trkpt lat="42.8939200" lon="-0.0503690">
        <ele>1339.8</ele>
        <time>2020-07-27T08:33:21Z</time>
      </trkpt>
      <trkpt lat="42.8938260" lon="-0.0505250">
        <ele>1341.0</ele>
        <time>2020-07-27T08:33:26Z</time>
      </trkpt>
      <trkpt lat="42.8937660" lon="-0.0506140">
        <ele>1342.0</ele>
        <time>2020-07-27T08:33:29Z</time>
      </trkpt>
      <trkpt lat="42.8937450" lon="-0.0506380">
        <ele>1342.2</ele>
        <time>2020-07-27T08:33:30Z</time>
      </trkpt>
      <trkpt lat="42.8936330" lon="-0.0507700">
        <ele>1343.4</ele>
        <time>2020-07-27T08:33:35Z</time>
      </trkpt>
      <trkpt lat="42.8936080" lon="-0.0507960">
        <ele>1343.6</ele>
        <time>2020-07-27T08:33:36Z</time>
      </trkpt>
      <trkpt lat="42.8935110" lon="-0.0509100">
        <ele>1344.4</ele>
        <time>2020-07-27T08:33:40Z</time>
      </trkpt>
      <trkpt lat="42.8933910" lon="-0.0510300">
        <ele>1345.6</ele>
        <time>2020-07-27T08:33:45Z</time>
      </trkpt>
      <trkpt lat="42.8932900" lon="-0.0510920">
        <ele>1347.2</ele>
        <time>2020-07-27T08:33:49Z</time>
      </trkpt>
      <trkpt lat="42.8932220" lon="-0.0511320">
        <ele>1348.2</ele>
        <time>2020-07-27T08:33:52Z</time>
      </trkpt>
      <trkpt lat="42.8931720" lon="-0.0511530">
        <ele>1348.6</ele>
        <time>2020-07-27T08:33:54Z</time>
      </trkpt>
      <trkpt lat="42.8931210" lon="-0.0511720">
        <ele>1349.2</ele>
        <time>2020-07-27T08:33:56Z</time>
      </trkpt>
      <trkpt lat="42.8930950" lon="-0.0511840">
        <ele>1349.6</ele>
        <time>2020-07-27T08:33:57Z</time>
      </trkpt>
      <trkpt lat="42.8930700" lon="-0.0511940">
        <ele>1350.0</ele>
        <time>2020-07-27T08:33:58Z</time>
      </trkpt>
      <trkpt lat="42.8930460" lon="-0.0512070">
        <ele>1350.4</ele>
        <time>2020-07-27T08:33:59Z</time>
      </trkpt>
      <trkpt lat="42.8929550" lon="-0.0512420">
        <ele>1351.4</ele>
        <time>2020-07-27T08:34:03Z</time>
      </trkpt>
      <trkpt lat="42.8929110" lon="-0.0512520">
        <ele>1352.0</ele>
        <time>2020-07-27T08:34:05Z</time>
      </trkpt>
      <trkpt lat="42.8928330" lon="-0.0512800">
        <ele>1352.6</ele>
        <time>2020-07-27T08:34:09Z</time>
      </trkpt>
      <trkpt lat="42.8928130" lon="-0.0512830">
        <ele>1352.8</ele>
        <time>2020-07-27T08:34:10Z</time>
      </trkpt>
      <trkpt lat="42.8927940" lon="-0.0512970">
        <ele>1353.0</ele>
        <time>2020-07-27T08:34:11Z</time>
      </trkpt>
      <trkpt lat="42.8927580" lon="-0.0513280">
        <ele>1353.8</ele>
        <time>2020-07-27T08:34:13Z</time>
      </trkpt>
      <trkpt lat="42.8927220" lon="-0.0513660">
        <ele>1354.4</ele>
        <time>2020-07-27T08:34:15Z</time>
      </trkpt>
      <trkpt lat="42.8927030" lon="-0.0513860">
        <ele>1354.6</ele>
        <time>2020-07-27T08:34:16Z</time>
      </trkpt>
      <trkpt lat="42.8926610" lon="-0.0514260">
        <ele>1355.0</ele>
        <time>2020-07-27T08:34:18Z</time>
      </trkpt>
      <trkpt lat="42.8925870" lon="-0.0515320">
        <ele>1356.0</ele>
        <time>2020-07-27T08:34:22Z</time>
      </trkpt>
      <trkpt lat="42.8925690" lon="-0.0515620">
        <ele>1356.2</ele>
        <time>2020-07-27T08:34:23Z</time>
      </trkpt>
      <trkpt lat="42.8925340" lon="-0.0516180">
        <ele>1356.4</ele>
        <time>2020-07-27T08:34:25Z</time>
      </trkpt>
      <trkpt lat="42.8924770" lon="-0.0517390">
        <ele>1357.2</ele>
        <time>2020-07-27T08:34:29Z</time>
      </trkpt>
      <trkpt lat="42.8924610" lon="-0.0517700">
        <ele>1357.6</ele>
        <time>2020-07-27T08:34:30Z</time>
      </trkpt>
      <trkpt lat="42.8924100" lon="-0.0518550">
        <ele>1358.4</ele>
        <time>2020-07-27T08:34:33Z</time>
      </trkpt>
      <trkpt lat="42.8923590" lon="-0.0519430">
        <ele>1358.8</ele>
        <time>2020-07-27T08:34:36Z</time>
      </trkpt>
      <trkpt lat="42.8923420" lon="-0.0519720">
        <ele>1358.8</ele>
        <time>2020-07-27T08:34:37Z</time>
      </trkpt>
      <trkpt lat="42.8923080" lon="-0.0520240">
        <ele>1359.0</ele>
        <time>2020-07-27T08:34:39Z</time>
      </trkpt>
      <trkpt lat="42.8922810" lon="-0.0520770">
        <ele>1359.4</ele>
        <time>2020-07-27T08:34:41Z</time>
      </trkpt>
      <trkpt lat="42.8922260" lon="-0.0521830">
        <ele>1360.4</ele>
        <time>2020-07-27T08:34:45Z</time>
      </trkpt>
      <trkpt lat="42.8922130" lon="-0.0522110">
        <ele>1360.6</ele>
        <time>2020-07-27T08:34:46Z</time>
      </trkpt>
      <trkpt lat="42.8921890" lon="-0.0522650">
        <ele>1361.0</ele>
        <time>2020-07-27T08:34:48Z</time>
      </trkpt>
      <trkpt lat="42.8921550" lon="-0.0523530">
        <ele>1361.6</ele>
        <time>2020-07-27T08:34:51Z</time>
      </trkpt>
      <trkpt lat="42.8921030" lon="-0.0524760">
        <ele>1362.6</ele>
        <time>2020-07-27T08:34:55Z</time>
      </trkpt>
      <trkpt lat="42.8920750" lon="-0.0525360">
        <ele>1363.2</ele>
        <time>2020-07-27T08:34:57Z</time>
      </trkpt>
      <trkpt lat="42.8920420" lon="-0.0525980">
        <ele>1364.0</ele>
        <time>2020-07-27T08:34:59Z</time>
      </trkpt>
      <trkpt lat="42.8919920" lon="-0.0526940">
        <ele>1365.2</ele>
        <time>2020-07-27T08:35:02Z</time>
      </trkpt>
      <trkpt lat="42.8919610" lon="-0.0527490">
        <ele>1365.8</ele>
        <time>2020-07-27T08:35:04Z</time>
      </trkpt>
      <trkpt lat="42.8918860" lon="-0.0528470">
        <ele>1366.2</ele>
        <time>2020-07-27T08:35:08Z</time>
      </trkpt>
      <trkpt lat="42.8918280" lon="-0.0528960">
        <ele>1367.0</ele>
        <time>2020-07-27T08:35:11Z</time>
      </trkpt>
      <trkpt lat="42.8917830" lon="-0.0529210">
        <ele>1367.4</ele>
        <time>2020-07-27T08:35:13Z</time>
      </trkpt>
      <trkpt lat="42.8917130" lon="-0.0529730">
        <ele>1368.4</ele>
        <time>2020-07-27T08:35:16Z</time>
      </trkpt>
      <trkpt lat="42.8916450" lon="-0.0530260">
        <ele>1369.6</ele>
        <time>2020-07-27T08:35:19Z</time>
      </trkpt>
      <trkpt lat="42.8915800" lon="-0.0530660">
        <ele>1370.6</ele>
        <time>2020-07-27T08:35:22Z</time>
      </trkpt>
      <trkpt lat="42.8914710" lon="-0.0531460">
        <ele>1371.2</ele>
        <time>2020-07-27T08:35:27Z</time>
      </trkpt>
      <trkpt lat="42.8913680" lon="-0.0532450">
        <ele>1371.6</ele>
        <time>2020-07-27T08:35:32Z</time>
      </trkpt>
      <trkpt lat="42.8913000" lon="-0.0532960">
        <ele>1372.8</ele>
        <time>2020-07-27T08:35:35Z</time>
      </trkpt>
      <trkpt lat="42.8912770" lon="-0.0533110">
        <ele>1373.0</ele>
        <time>2020-07-27T08:35:36Z</time>
      </trkpt>
      <trkpt lat="42.8912150" lon="-0.0533690">
        <ele>1373.6</ele>
        <time>2020-07-27T08:35:39Z</time>
      </trkpt>
      <trkpt lat="42.8911950" lon="-0.0533920">
        <ele>1374.0</ele>
        <time>2020-07-27T08:35:40Z</time>
      </trkpt>
      <trkpt lat="42.8911190" lon="-0.0534740">
        <ele>1374.6</ele>
        <time>2020-07-27T08:35:44Z</time>
      </trkpt>
      <trkpt lat="42.8910650" lon="-0.0535510">
        <ele>1375.0</ele>
        <time>2020-07-27T08:35:47Z</time>
      </trkpt>
      <trkpt lat="42.8910560" lon="-0.0535910">
        <ele>1375.2</ele>
        <time>2020-07-27T08:35:48Z</time>
      </trkpt>
      <trkpt lat="42.8910550" lon="-0.0536340">
        <ele>1375.2</ele>
        <time>2020-07-27T08:35:49Z</time>
      </trkpt>
      <trkpt lat="42.8910850" lon="-0.0537160">
        <ele>1375.4</ele>
        <time>2020-07-27T08:35:51Z</time>
      </trkpt>
      <trkpt lat="42.8911150" lon="-0.0537380">
        <ele>1375.6</ele>
        <time>2020-07-27T08:35:52Z</time>
      </trkpt>
      <trkpt lat="42.8912930" lon="-0.0537660">
        <ele>1376.2</ele>
        <time>2020-07-27T08:35:57Z</time>
      </trkpt>
      <trkpt lat="42.8914340" lon="-0.0537690">
        <ele>1377.2</ele>
        <time>2020-07-27T08:36:01Z</time>
      </trkpt>
      <trkpt lat="42.8915650" lon="-0.0537660">
        <ele>1378.4</ele>
        <time>2020-07-27T08:36:05Z</time>
      </trkpt>
      <trkpt lat="42.8915980" lon="-0.0537660">
        <ele>1378.6</ele>
        <time>2020-07-27T08:36:06Z</time>
      </trkpt>
      <trkpt lat="42.8917240" lon="-0.0537670">
        <ele>1379.6</ele>
        <time>2020-07-27T08:36:10Z</time>
      </trkpt>
      <trkpt lat="42.8918540" lon="-0.0537350">
        <ele>1380.2</ele>
        <time>2020-07-27T08:36:14Z</time>
      </trkpt>
      <trkpt lat="42.8919570" lon="-0.0537380">
        <ele>1380.8</ele>
        <time>2020-07-27T08:36:17Z</time>
      </trkpt>
      <trkpt lat="42.8920120" lon="-0.0537710">
        <ele>1381.2</ele>
        <time>2020-07-27T08:36:19Z</time>
      </trkpt>
      <trkpt lat="42.8920230" lon="-0.0538070">
        <ele>1381.4</ele>
        <time>2020-07-27T08:36:20Z</time>
      </trkpt>
      <trkpt lat="42.8920210" lon="-0.0538470">
        <ele>1381.4</ele>
        <time>2020-07-27T08:36:21Z</time>
      </trkpt>
      <trkpt lat="42.8919790" lon="-0.0539140">
        <ele>1381.6</ele>
        <time>2020-07-27T08:36:23Z</time>
      </trkpt>
      <trkpt lat="42.8919200" lon="-0.0539490">
        <ele>1382.0</ele>
        <time>2020-07-27T08:36:25Z</time>
      </trkpt>
      <trkpt lat="42.8917600" lon="-0.0540260">
        <ele>1383.0</ele>
        <time>2020-07-27T08:36:30Z</time>
      </trkpt>
      <trkpt lat="42.8916330" lon="-0.0541020">
        <ele>1384.4</ele>
        <time>2020-07-27T08:36:34Z</time>
      </trkpt>
      <trkpt lat="42.8915240" lon="-0.0541970">
        <ele>1385.6</ele>
        <time>2020-07-27T08:36:38Z</time>
      </trkpt>
      <trkpt lat="42.8914320" lon="-0.0542720">
        <ele>1386.6</ele>
        <time>2020-07-27T08:36:42Z</time>
      </trkpt>
      <trkpt lat="42.8913770" lon="-0.0543270">
        <ele>1387.4</ele>
        <time>2020-07-27T08:36:45Z</time>
      </trkpt>
      <trkpt lat="42.8913320" lon="-0.0543850">
        <ele>1387.8</ele>
        <time>2020-07-27T08:36:48Z</time>
      </trkpt>
      <trkpt lat="42.8912550" lon="-0.0544710">
        <ele>1388.2</ele>
        <time>2020-07-27T08:36:53Z</time>
      </trkpt>
      <trkpt lat="42.8912130" lon="-0.0545210">
        <ele>1388.8</ele>
        <time>2020-07-27T08:36:56Z</time>
      </trkpt>
      <trkpt lat="42.8911830" lon="-0.0545620">
        <ele>1389.2</ele>
        <time>2020-07-27T08:36:58Z</time>
      </trkpt>
      <trkpt lat="42.8911550" lon="-0.0545950">
        <ele>1389.6</ele>
        <time>2020-07-27T08:37:00Z</time>
      </trkpt>
      <trkpt lat="42.8911250" lon="-0.0546220">
        <ele>1390.0</ele>
        <time>2020-07-27T08:37:02Z</time>
      </trkpt>
      <trkpt lat="42.8910580" lon="-0.0546900">
        <ele>1390.8</ele>
        <time>2020-07-27T08:37:06Z</time>
      </trkpt>
      <trkpt lat="42.8910040" lon="-0.0547370">
        <ele>1391.0</ele>
        <time>2020-07-27T08:37:09Z</time>
      </trkpt>
      <trkpt lat="42.8909260" lon="-0.0547900">
        <ele>1391.4</ele>
        <time>2020-07-27T08:37:13Z</time>
      </trkpt>
      <trkpt lat="42.8908880" lon="-0.0548090">
        <ele>1391.8</ele>
        <time>2020-07-27T08:37:15Z</time>
      </trkpt>
      <trkpt lat="42.8908550" lon="-0.0548410">
        <ele>1392.2</ele>
        <time>2020-07-27T08:37:17Z</time>
      </trkpt>
      <trkpt lat="42.8907560" lon="-0.0549400">
        <ele>1393.2</ele>
        <time>2020-07-27T08:37:23Z</time>
      </trkpt>
      <trkpt lat="42.8906620" lon="-0.0550260">
        <ele>1393.6</ele>
        <time>2020-07-27T08:37:29Z</time>
      </trkpt>
      <trkpt lat="42.8906090" lon="-0.0550770">
        <ele>1394.2</ele>
        <time>2020-07-27T08:37:32Z</time>
      </trkpt>
      <trkpt lat="42.8905780" lon="-0.0551060">
        <ele>1394.8</ele>
        <time>2020-07-27T08:37:34Z</time>
      </trkpt>
      <trkpt lat="42.8905340" lon="-0.0551570">
        <ele>1395.2</ele>
        <time>2020-07-27T08:37:37Z</time>
      </trkpt>
      <trkpt lat="42.8904550" lon="-0.0552410">
        <ele>1396.2</ele>
        <time>2020-07-27T08:37:42Z</time>
      </trkpt>
      <trkpt lat="42.8904380" lon="-0.0552600">
        <ele>1396.4</ele>
        <time>2020-07-27T08:37:43Z</time>
      </trkpt>
      <trkpt lat="42.8903410" lon="-0.0553930">
        <ele>1397.4</ele>
        <time>2020-07-27T08:37:49Z</time>
      </trkpt>
      <trkpt lat="42.8903200" lon="-0.0554170">
        <ele>1397.6</ele>
        <time>2020-07-27T08:37:50Z</time>
      </trkpt>
      <trkpt lat="42.8902400" lon="-0.0555290">
        <ele>1398.8</ele>
        <time>2020-07-27T08:37:54Z</time>
      </trkpt>
      <trkpt lat="42.8901810" lon="-0.0556200">
        <ele>1399.8</ele>
        <time>2020-07-27T08:37:57Z</time>
      </trkpt>
      <trkpt lat="42.8901610" lon="-0.0556540">
        <ele>1400.0</ele>
        <time>2020-07-27T08:37:58Z</time>
      </trkpt>
      <trkpt lat="42.8901010" lon="-0.0557590">
        <ele>1400.6</ele>
        <time>2020-07-27T08:38:01Z</time>
      </trkpt>
      <trkpt lat="42.8900590" lon="-0.0558260">
        <ele>1401.4</ele>
        <time>2020-07-27T08:38:03Z</time>
      </trkpt>
      <trkpt lat="42.8900180" lon="-0.0558940">
        <ele>1402.0</ele>
        <time>2020-07-27T08:38:05Z</time>
      </trkpt>
      <trkpt lat="42.8899770" lon="-0.0559550">
        <ele>1402.4</ele>
        <time>2020-07-27T08:38:07Z</time>
      </trkpt>
      <trkpt lat="42.8898890" lon="-0.0560680">
        <ele>1403.8</ele>
        <time>2020-07-27T08:38:11Z</time>
      </trkpt>
      <trkpt lat="42.8898670" lon="-0.0560950">
        <ele>1404.0</ele>
        <time>2020-07-27T08:38:12Z</time>
      </trkpt>
      <trkpt lat="42.8898430" lon="-0.0561210">
        <ele>1404.0</ele>
        <time>2020-07-27T08:38:13Z</time>
      </trkpt>
      <trkpt lat="42.8897420" lon="-0.0562040">
        <ele>1405.0</ele>
        <time>2020-07-27T08:38:17Z</time>
      </trkpt>
      <trkpt lat="42.8896650" lon="-0.0562540">
        <ele>1405.8</ele>
        <time>2020-07-27T08:38:20Z</time>
      </trkpt>
      <trkpt lat="42.8896390" lon="-0.0562770">
        <ele>1406.2</ele>
        <time>2020-07-27T08:38:21Z</time>
      </trkpt>
      <trkpt lat="42.8895890" lon="-0.0563210">
        <ele>1407.2</ele>
        <time>2020-07-27T08:38:23Z</time>
      </trkpt>
      <trkpt lat="42.8895640" lon="-0.0563390">
        <ele>1407.6</ele>
        <time>2020-07-27T08:38:24Z</time>
      </trkpt>
      <trkpt lat="42.8894900" lon="-0.0563940">
        <ele>1408.4</ele>
        <time>2020-07-27T08:38:27Z</time>
      </trkpt>
      <trkpt lat="42.8894380" lon="-0.0564280">
        <ele>1408.8</ele>
        <time>2020-07-27T08:38:29Z</time>
      </trkpt>
      <trkpt lat="42.8892890" lon="-0.0565140">
        <ele>1410.0</ele>
        <time>2020-07-27T08:38:35Z</time>
      </trkpt>
      <trkpt lat="42.8892150" lon="-0.0565460">
        <ele>1410.8</ele>
        <time>2020-07-27T08:38:38Z</time>
      </trkpt>
      <trkpt lat="42.8891900" lon="-0.0565530">
        <ele>1411.0</ele>
        <time>2020-07-27T08:38:39Z</time>
      </trkpt>
      <trkpt lat="42.8890640" lon="-0.0565730">
        <ele>1412.0</ele>
        <time>2020-07-27T08:38:44Z</time>
      </trkpt>
      <trkpt lat="42.8889360" lon="-0.0565750">
        <ele>1413.2</ele>
        <time>2020-07-27T08:38:49Z</time>
      </trkpt>
      <trkpt lat="42.8888570" lon="-0.0565930">
        <ele>1413.8</ele>
        <time>2020-07-27T08:38:52Z</time>
      </trkpt>
      <trkpt lat="42.8887950" lon="-0.0566470">
        <ele>1414.4</ele>
        <time>2020-07-27T08:38:55Z</time>
      </trkpt>
      <trkpt lat="42.8887920" lon="-0.0567080">
        <ele>1415.2</ele>
        <time>2020-07-27T08:38:57Z</time>
      </trkpt>
      <trkpt lat="42.8888260" lon="-0.0567630">
        <ele>1415.8</ele>
        <time>2020-07-27T08:38:59Z</time>
      </trkpt>
      <trkpt lat="42.8888770" lon="-0.0567990">
        <ele>1416.6</ele>
        <time>2020-07-27T08:39:01Z</time>
      </trkpt>
      <trkpt lat="42.8889350" lon="-0.0568210">
        <ele>1417.0</ele>
        <time>2020-07-27T08:39:03Z</time>
      </trkpt>
      <trkpt lat="42.8890650" lon="-0.0568410">
        <ele>1417.8</ele>
        <time>2020-07-27T08:39:07Z</time>
      </trkpt>
      <trkpt lat="42.8891260" lon="-0.0568520">
        <ele>1418.2</ele>
        <time>2020-07-27T08:39:09Z</time>
      </trkpt>
      <trkpt lat="42.8892200" lon="-0.0568670">
        <ele>1419.2</ele>
        <time>2020-07-27T08:39:12Z</time>
      </trkpt>
      <trkpt lat="42.8893480" lon="-0.0568640">
        <ele>1420.2</ele>
        <time>2020-07-27T08:39:16Z</time>
      </trkpt>
      <trkpt lat="42.8893790" lon="-0.0568630">
        <ele>1420.4</ele>
        <time>2020-07-27T08:39:17Z</time>
      </trkpt>
      <trkpt lat="42.8894110" lon="-0.0568660">
        <ele>1420.6</ele>
        <time>2020-07-27T08:39:18Z</time>
      </trkpt>
      <trkpt lat="42.8895340" lon="-0.0568660">
        <ele>1421.6</ele>
        <time>2020-07-27T08:39:22Z</time>
      </trkpt>
      <trkpt lat="42.8895650" lon="-0.0568640">
        <ele>1421.8</ele>
        <time>2020-07-27T08:39:23Z</time>
      </trkpt>
      <trkpt lat="42.8896880" lon="-0.0568250">
        <ele>1422.6</ele>
        <time>2020-07-27T08:39:27Z</time>
      </trkpt>
      <trkpt lat="42.8897810" lon="-0.0567870">
        <ele>1423.2</ele>
        <time>2020-07-27T08:39:30Z</time>
      </trkpt>
      <trkpt lat="42.8898700" lon="-0.0567490">
        <ele>1423.8</ele>
        <time>2020-07-27T08:39:33Z</time>
      </trkpt>
      <trkpt lat="42.8899580" lon="-0.0567180">
        <ele>1425.0</ele>
        <time>2020-07-27T08:39:36Z</time>
      </trkpt>
      <trkpt lat="42.8900160" lon="-0.0567000">
        <ele>1425.2</ele>
        <time>2020-07-27T08:39:38Z</time>
      </trkpt>
      <trkpt lat="42.8901030" lon="-0.0566850">
        <ele>1426.0</ele>
        <time>2020-07-27T08:39:41Z</time>
      </trkpt>
      <trkpt lat="42.8901930" lon="-0.0566560">
        <ele>1427.0</ele>
        <time>2020-07-27T08:39:44Z</time>
      </trkpt>
      <trkpt lat="42.8902240" lon="-0.0566470">
        <ele>1427.2</ele>
        <time>2020-07-27T08:39:45Z</time>
      </trkpt>
      <trkpt lat="42.8903790" lon="-0.0566140">
        <ele>1428.2</ele>
        <time>2020-07-27T08:39:50Z</time>
      </trkpt>
      <trkpt lat="42.8904390" lon="-0.0565960">
        <ele>1429.0</ele>
        <time>2020-07-27T08:39:52Z</time>
      </trkpt>
      <trkpt lat="42.8904690" lon="-0.0565850">
        <ele>1429.2</ele>
        <time>2020-07-27T08:39:53Z</time>
      </trkpt>
      <trkpt lat="42.8906140" lon="-0.0565480">
        <ele>1430.4</ele>
        <time>2020-07-27T08:39:58Z</time>
      </trkpt>
      <trkpt lat="42.8906990" lon="-0.0565380">
        <ele>1431.0</ele>
        <time>2020-07-27T08:40:01Z</time>
      </trkpt>
      <trkpt lat="42.8907540" lon="-0.0565360">
        <ele>1431.6</ele>
        <time>2020-07-27T08:40:03Z</time>
      </trkpt>
      <trkpt lat="42.8908670" lon="-0.0565320">
        <ele>1432.6</ele>
        <time>2020-07-27T08:40:07Z</time>
      </trkpt>
      <trkpt lat="42.8909550" lon="-0.0565370">
        <ele>1434.0</ele>
        <time>2020-07-27T08:40:10Z</time>
      </trkpt>
      <trkpt lat="42.8909830" lon="-0.0565410">
        <ele>1434.4</ele>
        <time>2020-07-27T08:40:11Z</time>
      </trkpt>
      <trkpt lat="42.8910390" lon="-0.0565390">
        <ele>1435.0</ele>
        <time>2020-07-27T08:40:13Z</time>
      </trkpt>
      <trkpt lat="42.8911810" lon="-0.0565300">
        <ele>1436.2</ele>
        <time>2020-07-27T08:40:18Z</time>
      </trkpt>
      <trkpt lat="42.8912380" lon="-0.0565250">
        <ele>1436.6</ele>
        <time>2020-07-27T08:40:20Z</time>
      </trkpt>
      <trkpt lat="42.8913230" lon="-0.0565090">
        <ele>1437.2</ele>
        <time>2020-07-27T08:40:23Z</time>
      </trkpt>
      <trkpt lat="42.8914080" lon="-0.0564820">
        <ele>1438.4</ele>
        <time>2020-07-27T08:40:26Z</time>
      </trkpt>
      <trkpt lat="42.8914350" lon="-0.0564700">
        <ele>1438.6</ele>
        <time>2020-07-27T08:40:27Z</time>
      </trkpt>
      <trkpt lat="42.8915480" lon="-0.0564190">
        <ele>1439.4</ele>
        <time>2020-07-27T08:40:31Z</time>
      </trkpt>
      <trkpt lat="42.8916060" lon="-0.0563960">
        <ele>1440.4</ele>
        <time>2020-07-27T08:40:33Z</time>
      </trkpt>
      <trkpt lat="42.8917020" lon="-0.0563810">
        <ele>1441.2</ele>
        <time>2020-07-27T08:40:36Z</time>
      </trkpt>
      <trkpt lat="42.8917960" lon="-0.0563840">
        <ele>1441.6</ele>
        <time>2020-07-27T08:40:39Z</time>
      </trkpt>
      <trkpt lat="42.8919240" lon="-0.0564130">
        <ele>1442.4</ele>
        <time>2020-07-27T08:40:43Z</time>
      </trkpt>
      <trkpt lat="42.8919600" lon="-0.0564270">
        <ele>1442.6</ele>
        <time>2020-07-27T08:40:44Z</time>
      </trkpt>
      <trkpt lat="42.8921720" lon="-0.0565280">
        <ele>1443.0</ele>
        <time>2020-07-27T08:40:50Z</time>
      </trkpt>
      <trkpt lat="42.8923140" lon="-0.0565270">
        <ele>1443.8</ele>
        <time>2020-07-27T08:40:54Z</time>
      </trkpt>
      <trkpt lat="42.8923460" lon="-0.0565080">
        <ele>1444.0</ele>
        <time>2020-07-27T08:40:55Z</time>
      </trkpt>
      <trkpt lat="42.8924620" lon="-0.0563770">
        <ele>1444.8</ele>
        <time>2020-07-27T08:40:59Z</time>
      </trkpt>
      <trkpt lat="42.8925220" lon="-0.0563040">
        <ele>1444.8</ele>
        <time>2020-07-27T08:41:01Z</time>
      </trkpt>
      <trkpt lat="42.8927180" lon="-0.0561450">
        <ele>1445.2</ele>
        <time>2020-07-27T08:41:07Z</time>
      </trkpt>
      <trkpt lat="42.8927540" lon="-0.0561250">
        <ele>1445.6</ele>
        <time>2020-07-27T08:41:08Z</time>
      </trkpt>
      <trkpt lat="42.8927900" lon="-0.0561030">
        <ele>1446.0</ele>
        <time>2020-07-27T08:41:09Z</time>
      </trkpt>
      <trkpt lat="42.8928280" lon="-0.0560810">
        <ele>1446.2</ele>
        <time>2020-07-27T08:41:10Z</time>
      </trkpt>
      <trkpt lat="42.8929440" lon="-0.0560270">
        <ele>1447.2</ele>
        <time>2020-07-27T08:41:13Z</time>
      </trkpt>
      <trkpt lat="42.8930660" lon="-0.0559960">
        <ele>1448.2</ele>
        <time>2020-07-27T08:41:16Z</time>
      </trkpt>
      <trkpt lat="42.8931080" lon="-0.0559920">
        <ele>1448.4</ele>
        <time>2020-07-27T08:41:17Z</time>
      </trkpt>
      <trkpt lat="42.8932820" lon="-0.0560610">
        <ele>1449.8</ele>
        <time>2020-07-27T08:41:22Z</time>
      </trkpt>
      <trkpt lat="42.8932690" lon="-0.0561470">
        <ele>1450.4</ele>
        <time>2020-07-27T08:41:24Z</time>
      </trkpt>
      <trkpt lat="42.8932420" lon="-0.0561750">
        <ele>1450.8</ele>
        <time>2020-07-27T08:41:25Z</time>
      </trkpt>
      <trkpt lat="42.8930880" lon="-0.0562130">
        <ele>1451.2</ele>
        <time>2020-07-27T08:41:29Z</time>
      </trkpt>
      <trkpt lat="42.8930010" lon="-0.0562360">
        <ele>1451.0</ele>
        <time>2020-07-27T08:41:31Z</time>
      </trkpt>
      <trkpt lat="42.8928500" lon="-0.0563370">
        <ele>1451.8</ele>
        <time>2020-07-27T08:41:35Z</time>
      </trkpt>
      <trkpt lat="42.8927780" lon="-0.0563940">
        <ele>1453.0</ele>
        <time>2020-07-27T08:41:37Z</time>
      </trkpt>
      <trkpt lat="42.8926460" lon="-0.0565440">
        <ele>1454.2</ele>
        <time>2020-07-27T08:41:42Z</time>
      </trkpt>
      <trkpt lat="42.8925590" lon="-0.0567150">
        <ele>1455.4</ele>
        <time>2020-07-27T08:41:47Z</time>
      </trkpt>
      <trkpt lat="42.8925180" lon="-0.0567720">
        <ele>1456.6</ele>
        <time>2020-07-27T08:41:49Z</time>
      </trkpt>
      <trkpt lat="42.8924970" lon="-0.0568010">
        <ele>1456.8</ele>
        <time>2020-07-27T08:41:50Z</time>
      </trkpt>
      <trkpt lat="42.8924590" lon="-0.0568620">
        <ele>1457.2</ele>
        <time>2020-07-27T08:41:52Z</time>
      </trkpt>
      <trkpt lat="42.8924110" lon="-0.0569040">
        <ele>1457.8</ele>
        <time>2020-07-27T08:41:54Z</time>
      </trkpt>
      <trkpt lat="42.8923570" lon="-0.0569330">
        <ele>1458.6</ele>
        <time>2020-07-27T08:41:56Z</time>
      </trkpt>
      <trkpt lat="42.8923290" lon="-0.0569410">
        <ele>1459.0</ele>
        <time>2020-07-27T08:41:57Z</time>
      </trkpt>
      <trkpt lat="42.8921850" lon="-0.0569710">
        <ele>1460.2</ele>
        <time>2020-07-27T08:42:02Z</time>
      </trkpt>
      <trkpt lat="42.8921270" lon="-0.0569830">
        <ele>1460.2</ele>
        <time>2020-07-27T08:42:04Z</time>
      </trkpt>
      <trkpt lat="42.8920310" lon="-0.0570170">
        <ele>1461.2</ele>
        <time>2020-07-27T08:42:08Z</time>
      </trkpt>
      <trkpt lat="42.8919790" lon="-0.0570350">
        <ele>1461.6</ele>
        <time>2020-07-27T08:42:10Z</time>
      </trkpt>
      <trkpt lat="42.8919330" lon="-0.0570580">
        <ele>1462.2</ele>
        <time>2020-07-27T08:42:12Z</time>
      </trkpt>
      <trkpt lat="42.8918580" lon="-0.0570950">
        <ele>1463.4</ele>
        <time>2020-07-27T08:42:15Z</time>
      </trkpt>
      <trkpt lat="42.8917870" lon="-0.0571350">
        <ele>1463.6</ele>
        <time>2020-07-27T08:42:18Z</time>
      </trkpt>
      <trkpt lat="42.8917170" lon="-0.0571770">
        <ele>1464.2</ele>
        <time>2020-07-27T08:42:21Z</time>
      </trkpt>
      <trkpt lat="42.8916930" lon="-0.0571890">
        <ele>1464.6</ele>
        <time>2020-07-27T08:42:22Z</time>
      </trkpt>
      <trkpt lat="42.8916550" lon="-0.0571920">
        <ele>1465.4</ele>
        <time>2020-07-27T08:42:24Z</time>
      </trkpt>
      <trkpt lat="42.8916360" lon="-0.0571980">
        <ele>1465.8</ele>
        <time>2020-07-27T08:42:25Z</time>
      </trkpt>
      <trkpt lat="42.8916170" lon="-0.0572170">
        <ele>1466.0</ele>
        <time>2020-07-27T08:42:26Z</time>
      </trkpt>
      <trkpt lat="42.8916000" lon="-0.0572430">
        <ele>1466.2</ele>
        <time>2020-07-27T08:42:27Z</time>
      </trkpt>
      <trkpt lat="42.8915790" lon="-0.0572640">
        <ele>1466.6</ele>
        <time>2020-07-27T08:42:28Z</time>
      </trkpt>
      <trkpt lat="42.8915580" lon="-0.0572860">
        <ele>1466.8</ele>
        <time>2020-07-27T08:42:29Z</time>
      </trkpt>
      <trkpt lat="42.8914510" lon="-0.0573900">
        <ele>1468.2</ele>
        <time>2020-07-27T08:42:34Z</time>
      </trkpt>
      <trkpt lat="42.8913890" lon="-0.0574510">
        <ele>1469.0</ele>
        <time>2020-07-27T08:42:37Z</time>
      </trkpt>
      <trkpt lat="42.8913450" lon="-0.0574870">
        <ele>1469.4</ele>
        <time>2020-07-27T08:42:39Z</time>
      </trkpt>
      <trkpt lat="42.8912340" lon="-0.0575870">
        <ele>1470.6</ele>
        <time>2020-07-27T08:42:44Z</time>
      </trkpt>
      <trkpt lat="42.8911890" lon="-0.0576210">
        <ele>1471.0</ele>
        <time>2020-07-27T08:42:46Z</time>
      </trkpt>
      <trkpt lat="42.8911630" lon="-0.0576330">
        <ele>1471.2</ele>
        <time>2020-07-27T08:42:47Z</time>
      </trkpt>
      <trkpt lat="42.8911380" lon="-0.0576450">
        <ele>1471.6</ele>
        <time>2020-07-27T08:42:48Z</time>
      </trkpt>
      <trkpt lat="42.8911120" lon="-0.0576580">
        <ele>1471.8</ele>
        <time>2020-07-27T08:42:49Z</time>
      </trkpt>
      <trkpt lat="42.8910600" lon="-0.0576900">
        <ele>1472.4</ele>
        <time>2020-07-27T08:42:51Z</time>
      </trkpt>
      <trkpt lat="42.8910350" lon="-0.0577060">
        <ele>1472.6</ele>
        <time>2020-07-27T08:42:52Z</time>
      </trkpt>
      <trkpt lat="42.8910090" lon="-0.0577190">
        <ele>1473.0</ele>
        <time>2020-07-27T08:42:53Z</time>
      </trkpt>
      <trkpt lat="42.8909020" lon="-0.0577710">
        <ele>1473.8</ele>
        <time>2020-07-27T08:42:57Z</time>
      </trkpt>
      <trkpt lat="42.8907980" lon="-0.0578260">
        <ele>1474.6</ele>
        <time>2020-07-27T08:43:01Z</time>
      </trkpt>
      <trkpt lat="42.8907720" lon="-0.0578410">
        <ele>1474.8</ele>
        <time>2020-07-27T08:43:02Z</time>
      </trkpt>
      <trkpt lat="42.8906960" lon="-0.0578920">
        <ele>1475.8</ele>
        <time>2020-07-27T08:43:05Z</time>
      </trkpt>
      <trkpt lat="42.8906730" lon="-0.0579100">
        <ele>1476.0</ele>
        <time>2020-07-27T08:43:06Z</time>
      </trkpt>
      <trkpt lat="42.8906500" lon="-0.0579280">
        <ele>1476.2</ele>
        <time>2020-07-27T08:43:07Z</time>
      </trkpt>
      <trkpt lat="42.8906260" lon="-0.0579430">
        <ele>1476.4</ele>
        <time>2020-07-27T08:43:08Z</time>
      </trkpt>
      <trkpt lat="42.8905990" lon="-0.0579520">
        <ele>1476.6</ele>
        <time>2020-07-27T08:43:09Z</time>
      </trkpt>
      <trkpt lat="42.8905700" lon="-0.0579600">
        <ele>1477.0</ele>
        <time>2020-07-27T08:43:10Z</time>
      </trkpt>
      <trkpt lat="42.8904660" lon="-0.0580130">
        <ele>1478.2</ele>
        <time>2020-07-27T08:43:14Z</time>
      </trkpt>
      <trkpt lat="42.8903860" lon="-0.0580420">
        <ele>1479.2</ele>
        <time>2020-07-27T08:43:17Z</time>
      </trkpt>
      <trkpt lat="42.8902430" lon="-0.0580800">
        <ele>1480.0</ele>
        <time>2020-07-27T08:43:22Z</time>
      </trkpt>
      <trkpt lat="42.8902110" lon="-0.0580870">
        <ele>1480.4</ele>
        <time>2020-07-27T08:43:23Z</time>
      </trkpt>
      <trkpt lat="42.8901490" lon="-0.0581060">
        <ele>1480.8</ele>
        <time>2020-07-27T08:43:25Z</time>
      </trkpt>
      <trkpt lat="42.8900590" lon="-0.0581420">
        <ele>1481.6</ele>
        <time>2020-07-27T08:43:28Z</time>
      </trkpt>
      <trkpt lat="42.8899830" lon="-0.0582000">
        <ele>1482.4</ele>
        <time>2020-07-27T08:43:31Z</time>
      </trkpt>
      <trkpt lat="42.8899600" lon="-0.0582210">
        <ele>1482.6</ele>
        <time>2020-07-27T08:43:32Z</time>
      </trkpt>
      <trkpt lat="42.8899360" lon="-0.0582450">
        <ele>1482.8</ele>
        <time>2020-07-27T08:43:33Z</time>
      </trkpt>
      <trkpt lat="42.8898920" lon="-0.0582970">
        <ele>1483.2</ele>
        <time>2020-07-27T08:43:35Z</time>
      </trkpt>
      <trkpt lat="42.8898470" lon="-0.0583470">
        <ele>1483.8</ele>
        <time>2020-07-27T08:43:37Z</time>
      </trkpt>
      <trkpt lat="42.8898000" lon="-0.0583950">
        <ele>1484.6</ele>
        <time>2020-07-27T08:43:39Z</time>
      </trkpt>
      <trkpt lat="42.8897490" lon="-0.0584410">
        <ele>1485.0</ele>
        <time>2020-07-27T08:43:41Z</time>
      </trkpt>
      <trkpt lat="42.8896350" lon="-0.0584960">
        <ele>1486.0</ele>
        <time>2020-07-27T08:43:45Z</time>
      </trkpt>
      <trkpt lat="42.8895150" lon="-0.0585190">
        <ele>1487.2</ele>
        <time>2020-07-27T08:43:49Z</time>
      </trkpt>
      <trkpt lat="42.8894560" lon="-0.0585170">
        <ele>1487.6</ele>
        <time>2020-07-27T08:43:51Z</time>
      </trkpt>
      <trkpt lat="42.8893660" lon="-0.0585160">
        <ele>1488.2</ele>
        <time>2020-07-27T08:43:54Z</time>
      </trkpt>
      <trkpt lat="42.8892690" lon="-0.0585130">
        <ele>1489.4</ele>
        <time>2020-07-27T08:43:57Z</time>
      </trkpt>
      <trkpt lat="42.8891450" lon="-0.0585430">
        <ele>1490.6</ele>
        <time>2020-07-27T08:44:01Z</time>
      </trkpt>
      <trkpt lat="42.8891140" lon="-0.0585560">
        <ele>1491.0</ele>
        <time>2020-07-27T08:44:02Z</time>
      </trkpt>
      <trkpt lat="42.8890020" lon="-0.0586220">
        <ele>1491.8</ele>
        <time>2020-07-27T08:44:06Z</time>
      </trkpt>
      <trkpt lat="42.8888520" lon="-0.0586850">
        <ele>1492.8</ele>
        <time>2020-07-27T08:44:11Z</time>
      </trkpt>
      <trkpt lat="42.8887070" lon="-0.0587290">
        <ele>1494.0</ele>
        <time>2020-07-27T08:44:16Z</time>
      </trkpt>
      <trkpt lat="42.8886200" lon="-0.0587450">
        <ele>1495.0</ele>
        <time>2020-07-27T08:44:19Z</time>
      </trkpt>
      <trkpt lat="42.8885000" lon="-0.0587390">
        <ele>1496.2</ele>
        <time>2020-07-27T08:44:23Z</time>
      </trkpt>
      <trkpt lat="42.8883780" lon="-0.0587390">
        <ele>1497.2</ele>
        <time>2020-07-27T08:44:27Z</time>
      </trkpt>
      <trkpt lat="42.8881950" lon="-0.0587230">
        <ele>1498.4</ele>
        <time>2020-07-27T08:44:33Z</time>
      </trkpt>
      <trkpt lat="42.8880720" lon="-0.0586940">
        <ele>1499.6</ele>
        <time>2020-07-27T08:44:37Z</time>
      </trkpt>
      <trkpt lat="42.8879570" lon="-0.0586480">
        <ele>1500.8</ele>
        <time>2020-07-27T08:44:41Z</time>
      </trkpt>
      <trkpt lat="42.8878330" lon="-0.0586120">
        <ele>1502.0</ele>
        <time>2020-07-27T08:44:45Z</time>
      </trkpt>
      <trkpt lat="42.8877700" lon="-0.0586020">
        <ele>1502.6</ele>
        <time>2020-07-27T08:44:47Z</time>
      </trkpt>
      <trkpt lat="42.8877050" lon="-0.0585970">
        <ele>1503.0</ele>
        <time>2020-07-27T08:44:49Z</time>
      </trkpt>
      <trkpt lat="42.8875230" lon="-0.0586200">
        <ele>1504.2</ele>
        <time>2020-07-27T08:44:54Z</time>
      </trkpt>
      <trkpt lat="42.8873490" lon="-0.0586360">
        <ele>1505.2</ele>
        <time>2020-07-27T08:44:59Z</time>
      </trkpt>
      <trkpt lat="42.8873150" lon="-0.0586430">
        <ele>1505.4</ele>
        <time>2020-07-27T08:45:00Z</time>
      </trkpt>
      <trkpt lat="42.8872840" lon="-0.0586560">
        <ele>1505.6</ele>
        <time>2020-07-27T08:45:01Z</time>
      </trkpt>
      <trkpt lat="42.8872330" lon="-0.0587580">
        <ele>1506.6</ele>
        <time>2020-07-27T08:45:04Z</time>
      </trkpt>
      <trkpt lat="42.8872550" lon="-0.0588350">
        <ele>1507.0</ele>
        <time>2020-07-27T08:45:06Z</time>
      </trkpt>
      <trkpt lat="42.8872820" lon="-0.0588530">
        <ele>1507.4</ele>
        <time>2020-07-27T08:45:07Z</time>
      </trkpt>
      <trkpt lat="42.8873140" lon="-0.0588580">
        <ele>1507.6</ele>
        <time>2020-07-27T08:45:08Z</time>
      </trkpt>
      <trkpt lat="42.8874510" lon="-0.0588470">
        <ele>1508.8</ele>
        <time>2020-07-27T08:45:12Z</time>
      </trkpt>
      <trkpt lat="42.8876480" lon="-0.0588350">
        <ele>1510.2</ele>
        <time>2020-07-27T08:45:18Z</time>
      </trkpt>
      <trkpt lat="42.8877100" lon="-0.0588520">
        <ele>1511.2</ele>
        <time>2020-07-27T08:45:20Z</time>
      </trkpt>
      <trkpt lat="42.8878230" lon="-0.0589080">
        <ele>1512.4</ele>
        <time>2020-07-27T08:45:24Z</time>
      </trkpt>
      <trkpt lat="42.8879130" lon="-0.0589580">
        <ele>1513.6</ele>
        <time>2020-07-27T08:45:27Z</time>
      </trkpt>
      <trkpt lat="42.8879700" lon="-0.0589970">
        <ele>1514.0</ele>
        <time>2020-07-27T08:45:29Z</time>
      </trkpt>
      <trkpt lat="42.8880890" lon="-0.0590640">
        <ele>1515.0</ele>
        <time>2020-07-27T08:45:33Z</time>
      </trkpt>
      <trkpt lat="42.8882030" lon="-0.0591320">
        <ele>1516.2</ele>
        <time>2020-07-27T08:45:37Z</time>
      </trkpt>
      <trkpt lat="42.8882950" lon="-0.0591750">
        <ele>1517.2</ele>
        <time>2020-07-27T08:45:40Z</time>
      </trkpt>
      <trkpt lat="42.8884010" lon="-0.0591870">
        <ele>1518.0</ele>
        <time>2020-07-27T08:45:43Z</time>
      </trkpt>
      <trkpt lat="42.8884720" lon="-0.0591830">
        <ele>1518.4</ele>
        <time>2020-07-27T08:45:45Z</time>
      </trkpt>
      <trkpt lat="42.8886160" lon="-0.0591860">
        <ele>1519.2</ele>
        <time>2020-07-27T08:45:49Z</time>
      </trkpt>
      <trkpt lat="42.8886870" lon="-0.0592080">
        <ele>1519.4</ele>
        <time>2020-07-27T08:45:51Z</time>
      </trkpt>
      <trkpt lat="42.8887880" lon="-0.0592460">
        <ele>1519.8</ele>
        <time>2020-07-27T08:45:54Z</time>
      </trkpt>
      <trkpt lat="42.8888470" lon="-0.0592870">
        <ele>1520.0</ele>
        <time>2020-07-27T08:45:56Z</time>
      </trkpt>
      <trkpt lat="42.8889790" lon="-0.0593490">
        <ele>1520.4</ele>
        <time>2020-07-27T08:46:00Z</time>
      </trkpt>
      <trkpt lat="42.8890150" lon="-0.0593490">
        <ele>1520.4</ele>
        <time>2020-07-27T08:46:01Z</time>
      </trkpt>
      <trkpt lat="42.8891890" lon="-0.0593180">
        <ele>1521.4</ele>
        <time>2020-07-27T08:46:06Z</time>
      </trkpt>
      <trkpt lat="42.8892540" lon="-0.0593110">
        <ele>1521.6</ele>
        <time>2020-07-27T08:46:08Z</time>
      </trkpt>
      <trkpt lat="42.8894190" lon="-0.0593010">
        <ele>1522.8</ele>
        <time>2020-07-27T08:46:13Z</time>
      </trkpt>
      <trkpt lat="42.8895470" lon="-0.0592770">
        <ele>1524.0</ele>
        <time>2020-07-27T08:46:17Z</time>
      </trkpt>
      <trkpt lat="42.8896680" lon="-0.0592350">
        <ele>1525.2</ele>
        <time>2020-07-27T08:46:21Z</time>
      </trkpt>
      <trkpt lat="42.8897750" lon="-0.0591910">
        <ele>1526.4</ele>
        <time>2020-07-27T08:46:25Z</time>
      </trkpt>
      <trkpt lat="42.8898310" lon="-0.0591540">
        <ele>1526.8</ele>
        <time>2020-07-27T08:46:27Z</time>
      </trkpt>
      <trkpt lat="42.8899380" lon="-0.0590720">
        <ele>1527.2</ele>
        <time>2020-07-27T08:46:31Z</time>
      </trkpt>
      <trkpt lat="42.8899640" lon="-0.0590540">
        <ele>1527.6</ele>
        <time>2020-07-27T08:46:32Z</time>
      </trkpt>
      <trkpt lat="42.8900490" lon="-0.0590160">
        <ele>1528.6</ele>
        <time>2020-07-27T08:46:35Z</time>
      </trkpt>
      <trkpt lat="42.8901030" lon="-0.0590190">
        <ele>1529.0</ele>
        <time>2020-07-27T08:46:37Z</time>
      </trkpt>
      <trkpt lat="42.8901550" lon="-0.0590550">
        <ele>1530.0</ele>
        <time>2020-07-27T08:46:40Z</time>
      </trkpt>
      <trkpt lat="42.8901660" lon="-0.0591030">
        <ele>1530.6</ele>
        <time>2020-07-27T08:46:42Z</time>
      </trkpt>
      <trkpt lat="42.8901420" lon="-0.0591690">
        <ele>1531.0</ele>
        <time>2020-07-27T08:46:44Z</time>
      </trkpt>
      <trkpt lat="42.8900970" lon="-0.0592290">
        <ele>1531.2</ele>
        <time>2020-07-27T08:46:46Z</time>
      </trkpt>
      <trkpt lat="42.8899410" lon="-0.0593780">
        <ele>1531.8</ele>
        <time>2020-07-27T08:46:52Z</time>
      </trkpt>
      <trkpt lat="42.8898890" lon="-0.0594110">
        <ele>1532.0</ele>
        <time>2020-07-27T08:46:54Z</time>
      </trkpt>
      <trkpt lat="42.8898600" lon="-0.0594190">
        <ele>1532.0</ele>
        <time>2020-07-27T08:46:55Z</time>
      </trkpt>
      <trkpt lat="42.8897290" lon="-0.0594920">
        <ele>1532.8</ele>
        <time>2020-07-27T08:47:00Z</time>
      </trkpt>
      <trkpt lat="42.8896990" lon="-0.0595040">
        <ele>1533.0</ele>
        <time>2020-07-27T08:47:01Z</time>
      </trkpt>
      <trkpt lat="42.8895420" lon="-0.0595960">
        <ele>1534.2</ele>
        <time>2020-07-27T08:47:07Z</time>
      </trkpt>
      <trkpt lat="42.8894670" lon="-0.0596510">
        <ele>1534.2</ele>
        <time>2020-07-27T08:47:10Z</time>
      </trkpt>
      <trkpt lat="42.8893910" lon="-0.0597430">
        <ele>1534.6</ele>
        <time>2020-07-27T08:47:13Z</time>
      </trkpt>
      <trkpt lat="42.8893100" lon="-0.0598220">
        <ele>1535.2</ele>
        <time>2020-07-27T08:47:16Z</time>
      </trkpt>
      <trkpt lat="42.8891980" lon="-0.0599220">
        <ele>1536.2</ele>
        <time>2020-07-27T08:47:20Z</time>
      </trkpt>
      <trkpt lat="42.8890410" lon="-0.0600140">
        <ele>1537.4</ele>
        <time>2020-07-27T08:47:25Z</time>
      </trkpt>
      <trkpt lat="42.8889720" lon="-0.0600370">
        <ele>1537.8</ele>
        <time>2020-07-27T08:47:27Z</time>
      </trkpt>
      <trkpt lat="42.8887980" lon="-0.0600530">
        <ele>1538.4</ele>
        <time>2020-07-27T08:47:32Z</time>
      </trkpt>
      <trkpt lat="42.8887280" lon="-0.0600530">
        <ele>1538.8</ele>
        <time>2020-07-27T08:47:34Z</time>
      </trkpt>
      <trkpt lat="42.8886250" lon="-0.0600630">
        <ele>1539.8</ele>
        <time>2020-07-27T08:47:37Z</time>
      </trkpt>
      <trkpt lat="42.8885020" lon="-0.0601050">
        <ele>1540.4</ele>
        <time>2020-07-27T08:47:41Z</time>
      </trkpt>
      <trkpt lat="42.8884790" lon="-0.0601300">
        <ele>1540.8</ele>
        <time>2020-07-27T08:47:42Z</time>
      </trkpt>
      <trkpt lat="42.8884760" lon="-0.0602060">
        <ele>1541.2</ele>
        <time>2020-07-27T08:47:44Z</time>
      </trkpt>
      <trkpt lat="42.8885220" lon="-0.0602520">
        <ele>1541.4</ele>
        <time>2020-07-27T08:47:46Z</time>
      </trkpt>
      <trkpt lat="42.8885550" lon="-0.0602480">
        <ele>1541.4</ele>
        <time>2020-07-27T08:47:47Z</time>
      </trkpt>
      <trkpt lat="42.8886920" lon="-0.0601920">
        <ele>1541.8</ele>
        <time>2020-07-27T08:47:51Z</time>
      </trkpt>
      <trkpt lat="42.8887950" lon="-0.0601710">
        <ele>1542.6</ele>
        <time>2020-07-27T08:47:54Z</time>
      </trkpt>
      <trkpt lat="42.8888290" lon="-0.0601730">
        <ele>1543.0</ele>
        <time>2020-07-27T08:47:55Z</time>
      </trkpt>
      <trkpt lat="42.8889350" lon="-0.0601970">
        <ele>1544.2</ele>
        <time>2020-07-27T08:47:58Z</time>
      </trkpt>
      <trkpt lat="42.8890040" lon="-0.0602240">
        <ele>1544.6</ele>
        <time>2020-07-27T08:48:00Z</time>
      </trkpt>
      <trkpt lat="42.8891250" lon="-0.0602520">
        <ele>1545.4</ele>
        <time>2020-07-27T08:48:04Z</time>
      </trkpt>
      <trkpt lat="42.8891560" lon="-0.0602430">
        <ele>1545.8</ele>
        <time>2020-07-27T08:48:06Z</time>
      </trkpt>
      <trkpt lat="42.8891620" lon="-0.0602430">
        <ele>1546.0</ele>
        <time>2020-07-27T08:48:07Z</time>
      </trkpt>
      <trkpt lat="42.8891660" lon="-0.0602470">
        <ele>1546.2</ele>
        <time>2020-07-27T08:48:12Z</time>
      </trkpt>
      <trkpt lat="42.8891650" lon="-0.0602210">
        <ele>1546.0</ele>
        <time>2020-07-27T08:48:18Z</time>
      </trkpt>
      <trkpt lat="42.8891860" lon="-0.0602210">
        <ele>1545.8</ele>
        <time>2020-07-27T08:48:21Z</time>
      </trkpt>
      <trkpt lat="42.8891970" lon="-0.0602090">
        <ele>1545.8</ele>
        <time>2020-07-27T08:48:22Z</time>
      </trkpt>
      <trkpt lat="42.8892540" lon="-0.0601800">
        <ele>1546.6</ele>
        <time>2020-07-27T08:48:26Z</time>
      </trkpt>
      <trkpt lat="42.8892650" lon="-0.0601690">
        <ele>1547.0</ele>
        <time>2020-07-27T08:48:27Z</time>
      </trkpt>
      <trkpt lat="42.8893350" lon="-0.0600810">
        <ele>1547.8</ele>
        <time>2020-07-27T08:48:32Z</time>
      </trkpt>
      <trkpt lat="42.8894870" lon="-0.0599270">
        <ele>1548.6</ele>
        <time>2020-07-27T08:48:37Z</time>
      </trkpt>
      <trkpt lat="42.8895270" lon="-0.0599030">
        <ele>1548.8</ele>
        <time>2020-07-27T08:48:38Z</time>
      </trkpt>
      <trkpt lat="42.8896820" lon="-0.0598700">
        <ele>1550.0</ele>
        <time>2020-07-27T08:48:42Z</time>
      </trkpt>
      <trkpt lat="42.8897650" lon="-0.0599560">
        <ele>1550.8</ele>
        <time>2020-07-27T08:48:45Z</time>
      </trkpt>
      <trkpt lat="42.8897690" lon="-0.0600030">
        <ele>1551.0</ele>
        <time>2020-07-27T08:48:46Z</time>
      </trkpt>
      <trkpt lat="42.8897110" lon="-0.0601370">
        <ele>1551.6</ele>
        <time>2020-07-27T08:48:49Z</time>
      </trkpt>
      <trkpt lat="42.8895770" lon="-0.0602720">
        <ele>1552.2</ele>
        <time>2020-07-27T08:48:53Z</time>
      </trkpt>
      <trkpt lat="42.8894440" lon="-0.0603990">
        <ele>1553.2</ele>
        <time>2020-07-27T08:48:57Z</time>
      </trkpt>
      <trkpt lat="42.8893520" lon="-0.0605140">
        <ele>1554.6</ele>
        <time>2020-07-27T08:49:00Z</time>
      </trkpt>
      <trkpt lat="42.8892380" lon="-0.0606680">
        <ele>1555.4</ele>
        <time>2020-07-27T08:49:04Z</time>
      </trkpt>
      <trkpt lat="42.8892040" lon="-0.0606940">
        <ele>1555.8</ele>
        <time>2020-07-27T08:49:05Z</time>
      </trkpt>
      <trkpt lat="42.8890550" lon="-0.0607590">
        <ele>1556.6</ele>
        <time>2020-07-27T08:49:09Z</time>
      </trkpt>
      <trkpt lat="42.8889820" lon="-0.0607840">
        <ele>1557.0</ele>
        <time>2020-07-27T08:49:11Z</time>
      </trkpt>
      <trkpt lat="42.8888430" lon="-0.0608530">
        <ele>1558.2</ele>
        <time>2020-07-27T08:49:15Z</time>
      </trkpt>
      <trkpt lat="42.8888080" lon="-0.0608700">
        <ele>1558.6</ele>
        <time>2020-07-27T08:49:16Z</time>
      </trkpt>
      <trkpt lat="42.8887410" lon="-0.0609050">
        <ele>1559.8</ele>
        <time>2020-07-27T08:49:18Z</time>
      </trkpt>
      <trkpt lat="42.8886420" lon="-0.0609510">
        <ele>1561.0</ele>
        <time>2020-07-27T08:49:21Z</time>
      </trkpt>
      <trkpt lat="42.8884780" lon="-0.0610320">
        <ele>1562.0</ele>
        <time>2020-07-27T08:49:26Z</time>
      </trkpt>
      <trkpt lat="42.8884450" lon="-0.0610490">
        <ele>1562.2</ele>
        <time>2020-07-27T08:49:27Z</time>
      </trkpt>
      <trkpt lat="42.8883500" lon="-0.0610950">
        <ele>1563.6</ele>
        <time>2020-07-27T08:49:30Z</time>
      </trkpt>
      <trkpt lat="42.8882230" lon="-0.0611660">
        <ele>1564.8</ele>
        <time>2020-07-27T08:49:34Z</time>
      </trkpt>
      <trkpt lat="42.8880950" lon="-0.0612100">
        <ele>1566.2</ele>
        <time>2020-07-27T08:49:38Z</time>
      </trkpt>
      <trkpt lat="42.8880610" lon="-0.0612180">
        <ele>1566.8</ele>
        <time>2020-07-27T08:49:39Z</time>
      </trkpt>
      <trkpt lat="42.8879940" lon="-0.0612290">
        <ele>1567.4</ele>
        <time>2020-07-27T08:49:41Z</time>
      </trkpt>
      <trkpt lat="42.8877950" lon="-0.0612050">
        <ele>1568.2</ele>
        <time>2020-07-27T08:49:47Z</time>
      </trkpt>
      <trkpt lat="42.8877620" lon="-0.0611960">
        <ele>1568.6</ele>
        <time>2020-07-27T08:49:48Z</time>
      </trkpt>
      <trkpt lat="42.8876360" lon="-0.0611700">
        <ele>1569.6</ele>
        <time>2020-07-27T08:49:52Z</time>
      </trkpt>
      <trkpt lat="42.8875350" lon="-0.0611590">
        <ele>1570.8</ele>
        <time>2020-07-27T08:49:55Z</time>
      </trkpt>
      <trkpt lat="42.8874040" lon="-0.0611390">
        <ele>1572.0</ele>
        <time>2020-07-27T08:49:59Z</time>
      </trkpt>
      <trkpt lat="42.8872910" lon="-0.0610600">
        <ele>1573.2</ele>
        <time>2020-07-27T08:50:03Z</time>
      </trkpt>
      <trkpt lat="42.8872570" lon="-0.0608750">
        <ele>1574.2</ele>
        <time>2020-07-27T08:50:07Z</time>
      </trkpt>
      <trkpt lat="42.8872610" lon="-0.0608260">
        <ele>1574.2</ele>
        <time>2020-07-27T08:50:08Z</time>
      </trkpt>
      <trkpt lat="42.8872790" lon="-0.0606260">
        <ele>1575.4</ele>
        <time>2020-07-27T08:50:12Z</time>
      </trkpt>
      <trkpt lat="42.8872680" lon="-0.0605300">
        <ele>1575.6</ele>
        <time>2020-07-27T08:50:14Z</time>
      </trkpt>
      <trkpt lat="42.8872500" lon="-0.0604910">
        <ele>1575.8</ele>
        <time>2020-07-27T08:50:15Z</time>
      </trkpt>
      <trkpt lat="42.8871940" lon="-0.0604860">
        <ele>1576.2</ele>
        <time>2020-07-27T08:50:17Z</time>
      </trkpt>
      <trkpt lat="42.8871790" lon="-0.0605200">
        <ele>1576.4</ele>
        <time>2020-07-27T08:50:18Z</time>
      </trkpt>
      <trkpt lat="42.8871760" lon="-0.0605650">
        <ele>1576.8</ele>
        <time>2020-07-27T08:50:19Z</time>
      </trkpt>
      <trkpt lat="42.8871760" lon="-0.0606130">
        <ele>1577.4</ele>
        <time>2020-07-27T08:50:20Z</time>
      </trkpt>
      <trkpt lat="42.8871730" lon="-0.0606610">
        <ele>1578.0</ele>
        <time>2020-07-27T08:50:21Z</time>
      </trkpt>
      <trkpt lat="42.8871230" lon="-0.0609010">
        <ele>1579.2</ele>
        <time>2020-07-27T08:50:26Z</time>
      </trkpt>
      <trkpt lat="42.8871010" lon="-0.0609440">
        <ele>1579.4</ele>
        <time>2020-07-27T08:50:27Z</time>
      </trkpt>
      <trkpt lat="42.8869880" lon="-0.0610660">
        <ele>1580.2</ele>
        <time>2020-07-27T08:50:31Z</time>
      </trkpt>
      <trkpt lat="42.8869560" lon="-0.0610910">
        <ele>1580.4</ele>
        <time>2020-07-27T08:50:32Z</time>
      </trkpt>
      <trkpt lat="42.8868240" lon="-0.0611790">
        <ele>1581.2</ele>
        <time>2020-07-27T08:50:36Z</time>
      </trkpt>
      <trkpt lat="42.8867230" lon="-0.0613080">
        <ele>1582.4</ele>
        <time>2020-07-27T08:50:40Z</time>
      </trkpt>
      <trkpt lat="42.8867220" lon="-0.0613540">
        <ele>1583.0</ele>
        <time>2020-07-27T08:50:41Z</time>
      </trkpt>
      <trkpt lat="42.8867660" lon="-0.0614290">
        <ele>1583.4</ele>
        <time>2020-07-27T08:50:43Z</time>
      </trkpt>
      <trkpt lat="42.8868040" lon="-0.0614480">
        <ele>1583.6</ele>
        <time>2020-07-27T08:50:44Z</time>
      </trkpt>
      <trkpt lat="42.8869310" lon="-0.0614720">
        <ele>1583.6</ele>
        <time>2020-07-27T08:50:47Z</time>
      </trkpt>
      <trkpt lat="42.8870550" lon="-0.0614890">
        <ele>1583.6</ele>
        <time>2020-07-27T08:50:50Z</time>
      </trkpt>
      <trkpt lat="42.8871620" lon="-0.0615440">
        <ele>1584.6</ele>
        <time>2020-07-27T08:50:53Z</time>
      </trkpt>
      <trkpt lat="42.8872300" lon="-0.0617120">
        <ele>1585.6</ele>
        <time>2020-07-27T08:50:57Z</time>
      </trkpt>
      <trkpt lat="42.8871820" lon="-0.0617810">
        <ele>1586.2</ele>
        <time>2020-07-27T08:50:59Z</time>
      </trkpt>
      <trkpt lat="42.8871460" lon="-0.0617930">
        <ele>1586.4</ele>
        <time>2020-07-27T08:51:00Z</time>
      </trkpt>
      <trkpt lat="42.8871080" lon="-0.0617960">
        <ele>1586.8</ele>
        <time>2020-07-27T08:51:01Z</time>
      </trkpt>
      <trkpt lat="42.8869950" lon="-0.0617910">
        <ele>1588.0</ele>
        <time>2020-07-27T08:51:04Z</time>
      </trkpt>
      <trkpt lat="42.8868790" lon="-0.0617770">
        <ele>1589.6</ele>
        <time>2020-07-27T08:51:07Z</time>
      </trkpt>
      <trkpt lat="42.8867290" lon="-0.0617410">
        <ele>1590.6</ele>
        <time>2020-07-27T08:51:11Z</time>
      </trkpt>
      <trkpt lat="42.8866220" lon="-0.0617100">
        <ele>1591.2</ele>
        <time>2020-07-27T08:51:14Z</time>
      </trkpt>
      <trkpt lat="42.8865490" lon="-0.0616790">
        <ele>1592.0</ele>
        <time>2020-07-27T08:51:16Z</time>
      </trkpt>
      <trkpt lat="42.8864090" lon="-0.0616140">
        <ele>1593.4</ele>
        <time>2020-07-27T08:51:20Z</time>
      </trkpt>
      <trkpt lat="42.8863470" lon="-0.0615550">
        <ele>1594.2</ele>
        <time>2020-07-27T08:51:22Z</time>
      </trkpt>
      <trkpt lat="42.8863210" lon="-0.0615170">
        <ele>1594.6</ele>
        <time>2020-07-27T08:51:23Z</time>
      </trkpt>
      <trkpt lat="42.8862900" lon="-0.0613660">
        <ele>1595.2</ele>
        <time>2020-07-27T08:51:26Z</time>
      </trkpt>
      <trkpt lat="42.8862990" lon="-0.0612600">
        <ele>1595.6</ele>
        <time>2020-07-27T08:51:28Z</time>
      </trkpt>
      <trkpt lat="42.8863470" lon="-0.0611140">
        <ele>1596.4</ele>
        <time>2020-07-27T08:51:31Z</time>
      </trkpt>
      <trkpt lat="42.8863700" lon="-0.0610670">
        <ele>1596.6</ele>
        <time>2020-07-27T08:51:32Z</time>
      </trkpt>
      <trkpt lat="42.8863950" lon="-0.0610220">
        <ele>1596.8</ele>
        <time>2020-07-27T08:51:33Z</time>
      </trkpt>
      <trkpt lat="42.8865110" lon="-0.0608590">
        <ele>1597.6</ele>
        <time>2020-07-27T08:51:37Z</time>
      </trkpt>
      <trkpt lat="42.8865420" lon="-0.0608200">
        <ele>1597.8</ele>
        <time>2020-07-27T08:51:38Z</time>
      </trkpt>
      <trkpt lat="42.8866710" lon="-0.0606580">
        <ele>1599.0</ele>
        <time>2020-07-27T08:51:42Z</time>
      </trkpt>
      <trkpt lat="42.8866990" lon="-0.0605540">
        <ele>1599.6</ele>
        <time>2020-07-27T08:51:44Z</time>
      </trkpt>
      <trkpt lat="42.8866450" lon="-0.0604870">
        <ele>1600.2</ele>
        <time>2020-07-27T08:51:46Z</time>
      </trkpt>
      <trkpt lat="42.8866050" lon="-0.0604850">
        <ele>1600.6</ele>
        <time>2020-07-27T08:51:47Z</time>
      </trkpt>
      <trkpt lat="42.8865290" lon="-0.0605240">
        <ele>1601.8</ele>
        <time>2020-07-27T08:51:49Z</time>
      </trkpt>
      <trkpt lat="42.8863450" lon="-0.0607020">
        <ele>1602.8</ele>
        <time>2020-07-27T08:51:55Z</time>
      </trkpt>
      <trkpt lat="42.8862920" lon="-0.0607690">
        <ele>1603.4</ele>
        <time>2020-07-27T08:51:57Z</time>
      </trkpt>
      <trkpt lat="42.8862310" lon="-0.0608330">
        <ele>1604.0</ele>
        <time>2020-07-27T08:51:59Z</time>
      </trkpt>
      <trkpt lat="42.8861330" lon="-0.0609190">
        <ele>1605.2</ele>
        <time>2020-07-27T08:52:02Z</time>
      </trkpt>
      <trkpt lat="42.8860400" lon="-0.0610100">
        <ele>1606.2</ele>
        <time>2020-07-27T08:52:05Z</time>
      </trkpt>
      <trkpt lat="42.8859570" lon="-0.0611000">
        <ele>1607.4</ele>
        <time>2020-07-27T08:52:08Z</time>
      </trkpt>
      <trkpt lat="42.8858480" lon="-0.0612170">
        <ele>1608.2</ele>
        <time>2020-07-27T08:52:12Z</time>
      </trkpt>
      <trkpt lat="42.8858210" lon="-0.0612440">
        <ele>1608.4</ele>
        <time>2020-07-27T08:52:13Z</time>
      </trkpt>
      <trkpt lat="42.8857420" lon="-0.0613210">
        <ele>1609.8</ele>
        <time>2020-07-27T08:52:16Z</time>
      </trkpt>
      <trkpt lat="42.8856520" lon="-0.0613960">
        <ele>1611.0</ele>
        <time>2020-07-27T08:52:19Z</time>
      </trkpt>
      <trkpt lat="42.8855590" lon="-0.0614710">
        <ele>1612.0</ele>
        <time>2020-07-27T08:52:22Z</time>
      </trkpt>
      <trkpt lat="42.8855300" lon="-0.0614980">
        <ele>1612.2</ele>
        <time>2020-07-27T08:52:23Z</time>
      </trkpt>
      <trkpt lat="42.8854210" lon="-0.0616110">
        <ele>1613.6</ele>
        <time>2020-07-27T08:52:27Z</time>
      </trkpt>
      <trkpt lat="42.8853520" lon="-0.0617060">
        <ele>1614.4</ele>
        <time>2020-07-27T08:52:30Z</time>
      </trkpt>
      <trkpt lat="42.8853310" lon="-0.0617410">
        <ele>1614.8</ele>
        <time>2020-07-27T08:52:31Z</time>
      </trkpt>
      <trkpt lat="42.8852540" lon="-0.0619010">
        <ele>1616.0</ele>
        <time>2020-07-27T08:52:35Z</time>
      </trkpt>
      <trkpt lat="42.8852210" lon="-0.0619900">
        <ele>1616.4</ele>
        <time>2020-07-27T08:52:37Z</time>
      </trkpt>
      <trkpt lat="42.8851650" lon="-0.0621190">
        <ele>1617.0</ele>
        <time>2020-07-27T08:52:40Z</time>
      </trkpt>
      <trkpt lat="42.8850670" lon="-0.0622470">
        <ele>1618.2</ele>
        <time>2020-07-27T08:52:44Z</time>
      </trkpt>
      <trkpt lat="42.8850350" lon="-0.0622470">
        <ele>1618.4</ele>
        <time>2020-07-27T08:52:45Z</time>
      </trkpt>
      <trkpt lat="42.8849950" lon="-0.0621890">
        <ele>1618.6</ele>
        <time>2020-07-27T08:52:47Z</time>
      </trkpt>
      <trkpt lat="42.8849980" lon="-0.0620060">
        <ele>1619.4</ele>
        <time>2020-07-27T08:52:51Z</time>
      </trkpt>
      <trkpt lat="42.8850010" lon="-0.0619600">
        <ele>1619.4</ele>
        <time>2020-07-27T08:52:52Z</time>
      </trkpt>
      <trkpt lat="42.8850050" lon="-0.0617820">
        <ele>1620.8</ele>
        <time>2020-07-27T08:52:56Z</time>
      </trkpt>
      <trkpt lat="42.8849930" lon="-0.0616540">
        <ele>1622.0</ele>
        <time>2020-07-27T08:52:59Z</time>
      </trkpt>
      <trkpt lat="42.8849800" lon="-0.0616160">
        <ele>1622.2</ele>
        <time>2020-07-27T08:53:00Z</time>
      </trkpt>
      <trkpt lat="42.8849570" lon="-0.0615910">
        <ele>1622.4</ele>
        <time>2020-07-27T08:53:01Z</time>
      </trkpt>
      <trkpt lat="42.8849070" lon="-0.0615990">
        <ele>1622.6</ele>
        <time>2020-07-27T08:53:03Z</time>
      </trkpt>
      <trkpt lat="42.8848490" lon="-0.0616860">
        <ele>1623.0</ele>
        <time>2020-07-27T08:53:06Z</time>
      </trkpt>
      <trkpt lat="42.8848340" lon="-0.0617110">
        <ele>1623.0</ele>
        <time>2020-07-27T08:53:07Z</time>
      </trkpt>
      <trkpt lat="42.8848000" lon="-0.0617480">
        <ele>1623.4</ele>
        <time>2020-07-27T09:09:41Z</time>
      </trkpt>
      <trkpt lat="42.8848160" lon="-0.0617090">
        <ele>1623.4</ele>
        <time>2020-07-27T09:09:42Z</time>
      </trkpt>
      <trkpt lat="42.8848460" lon="-0.0616350">
        <ele>1623.4</ele>
        <time>2020-07-27T09:09:44Z</time>
      </trkpt>
      <trkpt lat="42.8849240" lon="-0.0615550">
        <ele>1623.4</ele>
        <time>2020-07-27T09:09:46Z</time>
      </trkpt>
      <trkpt lat="42.8849890" lon="-0.0615780">
        <ele>1623.2</ele>
        <time>2020-07-27T09:09:48Z</time>
      </trkpt>
      <trkpt lat="42.8850090" lon="-0.0616250">
        <ele>1623.0</ele>
        <time>2020-07-27T09:09:49Z</time>
      </trkpt>
      <trkpt lat="42.8850110" lon="-0.0616870">
        <ele>1622.8</ele>
        <time>2020-07-27T09:09:50Z</time>
      </trkpt>
      <trkpt lat="42.8849950" lon="-0.0618350">
        <ele>1622.6</ele>
        <time>2020-07-27T09:09:52Z</time>
      </trkpt>
      <trkpt lat="42.8849740" lon="-0.0620900">
        <ele>1621.8</ele>
        <time>2020-07-27T09:09:55Z</time>
      </trkpt>
      <trkpt lat="42.8849860" lon="-0.0622090">
        <ele>1620.6</ele>
        <time>2020-07-27T09:09:57Z</time>
      </trkpt>
      <trkpt lat="42.8850580" lon="-0.0622320">
        <ele>1619.4</ele>
        <time>2020-07-27T09:09:59Z</time>
      </trkpt>
      <trkpt lat="42.8851040" lon="-0.0621780">
        <ele>1618.8</ele>
        <time>2020-07-27T09:10:00Z</time>
      </trkpt>
      <trkpt lat="42.8851370" lon="-0.0621050">
        <ele>1618.4</ele>
        <time>2020-07-27T09:10:01Z</time>
      </trkpt>
      <trkpt lat="42.8851970" lon="-0.0619340">
        <ele>1617.4</ele>
        <time>2020-07-27T09:10:03Z</time>
      </trkpt>
      <trkpt lat="42.8852760" lon="-0.0617620">
        <ele>1616.0</ele>
        <time>2020-07-27T09:10:05Z</time>
      </trkpt>
      <trkpt lat="42.8853860" lon="-0.0615940">
        <ele>1614.6</ele>
        <time>2020-07-27T09:10:07Z</time>
      </trkpt>
      <trkpt lat="42.8855310" lon="-0.0614260">
        <ele>1613.0</ele>
        <time>2020-07-27T09:10:09Z</time>
      </trkpt>
      <trkpt lat="42.8856130" lon="-0.0613450">
        <ele>1611.8</ele>
        <time>2020-07-27T09:10:10Z</time>
      </trkpt>
      <trkpt lat="42.8857040" lon="-0.0612650">
        <ele>1610.4</ele>
        <time>2020-07-27T09:10:11Z</time>
      </trkpt>
      <trkpt lat="42.8857960" lon="-0.0611850">
        <ele>1609.0</ele>
        <time>2020-07-27T09:10:12Z</time>
      </trkpt>
      <trkpt lat="42.8859730" lon="-0.0610270">
        <ele>1607.2</ele>
        <time>2020-07-27T09:10:14Z</time>
      </trkpt>
      <trkpt lat="42.8861380" lon="-0.0608680">
        <ele>1605.2</ele>
        <time>2020-07-27T09:10:16Z</time>
      </trkpt>
      <trkpt lat="42.8862140" lon="-0.0607860">
        <ele>1604.2</ele>
        <time>2020-07-27T09:10:17Z</time>
      </trkpt>
      <trkpt lat="42.8862900" lon="-0.0607040">
        <ele>1603.4</ele>
        <time>2020-07-27T09:10:18Z</time>
      </trkpt>
      <trkpt lat="42.8863630" lon="-0.0606260">
        <ele>1603.0</ele>
        <time>2020-07-27T09:10:19Z</time>
      </trkpt>
      <trkpt lat="42.8864970" lon="-0.0604880">
        <ele>1601.8</ele>
        <time>2020-07-27T09:10:21Z</time>
      </trkpt>
      <trkpt lat="42.8865590" lon="-0.0604400">
        <ele>1601.2</ele>
        <time>2020-07-27T09:10:22Z</time>
      </trkpt>
      <trkpt lat="42.8866740" lon="-0.0604090">
        <ele>1600.8</ele>
        <time>2020-07-27T09:10:24Z</time>
      </trkpt>
      <trkpt lat="42.8867300" lon="-0.0604290">
        <ele>1600.8</ele>
        <time>2020-07-27T09:10:25Z</time>
      </trkpt>
      <trkpt lat="42.8867770" lon="-0.0604760">
        <ele>1600.8</ele>
        <time>2020-07-27T09:10:26Z</time>
      </trkpt>
      <trkpt lat="42.8867980" lon="-0.0605390">
        <ele>1600.8</ele>
        <time>2020-07-27T09:10:27Z</time>
      </trkpt>
      <trkpt lat="42.8867760" lon="-0.0606190">
        <ele>1600.6</ele>
        <time>2020-07-27T09:10:28Z</time>
      </trkpt>
      <trkpt lat="42.8866990" lon="-0.0607390">
        <ele>1599.8</ele>
        <time>2020-07-27T09:10:30Z</time>
      </trkpt>
      <trkpt lat="42.8866480" lon="-0.0607900">
        <ele>1599.2</ele>
        <time>2020-07-27T09:10:31Z</time>
      </trkpt>
      <trkpt lat="42.8865340" lon="-0.0609030">
        <ele>1598.6</ele>
        <time>2020-07-27T09:10:33Z</time>
      </trkpt>
      <trkpt lat="42.8864800" lon="-0.0609790">
        <ele>1598.2</ele>
        <time>2020-07-27T09:10:34Z</time>
      </trkpt>
      <trkpt lat="42.8864300" lon="-0.0610690">
        <ele>1597.8</ele>
        <time>2020-07-27T09:10:35Z</time>
      </trkpt>
      <trkpt lat="42.8863910" lon="-0.0611710">
        <ele>1597.4</ele>
        <time>2020-07-27T09:10:36Z</time>
      </trkpt>
      <trkpt lat="42.8863720" lon="-0.0612850">
        <ele>1597.0</ele>
        <time>2020-07-27T09:10:37Z</time>
      </trkpt>
      <trkpt lat="42.8863790" lon="-0.0613980">
        <ele>1596.4</ele>
        <time>2020-07-27T09:10:38Z</time>
      </trkpt>
      <trkpt lat="42.8864010" lon="-0.0615070">
        <ele>1595.8</ele>
        <time>2020-07-27T09:10:39Z</time>
      </trkpt>
      <trkpt lat="42.8864750" lon="-0.0615780">
        <ele>1595.0</ele>
        <time>2020-07-27T09:10:40Z</time>
      </trkpt>
      <trkpt lat="42.8865540" lon="-0.0616260">
        <ele>1593.8</ele>
        <time>2020-07-27T09:10:41Z</time>
      </trkpt>
      <trkpt lat="42.8866360" lon="-0.0616650">
        <ele>1592.4</ele>
        <time>2020-07-27T09:10:42Z</time>
      </trkpt>
      <trkpt lat="42.8867190" lon="-0.0617040">
        <ele>1591.0</ele>
        <time>2020-07-27T09:10:43Z</time>
      </trkpt>
      <trkpt lat="42.8868890" lon="-0.0617720">
        <ele>1589.4</ele>
        <time>2020-07-27T09:10:45Z</time>
      </trkpt>
      <trkpt lat="42.8870440" lon="-0.0618100">
        <ele>1588.8</ele>
        <time>2020-07-27T09:10:47Z</time>
      </trkpt>
      <trkpt lat="42.8871720" lon="-0.0618210">
        <ele>1588.4</ele>
        <time>2020-07-27T09:10:49Z</time>
      </trkpt>
      <trkpt lat="42.8872680" lon="-0.0617660">
        <ele>1588.0</ele>
        <time>2020-07-27T09:10:51Z</time>
      </trkpt>
      <trkpt lat="42.8872690" lon="-0.0616470">
        <ele>1587.6</ele>
        <time>2020-07-27T09:10:53Z</time>
      </trkpt>
      <trkpt lat="42.8872340" lon="-0.0616000">
        <ele>1587.2</ele>
        <time>2020-07-27T09:10:54Z</time>
      </trkpt>
      <trkpt lat="42.8871880" lon="-0.0615670">
        <ele>1586.8</ele>
        <time>2020-07-27T09:10:55Z</time>
      </trkpt>
      <trkpt lat="42.8871360" lon="-0.0615450">
        <ele>1586.4</ele>
        <time>2020-07-27T09:10:56Z</time>
      </trkpt>
      <trkpt lat="42.8870780" lon="-0.0615290">
        <ele>1586.0</ele>
        <time>2020-07-27T09:10:57Z</time>
      </trkpt>
      <trkpt lat="42.8869490" lon="-0.0614940">
        <ele>1584.8</ele>
        <time>2020-07-27T09:10:59Z</time>
      </trkpt>
      <trkpt lat="42.8868500" lon="-0.0614380">
        <ele>1584.2</ele>
        <time>2020-07-27T09:11:01Z</time>
      </trkpt>
      <trkpt lat="42.8868010" lon="-0.0613140">
        <ele>1583.6</ele>
        <time>2020-07-27T09:11:04Z</time>
      </trkpt>
      <trkpt lat="42.8868200" lon="-0.0612650">
        <ele>1583.2</ele>
        <time>2020-07-27T09:11:05Z</time>
      </trkpt>
      <trkpt lat="42.8868510" lon="-0.0612270">
        <ele>1582.8</ele>
        <time>2020-07-27T09:11:06Z</time>
      </trkpt>
      <trkpt lat="42.8868940" lon="-0.0611960">
        <ele>1582.4</ele>
        <time>2020-07-27T09:11:07Z</time>
      </trkpt>
      <trkpt lat="42.8869430" lon="-0.0611670">
        <ele>1582.0</ele>
        <time>2020-07-27T09:11:08Z</time>
      </trkpt>
      <trkpt lat="42.8870410" lon="-0.0610980">
        <ele>1581.0</ele>
        <time>2020-07-27T09:11:10Z</time>
      </trkpt>
      <trkpt lat="42.8870860" lon="-0.0610550">
        <ele>1580.6</ele>
        <time>2020-07-27T09:11:11Z</time>
      </trkpt>
      <trkpt lat="42.8871630" lon="-0.0609360">
        <ele>1579.6</ele>
        <time>2020-07-27T09:11:13Z</time>
      </trkpt>
      <trkpt lat="42.8872100" lon="-0.0607730">
        <ele>1578.4</ele>
        <time>2020-07-27T09:11:15Z</time>
      </trkpt>
      <trkpt lat="42.8872200" lon="-0.0606920">
        <ele>1578.0</ele>
        <time>2020-07-27T09:11:16Z</time>
      </trkpt>
      <trkpt lat="42.8872240" lon="-0.0605500">
        <ele>1577.4</ele>
        <time>2020-07-27T09:11:18Z</time>
      </trkpt>
      <trkpt lat="42.8872470" lon="-0.0604570">
        <ele>1577.0</ele>
        <time>2020-07-27T09:11:20Z</time>
      </trkpt>
      <trkpt lat="42.8873020" lon="-0.0604370">
        <ele>1576.8</ele>
        <time>2020-07-27T09:11:22Z</time>
      </trkpt>
      <trkpt lat="42.8873400" lon="-0.0604650">
        <ele>1576.6</ele>
        <time>2020-07-27T09:11:23Z</time>
      </trkpt>
      <trkpt lat="42.8873680" lon="-0.0605150">
        <ele>1576.4</ele>
        <time>2020-07-27T09:11:24Z</time>
      </trkpt>
      <trkpt lat="42.8873760" lon="-0.0605820">
        <ele>1576.0</ele>
        <time>2020-07-27T09:11:25Z</time>
      </trkpt>
      <trkpt lat="42.8873730" lon="-0.0606510">
        <ele>1575.6</ele>
        <time>2020-07-27T09:11:26Z</time>
      </trkpt>
      <trkpt lat="42.8873470" lon="-0.0608740">
        <ele>1575.2</ele>
        <time>2020-07-27T09:11:29Z</time>
      </trkpt>
      <trkpt lat="42.8873560" lon="-0.0609460">
        <ele>1575.2</ele>
        <time>2020-07-27T09:11:30Z</time>
      </trkpt>
      <trkpt lat="42.8873810" lon="-0.0610100">
        <ele>1575.2</ele>
        <time>2020-07-27T09:11:31Z</time>
      </trkpt>
      <trkpt lat="42.8874140" lon="-0.0610640">
        <ele>1575.0</ele>
        <time>2020-07-27T09:11:32Z</time>
      </trkpt>
      <trkpt lat="42.8874630" lon="-0.0611030">
        <ele>1574.4</ele>
        <time>2020-07-27T09:11:33Z</time>
      </trkpt>
      <trkpt lat="42.8875260" lon="-0.0611230">
        <ele>1573.6</ele>
        <time>2020-07-27T09:11:34Z</time>
      </trkpt>
      <trkpt lat="42.8875990" lon="-0.0611260">
        <ele>1573.0</ele>
        <time>2020-07-27T09:11:35Z</time>
      </trkpt>
      <trkpt lat="42.8876670" lon="-0.0611280">
        <ele>1572.2</ele>
        <time>2020-07-27T09:11:36Z</time>
      </trkpt>
      <trkpt lat="42.8878070" lon="-0.0611480">
        <ele>1570.4</ele>
        <time>2020-07-27T09:11:38Z</time>
      </trkpt>
      <trkpt lat="42.8879650" lon="-0.0611820">
        <ele>1568.8</ele>
        <time>2020-07-27T09:11:40Z</time>
      </trkpt>
      <trkpt lat="42.8880480" lon="-0.0611900">
        <ele>1568.2</ele>
        <time>2020-07-27T09:11:41Z</time>
      </trkpt>
      <trkpt lat="42.8881300" lon="-0.0611830">
        <ele>1567.8</ele>
        <time>2020-07-27T09:11:42Z</time>
      </trkpt>
      <trkpt lat="42.8882080" lon="-0.0611620">
        <ele>1566.8</ele>
        <time>2020-07-27T09:11:43Z</time>
      </trkpt>
      <trkpt lat="42.8882880" lon="-0.0611320">
        <ele>1565.8</ele>
        <time>2020-07-27T09:11:44Z</time>
      </trkpt>
      <trkpt lat="42.8884550" lon="-0.0610490">
        <ele>1564.4</ele>
        <time>2020-07-27T09:11:46Z</time>
      </trkpt>
      <trkpt lat="42.8886270" lon="-0.0609570">
        <ele>1563.4</ele>
        <time>2020-07-27T09:11:48Z</time>
      </trkpt>
      <trkpt lat="42.8887970" lon="-0.0608700">
        <ele>1561.6</ele>
        <time>2020-07-27T09:11:50Z</time>
      </trkpt>
      <trkpt lat="42.8888790" lon="-0.0608300">
        <ele>1560.6</ele>
        <time>2020-07-27T09:11:51Z</time>
      </trkpt>
      <trkpt lat="42.8889590" lon="-0.0607960">
        <ele>1559.2</ele>
        <time>2020-07-27T09:11:52Z</time>
      </trkpt>
      <trkpt lat="42.8891160" lon="-0.0607300">
        <ele>1557.6</ele>
        <time>2020-07-27T09:11:54Z</time>
      </trkpt>
      <trkpt lat="42.8891920" lon="-0.0606900">
        <ele>1557.0</ele>
        <time>2020-07-27T09:11:55Z</time>
      </trkpt>
      <trkpt lat="42.8892650" lon="-0.0606380">
        <ele>1556.4</ele>
        <time>2020-07-27T09:11:56Z</time>
      </trkpt>
      <trkpt lat="42.8893350" lon="-0.0605680">
        <ele>1555.8</ele>
        <time>2020-07-27T09:11:57Z</time>
      </trkpt>
      <trkpt lat="42.8893970" lon="-0.0604930">
        <ele>1555.2</ele>
        <time>2020-07-27T09:11:58Z</time>
      </trkpt>
      <trkpt lat="42.8896030" lon="-0.0602870">
        <ele>1553.8</ele>
        <time>2020-07-27T09:12:01Z</time>
      </trkpt>
      <trkpt lat="42.8896720" lon="-0.0602350">
        <ele>1552.8</ele>
        <time>2020-07-27T09:12:02Z</time>
      </trkpt>
      <trkpt lat="42.8897350" lon="-0.0601890">
        <ele>1552.0</ele>
        <time>2020-07-27T09:12:03Z</time>
      </trkpt>
      <trkpt lat="42.8897950" lon="-0.0601390">
        <ele>1551.4</ele>
        <time>2020-07-27T09:12:04Z</time>
      </trkpt>
      <trkpt lat="42.8898800" lon="-0.0600160">
        <ele>1551.0</ele>
        <time>2020-07-27T09:12:06Z</time>
      </trkpt>
      <trkpt lat="42.8898790" lon="-0.0599510">
        <ele>1551.0</ele>
        <time>2020-07-27T09:12:07Z</time>
      </trkpt>
      <trkpt lat="42.8898680" lon="-0.0598940">
        <ele>1551.2</ele>
        <time>2020-07-27T09:12:08Z</time>
      </trkpt>
      <trkpt lat="42.8898060" lon="-0.0598350">
        <ele>1551.6</ele>
        <time>2020-07-27T09:12:10Z</time>
      </trkpt>
      <trkpt lat="42.8897090" lon="-0.0598580">
        <ele>1551.4</ele>
        <time>2020-07-27T09:12:12Z</time>
      </trkpt>
      <trkpt lat="42.8896560" lon="-0.0598930">
        <ele>1551.2</ele>
        <time>2020-07-27T09:12:13Z</time>
      </trkpt>
      <trkpt lat="42.8894390" lon="-0.0601030">
        <ele>1550.0</ele>
        <time>2020-07-27T09:12:17Z</time>
      </trkpt>
      <trkpt lat="42.8893810" lon="-0.0601580">
        <ele>1549.2</ele>
        <time>2020-07-27T09:12:18Z</time>
      </trkpt>
      <trkpt lat="42.8893190" lon="-0.0601980">
        <ele>1548.6</ele>
        <time>2020-07-27T09:12:19Z</time>
      </trkpt>
      <trkpt lat="42.8891840" lon="-0.0602100">
        <ele>1547.6</ele>
        <time>2020-07-27T09:12:21Z</time>
      </trkpt>
      <trkpt lat="42.8890380" lon="-0.0601560">
        <ele>1545.6</ele>
        <time>2020-07-27T09:12:23Z</time>
      </trkpt>
      <trkpt lat="42.8889660" lon="-0.0601410">
        <ele>1545.0</ele>
        <time>2020-07-27T09:12:24Z</time>
      </trkpt>
      <trkpt lat="42.8888950" lon="-0.0601480">
        <ele>1544.4</ele>
        <time>2020-07-27T09:12:25Z</time>
      </trkpt>
      <trkpt lat="42.8888250" lon="-0.0601720">
        <ele>1544.0</ele>
        <time>2020-07-27T09:12:26Z</time>
      </trkpt>
      <trkpt lat="42.8887590" lon="-0.0602020">
        <ele>1543.8</ele>
        <time>2020-07-27T09:12:27Z</time>
      </trkpt>
      <trkpt lat="42.8887020" lon="-0.0602230">
        <ele>1543.6</ele>
        <time>2020-07-27T09:12:28Z</time>
      </trkpt>
      <trkpt lat="42.8886580" lon="-0.0602220">
        <ele>1543.2</ele>
        <time>2020-07-27T09:12:29Z</time>
      </trkpt>
      <trkpt lat="42.8886160" lon="-0.0602040">
        <ele>1543.0</ele>
        <time>2020-07-27T09:12:30Z</time>
      </trkpt>
      <trkpt lat="42.8886030" lon="-0.0601610">
        <ele>1542.8</ele>
        <time>2020-07-27T09:12:31Z</time>
      </trkpt>
      <trkpt lat="42.8886120" lon="-0.0601080">
        <ele>1542.6</ele>
        <time>2020-07-27T09:12:32Z</time>
      </trkpt>
      <trkpt lat="42.8886390" lon="-0.0600630">
        <ele>1542.4</ele>
        <time>2020-07-27T09:12:33Z</time>
      </trkpt>
      <trkpt lat="42.8886790" lon="-0.0600320">
        <ele>1541.8</ele>
        <time>2020-07-27T09:12:34Z</time>
      </trkpt>
      <trkpt lat="42.8887320" lon="-0.0600120">
        <ele>1541.4</ele>
        <time>2020-07-27T09:12:35Z</time>
      </trkpt>
      <trkpt lat="42.8887960" lon="-0.0600000">
        <ele>1541.2</ele>
        <time>2020-07-27T09:12:36Z</time>
      </trkpt>
      <trkpt lat="42.8889350" lon="-0.0599930">
        <ele>1540.8</ele>
        <time>2020-07-27T09:12:38Z</time>
      </trkpt>
      <trkpt lat="42.8890100" lon="-0.0599850">
        <ele>1540.2</ele>
        <time>2020-07-27T09:12:39Z</time>
      </trkpt>
      <trkpt lat="42.8890880" lon="-0.0599610">
        <ele>1539.4</ele>
        <time>2020-07-27T09:12:40Z</time>
      </trkpt>
      <trkpt lat="42.8891620" lon="-0.0599170">
        <ele>1538.6</ele>
        <time>2020-07-27T09:12:41Z</time>
      </trkpt>
      <trkpt lat="42.8892260" lon="-0.0598590">
        <ele>1537.6</ele>
        <time>2020-07-27T09:12:42Z</time>
      </trkpt>
      <trkpt lat="42.8893700" lon="-0.0597260">
        <ele>1535.8</ele>
        <time>2020-07-27T09:12:44Z</time>
      </trkpt>
      <trkpt lat="42.8895250" lon="-0.0596020">
        <ele>1534.2</ele>
        <time>2020-07-27T09:12:46Z</time>
      </trkpt>
      <trkpt lat="42.8896010" lon="-0.0595470">
        <ele>1533.4</ele>
        <time>2020-07-27T09:12:47Z</time>
      </trkpt>
      <trkpt lat="42.8896770" lon="-0.0594920">
        <ele>1533.0</ele>
        <time>2020-07-27T09:12:48Z</time>
      </trkpt>
      <trkpt lat="42.8898300" lon="-0.0593890">
        <ele>1532.2</ele>
        <time>2020-07-27T09:12:50Z</time>
      </trkpt>
      <trkpt lat="42.8899070" lon="-0.0593410">
        <ele>1531.8</ele>
        <time>2020-07-27T09:12:51Z</time>
      </trkpt>
      <trkpt lat="42.8901230" lon="-0.0592310">
        <ele>1531.0</ele>
        <time>2020-07-27T09:12:54Z</time>
      </trkpt>
      <trkpt lat="42.8901710" lon="-0.0591920">
        <ele>1531.0</ele>
        <time>2020-07-27T09:12:55Z</time>
      </trkpt>
      <trkpt lat="42.8902000" lon="-0.0590790">
        <ele>1531.0</ele>
        <time>2020-07-27T09:12:57Z</time>
      </trkpt>
      <trkpt lat="42.8901260" lon="-0.0590380">
        <ele>1531.0</ele>
        <time>2020-07-27T09:12:59Z</time>
      </trkpt>
      <trkpt lat="42.8900680" lon="-0.0590700">
        <ele>1530.6</ele>
        <time>2020-07-27T09:13:00Z</time>
      </trkpt>
      <trkpt lat="42.8899240" lon="-0.0591640">
        <ele>1529.2</ele>
        <time>2020-07-27T09:13:02Z</time>
      </trkpt>
      <trkpt lat="42.8897400" lon="-0.0592430">
        <ele>1527.6</ele>
        <time>2020-07-27T09:13:04Z</time>
      </trkpt>
      <trkpt lat="42.8895400" lon="-0.0592970">
        <ele>1526.6</ele>
        <time>2020-07-27T09:13:06Z</time>
      </trkpt>
      <trkpt lat="42.8894350" lon="-0.0593180">
        <ele>1526.0</ele>
        <time>2020-07-27T09:13:07Z</time>
      </trkpt>
      <trkpt lat="42.8892110" lon="-0.0593550">
        <ele>1524.2</ele>
        <time>2020-07-27T09:13:09Z</time>
      </trkpt>
      <trkpt lat="42.8890960" lon="-0.0593520">
        <ele>1522.8</ele>
        <time>2020-07-27T09:13:10Z</time>
      </trkpt>
      <trkpt lat="42.8889840" lon="-0.0593320">
        <ele>1521.6</ele>
        <time>2020-07-27T09:13:11Z</time>
      </trkpt>
      <trkpt lat="42.8888700" lon="-0.0592920">
        <ele>1520.6</ele>
        <time>2020-07-27T09:13:12Z</time>
      </trkpt>
      <trkpt lat="42.8887570" lon="-0.0592500">
        <ele>1519.4</ele>
        <time>2020-07-27T09:13:13Z</time>
      </trkpt>
      <trkpt lat="42.8886420" lon="-0.0592200">
        <ele>1518.4</ele>
        <time>2020-07-27T09:13:14Z</time>
      </trkpt>
      <trkpt lat="42.8885240" lon="-0.0592000">
        <ele>1517.8</ele>
        <time>2020-07-27T09:13:15Z</time>
      </trkpt>
      <trkpt lat="42.8882970" lon="-0.0591380">
        <ele>1517.0</ele>
        <time>2020-07-27T09:13:17Z</time>
      </trkpt>
      <trkpt lat="42.8881860" lon="-0.0590850">
        <ele>1516.4</ele>
        <time>2020-07-27T09:13:18Z</time>
      </trkpt>
      <trkpt lat="42.8879680" lon="-0.0589490">
        <ele>1515.2</ele>
        <time>2020-07-27T09:13:20Z</time>
      </trkpt>
      <trkpt lat="42.8878660" lon="-0.0588840">
        <ele>1514.6</ele>
        <time>2020-07-27T09:13:21Z</time>
      </trkpt>
      <trkpt lat="42.8877640" lon="-0.0588410">
        <ele>1513.8</ele>
        <time>2020-07-27T09:13:22Z</time>
      </trkpt>
      <trkpt lat="42.8876570" lon="-0.0588230">
        <ele>1512.6</ele>
        <time>2020-07-27T09:13:23Z</time>
      </trkpt>
      <trkpt lat="42.8875480" lon="-0.0588290">
        <ele>1511.2</ele>
        <time>2020-07-27T09:13:24Z</time>
      </trkpt>
      <trkpt lat="42.8874470" lon="-0.0588400">
        <ele>1509.8</ele>
        <time>2020-07-27T09:13:25Z</time>
      </trkpt>
      <trkpt lat="42.8872900" lon="-0.0588360">
        <ele>1508.2</ele>
        <time>2020-07-27T09:13:27Z</time>
      </trkpt>
      <trkpt lat="42.8872390" lon="-0.0587960">
        <ele>1508.0</ele>
        <time>2020-07-27T09:13:28Z</time>
      </trkpt>
      <trkpt lat="42.8872260" lon="-0.0587290">
        <ele>1507.8</ele>
        <time>2020-07-27T09:13:29Z</time>
      </trkpt>
      <trkpt lat="42.8872310" lon="-0.0586610">
        <ele>1507.6</ele>
        <time>2020-07-27T09:13:30Z</time>
      </trkpt>
      <trkpt lat="42.8872710" lon="-0.0586110">
        <ele>1507.4</ele>
        <time>2020-07-27T09:13:31Z</time>
      </trkpt>
      <trkpt lat="42.8873330" lon="-0.0585780">
        <ele>1507.2</ele>
        <time>2020-07-27T09:13:32Z</time>
      </trkpt>
      <trkpt lat="42.8874080" lon="-0.0585560">
        <ele>1506.6</ele>
        <time>2020-07-27T09:13:33Z</time>
      </trkpt>
      <trkpt lat="42.8874890" lon="-0.0585360">
        <ele>1506.0</ele>
        <time>2020-07-27T09:13:34Z</time>
      </trkpt>
      <trkpt lat="42.8876650" lon="-0.0585110">
        <ele>1504.4</ele>
        <time>2020-07-27T09:13:36Z</time>
      </trkpt>
      <trkpt lat="42.8878530" lon="-0.0585360">
        <ele>1502.8</ele>
        <time>2020-07-27T09:13:38Z</time>
      </trkpt>
      <trkpt lat="42.8879500" lon="-0.0585670">
        <ele>1502.2</ele>
        <time>2020-07-27T09:13:39Z</time>
      </trkpt>
      <trkpt lat="42.8880560" lon="-0.0586040">
        <ele>1501.6</ele>
        <time>2020-07-27T09:13:40Z</time>
      </trkpt>
      <trkpt lat="42.8881660" lon="-0.0586340">
        <ele>1500.8</ele>
        <time>2020-07-27T09:13:41Z</time>
      </trkpt>
      <trkpt lat="42.8882840" lon="-0.0586540">
        <ele>1500.0</ele>
        <time>2020-07-27T09:13:42Z</time>
      </trkpt>
      <trkpt lat="42.8885290" lon="-0.0586670">
        <ele>1497.8</ele>
        <time>2020-07-27T09:13:44Z</time>
      </trkpt>
      <trkpt lat="42.8886530" lon="-0.0586590">
        <ele>1496.4</ele>
        <time>2020-07-27T09:13:45Z</time>
      </trkpt>
      <trkpt lat="42.8887770" lon="-0.0586370">
        <ele>1495.0</ele>
        <time>2020-07-27T09:13:46Z</time>
      </trkpt>
      <trkpt lat="42.8888960" lon="-0.0585990">
        <ele>1493.6</ele>
        <time>2020-07-27T09:13:47Z</time>
      </trkpt>
      <trkpt lat="42.8890070" lon="-0.0585440">
        <ele>1491.8</ele>
        <time>2020-07-27T09:13:48Z</time>
      </trkpt>
      <trkpt lat="42.8891150" lon="-0.0584880">
        <ele>1490.4</ele>
        <time>2020-07-27T09:13:49Z</time>
      </trkpt>
      <trkpt lat="42.8892260" lon="-0.0584440">
        <ele>1489.4</ele>
        <time>2020-07-27T09:13:50Z</time>
      </trkpt>
      <trkpt lat="42.8893320" lon="-0.0584210">
        <ele>1488.8</ele>
        <time>2020-07-27T09:13:51Z</time>
      </trkpt>
      <trkpt lat="42.8894340" lon="-0.0584170">
        <ele>1488.4</ele>
        <time>2020-07-27T09:13:52Z</time>
      </trkpt>
      <trkpt lat="42.8896400" lon="-0.0584000">
        <ele>1487.4</ele>
        <time>2020-07-27T09:13:54Z</time>
      </trkpt>
      <trkpt lat="42.8898370" lon="-0.0582830">
        <ele>1485.8</ele>
        <time>2020-07-27T09:13:56Z</time>
      </trkpt>
      <trkpt lat="42.8899250" lon="-0.0581930">
        <ele>1484.6</ele>
        <time>2020-07-27T09:13:57Z</time>
      </trkpt>
      <trkpt lat="42.8900180" lon="-0.0581040">
        <ele>1483.2</ele>
        <time>2020-07-27T09:13:58Z</time>
      </trkpt>
      <trkpt lat="42.8901140" lon="-0.0580260">
        <ele>1481.8</ele>
        <time>2020-07-27T09:13:59Z</time>
      </trkpt>
      <trkpt lat="42.8902200" lon="-0.0579690">
        <ele>1480.6</ele>
        <time>2020-07-27T09:14:00Z</time>
      </trkpt>
      <trkpt lat="42.8903310" lon="-0.0579280">
        <ele>1479.2</ele>
        <time>2020-07-27T09:14:01Z</time>
      </trkpt>
      <trkpt lat="42.8904500" lon="-0.0578960">
        <ele>1478.0</ele>
        <time>2020-07-27T09:14:02Z</time>
      </trkpt>
      <trkpt lat="42.8905710" lon="-0.0578570">
        <ele>1476.8</ele>
        <time>2020-07-27T09:14:03Z</time>
      </trkpt>
      <trkpt lat="42.8906920" lon="-0.0578030">
        <ele>1475.8</ele>
        <time>2020-07-27T09:14:04Z</time>
      </trkpt>
      <trkpt lat="42.8908130" lon="-0.0577340">
        <ele>1474.8</ele>
        <time>2020-07-27T09:14:05Z</time>
      </trkpt>
      <trkpt lat="42.8909350" lon="-0.0576630">
        <ele>1473.6</ele>
        <time>2020-07-27T09:14:06Z</time>
      </trkpt>
      <trkpt lat="42.8910610" lon="-0.0575940">
        <ele>1472.4</ele>
        <time>2020-07-27T09:14:07Z</time>
      </trkpt>
      <trkpt lat="42.8911840" lon="-0.0575240">
        <ele>1471.2</ele>
        <time>2020-07-27T09:14:08Z</time>
      </trkpt>
      <trkpt lat="42.8913030" lon="-0.0574420">
        <ele>1469.8</ele>
        <time>2020-07-27T09:14:09Z</time>
      </trkpt>
      <trkpt lat="42.8914160" lon="-0.0573450">
        <ele>1468.2</ele>
        <time>2020-07-27T09:14:10Z</time>
      </trkpt>
      <trkpt lat="42.8915260" lon="-0.0572430">
        <ele>1467.0</ele>
        <time>2020-07-27T09:14:11Z</time>
      </trkpt>
      <trkpt lat="42.8917520" lon="-0.0570590">
        <ele>1465.2</ele>
        <time>2020-07-27T09:14:13Z</time>
      </trkpt>
      <trkpt lat="42.8918710" lon="-0.0569850">
        <ele>1463.6</ele>
        <time>2020-07-27T09:14:14Z</time>
      </trkpt>
      <trkpt lat="42.8919930" lon="-0.0569270">
        <ele>1462.0</ele>
        <time>2020-07-27T09:14:15Z</time>
      </trkpt>
      <trkpt lat="42.8921170" lon="-0.0568860">
        <ele>1460.8</ele>
        <time>2020-07-27T09:14:16Z</time>
      </trkpt>
      <trkpt lat="42.8922320" lon="-0.0568640">
        <ele>1460.0</ele>
        <time>2020-07-27T09:14:17Z</time>
      </trkpt>
      <trkpt lat="42.8923330" lon="-0.0568520">
        <ele>1459.0</ele>
        <time>2020-07-27T09:14:18Z</time>
      </trkpt>
      <trkpt lat="42.8924200" lon="-0.0568310">
        <ele>1458.4</ele>
        <time>2020-07-27T09:14:19Z</time>
      </trkpt>
      <trkpt lat="42.8925020" lon="-0.0567820">
        <ele>1457.8</ele>
        <time>2020-07-27T09:14:20Z</time>
      </trkpt>
      <trkpt lat="42.8925590" lon="-0.0566900">
        <ele>1457.2</ele>
        <time>2020-07-27T09:14:21Z</time>
      </trkpt>
      <trkpt lat="42.8926060" lon="-0.0565780">
        <ele>1456.4</ele>
        <time>2020-07-27T09:14:22Z</time>
      </trkpt>
      <trkpt lat="42.8926610" lon="-0.0564590">
        <ele>1455.4</ele>
        <time>2020-07-27T09:14:23Z</time>
      </trkpt>
      <trkpt lat="42.8927300" lon="-0.0563500">
        <ele>1454.6</ele>
        <time>2020-07-27T09:14:24Z</time>
      </trkpt>
      <trkpt lat="42.8928060" lon="-0.0562580">
        <ele>1453.2</ele>
        <time>2020-07-27T09:14:25Z</time>
      </trkpt>
      <trkpt lat="42.8928860" lon="-0.0561830">
        <ele>1451.8</ele>
        <time>2020-07-27T09:14:26Z</time>
      </trkpt>
      <trkpt lat="42.8929690" lon="-0.0561330">
        <ele>1450.8</ele>
        <time>2020-07-27T09:14:27Z</time>
      </trkpt>
      <trkpt lat="42.8930410" lon="-0.0561050">
        <ele>1450.4</ele>
        <time>2020-07-27T09:14:28Z</time>
      </trkpt>
      <trkpt lat="42.8931880" lon="-0.0561370">
        <ele>1450.0</ele>
        <time>2020-07-27T09:14:30Z</time>
      </trkpt>
      <trkpt lat="42.8933000" lon="-0.0561080">
        <ele>1450.0</ele>
        <time>2020-07-27T09:14:32Z</time>
      </trkpt>
      <trkpt lat="42.8932950" lon="-0.0559940">
        <ele>1450.0</ele>
        <time>2020-07-27T09:14:34Z</time>
      </trkpt>
      <trkpt lat="42.8932540" lon="-0.0559550">
        <ele>1450.0</ele>
        <time>2020-07-27T09:14:35Z</time>
      </trkpt>
      <trkpt lat="42.8931990" lon="-0.0559400">
        <ele>1450.0</ele>
        <time>2020-07-27T09:14:36Z</time>
      </trkpt>
      <trkpt lat="42.8931320" lon="-0.0559440">
        <ele>1449.6</ele>
        <time>2020-07-27T09:14:37Z</time>
      </trkpt>
      <trkpt lat="42.8930620" lon="-0.0559650">
        <ele>1449.2</ele>
        <time>2020-07-27T09:14:38Z</time>
      </trkpt>
      <trkpt lat="42.8929900" lon="-0.0559960">
        <ele>1448.8</ele>
        <time>2020-07-27T09:14:39Z</time>
      </trkpt>
      <trkpt lat="42.8928390" lon="-0.0560920">
        <ele>1448.2</ele>
        <time>2020-07-27T09:14:41Z</time>
      </trkpt>
      <trkpt lat="42.8927600" lon="-0.0561470">
        <ele>1447.8</ele>
        <time>2020-07-27T09:14:42Z</time>
      </trkpt>
      <trkpt lat="42.8926810" lon="-0.0562060">
        <ele>1447.2</ele>
        <time>2020-07-27T09:14:43Z</time>
      </trkpt>
      <trkpt lat="42.8926050" lon="-0.0562790">
        <ele>1446.6</ele>
        <time>2020-07-27T09:14:44Z</time>
      </trkpt>
      <trkpt lat="42.8925280" lon="-0.0563560">
        <ele>1446.0</ele>
        <time>2020-07-27T09:14:45Z</time>
      </trkpt>
      <trkpt lat="42.8924440" lon="-0.0564240">
        <ele>1445.6</ele>
        <time>2020-07-27T09:14:46Z</time>
      </trkpt>
      <trkpt lat="42.8923500" lon="-0.0564710">
        <ele>1445.2</ele>
        <time>2020-07-27T09:14:47Z</time>
      </trkpt>
      <trkpt lat="42.8922480" lon="-0.0564890">
        <ele>1444.4</ele>
        <time>2020-07-27T09:14:48Z</time>
      </trkpt>
      <trkpt lat="42.8920380" lon="-0.0564520">
        <ele>1443.2</ele>
        <time>2020-07-27T09:14:50Z</time>
      </trkpt>
      <trkpt lat="42.8918350" lon="-0.0563960">
        <ele>1441.8</ele>
        <time>2020-07-27T09:14:52Z</time>
      </trkpt>
      <trkpt lat="42.8916290" lon="-0.0564110">
        <ele>1440.8</ele>
        <time>2020-07-27T09:14:54Z</time>
      </trkpt>
      <trkpt lat="42.8914180" lon="-0.0564820">
        <ele>1439.4</ele>
        <time>2020-07-27T09:14:56Z</time>
      </trkpt>
      <trkpt lat="42.8911900" lon="-0.0565330">
        <ele>1437.4</ele>
        <time>2020-07-27T09:14:58Z</time>
      </trkpt>
      <trkpt lat="42.8910700" lon="-0.0565430">
        <ele>1436.2</ele>
        <time>2020-07-27T09:14:59Z</time>
      </trkpt>
      <trkpt lat="42.8909450" lon="-0.0565470">
        <ele>1435.2</ele>
        <time>2020-07-27T09:15:00Z</time>
      </trkpt>
      <trkpt lat="42.8906770" lon="-0.0565650">
        <ele>1433.4</ele>
        <time>2020-07-27T09:15:02Z</time>
      </trkpt>
      <trkpt lat="42.8905370" lon="-0.0565900">
        <ele>1432.2</ele>
        <time>2020-07-27T09:15:03Z</time>
      </trkpt>
      <trkpt lat="42.8903920" lon="-0.0566220">
        <ele>1431.0</ele>
        <time>2020-07-27T09:15:04Z</time>
      </trkpt>
      <trkpt lat="42.8902470" lon="-0.0566560">
        <ele>1429.4</ele>
        <time>2020-07-27T09:15:05Z</time>
      </trkpt>
      <trkpt lat="42.8900990" lon="-0.0566930">
        <ele>1428.0</ele>
        <time>2020-07-27T09:15:06Z</time>
      </trkpt>
      <trkpt lat="42.8899510" lon="-0.0567320">
        <ele>1426.6</ele>
        <time>2020-07-27T09:15:07Z</time>
      </trkpt>
      <trkpt lat="42.8898020" lon="-0.0567720">
        <ele>1425.2</ele>
        <time>2020-07-27T09:15:08Z</time>
      </trkpt>
      <trkpt lat="42.8896570" lon="-0.0568050">
        <ele>1423.2</ele>
        <time>2020-07-27T09:15:09Z</time>
      </trkpt>
      <trkpt lat="42.8895230" lon="-0.0568300">
        <ele>1421.8</ele>
        <time>2020-07-27T09:15:10Z</time>
      </trkpt>
      <trkpt lat="42.8893950" lon="-0.0568420">
        <ele>1420.6</ele>
        <time>2020-07-27T09:15:11Z</time>
      </trkpt>
      <trkpt lat="42.8891610" lon="-0.0568470">
        <ele>1418.6</ele>
        <time>2020-07-27T09:15:13Z</time>
      </trkpt>
      <trkpt lat="42.8890490" lon="-0.0568450">
        <ele>1417.6</ele>
        <time>2020-07-27T09:15:14Z</time>
      </trkpt>
      <trkpt lat="42.8889470" lon="-0.0568380">
        <ele>1417.0</ele>
        <time>2020-07-27T09:15:15Z</time>
      </trkpt>
      <trkpt lat="42.8887990" lon="-0.0567880">
        <ele>1416.4</ele>
        <time>2020-07-27T09:15:17Z</time>
      </trkpt>
      <trkpt lat="42.8887430" lon="-0.0567430">
        <ele>1416.2</ele>
        <time>2020-07-27T09:15:18Z</time>
      </trkpt>
      <trkpt lat="42.8887080" lon="-0.0566890">
        <ele>1416.0</ele>
        <time>2020-07-27T09:15:19Z</time>
      </trkpt>
      <trkpt lat="42.8887580" lon="-0.0566000">
        <ele>1416.0</ele>
        <time>2020-07-27T09:15:20Z</time>
      </trkpt>
      <trkpt lat="42.8888830" lon="-0.0565230">
        <ele>1415.0</ele>
        <time>2020-07-27T09:15:22Z</time>
      </trkpt>
      <trkpt lat="42.8889680" lon="-0.0565060">
        <ele>1414.2</ele>
        <time>2020-07-27T09:15:23Z</time>
      </trkpt>
      <trkpt lat="42.8890650" lon="-0.0564860">
        <ele>1413.4</ele>
        <time>2020-07-27T09:15:24Z</time>
      </trkpt>
      <trkpt lat="42.8891650" lon="-0.0564570">
        <ele>1412.4</ele>
        <time>2020-07-27T09:15:25Z</time>
      </trkpt>
      <trkpt lat="42.8892680" lon="-0.0564190">
        <ele>1411.4</ele>
        <time>2020-07-27T09:15:26Z</time>
      </trkpt>
      <trkpt lat="42.8893740" lon="-0.0563700">
        <ele>1410.2</ele>
        <time>2020-07-27T09:15:27Z</time>
      </trkpt>
      <trkpt lat="42.8894790" lon="-0.0563120">
        <ele>1409.2</ele>
        <time>2020-07-27T09:15:28Z</time>
      </trkpt>
      <trkpt lat="42.8895870" lon="-0.0562480">
        <ele>1408.2</ele>
        <time>2020-07-27T09:15:29Z</time>
      </trkpt>
      <trkpt lat="42.8896950" lon="-0.0561700">
        <ele>1407.2</ele>
        <time>2020-07-27T09:15:30Z</time>
      </trkpt>
      <trkpt lat="42.8898000" lon="-0.0560800">
        <ele>1405.8</ele>
        <time>2020-07-27T09:15:31Z</time>
      </trkpt>
      <trkpt lat="42.8898970" lon="-0.0559730">
        <ele>1404.4</ele>
        <time>2020-07-27T09:15:32Z</time>
      </trkpt>
      <trkpt lat="42.8899900" lon="-0.0558490">
        <ele>1403.0</ele>
        <time>2020-07-27T09:15:33Z</time>
      </trkpt>
      <trkpt lat="42.8900770" lon="-0.0557150">
        <ele>1401.2</ele>
        <time>2020-07-27T09:15:34Z</time>
      </trkpt>
      <trkpt lat="42.8901610" lon="-0.0555800">
        <ele>1399.6</ele>
        <time>2020-07-27T09:15:35Z</time>
      </trkpt>
      <trkpt lat="42.8902490" lon="-0.0554440">
        <ele>1398.4</ele>
        <time>2020-07-27T09:15:36Z</time>
      </trkpt>
      <trkpt lat="42.8903410" lon="-0.0553130">
        <ele>1397.6</ele>
        <time>2020-07-27T09:15:37Z</time>
      </trkpt>
      <trkpt lat="42.8904400" lon="-0.0551870">
        <ele>1396.8</ele>
        <time>2020-07-27T09:15:38Z</time>
      </trkpt>
      <trkpt lat="42.8905430" lon="-0.0550670">
        <ele>1395.6</ele>
        <time>2020-07-27T09:15:39Z</time>
      </trkpt>
      <trkpt lat="42.8906530" lon="-0.0549500">
        <ele>1393.8</ele>
        <time>2020-07-27T09:15:40Z</time>
      </trkpt>
      <trkpt lat="42.8907700" lon="-0.0548400">
        <ele>1392.2</ele>
        <time>2020-07-27T09:15:41Z</time>
      </trkpt>
      <trkpt lat="42.8908920" lon="-0.0547370">
        <ele>1390.8</ele>
        <time>2020-07-27T09:15:42Z</time>
      </trkpt>
      <trkpt lat="42.8911360" lon="-0.0545160">
        <ele>1389.0</ele>
        <time>2020-07-27T09:15:44Z</time>
      </trkpt>
      <trkpt lat="42.8913630" lon="-0.0542800">
        <ele>1387.0</ele>
        <time>2020-07-27T09:15:46Z</time>
      </trkpt>
      <trkpt lat="42.8914670" lon="-0.0541750">
        <ele>1385.8</ele>
        <time>2020-07-27T09:15:47Z</time>
      </trkpt>
      <trkpt lat="42.8915680" lon="-0.0540860">
        <ele>1384.8</ele>
        <time>2020-07-27T09:15:48Z</time>
      </trkpt>
      <trkpt lat="42.8916680" lon="-0.0540190">
        <ele>1384.2</ele>
        <time>2020-07-27T09:15:49Z</time>
      </trkpt>
      <trkpt lat="42.8918560" lon="-0.0539410">
        <ele>1383.2</ele>
        <time>2020-07-27T09:15:51Z</time>
      </trkpt>
      <trkpt lat="42.8919310" lon="-0.0539240">
        <ele>1382.6</ele>
        <time>2020-07-27T09:15:52Z</time>
      </trkpt>
      <trkpt lat="42.8919900" lon="-0.0538980">
        <ele>1382.2</ele>
        <time>2020-07-27T09:15:53Z</time>
      </trkpt>
      <trkpt lat="42.8920280" lon="-0.0538540">
        <ele>1382.0</ele>
        <time>2020-07-27T09:15:54Z</time>
      </trkpt>
      <trkpt lat="42.8920330" lon="-0.0537970">
        <ele>1381.8</ele>
        <time>2020-07-27T09:15:55Z</time>
      </trkpt>
      <trkpt lat="42.8920210" lon="-0.0537340">
        <ele>1381.4</ele>
        <time>2020-07-27T09:15:56Z</time>
      </trkpt>
      <trkpt lat="42.8919680" lon="-0.0537060">
        <ele>1381.2</ele>
        <time>2020-07-27T09:15:57Z</time>
      </trkpt>
      <trkpt lat="42.8919040" lon="-0.0537060">
        <ele>1380.8</ele>
        <time>2020-07-27T09:15:58Z</time>
      </trkpt>
      <trkpt lat="42.8917500" lon="-0.0537290">
        <ele>1380.2</ele>
        <time>2020-07-27T09:16:00Z</time>
      </trkpt>
      <trkpt lat="42.8915670" lon="-0.0537510">
        <ele>1379.2</ele>
        <time>2020-07-27T09:16:02Z</time>
      </trkpt>
      <trkpt lat="42.8914740" lon="-0.0537560">
        <ele>1378.4</ele>
        <time>2020-07-27T09:16:03Z</time>
      </trkpt>
      <trkpt lat="42.8912850" lon="-0.0537720">
        <ele>1376.8</ele>
        <time>2020-07-27T09:16:05Z</time>
      </trkpt>
      <trkpt lat="42.8911960" lon="-0.0537650">
        <ele>1376.2</ele>
        <time>2020-07-27T09:16:06Z</time>
      </trkpt>
      <trkpt lat="42.8911330" lon="-0.0537270">
        <ele>1375.6</ele>
        <time>2020-07-27T09:16:07Z</time>
      </trkpt>
      <trkpt lat="42.8910710" lon="-0.0536730">
        <ele>1375.0</ele>
        <time>2020-07-27T09:16:08Z</time>
      </trkpt>
      <trkpt lat="42.8910840" lon="-0.0534970">
        <ele>1374.6</ele>
        <time>2020-07-27T09:16:10Z</time>
      </trkpt>
      <trkpt lat="42.8911180" lon="-0.0534240">
        <ele>1374.4</ele>
        <time>2020-07-27T09:16:11Z</time>
      </trkpt>
      <trkpt lat="42.8911740" lon="-0.0533570">
        <ele>1374.4</ele>
        <time>2020-07-27T09:16:12Z</time>
      </trkpt>
      <trkpt lat="42.8912400" lon="-0.0532910">
        <ele>1374.2</ele>
        <time>2020-07-27T09:16:13Z</time>
      </trkpt>
      <trkpt lat="42.8913960" lon="-0.0531530">
        <ele>1373.2</ele>
        <time>2020-07-27T09:16:15Z</time>
      </trkpt>
      <trkpt lat="42.8914820" lon="-0.0530830">
        <ele>1372.2</ele>
        <time>2020-07-27T09:16:16Z</time>
      </trkpt>
      <trkpt lat="42.8915720" lon="-0.0530140">
        <ele>1371.2</ele>
        <time>2020-07-27T09:16:17Z</time>
      </trkpt>
      <trkpt lat="42.8917660" lon="-0.0528700">
        <ele>1369.2</ele>
        <time>2020-07-27T09:16:19Z</time>
      </trkpt>
      <trkpt lat="42.8919620" lon="-0.0526890">
        <ele>1367.4</ele>
        <time>2020-07-27T09:16:21Z</time>
      </trkpt>
      <trkpt lat="42.8920490" lon="-0.0525680">
        <ele>1366.0</ele>
        <time>2020-07-27T09:16:22Z</time>
      </trkpt>
      <trkpt lat="42.8921260" lon="-0.0524290">
        <ele>1364.4</ele>
        <time>2020-07-27T09:16:23Z</time>
      </trkpt>
      <trkpt lat="42.8921980" lon="-0.0522810">
        <ele>1362.8</ele>
        <time>2020-07-27T09:16:24Z</time>
      </trkpt>
      <trkpt lat="42.8922770" lon="-0.0521300">
        <ele>1361.4</ele>
        <time>2020-07-27T09:16:25Z</time>
      </trkpt>
      <trkpt lat="42.8923620" lon="-0.0519820">
        <ele>1360.2</ele>
        <time>2020-07-27T09:16:26Z</time>
      </trkpt>
      <trkpt lat="42.8924430" lon="-0.0518380">
        <ele>1358.6</ele>
        <time>2020-07-27T09:16:27Z</time>
      </trkpt>
      <trkpt lat="42.8925220" lon="-0.0517030">
        <ele>1357.2</ele>
        <time>2020-07-27T09:16:28Z</time>
      </trkpt>
      <trkpt lat="42.8925970" lon="-0.0515770">
        <ele>1355.8</ele>
        <time>2020-07-27T09:16:29Z</time>
      </trkpt>
      <trkpt lat="42.8927580" lon="-0.0513690">
        <ele>1354.4</ele>
        <time>2020-07-27T09:16:31Z</time>
      </trkpt>
      <trkpt lat="42.8928520" lon="-0.0512870">
        <ele>1353.8</ele>
        <time>2020-07-27T09:16:32Z</time>
      </trkpt>
      <trkpt lat="42.8929610" lon="-0.0512170">
        <ele>1353.4</ele>
        <time>2020-07-27T09:16:33Z</time>
      </trkpt>
      <trkpt lat="42.8930770" lon="-0.0511560">
        <ele>1352.6</ele>
        <time>2020-07-27T09:16:34Z</time>
      </trkpt>
      <trkpt lat="42.8931930" lon="-0.0511010">
        <ele>1351.4</ele>
        <time>2020-07-27T09:16:35Z</time>
      </trkpt>
      <trkpt lat="42.8933060" lon="-0.0510500">
        <ele>1350.0</ele>
        <time>2020-07-27T09:16:36Z</time>
      </trkpt>
      <trkpt lat="42.8934170" lon="-0.0509940">
        <ele>1348.6</ele>
        <time>2020-07-27T09:16:37Z</time>
      </trkpt>
      <trkpt lat="42.8935200" lon="-0.0509170">
        <ele>1347.4</ele>
        <time>2020-07-27T09:16:38Z</time>
      </trkpt>
      <trkpt lat="42.8936150" lon="-0.0508190">
        <ele>1346.4</ele>
        <time>2020-07-27T09:16:39Z</time>
      </trkpt>
      <trkpt lat="42.8937060" lon="-0.0507080">
        <ele>1345.2</ele>
        <time>2020-07-27T09:16:40Z</time>
      </trkpt>
      <trkpt lat="42.8937950" lon="-0.0505880">
        <ele>1344.2</ele>
        <time>2020-07-27T09:16:41Z</time>
      </trkpt>
      <trkpt lat="42.8938860" lon="-0.0504650">
        <ele>1343.0</ele>
        <time>2020-07-27T09:16:42Z</time>
      </trkpt>
      <trkpt lat="42.8939750" lon="-0.0503370">
        <ele>1341.6</ele>
        <time>2020-07-27T09:16:43Z</time>
      </trkpt>
      <trkpt lat="42.8940610" lon="-0.0502040">
        <ele>1340.4</ele>
        <time>2020-07-27T09:16:44Z</time>
      </trkpt>
      <trkpt lat="42.8941530" lon="-0.0500720">
        <ele>1339.2</ele>
        <time>2020-07-27T09:16:45Z</time>
      </trkpt>
      <trkpt lat="42.8942480" lon="-0.0499450">
        <ele>1338.2</ele>
        <time>2020-07-27T09:16:46Z</time>
      </trkpt>
      <trkpt lat="42.8943390" lon="-0.0498210">
        <ele>1337.0</ele>
        <time>2020-07-27T09:16:47Z</time>
      </trkpt>
      <trkpt lat="42.8944200" lon="-0.0496970">
        <ele>1336.0</ele>
        <time>2020-07-27T09:16:48Z</time>
      </trkpt>
      <trkpt lat="42.8944940" lon="-0.0495650">
        <ele>1334.8</ele>
        <time>2020-07-27T09:16:49Z</time>
      </trkpt>
      <trkpt lat="42.8945630" lon="-0.0494220">
        <ele>1333.8</ele>
        <time>2020-07-27T09:16:50Z</time>
      </trkpt>
      <trkpt lat="42.8946330" lon="-0.0492730">
        <ele>1333.0</ele>
        <time>2020-07-27T09:16:51Z</time>
      </trkpt>
      <trkpt lat="42.8947090" lon="-0.0491280">
        <ele>1332.0</ele>
        <time>2020-07-27T09:16:52Z</time>
      </trkpt>
      <trkpt lat="42.8947850" lon="-0.0489890">
        <ele>1331.0</ele>
        <time>2020-07-27T09:16:53Z</time>
      </trkpt>
      <trkpt lat="42.8948560" lon="-0.0488540">
        <ele>1330.0</ele>
        <time>2020-07-27T09:16:54Z</time>
      </trkpt>
      <trkpt lat="42.8949160" lon="-0.0487120">
        <ele>1328.8</ele>
        <time>2020-07-27T09:16:55Z</time>
      </trkpt>
      <trkpt lat="42.8949690" lon="-0.0485620">
        <ele>1327.6</ele>
        <time>2020-07-27T09:16:56Z</time>
      </trkpt>
      <trkpt lat="42.8950090" lon="-0.0484020">
        <ele>1326.4</ele>
        <time>2020-07-27T09:16:57Z</time>
      </trkpt>
      <trkpt lat="42.8950410" lon="-0.0482490">
        <ele>1325.0</ele>
        <time>2020-07-27T09:16:58Z</time>
      </trkpt>
      <trkpt lat="42.8950560" lon="-0.0481060">
        <ele>1324.0</ele>
        <time>2020-07-27T09:16:59Z</time>
      </trkpt>
      <trkpt lat="42.8950190" lon="-0.0478270">
        <ele>1322.6</ele>
        <time>2020-07-27T09:17:01Z</time>
      </trkpt>
      <trkpt lat="42.8949710" lon="-0.0476910">
        <ele>1322.0</ele>
        <time>2020-07-27T09:17:02Z</time>
      </trkpt>
      <trkpt lat="42.8949060" lon="-0.0475600">
        <ele>1321.2</ele>
        <time>2020-07-27T09:17:03Z</time>
      </trkpt>
      <trkpt lat="42.8948380" lon="-0.0474280">
        <ele>1320.0</ele>
        <time>2020-07-27T09:17:04Z</time>
      </trkpt>
      <trkpt lat="42.8947700" lon="-0.0472920">
        <ele>1318.8</ele>
        <time>2020-07-27T09:17:05Z</time>
      </trkpt>
      <trkpt lat="42.8947010" lon="-0.0471510">
        <ele>1317.4</ele>
        <time>2020-07-27T09:17:06Z</time>
      </trkpt>
      <trkpt lat="42.8946330" lon="-0.0470060">
        <ele>1315.8</ele>
        <time>2020-07-27T09:17:07Z</time>
      </trkpt>
      <trkpt lat="42.8945650" lon="-0.0468620">
        <ele>1314.6</ele>
        <time>2020-07-27T09:17:08Z</time>
      </trkpt>
      <trkpt lat="42.8945020" lon="-0.0467230">
        <ele>1313.6</ele>
        <time>2020-07-27T09:17:09Z</time>
      </trkpt>
      <trkpt lat="42.8944550" lon="-0.0465810">
        <ele>1312.6</ele>
        <time>2020-07-27T09:17:10Z</time>
      </trkpt>
      <trkpt lat="42.8944290" lon="-0.0464290">
        <ele>1311.6</ele>
        <time>2020-07-27T09:17:11Z</time>
      </trkpt>
      <trkpt lat="42.8944210" lon="-0.0462760">
        <ele>1310.6</ele>
        <time>2020-07-27T09:17:12Z</time>
      </trkpt>
      <trkpt lat="42.8944140" lon="-0.0461310">
        <ele>1309.6</ele>
        <time>2020-07-27T09:17:13Z</time>
      </trkpt>
      <trkpt lat="42.8943930" lon="-0.0459900">
        <ele>1308.4</ele>
        <time>2020-07-27T09:17:14Z</time>
      </trkpt>
      <trkpt lat="42.8943630" lon="-0.0458510">
        <ele>1307.4</ele>
        <time>2020-07-27T09:17:15Z</time>
      </trkpt>
      <trkpt lat="42.8943130" lon="-0.0457210">
        <ele>1306.4</ele>
        <time>2020-07-27T09:17:16Z</time>
      </trkpt>
      <trkpt lat="42.8942450" lon="-0.0456000">
        <ele>1305.6</ele>
        <time>2020-07-27T09:17:17Z</time>
      </trkpt>
      <trkpt lat="42.8941590" lon="-0.0454970">
        <ele>1304.6</ele>
        <time>2020-07-27T09:17:18Z</time>
      </trkpt>
      <trkpt lat="42.8940580" lon="-0.0454100">
        <ele>1303.2</ele>
        <time>2020-07-27T09:17:19Z</time>
      </trkpt>
      <trkpt lat="42.8939440" lon="-0.0453350">
        <ele>1301.8</ele>
        <time>2020-07-27T09:17:20Z</time>
      </trkpt>
      <trkpt lat="42.8938300" lon="-0.0452520">
        <ele>1300.6</ele>
        <time>2020-07-27T09:17:21Z</time>
      </trkpt>
      <trkpt lat="42.8937220" lon="-0.0451550">
        <ele>1299.6</ele>
        <time>2020-07-27T09:17:22Z</time>
      </trkpt>
      <trkpt lat="42.8936240" lon="-0.0450450">
        <ele>1298.6</ele>
        <time>2020-07-27T09:17:23Z</time>
      </trkpt>
      <trkpt lat="42.8935300" lon="-0.0449250">
        <ele>1297.4</ele>
        <time>2020-07-27T09:17:24Z</time>
      </trkpt>
      <trkpt lat="42.8934370" lon="-0.0448000">
        <ele>1296.2</ele>
        <time>2020-07-27T09:17:25Z</time>
      </trkpt>
      <trkpt lat="42.8933460" lon="-0.0446850">
        <ele>1295.0</ele>
        <time>2020-07-27T09:17:26Z</time>
      </trkpt>
      <trkpt lat="42.8932450" lon="-0.0445860">
        <ele>1293.8</ele>
        <time>2020-07-27T09:17:27Z</time>
      </trkpt>
      <trkpt lat="42.8931380" lon="-0.0445010">
        <ele>1292.4</ele>
        <time>2020-07-27T09:17:28Z</time>
      </trkpt>
      <trkpt lat="42.8930300" lon="-0.0444190">
        <ele>1291.2</ele>
        <time>2020-07-27T09:17:29Z</time>
      </trkpt>
      <trkpt lat="42.8928100" lon="-0.0442760">
        <ele>1289.8</ele>
        <time>2020-07-27T09:17:31Z</time>
      </trkpt>
      <trkpt lat="42.8926190" lon="-0.0441950">
        <ele>1289.4</ele>
        <time>2020-07-27T09:17:33Z</time>
      </trkpt>
      <trkpt lat="42.8925530" lon="-0.0441560">
        <ele>1289.2</ele>
        <time>2020-07-27T09:17:34Z</time>
      </trkpt>
      <trkpt lat="42.8924890" lon="-0.0440370">
        <ele>1289.4</ele>
        <time>2020-07-27T09:17:36Z</time>
      </trkpt>
      <trkpt lat="42.8925470" lon="-0.0439580">
        <ele>1289.4</ele>
        <time>2020-07-27T09:17:38Z</time>
      </trkpt>
      <trkpt lat="42.8926870" lon="-0.0439700">
        <ele>1288.8</ele>
        <time>2020-07-27T09:17:40Z</time>
      </trkpt>
      <trkpt lat="42.8928510" lon="-0.0440530">
        <ele>1287.8</ele>
        <time>2020-07-27T09:17:42Z</time>
      </trkpt>
      <trkpt lat="42.8929410" lon="-0.0440900">
        <ele>1287.4</ele>
        <time>2020-07-27T09:17:43Z</time>
      </trkpt>
      <trkpt lat="42.8930350" lon="-0.0441180">
        <ele>1286.8</ele>
        <time>2020-07-27T09:17:44Z</time>
      </trkpt>
      <trkpt lat="42.8931400" lon="-0.0441380">
        <ele>1286.0</ele>
        <time>2020-07-27T09:17:45Z</time>
      </trkpt>
      <trkpt lat="42.8933530" lon="-0.0441390">
        <ele>1284.2</ele>
        <time>2020-07-27T09:17:47Z</time>
      </trkpt>
      <trkpt lat="42.8935610" lon="-0.0440540">
        <ele>1282.0</ele>
        <time>2020-07-27T09:17:49Z</time>
      </trkpt>
      <trkpt lat="42.8936570" lon="-0.0439790">
        <ele>1280.6</ele>
        <time>2020-07-27T09:17:50Z</time>
      </trkpt>
      <trkpt lat="42.8937550" lon="-0.0439050">
        <ele>1279.4</ele>
        <time>2020-07-27T09:17:51Z</time>
      </trkpt>
      <trkpt lat="42.8939580" lon="-0.0437430">
        <ele>1277.6</ele>
        <time>2020-07-27T09:17:53Z</time>
      </trkpt>
      <trkpt lat="42.8940690" lon="-0.0436570">
        <ele>1276.6</ele>
        <time>2020-07-27T09:17:54Z</time>
      </trkpt>
      <trkpt lat="42.8942800" lon="-0.0435170">
        <ele>1275.2</ele>
        <time>2020-07-27T09:17:56Z</time>
      </trkpt>
      <trkpt lat="42.8945000" lon="-0.0434650">
        <ele>1274.2</ele>
        <time>2020-07-27T09:17:58Z</time>
      </trkpt>
      <trkpt lat="42.8946180" lon="-0.0434780">
        <ele>1273.2</ele>
        <time>2020-07-27T09:17:59Z</time>
      </trkpt>
      <trkpt lat="42.8947290" lon="-0.0435100">
        <ele>1272.6</ele>
        <time>2020-07-27T09:18:00Z</time>
      </trkpt>
      <trkpt lat="42.8949470" lon="-0.0436280">
        <ele>1270.4</ele>
        <time>2020-07-27T09:18:02Z</time>
      </trkpt>
      <trkpt lat="42.8950630" lon="-0.0437240">
        <ele>1269.0</ele>
        <time>2020-07-27T09:18:03Z</time>
      </trkpt>
      <trkpt lat="42.8951600" lon="-0.0438380">
        <ele>1267.8</ele>
        <time>2020-07-27T09:18:04Z</time>
      </trkpt>
      <trkpt lat="42.8952450" lon="-0.0439650">
        <ele>1266.6</ele>
        <time>2020-07-27T09:18:05Z</time>
      </trkpt>
      <trkpt lat="42.8953340" lon="-0.0440990">
        <ele>1265.6</ele>
        <time>2020-07-27T09:18:06Z</time>
      </trkpt>
      <trkpt lat="42.8954210" lon="-0.0442390">
        <ele>1264.4</ele>
        <time>2020-07-27T09:18:07Z</time>
      </trkpt>
      <trkpt lat="42.8955120" lon="-0.0443800">
        <ele>1263.2</ele>
        <time>2020-07-27T09:18:08Z</time>
      </trkpt>
      <trkpt lat="42.8956030" lon="-0.0445130">
        <ele>1261.4</ele>
        <time>2020-07-27T09:18:09Z</time>
      </trkpt>
      <trkpt lat="42.8957010" lon="-0.0446330">
        <ele>1260.0</ele>
        <time>2020-07-27T09:18:10Z</time>
      </trkpt>
      <trkpt lat="42.8958070" lon="-0.0447380">
        <ele>1258.8</ele>
        <time>2020-07-27T09:18:11Z</time>
      </trkpt>
      <trkpt lat="42.8959190" lon="-0.0448330">
        <ele>1257.8</ele>
        <time>2020-07-27T09:18:12Z</time>
      </trkpt>
      <trkpt lat="42.8960220" lon="-0.0449370">
        <ele>1256.2</ele>
        <time>2020-07-27T09:18:13Z</time>
      </trkpt>
      <trkpt lat="42.8961170" lon="-0.0450560">
        <ele>1254.8</ele>
        <time>2020-07-27T09:18:14Z</time>
      </trkpt>
      <trkpt lat="42.8962080" lon="-0.0451820">
        <ele>1253.4</ele>
        <time>2020-07-27T09:18:15Z</time>
      </trkpt>
      <trkpt lat="42.8962950" lon="-0.0453100">
        <ele>1252.0</ele>
        <time>2020-07-27T09:18:16Z</time>
      </trkpt>
      <trkpt lat="42.8963730" lon="-0.0454400">
        <ele>1251.0</ele>
        <time>2020-07-27T09:18:17Z</time>
      </trkpt>
      <trkpt lat="42.8964370" lon="-0.0455680">
        <ele>1250.0</ele>
        <time>2020-07-27T09:18:18Z</time>
      </trkpt>
      <trkpt lat="42.8964860" lon="-0.0456970">
        <ele>1249.0</ele>
        <time>2020-07-27T09:18:19Z</time>
      </trkpt>
      <trkpt lat="42.8965050" lon="-0.0458320">
        <ele>1248.2</ele>
        <time>2020-07-27T09:18:20Z</time>
      </trkpt>
      <trkpt lat="42.8965230" lon="-0.0459450">
        <ele>1247.8</ele>
        <time>2020-07-27T09:18:21Z</time>
      </trkpt>
      <trkpt lat="42.8965890" lon="-0.0460770">
        <ele>1247.2</ele>
        <time>2020-07-27T09:18:23Z</time>
      </trkpt>
      <trkpt lat="42.8966370" lon="-0.0460720">
        <ele>1247.0</ele>
        <time>2020-07-27T09:18:24Z</time>
      </trkpt>
      <trkpt lat="42.8966680" lon="-0.0459530">
        <ele>1246.6</ele>
        <time>2020-07-27T09:18:26Z</time>
      </trkpt>
      <trkpt lat="42.8966520" lon="-0.0458620">
        <ele>1246.4</ele>
        <time>2020-07-27T09:18:27Z</time>
      </trkpt>
      <trkpt lat="42.8965960" lon="-0.0456520">
        <ele>1245.8</ele>
        <time>2020-07-27T09:18:29Z</time>
      </trkpt>
      <trkpt lat="42.8965280" lon="-0.0454070">
        <ele>1244.0</ele>
        <time>2020-07-27T09:18:31Z</time>
      </trkpt>
      <trkpt lat="42.8964540" lon="-0.0451480">
        <ele>1242.6</ele>
        <time>2020-07-27T09:18:33Z</time>
      </trkpt>
      <trkpt lat="42.8964090" lon="-0.0450110">
        <ele>1241.6</ele>
        <time>2020-07-27T09:18:34Z</time>
      </trkpt>
      <trkpt lat="42.8963590" lon="-0.0448730">
        <ele>1240.6</ele>
        <time>2020-07-27T09:18:35Z</time>
      </trkpt>
      <trkpt lat="42.8962430" lon="-0.0446000">
        <ele>1239.0</ele>
        <time>2020-07-27T09:18:37Z</time>
      </trkpt>
      <trkpt lat="42.8961090" lon="-0.0443440">
        <ele>1237.8</ele>
        <time>2020-07-27T09:18:39Z</time>
      </trkpt>
      <trkpt lat="42.8960070" lon="-0.0441480">
        <ele>1237.0</ele>
        <time>2020-07-27T09:18:41Z</time>
      </trkpt>
      <trkpt lat="42.8959930" lon="-0.0440660">
        <ele>1236.6</ele>
        <time>2020-07-27T09:18:42Z</time>
      </trkpt>
      <trkpt lat="42.8959980" lon="-0.0439980">
        <ele>1236.2</ele>
        <time>2020-07-27T09:18:43Z</time>
      </trkpt>
      <trkpt lat="42.8960310" lon="-0.0439600">
        <ele>1235.8</ele>
        <time>2020-07-27T09:18:44Z</time>
      </trkpt>
      <trkpt lat="42.8961400" lon="-0.0440120">
        <ele>1235.6</ele>
        <time>2020-07-27T09:18:46Z</time>
      </trkpt>
      <trkpt lat="42.8962010" lon="-0.0440770">
        <ele>1235.6</ele>
        <time>2020-07-27T09:18:47Z</time>
      </trkpt>
      <trkpt lat="42.8962600" lon="-0.0441550">
        <ele>1235.2</ele>
        <time>2020-07-27T09:18:48Z</time>
      </trkpt>
      <trkpt lat="42.8963160" lon="-0.0442500">
        <ele>1234.8</ele>
        <time>2020-07-27T09:18:49Z</time>
      </trkpt>
      <trkpt lat="42.8963690" lon="-0.0443560">
        <ele>1234.2</ele>
        <time>2020-07-27T09:18:50Z</time>
      </trkpt>
      <trkpt lat="42.8965740" lon="-0.0446360">
        <ele>1232.8</ele>
        <time>2020-07-27T09:18:53Z</time>
      </trkpt>
      <trkpt lat="42.8967790" lon="-0.0449090">
        <ele>1231.8</ele>
        <time>2020-07-27T09:18:56Z</time>
      </trkpt>
      <trkpt lat="42.8969120" lon="-0.0451120">
        <ele>1231.0</ele>
        <time>2020-07-27T09:18:58Z</time>
      </trkpt>
      <trkpt lat="42.8969510" lon="-0.0452360">
        <ele>1230.2</ele>
        <time>2020-07-27T09:18:59Z</time>
      </trkpt>
      <trkpt lat="42.8969800" lon="-0.0453660">
        <ele>1229.4</ele>
        <time>2020-07-27T09:19:00Z</time>
      </trkpt>
      <trkpt lat="42.8970000" lon="-0.0454870">
        <ele>1228.8</ele>
        <time>2020-07-27T09:19:01Z</time>
      </trkpt>
      <trkpt lat="42.8970200" lon="-0.0455860">
        <ele>1228.6</ele>
        <time>2020-07-27T09:19:02Z</time>
      </trkpt>
      <trkpt lat="42.8970650" lon="-0.0456360">
        <ele>1228.2</ele>
        <time>2020-07-27T09:19:03Z</time>
      </trkpt>
      <trkpt lat="42.8971190" lon="-0.0456490">
        <ele>1228.0</ele>
        <time>2020-07-27T09:19:04Z</time>
      </trkpt>
      <trkpt lat="42.8971690" lon="-0.0455420">
        <ele>1227.8</ele>
        <time>2020-07-27T09:19:06Z</time>
      </trkpt>
      <trkpt lat="42.8971630" lon="-0.0454520">
        <ele>1227.8</ele>
        <time>2020-07-27T09:19:07Z</time>
      </trkpt>
      <trkpt lat="42.8971410" lon="-0.0453550">
        <ele>1227.8</ele>
        <time>2020-07-27T09:19:08Z</time>
      </trkpt>
      <trkpt lat="42.8971090" lon="-0.0452500">
        <ele>1227.6</ele>
        <time>2020-07-27T09:19:09Z</time>
      </trkpt>
      <trkpt lat="42.8970660" lon="-0.0451420">
        <ele>1227.4</ele>
        <time>2020-07-27T09:19:10Z</time>
      </trkpt>
      <trkpt lat="42.8970110" lon="-0.0450300">
        <ele>1226.8</ele>
        <time>2020-07-27T09:19:11Z</time>
      </trkpt>
      <trkpt lat="42.8969490" lon="-0.0449150">
        <ele>1226.0</ele>
        <time>2020-07-27T09:19:12Z</time>
      </trkpt>
      <trkpt lat="42.8968840" lon="-0.0447910">
        <ele>1225.0</ele>
        <time>2020-07-27T09:19:13Z</time>
      </trkpt>
      <trkpt lat="42.8967570" lon="-0.0445100">
        <ele>1223.4</ele>
        <time>2020-07-27T09:19:15Z</time>
      </trkpt>
      <trkpt lat="42.8966970" lon="-0.0443650">
        <ele>1222.4</ele>
        <time>2020-07-27T09:19:16Z</time>
      </trkpt>
      <trkpt lat="42.8966440" lon="-0.0442110">
        <ele>1221.2</ele>
        <time>2020-07-27T09:19:17Z</time>
      </trkpt>
      <trkpt lat="42.8965990" lon="-0.0440510">
        <ele>1220.0</ele>
        <time>2020-07-27T09:19:18Z</time>
      </trkpt>
      <trkpt lat="42.8965200" lon="-0.0437270">
        <ele>1219.0</ele>
        <time>2020-07-27T09:19:20Z</time>
      </trkpt>
      <trkpt lat="42.8964180" lon="-0.0432470">
        <ele>1217.8</ele>
        <time>2020-07-27T09:19:23Z</time>
      </trkpt>
      <trkpt lat="42.8963970" lon="-0.0430880">
        <ele>1217.4</ele>
        <time>2020-07-27T09:19:24Z</time>
      </trkpt>
      <trkpt lat="42.8963930" lon="-0.0429320">
        <ele>1216.6</ele>
        <time>2020-07-27T09:19:25Z</time>
      </trkpt>
      <trkpt lat="42.8964000" lon="-0.0427820">
        <ele>1216.0</ele>
        <time>2020-07-27T09:19:26Z</time>
      </trkpt>
      <trkpt lat="42.8964310" lon="-0.0426460">
        <ele>1215.4</ele>
        <time>2020-07-27T09:19:27Z</time>
      </trkpt>
      <trkpt lat="42.8964860" lon="-0.0425230">
        <ele>1215.0</ele>
        <time>2020-07-27T09:19:28Z</time>
      </trkpt>
      <trkpt lat="42.8965650" lon="-0.0424150">
        <ele>1214.2</ele>
        <time>2020-07-27T09:19:29Z</time>
      </trkpt>
      <trkpt lat="42.8966510" lon="-0.0423150">
        <ele>1213.2</ele>
        <time>2020-07-27T09:19:30Z</time>
      </trkpt>
      <trkpt lat="42.8967360" lon="-0.0422190">
        <ele>1212.2</ele>
        <time>2020-07-27T09:19:31Z</time>
      </trkpt>
      <trkpt lat="42.8968600" lon="-0.0420200">
        <ele>1210.4</ele>
        <time>2020-07-27T09:19:33Z</time>
      </trkpt>
      <trkpt lat="42.8968740" lon="-0.0419060">
        <ele>1209.6</ele>
        <time>2020-07-27T09:19:34Z</time>
      </trkpt>
      <trkpt lat="42.8968570" lon="-0.0417930">
        <ele>1209.0</ele>
        <time>2020-07-27T09:19:35Z</time>
      </trkpt>
      <trkpt lat="42.8968110" lon="-0.0416800">
        <ele>1208.6</ele>
        <time>2020-07-27T09:19:36Z</time>
      </trkpt>
      <trkpt lat="42.8967400" lon="-0.0415780">
        <ele>1208.0</ele>
        <time>2020-07-27T09:19:37Z</time>
      </trkpt>
      <trkpt lat="42.8966510" lon="-0.0414780">
        <ele>1207.0</ele>
        <time>2020-07-27T09:19:38Z</time>
      </trkpt>
      <trkpt lat="42.8965480" lon="-0.0413880">
        <ele>1205.8</ele>
        <time>2020-07-27T09:19:39Z</time>
      </trkpt>
      <trkpt lat="42.8964360" lon="-0.0413070">
        <ele>1204.4</ele>
        <time>2020-07-27T09:19:40Z</time>
      </trkpt>
      <trkpt lat="42.8963160" lon="-0.0412290">
        <ele>1203.0</ele>
        <time>2020-07-27T09:19:41Z</time>
      </trkpt>
      <trkpt lat="42.8961960" lon="-0.0411490">
        <ele>1201.8</ele>
        <time>2020-07-27T09:19:42Z</time>
      </trkpt>
      <trkpt lat="42.8960740" lon="-0.0410650">
        <ele>1200.4</ele>
        <time>2020-07-27T09:19:43Z</time>
      </trkpt>
      <trkpt lat="42.8959510" lon="-0.0409740">
        <ele>1199.0</ele>
        <time>2020-07-27T09:19:44Z</time>
      </trkpt>
      <trkpt lat="42.8958290" lon="-0.0408730">
        <ele>1197.6</ele>
        <time>2020-07-27T09:19:45Z</time>
      </trkpt>
      <trkpt lat="42.8957080" lon="-0.0407650">
        <ele>1196.2</ele>
        <time>2020-07-27T09:19:46Z</time>
      </trkpt>
      <trkpt lat="42.8954760" lon="-0.0405360">
        <ele>1194.8</ele>
        <time>2020-07-27T09:19:48Z</time>
      </trkpt>
      <trkpt lat="42.8952460" lon="-0.0402840">
        <ele>1192.6</ele>
        <time>2020-07-27T09:19:50Z</time>
      </trkpt>
      <trkpt lat="42.8951280" lon="-0.0401530">
        <ele>1191.0</ele>
        <time>2020-07-27T09:19:51Z</time>
      </trkpt>
      <trkpt lat="42.8950120" lon="-0.0400220">
        <ele>1189.4</ele>
        <time>2020-07-27T09:19:52Z</time>
      </trkpt>
      <trkpt lat="42.8948960" lon="-0.0398900">
        <ele>1188.0</ele>
        <time>2020-07-27T09:19:53Z</time>
      </trkpt>
      <trkpt lat="42.8947750" lon="-0.0397670">
        <ele>1186.4</ele>
        <time>2020-07-27T09:19:54Z</time>
      </trkpt>
      <trkpt lat="42.8946500" lon="-0.0396480">
        <ele>1184.6</ele>
        <time>2020-07-27T09:19:55Z</time>
      </trkpt>
      <trkpt lat="42.8945170" lon="-0.0395340">
        <ele>1183.0</ele>
        <time>2020-07-27T09:19:56Z</time>
      </trkpt>
      <trkpt lat="42.8943740" lon="-0.0394320">
        <ele>1181.2</ele>
        <time>2020-07-27T09:19:57Z</time>
      </trkpt>
      <trkpt lat="42.8942270" lon="-0.0393340">
        <ele>1179.8</ele>
        <time>2020-07-27T09:19:58Z</time>
      </trkpt>
      <trkpt lat="42.8940770" lon="-0.0392420">
        <ele>1178.4</ele>
        <time>2020-07-27T09:19:59Z</time>
      </trkpt>
      <trkpt lat="42.8939230" lon="-0.0391500">
        <ele>1176.8</ele>
        <time>2020-07-27T09:20:00Z</time>
      </trkpt>
      <trkpt lat="42.8937680" lon="-0.0390660">
        <ele>1175.0</ele>
        <time>2020-07-27T09:20:01Z</time>
      </trkpt>
      <trkpt lat="42.8936140" lon="-0.0389870">
        <ele>1172.8</ele>
        <time>2020-07-27T09:20:02Z</time>
      </trkpt>
      <trkpt lat="42.8934560" lon="-0.0389090">
        <ele>1171.2</ele>
        <time>2020-07-27T09:20:03Z</time>
      </trkpt>
      <trkpt lat="42.8933030" lon="-0.0388340">
        <ele>1169.6</ele>
        <time>2020-07-27T09:20:04Z</time>
      </trkpt>
      <trkpt lat="42.8931570" lon="-0.0387690">
        <ele>1167.8</ele>
        <time>2020-07-27T09:20:05Z</time>
      </trkpt>
      <trkpt lat="42.8930150" lon="-0.0387220">
        <ele>1165.4</ele>
        <time>2020-07-27T09:20:06Z</time>
      </trkpt>
      <trkpt lat="42.8928680" lon="-0.0386900">
        <ele>1163.4</ele>
        <time>2020-07-27T09:20:07Z</time>
      </trkpt>
      <trkpt lat="42.8927160" lon="-0.0386750">
        <ele>1162.2</ele>
        <time>2020-07-27T09:20:08Z</time>
      </trkpt>
      <trkpt lat="42.8925620" lon="-0.0386800">
        <ele>1160.8</ele>
        <time>2020-07-27T09:20:09Z</time>
      </trkpt>
      <trkpt lat="42.8924050" lon="-0.0386890">
        <ele>1159.2</ele>
        <time>2020-07-27T09:20:10Z</time>
      </trkpt>
      <trkpt lat="42.8922490" lon="-0.0387020">
        <ele>1157.4</ele>
        <time>2020-07-27T09:20:11Z</time>
      </trkpt>
      <trkpt lat="42.8920910" lon="-0.0387060">
        <ele>1155.6</ele>
        <time>2020-07-27T09:20:12Z</time>
      </trkpt>
      <trkpt lat="42.8919320" lon="-0.0387010">
        <ele>1153.6</ele>
        <time>2020-07-27T09:20:13Z</time>
      </trkpt>
      <trkpt lat="42.8917750" lon="-0.0386800">
        <ele>1152.0</ele>
        <time>2020-07-27T09:20:14Z</time>
      </trkpt>
      <trkpt lat="42.8916180" lon="-0.0386490">
        <ele>1150.6</ele>
        <time>2020-07-27T09:20:15Z</time>
      </trkpt>
      <trkpt lat="42.8914610" lon="-0.0386120">
        <ele>1149.0</ele>
        <time>2020-07-27T09:20:16Z</time>
      </trkpt>
      <trkpt lat="42.8913110" lon="-0.0385710">
        <ele>1147.6</ele>
        <time>2020-07-27T09:20:17Z</time>
      </trkpt>
      <trkpt lat="42.8911700" lon="-0.0385340">
        <ele>1146.4</ele>
        <time>2020-07-27T09:20:18Z</time>
      </trkpt>
      <trkpt lat="42.8910270" lon="-0.0385170">
        <ele>1144.8</ele>
        <time>2020-07-27T09:20:19Z</time>
      </trkpt>
      <trkpt lat="42.8908800" lon="-0.0385120">
        <ele>1143.4</ele>
        <time>2020-07-27T09:20:20Z</time>
      </trkpt>
      <trkpt lat="42.8907370" lon="-0.0385230">
        <ele>1142.4</ele>
        <time>2020-07-27T09:20:21Z</time>
      </trkpt>
      <trkpt lat="42.8904470" lon="-0.0385650">
        <ele>1140.8</ele>
        <time>2020-07-27T09:20:23Z</time>
      </trkpt>
      <trkpt lat="42.8901570" lon="-0.0386020">
        <ele>1139.2</ele>
        <time>2020-07-27T09:20:25Z</time>
      </trkpt>
      <trkpt lat="42.8900150" lon="-0.0386000">
        <ele>1138.2</ele>
        <time>2020-07-27T09:20:26Z</time>
      </trkpt>
      <trkpt lat="42.8898820" lon="-0.0385970">
        <ele>1136.8</ele>
        <time>2020-07-27T09:20:27Z</time>
      </trkpt>
      <trkpt lat="42.8897580" lon="-0.0385970">
        <ele>1135.4</ele>
        <time>2020-07-27T09:20:28Z</time>
      </trkpt>
      <trkpt lat="42.8896460" lon="-0.0386220">
        <ele>1134.2</ele>
        <time>2020-07-27T09:20:29Z</time>
      </trkpt>
      <trkpt lat="42.8895470" lon="-0.0386600">
        <ele>1133.2</ele>
        <time>2020-07-27T09:20:30Z</time>
      </trkpt>
      <trkpt lat="42.8893920" lon="-0.0386900">
        <ele>1131.8</ele>
        <time>2020-07-27T09:20:32Z</time>
      </trkpt>
      <trkpt lat="42.8893310" lon="-0.0386350">
        <ele>1131.2</ele>
        <time>2020-07-27T09:20:34Z</time>
      </trkpt>
      <trkpt lat="42.8893440" lon="-0.0385780">
        <ele>1131.0</ele>
        <time>2020-07-27T09:20:35Z</time>
      </trkpt>
      <trkpt lat="42.8893730" lon="-0.0385120">
        <ele>1130.8</ele>
        <time>2020-07-27T09:20:36Z</time>
      </trkpt>
      <trkpt lat="42.8894240" lon="-0.0384610">
        <ele>1130.4</ele>
        <time>2020-07-27T09:20:37Z</time>
      </trkpt>
      <trkpt lat="42.8895670" lon="-0.0383690">
        <ele>1129.4</ele>
        <time>2020-07-27T09:20:39Z</time>
      </trkpt>
      <trkpt lat="42.8896660" lon="-0.0383350">
        <ele>1128.8</ele>
        <time>2020-07-27T09:20:40Z</time>
      </trkpt>
      <trkpt lat="42.8898870" lon="-0.0382600">
        <ele>1127.6</ele>
        <time>2020-07-27T09:20:42Z</time>
      </trkpt>
      <trkpt lat="42.8900050" lon="-0.0382160">
        <ele>1126.6</ele>
        <time>2020-07-27T09:20:43Z</time>
      </trkpt>
      <trkpt lat="42.8901220" lon="-0.0381600">
        <ele>1125.2</ele>
        <time>2020-07-27T09:20:44Z</time>
      </trkpt>
      <trkpt lat="42.8902560" lon="-0.0381050">
        <ele>1123.6</ele>
        <time>2020-07-27T09:20:45Z</time>
      </trkpt>
      <trkpt lat="42.8903930" lon="-0.0380440">
        <ele>1122.2</ele>
        <time>2020-07-27T09:20:46Z</time>
      </trkpt>
      <trkpt lat="42.8905310" lon="-0.0379770">
        <ele>1121.0</ele>
        <time>2020-07-27T09:20:47Z</time>
      </trkpt>
      <trkpt lat="42.8906680" lon="-0.0379040">
        <ele>1119.6</ele>
        <time>2020-07-27T09:20:48Z</time>
      </trkpt>
      <trkpt lat="42.8908110" lon="-0.0378250">
        <ele>1117.8</ele>
        <time>2020-07-27T09:20:49Z</time>
      </trkpt>
      <trkpt lat="42.8909540" lon="-0.0377460">
        <ele>1116.0</ele>
        <time>2020-07-27T09:20:50Z</time>
      </trkpt>
      <trkpt lat="42.8911010" lon="-0.0376730">
        <ele>1114.4</ele>
        <time>2020-07-27T09:20:51Z</time>
      </trkpt>
      <trkpt lat="42.8912440" lon="-0.0375880">
        <ele>1112.8</ele>
        <time>2020-07-27T09:20:52Z</time>
      </trkpt>
      <trkpt lat="42.8913880" lon="-0.0375100">
        <ele>1111.2</ele>
        <time>2020-07-27T09:20:53Z</time>
      </trkpt>
      <trkpt lat="42.8915320" lon="-0.0374260">
        <ele>1109.4</ele>
        <time>2020-07-27T09:20:54Z</time>
      </trkpt>
      <trkpt lat="42.8916700" lon="-0.0373360">
        <ele>1107.6</ele>
        <time>2020-07-27T09:20:55Z</time>
      </trkpt>
      <trkpt lat="42.8918030" lon="-0.0372490">
        <ele>1106.2</ele>
        <time>2020-07-27T09:20:56Z</time>
      </trkpt>
      <trkpt lat="42.8919340" lon="-0.0371600">
        <ele>1104.8</ele>
        <time>2020-07-27T09:20:57Z</time>
      </trkpt>
      <trkpt lat="42.8920730" lon="-0.0370620">
        <ele>1103.2</ele>
        <time>2020-07-27T09:20:58Z</time>
      </trkpt>
      <trkpt lat="42.8921950" lon="-0.0369790">
        <ele>1101.6</ele>
        <time>2020-07-27T09:20:59Z</time>
      </trkpt>
      <trkpt lat="42.8923090" lon="-0.0369110">
        <ele>1100.2</ele>
        <time>2020-07-27T09:21:00Z</time>
      </trkpt>
      <trkpt lat="42.8924170" lon="-0.0368720">
        <ele>1099.0</ele>
        <time>2020-07-27T09:21:01Z</time>
      </trkpt>
      <trkpt lat="42.8925280" lon="-0.0368700">
        <ele>1097.6</ele>
        <time>2020-07-27T09:21:02Z</time>
      </trkpt>
      <trkpt lat="42.8926310" lon="-0.0368950">
        <ele>1096.6</ele>
        <time>2020-07-27T09:21:03Z</time>
      </trkpt>
      <trkpt lat="42.8928090" lon="-0.0369220">
        <ele>1095.6</ele>
        <time>2020-07-27T09:21:05Z</time>
      </trkpt>
      <trkpt lat="42.8928670" lon="-0.0368940">
        <ele>1095.2</ele>
        <time>2020-07-27T09:21:06Z</time>
      </trkpt>
      <trkpt lat="42.8928940" lon="-0.0368320">
        <ele>1094.8</ele>
        <time>2020-07-27T09:21:07Z</time>
      </trkpt>
      <trkpt lat="42.8928800" lon="-0.0367410">
        <ele>1094.2</ele>
        <time>2020-07-27T09:21:08Z</time>
      </trkpt>
      <trkpt lat="42.8928340" lon="-0.0366740">
        <ele>1094.0</ele>
        <time>2020-07-27T09:21:09Z</time>
      </trkpt>
      <trkpt lat="42.8927710" lon="-0.0366240">
        <ele>1093.6</ele>
        <time>2020-07-27T09:21:10Z</time>
      </trkpt>
      <trkpt lat="42.8925910" lon="-0.0365410">
        <ele>1092.6</ele>
        <time>2020-07-27T09:21:12Z</time>
      </trkpt>
      <trkpt lat="42.8924920" lon="-0.0365010">
        <ele>1091.4</ele>
        <time>2020-07-27T09:21:13Z</time>
      </trkpt>
      <trkpt lat="42.8923800" lon="-0.0364550">
        <ele>1089.8</ele>
        <time>2020-07-27T09:21:14Z</time>
      </trkpt>
      <trkpt lat="42.8922640" lon="-0.0364140">
        <ele>1088.2</ele>
        <time>2020-07-27T09:21:15Z</time>
      </trkpt>
      <trkpt lat="42.8921440" lon="-0.0363750">
        <ele>1086.8</ele>
        <time>2020-07-27T09:21:16Z</time>
      </trkpt>
      <trkpt lat="42.8920170" lon="-0.0363270">
        <ele>1085.6</ele>
        <time>2020-07-27T09:21:17Z</time>
      </trkpt>
      <trkpt lat="42.8918900" lon="-0.0362860">
        <ele>1084.4</ele>
        <time>2020-07-27T09:21:18Z</time>
      </trkpt>
      <trkpt lat="42.8917560" lon="-0.0362470">
        <ele>1082.8</ele>
        <time>2020-07-27T09:21:19Z</time>
      </trkpt>
      <trkpt lat="42.8916180" lon="-0.0362170">
        <ele>1081.2</ele>
        <time>2020-07-27T09:21:20Z</time>
      </trkpt>
      <trkpt lat="42.8914750" lon="-0.0361960">
        <ele>1080.0</ele>
        <time>2020-07-27T09:21:21Z</time>
      </trkpt>
      <trkpt lat="42.8913260" lon="-0.0361870">
        <ele>1078.6</ele>
        <time>2020-07-27T09:21:22Z</time>
      </trkpt>
      <trkpt lat="42.8911760" lon="-0.0361890">
        <ele>1077.2</ele>
        <time>2020-07-27T09:21:23Z</time>
      </trkpt>
      <trkpt lat="42.8910210" lon="-0.0361940">
        <ele>1075.8</ele>
        <time>2020-07-27T09:21:24Z</time>
      </trkpt>
      <trkpt lat="42.8908630" lon="-0.0361970">
        <ele>1074.8</ele>
        <time>2020-07-27T09:21:25Z</time>
      </trkpt>
      <trkpt lat="42.8906990" lon="-0.0361900">
        <ele>1074.0</ele>
        <time>2020-07-27T09:21:26Z</time>
      </trkpt>
      <trkpt lat="42.8905360" lon="-0.0361760">
        <ele>1072.8</ele>
        <time>2020-07-27T09:21:27Z</time>
      </trkpt>
      <trkpt lat="42.8903760" lon="-0.0361520">
        <ele>1071.0</ele>
        <time>2020-07-27T09:21:28Z</time>
      </trkpt>
      <trkpt lat="42.8902210" lon="-0.0361220">
        <ele>1068.2</ele>
        <time>2020-07-27T09:21:29Z</time>
      </trkpt>
      <trkpt lat="42.8900710" lon="-0.0361030">
        <ele>1065.6</ele>
        <time>2020-07-27T09:21:30Z</time>
      </trkpt>
      <trkpt lat="42.8899260" lon="-0.0361010">
        <ele>1063.8</ele>
        <time>2020-07-27T09:21:31Z</time>
      </trkpt>
      <trkpt lat="42.8897830" lon="-0.0361140">
        <ele>1062.0</ele>
        <time>2020-07-27T09:21:32Z</time>
      </trkpt>
      <trkpt lat="42.8896400" lon="-0.0361420">
        <ele>1060.0</ele>
        <time>2020-07-27T09:21:33Z</time>
      </trkpt>
      <trkpt lat="42.8895030" lon="-0.0361820">
        <ele>1058.6</ele>
        <time>2020-07-27T09:21:34Z</time>
      </trkpt>
      <trkpt lat="42.8892250" lon="-0.0362740">
        <ele>1056.6</ele>
        <time>2020-07-27T09:21:36Z</time>
      </trkpt>
      <trkpt lat="42.8890770" lon="-0.0363270">
        <ele>1055.4</ele>
        <time>2020-07-27T09:21:37Z</time>
      </trkpt>
      <trkpt lat="42.8889270" lon="-0.0363840">
        <ele>1054.0</ele>
        <time>2020-07-27T09:21:38Z</time>
      </trkpt>
      <trkpt lat="42.8887810" lon="-0.0364530">
        <ele>1052.0</ele>
        <time>2020-07-27T09:21:39Z</time>
      </trkpt>
      <trkpt lat="42.8886400" lon="-0.0365180">
        <ele>1050.2</ele>
        <time>2020-07-27T09:21:40Z</time>
      </trkpt>
      <trkpt lat="42.8885040" lon="-0.0365820">
        <ele>1049.0</ele>
        <time>2020-07-27T09:21:41Z</time>
      </trkpt>
      <trkpt lat="42.8882470" lon="-0.0366440">
        <ele>1047.2</ele>
        <time>2020-07-27T09:21:43Z</time>
      </trkpt>
      <trkpt lat="42.8881210" lon="-0.0366420">
        <ele>1046.2</ele>
        <time>2020-07-27T09:21:44Z</time>
      </trkpt>
      <trkpt lat="42.8880040" lon="-0.0366170">
        <ele>1045.4</ele>
        <time>2020-07-27T09:21:45Z</time>
      </trkpt>
      <trkpt lat="42.8879090" lon="-0.0365440">
        <ele>1044.6</ele>
        <time>2020-07-27T09:21:46Z</time>
      </trkpt>
      <trkpt lat="42.8878070" lon="-0.0364500">
        <ele>1044.0</ele>
        <time>2020-07-27T09:21:47Z</time>
      </trkpt>
      <trkpt lat="42.8876010" lon="-0.0362360">
        <ele>1043.0</ele>
        <time>2020-07-27T09:21:49Z</time>
      </trkpt>
      <trkpt lat="42.8873920" lon="-0.0360260">
        <ele>1042.0</ele>
        <time>2020-07-27T09:21:51Z</time>
      </trkpt>
      <trkpt lat="42.8871780" lon="-0.0357960">
        <ele>1040.4</ele>
        <time>2020-07-27T09:21:53Z</time>
      </trkpt>
      <trkpt lat="42.8870740" lon="-0.0356620">
        <ele>1039.2</ele>
        <time>2020-07-27T09:21:54Z</time>
      </trkpt>
      <trkpt lat="42.8869660" lon="-0.0354930">
        <ele>1037.4</ele>
        <time>2020-07-27T09:21:55Z</time>
      </trkpt>
      <trkpt lat="42.8868570" lon="-0.0352990">
        <ele>1035.4</ele>
        <time>2020-07-27T09:21:56Z</time>
      </trkpt>
      <trkpt lat="42.8867580" lon="-0.0351130">
        <ele>1033.8</ele>
        <time>2020-07-27T09:21:57Z</time>
      </trkpt>
      <trkpt lat="42.8866650" lon="-0.0349200">
        <ele>1032.2</ele>
        <time>2020-07-27T09:21:58Z</time>
      </trkpt>
      <trkpt lat="42.8865760" lon="-0.0347240">
        <ele>1030.6</ele>
        <time>2020-07-27T09:21:59Z</time>
      </trkpt>
      <trkpt lat="42.8864900" lon="-0.0345240">
        <ele>1028.6</ele>
        <time>2020-07-27T09:22:00Z</time>
      </trkpt>
      <trkpt lat="42.8864030" lon="-0.0343250">
        <ele>1026.8</ele>
        <time>2020-07-27T09:22:01Z</time>
      </trkpt>
      <trkpt lat="42.8863160" lon="-0.0341340">
        <ele>1024.8</ele>
        <time>2020-07-27T09:22:02Z</time>
      </trkpt>
      <trkpt lat="42.8862340" lon="-0.0339490">
        <ele>1023.0</ele>
        <time>2020-07-27T09:22:03Z</time>
      </trkpt>
      <trkpt lat="42.8861500" lon="-0.0337740">
        <ele>1021.0</ele>
        <time>2020-07-27T09:22:04Z</time>
      </trkpt>
      <trkpt lat="42.8860630" lon="-0.0336120">
        <ele>1018.8</ele>
        <time>2020-07-27T09:22:05Z</time>
      </trkpt>
      <trkpt lat="42.8859690" lon="-0.0334690">
        <ele>1016.8</ele>
        <time>2020-07-27T09:22:06Z</time>
      </trkpt>
      <trkpt lat="42.8858670" lon="-0.0333460">
        <ele>1015.2</ele>
        <time>2020-07-27T09:22:07Z</time>
      </trkpt>
      <trkpt lat="42.8857600" lon="-0.0332350">
        <ele>1014.2</ele>
        <time>2020-07-27T09:22:08Z</time>
      </trkpt>
      <trkpt lat="42.8855340" lon="-0.0330370">
        <ele>1012.6</ele>
        <time>2020-07-27T09:22:10Z</time>
      </trkpt>
      <trkpt lat="42.8854330" lon="-0.0329550">
        <ele>1011.0</ele>
        <time>2020-07-27T09:22:11Z</time>
      </trkpt>
      <trkpt lat="42.8853520" lon="-0.0328800">
        <ele>1009.6</ele>
        <time>2020-07-27T09:22:12Z</time>
      </trkpt>
      <trkpt lat="42.8853030" lon="-0.0328080">
        <ele>1008.8</ele>
        <time>2020-07-27T09:22:13Z</time>
      </trkpt>
      <trkpt lat="42.8852760" lon="-0.0327320">
        <ele>1008.4</ele>
        <time>2020-07-27T09:22:14Z</time>
      </trkpt>
      <trkpt lat="42.8852770" lon="-0.0326640">
        <ele>1008.2</ele>
        <time>2020-07-27T09:22:15Z</time>
      </trkpt>
      <trkpt lat="42.8853080" lon="-0.0326190">
        <ele>1008.0</ele>
        <time>2020-07-27T09:22:16Z</time>
      </trkpt>
      <trkpt lat="42.8853690" lon="-0.0326210">
        <ele>1008.0</ele>
        <time>2020-07-27T09:22:17Z</time>
      </trkpt>
      <trkpt lat="42.8854400" lon="-0.0326630">
        <ele>1007.8</ele>
        <time>2020-07-27T09:22:18Z</time>
      </trkpt>
      <trkpt lat="42.8856240" lon="-0.0327760">
        <ele>1007.4</ele>
        <time>2020-07-27T09:22:20Z</time>
      </trkpt>
      <trkpt lat="42.8857230" lon="-0.0328390">
        <ele>1007.0</ele>
        <time>2020-07-27T09:22:21Z</time>
      </trkpt>
      <trkpt lat="42.8858240" lon="-0.0328970">
        <ele>1006.0</ele>
        <time>2020-07-27T09:22:22Z</time>
      </trkpt>
      <trkpt lat="42.8859290" lon="-0.0329580">
        <ele>1004.6</ele>
        <time>2020-07-27T09:22:23Z</time>
      </trkpt>
      <trkpt lat="42.8860330" lon="-0.0330240">
        <ele>1003.0</ele>
        <time>2020-07-27T09:22:24Z</time>
      </trkpt>
      <trkpt lat="42.8861490" lon="-0.0330930">
        <ele>1001.6</ele>
        <time>2020-07-27T09:22:25Z</time>
      </trkpt>
      <trkpt lat="42.8862660" lon="-0.0331660">
        <ele>1000.0</ele>
        <time>2020-07-27T09:22:26Z</time>
      </trkpt>
      <trkpt lat="42.8863890" lon="-0.0332470">
        <ele>998.6</ele>
        <time>2020-07-27T09:22:27Z</time>
      </trkpt>
      <trkpt lat="42.8865200" lon="-0.0333280">
        <ele>997.2</ele>
        <time>2020-07-27T09:22:28Z</time>
      </trkpt>
      <trkpt lat="42.8866570" lon="-0.0334000">
        <ele>995.8</ele>
        <time>2020-07-27T09:22:29Z</time>
      </trkpt>
      <trkpt lat="42.8867960" lon="-0.0334610">
        <ele>993.6</ele>
        <time>2020-07-27T09:22:30Z</time>
      </trkpt>
      <trkpt lat="42.8869330" lon="-0.0335110">
        <ele>991.2</ele>
        <time>2020-07-27T09:22:31Z</time>
      </trkpt>
      <trkpt lat="42.8870600" lon="-0.0335670">
        <ele>989.4</ele>
        <time>2020-07-27T09:22:32Z</time>
      </trkpt>
      <trkpt lat="42.8871900" lon="-0.0336270">
        <ele>988.2</ele>
        <time>2020-07-27T09:22:33Z</time>
      </trkpt>
      <trkpt lat="42.8873130" lon="-0.0336940">
        <ele>987.2</ele>
        <time>2020-07-27T09:22:34Z</time>
      </trkpt>
      <trkpt lat="42.8874190" lon="-0.0337810">
        <ele>986.2</ele>
        <time>2020-07-27T09:22:35Z</time>
      </trkpt>
      <trkpt lat="42.8875190" lon="-0.0338640">
        <ele>985.2</ele>
        <time>2020-07-27T09:22:36Z</time>
      </trkpt>
      <trkpt lat="42.8876740" lon="-0.0340260">
        <ele>983.8</ele>
        <time>2020-07-27T09:22:38Z</time>
      </trkpt>
      <trkpt lat="42.8877390" lon="-0.0340620">
        <ele>983.2</ele>
        <time>2020-07-27T09:22:39Z</time>
      </trkpt>
      <trkpt lat="42.8878070" lon="-0.0339790">
        <ele>982.6</ele>
        <time>2020-07-27T09:22:41Z</time>
      </trkpt>
      <trkpt lat="42.8877450" lon="-0.0338350">
        <ele>982.0</ele>
        <time>2020-07-27T09:22:43Z</time>
      </trkpt>
      <trkpt lat="42.8876160" lon="-0.0336980">
        <ele>980.8</ele>
        <time>2020-07-27T09:22:45Z</time>
      </trkpt>
      <trkpt lat="42.8875360" lon="-0.0336120">
        <ele>979.6</ele>
        <time>2020-07-27T09:22:46Z</time>
      </trkpt>
      <trkpt lat="42.8873790" lon="-0.0334050">
        <ele>978.0</ele>
        <time>2020-07-27T09:22:48Z</time>
      </trkpt>
      <trkpt lat="42.8872230" lon="-0.0331550">
        <ele>976.2</ele>
        <time>2020-07-27T09:22:50Z</time>
      </trkpt>
      <trkpt lat="42.8871420" lon="-0.0330380">
        <ele>975.2</ele>
        <time>2020-07-27T09:22:51Z</time>
      </trkpt>
      <trkpt lat="42.8870500" lon="-0.0329380">
        <ele>974.2</ele>
        <time>2020-07-27T09:22:52Z</time>
      </trkpt>
      <trkpt lat="42.8869530" lon="-0.0328440">
        <ele>973.6</ele>
        <time>2020-07-27T09:22:53Z</time>
      </trkpt>
      <trkpt lat="42.8868460" lon="-0.0327640">
        <ele>972.8</ele>
        <time>2020-07-27T09:22:54Z</time>
      </trkpt>
      <trkpt lat="42.8867350" lon="-0.0327000">
        <ele>971.8</ele>
        <time>2020-07-27T09:22:55Z</time>
      </trkpt>
      <trkpt lat="42.8866240" lon="-0.0326460">
        <ele>970.8</ele>
        <time>2020-07-27T09:22:56Z</time>
      </trkpt>
      <trkpt lat="42.8865170" lon="-0.0326040">
        <ele>969.8</ele>
        <time>2020-07-27T09:22:57Z</time>
      </trkpt>
      <trkpt lat="42.8864180" lon="-0.0325750">
        <ele>968.8</ele>
        <time>2020-07-27T09:22:58Z</time>
      </trkpt>
      <trkpt lat="42.8863270" lon="-0.0325470">
        <ele>967.6</ele>
        <time>2020-07-27T09:22:59Z</time>
      </trkpt>
      <trkpt lat="42.8862530" lon="-0.0325020">
        <ele>967.0</ele>
        <time>2020-07-27T09:23:00Z</time>
      </trkpt>
      <trkpt lat="42.8862500" lon="-0.0324430">
        <ele>966.4</ele>
        <time>2020-07-27T09:23:01Z</time>
      </trkpt>
      <trkpt lat="42.8862760" lon="-0.0323380">
        <ele>965.6</ele>
        <time>2020-07-27T09:23:03Z</time>
      </trkpt>
      <trkpt lat="42.8863340" lon="-0.0323240">
        <ele>965.2</ele>
        <time>2020-07-27T09:23:04Z</time>
      </trkpt>
      <trkpt lat="42.8864090" lon="-0.0323380">
        <ele>964.8</ele>
        <time>2020-07-27T09:23:05Z</time>
      </trkpt>
      <trkpt lat="42.8865810" lon="-0.0323830">
        <ele>963.6</ele>
        <time>2020-07-27T09:23:07Z</time>
      </trkpt>
      <trkpt lat="42.8866790" lon="-0.0323880">
        <ele>962.8</ele>
        <time>2020-07-27T09:23:08Z</time>
      </trkpt>
      <trkpt lat="42.8867850" lon="-0.0323780">
        <ele>961.8</ele>
        <time>2020-07-27T09:23:09Z</time>
      </trkpt>
      <trkpt lat="42.8868910" lon="-0.0323690">
        <ele>960.8</ele>
        <time>2020-07-27T09:23:10Z</time>
      </trkpt>
      <trkpt lat="42.8869980" lon="-0.0323640">
        <ele>959.8</ele>
        <time>2020-07-27T09:23:11Z</time>
      </trkpt>
      <trkpt lat="42.8871020" lon="-0.0323710">
        <ele>959.0</ele>
        <time>2020-07-27T09:23:12Z</time>
      </trkpt>
      <trkpt lat="42.8872130" lon="-0.0324090">
        <ele>957.8</ele>
        <time>2020-07-27T09:23:13Z</time>
      </trkpt>
      <trkpt lat="42.8873340" lon="-0.0324620">
        <ele>956.6</ele>
        <time>2020-07-27T09:23:14Z</time>
      </trkpt>
      <trkpt lat="42.8874400" lon="-0.0325400">
        <ele>955.4</ele>
        <time>2020-07-27T09:23:15Z</time>
      </trkpt>
      <trkpt lat="42.8875520" lon="-0.0326100">
        <ele>954.0</ele>
        <time>2020-07-27T09:23:16Z</time>
      </trkpt>
      <trkpt lat="42.8876530" lon="-0.0326680">
        <ele>952.6</ele>
        <time>2020-07-27T09:23:17Z</time>
      </trkpt>
      <trkpt lat="42.8877530" lon="-0.0326930">
        <ele>951.4</ele>
        <time>2020-07-27T09:23:18Z</time>
      </trkpt>
      <trkpt lat="42.8878480" lon="-0.0326750">
        <ele>950.4</ele>
        <time>2020-07-27T09:23:19Z</time>
      </trkpt>
      <trkpt lat="42.8879340" lon="-0.0326110">
        <ele>949.4</ele>
        <time>2020-07-27T09:23:20Z</time>
      </trkpt>
      <trkpt lat="42.8880070" lon="-0.0325240">
        <ele>948.6</ele>
        <time>2020-07-27T09:23:21Z</time>
      </trkpt>
      <trkpt lat="42.8880770" lon="-0.0324380">
        <ele>947.6</ele>
        <time>2020-07-27T09:23:22Z</time>
      </trkpt>
      <trkpt lat="42.8881570" lon="-0.0323730">
        <ele>946.6</ele>
        <time>2020-07-27T09:23:23Z</time>
      </trkpt>
      <trkpt lat="42.8882450" lon="-0.0323240">
        <ele>945.8</ele>
        <time>2020-07-27T09:23:24Z</time>
      </trkpt>
      <trkpt lat="42.8883230" lon="-0.0322690">
        <ele>945.0</ele>
        <time>2020-07-27T09:23:25Z</time>
      </trkpt>
      <trkpt lat="42.8883770" lon="-0.0321920">
        <ele>944.4</ele>
        <time>2020-07-27T09:23:26Z</time>
      </trkpt>
      <trkpt lat="42.8883950" lon="-0.0320960">
        <ele>943.6</ele>
        <time>2020-07-27T09:23:27Z</time>
      </trkpt>
      <trkpt lat="42.8883830" lon="-0.0320000">
        <ele>942.8</ele>
        <time>2020-07-27T09:23:28Z</time>
      </trkpt>
      <trkpt lat="42.8883260" lon="-0.0319450">
        <ele>942.2</ele>
        <time>2020-07-27T09:23:29Z</time>
      </trkpt>
      <trkpt lat="42.8882580" lon="-0.0319240">
        <ele>941.2</ele>
        <time>2020-07-27T09:23:30Z</time>
      </trkpt>
      <trkpt lat="42.8881900" lon="-0.0319360">
        <ele>940.2</ele>
        <time>2020-07-27T09:23:31Z</time>
      </trkpt>
      <trkpt lat="42.8880400" lon="-0.0319970">
        <ele>938.8</ele>
        <time>2020-07-27T09:23:33Z</time>
      </trkpt>
      <trkpt lat="42.8878630" lon="-0.0320550">
        <ele>937.8</ele>
        <time>2020-07-27T09:23:35Z</time>
      </trkpt>
      <trkpt lat="42.8876680" lon="-0.0320300">
        <ele>935.8</ele>
        <time>2020-07-27T09:23:37Z</time>
      </trkpt>
      <trkpt lat="42.8875800" lon="-0.0319660">
        <ele>934.4</ele>
        <time>2020-07-27T09:23:38Z</time>
      </trkpt>
      <trkpt lat="42.8875060" lon="-0.0318580">
        <ele>933.0</ele>
        <time>2020-07-27T09:23:39Z</time>
      </trkpt>
      <trkpt lat="42.8874300" lon="-0.0317400">
        <ele>932.0</ele>
        <time>2020-07-27T09:23:40Z</time>
      </trkpt>
      <trkpt lat="42.8873470" lon="-0.0316270">
        <ele>931.0</ele>
        <time>2020-07-27T09:23:41Z</time>
      </trkpt>
      <trkpt lat="42.8872550" lon="-0.0315180">
        <ele>930.2</ele>
        <time>2020-07-27T09:23:42Z</time>
      </trkpt>
      <trkpt lat="42.8871510" lon="-0.0314180">
        <ele>929.6</ele>
        <time>2020-07-27T09:23:43Z</time>
      </trkpt>
      <trkpt lat="42.8870410" lon="-0.0313220">
        <ele>928.8</ele>
        <time>2020-07-27T09:23:44Z</time>
      </trkpt>
      <trkpt lat="42.8869250" lon="-0.0312310">
        <ele>927.2</ele>
        <time>2020-07-27T09:23:45Z</time>
      </trkpt>
      <trkpt lat="42.8868110" lon="-0.0311410">
        <ele>925.4</ele>
        <time>2020-07-27T09:23:46Z</time>
      </trkpt>
      <trkpt lat="42.8867020" lon="-0.0310470">
        <ele>923.8</ele>
        <time>2020-07-27T09:23:47Z</time>
      </trkpt>
      <trkpt lat="42.8865090" lon="-0.0308860">
        <ele>922.2</ele>
        <time>2020-07-27T09:23:49Z</time>
      </trkpt>
      <trkpt lat="42.8864120" lon="-0.0308280">
        <ele>921.4</ele>
        <time>2020-07-27T09:23:50Z</time>
      </trkpt>
      <trkpt lat="42.8863030" lon="-0.0307930">
        <ele>920.4</ele>
        <time>2020-07-27T09:23:51Z</time>
      </trkpt>
      <trkpt lat="42.8861860" lon="-0.0307690">
        <ele>919.0</ele>
        <time>2020-07-27T09:23:52Z</time>
      </trkpt>
      <trkpt lat="42.8860680" lon="-0.0307520">
        <ele>917.6</ele>
        <time>2020-07-27T09:23:53Z</time>
      </trkpt>
      <trkpt lat="42.8858690" lon="-0.0307190">
        <ele>915.8</ele>
        <time>2020-07-27T09:23:55Z</time>
      </trkpt>
      <trkpt lat="42.8857930" lon="-0.0306990">
        <ele>915.0</ele>
        <time>2020-07-27T09:23:56Z</time>
      </trkpt>
      <trkpt lat="42.8857330" lon="-0.0306670">
        <ele>914.6</ele>
        <time>2020-07-27T09:23:57Z</time>
      </trkpt>
      <trkpt lat="42.8856970" lon="-0.0305600">
        <ele>913.8</ele>
        <time>2020-07-27T09:23:59Z</time>
      </trkpt>
      <trkpt lat="42.8857730" lon="-0.0305050">
        <ele>913.6</ele>
        <time>2020-07-27T09:24:01Z</time>
      </trkpt>
      <trkpt lat="42.8858500" lon="-0.0305410">
        <ele>913.2</ele>
        <time>2020-07-27T09:24:02Z</time>
      </trkpt>
      <trkpt lat="42.8859290" lon="-0.0305700">
        <ele>912.6</ele>
        <time>2020-07-27T09:24:03Z</time>
      </trkpt>
      <trkpt lat="42.8860070" lon="-0.0305880">
        <ele>911.8</ele>
        <time>2020-07-27T09:24:04Z</time>
      </trkpt>
      <trkpt lat="42.8860900" lon="-0.0306010">
        <ele>911.0</ele>
        <time>2020-07-27T09:24:05Z</time>
      </trkpt>
      <trkpt lat="42.8861830" lon="-0.0305960">
        <ele>909.8</ele>
        <time>2020-07-27T09:24:06Z</time>
      </trkpt>
      <trkpt lat="42.8862760" lon="-0.0305900">
        <ele>908.8</ele>
        <time>2020-07-27T09:24:07Z</time>
      </trkpt>
      <trkpt lat="42.8863730" lon="-0.0305900">
        <ele>908.0</ele>
        <time>2020-07-27T09:24:08Z</time>
      </trkpt>
      <trkpt lat="42.8864690" lon="-0.0305970">
        <ele>907.4</ele>
        <time>2020-07-27T09:24:09Z</time>
      </trkpt>
      <trkpt lat="42.8866450" lon="-0.0306250">
        <ele>906.0</ele>
        <time>2020-07-27T09:24:11Z</time>
      </trkpt>
      <trkpt lat="42.8868100" lon="-0.0306240">
        <ele>905.0</ele>
        <time>2020-07-27T09:24:13Z</time>
      </trkpt>
      <trkpt lat="42.8868700" lon="-0.0305770">
        <ele>904.6</ele>
        <time>2020-07-27T09:24:14Z</time>
      </trkpt>
      <trkpt lat="42.8869020" lon="-0.0304920">
        <ele>904.2</ele>
        <time>2020-07-27T09:24:15Z</time>
      </trkpt>
      <trkpt lat="42.8868940" lon="-0.0304100">
        <ele>903.6</ele>
        <time>2020-07-27T09:24:16Z</time>
      </trkpt>
      <trkpt lat="42.8867880" lon="-0.0302960">
        <ele>902.6</ele>
        <time>2020-07-27T09:24:18Z</time>
      </trkpt>
      <trkpt lat="42.8866260" lon="-0.0302760">
        <ele>901.4</ele>
        <time>2020-07-27T09:24:20Z</time>
      </trkpt>
      <trkpt lat="42.8865320" lon="-0.0302800">
        <ele>900.6</ele>
        <time>2020-07-27T09:24:21Z</time>
      </trkpt>
      <trkpt lat="42.8864380" lon="-0.0302770">
        <ele>899.6</ele>
        <time>2020-07-27T09:24:22Z</time>
      </trkpt>
      <trkpt lat="42.8862420" lon="-0.0302550">
        <ele>898.0</ele>
        <time>2020-07-27T09:24:24Z</time>
      </trkpt>
      <trkpt lat="42.8861370" lon="-0.0302280">
        <ele>897.2</ele>
        <time>2020-07-27T09:24:25Z</time>
      </trkpt>
      <trkpt lat="42.8860290" lon="-0.0301850">
        <ele>895.6</ele>
        <time>2020-07-27T09:24:26Z</time>
      </trkpt>
      <trkpt lat="42.8859210" lon="-0.0301190">
        <ele>894.2</ele>
        <time>2020-07-27T09:24:27Z</time>
      </trkpt>
      <trkpt lat="42.8858240" lon="-0.0300250">
        <ele>893.0</ele>
        <time>2020-07-27T09:24:28Z</time>
      </trkpt>
      <trkpt lat="42.8857240" lon="-0.0299270">
        <ele>892.0</ele>
        <time>2020-07-27T09:24:29Z</time>
      </trkpt>
      <trkpt lat="42.8856260" lon="-0.0298170">
        <ele>890.8</ele>
        <time>2020-07-27T09:24:30Z</time>
      </trkpt>
      <trkpt lat="42.8855290" lon="-0.0296980">
        <ele>889.6</ele>
        <time>2020-07-27T09:24:31Z</time>
      </trkpt>
      <trkpt lat="42.8854310" lon="-0.0295660">
        <ele>888.6</ele>
        <time>2020-07-27T09:24:32Z</time>
      </trkpt>
      <trkpt lat="42.8853470" lon="-0.0294200">
        <ele>887.6</ele>
        <time>2020-07-27T09:24:33Z</time>
      </trkpt>
      <trkpt lat="42.8852560" lon="-0.0292780">
        <ele>886.6</ele>
        <time>2020-07-27T09:24:34Z</time>
      </trkpt>
      <trkpt lat="42.8851540" lon="-0.0291450">
        <ele>885.6</ele>
        <time>2020-07-27T09:24:35Z</time>
      </trkpt>
      <trkpt lat="42.8850400" lon="-0.0290200">
        <ele>884.6</ele>
        <time>2020-07-27T09:24:36Z</time>
      </trkpt>
      <trkpt lat="42.8849160" lon="-0.0288950">
        <ele>883.4</ele>
        <time>2020-07-27T09:24:37Z</time>
      </trkpt>
      <trkpt lat="42.8847960" lon="-0.0287710">
        <ele>882.0</ele>
        <time>2020-07-27T09:24:38Z</time>
      </trkpt>
      <trkpt lat="42.8846740" lon="-0.0286400">
        <ele>880.4</ele>
        <time>2020-07-27T09:24:39Z</time>
      </trkpt>
      <trkpt lat="42.8845620" lon="-0.0284990">
        <ele>879.0</ele>
        <time>2020-07-27T09:24:40Z</time>
      </trkpt>
      <trkpt lat="42.8844570" lon="-0.0283540">
        <ele>877.8</ele>
        <time>2020-07-27T09:24:41Z</time>
      </trkpt>
      <trkpt lat="42.8843590" lon="-0.0282080">
        <ele>876.8</ele>
        <time>2020-07-27T09:24:42Z</time>
      </trkpt>
      <trkpt lat="42.8842710" lon="-0.0280620">
        <ele>875.6</ele>
        <time>2020-07-27T09:24:43Z</time>
      </trkpt>
      <trkpt lat="42.8841910" lon="-0.0279170">
        <ele>874.4</ele>
        <time>2020-07-27T09:24:44Z</time>
      </trkpt>
      <trkpt lat="42.8841210" lon="-0.0277860">
        <ele>873.2</ele>
        <time>2020-07-27T09:24:45Z</time>
      </trkpt>
      <trkpt lat="42.8840470" lon="-0.0276730">
        <ele>872.2</ele>
        <time>2020-07-27T09:24:46Z</time>
      </trkpt>
      <trkpt lat="42.8839740" lon="-0.0275780">
        <ele>871.6</ele>
        <time>2020-07-27T09:24:47Z</time>
      </trkpt>
      <trkpt lat="42.8837790" lon="-0.0273140">
        <ele>870.2</ele>
        <time>2020-07-27T09:24:50Z</time>
      </trkpt>
      <trkpt lat="42.8837430" lon="-0.0272060">
        <ele>869.4</ele>
        <time>2020-07-27T09:24:51Z</time>
      </trkpt>
      <trkpt lat="42.8837370" lon="-0.0270760">
        <ele>869.0</ele>
        <time>2020-07-27T09:24:52Z</time>
      </trkpt>
      <trkpt lat="42.8836750" lon="-0.0268140">
        <ele>867.6</ele>
        <time>2020-07-27T09:24:54Z</time>
      </trkpt>
      <trkpt lat="42.8836190" lon="-0.0267000">
        <ele>866.6</ele>
        <time>2020-07-27T09:24:55Z</time>
      </trkpt>
      <trkpt lat="42.8835500" lon="-0.0265940">
        <ele>865.6</ele>
        <time>2020-07-27T09:24:56Z</time>
      </trkpt>
      <trkpt lat="42.8834760" lon="-0.0264820">
        <ele>864.8</ele>
        <time>2020-07-27T09:24:57Z</time>
      </trkpt>
      <trkpt lat="42.8834000" lon="-0.0263650">
        <ele>863.6</ele>
        <time>2020-07-27T09:24:58Z</time>
      </trkpt>
      <trkpt lat="42.8833230" lon="-0.0262420">
        <ele>862.6</ele>
        <time>2020-07-27T09:24:59Z</time>
      </trkpt>
      <trkpt lat="42.8832420" lon="-0.0261250">
        <ele>861.4</ele>
        <time>2020-07-27T09:25:00Z</time>
      </trkpt>
      <trkpt lat="42.8830740" lon="-0.0258890">
        <ele>859.8</ele>
        <time>2020-07-27T09:25:02Z</time>
      </trkpt>
      <trkpt lat="42.8828980" lon="-0.0256510">
        <ele>858.2</ele>
        <time>2020-07-27T09:25:04Z</time>
      </trkpt>
      <trkpt lat="42.8827190" lon="-0.0254010">
        <ele>856.4</ele>
        <time>2020-07-27T09:25:06Z</time>
      </trkpt>
      <trkpt lat="42.8826300" lon="-0.0252720">
        <ele>855.6</ele>
        <time>2020-07-27T09:25:07Z</time>
      </trkpt>
      <trkpt lat="42.8825430" lon="-0.0251420">
        <ele>855.0</ele>
        <time>2020-07-27T09:25:08Z</time>
      </trkpt>
      <trkpt lat="42.8824640" lon="-0.0250050">
        <ele>854.4</ele>
        <time>2020-07-27T09:25:09Z</time>
      </trkpt>
      <trkpt lat="42.8823950" lon="-0.0248590">
        <ele>853.6</ele>
        <time>2020-07-27T09:25:10Z</time>
      </trkpt>
      <trkpt lat="42.8823280" lon="-0.0247120">
        <ele>852.2</ele>
        <time>2020-07-27T09:25:11Z</time>
      </trkpt>
      <trkpt lat="42.8822500" lon="-0.0245750">
        <ele>851.0</ele>
        <time>2020-07-27T09:25:12Z</time>
      </trkpt>
      <trkpt lat="42.8821610" lon="-0.0244520">
        <ele>849.8</ele>
        <time>2020-07-27T09:25:13Z</time>
      </trkpt>
      <trkpt lat="42.8820580" lon="-0.0243410">
        <ele>849.2</ele>
        <time>2020-07-27T09:25:14Z</time>
      </trkpt>
      <trkpt lat="42.8819510" lon="-0.0242350">
        <ele>848.2</ele>
        <time>2020-07-27T09:25:15Z</time>
      </trkpt>
      <trkpt lat="42.8818470" lon="-0.0241310">
        <ele>846.8</ele>
        <time>2020-07-27T09:25:16Z</time>
      </trkpt>
      <trkpt lat="42.8817490" lon="-0.0240350">
        <ele>845.0</ele>
        <time>2020-07-27T09:25:17Z</time>
      </trkpt>
      <trkpt lat="42.8816580" lon="-0.0239610">
        <ele>843.6</ele>
        <time>2020-07-27T09:25:18Z</time>
      </trkpt>
      <trkpt lat="42.8815720" lon="-0.0239200">
        <ele>842.8</ele>
        <time>2020-07-27T09:25:19Z</time>
      </trkpt>
      <trkpt lat="42.8814950" lon="-0.0238980">
        <ele>842.4</ele>
        <time>2020-07-27T09:25:20Z</time>
      </trkpt>
      <trkpt lat="42.8813920" lon="-0.0238450">
        <ele>841.8</ele>
        <time>2020-07-27T09:25:22Z</time>
      </trkpt>
      <trkpt lat="42.8813730" lon="-0.0238040">
        <ele>841.6</ele>
        <time>2020-07-27T09:25:23Z</time>
      </trkpt>
      <trkpt lat="42.8813810" lon="-0.0237500">
        <ele>841.4</ele>
        <time>2020-07-27T09:25:24Z</time>
      </trkpt>
      <trkpt lat="42.8814840" lon="-0.0237060">
        <ele>840.4</ele>
        <time>2020-07-27T09:25:26Z</time>
      </trkpt>
      <trkpt lat="42.8815570" lon="-0.0237120">
        <ele>839.6</ele>
        <time>2020-07-27T09:25:27Z</time>
      </trkpt>
      <trkpt lat="42.8817300" lon="-0.0237600">
        <ele>838.2</ele>
        <time>2020-07-27T09:25:29Z</time>
      </trkpt>
      <trkpt lat="42.8819020" lon="-0.0238640">
        <ele>836.8</ele>
        <time>2020-07-27T09:25:31Z</time>
      </trkpt>
      <trkpt lat="42.8819610" lon="-0.0239240">
        <ele>836.0</ele>
        <time>2020-07-27T09:25:32Z</time>
      </trkpt>
      <trkpt lat="42.8820150" lon="-0.0239540">
        <ele>835.6</ele>
        <time>2020-07-27T09:25:33Z</time>
      </trkpt>
      <trkpt lat="42.8820640" lon="-0.0239390">
        <ele>835.0</ele>
        <time>2020-07-27T09:25:34Z</time>
      </trkpt>
      <trkpt lat="42.8820960" lon="-0.0238830">
        <ele>834.8</ele>
        <time>2020-07-27T09:25:35Z</time>
      </trkpt>
      <trkpt lat="42.8820930" lon="-0.0238090">
        <ele>834.4</ele>
        <time>2020-07-27T09:25:36Z</time>
      </trkpt>
      <trkpt lat="42.8820650" lon="-0.0237310">
        <ele>833.8</ele>
        <time>2020-07-27T09:25:37Z</time>
      </trkpt>
      <trkpt lat="42.8820210" lon="-0.0236470">
        <ele>833.2</ele>
        <time>2020-07-27T09:25:38Z</time>
      </trkpt>
      <trkpt lat="42.8819660" lon="-0.0235610">
        <ele>832.6</ele>
        <time>2020-07-27T09:25:39Z</time>
      </trkpt>
      <trkpt lat="42.8819010" lon="-0.0234800">
        <ele>831.6</ele>
        <time>2020-07-27T09:25:40Z</time>
      </trkpt>
      <trkpt lat="42.8818170" lon="-0.0234200">
        <ele>830.6</ele>
        <time>2020-07-27T09:25:41Z</time>
      </trkpt>
      <trkpt lat="42.8817210" lon="-0.0233710">
        <ele>829.4</ele>
        <time>2020-07-27T09:25:42Z</time>
      </trkpt>
      <trkpt lat="42.8816230" lon="-0.0233220">
        <ele>828.2</ele>
        <time>2020-07-27T09:25:43Z</time>
      </trkpt>
      <trkpt lat="42.8815180" lon="-0.0232740">
        <ele>827.2</ele>
        <time>2020-07-27T09:25:44Z</time>
      </trkpt>
      <trkpt lat="42.8814070" lon="-0.0232270">
        <ele>826.0</ele>
        <time>2020-07-27T09:25:45Z</time>
      </trkpt>
      <trkpt lat="42.8812920" lon="-0.0231790">
        <ele>824.8</ele>
        <time>2020-07-27T09:25:46Z</time>
      </trkpt>
      <trkpt lat="42.8811800" lon="-0.0231340">
        <ele>823.0</ele>
        <time>2020-07-27T09:25:47Z</time>
      </trkpt>
      <trkpt lat="42.8810740" lon="-0.0230980">
        <ele>821.6</ele>
        <time>2020-07-27T09:25:48Z</time>
      </trkpt>
      <trkpt lat="42.8808800" lon="-0.0230440">
        <ele>820.0</ele>
        <time>2020-07-27T09:25:50Z</time>
      </trkpt>
      <trkpt lat="42.8807930" lon="-0.0230320">
        <ele>819.2</ele>
        <time>2020-07-27T09:25:51Z</time>
      </trkpt>
      <trkpt lat="42.8807160" lon="-0.0230230">
        <ele>818.4</ele>
        <time>2020-07-27T09:25:52Z</time>
      </trkpt>
      <trkpt lat="42.8806540" lon="-0.0230000">
        <ele>817.6</ele>
        <time>2020-07-27T09:25:53Z</time>
      </trkpt>
      <trkpt lat="42.8806150" lon="-0.0229560">
        <ele>816.8</ele>
        <time>2020-07-27T09:25:54Z</time>
      </trkpt>
      <trkpt lat="42.8806030" lon="-0.0228930">
        <ele>816.2</ele>
        <time>2020-07-27T09:25:55Z</time>
      </trkpt>
      <trkpt lat="42.8806230" lon="-0.0228380">
        <ele>816.0</ele>
        <time>2020-07-27T09:25:56Z</time>
      </trkpt>
      <trkpt lat="42.8806720" lon="-0.0228050">
        <ele>815.6</ele>
        <time>2020-07-27T09:25:57Z</time>
      </trkpt>
      <trkpt lat="42.8807320" lon="-0.0227840">
        <ele>815.4</ele>
        <time>2020-07-27T09:25:58Z</time>
      </trkpt>
      <trkpt lat="42.8808040" lon="-0.0227720">
        <ele>815.0</ele>
        <time>2020-07-27T09:25:59Z</time>
      </trkpt>
      <trkpt lat="42.8808840" lon="-0.0227610">
        <ele>814.6</ele>
        <time>2020-07-27T09:26:00Z</time>
      </trkpt>
      <trkpt lat="42.8810530" lon="-0.0227420">
        <ele>813.6</ele>
        <time>2020-07-27T09:26:02Z</time>
      </trkpt>
      <trkpt lat="42.8811380" lon="-0.0227420">
        <ele>813.0</ele>
        <time>2020-07-27T09:26:03Z</time>
      </trkpt>
      <trkpt lat="42.8813170" lon="-0.0227450">
        <ele>811.2</ele>
        <time>2020-07-27T09:26:05Z</time>
      </trkpt>
      <trkpt lat="42.8815030" lon="-0.0227490">
        <ele>809.2</ele>
        <time>2020-07-27T09:26:07Z</time>
      </trkpt>
      <trkpt lat="42.8815920" lon="-0.0227520">
        <ele>808.2</ele>
        <time>2020-07-27T09:26:08Z</time>
      </trkpt>
      <trkpt lat="42.8816800" lon="-0.0227500">
        <ele>807.6</ele>
        <time>2020-07-27T09:26:09Z</time>
      </trkpt>
      <trkpt lat="42.8819130" lon="-0.0227430">
        <ele>806.8</ele>
        <time>2020-07-27T09:26:12Z</time>
      </trkpt>
      <trkpt lat="42.8819760" lon="-0.0227330">
        <ele>806.4</ele>
        <time>2020-07-27T09:26:13Z</time>
      </trkpt>
      <trkpt lat="42.8820740" lon="-0.0226450">
        <ele>805.6</ele>
        <time>2020-07-27T09:26:15Z</time>
      </trkpt>
      <trkpt lat="42.8821000" lon="-0.0225740">
        <ele>805.2</ele>
        <time>2020-07-27T09:26:16Z</time>
      </trkpt>
      <trkpt lat="42.8821010" lon="-0.0225010">
        <ele>804.6</ele>
        <time>2020-07-27T09:26:17Z</time>
      </trkpt>
      <trkpt lat="42.8820970" lon="-0.0224260">
        <ele>804.2</ele>
        <time>2020-07-27T09:26:18Z</time>
      </trkpt>
      <trkpt lat="42.8820900" lon="-0.0223480">
        <ele>803.8</ele>
        <time>2020-07-27T09:26:19Z</time>
      </trkpt>
      <trkpt lat="42.8820420" lon="-0.0220060">
        <ele>802.8</ele>
        <time>2020-07-27T09:26:23Z</time>
      </trkpt>
      <trkpt lat="42.8820000" lon="-0.0218010">
        <ele>801.6</ele>
        <time>2020-07-27T09:26:25Z</time>
      </trkpt>
      <trkpt lat="42.8819370" lon="-0.0215870">
        <ele>799.8</ele>
        <time>2020-07-27T09:26:27Z</time>
      </trkpt>
      <trkpt lat="42.8818980" lon="-0.0214960">
        <ele>799.0</ele>
        <time>2020-07-27T09:26:28Z</time>
      </trkpt>
      <trkpt lat="42.8818510" lon="-0.0214250">
        <ele>798.4</ele>
        <time>2020-07-27T09:26:29Z</time>
      </trkpt>
      <trkpt lat="42.8817970" lon="-0.0213770">
        <ele>797.8</ele>
        <time>2020-07-27T09:26:30Z</time>
      </trkpt>
      <trkpt lat="42.8817360" lon="-0.0213560">
        <ele>797.0</ele>
        <time>2020-07-27T09:26:31Z</time>
      </trkpt>
      <trkpt lat="42.8816670" lon="-0.0213730">
        <ele>796.2</ele>
        <time>2020-07-27T09:26:32Z</time>
      </trkpt>
      <trkpt lat="42.8815970" lon="-0.0214170">
        <ele>795.2</ele>
        <time>2020-07-27T09:26:33Z</time>
      </trkpt>
      <trkpt lat="42.8814510" lon="-0.0215460">
        <ele>793.8</ele>
        <time>2020-07-27T09:26:35Z</time>
      </trkpt>
      <trkpt lat="42.8812810" lon="-0.0216960">
        <ele>792.4</ele>
        <time>2020-07-27T09:26:37Z</time>
      </trkpt>
      <trkpt lat="42.8811880" lon="-0.0217660">
        <ele>791.4</ele>
        <time>2020-07-27T09:26:38Z</time>
      </trkpt>
      <trkpt lat="42.8810890" lon="-0.0218210">
        <ele>790.4</ele>
        <time>2020-07-27T09:26:39Z</time>
      </trkpt>
      <trkpt lat="42.8809020" lon="-0.0218900">
        <ele>788.8</ele>
        <time>2020-07-27T09:26:41Z</time>
      </trkpt>
      <trkpt lat="42.8808180" lon="-0.0219200">
        <ele>788.0</ele>
        <time>2020-07-27T09:26:42Z</time>
      </trkpt>
      <trkpt lat="42.8807420" lon="-0.0219750">
        <ele>787.2</ele>
        <time>2020-07-27T09:26:43Z</time>
      </trkpt>
      <trkpt lat="42.8806400" lon="-0.0221460">
        <ele>785.6</ele>
        <time>2020-07-27T09:26:45Z</time>
      </trkpt>
      <trkpt lat="42.8805540" lon="-0.0223190">
        <ele>784.2</ele>
        <time>2020-07-27T09:26:47Z</time>
      </trkpt>
      <trkpt lat="42.8804880" lon="-0.0223670">
        <ele>783.6</ele>
        <time>2020-07-27T09:26:48Z</time>
      </trkpt>
      <trkpt lat="42.8804150" lon="-0.0223720">
        <ele>781.6</ele>
        <time>2020-07-27T09:26:49Z</time>
      </trkpt>
      <trkpt lat="42.8803420" lon="-0.0223340">
        <ele>780.2</ele>
        <time>2020-07-27T09:26:50Z</time>
      </trkpt>
      <trkpt lat="42.8802720" lon="-0.0222670">
        <ele>779.4</ele>
        <time>2020-07-27T09:26:51Z</time>
      </trkpt>
      <trkpt lat="42.8801990" lon="-0.0221840">
        <ele>778.2</ele>
        <time>2020-07-27T09:26:52Z</time>
      </trkpt>
      <trkpt lat="42.8801220" lon="-0.0221000">
        <ele>777.4</ele>
        <time>2020-07-27T09:26:53Z</time>
      </trkpt>
      <trkpt lat="42.8799490" lon="-0.0219470">
        <ele>777.4</ele>
        <time>2020-07-27T09:26:55Z</time>
      </trkpt>
      <trkpt lat="42.8798540" lon="-0.0218790">
        <ele>777.2</ele>
        <time>2020-07-27T09:26:56Z</time>
      </trkpt>
      <trkpt lat="42.8797640" lon="-0.0218070">
        <ele>777.0</ele>
        <time>2020-07-27T09:26:57Z</time>
      </trkpt>
      <trkpt lat="42.8796850" lon="-0.0217220">
        <ele>776.8</ele>
        <time>2020-07-27T09:26:58Z</time>
      </trkpt>
      <trkpt lat="42.8795670" lon="-0.0214890">
        <ele>775.8</ele>
        <time>2020-07-27T09:27:00Z</time>
      </trkpt>
      <trkpt lat="42.8794260" lon="-0.0212850">
        <ele>775.0</ele>
        <time>2020-07-27T09:27:02Z</time>
      </trkpt>
      <trkpt lat="42.8793410" lon="-0.0212030">
        <ele>774.6</ele>
        <time>2020-07-27T09:27:03Z</time>
      </trkpt>
      <trkpt lat="42.8789590" lon="-0.0209000">
        <ele>773.2</ele>
        <time>2020-07-27T09:27:07Z</time>
      </trkpt>
      <trkpt lat="42.8788570" lon="-0.0208280">
        <ele>772.4</ele>
        <time>2020-07-27T09:27:08Z</time>
      </trkpt>
      <trkpt lat="42.8787570" lon="-0.0207600">
        <ele>771.6</ele>
        <time>2020-07-27T09:27:09Z</time>
      </trkpt>
      <trkpt lat="42.8785590" lon="-0.0206180">
        <ele>770.0</ele>
        <time>2020-07-27T09:27:11Z</time>
      </trkpt>
      <trkpt lat="42.8783670" lon="-0.0204660">
        <ele>768.6</ele>
        <time>2020-07-27T09:27:13Z</time>
      </trkpt>
      <trkpt lat="42.8782700" lon="-0.0204100">
        <ele>768.0</ele>
        <time>2020-07-27T09:27:14Z</time>
      </trkpt>
      <trkpt lat="42.8781750" lon="-0.0203850">
        <ele>767.6</ele>
        <time>2020-07-27T09:27:15Z</time>
      </trkpt>
      <trkpt lat="42.8780810" lon="-0.0203910">
        <ele>767.2</ele>
        <time>2020-07-27T09:27:16Z</time>
      </trkpt>
      <trkpt lat="42.8779820" lon="-0.0204140">
        <ele>766.6</ele>
        <time>2020-07-27T09:27:17Z</time>
      </trkpt>
      <trkpt lat="42.8778820" lon="-0.0204270">
        <ele>766.0</ele>
        <time>2020-07-27T09:27:18Z</time>
      </trkpt>
      <trkpt lat="42.8777870" lon="-0.0204020">
        <ele>765.4</ele>
        <time>2020-07-27T09:27:19Z</time>
      </trkpt>
      <trkpt lat="42.8776930" lon="-0.0203540">
        <ele>764.6</ele>
        <time>2020-07-27T09:27:20Z</time>
      </trkpt>
      <trkpt lat="42.8775960" lon="-0.0203110">
        <ele>764.0</ele>
        <time>2020-07-27T09:27:21Z</time>
      </trkpt>
      <trkpt lat="42.8775030" lon="-0.0202870">
        <ele>763.6</ele>
        <time>2020-07-27T09:27:22Z</time>
      </trkpt>
      <trkpt lat="42.8774030" lon="-0.0203270">
        <ele>763.2</ele>
        <time>2020-07-27T09:27:23Z</time>
      </trkpt>
      <trkpt lat="42.8773080" lon="-0.0203750">
        <ele>763.0</ele>
        <time>2020-07-27T09:27:24Z</time>
      </trkpt>
      <trkpt lat="42.8772080" lon="-0.0204120">
        <ele>762.8</ele>
        <time>2020-07-27T09:27:25Z</time>
      </trkpt>
      <trkpt lat="42.8771050" lon="-0.0204220">
        <ele>762.4</ele>
        <time>2020-07-27T09:27:26Z</time>
      </trkpt>
      <trkpt lat="42.8770090" lon="-0.0203970">
        <ele>761.6</ele>
        <time>2020-07-27T09:27:27Z</time>
      </trkpt>
      <trkpt lat="42.8769110" lon="-0.0203510">
        <ele>760.6</ele>
        <time>2020-07-27T09:27:28Z</time>
      </trkpt>
      <trkpt lat="42.8768160" lon="-0.0202910">
        <ele>759.8</ele>
        <time>2020-07-27T09:27:29Z</time>
      </trkpt>
      <trkpt lat="42.8766290" lon="-0.0201550">
        <ele>758.4</ele>
        <time>2020-07-27T09:27:31Z</time>
      </trkpt>
      <trkpt lat="42.8765300" lon="-0.0200900">
        <ele>758.0</ele>
        <time>2020-07-27T09:27:32Z</time>
      </trkpt>
      <trkpt lat="42.8763240" lon="-0.0199850">
        <ele>757.2</ele>
        <time>2020-07-27T09:27:34Z</time>
      </trkpt>
      <trkpt lat="42.8761040" lon="-0.0198950">
        <ele>755.8</ele>
        <time>2020-07-27T09:27:36Z</time>
      </trkpt>
      <trkpt lat="42.8759880" lon="-0.0198580">
        <ele>754.8</ele>
        <time>2020-07-27T09:27:37Z</time>
      </trkpt>
      <trkpt lat="42.8758680" lon="-0.0198220">
        <ele>754.0</ele>
        <time>2020-07-27T09:27:38Z</time>
      </trkpt>
      <trkpt lat="42.8756170" lon="-0.0197640">
        <ele>753.0</ele>
        <time>2020-07-27T09:27:40Z</time>
      </trkpt>
      <trkpt lat="42.8754940" lon="-0.0197290">
        <ele>752.2</ele>
        <time>2020-07-27T09:27:41Z</time>
      </trkpt>
      <trkpt lat="42.8753760" lon="-0.0196700">
        <ele>751.6</ele>
        <time>2020-07-27T09:27:42Z</time>
      </trkpt>
      <trkpt lat="42.8752680" lon="-0.0195910">
        <ele>750.6</ele>
        <time>2020-07-27T09:27:43Z</time>
      </trkpt>
      <trkpt lat="42.8751680" lon="-0.0195000">
        <ele>749.6</ele>
        <time>2020-07-27T09:27:44Z</time>
      </trkpt>
      <trkpt lat="42.8749690" lon="-0.0193140">
        <ele>748.6</ele>
        <time>2020-07-27T09:27:46Z</time>
      </trkpt>
      <trkpt lat="42.8747520" lon="-0.0191490">
        <ele>747.6</ele>
        <time>2020-07-27T09:27:48Z</time>
      </trkpt>
      <trkpt lat="42.8746470" lon="-0.0190660">
        <ele>746.8</ele>
        <time>2020-07-27T09:27:49Z</time>
      </trkpt>
      <trkpt lat="42.8745500" lon="-0.0189740">
        <ele>746.0</ele>
        <time>2020-07-27T09:27:50Z</time>
      </trkpt>
      <trkpt lat="42.8742840" lon="-0.0187170">
        <ele>745.0</ele>
        <time>2020-07-27T09:27:53Z</time>
      </trkpt>
      <trkpt lat="42.8740870" lon="-0.0186060">
        <ele>744.4</ele>
        <time>2020-07-27T09:27:55Z</time>
      </trkpt>
      <trkpt lat="42.8738890" lon="-0.0185210">
        <ele>743.8</ele>
        <time>2020-07-27T09:27:57Z</time>
      </trkpt>
      <trkpt lat="42.8734300" lon="-0.0181900">
        <ele>743.0</ele>
        <time>2020-07-27T09:28:02Z</time>
      </trkpt>
      <trkpt lat="42.8733390" lon="-0.0181100">
        <ele>742.6</ele>
        <time>2020-07-27T09:28:03Z</time>
      </trkpt>
      <trkpt lat="42.8731480" lon="-0.0179460">
        <ele>741.0</ele>
        <time>2020-07-27T09:28:05Z</time>
      </trkpt>
      <trkpt lat="42.8729530" lon="-0.0177960">
        <ele>739.8</ele>
        <time>2020-07-27T09:28:07Z</time>
      </trkpt>
      <trkpt lat="42.8728550" lon="-0.0177140">
        <ele>739.0</ele>
        <time>2020-07-27T09:28:08Z</time>
      </trkpt>
      <trkpt lat="42.8727530" lon="-0.0176290">
        <ele>738.0</ele>
        <time>2020-07-27T09:28:09Z</time>
      </trkpt>
      <trkpt lat="42.8726510" lon="-0.0175410">
        <ele>737.0</ele>
        <time>2020-07-27T09:28:10Z</time>
      </trkpt>
      <trkpt lat="42.8724420" lon="-0.0173750">
        <ele>735.4</ele>
        <time>2020-07-27T09:28:12Z</time>
      </trkpt>
      <trkpt lat="42.8722460" lon="-0.0172120">
        <ele>734.0</ele>
        <time>2020-07-27T09:28:14Z</time>
      </trkpt>
      <trkpt lat="42.8720550" lon="-0.0170310">
        <ele>732.8</ele>
        <time>2020-07-27T09:28:16Z</time>
      </trkpt>
      <trkpt lat="42.8718620" lon="-0.0168490">
        <ele>731.8</ele>
        <time>2020-07-27T09:28:18Z</time>
      </trkpt>
      <trkpt lat="42.8716730" lon="-0.0166710">
        <ele>730.6</ele>
        <time>2020-07-27T09:28:20Z</time>
      </trkpt>
      <trkpt lat="42.8715820" lon="-0.0165830">
        <ele>729.8</ele>
        <time>2020-07-27T09:28:21Z</time>
      </trkpt>
      <trkpt lat="42.8714960" lon="-0.0164930">
        <ele>728.8</ele>
        <time>2020-07-27T09:28:22Z</time>
      </trkpt>
      <trkpt lat="42.8714070" lon="-0.0163960">
        <ele>727.6</ele>
        <time>2020-07-27T09:28:23Z</time>
      </trkpt>
      <trkpt lat="42.8712250" lon="-0.0161970">
        <ele>726.0</ele>
        <time>2020-07-27T09:28:25Z</time>
      </trkpt>
      <trkpt lat="42.8710370" lon="-0.0160030">
        <ele>725.0</ele>
        <time>2020-07-27T09:28:27Z</time>
      </trkpt>
      <trkpt lat="42.8708450" lon="-0.0158050">
        <ele>723.6</ele>
        <time>2020-07-27T09:28:29Z</time>
      </trkpt>
      <trkpt lat="42.8706600" lon="-0.0156150">
        <ele>722.2</ele>
        <time>2020-07-27T09:28:31Z</time>
      </trkpt>
      <trkpt lat="42.8704650" lon="-0.0154350">
        <ele>720.4</ele>
        <time>2020-07-27T09:28:33Z</time>
      </trkpt>
      <trkpt lat="42.8702530" lon="-0.0152860">
        <ele>718.6</ele>
        <time>2020-07-27T09:28:35Z</time>
      </trkpt>
      <trkpt lat="42.8700220" lon="-0.0151510">
        <ele>716.6</ele>
        <time>2020-07-27T09:28:37Z</time>
      </trkpt>
      <trkpt lat="42.8699100" lon="-0.0150700">
        <ele>715.8</ele>
        <time>2020-07-27T09:28:38Z</time>
      </trkpt>
      <trkpt lat="42.8698060" lon="-0.0149640">
        <ele>715.0</ele>
        <time>2020-07-27T09:28:39Z</time>
      </trkpt>
      <trkpt lat="42.8697100" lon="-0.0148530">
        <ele>714.0</ele>
        <time>2020-07-27T09:28:40Z</time>
      </trkpt>
      <trkpt lat="42.8696150" lon="-0.0147380">
        <ele>713.2</ele>
        <time>2020-07-27T09:28:41Z</time>
      </trkpt>
      <trkpt lat="42.8694290" lon="-0.0144860">
        <ele>711.8</ele>
        <time>2020-07-27T09:28:43Z</time>
      </trkpt>
      <trkpt lat="42.8692580" lon="-0.0142340">
        <ele>710.6</ele>
        <time>2020-07-27T09:28:45Z</time>
      </trkpt>
      <trkpt lat="42.8690910" lon="-0.0139900">
        <ele>709.4</ele>
        <time>2020-07-27T09:28:47Z</time>
      </trkpt>
      <trkpt lat="42.8689960" lon="-0.0138840">
        <ele>708.6</ele>
        <time>2020-07-27T09:28:48Z</time>
      </trkpt>
      <trkpt lat="42.8688950" lon="-0.0137840">
        <ele>707.8</ele>
        <time>2020-07-27T09:28:49Z</time>
      </trkpt>
      <trkpt lat="42.8687990" lon="-0.0136940">
        <ele>707.0</ele>
        <time>2020-07-27T09:28:50Z</time>
      </trkpt>
      <trkpt lat="42.8686980" lon="-0.0136070">
        <ele>706.4</ele>
        <time>2020-07-27T09:28:51Z</time>
      </trkpt>
      <trkpt lat="42.8684770" lon="-0.0134560">
        <ele>705.0</ele>
        <time>2020-07-27T09:28:53Z</time>
      </trkpt>
      <trkpt lat="42.8683580" lon="-0.0134000">
        <ele>704.0</ele>
        <time>2020-07-27T09:28:54Z</time>
      </trkpt>
      <trkpt lat="42.8682330" lon="-0.0133530">
        <ele>703.4</ele>
        <time>2020-07-27T09:28:55Z</time>
      </trkpt>
      <trkpt lat="42.8679910" lon="-0.0132800">
        <ele>702.2</ele>
        <time>2020-07-27T09:28:57Z</time>
      </trkpt>
      <trkpt lat="42.8677700" lon="-0.0131810">
        <ele>701.0</ele>
        <time>2020-07-27T09:28:59Z</time>
      </trkpt>
      <trkpt lat="42.8674150" lon="-0.0128650">
        <ele>700.0</ele>
        <time>2020-07-27T09:29:03Z</time>
      </trkpt>
      <trkpt lat="42.8673450" lon="-0.0127600">
        <ele>699.8</ele>
        <time>2020-07-27T09:29:04Z</time>
      </trkpt>
      <trkpt lat="42.8672470" lon="-0.0125160">
        <ele>698.8</ele>
        <time>2020-07-27T09:29:06Z</time>
      </trkpt>
      <trkpt lat="42.8671660" lon="-0.0122630">
        <ele>697.8</ele>
        <time>2020-07-27T09:29:08Z</time>
      </trkpt>
      <trkpt lat="42.8671110" lon="-0.0121600">
        <ele>697.4</ele>
        <time>2020-07-27T09:29:09Z</time>
      </trkpt>
      <trkpt lat="42.8670400" lon="-0.0120720">
        <ele>696.8</ele>
        <time>2020-07-27T09:29:10Z</time>
      </trkpt>
      <trkpt lat="42.8668760" lon="-0.0119200">
        <ele>696.0</ele>
        <time>2020-07-27T09:29:12Z</time>
      </trkpt>
      <trkpt lat="42.8667200" lon="-0.0117790">
        <ele>695.6</ele>
        <time>2020-07-27T09:29:14Z</time>
      </trkpt>
      <trkpt lat="42.8666560" lon="-0.0117100">
        <ele>695.4</ele>
        <time>2020-07-27T09:29:15Z</time>
      </trkpt>
      <trkpt lat="42.8665710" lon="-0.0115670">
        <ele>695.2</ele>
        <time>2020-07-27T09:29:17Z</time>
      </trkpt>
      <trkpt lat="42.8665060" lon="-0.0114510">
        <ele>695.2</ele>
        <time>2020-07-27T09:29:19Z</time>
      </trkpt>
      <trkpt lat="42.8664220" lon="-0.0114010">
        <ele>695.8</ele>
        <time>2020-07-27T09:29:21Z</time>
      </trkpt>
      <trkpt lat="42.8662930" lon="-0.0113920">
        <ele>697.0</ele>
        <time>2020-07-27T09:29:25Z</time>
      </trkpt>
      <trkpt lat="42.8662350" lon="-0.0113890">
        <ele>697.2</ele>
        <time>2020-07-27T09:29:27Z</time>
      </trkpt>
      <trkpt lat="42.8662060" lon="-0.0113850">
        <ele>697.4</ele>
        <time>2020-07-27T09:29:28Z</time>
      </trkpt>
      <trkpt lat="42.8661800" lon="-0.0113800">
        <ele>697.8</ele>
        <time>2020-07-27T09:29:29Z</time>
      </trkpt>
      <trkpt lat="42.8661270" lon="-0.0113660">
        <ele>698.2</ele>
        <time>2020-07-27T09:29:31Z</time>
      </trkpt>
      <trkpt lat="42.8660690" lon="-0.0113500">
        <ele>698.8</ele>
        <time>2020-07-27T09:29:33Z</time>
      </trkpt>
      <trkpt lat="42.8659950" lon="-0.0113580">
        <ele>699.4</ele>
        <time>2020-07-27T09:29:35Z</time>
      </trkpt>
      <trkpt lat="42.8659150" lon="-0.0113730">
        <ele>700.0</ele>
        <time>2020-07-27T09:29:37Z</time>
      </trkpt>
      <trkpt lat="42.8658710" lon="-0.0113860">
        <ele>700.6</ele>
        <time>2020-07-27T09:29:38Z</time>
      </trkpt>
      <trkpt lat="42.8657300" lon="-0.0114350">
        <ele>701.6</ele>
        <time>2020-07-27T09:29:41Z</time>
      </trkpt>
      <trkpt lat="42.8656900" lon="-0.0114690">
        <ele>701.6</ele>
        <time>2020-07-27T09:29:42Z</time>
      </trkpt>
      <trkpt lat="42.8656540" lon="-0.0115060">
        <ele>702.0</ele>
        <time>2020-07-27T09:29:43Z</time>
      </trkpt>
      <trkpt lat="42.8655780" lon="-0.0116010">
        <ele>703.0</ele>
        <time>2020-07-27T09:29:46Z</time>
      </trkpt>
      <trkpt lat="42.8655580" lon="-0.0116700">
        <ele>703.4</ele>
        <time>2020-07-27T09:29:48Z</time>
      </trkpt>
      <trkpt lat="42.8655420" lon="-0.0118450">
        <ele>704.0</ele>
        <time>2020-07-27T09:29:53Z</time>
      </trkpt>
      <trkpt lat="42.8655160" lon="-0.0119210">
        <ele>704.0</ele>
        <time>2020-07-27T09:29:55Z</time>
      </trkpt>
      <trkpt lat="42.8654770" lon="-0.0119610">
        <ele>704.0</ele>
        <time>2020-07-27T09:29:57Z</time>
      </trkpt>
      <trkpt lat="42.8654540" lon="-0.0119730">
        <ele>704.2</ele>
        <time>2020-07-27T09:29:58Z</time>
      </trkpt>
      <trkpt lat="42.8654160" lon="-0.0119700">
        <ele>704.6</ele>
        <time>2020-07-27T09:30:00Z</time>
      </trkpt>
      <trkpt lat="42.8653640" lon="-0.0119750">
        <ele>705.0</ele>
        <time>2020-07-27T09:30:02Z</time>
      </trkpt>
      <trkpt lat="42.8653110" lon="-0.0119740">
        <ele>705.6</ele>
        <time>2020-07-27T09:30:04Z</time>
      </trkpt>
      <trkpt lat="42.8652600" lon="-0.0119570">
        <ele>706.2</ele>
        <time>2020-07-27T09:30:06Z</time>
      </trkpt>
      <trkpt lat="42.8651560" lon="-0.0118710">
        <ele>707.2</ele>
        <time>2020-07-27T09:30:10Z</time>
      </trkpt>
      <trkpt lat="42.8651320" lon="-0.0118360">
        <ele>707.4</ele>
        <time>2020-07-27T09:30:11Z</time>
      </trkpt>
      <trkpt lat="42.8650230" lon="-0.0117150">
        <ele>708.6</ele>
        <time>2020-07-27T09:30:16Z</time>
      </trkpt>
      <trkpt lat="42.8649250" lon="-0.0116270">
        <ele>709.2</ele>
        <time>2020-07-27T09:30:20Z</time>
      </trkpt>
      <trkpt lat="42.8648960" lon="-0.0116060">
        <ele>709.4</ele>
        <time>2020-07-27T09:30:21Z</time>
      </trkpt>
      <trkpt lat="42.8648720" lon="-0.0115880">
        <ele>709.6</ele>
        <time>2020-07-27T09:30:22Z</time>
      </trkpt>
      <trkpt lat="42.8648470" lon="-0.0115780">
        <ele>709.6</ele>
        <time>2020-07-27T09:30:23Z</time>
      </trkpt>
      <trkpt lat="42.8647970" lon="-0.0115610">
        <ele>710.0</ele>
        <time>2020-07-27T09:30:25Z</time>
      </trkpt>
      <trkpt lat="42.8647390" lon="-0.0115460">
        <ele>710.4</ele>
        <time>2020-07-27T09:30:27Z</time>
      </trkpt>
      <trkpt lat="42.8646860" lon="-0.0115260">
        <ele>710.8</ele>
        <time>2020-07-27T09:30:29Z</time>
      </trkpt>
      <trkpt lat="42.8645820" lon="-0.0115010">
        <ele>711.6</ele>
        <time>2020-07-27T09:30:33Z</time>
      </trkpt>
      <trkpt lat="42.8645350" lon="-0.0114880">
        <ele>712.0</ele>
        <time>2020-07-27T09:30:35Z</time>
      </trkpt>
      <trkpt lat="42.8644390" lon="-0.0114640">
        <ele>713.0</ele>
        <time>2020-07-27T09:30:39Z</time>
      </trkpt>
      <trkpt lat="42.8644160" lon="-0.0114610">
        <ele>713.4</ele>
        <time>2020-07-27T09:30:40Z</time>
      </trkpt>
      <trkpt lat="42.8643360" lon="-0.0114620">
        <ele>714.2</ele>
        <time>2020-07-27T09:30:43Z</time>
      </trkpt>
      <trkpt lat="42.8642310" lon="-0.0114530">
        <ele>715.4</ele>
        <time>2020-07-27T09:30:47Z</time>
      </trkpt>
      <trkpt lat="42.8641060" lon="-0.0114620">
        <ele>715.8</ele>
        <time>2020-07-27T09:30:51Z</time>
      </trkpt>
      <trkpt lat="42.8640090" lon="-0.0114710">
        <ele>716.2</ele>
        <time>2020-07-27T09:30:54Z</time>
      </trkpt>
      <trkpt lat="42.8639730" lon="-0.0114760">
        <ele>716.2</ele>
        <time>2020-07-27T09:30:55Z</time>
      </trkpt>
      <trkpt lat="42.8638920" lon="-0.0114640">
        <ele>716.4</ele>
        <time>2020-07-27T09:30:57Z</time>
      </trkpt>
      <trkpt lat="42.8637540" lon="-0.0114050">
        <ele>717.4</ele>
        <time>2020-07-27T09:31:01Z</time>
      </trkpt>
      <trkpt lat="42.8637200" lon="-0.0113680">
        <ele>717.6</ele>
        <time>2020-07-27T09:31:02Z</time>
      </trkpt>
      <trkpt lat="42.8636880" lon="-0.0113360">
        <ele>717.6</ele>
        <time>2020-07-27T09:31:03Z</time>
      </trkpt>
      <trkpt lat="42.8635690" lon="-0.0111900">
        <ele>717.8</ele>
        <time>2020-07-27T09:31:07Z</time>
      </trkpt>
      <trkpt lat="42.8634690" lon="-0.0110980">
        <ele>718.0</ele>
        <time>2020-07-27T09:31:10Z</time>
      </trkpt>
      <trkpt lat="42.8634050" lon="-0.0110620">
        <ele>718.0</ele>
        <time>2020-07-27T09:31:12Z</time>
      </trkpt>
      <trkpt lat="42.8632360" lon="-0.0110040">
        <ele>717.2</ele>
        <time>2020-07-27T09:31:17Z</time>
      </trkpt>
      <trkpt lat="42.8631620" lon="-0.0109480">
        <ele>717.0</ele>
        <time>2020-07-27T09:31:19Z</time>
      </trkpt>
      <trkpt lat="42.8630970" lon="-0.0108470">
        <ele>716.8</ele>
        <time>2020-07-27T09:31:21Z</time>
      </trkpt>
      <trkpt lat="42.8630080" lon="-0.0105440">
        <ele>717.0</ele>
        <time>2020-07-27T09:31:26Z</time>
      </trkpt>
      <trkpt lat="42.8629040" lon="-0.0102370">
        <ele>718.0</ele>
        <time>2020-07-27T09:31:32Z</time>
      </trkpt>
      <trkpt lat="42.8628580" lon="-0.0101440">
        <ele>718.6</ele>
        <time>2020-07-27T09:31:34Z</time>
      </trkpt>
      <trkpt lat="42.8627480" lon="-0.0099750">
        <ele>719.0</ele>
        <time>2020-07-27T09:31:38Z</time>
      </trkpt>
      <trkpt lat="42.8625760" lon="-0.0097170">
        <ele>719.8</ele>
        <time>2020-07-27T09:31:44Z</time>
      </trkpt>
      <trkpt lat="42.8625200" lon="-0.0096340">
        <ele>720.0</ele>
        <time>2020-07-27T09:31:46Z</time>
      </trkpt>
      <trkpt lat="42.8623510" lon="-0.0093480">
        <ele>720.4</ele>
        <time>2020-07-27T09:31:52Z</time>
      </trkpt>
      <trkpt lat="42.8622940" lon="-0.0092530">
        <ele>720.6</ele>
        <time>2020-07-27T09:31:54Z</time>
      </trkpt>
      <trkpt lat="42.8622610" lon="-0.0092090">
        <ele>720.8</ele>
        <time>2020-07-27T09:31:55Z</time>
      </trkpt>
      <trkpt lat="42.8622230" lon="-0.0091690">
        <ele>720.8</ele>
        <time>2020-07-27T09:31:56Z</time>
      </trkpt>
      <trkpt lat="42.8621010" lon="-0.0090540">
        <ele>721.0</ele>
        <time>2020-07-27T09:31:59Z</time>
      </trkpt>
      <trkpt lat="42.8618360" lon="-0.0089050">
        <ele>721.2</ele>
        <time>2020-07-27T09:32:05Z</time>
      </trkpt>
      <trkpt lat="42.8617930" lon="-0.0088780">
        <ele>721.4</ele>
        <time>2020-07-27T09:32:06Z</time>
      </trkpt>
      <trkpt lat="42.8616520" lon="-0.0088040">
        <ele>721.8</ele>
        <time>2020-07-27T09:32:09Z</time>
      </trkpt>
      <trkpt lat="42.8615620" lon="-0.0087530">
        <ele>722.4</ele>
        <time>2020-07-27T09:32:11Z</time>
      </trkpt>
      <trkpt lat="42.8615210" lon="-0.0087210">
        <ele>722.4</ele>
        <time>2020-07-27T09:32:12Z</time>
      </trkpt>
      <trkpt lat="42.8614490" lon="-0.0086500">
        <ele>722.8</ele>
        <time>2020-07-27T09:32:14Z</time>
      </trkpt>
      <trkpt lat="42.8614130" lon="-0.0086140">
        <ele>723.0</ele>
        <time>2020-07-27T09:32:15Z</time>
      </trkpt>
      <trkpt lat="42.8613110" lon="-0.0085240">
        <ele>723.8</ele>
        <time>2020-07-27T09:32:18Z</time>
      </trkpt>
      <trkpt lat="42.8612760" lon="-0.0084890">
        <ele>724.0</ele>
        <time>2020-07-27T09:32:19Z</time>
      </trkpt>
      <trkpt lat="42.8610910" lon="-0.0083350">
        <ele>725.2</ele>
        <time>2020-07-27T09:32:24Z</time>
      </trkpt>
      <trkpt lat="42.8609780" lon="-0.0082640">
        <ele>725.8</ele>
        <time>2020-07-27T09:32:27Z</time>
      </trkpt>
      <trkpt lat="42.8609380" lon="-0.0082510">
        <ele>726.2</ele>
        <time>2020-07-27T09:32:28Z</time>
      </trkpt>
      <trkpt lat="42.8607710" lon="-0.0081850">
        <ele>726.8</ele>
        <time>2020-07-27T09:32:32Z</time>
      </trkpt>
      <trkpt lat="42.8606860" lon="-0.0081460">
        <ele>727.0</ele>
        <time>2020-07-27T09:32:34Z</time>
      </trkpt>
      <trkpt lat="42.8606430" lon="-0.0081250">
        <ele>727.2</ele>
        <time>2020-07-27T09:32:35Z</time>
      </trkpt>
      <trkpt lat="42.8605250" lon="-0.0080390">
        <ele>727.6</ele>
        <time>2020-07-27T09:32:38Z</time>
      </trkpt>
      <trkpt lat="42.8604510" lon="-0.0079730">
        <ele>728.2</ele>
        <time>2020-07-27T09:32:40Z</time>
      </trkpt>
      <trkpt lat="42.8603380" lon="-0.0078640">
        <ele>729.0</ele>
        <time>2020-07-27T09:32:43Z</time>
      </trkpt>
      <trkpt lat="42.8602560" lon="-0.0077760">
        <ele>729.4</ele>
        <time>2020-07-27T09:32:45Z</time>
      </trkpt>
      <trkpt lat="42.8602160" lon="-0.0077350">
        <ele>729.6</ele>
        <time>2020-07-27T09:32:46Z</time>
      </trkpt>
      <trkpt lat="42.8601010" lon="-0.0076090">
        <ele>730.4</ele>
        <time>2020-07-27T09:32:49Z</time>
      </trkpt>
      <trkpt lat="42.8598990" lon="-0.0074440">
        <ele>731.6</ele>
        <time>2020-07-27T09:32:54Z</time>
      </trkpt>
      <trkpt lat="42.8598180" lon="-0.0073860">
        <ele>732.0</ele>
        <time>2020-07-27T09:32:56Z</time>
      </trkpt>
      <trkpt lat="42.8596570" lon="-0.0072650">
        <ele>732.6</ele>
        <time>2020-07-27T09:33:00Z</time>
      </trkpt>
      <trkpt lat="42.8595770" lon="-0.0071990">
        <ele>732.8</ele>
        <time>2020-07-27T09:33:02Z</time>
      </trkpt>
      <trkpt lat="42.8595380" lon="-0.0071650">
        <ele>733.0</ele>
        <time>2020-07-27T09:33:03Z</time>
      </trkpt>
      <trkpt lat="42.8593060" lon="-0.0069310">
        <ele>733.2</ele>
        <time>2020-07-27T09:33:09Z</time>
      </trkpt>
      <trkpt lat="42.8592720" lon="-0.0068940">
        <ele>733.4</ele>
        <time>2020-07-27T09:33:10Z</time>
      </trkpt>
      <trkpt lat="42.8591760" lon="-0.0068060">
        <ele>733.8</ele>
        <time>2020-07-27T09:33:13Z</time>
      </trkpt>
      <trkpt lat="42.8590390" lon="-0.0066430">
        <ele>734.8</ele>
        <time>2020-07-27T09:33:17Z</time>
      </trkpt>
      <trkpt lat="42.8590020" lon="-0.0066040">
        <ele>735.0</ele>
        <time>2020-07-27T09:33:18Z</time>
      </trkpt>
      <trkpt lat="42.8588960" lon="-0.0064910">
        <ele>736.0</ele>
        <time>2020-07-27T09:33:21Z</time>
      </trkpt>
      <trkpt lat="42.8587970" lon="-0.0063730">
        <ele>736.6</ele>
        <time>2020-07-27T09:33:24Z</time>
      </trkpt>
      <trkpt lat="42.8587670" lon="-0.0063310">
        <ele>736.6</ele>
        <time>2020-07-27T09:33:25Z</time>
      </trkpt>
      <trkpt lat="42.8586140" lon="-0.0060520">
        <ele>737.0</ele>
        <time>2020-07-27T09:33:31Z</time>
      </trkpt>
      <trkpt lat="42.8585920" lon="-0.0060050">
        <ele>737.0</ele>
        <time>2020-07-27T09:33:32Z</time>
      </trkpt>
      <trkpt lat="42.8585090" lon="-0.0057940">
        <ele>737.0</ele>
        <time>2020-07-27T09:33:36Z</time>
      </trkpt>
      <trkpt lat="42.8584890" lon="-0.0057500">
        <ele>737.0</ele>
        <time>2020-07-27T09:33:37Z</time>
      </trkpt>
      <trkpt lat="42.8584740" lon="-0.0057170">
        <ele>737.0</ele>
        <time>2020-07-27T09:33:38Z</time>
      </trkpt>
      <trkpt lat="42.8584500" lon="-0.0056880">
        <ele>737.4</ele>
        <time>2020-07-27T09:33:42Z</time>
      </trkpt>
      <trkpt lat="42.8584460" lon="-0.0056900">
        <ele>737.4</ele>
        <time>2020-07-27T09:33:43Z</time>
      </trkpt>
      <trkpt lat="42.8583120" lon="-0.0052990">
        <ele>736.0</ele>
        <time>2020-07-27T09:35:05Z</time>
      </trkpt>
      <trkpt lat="42.8582940" lon="-0.0052690">
        <ele>736.0</ele>
        <time>2020-07-27T09:35:06Z</time>
      </trkpt>
      <trkpt lat="42.8582750" lon="-0.0052420">
        <ele>736.0</ele>
        <time>2020-07-27T09:35:07Z</time>
      </trkpt>
      <trkpt lat="42.8581770" lon="-0.0051170">
        <ele>736.0</ele>
        <time>2020-07-27T09:35:13Z</time>
      </trkpt>
      <trkpt lat="42.8581810" lon="-0.0050430">
        <ele>736.0</ele>
        <time>2020-07-27T09:35:15Z</time>
      </trkpt>
      <trkpt lat="42.8582030" lon="-0.0050040">
        <ele>736.0</ele>
        <time>2020-07-27T09:35:16Z</time>
      </trkpt>
      <trkpt lat="42.8583600" lon="-0.0048440">
        <ele>735.8</ele>
        <time>2020-07-27T09:35:21Z</time>
      </trkpt>
      <trkpt lat="42.8584480" lon="-0.0048090">
        <ele>735.8</ele>
        <time>2020-07-27T09:35:23Z</time>
      </trkpt>
      <trkpt lat="42.8584950" lon="-0.0047970">
        <ele>735.8</ele>
        <time>2020-07-27T09:35:24Z</time>
      </trkpt>
      <trkpt lat="42.8586540" lon="-0.0047620">
        <ele>735.4</ele>
        <time>2020-07-27T09:35:27Z</time>
      </trkpt>
      <trkpt lat="42.8587680" lon="-0.0047360">
        <ele>735.0</ele>
        <time>2020-07-27T09:35:29Z</time>
      </trkpt>
      <trkpt lat="42.8589580" lon="-0.0047100">
        <ele>734.4</ele>
        <time>2020-07-27T09:35:32Z</time>
      </trkpt>
      <trkpt lat="42.8590900" lon="-0.0047550">
        <ele>734.2</ele>
        <time>2020-07-27T09:35:34Z</time>
      </trkpt>
      <trkpt lat="42.8591600" lon="-0.0047920">
        <ele>734.0</ele>
        <time>2020-07-27T09:35:35Z</time>
      </trkpt>
      <trkpt lat="42.8592320" lon="-0.0048420">
        <ele>733.6</ele>
        <time>2020-07-27T09:35:36Z</time>
      </trkpt>
      <trkpt lat="42.8594520" lon="-0.0049710">
        <ele>732.6</ele>
        <time>2020-07-27T09:35:39Z</time>
      </trkpt>
      <trkpt lat="42.8595270" lon="-0.0049920">
        <ele>732.4</ele>
        <time>2020-07-27T09:35:40Z</time>
      </trkpt>
      <trkpt lat="42.8596170" lon="-0.0049740">
        <ele>732.0</ele>
        <time>2020-07-27T09:35:41Z</time>
      </trkpt>
      <trkpt lat="42.8597130" lon="-0.0049440">
        <ele>731.4</ele>
        <time>2020-07-27T09:35:42Z</time>
      </trkpt>
      <trkpt lat="42.8598820" lon="-0.0049530">
        <ele>730.2</ele>
        <time>2020-07-27T09:35:44Z</time>
      </trkpt>
      <trkpt lat="42.8599620" lon="-0.0049910">
        <ele>729.6</ele>
        <time>2020-07-27T09:35:45Z</time>
      </trkpt>
      <trkpt lat="42.8600380" lon="-0.0050550">
        <ele>729.4</ele>
        <time>2020-07-27T09:35:46Z</time>
      </trkpt>
      <trkpt lat="42.8601680" lon="-0.0052150">
        <ele>729.0</ele>
        <time>2020-07-27T09:35:48Z</time>
      </trkpt>
      <trkpt lat="42.8604920" lon="-0.0055020">
        <ele>728.0</ele>
        <time>2020-07-27T09:35:52Z</time>
      </trkpt>
      <trkpt lat="42.8606750" lon="-0.0056080">
        <ele>727.0</ele>
        <time>2020-07-27T09:35:54Z</time>
      </trkpt>
      <trkpt lat="42.8607720" lon="-0.0056460">
        <ele>726.6</ele>
        <time>2020-07-27T09:35:55Z</time>
      </trkpt>
      <trkpt lat="42.8608700" lon="-0.0056790">
        <ele>726.2</ele>
        <time>2020-07-27T09:35:56Z</time>
      </trkpt>
      <trkpt lat="42.8610660" lon="-0.0057310">
        <ele>725.4</ele>
        <time>2020-07-27T09:35:58Z</time>
      </trkpt>
      <trkpt lat="42.8612660" lon="-0.0057720">
        <ele>724.8</ele>
        <time>2020-07-27T09:36:00Z</time>
      </trkpt>
      <trkpt lat="42.8613680" lon="-0.0057810">
        <ele>724.4</ele>
        <time>2020-07-27T09:36:01Z</time>
      </trkpt>
      <trkpt lat="42.8614690" lon="-0.0057860">
        <ele>724.0</ele>
        <time>2020-07-27T09:36:02Z</time>
      </trkpt>
      <trkpt lat="42.8616790" lon="-0.0057840">
        <ele>722.8</ele>
        <time>2020-07-27T09:36:04Z</time>
      </trkpt>
      <trkpt lat="42.8617940" lon="-0.0057840">
        <ele>721.6</ele>
        <time>2020-07-27T09:36:05Z</time>
      </trkpt>
      <trkpt lat="42.8619190" lon="-0.0057870">
        <ele>720.4</ele>
        <time>2020-07-27T09:36:06Z</time>
      </trkpt>
      <trkpt lat="42.8620430" lon="-0.0057910">
        <ele>718.8</ele>
        <time>2020-07-27T09:36:07Z</time>
      </trkpt>
      <trkpt lat="42.8621630" lon="-0.0057950">
        <ele>717.4</ele>
        <time>2020-07-27T09:36:08Z</time>
      </trkpt>
      <trkpt lat="42.8622730" lon="-0.0057990">
        <ele>716.4</ele>
        <time>2020-07-27T09:36:09Z</time>
      </trkpt>
      <trkpt lat="42.8624680" lon="-0.0058300">
        <ele>715.2</ele>
        <time>2020-07-27T09:36:11Z</time>
      </trkpt>
      <trkpt lat="42.8626050" lon="-0.0059610">
        <ele>714.4</ele>
        <time>2020-07-27T09:36:13Z</time>
      </trkpt>
      <trkpt lat="42.8626580" lon="-0.0060540">
        <ele>714.0</ele>
        <time>2020-07-27T09:36:14Z</time>
      </trkpt>
      <trkpt lat="42.8627010" lon="-0.0061720">
        <ele>713.2</ele>
        <time>2020-07-27T09:36:15Z</time>
      </trkpt>
      <trkpt lat="42.8627410" lon="-0.0063070">
        <ele>712.6</ele>
        <time>2020-07-27T09:36:16Z</time>
      </trkpt>
      <trkpt lat="42.8627820" lon="-0.0064430">
        <ele>712.0</ele>
        <time>2020-07-27T09:36:17Z</time>
      </trkpt>
      <trkpt lat="42.8628290" lon="-0.0065760">
        <ele>711.4</ele>
        <time>2020-07-27T09:36:18Z</time>
      </trkpt>
      <trkpt lat="42.8628830" lon="-0.0067080">
        <ele>711.0</ele>
        <time>2020-07-27T09:36:19Z</time>
      </trkpt>
      <trkpt lat="42.8629490" lon="-0.0068330">
        <ele>710.4</ele>
        <time>2020-07-27T09:36:20Z</time>
      </trkpt>
      <trkpt lat="42.8631090" lon="-0.0070530">
        <ele>709.2</ele>
        <time>2020-07-27T09:36:22Z</time>
      </trkpt>
      <trkpt lat="42.8632870" lon="-0.0072450">
        <ele>707.8</ele>
        <time>2020-07-27T09:36:24Z</time>
      </trkpt>
      <trkpt lat="42.8634640" lon="-0.0074170">
        <ele>706.6</ele>
        <time>2020-07-27T09:36:26Z</time>
      </trkpt>
      <trkpt lat="42.8635470" lon="-0.0075040">
        <ele>706.2</ele>
        <time>2020-07-27T09:36:27Z</time>
      </trkpt>
      <trkpt lat="42.8636220" lon="-0.0075590">
        <ele>705.4</ele>
        <time>2020-07-27T09:36:29Z</time>
      </trkpt>
      <trkpt lat="42.8636970" lon="-0.0076140">
        <ele>705.2</ele>
        <time>2020-07-27T09:36:30Z</time>
      </trkpt>
      <trkpt lat="42.8637720" lon="-0.0076690">
        <ele>705.0</ele>
        <time>2020-07-27T09:36:31Z</time>
      </trkpt>
      <trkpt lat="42.8638470" lon="-0.0077240">
        <ele>704.4</ele>
        <time>2020-07-27T09:36:33Z</time>
      </trkpt>
      <trkpt lat="42.8639220" lon="-0.0077800">
        <ele>703.4</ele>
        <time>2020-07-27T09:36:35Z</time>
      </trkpt>
      <trkpt lat="42.8639970" lon="-0.0078350">
        <ele>701.4</ele>
        <time>2020-07-27T09:36:37Z</time>
      </trkpt>
      <trkpt lat="42.8640720" lon="-0.0078900">
        <ele>700.2</ele>
        <time>2020-07-27T09:36:38Z</time>
      </trkpt>
      <trkpt lat="42.8641470" lon="-0.0079450">
        <ele>699.2</ele>
        <time>2020-07-27T09:36:39Z</time>
      </trkpt>
      <trkpt lat="42.8647460" lon="-0.0083860">
        <ele>698.6</ele>
        <time>2020-07-27T09:36:40Z</time>
      </trkpt>
      <trkpt lat="42.8649810" lon="-0.0084850">
        <ele>697.6</ele>
        <time>2020-07-27T09:36:42Z</time>
      </trkpt>
      <trkpt lat="42.8652100" lon="-0.0085940">
        <ele>695.6</ele>
        <time>2020-07-27T09:36:44Z</time>
      </trkpt>
      <trkpt lat="42.8654750" lon="-0.0086210">
        <ele>694.2</ele>
        <time>2020-07-27T09:36:46Z</time>
      </trkpt>
      <trkpt lat="42.8655860" lon="-0.0086560">
        <ele>693.6</ele>
        <time>2020-07-27T09:36:47Z</time>
      </trkpt>
      <trkpt lat="42.8656940" lon="-0.0086970">
        <ele>692.8</ele>
        <time>2020-07-27T09:36:48Z</time>
      </trkpt>
      <trkpt lat="42.8658010" lon="-0.0087380">
        <ele>691.8</ele>
        <time>2020-07-27T09:36:49Z</time>
      </trkpt>
      <trkpt lat="42.8659110" lon="-0.0087740">
        <ele>690.8</ele>
        <time>2020-07-27T09:36:50Z</time>
      </trkpt>
      <trkpt lat="42.8661330" lon="-0.0088510">
        <ele>689.4</ele>
        <time>2020-07-27T09:36:52Z</time>
      </trkpt>
      <trkpt lat="42.8662430" lon="-0.0089000">
        <ele>688.6</ele>
        <time>2020-07-27T09:36:53Z</time>
      </trkpt>
      <trkpt lat="42.8663460" lon="-0.0089710">
        <ele>687.6</ele>
        <time>2020-07-27T09:36:54Z</time>
      </trkpt>
      <trkpt lat="42.8664420" lon="-0.0090640">
        <ele>686.0</ele>
        <time>2020-07-27T09:36:55Z</time>
      </trkpt>
      <trkpt lat="42.8665320" lon="-0.0091740">
        <ele>684.2</ele>
        <time>2020-07-27T09:36:56Z</time>
      </trkpt>
      <trkpt lat="42.8666250" lon="-0.0092910">
        <ele>682.8</ele>
        <time>2020-07-27T09:36:57Z</time>
      </trkpt>
      <trkpt lat="42.8667340" lon="-0.0093940">
        <ele>681.6</ele>
        <time>2020-07-27T09:36:58Z</time>
      </trkpt>
      <trkpt lat="42.8668560" lon="-0.0094740">
        <ele>680.8</ele>
        <time>2020-07-27T09:36:59Z</time>
      </trkpt>
      <trkpt lat="42.8669870" lon="-0.0095340">
        <ele>679.6</ele>
        <time>2020-07-27T09:37:00Z</time>
      </trkpt>
      <trkpt lat="42.8671280" lon="-0.0095750">
        <ele>678.0</ele>
        <time>2020-07-27T09:37:01Z</time>
      </trkpt>
      <trkpt lat="42.8672670" lon="-0.0096150">
        <ele>676.4</ele>
        <time>2020-07-27T09:37:02Z</time>
      </trkpt>
      <trkpt lat="42.8675310" lon="-0.0096980">
        <ele>674.6</ele>
        <time>2020-07-27T09:37:04Z</time>
      </trkpt>
      <trkpt lat="42.8676610" lon="-0.0097400">
        <ele>673.6</ele>
        <time>2020-07-27T09:37:05Z</time>
      </trkpt>
      <trkpt lat="42.8679230" lon="-0.0097950">
        <ele>672.0</ele>
        <time>2020-07-27T09:37:07Z</time>
      </trkpt>
      <trkpt lat="42.8680570" lon="-0.0097900">
        <ele>671.4</ele>
        <time>2020-07-27T09:37:08Z</time>
      </trkpt>
      <trkpt lat="42.8681910" lon="-0.0097700">
        <ele>670.8</ele>
        <time>2020-07-27T09:37:09Z</time>
      </trkpt>
      <trkpt lat="42.8685730" lon="-0.0097140">
        <ele>670.2</ele>
        <time>2020-07-27T09:37:12Z</time>
      </trkpt>
      <trkpt lat="42.8686980" lon="-0.0096950">
        <ele>670.2</ele>
        <time>2020-07-27T09:37:13Z</time>
      </trkpt>
      <trkpt lat="42.8689400" lon="-0.0096630">
        <ele>669.8</ele>
        <time>2020-07-27T09:37:15Z</time>
      </trkpt>
      <trkpt lat="42.8692650" lon="-0.0096030">
        <ele>669.4</ele>
        <time>2020-07-27T09:37:18Z</time>
      </trkpt>
      <trkpt lat="42.8693630" lon="-0.0095600">
        <ele>669.4</ele>
        <time>2020-07-27T09:37:19Z</time>
      </trkpt>
      <trkpt lat="42.8695370" lon="-0.0094280">
        <ele>669.4</ele>
        <time>2020-07-27T09:37:21Z</time>
      </trkpt>
      <trkpt lat="42.8697160" lon="-0.0091720">
        <ele>671.2</ele>
        <time>2020-07-27T09:37:24Z</time>
      </trkpt>
      <trkpt lat="42.8698010" lon="-0.0090150">
        <ele>672.2</ele>
        <time>2020-07-27T09:37:26Z</time>
      </trkpt>
      <trkpt lat="42.8698750" lon="-0.0088690">
        <ele>673.6</ele>
        <time>2020-07-27T09:37:28Z</time>
      </trkpt>
      <trkpt lat="42.8699120" lon="-0.0088000">
        <ele>674.2</ele>
        <time>2020-07-27T09:37:29Z</time>
      </trkpt>
      <trkpt lat="42.8699850" lon="-0.0086680">
        <ele>675.2</ele>
        <time>2020-07-27T09:37:31Z</time>
      </trkpt>
      <trkpt lat="42.8700510" lon="-0.0085480">
        <ele>676.4</ele>
        <time>2020-07-27T09:37:33Z</time>
      </trkpt>
      <trkpt lat="42.8701140" lon="-0.0084300">
        <ele>677.0</ele>
        <time>2020-07-27T09:37:35Z</time>
      </trkpt>
      <trkpt lat="42.8701460" lon="-0.0083720">
        <ele>677.2</ele>
        <time>2020-07-27T09:37:36Z</time>
      </trkpt>
      <trkpt lat="42.8701830" lon="-0.0083140">
        <ele>677.6</ele>
        <time>2020-07-27T09:37:37Z</time>
      </trkpt>
      <trkpt lat="42.8702550" lon="-0.0081990">
        <ele>678.0</ele>
        <time>2020-07-27T09:37:39Z</time>
      </trkpt>
      <trkpt lat="42.8703610" lon="-0.0080330">
        <ele>678.4</ele>
        <time>2020-07-27T09:37:42Z</time>
      </trkpt>
      <trkpt lat="42.8703900" lon="-0.0079810">
        <ele>678.4</ele>
        <time>2020-07-27T09:37:43Z</time>
      </trkpt>
      <trkpt lat="42.8704220" lon="-0.0079310">
        <ele>678.6</ele>
        <time>2020-07-27T09:37:44Z</time>
      </trkpt>
      <trkpt lat="42.8705510" lon="-0.0076680">
        <ele>679.6</ele>
        <time>2020-07-27T09:37:49Z</time>
      </trkpt>
      <trkpt lat="42.8705770" lon="-0.0076140">
        <ele>679.8</ele>
        <time>2020-07-27T09:37:50Z</time>
      </trkpt>
      <trkpt lat="42.8707260" lon="-0.0073430">
        <ele>680.8</ele>
        <time>2020-07-27T09:37:55Z</time>
      </trkpt>
      <trkpt lat="42.8708330" lon="-0.0071380">
        <ele>681.8</ele>
        <time>2020-07-27T09:37:59Z</time>
      </trkpt>
      <trkpt lat="42.8708600" lon="-0.0070890">
        <ele>682.0</ele>
        <time>2020-07-27T09:38:00Z</time>
      </trkpt>
      <trkpt lat="42.8709710" lon="-0.0068930">
        <ele>683.0</ele>
        <time>2020-07-27T09:38:04Z</time>
      </trkpt>
      <trkpt lat="42.8710540" lon="-0.0067470">
        <ele>683.4</ele>
        <time>2020-07-27T09:38:07Z</time>
      </trkpt>
      <trkpt lat="42.8711150" lon="-0.0066540">
        <ele>683.6</ele>
        <time>2020-07-27T09:38:09Z</time>
      </trkpt>
      <trkpt lat="42.8712010" lon="-0.0065110">
        <ele>684.2</ele>
        <time>2020-07-27T09:38:12Z</time>
      </trkpt>
      <trkpt lat="42.8712870" lon="-0.0063660">
        <ele>685.0</ele>
        <time>2020-07-27T09:38:15Z</time>
      </trkpt>
      <trkpt lat="42.8713190" lon="-0.0063180">
        <ele>685.0</ele>
        <time>2020-07-27T09:38:16Z</time>
      </trkpt>
      <trkpt lat="42.8713480" lon="-0.0062690">
        <ele>685.2</ele>
        <time>2020-07-27T09:38:17Z</time>
      </trkpt>
      <trkpt lat="42.8715080" lon="-0.0060170">
        <ele>686.2</ele>
        <time>2020-07-27T09:38:22Z</time>
      </trkpt>
      <trkpt lat="42.8715390" lon="-0.0059660">
        <ele>686.6</ele>
        <time>2020-07-27T09:38:23Z</time>
      </trkpt>
      <trkpt lat="42.8715710" lon="-0.0059150">
        <ele>687.0</ele>
        <time>2020-07-27T09:38:24Z</time>
      </trkpt>
      <trkpt lat="42.8717320" lon="-0.0056580">
        <ele>687.6</ele>
        <time>2020-07-27T09:38:29Z</time>
      </trkpt>
      <trkpt lat="42.8718350" lon="-0.0055060">
        <ele>688.0</ele>
        <time>2020-07-27T09:38:32Z</time>
      </trkpt>
      <trkpt lat="42.8719330" lon="-0.0053510">
        <ele>688.8</ele>
        <time>2020-07-27T09:38:35Z</time>
      </trkpt>
      <trkpt lat="42.8720970" lon="-0.0051000">
        <ele>689.8</ele>
        <time>2020-07-27T09:38:40Z</time>
      </trkpt>
      <trkpt lat="42.8721300" lon="-0.0050480">
        <ele>690.0</ele>
        <time>2020-07-27T09:38:41Z</time>
      </trkpt>
      <trkpt lat="42.8722170" lon="-0.0048960">
        <ele>690.6</ele>
        <time>2020-07-27T09:38:44Z</time>
      </trkpt>
      <trkpt lat="42.8722700" lon="-0.0047950">
        <ele>691.0</ele>
        <time>2020-07-27T09:38:46Z</time>
      </trkpt>
      <trkpt lat="42.8723270" lon="-0.0047000">
        <ele>691.4</ele>
        <time>2020-07-27T09:38:48Z</time>
      </trkpt>
      <trkpt lat="42.8723470" lon="-0.0046510">
        <ele>691.4</ele>
        <time>2020-07-27T09:38:49Z</time>
      </trkpt>
      <trkpt lat="42.8723740" lon="-0.0045990">
        <ele>691.4</ele>
        <time>2020-07-27T09:38:50Z</time>
      </trkpt>
      <trkpt lat="42.8724050" lon="-0.0045500">
        <ele>691.6</ele>
        <time>2020-07-27T09:38:51Z</time>
      </trkpt>
      <trkpt lat="42.8724730" lon="-0.0044510">
        <ele>692.2</ele>
        <time>2020-07-27T09:38:53Z</time>
      </trkpt>
      <trkpt lat="42.8726760" lon="-0.0041560">
        <ele>693.0</ele>
        <time>2020-07-27T09:38:59Z</time>
      </trkpt>
      <trkpt lat="42.8727380" lon="-0.0040620">
        <ele>693.2</ele>
        <time>2020-07-27T09:39:01Z</time>
      </trkpt>
      <trkpt lat="42.8729060" lon="-0.0038010">
        <ele>693.8</ele>
        <time>2020-07-27T09:39:07Z</time>
      </trkpt>
      <trkpt lat="42.8729620" lon="-0.0037150">
        <ele>694.0</ele>
        <time>2020-07-27T09:39:09Z</time>
      </trkpt>
      <trkpt lat="42.8730150" lon="-0.0036300">
        <ele>694.4</ele>
        <time>2020-07-27T09:39:11Z</time>
      </trkpt>
      <trkpt lat="42.8731040" lon="-0.0034650">
        <ele>695.2</ele>
        <time>2020-07-27T09:39:15Z</time>
      </trkpt>
      <trkpt lat="42.8731310" lon="-0.0034320">
        <ele>695.4</ele>
        <time>2020-07-27T09:39:16Z</time>
      </trkpt>
      <trkpt lat="42.8732650" lon="-0.0032950">
        <ele>695.8</ele>
        <time>2020-07-27T09:39:21Z</time>
      </trkpt>
      <trkpt lat="42.8732900" lon="-0.0032310">
        <ele>695.8</ele>
        <time>2020-07-27T09:39:23Z</time>
      </trkpt>
      <trkpt lat="42.8732830" lon="-0.0031340">
        <ele>696.0</ele>
        <time>2020-07-27T09:39:25Z</time>
      </trkpt>
      <trkpt lat="42.8733120" lon="-0.0029740">
        <ele>696.6</ele>
        <time>2020-07-27T09:39:29Z</time>
      </trkpt>
      <trkpt lat="42.8733160" lon="-0.0028890">
        <ele>697.2</ele>
        <time>2020-07-27T09:39:32Z</time>
      </trkpt>
      <trkpt lat="42.8733820" lon="-0.0031020">
        <ele>698.4</ele>
        <time>2020-07-27T10:05:09Z</time>
      </trkpt>
      <trkpt lat="42.8734160" lon="-0.0031080">
        <ele>698.4</ele>
        <time>2020-07-27T10:05:10Z</time>
      </trkpt>
      <trkpt lat="42.8735260" lon="-0.0031300">
        <ele>697.2</ele>
        <time>2020-07-27T10:05:13Z</time>
      </trkpt>
      <trkpt lat="42.8736000" lon="-0.0031410">
        <ele>696.0</ele>
        <time>2020-07-27T10:05:15Z</time>
      </trkpt>
      <trkpt lat="42.8736800" lon="-0.0031320">
        <ele>695.8</ele>
        <time>2020-07-27T10:05:17Z</time>
      </trkpt>
      <trkpt lat="42.8737210" lon="-0.0031260">
        <ele>695.6</ele>
        <time>2020-07-27T10:05:18Z</time>
      </trkpt>
      <trkpt lat="42.8738010" lon="-0.0031270">
        <ele>695.6</ele>
        <time>2020-07-27T10:05:20Z</time>
      </trkpt>
      <trkpt lat="42.8738390" lon="-0.0031240">
        <ele>695.8</ele>
        <time>2020-07-27T10:05:21Z</time>
      </trkpt>
      <trkpt lat="42.8738770" lon="-0.0031170">
        <ele>695.8</ele>
        <time>2020-07-27T10:05:22Z</time>
      </trkpt>
      <trkpt lat="42.8739580" lon="-0.0031040">
        <ele>695.8</ele>
        <time>2020-07-27T10:05:24Z</time>
      </trkpt>
      <trkpt lat="42.8740310" lon="-0.0031000">
        <ele>695.8</ele>
        <time>2020-07-27T10:05:26Z</time>
      </trkpt>
      <trkpt lat="42.8741030" lon="-0.0031130">
        <ele>695.6</ele>
        <time>2020-07-27T10:05:28Z</time>
      </trkpt>
      <trkpt lat="42.8743280" lon="-0.0031190">
        <ele>695.0</ele>
        <time>2020-07-27T10:05:33Z</time>
      </trkpt>
      <trkpt lat="42.8743780" lon="-0.0031410">
        <ele>694.8</ele>
        <time>2020-07-27T10:05:34Z</time>
      </trkpt>
      <trkpt lat="42.8744870" lon="-0.0032120">
        <ele>694.6</ele>
        <time>2020-07-27T10:05:36Z</time>
      </trkpt>
      <trkpt lat="42.8745360" lon="-0.0032640">
        <ele>694.4</ele>
        <time>2020-07-27T10:05:37Z</time>
      </trkpt>
      <trkpt lat="42.8745820" lon="-0.0033230">
        <ele>693.8</ele>
        <time>2020-07-27T10:05:38Z</time>
      </trkpt>
      <trkpt lat="42.8747370" lon="-0.0035470">
        <ele>692.6</ele>
        <time>2020-07-27T10:05:41Z</time>
      </trkpt>
      <trkpt lat="42.8747940" lon="-0.0036260">
        <ele>692.2</ele>
        <time>2020-07-27T10:05:42Z</time>
      </trkpt>
      <trkpt lat="42.8749020" lon="-0.0037900">
        <ele>691.4</ele>
        <time>2020-07-27T10:05:44Z</time>
      </trkpt>
      <trkpt lat="42.8750060" lon="-0.0039450">
        <ele>690.4</ele>
        <time>2020-07-27T10:05:46Z</time>
      </trkpt>
      <trkpt lat="42.8751720" lon="-0.0041840">
        <ele>689.0</ele>
        <time>2020-07-27T10:05:49Z</time>
      </trkpt>
      <trkpt lat="42.8752320" lon="-0.0042750">
        <ele>688.0</ele>
        <time>2020-07-27T10:05:50Z</time>
      </trkpt>
      <trkpt lat="42.8752940" lon="-0.0043670">
        <ele>687.2</ele>
        <time>2020-07-27T10:05:51Z</time>
      </trkpt>
      <trkpt lat="42.8755470" lon="-0.0047460">
        <ele>687.2</ele>
        <time>2020-07-27T10:05:55Z</time>
      </trkpt>
      <trkpt lat="42.8756830" lon="-0.0049490">
        <ele>687.6</ele>
        <time>2020-07-27T10:05:57Z</time>
      </trkpt>
      <trkpt lat="42.8757500" lon="-0.0050510">
        <ele>687.2</ele>
        <time>2020-07-27T10:05:58Z</time>
      </trkpt>
      <trkpt lat="42.8758200" lon="-0.0051520">
        <ele>685.4</ele>
        <time>2020-07-27T10:05:59Z</time>
      </trkpt>
      <trkpt lat="42.8758900" lon="-0.0052550">
        <ele>683.4</ele>
        <time>2020-07-27T10:06:00Z</time>
      </trkpt>
      <trkpt lat="42.8759590" lon="-0.0053600">
        <ele>682.2</ele>
        <time>2020-07-27T10:06:01Z</time>
      </trkpt>
      <trkpt lat="42.8760990" lon="-0.0055720">
        <ele>680.6</ele>
        <time>2020-07-27T10:06:03Z</time>
      </trkpt>
      <trkpt lat="42.8762380" lon="-0.0057840">
        <ele>679.2</ele>
        <time>2020-07-27T10:06:05Z</time>
      </trkpt>
      <trkpt lat="42.8763830" lon="-0.0059960">
        <ele>678.4</ele>
        <time>2020-07-27T10:06:07Z</time>
      </trkpt>
      <trkpt lat="42.8765310" lon="-0.0062120">
        <ele>677.8</ele>
        <time>2020-07-27T10:06:09Z</time>
      </trkpt>
      <trkpt lat="42.8768250" lon="-0.0066400">
        <ele>676.6</ele>
        <time>2020-07-27T10:06:13Z</time>
      </trkpt>
      <trkpt lat="42.8770400" lon="-0.0069660">
        <ele>675.4</ele>
        <time>2020-07-27T10:06:16Z</time>
      </trkpt>
      <trkpt lat="42.8771130" lon="-0.0070740">
        <ele>674.6</ele>
        <time>2020-07-27T10:06:17Z</time>
      </trkpt>
      <trkpt lat="42.8771860" lon="-0.0071790">
        <ele>673.8</ele>
        <time>2020-07-27T10:06:18Z</time>
      </trkpt>
      <trkpt lat="42.8772570" lon="-0.0072870">
        <ele>673.2</ele>
        <time>2020-07-27T10:06:19Z</time>
      </trkpt>
      <trkpt lat="42.8773340" lon="-0.0073910">
        <ele>672.6</ele>
        <time>2020-07-27T10:06:20Z</time>
      </trkpt>
      <trkpt lat="42.8774850" lon="-0.0075980">
        <ele>671.6</ele>
        <time>2020-07-27T10:06:22Z</time>
      </trkpt>
      <trkpt lat="42.8775600" lon="-0.0077010">
        <ele>671.2</ele>
        <time>2020-07-27T10:06:23Z</time>
      </trkpt>
      <trkpt lat="42.8777020" lon="-0.0079050">
        <ele>670.4</ele>
        <time>2020-07-27T10:06:25Z</time>
      </trkpt>
      <trkpt lat="42.8777740" lon="-0.0080050">
        <ele>670.0</ele>
        <time>2020-07-27T10:06:26Z</time>
      </trkpt>
      <trkpt lat="42.8779170" lon="-0.0082060">
        <ele>668.8</ele>
        <time>2020-07-27T10:06:28Z</time>
      </trkpt>
      <trkpt lat="42.8781990" lon="-0.0086100">
        <ele>667.8</ele>
        <time>2020-07-27T10:06:32Z</time>
      </trkpt>
      <trkpt lat="42.8782680" lon="-0.0087140">
        <ele>667.4</ele>
        <time>2020-07-27T10:06:33Z</time>
      </trkpt>
      <trkpt lat="42.8784100" lon="-0.0089160">
        <ele>666.4</ele>
        <time>2020-07-27T10:06:35Z</time>
      </trkpt>
      <trkpt lat="42.8785480" lon="-0.0091140">
        <ele>665.2</ele>
        <time>2020-07-27T10:06:37Z</time>
      </trkpt>
      <trkpt lat="42.8787540" lon="-0.0094030">
        <ele>664.0</ele>
        <time>2020-07-27T10:06:40Z</time>
      </trkpt>
      <trkpt lat="42.8789580" lon="-0.0096950">
        <ele>663.4</ele>
        <time>2020-07-27T10:06:43Z</time>
      </trkpt>
      <trkpt lat="42.8790940" lon="-0.0098890">
        <ele>662.8</ele>
        <time>2020-07-27T10:06:45Z</time>
      </trkpt>
      <trkpt lat="42.8792300" lon="-0.0100820">
        <ele>662.0</ele>
        <time>2020-07-27T10:06:47Z</time>
      </trkpt>
      <trkpt lat="42.8792980" lon="-0.0101810">
        <ele>661.4</ele>
        <time>2020-07-27T10:06:48Z</time>
      </trkpt>
      <trkpt lat="42.8793660" lon="-0.0102800">
        <ele>661.0</ele>
        <time>2020-07-27T10:06:49Z</time>
      </trkpt>
      <trkpt lat="42.8794350" lon="-0.0103760">
        <ele>660.6</ele>
        <time>2020-07-27T10:06:50Z</time>
      </trkpt>
      <trkpt lat="42.8795040" lon="-0.0104720">
        <ele>660.2</ele>
        <time>2020-07-27T10:06:51Z</time>
      </trkpt>
      <trkpt lat="42.8795740" lon="-0.0105660">
        <ele>660.0</ele>
        <time>2020-07-27T10:06:52Z</time>
      </trkpt>
      <trkpt lat="42.8797090" lon="-0.0107590">
        <ele>659.2</ele>
        <time>2020-07-27T10:06:54Z</time>
      </trkpt>
      <trkpt lat="42.8799110" lon="-0.0110490">
        <ele>658.2</ele>
        <time>2020-07-27T10:06:57Z</time>
      </trkpt>
      <trkpt lat="42.8799780" lon="-0.0111460">
        <ele>658.0</ele>
        <time>2020-07-27T10:06:58Z</time>
      </trkpt>
      <trkpt lat="42.8801830" lon="-0.0114250">
        <ele>657.4</ele>
        <time>2020-07-27T10:07:01Z</time>
      </trkpt>
      <trkpt lat="42.8803300" lon="-0.0115940">
        <ele>656.6</ele>
        <time>2020-07-27T10:07:03Z</time>
      </trkpt>
      <trkpt lat="42.8804890" lon="-0.0117520">
        <ele>655.6</ele>
        <time>2020-07-27T10:07:05Z</time>
      </trkpt>
      <trkpt lat="42.8805740" lon="-0.0118240">
        <ele>654.8</ele>
        <time>2020-07-27T10:07:06Z</time>
      </trkpt>
      <trkpt lat="42.8806600" lon="-0.0118950">
        <ele>654.2</ele>
        <time>2020-07-27T10:07:07Z</time>
      </trkpt>
      <trkpt lat="42.8810290" lon="-0.0121500">
        <ele>653.0</ele>
        <time>2020-07-27T10:07:11Z</time>
      </trkpt>
      <trkpt lat="42.8811230" lon="-0.0122140">
        <ele>652.4</ele>
        <time>2020-07-27T10:07:12Z</time>
      </trkpt>
      <trkpt lat="42.8812140" lon="-0.0122790">
        <ele>651.8</ele>
        <time>2020-07-27T10:07:13Z</time>
      </trkpt>
      <trkpt lat="42.8813940" lon="-0.0124230">
        <ele>650.6</ele>
        <time>2020-07-27T10:07:15Z</time>
      </trkpt>
      <trkpt lat="42.8816640" lon="-0.0126360">
        <ele>649.4</ele>
        <time>2020-07-27T10:07:18Z</time>
      </trkpt>
      <trkpt lat="42.8818440" lon="-0.0127740">
        <ele>648.8</ele>
        <time>2020-07-27T10:07:20Z</time>
      </trkpt>
      <trkpt lat="42.8819390" lon="-0.0128410">
        <ele>648.4</ele>
        <time>2020-07-27T10:07:21Z</time>
      </trkpt>
      <trkpt lat="42.8822200" lon="-0.0130480">
        <ele>647.2</ele>
        <time>2020-07-27T10:07:24Z</time>
      </trkpt>
      <trkpt lat="42.8824960" lon="-0.0132560">
        <ele>646.0</ele>
        <time>2020-07-27T10:07:27Z</time>
      </trkpt>
      <trkpt lat="42.8827670" lon="-0.0134730">
        <ele>644.8</ele>
        <time>2020-07-27T10:07:30Z</time>
      </trkpt>
      <trkpt lat="42.8829480" lon="-0.0136150">
        <ele>644.2</ele>
        <time>2020-07-27T10:07:32Z</time>
      </trkpt>
      <trkpt lat="42.8831300" lon="-0.0137570">
        <ele>643.8</ele>
        <time>2020-07-27T10:07:34Z</time>
      </trkpt>
      <trkpt lat="42.8832210" lon="-0.0138280">
        <ele>643.4</ele>
        <time>2020-07-27T10:07:35Z</time>
      </trkpt>
      <trkpt lat="42.8833960" lon="-0.0139740">
        <ele>642.6</ele>
        <time>2020-07-27T10:07:37Z</time>
      </trkpt>
      <trkpt lat="42.8835730" lon="-0.0141170">
        <ele>641.0</ele>
        <time>2020-07-27T10:07:39Z</time>
      </trkpt>
      <trkpt lat="42.8837580" lon="-0.0142490">
        <ele>639.6</ele>
        <time>2020-07-27T10:07:41Z</time>
      </trkpt>
      <trkpt lat="42.8838500" lon="-0.0143170">
        <ele>639.2</ele>
        <time>2020-07-27T10:07:42Z</time>
      </trkpt>
      <trkpt lat="42.8841280" lon="-0.0145120">
        <ele>638.4</ele>
        <time>2020-07-27T10:07:45Z</time>
      </trkpt>
      <trkpt lat="42.8844100" lon="-0.0147130">
        <ele>637.8</ele>
        <time>2020-07-27T10:07:48Z</time>
      </trkpt>
      <trkpt lat="42.8845060" lon="-0.0147780">
        <ele>637.6</ele>
        <time>2020-07-27T10:07:49Z</time>
      </trkpt>
      <trkpt lat="42.8845980" lon="-0.0148490">
        <ele>637.4</ele>
        <time>2020-07-27T10:07:50Z</time>
      </trkpt>
      <trkpt lat="42.8846960" lon="-0.0149130">
        <ele>637.2</ele>
        <time>2020-07-27T10:07:51Z</time>
      </trkpt>
      <trkpt lat="42.8850790" lon="-0.0151670">
        <ele>636.2</ele>
        <time>2020-07-27T10:07:55Z</time>
      </trkpt>
      <trkpt lat="42.8851690" lon="-0.0152350">
        <ele>636.2</ele>
        <time>2020-07-27T10:07:56Z</time>
      </trkpt>
      <trkpt lat="42.8853290" lon="-0.0153960">
        <ele>636.4</ele>
        <time>2020-07-27T10:07:58Z</time>
      </trkpt>
      <trkpt lat="42.8853890" lon="-0.0155010">
        <ele>636.4</ele>
        <time>2020-07-27T10:07:59Z</time>
      </trkpt>
      <trkpt lat="42.8854320" lon="-0.0156160">
        <ele>636.6</ele>
        <time>2020-07-27T10:08:00Z</time>
      </trkpt>
      <trkpt lat="42.8854750" lon="-0.0158690">
        <ele>637.0</ele>
        <time>2020-07-27T10:08:02Z</time>
      </trkpt>
      <trkpt lat="42.8855340" lon="-0.0162500">
        <ele>637.2</ele>
        <time>2020-07-27T10:08:05Z</time>
      </trkpt>
      <trkpt lat="42.8855780" lon="-0.0163630">
        <ele>637.4</ele>
        <time>2020-07-27T10:08:06Z</time>
      </trkpt>
      <trkpt lat="42.8856360" lon="-0.0164600">
        <ele>637.4</ele>
        <time>2020-07-27T10:08:07Z</time>
      </trkpt>
      <trkpt lat="42.8857670" lon="-0.0166220">
        <ele>637.2</ele>
        <time>2020-07-27T10:08:09Z</time>
      </trkpt>
      <trkpt lat="42.8861980" lon="-0.0169960">
        <ele>638.2</ele>
        <time>2020-07-27T10:08:15Z</time>
      </trkpt>
      <trkpt lat="42.8862760" lon="-0.0170550">
        <ele>638.6</ele>
        <time>2020-07-27T10:08:16Z</time>
      </trkpt>
      <trkpt lat="42.8865920" lon="-0.0173330">
        <ele>636.2</ele>
        <time>2020-07-27T10:08:20Z</time>
      </trkpt>
      <trkpt lat="42.8866710" lon="-0.0174070">
        <ele>634.6</ele>
        <time>2020-07-27T10:08:21Z</time>
      </trkpt>
      <trkpt lat="42.8867510" lon="-0.0174790">
        <ele>633.4</ele>
        <time>2020-07-27T10:08:22Z</time>
      </trkpt>
      <trkpt lat="42.8869090" lon="-0.0176290">
        <ele>632.0</ele>
        <time>2020-07-27T10:08:24Z</time>
      </trkpt>
      <trkpt lat="42.8871490" lon="-0.0178510">
        <ele>631.0</ele>
        <time>2020-07-27T10:08:27Z</time>
      </trkpt>
      <trkpt lat="42.8873830" lon="-0.0180710">
        <ele>630.6</ele>
        <time>2020-07-27T10:08:30Z</time>
      </trkpt>
      <trkpt lat="42.8878440" lon="-0.0185100">
        <ele>630.4</ele>
        <time>2020-07-27T10:08:36Z</time>
      </trkpt>
      <trkpt lat="42.8880920" lon="-0.0187190">
        <ele>629.6</ele>
        <time>2020-07-27T10:08:39Z</time>
      </trkpt>
      <trkpt lat="42.8881740" lon="-0.0187910">
        <ele>629.2</ele>
        <time>2020-07-27T10:08:40Z</time>
      </trkpt>
      <trkpt lat="42.8883300" lon="-0.0189570">
        <ele>628.4</ele>
        <time>2020-07-27T10:08:42Z</time>
      </trkpt>
      <trkpt lat="42.8885350" lon="-0.0192300">
        <ele>627.6</ele>
        <time>2020-07-27T10:08:45Z</time>
      </trkpt>
      <trkpt lat="42.8885950" lon="-0.0193270">
        <ele>627.4</ele>
        <time>2020-07-27T10:08:46Z</time>
      </trkpt>
      <trkpt lat="42.8886500" lon="-0.0194260">
        <ele>627.2</ele>
        <time>2020-07-27T10:08:47Z</time>
      </trkpt>
      <trkpt lat="42.8888470" lon="-0.0198530">
        <ele>626.8</ele>
        <time>2020-07-27T10:08:51Z</time>
      </trkpt>
      <trkpt lat="42.8891910" lon="-0.0204390">
        <ele>626.8</ele>
        <time>2020-07-27T10:08:57Z</time>
      </trkpt>
      <trkpt lat="42.8893380" lon="-0.0206010">
        <ele>627.2</ele>
        <time>2020-07-27T10:08:59Z</time>
      </trkpt>
      <trkpt lat="42.8894980" lon="-0.0207470">
        <ele>627.4</ele>
        <time>2020-07-27T10:09:01Z</time>
      </trkpt>
      <trkpt lat="42.8899530" lon="-0.0212200">
        <ele>626.6</ele>
        <time>2020-07-27T10:09:07Z</time>
      </trkpt>
      <trkpt lat="42.8900150" lon="-0.0213110">
        <ele>626.2</ele>
        <time>2020-07-27T10:09:08Z</time>
      </trkpt>
      <trkpt lat="42.8901370" lon="-0.0214930">
        <ele>625.6</ele>
        <time>2020-07-27T10:09:10Z</time>
      </trkpt>
      <trkpt lat="42.8902470" lon="-0.0216870">
        <ele>625.4</ele>
        <time>2020-07-27T10:09:12Z</time>
      </trkpt>
      <trkpt lat="42.8903000" lon="-0.0217860">
        <ele>625.2</ele>
        <time>2020-07-27T10:09:13Z</time>
      </trkpt>
      <trkpt lat="42.8905390" lon="-0.0222960">
        <ele>625.6</ele>
        <time>2020-07-27T10:09:18Z</time>
      </trkpt>
      <trkpt lat="42.8905830" lon="-0.0224020">
        <ele>626.4</ele>
        <time>2020-07-27T10:09:19Z</time>
      </trkpt>
      <trkpt lat="42.8906730" lon="-0.0226130">
        <ele>627.4</ele>
        <time>2020-07-27T10:09:21Z</time>
      </trkpt>
      <trkpt lat="42.8907710" lon="-0.0228180">
        <ele>627.6</ele>
        <time>2020-07-27T10:09:23Z</time>
      </trkpt>
      <trkpt lat="42.8909370" lon="-0.0231180">
        <ele>626.0</ele>
        <time>2020-07-27T10:09:26Z</time>
      </trkpt>
      <trkpt lat="42.8911260" lon="-0.0234020">
        <ele>624.8</ele>
        <time>2020-07-27T10:09:29Z</time>
      </trkpt>
      <trkpt lat="42.8912640" lon="-0.0235710">
        <ele>624.4</ele>
        <time>2020-07-27T10:09:31Z</time>
      </trkpt>
      <trkpt lat="42.8914140" lon="-0.0237180">
        <ele>623.6</ele>
        <time>2020-07-27T10:09:33Z</time>
      </trkpt>
      <trkpt lat="42.8915730" lon="-0.0238370">
        <ele>623.4</ele>
        <time>2020-07-27T10:09:35Z</time>
      </trkpt>
      <trkpt lat="42.8919790" lon="-0.0241230">
        <ele>622.4</ele>
        <time>2020-07-27T10:09:40Z</time>
      </trkpt>
      <trkpt lat="42.8922280" lon="-0.0242870">
        <ele>622.2</ele>
        <time>2020-07-27T10:09:43Z</time>
      </trkpt>
      <trkpt lat="42.8927320" lon="-0.0246000">
        <ele>622.2</ele>
        <time>2020-07-27T10:09:49Z</time>
      </trkpt>
      <trkpt lat="42.8929000" lon="-0.0246980">
        <ele>621.8</ele>
        <time>2020-07-27T10:09:51Z</time>
      </trkpt>
      <trkpt lat="42.8930750" lon="-0.0247940">
        <ele>621.6</ele>
        <time>2020-07-27T10:09:53Z</time>
      </trkpt>
      <trkpt lat="42.8931610" lon="-0.0248440">
        <ele>621.4</ele>
        <time>2020-07-27T10:09:54Z</time>
      </trkpt>
      <trkpt lat="42.8932440" lon="-0.0248950">
        <ele>621.4</ele>
        <time>2020-07-27T10:09:55Z</time>
      </trkpt>
      <trkpt lat="42.8935780" lon="-0.0250980">
        <ele>620.2</ele>
        <time>2020-07-27T10:09:59Z</time>
      </trkpt>
      <trkpt lat="42.8938340" lon="-0.0252390">
        <ele>619.6</ele>
        <time>2020-07-27T10:10:02Z</time>
      </trkpt>
      <trkpt lat="42.8939180" lon="-0.0252860">
        <ele>619.2</ele>
        <time>2020-07-27T10:10:03Z</time>
      </trkpt>
      <trkpt lat="42.8940000" lon="-0.0253340">
        <ele>619.0</ele>
        <time>2020-07-27T10:10:04Z</time>
      </trkpt>
      <trkpt lat="42.8944960" lon="-0.0256340">
        <ele>618.6</ele>
        <time>2020-07-27T10:10:10Z</time>
      </trkpt>
      <trkpt lat="42.8945740" lon="-0.0256860">
        <ele>618.6</ele>
        <time>2020-07-27T10:10:11Z</time>
      </trkpt>
      <trkpt lat="42.8948830" lon="-0.0258730">
        <ele>618.0</ele>
        <time>2020-07-27T10:10:15Z</time>
      </trkpt>
      <trkpt lat="42.8950970" lon="-0.0260110">
        <ele>618.6</ele>
        <time>2020-07-27T10:10:18Z</time>
      </trkpt>
      <trkpt lat="42.8955500" lon="-0.0262820">
        <ele>617.0</ele>
        <time>2020-07-27T10:10:24Z</time>
      </trkpt>
      <trkpt lat="42.8957040" lon="-0.0263760">
        <ele>616.4</ele>
        <time>2020-07-27T10:10:26Z</time>
      </trkpt>
      <trkpt lat="42.8959340" lon="-0.0265150">
        <ele>615.8</ele>
        <time>2020-07-27T10:10:29Z</time>
      </trkpt>
      <trkpt lat="42.8962920" lon="-0.0267410">
        <ele>615.0</ele>
        <time>2020-07-27T10:10:34Z</time>
      </trkpt>
      <trkpt lat="42.8965890" lon="-0.0269190">
        <ele>614.8</ele>
        <time>2020-07-27T10:10:38Z</time>
      </trkpt>
      <trkpt lat="42.8967400" lon="-0.0270140">
        <ele>615.2</ele>
        <time>2020-07-27T10:10:40Z</time>
      </trkpt>
      <trkpt lat="42.8971970" lon="-0.0273020">
        <ele>614.8</ele>
        <time>2020-07-27T10:10:46Z</time>
      </trkpt>
      <trkpt lat="42.8972740" lon="-0.0273540">
        <ele>614.6</ele>
        <time>2020-07-27T10:10:47Z</time>
      </trkpt>
      <trkpt lat="42.8974340" lon="-0.0274570">
        <ele>614.4</ele>
        <time>2020-07-27T10:10:49Z</time>
      </trkpt>
      <trkpt lat="42.8978440" lon="-0.0277190">
        <ele>613.4</ele>
        <time>2020-07-27T10:10:54Z</time>
      </trkpt>
      <trkpt lat="42.8980940" lon="-0.0278710">
        <ele>613.2</ele>
        <time>2020-07-27T10:10:57Z</time>
      </trkpt>
      <trkpt lat="42.8985910" lon="-0.0281430">
        <ele>613.4</ele>
        <time>2020-07-27T10:11:03Z</time>
      </trkpt>
      <trkpt lat="42.8987480" lon="-0.0282260">
        <ele>613.2</ele>
        <time>2020-07-27T10:11:05Z</time>
      </trkpt>
      <trkpt lat="42.8991720" lon="-0.0285000">
        <ele>613.6</ele>
        <time>2020-07-27T10:11:11Z</time>
      </trkpt>
      <trkpt lat="42.8994060" lon="-0.0286970">
        <ele>614.6</ele>
        <time>2020-07-27T10:11:15Z</time>
      </trkpt>
      <trkpt lat="42.8995710" lon="-0.0288440">
        <ele>615.4</ele>
        <time>2020-07-27T10:11:18Z</time>
      </trkpt>
      <trkpt lat="42.8996320" lon="-0.0288890">
        <ele>615.6</ele>
        <time>2020-07-27T10:11:19Z</time>
      </trkpt>
      <trkpt lat="42.8997600" lon="-0.0289720">
        <ele>615.6</ele>
        <time>2020-07-27T10:11:21Z</time>
      </trkpt>
      <trkpt lat="42.8998250" lon="-0.0290150">
        <ele>615.6</ele>
        <time>2020-07-27T10:11:22Z</time>
      </trkpt>
      <trkpt lat="42.8998950" lon="-0.0290590">
        <ele>615.4</ele>
        <time>2020-07-27T10:11:23Z</time>
      </trkpt>
      <trkpt lat="42.8999630" lon="-0.0291040">
        <ele>615.2</ele>
        <time>2020-07-27T10:11:24Z</time>
      </trkpt>
      <trkpt lat="42.9001760" lon="-0.0292580">
        <ele>614.6</ele>
        <time>2020-07-27T10:11:27Z</time>
      </trkpt>
      <trkpt lat="42.9004720" lon="-0.0294850">
        <ele>614.0</ele>
        <time>2020-07-27T10:11:31Z</time>
      </trkpt>
      <trkpt lat="42.9005460" lon="-0.0295430">
        <ele>613.4</ele>
        <time>2020-07-27T10:11:32Z</time>
      </trkpt>
      <trkpt lat="42.9010040" lon="-0.0298900">
        <ele>612.8</ele>
        <time>2020-07-27T10:11:38Z</time>
      </trkpt>
      <trkpt lat="42.9010840" lon="-0.0299480">
        <ele>612.4</ele>
        <time>2020-07-27T10:11:39Z</time>
      </trkpt>
      <trkpt lat="42.9011650" lon="-0.0300090">
        <ele>612.2</ele>
        <time>2020-07-27T10:11:40Z</time>
      </trkpt>
      <trkpt lat="42.9014130" lon="-0.0302000">
        <ele>611.2</ele>
        <time>2020-07-27T10:11:43Z</time>
      </trkpt>
      <trkpt lat="42.9014960" lon="-0.0302650">
        <ele>610.4</ele>
        <time>2020-07-27T10:11:44Z</time>
      </trkpt>
      <trkpt lat="42.9015790" lon="-0.0303330">
        <ele>609.6</ele>
        <time>2020-07-27T10:11:45Z</time>
      </trkpt>
      <trkpt lat="42.9017470" lon="-0.0304710">
        <ele>608.0</ele>
        <time>2020-07-27T10:11:47Z</time>
      </trkpt>
      <trkpt lat="42.9020010" lon="-0.0306770">
        <ele>607.4</ele>
        <time>2020-07-27T10:11:50Z</time>
      </trkpt>
      <trkpt lat="42.9023370" lon="-0.0309260">
        <ele>607.6</ele>
        <time>2020-07-27T10:11:54Z</time>
      </trkpt>
      <trkpt lat="42.9028700" lon="-0.0312430">
        <ele>607.4</ele>
        <time>2020-07-27T10:12:00Z</time>
      </trkpt>
      <trkpt lat="42.9030510" lon="-0.0313400">
        <ele>607.0</ele>
        <time>2020-07-27T10:12:02Z</time>
      </trkpt>
      <trkpt lat="42.9033260" lon="-0.0314610">
        <ele>606.6</ele>
        <time>2020-07-27T10:12:05Z</time>
      </trkpt>
      <trkpt lat="42.9034240" lon="-0.0314690">
        <ele>606.6</ele>
        <time>2020-07-27T10:12:06Z</time>
      </trkpt>
      <trkpt lat="42.9035210" lon="-0.0314560">
        <ele>606.4</ele>
        <time>2020-07-27T10:12:07Z</time>
      </trkpt>
      <trkpt lat="42.9037090" lon="-0.0313890">
        <ele>606.0</ele>
        <time>2020-07-27T10:12:09Z</time>
      </trkpt>
      <trkpt lat="42.9038020" lon="-0.0313600">
        <ele>605.8</ele>
        <time>2020-07-27T10:12:10Z</time>
      </trkpt>
      <trkpt lat="42.9038930" lon="-0.0313470">
        <ele>605.4</ele>
        <time>2020-07-27T10:12:11Z</time>
      </trkpt>
      <trkpt lat="42.9040820" lon="-0.0313800">
        <ele>604.8</ele>
        <time>2020-07-27T10:12:13Z</time>
      </trkpt>
      <trkpt lat="42.9042500" lon="-0.0314910">
        <ele>604.2</ele>
        <time>2020-07-27T10:12:15Z</time>
      </trkpt>
      <trkpt lat="42.9043310" lon="-0.0315590">
        <ele>603.8</ele>
        <time>2020-07-27T10:12:16Z</time>
      </trkpt>
      <trkpt lat="42.9044080" lon="-0.0316470">
        <ele>603.6</ele>
        <time>2020-07-27T10:12:17Z</time>
      </trkpt>
      <trkpt lat="42.9044790" lon="-0.0317400">
        <ele>603.4</ele>
        <time>2020-07-27T10:12:18Z</time>
      </trkpt>
      <trkpt lat="42.9045990" lon="-0.0319440">
        <ele>603.4</ele>
        <time>2020-07-27T10:12:20Z</time>
      </trkpt>
      <trkpt lat="42.9048670" lon="-0.0324830">
        <ele>603.2</ele>
        <time>2020-07-27T10:12:25Z</time>
      </trkpt>
      <trkpt lat="42.9049770" lon="-0.0326930">
        <ele>603.0</ele>
        <time>2020-07-27T10:12:27Z</time>
      </trkpt>
      <trkpt lat="42.9051480" lon="-0.0330070">
        <ele>602.2</ele>
        <time>2020-07-27T10:12:30Z</time>
      </trkpt>
      <trkpt lat="42.9052780" lon="-0.0332010">
        <ele>601.2</ele>
        <time>2020-07-27T10:12:32Z</time>
      </trkpt>
      <trkpt lat="42.9054040" lon="-0.0334030">
        <ele>600.0</ele>
        <time>2020-07-27T10:12:34Z</time>
      </trkpt>
      <trkpt lat="42.9055910" lon="-0.0337340">
        <ele>599.0</ele>
        <time>2020-07-27T10:12:37Z</time>
      </trkpt>
      <trkpt lat="42.9056980" lon="-0.0339640">
        <ele>597.4</ele>
        <time>2020-07-27T10:12:39Z</time>
      </trkpt>
      <trkpt lat="42.9058470" lon="-0.0343080">
        <ele>596.8</ele>
        <time>2020-07-27T10:12:42Z</time>
      </trkpt>
      <trkpt lat="42.9059390" lon="-0.0345260">
        <ele>596.6</ele>
        <time>2020-07-27T10:12:44Z</time>
      </trkpt>
      <trkpt lat="42.9060000" lon="-0.0346100">
        <ele>597.0</ele>
        <time>2020-07-27T10:12:45Z</time>
      </trkpt>
      <trkpt lat="42.9060780" lon="-0.0346540">
        <ele>597.2</ele>
        <time>2020-07-27T10:12:46Z</time>
      </trkpt>
      <trkpt lat="42.9061560" lon="-0.0346630">
        <ele>597.6</ele>
        <time>2020-07-27T10:12:47Z</time>
      </trkpt>
      <trkpt lat="42.9062320" lon="-0.0346410">
        <ele>598.0</ele>
        <time>2020-07-27T10:12:48Z</time>
      </trkpt>
      <trkpt lat="42.9063820" lon="-0.0345740">
        <ele>598.4</ele>
        <time>2020-07-27T10:12:50Z</time>
      </trkpt>
      <trkpt lat="42.9064550" lon="-0.0345620">
        <ele>598.4</ele>
        <time>2020-07-27T10:12:51Z</time>
      </trkpt>
      <trkpt lat="42.9065270" lon="-0.0345740">
        <ele>598.6</ele>
        <time>2020-07-27T10:12:52Z</time>
      </trkpt>
      <trkpt lat="42.9065960" lon="-0.0346020">
        <ele>598.6</ele>
        <time>2020-07-27T10:12:53Z</time>
      </trkpt>
      <trkpt lat="42.9068490" lon="-0.0347620">
        <ele>599.6</ele>
        <time>2020-07-27T10:12:57Z</time>
      </trkpt>
      <trkpt lat="42.9069100" lon="-0.0348010">
        <ele>600.0</ele>
        <time>2020-07-27T10:12:58Z</time>
      </trkpt>
      <trkpt lat="42.9069730" lon="-0.0348320">
        <ele>600.6</ele>
        <time>2020-07-27T10:12:59Z</time>
      </trkpt>
      <trkpt lat="42.9071570" lon="-0.0349050">
        <ele>601.6</ele>
        <time>2020-07-27T10:13:02Z</time>
      </trkpt>
      <trkpt lat="42.9072190" lon="-0.0349260">
        <ele>602.0</ele>
        <time>2020-07-27T10:13:03Z</time>
      </trkpt>
      <trkpt lat="42.9073930" lon="-0.0350140">
        <ele>602.6</ele>
        <time>2020-07-27T10:13:06Z</time>
      </trkpt>
      <trkpt lat="42.9074480" lon="-0.0350550">
        <ele>602.6</ele>
        <time>2020-07-27T10:13:07Z</time>
      </trkpt>
      <trkpt lat="42.9075630" lon="-0.0351400">
        <ele>603.2</ele>
        <time>2020-07-27T10:13:09Z</time>
      </trkpt>
      <trkpt lat="42.9079070" lon="-0.0354360">
        <ele>603.8</ele>
        <time>2020-07-27T10:13:15Z</time>
      </trkpt>
      <trkpt lat="42.9079690" lon="-0.0354790">
        <ele>603.8</ele>
        <time>2020-07-27T10:13:16Z</time>
      </trkpt>
      <trkpt lat="42.9083260" lon="-0.0357570">
        <ele>604.4</ele>
        <time>2020-07-27T10:13:22Z</time>
      </trkpt>
      <trkpt lat="42.9083810" lon="-0.0358090">
        <ele>604.2</ele>
        <time>2020-07-27T10:13:23Z</time>
      </trkpt>
      <trkpt lat="42.9086480" lon="-0.0361020">
        <ele>604.8</ele>
        <time>2020-07-27T10:13:28Z</time>
      </trkpt>
      <trkpt lat="42.9087040" lon="-0.0361560">
        <ele>605.2</ele>
        <time>2020-07-27T10:13:29Z</time>
      </trkpt>
      <trkpt lat="42.9088750" lon="-0.0362920">
        <ele>605.8</ele>
        <time>2020-07-27T10:13:32Z</time>
      </trkpt>
      <trkpt lat="42.9090470" lon="-0.0363970">
        <ele>606.2</ele>
        <time>2020-07-27T10:13:35Z</time>
      </trkpt>
      <trkpt lat="42.9092150" lon="-0.0364730">
        <ele>606.8</ele>
        <time>2020-07-27T10:13:38Z</time>
      </trkpt>
      <trkpt lat="42.9093740" lon="-0.0365310">
        <ele>608.0</ele>
        <time>2020-07-27T10:13:41Z</time>
      </trkpt>
      <trkpt lat="42.9094260" lon="-0.0365500">
        <ele>608.4</ele>
        <time>2020-07-27T10:13:42Z</time>
      </trkpt>
      <trkpt lat="42.9095370" lon="-0.0365770">
        <ele>609.0</ele>
        <time>2020-07-27T10:13:44Z</time>
      </trkpt>
      <trkpt lat="42.9095930" lon="-0.0365870">
        <ele>609.2</ele>
        <time>2020-07-27T10:13:45Z</time>
      </trkpt>
      <trkpt lat="42.9096480" lon="-0.0365920">
        <ele>609.6</ele>
        <time>2020-07-27T10:13:46Z</time>
      </trkpt>
      <trkpt lat="42.9097530" lon="-0.0365920">
        <ele>610.2</ele>
        <time>2020-07-27T10:13:48Z</time>
      </trkpt>
      <trkpt lat="42.9098050" lon="-0.0365930">
        <ele>610.6</ele>
        <time>2020-07-27T10:13:49Z</time>
      </trkpt>
      <trkpt lat="42.9100190" lon="-0.0365990">
        <ele>611.8</ele>
        <time>2020-07-27T10:13:53Z</time>
      </trkpt>
      <trkpt lat="42.9101840" lon="-0.0366210">
        <ele>612.0</ele>
        <time>2020-07-27T10:13:56Z</time>
      </trkpt>
      <trkpt lat="42.9104770" lon="-0.0366700">
        <ele>612.6</ele>
        <time>2020-07-27T10:14:01Z</time>
      </trkpt>
      <trkpt lat="42.9105360" lon="-0.0366840">
        <ele>612.8</ele>
        <time>2020-07-27T10:14:02Z</time>
      </trkpt>
      <trkpt lat="42.9105960" lon="-0.0366970">
        <ele>612.8</ele>
        <time>2020-07-27T10:14:03Z</time>
      </trkpt>
      <trkpt lat="42.9109840" lon="-0.0367740">
        <ele>612.8</ele>
        <time>2020-07-27T10:14:09Z</time>
      </trkpt>
      <trkpt lat="42.9110480" lon="-0.0367980">
        <ele>612.8</ele>
        <time>2020-07-27T10:14:10Z</time>
      </trkpt>
      <trkpt lat="42.9114520" lon="-0.0370480">
        <ele>612.2</ele>
        <time>2020-07-27T10:14:16Z</time>
      </trkpt>
      <trkpt lat="42.9116740" lon="-0.0371550">
        <ele>611.6</ele>
        <time>2020-07-27T10:14:19Z</time>
      </trkpt>
      <trkpt lat="42.9118300" lon="-0.0372110">
        <ele>611.6</ele>
        <time>2020-07-27T10:14:21Z</time>
      </trkpt>
      <trkpt lat="42.9122070" lon="-0.0373780">
        <ele>610.4</ele>
        <time>2020-07-27T10:14:26Z</time>
      </trkpt>
      <trkpt lat="42.9123600" lon="-0.0374250">
        <ele>609.2</ele>
        <time>2020-07-27T10:14:28Z</time>
      </trkpt>
      <trkpt lat="42.9124370" lon="-0.0374390">
        <ele>608.8</ele>
        <time>2020-07-27T10:14:29Z</time>
      </trkpt>
      <trkpt lat="42.9125140" lon="-0.0374370">
        <ele>608.2</ele>
        <time>2020-07-27T10:14:30Z</time>
      </trkpt>
      <trkpt lat="42.9125950" lon="-0.0374200">
        <ele>607.4</ele>
        <time>2020-07-27T10:14:31Z</time>
      </trkpt>
      <trkpt lat="42.9126790" lon="-0.0373860">
        <ele>606.6</ele>
        <time>2020-07-27T10:14:32Z</time>
      </trkpt>
      <trkpt lat="42.9128460" lon="-0.0373230">
        <ele>605.2</ele>
        <time>2020-07-27T10:14:34Z</time>
      </trkpt>
      <trkpt lat="42.9131250" lon="-0.0372790">
        <ele>604.0</ele>
        <time>2020-07-27T10:14:36Z</time>
      </trkpt>
      <trkpt lat="42.9132240" lon="-0.0372620">
        <ele>603.6</ele>
        <time>2020-07-27T10:14:37Z</time>
      </trkpt>
      <trkpt lat="42.9133220" lon="-0.0372440">
        <ele>603.0</ele>
        <time>2020-07-27T10:14:39Z</time>
      </trkpt>
      <trkpt lat="42.9134220" lon="-0.0372020">
        <ele>602.4</ele>
        <time>2020-07-27T10:14:40Z</time>
      </trkpt>
      <trkpt lat="42.9135200" lon="-0.0371530">
        <ele>601.6</ele>
        <time>2020-07-27T10:14:41Z</time>
      </trkpt>
      <trkpt lat="42.9136680" lon="-0.0370940">
        <ele>601.2</ele>
        <time>2020-07-27T10:14:42Z</time>
      </trkpt>
      <trkpt lat="42.9138150" lon="-0.0370350">
        <ele>600.4</ele>
        <time>2020-07-27T10:14:44Z</time>
      </trkpt>
      <trkpt lat="42.9140070" lon="-0.0370810">
        <ele>600.6</ele>
        <time>2020-07-27T10:14:46Z</time>
      </trkpt>
      <trkpt lat="42.9143950" lon="-0.0372620">
        <ele>600.6</ele>
        <time>2020-07-27T10:14:50Z</time>
      </trkpt>
      <trkpt lat="42.9146670" lon="-0.0374140">
        <ele>600.8</ele>
        <time>2020-07-27T10:14:53Z</time>
      </trkpt>
      <trkpt lat="42.9148400" lon="-0.0375060">
        <ele>601.0</ele>
        <time>2020-07-27T10:14:55Z</time>
      </trkpt>
      <trkpt lat="42.9149250" lon="-0.0375460">
        <ele>601.2</ele>
        <time>2020-07-27T10:14:56Z</time>
      </trkpt>
      <trkpt lat="42.9150060" lon="-0.0375920">
        <ele>601.4</ele>
        <time>2020-07-27T10:14:57Z</time>
      </trkpt>
      <trkpt lat="42.9151680" lon="-0.0376750">
        <ele>602.2</ele>
        <time>2020-07-27T10:14:59Z</time>
      </trkpt>
      <trkpt lat="42.9153220" lon="-0.0377630">
        <ele>602.6</ele>
        <time>2020-07-27T10:15:01Z</time>
      </trkpt>
      <trkpt lat="42.9155520" lon="-0.0378810">
        <ele>603.0</ele>
        <time>2020-07-27T10:15:04Z</time>
      </trkpt>
      <trkpt lat="42.9156990" lon="-0.0379550">
        <ele>603.2</ele>
        <time>2020-07-27T10:15:06Z</time>
      </trkpt>
      <trkpt lat="42.9159090" lon="-0.0380650">
        <ele>604.0</ele>
        <time>2020-07-27T10:15:09Z</time>
      </trkpt>
      <trkpt lat="42.9160490" lon="-0.0381340">
        <ele>604.2</ele>
        <time>2020-07-27T10:15:10Z</time>
      </trkpt>
      <trkpt lat="42.9161870" lon="-0.0382040">
        <ele>605.4</ele>
        <time>2020-07-27T10:15:13Z</time>
      </trkpt>
      <trkpt lat="42.9163830" lon="-0.0383180">
        <ele>606.0</ele>
        <time>2020-07-27T10:15:16Z</time>
      </trkpt>
      <trkpt lat="42.9165030" lon="-0.0384100">
        <ele>606.0</ele>
        <time>2020-07-27T10:15:18Z</time>
      </trkpt>
      <trkpt lat="42.9167440" lon="-0.0387540">
        <ele>606.2</ele>
        <time>2020-07-27T10:15:23Z</time>
      </trkpt>
      <trkpt lat="42.9167910" lon="-0.0388270">
        <ele>606.6</ele>
        <time>2020-07-27T10:15:24Z</time>
      </trkpt>
      <trkpt lat="42.9168940" lon="-0.0389650">
        <ele>608.6</ele>
        <time>2020-07-27T10:15:26Z</time>
      </trkpt>
      <trkpt lat="42.9169870" lon="-0.0391110">
        <ele>609.6</ele>
        <time>2020-07-27T10:15:28Z</time>
      </trkpt>
      <trkpt lat="42.9170670" lon="-0.0392680">
        <ele>610.0</ele>
        <time>2020-07-27T10:15:30Z</time>
      </trkpt>
      <trkpt lat="42.9171100" lon="-0.0393420">
        <ele>610.0</ele>
        <time>2020-07-27T10:15:31Z</time>
      </trkpt>
      <trkpt lat="42.9172350" lon="-0.0395700">
        <ele>610.2</ele>
        <time>2020-07-27T10:15:34Z</time>
      </trkpt>
      <trkpt lat="42.9173840" lon="-0.0397850">
        <ele>609.8</ele>
        <time>2020-07-27T10:15:37Z</time>
      </trkpt>
      <trkpt lat="42.9174430" lon="-0.0398480">
        <ele>609.2</ele>
        <time>2020-07-27T10:15:38Z</time>
      </trkpt>
      <trkpt lat="42.9175110" lon="-0.0398920">
        <ele>607.6</ele>
        <time>2020-07-27T10:15:39Z</time>
      </trkpt>
      <trkpt lat="42.9175880" lon="-0.0399050">
        <ele>606.2</ele>
        <time>2020-07-27T10:15:40Z</time>
      </trkpt>
      <trkpt lat="42.9177500" lon="-0.0399050">
        <ele>604.6</ele>
        <time>2020-07-27T10:15:42Z</time>
      </trkpt>
      <trkpt lat="42.9179110" lon="-0.0399130">
        <ele>603.0</ele>
        <time>2020-07-27T10:15:44Z</time>
      </trkpt>
      <trkpt lat="42.9179870" lon="-0.0399290">
        <ele>602.4</ele>
        <time>2020-07-27T10:15:45Z</time>
      </trkpt>
      <trkpt lat="42.9180640" lon="-0.0399540">
        <ele>602.0</ele>
        <time>2020-07-27T10:15:46Z</time>
      </trkpt>
      <trkpt lat="42.9182070" lon="-0.0400330">
        <ele>601.6</ele>
        <time>2020-07-27T10:15:48Z</time>
      </trkpt>
      <trkpt lat="42.9184660" lon="-0.0402830">
        <ele>601.4</ele>
        <time>2020-07-27T10:15:52Z</time>
      </trkpt>
      <trkpt lat="42.9186100" lon="-0.0403980">
        <ele>601.0</ele>
        <time>2020-07-27T10:15:54Z</time>
      </trkpt>
      <trkpt lat="42.9187650" lon="-0.0404340">
        <ele>600.0</ele>
        <time>2020-07-27T10:15:56Z</time>
      </trkpt>
      <trkpt lat="42.9188400" lon="-0.0404180">
        <ele>599.6</ele>
        <time>2020-07-27T10:15:57Z</time>
      </trkpt>
      <trkpt lat="42.9189180" lon="-0.0403870">
        <ele>599.4</ele>
        <time>2020-07-27T10:15:58Z</time>
      </trkpt>
      <trkpt lat="42.9189940" lon="-0.0403530">
        <ele>599.2</ele>
        <time>2020-07-27T10:15:59Z</time>
      </trkpt>
      <trkpt lat="42.9192410" lon="-0.0402800">
        <ele>599.0</ele>
        <time>2020-07-27T10:16:02Z</time>
      </trkpt>
      <trkpt lat="42.9193320" lon="-0.0402840">
        <ele>599.0</ele>
        <time>2020-07-27T10:16:03Z</time>
      </trkpt>
      <trkpt lat="42.9195220" lon="-0.0403150">
        <ele>599.0</ele>
        <time>2020-07-27T10:16:05Z</time>
      </trkpt>
      <trkpt lat="42.9198200" lon="-0.0403110">
        <ele>598.8</ele>
        <time>2020-07-27T10:16:08Z</time>
      </trkpt>
      <trkpt lat="42.9199170" lon="-0.0402940">
        <ele>598.6</ele>
        <time>2020-07-27T10:16:09Z</time>
      </trkpt>
      <trkpt lat="42.9201750" lon="-0.0403030">
        <ele>598.2</ele>
        <time>2020-07-27T10:16:12Z</time>
      </trkpt>
      <trkpt lat="42.9206450" lon="-0.0404700">
        <ele>599.6</ele>
        <time>2020-07-27T10:16:18Z</time>
      </trkpt>
      <trkpt lat="42.9207130" lon="-0.0405070">
        <ele>600.0</ele>
        <time>2020-07-27T10:16:19Z</time>
      </trkpt>
      <trkpt lat="42.9210120" lon="-0.0406000">
        <ele>601.4</ele>
        <time>2020-07-27T10:16:23Z</time>
      </trkpt>
      <trkpt lat="42.9211450" lon="-0.0406310">
        <ele>601.8</ele>
        <time>2020-07-27T10:16:25Z</time>
      </trkpt>
      <trkpt lat="42.9214470" lon="-0.0407610">
        <ele>601.4</ele>
        <time>2020-07-27T10:16:31Z</time>
      </trkpt>
      <trkpt lat="42.9214890" lon="-0.0407940">
        <ele>601.4</ele>
        <time>2020-07-27T10:16:32Z</time>
      </trkpt>
      <trkpt lat="42.9216190" lon="-0.0410140">
        <ele>601.4</ele>
        <time>2020-07-27T10:16:36Z</time>
      </trkpt>
      <trkpt lat="42.9216970" lon="-0.0410020">
        <ele>601.2</ele>
        <time>2020-07-27T10:16:37Z</time>
      </trkpt>
      <trkpt lat="42.9220590" lon="-0.0408310">
        <ele>601.4</ele>
        <time>2020-07-27T10:16:41Z</time>
      </trkpt>
      <trkpt lat="42.9220590" lon="-0.0408310">
        <ele>599.6</ele>
        <time>2020-07-27T10:16:46Z</time>
      </trkpt>
      <trkpt lat="42.9226740" lon="-0.0407630">
        <ele>597.8</ele>
        <time>2020-07-27T10:16:47Z</time>
      </trkpt>
      <trkpt lat="42.9227680" lon="-0.0407610">
        <ele>596.4</ele>
        <time>2020-07-27T10:16:48Z</time>
      </trkpt>
      <trkpt lat="42.9228700" lon="-0.0407980">
        <ele>595.6</ele>
        <time>2020-07-27T10:16:49Z</time>
      </trkpt>
      <trkpt lat="42.9229810" lon="-0.0408560">
        <ele>594.8</ele>
        <time>2020-07-27T10:16:50Z</time>
      </trkpt>
      <trkpt lat="42.9231830" lon="-0.0409280">
        <ele>593.8</ele>
        <time>2020-07-27T10:16:52Z</time>
      </trkpt>
      <trkpt lat="42.9233810" lon="-0.0409780">
        <ele>592.4</ele>
        <time>2020-07-27T10:16:54Z</time>
      </trkpt>
      <trkpt lat="42.9235830" lon="-0.0409720">
        <ele>591.2</ele>
        <time>2020-07-27T10:16:56Z</time>
      </trkpt>
      <trkpt lat="42.9236760" lon="-0.0409600">
        <ele>590.8</ele>
        <time>2020-07-27T10:16:57Z</time>
      </trkpt>
      <trkpt lat="42.9238710" lon="-0.0409220">
        <ele>589.8</ele>
        <time>2020-07-27T10:16:59Z</time>
      </trkpt>
      <trkpt lat="42.9239670" lon="-0.0409300">
        <ele>589.6</ele>
        <time>2020-07-27T10:17:00Z</time>
      </trkpt>
      <trkpt lat="42.9240540" lon="-0.0409960">
        <ele>589.2</ele>
        <time>2020-07-27T10:17:01Z</time>
      </trkpt>
      <trkpt lat="42.9241400" lon="-0.0410830">
        <ele>589.0</ele>
        <time>2020-07-27T10:17:02Z</time>
      </trkpt>
      <trkpt lat="42.9243070" lon="-0.0412610">
        <ele>588.8</ele>
        <time>2020-07-27T10:17:04Z</time>
      </trkpt>
      <trkpt lat="42.9243940" lon="-0.0413440">
        <ele>588.6</ele>
        <time>2020-07-27T10:17:05Z</time>
      </trkpt>
      <trkpt lat="42.9246590" lon="-0.0415770">
        <ele>587.2</ele>
        <time>2020-07-27T10:17:08Z</time>
      </trkpt>
      <trkpt lat="42.9249210" lon="-0.0418090">
        <ele>585.4</ele>
        <time>2020-07-27T10:17:10Z</time>
      </trkpt>
      <trkpt lat="42.9250050" lon="-0.0418880">
        <ele>584.4</ele>
        <time>2020-07-27T10:17:12Z</time>
      </trkpt>
      <trkpt lat="42.9253560" lon="-0.0421630">
        <ele>583.2</ele>
        <time>2020-07-27T10:17:16Z</time>
      </trkpt>
      <trkpt lat="42.9254480" lon="-0.0422110">
        <ele>583.0</ele>
        <time>2020-07-27T10:17:17Z</time>
      </trkpt>
      <trkpt lat="42.9255420" lon="-0.0422440">
        <ele>583.0</ele>
        <time>2020-07-27T10:17:18Z</time>
      </trkpt>
      <trkpt lat="42.9257290" lon="-0.0422390">
        <ele>582.0</ele>
        <time>2020-07-27T10:17:20Z</time>
      </trkpt>
      <trkpt lat="42.9258170" lon="-0.0421770">
        <ele>581.4</ele>
        <time>2020-07-27T10:17:21Z</time>
      </trkpt>
      <trkpt lat="42.9259000" lon="-0.0420920">
        <ele>580.6</ele>
        <time>2020-07-27T10:17:22Z</time>
      </trkpt>
      <trkpt lat="42.9260670" lon="-0.0419010">
        <ele>579.0</ele>
        <time>2020-07-27T10:17:24Z</time>
      </trkpt>
      <trkpt lat="42.9261560" lon="-0.0418300">
        <ele>578.4</ele>
        <time>2020-07-27T10:17:25Z</time>
      </trkpt>
      <trkpt lat="42.9262560" lon="-0.0417980">
        <ele>577.8</ele>
        <time>2020-07-27T10:17:26Z</time>
      </trkpt>
      <trkpt lat="42.9263660" lon="-0.0417850">
        <ele>577.2</ele>
        <time>2020-07-27T10:17:27Z</time>
      </trkpt>
      <trkpt lat="42.9264790" lon="-0.0417850">
        <ele>576.4</ele>
        <time>2020-07-27T10:17:28Z</time>
      </trkpt>
      <trkpt lat="42.9265950" lon="-0.0417930">
        <ele>575.6</ele>
        <time>2020-07-27T10:17:29Z</time>
      </trkpt>
      <trkpt lat="42.9267210" lon="-0.0417950">
        <ele>574.8</ele>
        <time>2020-07-27T10:17:30Z</time>
      </trkpt>
      <trkpt lat="42.9269710" lon="-0.0418160">
        <ele>572.8</ele>
        <time>2020-07-27T10:17:32Z</time>
      </trkpt>
      <trkpt lat="42.9272340" lon="-0.0418310">
        <ele>571.6</ele>
        <time>2020-07-27T10:17:34Z</time>
      </trkpt>
      <trkpt lat="42.9274960" lon="-0.0418610">
        <ele>570.8</ele>
        <time>2020-07-27T10:17:36Z</time>
      </trkpt>
      <trkpt lat="42.9276380" lon="-0.0418630">
        <ele>570.4</ele>
        <time>2020-07-27T10:17:37Z</time>
      </trkpt>
      <trkpt lat="42.9278980" lon="-0.0419220">
        <ele>568.8</ele>
        <time>2020-07-27T10:17:39Z</time>
      </trkpt>
      <trkpt lat="42.9280290" lon="-0.0419650">
        <ele>567.8</ele>
        <time>2020-07-27T10:17:40Z</time>
      </trkpt>
      <trkpt lat="42.9282790" lon="-0.0420880">
        <ele>566.0</ele>
        <time>2020-07-27T10:17:42Z</time>
      </trkpt>
      <trkpt lat="42.9284000" lon="-0.0421460">
        <ele>564.8</ele>
        <time>2020-07-27T10:17:43Z</time>
      </trkpt>
      <trkpt lat="42.9286400" lon="-0.0422760">
        <ele>563.0</ele>
        <time>2020-07-27T10:17:45Z</time>
      </trkpt>
      <trkpt lat="42.9287560" lon="-0.0423430">
        <ele>562.4</ele>
        <time>2020-07-27T10:17:46Z</time>
      </trkpt>
      <trkpt lat="42.9288750" lon="-0.0424010">
        <ele>561.6</ele>
        <time>2020-07-27T10:17:47Z</time>
      </trkpt>
      <trkpt lat="42.9291060" lon="-0.0425640">
        <ele>560.0</ele>
        <time>2020-07-27T10:17:49Z</time>
      </trkpt>
      <trkpt lat="42.9292170" lon="-0.0426620">
        <ele>559.0</ele>
        <time>2020-07-27T10:17:50Z</time>
      </trkpt>
      <trkpt lat="42.9293230" lon="-0.0427640">
        <ele>557.8</ele>
        <time>2020-07-27T10:17:51Z</time>
      </trkpt>
      <trkpt lat="42.9295300" lon="-0.0430490">
        <ele>555.8</ele>
        <time>2020-07-27T10:17:53Z</time>
      </trkpt>
      <trkpt lat="42.9296210" lon="-0.0431870">
        <ele>554.8</ele>
        <time>2020-07-27T10:17:54Z</time>
      </trkpt>
      <trkpt lat="42.9297120" lon="-0.0433260">
        <ele>553.8</ele>
        <time>2020-07-27T10:17:55Z</time>
      </trkpt>
      <trkpt lat="42.9298550" lon="-0.0436010">
        <ele>552.4</ele>
        <time>2020-07-27T10:17:57Z</time>
      </trkpt>
      <trkpt lat="42.9298950" lon="-0.0437650">
        <ele>551.8</ele>
        <time>2020-07-27T10:17:58Z</time>
      </trkpt>
      <trkpt lat="42.9299270" lon="-0.0439360">
        <ele>551.6</ele>
        <time>2020-07-27T10:17:59Z</time>
      </trkpt>
      <trkpt lat="42.9299900" lon="-0.0442730">
        <ele>551.0</ele>
        <time>2020-07-27T10:18:01Z</time>
      </trkpt>
      <trkpt lat="42.9301720" lon="-0.0449040">
        <ele>549.8</ele>
        <time>2020-07-27T10:18:05Z</time>
      </trkpt>
      <trkpt lat="42.9302270" lon="-0.0450540">
        <ele>548.4</ele>
        <time>2020-07-27T10:18:06Z</time>
      </trkpt>
      <trkpt lat="42.9302930" lon="-0.0451920">
        <ele>546.8</ele>
        <time>2020-07-27T10:18:07Z</time>
      </trkpt>
      <trkpt lat="42.9303700" lon="-0.0453210">
        <ele>545.6</ele>
        <time>2020-07-27T10:18:08Z</time>
      </trkpt>
      <trkpt lat="42.9304520" lon="-0.0454480">
        <ele>544.8</ele>
        <time>2020-07-27T10:18:09Z</time>
      </trkpt>
      <trkpt lat="42.9305400" lon="-0.0455680">
        <ele>544.0</ele>
        <time>2020-07-27T10:18:10Z</time>
      </trkpt>
      <trkpt lat="42.9306330" lon="-0.0456850">
        <ele>543.4</ele>
        <time>2020-07-27T10:18:11Z</time>
      </trkpt>
      <trkpt lat="42.9307270" lon="-0.0457990">
        <ele>542.6</ele>
        <time>2020-07-27T10:18:12Z</time>
      </trkpt>
      <trkpt lat="42.9309270" lon="-0.0459930">
        <ele>541.2</ele>
        <time>2020-07-27T10:18:14Z</time>
      </trkpt>
      <trkpt lat="42.9310350" lon="-0.0460650">
        <ele>540.4</ele>
        <time>2020-07-27T10:18:15Z</time>
      </trkpt>
      <trkpt lat="42.9311510" lon="-0.0461140">
        <ele>539.6</ele>
        <time>2020-07-27T10:18:16Z</time>
      </trkpt>
      <trkpt lat="42.9312660" lon="-0.0461440">
        <ele>539.2</ele>
        <time>2020-07-27T10:18:17Z</time>
      </trkpt>
      <trkpt lat="42.9313800" lon="-0.0461410">
        <ele>538.8</ele>
        <time>2020-07-27T10:18:18Z</time>
      </trkpt>
      <trkpt lat="42.9314890" lon="-0.0461250">
        <ele>538.4</ele>
        <time>2020-07-27T10:18:19Z</time>
      </trkpt>
      <trkpt lat="42.9315970" lon="-0.0461040">
        <ele>538.2</ele>
        <time>2020-07-27T10:18:20Z</time>
      </trkpt>
      <trkpt lat="42.9318120" lon="-0.0460950">
        <ele>538.0</ele>
        <time>2020-07-27T10:18:22Z</time>
      </trkpt>
      <trkpt lat="42.9320270" lon="-0.0461300">
        <ele>537.8</ele>
        <time>2020-07-27T10:18:24Z</time>
      </trkpt>
      <trkpt lat="42.9324400" lon="-0.0463100">
        <ele>537.2</ele>
        <time>2020-07-27T10:18:28Z</time>
      </trkpt>
      <trkpt lat="42.9325410" lon="-0.0463690">
        <ele>536.8</ele>
        <time>2020-07-27T10:18:29Z</time>
      </trkpt>
      <trkpt lat="42.9327440" lon="-0.0464780">
        <ele>536.0</ele>
        <time>2020-07-27T10:18:31Z</time>
      </trkpt>
      <trkpt lat="42.9330500" lon="-0.0466310">
        <ele>534.8</ele>
        <time>2020-07-27T10:18:34Z</time>
      </trkpt>
      <trkpt lat="42.9332540" lon="-0.0467370">
        <ele>534.4</ele>
        <time>2020-07-27T10:18:36Z</time>
      </trkpt>
      <trkpt lat="42.9333460" lon="-0.0468070">
        <ele>534.2</ele>
        <time>2020-07-27T10:18:37Z</time>
      </trkpt>
      <trkpt lat="42.9334380" lon="-0.0468770">
        <ele>533.6</ele>
        <time>2020-07-27T10:18:38Z</time>
      </trkpt>
      <trkpt lat="42.9336210" lon="-0.0470290">
        <ele>532.4</ele>
        <time>2020-07-27T10:18:40Z</time>
      </trkpt>
      <trkpt lat="42.9339800" lon="-0.0473580">
        <ele>531.2</ele>
        <time>2020-07-27T10:18:44Z</time>
      </trkpt>
      <trkpt lat="42.9340700" lon="-0.0474540">
        <ele>530.8</ele>
        <time>2020-07-27T10:18:45Z</time>
      </trkpt>
      <trkpt lat="42.9342340" lon="-0.0476530">
        <ele>530.2</ele>
        <time>2020-07-27T10:18:47Z</time>
      </trkpt>
      <trkpt lat="42.9343090" lon="-0.0477630">
        <ele>529.6</ele>
        <time>2020-07-27T10:18:48Z</time>
      </trkpt>
      <trkpt lat="42.9344490" lon="-0.0479950">
        <ele>528.4</ele>
        <time>2020-07-27T10:18:50Z</time>
      </trkpt>
      <trkpt lat="42.9345960" lon="-0.0481940">
        <ele>527.0</ele>
        <time>2020-07-27T10:18:52Z</time>
      </trkpt>
      <trkpt lat="42.9346170" lon="-0.0483800">
        <ele>526.6</ele>
        <time>2020-07-27T10:18:53Z</time>
      </trkpt>
      <trkpt lat="42.9346810" lon="-0.0485000">
        <ele>526.2</ele>
        <time>2020-07-27T10:18:54Z</time>
      </trkpt>
      <trkpt lat="42.9347560" lon="-0.0486130">
        <ele>525.8</ele>
        <time>2020-07-27T10:18:55Z</time>
      </trkpt>
      <trkpt lat="42.9349270" lon="-0.0487590">
        <ele>524.8</ele>
        <time>2020-07-27T10:18:57Z</time>
      </trkpt>
      <trkpt lat="42.9350960" lon="-0.0488400">
        <ele>523.4</ele>
        <time>2020-07-27T10:18:59Z</time>
      </trkpt>
      <trkpt lat="42.9351850" lon="-0.0488310">
        <ele>522.8</ele>
        <time>2020-07-27T10:19:00Z</time>
      </trkpt>
      <trkpt lat="42.9352900" lon="-0.0488060">
        <ele>522.2</ele>
        <time>2020-07-27T10:19:01Z</time>
      </trkpt>
      <trkpt lat="42.9355100" lon="-0.0487610">
        <ele>520.8</ele>
        <time>2020-07-27T10:19:03Z</time>
      </trkpt>
      <trkpt lat="42.9356140" lon="-0.0487730">
        <ele>520.0</ele>
        <time>2020-07-27T10:19:04Z</time>
      </trkpt>
      <trkpt lat="42.9357240" lon="-0.0487720">
        <ele>519.6</ele>
        <time>2020-07-27T10:19:05Z</time>
      </trkpt>
      <trkpt lat="42.9359640" lon="-0.0487340">
        <ele>518.8</ele>
        <time>2020-07-27T10:19:07Z</time>
      </trkpt>
      <trkpt lat="42.9360830" lon="-0.0487310">
        <ele>518.4</ele>
        <time>2020-07-27T10:19:08Z</time>
      </trkpt>
      <trkpt lat="42.9363140" lon="-0.0487470">
        <ele>516.8</ele>
        <time>2020-07-27T10:19:10Z</time>
      </trkpt>
      <trkpt lat="42.9364310" lon="-0.0487580">
        <ele>516.2</ele>
        <time>2020-07-27T10:19:11Z</time>
      </trkpt>
      <trkpt lat="42.9365390" lon="-0.0488020">
        <ele>515.8</ele>
        <time>2020-07-27T10:19:12Z</time>
      </trkpt>
      <trkpt lat="42.9366480" lon="-0.0488410">
        <ele>515.4</ele>
        <time>2020-07-27T10:19:13Z</time>
      </trkpt>
      <trkpt lat="42.9367410" lon="-0.0489010">
        <ele>515.2</ele>
        <time>2020-07-27T10:19:14Z</time>
      </trkpt>
      <trkpt lat="42.9368140" lon="-0.0489940">
        <ele>514.8</ele>
        <time>2020-07-27T10:19:15Z</time>
      </trkpt>
      <trkpt lat="42.9368770" lon="-0.0491190">
        <ele>514.6</ele>
        <time>2020-07-27T10:19:16Z</time>
      </trkpt>
      <trkpt lat="42.9370250" lon="-0.0493340">
        <ele>513.2</ele>
        <time>2020-07-27T10:19:18Z</time>
      </trkpt>
      <trkpt lat="42.9372120" lon="-0.0495130">
        <ele>512.0</ele>
        <time>2020-07-27T10:19:20Z</time>
      </trkpt>
      <trkpt lat="42.9376020" lon="-0.0498150">
        <ele>511.0</ele>
        <time>2020-07-27T10:19:24Z</time>
      </trkpt>
      <trkpt lat="42.9379300" lon="-0.0499820">
        <ele>510.0</ele>
        <time>2020-07-27T10:19:27Z</time>
      </trkpt>
      <trkpt lat="42.9381500" lon="-0.0500840">
        <ele>508.4</ele>
        <time>2020-07-27T10:19:29Z</time>
      </trkpt>
      <trkpt lat="42.9383620" lon="-0.0501910">
        <ele>507.6</ele>
        <time>2020-07-27T10:19:31Z</time>
      </trkpt>
      <trkpt lat="42.9385680" lon="-0.0502990">
        <ele>507.2</ele>
        <time>2020-07-27T10:19:33Z</time>
      </trkpt>
      <trkpt lat="42.9388530" lon="-0.0504950">
        <ele>507.2</ele>
        <time>2020-07-27T10:19:36Z</time>
      </trkpt>
      <trkpt lat="42.9391670" lon="-0.0508650">
        <ele>507.0</ele>
        <time>2020-07-27T10:19:40Z</time>
      </trkpt>
      <trkpt lat="42.9393030" lon="-0.0510780">
        <ele>506.8</ele>
        <time>2020-07-27T10:19:42Z</time>
      </trkpt>
      <trkpt lat="42.9394040" lon="-0.0513210">
        <ele>506.0</ele>
        <time>2020-07-27T10:19:44Z</time>
      </trkpt>
      <trkpt lat="42.9394900" lon="-0.0517480">
        <ele>504.6</ele>
        <time>2020-07-27T10:19:47Z</time>
      </trkpt>
      <trkpt lat="42.9395420" lon="-0.0520500">
        <ele>503.0</ele>
        <time>2020-07-27T10:19:49Z</time>
      </trkpt>
      <trkpt lat="42.9396210" lon="-0.0523390">
        <ele>502.2</ele>
        <time>2020-07-27T10:19:51Z</time>
      </trkpt>
      <trkpt lat="42.9396680" lon="-0.0524850">
        <ele>502.0</ele>
        <time>2020-07-27T10:19:52Z</time>
      </trkpt>
      <trkpt lat="42.9398060" lon="-0.0529120">
        <ele>500.4</ele>
        <time>2020-07-27T10:19:55Z</time>
      </trkpt>
      <trkpt lat="42.9398650" lon="-0.0530400">
        <ele>500.0</ele>
        <time>2020-07-27T10:19:56Z</time>
      </trkpt>
      <trkpt lat="42.9399360" lon="-0.0531530">
        <ele>499.8</ele>
        <time>2020-07-27T10:19:57Z</time>
      </trkpt>
      <trkpt lat="42.9400190" lon="-0.0532510">
        <ele>499.4</ele>
        <time>2020-07-27T10:19:58Z</time>
      </trkpt>
      <trkpt lat="42.9401100" lon="-0.0533340">
        <ele>499.2</ele>
        <time>2020-07-27T10:19:59Z</time>
      </trkpt>
      <trkpt lat="42.9402110" lon="-0.0533810">
        <ele>498.8</ele>
        <time>2020-07-27T10:20:00Z</time>
      </trkpt>
      <trkpt lat="42.9404220" lon="-0.0533710">
        <ele>498.2</ele>
        <time>2020-07-27T10:20:02Z</time>
      </trkpt>
      <trkpt lat="42.9405200" lon="-0.0533210">
        <ele>498.0</ele>
        <time>2020-07-27T10:20:03Z</time>
      </trkpt>
      <trkpt lat="42.9406150" lon="-0.0532400">
        <ele>497.8</ele>
        <time>2020-07-27T10:20:04Z</time>
      </trkpt>
      <trkpt lat="42.9410540" lon="-0.0527240">
        <ele>497.4</ele>
        <time>2020-07-27T10:20:09Z</time>
      </trkpt>
      <trkpt lat="42.9415060" lon="-0.0522830">
        <ele>498.0</ele>
        <time>2020-07-27T10:20:14Z</time>
      </trkpt>
      <trkpt lat="42.9416070" lon="-0.0522170">
        <ele>498.2</ele>
        <time>2020-07-27T10:20:15Z</time>
      </trkpt>
      <trkpt lat="42.9418150" lon="-0.0521420">
        <ele>498.2</ele>
        <time>2020-07-27T10:20:17Z</time>
      </trkpt>
      <trkpt lat="42.9419220" lon="-0.0521370">
        <ele>498.2</ele>
        <time>2020-07-27T10:20:18Z</time>
      </trkpt>
      <trkpt lat="42.9420240" lon="-0.0521550">
        <ele>498.0</ele>
        <time>2020-07-27T10:20:19Z</time>
      </trkpt>
      <trkpt lat="42.9422050" lon="-0.0522580">
        <ele>497.6</ele>
        <time>2020-07-27T10:20:21Z</time>
      </trkpt>
      <trkpt lat="42.9424400" lon="-0.0524780">
        <ele>496.8</ele>
        <time>2020-07-27T10:20:24Z</time>
      </trkpt>
      <trkpt lat="42.9425130" lon="-0.0525640">
        <ele>496.6</ele>
        <time>2020-07-27T10:20:25Z</time>
      </trkpt>
      <trkpt lat="42.9427350" lon="-0.0528160">
        <ele>495.2</ele>
        <time>2020-07-27T10:20:28Z</time>
      </trkpt>
      <trkpt lat="42.9429050" lon="-0.0529470">
        <ele>494.6</ele>
        <time>2020-07-27T10:20:30Z</time>
      </trkpt>
      <trkpt lat="42.9429960" lon="-0.0529940">
        <ele>494.2</ele>
        <time>2020-07-27T10:20:31Z</time>
      </trkpt>
      <trkpt lat="42.9434200" lon="-0.0532440">
        <ele>493.8</ele>
        <time>2020-07-27T10:20:36Z</time>
      </trkpt>
      <trkpt lat="42.9435800" lon="-0.0533480">
        <ele>493.8</ele>
        <time>2020-07-27T10:20:38Z</time>
      </trkpt>
      <trkpt lat="42.9437400" lon="-0.0534420">
        <ele>493.8</ele>
        <time>2020-07-27T10:20:40Z</time>
      </trkpt>
      <trkpt lat="42.9440410" lon="-0.0536680">
        <ele>493.4</ele>
        <time>2020-07-27T10:20:44Z</time>
      </trkpt>
      <trkpt lat="42.9441100" lon="-0.0537380">
        <ele>493.2</ele>
        <time>2020-07-27T10:20:45Z</time>
      </trkpt>
      <trkpt lat="42.9441780" lon="-0.0538100">
        <ele>493.2</ele>
        <time>2020-07-27T10:20:46Z</time>
      </trkpt>
      <trkpt lat="42.9445840" lon="-0.0542460">
        <ele>492.0</ele>
        <time>2020-07-27T10:20:52Z</time>
      </trkpt>
      <trkpt lat="42.9447170" lon="-0.0543970">
        <ele>491.6</ele>
        <time>2020-07-27T10:20:54Z</time>
      </trkpt>
      <trkpt lat="42.9449740" lon="-0.0547140">
        <ele>491.4</ele>
        <time>2020-07-27T10:20:58Z</time>
      </trkpt>
      <trkpt lat="42.9452240" lon="-0.0550490">
        <ele>491.0</ele>
        <time>2020-07-27T10:21:02Z</time>
      </trkpt>
      <trkpt lat="42.9452860" lon="-0.0551330">
        <ele>490.8</ele>
        <time>2020-07-27T10:21:03Z</time>
      </trkpt>
      <trkpt lat="42.9455390" lon="-0.0554610">
        <ele>490.0</ele>
        <time>2020-07-27T10:21:07Z</time>
      </trkpt>
      <trkpt lat="42.9459460" lon="-0.0559350">
        <ele>489.8</ele>
        <time>2020-07-27T10:21:13Z</time>
      </trkpt>
      <trkpt lat="42.9460170" lon="-0.0560120">
        <ele>489.8</ele>
        <time>2020-07-27T10:21:14Z</time>
      </trkpt>
      <trkpt lat="42.9462950" lon="-0.0563340">
        <ele>488.8</ele>
        <time>2020-07-27T10:21:18Z</time>
      </trkpt>
      <trkpt lat="42.9465100" lon="-0.0565700">
        <ele>488.2</ele>
        <time>2020-07-27T10:21:21Z</time>
      </trkpt>
      <trkpt lat="42.9468180" lon="-0.0570100">
        <ele>488.0</ele>
        <time>2020-07-27T10:21:26Z</time>
      </trkpt>
      <trkpt lat="42.9469560" lon="-0.0573250">
        <ele>487.6</ele>
        <time>2020-07-27T10:21:29Z</time>
      </trkpt>
      <trkpt lat="42.9470270" lon="-0.0575530">
        <ele>486.8</ele>
        <time>2020-07-27T10:21:31Z</time>
      </trkpt>
      <trkpt lat="42.9470780" lon="-0.0577950">
        <ele>486.4</ele>
        <time>2020-07-27T10:21:33Z</time>
      </trkpt>
      <trkpt lat="42.9471620" lon="-0.0582830">
        <ele>485.6</ele>
        <time>2020-07-27T10:21:37Z</time>
      </trkpt>
      <trkpt lat="42.9471810" lon="-0.0584060">
        <ele>485.2</ele>
        <time>2020-07-27T10:21:38Z</time>
      </trkpt>
      <trkpt lat="42.9473630" lon="-0.0591250">
        <ele>484.6</ele>
        <time>2020-07-27T10:21:44Z</time>
      </trkpt>
      <trkpt lat="42.9474020" lon="-0.0592430">
        <ele>484.2</ele>
        <time>2020-07-27T10:21:45Z</time>
      </trkpt>
      <trkpt lat="42.9476330" lon="-0.0598100">
        <ele>483.0</ele>
        <time>2020-07-27T10:21:50Z</time>
      </trkpt>
      <trkpt lat="42.9476910" lon="-0.0599130">
        <ele>482.8</ele>
        <time>2020-07-27T10:21:51Z</time>
      </trkpt>
      <trkpt lat="42.9477530" lon="-0.0600110">
        <ele>482.6</ele>
        <time>2020-07-27T10:21:52Z</time>
      </trkpt>
      <trkpt lat="42.9478800" lon="-0.0602060">
        <ele>482.0</ele>
        <time>2020-07-27T10:21:54Z</time>
      </trkpt>
      <trkpt lat="42.9480580" lon="-0.0604960">
        <ele>480.8</ele>
        <time>2020-07-27T10:21:57Z</time>
      </trkpt>
      <trkpt lat="42.9481170" lon="-0.0605890">
        <ele>480.6</ele>
        <time>2020-07-27T10:21:58Z</time>
      </trkpt>
      <trkpt lat="42.9483750" lon="-0.0610680">
        <ele>480.2</ele>
        <time>2020-07-27T10:22:03Z</time>
      </trkpt>
      <trkpt lat="42.9484720" lon="-0.0612580">
        <ele>480.2</ele>
        <time>2020-07-27T10:22:05Z</time>
      </trkpt>
      <trkpt lat="42.9486150" lon="-0.0615520">
        <ele>480.0</ele>
        <time>2020-07-27T10:22:08Z</time>
      </trkpt>
      <trkpt lat="42.9487600" lon="-0.0618470">
        <ele>479.6</ele>
        <time>2020-07-27T10:22:11Z</time>
      </trkpt>
      <trkpt lat="42.9488960" lon="-0.0621410">
        <ele>478.8</ele>
        <time>2020-07-27T10:22:14Z</time>
      </trkpt>
      <trkpt lat="42.9489400" lon="-0.0622380">
        <ele>478.6</ele>
        <time>2020-07-27T10:22:15Z</time>
      </trkpt>
      <trkpt lat="42.9489880" lon="-0.0623330">
        <ele>478.4</ele>
        <time>2020-07-27T10:22:16Z</time>
      </trkpt>
      <trkpt lat="42.9492850" lon="-0.0628590">
        <ele>478.8</ele>
        <time>2020-07-27T10:22:22Z</time>
      </trkpt>
      <trkpt lat="42.9495690" lon="-0.0634110">
        <ele>478.6</ele>
        <time>2020-07-27T10:22:28Z</time>
      </trkpt>
      <trkpt lat="42.9496120" lon="-0.0635100">
        <ele>478.4</ele>
        <time>2020-07-27T10:22:29Z</time>
      </trkpt>
      <trkpt lat="42.9497320" lon="-0.0638250">
        <ele>477.6</ele>
        <time>2020-07-27T10:22:32Z</time>
      </trkpt>
      <trkpt lat="42.9497710" lon="-0.0639360">
        <ele>477.4</ele>
        <time>2020-07-27T10:22:33Z</time>
      </trkpt>
      <trkpt lat="42.9498490" lon="-0.0641580">
        <ele>477.0</ele>
        <time>2020-07-27T10:22:35Z</time>
      </trkpt>
      <trkpt lat="42.9499290" lon="-0.0643770">
        <ele>476.8</ele>
        <time>2020-07-27T10:22:37Z</time>
      </trkpt>
      <trkpt lat="42.9500510" lon="-0.0648170">
        <ele>476.4</ele>
        <time>2020-07-27T10:22:41Z</time>
      </trkpt>
      <trkpt lat="42.9500790" lon="-0.0649270">
        <ele>476.2</ele>
        <time>2020-07-27T10:22:42Z</time>
      </trkpt>
      <trkpt lat="42.9502240" lon="-0.0655340">
        <ele>475.4</ele>
        <time>2020-07-27T10:22:48Z</time>
      </trkpt>
      <trkpt lat="42.9503110" lon="-0.0659030">
        <ele>476.4</ele>
        <time>2020-07-27T10:22:52Z</time>
      </trkpt>
      <trkpt lat="42.9503720" lon="-0.0661900">
        <ele>477.8</ele>
        <time>2020-07-27T10:22:55Z</time>
      </trkpt>
      <trkpt lat="42.9503920" lon="-0.0662870">
        <ele>478.0</ele>
        <time>2020-07-27T10:22:56Z</time>
      </trkpt>
      <trkpt lat="42.9505170" lon="-0.0668480">
        <ele>478.0</ele>
        <time>2020-07-27T10:23:02Z</time>
      </trkpt>
      <trkpt lat="42.9506110" lon="-0.0672090">
        <ele>477.2</ele>
        <time>2020-07-27T10:23:06Z</time>
      </trkpt>
      <trkpt lat="42.9506590" lon="-0.0672820">
        <ele>477.0</ele>
        <time>2020-07-27T10:23:07Z</time>
      </trkpt>
      <trkpt lat="42.9507800" lon="-0.0673520">
        <ele>477.0</ele>
        <time>2020-07-27T10:23:09Z</time>
      </trkpt>
      <trkpt lat="42.9508510" lon="-0.0673430">
        <ele>476.8</ele>
        <time>2020-07-27T10:23:10Z</time>
      </trkpt>
      <trkpt lat="42.9509180" lon="-0.0673440">
        <ele>476.8</ele>
        <time>2020-07-27T10:23:11Z</time>
      </trkpt>
      <trkpt lat="42.9509800" lon="-0.0673720">
        <ele>476.6</ele>
        <time>2020-07-27T10:23:12Z</time>
      </trkpt>
      <trkpt lat="42.9510340" lon="-0.0674260">
        <ele>476.4</ele>
        <time>2020-07-27T10:23:13Z</time>
      </trkpt>
      <trkpt lat="42.9510770" lon="-0.0675980">
        <ele>476.4</ele>
        <time>2020-07-27T10:23:15Z</time>
      </trkpt>
      <trkpt lat="42.9510390" lon="-0.0679080">
        <ele>476.2</ele>
        <time>2020-07-27T10:23:18Z</time>
      </trkpt>
      <trkpt lat="42.9510770" lon="-0.0681100">
        <ele>476.2</ele>
        <time>2020-07-27T10:23:20Z</time>
      </trkpt>
      <trkpt lat="42.9511170" lon="-0.0681990">
        <ele>476.2</ele>
        <time>2020-07-27T10:23:21Z</time>
      </trkpt>
      <trkpt lat="42.9511650" lon="-0.0682770">
        <ele>476.6</ele>
        <time>2020-07-27T10:23:22Z</time>
      </trkpt>
      <trkpt lat="42.9512920" lon="-0.0685160">
        <ele>478.0</ele>
        <time>2020-07-27T10:23:25Z</time>
      </trkpt>
      <trkpt lat="42.9513280" lon="-0.0685970">
        <ele>478.2</ele>
        <time>2020-07-27T10:23:26Z</time>
      </trkpt>
      <trkpt lat="42.9515090" lon="-0.0691070">
        <ele>478.0</ele>
        <time>2020-07-27T10:23:32Z</time>
      </trkpt>
      <trkpt lat="42.9515370" lon="-0.0691920">
        <ele>477.8</ele>
        <time>2020-07-27T10:23:33Z</time>
      </trkpt>
      <trkpt lat="42.9516640" lon="-0.0695300">
        <ele>478.0</ele>
        <time>2020-07-27T10:23:37Z</time>
      </trkpt>
      <trkpt lat="42.9517710" lon="-0.0696640">
        <ele>477.8</ele>
        <time>2020-07-27T10:23:39Z</time>
      </trkpt>
      <trkpt lat="42.9519810" lon="-0.0697990">
        <ele>477.6</ele>
        <time>2020-07-27T10:23:42Z</time>
      </trkpt>
      <trkpt lat="42.9520590" lon="-0.0698300">
        <ele>477.4</ele>
        <time>2020-07-27T10:23:43Z</time>
      </trkpt>
      <trkpt lat="42.9522210" lon="-0.0698660">
        <ele>477.4</ele>
        <time>2020-07-27T10:23:45Z</time>
      </trkpt>
      <trkpt lat="42.9523860" lon="-0.0698800">
        <ele>476.8</ele>
        <time>2020-07-27T10:23:47Z</time>
      </trkpt>
      <trkpt lat="42.9526410" lon="-0.0699460">
        <ele>475.2</ele>
        <time>2020-07-27T10:23:50Z</time>
      </trkpt>
      <trkpt lat="42.9528070" lon="-0.0700250">
        <ele>473.8</ele>
        <time>2020-07-27T10:23:52Z</time>
      </trkpt>
      <trkpt lat="42.9532340" lon="-0.0702340">
        <ele>472.8</ele>
        <time>2020-07-27T10:23:57Z</time>
      </trkpt>
      <trkpt lat="42.9534040" lon="-0.0703270">
        <ele>473.2</ele>
        <time>2020-07-27T10:23:59Z</time>
      </trkpt>
      <trkpt lat="42.9538730" lon="-0.0706060">
        <ele>474.2</ele>
        <time>2020-07-27T10:24:05Z</time>
      </trkpt>
      <trkpt lat="42.9539420" lon="-0.0706470">
        <ele>474.4</ele>
        <time>2020-07-27T10:24:06Z</time>
      </trkpt>
      <trkpt lat="42.9542090" lon="-0.0708150">
        <ele>475.2</ele>
        <time>2020-07-27T10:24:10Z</time>
      </trkpt>
      <trkpt lat="42.9543940" lon="-0.0709470">
        <ele>475.8</ele>
        <time>2020-07-27T10:24:13Z</time>
      </trkpt>
      <trkpt lat="42.9545820" lon="-0.0710810">
        <ele>476.2</ele>
        <time>2020-07-27T10:24:16Z</time>
      </trkpt>
      <trkpt lat="42.9548740" lon="-0.0713510">
        <ele>477.2</ele>
        <time>2020-07-27T10:24:21Z</time>
      </trkpt>
      <trkpt lat="42.9549270" lon="-0.0714130">
        <ele>477.4</ele>
        <time>2020-07-27T10:24:22Z</time>
      </trkpt>
      <trkpt lat="42.9551750" lon="-0.0717410">
        <ele>478.4</ele>
        <time>2020-07-27T10:24:27Z</time>
      </trkpt>
      <trkpt lat="42.9552210" lon="-0.0718120">
        <ele>478.4</ele>
        <time>2020-07-27T10:24:28Z</time>
      </trkpt>
      <trkpt lat="42.9554980" lon="-0.0722260">
        <ele>479.2</ele>
        <time>2020-07-27T10:24:34Z</time>
      </trkpt>
      <trkpt lat="42.9555450" lon="-0.0722910">
        <ele>479.6</ele>
        <time>2020-07-27T10:24:35Z</time>
      </trkpt>
      <trkpt lat="42.9557280" lon="-0.0725510">
        <ele>479.8</ele>
        <time>2020-07-27T10:24:39Z</time>
      </trkpt>
      <trkpt lat="42.9559010" lon="-0.0728150">
        <ele>480.0</ele>
        <time>2020-07-27T10:24:43Z</time>
      </trkpt>
      <trkpt lat="42.9560190" lon="-0.0730080">
        <ele>480.6</ele>
        <time>2020-07-27T10:24:46Z</time>
      </trkpt>
      <trkpt lat="42.9561380" lon="-0.0731940">
        <ele>481.6</ele>
        <time>2020-07-27T10:24:49Z</time>
      </trkpt>
      <trkpt lat="42.9562150" lon="-0.0733150">
        <ele>482.4</ele>
        <time>2020-07-27T10:24:51Z</time>
      </trkpt>
      <trkpt lat="42.9562520" lon="-0.0733780">
        <ele>482.8</ele>
        <time>2020-07-27T10:24:52Z</time>
      </trkpt>
      <trkpt lat="42.9563630" lon="-0.0735490">
        <ele>483.2</ele>
        <time>2020-07-27T10:24:55Z</time>
      </trkpt>
      <trkpt lat="42.9564340" lon="-0.0736620">
        <ele>483.8</ele>
        <time>2020-07-27T10:24:57Z</time>
      </trkpt>
      <trkpt lat="42.9565000" lon="-0.0737840">
        <ele>484.2</ele>
        <time>2020-07-27T10:24:59Z</time>
      </trkpt>
      <trkpt lat="42.9565940" lon="-0.0739680">
        <ele>485.2</ele>
        <time>2020-07-27T10:25:02Z</time>
      </trkpt>
      <trkpt lat="42.9567050" lon="-0.0742090">
        <ele>486.0</ele>
        <time>2020-07-27T10:25:06Z</time>
      </trkpt>
      <trkpt lat="42.9567290" lon="-0.0742750">
        <ele>486.4</ele>
        <time>2020-07-27T10:25:07Z</time>
      </trkpt>
      <trkpt lat="42.9568000" lon="-0.0745380">
        <ele>487.4</ele>
        <time>2020-07-27T10:25:11Z</time>
      </trkpt>
      <trkpt lat="42.9568320" lon="-0.0746740">
        <ele>488.0</ele>
        <time>2020-07-27T10:25:13Z</time>
      </trkpt>
      <trkpt lat="42.9568670" lon="-0.0748090">
        <ele>489.0</ele>
        <time>2020-07-27T10:25:15Z</time>
      </trkpt>
      <trkpt lat="42.9569230" lon="-0.0749270">
        <ele>489.6</ele>
        <time>2020-07-27T10:25:17Z</time>
      </trkpt>
      <trkpt lat="42.9569620" lon="-0.0749770">
        <ele>489.8</ele>
        <time>2020-07-27T10:25:18Z</time>
      </trkpt>
      <trkpt lat="42.9570030" lon="-0.0750200">
        <ele>490.0</ele>
        <time>2020-07-27T10:25:19Z</time>
      </trkpt>
      <trkpt lat="42.9571470" lon="-0.0751050">
        <ele>490.4</ele>
        <time>2020-07-27T10:25:22Z</time>
      </trkpt>
      <trkpt lat="42.9571970" lon="-0.0751170">
        <ele>490.4</ele>
        <time>2020-07-27T10:25:23Z</time>
      </trkpt>
      <trkpt lat="42.9572980" lon="-0.0751220">
        <ele>490.4</ele>
        <time>2020-07-27T10:25:25Z</time>
      </trkpt>
      <trkpt lat="42.9573470" lon="-0.0751170">
        <ele>490.2</ele>
        <time>2020-07-27T10:25:26Z</time>
      </trkpt>
      <trkpt lat="42.9575940" lon="-0.0750280">
        <ele>490.2</ele>
        <time>2020-07-27T10:25:30Z</time>
      </trkpt>
      <trkpt lat="42.9578040" lon="-0.0749540">
        <ele>488.6</ele>
        <time>2020-07-27T10:25:33Z</time>
      </trkpt>
      <trkpt lat="42.9578780" lon="-0.0749290">
        <ele>487.6</ele>
        <time>2020-07-27T10:25:34Z</time>
      </trkpt>
      <trkpt lat="42.9579520" lon="-0.0749140">
        <ele>486.6</ele>
        <time>2020-07-27T10:25:35Z</time>
      </trkpt>
      <trkpt lat="42.9580240" lon="-0.0748960">
        <ele>486.2</ele>
        <time>2020-07-27T10:25:36Z</time>
      </trkpt>
      <trkpt lat="42.9580930" lon="-0.0748700">
        <ele>485.8</ele>
        <time>2020-07-27T10:25:37Z</time>
      </trkpt>
      <trkpt lat="42.9581600" lon="-0.0748360">
        <ele>485.6</ele>
        <time>2020-07-27T10:25:38Z</time>
      </trkpt>
      <trkpt lat="42.9582970" lon="-0.0747500">
        <ele>485.0</ele>
        <time>2020-07-27T10:25:40Z</time>
      </trkpt>
      <trkpt lat="42.9585190" lon="-0.0746200">
        <ele>483.6</ele>
        <time>2020-07-27T10:25:43Z</time>
      </trkpt>
      <trkpt lat="42.9586800" lon="-0.0745430">
        <ele>482.6</ele>
        <time>2020-07-27T10:25:45Z</time>
      </trkpt>
      <trkpt lat="42.9587620" lon="-0.0745130">
        <ele>482.4</ele>
        <time>2020-07-27T10:25:46Z</time>
      </trkpt>
      <trkpt lat="42.9588450" lon="-0.0744960">
        <ele>482.0</ele>
        <time>2020-07-27T10:25:47Z</time>
      </trkpt>
      <trkpt lat="42.9590110" lon="-0.0744850">
        <ele>481.6</ele>
        <time>2020-07-27T10:25:49Z</time>
      </trkpt>
      <trkpt lat="42.9590980" lon="-0.0744730">
        <ele>481.2</ele>
        <time>2020-07-27T10:25:50Z</time>
      </trkpt>
      <trkpt lat="42.9592730" lon="-0.0744520">
        <ele>481.0</ele>
        <time>2020-07-27T10:25:52Z</time>
      </trkpt>
      <trkpt lat="42.9596170" lon="-0.0744540">
        <ele>480.0</ele>
        <time>2020-07-27T10:25:56Z</time>
      </trkpt>
      <trkpt lat="42.9597950" lon="-0.0744720">
        <ele>478.6</ele>
        <time>2020-07-27T10:25:58Z</time>
      </trkpt>
      <trkpt lat="42.9600660" lon="-0.0744700">
        <ele>477.2</ele>
        <time>2020-07-27T10:26:01Z</time>
      </trkpt>
      <trkpt lat="42.9601570" lon="-0.0744630">
        <ele>476.8</ele>
        <time>2020-07-27T10:26:02Z</time>
      </trkpt>
      <trkpt lat="42.9603540" lon="-0.0744640">
        <ele>475.8</ele>
        <time>2020-07-27T10:26:04Z</time>
      </trkpt>
      <trkpt lat="42.9605550" lon="-0.0744640">
        <ele>474.8</ele>
        <time>2020-07-27T10:26:06Z</time>
      </trkpt>
      <trkpt lat="42.9607660" lon="-0.0744590">
        <ele>473.8</ele>
        <time>2020-07-27T10:26:08Z</time>
      </trkpt>
      <trkpt lat="42.9608690" lon="-0.0744580">
        <ele>473.4</ele>
        <time>2020-07-27T10:26:09Z</time>
      </trkpt>
      <trkpt lat="42.9611880" lon="-0.0744580">
        <ele>472.0</ele>
        <time>2020-07-27T10:26:12Z</time>
      </trkpt>
      <trkpt lat="42.9614000" lon="-0.0744620">
        <ele>471.0</ele>
        <time>2020-07-27T10:26:14Z</time>
      </trkpt>
      <trkpt lat="42.9616010" lon="-0.0744630">
        <ele>469.8</ele>
        <time>2020-07-27T10:26:16Z</time>
      </trkpt>
      <trkpt lat="42.9619710" lon="-0.0744570">
        <ele>469.6</ele>
        <time>2020-07-27T10:26:20Z</time>
      </trkpt>
      <trkpt lat="42.9621460" lon="-0.0744530">
        <ele>470.0</ele>
        <time>2020-07-27T10:26:22Z</time>
      </trkpt>
      <trkpt lat="42.9625980" lon="-0.0744400">
        <ele>469.8</ele>
        <time>2020-07-27T10:26:27Z</time>
      </trkpt>
      <trkpt lat="42.9626880" lon="-0.0744400">
        <ele>469.4</ele>
        <time>2020-07-27T10:26:28Z</time>
      </trkpt>
      <trkpt lat="42.9627760" lon="-0.0744410">
        <ele>469.2</ele>
        <time>2020-07-27T10:26:29Z</time>
      </trkpt>
      <trkpt lat="42.9629550" lon="-0.0744430">
        <ele>468.8</ele>
        <time>2020-07-27T10:26:31Z</time>
      </trkpt>
      <trkpt lat="42.9633070" lon="-0.0744310">
        <ele>467.8</ele>
        <time>2020-07-27T10:26:35Z</time>
      </trkpt>
      <trkpt lat="42.9635700" lon="-0.0743790">
        <ele>466.6</ele>
        <time>2020-07-27T10:26:38Z</time>
      </trkpt>
      <trkpt lat="42.9637440" lon="-0.0743280">
        <ele>465.6</ele>
        <time>2020-07-27T10:26:40Z</time>
      </trkpt>
      <trkpt lat="42.9639230" lon="-0.0742770">
        <ele>464.4</ele>
        <time>2020-07-27T10:26:42Z</time>
      </trkpt>
      <trkpt lat="42.9640140" lon="-0.0742530">
        <ele>463.8</ele>
        <time>2020-07-27T10:26:43Z</time>
      </trkpt>
      <trkpt lat="42.9643850" lon="-0.0741530">
        <ele>463.0</ele>
        <time>2020-07-27T10:26:47Z</time>
      </trkpt>
      <trkpt lat="42.9644780" lon="-0.0741290">
        <ele>462.8</ele>
        <time>2020-07-27T10:26:48Z</time>
      </trkpt>
      <trkpt lat="42.9646560" lon="-0.0740750">
        <ele>462.2</ele>
        <time>2020-07-27T10:26:50Z</time>
      </trkpt>
      <trkpt lat="42.9647440" lon="-0.0740470">
        <ele>461.8</ele>
        <time>2020-07-27T10:26:51Z</time>
      </trkpt>
      <trkpt lat="42.9651040" lon="-0.0739370">
        <ele>460.6</ele>
        <time>2020-07-27T10:26:55Z</time>
      </trkpt>
      <trkpt lat="42.9653650" lon="-0.0738510">
        <ele>460.0</ele>
        <time>2020-07-27T10:26:58Z</time>
      </trkpt>
      <trkpt lat="42.9655470" lon="-0.0737950">
        <ele>459.6</ele>
        <time>2020-07-27T10:27:00Z</time>
      </trkpt>
      <trkpt lat="42.9657990" lon="-0.0736990">
        <ele>459.6</ele>
        <time>2020-07-27T10:27:03Z</time>
      </trkpt>
      <trkpt lat="42.9658820" lon="-0.0736450">
        <ele>459.8</ele>
        <time>2020-07-27T10:27:04Z</time>
      </trkpt>
      <trkpt lat="42.9659530" lon="-0.0735710">
        <ele>459.6</ele>
        <time>2020-07-27T10:27:05Z</time>
      </trkpt>
      <trkpt lat="42.9660490" lon="-0.0733820">
        <ele>459.4</ele>
        <time>2020-07-27T10:27:07Z</time>
      </trkpt>
      <trkpt lat="42.9660990" lon="-0.0733040">
        <ele>459.0</ele>
        <time>2020-07-27T10:27:08Z</time>
      </trkpt>
      <trkpt lat="42.9661620" lon="-0.0732550">
        <ele>458.6</ele>
        <time>2020-07-27T10:27:09Z</time>
      </trkpt>
      <trkpt lat="42.9662380" lon="-0.0732510">
        <ele>458.4</ele>
        <time>2020-07-27T10:27:10Z</time>
      </trkpt>
      <trkpt lat="42.9663130" lon="-0.0732860">
        <ele>458.2</ele>
        <time>2020-07-27T10:27:11Z</time>
      </trkpt>
      <trkpt lat="42.9663850" lon="-0.0733430">
        <ele>458.2</ele>
        <time>2020-07-27T10:27:12Z</time>
      </trkpt>
      <trkpt lat="42.9665370" lon="-0.0734390">
        <ele>458.2</ele>
        <time>2020-07-27T10:27:14Z</time>
      </trkpt>
      <trkpt lat="42.9666180" lon="-0.0734650">
        <ele>458.0</ele>
        <time>2020-07-27T10:27:15Z</time>
      </trkpt>
      <trkpt lat="42.9668700" lon="-0.0735140">
        <ele>457.0</ele>
        <time>2020-07-27T10:27:18Z</time>
      </trkpt>
      <trkpt lat="42.9669540" lon="-0.0735330">
        <ele>456.6</ele>
        <time>2020-07-27T10:27:19Z</time>
      </trkpt>
      <trkpt lat="42.9670380" lon="-0.0735540">
        <ele>456.2</ele>
        <time>2020-07-27T10:27:20Z</time>
      </trkpt>
      <trkpt lat="42.9671210" lon="-0.0735800">
        <ele>455.8</ele>
        <time>2020-07-27T10:27:21Z</time>
      </trkpt>
      <trkpt lat="42.9672060" lon="-0.0736030">
        <ele>455.6</ele>
        <time>2020-07-27T10:27:22Z</time>
      </trkpt>
      <trkpt lat="42.9674610" lon="-0.0736890">
        <ele>454.8</ele>
        <time>2020-07-27T10:27:25Z</time>
      </trkpt>
      <trkpt lat="42.9678900" lon="-0.0738320">
        <ele>453.6</ele>
        <time>2020-07-27T10:27:30Z</time>
      </trkpt>
      <trkpt lat="42.9682400" lon="-0.0739360">
        <ele>453.2</ele>
        <time>2020-07-27T10:27:34Z</time>
      </trkpt>
      <trkpt lat="42.9685000" lon="-0.0740090">
        <ele>452.6</ele>
        <time>2020-07-27T10:27:37Z</time>
      </trkpt>
      <trkpt lat="42.9685860" lon="-0.0740330">
        <ele>452.2</ele>
        <time>2020-07-27T10:27:38Z</time>
      </trkpt>
      <trkpt lat="42.9688380" lon="-0.0741090">
        <ele>452.2</ele>
        <time>2020-07-27T10:27:41Z</time>
      </trkpt>
      <trkpt lat="42.9690950" lon="-0.0741840">
        <ele>452.2</ele>
        <time>2020-07-27T10:27:44Z</time>
      </trkpt>
      <trkpt lat="42.9692680" lon="-0.0742300">
        <ele>452.2</ele>
        <time>2020-07-27T10:27:46Z</time>
      </trkpt>
      <trkpt lat="42.9694400" lon="-0.0742770">
        <ele>451.6</ele>
        <time>2020-07-27T10:27:48Z</time>
      </trkpt>
      <trkpt lat="42.9695270" lon="-0.0743020">
        <ele>451.2</ele>
        <time>2020-07-27T10:27:49Z</time>
      </trkpt>
      <trkpt lat="42.9698850" lon="-0.0744050">
        <ele>450.2</ele>
        <time>2020-07-27T10:27:53Z</time>
      </trkpt>
      <trkpt lat="42.9701580" lon="-0.0744850">
        <ele>449.4</ele>
        <time>2020-07-27T10:27:56Z</time>
      </trkpt>
      <trkpt lat="42.9703420" lon="-0.0745380">
        <ele>449.0</ele>
        <time>2020-07-27T10:27:58Z</time>
      </trkpt>
      <trkpt lat="42.9706290" lon="-0.0746110">
        <ele>447.8</ele>
        <time>2020-07-27T10:28:01Z</time>
      </trkpt>
      <trkpt lat="42.9708240" lon="-0.0746640">
        <ele>447.2</ele>
        <time>2020-07-27T10:28:03Z</time>
      </trkpt>
      <trkpt lat="42.9710120" lon="-0.0747200">
        <ele>446.6</ele>
        <time>2020-07-27T10:28:05Z</time>
      </trkpt>
      <trkpt lat="42.9713740" lon="-0.0748440">
        <ele>445.4</ele>
        <time>2020-07-27T10:28:09Z</time>
      </trkpt>
      <trkpt lat="42.9715520" lon="-0.0749240">
        <ele>444.8</ele>
        <time>2020-07-27T10:28:11Z</time>
      </trkpt>
      <trkpt lat="42.9718160" lon="-0.0750460">
        <ele>444.4</ele>
        <time>2020-07-27T10:28:14Z</time>
      </trkpt>
      <trkpt lat="42.9723410" lon="-0.0753040">
        <ele>443.4</ele>
        <time>2020-07-27T10:28:20Z</time>
      </trkpt>
      <trkpt lat="42.9724260" lon="-0.0753490">
        <ele>443.2</ele>
        <time>2020-07-27T10:28:21Z</time>
      </trkpt>
      <trkpt lat="42.9729470" lon="-0.0755940">
        <ele>443.0</ele>
        <time>2020-07-27T10:28:27Z</time>
      </trkpt>
      <trkpt lat="42.9730330" lon="-0.0756370">
        <ele>442.8</ele>
        <time>2020-07-27T10:28:28Z</time>
      </trkpt>
      <trkpt lat="42.9732050" lon="-0.0757270">
        <ele>442.2</ele>
        <time>2020-07-27T10:28:30Z</time>
      </trkpt>
      <trkpt lat="42.9733800" lon="-0.0758140">
        <ele>442.0</ele>
        <time>2020-07-27T10:28:32Z</time>
      </trkpt>
      <trkpt lat="42.9737250" lon="-0.0760040">
        <ele>442.2</ele>
        <time>2020-07-27T10:28:36Z</time>
      </trkpt>
      <trkpt lat="42.9738830" lon="-0.0761320">
        <ele>442.0</ele>
        <time>2020-07-27T10:28:38Z</time>
      </trkpt>
      <trkpt lat="42.9741060" lon="-0.0763490">
        <ele>441.4</ele>
        <time>2020-07-27T10:28:41Z</time>
      </trkpt>
      <trkpt lat="42.9742440" lon="-0.0765120">
        <ele>441.2</ele>
        <time>2020-07-27T10:28:43Z</time>
      </trkpt>
      <trkpt lat="42.9744310" lon="-0.0767790">
        <ele>440.8</ele>
        <time>2020-07-27T10:28:46Z</time>
      </trkpt>
      <trkpt lat="42.9744900" lon="-0.0768720">
        <ele>440.8</ele>
        <time>2020-07-27T10:28:47Z</time>
      </trkpt>
      <trkpt lat="42.9746430" lon="-0.0771730">
        <ele>440.8</ele>
        <time>2020-07-27T10:28:50Z</time>
      </trkpt>
      <trkpt lat="42.9746870" lon="-0.0772790">
        <ele>440.6</ele>
        <time>2020-07-27T10:28:51Z</time>
      </trkpt>
      <trkpt lat="42.9748130" lon="-0.0776040">
        <ele>440.4</ele>
        <time>2020-07-27T10:28:54Z</time>
      </trkpt>
      <trkpt lat="42.9750680" lon="-0.0782350">
        <ele>440.2</ele>
        <time>2020-07-27T10:29:00Z</time>
      </trkpt>
      <trkpt lat="42.9751570" lon="-0.0784390">
        <ele>440.2</ele>
        <time>2020-07-27T10:29:02Z</time>
      </trkpt>
      <trkpt lat="42.9752470" lon="-0.0786430">
        <ele>440.2</ele>
        <time>2020-07-27T10:29:04Z</time>
      </trkpt>
      <trkpt lat="42.9754420" lon="-0.0790280">
        <ele>440.0</ele>
        <time>2020-07-27T10:29:08Z</time>
      </trkpt>
      <trkpt lat="42.9757880" lon="-0.0795300">
        <ele>440.0</ele>
        <time>2020-07-27T10:29:14Z</time>
      </trkpt>
      <trkpt lat="42.9758530" lon="-0.0796030">
        <ele>439.8</ele>
        <time>2020-07-27T10:29:15Z</time>
      </trkpt>
      <trkpt lat="42.9762600" lon="-0.0800270">
        <ele>439.2</ele>
        <time>2020-07-27T10:29:21Z</time>
      </trkpt>
      <trkpt lat="42.9763980" lon="-0.0801700">
        <ele>439.2</ele>
        <time>2020-07-27T10:29:23Z</time>
      </trkpt>
      <trkpt lat="42.9764680" lon="-0.0802410">
        <ele>439.0</ele>
        <time>2020-07-27T10:29:24Z</time>
      </trkpt>
      <trkpt lat="42.9768900" lon="-0.0806600">
        <ele>438.0</ele>
        <time>2020-07-27T10:29:30Z</time>
      </trkpt>
      <trkpt lat="42.9771060" lon="-0.0808560">
        <ele>437.6</ele>
        <time>2020-07-27T10:29:33Z</time>
      </trkpt>
      <trkpt lat="42.9775480" lon="-0.0812210">
        <ele>437.6</ele>
        <time>2020-07-27T10:29:39Z</time>
      </trkpt>
      <trkpt lat="42.9778420" lon="-0.0814620">
        <ele>437.4</ele>
        <time>2020-07-27T10:29:43Z</time>
      </trkpt>
      <trkpt lat="42.9782800" lon="-0.0818180">
        <ele>437.4</ele>
        <time>2020-07-27T10:29:49Z</time>
      </trkpt>
      <trkpt lat="42.9784230" lon="-0.0819400">
        <ele>437.4</ele>
        <time>2020-07-27T10:29:51Z</time>
      </trkpt>
      <trkpt lat="42.9787940" lon="-0.0822290">
        <ele>437.2</ele>
        <time>2020-07-27T10:29:56Z</time>
      </trkpt>
      <trkpt lat="42.9788660" lon="-0.0822870">
        <ele>436.8</ele>
        <time>2020-07-27T10:29:57Z</time>
      </trkpt>
      <trkpt lat="42.9791600" lon="-0.0825170">
        <ele>436.2</ele>
        <time>2020-07-27T10:30:01Z</time>
      </trkpt>
      <trkpt lat="42.9795890" lon="-0.0828820">
        <ele>436.2</ele>
        <time>2020-07-27T10:30:07Z</time>
      </trkpt>
      <trkpt lat="42.9798700" lon="-0.0831310">
        <ele>435.8</ele>
        <time>2020-07-27T10:30:11Z</time>
      </trkpt>
      <trkpt lat="42.9799380" lon="-0.0831960">
        <ele>435.8</ele>
        <time>2020-07-27T10:30:12Z</time>
      </trkpt>
      <trkpt lat="42.9803460" lon="-0.0836050">
        <ele>435.6</ele>
        <time>2020-07-27T10:30:18Z</time>
      </trkpt>
      <trkpt lat="42.9804150" lon="-0.0836750">
        <ele>435.4</ele>
        <time>2020-07-27T10:30:19Z</time>
      </trkpt>
      <trkpt lat="42.9808370" lon="-0.0840810">
        <ele>435.0</ele>
        <time>2020-07-27T10:30:25Z</time>
      </trkpt>
      <trkpt lat="42.9809070" lon="-0.0841500">
        <ele>434.8</ele>
        <time>2020-07-27T10:30:26Z</time>
      </trkpt>
      <trkpt lat="42.9809770" lon="-0.0842180">
        <ele>434.6</ele>
        <time>2020-07-27T10:30:27Z</time>
      </trkpt>
      <trkpt lat="42.9813920" lon="-0.0846240">
        <ele>434.2</ele>
        <time>2020-07-27T10:30:33Z</time>
      </trkpt>
      <trkpt lat="42.9814600" lon="-0.0846920">
        <ele>434.2</ele>
        <time>2020-07-27T10:30:34Z</time>
      </trkpt>
      <trkpt lat="42.9818670" lon="-0.0851000">
        <ele>433.8</ele>
        <time>2020-07-27T10:30:40Z</time>
      </trkpt>
      <trkpt lat="42.9820050" lon="-0.0852330">
        <ele>433.8</ele>
        <time>2020-07-27T10:30:42Z</time>
      </trkpt>
      <trkpt lat="42.9821400" lon="-0.0853640">
        <ele>433.6</ele>
        <time>2020-07-27T10:30:44Z</time>
      </trkpt>
      <trkpt lat="42.9824090" lon="-0.0856270">
        <ele>433.6</ele>
        <time>2020-07-27T10:30:48Z</time>
      </trkpt>
      <trkpt lat="42.9826100" lon="-0.0858240">
        <ele>434.2</ele>
        <time>2020-07-27T10:30:51Z</time>
      </trkpt>
      <trkpt lat="42.9828110" lon="-0.0860200">
        <ele>434.2</ele>
        <time>2020-07-27T10:30:54Z</time>
      </trkpt>
      <trkpt lat="42.9832200" lon="-0.0864180">
        <ele>433.2</ele>
        <time>2020-07-27T10:31:00Z</time>
      </trkpt>
      <trkpt lat="42.9834940" lon="-0.0866830">
        <ele>432.6</ele>
        <time>2020-07-27T10:31:04Z</time>
      </trkpt>
      <trkpt lat="42.9837000" lon="-0.0868760">
        <ele>432.4</ele>
        <time>2020-07-27T10:31:07Z</time>
      </trkpt>
      <trkpt lat="42.9838360" lon="-0.0870060">
        <ele>432.4</ele>
        <time>2020-07-27T10:31:09Z</time>
      </trkpt>
      <trkpt lat="42.9841950" lon="-0.0872980">
        <ele>432.6</ele>
        <time>2020-07-27T10:31:14Z</time>
      </trkpt>
      <trkpt lat="42.9842720" lon="-0.0873490">
        <ele>432.4</ele>
        <time>2020-07-27T10:31:15Z</time>
      </trkpt>
      <trkpt lat="42.9845870" lon="-0.0875260">
        <ele>431.8</ele>
        <time>2020-07-27T10:31:19Z</time>
      </trkpt>
      <trkpt lat="42.9847460" lon="-0.0876070">
        <ele>431.4</ele>
        <time>2020-07-27T10:31:21Z</time>
      </trkpt>
      <trkpt lat="42.9852200" lon="-0.0878430">
        <ele>431.0</ele>
        <time>2020-07-27T10:31:27Z</time>
      </trkpt>
      <trkpt lat="42.9856200" lon="-0.0880180">
        <ele>431.0</ele>
        <time>2020-07-27T10:31:32Z</time>
      </trkpt>
      <trkpt lat="42.9861000" lon="-0.0882510">
        <ele>431.0</ele>
        <time>2020-07-27T10:31:38Z</time>
      </trkpt>
      <trkpt lat="42.9861800" lon="-0.0882890">
        <ele>430.4</ele>
        <time>2020-07-27T10:31:39Z</time>
      </trkpt>
      <trkpt lat="42.9862600" lon="-0.0883270">
        <ele>429.8</ele>
        <time>2020-07-27T10:31:40Z</time>
      </trkpt>
      <trkpt lat="42.9865790" lon="-0.0884620">
        <ele>429.2</ele>
        <time>2020-07-27T10:31:44Z</time>
      </trkpt>
      <trkpt lat="42.9867430" lon="-0.0885080">
        <ele>429.6</ele>
        <time>2020-07-27T10:31:46Z</time>
      </trkpt>
      <trkpt lat="42.9872380" lon="-0.0886250">
        <ele>430.0</ele>
        <time>2020-07-27T10:31:52Z</time>
      </trkpt>
      <trkpt lat="42.9874000" lon="-0.0886630">
        <ele>429.8</ele>
        <time>2020-07-27T10:31:54Z</time>
      </trkpt>
      <trkpt lat="42.9878790" lon="-0.0887670">
        <ele>430.0</ele>
        <time>2020-07-27T10:32:00Z</time>
      </trkpt>
      <trkpt lat="42.9881140" lon="-0.0888280">
        <ele>429.8</ele>
        <time>2020-07-27T10:32:03Z</time>
      </trkpt>
      <trkpt lat="42.9885660" lon="-0.0890120">
        <ele>430.2</ele>
        <time>2020-07-27T10:32:09Z</time>
      </trkpt>
      <trkpt lat="42.9886390" lon="-0.0890480">
        <ele>430.6</ele>
        <time>2020-07-27T10:32:10Z</time>
      </trkpt>
      <trkpt lat="42.9890770" lon="-0.0892490">
        <ele>431.0</ele>
        <time>2020-07-27T10:32:16Z</time>
      </trkpt>
      <trkpt lat="42.9891490" lon="-0.0892830">
        <ele>430.8</ele>
        <time>2020-07-27T10:32:17Z</time>
      </trkpt>
      <trkpt lat="42.9895750" lon="-0.0894710">
        <ele>431.4</ele>
        <time>2020-07-27T10:32:23Z</time>
      </trkpt>
      <trkpt lat="42.9898590" lon="-0.0895730">
        <ele>432.4</ele>
        <time>2020-07-27T10:32:27Z</time>
      </trkpt>
      <trkpt lat="42.9902420" lon="-0.0896910">
        <ele>431.8</ele>
        <time>2020-07-27T10:32:32Z</time>
      </trkpt>
      <trkpt lat="42.9904060" lon="-0.0897390">
        <ele>431.2</ele>
        <time>2020-07-27T10:32:34Z</time>
      </trkpt>
      <trkpt lat="42.9906580" lon="-0.0898110">
        <ele>430.4</ele>
        <time>2020-07-27T10:32:37Z</time>
      </trkpt>
      <trkpt lat="42.9910950" lon="-0.0899450">
        <ele>429.4</ele>
        <time>2020-07-27T10:32:42Z</time>
      </trkpt>
      <trkpt lat="42.9911870" lon="-0.0899710">
        <ele>429.0</ele>
        <time>2020-07-27T10:32:43Z</time>
      </trkpt>
      <trkpt lat="42.9915480" lon="-0.0900920">
        <ele>428.0</ele>
        <time>2020-07-27T10:32:47Z</time>
      </trkpt>
      <trkpt lat="42.9918070" lon="-0.0902180">
        <ele>427.8</ele>
        <time>2020-07-27T10:32:50Z</time>
      </trkpt>
      <trkpt lat="42.9921480" lon="-0.0903740">
        <ele>427.0</ele>
        <time>2020-07-27T10:32:54Z</time>
      </trkpt>
      <trkpt lat="42.9924040" lon="-0.0904950">
        <ele>427.2</ele>
        <time>2020-07-27T10:32:57Z</time>
      </trkpt>
      <trkpt lat="42.9924890" lon="-0.0905340">
        <ele>427.2</ele>
        <time>2020-07-27T10:32:58Z</time>
      </trkpt>
      <trkpt lat="42.9929830" lon="-0.0907850">
        <ele>427.8</ele>
        <time>2020-07-27T10:33:04Z</time>
      </trkpt>
      <trkpt lat="42.9932170" lon="-0.0909020">
        <ele>428.0</ele>
        <time>2020-07-27T10:33:07Z</time>
      </trkpt>
      <trkpt lat="42.9933650" lon="-0.0909720">
        <ele>428.2</ele>
        <time>2020-07-27T10:33:09Z</time>
      </trkpt>
      <trkpt lat="42.9935080" lon="-0.0910420">
        <ele>428.6</ele>
        <time>2020-07-27T10:33:11Z</time>
      </trkpt>
      <trkpt lat="42.9936510" lon="-0.0911040">
        <ele>429.2</ele>
        <time>2020-07-27T10:33:13Z</time>
      </trkpt>
      <trkpt lat="42.9938520" lon="-0.0911990">
        <ele>429.8</ele>
        <time>2020-07-27T10:33:16Z</time>
      </trkpt>
      <trkpt lat="42.9939810" lon="-0.0912630">
        <ele>430.2</ele>
        <time>2020-07-27T10:33:18Z</time>
      </trkpt>
      <trkpt lat="42.9940460" lon="-0.0912960">
        <ele>430.6</ele>
        <time>2020-07-27T10:33:19Z</time>
      </trkpt>
      <trkpt lat="42.9944410" lon="-0.0914720">
        <ele>430.8</ele>
        <time>2020-07-27T10:33:25Z</time>
      </trkpt>
      <trkpt lat="42.9945810" lon="-0.0915120">
        <ele>430.8</ele>
        <time>2020-07-27T10:33:27Z</time>
      </trkpt>
      <trkpt lat="42.9949430" lon="-0.0915390">
        <ele>430.8</ele>
        <time>2020-07-27T10:33:32Z</time>
      </trkpt>
      <trkpt lat="42.9950870" lon="-0.0915460">
        <ele>430.6</ele>
        <time>2020-07-27T10:33:34Z</time>
      </trkpt>
      <trkpt lat="42.9954410" lon="-0.0916190">
        <ele>431.4</ele>
        <time>2020-07-27T10:33:39Z</time>
      </trkpt>
      <trkpt lat="42.9955080" lon="-0.0916430">
        <ele>431.6</ele>
        <time>2020-07-27T10:33:40Z</time>
      </trkpt>
      <trkpt lat="42.9959090" lon="-0.0917970">
        <ele>432.0</ele>
        <time>2020-07-27T10:33:46Z</time>
      </trkpt>
      <trkpt lat="42.9961020" lon="-0.0918790">
        <ele>432.4</ele>
        <time>2020-07-27T10:33:49Z</time>
      </trkpt>
      <trkpt lat="42.9964880" lon="-0.0920280">
        <ele>433.4</ele>
        <time>2020-07-27T10:33:55Z</time>
      </trkpt>
      <trkpt lat="42.9966120" lon="-0.0921000">
        <ele>433.8</ele>
        <time>2020-07-27T10:33:57Z</time>
      </trkpt>
      <trkpt lat="42.9967810" lon="-0.0922590">
        <ele>434.4</ele>
        <time>2020-07-27T10:34:00Z</time>
      </trkpt>
      <trkpt lat="42.9968300" lon="-0.0923240">
        <ele>434.6</ele>
        <time>2020-07-27T10:34:01Z</time>
      </trkpt>
      <trkpt lat="42.9970970" lon="-0.0927260">
        <ele>435.6</ele>
        <time>2020-07-27T10:34:07Z</time>
      </trkpt>
      <trkpt lat="42.9972240" lon="-0.0929170">
        <ele>436.4</ele>
        <time>2020-07-27T10:34:10Z</time>
      </trkpt>
      <trkpt lat="42.9972660" lon="-0.0929800">
        <ele>436.8</ele>
        <time>2020-07-27T10:34:11Z</time>
      </trkpt>
      <trkpt lat="42.9974290" lon="-0.0932170">
        <ele>437.8</ele>
        <time>2020-07-27T10:34:15Z</time>
      </trkpt>
      <trkpt lat="42.9975440" lon="-0.0933920">
        <ele>438.4</ele>
        <time>2020-07-27T10:34:18Z</time>
      </trkpt>
      <trkpt lat="42.9976570" lon="-0.0935620">
        <ele>439.0</ele>
        <time>2020-07-27T10:34:21Z</time>
      </trkpt>
      <trkpt lat="42.9977940" lon="-0.0937860">
        <ele>440.0</ele>
        <time>2020-07-27T10:34:25Z</time>
      </trkpt>
      <trkpt lat="42.9978590" lon="-0.0938950">
        <ele>440.8</ele>
        <time>2020-07-27T10:34:27Z</time>
      </trkpt>
      <trkpt lat="42.9978930" lon="-0.0939490">
        <ele>441.2</ele>
        <time>2020-07-27T10:34:28Z</time>
      </trkpt>
      <trkpt lat="42.9980660" lon="-0.0942270">
        <ele>442.2</ele>
        <time>2020-07-27T10:34:33Z</time>
      </trkpt>
      <trkpt lat="42.9981300" lon="-0.0943380">
        <ele>442.8</ele>
        <time>2020-07-27T10:34:35Z</time>
      </trkpt>
      <trkpt lat="42.9983140" lon="-0.0946020">
        <ele>443.2</ele>
        <time>2020-07-27T10:34:40Z</time>
      </trkpt>
      <trkpt lat="42.9983910" lon="-0.0947190">
        <ele>443.2</ele>
        <time>2020-07-27T10:34:42Z</time>
      </trkpt>
      <trkpt lat="42.9986440" lon="-0.0950720">
        <ele>442.4</ele>
        <time>2020-07-27T10:34:48Z</time>
      </trkpt>
      <trkpt lat="42.9987250" lon="-0.0951860">
        <ele>442.2</ele>
        <time>2020-07-27T10:34:50Z</time>
      </trkpt>
      <trkpt lat="42.9987670" lon="-0.0952380">
        <ele>442.0</ele>
        <time>2020-07-27T10:34:51Z</time>
      </trkpt>
      <trkpt lat="42.9990120" lon="-0.0955580">
        <ele>442.2</ele>
        <time>2020-07-27T10:34:57Z</time>
      </trkpt>
      <trkpt lat="42.9990960" lon="-0.0956810">
        <ele>442.2</ele>
        <time>2020-07-27T10:34:59Z</time>
      </trkpt>
      <trkpt lat="42.9992570" lon="-0.0959310">
        <ele>442.6</ele>
        <time>2020-07-27T10:35:03Z</time>
      </trkpt>
      <trkpt lat="42.9992970" lon="-0.0959910">
        <ele>442.8</ele>
        <time>2020-07-27T10:35:04Z</time>
      </trkpt>
      <trkpt lat="42.9993740" lon="-0.0961170">
        <ele>443.0</ele>
        <time>2020-07-27T10:35:06Z</time>
      </trkpt>
      <trkpt lat="42.9994120" lon="-0.0961790">
        <ele>443.2</ele>
        <time>2020-07-27T10:35:07Z</time>
      </trkpt>
      <trkpt lat="42.9994500" lon="-0.0962410">
        <ele>443.4</ele>
        <time>2020-07-27T10:35:08Z</time>
      </trkpt>
      <trkpt lat="42.9995660" lon="-0.0964170">
        <ele>443.6</ele>
        <time>2020-07-27T10:35:10Z</time>
      </trkpt>
      <trkpt lat="42.9996400" lon="-0.0965330">
        <ele>444.4</ele>
        <time>2020-07-27T10:35:13Z</time>
      </trkpt>
      <trkpt lat="42.9996800" lon="-0.0965890">
        <ele>444.6</ele>
        <time>2020-07-27T10:35:14Z</time>
      </trkpt>
      <trkpt lat="42.9999110" lon="-0.0969460">
        <ele>445.2</ele>
        <time>2020-07-27T10:35:20Z</time>
      </trkpt>
      <trkpt lat="42.9999910" lon="-0.0970660">
        <ele>445.4</ele>
        <time>2020-07-27T10:35:22Z</time>
      </trkpt>
      <trkpt lat="43.0000310" lon="-0.0971270">
        <ele>445.6</ele>
        <time>2020-07-27T10:35:23Z</time>
      </trkpt>
      <trkpt lat="43.0002750" lon="-0.0975030">
        <ele>445.8</ele>
        <time>2020-07-27T10:35:29Z</time>
      </trkpt>
      <trkpt lat="43.0004320" lon="-0.0977660">
        <ele>446.4</ele>
        <time>2020-07-27T10:35:33Z</time>
      </trkpt>
      <trkpt lat="43.0004710" lon="-0.0978320">
        <ele>446.4</ele>
        <time>2020-07-27T10:35:34Z</time>
      </trkpt>
      <trkpt lat="43.0007140" lon="-0.0982110">
        <ele>447.0</ele>
        <time>2020-07-27T10:35:40Z</time>
      </trkpt>
      <trkpt lat="43.0008360" lon="-0.0983960">
        <ele>447.2</ele>
        <time>2020-07-27T10:35:43Z</time>
      </trkpt>
      <trkpt lat="43.0009200" lon="-0.0985140">
        <ele>447.6</ele>
        <time>2020-07-27T10:35:45Z</time>
      </trkpt>
      <trkpt lat="43.0010490" lon="-0.0986850">
        <ele>448.8</ele>
        <time>2020-07-27T10:35:48Z</time>
      </trkpt>
      <trkpt lat="43.0011380" lon="-0.0987890">
        <ele>449.2</ele>
        <time>2020-07-27T10:35:50Z</time>
      </trkpt>
      <trkpt lat="43.0014060" lon="-0.0990960">
        <ele>449.4</ele>
        <time>2020-07-27T10:35:56Z</time>
      </trkpt>
      <trkpt lat="43.0014530" lon="-0.0991360">
        <ele>449.6</ele>
        <time>2020-07-27T10:35:57Z</time>
      </trkpt>
      <trkpt lat="43.0015080" lon="-0.0991640">
        <ele>449.6</ele>
        <time>2020-07-27T10:35:58Z</time>
      </trkpt>
      <trkpt lat="43.0016130" lon="-0.0992330">
        <ele>449.0</ele>
        <time>2020-07-27T10:36:00Z</time>
      </trkpt>
      <trkpt lat="43.0016430" lon="-0.0993000">
        <ele>448.8</ele>
        <time>2020-07-27T10:36:01Z</time>
      </trkpt>
      <trkpt lat="43.0016530" lon="-0.0993740">
        <ele>448.8</ele>
        <time>2020-07-27T10:36:02Z</time>
      </trkpt>
      <trkpt lat="43.0016600" lon="-0.0995340">
        <ele>448.4</ele>
        <time>2020-07-27T10:36:04Z</time>
      </trkpt>
      <trkpt lat="43.0017200" lon="-0.0996740">
        <ele>448.6</ele>
        <time>2020-07-27T10:36:06Z</time>
      </trkpt>
      <trkpt lat="43.0017590" lon="-0.0997380">
        <ele>448.6</ele>
        <time>2020-07-27T10:36:07Z</time>
      </trkpt>
      <trkpt lat="43.0019930" lon="-0.1001470">
        <ele>448.4</ele>
        <time>2020-07-27T10:36:13Z</time>
      </trkpt>
      <trkpt lat="43.0020730" lon="-0.1002810">
        <ele>448.6</ele>
        <time>2020-07-27T10:36:15Z</time>
      </trkpt>
      <trkpt lat="43.0021130" lon="-0.1003490">
        <ele>448.6</ele>
        <time>2020-07-27T10:36:16Z</time>
      </trkpt>
      <trkpt lat="43.0022510" lon="-0.1006280">
        <ele>449.2</ele>
        <time>2020-07-27T10:36:20Z</time>
      </trkpt>
      <trkpt lat="43.0024480" lon="-0.1010400">
        <ele>449.8</ele>
        <time>2020-07-27T10:36:26Z</time>
      </trkpt>
      <trkpt lat="43.0025450" lon="-0.1012320">
        <ele>450.6</ele>
        <time>2020-07-27T10:36:29Z</time>
      </trkpt>
      <trkpt lat="43.0026100" lon="-0.1013520">
        <ele>451.0</ele>
        <time>2020-07-27T10:36:31Z</time>
      </trkpt>
      <trkpt lat="43.0027770" lon="-0.1016420">
        <ele>451.6</ele>
        <time>2020-07-27T10:36:36Z</time>
      </trkpt>
      <trkpt lat="43.0028770" lon="-0.1017130">
        <ele>451.8</ele>
        <time>2020-07-27T10:36:38Z</time>
      </trkpt>
      <trkpt lat="43.0029900" lon="-0.1017320">
        <ele>451.8</ele>
        <time>2020-07-27T10:36:40Z</time>
      </trkpt>
      <trkpt lat="43.0032190" lon="-0.1016800">
        <ele>452.0</ele>
        <time>2020-07-27T10:36:44Z</time>
      </trkpt>
      <trkpt lat="43.0032720" lon="-0.1016590">
        <ele>452.0</ele>
        <time>2020-07-27T10:36:45Z</time>
      </trkpt>
      <trkpt lat="43.0035440" lon="-0.1015540">
        <ele>452.8</ele>
        <time>2020-07-27T10:36:50Z</time>
      </trkpt>
      <trkpt lat="43.0035930" lon="-0.1015290">
        <ele>453.0</ele>
        <time>2020-07-27T10:36:51Z</time>
      </trkpt>
      <trkpt lat="43.0036420" lon="-0.1015010">
        <ele>453.2</ele>
        <time>2020-07-27T10:36:52Z</time>
      </trkpt>
      <trkpt lat="43.0039220" lon="-0.1013240">
        <ele>453.2</ele>
        <time>2020-07-27T10:36:58Z</time>
      </trkpt>
      <trkpt lat="43.0039730" lon="-0.1012970">
        <ele>453.4</ele>
        <time>2020-07-27T10:36:59Z</time>
      </trkpt>
      <trkpt lat="43.0040720" lon="-0.1012440">
        <ele>454.0</ele>
        <time>2020-07-27T10:37:01Z</time>
      </trkpt>
      <trkpt lat="43.0042080" lon="-0.1011890">
        <ele>455.6</ele>
        <time>2020-07-27T10:37:04Z</time>
      </trkpt>
      <trkpt lat="43.0043310" lon="-0.1011210">
        <ele>456.6</ele>
        <time>2020-07-27T10:37:07Z</time>
      </trkpt>
      <trkpt lat="43.0043690" lon="-0.1010840">
        <ele>456.6</ele>
        <time>2020-07-27T10:37:08Z</time>
      </trkpt>
      <trkpt lat="43.0044920" lon="-0.1010060">
        <ele>457.2</ele>
        <time>2020-07-27T10:37:11Z</time>
      </trkpt>
      <trkpt lat="43.0045360" lon="-0.1009890">
        <ele>457.8</ele>
        <time>2020-07-27T10:37:12Z</time>
      </trkpt>
      <trkpt lat="43.0045760" lon="-0.1009780">
        <ele>458.6</ele>
        <time>2020-07-27T10:37:13Z</time>
      </trkpt>
      <trkpt lat="43.0046170" lon="-0.1009640">
        <ele>459.0</ele>
        <time>2020-07-27T10:37:14Z</time>
      </trkpt>
      <trkpt lat="43.0048370" lon="-0.1008670">
        <ele>460.2</ele>
        <time>2020-07-27T10:37:20Z</time>
      </trkpt>
      <trkpt lat="43.0048660" lon="-0.1008420">
        <ele>460.4</ele>
        <time>2020-07-27T10:37:21Z</time>
      </trkpt>
      <trkpt lat="43.0046520" lon="-0.0988390">
        <ele>434.2</ele>
        <time>2020-07-28T07:23:05Z</time>
      </trkpt>
      <trkpt lat="43.0046240" lon="-0.0988160">
        <ele>434.2</ele>
        <time>2020-07-28T07:23:06Z</time>
      </trkpt>
      <trkpt lat="43.0045470" lon="-0.0987960">
        <ele>434.0</ele>
        <time>2020-07-28T07:23:08Z</time>
      </trkpt>
      <trkpt lat="43.0045020" lon="-0.0987970">
        <ele>433.2</ele>
        <time>2020-07-28T07:23:09Z</time>
      </trkpt>
      <trkpt lat="43.0044550" lon="-0.0987990">
        <ele>432.6</ele>
        <time>2020-07-28T07:23:10Z</time>
      </trkpt>
      <trkpt lat="43.0042640" lon="-0.0988370">
        <ele>431.6</ele>
        <time>2020-07-28T07:23:14Z</time>
      </trkpt>
      <trkpt lat="43.0041690" lon="-0.0988550">
        <ele>431.6</ele>
        <time>2020-07-28T07:23:16Z</time>
      </trkpt>
      <trkpt lat="43.0040250" lon="-0.0988850">
        <ele>431.8</ele>
        <time>2020-07-28T07:23:19Z</time>
      </trkpt>
      <trkpt lat="43.0039250" lon="-0.0989060">
        <ele>432.2</ele>
        <time>2020-07-28T07:23:21Z</time>
      </trkpt>
      <trkpt lat="43.0038760" lon="-0.0989160">
        <ele>432.2</ele>
        <time>2020-07-28T07:23:22Z</time>
      </trkpt>
      <trkpt lat="43.0037750" lon="-0.0989330">
        <ele>432.4</ele>
        <time>2020-07-28T07:23:24Z</time>
      </trkpt>
      <trkpt lat="43.0037240" lon="-0.0989420">
        <ele>432.4</ele>
        <time>2020-07-28T07:23:25Z</time>
      </trkpt>
      <trkpt lat="43.0036230" lon="-0.0989560">
        <ele>432.6</ele>
        <time>2020-07-28T07:23:27Z</time>
      </trkpt>
      <trkpt lat="43.0035730" lon="-0.0989620">
        <ele>432.8</ele>
        <time>2020-07-28T07:23:28Z</time>
      </trkpt>
      <trkpt lat="43.0035240" lon="-0.0989670">
        <ele>432.8</ele>
        <time>2020-07-28T07:23:29Z</time>
      </trkpt>
      <trkpt lat="43.0034740" lon="-0.0989720">
        <ele>432.8</ele>
        <time>2020-07-28T07:23:30Z</time>
      </trkpt>
      <trkpt lat="43.0033760" lon="-0.0989830">
        <ele>433.0</ele>
        <time>2020-07-28T07:23:32Z</time>
      </trkpt>
      <trkpt lat="43.0032780" lon="-0.0989970">
        <ele>433.4</ele>
        <time>2020-07-28T07:23:34Z</time>
      </trkpt>
      <trkpt lat="43.0031320" lon="-0.0990210">
        <ele>433.8</ele>
        <time>2020-07-28T07:23:37Z</time>
      </trkpt>
      <trkpt lat="43.0028340" lon="-0.0990630">
        <ele>434.2</ele>
        <time>2020-07-28T07:23:43Z</time>
      </trkpt>
      <trkpt lat="43.0025440" lon="-0.0991030">
        <ele>434.8</ele>
        <time>2020-07-28T07:23:49Z</time>
      </trkpt>
      <trkpt lat="43.0024010" lon="-0.0991260">
        <ele>435.4</ele>
        <time>2020-07-28T07:23:52Z</time>
      </trkpt>
      <trkpt lat="43.0021040" lon="-0.0991990">
        <ele>435.8</ele>
        <time>2020-07-28T07:23:58Z</time>
      </trkpt>
      <trkpt lat="43.0020550" lon="-0.0992150">
        <ele>436.0</ele>
        <time>2020-07-28T07:23:59Z</time>
      </trkpt>
      <trkpt lat="43.0020080" lon="-0.0992340">
        <ele>436.0</ele>
        <time>2020-07-28T07:24:00Z</time>
      </trkpt>
      <trkpt lat="43.0017280" lon="-0.0993150">
        <ele>436.6</ele>
        <time>2020-07-28T07:24:06Z</time>
      </trkpt>
      <trkpt lat="43.0016450" lon="-0.0993430">
        <ele>437.2</ele>
        <time>2020-07-28T07:24:08Z</time>
      </trkpt>
      <trkpt lat="43.0015920" lon="-0.0994240">
        <ele>437.4</ele>
        <time>2020-07-28T07:24:10Z</time>
      </trkpt>
      <trkpt lat="43.0015890" lon="-0.0994830">
        <ele>437.6</ele>
        <time>2020-07-28T07:24:11Z</time>
      </trkpt>
      <trkpt lat="43.0015990" lon="-0.0995410">
        <ele>437.6</ele>
        <time>2020-07-28T07:24:12Z</time>
      </trkpt>
      <trkpt lat="43.0016190" lon="-0.0995960">
        <ele>437.6</ele>
        <time>2020-07-28T07:24:13Z</time>
      </trkpt>
      <trkpt lat="43.0016470" lon="-0.0996450">
        <ele>437.6</ele>
        <time>2020-07-28T07:24:14Z</time>
      </trkpt>
      <trkpt lat="43.0018420" lon="-0.0999730">
        <ele>437.6</ele>
        <time>2020-07-28T07:24:20Z</time>
      </trkpt>
      <trkpt lat="43.0019050" lon="-0.1000920">
        <ele>437.6</ele>
        <time>2020-07-28T07:24:22Z</time>
      </trkpt>
      <trkpt lat="43.0019960" lon="-0.1002660">
        <ele>437.6</ele>
        <time>2020-07-28T07:24:25Z</time>
      </trkpt>
      <trkpt lat="43.0020250" lon="-0.1003250">
        <ele>437.6</ele>
        <time>2020-07-28T07:24:26Z</time>
      </trkpt>
      <trkpt lat="43.0021470" lon="-0.1005510">
        <ele>438.0</ele>
        <time>2020-07-28T07:24:30Z</time>
      </trkpt>
      <trkpt lat="43.0021810" lon="-0.1006050">
        <ele>438.2</ele>
        <time>2020-07-28T07:24:31Z</time>
      </trkpt>
      <trkpt lat="43.0023260" lon="-0.1009090">
        <ele>438.6</ele>
        <time>2020-07-28T07:24:36Z</time>
      </trkpt>
      <trkpt lat="43.0023520" lon="-0.1009670">
        <ele>438.6</ele>
        <time>2020-07-28T07:24:37Z</time>
      </trkpt>
      <trkpt lat="43.0025120" lon="-0.1012860">
        <ele>439.0</ele>
        <time>2020-07-28T07:24:43Z</time>
      </trkpt>
      <trkpt lat="43.0025610" lon="-0.1013960">
        <ele>439.2</ele>
        <time>2020-07-28T07:24:45Z</time>
      </trkpt>
      <trkpt lat="43.0025820" lon="-0.1014530">
        <ele>439.4</ele>
        <time>2020-07-28T07:24:46Z</time>
      </trkpt>
      <trkpt lat="43.0026040" lon="-0.1015100">
        <ele>439.6</ele>
        <time>2020-07-28T07:24:47Z</time>
      </trkpt>
      <trkpt lat="43.0027200" lon="-0.1017030">
        <ele>440.0</ele>
        <time>2020-07-28T07:24:51Z</time>
      </trkpt>
      <trkpt lat="43.0027590" lon="-0.1017350">
        <ele>440.2</ele>
        <time>2020-07-28T07:24:52Z</time>
      </trkpt>
      <trkpt lat="43.0027990" lon="-0.1017600">
        <ele>440.2</ele>
        <time>2020-07-28T07:24:53Z</time>
      </trkpt>
      <trkpt lat="43.0028880" lon="-0.1017780">
        <ele>440.2</ele>
        <time>2020-07-28T07:24:55Z</time>
      </trkpt>
      <trkpt lat="43.0029320" lon="-0.1017700">
        <ele>440.2</ele>
        <time>2020-07-28T07:24:56Z</time>
      </trkpt>
      <trkpt lat="43.0030170" lon="-0.1017460">
        <ele>440.4</ele>
        <time>2020-07-28T07:24:58Z</time>
      </trkpt>
      <trkpt lat="43.0030600" lon="-0.1017320">
        <ele>440.4</ele>
        <time>2020-07-28T07:24:59Z</time>
      </trkpt>
      <trkpt lat="43.0031450" lon="-0.1017030">
        <ele>440.4</ele>
        <time>2020-07-28T07:25:01Z</time>
      </trkpt>
      <trkpt lat="43.0032210" lon="-0.1016690">
        <ele>440.8</ele>
        <time>2020-07-28T07:25:03Z</time>
      </trkpt>
      <trkpt lat="43.0033410" lon="-0.1016220">
        <ele>441.6</ele>
        <time>2020-07-28T07:25:07Z</time>
      </trkpt>
      <trkpt lat="43.0033810" lon="-0.1015980">
        <ele>441.8</ele>
        <time>2020-07-28T07:25:09Z</time>
      </trkpt>
      <trkpt lat="43.0034540" lon="-0.1015510">
        <ele>442.2</ele>
        <time>2020-07-28T07:25:12Z</time>
      </trkpt>
      <trkpt lat="43.0034730" lon="-0.1015320">
        <ele>442.4</ele>
        <time>2020-07-28T07:25:13Z</time>
      </trkpt>
      <trkpt lat="43.0034940" lon="-0.1015160">
        <ele>442.6</ele>
        <time>2020-07-28T07:25:14Z</time>
      </trkpt>
      <trkpt lat="43.0035190" lon="-0.1015020">
        <ele>442.6</ele>
        <time>2020-07-28T07:25:15Z</time>
      </trkpt>
      <trkpt lat="43.0036520" lon="-0.1014320">
        <ele>443.0</ele>
        <time>2020-07-28T07:25:19Z</time>
      </trkpt>
      <trkpt lat="43.0038750" lon="-0.1013180">
        <ele>443.0</ele>
        <time>2020-07-28T07:25:25Z</time>
      </trkpt>
      <trkpt lat="43.0039130" lon="-0.1012990">
        <ele>443.2</ele>
        <time>2020-07-28T07:25:26Z</time>
      </trkpt>
      <trkpt lat="43.0039910" lon="-0.1012630">
        <ele>444.0</ele>
        <time>2020-07-28T07:25:28Z</time>
      </trkpt>
      <trkpt lat="43.0040700" lon="-0.1012300">
        <ele>444.4</ele>
        <time>2020-07-28T07:25:30Z</time>
      </trkpt>
      <trkpt lat="43.0041690" lon="-0.1011820">
        <ele>444.8</ele>
        <time>2020-07-28T07:25:33Z</time>
      </trkpt>
      <trkpt lat="43.0042030" lon="-0.1011660">
        <ele>445.0</ele>
        <time>2020-07-28T07:25:34Z</time>
      </trkpt>
      <trkpt lat="43.0042980" lon="-0.1011010">
        <ele>446.0</ele>
        <time>2020-07-28T07:25:37Z</time>
      </trkpt>
      <trkpt lat="43.0044140" lon="-0.1010060">
        <ele>447.0</ele>
        <time>2020-07-28T07:25:41Z</time>
      </trkpt>
      <trkpt lat="43.0044440" lon="-0.1009860">
        <ele>447.4</ele>
        <time>2020-07-28T07:25:42Z</time>
      </trkpt>
      <trkpt lat="43.0046250" lon="-0.1009250">
        <ele>448.4</ele>
        <time>2020-07-28T07:25:48Z</time>
      </trkpt>
      <trkpt lat="43.0046550" lon="-0.1009130">
        <ele>448.6</ele>
        <time>2020-07-28T07:25:49Z</time>
      </trkpt>
      <trkpt lat="43.0047660" lon="-0.1008600">
        <ele>449.0</ele>
        <time>2020-07-28T07:25:53Z</time>
      </trkpt>
      <trkpt lat="43.0048520" lon="-0.1008360">
        <ele>449.4</ele>
        <time>2020-07-28T07:25:56Z</time>
      </trkpt>
      <trkpt lat="43.0049490" lon="-0.1008290">
        <ele>449.8</ele>
        <time>2020-07-28T07:26:01Z</time>
      </trkpt>
      <trkpt lat="43.0049690" lon="-0.1008160">
        <ele>449.8</ele>
        <time>2020-07-28T07:26:02Z</time>
      </trkpt>
      <trkpt lat="43.0025460" lon="-0.1069450">
        <ele>502.2</ele>
        <time>2020-07-28T07:31:53Z</time>
      </trkpt>
      <trkpt lat="43.0025240" lon="-0.1069640">
        <ele>502.8</ele>
        <time>2020-07-28T07:31:54Z</time>
      </trkpt>
      <trkpt lat="43.0025030" lon="-0.1069830">
        <ele>503.4</ele>
        <time>2020-07-28T07:31:55Z</time>
      </trkpt>
      <trkpt lat="43.0023630" lon="-0.1070650">
        <ele>504.4</ele>
        <time>2020-07-28T07:32:01Z</time>
      </trkpt>
      <trkpt lat="43.0023210" lon="-0.1071050">
        <ele>504.6</ele>
        <time>2020-07-28T07:32:03Z</time>
      </trkpt>
      <trkpt lat="43.0022360" lon="-0.1071850">
        <ele>505.4</ele>
        <time>2020-07-28T07:32:07Z</time>
      </trkpt>
      <trkpt lat="43.0022150" lon="-0.1072050">
        <ele>505.8</ele>
        <time>2020-07-28T07:32:08Z</time>
      </trkpt>
      <trkpt lat="43.0021700" lon="-0.1072430">
        <ele>506.2</ele>
        <time>2020-07-28T07:32:10Z</time>
      </trkpt>
      <trkpt lat="43.0021240" lon="-0.1072770">
        <ele>506.8</ele>
        <time>2020-07-28T07:32:12Z</time>
      </trkpt>
      <trkpt lat="43.0021020" lon="-0.1072960">
        <ele>507.0</ele>
        <time>2020-07-28T07:32:13Z</time>
      </trkpt>
      <trkpt lat="43.0019960" lon="-0.1073930">
        <ele>508.0</ele>
        <time>2020-07-28T07:32:18Z</time>
      </trkpt>
      <trkpt lat="43.0019110" lon="-0.1074690">
        <ele>509.2</ele>
        <time>2020-07-28T07:32:22Z</time>
      </trkpt>
      <trkpt lat="43.0018900" lon="-0.1074870">
        <ele>509.4</ele>
        <time>2020-07-28T07:32:23Z</time>
      </trkpt>
      <trkpt lat="43.0017810" lon="-0.1075750">
        <ele>510.2</ele>
        <time>2020-07-28T07:32:28Z</time>
      </trkpt>
      <trkpt lat="43.0017000" lon="-0.1076570">
        <ele>511.4</ele>
        <time>2020-07-28T07:32:32Z</time>
      </trkpt>
      <trkpt lat="43.0016810" lon="-0.1076780">
        <ele>511.6</ele>
        <time>2020-07-28T07:32:33Z</time>
      </trkpt>
      <trkpt lat="43.0015750" lon="-0.1077850">
        <ele>512.6</ele>
        <time>2020-07-28T07:32:38Z</time>
      </trkpt>
      <trkpt lat="43.0014920" lon="-0.1078890">
        <ele>513.4</ele>
        <time>2020-07-28T07:32:42Z</time>
      </trkpt>
      <trkpt lat="43.0014440" lon="-0.1079330">
        <ele>513.6</ele>
        <time>2020-07-28T07:32:44Z</time>
      </trkpt>
      <trkpt lat="43.0013990" lon="-0.1079780">
        <ele>514.2</ele>
        <time>2020-07-28T07:32:46Z</time>
      </trkpt>
      <trkpt lat="43.0013330" lon="-0.1080430">
        <ele>515.0</ele>
        <time>2020-07-28T07:32:49Z</time>
      </trkpt>
      <trkpt lat="43.0012620" lon="-0.1080990">
        <ele>515.8</ele>
        <time>2020-07-28T07:32:52Z</time>
      </trkpt>
      <trkpt lat="43.0012390" lon="-0.1081200">
        <ele>516.0</ele>
        <time>2020-07-28T07:32:53Z</time>
      </trkpt>
      <trkpt lat="43.0011400" lon="-0.1081880">
        <ele>517.2</ele>
        <time>2020-07-28T07:32:57Z</time>
      </trkpt>
      <trkpt lat="43.0010670" lon="-0.1082430">
        <ele>517.8</ele>
        <time>2020-07-28T07:33:00Z</time>
      </trkpt>
      <trkpt lat="43.0009960" lon="-0.1082990">
        <ele>518.4</ele>
        <time>2020-07-28T07:33:03Z</time>
      </trkpt>
      <trkpt lat="43.0008520" lon="-0.1083950">
        <ele>519.6</ele>
        <time>2020-07-28T07:33:09Z</time>
      </trkpt>
      <trkpt lat="43.0007570" lon="-0.1084600">
        <ele>520.6</ele>
        <time>2020-07-28T07:33:13Z</time>
      </trkpt>
      <trkpt lat="43.0006880" lon="-0.1085020">
        <ele>521.2</ele>
        <time>2020-07-28T07:33:16Z</time>
      </trkpt>
      <trkpt lat="43.0006150" lon="-0.1085410">
        <ele>521.8</ele>
        <time>2020-07-28T07:33:19Z</time>
      </trkpt>
      <trkpt lat="43.0004830" lon="-0.1086080">
        <ele>523.0</ele>
        <time>2020-07-28T07:33:24Z</time>
      </trkpt>
      <trkpt lat="43.0004560" lon="-0.1086240">
        <ele>523.2</ele>
        <time>2020-07-28T07:33:25Z</time>
      </trkpt>
      <trkpt lat="43.0004050" lon="-0.1086510">
        <ele>523.4</ele>
        <time>2020-07-28T07:33:27Z</time>
      </trkpt>
      <trkpt lat="43.0003560" lon="-0.1086730">
        <ele>524.0</ele>
        <time>2020-07-28T07:33:29Z</time>
      </trkpt>
      <trkpt lat="43.0003050" lon="-0.1086920">
        <ele>524.6</ele>
        <time>2020-07-28T07:33:31Z</time>
      </trkpt>
      <trkpt lat="43.0002260" lon="-0.1087180">
        <ele>525.2</ele>
        <time>2020-07-28T07:33:34Z</time>
      </trkpt>
      <trkpt lat="43.0001730" lon="-0.1087340">
        <ele>525.6</ele>
        <time>2020-07-28T07:33:36Z</time>
      </trkpt>
      <trkpt lat="43.0000910" lon="-0.1087450">
        <ele>526.2</ele>
        <time>2020-07-28T07:33:39Z</time>
      </trkpt>
      <trkpt lat="42.9999510" lon="-0.1087350">
        <ele>526.8</ele>
        <time>2020-07-28T07:33:44Z</time>
      </trkpt>
      <trkpt lat="42.9999260" lon="-0.1087320">
        <ele>527.0</ele>
        <time>2020-07-28T07:33:45Z</time>
      </trkpt>
      <trkpt lat="42.9999030" lon="-0.1087250">
        <ele>527.2</ele>
        <time>2020-07-28T07:33:46Z</time>
      </trkpt>
      <trkpt lat="42.9998290" lon="-0.1087100">
        <ele>528.4</ele>
        <time>2020-07-28T07:33:49Z</time>
      </trkpt>
      <trkpt lat="42.9997600" lon="-0.1086830">
        <ele>529.0</ele>
        <time>2020-07-28T07:33:51Z</time>
      </trkpt>
      <trkpt lat="42.9996950" lon="-0.1086620">
        <ele>529.4</ele>
        <time>2020-07-28T07:33:53Z</time>
      </trkpt>
      <trkpt lat="42.9995780" lon="-0.1086660">
        <ele>530.6</ele>
        <time>2020-07-28T07:33:57Z</time>
      </trkpt>
      <trkpt lat="42.9995240" lon="-0.1086850">
        <ele>531.0</ele>
        <time>2020-07-28T07:33:59Z</time>
      </trkpt>
      <trkpt lat="42.9994440" lon="-0.1087250">
        <ele>531.8</ele>
        <time>2020-07-28T07:34:02Z</time>
      </trkpt>
      <trkpt lat="42.9993280" lon="-0.1088290">
        <ele>533.0</ele>
        <time>2020-07-28T07:34:07Z</time>
      </trkpt>
      <trkpt lat="42.9992490" lon="-0.1089750">
        <ele>534.2</ele>
        <time>2020-07-28T07:34:12Z</time>
      </trkpt>
      <trkpt lat="42.9992280" lon="-0.1090420">
        <ele>534.8</ele>
        <time>2020-07-28T07:34:14Z</time>
      </trkpt>
      <trkpt lat="42.9992080" lon="-0.1091490">
        <ele>535.4</ele>
        <time>2020-07-28T07:34:17Z</time>
      </trkpt>
      <trkpt lat="42.9991950" lon="-0.1092960">
        <ele>536.6</ele>
        <time>2020-07-28T07:34:21Z</time>
      </trkpt>
      <trkpt lat="42.9991920" lon="-0.1093700">
        <ele>537.2</ele>
        <time>2020-07-28T07:34:23Z</time>
      </trkpt>
      <trkpt lat="42.9991900" lon="-0.1094440">
        <ele>537.6</ele>
        <time>2020-07-28T07:34:25Z</time>
      </trkpt>
      <trkpt lat="42.9991840" lon="-0.1096190">
        <ele>538.8</ele>
        <time>2020-07-28T07:34:30Z</time>
      </trkpt>
      <trkpt lat="42.9991800" lon="-0.1097560">
        <ele>539.8</ele>
        <time>2020-07-28T07:34:34Z</time>
      </trkpt>
      <trkpt lat="42.9991710" lon="-0.1098940">
        <ele>541.0</ele>
        <time>2020-07-28T07:34:38Z</time>
      </trkpt>
      <trkpt lat="42.9991630" lon="-0.1100690">
        <ele>542.0</ele>
        <time>2020-07-28T07:34:43Z</time>
      </trkpt>
      <trkpt lat="42.9991630" lon="-0.1101000">
        <ele>542.2</ele>
        <time>2020-07-28T07:34:44Z</time>
      </trkpt>
      <trkpt lat="42.9991540" lon="-0.1102970">
        <ele>543.4</ele>
        <time>2020-07-28T07:34:50Z</time>
      </trkpt>
      <trkpt lat="42.9991520" lon="-0.1103310">
        <ele>543.6</ele>
        <time>2020-07-28T07:34:51Z</time>
      </trkpt>
      <trkpt lat="42.9991500" lon="-0.1104380">
        <ele>544.4</ele>
        <time>2020-07-28T07:34:54Z</time>
      </trkpt>
      <trkpt lat="42.9991430" lon="-0.1106120">
        <ele>545.8</ele>
        <time>2020-07-28T07:34:59Z</time>
      </trkpt>
      <trkpt lat="42.9991360" lon="-0.1107190">
        <ele>546.8</ele>
        <time>2020-07-28T07:35:02Z</time>
      </trkpt>
      <trkpt lat="42.9991140" lon="-0.1108910">
        <ele>547.8</ele>
        <time>2020-07-28T07:35:07Z</time>
      </trkpt>
      <trkpt lat="42.9991110" lon="-0.1109940">
        <ele>548.2</ele>
        <time>2020-07-28T07:35:10Z</time>
      </trkpt>
      <trkpt lat="42.9991050" lon="-0.1111320">
        <ele>548.8</ele>
        <time>2020-07-28T07:35:14Z</time>
      </trkpt>
      <trkpt lat="42.9991100" lon="-0.1112800">
        <ele>550.0</ele>
        <time>2020-07-28T07:35:18Z</time>
      </trkpt>
      <trkpt lat="42.9991500" lon="-0.1114540">
        <ele>551.0</ele>
        <time>2020-07-28T07:35:23Z</time>
      </trkpt>
      <trkpt lat="42.9991800" lon="-0.1115050">
        <ele>551.4</ele>
        <time>2020-07-28T07:35:25Z</time>
      </trkpt>
      <trkpt lat="42.9992290" lon="-0.1115860">
        <ele>552.0</ele>
        <time>2020-07-28T07:35:28Z</time>
      </trkpt>
      <trkpt lat="42.9992780" lon="-0.1117430">
        <ele>553.0</ele>
        <time>2020-07-28T07:35:33Z</time>
      </trkpt>
      <trkpt lat="42.9992840" lon="-0.1119770">
        <ele>554.4</ele>
        <time>2020-07-28T07:35:39Z</time>
      </trkpt>
      <trkpt lat="42.9992060" lon="-0.1122000">
        <ele>555.2</ele>
        <time>2020-07-28T07:35:45Z</time>
      </trkpt>
      <trkpt lat="42.9991950" lon="-0.1122380">
        <ele>555.4</ele>
        <time>2020-07-28T07:35:46Z</time>
      </trkpt>
      <trkpt lat="42.9991810" lon="-0.1122750">
        <ele>555.8</ele>
        <time>2020-07-28T07:35:47Z</time>
      </trkpt>
      <trkpt lat="42.9991160" lon="-0.1123640">
        <ele>556.6</ele>
        <time>2020-07-28T07:35:50Z</time>
      </trkpt>
      <trkpt lat="42.9990560" lon="-0.1124490">
        <ele>557.2</ele>
        <time>2020-07-28T07:35:53Z</time>
      </trkpt>
      <trkpt lat="42.9990200" lon="-0.1125080">
        <ele>557.8</ele>
        <time>2020-07-28T07:35:55Z</time>
      </trkpt>
      <trkpt lat="42.9989290" lon="-0.1126550">
        <ele>559.0</ele>
        <time>2020-07-28T07:36:00Z</time>
      </trkpt>
      <trkpt lat="42.9988920" lon="-0.1127150">
        <ele>559.2</ele>
        <time>2020-07-28T07:36:02Z</time>
      </trkpt>
      <trkpt lat="42.9988380" lon="-0.1128040">
        <ele>560.0</ele>
        <time>2020-07-28T07:36:05Z</time>
      </trkpt>
      <trkpt lat="42.9987870" lon="-0.1128940">
        <ele>561.2</ele>
        <time>2020-07-28T07:36:08Z</time>
      </trkpt>
      <trkpt lat="42.9987220" lon="-0.1130150">
        <ele>562.2</ele>
        <time>2020-07-28T07:36:12Z</time>
      </trkpt>
      <trkpt lat="42.9987100" lon="-0.1130460">
        <ele>562.6</ele>
        <time>2020-07-28T07:36:13Z</time>
      </trkpt>
      <trkpt lat="42.9986760" lon="-0.1131800">
        <ele>563.2</ele>
        <time>2020-07-28T07:36:17Z</time>
      </trkpt>
      <trkpt lat="42.9986340" lon="-0.1133130">
        <ele>564.2</ele>
        <time>2020-07-28T07:36:21Z</time>
      </trkpt>
      <trkpt lat="42.9986280" lon="-0.1133470">
        <ele>564.4</ele>
        <time>2020-07-28T07:36:22Z</time>
      </trkpt>
      <trkpt lat="42.9986070" lon="-0.1135760">
        <ele>565.6</ele>
        <time>2020-07-28T07:36:28Z</time>
      </trkpt>
      <trkpt lat="42.9986050" lon="-0.1136940">
        <ele>566.2</ele>
        <time>2020-07-28T07:36:31Z</time>
      </trkpt>
      <trkpt lat="42.9986070" lon="-0.1137800">
        <ele>566.8</ele>
        <time>2020-07-28T07:36:33Z</time>
      </trkpt>
      <trkpt lat="42.9986210" lon="-0.1139870">
        <ele>567.8</ele>
        <time>2020-07-28T07:36:38Z</time>
      </trkpt>
      <trkpt lat="42.9986190" lon="-0.1141130">
        <ele>568.4</ele>
        <time>2020-07-28T07:36:41Z</time>
      </trkpt>
      <trkpt lat="42.9985860" lon="-0.1143580">
        <ele>569.0</ele>
        <time>2020-07-28T07:36:47Z</time>
      </trkpt>
      <trkpt lat="42.9985490" lon="-0.1145180">
        <ele>570.0</ele>
        <time>2020-07-28T07:36:51Z</time>
      </trkpt>
      <trkpt lat="42.9985400" lon="-0.1145570">
        <ele>570.2</ele>
        <time>2020-07-28T07:36:52Z</time>
      </trkpt>
      <trkpt lat="42.9985090" lon="-0.1146590">
        <ele>570.8</ele>
        <time>2020-07-28T07:36:55Z</time>
      </trkpt>
      <trkpt lat="42.9984780" lon="-0.1147680">
        <ele>571.4</ele>
        <time>2020-07-28T07:36:58Z</time>
      </trkpt>
      <trkpt lat="42.9984670" lon="-0.1148070">
        <ele>571.8</ele>
        <time>2020-07-28T07:36:59Z</time>
      </trkpt>
      <trkpt lat="42.9984500" lon="-0.1148780">
        <ele>572.6</ele>
        <time>2020-07-28T07:37:01Z</time>
      </trkpt>
      <trkpt lat="42.9984270" lon="-0.1150240">
        <ele>573.6</ele>
        <time>2020-07-28T07:37:05Z</time>
      </trkpt>
      <trkpt lat="42.9984240" lon="-0.1150650">
        <ele>574.0</ele>
        <time>2020-07-28T07:37:06Z</time>
      </trkpt>
      <trkpt lat="42.9984260" lon="-0.1151410">
        <ele>574.6</ele>
        <time>2020-07-28T07:37:08Z</time>
      </trkpt>
      <trkpt lat="42.9984470" lon="-0.1153730">
        <ele>575.8</ele>
        <time>2020-07-28T07:37:14Z</time>
      </trkpt>
      <trkpt lat="42.9984380" lon="-0.1155940">
        <ele>576.8</ele>
        <time>2020-07-28T07:37:20Z</time>
      </trkpt>
      <trkpt lat="42.9984290" lon="-0.1156660">
        <ele>577.4</ele>
        <time>2020-07-28T07:37:22Z</time>
      </trkpt>
      <trkpt lat="42.9984090" lon="-0.1157720">
        <ele>578.0</ele>
        <time>2020-07-28T07:37:25Z</time>
      </trkpt>
      <trkpt lat="42.9983530" lon="-0.1159380">
        <ele>579.2</ele>
        <time>2020-07-28T07:37:30Z</time>
      </trkpt>
      <trkpt lat="42.9983390" lon="-0.1159710">
        <ele>579.4</ele>
        <time>2020-07-28T07:37:31Z</time>
      </trkpt>
      <trkpt lat="42.9982860" lon="-0.1160930">
        <ele>580.4</ele>
        <time>2020-07-28T07:37:35Z</time>
      </trkpt>
      <trkpt lat="42.9982230" lon="-0.1162080">
        <ele>581.4</ele>
        <time>2020-07-28T07:37:39Z</time>
      </trkpt>
      <trkpt lat="42.9982060" lon="-0.1162370">
        <ele>581.6</ele>
        <time>2020-07-28T07:37:40Z</time>
      </trkpt>
      <trkpt lat="42.9981220" lon="-0.1163850">
        <ele>582.6</ele>
        <time>2020-07-28T07:37:45Z</time>
      </trkpt>
      <trkpt lat="42.9980930" lon="-0.1164500">
        <ele>583.2</ele>
        <time>2020-07-28T07:37:47Z</time>
      </trkpt>
      <trkpt lat="42.9980480" lon="-0.1165440">
        <ele>583.8</ele>
        <time>2020-07-28T07:37:50Z</time>
      </trkpt>
      <trkpt lat="42.9979640" lon="-0.1166940">
        <ele>584.8</ele>
        <time>2020-07-28T07:37:55Z</time>
      </trkpt>
      <trkpt lat="42.9979270" lon="-0.1167520">
        <ele>585.2</ele>
        <time>2020-07-28T07:37:57Z</time>
      </trkpt>
      <trkpt lat="42.9978540" lon="-0.1168530">
        <ele>585.8</ele>
        <time>2020-07-28T07:38:01Z</time>
      </trkpt>
      <trkpt lat="42.9977440" lon="-0.1169660">
        <ele>586.8</ele>
        <time>2020-07-28T07:38:06Z</time>
      </trkpt>
      <trkpt lat="42.9977230" lon="-0.1169880">
        <ele>587.0</ele>
        <time>2020-07-28T07:38:07Z</time>
      </trkpt>
      <trkpt lat="42.9975970" lon="-0.1171060">
        <ele>588.2</ele>
        <time>2020-07-28T07:38:13Z</time>
      </trkpt>
      <trkpt lat="42.9975760" lon="-0.1171270">
        <ele>588.6</ele>
        <time>2020-07-28T07:38:14Z</time>
      </trkpt>
      <trkpt lat="42.9975070" lon="-0.1171790">
        <ele>589.4</ele>
        <time>2020-07-28T07:38:17Z</time>
      </trkpt>
      <trkpt lat="42.9974080" lon="-0.1172390">
        <ele>590.4</ele>
        <time>2020-07-28T07:38:21Z</time>
      </trkpt>
      <trkpt lat="42.9973850" lon="-0.1172530">
        <ele>590.6</ele>
        <time>2020-07-28T07:38:22Z</time>
      </trkpt>
      <trkpt lat="42.9973120" lon="-0.1172820">
        <ele>591.6</ele>
        <time>2020-07-28T07:38:25Z</time>
      </trkpt>
      <trkpt lat="42.9972410" lon="-0.1173120">
        <ele>592.4</ele>
        <time>2020-07-28T07:38:28Z</time>
      </trkpt>
      <trkpt lat="42.9972180" lon="-0.1173210">
        <ele>592.6</ele>
        <time>2020-07-28T07:38:29Z</time>
      </trkpt>
      <trkpt lat="42.9971260" lon="-0.1173640">
        <ele>594.0</ele>
        <time>2020-07-28T07:38:33Z</time>
      </trkpt>
      <trkpt lat="42.9970260" lon="-0.1173890">
        <ele>594.8</ele>
        <time>2020-07-28T07:38:37Z</time>
      </trkpt>
      <trkpt lat="42.9969990" lon="-0.1173910">
        <ele>595.2</ele>
        <time>2020-07-28T07:38:38Z</time>
      </trkpt>
      <trkpt lat="42.9968930" lon="-0.1174030">
        <ele>596.4</ele>
        <time>2020-07-28T07:38:42Z</time>
      </trkpt>
      <trkpt lat="42.9968050" lon="-0.1174370">
        <ele>597.6</ele>
        <time>2020-07-28T07:38:46Z</time>
      </trkpt>
      <trkpt lat="42.9967860" lon="-0.1174490">
        <ele>598.0</ele>
        <time>2020-07-28T07:38:47Z</time>
      </trkpt>
      <trkpt lat="42.9966680" lon="-0.1174880">
        <ele>598.6</ele>
        <time>2020-07-28T07:38:52Z</time>
      </trkpt>
      <trkpt lat="42.9966170" lon="-0.1174980">
        <ele>599.2</ele>
        <time>2020-07-28T07:38:54Z</time>
      </trkpt>
      <trkpt lat="42.9965940" lon="-0.1175080">
        <ele>599.4</ele>
        <time>2020-07-28T07:38:55Z</time>
      </trkpt>
      <trkpt lat="42.9965700" lon="-0.1175150">
        <ele>599.8</ele>
        <time>2020-07-28T07:38:56Z</time>
      </trkpt>
      <trkpt lat="42.9964700" lon="-0.1175420">
        <ele>600.8</ele>
        <time>2020-07-28T07:39:00Z</time>
      </trkpt>
      <trkpt lat="42.9963860" lon="-0.1175580">
        <ele>601.4</ele>
        <time>2020-07-28T07:39:03Z</time>
      </trkpt>
      <trkpt lat="42.9963310" lon="-0.1175700">
        <ele>602.2</ele>
        <time>2020-07-28T07:39:05Z</time>
      </trkpt>
      <trkpt lat="42.9963040" lon="-0.1175760">
        <ele>602.4</ele>
        <time>2020-07-28T07:39:06Z</time>
      </trkpt>
      <trkpt lat="42.9962760" lon="-0.1175850">
        <ele>602.6</ele>
        <time>2020-07-28T07:39:07Z</time>
      </trkpt>
      <trkpt lat="42.9962020" lon="-0.1176140">
        <ele>603.2</ele>
        <time>2020-07-28T07:39:10Z</time>
      </trkpt>
      <trkpt lat="42.9961510" lon="-0.1176300">
        <ele>603.4</ele>
        <time>2020-07-28T07:39:12Z</time>
      </trkpt>
      <trkpt lat="42.9961240" lon="-0.1176370">
        <ele>603.4</ele>
        <time>2020-07-28T07:39:13Z</time>
      </trkpt>
      <trkpt lat="42.9960980" lon="-0.1176430">
        <ele>603.6</ele>
        <time>2020-07-28T07:39:14Z</time>
      </trkpt>
      <trkpt lat="42.9960460" lon="-0.1176570">
        <ele>604.0</ele>
        <time>2020-07-28T07:39:16Z</time>
      </trkpt>
      <trkpt lat="42.9960180" lon="-0.1176610">
        <ele>604.4</ele>
        <time>2020-07-28T07:39:17Z</time>
      </trkpt>
      <trkpt lat="42.9958880" lon="-0.1176790">
        <ele>605.4</ele>
        <time>2020-07-28T07:39:22Z</time>
      </trkpt>
      <trkpt lat="42.9957850" lon="-0.1176860">
        <ele>606.6</ele>
        <time>2020-07-28T07:39:26Z</time>
      </trkpt>
      <trkpt lat="42.9956980" lon="-0.1176960">
        <ele>607.4</ele>
        <time>2020-07-28T07:39:30Z</time>
      </trkpt>
      <trkpt lat="42.9956590" lon="-0.1177060">
        <ele>607.8</ele>
        <time>2020-07-28T07:39:32Z</time>
      </trkpt>
      <trkpt lat="42.9955930" lon="-0.1177320">
        <ele>608.6</ele>
        <time>2020-07-28T07:39:35Z</time>
      </trkpt>
      <trkpt lat="42.9955690" lon="-0.1177450">
        <ele>609.0</ele>
        <time>2020-07-28T07:39:36Z</time>
      </trkpt>
      <trkpt lat="42.9954680" lon="-0.1177990">
        <ele>610.0</ele>
        <time>2020-07-28T07:39:40Z</time>
      </trkpt>
      <trkpt lat="42.9953910" lon="-0.1178580">
        <ele>610.6</ele>
        <time>2020-07-28T07:39:43Z</time>
      </trkpt>
      <trkpt lat="42.9953280" lon="-0.1179270">
        <ele>611.2</ele>
        <time>2020-07-28T07:39:46Z</time>
      </trkpt>
      <trkpt lat="42.9952370" lon="-0.1180660">
        <ele>612.4</ele>
        <time>2020-07-28T07:39:51Z</time>
      </trkpt>
      <trkpt lat="42.9951570" lon="-0.1182110">
        <ele>613.4</ele>
        <time>2020-07-28T07:39:56Z</time>
      </trkpt>
      <trkpt lat="42.9951290" lon="-0.1182720">
        <ele>613.8</ele>
        <time>2020-07-28T07:39:58Z</time>
      </trkpt>
      <trkpt lat="42.9950850" lon="-0.1183600">
        <ele>614.6</ele>
        <time>2020-07-28T07:40:01Z</time>
      </trkpt>
      <trkpt lat="42.9950200" lon="-0.1185320">
        <ele>615.6</ele>
        <time>2020-07-28T07:40:06Z</time>
      </trkpt>
      <trkpt lat="42.9949840" lon="-0.1187540">
        <ele>616.8</ele>
        <time>2020-07-28T07:40:11Z</time>
      </trkpt>
      <trkpt lat="42.9949620" lon="-0.1189410">
        <ele>617.6</ele>
        <time>2020-07-28T07:40:15Z</time>
      </trkpt>
      <trkpt lat="42.9949560" lon="-0.1189870">
        <ele>617.8</ele>
        <time>2020-07-28T07:40:16Z</time>
      </trkpt>
      <trkpt lat="42.9949510" lon="-0.1190300">
        <ele>618.0</ele>
        <time>2020-07-28T07:40:17Z</time>
      </trkpt>
      <trkpt lat="42.9949330" lon="-0.1191960">
        <ele>619.0</ele>
        <time>2020-07-28T07:40:21Z</time>
      </trkpt>
      <trkpt lat="42.9949150" lon="-0.1192890">
        <ele>619.4</ele>
        <time>2020-07-28T07:40:23Z</time>
      </trkpt>
      <trkpt lat="42.9948940" lon="-0.1194700">
        <ele>620.2</ele>
        <time>2020-07-28T07:40:27Z</time>
      </trkpt>
      <trkpt lat="42.9948750" lon="-0.1196380">
        <ele>620.8</ele>
        <time>2020-07-28T07:40:31Z</time>
      </trkpt>
      <trkpt lat="42.9948700" lon="-0.1197250">
        <ele>621.4</ele>
        <time>2020-07-28T07:40:33Z</time>
      </trkpt>
      <trkpt lat="42.9948540" lon="-0.1198970">
        <ele>622.4</ele>
        <time>2020-07-28T07:40:37Z</time>
      </trkpt>
      <trkpt lat="42.9948430" lon="-0.1201140">
        <ele>623.6</ele>
        <time>2020-07-28T07:40:42Z</time>
      </trkpt>
      <trkpt lat="42.9948470" lon="-0.1201590">
        <ele>623.6</ele>
        <time>2020-07-28T07:40:43Z</time>
      </trkpt>
      <trkpt lat="42.9948680" lon="-0.1202910">
        <ele>624.6</ele>
        <time>2020-07-28T07:40:46Z</time>
      </trkpt>
      <trkpt lat="42.9949110" lon="-0.1204610">
        <ele>625.6</ele>
        <time>2020-07-28T07:40:50Z</time>
      </trkpt>
      <trkpt lat="42.9949290" lon="-0.1204980">
        <ele>625.8</ele>
        <time>2020-07-28T07:40:51Z</time>
      </trkpt>
      <trkpt lat="42.9949780" lon="-0.1206060">
        <ele>626.8</ele>
        <time>2020-07-28T07:40:54Z</time>
      </trkpt>
      <trkpt lat="42.9950190" lon="-0.1207080">
        <ele>627.8</ele>
        <time>2020-07-28T07:40:57Z</time>
      </trkpt>
      <trkpt lat="42.9950480" lon="-0.1207690">
        <ele>628.4</ele>
        <time>2020-07-28T07:40:59Z</time>
      </trkpt>
      <trkpt lat="42.9950820" lon="-0.1208260">
        <ele>628.8</ele>
        <time>2020-07-28T07:41:01Z</time>
      </trkpt>
      <trkpt lat="42.9951210" lon="-0.1209900">
        <ele>629.6</ele>
        <time>2020-07-28T07:41:06Z</time>
      </trkpt>
      <trkpt lat="42.9951310" lon="-0.1210680">
        <ele>630.2</ele>
        <time>2020-07-28T07:41:08Z</time>
      </trkpt>
      <trkpt lat="42.9951380" lon="-0.1211820">
        <ele>631.4</ele>
        <time>2020-07-28T07:41:11Z</time>
      </trkpt>
      <trkpt lat="42.9951310" lon="-0.1212950">
        <ele>632.0</ele>
        <time>2020-07-28T07:41:14Z</time>
      </trkpt>
      <trkpt lat="42.9951280" lon="-0.1213710">
        <ele>632.4</ele>
        <time>2020-07-28T07:41:16Z</time>
      </trkpt>
      <trkpt lat="42.9951180" lon="-0.1214870">
        <ele>633.2</ele>
        <time>2020-07-28T07:41:19Z</time>
      </trkpt>
      <trkpt lat="42.9951110" lon="-0.1215260">
        <ele>633.4</ele>
        <time>2020-07-28T07:41:20Z</time>
      </trkpt>
      <trkpt lat="42.9950850" lon="-0.1216350">
        <ele>633.8</ele>
        <time>2020-07-28T07:41:23Z</time>
      </trkpt>
      <trkpt lat="42.9950570" lon="-0.1217380">
        <ele>634.6</ele>
        <time>2020-07-28T07:41:26Z</time>
      </trkpt>
      <trkpt lat="42.9950090" lon="-0.1219000">
        <ele>635.8</ele>
        <time>2020-07-28T07:41:31Z</time>
      </trkpt>
      <trkpt lat="42.9949690" lon="-0.1220280">
        <ele>637.0</ele>
        <time>2020-07-28T07:41:35Z</time>
      </trkpt>
      <trkpt lat="42.9949340" lon="-0.1221450">
        <ele>637.8</ele>
        <time>2020-07-28T07:41:39Z</time>
      </trkpt>
      <trkpt lat="42.9949260" lon="-0.1222190">
        <ele>638.2</ele>
        <time>2020-07-28T07:41:41Z</time>
      </trkpt>
      <trkpt lat="42.9948830" lon="-0.1223960">
        <ele>639.2</ele>
        <time>2020-07-28T07:41:46Z</time>
      </trkpt>
      <trkpt lat="42.9948490" lon="-0.1225340">
        <ele>640.2</ele>
        <time>2020-07-28T07:41:50Z</time>
      </trkpt>
      <trkpt lat="42.9948170" lon="-0.1226640">
        <ele>641.2</ele>
        <time>2020-07-28T07:41:54Z</time>
      </trkpt>
      <trkpt lat="42.9947710" lon="-0.1228150">
        <ele>642.4</ele>
        <time>2020-07-28T07:41:59Z</time>
      </trkpt>
      <trkpt lat="42.9947250" lon="-0.1229460">
        <ele>643.2</ele>
        <time>2020-07-28T07:42:03Z</time>
      </trkpt>
      <trkpt lat="42.9947140" lon="-0.1229780">
        <ele>643.4</ele>
        <time>2020-07-28T07:42:04Z</time>
      </trkpt>
      <trkpt lat="42.9946670" lon="-0.1231100">
        <ele>644.6</ele>
        <time>2020-07-28T07:42:08Z</time>
      </trkpt>
      <trkpt lat="42.9946300" lon="-0.1232080">
        <ele>645.0</ele>
        <time>2020-07-28T07:42:11Z</time>
      </trkpt>
      <trkpt lat="42.9945940" lon="-0.1233030">
        <ele>645.6</ele>
        <time>2020-07-28T07:42:14Z</time>
      </trkpt>
      <trkpt lat="42.9945410" lon="-0.1234240">
        <ele>646.6</ele>
        <time>2020-07-28T07:42:18Z</time>
      </trkpt>
      <trkpt lat="42.9944980" lon="-0.1235110">
        <ele>647.6</ele>
        <time>2020-07-28T07:42:21Z</time>
      </trkpt>
      <trkpt lat="42.9944830" lon="-0.1235420">
        <ele>647.8</ele>
        <time>2020-07-28T07:42:22Z</time>
      </trkpt>
      <trkpt lat="42.9943910" lon="-0.1237160">
        <ele>649.0</ele>
        <time>2020-07-28T07:42:28Z</time>
      </trkpt>
      <trkpt lat="42.9943730" lon="-0.1237450">
        <ele>649.0</ele>
        <time>2020-07-28T07:42:29Z</time>
      </trkpt>
      <trkpt lat="42.9942960" lon="-0.1238610">
        <ele>650.0</ele>
        <time>2020-07-28T07:42:33Z</time>
      </trkpt>
      <trkpt lat="42.9941840" lon="-0.1240160">
        <ele>651.0</ele>
        <time>2020-07-28T07:42:39Z</time>
      </trkpt>
      <trkpt lat="42.9940900" lon="-0.1241050">
        <ele>652.0</ele>
        <time>2020-07-28T07:42:43Z</time>
      </trkpt>
      <trkpt lat="42.9939830" lon="-0.1241760">
        <ele>652.8</ele>
        <time>2020-07-28T07:42:47Z</time>
      </trkpt>
      <trkpt lat="42.9939320" lon="-0.1242030">
        <ele>653.2</ele>
        <time>2020-07-28T07:42:49Z</time>
      </trkpt>
      <trkpt lat="42.9938340" lon="-0.1242650">
        <ele>654.4</ele>
        <time>2020-07-28T07:42:53Z</time>
      </trkpt>
      <trkpt lat="42.9937580" lon="-0.1243130">
        <ele>655.4</ele>
        <time>2020-07-28T07:42:56Z</time>
      </trkpt>
      <trkpt lat="42.9937360" lon="-0.1243350">
        <ele>655.6</ele>
        <time>2020-07-28T07:42:57Z</time>
      </trkpt>
      <trkpt lat="42.9936840" lon="-0.1243930">
        <ele>656.0</ele>
        <time>2020-07-28T07:43:00Z</time>
      </trkpt>
      <trkpt lat="42.9936200" lon="-0.1244740">
        <ele>657.0</ele>
        <time>2020-07-28T07:43:03Z</time>
      </trkpt>
      <trkpt lat="42.9935600" lon="-0.1245520">
        <ele>657.8</ele>
        <time>2020-07-28T07:43:06Z</time>
      </trkpt>
      <trkpt lat="42.9935230" lon="-0.1246010">
        <ele>658.2</ele>
        <time>2020-07-28T07:43:08Z</time>
      </trkpt>
      <trkpt lat="42.9934400" lon="-0.1246940">
        <ele>659.4</ele>
        <time>2020-07-28T07:43:12Z</time>
      </trkpt>
      <trkpt lat="42.9933900" lon="-0.1247820">
        <ele>660.4</ele>
        <time>2020-07-28T07:43:15Z</time>
      </trkpt>
      <trkpt lat="42.9933060" lon="-0.1249120">
        <ele>661.6</ele>
        <time>2020-07-28T07:43:20Z</time>
      </trkpt>
      <trkpt lat="42.9932030" lon="-0.1250240">
        <ele>662.8</ele>
        <time>2020-07-28T07:43:25Z</time>
      </trkpt>
      <trkpt lat="42.9931820" lon="-0.1250450">
        <ele>663.0</ele>
        <time>2020-07-28T07:43:26Z</time>
      </trkpt>
      <trkpt lat="42.9931090" lon="-0.1251340">
        <ele>664.0</ele>
        <time>2020-07-28T07:43:30Z</time>
      </trkpt>
      <trkpt lat="42.9930300" lon="-0.1252470">
        <ele>665.0</ele>
        <time>2020-07-28T07:43:34Z</time>
      </trkpt>
      <trkpt lat="42.9930100" lon="-0.1252730">
        <ele>665.2</ele>
        <time>2020-07-28T07:43:35Z</time>
      </trkpt>
      <trkpt lat="42.9929030" lon="-0.1254230">
        <ele>666.4</ele>
        <time>2020-07-28T07:43:41Z</time>
      </trkpt>
      <trkpt lat="42.9928580" lon="-0.1255150">
        <ele>667.4</ele>
        <time>2020-07-28T07:43:44Z</time>
      </trkpt>
      <trkpt lat="42.9928130" lon="-0.1256420">
        <ele>668.0</ele>
        <time>2020-07-28T07:43:47Z</time>
      </trkpt>
      <trkpt lat="42.9927470" lon="-0.1258730">
        <ele>668.4</ele>
        <time>2020-07-28T07:43:52Z</time>
      </trkpt>
      <trkpt lat="42.9927410" lon="-0.1259280">
        <ele>668.6</ele>
        <time>2020-07-28T07:43:53Z</time>
      </trkpt>
      <trkpt lat="42.9927250" lon="-0.1260370">
        <ele>668.8</ele>
        <time>2020-07-28T07:43:55Z</time>
      </trkpt>
      <trkpt lat="42.9926820" lon="-0.1263520">
        <ele>669.6</ele>
        <time>2020-07-28T07:44:01Z</time>
      </trkpt>
      <trkpt lat="42.9926720" lon="-0.1264040">
        <ele>669.6</ele>
        <time>2020-07-28T07:44:02Z</time>
      </trkpt>
      <trkpt lat="42.9926540" lon="-0.1265120">
        <ele>669.8</ele>
        <time>2020-07-28T07:44:04Z</time>
      </trkpt>
      <trkpt lat="42.9926110" lon="-0.1267340">
        <ele>670.8</ele>
        <time>2020-07-28T07:44:08Z</time>
      </trkpt>
      <trkpt lat="42.9925950" lon="-0.1267900">
        <ele>671.2</ele>
        <time>2020-07-28T07:44:09Z</time>
      </trkpt>
      <trkpt lat="42.9925570" lon="-0.1268980">
        <ele>671.6</ele>
        <time>2020-07-28T07:44:11Z</time>
      </trkpt>
      <trkpt lat="42.9925370" lon="-0.1269530">
        <ele>672.0</ele>
        <time>2020-07-28T07:44:12Z</time>
      </trkpt>
      <trkpt lat="42.9925190" lon="-0.1270040">
        <ele>672.2</ele>
        <time>2020-07-28T07:44:13Z</time>
      </trkpt>
      <trkpt lat="42.9924210" lon="-0.1272590">
        <ele>673.0</ele>
        <time>2020-07-28T07:44:18Z</time>
      </trkpt>
      <trkpt lat="42.9923040" lon="-0.1275030">
        <ele>674.0</ele>
        <time>2020-07-28T07:44:23Z</time>
      </trkpt>
      <trkpt lat="42.9922540" lon="-0.1275950">
        <ele>674.2</ele>
        <time>2020-07-28T07:44:25Z</time>
      </trkpt>
      <trkpt lat="42.9922270" lon="-0.1276370">
        <ele>674.4</ele>
        <time>2020-07-28T07:44:26Z</time>
      </trkpt>
      <trkpt lat="42.9921390" lon="-0.1277500">
        <ele>675.2</ele>
        <time>2020-07-28T07:44:29Z</time>
      </trkpt>
      <trkpt lat="42.9920310" lon="-0.1279860">
        <ele>675.6</ele>
        <time>2020-07-28T07:44:34Z</time>
      </trkpt>
      <trkpt lat="42.9919780" lon="-0.1281390">
        <ele>676.2</ele>
        <time>2020-07-28T07:44:37Z</time>
      </trkpt>
      <trkpt lat="42.9919420" lon="-0.1282920">
        <ele>677.2</ele>
        <time>2020-07-28T07:44:40Z</time>
      </trkpt>
      <trkpt lat="42.9919330" lon="-0.1283420">
        <ele>677.6</ele>
        <time>2020-07-28T07:44:41Z</time>
      </trkpt>
      <trkpt lat="42.9919140" lon="-0.1284420">
        <ele>678.2</ele>
        <time>2020-07-28T07:44:43Z</time>
      </trkpt>
      <trkpt lat="42.9919040" lon="-0.1284900">
        <ele>678.6</ele>
        <time>2020-07-28T07:44:44Z</time>
      </trkpt>
      <trkpt lat="42.9918580" lon="-0.1287260">
        <ele>679.8</ele>
        <time>2020-07-28T07:44:49Z</time>
      </trkpt>
      <trkpt lat="42.9918500" lon="-0.1287710">
        <ele>680.2</ele>
        <time>2020-07-28T07:44:50Z</time>
      </trkpt>
      <trkpt lat="42.9918190" lon="-0.1289380">
        <ele>681.0</ele>
        <time>2020-07-28T07:44:54Z</time>
      </trkpt>
      <trkpt lat="42.9918010" lon="-0.1290240">
        <ele>681.6</ele>
        <time>2020-07-28T07:44:56Z</time>
      </trkpt>
      <trkpt lat="42.9917910" lon="-0.1290690">
        <ele>682.0</ele>
        <time>2020-07-28T07:44:57Z</time>
      </trkpt>
      <trkpt lat="42.9917820" lon="-0.1291150">
        <ele>682.2</ele>
        <time>2020-07-28T07:44:58Z</time>
      </trkpt>
      <trkpt lat="42.9917440" lon="-0.1292840">
        <ele>683.2</ele>
        <time>2020-07-28T07:45:02Z</time>
      </trkpt>
      <trkpt lat="42.9917320" lon="-0.1293280">
        <ele>683.2</ele>
        <time>2020-07-28T07:45:03Z</time>
      </trkpt>
      <trkpt lat="42.9917180" lon="-0.1293720">
        <ele>683.4</ele>
        <time>2020-07-28T07:45:04Z</time>
      </trkpt>
      <trkpt lat="42.9916860" lon="-0.1294580">
        <ele>683.6</ele>
        <time>2020-07-28T07:45:06Z</time>
      </trkpt>
      <trkpt lat="42.9915690" lon="-0.1296840">
        <ele>684.2</ele>
        <time>2020-07-28T07:45:11Z</time>
      </trkpt>
      <trkpt lat="42.9915420" lon="-0.1297250">
        <ele>684.4</ele>
        <time>2020-07-28T07:45:12Z</time>
      </trkpt>
      <trkpt lat="42.9915140" lon="-0.1297640">
        <ele>684.4</ele>
        <time>2020-07-28T07:45:13Z</time>
      </trkpt>
      <trkpt lat="42.9914010" lon="-0.1299180">
        <ele>685.4</ele>
        <time>2020-07-28T07:45:17Z</time>
      </trkpt>
      <trkpt lat="42.9913140" lon="-0.1300240">
        <ele>685.8</ele>
        <time>2020-07-28T07:45:20Z</time>
      </trkpt>
      <trkpt lat="42.9912880" lon="-0.1300620">
        <ele>686.0</ele>
        <time>2020-07-28T07:45:21Z</time>
      </trkpt>
      <trkpt lat="42.9912410" lon="-0.1301440">
        <ele>686.2</ele>
        <time>2020-07-28T07:45:23Z</time>
      </trkpt>
      <trkpt lat="42.9911920" lon="-0.1302230">
        <ele>686.6</ele>
        <time>2020-07-28T07:45:25Z</time>
      </trkpt>
      <trkpt lat="42.9910480" lon="-0.1304660">
        <ele>687.8</ele>
        <time>2020-07-28T07:45:31Z</time>
      </trkpt>
      <trkpt lat="42.9910250" lon="-0.1305040">
        <ele>688.2</ele>
        <time>2020-07-28T07:45:32Z</time>
      </trkpt>
      <trkpt lat="42.9909280" lon="-0.1306480">
        <ele>689.0</ele>
        <time>2020-07-28T07:45:36Z</time>
      </trkpt>
      <trkpt lat="42.9908270" lon="-0.1307890">
        <ele>689.6</ele>
        <time>2020-07-28T07:45:40Z</time>
      </trkpt>
      <trkpt lat="42.9907410" lon="-0.1308870">
        <ele>690.0</ele>
        <time>2020-07-28T07:45:43Z</time>
      </trkpt>
      <trkpt lat="42.9906200" lon="-0.1309980">
        <ele>691.2</ele>
        <time>2020-07-28T07:45:47Z</time>
      </trkpt>
      <trkpt lat="42.9905930" lon="-0.1310260">
        <ele>691.6</ele>
        <time>2020-07-28T07:45:48Z</time>
      </trkpt>
      <trkpt lat="42.9905390" lon="-0.1310830">
        <ele>692.2</ele>
        <time>2020-07-28T07:45:50Z</time>
      </trkpt>
      <trkpt lat="42.9904000" lon="-0.1312240">
        <ele>693.6</ele>
        <time>2020-07-28T07:45:55Z</time>
      </trkpt>
      <trkpt lat="42.9903700" lon="-0.1312530">
        <ele>694.2</ele>
        <time>2020-07-28T07:45:56Z</time>
      </trkpt>
      <trkpt lat="42.9903380" lon="-0.1312800">
        <ele>694.6</ele>
        <time>2020-07-28T07:45:57Z</time>
      </trkpt>
      <trkpt lat="42.9903080" lon="-0.1313100">
        <ele>694.8</ele>
        <time>2020-07-28T07:45:58Z</time>
      </trkpt>
      <trkpt lat="42.9901940" lon="-0.1314400">
        <ele>695.8</ele>
        <time>2020-07-28T07:46:02Z</time>
      </trkpt>
      <trkpt lat="42.9901210" lon="-0.1315550">
        <ele>696.8</ele>
        <time>2020-07-28T07:46:05Z</time>
      </trkpt>
      <trkpt lat="42.9900980" lon="-0.1315990">
        <ele>697.0</ele>
        <time>2020-07-28T07:46:06Z</time>
      </trkpt>
      <trkpt lat="42.9900290" lon="-0.1318500">
        <ele>697.8</ele>
        <time>2020-07-28T07:46:11Z</time>
      </trkpt>
      <trkpt lat="42.9900220" lon="-0.1319060">
        <ele>698.0</ele>
        <time>2020-07-28T07:46:12Z</time>
      </trkpt>
      <trkpt lat="42.9899630" lon="-0.1322580">
        <ele>699.0</ele>
        <time>2020-07-28T07:46:18Z</time>
      </trkpt>
      <trkpt lat="42.9899480" lon="-0.1323130">
        <ele>699.2</ele>
        <time>2020-07-28T07:46:19Z</time>
      </trkpt>
      <trkpt lat="42.9899280" lon="-0.1323680">
        <ele>699.4</ele>
        <time>2020-07-28T07:46:20Z</time>
      </trkpt>
      <trkpt lat="42.9897880" lon="-0.1326140">
        <ele>700.0</ele>
        <time>2020-07-28T07:46:25Z</time>
      </trkpt>
      <trkpt lat="42.9895540" lon="-0.1328750">
        <ele>700.0</ele>
        <time>2020-07-28T07:46:31Z</time>
      </trkpt>
      <trkpt lat="42.9894700" lon="-0.1329670">
        <ele>700.2</ele>
        <time>2020-07-28T07:46:33Z</time>
      </trkpt>
      <trkpt lat="42.9894280" lon="-0.1330160">
        <ele>700.2</ele>
        <time>2020-07-28T07:46:34Z</time>
      </trkpt>
      <trkpt lat="42.9891910" lon="-0.1333520">
        <ele>700.2</ele>
        <time>2020-07-28T07:46:40Z</time>
      </trkpt>
      <trkpt lat="42.9891600" lon="-0.1334190">
        <ele>700.0</ele>
        <time>2020-07-28T07:46:41Z</time>
      </trkpt>
      <trkpt lat="42.9890310" lon="-0.1337700">
        <ele>700.8</ele>
        <time>2020-07-28T07:46:46Z</time>
      </trkpt>
      <trkpt lat="42.9889810" lon="-0.1339120">
        <ele>701.0</ele>
        <time>2020-07-28T07:46:48Z</time>
      </trkpt>
      <trkpt lat="42.9889350" lon="-0.1340540">
        <ele>701.2</ele>
        <time>2020-07-28T07:46:50Z</time>
      </trkpt>
      <trkpt lat="42.9887840" lon="-0.1344490">
        <ele>702.0</ele>
        <time>2020-07-28T07:46:56Z</time>
      </trkpt>
      <trkpt lat="42.9887270" lon="-0.1345630">
        <ele>702.4</ele>
        <time>2020-07-28T07:46:58Z</time>
      </trkpt>
      <trkpt lat="42.9885700" lon="-0.1348230">
        <ele>703.4</ele>
        <time>2020-07-28T07:47:03Z</time>
      </trkpt>
      <trkpt lat="42.9885380" lon="-0.1348740">
        <ele>703.6</ele>
        <time>2020-07-28T07:47:04Z</time>
      </trkpt>
      <trkpt lat="42.9883690" lon="-0.1352250">
        <ele>703.8</ele>
        <time>2020-07-28T07:47:10Z</time>
      </trkpt>
      <trkpt lat="42.9883450" lon="-0.1352890">
        <ele>703.8</ele>
        <time>2020-07-28T07:47:11Z</time>
      </trkpt>
      <trkpt lat="42.9882240" lon="-0.1356970">
        <ele>704.4</ele>
        <time>2020-07-28T07:47:17Z</time>
      </trkpt>
      <trkpt lat="42.9881880" lon="-0.1358380">
        <ele>704.6</ele>
        <time>2020-07-28T07:47:19Z</time>
      </trkpt>
      <trkpt lat="42.9881710" lon="-0.1359090">
        <ele>704.8</ele>
        <time>2020-07-28T07:47:20Z</time>
      </trkpt>
      <trkpt lat="42.9881180" lon="-0.1361210">
        <ele>705.6</ele>
        <time>2020-07-28T07:47:23Z</time>
      </trkpt>
      <trkpt lat="42.9880610" lon="-0.1363330">
        <ele>706.0</ele>
        <time>2020-07-28T07:47:26Z</time>
      </trkpt>
      <trkpt lat="42.9879770" lon="-0.1366040">
        <ele>706.4</ele>
        <time>2020-07-28T07:47:30Z</time>
      </trkpt>
      <trkpt lat="42.9879320" lon="-0.1367300">
        <ele>707.0</ele>
        <time>2020-07-28T07:47:32Z</time>
      </trkpt>
      <trkpt lat="42.9878390" lon="-0.1369800">
        <ele>707.8</ele>
        <time>2020-07-28T07:47:36Z</time>
      </trkpt>
      <trkpt lat="42.9878150" lon="-0.1370430">
        <ele>708.0</ele>
        <time>2020-07-28T07:47:37Z</time>
      </trkpt>
      <trkpt lat="42.9877390" lon="-0.1372290">
        <ele>708.4</ele>
        <time>2020-07-28T07:47:40Z</time>
      </trkpt>
      <trkpt lat="42.9875910" lon="-0.1376080">
        <ele>708.8</ele>
        <time>2020-07-28T07:47:46Z</time>
      </trkpt>
      <trkpt lat="42.9875660" lon="-0.1376710">
        <ele>709.0</ele>
        <time>2020-07-28T07:47:47Z</time>
      </trkpt>
      <trkpt lat="42.9874860" lon="-0.1378670">
        <ele>709.2</ele>
        <time>2020-07-28T07:47:50Z</time>
      </trkpt>
      <trkpt lat="42.9873150" lon="-0.1382710">
        <ele>709.6</ele>
        <time>2020-07-28T07:47:56Z</time>
      </trkpt>
      <trkpt lat="42.9872280" lon="-0.1384720">
        <ele>709.8</ele>
        <time>2020-07-28T07:47:59Z</time>
      </trkpt>
      <trkpt lat="42.9871120" lon="-0.1387430">
        <ele>709.6</ele>
        <time>2020-07-28T07:48:03Z</time>
      </trkpt>
      <trkpt lat="42.9869710" lon="-0.1390720">
        <ele>710.0</ele>
        <time>2020-07-28T07:48:08Z</time>
      </trkpt>
      <trkpt lat="42.9869420" lon="-0.1391380">
        <ele>710.2</ele>
        <time>2020-07-28T07:48:09Z</time>
      </trkpt>
      <trkpt lat="42.9868100" lon="-0.1394560">
        <ele>711.2</ele>
        <time>2020-07-28T07:48:14Z</time>
      </trkpt>
      <trkpt lat="42.9867100" lon="-0.1396990">
        <ele>712.2</ele>
        <time>2020-07-28T07:48:18Z</time>
      </trkpt>
      <trkpt lat="42.9865970" lon="-0.1400720">
        <ele>713.2</ele>
        <time>2020-07-28T07:48:24Z</time>
      </trkpt>
      <trkpt lat="42.9865800" lon="-0.1401320">
        <ele>713.6</ele>
        <time>2020-07-28T07:48:25Z</time>
      </trkpt>
      <trkpt lat="42.9865620" lon="-0.1401930">
        <ele>713.8</ele>
        <time>2020-07-28T07:48:26Z</time>
      </trkpt>
      <trkpt lat="42.9864810" lon="-0.1404230">
        <ele>714.6</ele>
        <time>2020-07-28T07:48:30Z</time>
      </trkpt>
      <trkpt lat="42.9863820" lon="-0.1406820">
        <ele>715.8</ele>
        <time>2020-07-28T07:48:35Z</time>
      </trkpt>
      <trkpt lat="42.9863250" lon="-0.1408230">
        <ele>717.0</ele>
        <time>2020-07-28T07:48:38Z</time>
      </trkpt>
      <trkpt lat="42.9862580" lon="-0.1409900">
        <ele>718.2</ele>
        <time>2020-07-28T07:48:42Z</time>
      </trkpt>
      <trkpt lat="42.9862040" lon="-0.1411110">
        <ele>719.2</ele>
        <time>2020-07-28T07:48:45Z</time>
      </trkpt>
      <trkpt lat="42.9861860" lon="-0.1411510">
        <ele>719.4</ele>
        <time>2020-07-28T07:48:46Z</time>
      </trkpt>
      <trkpt lat="42.9860960" lon="-0.1413540">
        <ele>720.6</ele>
        <time>2020-07-28T07:48:51Z</time>
      </trkpt>
      <trkpt lat="42.9860030" lon="-0.1415600">
        <ele>721.4</ele>
        <time>2020-07-28T07:48:56Z</time>
      </trkpt>
      <trkpt lat="42.9859680" lon="-0.1416390">
        <ele>721.6</ele>
        <time>2020-07-28T07:48:58Z</time>
      </trkpt>
      <trkpt lat="42.9858570" lon="-0.1418980">
        <ele>722.6</ele>
        <time>2020-07-28T07:49:04Z</time>
      </trkpt>
      <trkpt lat="42.9858370" lon="-0.1419450">
        <ele>722.8</ele>
        <time>2020-07-28T07:49:05Z</time>
      </trkpt>
      <trkpt lat="42.9857800" lon="-0.1420870">
        <ele>723.4</ele>
        <time>2020-07-28T07:49:08Z</time>
      </trkpt>
      <trkpt lat="42.9857470" lon="-0.1421850">
        <ele>723.8</ele>
        <time>2020-07-28T07:49:10Z</time>
      </trkpt>
      <trkpt lat="42.9856980" lon="-0.1423280">
        <ele>724.2</ele>
        <time>2020-07-28T07:49:13Z</time>
      </trkpt>
      <trkpt lat="42.9856340" lon="-0.1425100">
        <ele>725.2</ele>
        <time>2020-07-28T07:49:17Z</time>
      </trkpt>
      <trkpt lat="42.9855890" lon="-0.1426840">
        <ele>726.4</ele>
        <time>2020-07-28T07:49:21Z</time>
      </trkpt>
      <trkpt lat="42.9855400" lon="-0.1428420">
        <ele>727.4</ele>
        <time>2020-07-28T07:49:25Z</time>
      </trkpt>
      <trkpt lat="42.9855120" lon="-0.1429700">
        <ele>728.4</ele>
        <time>2020-07-28T07:49:28Z</time>
      </trkpt>
      <trkpt lat="42.9855020" lon="-0.1430130">
        <ele>728.6</ele>
        <time>2020-07-28T07:49:29Z</time>
      </trkpt>
      <trkpt lat="42.9854480" lon="-0.1432720">
        <ele>729.6</ele>
        <time>2020-07-28T07:49:35Z</time>
      </trkpt>
      <trkpt lat="42.9854410" lon="-0.1433170">
        <ele>729.8</ele>
        <time>2020-07-28T07:49:36Z</time>
      </trkpt>
      <trkpt lat="42.9854140" lon="-0.1434500">
        <ele>730.2</ele>
        <time>2020-07-28T07:49:39Z</time>
      </trkpt>
      <trkpt lat="42.9853370" lon="-0.1436630">
        <ele>730.8</ele>
        <time>2020-07-28T07:49:44Z</time>
      </trkpt>
      <trkpt lat="42.9852770" lon="-0.1437990">
        <ele>731.2</ele>
        <time>2020-07-28T07:49:47Z</time>
      </trkpt>
      <trkpt lat="42.9851640" lon="-0.1440300">
        <ele>731.8</ele>
        <time>2020-07-28T07:49:52Z</time>
      </trkpt>
      <trkpt lat="42.9850820" lon="-0.1441510">
        <ele>732.4</ele>
        <time>2020-07-28T07:49:55Z</time>
      </trkpt>
      <trkpt lat="42.9849570" lon="-0.1443060">
        <ele>733.0</ele>
        <time>2020-07-28T07:49:59Z</time>
      </trkpt>
      <trkpt lat="42.9848020" lon="-0.1445130">
        <ele>733.2</ele>
        <time>2020-07-28T07:50:04Z</time>
      </trkpt>
      <trkpt lat="42.9846120" lon="-0.1447770">
        <ele>733.6</ele>
        <time>2020-07-28T07:50:10Z</time>
      </trkpt>
      <trkpt lat="42.9844780" lon="-0.1449540">
        <ele>734.0</ele>
        <time>2020-07-28T07:50:14Z</time>
      </trkpt>
      <trkpt lat="42.9842870" lon="-0.1452190">
        <ele>734.8</ele>
        <time>2020-07-28T07:50:20Z</time>
      </trkpt>
      <trkpt lat="42.9842550" lon="-0.1452660">
        <ele>735.0</ele>
        <time>2020-07-28T07:50:21Z</time>
      </trkpt>
      <trkpt lat="42.9842260" lon="-0.1453140">
        <ele>735.2</ele>
        <time>2020-07-28T07:50:22Z</time>
      </trkpt>
      <trkpt lat="42.9841960" lon="-0.1453620">
        <ele>735.4</ele>
        <time>2020-07-28T07:50:23Z</time>
      </trkpt>
      <trkpt lat="42.9840460" lon="-0.1455980">
        <ele>736.4</ele>
        <time>2020-07-28T07:50:28Z</time>
      </trkpt>
      <trkpt lat="42.9839290" lon="-0.1457820">
        <ele>737.0</ele>
        <time>2020-07-28T07:50:32Z</time>
      </trkpt>
      <trkpt lat="42.9838390" lon="-0.1459260">
        <ele>737.6</ele>
        <time>2020-07-28T07:50:35Z</time>
      </trkpt>
      <trkpt lat="42.9837120" lon="-0.1461910">
        <ele>738.6</ele>
        <time>2020-07-28T07:50:40Z</time>
      </trkpt>
      <trkpt lat="42.9836940" lon="-0.1462480">
        <ele>738.8</ele>
        <time>2020-07-28T07:50:41Z</time>
      </trkpt>
      <trkpt lat="42.9836380" lon="-0.1465780">
        <ele>739.8</ele>
        <time>2020-07-28T07:50:46Z</time>
      </trkpt>
      <trkpt lat="42.9835960" lon="-0.1470300">
        <ele>739.2</ele>
        <time>2020-07-28T07:50:52Z</time>
      </trkpt>
      <trkpt lat="42.9835880" lon="-0.1471040">
        <ele>739.2</ele>
        <time>2020-07-28T07:50:53Z</time>
      </trkpt>
      <trkpt lat="42.9835720" lon="-0.1473280">
        <ele>739.2</ele>
        <time>2020-07-28T07:50:56Z</time>
      </trkpt>
      <trkpt lat="42.9835460" lon="-0.1478020">
        <ele>739.2</ele>
        <time>2020-07-28T07:51:02Z</time>
      </trkpt>
      <trkpt lat="42.9835400" lon="-0.1478820">
        <ele>739.2</ele>
        <time>2020-07-28T07:51:03Z</time>
      </trkpt>
      <trkpt lat="42.9835320" lon="-0.1479630">
        <ele>739.2</ele>
        <time>2020-07-28T07:51:04Z</time>
      </trkpt>
      <trkpt lat="42.9834810" lon="-0.1482770">
        <ele>739.4</ele>
        <time>2020-07-28T07:51:08Z</time>
      </trkpt>
      <trkpt lat="42.9834450" lon="-0.1484330">
        <ele>739.2</ele>
        <time>2020-07-28T07:51:10Z</time>
      </trkpt>
      <trkpt lat="42.9832820" lon="-0.1488530">
        <ele>739.8</ele>
        <time>2020-07-28T07:51:16Z</time>
      </trkpt>
      <trkpt lat="42.9831120" lon="-0.1492380">
        <ele>740.8</ele>
        <time>2020-07-28T07:51:22Z</time>
      </trkpt>
      <trkpt lat="42.9830090" lon="-0.1494850">
        <ele>741.6</ele>
        <time>2020-07-28T07:51:26Z</time>
      </trkpt>
      <trkpt lat="42.9829600" lon="-0.1496150">
        <ele>742.0</ele>
        <time>2020-07-28T07:51:28Z</time>
      </trkpt>
      <trkpt lat="42.9828320" lon="-0.1500270">
        <ele>743.0</ele>
        <time>2020-07-28T07:51:34Z</time>
      </trkpt>
      <trkpt lat="42.9828150" lon="-0.1500970">
        <ele>743.0</ele>
        <time>2020-07-28T07:51:35Z</time>
      </trkpt>
      <trkpt lat="42.9827980" lon="-0.1501630">
        <ele>743.0</ele>
        <time>2020-07-28T07:51:36Z</time>
      </trkpt>
      <trkpt lat="42.9827500" lon="-0.1503660">
        <ele>743.4</ele>
        <time>2020-07-28T07:51:39Z</time>
      </trkpt>
      <trkpt lat="42.9827180" lon="-0.1505060">
        <ele>743.6</ele>
        <time>2020-07-28T07:51:41Z</time>
      </trkpt>
      <trkpt lat="42.9826720" lon="-0.1507400">
        <ele>744.0</ele>
        <time>2020-07-28T07:51:44Z</time>
      </trkpt>
      <trkpt lat="42.9826420" lon="-0.1508800">
        <ele>744.2</ele>
        <time>2020-07-28T07:51:46Z</time>
      </trkpt>
      <trkpt lat="42.9825830" lon="-0.1511450">
        <ele>745.4</ele>
        <time>2020-07-28T07:51:50Z</time>
      </trkpt>
      <trkpt lat="42.9825680" lon="-0.1512120">
        <ele>745.6</ele>
        <time>2020-07-28T07:51:51Z</time>
      </trkpt>
      <trkpt lat="42.9825180" lon="-0.1514020">
        <ele>746.0</ele>
        <time>2020-07-28T07:51:54Z</time>
      </trkpt>
      <trkpt lat="42.9824790" lon="-0.1515240">
        <ele>746.4</ele>
        <time>2020-07-28T07:51:56Z</time>
      </trkpt>
      <trkpt lat="42.9824130" lon="-0.1517020">
        <ele>746.8</ele>
        <time>2020-07-28T07:51:59Z</time>
      </trkpt>
      <trkpt lat="42.9823670" lon="-0.1518120">
        <ele>747.6</ele>
        <time>2020-07-28T07:52:01Z</time>
      </trkpt>
      <trkpt lat="42.9823420" lon="-0.1518650">
        <ele>747.8</ele>
        <time>2020-07-28T07:52:02Z</time>
      </trkpt>
      <trkpt lat="42.9822540" lon="-0.1520250">
        <ele>748.8</ele>
        <time>2020-07-28T07:52:05Z</time>
      </trkpt>
      <trkpt lat="42.9821130" lon="-0.1522720">
        <ele>749.8</ele>
        <time>2020-07-28T07:52:10Z</time>
      </trkpt>
      <trkpt lat="42.9819690" lon="-0.1525370">
        <ele>751.0</ele>
        <time>2020-07-28T07:52:15Z</time>
      </trkpt>
      <trkpt lat="42.9818580" lon="-0.1527360">
        <ele>752.0</ele>
        <time>2020-07-28T07:52:19Z</time>
      </trkpt>
      <trkpt lat="42.9817700" lon="-0.1528910">
        <ele>752.8</ele>
        <time>2020-07-28T07:52:22Z</time>
      </trkpt>
      <trkpt lat="42.9817090" lon="-0.1529980">
        <ele>753.0</ele>
        <time>2020-07-28T07:52:24Z</time>
      </trkpt>
      <trkpt lat="42.9816490" lon="-0.1531050">
        <ele>753.2</ele>
        <time>2020-07-28T07:52:26Z</time>
      </trkpt>
      <trkpt lat="42.9815000" lon="-0.1533710">
        <ele>754.2</ele>
        <time>2020-07-28T07:52:31Z</time>
      </trkpt>
      <trkpt lat="42.9814710" lon="-0.1534210">
        <ele>754.2</ele>
        <time>2020-07-28T07:52:32Z</time>
      </trkpt>
      <trkpt lat="42.9814120" lon="-0.1535230">
        <ele>754.6</ele>
        <time>2020-07-28T07:52:34Z</time>
      </trkpt>
      <trkpt lat="42.9813250" lon="-0.1536800">
        <ele>755.2</ele>
        <time>2020-07-28T07:52:37Z</time>
      </trkpt>
      <trkpt lat="42.9812970" lon="-0.1537320">
        <ele>755.4</ele>
        <time>2020-07-28T07:52:38Z</time>
      </trkpt>
      <trkpt lat="42.9811870" lon="-0.1539390">
        <ele>756.0</ele>
        <time>2020-07-28T07:52:42Z</time>
      </trkpt>
      <trkpt lat="42.9810730" lon="-0.1541500">
        <ele>756.2</ele>
        <time>2020-07-28T07:52:46Z</time>
      </trkpt>
      <trkpt lat="42.9810220" lon="-0.1542600">
        <ele>756.4</ele>
        <time>2020-07-28T07:52:48Z</time>
      </trkpt>
      <trkpt lat="42.9809370" lon="-0.1544850">
        <ele>757.0</ele>
        <time>2020-07-28T07:52:52Z</time>
      </trkpt>
      <trkpt lat="42.9808880" lon="-0.1546630">
        <ele>757.6</ele>
        <time>2020-07-28T07:52:55Z</time>
      </trkpt>
      <trkpt lat="42.9808160" lon="-0.1549630">
        <ele>758.8</ele>
        <time>2020-07-28T07:53:00Z</time>
      </trkpt>
      <trkpt lat="42.9807910" lon="-0.1550870">
        <ele>759.2</ele>
        <time>2020-07-28T07:53:02Z</time>
      </trkpt>
      <trkpt lat="42.9807410" lon="-0.1553360">
        <ele>760.0</ele>
        <time>2020-07-28T07:53:06Z</time>
      </trkpt>
      <trkpt lat="42.9806750" lon="-0.1556420">
        <ele>761.0</ele>
        <time>2020-07-28T07:53:11Z</time>
      </trkpt>
      <trkpt lat="42.9806380" lon="-0.1558220">
        <ele>761.6</ele>
        <time>2020-07-28T07:53:14Z</time>
      </trkpt>
      <trkpt lat="42.9806230" lon="-0.1558820">
        <ele>761.8</ele>
        <time>2020-07-28T07:53:15Z</time>
      </trkpt>
      <trkpt lat="42.9806100" lon="-0.1559420">
        <ele>762.2</ele>
        <time>2020-07-28T07:53:16Z</time>
      </trkpt>
      <trkpt lat="42.9805340" lon="-0.1563050">
        <ele>763.2</ele>
        <time>2020-07-28T07:53:22Z</time>
      </trkpt>
      <trkpt lat="42.9804680" lon="-0.1566050">
        <ele>764.4</ele>
        <time>2020-07-28T07:53:27Z</time>
      </trkpt>
      <trkpt lat="42.9803930" lon="-0.1569610">
        <ele>765.4</ele>
        <time>2020-07-28T07:53:33Z</time>
      </trkpt>
      <trkpt lat="42.9803440" lon="-0.1571850">
        <ele>766.6</ele>
        <time>2020-07-28T07:53:37Z</time>
      </trkpt>
      <trkpt lat="42.9803200" lon="-0.1572900">
        <ele>767.0</ele>
        <time>2020-07-28T07:53:39Z</time>
      </trkpt>
      <trkpt lat="42.9802880" lon="-0.1574430">
        <ele>768.0</ele>
        <time>2020-07-28T07:53:42Z</time>
      </trkpt>
      <trkpt lat="42.9802290" lon="-0.1576940">
        <ele>769.0</ele>
        <time>2020-07-28T07:53:47Z</time>
      </trkpt>
      <trkpt lat="42.9802170" lon="-0.1577450">
        <ele>769.2</ele>
        <time>2020-07-28T07:53:48Z</time>
      </trkpt>
      <trkpt lat="42.9801800" lon="-0.1579460">
        <ele>770.2</ele>
        <time>2020-07-28T07:53:52Z</time>
      </trkpt>
      <trkpt lat="42.9801440" lon="-0.1581350">
        <ele>771.4</ele>
        <time>2020-07-28T07:53:56Z</time>
      </trkpt>
      <trkpt lat="42.9801370" lon="-0.1581770">
        <ele>771.8</ele>
        <time>2020-07-28T07:53:57Z</time>
      </trkpt>
      <trkpt lat="42.9801140" lon="-0.1583170">
        <ele>772.4</ele>
        <time>2020-07-28T07:54:00Z</time>
      </trkpt>
      <trkpt lat="42.9800740" lon="-0.1585260">
        <ele>773.6</ele>
        <time>2020-07-28T07:54:05Z</time>
      </trkpt>
      <trkpt lat="42.9800550" lon="-0.1586100">
        <ele>774.0</ele>
        <time>2020-07-28T07:54:07Z</time>
      </trkpt>
      <trkpt lat="42.9800190" lon="-0.1587720">
        <ele>774.8</ele>
        <time>2020-07-28T07:54:11Z</time>
      </trkpt>
      <trkpt lat="42.9799840" lon="-0.1589320">
        <ele>775.8</ele>
        <time>2020-07-28T07:54:15Z</time>
      </trkpt>
      <trkpt lat="42.9799730" lon="-0.1589680">
        <ele>776.0</ele>
        <time>2020-07-28T07:54:16Z</time>
      </trkpt>
      <trkpt lat="42.9799630" lon="-0.1590060">
        <ele>776.2</ele>
        <time>2020-07-28T07:54:17Z</time>
      </trkpt>
      <trkpt lat="42.9799290" lon="-0.1591240">
        <ele>777.0</ele>
        <time>2020-07-28T07:54:20Z</time>
      </trkpt>
      <trkpt lat="42.9798960" lon="-0.1592560">
        <ele>777.8</ele>
        <time>2020-07-28T07:54:23Z</time>
      </trkpt>
      <trkpt lat="42.9798740" lon="-0.1593370">
        <ele>778.2</ele>
        <time>2020-07-28T07:54:25Z</time>
      </trkpt>
      <trkpt lat="42.9798550" lon="-0.1594230">
        <ele>779.0</ele>
        <time>2020-07-28T07:54:27Z</time>
      </trkpt>
      <trkpt lat="42.9798370" lon="-0.1595080">
        <ele>779.4</ele>
        <time>2020-07-28T07:54:29Z</time>
      </trkpt>
      <trkpt lat="42.9797980" lon="-0.1597050">
        <ele>780.6</ele>
        <time>2020-07-28T07:54:34Z</time>
      </trkpt>
      <trkpt lat="42.9797850" lon="-0.1597800">
        <ele>781.2</ele>
        <time>2020-07-28T07:54:36Z</time>
      </trkpt>
      <trkpt lat="42.9797770" lon="-0.1598930">
        <ele>781.8</ele>
        <time>2020-07-28T07:54:39Z</time>
      </trkpt>
      <trkpt lat="42.9797680" lon="-0.1600480">
        <ele>782.8</ele>
        <time>2020-07-28T07:54:43Z</time>
      </trkpt>
      <trkpt lat="42.9797650" lon="-0.1600870">
        <ele>783.2</ele>
        <time>2020-07-28T07:54:44Z</time>
      </trkpt>
      <trkpt lat="42.9797590" lon="-0.1601640">
        <ele>783.8</ele>
        <time>2020-07-28T07:54:46Z</time>
      </trkpt>
      <trkpt lat="42.9797460" lon="-0.1603550">
        <ele>785.2</ele>
        <time>2020-07-28T07:54:51Z</time>
      </trkpt>
      <trkpt lat="42.9797390" lon="-0.1604290">
        <ele>785.8</ele>
        <time>2020-07-28T07:54:53Z</time>
      </trkpt>
      <trkpt lat="42.9797300" lon="-0.1605550">
        <ele>786.4</ele>
        <time>2020-07-28T07:54:56Z</time>
      </trkpt>
      <trkpt lat="42.9797210" lon="-0.1606880">
        <ele>787.2</ele>
        <time>2020-07-28T07:54:59Z</time>
      </trkpt>
      <trkpt lat="42.9797120" lon="-0.1607760">
        <ele>787.4</ele>
        <time>2020-07-28T07:55:01Z</time>
      </trkpt>
      <trkpt lat="42.9796970" lon="-0.1609480">
        <ele>788.6</ele>
        <time>2020-07-28T07:55:05Z</time>
      </trkpt>
      <trkpt lat="42.9796870" lon="-0.1611580">
        <ele>789.8</ele>
        <time>2020-07-28T07:55:10Z</time>
      </trkpt>
      <trkpt lat="42.9796760" lon="-0.1613340">
        <ele>790.8</ele>
        <time>2020-07-28T07:55:14Z</time>
      </trkpt>
      <trkpt lat="42.9796570" lon="-0.1616250">
        <ele>792.0</ele>
        <time>2020-07-28T07:55:20Z</time>
      </trkpt>
      <trkpt lat="42.9796530" lon="-0.1616750">
        <ele>792.2</ele>
        <time>2020-07-28T07:55:21Z</time>
      </trkpt>
      <trkpt lat="42.9796350" lon="-0.1618810">
        <ele>792.6</ele>
        <time>2020-07-28T07:55:25Z</time>
      </trkpt>
      <trkpt lat="42.9796310" lon="-0.1619930">
        <ele>793.2</ele>
        <time>2020-07-28T07:55:27Z</time>
      </trkpt>
      <trkpt lat="42.9796260" lon="-0.1620510">
        <ele>793.4</ele>
        <time>2020-07-28T07:55:28Z</time>
      </trkpt>
      <trkpt lat="42.9796130" lon="-0.1624070">
        <ele>794.0</ele>
        <time>2020-07-28T07:55:34Z</time>
      </trkpt>
      <trkpt lat="42.9796170" lon="-0.1624660">
        <ele>794.2</ele>
        <time>2020-07-28T07:55:35Z</time>
      </trkpt>
      <trkpt lat="42.9796310" lon="-0.1625820">
        <ele>794.8</ele>
        <time>2020-07-28T07:55:37Z</time>
      </trkpt>
      <trkpt lat="42.9796580" lon="-0.1627510">
        <ele>795.2</ele>
        <time>2020-07-28T07:55:40Z</time>
      </trkpt>
      <trkpt lat="42.9797140" lon="-0.1631160">
        <ele>796.0</ele>
        <time>2020-07-28T07:55:46Z</time>
      </trkpt>
      <trkpt lat="42.9797470" lon="-0.1633700">
        <ele>796.2</ele>
        <time>2020-07-28T07:55:50Z</time>
      </trkpt>
      <trkpt lat="42.9797750" lon="-0.1637590">
        <ele>796.4</ele>
        <time>2020-07-28T07:55:56Z</time>
      </trkpt>
      <trkpt lat="42.9797430" lon="-0.1641850">
        <ele>797.0</ele>
        <time>2020-07-28T07:56:02Z</time>
      </trkpt>
      <trkpt lat="42.9797310" lon="-0.1643330">
        <ele>797.2</ele>
        <time>2020-07-28T07:56:04Z</time>
      </trkpt>
      <trkpt lat="42.9797090" lon="-0.1645550">
        <ele>797.2</ele>
        <time>2020-07-28T07:56:07Z</time>
      </trkpt>
      <trkpt lat="42.9796670" lon="-0.1649920">
        <ele>798.0</ele>
        <time>2020-07-28T07:56:13Z</time>
      </trkpt>
      <trkpt lat="42.9796620" lon="-0.1650630">
        <ele>798.2</ele>
        <time>2020-07-28T07:56:14Z</time>
      </trkpt>
      <trkpt lat="42.9796540" lon="-0.1652690">
        <ele>799.0</ele>
        <time>2020-07-28T07:56:17Z</time>
      </trkpt>
      <trkpt lat="42.9796650" lon="-0.1653940">
        <ele>799.6</ele>
        <time>2020-07-28T07:56:19Z</time>
      </trkpt>
      <trkpt lat="42.9796720" lon="-0.1654510">
        <ele>800.0</ele>
        <time>2020-07-28T07:56:20Z</time>
      </trkpt>
      <trkpt lat="42.9796840" lon="-0.1655560">
        <ele>800.6</ele>
        <time>2020-07-28T07:56:22Z</time>
      </trkpt>
      <trkpt lat="42.9796900" lon="-0.1656020">
        <ele>801.0</ele>
        <time>2020-07-28T07:56:23Z</time>
      </trkpt>
      <trkpt lat="42.9797010" lon="-0.1656810">
        <ele>801.8</ele>
        <time>2020-07-28T07:56:25Z</time>
      </trkpt>
      <trkpt lat="42.9797060" lon="-0.1657180">
        <ele>802.2</ele>
        <time>2020-07-28T07:56:26Z</time>
      </trkpt>
      <trkpt lat="42.9797260" lon="-0.1658870">
        <ele>803.0</ele>
        <time>2020-07-28T07:56:30Z</time>
      </trkpt>
      <trkpt lat="42.9797410" lon="-0.1660190">
        <ele>804.2</ele>
        <time>2020-07-28T07:56:33Z</time>
      </trkpt>
      <trkpt lat="42.9797480" lon="-0.1660600">
        <ele>804.4</ele>
        <time>2020-07-28T07:56:34Z</time>
      </trkpt>
      <trkpt lat="42.9797540" lon="-0.1661020">
        <ele>804.8</ele>
        <time>2020-07-28T07:56:35Z</time>
      </trkpt>
      <trkpt lat="42.9797610" lon="-0.1661860">
        <ele>805.2</ele>
        <time>2020-07-28T07:56:37Z</time>
      </trkpt>
      <trkpt lat="42.9797600" lon="-0.1664010">
        <ele>806.4</ele>
        <time>2020-07-28T07:56:42Z</time>
      </trkpt>
      <trkpt lat="42.9797610" lon="-0.1664440">
        <ele>806.8</ele>
        <time>2020-07-28T07:56:43Z</time>
      </trkpt>
      <trkpt lat="42.9797620" lon="-0.1665770">
        <ele>807.6</ele>
        <time>2020-07-28T07:56:46Z</time>
      </trkpt>
      <trkpt lat="42.9797690" lon="-0.1666660">
        <ele>808.0</ele>
        <time>2020-07-28T07:56:48Z</time>
      </trkpt>
      <trkpt lat="42.9797750" lon="-0.1668020">
        <ele>808.8</ele>
        <time>2020-07-28T07:56:51Z</time>
      </trkpt>
      <trkpt lat="42.9797860" lon="-0.1670430">
        <ele>810.0</ele>
        <time>2020-07-28T07:56:56Z</time>
      </trkpt>
      <trkpt lat="42.9797960" lon="-0.1671930">
        <ele>810.6</ele>
        <time>2020-07-28T07:56:59Z</time>
      </trkpt>
      <trkpt lat="42.9798020" lon="-0.1673920">
        <ele>811.0</ele>
        <time>2020-07-28T07:57:03Z</time>
      </trkpt>
      <trkpt lat="42.9798130" lon="-0.1675890">
        <ele>812.0</ele>
        <time>2020-07-28T07:57:07Z</time>
      </trkpt>
      <trkpt lat="42.9798130" lon="-0.1678720">
        <ele>813.0</ele>
        <time>2020-07-28T07:57:13Z</time>
      </trkpt>
      <trkpt lat="42.9797970" lon="-0.1679610">
        <ele>813.2</ele>
        <time>2020-07-28T07:57:15Z</time>
      </trkpt>
      <trkpt lat="42.9797270" lon="-0.1682400">
        <ele>814.2</ele>
        <time>2020-07-28T07:57:21Z</time>
      </trkpt>
      <trkpt lat="42.9797160" lon="-0.1682850">
        <ele>814.4</ele>
        <time>2020-07-28T07:57:22Z</time>
      </trkpt>
      <trkpt lat="42.9796370" lon="-0.1685540">
        <ele>815.4</ele>
        <time>2020-07-28T07:57:28Z</time>
      </trkpt>
      <trkpt lat="42.9796240" lon="-0.1686010">
        <ele>815.6</ele>
        <time>2020-07-28T07:57:29Z</time>
      </trkpt>
      <trkpt lat="42.9795810" lon="-0.1687740">
        <ele>815.8</ele>
        <time>2020-07-28T07:57:33Z</time>
      </trkpt>
      <trkpt lat="42.9795530" lon="-0.1688840">
        <ele>815.8</ele>
        <time>2020-07-28T07:57:36Z</time>
      </trkpt>
      <trkpt lat="42.9795450" lon="-0.1689200">
        <ele>816.0</ele>
        <time>2020-07-28T07:57:37Z</time>
      </trkpt>
      <trkpt lat="42.9795130" lon="-0.1690580">
        <ele>815.6</ele>
        <time>2020-07-28T07:57:40Z</time>
      </trkpt>
      <trkpt lat="42.9794800" lon="-0.1691810">
        <ele>815.4</ele>
        <time>2020-07-28T07:57:42Z</time>
      </trkpt>
      <trkpt lat="42.9793280" lon="-0.1696020">
        <ele>814.6</ele>
        <time>2020-07-28T07:57:48Z</time>
      </trkpt>
      <trkpt lat="42.9792900" lon="-0.1696800">
        <ele>814.4</ele>
        <time>2020-07-28T07:57:49Z</time>
      </trkpt>
      <trkpt lat="42.9791680" lon="-0.1699200">
        <ele>813.0</ele>
        <time>2020-07-28T07:57:52Z</time>
      </trkpt>
      <trkpt lat="42.9790950" lon="-0.1700950">
        <ele>812.0</ele>
        <time>2020-07-28T07:57:54Z</time>
      </trkpt>
      <trkpt lat="42.9790680" lon="-0.1701900">
        <ele>811.8</ele>
        <time>2020-07-28T07:57:55Z</time>
      </trkpt>
      <trkpt lat="42.9790340" lon="-0.1705000">
        <ele>811.0</ele>
        <time>2020-07-28T07:57:58Z</time>
      </trkpt>
      <trkpt lat="42.9790320" lon="-0.1706050">
        <ele>810.8</ele>
        <time>2020-07-28T07:57:59Z</time>
      </trkpt>
      <trkpt lat="42.9790010" lon="-0.1711210">
        <ele>810.0</ele>
        <time>2020-07-28T07:58:04Z</time>
      </trkpt>
      <trkpt lat="42.9789790" lon="-0.1712180">
        <ele>810.0</ele>
        <time>2020-07-28T07:58:05Z</time>
      </trkpt>
      <trkpt lat="42.9788940" lon="-0.1714760">
        <ele>810.0</ele>
        <time>2020-07-28T07:58:08Z</time>
      </trkpt>
      <trkpt lat="42.9786840" lon="-0.1719660">
        <ele>809.8</ele>
        <time>2020-07-28T07:58:14Z</time>
      </trkpt>
      <trkpt lat="42.9786450" lon="-0.1720510">
        <ele>809.6</ele>
        <time>2020-07-28T07:58:15Z</time>
      </trkpt>
      <trkpt lat="42.9785210" lon="-0.1723180">
        <ele>808.4</ele>
        <time>2020-07-28T07:58:18Z</time>
      </trkpt>
      <trkpt lat="42.9783600" lon="-0.1727070">
        <ele>807.0</ele>
        <time>2020-07-28T07:58:22Z</time>
      </trkpt>
      <trkpt lat="42.9782650" lon="-0.1730500">
        <ele>805.6</ele>
        <time>2020-07-28T07:58:25Z</time>
      </trkpt>
      <trkpt lat="42.9782450" lon="-0.1731720">
        <ele>804.8</ele>
        <time>2020-07-28T07:58:26Z</time>
      </trkpt>
      <trkpt lat="42.9782300" lon="-0.1732990">
        <ele>804.4</ele>
        <time>2020-07-28T07:58:27Z</time>
      </trkpt>
      <trkpt lat="42.9782160" lon="-0.1736930">
        <ele>803.0</ele>
        <time>2020-07-28T07:58:30Z</time>
      </trkpt>
      <trkpt lat="42.9782200" lon="-0.1739660">
        <ele>801.6</ele>
        <time>2020-07-28T07:58:32Z</time>
      </trkpt>
      <trkpt lat="42.9782180" lon="-0.1742500">
        <ele>800.2</ele>
        <time>2020-07-28T07:58:34Z</time>
      </trkpt>
      <trkpt lat="42.9782200" lon="-0.1745390">
        <ele>798.8</ele>
        <time>2020-07-28T07:58:36Z</time>
      </trkpt>
      <trkpt lat="42.9782250" lon="-0.1748110">
        <ele>798.0</ele>
        <time>2020-07-28T07:58:38Z</time>
      </trkpt>
      <trkpt lat="42.9782630" lon="-0.1755160">
        <ele>800.2</ele>
        <time>2020-07-28T07:58:44Z</time>
      </trkpt>
      <trkpt lat="42.9782790" lon="-0.1759810">
        <ele>801.4</ele>
        <time>2020-07-28T07:58:49Z</time>
      </trkpt>
      <trkpt lat="42.9782770" lon="-0.1760670">
        <ele>801.6</ele>
        <time>2020-07-28T07:58:50Z</time>
      </trkpt>
      <trkpt lat="42.9782680" lon="-0.1763190">
        <ele>802.2</ele>
        <time>2020-07-28T07:58:53Z</time>
      </trkpt>
      <trkpt lat="42.9782620" lon="-0.1763980">
        <ele>802.6</ele>
        <time>2020-07-28T07:58:54Z</time>
      </trkpt>
      <trkpt lat="42.9782280" lon="-0.1766150">
        <ele>803.4</ele>
        <time>2020-07-28T07:58:57Z</time>
      </trkpt>
      <trkpt lat="42.9782120" lon="-0.1766810">
        <ele>803.6</ele>
        <time>2020-07-28T07:58:58Z</time>
      </trkpt>
      <trkpt lat="42.9781540" lon="-0.1768730">
        <ele>804.0</ele>
        <time>2020-07-28T07:59:01Z</time>
      </trkpt>
      <trkpt lat="42.9780850" lon="-0.1770550">
        <ele>804.2</ele>
        <time>2020-07-28T07:59:04Z</time>
      </trkpt>
      <trkpt lat="42.9780330" lon="-0.1771750">
        <ele>804.6</ele>
        <time>2020-07-28T07:59:06Z</time>
      </trkpt>
      <trkpt lat="42.9780090" lon="-0.1772370">
        <ele>804.6</ele>
        <time>2020-07-28T07:59:07Z</time>
      </trkpt>
      <trkpt lat="42.9779370" lon="-0.1775050">
        <ele>804.8</ele>
        <time>2020-07-28T07:59:11Z</time>
      </trkpt>
      <trkpt lat="42.9779110" lon="-0.1776410">
        <ele>805.0</ele>
        <time>2020-07-28T07:59:13Z</time>
      </trkpt>
      <trkpt lat="42.9779010" lon="-0.1777060">
        <ele>805.2</ele>
        <time>2020-07-28T07:59:14Z</time>
      </trkpt>
      <trkpt lat="42.9778910" lon="-0.1777690">
        <ele>805.4</ele>
        <time>2020-07-28T07:59:15Z</time>
      </trkpt>
      <trkpt lat="42.9778730" lon="-0.1778900">
        <ele>805.8</ele>
        <time>2020-07-28T07:59:17Z</time>
      </trkpt>
      <trkpt lat="42.9778400" lon="-0.1780640">
        <ele>806.6</ele>
        <time>2020-07-28T07:59:20Z</time>
      </trkpt>
      <trkpt lat="42.9778280" lon="-0.1781210">
        <ele>806.8</ele>
        <time>2020-07-28T07:59:21Z</time>
      </trkpt>
      <trkpt lat="42.9777610" lon="-0.1784790">
        <ele>807.6</ele>
        <time>2020-07-28T07:59:27Z</time>
      </trkpt>
      <trkpt lat="42.9777470" lon="-0.1785410">
        <ele>807.8</ele>
        <time>2020-07-28T07:59:28Z</time>
      </trkpt>
      <trkpt lat="42.9776640" lon="-0.1789060">
        <ele>808.8</ele>
        <time>2020-07-28T07:59:34Z</time>
      </trkpt>
      <trkpt lat="42.9776390" lon="-0.1790270">
        <ele>809.0</ele>
        <time>2020-07-28T07:59:36Z</time>
      </trkpt>
      <trkpt lat="42.9776080" lon="-0.1792150">
        <ele>809.4</ele>
        <time>2020-07-28T07:59:39Z</time>
      </trkpt>
      <trkpt lat="42.9775680" lon="-0.1795430">
        <ele>810.0</ele>
        <time>2020-07-28T07:59:44Z</time>
      </trkpt>
      <trkpt lat="42.9775500" lon="-0.1797340">
        <ele>810.6</ele>
        <time>2020-07-28T07:59:47Z</time>
      </trkpt>
      <trkpt lat="42.9775300" lon="-0.1799290">
        <ele>811.0</ele>
        <time>2020-07-28T07:59:50Z</time>
      </trkpt>
      <trkpt lat="42.9774840" lon="-0.1803020">
        <ele>812.0</ele>
        <time>2020-07-28T07:59:56Z</time>
      </trkpt>
      <trkpt lat="42.9774770" lon="-0.1803660">
        <ele>812.2</ele>
        <time>2020-07-28T07:59:57Z</time>
      </trkpt>
      <trkpt lat="42.9774410" lon="-0.1806310">
        <ele>813.0</ele>
        <time>2020-07-28T08:00:01Z</time>
      </trkpt>
      <trkpt lat="42.9774080" lon="-0.1807580">
        <ele>813.2</ele>
        <time>2020-07-28T08:00:03Z</time>
      </trkpt>
      <trkpt lat="42.9773850" lon="-0.1808190">
        <ele>813.4</ele>
        <time>2020-07-28T08:00:04Z</time>
      </trkpt>
      <trkpt lat="42.9772400" lon="-0.1811100">
        <ele>813.2</ele>
        <time>2020-07-28T08:00:09Z</time>
      </trkpt>
      <trkpt lat="42.9772060" lon="-0.1811680">
        <ele>813.2</ele>
        <time>2020-07-28T08:00:10Z</time>
      </trkpt>
      <trkpt lat="42.9769920" lon="-0.1815290">
        <ele>813.2</ele>
        <time>2020-07-28T08:00:16Z</time>
      </trkpt>
      <trkpt lat="42.9769280" lon="-0.1816560">
        <ele>813.4</ele>
        <time>2020-07-28T08:00:18Z</time>
      </trkpt>
      <trkpt lat="42.9767490" lon="-0.1820650">
        <ele>813.6</ele>
        <time>2020-07-28T08:00:24Z</time>
      </trkpt>
      <trkpt lat="42.9766220" lon="-0.1823360">
        <ele>813.6</ele>
        <time>2020-07-28T08:00:28Z</time>
      </trkpt>
      <trkpt lat="42.9764750" lon="-0.1826870">
        <ele>813.4</ele>
        <time>2020-07-28T08:00:33Z</time>
      </trkpt>
      <trkpt lat="42.9764300" lon="-0.1828340">
        <ele>813.8</ele>
        <time>2020-07-28T08:00:35Z</time>
      </trkpt>
      <trkpt lat="42.9764100" lon="-0.1829080">
        <ele>814.0</ele>
        <time>2020-07-28T08:00:36Z</time>
      </trkpt>
      <trkpt lat="42.9763700" lon="-0.1830550">
        <ele>814.2</ele>
        <time>2020-07-28T08:00:38Z</time>
      </trkpt>
      <trkpt lat="42.9763500" lon="-0.1831290">
        <ele>814.4</ele>
        <time>2020-07-28T08:00:39Z</time>
      </trkpt>
      <trkpt lat="42.9762130" lon="-0.1835780">
        <ele>814.6</ele>
        <time>2020-07-28T08:00:45Z</time>
      </trkpt>
      <trkpt lat="42.9761840" lon="-0.1836530">
        <ele>814.6</ele>
        <time>2020-07-28T08:00:46Z</time>
      </trkpt>
      <trkpt lat="42.9760060" lon="-0.1841450">
        <ele>814.2</ele>
        <time>2020-07-28T08:00:52Z</time>
      </trkpt>
      <trkpt lat="42.9759480" lon="-0.1843140">
        <ele>813.8</ele>
        <time>2020-07-28T08:00:54Z</time>
      </trkpt>
      <trkpt lat="42.9758730" lon="-0.1845640">
        <ele>814.0</ele>
        <time>2020-07-28T08:00:57Z</time>
      </trkpt>
      <trkpt lat="42.9758500" lon="-0.1846480">
        <ele>814.0</ele>
        <time>2020-07-28T08:00:58Z</time>
      </trkpt>
      <trkpt lat="42.9757830" lon="-0.1848990">
        <ele>814.4</ele>
        <time>2020-07-28T08:01:01Z</time>
      </trkpt>
      <trkpt lat="42.9755930" lon="-0.1853710">
        <ele>814.6</ele>
        <time>2020-07-28T08:01:07Z</time>
      </trkpt>
      <trkpt lat="42.9753720" lon="-0.1856690">
        <ele>815.0</ele>
        <time>2020-07-28T08:01:12Z</time>
      </trkpt>
      <trkpt lat="42.9753280" lon="-0.1857230">
        <ele>815.0</ele>
        <time>2020-07-28T08:01:13Z</time>
      </trkpt>
      <trkpt lat="42.9751740" lon="-0.1859580">
        <ele>815.6</ele>
        <time>2020-07-28T08:01:17Z</time>
      </trkpt>
      <trkpt lat="42.9751130" lon="-0.1860820">
        <ele>815.8</ele>
        <time>2020-07-28T08:01:19Z</time>
      </trkpt>
      <trkpt lat="42.9750680" lon="-0.1862080">
        <ele>816.4</ele>
        <time>2020-07-28T08:01:21Z</time>
      </trkpt>
      <trkpt lat="42.9750520" lon="-0.1862720">
        <ele>816.8</ele>
        <time>2020-07-28T08:01:22Z</time>
      </trkpt>
      <trkpt lat="42.9750250" lon="-0.1863950">
        <ele>817.8</ele>
        <time>2020-07-28T08:01:24Z</time>
      </trkpt>
      <trkpt lat="42.9749950" lon="-0.1865650">
        <ele>819.2</ele>
        <time>2020-07-28T08:01:27Z</time>
      </trkpt>
      <trkpt lat="42.9749890" lon="-0.1866190">
        <ele>819.6</ele>
        <time>2020-07-28T08:01:28Z</time>
      </trkpt>
      <trkpt lat="42.9749780" lon="-0.1867270">
        <ele>820.2</ele>
        <time>2020-07-28T08:01:30Z</time>
      </trkpt>
      <trkpt lat="42.9749610" lon="-0.1868320">
        <ele>820.6</ele>
        <time>2020-07-28T08:01:32Z</time>
      </trkpt>
      <trkpt lat="42.9749530" lon="-0.1868860">
        <ele>820.8</ele>
        <time>2020-07-28T08:01:33Z</time>
      </trkpt>
      <trkpt lat="42.9749150" lon="-0.1870480">
        <ele>821.4</ele>
        <time>2020-07-28T08:01:36Z</time>
      </trkpt>
      <trkpt lat="42.9748950" lon="-0.1871010">
        <ele>821.6</ele>
        <time>2020-07-28T08:01:37Z</time>
      </trkpt>
      <trkpt lat="42.9748460" lon="-0.1872010">
        <ele>822.2</ele>
        <time>2020-07-28T08:01:39Z</time>
      </trkpt>
      <trkpt lat="42.9748150" lon="-0.1872490">
        <ele>822.2</ele>
        <time>2020-07-28T08:01:40Z</time>
      </trkpt>
      <trkpt lat="42.9747110" lon="-0.1873910">
        <ele>822.4</ele>
        <time>2020-07-28T08:01:43Z</time>
      </trkpt>
      <trkpt lat="42.9746380" lon="-0.1874950">
        <ele>822.2</ele>
        <time>2020-07-28T08:01:45Z</time>
      </trkpt>
      <trkpt lat="42.9745820" lon="-0.1876230">
        <ele>822.0</ele>
        <time>2020-07-28T08:01:47Z</time>
      </trkpt>
      <trkpt lat="42.9745620" lon="-0.1876930">
        <ele>821.8</ele>
        <time>2020-07-28T08:01:48Z</time>
      </trkpt>
      <trkpt lat="42.9745480" lon="-0.1877650">
        <ele>821.8</ele>
        <time>2020-07-28T08:01:49Z</time>
      </trkpt>
      <trkpt lat="42.9745390" lon="-0.1879130">
        <ele>822.0</ele>
        <time>2020-07-28T08:01:51Z</time>
      </trkpt>
      <trkpt lat="42.9745460" lon="-0.1879860">
        <ele>822.0</ele>
        <time>2020-07-28T08:01:52Z</time>
      </trkpt>
      <trkpt lat="42.9745910" lon="-0.1881990">
        <ele>822.4</ele>
        <time>2020-07-28T08:01:55Z</time>
      </trkpt>
      <trkpt lat="42.9746510" lon="-0.1884000">
        <ele>823.0</ele>
        <time>2020-07-28T08:01:58Z</time>
      </trkpt>
      <trkpt lat="42.9747130" lon="-0.1885920">
        <ele>823.6</ele>
        <time>2020-07-28T08:02:01Z</time>
      </trkpt>
      <trkpt lat="42.9747910" lon="-0.1889010">
        <ele>824.8</ele>
        <time>2020-07-28T08:02:06Z</time>
      </trkpt>
      <trkpt lat="42.9748010" lon="-0.1889620">
        <ele>824.8</ele>
        <time>2020-07-28T08:02:07Z</time>
      </trkpt>
      <trkpt lat="42.9748230" lon="-0.1891910">
        <ele>825.8</ele>
        <time>2020-07-28T08:02:11Z</time>
      </trkpt>
      <trkpt lat="42.9748200" lon="-0.1893950">
        <ele>827.2</ele>
        <time>2020-07-28T08:02:15Z</time>
      </trkpt>
      <trkpt lat="42.9747860" lon="-0.1896070">
        <ele>828.4</ele>
        <time>2020-07-28T08:02:20Z</time>
      </trkpt>
      <trkpt lat="42.9747750" lon="-0.1896530">
        <ele>828.4</ele>
        <time>2020-07-28T08:02:21Z</time>
      </trkpt>
      <trkpt lat="42.9747190" lon="-0.1898770">
        <ele>829.6</ele>
        <time>2020-07-28T08:02:26Z</time>
      </trkpt>
      <trkpt lat="42.9746840" lon="-0.1900090">
        <ele>830.4</ele>
        <time>2020-07-28T08:02:29Z</time>
      </trkpt>
      <trkpt lat="42.9746730" lon="-0.1900540">
        <ele>830.6</ele>
        <time>2020-07-28T08:02:30Z</time>
      </trkpt>
      <trkpt lat="42.9746620" lon="-0.1901000">
        <ele>830.6</ele>
        <time>2020-07-28T08:02:31Z</time>
      </trkpt>
      <trkpt lat="42.9746200" lon="-0.1903350">
        <ele>831.6</ele>
        <time>2020-07-28T08:02:36Z</time>
      </trkpt>
      <trkpt lat="42.9746130" lon="-0.1903810">
        <ele>831.8</ele>
        <time>2020-07-28T08:02:37Z</time>
      </trkpt>
      <trkpt lat="42.9746010" lon="-0.1904760">
        <ele>832.2</ele>
        <time>2020-07-28T08:02:39Z</time>
      </trkpt>
      <trkpt lat="42.9745630" lon="-0.1907040">
        <ele>833.0</ele>
        <time>2020-07-28T08:02:44Z</time>
      </trkpt>
      <trkpt lat="42.9745550" lon="-0.1907490">
        <ele>833.4</ele>
        <time>2020-07-28T08:02:45Z</time>
      </trkpt>
      <trkpt lat="42.9745170" lon="-0.1909210">
        <ele>834.2</ele>
        <time>2020-07-28T08:02:49Z</time>
      </trkpt>
      <trkpt lat="42.9744760" lon="-0.1910840">
        <ele>835.4</ele>
        <time>2020-07-28T08:02:53Z</time>
      </trkpt>
      <trkpt lat="42.9744260" lon="-0.1911960">
        <ele>836.0</ele>
        <time>2020-07-28T08:02:56Z</time>
      </trkpt>
      <trkpt lat="42.9743880" lon="-0.1912760">
        <ele>836.2</ele>
        <time>2020-07-28T08:02:58Z</time>
      </trkpt>
      <trkpt lat="42.9743470" lon="-0.1913610">
        <ele>836.6</ele>
        <time>2020-07-28T08:03:00Z</time>
      </trkpt>
      <trkpt lat="42.9742270" lon="-0.1915760">
        <ele>837.2</ele>
        <time>2020-07-28T08:03:05Z</time>
      </trkpt>
      <trkpt lat="42.9741400" lon="-0.1917600">
        <ele>837.6</ele>
        <time>2020-07-28T08:03:09Z</time>
      </trkpt>
      <trkpt lat="42.9740810" lon="-0.1918960">
        <ele>838.2</ele>
        <time>2020-07-28T08:03:12Z</time>
      </trkpt>
      <trkpt lat="42.9740130" lon="-0.1920850">
        <ele>838.8</ele>
        <time>2020-07-28T08:03:16Z</time>
      </trkpt>
      <trkpt lat="42.9739740" lon="-0.1921740">
        <ele>839.4</ele>
        <time>2020-07-28T08:03:18Z</time>
      </trkpt>
      <trkpt lat="42.9738600" lon="-0.1923250">
        <ele>839.8</ele>
        <time>2020-07-28T08:03:22Z</time>
      </trkpt>
      <trkpt lat="42.9737670" lon="-0.1924470">
        <ele>839.8</ele>
        <time>2020-07-28T08:03:25Z</time>
      </trkpt>
      <trkpt lat="42.9736960" lon="-0.1925250">
        <ele>840.0</ele>
        <time>2020-07-28T08:03:27Z</time>
      </trkpt>
      <trkpt lat="42.9735010" lon="-0.1927190">
        <ele>840.0</ele>
        <time>2020-07-28T08:03:32Z</time>
      </trkpt>
      <trkpt lat="42.9733800" lon="-0.1928800">
        <ele>839.8</ele>
        <time>2020-07-28T08:03:35Z</time>
      </trkpt>
      <trkpt lat="42.9733530" lon="-0.1929530">
        <ele>839.8</ele>
        <time>2020-07-28T08:03:36Z</time>
      </trkpt>
      <trkpt lat="42.9733340" lon="-0.1930310">
        <ele>839.8</ele>
        <time>2020-07-28T08:03:37Z</time>
      </trkpt>
      <trkpt lat="42.9732850" lon="-0.1931720">
        <ele>839.8</ele>
        <time>2020-07-28T08:03:39Z</time>
      </trkpt>
      <trkpt lat="42.9732170" lon="-0.1932960">
        <ele>839.6</ele>
        <time>2020-07-28T08:03:41Z</time>
      </trkpt>
      <trkpt lat="42.9731430" lon="-0.1934130">
        <ele>839.2</ele>
        <time>2020-07-28T08:03:43Z</time>
      </trkpt>
      <trkpt lat="42.9729770" lon="-0.1937490">
        <ele>838.8</ele>
        <time>2020-07-28T08:03:48Z</time>
      </trkpt>
      <trkpt lat="42.9729570" lon="-0.1938320">
        <ele>838.8</ele>
        <time>2020-07-28T08:03:49Z</time>
      </trkpt>
      <trkpt lat="42.9729430" lon="-0.1939180">
        <ele>838.6</ele>
        <time>2020-07-28T08:03:50Z</time>
      </trkpt>
      <trkpt lat="42.9729150" lon="-0.1940900">
        <ele>838.4</ele>
        <time>2020-07-28T08:03:52Z</time>
      </trkpt>
      <trkpt lat="42.9727740" lon="-0.1945850">
        <ele>837.8</ele>
        <time>2020-07-28T08:03:58Z</time>
      </trkpt>
      <trkpt lat="42.9727380" lon="-0.1946630">
        <ele>837.4</ele>
        <time>2020-07-28T08:03:59Z</time>
      </trkpt>
      <trkpt lat="42.9726230" lon="-0.1948750">
        <ele>836.2</ele>
        <time>2020-07-28T08:04:02Z</time>
      </trkpt>
      <trkpt lat="42.9725010" lon="-0.1950480">
        <ele>835.6</ele>
        <time>2020-07-28T08:04:05Z</time>
      </trkpt>
      <trkpt lat="42.9724170" lon="-0.1951650">
        <ele>835.2</ele>
        <time>2020-07-28T08:04:07Z</time>
      </trkpt>
      <trkpt lat="42.9722340" lon="-0.1954320">
        <ele>833.8</ele>
        <time>2020-07-28T08:04:11Z</time>
      </trkpt>
      <trkpt lat="42.9721860" lon="-0.1955040">
        <ele>833.2</ele>
        <time>2020-07-28T08:04:12Z</time>
      </trkpt>
      <trkpt lat="42.9720890" lon="-0.1956520">
        <ele>832.4</ele>
        <time>2020-07-28T08:04:14Z</time>
      </trkpt>
      <trkpt lat="42.9718520" lon="-0.1960070">
        <ele>831.6</ele>
        <time>2020-07-28T08:04:19Z</time>
      </trkpt>
      <trkpt lat="42.9718070" lon="-0.1960720">
        <ele>831.4</ele>
        <time>2020-07-28T08:04:20Z</time>
      </trkpt>
      <trkpt lat="42.9717250" lon="-0.1961950">
        <ele>831.0</ele>
        <time>2020-07-28T08:04:22Z</time>
      </trkpt>
      <trkpt lat="42.9716520" lon="-0.1963030">
        <ele>830.4</ele>
        <time>2020-07-28T08:04:24Z</time>
      </trkpt>
      <trkpt lat="42.9716170" lon="-0.1963550">
        <ele>830.2</ele>
        <time>2020-07-28T08:04:25Z</time>
      </trkpt>
      <trkpt lat="42.9714190" lon="-0.1966180">
        <ele>829.4</ele>
        <time>2020-07-28T08:04:30Z</time>
      </trkpt>
      <trkpt lat="42.9713790" lon="-0.1966750">
        <ele>829.2</ele>
        <time>2020-07-28T08:04:31Z</time>
      </trkpt>
      <trkpt lat="42.9712230" lon="-0.1969210">
        <ele>828.4</ele>
        <time>2020-07-28T08:04:35Z</time>
      </trkpt>
      <trkpt lat="42.9711830" lon="-0.1969860">
        <ele>828.2</ele>
        <time>2020-07-28T08:04:36Z</time>
      </trkpt>
      <trkpt lat="42.9710970" lon="-0.1971150">
        <ele>828.2</ele>
        <time>2020-07-28T08:04:38Z</time>
      </trkpt>
      <trkpt lat="42.9708130" lon="-0.1974980">
        <ele>827.8</ele>
        <time>2020-07-28T08:04:44Z</time>
      </trkpt>
      <trkpt lat="42.9706650" lon="-0.1976850">
        <ele>827.4</ele>
        <time>2020-07-28T08:04:47Z</time>
      </trkpt>
      <trkpt lat="42.9706150" lon="-0.1977490">
        <ele>827.2</ele>
        <time>2020-07-28T08:04:48Z</time>
      </trkpt>
      <trkpt lat="42.9704640" lon="-0.1979450">
        <ele>826.6</ele>
        <time>2020-07-28T08:04:51Z</time>
      </trkpt>
      <trkpt lat="42.9703620" lon="-0.1980790">
        <ele>826.2</ele>
        <time>2020-07-28T08:04:53Z</time>
      </trkpt>
      <trkpt lat="42.9702660" lon="-0.1982230">
        <ele>825.8</ele>
        <time>2020-07-28T08:04:55Z</time>
      </trkpt>
      <trkpt lat="42.9701350" lon="-0.1984620">
        <ele>825.2</ele>
        <time>2020-07-28T08:04:58Z</time>
      </trkpt>
      <trkpt lat="42.9700960" lon="-0.1985470">
        <ele>825.0</ele>
        <time>2020-07-28T08:04:59Z</time>
      </trkpt>
      <trkpt lat="42.9700240" lon="-0.1987200">
        <ele>824.8</ele>
        <time>2020-07-28T08:05:01Z</time>
      </trkpt>
      <trkpt lat="42.9698390" lon="-0.1992060">
        <ele>825.4</ele>
        <time>2020-07-28T08:05:07Z</time>
      </trkpt>
      <trkpt lat="42.9698150" lon="-0.1992770">
        <ele>825.4</ele>
        <time>2020-07-28T08:05:08Z</time>
      </trkpt>
      <trkpt lat="42.9697710" lon="-0.1994140">
        <ele>825.8</ele>
        <time>2020-07-28T08:05:10Z</time>
      </trkpt>
      <trkpt lat="42.9697040" lon="-0.1996180">
        <ele>826.2</ele>
        <time>2020-07-28T08:05:13Z</time>
      </trkpt>
      <trkpt lat="42.9696390" lon="-0.1998150">
        <ele>826.6</ele>
        <time>2020-07-28T08:05:16Z</time>
      </trkpt>
      <trkpt lat="42.9695950" lon="-0.1999390">
        <ele>827.2</ele>
        <time>2020-07-28T08:05:18Z</time>
      </trkpt>
      <trkpt lat="42.9694720" lon="-0.2002280">
        <ele>828.0</ele>
        <time>2020-07-28T08:05:23Z</time>
      </trkpt>
      <trkpt lat="42.9694170" lon="-0.2003310">
        <ele>828.4</ele>
        <time>2020-07-28T08:05:25Z</time>
      </trkpt>
      <trkpt lat="42.9693610" lon="-0.2004290">
        <ele>828.8</ele>
        <time>2020-07-28T08:05:27Z</time>
      </trkpt>
      <trkpt lat="42.9693330" lon="-0.2004750">
        <ele>828.8</ele>
        <time>2020-07-28T08:05:28Z</time>
      </trkpt>
      <trkpt lat="42.9692350" lon="-0.2006110">
        <ele>829.2</ele>
        <time>2020-07-28T08:05:31Z</time>
      </trkpt>
      <trkpt lat="42.9692000" lon="-0.2006580">
        <ele>829.4</ele>
        <time>2020-07-28T08:05:32Z</time>
      </trkpt>
      <trkpt lat="42.9690000" lon="-0.2009360">
        <ele>829.6</ele>
        <time>2020-07-28T08:05:38Z</time>
      </trkpt>
      <trkpt lat="42.9688970" lon="-0.2010700">
        <ele>830.2</ele>
        <time>2020-07-28T08:05:41Z</time>
      </trkpt>
      <trkpt lat="42.9688320" lon="-0.2011610">
        <ele>830.4</ele>
        <time>2020-07-28T08:05:43Z</time>
      </trkpt>
      <trkpt lat="42.9686740" lon="-0.2013860">
        <ele>831.2</ele>
        <time>2020-07-28T08:05:48Z</time>
      </trkpt>
      <trkpt lat="42.9686430" lon="-0.2014290">
        <ele>831.4</ele>
        <time>2020-07-28T08:05:49Z</time>
      </trkpt>
      <trkpt lat="42.9686110" lon="-0.2014730">
        <ele>831.6</ele>
        <time>2020-07-28T08:05:50Z</time>
      </trkpt>
      <trkpt lat="42.9685490" lon="-0.2015610">
        <ele>832.0</ele>
        <time>2020-07-28T08:05:52Z</time>
      </trkpt>
      <trkpt lat="42.9684500" lon="-0.2016850">
        <ele>832.6</ele>
        <time>2020-07-28T08:05:55Z</time>
      </trkpt>
      <trkpt lat="42.9683810" lon="-0.2017680">
        <ele>833.0</ele>
        <time>2020-07-28T08:05:57Z</time>
      </trkpt>
      <trkpt lat="42.9683040" lon="-0.2018460">
        <ele>833.2</ele>
        <time>2020-07-28T08:05:59Z</time>
      </trkpt>
      <trkpt lat="42.9682610" lon="-0.2018800">
        <ele>833.2</ele>
        <time>2020-07-28T08:06:00Z</time>
      </trkpt>
      <trkpt lat="42.9679790" lon="-0.2020840">
        <ele>832.8</ele>
        <time>2020-07-28T08:06:06Z</time>
      </trkpt>
      <trkpt lat="42.9678190" lon="-0.2021790">
        <ele>832.2</ele>
        <time>2020-07-28T08:06:09Z</time>
      </trkpt>
      <trkpt lat="42.9674960" lon="-0.2023410">
        <ele>832.0</ele>
        <time>2020-07-28T08:06:15Z</time>
      </trkpt>
      <trkpt lat="42.9672320" lon="-0.2024510">
        <ele>832.2</ele>
        <time>2020-07-28T08:06:20Z</time>
      </trkpt>
      <trkpt lat="42.9669060" lon="-0.2025150">
        <ele>832.0</ele>
        <time>2020-07-28T08:06:26Z</time>
      </trkpt>
      <trkpt lat="42.9667950" lon="-0.2025250">
        <ele>832.2</ele>
        <time>2020-07-28T08:06:28Z</time>
      </trkpt>
      <trkpt lat="42.9666860" lon="-0.2025400">
        <ele>832.4</ele>
        <time>2020-07-28T08:06:30Z</time>
      </trkpt>
      <trkpt lat="42.9666310" lon="-0.2025490">
        <ele>832.4</ele>
        <time>2020-07-28T08:06:31Z</time>
      </trkpt>
      <trkpt lat="42.9665760" lon="-0.2025550">
        <ele>832.4</ele>
        <time>2020-07-28T08:06:32Z</time>
      </trkpt>
      <trkpt lat="42.9665190" lon="-0.2025520">
        <ele>832.6</ele>
        <time>2020-07-28T08:06:33Z</time>
      </trkpt>
      <trkpt lat="42.9664610" lon="-0.2025410">
        <ele>832.6</ele>
        <time>2020-07-28T08:06:34Z</time>
      </trkpt>
      <trkpt lat="42.9663500" lon="-0.2025000">
        <ele>832.8</ele>
        <time>2020-07-28T08:06:36Z</time>
      </trkpt>
      <trkpt lat="42.9661950" lon="-0.2024030">
        <ele>832.8</ele>
        <time>2020-07-28T08:06:39Z</time>
      </trkpt>
      <trkpt lat="42.9660990" lon="-0.2023350">
        <ele>832.8</ele>
        <time>2020-07-28T08:06:41Z</time>
      </trkpt>
      <trkpt lat="42.9659580" lon="-0.2022450">
        <ele>832.8</ele>
        <time>2020-07-28T08:06:44Z</time>
      </trkpt>
      <trkpt lat="42.9658500" lon="-0.2022220">
        <ele>832.8</ele>
        <time>2020-07-28T08:06:46Z</time>
      </trkpt>
      <trkpt lat="42.9657980" lon="-0.2022040">
        <ele>833.0</ele>
        <time>2020-07-28T08:06:47Z</time>
      </trkpt>
      <trkpt lat="42.9656570" lon="-0.2021030">
        <ele>833.2</ele>
        <time>2020-07-28T08:06:50Z</time>
      </trkpt>
      <trkpt lat="42.9653570" lon="-0.2018610">
        <ele>833.2</ele>
        <time>2020-07-28T08:06:56Z</time>
      </trkpt>
      <trkpt lat="42.9653030" lon="-0.2018240">
        <ele>833.0</ele>
        <time>2020-07-28T08:06:57Z</time>
      </trkpt>
      <trkpt lat="42.9651950" lon="-0.2017560">
        <ele>833.2</ele>
        <time>2020-07-28T08:06:59Z</time>
      </trkpt>
      <trkpt lat="42.9650840" lon="-0.2017040">
        <ele>833.0</ele>
        <time>2020-07-28T08:07:01Z</time>
      </trkpt>
      <trkpt lat="42.9650270" lon="-0.2016930">
        <ele>833.0</ele>
        <time>2020-07-28T08:07:02Z</time>
      </trkpt>
      <trkpt lat="42.9649650" lon="-0.2016900">
        <ele>833.0</ele>
        <time>2020-07-28T08:07:03Z</time>
      </trkpt>
      <trkpt lat="42.9648560" lon="-0.2017270">
        <ele>833.2</ele>
        <time>2020-07-28T08:07:05Z</time>
      </trkpt>
      <trkpt lat="42.9648060" lon="-0.2017550">
        <ele>833.2</ele>
        <time>2020-07-28T08:07:06Z</time>
      </trkpt>
      <trkpt lat="42.9646560" lon="-0.2018360">
        <ele>833.6</ele>
        <time>2020-07-28T08:07:09Z</time>
      </trkpt>
      <trkpt lat="42.9646040" lon="-0.2018550">
        <ele>833.6</ele>
        <time>2020-07-28T08:07:10Z</time>
      </trkpt>
      <trkpt lat="42.9644950" lon="-0.2018800">
        <ele>833.8</ele>
        <time>2020-07-28T08:07:12Z</time>
      </trkpt>
      <trkpt lat="42.9644400" lon="-0.2018780">
        <ele>834.0</ele>
        <time>2020-07-28T08:07:13Z</time>
      </trkpt>
      <trkpt lat="42.9643870" lon="-0.2018610">
        <ele>833.6</ele>
        <time>2020-07-28T08:07:14Z</time>
      </trkpt>
      <trkpt lat="42.9643390" lon="-0.2018340">
        <ele>833.4</ele>
        <time>2020-07-28T08:07:15Z</time>
      </trkpt>
      <trkpt lat="42.9642910" lon="-0.2017930">
        <ele>833.2</ele>
        <time>2020-07-28T08:07:16Z</time>
      </trkpt>
      <trkpt lat="42.9641840" lon="-0.2017060">
        <ele>832.8</ele>
        <time>2020-07-28T08:07:18Z</time>
      </trkpt>
      <trkpt lat="42.9641220" lon="-0.2016720">
        <ele>832.6</ele>
        <time>2020-07-28T08:07:19Z</time>
      </trkpt>
      <trkpt lat="42.9640530" lon="-0.2016520">
        <ele>832.4</ele>
        <time>2020-07-28T08:07:20Z</time>
      </trkpt>
      <trkpt lat="42.9637070" lon="-0.2016130">
        <ele>831.8</ele>
        <time>2020-07-28T08:07:25Z</time>
      </trkpt>
      <trkpt lat="42.9636410" lon="-0.2016210">
        <ele>831.8</ele>
        <time>2020-07-28T08:07:26Z</time>
      </trkpt>
      <trkpt lat="42.9634470" lon="-0.2016500">
        <ele>832.0</ele>
        <time>2020-07-28T08:07:29Z</time>
      </trkpt>
      <trkpt lat="42.9633250" lon="-0.2016980">
        <ele>832.4</ele>
        <time>2020-07-28T08:07:31Z</time>
      </trkpt>
      <trkpt lat="42.9629880" lon="-0.2018750">
        <ele>832.8</ele>
        <time>2020-07-28T08:07:37Z</time>
      </trkpt>
      <trkpt lat="42.9629360" lon="-0.2019060">
        <ele>833.0</ele>
        <time>2020-07-28T08:07:38Z</time>
      </trkpt>
      <trkpt lat="42.9628350" lon="-0.2019640">
        <ele>833.6</ele>
        <time>2020-07-28T08:07:40Z</time>
      </trkpt>
      <trkpt lat="42.9626460" lon="-0.2020720">
        <ele>834.8</ele>
        <time>2020-07-28T08:07:44Z</time>
      </trkpt>
      <trkpt lat="42.9625090" lon="-0.2021510">
        <ele>835.2</ele>
        <time>2020-07-28T08:07:47Z</time>
      </trkpt>
      <trkpt lat="42.9623750" lon="-0.2022310">
        <ele>836.0</ele>
        <time>2020-07-28T08:07:50Z</time>
      </trkpt>
      <trkpt lat="42.9621540" lon="-0.2023590">
        <ele>837.0</ele>
        <time>2020-07-28T08:07:55Z</time>
      </trkpt>
      <trkpt lat="42.9620700" lon="-0.2024090">
        <ele>837.6</ele>
        <time>2020-07-28T08:07:57Z</time>
      </trkpt>
      <trkpt lat="42.9617880" lon="-0.2025780">
        <ele>837.8</ele>
        <time>2020-07-28T08:08:03Z</time>
      </trkpt>
      <trkpt lat="42.9617350" lon="-0.2026080">
        <ele>837.8</ele>
        <time>2020-07-28T08:08:04Z</time>
      </trkpt>
      <trkpt lat="42.9616830" lon="-0.2026400">
        <ele>837.8</ele>
        <time>2020-07-28T08:08:05Z</time>
      </trkpt>
      <trkpt lat="42.9613790" lon="-0.2028730">
        <ele>837.2</ele>
        <time>2020-07-28T08:08:11Z</time>
      </trkpt>
      <trkpt lat="42.9613320" lon="-0.2029210">
        <ele>837.0</ele>
        <time>2020-07-28T08:08:12Z</time>
      </trkpt>
      <trkpt lat="42.9611600" lon="-0.2031380">
        <ele>837.4</ele>
        <time>2020-07-28T08:08:16Z</time>
      </trkpt>
      <trkpt lat="42.9610510" lon="-0.2033250">
        <ele>837.6</ele>
        <time>2020-07-28T08:08:19Z</time>
      </trkpt>
      <trkpt lat="42.9608770" lon="-0.2037540">
        <ele>837.4</ele>
        <time>2020-07-28T08:08:25Z</time>
      </trkpt>
      <trkpt lat="42.9608510" lon="-0.2038300">
        <ele>837.2</ele>
        <time>2020-07-28T08:08:26Z</time>
      </trkpt>
      <trkpt lat="42.9606810" lon="-0.2042780">
        <ele>837.4</ele>
        <time>2020-07-28T08:08:32Z</time>
      </trkpt>
      <trkpt lat="42.9606300" lon="-0.2044270">
        <ele>837.4</ele>
        <time>2020-07-28T08:08:34Z</time>
      </trkpt>
      <trkpt lat="42.9604680" lon="-0.2048730">
        <ele>837.0</ele>
        <time>2020-07-28T08:08:40Z</time>
      </trkpt>
      <trkpt lat="42.9603840" lon="-0.2051050">
        <ele>836.8</ele>
        <time>2020-07-28T08:08:43Z</time>
      </trkpt>
      <trkpt lat="42.9602230" lon="-0.2055690">
        <ele>837.0</ele>
        <time>2020-07-28T08:08:49Z</time>
      </trkpt>
      <trkpt lat="42.9600590" lon="-0.2060200">
        <ele>837.2</ele>
        <time>2020-07-28T08:08:55Z</time>
      </trkpt>
      <trkpt lat="42.9598580" lon="-0.2064280">
        <ele>837.6</ele>
        <time>2020-07-28T08:09:01Z</time>
      </trkpt>
      <trkpt lat="42.9597820" lon="-0.2065500">
        <ele>837.8</ele>
        <time>2020-07-28T08:09:03Z</time>
      </trkpt>
      <trkpt lat="42.9596190" lon="-0.2067780">
        <ele>838.2</ele>
        <time>2020-07-28T08:09:07Z</time>
      </trkpt>
      <trkpt lat="42.9594520" lon="-0.2070150">
        <ele>838.6</ele>
        <time>2020-07-28T08:09:11Z</time>
      </trkpt>
      <trkpt lat="42.9592860" lon="-0.2072600">
        <ele>838.8</ele>
        <time>2020-07-28T08:09:15Z</time>
      </trkpt>
      <trkpt lat="42.9591290" lon="-0.2075180">
        <ele>839.2</ele>
        <time>2020-07-28T08:09:19Z</time>
      </trkpt>
      <trkpt lat="42.9590550" lon="-0.2076530">
        <ele>839.4</ele>
        <time>2020-07-28T08:09:21Z</time>
      </trkpt>
      <trkpt lat="42.9588370" lon="-0.2080650">
        <ele>840.0</ele>
        <time>2020-07-28T08:09:27Z</time>
      </trkpt>
      <trkpt lat="42.9587640" lon="-0.2082020">
        <ele>840.4</ele>
        <time>2020-07-28T08:09:29Z</time>
      </trkpt>
      <trkpt lat="42.9586550" lon="-0.2084060">
        <ele>841.0</ele>
        <time>2020-07-28T08:09:32Z</time>
      </trkpt>
      <trkpt lat="42.9585140" lon="-0.2086800">
        <ele>841.4</ele>
        <time>2020-07-28T08:09:36Z</time>
      </trkpt>
      <trkpt lat="42.9584420" lon="-0.2088140">
        <ele>841.4</ele>
        <time>2020-07-28T08:09:38Z</time>
      </trkpt>
      <trkpt lat="42.9582910" lon="-0.2090760">
        <ele>842.2</ele>
        <time>2020-07-28T08:09:42Z</time>
      </trkpt>
      <trkpt lat="42.9581740" lon="-0.2092750">
        <ele>842.6</ele>
        <time>2020-07-28T08:09:45Z</time>
      </trkpt>
      <trkpt lat="42.9579390" lon="-0.2096640">
        <ele>842.4</ele>
        <time>2020-07-28T08:09:51Z</time>
      </trkpt>
      <trkpt lat="42.9579010" lon="-0.2097280">
        <ele>842.4</ele>
        <time>2020-07-28T08:09:52Z</time>
      </trkpt>
      <trkpt lat="42.9576710" lon="-0.2101040">
        <ele>843.6</ele>
        <time>2020-07-28T08:09:58Z</time>
      </trkpt>
      <trkpt lat="42.9575500" lon="-0.2102910">
        <ele>844.0</ele>
        <time>2020-07-28T08:10:01Z</time>
      </trkpt>
      <trkpt lat="42.9573420" lon="-0.2105950">
        <ele>844.8</ele>
        <time>2020-07-28T08:10:06Z</time>
      </trkpt>
      <trkpt lat="42.9571590" lon="-0.2109050">
        <ele>845.0</ele>
        <time>2020-07-28T08:10:11Z</time>
      </trkpt>
      <trkpt lat="42.9570010" lon="-0.2113110">
        <ele>845.6</ele>
        <time>2020-07-28T08:10:17Z</time>
      </trkpt>
      <trkpt lat="42.9569790" lon="-0.2113770">
        <ele>845.6</ele>
        <time>2020-07-28T08:10:18Z</time>
      </trkpt>
      <trkpt lat="42.9569350" lon="-0.2115110">
        <ele>845.8</ele>
        <time>2020-07-28T08:10:20Z</time>
      </trkpt>
      <trkpt lat="42.9567920" lon="-0.2119170">
        <ele>846.6</ele>
        <time>2020-07-28T08:10:26Z</time>
      </trkpt>
      <trkpt lat="42.9567650" lon="-0.2119830">
        <ele>846.6</ele>
        <time>2020-07-28T08:10:27Z</time>
      </trkpt>
      <trkpt lat="42.9567140" lon="-0.2121230">
        <ele>846.4</ele>
        <time>2020-07-28T08:10:29Z</time>
      </trkpt>
      <trkpt lat="42.9566570" lon="-0.2123370">
        <ele>845.6</ele>
        <time>2020-07-28T08:10:32Z</time>
      </trkpt>
      <trkpt lat="42.9566490" lon="-0.2124130">
        <ele>845.6</ele>
        <time>2020-07-28T08:10:33Z</time>
      </trkpt>
      <trkpt lat="42.9566160" lon="-0.2128120">
        <ele>845.8</ele>
        <time>2020-07-28T08:10:38Z</time>
      </trkpt>
      <trkpt lat="42.9565810" lon="-0.2129580">
        <ele>846.0</ele>
        <time>2020-07-28T08:10:40Z</time>
      </trkpt>
      <trkpt lat="42.9565300" lon="-0.2130940">
        <ele>846.4</ele>
        <time>2020-07-28T08:10:42Z</time>
      </trkpt>
      <trkpt lat="42.9564680" lon="-0.2132180">
        <ele>846.6</ele>
        <time>2020-07-28T08:10:44Z</time>
      </trkpt>
      <trkpt lat="42.9564350" lon="-0.2132790">
        <ele>846.6</ele>
        <time>2020-07-28T08:10:45Z</time>
      </trkpt>
      <trkpt lat="42.9563990" lon="-0.2133380">
        <ele>846.8</ele>
        <time>2020-07-28T08:10:46Z</time>
      </trkpt>
      <trkpt lat="42.9563270" lon="-0.2134480">
        <ele>847.2</ele>
        <time>2020-07-28T08:10:48Z</time>
      </trkpt>
      <trkpt lat="42.9561740" lon="-0.2136560">
        <ele>847.6</ele>
        <time>2020-07-28T08:10:52Z</time>
      </trkpt>
      <trkpt lat="42.9561340" lon="-0.2137870">
        <ele>847.8</ele>
        <time>2020-07-28T08:10:54Z</time>
      </trkpt>
      <trkpt lat="42.9561240" lon="-0.2138560">
        <ele>847.8</ele>
        <time>2020-07-28T08:10:55Z</time>
      </trkpt>
      <trkpt lat="42.9561190" lon="-0.2139260">
        <ele>848.0</ele>
        <time>2020-07-28T08:10:56Z</time>
      </trkpt>
      <trkpt lat="42.9561250" lon="-0.2142620">
        <ele>848.8</ele>
        <time>2020-07-28T08:11:01Z</time>
      </trkpt>
      <trkpt lat="42.9561550" lon="-0.2144020">
        <ele>849.0</ele>
        <time>2020-07-28T08:11:03Z</time>
      </trkpt>
      <trkpt lat="42.9562140" lon="-0.2145290">
        <ele>849.4</ele>
        <time>2020-07-28T08:11:05Z</time>
      </trkpt>
      <trkpt lat="42.9562960" lon="-0.2147180">
        <ele>850.0</ele>
        <time>2020-07-28T08:11:08Z</time>
      </trkpt>
      <trkpt lat="42.9564080" lon="-0.2150220">
        <ele>850.6</ele>
        <time>2020-07-28T08:11:13Z</time>
      </trkpt>
      <trkpt lat="42.9564320" lon="-0.2150750">
        <ele>851.0</ele>
        <time>2020-07-28T08:11:14Z</time>
      </trkpt>
      <trkpt lat="42.9564990" lon="-0.2151670">
        <ele>851.6</ele>
        <time>2020-07-28T08:11:16Z</time>
      </trkpt>
      <trkpt lat="42.9565760" lon="-0.2152450">
        <ele>851.8</ele>
        <time>2020-07-28T08:11:18Z</time>
      </trkpt>
      <trkpt lat="42.9567610" lon="-0.2154440">
        <ele>852.0</ele>
        <time>2020-07-28T08:11:23Z</time>
      </trkpt>
      <trkpt lat="42.9568320" lon="-0.2155040">
        <ele>852.4</ele>
        <time>2020-07-28T08:11:25Z</time>
      </trkpt>
      <trkpt lat="42.9569500" lon="-0.2155650">
        <ele>853.2</ele>
        <time>2020-07-28T08:11:28Z</time>
      </trkpt>
      <trkpt lat="42.9569910" lon="-0.2155790">
        <ele>853.6</ele>
        <time>2020-07-28T08:11:29Z</time>
      </trkpt>
      <trkpt lat="42.9570740" lon="-0.2156070">
        <ele>854.0</ele>
        <time>2020-07-28T08:11:31Z</time>
      </trkpt>
      <trkpt lat="42.9571140" lon="-0.2156170">
        <ele>854.2</ele>
        <time>2020-07-28T08:11:32Z</time>
      </trkpt>
      <trkpt lat="42.9572460" lon="-0.2156440">
        <ele>855.4</ele>
        <time>2020-07-28T08:11:36Z</time>
      </trkpt>
      <trkpt lat="42.9572790" lon="-0.2156400">
        <ele>855.6</ele>
        <time>2020-07-28T08:11:37Z</time>
      </trkpt>
      <trkpt lat="42.9573720" lon="-0.2156180">
        <ele>856.6</ele>
        <time>2020-07-28T08:11:40Z</time>
      </trkpt>
      <trkpt lat="42.9574420" lon="-0.2155810">
        <ele>857.6</ele>
        <time>2020-07-28T08:11:43Z</time>
      </trkpt>
      <trkpt lat="42.9575480" lon="-0.2154650">
        <ele>858.6</ele>
        <time>2020-07-28T08:11:48Z</time>
      </trkpt>
      <trkpt lat="42.9576140" lon="-0.2153960">
        <ele>859.4</ele>
        <time>2020-07-28T08:11:51Z</time>
      </trkpt>
      <trkpt lat="42.9576360" lon="-0.2153750">
        <ele>859.6</ele>
        <time>2020-07-28T08:11:52Z</time>
      </trkpt>
      <trkpt lat="42.9576580" lon="-0.2153530">
        <ele>860.0</ele>
        <time>2020-07-28T08:11:53Z</time>
      </trkpt>
      <trkpt lat="42.9577020" lon="-0.2153110">
        <ele>860.8</ele>
        <time>2020-07-28T08:11:55Z</time>
      </trkpt>
      <trkpt lat="42.9578280" lon="-0.2152300">
        <ele>861.8</ele>
        <time>2020-07-28T08:12:00Z</time>
      </trkpt>
      <trkpt lat="42.9578530" lon="-0.2152130">
        <ele>861.8</ele>
        <time>2020-07-28T08:12:01Z</time>
      </trkpt>
      <trkpt lat="42.9580100" lon="-0.2151000">
        <ele>863.0</ele>
        <time>2020-07-28T08:12:07Z</time>
      </trkpt>
      <trkpt lat="42.9580340" lon="-0.2150770">
        <ele>863.2</ele>
        <time>2020-07-28T08:12:08Z</time>
      </trkpt>
      <trkpt lat="42.9580890" lon="-0.2149950">
        <ele>864.2</ele>
        <time>2020-07-28T08:12:11Z</time>
      </trkpt>
      <trkpt lat="42.9581440" lon="-0.2149110">
        <ele>865.0</ele>
        <time>2020-07-28T08:12:14Z</time>
      </trkpt>
      <trkpt lat="42.9581600" lon="-0.2148840">
        <ele>865.2</ele>
        <time>2020-07-28T08:12:15Z</time>
      </trkpt>
      <trkpt lat="42.9582260" lon="-0.2147840">
        <ele>866.4</ele>
        <time>2020-07-28T08:12:19Z</time>
      </trkpt>
      <trkpt lat="42.9582750" lon="-0.2146980">
        <ele>867.4</ele>
        <time>2020-07-28T08:12:22Z</time>
      </trkpt>
      <trkpt lat="42.9582870" lon="-0.2146680">
        <ele>867.6</ele>
        <time>2020-07-28T08:12:23Z</time>
      </trkpt>
      <trkpt lat="42.9583180" lon="-0.2146030">
        <ele>868.0</ele>
        <time>2020-07-28T08:12:25Z</time>
      </trkpt>
      <trkpt lat="42.9583520" lon="-0.2145440">
        <ele>868.2</ele>
        <time>2020-07-28T08:12:27Z</time>
      </trkpt>
      <trkpt lat="42.9583670" lon="-0.2145120">
        <ele>868.4</ele>
        <time>2020-07-28T08:12:28Z</time>
      </trkpt>
      <trkpt lat="42.9583820" lon="-0.2144790">
        <ele>868.4</ele>
        <time>2020-07-28T08:12:29Z</time>
      </trkpt>
      <trkpt lat="42.9583970" lon="-0.2144470">
        <ele>868.8</ele>
        <time>2020-07-28T08:12:30Z</time>
      </trkpt>
      <trkpt lat="42.9584600" lon="-0.2142320">
        <ele>869.8</ele>
        <time>2020-07-28T08:12:36Z</time>
      </trkpt>
      <trkpt lat="42.9584830" lon="-0.2140960">
        <ele>871.2</ele>
        <time>2020-07-28T08:12:40Z</time>
      </trkpt>
      <trkpt lat="42.9584880" lon="-0.2139970">
        <ele>871.8</ele>
        <time>2020-07-28T08:12:43Z</time>
      </trkpt>
      <trkpt lat="42.9584910" lon="-0.2139630">
        <ele>872.2</ele>
        <time>2020-07-28T08:12:44Z</time>
      </trkpt>
      <trkpt lat="42.9585080" lon="-0.2138250">
        <ele>873.2</ele>
        <time>2020-07-28T08:12:48Z</time>
      </trkpt>
      <trkpt lat="42.9585200" lon="-0.2137610">
        <ele>873.6</ele>
        <time>2020-07-28T08:12:50Z</time>
      </trkpt>
      <trkpt lat="42.9585230" lon="-0.2137310">
        <ele>874.0</ele>
        <time>2020-07-28T08:12:51Z</time>
      </trkpt>
      <trkpt lat="42.9585270" lon="-0.2137010">
        <ele>874.2</ele>
        <time>2020-07-28T08:12:52Z</time>
      </trkpt>
      <trkpt lat="42.9585340" lon="-0.2136710">
        <ele>874.4</ele>
        <time>2020-07-28T08:12:53Z</time>
      </trkpt>
      <trkpt lat="42.9585920" lon="-0.2135220">
        <ele>875.2</ele>
        <time>2020-07-28T08:12:58Z</time>
      </trkpt>
      <trkpt lat="42.9586090" lon="-0.2134960">
        <ele>875.4</ele>
        <time>2020-07-28T08:12:59Z</time>
      </trkpt>
      <trkpt lat="42.9586700" lon="-0.2134270">
        <ele>876.4</ele>
        <time>2020-07-28T08:13:02Z</time>
      </trkpt>
      <trkpt lat="42.9587180" lon="-0.2133950">
        <ele>876.8</ele>
        <time>2020-07-28T08:13:04Z</time>
      </trkpt>
      <trkpt lat="42.9587440" lon="-0.2133790">
        <ele>877.0</ele>
        <time>2020-07-28T08:13:05Z</time>
      </trkpt>
      <trkpt lat="42.9587670" lon="-0.2133600">
        <ele>877.2</ele>
        <time>2020-07-28T08:13:06Z</time>
      </trkpt>
      <trkpt lat="42.9587930" lon="-0.2133400">
        <ele>877.4</ele>
        <time>2020-07-28T08:13:07Z</time>
      </trkpt>
      <trkpt lat="42.9588180" lon="-0.2133190">
        <ele>877.6</ele>
        <time>2020-07-28T08:13:08Z</time>
      </trkpt>
      <trkpt lat="42.9588410" lon="-0.2132970">
        <ele>877.8</ele>
        <time>2020-07-28T08:13:09Z</time>
      </trkpt>
      <trkpt lat="42.9589130" lon="-0.2132300">
        <ele>878.4</ele>
        <time>2020-07-28T08:13:12Z</time>
      </trkpt>
      <trkpt lat="42.9589350" lon="-0.2132040">
        <ele>878.6</ele>
        <time>2020-07-28T08:13:13Z</time>
      </trkpt>
      <trkpt lat="42.9590040" lon="-0.2130930">
        <ele>879.6</ele>
        <time>2020-07-28T08:13:17Z</time>
      </trkpt>
      <trkpt lat="42.9590220" lon="-0.2130650">
        <ele>879.8</ele>
        <time>2020-07-28T08:13:18Z</time>
      </trkpt>
      <trkpt lat="42.9590380" lon="-0.2130330">
        <ele>880.2</ele>
        <time>2020-07-28T08:13:19Z</time>
      </trkpt>
      <trkpt lat="42.9591090" lon="-0.2129090">
        <ele>881.0</ele>
        <time>2020-07-28T08:13:23Z</time>
      </trkpt>
      <trkpt lat="42.9591450" lon="-0.2128470">
        <ele>881.6</ele>
        <time>2020-07-28T08:13:25Z</time>
      </trkpt>
      <trkpt lat="42.9591790" lon="-0.2127850">
        <ele>882.4</ele>
        <time>2020-07-28T08:13:27Z</time>
      </trkpt>
      <trkpt lat="42.9592720" lon="-0.2126570">
        <ele>883.6</ele>
        <time>2020-07-28T08:13:32Z</time>
      </trkpt>
      <trkpt lat="42.9593220" lon="-0.2125760">
        <ele>884.0</ele>
        <time>2020-07-28T08:13:35Z</time>
      </trkpt>
      <trkpt lat="42.9593630" lon="-0.2125200">
        <ele>884.4</ele>
        <time>2020-07-28T08:13:37Z</time>
      </trkpt>
      <trkpt lat="42.9593820" lon="-0.2124920">
        <ele>884.6</ele>
        <time>2020-07-28T08:13:38Z</time>
      </trkpt>
      <trkpt lat="42.9594940" lon="-0.2123650">
        <ele>885.8</ele>
        <time>2020-07-28T08:13:43Z</time>
      </trkpt>
      <trkpt lat="42.9595540" lon="-0.2122900">
        <ele>886.4</ele>
        <time>2020-07-28T08:13:46Z</time>
      </trkpt>
      <trkpt lat="42.9595950" lon="-0.2122430">
        <ele>887.0</ele>
        <time>2020-07-28T08:13:48Z</time>
      </trkpt>
      <trkpt lat="42.9597040" lon="-0.2121340">
        <ele>888.0</ele>
        <time>2020-07-28T08:13:53Z</time>
      </trkpt>
      <trkpt lat="42.9597450" lon="-0.2120900">
        <ele>888.4</ele>
        <time>2020-07-28T08:13:55Z</time>
      </trkpt>
      <trkpt lat="42.9597670" lon="-0.2120670">
        <ele>888.8</ele>
        <time>2020-07-28T08:13:56Z</time>
      </trkpt>
      <trkpt lat="42.9598110" lon="-0.2120210">
        <ele>889.4</ele>
        <time>2020-07-28T08:13:58Z</time>
      </trkpt>
      <trkpt lat="42.9599370" lon="-0.2118730">
        <ele>890.6</ele>
        <time>2020-07-28T08:14:04Z</time>
      </trkpt>
      <trkpt lat="42.9599570" lon="-0.2118460">
        <ele>891.0</ele>
        <time>2020-07-28T08:14:05Z</time>
      </trkpt>
      <trkpt lat="42.9600200" lon="-0.2117720">
        <ele>891.8</ele>
        <time>2020-07-28T08:14:08Z</time>
      </trkpt>
      <trkpt lat="42.9600970" lon="-0.2116600">
        <ele>892.6</ele>
        <time>2020-07-28T08:14:12Z</time>
      </trkpt>
      <trkpt lat="42.9601110" lon="-0.2116270">
        <ele>892.8</ele>
        <time>2020-07-28T08:14:13Z</time>
      </trkpt>
      <trkpt lat="42.9601470" lon="-0.2114860">
        <ele>894.0</ele>
        <time>2020-07-28T08:14:17Z</time>
      </trkpt>
      <trkpt lat="42.9601540" lon="-0.2114500">
        <ele>894.2</ele>
        <time>2020-07-28T08:14:18Z</time>
      </trkpt>
      <trkpt lat="42.9601780" lon="-0.2113470">
        <ele>895.0</ele>
        <time>2020-07-28T08:14:21Z</time>
      </trkpt>
      <trkpt lat="42.9602250" lon="-0.2112530">
        <ele>895.8</ele>
        <time>2020-07-28T08:14:24Z</time>
      </trkpt>
      <trkpt lat="42.9602440" lon="-0.2112260">
        <ele>896.2</ele>
        <time>2020-07-28T08:14:25Z</time>
      </trkpt>
      <trkpt lat="42.9603990" lon="-0.2111390">
        <ele>897.2</ele>
        <time>2020-07-28T08:14:31Z</time>
      </trkpt>
      <trkpt lat="42.9605190" lon="-0.2111650">
        <ele>898.4</ele>
        <time>2020-07-28T08:14:35Z</time>
      </trkpt>
      <trkpt lat="42.9605680" lon="-0.2112050">
        <ele>898.8</ele>
        <time>2020-07-28T08:14:37Z</time>
      </trkpt>
      <trkpt lat="42.9606560" lon="-0.2113910">
        <ele>899.4</ele>
        <time>2020-07-28T08:14:42Z</time>
      </trkpt>
      <trkpt lat="42.9606740" lon="-0.2116540">
        <ele>900.6</ele>
        <time>2020-07-28T08:14:48Z</time>
      </trkpt>
      <trkpt lat="42.9606610" lon="-0.2118140">
        <ele>901.6</ele>
        <time>2020-07-28T08:14:52Z</time>
      </trkpt>
      <trkpt lat="42.9606590" lon="-0.2119760">
        <ele>902.6</ele>
        <time>2020-07-28T08:14:56Z</time>
      </trkpt>
      <trkpt lat="42.9606610" lon="-0.2121800">
        <ele>903.6</ele>
        <time>2020-07-28T08:15:01Z</time>
      </trkpt>
      <trkpt lat="42.9606580" lon="-0.2123350">
        <ele>904.6</ele>
        <time>2020-07-28T08:15:05Z</time>
      </trkpt>
      <trkpt lat="42.9606580" lon="-0.2123740">
        <ele>904.8</ele>
        <time>2020-07-28T08:15:06Z</time>
      </trkpt>
      <trkpt lat="42.9606580" lon="-0.2126040">
        <ele>906.0</ele>
        <time>2020-07-28T08:15:12Z</time>
      </trkpt>
      <trkpt lat="42.9606580" lon="-0.2126410">
        <ele>906.4</ele>
        <time>2020-07-28T08:15:13Z</time>
      </trkpt>
      <trkpt lat="42.9606550" lon="-0.2127520">
        <ele>907.2</ele>
        <time>2020-07-28T08:15:16Z</time>
      </trkpt>
      <trkpt lat="42.9606490" lon="-0.2129650">
        <ele>908.4</ele>
        <time>2020-07-28T08:15:22Z</time>
      </trkpt>
      <trkpt lat="42.9606460" lon="-0.2130030">
        <ele>908.6</ele>
        <time>2020-07-28T08:15:23Z</time>
      </trkpt>
      <trkpt lat="42.9606430" lon="-0.2130410">
        <ele>909.0</ele>
        <time>2020-07-28T08:15:24Z</time>
      </trkpt>
      <trkpt lat="42.9606290" lon="-0.2131560">
        <ele>909.6</ele>
        <time>2020-07-28T08:15:27Z</time>
      </trkpt>
      <trkpt lat="42.9606030" lon="-0.2133030">
        <ele>910.8</ele>
        <time>2020-07-28T08:15:31Z</time>
      </trkpt>
      <trkpt lat="42.9605800" lon="-0.2134090">
        <ele>911.2</ele>
        <time>2020-07-28T08:15:34Z</time>
      </trkpt>
      <trkpt lat="42.9605580" lon="-0.2135250">
        <ele>912.0</ele>
        <time>2020-07-28T08:15:37Z</time>
      </trkpt>
      <trkpt lat="42.9605540" lon="-0.2136310">
        <ele>912.6</ele>
        <time>2020-07-28T08:15:40Z</time>
      </trkpt>
      <trkpt lat="42.9605520" lon="-0.2136660">
        <ele>912.8</ele>
        <time>2020-07-28T08:15:41Z</time>
      </trkpt>
      <trkpt lat="42.9605470" lon="-0.2137300">
        <ele>913.2</ele>
        <time>2020-07-28T08:15:43Z</time>
      </trkpt>
      <trkpt lat="42.9605580" lon="-0.2138070">
        <ele>913.6</ele>
        <time>2020-07-28T08:15:45Z</time>
      </trkpt>
      <trkpt lat="42.9605850" lon="-0.2139100">
        <ele>914.4</ele>
        <time>2020-07-28T08:15:48Z</time>
      </trkpt>
      <trkpt lat="42.9606290" lon="-0.2140020">
        <ele>915.2</ele>
        <time>2020-07-28T08:15:51Z</time>
      </trkpt>
      <trkpt lat="42.9606440" lon="-0.2140330">
        <ele>915.4</ele>
        <time>2020-07-28T08:15:52Z</time>
      </trkpt>
      <trkpt lat="42.9606970" lon="-0.2141260">
        <ele>916.4</ele>
        <time>2020-07-28T08:15:55Z</time>
      </trkpt>
      <trkpt lat="42.9607950" lon="-0.2142700">
        <ele>917.4</ele>
        <time>2020-07-28T08:16:00Z</time>
      </trkpt>
      <trkpt lat="42.9608160" lon="-0.2142950">
        <ele>917.6</ele>
        <time>2020-07-28T08:16:01Z</time>
      </trkpt>
      <trkpt lat="42.9608760" lon="-0.2143810">
        <ele>918.6</ele>
        <time>2020-07-28T08:16:04Z</time>
      </trkpt>
      <trkpt lat="42.9608940" lon="-0.2144100">
        <ele>918.8</ele>
        <time>2020-07-28T08:16:05Z</time>
      </trkpt>
      <trkpt lat="42.9609120" lon="-0.2144390">
        <ele>919.0</ele>
        <time>2020-07-28T08:16:06Z</time>
      </trkpt>
      <trkpt lat="42.9609280" lon="-0.2144710">
        <ele>919.2</ele>
        <time>2020-07-28T08:16:07Z</time>
      </trkpt>
      <trkpt lat="42.9609520" lon="-0.2145380">
        <ele>919.6</ele>
        <time>2020-07-28T08:16:09Z</time>
      </trkpt>
      <trkpt lat="42.9609640" lon="-0.2145700">
        <ele>919.8</ele>
        <time>2020-07-28T08:16:10Z</time>
      </trkpt>
      <trkpt lat="42.9610030" lon="-0.2146940">
        <ele>921.0</ele>
        <time>2020-07-28T08:16:14Z</time>
      </trkpt>
      <trkpt lat="42.9610150" lon="-0.2147570">
        <ele>921.6</ele>
        <time>2020-07-28T08:16:16Z</time>
      </trkpt>
      <trkpt lat="42.9610310" lon="-0.2148560">
        <ele>922.0</ele>
        <time>2020-07-28T08:16:19Z</time>
      </trkpt>
      <trkpt lat="42.9610410" lon="-0.2150160">
        <ele>923.2</ele>
        <time>2020-07-28T08:16:24Z</time>
      </trkpt>
      <trkpt lat="42.9610420" lon="-0.2150490">
        <ele>923.4</ele>
        <time>2020-07-28T08:16:25Z</time>
      </trkpt>
      <trkpt lat="42.9610420" lon="-0.2151430">
        <ele>924.4</ele>
        <time>2020-07-28T08:16:28Z</time>
      </trkpt>
      <trkpt lat="42.9610350" lon="-0.2152750">
        <ele>925.0</ele>
        <time>2020-07-28T08:16:32Z</time>
      </trkpt>
      <trkpt lat="42.9610340" lon="-0.2153400">
        <ele>925.4</ele>
        <time>2020-07-28T08:16:34Z</time>
      </trkpt>
      <trkpt lat="42.9610230" lon="-0.2154690">
        <ele>926.6</ele>
        <time>2020-07-28T08:16:38Z</time>
      </trkpt>
      <trkpt lat="42.9610050" lon="-0.2155620">
        <ele>927.2</ele>
        <time>2020-07-28T08:16:41Z</time>
      </trkpt>
      <trkpt lat="42.9609950" lon="-0.2156250">
        <ele>927.8</ele>
        <time>2020-07-28T08:16:43Z</time>
      </trkpt>
      <trkpt lat="42.9609710" lon="-0.2157900">
        <ele>928.8</ele>
        <time>2020-07-28T08:16:48Z</time>
      </trkpt>
      <trkpt lat="42.9609710" lon="-0.2158220">
        <ele>929.0</ele>
        <time>2020-07-28T08:16:49Z</time>
      </trkpt>
      <trkpt lat="42.9609550" lon="-0.2159690">
        <ele>929.8</ele>
        <time>2020-07-28T08:16:53Z</time>
      </trkpt>
      <trkpt lat="42.9609460" lon="-0.2160760">
        <ele>930.6</ele>
        <time>2020-07-28T08:16:56Z</time>
      </trkpt>
      <trkpt lat="42.9609340" lon="-0.2161400">
        <ele>931.0</ele>
        <time>2020-07-28T08:16:58Z</time>
      </trkpt>
      <trkpt lat="42.9609090" lon="-0.2163540">
        <ele>932.0</ele>
        <time>2020-07-28T08:17:04Z</time>
      </trkpt>
      <trkpt lat="42.9609090" lon="-0.2165290">
        <ele>933.4</ele>
        <time>2020-07-28T08:17:09Z</time>
      </trkpt>
      <trkpt lat="42.9609190" lon="-0.2166690">
        <ele>934.4</ele>
        <time>2020-07-28T08:17:13Z</time>
      </trkpt>
      <trkpt lat="42.9609200" lon="-0.2167040">
        <ele>934.4</ele>
        <time>2020-07-28T08:17:14Z</time>
      </trkpt>
      <trkpt lat="42.9609260" lon="-0.2168780">
        <ele>935.6</ele>
        <time>2020-07-28T08:17:19Z</time>
      </trkpt>
      <trkpt lat="42.9609260" lon="-0.2169100">
        <ele>935.8</ele>
        <time>2020-07-28T08:17:20Z</time>
      </trkpt>
      <trkpt lat="42.9609320" lon="-0.2170430">
        <ele>936.8</ele>
        <time>2020-07-28T08:17:24Z</time>
      </trkpt>
      <trkpt lat="42.9609210" lon="-0.2171440">
        <ele>937.2</ele>
        <time>2020-07-28T08:17:27Z</time>
      </trkpt>
      <trkpt lat="42.9608970" lon="-0.2172620">
        <ele>937.8</ele>
        <time>2020-07-28T08:17:31Z</time>
      </trkpt>
      <trkpt lat="42.9608650" lon="-0.2173880">
        <ele>938.6</ele>
        <time>2020-07-28T08:17:35Z</time>
      </trkpt>
      <trkpt lat="42.9608500" lon="-0.2174510">
        <ele>939.0</ele>
        <time>2020-07-28T08:17:37Z</time>
      </trkpt>
      <trkpt lat="42.9608270" lon="-0.2176230">
        <ele>940.2</ele>
        <time>2020-07-28T08:17:42Z</time>
      </trkpt>
      <trkpt lat="42.9608230" lon="-0.2176560">
        <ele>940.4</ele>
        <time>2020-07-28T08:17:43Z</time>
      </trkpt>
      <trkpt lat="42.9608150" lon="-0.2178290">
        <ele>941.2</ele>
        <time>2020-07-28T08:17:48Z</time>
      </trkpt>
      <trkpt lat="42.9608170" lon="-0.2178650">
        <ele>941.4</ele>
        <time>2020-07-28T08:17:49Z</time>
      </trkpt>
      <trkpt lat="42.9608320" lon="-0.2180130">
        <ele>942.2</ele>
        <time>2020-07-28T08:17:53Z</time>
      </trkpt>
      <trkpt lat="42.9608400" lon="-0.2181530">
        <ele>943.0</ele>
        <time>2020-07-28T08:17:57Z</time>
      </trkpt>
      <trkpt lat="42.9608410" lon="-0.2182230">
        <ele>943.6</ele>
        <time>2020-07-28T08:17:59Z</time>
      </trkpt>
      <trkpt lat="42.9608530" lon="-0.2183340">
        <ele>944.2</ele>
        <time>2020-07-28T08:18:02Z</time>
      </trkpt>
      <trkpt lat="42.9608520" lon="-0.2184440">
        <ele>944.4</ele>
        <time>2020-07-28T08:18:05Z</time>
      </trkpt>
      <trkpt lat="42.9608470" lon="-0.2184820">
        <ele>944.6</ele>
        <time>2020-07-28T08:18:06Z</time>
      </trkpt>
      <trkpt lat="42.9608270" lon="-0.2185530">
        <ele>945.2</ele>
        <time>2020-07-28T08:18:08Z</time>
      </trkpt>
      <trkpt lat="42.9608020" lon="-0.2186220">
        <ele>945.8</ele>
        <time>2020-07-28T08:18:10Z</time>
      </trkpt>
      <trkpt lat="42.9607800" lon="-0.2186890">
        <ele>946.0</ele>
        <time>2020-07-28T08:18:12Z</time>
      </trkpt>
      <trkpt lat="42.9607380" lon="-0.2187860">
        <ele>946.6</ele>
        <time>2020-07-28T08:18:15Z</time>
      </trkpt>
      <trkpt lat="42.9607250" lon="-0.2188200">
        <ele>946.8</ele>
        <time>2020-07-28T08:18:16Z</time>
      </trkpt>
      <trkpt lat="42.9606870" lon="-0.2189620">
        <ele>947.4</ele>
        <time>2020-07-28T08:18:20Z</time>
      </trkpt>
      <trkpt lat="42.9606820" lon="-0.2190380">
        <ele>947.8</ele>
        <time>2020-07-28T08:18:22Z</time>
      </trkpt>
      <trkpt lat="42.9606830" lon="-0.2191250">
        <ele>948.2</ele>
        <time>2020-07-28T08:18:24Z</time>
      </trkpt>
      <trkpt lat="42.9606850" lon="-0.2191710">
        <ele>948.4</ele>
        <time>2020-07-28T08:18:25Z</time>
      </trkpt>
      <trkpt lat="42.9607100" lon="-0.2193040">
        <ele>948.8</ele>
        <time>2020-07-28T08:18:28Z</time>
      </trkpt>
      <trkpt lat="42.9607390" lon="-0.2193930">
        <ele>949.4</ele>
        <time>2020-07-28T08:18:30Z</time>
      </trkpt>
      <trkpt lat="42.9607600" lon="-0.2194780">
        <ele>949.8</ele>
        <time>2020-07-28T08:18:32Z</time>
      </trkpt>
      <trkpt lat="42.9608180" lon="-0.2197240">
        <ele>950.0</ele>
        <time>2020-07-28T08:18:37Z</time>
      </trkpt>
      <trkpt lat="42.9608760" lon="-0.2200620">
        <ele>950.4</ele>
        <time>2020-07-28T08:18:43Z</time>
      </trkpt>
      <trkpt lat="42.9608790" lon="-0.2201120">
        <ele>950.6</ele>
        <time>2020-07-28T08:18:44Z</time>
      </trkpt>
      <trkpt lat="42.9608820" lon="-0.2201610">
        <ele>951.0</ele>
        <time>2020-07-28T08:18:45Z</time>
      </trkpt>
      <trkpt lat="42.9609050" lon="-0.2203900">
        <ele>952.0</ele>
        <time>2020-07-28T08:18:50Z</time>
      </trkpt>
      <trkpt lat="42.9609400" lon="-0.2204500">
        <ele>952.6</ele>
        <time>2020-07-28T08:18:52Z</time>
      </trkpt>
      <trkpt lat="42.9609840" lon="-0.2204870">
        <ele>953.4</ele>
        <time>2020-07-28T08:18:54Z</time>
      </trkpt>
      <trkpt lat="42.9610640" lon="-0.2205130">
        <ele>954.4</ele>
        <time>2020-07-28T08:18:57Z</time>
      </trkpt>
      <trkpt lat="42.9610930" lon="-0.2205140">
        <ele>954.6</ele>
        <time>2020-07-28T08:18:58Z</time>
      </trkpt>
      <trkpt lat="42.9611940" lon="-0.2204570">
        <ele>955.6</ele>
        <time>2020-07-28T08:19:02Z</time>
      </trkpt>
      <trkpt lat="42.9612130" lon="-0.2204270">
        <ele>955.8</ele>
        <time>2020-07-28T08:19:03Z</time>
      </trkpt>
      <trkpt lat="42.9612580" lon="-0.2203050">
        <ele>956.4</ele>
        <time>2020-07-28T08:19:07Z</time>
      </trkpt>
      <trkpt lat="42.9612420" lon="-0.2201840">
        <ele>957.0</ele>
        <time>2020-07-28T08:19:10Z</time>
      </trkpt>
      <trkpt lat="42.9612170" lon="-0.2200610">
        <ele>958.0</ele>
        <time>2020-07-28T08:19:13Z</time>
      </trkpt>
      <trkpt lat="42.9612070" lon="-0.2200240">
        <ele>958.2</ele>
        <time>2020-07-28T08:19:14Z</time>
      </trkpt>
      <trkpt lat="42.9611740" lon="-0.2198850">
        <ele>959.2</ele>
        <time>2020-07-28T08:19:18Z</time>
      </trkpt>
      <trkpt lat="42.9611530" lon="-0.2197690">
        <ele>960.0</ele>
        <time>2020-07-28T08:19:21Z</time>
      </trkpt>
      <trkpt lat="42.9611480" lon="-0.2197310">
        <ele>960.4</ele>
        <time>2020-07-28T08:19:22Z</time>
      </trkpt>
      <trkpt lat="42.9611490" lon="-0.2196130">
        <ele>961.4</ele>
        <time>2020-07-28T08:19:25Z</time>
      </trkpt>
      <trkpt lat="42.9611610" lon="-0.2194980">
        <ele>962.4</ele>
        <time>2020-07-28T08:19:28Z</time>
      </trkpt>
      <trkpt lat="42.9611700" lon="-0.2194640">
        <ele>962.8</ele>
        <time>2020-07-28T08:19:29Z</time>
      </trkpt>
      <trkpt lat="42.9611790" lon="-0.2194310">
        <ele>963.2</ele>
        <time>2020-07-28T08:19:30Z</time>
      </trkpt>
      <trkpt lat="42.9611890" lon="-0.2194000">
        <ele>963.8</ele>
        <time>2020-07-28T08:19:31Z</time>
      </trkpt>
      <trkpt lat="42.9612350" lon="-0.2193160">
        <ele>964.8</ele>
        <time>2020-07-28T08:19:34Z</time>
      </trkpt>
      <trkpt lat="42.9612550" lon="-0.2192890">
        <ele>965.2</ele>
        <time>2020-07-28T08:19:35Z</time>
      </trkpt>
      <trkpt lat="42.9613330" lon="-0.2192270">
        <ele>965.8</ele>
        <time>2020-07-28T08:19:38Z</time>
      </trkpt>
      <trkpt lat="42.9614170" lon="-0.2191850">
        <ele>966.6</ele>
        <time>2020-07-28T08:19:41Z</time>
      </trkpt>
      <trkpt lat="42.9614750" lon="-0.2191760">
        <ele>967.0</ele>
        <time>2020-07-28T08:19:43Z</time>
      </trkpt>
      <trkpt lat="42.9615870" lon="-0.2191970">
        <ele>968.0</ele>
        <time>2020-07-28T08:19:47Z</time>
      </trkpt>
      <trkpt lat="42.9616380" lon="-0.2192150">
        <ele>968.2</ele>
        <time>2020-07-28T08:19:49Z</time>
      </trkpt>
      <trkpt lat="42.9616630" lon="-0.2192260">
        <ele>968.4</ele>
        <time>2020-07-28T08:19:50Z</time>
      </trkpt>
      <trkpt lat="42.9616880" lon="-0.2192340">
        <ele>968.6</ele>
        <time>2020-07-28T08:19:51Z</time>
      </trkpt>
      <trkpt lat="42.9617410" lon="-0.2192510">
        <ele>969.2</ele>
        <time>2020-07-28T08:19:53Z</time>
      </trkpt>
      <trkpt lat="42.9618160" lon="-0.2192840">
        <ele>970.2</ele>
        <time>2020-07-28T08:19:56Z</time>
      </trkpt>
      <trkpt lat="42.9618430" lon="-0.2192930">
        <ele>970.6</ele>
        <time>2020-07-28T08:19:57Z</time>
      </trkpt>
      <trkpt lat="42.9619270" lon="-0.2193130">
        <ele>971.4</ele>
        <time>2020-07-28T08:20:00Z</time>
      </trkpt>
      <trkpt lat="42.9619550" lon="-0.2193180">
        <ele>971.8</ele>
        <time>2020-07-28T08:20:01Z</time>
      </trkpt>
      <trkpt lat="42.9620110" lon="-0.2193260">
        <ele>972.4</ele>
        <time>2020-07-28T08:20:03Z</time>
      </trkpt>
      <trkpt lat="42.9620910" lon="-0.2193230">
        <ele>972.8</ele>
        <time>2020-07-28T08:20:06Z</time>
      </trkpt>
      <trkpt lat="42.9621180" lon="-0.2193220">
        <ele>973.0</ele>
        <time>2020-07-28T08:20:07Z</time>
      </trkpt>
      <trkpt lat="42.9622470" lon="-0.2192660">
        <ele>974.0</ele>
        <time>2020-07-28T08:20:12Z</time>
      </trkpt>
      <trkpt lat="42.9622690" lon="-0.2192430">
        <ele>974.2</ele>
        <time>2020-07-28T08:20:13Z</time>
      </trkpt>
      <trkpt lat="42.9623170" lon="-0.2191260">
        <ele>975.0</ele>
        <time>2020-07-28T08:20:17Z</time>
      </trkpt>
      <trkpt lat="42.9623180" lon="-0.2190920">
        <ele>975.2</ele>
        <time>2020-07-28T08:20:18Z</time>
      </trkpt>
      <trkpt lat="42.9623030" lon="-0.2189540">
        <ele>976.8</ele>
        <time>2020-07-28T08:20:22Z</time>
      </trkpt>
      <trkpt lat="42.9622780" lon="-0.2188900">
        <ele>977.4</ele>
        <time>2020-07-28T08:20:24Z</time>
      </trkpt>
      <trkpt lat="42.9622570" lon="-0.2188330">
        <ele>977.8</ele>
        <time>2020-07-28T08:20:26Z</time>
      </trkpt>
      <trkpt lat="42.9622200" lon="-0.2186990">
        <ele>979.0</ele>
        <time>2020-07-28T08:20:30Z</time>
      </trkpt>
      <trkpt lat="42.9622110" lon="-0.2186630">
        <ele>979.6</ele>
        <time>2020-07-28T08:20:31Z</time>
      </trkpt>
      <trkpt lat="42.9621970" lon="-0.2185890">
        <ele>980.0</ele>
        <time>2020-07-28T08:20:33Z</time>
      </trkpt>
      <trkpt lat="42.9621940" lon="-0.2185520">
        <ele>980.2</ele>
        <time>2020-07-28T08:20:34Z</time>
      </trkpt>
      <trkpt lat="42.9621950" lon="-0.2185150">
        <ele>980.4</ele>
        <time>2020-07-28T08:20:35Z</time>
      </trkpt>
      <trkpt lat="42.9622050" lon="-0.2184400">
        <ele>981.0</ele>
        <time>2020-07-28T08:20:37Z</time>
      </trkpt>
      <trkpt lat="42.9622120" lon="-0.2184050">
        <ele>981.2</ele>
        <time>2020-07-28T08:20:38Z</time>
      </trkpt>
      <trkpt lat="42.9622710" lon="-0.2181970">
        <ele>982.4</ele>
        <time>2020-07-28T08:20:44Z</time>
      </trkpt>
      <trkpt lat="42.9622950" lon="-0.2181320">
        <ele>982.8</ele>
        <time>2020-07-28T08:20:46Z</time>
      </trkpt>
      <trkpt lat="42.9623330" lon="-0.2180440">
        <ele>983.4</ele>
        <time>2020-07-28T08:20:49Z</time>
      </trkpt>
      <trkpt lat="42.9623980" lon="-0.2179440">
        <ele>984.4</ele>
        <time>2020-07-28T08:20:53Z</time>
      </trkpt>
      <trkpt lat="42.9624180" lon="-0.2179230">
        <ele>984.6</ele>
        <time>2020-07-28T08:20:54Z</time>
      </trkpt>
      <trkpt lat="42.9624590" lon="-0.2178890">
        <ele>985.2</ele>
        <time>2020-07-28T08:20:56Z</time>
      </trkpt>
      <trkpt lat="42.9624820" lon="-0.2178760">
        <ele>985.6</ele>
        <time>2020-07-28T08:20:57Z</time>
      </trkpt>
      <trkpt lat="42.9625790" lon="-0.2178380">
        <ele>986.8</ele>
        <time>2020-07-28T08:21:01Z</time>
      </trkpt>
      <trkpt lat="42.9627070" lon="-0.2178520">
        <ele>987.8</ele>
        <time>2020-07-28T08:21:06Z</time>
      </trkpt>
      <trkpt lat="42.9627320" lon="-0.2178600">
        <ele>988.0</ele>
        <time>2020-07-28T08:21:07Z</time>
      </trkpt>
      <trkpt lat="42.9627570" lon="-0.2178690">
        <ele>988.4</ele>
        <time>2020-07-28T08:21:08Z</time>
      </trkpt>
      <trkpt lat="42.9627820" lon="-0.2178800">
        <ele>988.6</ele>
        <time>2020-07-28T08:21:09Z</time>
      </trkpt>
      <trkpt lat="42.9628310" lon="-0.2179080">
        <ele>989.0</ele>
        <time>2020-07-28T08:21:11Z</time>
      </trkpt>
      <trkpt lat="42.9629140" lon="-0.2180180">
        <ele>990.2</ele>
        <time>2020-07-28T08:21:16Z</time>
      </trkpt>
      <trkpt lat="42.9629260" lon="-0.2180550">
        <ele>990.6</ele>
        <time>2020-07-28T08:21:17Z</time>
      </trkpt>
      <trkpt lat="42.9629570" lon="-0.2182040">
        <ele>991.2</ele>
        <time>2020-07-28T08:21:21Z</time>
      </trkpt>
      <trkpt lat="42.9629590" lon="-0.2182400">
        <ele>991.6</ele>
        <time>2020-07-28T08:21:22Z</time>
      </trkpt>
      <trkpt lat="42.9629800" lon="-0.2184510">
        <ele>992.4</ele>
        <time>2020-07-28T08:21:28Z</time>
      </trkpt>
      <trkpt lat="42.9629900" lon="-0.2184870">
        <ele>992.8</ele>
        <time>2020-07-28T08:21:29Z</time>
      </trkpt>
      <trkpt lat="42.9630170" lon="-0.2186060">
        <ele>993.6</ele>
        <time>2020-07-28T08:21:32Z</time>
      </trkpt>
      <trkpt lat="42.9630710" lon="-0.2186690">
        <ele>994.0</ele>
        <time>2020-07-28T08:21:35Z</time>
      </trkpt>
      <trkpt lat="42.9631160" lon="-0.2186860">
        <ele>994.6</ele>
        <time>2020-07-28T08:21:37Z</time>
      </trkpt>
      <trkpt lat="42.9631850" lon="-0.2186940">
        <ele>995.8</ele>
        <time>2020-07-28T08:21:40Z</time>
      </trkpt>
      <trkpt lat="42.9632290" lon="-0.2186780">
        <ele>996.4</ele>
        <time>2020-07-28T08:21:42Z</time>
      </trkpt>
      <trkpt lat="42.9632720" lon="-0.2186650">
        <ele>997.0</ele>
        <time>2020-07-28T08:21:44Z</time>
      </trkpt>
      <trkpt lat="42.9633380" lon="-0.2186310">
        <ele>997.4</ele>
        <time>2020-07-28T08:21:47Z</time>
      </trkpt>
      <trkpt lat="42.9633760" lon="-0.2185970">
        <ele>998.0</ele>
        <time>2020-07-28T08:21:49Z</time>
      </trkpt>
      <trkpt lat="42.9633950" lon="-0.2185790">
        <ele>998.4</ele>
        <time>2020-07-28T08:21:50Z</time>
      </trkpt>
      <trkpt lat="42.9634640" lon="-0.2185210">
        <ele>999.2</ele>
        <time>2020-07-28T08:21:53Z</time>
      </trkpt>
      <trkpt lat="42.9635420" lon="-0.2184380">
        <ele>1000.0</ele>
        <time>2020-07-28T08:21:57Z</time>
      </trkpt>
      <trkpt lat="42.9635580" lon="-0.2184170">
        <ele>1000.2</ele>
        <time>2020-07-28T08:21:58Z</time>
      </trkpt>
      <trkpt lat="42.9636490" lon="-0.2183150">
        <ele>1001.2</ele>
        <time>2020-07-28T08:22:03Z</time>
      </trkpt>
      <trkpt lat="42.9636990" lon="-0.2182500">
        <ele>1002.0</ele>
        <time>2020-07-28T08:22:06Z</time>
      </trkpt>
      <trkpt lat="42.9637160" lon="-0.2182300">
        <ele>1002.4</ele>
        <time>2020-07-28T08:22:07Z</time>
      </trkpt>
      <trkpt lat="42.9637510" lon="-0.2181890">
        <ele>1002.8</ele>
        <time>2020-07-28T08:22:09Z</time>
      </trkpt>
      <trkpt lat="42.9638150" lon="-0.2181250">
        <ele>1003.4</ele>
        <time>2020-07-28T08:22:12Z</time>
      </trkpt>
      <trkpt lat="42.9638370" lon="-0.2181040">
        <ele>1003.6</ele>
        <time>2020-07-28T08:22:13Z</time>
      </trkpt>
      <trkpt lat="42.9638580" lon="-0.2180790">
        <ele>1003.8</ele>
        <time>2020-07-28T08:22:14Z</time>
      </trkpt>
      <trkpt lat="42.9639360" lon="-0.2179930">
        <ele>1004.6</ele>
        <time>2020-07-28T08:22:18Z</time>
      </trkpt>
      <trkpt lat="42.9640120" lon="-0.2179150">
        <ele>1006.0</ele>
        <time>2020-07-28T08:22:22Z</time>
      </trkpt>
      <trkpt lat="42.9640460" lon="-0.2178780">
        <ele>1006.6</ele>
        <time>2020-07-28T08:22:24Z</time>
      </trkpt>
      <trkpt lat="42.9641000" lon="-0.2178030">
        <ele>1007.2</ele>
        <time>2020-07-28T08:22:27Z</time>
      </trkpt>
      <trkpt lat="42.9641760" lon="-0.2177130">
        <ele>1007.6</ele>
        <time>2020-07-28T08:22:31Z</time>
      </trkpt>
      <trkpt lat="42.9642180" lon="-0.2176630">
        <ele>1008.2</ele>
        <time>2020-07-28T08:22:33Z</time>
      </trkpt>
      <trkpt lat="42.9643140" lon="-0.2175680">
        <ele>1009.0</ele>
        <time>2020-07-28T08:22:37Z</time>
      </trkpt>
      <trkpt lat="42.9643370" lon="-0.2175450">
        <ele>1009.2</ele>
        <time>2020-07-28T08:22:38Z</time>
      </trkpt>
      <trkpt lat="42.9643590" lon="-0.2175260">
        <ele>1009.4</ele>
        <time>2020-07-28T08:22:39Z</time>
      </trkpt>
      <trkpt lat="42.9643820" lon="-0.2175080">
        <ele>1009.8</ele>
        <time>2020-07-28T08:22:40Z</time>
      </trkpt>
      <trkpt lat="42.9644540" lon="-0.2174600">
        <ele>1010.4</ele>
        <time>2020-07-28T08:22:43Z</time>
      </trkpt>
      <trkpt lat="42.9645540" lon="-0.2173610">
        <ele>1011.6</ele>
        <time>2020-07-28T08:22:48Z</time>
      </trkpt>
      <trkpt lat="42.9645710" lon="-0.2173420">
        <ele>1011.8</ele>
        <time>2020-07-28T08:22:49Z</time>
      </trkpt>
      <trkpt lat="42.9646710" lon="-0.2172240">
        <ele>1012.8</ele>
        <time>2020-07-28T08:22:55Z</time>
      </trkpt>
      <trkpt lat="42.9646840" lon="-0.2172080">
        <ele>1013.0</ele>
        <time>2020-07-28T08:22:56Z</time>
      </trkpt>
      <trkpt lat="42.9647680" lon="-0.2171220">
        <ele>1014.0</ele>
        <time>2020-07-28T08:23:00Z</time>
      </trkpt>
      <trkpt lat="42.9648320" lon="-0.2170510">
        <ele>1014.8</ele>
        <time>2020-07-28T08:23:03Z</time>
      </trkpt>
      <trkpt lat="42.9648540" lon="-0.2170310">
        <ele>1015.0</ele>
        <time>2020-07-28T08:23:04Z</time>
      </trkpt>
      <trkpt lat="42.9649540" lon="-0.2169190">
        <ele>1016.2</ele>
        <time>2020-07-28T08:23:09Z</time>
      </trkpt>
      <trkpt lat="42.9650600" lon="-0.2167510">
        <ele>1017.4</ele>
        <time>2020-07-28T08:23:15Z</time>
      </trkpt>
      <trkpt lat="42.9651450" lon="-0.2166560">
        <ele>1018.2</ele>
        <time>2020-07-28T08:23:19Z</time>
      </trkpt>
      <trkpt lat="42.9651640" lon="-0.2166300">
        <ele>1018.6</ele>
        <time>2020-07-28T08:23:20Z</time>
      </trkpt>
      <trkpt lat="42.9652390" lon="-0.2165370">
        <ele>1019.6</ele>
        <time>2020-07-28T08:23:24Z</time>
      </trkpt>
      <trkpt lat="42.9652580" lon="-0.2165140">
        <ele>1019.8</ele>
        <time>2020-07-28T08:23:25Z</time>
      </trkpt>
      <trkpt lat="42.9652750" lon="-0.2164890">
        <ele>1020.0</ele>
        <time>2020-07-28T08:23:26Z</time>
      </trkpt>
      <trkpt lat="42.9653120" lon="-0.2164380">
        <ele>1020.4</ele>
        <time>2020-07-28T08:23:28Z</time>
      </trkpt>
      <trkpt lat="42.9653520" lon="-0.2163920">
        <ele>1020.8</ele>
        <time>2020-07-28T08:23:30Z</time>
      </trkpt>
      <trkpt lat="42.9654340" lon="-0.2163150">
        <ele>1021.8</ele>
        <time>2020-07-28T08:23:34Z</time>
      </trkpt>
      <trkpt lat="42.9654570" lon="-0.2163020">
        <ele>1022.2</ele>
        <time>2020-07-28T08:23:35Z</time>
      </trkpt>
      <trkpt lat="42.9655790" lon="-0.2162310">
        <ele>1023.2</ele>
        <time>2020-07-28T08:23:40Z</time>
      </trkpt>
      <trkpt lat="42.9656490" lon="-0.2161940">
        <ele>1024.0</ele>
        <time>2020-07-28T08:23:43Z</time>
      </trkpt>
      <trkpt lat="42.9656730" lon="-0.2161820">
        <ele>1024.2</ele>
        <time>2020-07-28T08:23:44Z</time>
      </trkpt>
      <trkpt lat="42.9657940" lon="-0.2161200">
        <ele>1025.2</ele>
        <time>2020-07-28T08:23:49Z</time>
      </trkpt>
      <trkpt lat="42.9658160" lon="-0.2161000">
        <ele>1025.4</ele>
        <time>2020-07-28T08:23:50Z</time>
      </trkpt>
      <trkpt lat="42.9658350" lon="-0.2160800">
        <ele>1025.6</ele>
        <time>2020-07-28T08:23:51Z</time>
      </trkpt>
      <trkpt lat="42.9658770" lon="-0.2160160">
        <ele>1026.6</ele>
        <time>2020-07-28T08:23:54Z</time>
      </trkpt>
      <trkpt lat="42.9659230" lon="-0.2159210">
        <ele>1027.4</ele>
        <time>2020-07-28T08:23:58Z</time>
      </trkpt>
      <trkpt lat="42.9659360" lon="-0.2158900">
        <ele>1027.6</ele>
        <time>2020-07-28T08:23:59Z</time>
      </trkpt>
      <trkpt lat="42.9659930" lon="-0.2157250">
        <ele>1028.8</ele>
        <time>2020-07-28T08:24:04Z</time>
      </trkpt>
      <trkpt lat="42.9660030" lon="-0.2156930">
        <ele>1029.0</ele>
        <time>2020-07-28T08:24:05Z</time>
      </trkpt>
      <trkpt lat="42.9660550" lon="-0.2155610">
        <ele>1029.8</ele>
        <time>2020-07-28T08:24:09Z</time>
      </trkpt>
      <trkpt lat="42.9661050" lon="-0.2154290">
        <ele>1031.0</ele>
        <time>2020-07-28T08:24:13Z</time>
      </trkpt>
      <trkpt lat="42.9661420" lon="-0.2153300">
        <ele>1031.2</ele>
        <time>2020-07-28T08:24:16Z</time>
      </trkpt>
      <trkpt lat="42.9662170" lon="-0.2152160">
        <ele>1032.0</ele>
        <time>2020-07-28T08:24:20Z</time>
      </trkpt>
      <trkpt lat="42.9663130" lon="-0.2151630">
        <ele>1033.0</ele>
        <time>2020-07-28T08:24:24Z</time>
      </trkpt>
      <trkpt lat="42.9663610" lon="-0.2151560">
        <ele>1033.4</ele>
        <time>2020-07-28T08:24:26Z</time>
      </trkpt>
      <trkpt lat="42.9664510" lon="-0.2152070">
        <ele>1034.4</ele>
        <time>2020-07-28T08:24:30Z</time>
      </trkpt>
      <trkpt lat="42.9664720" lon="-0.2152250">
        <ele>1034.6</ele>
        <time>2020-07-28T08:24:31Z</time>
      </trkpt>
      <trkpt lat="42.9665160" lon="-0.2153050">
        <ele>1035.4</ele>
        <time>2020-07-28T08:24:34Z</time>
      </trkpt>
      <trkpt lat="42.9665310" lon="-0.2153680">
        <ele>1035.8</ele>
        <time>2020-07-28T08:24:36Z</time>
      </trkpt>
      <trkpt lat="42.9665310" lon="-0.2154000">
        <ele>1036.2</ele>
        <time>2020-07-28T08:24:37Z</time>
      </trkpt>
      <trkpt lat="42.9665260" lon="-0.2154340">
        <ele>1036.4</ele>
        <time>2020-07-28T08:24:38Z</time>
      </trkpt>
      <trkpt lat="42.9664870" lon="-0.2156160">
        <ele>1037.6</ele>
        <time>2020-07-28T08:24:43Z</time>
      </trkpt>
      <trkpt lat="42.9664760" lon="-0.2156530">
        <ele>1037.8</ele>
        <time>2020-07-28T08:24:44Z</time>
      </trkpt>
      <trkpt lat="42.9664340" lon="-0.2157980">
        <ele>1038.8</ele>
        <time>2020-07-28T08:24:48Z</time>
      </trkpt>
      <trkpt lat="42.9664160" lon="-0.2159110">
        <ele>1039.2</ele>
        <time>2020-07-28T08:24:51Z</time>
      </trkpt>
      <trkpt lat="42.9664080" lon="-0.2159820">
        <ele>1039.6</ele>
        <time>2020-07-28T08:24:53Z</time>
      </trkpt>
      <trkpt lat="42.9664080" lon="-0.2160170">
        <ele>1040.0</ele>
        <time>2020-07-28T08:24:54Z</time>
      </trkpt>
      <trkpt lat="42.9664180" lon="-0.2161960">
        <ele>1041.2</ele>
        <time>2020-07-28T08:25:00Z</time>
      </trkpt>
      <trkpt lat="42.9664220" lon="-0.2162160">
        <ele>1041.6</ele>
        <time>2020-07-28T08:25:01Z</time>
      </trkpt>
      <trkpt lat="42.9664240" lon="-0.2162290">
        <ele>1042.0</ele>
        <time>2020-07-28T08:25:02Z</time>
      </trkpt>
      <trkpt lat="42.9664000" lon="-0.2163600">
        <ele>1042.6</ele>
        <time>2020-07-28T08:25:38Z</time>
      </trkpt>
      <trkpt lat="42.9664010" lon="-0.2163870">
        <ele>1042.8</ele>
        <time>2020-07-28T08:25:39Z</time>
      </trkpt>
      <trkpt lat="42.9664040" lon="-0.2164170">
        <ele>1043.0</ele>
        <time>2020-07-28T08:25:40Z</time>
      </trkpt>
      <trkpt lat="42.9663900" lon="-0.2166300">
        <ele>1043.8</ele>
        <time>2020-07-28T08:25:46Z</time>
      </trkpt>
      <trkpt lat="42.9663840" lon="-0.2167000">
        <ele>1044.2</ele>
        <time>2020-07-28T08:25:48Z</time>
      </trkpt>
      <trkpt lat="42.9663690" lon="-0.2168390">
        <ele>1045.0</ele>
        <time>2020-07-28T08:25:52Z</time>
      </trkpt>
      <trkpt lat="42.9663550" lon="-0.2169360">
        <ele>1046.0</ele>
        <time>2020-07-28T08:25:55Z</time>
      </trkpt>
      <trkpt lat="42.9663350" lon="-0.2170060">
        <ele>1046.2</ele>
        <time>2020-07-28T08:25:57Z</time>
      </trkpt>
      <trkpt lat="42.9662910" lon="-0.2171650">
        <ele>1047.2</ele>
        <time>2020-07-28T08:26:02Z</time>
      </trkpt>
      <trkpt lat="42.9662170" lon="-0.2173620">
        <ele>1048.6</ele>
        <time>2020-07-28T08:26:08Z</time>
      </trkpt>
      <trkpt lat="42.9661770" lon="-0.2174630">
        <ele>1049.4</ele>
        <time>2020-07-28T08:26:11Z</time>
      </trkpt>
      <trkpt lat="42.9661500" lon="-0.2175280">
        <ele>1049.6</ele>
        <time>2020-07-28T08:26:13Z</time>
      </trkpt>
      <trkpt lat="42.9661080" lon="-0.2176680">
        <ele>1050.6</ele>
        <time>2020-07-28T08:26:17Z</time>
      </trkpt>
      <trkpt lat="42.9660920" lon="-0.2177820">
        <ele>1051.4</ele>
        <time>2020-07-28T08:26:20Z</time>
      </trkpt>
      <trkpt lat="42.9660840" lon="-0.2178550">
        <ele>1051.8</ele>
        <time>2020-07-28T08:26:22Z</time>
      </trkpt>
      <trkpt lat="42.9660740" lon="-0.2180550">
        <ele>1052.8</ele>
        <time>2020-07-28T08:26:28Z</time>
      </trkpt>
      <trkpt lat="42.9660540" lon="-0.2182150">
        <ele>1054.0</ele>
        <time>2020-07-28T08:26:33Z</time>
      </trkpt>
      <trkpt lat="42.9660430" lon="-0.2182830">
        <ele>1054.8</ele>
        <time>2020-07-28T08:26:35Z</time>
      </trkpt>
      <trkpt lat="42.9660290" lon="-0.2183480">
        <ele>1055.2</ele>
        <time>2020-07-28T08:26:37Z</time>
      </trkpt>
      <trkpt lat="42.9659760" lon="-0.2184890">
        <ele>1056.4</ele>
        <time>2020-07-28T08:26:42Z</time>
      </trkpt>
      <trkpt lat="42.9659640" lon="-0.2185180">
        <ele>1056.6</ele>
        <time>2020-07-28T08:26:43Z</time>
      </trkpt>
      <trkpt lat="42.9659350" lon="-0.2186090">
        <ele>1057.4</ele>
        <time>2020-07-28T08:26:46Z</time>
      </trkpt>
      <trkpt lat="42.9658940" lon="-0.2188290">
        <ele>1058.6</ele>
        <time>2020-07-28T08:26:52Z</time>
      </trkpt>
      <trkpt lat="42.9658970" lon="-0.2190730">
        <ele>1059.8</ele>
        <time>2020-07-28T08:26:58Z</time>
      </trkpt>
      <trkpt lat="42.9658970" lon="-0.2191520">
        <ele>1060.4</ele>
        <time>2020-07-28T08:27:00Z</time>
      </trkpt>
      <trkpt lat="42.9658980" lon="-0.2192280">
        <ele>1060.8</ele>
        <time>2020-07-28T08:27:02Z</time>
      </trkpt>
      <trkpt lat="42.9659040" lon="-0.2194070">
        <ele>1062.0</ele>
        <time>2020-07-28T08:27:07Z</time>
      </trkpt>
      <trkpt lat="42.9659010" lon="-0.2194800">
        <ele>1062.4</ele>
        <time>2020-07-28T08:27:09Z</time>
      </trkpt>
      <trkpt lat="42.9658840" lon="-0.2195880">
        <ele>1063.2</ele>
        <time>2020-07-28T08:27:12Z</time>
      </trkpt>
      <trkpt lat="42.9658650" lon="-0.2196960">
        <ele>1064.2</ele>
        <time>2020-07-28T08:27:15Z</time>
      </trkpt>
      <trkpt lat="42.9658310" lon="-0.2198020">
        <ele>1064.8</ele>
        <time>2020-07-28T08:27:18Z</time>
      </trkpt>
      <trkpt lat="42.9658040" lon="-0.2198660">
        <ele>1065.2</ele>
        <time>2020-07-28T08:27:20Z</time>
      </trkpt>
      <trkpt lat="42.9657440" lon="-0.2199740">
        <ele>1066.4</ele>
        <time>2020-07-28T08:27:24Z</time>
      </trkpt>
      <trkpt lat="42.9656890" lon="-0.2200570">
        <ele>1067.4</ele>
        <time>2020-07-28T08:27:27Z</time>
      </trkpt>
      <trkpt lat="42.9655910" lon="-0.2202410">
        <ele>1068.2</ele>
        <time>2020-07-28T08:27:33Z</time>
      </trkpt>
      <trkpt lat="42.9655820" lon="-0.2202750">
        <ele>1068.6</ele>
        <time>2020-07-28T08:27:34Z</time>
      </trkpt>
      <trkpt lat="42.9655730" lon="-0.2203090">
        <ele>1068.8</ele>
        <time>2020-07-28T08:27:35Z</time>
      </trkpt>
      <trkpt lat="42.9655560" lon="-0.2203780">
        <ele>1069.2</ele>
        <time>2020-07-28T08:27:37Z</time>
      </trkpt>
      <trkpt lat="42.9655400" lon="-0.2204470">
        <ele>1069.8</ele>
        <time>2020-07-28T08:27:39Z</time>
      </trkpt>
      <trkpt lat="42.9655230" lon="-0.2205530">
        <ele>1070.6</ele>
        <time>2020-07-28T08:27:42Z</time>
      </trkpt>
      <trkpt lat="42.9655150" lon="-0.2206260">
        <ele>1071.0</ele>
        <time>2020-07-28T08:27:44Z</time>
      </trkpt>
      <trkpt lat="42.9655010" lon="-0.2207660">
        <ele>1072.0</ele>
        <time>2020-07-28T08:27:48Z</time>
      </trkpt>
      <trkpt lat="42.9654900" lon="-0.2209040">
        <ele>1073.0</ele>
        <time>2020-07-28T08:27:52Z</time>
      </trkpt>
      <trkpt lat="42.9654880" lon="-0.2209380">
        <ele>1073.4</ele>
        <time>2020-07-28T08:27:53Z</time>
      </trkpt>
      <trkpt lat="42.9654830" lon="-0.2210460">
        <ele>1074.2</ele>
        <time>2020-07-28T08:27:56Z</time>
      </trkpt>
      <trkpt lat="42.9655010" lon="-0.2212300">
        <ele>1075.4</ele>
        <time>2020-07-28T08:28:01Z</time>
      </trkpt>
      <trkpt lat="42.9655090" lon="-0.2212660">
        <ele>1075.6</ele>
        <time>2020-07-28T08:28:02Z</time>
      </trkpt>
      <trkpt lat="42.9655180" lon="-0.2213030">
        <ele>1075.8</ele>
        <time>2020-07-28T08:28:03Z</time>
      </trkpt>
      <trkpt lat="42.9655380" lon="-0.2213750">
        <ele>1076.0</ele>
        <time>2020-07-28T08:28:05Z</time>
      </trkpt>
      <trkpt lat="42.9655600" lon="-0.2214460">
        <ele>1076.4</ele>
        <time>2020-07-28T08:28:07Z</time>
      </trkpt>
      <trkpt lat="42.9656080" lon="-0.2215930">
        <ele>1077.6</ele>
        <time>2020-07-28T08:28:11Z</time>
      </trkpt>
      <trkpt lat="42.9656250" lon="-0.2216690">
        <ele>1078.0</ele>
        <time>2020-07-28T08:28:13Z</time>
      </trkpt>
      <trkpt lat="42.9656340" lon="-0.2217070">
        <ele>1078.0</ele>
        <time>2020-07-28T08:28:14Z</time>
      </trkpt>
      <trkpt lat="42.9656490" lon="-0.2218780">
        <ele>1078.8</ele>
        <time>2020-07-28T08:28:19Z</time>
      </trkpt>
      <trkpt lat="42.9656490" lon="-0.2219030">
        <ele>1078.8</ele>
        <time>2020-07-28T08:28:20Z</time>
      </trkpt>
      <trkpt lat="42.9656330" lon="-0.2219950">
        <ele>1079.8</ele>
        <time>2020-07-28T08:28:24Z</time>
      </trkpt>
      <trkpt lat="42.9656220" lon="-0.2220290">
        <ele>1080.0</ele>
        <time>2020-07-28T08:28:25Z</time>
      </trkpt>
      <trkpt lat="42.9655350" lon="-0.2222840">
        <ele>1079.2</ele>
        <time>2020-07-28T08:28:31Z</time>
      </trkpt>
      <trkpt lat="42.9655150" lon="-0.2223310">
        <ele>1079.2</ele>
        <time>2020-07-28T08:28:32Z</time>
      </trkpt>
      <trkpt lat="42.9654940" lon="-0.2223810">
        <ele>1079.2</ele>
        <time>2020-07-28T08:28:33Z</time>
      </trkpt>
      <trkpt lat="42.9654550" lon="-0.2224830">
        <ele>1079.0</ele>
        <time>2020-07-28T08:28:35Z</time>
      </trkpt>
      <trkpt lat="42.9653650" lon="-0.2227210">
        <ele>1079.4</ele>
        <time>2020-07-28T08:28:40Z</time>
      </trkpt>
      <trkpt lat="42.9652910" lon="-0.2228860">
        <ele>1081.0</ele>
        <time>2020-07-28T08:28:45Z</time>
      </trkpt>
      <trkpt lat="42.9652690" lon="-0.2229470">
        <ele>1081.8</ele>
        <time>2020-07-28T08:28:47Z</time>
      </trkpt>
      <trkpt lat="42.9652580" lon="-0.2229770">
        <ele>1082.0</ele>
        <time>2020-07-28T08:28:48Z</time>
      </trkpt>
      <trkpt lat="42.9652130" lon="-0.2230870">
        <ele>1083.2</ele>
        <time>2020-07-28T08:28:52Z</time>
      </trkpt>
      <trkpt lat="42.9651890" lon="-0.2231680">
        <ele>1084.2</ele>
        <time>2020-07-28T08:28:55Z</time>
      </trkpt>
      <trkpt lat="42.9651810" lon="-0.2231940">
        <ele>1084.6</ele>
        <time>2020-07-28T08:28:56Z</time>
      </trkpt>
      <trkpt lat="42.9651600" lon="-0.2232650">
        <ele>1085.8</ele>
        <time>2020-07-28T08:28:59Z</time>
      </trkpt>
      <trkpt lat="42.9651280" lon="-0.2233640">
        <ele>1087.2</ele>
        <time>2020-07-28T08:29:03Z</time>
      </trkpt>
      <trkpt lat="42.9651140" lon="-0.2234120">
        <ele>1088.2</ele>
        <time>2020-07-28T08:29:05Z</time>
      </trkpt>
      <trkpt lat="42.9651110" lon="-0.2234370">
        <ele>1088.6</ele>
        <time>2020-07-28T08:29:06Z</time>
      </trkpt>
      <trkpt lat="42.9651010" lon="-0.2235280">
        <ele>1089.8</ele>
        <time>2020-07-28T08:29:09Z</time>
      </trkpt>
      <trkpt lat="42.9650980" lon="-0.2235900">
        <ele>1090.8</ele>
        <time>2020-07-28T08:29:11Z</time>
      </trkpt>
      <trkpt lat="42.9650990" lon="-0.2236230">
        <ele>1091.2</ele>
        <time>2020-07-28T08:29:12Z</time>
      </trkpt>
      <trkpt lat="42.9651090" lon="-0.2236900">
        <ele>1091.6</ele>
        <time>2020-07-28T08:29:14Z</time>
      </trkpt>
      <trkpt lat="42.9651260" lon="-0.2237590">
        <ele>1092.2</ele>
        <time>2020-07-28T08:29:16Z</time>
      </trkpt>
      <trkpt lat="42.9651390" lon="-0.2237910">
        <ele>1092.6</ele>
        <time>2020-07-28T08:29:17Z</time>
      </trkpt>
      <trkpt lat="42.9651730" lon="-0.2238490">
        <ele>1093.4</ele>
        <time>2020-07-28T08:29:19Z</time>
      </trkpt>
      <trkpt lat="42.9652660" lon="-0.2239250">
        <ele>1094.2</ele>
        <time>2020-07-28T08:29:23Z</time>
      </trkpt>
      <trkpt lat="42.9653180" lon="-0.2239510">
        <ele>1094.4</ele>
        <time>2020-07-28T08:29:25Z</time>
      </trkpt>
      <trkpt lat="42.9654640" lon="-0.2239870">
        <ele>1095.0</ele>
        <time>2020-07-28T08:29:30Z</time>
      </trkpt>
      <trkpt lat="42.9655260" lon="-0.2239980">
        <ele>1095.4</ele>
        <time>2020-07-28T08:29:32Z</time>
      </trkpt>
      <trkpt lat="42.9655930" lon="-0.2240020">
        <ele>1096.0</ele>
        <time>2020-07-28T08:29:34Z</time>
      </trkpt>
      <trkpt lat="42.9656260" lon="-0.2240020">
        <ele>1096.2</ele>
        <time>2020-07-28T08:29:35Z</time>
      </trkpt>
      <trkpt lat="42.9656590" lon="-0.2239980">
        <ele>1096.4</ele>
        <time>2020-07-28T08:29:36Z</time>
      </trkpt>
      <trkpt lat="42.9656930" lon="-0.2239940">
        <ele>1096.6</ele>
        <time>2020-07-28T08:29:37Z</time>
      </trkpt>
      <trkpt lat="42.9658850" lon="-0.2239470">
        <ele>1097.6</ele>
        <time>2020-07-28T08:29:43Z</time>
      </trkpt>
      <trkpt lat="42.9659160" lon="-0.2239360">
        <ele>1097.8</ele>
        <time>2020-07-28T08:29:44Z</time>
      </trkpt>
      <trkpt lat="42.9660980" lon="-0.2238700">
        <ele>1098.8</ele>
        <time>2020-07-28T08:29:50Z</time>
      </trkpt>
      <trkpt lat="42.9661260" lon="-0.2238570">
        <ele>1099.0</ele>
        <time>2020-07-28T08:29:51Z</time>
      </trkpt>
      <trkpt lat="42.9661550" lon="-0.2238460">
        <ele>1099.2</ele>
        <time>2020-07-28T08:29:52Z</time>
      </trkpt>
      <trkpt lat="42.9662390" lon="-0.2238430">
        <ele>1099.8</ele>
        <time>2020-07-28T08:29:55Z</time>
      </trkpt>
      <trkpt lat="42.9664020" lon="-0.2238530">
        <ele>1100.6</ele>
        <time>2020-07-28T08:30:00Z</time>
      </trkpt>
      <trkpt lat="42.9664720" lon="-0.2238630">
        <ele>1100.8</ele>
        <time>2020-07-28T08:30:02Z</time>
      </trkpt>
      <trkpt lat="42.9666060" lon="-0.2239200">
        <ele>1101.8</ele>
        <time>2020-07-28T08:30:06Z</time>
      </trkpt>
      <trkpt lat="42.9666400" lon="-0.2239400">
        <ele>1102.0</ele>
        <time>2020-07-28T08:30:07Z</time>
      </trkpt>
      <trkpt lat="42.9668340" lon="-0.2241030">
        <ele>1102.6</ele>
        <time>2020-07-28T08:30:13Z</time>
      </trkpt>
      <trkpt lat="42.9670270" lon="-0.2243420">
        <ele>1103.0</ele>
        <time>2020-07-28T08:30:19Z</time>
      </trkpt>
      <trkpt lat="42.9670580" lon="-0.2243830">
        <ele>1103.0</ele>
        <time>2020-07-28T08:30:20Z</time>
      </trkpt>
      <trkpt lat="42.9670880" lon="-0.2244250">
        <ele>1103.2</ele>
        <time>2020-07-28T08:30:21Z</time>
      </trkpt>
      <trkpt lat="42.9672540" lon="-0.2246850">
        <ele>1104.0</ele>
        <time>2020-07-28T08:30:27Z</time>
      </trkpt>
      <trkpt lat="42.9672730" lon="-0.2247360">
        <ele>1104.2</ele>
        <time>2020-07-28T08:30:28Z</time>
      </trkpt>
      <trkpt lat="42.9673170" lon="-0.2249390">
        <ele>1105.4</ele>
        <time>2020-07-28T08:30:32Z</time>
      </trkpt>
      <trkpt lat="42.9673260" lon="-0.2250280">
        <ele>1106.2</ele>
        <time>2020-07-28T08:30:34Z</time>
      </trkpt>
      <trkpt lat="42.9673230" lon="-0.2250720">
        <ele>1106.4</ele>
        <time>2020-07-28T08:30:35Z</time>
      </trkpt>
      <trkpt lat="42.9673070" lon="-0.2252380">
        <ele>1107.6</ele>
        <time>2020-07-28T08:30:39Z</time>
      </trkpt>
      <trkpt lat="42.9673030" lon="-0.2252770">
        <ele>1107.8</ele>
        <time>2020-07-28T08:30:40Z</time>
      </trkpt>
      <trkpt lat="42.9672810" lon="-0.2253910">
        <ele>1108.8</ele>
        <time>2020-07-28T08:30:43Z</time>
      </trkpt>
      <trkpt lat="42.9672520" lon="-0.2255210">
        <ele>1109.4</ele>
        <time>2020-07-28T08:30:47Z</time>
      </trkpt>
      <trkpt lat="42.9672400" lon="-0.2255720">
        <ele>1109.8</ele>
        <time>2020-07-28T08:30:49Z</time>
      </trkpt>
      <trkpt lat="42.9672010" lon="-0.2256890">
        <ele>1111.0</ele>
        <time>2020-07-28T08:30:53Z</time>
      </trkpt>
      <trkpt lat="42.9671790" lon="-0.2258200">
        <ele>1112.2</ele>
        <time>2020-07-28T08:30:57Z</time>
      </trkpt>
      <trkpt lat="42.9671600" lon="-0.2259840">
        <ele>1113.4</ele>
        <time>2020-07-28T08:31:02Z</time>
      </trkpt>
      <trkpt lat="42.9671470" lon="-0.2261250">
        <ele>1114.4</ele>
        <time>2020-07-28T08:31:06Z</time>
      </trkpt>
      <trkpt lat="42.9671400" lon="-0.2262380">
        <ele>1115.2</ele>
        <time>2020-07-28T08:31:09Z</time>
      </trkpt>
      <trkpt lat="42.9671410" lon="-0.2262750">
        <ele>1115.6</ele>
        <time>2020-07-28T08:31:10Z</time>
      </trkpt>
      <trkpt lat="42.9671460" lon="-0.2264640">
        <ele>1116.8</ele>
        <time>2020-07-28T08:31:15Z</time>
      </trkpt>
      <trkpt lat="42.9671580" lon="-0.2265710">
        <ele>1117.6</ele>
        <time>2020-07-28T08:31:18Z</time>
      </trkpt>
      <trkpt lat="42.9671720" lon="-0.2266420">
        <ele>1117.8</ele>
        <time>2020-07-28T08:31:20Z</time>
      </trkpt>
      <trkpt lat="42.9672140" lon="-0.2268280">
        <ele>1119.0</ele>
        <time>2020-07-28T08:31:25Z</time>
      </trkpt>
      <trkpt lat="42.9672370" lon="-0.2269670">
        <ele>1120.2</ele>
        <time>2020-07-28T08:31:29Z</time>
      </trkpt>
      <trkpt lat="42.9672460" lon="-0.2271140">
        <ele>1121.0</ele>
        <time>2020-07-28T08:31:33Z</time>
      </trkpt>
      <trkpt lat="42.9672450" lon="-0.2271790">
        <ele>1121.4</ele>
        <time>2020-07-28T08:31:35Z</time>
      </trkpt>
      <trkpt lat="42.9672130" lon="-0.2273220">
        <ele>1122.4</ele>
        <time>2020-07-28T08:31:39Z</time>
      </trkpt>
      <trkpt lat="42.9670940" lon="-0.2275200">
        <ele>1123.6</ele>
        <time>2020-07-28T08:31:45Z</time>
      </trkpt>
      <trkpt lat="42.9670710" lon="-0.2275460">
        <ele>1123.8</ele>
        <time>2020-07-28T08:31:46Z</time>
      </trkpt>
      <trkpt lat="42.9669810" lon="-0.2276460">
        <ele>1124.8</ele>
        <time>2020-07-28T08:31:50Z</time>
      </trkpt>
      <trkpt lat="42.9668920" lon="-0.2277460">
        <ele>1125.8</ele>
        <time>2020-07-28T08:31:54Z</time>
      </trkpt>
      <trkpt lat="42.9668680" lon="-0.2277690">
        <ele>1126.0</ele>
        <time>2020-07-28T08:31:55Z</time>
      </trkpt>
      <trkpt lat="42.9667460" lon="-0.2278820">
        <ele>1127.0</ele>
        <time>2020-07-28T08:32:00Z</time>
      </trkpt>
      <trkpt lat="42.9666700" lon="-0.2279280">
        <ele>1127.6</ele>
        <time>2020-07-28T08:32:03Z</time>
      </trkpt>
      <trkpt lat="42.9666440" lon="-0.2279410">
        <ele>1127.8</ele>
        <time>2020-07-28T08:32:04Z</time>
      </trkpt>
      <trkpt lat="42.9666150" lon="-0.2279500">
        <ele>1128.2</ele>
        <time>2020-07-28T08:32:05Z</time>
      </trkpt>
      <trkpt lat="42.9664910" lon="-0.2279610">
        <ele>1129.4</ele>
        <time>2020-07-28T08:32:10Z</time>
      </trkpt>
      <trkpt lat="42.9664660" lon="-0.2279550">
        <ele>1129.6</ele>
        <time>2020-07-28T08:32:11Z</time>
      </trkpt>
      <trkpt lat="42.9663670" lon="-0.2279140">
        <ele>1130.6</ele>
        <time>2020-07-28T08:32:15Z</time>
      </trkpt>
      <trkpt lat="42.9662900" lon="-0.2278540">
        <ele>1131.4</ele>
        <time>2020-07-28T08:32:18Z</time>
      </trkpt>
      <trkpt lat="42.9662390" lon="-0.2278080">
        <ele>1131.8</ele>
        <time>2020-07-28T08:32:20Z</time>
      </trkpt>
      <trkpt lat="42.9661870" lon="-0.2277630">
        <ele>1132.4</ele>
        <time>2020-07-28T08:32:22Z</time>
      </trkpt>
      <trkpt lat="42.9661330" lon="-0.2277140">
        <ele>1132.8</ele>
        <time>2020-07-28T08:32:24Z</time>
      </trkpt>
      <trkpt lat="42.9661050" lon="-0.2276890">
        <ele>1133.0</ele>
        <time>2020-07-28T08:32:25Z</time>
      </trkpt>
      <trkpt lat="42.9660470" lon="-0.2276450">
        <ele>1133.4</ele>
        <time>2020-07-28T08:32:27Z</time>
      </trkpt>
      <trkpt lat="42.9659920" lon="-0.2276030">
        <ele>1134.0</ele>
        <time>2020-07-28T08:32:29Z</time>
      </trkpt>
      <trkpt lat="42.9658800" lon="-0.2275480">
        <ele>1134.8</ele>
        <time>2020-07-28T08:32:33Z</time>
      </trkpt>
      <trkpt lat="42.9658510" lon="-0.2275420">
        <ele>1135.2</ele>
        <time>2020-07-28T08:32:34Z</time>
      </trkpt>
      <trkpt lat="42.9658190" lon="-0.2275390">
        <ele>1135.6</ele>
        <time>2020-07-28T08:32:35Z</time>
      </trkpt>
      <trkpt lat="42.9657550" lon="-0.2275470">
        <ele>1136.2</ele>
        <time>2020-07-28T08:32:37Z</time>
      </trkpt>
      <trkpt lat="42.9655990" lon="-0.2276160">
        <ele>1137.2</ele>
        <time>2020-07-28T08:32:42Z</time>
      </trkpt>
      <trkpt lat="42.9655710" lon="-0.2276390">
        <ele>1137.6</ele>
        <time>2020-07-28T08:32:43Z</time>
      </trkpt>
      <trkpt lat="42.9654620" lon="-0.2277810">
        <ele>1138.6</ele>
        <time>2020-07-28T08:32:48Z</time>
      </trkpt>
      <trkpt lat="42.9654310" lon="-0.2278440">
        <ele>1139.4</ele>
        <time>2020-07-28T08:32:50Z</time>
      </trkpt>
      <trkpt lat="42.9654190" lon="-0.2278760">
        <ele>1139.8</ele>
        <time>2020-07-28T08:32:51Z</time>
      </trkpt>
      <trkpt lat="42.9653700" lon="-0.2280080">
        <ele>1141.0</ele>
        <time>2020-07-28T08:32:55Z</time>
      </trkpt>
      <trkpt lat="42.9653600" lon="-0.2280430">
        <ele>1141.2</ele>
        <time>2020-07-28T08:32:56Z</time>
      </trkpt>
      <trkpt lat="42.9653510" lon="-0.2280770">
        <ele>1141.4</ele>
        <time>2020-07-28T08:32:57Z</time>
      </trkpt>
      <trkpt lat="42.9653420" lon="-0.2281120">
        <ele>1141.8</ele>
        <time>2020-07-28T08:32:58Z</time>
      </trkpt>
      <trkpt lat="42.9653330" lon="-0.2281470">
        <ele>1142.0</ele>
        <time>2020-07-28T08:32:59Z</time>
      </trkpt>
      <trkpt lat="42.9653250" lon="-0.2281820">
        <ele>1142.2</ele>
        <time>2020-07-28T08:33:00Z</time>
      </trkpt>
      <trkpt lat="42.9652800" lon="-0.2283530">
        <ele>1143.2</ele>
        <time>2020-07-28T08:33:05Z</time>
      </trkpt>
      <trkpt lat="42.9652430" lon="-0.2284850">
        <ele>1144.2</ele>
        <time>2020-07-28T08:33:09Z</time>
      </trkpt>
      <trkpt lat="42.9651970" lon="-0.2286460">
        <ele>1145.4</ele>
        <time>2020-07-28T08:33:14Z</time>
      </trkpt>
      <trkpt lat="42.9651560" lon="-0.2287790">
        <ele>1146.2</ele>
        <time>2020-07-28T08:33:18Z</time>
      </trkpt>
      <trkpt lat="42.9651480" lon="-0.2288130">
        <ele>1146.6</ele>
        <time>2020-07-28T08:33:19Z</time>
      </trkpt>
      <trkpt lat="42.9651100" lon="-0.2289340">
        <ele>1147.6</ele>
        <time>2020-07-28T08:33:23Z</time>
      </trkpt>
      <trkpt lat="42.9650600" lon="-0.2290610">
        <ele>1148.4</ele>
        <time>2020-07-28T08:33:27Z</time>
      </trkpt>
      <trkpt lat="42.9650490" lon="-0.2290960">
        <ele>1148.6</ele>
        <time>2020-07-28T08:33:28Z</time>
      </trkpt>
      <trkpt lat="42.9649990" lon="-0.2292600">
        <ele>1149.6</ele>
        <time>2020-07-28T08:33:33Z</time>
      </trkpt>
      <trkpt lat="42.9649840" lon="-0.2292900">
        <ele>1150.0</ele>
        <time>2020-07-28T08:33:34Z</time>
      </trkpt>
      <trkpt lat="42.9649680" lon="-0.2293190">
        <ele>1150.2</ele>
        <time>2020-07-28T08:33:35Z</time>
      </trkpt>
      <trkpt lat="42.9648790" lon="-0.2294580">
        <ele>1151.0</ele>
        <time>2020-07-28T08:33:40Z</time>
      </trkpt>
      <trkpt lat="42.9648170" lon="-0.2295280">
        <ele>1151.6</ele>
        <time>2020-07-28T08:33:43Z</time>
      </trkpt>
      <trkpt lat="42.9647730" lon="-0.2295690">
        <ele>1152.2</ele>
        <time>2020-07-28T08:33:45Z</time>
      </trkpt>
      <trkpt lat="42.9646990" lon="-0.2296200">
        <ele>1152.8</ele>
        <time>2020-07-28T08:33:48Z</time>
      </trkpt>
      <trkpt lat="42.9646750" lon="-0.2296360">
        <ele>1153.0</ele>
        <time>2020-07-28T08:33:49Z</time>
      </trkpt>
      <trkpt lat="42.9646510" lon="-0.2296540">
        <ele>1153.2</ele>
        <time>2020-07-28T08:33:50Z</time>
      </trkpt>
      <trkpt lat="42.9645240" lon="-0.2297740">
        <ele>1154.4</ele>
        <time>2020-07-28T08:33:56Z</time>
      </trkpt>
      <trkpt lat="42.9644810" lon="-0.2298120">
        <ele>1154.8</ele>
        <time>2020-07-28T08:33:58Z</time>
      </trkpt>
      <trkpt lat="42.9644170" lon="-0.2298770">
        <ele>1155.4</ele>
        <time>2020-07-28T08:34:01Z</time>
      </trkpt>
      <trkpt lat="42.9643770" lon="-0.2299240">
        <ele>1156.0</ele>
        <time>2020-07-28T08:34:03Z</time>
      </trkpt>
      <trkpt lat="42.9643270" lon="-0.2300090">
        <ele>1156.6</ele>
        <time>2020-07-28T08:34:06Z</time>
      </trkpt>
      <trkpt lat="42.9642830" lon="-0.2301370">
        <ele>1157.8</ele>
        <time>2020-07-28T08:34:10Z</time>
      </trkpt>
      <trkpt lat="42.9642590" lon="-0.2302430">
        <ele>1158.8</ele>
        <time>2020-07-28T08:34:13Z</time>
      </trkpt>
      <trkpt lat="42.9642540" lon="-0.2302800">
        <ele>1159.0</ele>
        <time>2020-07-28T08:34:14Z</time>
      </trkpt>
      <trkpt lat="42.9642500" lon="-0.2303160">
        <ele>1159.2</ele>
        <time>2020-07-28T08:34:15Z</time>
      </trkpt>
      <trkpt lat="42.9642350" lon="-0.2304240">
        <ele>1160.0</ele>
        <time>2020-07-28T08:34:18Z</time>
      </trkpt>
      <trkpt lat="42.9642200" lon="-0.2305590">
        <ele>1161.2</ele>
        <time>2020-07-28T08:34:22Z</time>
      </trkpt>
      <trkpt lat="42.9642140" lon="-0.2305930">
        <ele>1161.6</ele>
        <time>2020-07-28T08:34:23Z</time>
      </trkpt>
      <trkpt lat="42.9641900" lon="-0.2306890">
        <ele>1162.4</ele>
        <time>2020-07-28T08:34:26Z</time>
      </trkpt>
      <trkpt lat="42.9641630" lon="-0.2307490">
        <ele>1162.8</ele>
        <time>2020-07-28T08:34:28Z</time>
      </trkpt>
      <trkpt lat="42.9641250" lon="-0.2307990">
        <ele>1163.4</ele>
        <time>2020-07-28T08:34:30Z</time>
      </trkpt>
      <trkpt lat="42.9640540" lon="-0.2308480">
        <ele>1164.2</ele>
        <time>2020-07-28T08:34:33Z</time>
      </trkpt>
      <trkpt lat="42.9639990" lon="-0.2308570">
        <ele>1164.4</ele>
        <time>2020-07-28T08:34:35Z</time>
      </trkpt>
      <trkpt lat="42.9639740" lon="-0.2308650">
        <ele>1164.8</ele>
        <time>2020-07-28T08:34:36Z</time>
      </trkpt>
      <trkpt lat="42.9638700" lon="-0.2308810">
        <ele>1165.4</ele>
        <time>2020-07-28T08:34:40Z</time>
      </trkpt>
      <trkpt lat="42.9638050" lon="-0.2308880">
        <ele>1166.2</ele>
        <time>2020-07-28T08:34:43Z</time>
      </trkpt>
      <trkpt lat="42.9637850" lon="-0.2308850">
        <ele>1166.4</ele>
        <time>2020-07-28T08:34:44Z</time>
      </trkpt>
      <trkpt lat="42.9636950" lon="-0.2308690">
        <ele>1167.6</ele>
        <time>2020-07-28T08:34:48Z</time>
      </trkpt>
      <trkpt lat="42.9636400" lon="-0.2308640">
        <ele>1168.2</ele>
        <time>2020-07-28T08:34:50Z</time>
      </trkpt>
      <trkpt lat="42.9635570" lon="-0.2308720">
        <ele>1168.8</ele>
        <time>2020-07-28T08:34:53Z</time>
      </trkpt>
      <trkpt lat="42.9634460" lon="-0.2309140">
        <ele>1169.8</ele>
        <time>2020-07-28T08:34:57Z</time>
      </trkpt>
      <trkpt lat="42.9634190" lon="-0.2309310">
        <ele>1170.0</ele>
        <time>2020-07-28T08:34:58Z</time>
      </trkpt>
      <trkpt lat="42.9633310" lon="-0.2310230">
        <ele>1171.0</ele>
        <time>2020-07-28T08:35:02Z</time>
      </trkpt>
      <trkpt lat="42.9632870" lon="-0.2310720">
        <ele>1171.4</ele>
        <time>2020-07-28T08:35:04Z</time>
      </trkpt>
      <trkpt lat="42.9632400" lon="-0.2311170">
        <ele>1171.8</ele>
        <time>2020-07-28T08:35:06Z</time>
      </trkpt>
      <trkpt lat="42.9632170" lon="-0.2311390">
        <ele>1172.2</ele>
        <time>2020-07-28T08:35:07Z</time>
      </trkpt>
      <trkpt lat="42.9631490" lon="-0.2312080">
        <ele>1172.8</ele>
        <time>2020-07-28T08:35:10Z</time>
      </trkpt>
      <trkpt lat="42.9631270" lon="-0.2312310">
        <ele>1173.2</ele>
        <time>2020-07-28T08:35:11Z</time>
      </trkpt>
      <trkpt lat="42.9631050" lon="-0.2312530">
        <ele>1173.6</ele>
        <time>2020-07-28T08:35:12Z</time>
      </trkpt>
      <trkpt lat="42.9630840" lon="-0.2312760">
        <ele>1173.8</ele>
        <time>2020-07-28T08:35:13Z</time>
      </trkpt>
      <trkpt lat="42.9630370" lon="-0.2313200">
        <ele>1174.2</ele>
        <time>2020-07-28T08:35:15Z</time>
      </trkpt>
      <trkpt lat="42.9629040" lon="-0.2314540">
        <ele>1175.4</ele>
        <time>2020-07-28T08:35:21Z</time>
      </trkpt>
      <trkpt lat="42.9628830" lon="-0.2314760">
        <ele>1175.8</ele>
        <time>2020-07-28T08:35:22Z</time>
      </trkpt>
      <trkpt lat="42.9628230" lon="-0.2315520">
        <ele>1176.6</ele>
        <time>2020-07-28T08:35:25Z</time>
      </trkpt>
      <trkpt lat="42.9627340" lon="-0.2317040">
        <ele>1177.6</ele>
        <time>2020-07-28T08:35:30Z</time>
      </trkpt>
      <trkpt lat="42.9626590" lon="-0.2318980">
        <ele>1178.8</ele>
        <time>2020-07-28T08:35:36Z</time>
      </trkpt>
      <trkpt lat="42.9626310" lon="-0.2319960">
        <ele>1179.6</ele>
        <time>2020-07-28T08:35:39Z</time>
      </trkpt>
      <trkpt lat="42.9626220" lon="-0.2320290">
        <ele>1180.0</ele>
        <time>2020-07-28T08:35:40Z</time>
      </trkpt>
      <trkpt lat="42.9625800" lon="-0.2321960">
        <ele>1181.2</ele>
        <time>2020-07-28T08:35:45Z</time>
      </trkpt>
      <trkpt lat="42.9625340" lon="-0.2323630">
        <ele>1182.2</ele>
        <time>2020-07-28T08:35:50Z</time>
      </trkpt>
      <trkpt lat="42.9624920" lon="-0.2325300">
        <ele>1183.2</ele>
        <time>2020-07-28T08:35:55Z</time>
      </trkpt>
      <trkpt lat="42.9624650" lon="-0.2326310">
        <ele>1183.6</ele>
        <time>2020-07-28T08:35:58Z</time>
      </trkpt>
      <trkpt lat="42.9624340" lon="-0.2327260">
        <ele>1184.4</ele>
        <time>2020-07-28T08:36:01Z</time>
      </trkpt>
      <trkpt lat="42.9623950" lon="-0.2328760">
        <ele>1185.6</ele>
        <time>2020-07-28T08:36:06Z</time>
      </trkpt>
      <trkpt lat="42.9623910" lon="-0.2328960">
        <ele>1185.8</ele>
        <time>2020-07-28T08:36:07Z</time>
      </trkpt>
      <trkpt lat="42.9623770" lon="-0.2329530">
        <ele>1186.6</ele>
        <time>2020-07-28T08:36:11Z</time>
      </trkpt>
      <trkpt lat="42.9623680" lon="-0.2330540">
        <ele>1186.8</ele>
        <time>2020-07-28T08:36:30Z</time>
      </trkpt>
      <trkpt lat="42.9623620" lon="-0.2331060">
        <ele>1187.0</ele>
        <time>2020-07-28T08:36:32Z</time>
      </trkpt>
      <trkpt lat="42.9623530" lon="-0.2333410">
        <ele>1187.8</ele>
        <time>2020-07-28T08:36:38Z</time>
      </trkpt>
      <trkpt lat="42.9623720" lon="-0.2335230">
        <ele>1189.0</ele>
        <time>2020-07-28T08:36:43Z</time>
      </trkpt>
      <trkpt lat="42.9623860" lon="-0.2336000">
        <ele>1189.6</ele>
        <time>2020-07-28T08:36:45Z</time>
      </trkpt>
      <trkpt lat="42.9623970" lon="-0.2336360">
        <ele>1190.0</ele>
        <time>2020-07-28T08:36:46Z</time>
      </trkpt>
      <trkpt lat="42.9624460" lon="-0.2337780">
        <ele>1191.0</ele>
        <time>2020-07-28T08:36:50Z</time>
      </trkpt>
      <trkpt lat="42.9624570" lon="-0.2338150">
        <ele>1191.2</ele>
        <time>2020-07-28T08:36:51Z</time>
      </trkpt>
      <trkpt lat="42.9624690" lon="-0.2338500">
        <ele>1191.4</ele>
        <time>2020-07-28T08:36:52Z</time>
      </trkpt>
      <trkpt lat="42.9625130" lon="-0.2339850">
        <ele>1192.2</ele>
        <time>2020-07-28T08:36:56Z</time>
      </trkpt>
      <trkpt lat="42.9625480" lon="-0.2340880">
        <ele>1193.0</ele>
        <time>2020-07-28T08:36:59Z</time>
      </trkpt>
      <trkpt lat="42.9625600" lon="-0.2341230">
        <ele>1193.2</ele>
        <time>2020-07-28T08:37:00Z</time>
      </trkpt>
      <trkpt lat="42.9625870" lon="-0.2341940">
        <ele>1193.8</ele>
        <time>2020-07-28T08:37:02Z</time>
      </trkpt>
      <trkpt lat="42.9626010" lon="-0.2342280">
        <ele>1194.0</ele>
        <time>2020-07-28T08:37:03Z</time>
      </trkpt>
      <trkpt lat="42.9626240" lon="-0.2343020">
        <ele>1194.4</ele>
        <time>2020-07-28T08:37:05Z</time>
      </trkpt>
      <trkpt lat="42.9626660" lon="-0.2344400">
        <ele>1195.2</ele>
        <time>2020-07-28T08:37:09Z</time>
      </trkpt>
      <trkpt lat="42.9626760" lon="-0.2344740">
        <ele>1195.4</ele>
        <time>2020-07-28T08:37:10Z</time>
      </trkpt>
      <trkpt lat="42.9627070" lon="-0.2345780">
        <ele>1196.4</ele>
        <time>2020-07-28T08:37:13Z</time>
      </trkpt>
      <trkpt lat="42.9627180" lon="-0.2346130">
        <ele>1196.6</ele>
        <time>2020-07-28T08:37:14Z</time>
      </trkpt>
      <trkpt lat="42.9627660" lon="-0.2347920">
        <ele>1197.8</ele>
        <time>2020-07-28T08:37:19Z</time>
      </trkpt>
      <trkpt lat="42.9628040" lon="-0.2349360">
        <ele>1198.4</ele>
        <time>2020-07-28T08:37:23Z</time>
      </trkpt>
      <trkpt lat="42.9628150" lon="-0.2349700">
        <ele>1198.6</ele>
        <time>2020-07-28T08:37:24Z</time>
      </trkpt>
      <trkpt lat="42.9628420" lon="-0.2350360">
        <ele>1199.0</ele>
        <time>2020-07-28T08:37:26Z</time>
      </trkpt>
      <trkpt lat="42.9628530" lon="-0.2350700">
        <ele>1199.4</ele>
        <time>2020-07-28T08:37:27Z</time>
      </trkpt>
      <trkpt lat="42.9628730" lon="-0.2351390">
        <ele>1199.6</ele>
        <time>2020-07-28T08:37:29Z</time>
      </trkpt>
      <trkpt lat="42.9629050" lon="-0.2352400">
        <ele>1200.2</ele>
        <time>2020-07-28T08:37:32Z</time>
      </trkpt>
      <trkpt lat="42.9629410" lon="-0.2353790">
        <ele>1201.2</ele>
        <time>2020-07-28T08:37:36Z</time>
      </trkpt>
      <trkpt lat="42.9629720" lon="-0.2354860">
        <ele>1202.0</ele>
        <time>2020-07-28T08:37:39Z</time>
      </trkpt>
      <trkpt lat="42.9629850" lon="-0.2355180">
        <ele>1202.2</ele>
        <time>2020-07-28T08:37:40Z</time>
      </trkpt>
      <trkpt lat="42.9630400" lon="-0.2356820">
        <ele>1203.4</ele>
        <time>2020-07-28T08:37:45Z</time>
      </trkpt>
      <trkpt lat="42.9630750" lon="-0.2358220">
        <ele>1204.2</ele>
        <time>2020-07-28T08:37:49Z</time>
      </trkpt>
      <trkpt lat="42.9630860" lon="-0.2358560">
        <ele>1204.8</ele>
        <time>2020-07-28T08:37:50Z</time>
      </trkpt>
      <trkpt lat="42.9631330" lon="-0.2360370">
        <ele>1205.8</ele>
        <time>2020-07-28T08:37:55Z</time>
      </trkpt>
      <trkpt lat="42.9631580" lon="-0.2361010">
        <ele>1206.4</ele>
        <time>2020-07-28T08:37:57Z</time>
      </trkpt>
      <trkpt lat="42.9631940" lon="-0.2362020">
        <ele>1206.8</ele>
        <time>2020-07-28T08:38:00Z</time>
      </trkpt>
      <trkpt lat="42.9632690" lon="-0.2363970">
        <ele>1208.2</ele>
        <time>2020-07-28T08:38:06Z</time>
      </trkpt>
      <trkpt lat="42.9632830" lon="-0.2364270">
        <ele>1208.4</ele>
        <time>2020-07-28T08:38:07Z</time>
      </trkpt>
      <trkpt lat="42.9633290" lon="-0.2365130">
        <ele>1209.4</ele>
        <time>2020-07-28T08:38:10Z</time>
      </trkpt>
      <trkpt lat="42.9633460" lon="-0.2365400">
        <ele>1209.6</ele>
        <time>2020-07-28T08:38:11Z</time>
      </trkpt>
      <trkpt lat="42.9634070" lon="-0.2366590">
        <ele>1210.2</ele>
        <time>2020-07-28T08:38:15Z</time>
      </trkpt>
      <trkpt lat="42.9634220" lon="-0.2366900">
        <ele>1210.4</ele>
        <time>2020-07-28T08:38:16Z</time>
      </trkpt>
      <trkpt lat="42.9634920" lon="-0.2368070">
        <ele>1211.4</ele>
        <time>2020-07-28T08:38:20Z</time>
      </trkpt>
      <trkpt lat="42.9635080" lon="-0.2368380">
        <ele>1211.8</ele>
        <time>2020-07-28T08:38:21Z</time>
      </trkpt>
      <trkpt lat="42.9635380" lon="-0.2369030">
        <ele>1212.4</ele>
        <time>2020-07-28T08:38:23Z</time>
      </trkpt>
      <trkpt lat="42.9635820" lon="-0.2370020">
        <ele>1213.0</ele>
        <time>2020-07-28T08:38:26Z</time>
      </trkpt>
      <trkpt lat="42.9636200" lon="-0.2371040">
        <ele>1213.6</ele>
        <time>2020-07-28T08:38:29Z</time>
      </trkpt>
      <trkpt lat="42.9636750" lon="-0.2372770">
        <ele>1214.8</ele>
        <time>2020-07-28T08:38:34Z</time>
      </trkpt>
      <trkpt lat="42.9637110" lon="-0.2373780">
        <ele>1215.8</ele>
        <time>2020-07-28T08:38:37Z</time>
      </trkpt>
      <trkpt lat="42.9637240" lon="-0.2374120">
        <ele>1216.2</ele>
        <time>2020-07-28T08:38:38Z</time>
      </trkpt>
      <trkpt lat="42.9637710" lon="-0.2375490">
        <ele>1216.8</ele>
        <time>2020-07-28T08:38:42Z</time>
      </trkpt>
      <trkpt lat="42.9638120" lon="-0.2376830">
        <ele>1217.8</ele>
        <time>2020-07-28T08:38:46Z</time>
      </trkpt>
      <trkpt lat="42.9638220" lon="-0.2377160">
        <ele>1218.0</ele>
        <time>2020-07-28T08:38:47Z</time>
      </trkpt>
      <trkpt lat="42.9638330" lon="-0.2377480">
        <ele>1218.2</ele>
        <time>2020-07-28T08:38:48Z</time>
      </trkpt>
      <trkpt lat="42.9638690" lon="-0.2378410">
        <ele>1219.2</ele>
        <time>2020-07-28T08:38:51Z</time>
      </trkpt>
      <trkpt lat="42.9638980" lon="-0.2379460">
        <ele>1219.8</ele>
        <time>2020-07-28T08:38:54Z</time>
      </trkpt>
      <trkpt lat="42.9639210" lon="-0.2380150">
        <ele>1220.2</ele>
        <time>2020-07-28T08:38:56Z</time>
      </trkpt>
      <trkpt lat="42.9639310" lon="-0.2380490">
        <ele>1220.4</ele>
        <time>2020-07-28T08:38:57Z</time>
      </trkpt>
      <trkpt lat="42.9639650" lon="-0.2381450">
        <ele>1221.4</ele>
        <time>2020-07-28T08:39:00Z</time>
      </trkpt>
      <trkpt lat="42.9639960" lon="-0.2382560">
        <ele>1221.8</ele>
        <time>2020-07-28T08:39:03Z</time>
      </trkpt>
      <trkpt lat="42.9640150" lon="-0.2383650">
        <ele>1222.4</ele>
        <time>2020-07-28T08:39:06Z</time>
      </trkpt>
      <trkpt lat="42.9640310" lon="-0.2385040">
        <ele>1223.6</ele>
        <time>2020-07-28T08:39:10Z</time>
      </trkpt>
      <trkpt lat="42.9640280" lon="-0.2385380">
        <ele>1223.6</ele>
        <time>2020-07-28T08:39:11Z</time>
      </trkpt>
      <trkpt lat="42.9639850" lon="-0.2387080">
        <ele>1224.8</ele>
        <time>2020-07-28T08:39:16Z</time>
      </trkpt>
      <trkpt lat="42.9639420" lon="-0.2388080">
        <ele>1225.6</ele>
        <time>2020-07-28T08:39:19Z</time>
      </trkpt>
      <trkpt lat="42.9639300" lon="-0.2388410">
        <ele>1226.0</ele>
        <time>2020-07-28T08:39:20Z</time>
      </trkpt>
      <trkpt lat="42.9638940" lon="-0.2390050">
        <ele>1227.2</ele>
        <time>2020-07-28T08:39:25Z</time>
      </trkpt>
      <trkpt lat="42.9638930" lon="-0.2390410">
        <ele>1227.4</ele>
        <time>2020-07-28T08:39:26Z</time>
      </trkpt>
      <trkpt lat="42.9639070" lon="-0.2391870">
        <ele>1228.4</ele>
        <time>2020-07-28T08:39:30Z</time>
      </trkpt>
      <trkpt lat="42.9639350" lon="-0.2393270">
        <ele>1229.4</ele>
        <time>2020-07-28T08:39:34Z</time>
      </trkpt>
      <trkpt lat="42.9639590" lon="-0.2394300">
        <ele>1230.2</ele>
        <time>2020-07-28T08:39:37Z</time>
      </trkpt>
      <trkpt lat="42.9639670" lon="-0.2394630">
        <ele>1230.6</ele>
        <time>2020-07-28T08:39:38Z</time>
      </trkpt>
      <trkpt lat="42.9640180" lon="-0.2395870">
        <ele>1231.6</ele>
        <time>2020-07-28T08:39:42Z</time>
      </trkpt>
      <trkpt lat="42.9640470" lon="-0.2396440">
        <ele>1232.0</ele>
        <time>2020-07-28T08:39:44Z</time>
      </trkpt>
      <trkpt lat="42.9641000" lon="-0.2397240">
        <ele>1232.8</ele>
        <time>2020-07-28T08:39:47Z</time>
      </trkpt>
      <trkpt lat="42.9641650" lon="-0.2398300">
        <ele>1234.0</ele>
        <time>2020-07-28T08:39:51Z</time>
      </trkpt>
      <trkpt lat="42.9641870" lon="-0.2398930">
        <ele>1234.6</ele>
        <time>2020-07-28T08:39:53Z</time>
      </trkpt>
      <trkpt lat="42.9642010" lon="-0.2399970">
        <ele>1235.2</ele>
        <time>2020-07-28T08:39:56Z</time>
      </trkpt>
      <trkpt lat="42.9641950" lon="-0.2400930">
        <ele>1236.0</ele>
        <time>2020-07-28T08:39:59Z</time>
      </trkpt>
      <trkpt lat="42.9641870" lon="-0.2401240">
        <ele>1236.2</ele>
        <time>2020-07-28T08:40:00Z</time>
      </trkpt>
      <trkpt lat="42.9641690" lon="-0.2401840">
        <ele>1236.8</ele>
        <time>2020-07-28T08:40:02Z</time>
      </trkpt>
      <trkpt lat="42.9641550" lon="-0.2402130">
        <ele>1236.8</ele>
        <time>2020-07-28T08:40:03Z</time>
      </trkpt>
      <trkpt lat="42.9641190" lon="-0.2402940">
        <ele>1237.6</ele>
        <time>2020-07-28T08:40:06Z</time>
      </trkpt>
      <trkpt lat="42.9640800" lon="-0.2403800">
        <ele>1238.8</ele>
        <time>2020-07-28T08:40:10Z</time>
      </trkpt>
      <trkpt lat="42.9640460" lon="-0.2404210">
        <ele>1239.2</ele>
        <time>2020-07-28T08:40:12Z</time>
      </trkpt>
      <trkpt lat="42.9639810" lon="-0.2405230">
        <ele>1240.0</ele>
        <time>2020-07-28T08:40:16Z</time>
      </trkpt>
      <trkpt lat="42.9639660" lon="-0.2405510">
        <ele>1240.2</ele>
        <time>2020-07-28T08:40:17Z</time>
      </trkpt>
      <trkpt lat="42.9639220" lon="-0.2406390">
        <ele>1241.2</ele>
        <time>2020-07-28T08:40:20Z</time>
      </trkpt>
      <trkpt lat="42.9638930" lon="-0.2406950">
        <ele>1241.4</ele>
        <time>2020-07-28T08:40:22Z</time>
      </trkpt>
      <trkpt lat="42.9638470" lon="-0.2407720">
        <ele>1242.2</ele>
        <time>2020-07-28T08:40:25Z</time>
      </trkpt>
      <trkpt lat="42.9637960" lon="-0.2408450">
        <ele>1242.6</ele>
        <time>2020-07-28T08:40:28Z</time>
      </trkpt>
      <trkpt lat="42.9637640" lon="-0.2408950">
        <ele>1243.2</ele>
        <time>2020-07-28T08:40:30Z</time>
      </trkpt>
      <trkpt lat="42.9636540" lon="-0.2410160">
        <ele>1244.4</ele>
        <time>2020-07-28T08:40:36Z</time>
      </trkpt>
      <trkpt lat="42.9636310" lon="-0.2410290">
        <ele>1244.8</ele>
        <time>2020-07-28T08:40:37Z</time>
      </trkpt>
      <trkpt lat="42.9635550" lon="-0.2410530">
        <ele>1245.4</ele>
        <time>2020-07-28T08:40:40Z</time>
      </trkpt>
      <trkpt lat="42.9634500" lon="-0.2410700">
        <ele>1246.2</ele>
        <time>2020-07-28T08:40:44Z</time>
      </trkpt>
      <trkpt lat="42.9634240" lon="-0.2410740">
        <ele>1246.4</ele>
        <time>2020-07-28T08:40:45Z</time>
      </trkpt>
      <trkpt lat="42.9633980" lon="-0.2410750">
        <ele>1246.4</ele>
        <time>2020-07-28T08:40:46Z</time>
      </trkpt>
      <trkpt lat="42.9633470" lon="-0.2410730">
        <ele>1246.6</ele>
        <time>2020-07-28T08:40:48Z</time>
      </trkpt>
      <trkpt lat="42.9632430" lon="-0.2410690">
        <ele>1247.6</ele>
        <time>2020-07-28T08:40:52Z</time>
      </trkpt>
      <trkpt lat="42.9631960" lon="-0.2410760">
        <ele>1248.2</ele>
        <time>2020-07-28T08:40:54Z</time>
      </trkpt>
      <trkpt lat="42.9631480" lon="-0.2410840">
        <ele>1248.8</ele>
        <time>2020-07-28T08:40:56Z</time>
      </trkpt>
      <trkpt lat="42.9630330" lon="-0.2411290">
        <ele>1250.0</ele>
        <time>2020-07-28T08:41:01Z</time>
      </trkpt>
      <trkpt lat="42.9630090" lon="-0.2411400">
        <ele>1250.0</ele>
        <time>2020-07-28T08:41:02Z</time>
      </trkpt>
      <trkpt lat="42.9629210" lon="-0.2412090">
        <ele>1251.0</ele>
        <time>2020-07-28T08:41:06Z</time>
      </trkpt>
      <trkpt lat="42.9628650" lon="-0.2412590">
        <ele>1251.6</ele>
        <time>2020-07-28T08:41:09Z</time>
      </trkpt>
      <trkpt lat="42.9628320" lon="-0.2412960">
        <ele>1252.2</ele>
        <time>2020-07-28T08:41:11Z</time>
      </trkpt>
      <trkpt lat="42.9627650" lon="-0.2414350">
        <ele>1253.4</ele>
        <time>2020-07-28T08:41:16Z</time>
      </trkpt>
      <trkpt lat="42.9627520" lon="-0.2414610">
        <ele>1253.8</ele>
        <time>2020-07-28T08:41:17Z</time>
      </trkpt>
      <trkpt lat="42.9627200" lon="-0.2415480">
        <ele>1254.4</ele>
        <time>2020-07-28T08:41:20Z</time>
      </trkpt>
      <trkpt lat="42.9627080" lon="-0.2416460">
        <ele>1255.4</ele>
        <time>2020-07-28T08:41:23Z</time>
      </trkpt>
      <trkpt lat="42.9627070" lon="-0.2416800">
        <ele>1255.6</ele>
        <time>2020-07-28T08:41:24Z</time>
      </trkpt>
      <trkpt lat="42.9627250" lon="-0.2418440">
        <ele>1256.8</ele>
        <time>2020-07-28T08:41:29Z</time>
      </trkpt>
      <trkpt lat="42.9627440" lon="-0.2419430">
        <ele>1257.6</ele>
        <time>2020-07-28T08:41:32Z</time>
      </trkpt>
      <trkpt lat="42.9627630" lon="-0.2420020">
        <ele>1257.8</ele>
        <time>2020-07-28T08:41:34Z</time>
      </trkpt>
      <trkpt lat="42.9628010" lon="-0.2420840">
        <ele>1258.4</ele>
        <time>2020-07-28T08:41:37Z</time>
      </trkpt>
      <trkpt lat="42.9628280" lon="-0.2421390">
        <ele>1259.0</ele>
        <time>2020-07-28T08:41:39Z</time>
      </trkpt>
      <trkpt lat="42.9629110" lon="-0.2422550">
        <ele>1260.2</ele>
        <time>2020-07-28T08:41:44Z</time>
      </trkpt>
      <trkpt lat="42.9629510" lon="-0.2422870">
        <ele>1261.0</ele>
        <time>2020-07-28T08:41:46Z</time>
      </trkpt>
      <trkpt lat="42.9629720" lon="-0.2423000">
        <ele>1261.4</ele>
        <time>2020-07-28T08:41:47Z</time>
      </trkpt>
      <trkpt lat="42.9630640" lon="-0.2423270">
        <ele>1262.6</ele>
        <time>2020-07-28T08:41:51Z</time>
      </trkpt>
      <trkpt lat="42.9630890" lon="-0.2423290">
        <ele>1262.8</ele>
        <time>2020-07-28T08:41:52Z</time>
      </trkpt>
      <trkpt lat="42.9631130" lon="-0.2423310">
        <ele>1263.0</ele>
        <time>2020-07-28T08:41:53Z</time>
      </trkpt>
      <trkpt lat="42.9631900" lon="-0.2423320">
        <ele>1263.8</ele>
        <time>2020-07-28T08:41:56Z</time>
      </trkpt>
      <trkpt lat="42.9632990" lon="-0.2423440">
        <ele>1264.8</ele>
        <time>2020-07-28T08:42:00Z</time>
      </trkpt>
      <trkpt lat="42.9633250" lon="-0.2423540">
        <ele>1265.0</ele>
        <time>2020-07-28T08:42:01Z</time>
      </trkpt>
      <trkpt lat="42.9634170" lon="-0.2424200">
        <ele>1266.0</ele>
        <time>2020-07-28T08:42:05Z</time>
      </trkpt>
      <trkpt lat="42.9634360" lon="-0.2424400">
        <ele>1266.2</ele>
        <time>2020-07-28T08:42:06Z</time>
      </trkpt>
      <trkpt lat="42.9634530" lon="-0.2424640">
        <ele>1266.4</ele>
        <time>2020-07-28T08:42:07Z</time>
      </trkpt>
      <trkpt lat="42.9634830" lon="-0.2425160">
        <ele>1266.8</ele>
        <time>2020-07-28T08:42:09Z</time>
      </trkpt>
      <trkpt lat="42.9634920" lon="-0.2425480">
        <ele>1267.2</ele>
        <time>2020-07-28T08:42:10Z</time>
      </trkpt>
      <trkpt lat="42.9635020" lon="-0.2426610">
        <ele>1267.6</ele>
        <time>2020-07-28T08:42:13Z</time>
      </trkpt>
      <trkpt lat="42.9634920" lon="-0.2427980">
        <ele>1268.4</ele>
        <time>2020-07-28T08:42:17Z</time>
      </trkpt>
      <trkpt lat="42.9634520" lon="-0.2429210">
        <ele>1269.6</ele>
        <time>2020-07-28T08:42:21Z</time>
      </trkpt>
      <trkpt lat="42.9633520" lon="-0.2430660">
        <ele>1270.6</ele>
        <time>2020-07-28T08:42:26Z</time>
      </trkpt>
      <trkpt lat="42.9632750" lon="-0.2431770">
        <ele>1271.4</ele>
        <time>2020-07-28T08:42:30Z</time>
      </trkpt>
      <trkpt lat="42.9632370" lon="-0.2432260">
        <ele>1271.8</ele>
        <time>2020-07-28T08:42:32Z</time>
      </trkpt>
      <trkpt lat="42.9631330" lon="-0.2433840">
        <ele>1273.0</ele>
        <time>2020-07-28T08:42:38Z</time>
      </trkpt>
      <trkpt lat="42.9630880" lon="-0.2434650">
        <ele>1273.4</ele>
        <time>2020-07-28T08:42:41Z</time>
      </trkpt>
      <trkpt lat="42.9630420" lon="-0.2435400">
        <ele>1274.0</ele>
        <time>2020-07-28T08:42:44Z</time>
      </trkpt>
      <trkpt lat="42.9629880" lon="-0.2436550">
        <ele>1275.2</ele>
        <time>2020-07-28T08:42:48Z</time>
      </trkpt>
      <trkpt lat="42.9629480" lon="-0.2437420">
        <ele>1276.0</ele>
        <time>2020-07-28T08:42:51Z</time>
      </trkpt>
      <trkpt lat="42.9629210" lon="-0.2438000">
        <ele>1276.4</ele>
        <time>2020-07-28T08:42:53Z</time>
      </trkpt>
      <trkpt lat="42.9628850" lon="-0.2438850">
        <ele>1277.2</ele>
        <time>2020-07-28T08:42:56Z</time>
      </trkpt>
      <trkpt lat="42.9628770" lon="-0.2439150">
        <ele>1277.6</ele>
        <time>2020-07-28T08:42:57Z</time>
      </trkpt>
      <trkpt lat="42.9628610" lon="-0.2439740">
        <ele>1278.4</ele>
        <time>2020-07-28T08:42:59Z</time>
      </trkpt>
      <trkpt lat="42.9628410" lon="-0.2440310">
        <ele>1278.8</ele>
        <time>2020-07-28T08:43:01Z</time>
      </trkpt>
      <trkpt lat="42.9627720" lon="-0.2442020">
        <ele>1280.0</ele>
        <time>2020-07-28T08:43:07Z</time>
      </trkpt>
      <trkpt lat="42.9627240" lon="-0.2443220">
        <ele>1281.0</ele>
        <time>2020-07-28T08:43:11Z</time>
      </trkpt>
      <trkpt lat="42.9626530" lon="-0.2444990">
        <ele>1282.2</ele>
        <time>2020-07-28T08:43:17Z</time>
      </trkpt>
      <trkpt lat="42.9626060" lon="-0.2446170">
        <ele>1283.4</ele>
        <time>2020-07-28T08:43:21Z</time>
      </trkpt>
      <trkpt lat="42.9625500" lon="-0.2447220">
        <ele>1284.6</ele>
        <time>2020-07-28T08:43:25Z</time>
      </trkpt>
      <trkpt lat="42.9625190" lon="-0.2447680">
        <ele>1285.0</ele>
        <time>2020-07-28T08:43:27Z</time>
      </trkpt>
      <trkpt lat="42.9624690" lon="-0.2448410">
        <ele>1285.6</ele>
        <time>2020-07-28T08:43:30Z</time>
      </trkpt>
      <trkpt lat="42.9623950" lon="-0.2449270">
        <ele>1286.4</ele>
        <time>2020-07-28T08:43:34Z</time>
      </trkpt>
      <trkpt lat="42.9623750" lon="-0.2449490">
        <ele>1286.8</ele>
        <time>2020-07-28T08:43:35Z</time>
      </trkpt>
      <trkpt lat="42.9622480" lon="-0.2450760">
        <ele>1288.0</ele>
        <time>2020-07-28T08:43:41Z</time>
      </trkpt>
      <trkpt lat="42.9621840" lon="-0.2451320">
        <ele>1288.6</ele>
        <time>2020-07-28T08:43:44Z</time>
      </trkpt>
      <trkpt lat="42.9621390" lon="-0.2451670">
        <ele>1289.2</ele>
        <time>2020-07-28T08:43:46Z</time>
      </trkpt>
      <trkpt lat="42.9620340" lon="-0.2452610">
        <ele>1290.2</ele>
        <time>2020-07-28T08:43:51Z</time>
      </trkpt>
      <trkpt lat="42.9619950" lon="-0.2453000">
        <ele>1290.6</ele>
        <time>2020-07-28T08:43:53Z</time>
      </trkpt>
      <trkpt lat="42.9619550" lon="-0.2453410">
        <ele>1291.0</ele>
        <time>2020-07-28T08:43:55Z</time>
      </trkpt>
      <trkpt lat="42.9619360" lon="-0.2453630">
        <ele>1291.4</ele>
        <time>2020-07-28T08:43:56Z</time>
      </trkpt>
      <trkpt lat="42.9618210" lon="-0.2454900">
        <ele>1292.4</ele>
        <time>2020-07-28T08:44:02Z</time>
      </trkpt>
      <trkpt lat="42.9618020" lon="-0.2455110">
        <ele>1292.6</ele>
        <time>2020-07-28T08:44:03Z</time>
      </trkpt>
      <trkpt lat="42.9617210" lon="-0.2455950">
        <ele>1293.6</ele>
        <time>2020-07-28T08:44:07Z</time>
      </trkpt>
      <trkpt lat="42.9617000" lon="-0.2456170">
        <ele>1293.8</ele>
        <time>2020-07-28T08:44:08Z</time>
      </trkpt>
      <trkpt lat="42.9616810" lon="-0.2456400">
        <ele>1294.0</ele>
        <time>2020-07-28T08:44:09Z</time>
      </trkpt>
      <trkpt lat="42.9615990" lon="-0.2457230">
        <ele>1294.6</ele>
        <time>2020-07-28T08:44:13Z</time>
      </trkpt>
      <trkpt lat="42.9615560" lon="-0.2457580">
        <ele>1295.2</ele>
        <time>2020-07-28T08:44:15Z</time>
      </trkpt>
      <trkpt lat="42.9615140" lon="-0.2457960">
        <ele>1295.8</ele>
        <time>2020-07-28T08:44:17Z</time>
      </trkpt>
      <trkpt lat="42.9614290" lon="-0.2458720">
        <ele>1296.8</ele>
        <time>2020-07-28T08:44:21Z</time>
      </trkpt>
      <trkpt lat="42.9613880" lon="-0.2459180">
        <ele>1297.2</ele>
        <time>2020-07-28T08:44:23Z</time>
      </trkpt>
      <trkpt lat="42.9613180" lon="-0.2460230">
        <ele>1298.0</ele>
        <time>2020-07-28T08:44:27Z</time>
      </trkpt>
      <trkpt lat="42.9612470" lon="-0.2461650">
        <ele>1299.0</ele>
        <time>2020-07-28T08:44:32Z</time>
      </trkpt>
      <trkpt lat="42.9612380" lon="-0.2461960">
        <ele>1299.4</ele>
        <time>2020-07-28T08:44:33Z</time>
      </trkpt>
      <trkpt lat="42.9612100" lon="-0.2462870">
        <ele>1300.2</ele>
        <time>2020-07-28T08:44:36Z</time>
      </trkpt>
      <trkpt lat="42.9611620" lon="-0.2464400">
        <ele>1301.4</ele>
        <time>2020-07-28T08:44:41Z</time>
      </trkpt>
      <trkpt lat="42.9611540" lon="-0.2464710">
        <ele>1301.6</ele>
        <time>2020-07-28T08:44:42Z</time>
      </trkpt>
      <trkpt lat="42.9611240" lon="-0.2465460">
        <ele>1302.4</ele>
        <time>2020-07-28T08:44:46Z</time>
      </trkpt>
      <trkpt lat="42.9611170" lon="-0.2465660">
        <ele>1302.6</ele>
        <time>2020-07-28T08:44:47Z</time>
      </trkpt>
      <trkpt lat="42.9611030" lon="-0.2466230">
        <ele>1303.0</ele>
        <time>2020-07-28T08:44:49Z</time>
      </trkpt>
      <trkpt lat="42.9610850" lon="-0.2466860">
        <ele>1303.4</ele>
        <time>2020-07-28T08:44:51Z</time>
      </trkpt>
      <trkpt lat="42.9610740" lon="-0.2467170">
        <ele>1303.8</ele>
        <time>2020-07-28T08:44:52Z</time>
      </trkpt>
      <trkpt lat="42.9610630" lon="-0.2467480">
        <ele>1304.0</ele>
        <time>2020-07-28T08:44:53Z</time>
      </trkpt>
      <trkpt lat="42.9610540" lon="-0.2467790">
        <ele>1304.2</ele>
        <time>2020-07-28T08:44:54Z</time>
      </trkpt>
      <trkpt lat="42.9610320" lon="-0.2468400">
        <ele>1304.6</ele>
        <time>2020-07-28T08:44:56Z</time>
      </trkpt>
      <trkpt lat="42.9609770" lon="-0.2470350">
        <ele>1305.6</ele>
        <time>2020-07-28T08:45:02Z</time>
      </trkpt>
      <trkpt lat="42.9609410" lon="-0.2471630">
        <ele>1306.6</ele>
        <time>2020-07-28T08:45:06Z</time>
      </trkpt>
      <trkpt lat="42.9609340" lon="-0.2471960">
        <ele>1306.8</ele>
        <time>2020-07-28T08:45:07Z</time>
      </trkpt>
      <trkpt lat="42.9609040" lon="-0.2473260">
        <ele>1307.8</ele>
        <time>2020-07-28T08:45:11Z</time>
      </trkpt>
      <trkpt lat="42.9608910" lon="-0.2473890">
        <ele>1308.4</ele>
        <time>2020-07-28T08:45:13Z</time>
      </trkpt>
      <trkpt lat="42.9608840" lon="-0.2474200">
        <ele>1308.8</ele>
        <time>2020-07-28T08:45:14Z</time>
      </trkpt>
      <trkpt lat="42.9608600" lon="-0.2476160">
        <ele>1309.8</ele>
        <time>2020-07-28T08:45:20Z</time>
      </trkpt>
      <trkpt lat="42.9608100" lon="-0.2477730">
        <ele>1311.2</ele>
        <time>2020-07-28T08:45:25Z</time>
      </trkpt>
      <trkpt lat="42.9607880" lon="-0.2478380">
        <ele>1311.4</ele>
        <time>2020-07-28T08:45:27Z</time>
      </trkpt>
      <trkpt lat="42.9607340" lon="-0.2479520">
        <ele>1312.2</ele>
        <time>2020-07-28T08:45:31Z</time>
      </trkpt>
      <trkpt lat="42.9607090" lon="-0.2480080">
        <ele>1312.8</ele>
        <time>2020-07-28T08:45:33Z</time>
      </trkpt>
      <trkpt lat="42.9606890" lon="-0.2480680">
        <ele>1313.4</ele>
        <time>2020-07-28T08:45:35Z</time>
      </trkpt>
      <trkpt lat="42.9606280" lon="-0.2482040">
        <ele>1314.4</ele>
        <time>2020-07-28T08:45:40Z</time>
      </trkpt>
      <trkpt lat="42.9605580" lon="-0.2483300">
        <ele>1315.4</ele>
        <time>2020-07-28T08:45:45Z</time>
      </trkpt>
      <trkpt lat="42.9605400" lon="-0.2483520">
        <ele>1315.6</ele>
        <time>2020-07-28T08:45:46Z</time>
      </trkpt>
      <trkpt lat="42.9605040" lon="-0.2483960">
        <ele>1316.0</ele>
        <time>2020-07-28T08:45:48Z</time>
      </trkpt>
      <trkpt lat="42.9604480" lon="-0.2484610">
        <ele>1316.8</ele>
        <time>2020-07-28T08:45:51Z</time>
      </trkpt>
      <trkpt lat="42.9603590" lon="-0.2485790">
        <ele>1318.0</ele>
        <time>2020-07-28T08:45:56Z</time>
      </trkpt>
      <trkpt lat="42.9602910" lon="-0.2486780">
        <ele>1319.0</ele>
        <time>2020-07-28T08:46:00Z</time>
      </trkpt>
      <trkpt lat="42.9602590" lon="-0.2487720">
        <ele>1319.6</ele>
        <time>2020-07-28T08:46:03Z</time>
      </trkpt>
      <trkpt lat="42.9602410" lon="-0.2488340">
        <ele>1320.0</ele>
        <time>2020-07-28T08:46:05Z</time>
      </trkpt>
      <trkpt lat="42.9601830" lon="-0.2490170">
        <ele>1321.2</ele>
        <time>2020-07-28T08:46:11Z</time>
      </trkpt>
      <trkpt lat="42.9601660" lon="-0.2490790">
        <ele>1321.6</ele>
        <time>2020-07-28T08:46:13Z</time>
      </trkpt>
      <trkpt lat="42.9601380" lon="-0.2491700">
        <ele>1322.2</ele>
        <time>2020-07-28T08:46:16Z</time>
      </trkpt>
      <trkpt lat="42.9600930" lon="-0.2493210">
        <ele>1323.4</ele>
        <time>2020-07-28T08:46:21Z</time>
      </trkpt>
      <trkpt lat="42.9600870" lon="-0.2493520">
        <ele>1323.6</ele>
        <time>2020-07-28T08:46:22Z</time>
      </trkpt>
      <trkpt lat="42.9600640" lon="-0.2495190">
        <ele>1324.6</ele>
        <time>2020-07-28T08:46:27Z</time>
      </trkpt>
      <trkpt lat="42.9600600" lon="-0.2496210">
        <ele>1325.2</ele>
        <time>2020-07-28T08:46:30Z</time>
      </trkpt>
      <trkpt lat="42.9600650" lon="-0.2496900">
        <ele>1325.6</ele>
        <time>2020-07-28T08:46:32Z</time>
      </trkpt>
      <trkpt lat="42.9600800" lon="-0.2497920">
        <ele>1326.4</ele>
        <time>2020-07-28T08:46:35Z</time>
      </trkpt>
      <trkpt lat="42.9600870" lon="-0.2498250">
        <ele>1326.8</ele>
        <time>2020-07-28T08:46:36Z</time>
      </trkpt>
      <trkpt lat="42.9601180" lon="-0.2499550">
        <ele>1327.6</ele>
        <time>2020-07-28T08:46:40Z</time>
      </trkpt>
      <trkpt lat="42.9601370" lon="-0.2500200">
        <ele>1327.8</ele>
        <time>2020-07-28T08:46:42Z</time>
      </trkpt>
      <trkpt lat="42.9601930" lon="-0.2501680">
        <ele>1329.2</ele>
        <time>2020-07-28T08:46:47Z</time>
      </trkpt>
      <trkpt lat="42.9602100" lon="-0.2501900">
        <ele>1329.4</ele>
        <time>2020-07-28T08:46:48Z</time>
      </trkpt>
      <trkpt lat="42.9602270" lon="-0.2502120">
        <ele>1329.6</ele>
        <time>2020-07-28T08:46:49Z</time>
      </trkpt>
      <trkpt lat="42.9602850" lon="-0.2502670">
        <ele>1330.2</ele>
        <time>2020-07-28T08:46:52Z</time>
      </trkpt>
      <trkpt lat="42.9603690" lon="-0.2503100">
        <ele>1331.4</ele>
        <time>2020-07-28T08:46:56Z</time>
      </trkpt>
      <trkpt lat="42.9604700" lon="-0.2503150">
        <ele>1332.8</ele>
        <time>2020-07-28T08:47:00Z</time>
      </trkpt>
      <trkpt lat="42.9605530" lon="-0.2503140">
        <ele>1333.6</ele>
        <time>2020-07-28T08:47:03Z</time>
      </trkpt>
      <trkpt lat="42.9605790" lon="-0.2503140">
        <ele>1333.8</ele>
        <time>2020-07-28T08:47:04Z</time>
      </trkpt>
      <trkpt lat="42.9607040" lon="-0.2503140">
        <ele>1335.0</ele>
        <time>2020-07-28T08:47:09Z</time>
      </trkpt>
      <trkpt lat="42.9607730" lon="-0.2503250">
        <ele>1335.8</ele>
        <time>2020-07-28T08:47:12Z</time>
      </trkpt>
      <trkpt lat="42.9607980" lon="-0.2503280">
        <ele>1336.0</ele>
        <time>2020-07-28T08:47:13Z</time>
      </trkpt>
      <trkpt lat="42.9608670" lon="-0.2503480">
        <ele>1337.0</ele>
        <time>2020-07-28T08:47:16Z</time>
      </trkpt>
      <trkpt lat="42.9608880" lon="-0.2503570">
        <ele>1337.2</ele>
        <time>2020-07-28T08:47:17Z</time>
      </trkpt>
      <trkpt lat="42.9609320" lon="-0.2503680">
        <ele>1337.6</ele>
        <time>2020-07-28T08:47:19Z</time>
      </trkpt>
      <trkpt lat="42.9610190" lon="-0.2504190">
        <ele>1338.4</ele>
        <time>2020-07-28T08:47:23Z</time>
      </trkpt>
      <trkpt lat="42.9610640" lon="-0.2504540">
        <ele>1338.8</ele>
        <time>2020-07-28T08:47:25Z</time>
      </trkpt>
      <trkpt lat="42.9611460" lon="-0.2505560">
        <ele>1339.4</ele>
        <time>2020-07-28T08:47:29Z</time>
      </trkpt>
      <trkpt lat="42.9611840" lon="-0.2506510">
        <ele>1339.8</ele>
        <time>2020-07-28T08:47:32Z</time>
      </trkpt>
      <trkpt lat="42.9612050" lon="-0.2507820">
        <ele>1340.6</ele>
        <time>2020-07-28T08:47:36Z</time>
      </trkpt>
      <trkpt lat="42.9611960" lon="-0.2508850">
        <ele>1341.2</ele>
        <time>2020-07-28T08:47:39Z</time>
      </trkpt>
      <trkpt lat="42.9611920" lon="-0.2509160">
        <ele>1341.8</ele>
        <time>2020-07-28T08:47:40Z</time>
      </trkpt>
      <trkpt lat="42.9611540" lon="-0.2510770">
        <ele>1343.0</ele>
        <time>2020-07-28T08:47:45Z</time>
      </trkpt>
      <trkpt lat="42.9611330" lon="-0.2511400">
        <ele>1343.6</ele>
        <time>2020-07-28T08:47:47Z</time>
      </trkpt>
      <trkpt lat="42.9611120" lon="-0.2512020">
        <ele>1344.0</ele>
        <time>2020-07-28T08:47:49Z</time>
      </trkpt>
      <trkpt lat="42.9610620" lon="-0.2513580">
        <ele>1345.2</ele>
        <time>2020-07-28T08:47:54Z</time>
      </trkpt>
      <trkpt lat="42.9610420" lon="-0.2514190">
        <ele>1345.8</ele>
        <time>2020-07-28T08:47:56Z</time>
      </trkpt>
      <trkpt lat="42.9610220" lon="-0.2514810">
        <ele>1346.4</ele>
        <time>2020-07-28T08:47:58Z</time>
      </trkpt>
      <trkpt lat="42.9609960" lon="-0.2515760">
        <ele>1347.4</ele>
        <time>2020-07-28T08:48:01Z</time>
      </trkpt>
      <trkpt lat="42.9609790" lon="-0.2517120">
        <ele>1348.6</ele>
        <time>2020-07-28T08:48:05Z</time>
      </trkpt>
      <trkpt lat="42.9609910" lon="-0.2518440">
        <ele>1349.4</ele>
        <time>2020-07-28T08:48:09Z</time>
      </trkpt>
      <trkpt lat="42.9609980" lon="-0.2518730">
        <ele>1349.6</ele>
        <time>2020-07-28T08:48:10Z</time>
      </trkpt>
      <trkpt lat="42.9610170" lon="-0.2519290">
        <ele>1350.4</ele>
        <time>2020-07-28T08:48:12Z</time>
      </trkpt>
      <trkpt lat="42.9610300" lon="-0.2519520">
        <ele>1350.8</ele>
        <time>2020-07-28T08:48:13Z</time>
      </trkpt>
      <trkpt lat="42.9610460" lon="-0.2519750">
        <ele>1351.0</ele>
        <time>2020-07-28T08:48:14Z</time>
      </trkpt>
      <trkpt lat="42.9611230" lon="-0.2520870">
        <ele>1352.2</ele>
        <time>2020-07-28T08:48:19Z</time>
      </trkpt>
      <trkpt lat="42.9611380" lon="-0.2521080">
        <ele>1352.6</ele>
        <time>2020-07-28T08:48:20Z</time>
      </trkpt>
      <trkpt lat="42.9611630" lon="-0.2521420">
        <ele>1353.2</ele>
        <time>2020-07-28T08:48:22Z</time>
      </trkpt>
      <trkpt lat="42.9611950" lon="-0.2521920">
        <ele>1354.0</ele>
        <time>2020-07-28T08:48:26Z</time>
      </trkpt>
      <trkpt lat="42.9612050" lon="-0.2522090">
        <ele>1354.0</ele>
        <time>2020-07-28T08:48:27Z</time>
      </trkpt>
      <trkpt lat="42.9612180" lon="-0.2522240">
        <ele>1354.2</ele>
        <time>2020-07-28T08:48:28Z</time>
      </trkpt>
      <trkpt lat="42.9612320" lon="-0.2522430">
        <ele>1354.4</ele>
        <time>2020-07-28T08:48:29Z</time>
      </trkpt>
      <trkpt lat="42.9612630" lon="-0.2523210">
        <ele>1355.0</ele>
        <time>2020-07-28T08:48:32Z</time>
      </trkpt>
      <trkpt lat="42.9612760" lon="-0.2523850">
        <ele>1355.2</ele>
        <time>2020-07-28T08:48:34Z</time>
      </trkpt>
      <trkpt lat="42.9612800" lon="-0.2524520">
        <ele>1355.2</ele>
        <time>2020-07-28T08:48:36Z</time>
      </trkpt>
      <trkpt lat="42.9612780" lon="-0.2524860">
        <ele>1355.4</ele>
        <time>2020-07-28T08:48:37Z</time>
      </trkpt>
      <trkpt lat="42.9612760" lon="-0.2525200">
        <ele>1355.6</ele>
        <time>2020-07-28T08:48:38Z</time>
      </trkpt>
      <trkpt lat="42.9612500" lon="-0.2526470">
        <ele>1356.4</ele>
        <time>2020-07-28T08:48:42Z</time>
      </trkpt>
      <trkpt lat="42.9612380" lon="-0.2526770">
        <ele>1356.4</ele>
        <time>2020-07-28T08:48:43Z</time>
      </trkpt>
      <trkpt lat="42.9612200" lon="-0.2527370">
        <ele>1357.0</ele>
        <time>2020-07-28T08:48:45Z</time>
      </trkpt>
      <trkpt lat="42.9612070" lon="-0.2527970">
        <ele>1357.6</ele>
        <time>2020-07-28T08:48:47Z</time>
      </trkpt>
      <trkpt lat="42.9611900" lon="-0.2528870">
        <ele>1358.6</ele>
        <time>2020-07-28T08:48:50Z</time>
      </trkpt>
      <trkpt lat="42.9611830" lon="-0.2529490">
        <ele>1359.2</ele>
        <time>2020-07-28T08:48:52Z</time>
      </trkpt>
      <trkpt lat="42.9611800" lon="-0.2530480">
        <ele>1359.8</ele>
        <time>2020-07-28T08:48:55Z</time>
      </trkpt>
      <trkpt lat="42.9611780" lon="-0.2532430">
        <ele>1360.8</ele>
        <time>2020-07-28T08:49:01Z</time>
      </trkpt>
      <trkpt lat="42.9611800" lon="-0.2532750">
        <ele>1361.2</ele>
        <time>2020-07-28T08:49:02Z</time>
      </trkpt>
      <trkpt lat="42.9611870" lon="-0.2533670">
        <ele>1362.0</ele>
        <time>2020-07-28T08:49:05Z</time>
      </trkpt>
      <trkpt lat="42.9611880" lon="-0.2533990">
        <ele>1362.4</ele>
        <time>2020-07-28T08:49:06Z</time>
      </trkpt>
      <trkpt lat="42.9611970" lon="-0.2535570">
        <ele>1363.6</ele>
        <time>2020-07-28T08:49:11Z</time>
      </trkpt>
      <trkpt lat="42.9611990" lon="-0.2536520">
        <ele>1364.2</ele>
        <time>2020-07-28T08:49:14Z</time>
      </trkpt>
      <trkpt lat="42.9611940" lon="-0.2537470">
        <ele>1364.8</ele>
        <time>2020-07-28T08:49:17Z</time>
      </trkpt>
      <trkpt lat="42.9611740" lon="-0.2538710">
        <ele>1365.8</ele>
        <time>2020-07-28T08:49:21Z</time>
      </trkpt>
      <trkpt lat="42.9611590" lon="-0.2538970">
        <ele>1366.0</ele>
        <time>2020-07-28T08:49:22Z</time>
      </trkpt>
      <trkpt lat="42.9610900" lon="-0.2539820">
        <ele>1366.4</ele>
        <time>2020-07-28T08:49:26Z</time>
      </trkpt>
      <trkpt lat="42.9610540" lon="-0.2540210">
        <ele>1367.0</ele>
        <time>2020-07-28T08:49:28Z</time>
      </trkpt>
      <trkpt lat="42.9609740" lon="-0.2540860">
        <ele>1368.0</ele>
        <time>2020-07-28T08:49:32Z</time>
      </trkpt>
      <trkpt lat="42.9609530" lon="-0.2541000">
        <ele>1368.4</ele>
        <time>2020-07-28T08:49:33Z</time>
      </trkpt>
      <trkpt lat="42.9608620" lon="-0.2541460">
        <ele>1369.6</ele>
        <time>2020-07-28T08:49:37Z</time>
      </trkpt>
      <trkpt lat="42.9607670" lon="-0.2542030">
        <ele>1370.4</ele>
        <time>2020-07-28T08:49:41Z</time>
      </trkpt>
      <trkpt lat="42.9607450" lon="-0.2542200">
        <ele>1370.6</ele>
        <time>2020-07-28T08:49:42Z</time>
      </trkpt>
      <trkpt lat="42.9606710" lon="-0.2543050">
        <ele>1371.8</ele>
        <time>2020-07-28T08:49:46Z</time>
      </trkpt>
      <trkpt lat="42.9606360" lon="-0.2543440">
        <ele>1372.4</ele>
        <time>2020-07-28T08:49:48Z</time>
      </trkpt>
      <trkpt lat="42.9606000" lon="-0.2543860">
        <ele>1373.0</ele>
        <time>2020-07-28T08:49:50Z</time>
      </trkpt>
      <trkpt lat="42.9605280" lon="-0.2544820">
        <ele>1374.2</ele>
        <time>2020-07-28T08:49:54Z</time>
      </trkpt>
      <trkpt lat="42.9604930" lon="-0.2545300">
        <ele>1374.6</ele>
        <time>2020-07-28T08:49:56Z</time>
      </trkpt>
      <trkpt lat="42.9604580" lon="-0.2545790">
        <ele>1374.8</ele>
        <time>2020-07-28T08:49:58Z</time>
      </trkpt>
      <trkpt lat="42.9604260" lon="-0.2546340">
        <ele>1375.2</ele>
        <time>2020-07-28T08:50:00Z</time>
      </trkpt>
      <trkpt lat="42.9603630" lon="-0.2547460">
        <ele>1376.6</ele>
        <time>2020-07-28T08:50:04Z</time>
      </trkpt>
      <trkpt lat="42.9603220" lon="-0.2548670">
        <ele>1377.6</ele>
        <time>2020-07-28T08:50:08Z</time>
      </trkpt>
      <trkpt lat="42.9603120" lon="-0.2549350">
        <ele>1377.8</ele>
        <time>2020-07-28T08:50:10Z</time>
      </trkpt>
      <trkpt lat="42.9602890" lon="-0.2550680">
        <ele>1379.0</ele>
        <time>2020-07-28T08:50:14Z</time>
      </trkpt>
      <trkpt lat="42.9602770" lon="-0.2552010">
        <ele>1380.4</ele>
        <time>2020-07-28T08:50:18Z</time>
      </trkpt>
      <trkpt lat="42.9602740" lon="-0.2552680">
        <ele>1381.0</ele>
        <time>2020-07-28T08:50:20Z</time>
      </trkpt>
      <trkpt lat="42.9602700" lon="-0.2553710">
        <ele>1381.4</ele>
        <time>2020-07-28T08:50:23Z</time>
      </trkpt>
      <trkpt lat="42.9602880" lon="-0.2555460">
        <ele>1382.2</ele>
        <time>2020-07-28T08:50:28Z</time>
      </trkpt>
      <trkpt lat="42.9603000" lon="-0.2556150">
        <ele>1382.6</ele>
        <time>2020-07-28T08:50:30Z</time>
      </trkpt>
      <trkpt lat="42.9603230" lon="-0.2557110">
        <ele>1383.8</ele>
        <time>2020-07-28T08:50:33Z</time>
      </trkpt>
      <trkpt lat="42.9603620" lon="-0.2557960">
        <ele>1384.8</ele>
        <time>2020-07-28T08:50:36Z</time>
      </trkpt>
      <trkpt lat="42.9604700" lon="-0.2559350">
        <ele>1386.0</ele>
        <time>2020-07-28T08:50:42Z</time>
      </trkpt>
      <trkpt lat="42.9605130" lon="-0.2559630">
        <ele>1386.6</ele>
        <time>2020-07-28T08:50:44Z</time>
      </trkpt>
      <trkpt lat="42.9605360" lon="-0.2559750">
        <ele>1387.0</ele>
        <time>2020-07-28T08:50:45Z</time>
      </trkpt>
      <trkpt lat="42.9606300" lon="-0.2560340">
        <ele>1388.2</ele>
        <time>2020-07-28T08:50:49Z</time>
      </trkpt>
      <trkpt lat="42.9606930" lon="-0.2560940">
        <ele>1388.6</ele>
        <time>2020-07-28T08:50:52Z</time>
      </trkpt>
      <trkpt lat="42.9607520" lon="-0.2561620">
        <ele>1389.2</ele>
        <time>2020-07-28T08:50:55Z</time>
      </trkpt>
      <trkpt lat="42.9608310" lon="-0.2562970">
        <ele>1390.4</ele>
        <time>2020-07-28T08:51:00Z</time>
      </trkpt>
      <trkpt lat="42.9608420" lon="-0.2563260">
        <ele>1390.8</ele>
        <time>2020-07-28T08:51:01Z</time>
      </trkpt>
      <trkpt lat="42.9608660" lon="-0.2564880">
        <ele>1391.8</ele>
        <time>2020-07-28T08:51:06Z</time>
      </trkpt>
      <trkpt lat="42.9608650" lon="-0.2565220">
        <ele>1392.2</ele>
        <time>2020-07-28T08:51:07Z</time>
      </trkpt>
      <trkpt lat="42.9608610" lon="-0.2565900">
        <ele>1392.8</ele>
        <time>2020-07-28T08:51:09Z</time>
      </trkpt>
      <trkpt lat="42.9608590" lon="-0.2567590">
        <ele>1394.0</ele>
        <time>2020-07-28T08:51:14Z</time>
      </trkpt>
      <trkpt lat="42.9608630" lon="-0.2567940">
        <ele>1394.0</ele>
        <time>2020-07-28T08:51:15Z</time>
      </trkpt>
      <trkpt lat="42.9608710" lon="-0.2569320">
        <ele>1395.0</ele>
        <time>2020-07-28T08:51:19Z</time>
      </trkpt>
      <trkpt lat="42.9608710" lon="-0.2570010">
        <ele>1395.4</ele>
        <time>2020-07-28T08:51:21Z</time>
      </trkpt>
      <trkpt lat="42.9608650" lon="-0.2571010">
        <ele>1396.0</ele>
        <time>2020-07-28T08:51:24Z</time>
      </trkpt>
      <trkpt lat="42.9608630" lon="-0.2571330">
        <ele>1396.2</ele>
        <time>2020-07-28T08:51:25Z</time>
      </trkpt>
      <trkpt lat="42.9608570" lon="-0.2573260">
        <ele>1397.4</ele>
        <time>2020-07-28T08:51:31Z</time>
      </trkpt>
      <trkpt lat="42.9608500" lon="-0.2573580">
        <ele>1397.8</ele>
        <time>2020-07-28T08:51:32Z</time>
      </trkpt>
      <trkpt lat="42.9608360" lon="-0.2574190">
        <ele>1398.4</ele>
        <time>2020-07-28T08:51:34Z</time>
      </trkpt>
      <trkpt lat="42.9608100" lon="-0.2575460">
        <ele>1399.6</ele>
        <time>2020-07-28T08:51:38Z</time>
      </trkpt>
      <trkpt lat="42.9607990" lon="-0.2576100">
        <ele>1400.0</ele>
        <time>2020-07-28T08:51:40Z</time>
      </trkpt>
      <trkpt lat="42.9607920" lon="-0.2576420">
        <ele>1400.2</ele>
        <time>2020-07-28T08:51:41Z</time>
      </trkpt>
      <trkpt lat="42.9607840" lon="-0.2576730">
        <ele>1400.4</ele>
        <time>2020-07-28T08:51:42Z</time>
      </trkpt>
      <trkpt lat="42.9607760" lon="-0.2577060">
        <ele>1400.6</ele>
        <time>2020-07-28T08:51:43Z</time>
      </trkpt>
      <trkpt lat="42.9607280" lon="-0.2578940">
        <ele>1401.8</ele>
        <time>2020-07-28T08:51:49Z</time>
      </trkpt>
      <trkpt lat="42.9607030" lon="-0.2580630">
        <ele>1403.0</ele>
        <time>2020-07-28T08:51:54Z</time>
      </trkpt>
      <trkpt lat="42.9606690" lon="-0.2582270">
        <ele>1404.0</ele>
        <time>2020-07-28T08:51:59Z</time>
      </trkpt>
      <trkpt lat="42.9606610" lon="-0.2582590">
        <ele>1404.2</ele>
        <time>2020-07-28T08:52:00Z</time>
      </trkpt>
      <trkpt lat="42.9606420" lon="-0.2583560">
        <ele>1405.2</ele>
        <time>2020-07-28T08:52:03Z</time>
      </trkpt>
      <trkpt lat="42.9606090" lon="-0.2585180">
        <ele>1406.2</ele>
        <time>2020-07-28T08:52:08Z</time>
      </trkpt>
      <trkpt lat="42.9606020" lon="-0.2585490">
        <ele>1406.2</ele>
        <time>2020-07-28T08:52:09Z</time>
      </trkpt>
      <trkpt lat="42.9605600" lon="-0.2587020">
        <ele>1407.2</ele>
        <time>2020-07-28T08:52:14Z</time>
      </trkpt>
      <trkpt lat="42.9605290" lon="-0.2587880">
        <ele>1408.0</ele>
        <time>2020-07-28T08:52:17Z</time>
      </trkpt>
      <trkpt lat="42.9605170" lon="-0.2588170">
        <ele>1408.4</ele>
        <time>2020-07-28T08:52:18Z</time>
      </trkpt>
      <trkpt lat="42.9604600" lon="-0.2589620">
        <ele>1409.6</ele>
        <time>2020-07-28T08:52:23Z</time>
      </trkpt>
      <trkpt lat="42.9604380" lon="-0.2590190">
        <ele>1410.0</ele>
        <time>2020-07-28T08:52:25Z</time>
      </trkpt>
      <trkpt lat="42.9604030" lon="-0.2591380">
        <ele>1410.6</ele>
        <time>2020-07-28T08:52:29Z</time>
      </trkpt>
      <trkpt lat="42.9603700" lon="-0.2592910">
        <ele>1411.8</ele>
        <time>2020-07-28T08:52:34Z</time>
      </trkpt>
      <trkpt lat="42.9603660" lon="-0.2593230">
        <ele>1412.0</ele>
        <time>2020-07-28T08:52:35Z</time>
      </trkpt>
      <trkpt lat="42.9603630" lon="-0.2594200">
        <ele>1412.8</ele>
        <time>2020-07-28T08:52:38Z</time>
      </trkpt>
      <trkpt lat="42.9603670" lon="-0.2595530">
        <ele>1413.8</ele>
        <time>2020-07-28T08:52:42Z</time>
      </trkpt>
      <trkpt lat="42.9603680" lon="-0.2595860">
        <ele>1414.0</ele>
        <time>2020-07-28T08:52:43Z</time>
      </trkpt>
      <trkpt lat="42.9603710" lon="-0.2596530">
        <ele>1414.6</ele>
        <time>2020-07-28T08:52:45Z</time>
      </trkpt>
      <trkpt lat="42.9604080" lon="-0.2598170">
        <ele>1415.2</ele>
        <time>2020-07-28T08:52:50Z</time>
      </trkpt>
      <trkpt lat="42.9604280" lon="-0.2598790">
        <ele>1415.4</ele>
        <time>2020-07-28T08:52:52Z</time>
      </trkpt>
      <trkpt lat="42.9604570" lon="-0.2599350">
        <ele>1416.2</ele>
        <time>2020-07-28T08:52:54Z</time>
      </trkpt>
      <trkpt lat="42.9605400" lon="-0.2600610">
        <ele>1417.4</ele>
        <time>2020-07-28T08:52:59Z</time>
      </trkpt>
      <trkpt lat="42.9605840" lon="-0.2601420">
        <ele>1418.6</ele>
        <time>2020-07-28T08:53:02Z</time>
      </trkpt>
      <trkpt lat="42.9606190" lon="-0.2602350">
        <ele>1419.6</ele>
        <time>2020-07-28T08:53:05Z</time>
      </trkpt>
      <trkpt lat="42.9606340" lon="-0.2603010">
        <ele>1420.0</ele>
        <time>2020-07-28T08:53:07Z</time>
      </trkpt>
      <trkpt lat="42.9606450" lon="-0.2603670">
        <ele>1420.6</ele>
        <time>2020-07-28T08:53:09Z</time>
      </trkpt>
      <trkpt lat="42.9606470" lon="-0.2604680">
        <ele>1421.0</ele>
        <time>2020-07-28T08:53:12Z</time>
      </trkpt>
      <trkpt lat="42.9606490" lon="-0.2605340">
        <ele>1421.4</ele>
        <time>2020-07-28T08:53:14Z</time>
      </trkpt>
      <trkpt lat="42.9606490" lon="-0.2605640">
        <ele>1421.6</ele>
        <time>2020-07-28T08:53:15Z</time>
      </trkpt>
      <trkpt lat="42.9606490" lon="-0.2605940">
        <ele>1421.8</ele>
        <time>2020-07-28T08:53:16Z</time>
      </trkpt>
      <trkpt lat="42.9606400" lon="-0.2607420">
        <ele>1422.8</ele>
        <time>2020-07-28T08:53:21Z</time>
      </trkpt>
      <trkpt lat="42.9606380" lon="-0.2608290">
        <ele>1423.2</ele>
        <time>2020-07-28T08:53:24Z</time>
      </trkpt>
      <trkpt lat="42.9606370" lon="-0.2608900">
        <ele>1423.8</ele>
        <time>2020-07-28T08:53:26Z</time>
      </trkpt>
      <trkpt lat="42.9606490" lon="-0.2610660">
        <ele>1424.8</ele>
        <time>2020-07-28T08:53:32Z</time>
      </trkpt>
      <trkpt lat="42.9606530" lon="-0.2610920">
        <ele>1425.0</ele>
        <time>2020-07-28T08:53:33Z</time>
      </trkpt>
      <trkpt lat="42.9606580" lon="-0.2611180">
        <ele>1425.0</ele>
        <time>2020-07-28T08:53:34Z</time>
      </trkpt>
      <trkpt lat="42.9606480" lon="-0.2611890">
        <ele>1425.2</ele>
        <time>2020-07-28T08:53:38Z</time>
      </trkpt>
      <trkpt lat="42.9606400" lon="-0.2611820">
        <ele>1425.2</ele>
        <time>2020-07-28T08:53:39Z</time>
      </trkpt>
      <trkpt lat="42.9606440" lon="-0.2610790">
        <ele>1425.4</ele>
        <time>2020-07-28T08:53:43Z</time>
      </trkpt>
      <trkpt lat="42.9607230" lon="-0.2610470">
        <ele>1422.0</ele>
        <time>2020-07-28T09:12:16Z</time>
      </trkpt>
      <trkpt lat="42.9607190" lon="-0.2610550">
        <ele>1422.0</ele>
        <time>2020-07-28T09:12:17Z</time>
      </trkpt>
      <trkpt lat="42.9607140" lon="-0.2610880">
        <ele>1421.8</ele>
        <time>2020-07-28T09:12:19Z</time>
      </trkpt>
      <trkpt lat="42.9607060" lon="-0.2611550">
        <ele>1421.6</ele>
        <time>2020-07-28T09:12:22Z</time>
      </trkpt>
      <trkpt lat="42.9607250" lon="-0.2613550">
        <ele>1421.0</ele>
        <time>2020-07-28T09:12:27Z</time>
      </trkpt>
      <trkpt lat="42.9607340" lon="-0.2614130">
        <ele>1421.0</ele>
        <time>2020-07-28T09:12:28Z</time>
      </trkpt>
      <trkpt lat="42.9607450" lon="-0.2615370">
        <ele>1420.6</ele>
        <time>2020-07-28T09:12:30Z</time>
      </trkpt>
      <trkpt lat="42.9607490" lon="-0.2616640">
        <ele>1419.6</ele>
        <time>2020-07-28T09:12:32Z</time>
      </trkpt>
      <trkpt lat="42.9607340" lon="-0.2617990">
        <ele>1418.8</ele>
        <time>2020-07-28T09:12:34Z</time>
      </trkpt>
      <trkpt lat="42.9607240" lon="-0.2618620">
        <ele>1418.4</ele>
        <time>2020-07-28T09:12:35Z</time>
      </trkpt>
      <trkpt lat="42.9606670" lon="-0.2621230">
        <ele>1417.4</ele>
        <time>2020-07-28T09:12:39Z</time>
      </trkpt>
      <trkpt lat="42.9606550" lon="-0.2621960">
        <ele>1416.8</ele>
        <time>2020-07-28T09:12:40Z</time>
      </trkpt>
      <trkpt lat="42.9606460" lon="-0.2622730">
        <ele>1416.4</ele>
        <time>2020-07-28T09:12:41Z</time>
      </trkpt>
      <trkpt lat="42.9606300" lon="-0.2624380">
        <ele>1415.4</ele>
        <time>2020-07-28T09:12:43Z</time>
      </trkpt>
      <trkpt lat="42.9606260" lon="-0.2625180">
        <ele>1414.8</ele>
        <time>2020-07-28T09:12:44Z</time>
      </trkpt>
      <trkpt lat="42.9606120" lon="-0.2626810">
        <ele>1414.0</ele>
        <time>2020-07-28T09:12:46Z</time>
      </trkpt>
      <trkpt lat="42.9606030" lon="-0.2627630">
        <ele>1413.6</ele>
        <time>2020-07-28T09:12:47Z</time>
      </trkpt>
      <trkpt lat="42.9605910" lon="-0.2628470">
        <ele>1413.2</ele>
        <time>2020-07-28T09:12:48Z</time>
      </trkpt>
      <trkpt lat="42.9605550" lon="-0.2630810">
        <ele>1412.6</ele>
        <time>2020-07-28T09:12:51Z</time>
      </trkpt>
      <trkpt lat="42.9605200" lon="-0.2633030">
        <ele>1411.4</ele>
        <time>2020-07-28T09:12:54Z</time>
      </trkpt>
      <trkpt lat="42.9604810" lon="-0.2635460">
        <ele>1410.0</ele>
        <time>2020-07-28T09:12:57Z</time>
      </trkpt>
      <trkpt lat="42.9604510" lon="-0.2637030">
        <ele>1408.8</ele>
        <time>2020-07-28T09:12:59Z</time>
      </trkpt>
      <trkpt lat="42.9604110" lon="-0.2638580">
        <ele>1408.0</ele>
        <time>2020-07-28T09:13:01Z</time>
      </trkpt>
      <trkpt lat="42.9603870" lon="-0.2639350">
        <ele>1407.6</ele>
        <time>2020-07-28T09:13:02Z</time>
      </trkpt>
      <trkpt lat="42.9603100" lon="-0.2641600">
        <ele>1406.6</ele>
        <time>2020-07-28T09:13:05Z</time>
      </trkpt>
      <trkpt lat="42.9602230" lon="-0.2643880">
        <ele>1405.4</ele>
        <time>2020-07-28T09:13:08Z</time>
      </trkpt>
      <trkpt lat="42.9601910" lon="-0.2644640">
        <ele>1405.0</ele>
        <time>2020-07-28T09:13:09Z</time>
      </trkpt>
      <trkpt lat="42.9601180" lon="-0.2646090">
        <ele>1404.2</ele>
        <time>2020-07-28T09:13:11Z</time>
      </trkpt>
      <trkpt lat="42.9600440" lon="-0.2647480">
        <ele>1403.2</ele>
        <time>2020-07-28T09:13:13Z</time>
      </trkpt>
      <trkpt lat="42.9600110" lon="-0.2648170">
        <ele>1402.6</ele>
        <time>2020-07-28T09:13:14Z</time>
      </trkpt>
      <trkpt lat="42.9599830" lon="-0.2648890">
        <ele>1402.2</ele>
        <time>2020-07-28T09:13:15Z</time>
      </trkpt>
      <trkpt lat="42.9599400" lon="-0.2650460">
        <ele>1401.6</ele>
        <time>2020-07-28T09:13:17Z</time>
      </trkpt>
      <trkpt lat="42.9598990" lon="-0.2653130">
        <ele>1400.0</ele>
        <time>2020-07-28T09:13:20Z</time>
      </trkpt>
      <trkpt lat="42.9598660" lon="-0.2654960">
        <ele>1398.8</ele>
        <time>2020-07-28T09:13:22Z</time>
      </trkpt>
      <trkpt lat="42.9598210" lon="-0.2657640">
        <ele>1397.6</ele>
        <time>2020-07-28T09:13:25Z</time>
      </trkpt>
      <trkpt lat="42.9597660" lon="-0.2660260">
        <ele>1396.2</ele>
        <time>2020-07-28T09:13:28Z</time>
      </trkpt>
      <trkpt lat="42.9596890" lon="-0.2664510">
        <ele>1395.2</ele>
        <time>2020-07-28T09:13:33Z</time>
      </trkpt>
      <trkpt lat="42.9596350" lon="-0.2666940">
        <ele>1394.4</ele>
        <time>2020-07-28T09:13:36Z</time>
      </trkpt>
      <trkpt lat="42.9596010" lon="-0.2668500">
        <ele>1394.0</ele>
        <time>2020-07-28T09:13:38Z</time>
      </trkpt>
      <trkpt lat="42.9595170" lon="-0.2672990">
        <ele>1392.8</ele>
        <time>2020-07-28T09:13:44Z</time>
      </trkpt>
      <trkpt lat="42.9594420" lon="-0.2677220">
        <ele>1392.4</ele>
        <time>2020-07-28T09:13:50Z</time>
      </trkpt>
      <trkpt lat="42.9594320" lon="-0.2678700">
        <ele>1392.6</ele>
        <time>2020-07-28T09:13:52Z</time>
      </trkpt>
      <trkpt lat="42.9594050" lon="-0.2682630">
        <ele>1392.2</ele>
        <time>2020-07-28T09:13:57Z</time>
      </trkpt>
      <trkpt lat="42.9593970" lon="-0.2683410">
        <ele>1392.2</ele>
        <time>2020-07-28T09:13:58Z</time>
      </trkpt>
      <trkpt lat="42.9593700" lon="-0.2684910">
        <ele>1392.2</ele>
        <time>2020-07-28T09:14:00Z</time>
      </trkpt>
      <trkpt lat="42.9592670" lon="-0.2687330">
        <ele>1391.8</ele>
        <time>2020-07-28T09:14:04Z</time>
      </trkpt>
      <trkpt lat="42.9592370" lon="-0.2687910">
        <ele>1391.6</ele>
        <time>2020-07-28T09:14:05Z</time>
      </trkpt>
      <trkpt lat="42.9592030" lon="-0.2688520">
        <ele>1391.4</ele>
        <time>2020-07-28T09:14:06Z</time>
      </trkpt>
      <trkpt lat="42.9591650" lon="-0.2689180">
        <ele>1391.0</ele>
        <time>2020-07-28T09:14:07Z</time>
      </trkpt>
      <trkpt lat="42.9591190" lon="-0.2689900">
        <ele>1390.8</ele>
        <time>2020-07-28T09:14:08Z</time>
      </trkpt>
      <trkpt lat="42.9590740" lon="-0.2690570">
        <ele>1390.4</ele>
        <time>2020-07-28T09:14:09Z</time>
      </trkpt>
      <trkpt lat="42.9590270" lon="-0.2691180">
        <ele>1390.2</ele>
        <time>2020-07-28T09:14:10Z</time>
      </trkpt>
      <trkpt lat="42.9589810" lon="-0.2691680">
        <ele>1390.2</ele>
        <time>2020-07-28T09:14:11Z</time>
      </trkpt>
      <trkpt lat="42.9588990" lon="-0.2692630">
        <ele>1390.4</ele>
        <time>2020-07-28T09:14:13Z</time>
      </trkpt>
      <trkpt lat="42.9588680" lon="-0.2693120">
        <ele>1390.8</ele>
        <time>2020-07-28T09:14:14Z</time>
      </trkpt>
      <trkpt lat="42.9588170" lon="-0.2694220">
        <ele>1391.0</ele>
        <time>2020-07-28T09:14:16Z</time>
      </trkpt>
      <trkpt lat="42.9587610" lon="-0.2696230">
        <ele>1390.8</ele>
        <time>2020-07-28T09:14:19Z</time>
      </trkpt>
      <trkpt lat="42.9586240" lon="-0.2700600">
        <ele>1390.4</ele>
        <time>2020-07-28T09:14:25Z</time>
      </trkpt>
      <trkpt lat="42.9585890" lon="-0.2701280">
        <ele>1390.4</ele>
        <time>2020-07-28T09:14:26Z</time>
      </trkpt>
      <trkpt lat="42.9585520" lon="-0.2701910">
        <ele>1390.4</ele>
        <time>2020-07-28T09:14:27Z</time>
      </trkpt>
      <trkpt lat="42.9585150" lon="-0.2702520">
        <ele>1390.4</ele>
        <time>2020-07-28T09:14:28Z</time>
      </trkpt>
      <trkpt lat="42.9584310" lon="-0.2703810">
        <ele>1390.2</ele>
        <time>2020-07-28T09:14:30Z</time>
      </trkpt>
      <trkpt lat="42.9583930" lon="-0.2704490">
        <ele>1390.0</ele>
        <time>2020-07-28T09:14:31Z</time>
      </trkpt>
      <trkpt lat="42.9583290" lon="-0.2705950">
        <ele>1389.4</ele>
        <time>2020-07-28T09:14:33Z</time>
      </trkpt>
      <trkpt lat="42.9582990" lon="-0.2707680">
        <ele>1389.0</ele>
        <time>2020-07-28T09:14:35Z</time>
      </trkpt>
      <trkpt lat="42.9583040" lon="-0.2708580">
        <ele>1389.0</ele>
        <time>2020-07-28T09:14:36Z</time>
      </trkpt>
      <trkpt lat="42.9583150" lon="-0.2709460">
        <ele>1388.8</ele>
        <time>2020-07-28T09:14:37Z</time>
      </trkpt>
      <trkpt lat="42.9583270" lon="-0.2710330">
        <ele>1388.6</ele>
        <time>2020-07-28T09:14:38Z</time>
      </trkpt>
      <trkpt lat="42.9583580" lon="-0.2712950">
        <ele>1388.4</ele>
        <time>2020-07-28T09:14:41Z</time>
      </trkpt>
      <trkpt lat="42.9583670" lon="-0.2713840">
        <ele>1388.2</ele>
        <time>2020-07-28T09:14:42Z</time>
      </trkpt>
      <trkpt lat="42.9583730" lon="-0.2717980">
        <ele>1388.2</ele>
        <time>2020-07-28T09:14:47Z</time>
      </trkpt>
      <trkpt lat="42.9583560" lon="-0.2718750">
        <ele>1388.2</ele>
        <time>2020-07-28T09:14:48Z</time>
      </trkpt>
      <trkpt lat="42.9582220" lon="-0.2722870">
        <ele>1388.6</ele>
        <time>2020-07-28T09:14:54Z</time>
      </trkpt>
      <trkpt lat="42.9582020" lon="-0.2723530">
        <ele>1388.4</ele>
        <time>2020-07-28T09:14:55Z</time>
      </trkpt>
      <trkpt lat="42.9581390" lon="-0.2725480">
        <ele>1388.4</ele>
        <time>2020-07-28T09:14:58Z</time>
      </trkpt>
      <trkpt lat="42.9581200" lon="-0.2726130">
        <ele>1388.4</ele>
        <time>2020-07-28T09:14:59Z</time>
      </trkpt>
      <trkpt lat="42.9580750" lon="-0.2728770">
        <ele>1388.0</ele>
        <time>2020-07-28T09:15:03Z</time>
      </trkpt>
      <trkpt lat="42.9580780" lon="-0.2729470">
        <ele>1388.0</ele>
        <time>2020-07-28T09:15:04Z</time>
      </trkpt>
      <trkpt lat="42.9581030" lon="-0.2731590">
        <ele>1388.0</ele>
        <time>2020-07-28T09:15:07Z</time>
      </trkpt>
      <trkpt lat="42.9581100" lon="-0.2732300">
        <ele>1388.0</ele>
        <time>2020-07-28T09:15:08Z</time>
      </trkpt>
      <trkpt lat="42.9581190" lon="-0.2733010">
        <ele>1388.0</ele>
        <time>2020-07-28T09:15:09Z</time>
      </trkpt>
      <trkpt lat="42.9581280" lon="-0.2733750">
        <ele>1388.0</ele>
        <time>2020-07-28T09:15:10Z</time>
      </trkpt>
      <trkpt lat="42.9582050" lon="-0.2736710">
        <ele>1387.2</ele>
        <time>2020-07-28T09:15:14Z</time>
      </trkpt>
      <trkpt lat="42.9582320" lon="-0.2737460">
        <ele>1386.8</ele>
        <time>2020-07-28T09:15:15Z</time>
      </trkpt>
      <trkpt lat="42.9583680" lon="-0.2740430">
        <ele>1385.8</ele>
        <time>2020-07-28T09:15:19Z</time>
      </trkpt>
      <trkpt lat="42.9584080" lon="-0.2741120">
        <ele>1385.4</ele>
        <time>2020-07-28T09:15:20Z</time>
      </trkpt>
      <trkpt lat="42.9584410" lon="-0.2741830">
        <ele>1385.0</ele>
        <time>2020-07-28T09:15:21Z</time>
      </trkpt>
      <trkpt lat="42.9584660" lon="-0.2742530">
        <ele>1384.8</ele>
        <time>2020-07-28T09:15:22Z</time>
      </trkpt>
      <trkpt lat="42.9584830" lon="-0.2743230">
        <ele>1384.8</ele>
        <time>2020-07-28T09:15:23Z</time>
      </trkpt>
      <trkpt lat="42.9584900" lon="-0.2743930">
        <ele>1384.6</ele>
        <time>2020-07-28T09:15:24Z</time>
      </trkpt>
      <trkpt lat="42.9584950" lon="-0.2744570">
        <ele>1384.4</ele>
        <time>2020-07-28T09:15:25Z</time>
      </trkpt>
      <trkpt lat="42.9584880" lon="-0.2745170">
        <ele>1384.4</ele>
        <time>2020-07-28T09:15:26Z</time>
      </trkpt>
      <trkpt lat="42.9584200" lon="-0.2746830">
        <ele>1384.2</ele>
        <time>2020-07-28T09:15:29Z</time>
      </trkpt>
      <trkpt lat="42.9583470" lon="-0.2748190">
        <ele>1383.4</ele>
        <time>2020-07-28T09:15:31Z</time>
      </trkpt>
      <trkpt lat="42.9582780" lon="-0.2749750">
        <ele>1382.0</ele>
        <time>2020-07-28T09:15:33Z</time>
      </trkpt>
      <trkpt lat="42.9582530" lon="-0.2750580">
        <ele>1381.4</ele>
        <time>2020-07-28T09:15:34Z</time>
      </trkpt>
      <trkpt lat="42.9582370" lon="-0.2751380">
        <ele>1381.0</ele>
        <time>2020-07-28T09:15:35Z</time>
      </trkpt>
      <trkpt lat="42.9582120" lon="-0.2753230">
        <ele>1380.4</ele>
        <time>2020-07-28T09:15:38Z</time>
      </trkpt>
      <trkpt lat="42.9582070" lon="-0.2753820">
        <ele>1380.2</ele>
        <time>2020-07-28T09:15:40Z</time>
      </trkpt>
      <trkpt lat="42.9582080" lon="-0.2753930">
        <ele>1380.2</ele>
        <time>2020-07-28T09:15:41Z</time>
      </trkpt>
      <trkpt lat="42.9554230" lon="-0.2786680">
        <ele>1338.6</ele>
        <time>2020-07-28T09:17:51Z</time>
      </trkpt>
      <trkpt lat="42.9554200" lon="-0.2787010">
        <ele>1338.6</ele>
        <time>2020-07-28T09:17:52Z</time>
      </trkpt>
      <trkpt lat="42.9554040" lon="-0.2789010">
        <ele>1337.8</ele>
        <time>2020-07-28T09:17:56Z</time>
      </trkpt>
      <trkpt lat="42.9553990" lon="-0.2789720">
        <ele>1337.6</ele>
        <time>2020-07-28T09:17:57Z</time>
      </trkpt>
      <trkpt lat="42.9553880" lon="-0.2791330">
        <ele>1336.4</ele>
        <time>2020-07-28T09:17:59Z</time>
      </trkpt>
      <trkpt lat="42.9553820" lon="-0.2792180">
        <ele>1335.8</ele>
        <time>2020-07-28T09:18:00Z</time>
      </trkpt>
      <trkpt lat="42.9553740" lon="-0.2793070">
        <ele>1335.2</ele>
        <time>2020-07-28T09:18:01Z</time>
      </trkpt>
      <trkpt lat="42.9553520" lon="-0.2794930">
        <ele>1333.6</ele>
        <time>2020-07-28T09:18:03Z</time>
      </trkpt>
      <trkpt lat="42.9553350" lon="-0.2796730">
        <ele>1332.2</ele>
        <time>2020-07-28T09:18:05Z</time>
      </trkpt>
      <trkpt lat="42.9553050" lon="-0.2798490">
        <ele>1331.0</ele>
        <time>2020-07-28T09:18:07Z</time>
      </trkpt>
      <trkpt lat="42.9552870" lon="-0.2799340">
        <ele>1330.6</ele>
        <time>2020-07-28T09:18:08Z</time>
      </trkpt>
      <trkpt lat="42.9552570" lon="-0.2801110">
        <ele>1329.6</ele>
        <time>2020-07-28T09:18:10Z</time>
      </trkpt>
      <trkpt lat="42.9552310" lon="-0.2802940">
        <ele>1328.4</ele>
        <time>2020-07-28T09:18:12Z</time>
      </trkpt>
      <trkpt lat="42.9551940" lon="-0.2804620">
        <ele>1327.6</ele>
        <time>2020-07-28T09:18:14Z</time>
      </trkpt>
      <trkpt lat="42.9551620" lon="-0.2805400">
        <ele>1327.0</ele>
        <time>2020-07-28T09:18:15Z</time>
      </trkpt>
      <trkpt lat="42.9550870" lon="-0.2806880">
        <ele>1325.4</ele>
        <time>2020-07-28T09:18:17Z</time>
      </trkpt>
      <trkpt lat="42.9550470" lon="-0.2807620">
        <ele>1325.0</ele>
        <time>2020-07-28T09:18:18Z</time>
      </trkpt>
      <trkpt lat="42.9550100" lon="-0.2808350">
        <ele>1324.4</ele>
        <time>2020-07-28T09:18:19Z</time>
      </trkpt>
      <trkpt lat="42.9549240" lon="-0.2810770">
        <ele>1323.0</ele>
        <time>2020-07-28T09:18:22Z</time>
      </trkpt>
      <trkpt lat="42.9549190" lon="-0.2811680">
        <ele>1322.4</ele>
        <time>2020-07-28T09:18:23Z</time>
      </trkpt>
      <trkpt lat="42.9549280" lon="-0.2812580">
        <ele>1321.6</ele>
        <time>2020-07-28T09:18:24Z</time>
      </trkpt>
      <trkpt lat="42.9549790" lon="-0.2814300">
        <ele>1320.4</ele>
        <time>2020-07-28T09:18:26Z</time>
      </trkpt>
      <trkpt lat="42.9550600" lon="-0.2816750">
        <ele>1318.8</ele>
        <time>2020-07-28T09:18:29Z</time>
      </trkpt>
      <trkpt lat="42.9550910" lon="-0.2818480">
        <ele>1317.0</ele>
        <time>2020-07-28T09:18:31Z</time>
      </trkpt>
      <trkpt lat="42.9550960" lon="-0.2819360">
        <ele>1316.4</ele>
        <time>2020-07-28T09:18:32Z</time>
      </trkpt>
      <trkpt lat="42.9550980" lon="-0.2820270">
        <ele>1315.8</ele>
        <time>2020-07-28T09:18:33Z</time>
      </trkpt>
      <trkpt lat="42.9550840" lon="-0.2822180">
        <ele>1314.8</ele>
        <time>2020-07-28T09:18:35Z</time>
      </trkpt>
      <trkpt lat="42.9550730" lon="-0.2823180">
        <ele>1314.4</ele>
        <time>2020-07-28T09:18:36Z</time>
      </trkpt>
      <trkpt lat="42.9550630" lon="-0.2824170">
        <ele>1314.0</ele>
        <time>2020-07-28T09:18:37Z</time>
      </trkpt>
      <trkpt lat="42.9550400" lon="-0.2826200">
        <ele>1313.0</ele>
        <time>2020-07-28T09:18:39Z</time>
      </trkpt>
      <trkpt lat="42.9550230" lon="-0.2829160">
        <ele>1311.6</ele>
        <time>2020-07-28T09:18:42Z</time>
      </trkpt>
      <trkpt lat="42.9550160" lon="-0.2830100">
        <ele>1311.2</ele>
        <time>2020-07-28T09:18:43Z</time>
      </trkpt>
      <trkpt lat="42.9550060" lon="-0.2831020">
        <ele>1311.0</ele>
        <time>2020-07-28T09:18:44Z</time>
      </trkpt>
      <trkpt lat="42.9549610" lon="-0.2833530">
        <ele>1310.6</ele>
        <time>2020-07-28T09:18:47Z</time>
      </trkpt>
      <trkpt lat="42.9549600" lon="-0.2834300">
        <ele>1310.8</ele>
        <time>2020-07-28T09:18:48Z</time>
      </trkpt>
      <trkpt lat="42.9549700" lon="-0.2835030">
        <ele>1310.8</ele>
        <time>2020-07-28T09:18:49Z</time>
      </trkpt>
      <trkpt lat="42.9549940" lon="-0.2835760">
        <ele>1310.8</ele>
        <time>2020-07-28T09:18:50Z</time>
      </trkpt>
      <trkpt lat="42.9550840" lon="-0.2837660">
        <ele>1310.6</ele>
        <time>2020-07-28T09:18:53Z</time>
      </trkpt>
      <trkpt lat="42.9551260" lon="-0.2838820">
        <ele>1310.6</ele>
        <time>2020-07-28T09:18:55Z</time>
      </trkpt>
      <trkpt lat="42.9551250" lon="-0.2840520">
        <ele>1310.8</ele>
        <time>2020-07-28T09:18:58Z</time>
      </trkpt>
      <trkpt lat="42.9550940" lon="-0.2842370">
        <ele>1311.0</ele>
        <time>2020-07-28T09:19:01Z</time>
      </trkpt>
      <trkpt lat="42.9550790" lon="-0.2843020">
        <ele>1311.2</ele>
        <time>2020-07-28T09:19:02Z</time>
      </trkpt>
      <trkpt lat="42.9550390" lon="-0.2844350">
        <ele>1311.2</ele>
        <time>2020-07-28T09:19:04Z</time>
      </trkpt>
      <trkpt lat="42.9549890" lon="-0.2845680">
        <ele>1311.2</ele>
        <time>2020-07-28T09:19:06Z</time>
      </trkpt>
      <trkpt lat="42.9549060" lon="-0.2847330">
        <ele>1311.4</ele>
        <time>2020-07-28T09:19:09Z</time>
      </trkpt>
      <trkpt lat="42.9548110" lon="-0.2848930">
        <ele>1311.6</ele>
        <time>2020-07-28T09:19:12Z</time>
      </trkpt>
      <trkpt lat="42.9546590" lon="-0.2851810">
        <ele>1311.6</ele>
        <time>2020-07-28T09:19:17Z</time>
      </trkpt>
      <trkpt lat="42.9545070" lon="-0.2855510">
        <ele>1311.8</ele>
        <time>2020-07-28T09:19:23Z</time>
      </trkpt>
      <trkpt lat="42.9544770" lon="-0.2856080">
        <ele>1311.8</ele>
        <time>2020-07-28T09:19:24Z</time>
      </trkpt>
      <trkpt lat="42.9542680" lon="-0.2859360">
        <ele>1312.2</ele>
        <time>2020-07-28T09:19:30Z</time>
      </trkpt>
      <trkpt lat="42.9542440" lon="-0.2859950">
        <ele>1312.4</ele>
        <time>2020-07-28T09:19:31Z</time>
      </trkpt>
      <trkpt lat="42.9542040" lon="-0.2861180">
        <ele>1312.8</ele>
        <time>2020-07-28T09:19:33Z</time>
      </trkpt>
      <trkpt lat="42.9541210" lon="-0.2863450">
        <ele>1313.8</ele>
        <time>2020-07-28T09:19:37Z</time>
      </trkpt>
      <trkpt lat="42.9540680" lon="-0.2864540">
        <ele>1314.0</ele>
        <time>2020-07-28T09:19:39Z</time>
      </trkpt>
      <trkpt lat="42.9540380" lon="-0.2865070">
        <ele>1314.0</ele>
        <time>2020-07-28T09:19:40Z</time>
      </trkpt>
      <trkpt lat="42.9539530" lon="-0.2866800">
        <ele>1314.2</ele>
        <time>2020-07-28T09:19:43Z</time>
      </trkpt>
      <trkpt lat="42.9539280" lon="-0.2868140">
        <ele>1314.2</ele>
        <time>2020-07-28T09:19:45Z</time>
      </trkpt>
      <trkpt lat="42.9539430" lon="-0.2869530">
        <ele>1314.0</ele>
        <time>2020-07-28T09:19:47Z</time>
      </trkpt>
      <trkpt lat="42.9539920" lon="-0.2870780">
        <ele>1314.0</ele>
        <time>2020-07-28T09:19:49Z</time>
      </trkpt>
      <trkpt lat="42.9540560" lon="-0.2871890">
        <ele>1314.0</ele>
        <time>2020-07-28T09:19:51Z</time>
      </trkpt>
      <trkpt lat="42.9542220" lon="-0.2875340">
        <ele>1314.4</ele>
        <time>2020-07-28T09:19:57Z</time>
      </trkpt>
      <trkpt lat="42.9542490" lon="-0.2875910">
        <ele>1314.6</ele>
        <time>2020-07-28T09:19:58Z</time>
      </trkpt>
      <trkpt lat="42.9543510" lon="-0.2878300">
        <ele>1314.8</ele>
        <time>2020-07-28T09:20:02Z</time>
      </trkpt>
      <trkpt lat="42.9543810" lon="-0.2879600">
        <ele>1315.0</ele>
        <time>2020-07-28T09:20:04Z</time>
      </trkpt>
      <trkpt lat="42.9543920" lon="-0.2880280">
        <ele>1315.0</ele>
        <time>2020-07-28T09:20:05Z</time>
      </trkpt>
      <trkpt lat="42.9544370" lon="-0.2883670">
        <ele>1315.0</ele>
        <time>2020-07-28T09:20:10Z</time>
      </trkpt>
      <trkpt lat="42.9544510" lon="-0.2884320">
        <ele>1315.2</ele>
        <time>2020-07-28T09:20:11Z</time>
      </trkpt>
      <trkpt lat="42.9544690" lon="-0.2884940">
        <ele>1315.2</ele>
        <time>2020-07-28T09:20:12Z</time>
      </trkpt>
      <trkpt lat="42.9545210" lon="-0.2886070">
        <ele>1315.2</ele>
        <time>2020-07-28T09:20:14Z</time>
      </trkpt>
      <trkpt lat="42.9546100" lon="-0.2887700">
        <ele>1315.2</ele>
        <time>2020-07-28T09:20:17Z</time>
      </trkpt>
      <trkpt lat="42.9546830" lon="-0.2888640">
        <ele>1315.0</ele>
        <time>2020-07-28T09:20:19Z</time>
      </trkpt>
      <trkpt lat="42.9548060" lon="-0.2889820">
        <ele>1315.2</ele>
        <time>2020-07-28T09:20:22Z</time>
      </trkpt>
      <trkpt lat="42.9550200" lon="-0.2892460">
        <ele>1315.2</ele>
        <time>2020-07-28T09:20:28Z</time>
      </trkpt>
      <trkpt lat="42.9550440" lon="-0.2893000">
        <ele>1315.2</ele>
        <time>2020-07-28T09:20:29Z</time>
      </trkpt>
      <trkpt lat="42.9550630" lon="-0.2893560">
        <ele>1315.2</ele>
        <time>2020-07-28T09:20:30Z</time>
      </trkpt>
      <trkpt lat="42.9551110" lon="-0.2896220">
        <ele>1315.6</ele>
        <time>2020-07-28T09:20:34Z</time>
      </trkpt>
      <trkpt lat="42.9551660" lon="-0.2897420">
        <ele>1315.8</ele>
        <time>2020-07-28T09:20:36Z</time>
      </trkpt>
      <trkpt lat="42.9552400" lon="-0.2898310">
        <ele>1316.0</ele>
        <time>2020-07-28T09:20:38Z</time>
      </trkpt>
      <trkpt lat="42.9554700" lon="-0.2900840">
        <ele>1315.8</ele>
        <time>2020-07-28T09:20:44Z</time>
      </trkpt>
      <trkpt lat="42.9555500" lon="-0.2901740">
        <ele>1316.0</ele>
        <time>2020-07-28T09:20:46Z</time>
      </trkpt>
      <trkpt lat="42.9555890" lon="-0.2902180">
        <ele>1316.2</ele>
        <time>2020-07-28T09:20:47Z</time>
      </trkpt>
      <trkpt lat="42.9557780" lon="-0.2904510">
        <ele>1316.6</ele>
        <time>2020-07-28T09:20:53Z</time>
      </trkpt>
      <trkpt lat="42.9558530" lon="-0.2904820">
        <ele>1316.8</ele>
        <time>2020-07-28T09:20:59Z</time>
      </trkpt>
      <trkpt lat="42.9559290" lon="-0.2905130">
        <ele>1316.0</ele>
        <time>2020-07-28T09:21:05Z</time>
      </trkpt>
      <trkpt lat="42.9560040" lon="-0.2905440">
        <ele>1316.4</ele>
        <time>2020-07-28T09:21:11Z</time>
      </trkpt>
      <trkpt lat="42.9560800" lon="-0.2905750">
        <ele>1316.8</ele>
        <time>2020-07-28T09:21:17Z</time>
      </trkpt>
      <trkpt lat="42.9561550" lon="-0.2906050">
        <ele>1317.2</ele>
        <time>2020-07-28T09:21:20Z</time>
      </trkpt>
      <trkpt lat="42.9562300" lon="-0.2906360">
        <ele>1317.0</ele>
        <time>2020-07-28T09:21:26Z</time>
      </trkpt>
      <trkpt lat="42.9563060" lon="-0.2906670">
        <ele>1317.4</ele>
        <time>2020-07-28T09:21:32Z</time>
      </trkpt>
      <trkpt lat="42.9563810" lon="-0.2906980">
        <ele>1317.6</ele>
        <time>2020-07-28T09:21:38Z</time>
      </trkpt>
      <trkpt lat="42.9564570" lon="-0.2907290">
        <ele>1317.6</ele>
        <time>2020-07-28T09:21:44Z</time>
      </trkpt>
      <trkpt lat="42.9565320" lon="-0.2907600">
        <ele>1317.8</ele>
        <time>2020-07-28T09:21:46Z</time>
      </trkpt>
      <trkpt lat="42.9576640" lon="-0.2912240">
        <ele>1318.0</ele>
        <time>2020-07-28T09:21:49Z</time>
      </trkpt>
      <trkpt lat="42.9576640" lon="-0.2912240">
        <ele>1318.2</ele>
        <time>2020-07-28T09:21:51Z</time>
      </trkpt>
      <trkpt lat="42.9578510" lon="-0.2911400">
        <ele>1318.2</ele>
        <time>2020-07-28T09:21:53Z</time>
      </trkpt>
      <trkpt lat="42.9580460" lon="-0.2911400">
        <ele>1318.4</ele>
        <time>2020-07-28T09:21:58Z</time>
      </trkpt>
      <trkpt lat="42.9580880" lon="-0.2912960">
        <ele>1318.4</ele>
        <time>2020-07-28T09:22:01Z</time>
      </trkpt>
      <trkpt lat="42.9580890" lon="-0.2913570">
        <ele>1318.4</ele>
        <time>2020-07-28T09:22:02Z</time>
      </trkpt>
      <trkpt lat="42.9580890" lon="-0.2915310">
        <ele>1318.6</ele>
        <time>2020-07-28T09:22:05Z</time>
      </trkpt>
      <trkpt lat="42.9580870" lon="-0.2915920">
        <ele>1318.8</ele>
        <time>2020-07-28T09:22:06Z</time>
      </trkpt>
      <trkpt lat="42.9580940" lon="-0.2916490">
        <ele>1319.0</ele>
        <time>2020-07-28T09:22:07Z</time>
      </trkpt>
      <trkpt lat="42.9581070" lon="-0.2917040">
        <ele>1319.0</ele>
        <time>2020-07-28T09:22:08Z</time>
      </trkpt>
      <trkpt lat="42.9581280" lon="-0.2917550">
        <ele>1319.2</ele>
        <time>2020-07-28T09:22:09Z</time>
      </trkpt>
      <trkpt lat="42.9581920" lon="-0.2918440">
        <ele>1319.2</ele>
        <time>2020-07-28T09:22:11Z</time>
      </trkpt>
      <trkpt lat="42.9582220" lon="-0.2918850">
        <ele>1319.2</ele>
        <time>2020-07-28T09:22:12Z</time>
      </trkpt>
      <trkpt lat="42.9582520" lon="-0.2919300">
        <ele>1319.4</ele>
        <time>2020-07-28T09:22:13Z</time>
      </trkpt>
      <trkpt lat="42.9583520" lon="-0.2921290">
        <ele>1319.4</ele>
        <time>2020-07-28T09:22:17Z</time>
      </trkpt>
      <trkpt lat="42.9583700" lon="-0.2921830">
        <ele>1319.6</ele>
        <time>2020-07-28T09:22:18Z</time>
      </trkpt>
      <trkpt lat="42.9583840" lon="-0.2922360">
        <ele>1319.6</ele>
        <time>2020-07-28T09:22:19Z</time>
      </trkpt>
      <trkpt lat="42.9583910" lon="-0.2923570">
        <ele>1319.6</ele>
        <time>2020-07-28T09:22:21Z</time>
      </trkpt>
      <trkpt lat="42.9583770" lon="-0.2924700">
        <ele>1320.0</ele>
        <time>2020-07-28T09:22:23Z</time>
      </trkpt>
      <trkpt lat="42.9583400" lon="-0.2926240">
        <ele>1320.2</ele>
        <time>2020-07-28T09:22:26Z</time>
      </trkpt>
      <trkpt lat="42.9583290" lon="-0.2927850">
        <ele>1320.6</ele>
        <time>2020-07-28T09:22:29Z</time>
      </trkpt>
      <trkpt lat="42.9583500" lon="-0.2928930">
        <ele>1320.6</ele>
        <time>2020-07-28T09:22:31Z</time>
      </trkpt>
      <trkpt lat="42.9583680" lon="-0.2929460">
        <ele>1320.8</ele>
        <time>2020-07-28T09:22:32Z</time>
      </trkpt>
      <trkpt lat="42.9583920" lon="-0.2929950">
        <ele>1320.8</ele>
        <time>2020-07-28T09:22:33Z</time>
      </trkpt>
      <trkpt lat="42.9584180" lon="-0.2930430">
        <ele>1320.8</ele>
        <time>2020-07-28T09:22:34Z</time>
      </trkpt>
      <trkpt lat="42.9584490" lon="-0.2930840">
        <ele>1320.8</ele>
        <time>2020-07-28T09:22:35Z</time>
      </trkpt>
      <trkpt lat="42.9585540" lon="-0.2931830">
        <ele>1321.0</ele>
        <time>2020-07-28T09:22:38Z</time>
      </trkpt>
      <trkpt lat="42.9585870" lon="-0.2932200">
        <ele>1321.0</ele>
        <time>2020-07-28T09:22:39Z</time>
      </trkpt>
      <trkpt lat="42.9587630" lon="-0.2934970">
        <ele>1321.4</ele>
        <time>2020-07-28T09:22:45Z</time>
      </trkpt>
      <trkpt lat="42.9589000" lon="-0.2937830">
        <ele>1321.6</ele>
        <time>2020-07-28T09:22:51Z</time>
      </trkpt>
      <trkpt lat="42.9589550" lon="-0.2938620">
        <ele>1322.0</ele>
        <time>2020-07-28T09:22:53Z</time>
      </trkpt>
      <trkpt lat="42.9590140" lon="-0.2939330">
        <ele>1322.4</ele>
        <time>2020-07-28T09:22:55Z</time>
      </trkpt>
      <trkpt lat="42.9591970" lon="-0.2941490">
        <ele>1323.0</ele>
        <time>2020-07-28T09:23:01Z</time>
      </trkpt>
      <trkpt lat="42.9592270" lon="-0.2941850">
        <ele>1323.0</ele>
        <time>2020-07-28T09:23:02Z</time>
      </trkpt>
      <trkpt lat="42.9593400" lon="-0.2943360">
        <ele>1323.4</ele>
        <time>2020-07-28T09:23:06Z</time>
      </trkpt>
      <trkpt lat="42.9594240" lon="-0.2945000">
        <ele>1324.0</ele>
        <time>2020-07-28T09:23:10Z</time>
      </trkpt>
      <trkpt lat="42.9594590" lon="-0.2947310">
        <ele>1324.6</ele>
        <time>2020-07-28T09:23:15Z</time>
      </trkpt>
      <trkpt lat="42.9594590" lon="-0.2947750">
        <ele>1324.8</ele>
        <time>2020-07-28T09:23:16Z</time>
      </trkpt>
      <trkpt lat="42.9594590" lon="-0.2947750">
        <ele>1325.0</ele>
        <time>2020-07-28T09:23:22Z</time>
      </trkpt>
      <trkpt lat="42.9594590" lon="-0.2947750">
        <ele>1325.4</ele>
        <time>2020-07-28T09:23:28Z</time>
      </trkpt>
      <trkpt lat="42.9594590" lon="-0.2947750">
        <ele>1325.6</ele>
        <time>2020-07-28T09:23:32Z</time>
      </trkpt>
      <trkpt lat="42.9594590" lon="-0.2947750">
        <ele>1326.8</ele>
        <time>2020-07-28T09:23:38Z</time>
      </trkpt>
      <trkpt lat="42.9594590" lon="-0.2947750">
        <ele>1327.0</ele>
        <time>2020-07-28T09:23:44Z</time>
      </trkpt>
      <trkpt lat="42.9594590" lon="-0.2947750">
        <ele>1326.6</ele>
        <time>2020-07-28T09:23:50Z</time>
      </trkpt>
      <trkpt lat="42.9594590" lon="-0.2947750">
        <ele>1326.2</ele>
        <time>2020-07-28T09:23:56Z</time>
      </trkpt>
      <trkpt lat="42.9594590" lon="-0.2947750">
        <ele>1326.6</ele>
        <time>2020-07-28T09:24:01Z</time>
      </trkpt>
      <trkpt lat="42.9594590" lon="-0.2947750">
        <ele>1327.0</ele>
        <time>2020-07-28T09:24:07Z</time>
      </trkpt>
      <trkpt lat="42.9594590" lon="-0.2947750">
        <ele>1327.0</ele>
        <time>2020-07-28T09:24:08Z</time>
      </trkpt>
      <trkpt lat="42.9594590" lon="-0.2947750">
        <ele>1327.0</ele>
        <time>2020-07-28T09:24:14Z</time>
      </trkpt>
      <trkpt lat="42.9594590" lon="-0.2947750">
        <ele>1327.0</ele>
        <time>2020-07-28T09:24:17Z</time>
      </trkpt>
      <trkpt lat="42.9602780" lon="-0.2958470">
        <ele>1327.6</ele>
        <time>2020-07-28T09:24:23Z</time>
      </trkpt>
      <trkpt lat="42.9602940" lon="-0.2958600">
        <ele>1327.6</ele>
        <time>2020-07-28T09:24:24Z</time>
      </trkpt>
      <trkpt lat="42.9603890" lon="-0.2959670">
        <ele>1327.8</ele>
        <time>2020-07-28T09:24:30Z</time>
      </trkpt>
      <trkpt lat="42.9604020" lon="-0.2959990">
        <ele>1328.0</ele>
        <time>2020-07-28T09:24:31Z</time>
      </trkpt>
      <trkpt lat="42.9604980" lon="-0.2961930">
        <ele>1328.4</ele>
        <time>2020-07-28T09:24:37Z</time>
      </trkpt>
      <trkpt lat="42.9605260" lon="-0.2962610">
        <ele>1328.4</ele>
        <time>2020-07-28T09:24:39Z</time>
      </trkpt>
      <trkpt lat="42.9605990" lon="-0.2964320">
        <ele>1328.8</ele>
        <time>2020-07-28T09:24:44Z</time>
      </trkpt>
      <trkpt lat="42.9606170" lon="-0.2964660">
        <ele>1328.8</ele>
        <time>2020-07-28T09:24:45Z</time>
      </trkpt>
      <trkpt lat="42.9606510" lon="-0.2965370">
        <ele>1329.0</ele>
        <time>2020-07-28T09:24:47Z</time>
      </trkpt>
      <trkpt lat="42.9607380" lon="-0.2967760">
        <ele>1329.4</ele>
        <time>2020-07-28T09:24:53Z</time>
      </trkpt>
      <trkpt lat="42.9607700" lon="-0.2968550">
        <ele>1329.4</ele>
        <time>2020-07-28T09:24:55Z</time>
      </trkpt>
      <trkpt lat="42.9608300" lon="-0.2970140">
        <ele>1329.8</ele>
        <time>2020-07-28T09:24:59Z</time>
      </trkpt>
      <trkpt lat="42.9609240" lon="-0.2972310">
        <ele>1330.2</ele>
        <time>2020-07-28T09:25:05Z</time>
      </trkpt>
      <trkpt lat="42.9610490" lon="-0.2974290">
        <ele>1330.6</ele>
        <time>2020-07-28T09:25:11Z</time>
      </trkpt>
      <trkpt lat="42.9610820" lon="-0.2974590">
        <ele>1330.6</ele>
        <time>2020-07-28T09:25:12Z</time>
      </trkpt>
      <trkpt lat="42.9611870" lon="-0.2975520">
        <ele>1331.0</ele>
        <time>2020-07-28T09:25:15Z</time>
      </trkpt>
      <trkpt lat="42.9613600" lon="-0.2977120">
        <ele>1331.8</ele>
        <time>2020-07-28T09:25:20Z</time>
      </trkpt>
      <trkpt lat="42.9613960" lon="-0.2977390">
        <ele>1331.8</ele>
        <time>2020-07-28T09:25:21Z</time>
      </trkpt>
      <trkpt lat="42.9614320" lon="-0.2977640">
        <ele>1332.0</ele>
        <time>2020-07-28T09:25:22Z</time>
      </trkpt>
      <trkpt lat="42.9616270" lon="-0.2978570">
        <ele>1332.6</ele>
        <time>2020-07-28T09:25:27Z</time>
      </trkpt>
      <trkpt lat="42.9617710" lon="-0.2979620">
        <ele>1332.8</ele>
        <time>2020-07-28T09:25:31Z</time>
      </trkpt>
      <trkpt lat="42.9618000" lon="-0.2980020">
        <ele>1333.0</ele>
        <time>2020-07-28T09:25:32Z</time>
      </trkpt>
      <trkpt lat="42.9618280" lon="-0.2980430">
        <ele>1333.0</ele>
        <time>2020-07-28T09:25:33Z</time>
      </trkpt>
      <trkpt lat="42.9619120" lon="-0.2982190">
        <ele>1332.8</ele>
        <time>2020-07-28T09:25:37Z</time>
      </trkpt>
      <trkpt lat="42.9619530" lon="-0.2982950">
        <ele>1332.8</ele>
        <time>2020-07-28T09:25:39Z</time>
      </trkpt>
      <trkpt lat="42.9620810" lon="-0.2985790">
        <ele>1333.6</ele>
        <time>2020-07-28T09:25:45Z</time>
      </trkpt>
      <trkpt lat="42.9621310" lon="-0.2986740">
        <ele>1333.8</ele>
        <time>2020-07-28T09:25:47Z</time>
      </trkpt>
      <trkpt lat="42.9621560" lon="-0.2987230">
        <ele>1334.0</ele>
        <time>2020-07-28T09:25:48Z</time>
      </trkpt>
      <trkpt lat="42.9623320" lon="-0.2989820">
        <ele>1334.6</ele>
        <time>2020-07-28T09:25:54Z</time>
      </trkpt>
      <trkpt lat="42.9624580" lon="-0.2991920">
        <ele>1335.2</ele>
        <time>2020-07-28T09:25:59Z</time>
      </trkpt>
      <trkpt lat="42.9625080" lon="-0.2992830">
        <ele>1335.4</ele>
        <time>2020-07-28T09:26:01Z</time>
      </trkpt>
      <trkpt lat="42.9625380" lon="-0.2993240">
        <ele>1335.6</ele>
        <time>2020-07-28T09:26:02Z</time>
      </trkpt>
      <trkpt lat="42.9625960" lon="-0.2994000">
        <ele>1335.6</ele>
        <time>2020-07-28T09:26:04Z</time>
      </trkpt>
      <trkpt lat="42.9626450" lon="-0.2994780">
        <ele>1335.8</ele>
        <time>2020-07-28T09:26:06Z</time>
      </trkpt>
      <trkpt lat="42.9626790" lon="-0.2995650">
        <ele>1335.8</ele>
        <time>2020-07-28T09:26:08Z</time>
      </trkpt>
      <trkpt lat="42.9626940" lon="-0.2996100">
        <ele>1336.0</ele>
        <time>2020-07-28T09:26:09Z</time>
      </trkpt>
      <trkpt lat="42.9627250" lon="-0.2996990">
        <ele>1336.0</ele>
        <time>2020-07-28T09:26:11Z</time>
      </trkpt>
      <trkpt lat="42.9627390" lon="-0.2997470">
        <ele>1336.0</ele>
        <time>2020-07-28T09:26:12Z</time>
      </trkpt>
      <trkpt lat="42.9627510" lon="-0.2997940">
        <ele>1336.2</ele>
        <time>2020-07-28T09:26:13Z</time>
      </trkpt>
      <trkpt lat="42.9627800" lon="-0.2999510">
        <ele>1336.2</ele>
        <time>2020-07-28T09:26:16Z</time>
      </trkpt>
      <trkpt lat="42.9627920" lon="-0.3001200">
        <ele>1336.4</ele>
        <time>2020-07-28T09:26:19Z</time>
      </trkpt>
      <trkpt lat="42.9628210" lon="-0.3002870">
        <ele>1336.6</ele>
        <time>2020-07-28T09:26:22Z</time>
      </trkpt>
      <trkpt lat="42.9628860" lon="-0.3004380">
        <ele>1337.4</ele>
        <time>2020-07-28T09:26:25Z</time>
      </trkpt>
      <trkpt lat="42.9630240" lon="-0.3007520">
        <ele>1337.6</ele>
        <time>2020-07-28T09:26:31Z</time>
      </trkpt>
      <trkpt lat="42.9630580" lon="-0.3008620">
        <ele>1338.0</ele>
        <time>2020-07-28T09:26:33Z</time>
      </trkpt>
      <trkpt lat="42.9631160" lon="-0.3010150">
        <ele>1338.4</ele>
        <time>2020-07-28T09:26:36Z</time>
      </trkpt>
      <trkpt lat="42.9631960" lon="-0.3012100">
        <ele>1339.0</ele>
        <time>2020-07-28T09:26:40Z</time>
      </trkpt>
      <trkpt lat="42.9632980" lon="-0.3014600">
        <ele>1339.6</ele>
        <time>2020-07-28T09:26:45Z</time>
      </trkpt>
      <trkpt lat="42.9633330" lon="-0.3015630">
        <ele>1340.0</ele>
        <time>2020-07-28T09:26:47Z</time>
      </trkpt>
      <trkpt lat="42.9633650" lon="-0.3016630">
        <ele>1340.2</ele>
        <time>2020-07-28T09:26:49Z</time>
      </trkpt>
      <trkpt lat="42.9634070" lon="-0.3018750">
        <ele>1340.6</ele>
        <time>2020-07-28T09:26:53Z</time>
      </trkpt>
      <trkpt lat="42.9634420" lon="-0.3020280">
        <ele>1340.8</ele>
        <time>2020-07-28T09:26:56Z</time>
      </trkpt>
      <trkpt lat="42.9634530" lon="-0.3020780">
        <ele>1340.8</ele>
        <time>2020-07-28T09:26:57Z</time>
      </trkpt>
      <trkpt lat="42.9634920" lon="-0.3022260">
        <ele>1341.2</ele>
        <time>2020-07-28T09:27:00Z</time>
      </trkpt>
      <trkpt lat="42.9635410" lon="-0.3024190">
        <ele>1341.6</ele>
        <time>2020-07-28T09:27:04Z</time>
      </trkpt>
      <trkpt lat="42.9635520" lon="-0.3024690">
        <ele>1341.8</ele>
        <time>2020-07-28T09:27:05Z</time>
      </trkpt>
      <trkpt lat="42.9636580" lon="-0.3027700">
        <ele>1342.4</ele>
        <time>2020-07-28T09:27:11Z</time>
      </trkpt>
      <trkpt lat="42.9636930" lon="-0.3028730">
        <ele>1342.6</ele>
        <time>2020-07-28T09:27:13Z</time>
      </trkpt>
      <trkpt lat="42.9637060" lon="-0.3029280">
        <ele>1342.8</ele>
        <time>2020-07-28T09:27:14Z</time>
      </trkpt>
      <trkpt lat="42.9637350" lon="-0.3030380">
        <ele>1343.2</ele>
        <time>2020-07-28T09:27:16Z</time>
      </trkpt>
      <trkpt lat="42.9638520" lon="-0.3032640">
        <ele>1343.4</ele>
        <time>2020-07-28T09:27:21Z</time>
      </trkpt>
      <trkpt lat="42.9638920" lon="-0.3032780">
        <ele>1343.4</ele>
        <time>2020-07-28T09:27:22Z</time>
      </trkpt>
      <trkpt lat="42.9639740" lon="-0.3032750">
        <ele>1343.8</ele>
        <time>2020-07-28T09:27:24Z</time>
      </trkpt>
      <trkpt lat="42.9640140" lon="-0.3032670">
        <ele>1344.0</ele>
        <time>2020-07-28T09:27:25Z</time>
      </trkpt>
      <trkpt lat="42.9642100" lon="-0.3032190">
        <ele>1344.6</ele>
        <time>2020-07-28T09:27:30Z</time>
      </trkpt>
      <trkpt lat="42.9642830" lon="-0.3031730">
        <ele>1344.8</ele>
        <time>2020-07-28T09:27:32Z</time>
      </trkpt>
      <trkpt lat="42.9643130" lon="-0.3031420">
        <ele>1344.8</ele>
        <time>2020-07-28T09:27:33Z</time>
      </trkpt>
      <trkpt lat="42.9643400" lon="-0.3031020">
        <ele>1345.0</ele>
        <time>2020-07-28T09:27:34Z</time>
      </trkpt>
      <trkpt lat="42.9644150" lon="-0.3029780">
        <ele>1345.6</ele>
        <time>2020-07-28T09:27:37Z</time>
      </trkpt>
      <trkpt lat="42.9644980" lon="-0.3028880">
        <ele>1346.0</ele>
        <time>2020-07-28T09:27:40Z</time>
      </trkpt>
      <trkpt lat="42.9645680" lon="-0.3028340">
        <ele>1346.4</ele>
        <time>2020-07-28T09:27:42Z</time>
      </trkpt>
      <trkpt lat="42.9647200" lon="-0.3026890">
        <ele>1347.2</ele>
        <time>2020-07-28T09:27:47Z</time>
      </trkpt>
      <trkpt lat="42.9647700" lon="-0.3026330">
        <ele>1347.6</ele>
        <time>2020-07-28T09:27:49Z</time>
      </trkpt>
      <trkpt lat="42.9648780" lon="-0.3025340">
        <ele>1348.4</ele>
        <time>2020-07-28T09:27:53Z</time>
      </trkpt>
      <trkpt lat="42.9649810" lon="-0.3024520">
        <ele>1349.2</ele>
        <time>2020-07-28T09:27:57Z</time>
      </trkpt>
      <trkpt lat="42.9650310" lon="-0.3024130">
        <ele>1349.6</ele>
        <time>2020-07-28T09:27:59Z</time>
      </trkpt>
      <trkpt lat="42.9651500" lon="-0.3023140">
        <ele>1350.8</ele>
        <time>2020-07-28T09:28:04Z</time>
      </trkpt>
      <trkpt lat="42.9651720" lon="-0.3022930">
        <ele>1350.8</ele>
        <time>2020-07-28T09:28:05Z</time>
      </trkpt>
      <trkpt lat="42.9652580" lon="-0.3022150">
        <ele>1352.0</ele>
        <time>2020-07-28T09:28:09Z</time>
      </trkpt>
      <trkpt lat="42.9653520" lon="-0.3021440">
        <ele>1353.2</ele>
        <time>2020-07-28T09:28:13Z</time>
      </trkpt>
      <trkpt lat="42.9653760" lon="-0.3021280">
        <ele>1353.4</ele>
        <time>2020-07-28T09:28:14Z</time>
      </trkpt>
      <trkpt lat="42.9654230" lon="-0.3021010">
        <ele>1353.6</ele>
        <time>2020-07-28T09:28:16Z</time>
      </trkpt>
      <trkpt lat="42.9655190" lon="-0.3020490">
        <ele>1354.4</ele>
        <time>2020-07-28T09:28:20Z</time>
      </trkpt>
      <trkpt lat="42.9655700" lon="-0.3020210">
        <ele>1355.0</ele>
        <time>2020-07-28T09:28:22Z</time>
      </trkpt>
      <trkpt lat="42.9656430" lon="-0.3019740">
        <ele>1355.6</ele>
        <time>2020-07-28T09:28:25Z</time>
      </trkpt>
      <trkpt lat="42.9657180" lon="-0.3019220">
        <ele>1356.0</ele>
        <time>2020-07-28T09:28:28Z</time>
      </trkpt>
      <trkpt lat="42.9657690" lon="-0.3018900">
        <ele>1356.6</ele>
        <time>2020-07-28T09:28:30Z</time>
      </trkpt>
      <trkpt lat="42.9657940" lon="-0.3018760">
        <ele>1356.8</ele>
        <time>2020-07-28T09:28:31Z</time>
      </trkpt>
      <trkpt lat="42.9659230" lon="-0.3018110">
        <ele>1357.6</ele>
        <time>2020-07-28T09:28:36Z</time>
      </trkpt>
      <trkpt lat="42.9660110" lon="-0.3017930">
        <ele>1358.2</ele>
        <time>2020-07-28T09:28:39Z</time>
      </trkpt>
      <trkpt lat="42.9661230" lon="-0.3018560">
        <ele>1358.8</ele>
        <time>2020-07-28T09:28:43Z</time>
      </trkpt>
      <trkpt lat="42.9661500" lon="-0.3018880">
        <ele>1358.8</ele>
        <time>2020-07-28T09:28:44Z</time>
      </trkpt>
      <trkpt lat="42.9662810" lon="-0.3020960">
        <ele>1359.0</ele>
        <time>2020-07-28T09:28:49Z</time>
      </trkpt>
      <trkpt lat="42.9663030" lon="-0.3021420">
        <ele>1359.0</ele>
        <time>2020-07-28T09:28:50Z</time>
      </trkpt>
      <trkpt lat="42.9663240" lon="-0.3021890">
        <ele>1359.0</ele>
        <time>2020-07-28T09:28:51Z</time>
      </trkpt>
      <trkpt lat="42.9663670" lon="-0.3022780">
        <ele>1359.2</ele>
        <time>2020-07-28T09:28:53Z</time>
      </trkpt>
      <trkpt lat="42.9664700" lon="-0.3024880">
        <ele>1359.8</ele>
        <time>2020-07-28T09:28:58Z</time>
      </trkpt>
      <trkpt lat="42.9664910" lon="-0.3025310">
        <ele>1360.0</ele>
        <time>2020-07-28T09:28:59Z</time>
      </trkpt>
      <trkpt lat="42.9665690" lon="-0.3026370">
        <ele>1360.4</ele>
        <time>2020-07-28T09:29:02Z</time>
      </trkpt>
      <trkpt lat="42.9666320" lon="-0.3026820">
        <ele>1360.4</ele>
        <time>2020-07-28T09:29:04Z</time>
      </trkpt>
      <trkpt lat="42.9667300" lon="-0.3027200">
        <ele>1361.0</ele>
        <time>2020-07-28T09:29:07Z</time>
      </trkpt>
      <trkpt lat="42.9668310" lon="-0.3027200">
        <ele>1361.4</ele>
        <time>2020-07-28T09:29:10Z</time>
      </trkpt>
      <trkpt lat="42.9669120" lon="-0.3027100">
        <ele>1361.4</ele>
        <time>2020-07-28T09:29:12Z</time>
      </trkpt>
      <trkpt lat="42.9670000" lon="-0.3026830">
        <ele>1361.4</ele>
        <time>2020-07-28T09:29:14Z</time>
      </trkpt>
      <trkpt lat="42.9670450" lon="-0.3026560">
        <ele>1361.2</ele>
        <time>2020-07-28T09:29:15Z</time>
      </trkpt>
      <trkpt lat="42.9673080" lon="-0.3024230">
        <ele>1360.8</ele>
        <time>2020-07-28T09:29:21Z</time>
      </trkpt>
      <trkpt lat="42.9675570" lon="-0.3021640">
        <ele>1361.2</ele>
        <time>2020-07-28T09:29:27Z</time>
      </trkpt>
      <trkpt lat="42.9675950" lon="-0.3021280">
        <ele>1361.2</ele>
        <time>2020-07-28T09:29:28Z</time>
      </trkpt>
      <trkpt lat="42.9677010" lon="-0.3020400">
        <ele>1361.4</ele>
        <time>2020-07-28T09:29:31Z</time>
      </trkpt>
      <trkpt lat="42.9677640" lon="-0.3019890">
        <ele>1362.0</ele>
        <time>2020-07-28T09:29:33Z</time>
      </trkpt>
      <trkpt lat="42.9677980" lon="-0.3019670">
        <ele>1362.2</ele>
        <time>2020-07-28T09:29:34Z</time>
      </trkpt>
      <trkpt lat="42.9678690" lon="-0.3019390">
        <ele>1362.6</ele>
        <time>2020-07-28T09:29:36Z</time>
      </trkpt>
      <trkpt lat="42.9679910" lon="-0.3019250">
        <ele>1363.0</ele>
        <time>2020-07-28T09:29:39Z</time>
      </trkpt>
      <trkpt lat="42.9680340" lon="-0.3019300">
        <ele>1363.2</ele>
        <time>2020-07-28T09:29:40Z</time>
      </trkpt>
      <trkpt lat="42.9682870" lon="-0.3019830">
        <ele>1363.4</ele>
        <time>2020-07-28T09:29:46Z</time>
      </trkpt>
      <trkpt lat="42.9683230" lon="-0.3019800">
        <ele>1363.8</ele>
        <time>2020-07-28T09:29:47Z</time>
      </trkpt>
      <trkpt lat="42.9683520" lon="-0.3019730">
        <ele>1364.0</ele>
        <time>2020-07-28T09:29:48Z</time>
      </trkpt>
      <trkpt lat="42.9683770" lon="-0.3019600">
        <ele>1364.2</ele>
        <time>2020-07-28T09:29:49Z</time>
      </trkpt>
      <trkpt lat="42.9684260" lon="-0.3019230">
        <ele>1364.8</ele>
        <time>2020-07-28T09:29:51Z</time>
      </trkpt>
      <trkpt lat="42.9684780" lon="-0.3018670">
        <ele>1365.4</ele>
        <time>2020-07-28T09:29:53Z</time>
      </trkpt>
      <trkpt lat="42.9685020" lon="-0.3018340">
        <ele>1365.6</ele>
        <time>2020-07-28T09:29:54Z</time>
      </trkpt>
      <trkpt lat="42.9685250" lon="-0.3017980">
        <ele>1365.8</ele>
        <time>2020-07-28T09:29:55Z</time>
      </trkpt>
      <trkpt lat="42.9685680" lon="-0.3017200">
        <ele>1366.0</ele>
        <time>2020-07-28T09:29:57Z</time>
      </trkpt>
      <trkpt lat="42.9687110" lon="-0.3015360">
        <ele>1366.2</ele>
        <time>2020-07-28T09:30:02Z</time>
      </trkpt>
      <trkpt lat="42.9687740" lon="-0.3014710">
        <ele>1366.4</ele>
        <time>2020-07-28T09:30:04Z</time>
      </trkpt>
      <trkpt lat="42.9688390" lon="-0.3014140">
        <ele>1366.4</ele>
        <time>2020-07-28T09:30:06Z</time>
      </trkpt>
      <trkpt lat="42.9690320" lon="-0.3012230">
        <ele>1367.0</ele>
        <time>2020-07-28T09:30:12Z</time>
      </trkpt>
      <trkpt lat="42.9691770" lon="-0.3010860">
        <ele>1367.6</ele>
        <time>2020-07-28T09:30:16Z</time>
      </trkpt>
      <trkpt lat="42.9693300" lon="-0.3009710">
        <ele>1368.2</ele>
        <time>2020-07-28T09:30:20Z</time>
      </trkpt>
      <trkpt lat="42.9694950" lon="-0.3008760">
        <ele>1368.6</ele>
        <time>2020-07-28T09:30:24Z</time>
      </trkpt>
      <trkpt lat="42.9696430" lon="-0.3007750">
        <ele>1369.2</ele>
        <time>2020-07-28T09:30:28Z</time>
      </trkpt>
      <trkpt lat="42.9697920" lon="-0.3007100">
        <ele>1369.6</ele>
        <time>2020-07-28T09:30:32Z</time>
      </trkpt>
      <trkpt lat="42.9698920" lon="-0.3006460">
        <ele>1370.2</ele>
        <time>2020-07-28T09:30:35Z</time>
      </trkpt>
      <trkpt lat="42.9699540" lon="-0.3006120">
        <ele>1370.6</ele>
        <time>2020-07-28T09:30:37Z</time>
      </trkpt>
      <trkpt lat="42.9700480" lon="-0.3005550">
        <ele>1371.2</ele>
        <time>2020-07-28T09:30:40Z</time>
      </trkpt>
      <trkpt lat="42.9700730" lon="-0.3005570">
        <ele>1371.4</ele>
        <time>2020-07-28T09:30:41Z</time>
      </trkpt>
      <trkpt lat="42.9701220" lon="-0.3005880">
        <ele>1371.8</ele>
        <time>2020-07-28T09:30:43Z</time>
      </trkpt>
      <trkpt lat="42.9701640" lon="-0.3006420">
        <ele>1372.6</ele>
        <time>2020-07-28T09:30:45Z</time>
      </trkpt>
      <trkpt lat="42.9702010" lon="-0.3007050">
        <ele>1373.2</ele>
        <time>2020-07-28T09:30:47Z</time>
      </trkpt>
      <trkpt lat="42.9702420" lon="-0.3008440">
        <ele>1374.2</ele>
        <time>2020-07-28T09:30:51Z</time>
      </trkpt>
      <trkpt lat="42.9702520" lon="-0.3008800">
        <ele>1374.4</ele>
        <time>2020-07-28T09:30:52Z</time>
      </trkpt>
      <trkpt lat="42.9703020" lon="-0.3010300">
        <ele>1375.2</ele>
        <time>2020-07-28T09:30:56Z</time>
      </trkpt>
      <trkpt lat="42.9703720" lon="-0.3011780">
        <ele>1376.0</ele>
        <time>2020-07-28T09:31:00Z</time>
      </trkpt>
      <trkpt lat="42.9703930" lon="-0.3012100">
        <ele>1376.2</ele>
        <time>2020-07-28T09:31:01Z</time>
      </trkpt>
      <trkpt lat="42.9705350" lon="-0.3013440">
        <ele>1377.2</ele>
        <time>2020-07-28T09:31:06Z</time>
      </trkpt>
      <trkpt lat="42.9705650" lon="-0.3013720">
        <ele>1377.4</ele>
        <time>2020-07-28T09:31:07Z</time>
      </trkpt>
      <trkpt lat="42.9707070" lon="-0.3014810">
        <ele>1377.6</ele>
        <time>2020-07-28T09:31:11Z</time>
      </trkpt>
      <trkpt lat="42.9708460" lon="-0.3015980">
        <ele>1378.0</ele>
        <time>2020-07-28T09:31:15Z</time>
      </trkpt>
      <trkpt lat="42.9709940" lon="-0.3017400">
        <ele>1378.2</ele>
        <time>2020-07-28T09:31:19Z</time>
      </trkpt>
      <trkpt lat="42.9710330" lon="-0.3017720">
        <ele>1378.4</ele>
        <time>2020-07-28T09:31:20Z</time>
      </trkpt>
      <trkpt lat="42.9711530" lon="-0.3018570">
        <ele>1378.4</ele>
        <time>2020-07-28T09:31:23Z</time>
      </trkpt>
      <trkpt lat="42.9713600" lon="-0.3020410">
        <ele>1379.4</ele>
        <time>2020-07-28T09:31:29Z</time>
      </trkpt>
      <trkpt lat="42.9713890" lon="-0.3020790">
        <ele>1379.4</ele>
        <time>2020-07-28T09:31:30Z</time>
      </trkpt>
      <trkpt lat="42.9715010" lon="-0.3022400">
        <ele>1380.0</ele>
        <time>2020-07-28T09:31:34Z</time>
      </trkpt>
      <trkpt lat="42.9715810" lon="-0.3023480">
        <ele>1380.6</ele>
        <time>2020-07-28T09:31:37Z</time>
      </trkpt>
      <trkpt lat="42.9716240" lon="-0.3024190">
        <ele>1381.2</ele>
        <time>2020-07-28T09:31:39Z</time>
      </trkpt>
      <trkpt lat="42.9716720" lon="-0.3025320">
        <ele>1381.8</ele>
        <time>2020-07-28T09:31:42Z</time>
      </trkpt>
      <trkpt lat="42.9717050" lon="-0.3026520">
        <ele>1382.6</ele>
        <time>2020-07-28T09:31:45Z</time>
      </trkpt>
      <trkpt lat="42.9717170" lon="-0.3026910">
        <ele>1382.8</ele>
        <time>2020-07-28T09:31:46Z</time>
      </trkpt>
      <trkpt lat="42.9717610" lon="-0.3027970">
        <ele>1384.0</ele>
        <time>2020-07-28T09:31:49Z</time>
      </trkpt>
      <trkpt lat="42.9718240" lon="-0.3029260">
        <ele>1384.8</ele>
        <time>2020-07-28T09:31:53Z</time>
      </trkpt>
      <trkpt lat="42.9718400" lon="-0.3029580">
        <ele>1385.2</ele>
        <time>2020-07-28T09:31:54Z</time>
      </trkpt>
      <trkpt lat="42.9719320" lon="-0.3031070">
        <ele>1386.2</ele>
        <time>2020-07-28T09:31:59Z</time>
      </trkpt>
      <trkpt lat="42.9719710" lon="-0.3031630">
        <ele>1386.6</ele>
        <time>2020-07-28T09:32:01Z</time>
      </trkpt>
      <trkpt lat="42.9720430" lon="-0.3032730">
        <ele>1387.4</ele>
        <time>2020-07-28T09:32:05Z</time>
      </trkpt>
      <trkpt lat="42.9721350" lon="-0.3034140">
        <ele>1388.2</ele>
        <time>2020-07-28T09:32:10Z</time>
      </trkpt>
      <trkpt lat="42.9721580" lon="-0.3034400">
        <ele>1388.4</ele>
        <time>2020-07-28T09:32:11Z</time>
      </trkpt>
      <trkpt lat="42.9723110" lon="-0.3036030">
        <ele>1389.6</ele>
        <time>2020-07-28T09:32:17Z</time>
      </trkpt>
      <trkpt lat="42.9723370" lon="-0.3036350">
        <ele>1389.8</ele>
        <time>2020-07-28T09:32:18Z</time>
      </trkpt>
      <trkpt lat="42.9723610" lon="-0.3036710">
        <ele>1390.0</ele>
        <time>2020-07-28T09:32:19Z</time>
      </trkpt>
      <trkpt lat="42.9724650" lon="-0.3038870">
        <ele>1390.6</ele>
        <time>2020-07-28T09:32:24Z</time>
      </trkpt>
      <trkpt lat="42.9724890" lon="-0.3039310">
        <ele>1390.8</ele>
        <time>2020-07-28T09:32:25Z</time>
      </trkpt>
      <trkpt lat="42.9726220" lon="-0.3040990">
        <ele>1391.0</ele>
        <time>2020-07-28T09:32:30Z</time>
      </trkpt>
      <trkpt lat="42.9727670" lon="-0.3043250">
        <ele>1391.6</ele>
        <time>2020-07-28T09:32:36Z</time>
      </trkpt>
      <trkpt lat="42.9728000" lon="-0.3043520">
        <ele>1391.6</ele>
        <time>2020-07-28T09:32:37Z</time>
      </trkpt>
      <trkpt lat="42.9729040" lon="-0.3044030">
        <ele>1391.8</ele>
        <time>2020-07-28T09:32:40Z</time>
      </trkpt>
      <trkpt lat="42.9730160" lon="-0.3044100">
        <ele>1392.2</ele>
        <time>2020-07-28T09:32:43Z</time>
      </trkpt>
      <trkpt lat="42.9731420" lon="-0.3043920">
        <ele>1392.8</ele>
        <time>2020-07-28T09:32:46Z</time>
      </trkpt>
      <trkpt lat="42.9732250" lon="-0.3043940">
        <ele>1393.0</ele>
        <time>2020-07-28T09:32:48Z</time>
      </trkpt>
      <trkpt lat="42.9733010" lon="-0.3044210">
        <ele>1393.2</ele>
        <time>2020-07-28T09:32:50Z</time>
      </trkpt>
      <trkpt lat="42.9735310" lon="-0.3045660">
        <ele>1393.8</ele>
        <time>2020-07-28T09:32:56Z</time>
      </trkpt>
      <trkpt lat="42.9735700" lon="-0.3045810">
        <ele>1394.0</ele>
        <time>2020-07-28T09:32:57Z</time>
      </trkpt>
      <trkpt lat="42.9736100" lon="-0.3045910">
        <ele>1394.2</ele>
        <time>2020-07-28T09:32:58Z</time>
      </trkpt>
      <trkpt lat="42.9736520" lon="-0.3045940">
        <ele>1394.4</ele>
        <time>2020-07-28T09:32:59Z</time>
      </trkpt>
      <trkpt lat="42.9736920" lon="-0.3045930">
        <ele>1394.6</ele>
        <time>2020-07-28T09:33:00Z</time>
      </trkpt>
      <trkpt lat="42.9738130" lon="-0.3045950">
        <ele>1394.6</ele>
        <time>2020-07-28T09:33:03Z</time>
      </trkpt>
      <trkpt lat="42.9739540" lon="-0.3046820">
        <ele>1395.0</ele>
        <time>2020-07-28T09:33:07Z</time>
      </trkpt>
      <trkpt lat="42.9739890" lon="-0.3047190">
        <ele>1395.2</ele>
        <time>2020-07-28T09:33:08Z</time>
      </trkpt>
      <trkpt lat="42.9740230" lon="-0.3047600">
        <ele>1395.4</ele>
        <time>2020-07-28T09:33:09Z</time>
      </trkpt>
      <trkpt lat="42.9740890" lon="-0.3048520">
        <ele>1395.6</ele>
        <time>2020-07-28T09:33:11Z</time>
      </trkpt>
      <trkpt lat="42.9741520" lon="-0.3049440">
        <ele>1395.8</ele>
        <time>2020-07-28T09:33:13Z</time>
      </trkpt>
      <trkpt lat="42.9742140" lon="-0.3050320">
        <ele>1396.0</ele>
        <time>2020-07-28T09:33:15Z</time>
      </trkpt>
      <trkpt lat="42.9742780" lon="-0.3051130">
        <ele>1396.2</ele>
        <time>2020-07-28T09:33:17Z</time>
      </trkpt>
      <trkpt lat="42.9743740" lon="-0.3052260">
        <ele>1396.4</ele>
        <time>2020-07-28T09:33:20Z</time>
      </trkpt>
      <trkpt lat="42.9744420" lon="-0.3052840">
        <ele>1396.6</ele>
        <time>2020-07-28T09:33:22Z</time>
      </trkpt>
      <trkpt lat="42.9746610" lon="-0.3054430">
        <ele>1396.8</ele>
        <time>2020-07-28T09:33:28Z</time>
      </trkpt>
      <trkpt lat="42.9747640" lon="-0.3055530">
        <ele>1397.2</ele>
        <time>2020-07-28T09:33:31Z</time>
      </trkpt>
      <trkpt lat="42.9747940" lon="-0.3055960">
        <ele>1397.2</ele>
        <time>2020-07-28T09:33:32Z</time>
      </trkpt>
      <trkpt lat="42.9748190" lon="-0.3056450">
        <ele>1397.4</ele>
        <time>2020-07-28T09:33:33Z</time>
      </trkpt>
      <trkpt lat="42.9748600" lon="-0.3057500">
        <ele>1397.6</ele>
        <time>2020-07-28T09:33:35Z</time>
      </trkpt>
      <trkpt lat="42.9748720" lon="-0.3058060">
        <ele>1397.8</ele>
        <time>2020-07-28T09:33:36Z</time>
      </trkpt>
      <trkpt lat="42.9748790" lon="-0.3058650">
        <ele>1397.8</ele>
        <time>2020-07-28T09:33:37Z</time>
      </trkpt>
      <trkpt lat="42.9748830" lon="-0.3059870">
        <ele>1398.0</ele>
        <time>2020-07-28T09:33:39Z</time>
      </trkpt>
      <trkpt lat="42.9748730" lon="-0.3061080">
        <ele>1398.2</ele>
        <time>2020-07-28T09:33:41Z</time>
      </trkpt>
      <trkpt lat="42.9748640" lon="-0.3061670">
        <ele>1398.4</ele>
        <time>2020-07-28T09:33:42Z</time>
      </trkpt>
      <trkpt lat="42.9748180" lon="-0.3065010">
        <ele>1399.0</ele>
        <time>2020-07-28T09:33:48Z</time>
      </trkpt>
      <trkpt lat="42.9748060" lon="-0.3066050">
        <ele>1399.4</ele>
        <time>2020-07-28T09:33:50Z</time>
      </trkpt>
      <trkpt lat="42.9747940" lon="-0.3067070">
        <ele>1399.8</ele>
        <time>2020-07-28T09:33:52Z</time>
      </trkpt>
      <trkpt lat="42.9747810" lon="-0.3068550">
        <ele>1400.4</ele>
        <time>2020-07-28T09:33:55Z</time>
      </trkpt>
      <trkpt lat="42.9747770" lon="-0.3069030">
        <ele>1400.6</ele>
        <time>2020-07-28T09:33:56Z</time>
      </trkpt>
      <trkpt lat="42.9747460" lon="-0.3071310">
        <ele>1401.6</ele>
        <time>2020-07-28T09:34:01Z</time>
      </trkpt>
      <trkpt lat="42.9747360" lon="-0.3072160">
        <ele>1402.0</ele>
        <time>2020-07-28T09:34:03Z</time>
      </trkpt>
      <trkpt lat="42.9747140" lon="-0.3073420">
        <ele>1403.0</ele>
        <time>2020-07-28T09:34:06Z</time>
      </trkpt>
      <trkpt lat="42.9746840" lon="-0.3074610">
        <ele>1403.8</ele>
        <time>2020-07-28T09:34:09Z</time>
      </trkpt>
      <trkpt lat="42.9746700" lon="-0.3075010">
        <ele>1404.0</ele>
        <time>2020-07-28T09:34:10Z</time>
      </trkpt>
      <trkpt lat="42.9745920" lon="-0.3076830">
        <ele>1405.0</ele>
        <time>2020-07-28T09:34:15Z</time>
      </trkpt>
      <trkpt lat="42.9745740" lon="-0.3077200">
        <ele>1405.2</ele>
        <time>2020-07-28T09:34:16Z</time>
      </trkpt>
      <trkpt lat="42.9745420" lon="-0.3079400">
        <ele>1406.0</ele>
        <time>2020-07-28T09:34:21Z</time>
      </trkpt>
      <trkpt lat="42.9745530" lon="-0.3079830">
        <ele>1406.2</ele>
        <time>2020-07-28T09:34:22Z</time>
      </trkpt>
      <trkpt lat="42.9746160" lon="-0.3081330">
        <ele>1406.6</ele>
        <time>2020-07-28T09:34:26Z</time>
      </trkpt>
      <trkpt lat="42.9747100" lon="-0.3083790">
        <ele>1407.2</ele>
        <time>2020-07-28T09:34:32Z</time>
      </trkpt>
      <trkpt lat="42.9747300" lon="-0.3084240">
        <ele>1407.4</ele>
        <time>2020-07-28T09:34:33Z</time>
      </trkpt>
      <trkpt lat="42.9747770" lon="-0.3085040">
        <ele>1407.4</ele>
        <time>2020-07-28T09:34:35Z</time>
      </trkpt>
      <trkpt lat="42.9749080" lon="-0.3086930">
        <ele>1408.0</ele>
        <time>2020-07-28T09:34:40Z</time>
      </trkpt>
      <trkpt lat="42.9750330" lon="-0.3088210">
        <ele>1408.0</ele>
        <time>2020-07-28T09:34:44Z</time>
      </trkpt>
      <trkpt lat="42.9750670" lon="-0.3088500">
        <ele>1408.2</ele>
        <time>2020-07-28T09:34:45Z</time>
      </trkpt>
      <trkpt lat="42.9751010" lon="-0.3088810">
        <ele>1408.2</ele>
        <time>2020-07-28T09:34:46Z</time>
      </trkpt>
      <trkpt lat="42.9751660" lon="-0.3089390">
        <ele>1408.6</ele>
        <time>2020-07-28T09:34:48Z</time>
      </trkpt>
      <trkpt lat="42.9752600" lon="-0.3090290">
        <ele>1409.2</ele>
        <time>2020-07-28T09:34:51Z</time>
      </trkpt>
      <trkpt lat="42.9752870" lon="-0.3090630">
        <ele>1409.4</ele>
        <time>2020-07-28T09:34:52Z</time>
      </trkpt>
      <trkpt lat="42.9753780" lon="-0.3092040">
        <ele>1410.4</ele>
        <time>2020-07-28T09:34:56Z</time>
      </trkpt>
      <trkpt lat="42.9753990" lon="-0.3092400">
        <ele>1410.6</ele>
        <time>2020-07-28T09:34:57Z</time>
      </trkpt>
      <trkpt lat="42.9754980" lon="-0.3094570">
        <ele>1411.6</ele>
        <time>2020-07-28T09:35:03Z</time>
      </trkpt>
      <trkpt lat="42.9755130" lon="-0.3094890">
        <ele>1412.0</ele>
        <time>2020-07-28T09:35:04Z</time>
      </trkpt>
      <trkpt lat="42.9755830" lon="-0.3096150">
        <ele>1413.0</ele>
        <time>2020-07-28T09:35:08Z</time>
      </trkpt>
      <trkpt lat="42.9756540" lon="-0.3097260">
        <ele>1414.0</ele>
        <time>2020-07-28T09:35:12Z</time>
      </trkpt>
      <trkpt lat="42.9757120" lon="-0.3098450">
        <ele>1415.2</ele>
        <time>2020-07-28T09:35:16Z</time>
      </trkpt>
      <trkpt lat="42.9757500" lon="-0.3099020">
        <ele>1415.6</ele>
        <time>2020-07-28T09:35:18Z</time>
      </trkpt>
      <trkpt lat="42.9758150" lon="-0.3099900">
        <ele>1416.2</ele>
        <time>2020-07-28T09:35:21Z</time>
      </trkpt>
      <trkpt lat="42.9759030" lon="-0.3101070">
        <ele>1417.0</ele>
        <time>2020-07-28T09:35:25Z</time>
      </trkpt>
      <trkpt lat="42.9759260" lon="-0.3101310">
        <ele>1417.4</ele>
        <time>2020-07-28T09:35:26Z</time>
      </trkpt>
      <trkpt lat="42.9760500" lon="-0.3102290">
        <ele>1418.4</ele>
        <time>2020-07-28T09:35:31Z</time>
      </trkpt>
      <trkpt lat="42.9760970" lon="-0.3102650">
        <ele>1418.8</ele>
        <time>2020-07-28T09:35:33Z</time>
      </trkpt>
      <trkpt lat="42.9761270" lon="-0.3103210">
        <ele>1419.6</ele>
        <time>2020-07-28T09:35:35Z</time>
      </trkpt>
      <trkpt lat="42.9761760" lon="-0.3104420">
        <ele>1420.4</ele>
        <time>2020-07-28T09:35:39Z</time>
      </trkpt>
      <trkpt lat="42.9761950" lon="-0.3105030">
        <ele>1420.6</ele>
        <time>2020-07-28T09:35:41Z</time>
      </trkpt>
      <trkpt lat="42.9762120" lon="-0.3106220">
        <ele>1421.8</ele>
        <time>2020-07-28T09:35:45Z</time>
      </trkpt>
      <trkpt lat="42.9762100" lon="-0.3106850">
        <ele>1422.0</ele>
        <time>2020-07-28T09:35:47Z</time>
      </trkpt>
      <trkpt lat="42.9762020" lon="-0.3107720">
        <ele>1422.8</ele>
        <time>2020-07-28T09:35:50Z</time>
      </trkpt>
      <trkpt lat="42.9761930" lon="-0.3109080">
        <ele>1423.4</ele>
        <time>2020-07-28T09:35:54Z</time>
      </trkpt>
      <trkpt lat="42.9761910" lon="-0.3109740">
        <ele>1424.0</ele>
        <time>2020-07-28T09:35:56Z</time>
      </trkpt>
      <trkpt lat="42.9761780" lon="-0.3111250">
        <ele>1424.8</ele>
        <time>2020-07-28T09:36:01Z</time>
      </trkpt>
      <trkpt lat="42.9761740" lon="-0.3111520">
        <ele>1425.0</ele>
        <time>2020-07-28T09:36:02Z</time>
      </trkpt>
      <trkpt lat="42.9761690" lon="-0.3111750">
        <ele>1425.2</ele>
        <time>2020-07-28T09:36:03Z</time>
      </trkpt>
      <trkpt lat="42.9761380" lon="-0.3112850">
        <ele>1426.0</ele>
        <time>2020-07-28T09:36:08Z</time>
      </trkpt>
      <trkpt lat="42.9761360" lon="-0.3113380">
        <ele>1426.6</ele>
        <time>2020-07-28T09:36:10Z</time>
      </trkpt>
      <trkpt lat="42.9761110" lon="-0.3114220">
        <ele>1427.2</ele>
        <time>2020-07-28T09:36:13Z</time>
      </trkpt>
      <trkpt lat="42.9760810" lon="-0.3115960">
        <ele>1428.0</ele>
        <time>2020-07-28T09:36:18Z</time>
      </trkpt>
      <trkpt lat="42.9760760" lon="-0.3116300">
        <ele>1428.2</ele>
        <time>2020-07-28T09:36:19Z</time>
      </trkpt>
      <trkpt lat="42.9760470" lon="-0.3118200">
        <ele>1429.2</ele>
        <time>2020-07-28T09:36:25Z</time>
      </trkpt>
      <trkpt lat="42.9760360" lon="-0.3118820">
        <ele>1429.6</ele>
        <time>2020-07-28T09:36:27Z</time>
      </trkpt>
      <trkpt lat="42.9760140" lon="-0.3119780">
        <ele>1430.4</ele>
        <time>2020-07-28T09:36:30Z</time>
      </trkpt>
      <trkpt lat="42.9759880" lon="-0.3121210">
        <ele>1431.2</ele>
        <time>2020-07-28T09:36:35Z</time>
      </trkpt>
      <trkpt lat="42.9759800" lon="-0.3121530">
        <ele>1431.4</ele>
        <time>2020-07-28T09:36:36Z</time>
      </trkpt>
      <trkpt lat="42.9759350" lon="-0.3123160">
        <ele>1432.4</ele>
        <time>2020-07-28T09:36:41Z</time>
      </trkpt>
      <trkpt lat="42.9759260" lon="-0.3123400">
        <ele>1432.8</ele>
        <time>2020-07-28T09:36:42Z</time>
      </trkpt>
      <trkpt lat="42.9759100" lon="-0.3123630">
        <ele>1433.0</ele>
        <time>2020-07-28T09:36:43Z</time>
      </trkpt>
      <trkpt lat="42.9758060" lon="-0.3125130">
        <ele>1433.6</ele>
        <time>2020-07-28T09:36:49Z</time>
      </trkpt>
      <trkpt lat="42.9758000" lon="-0.3125410">
        <ele>1434.0</ele>
        <time>2020-07-28T09:36:50Z</time>
      </trkpt>
      <trkpt lat="42.9757360" lon="-0.3128880">
        <ele>1434.8</ele>
        <time>2020-07-28T09:36:56Z</time>
      </trkpt>
      <trkpt lat="42.9757350" lon="-0.3129450">
        <ele>1435.2</ele>
        <time>2020-07-28T09:36:57Z</time>
      </trkpt>
      <trkpt lat="42.9757520" lon="-0.3131360">
        <ele>1436.2</ele>
        <time>2020-07-28T09:37:01Z</time>
      </trkpt>
      <trkpt lat="42.9758000" lon="-0.3132540">
        <ele>1436.4</ele>
        <time>2020-07-28T09:37:04Z</time>
      </trkpt>
      <trkpt lat="42.9758350" lon="-0.3134540">
        <ele>1437.2</ele>
        <time>2020-07-28T09:37:09Z</time>
      </trkpt>
      <trkpt lat="42.9758310" lon="-0.3134960">
        <ele>1437.4</ele>
        <time>2020-07-28T09:37:10Z</time>
      </trkpt>
      <trkpt lat="42.9758230" lon="-0.3135380">
        <ele>1437.8</ele>
        <time>2020-07-28T09:37:11Z</time>
      </trkpt>
      <trkpt lat="42.9758120" lon="-0.3136410">
        <ele>1438.4</ele>
        <time>2020-07-28T09:37:14Z</time>
      </trkpt>
      <trkpt lat="42.9758100" lon="-0.3137080">
        <ele>1438.8</ele>
        <time>2020-07-28T09:37:16Z</time>
      </trkpt>
      <trkpt lat="42.9758090" lon="-0.3137440">
        <ele>1439.0</ele>
        <time>2020-07-28T09:37:17Z</time>
      </trkpt>
      <trkpt lat="42.9758070" lon="-0.3137790">
        <ele>1439.4</ele>
        <time>2020-07-28T09:37:18Z</time>
      </trkpt>
      <trkpt lat="42.9758050" lon="-0.3138150">
        <ele>1439.6</ele>
        <time>2020-07-28T09:37:19Z</time>
      </trkpt>
      <trkpt lat="42.9757930" lon="-0.3139590">
        <ele>1440.4</ele>
        <time>2020-07-28T09:37:23Z</time>
      </trkpt>
      <trkpt lat="42.9757840" lon="-0.3140670">
        <ele>1440.8</ele>
        <time>2020-07-28T09:37:26Z</time>
      </trkpt>
      <trkpt lat="42.9757820" lon="-0.3141020">
        <ele>1441.0</ele>
        <time>2020-07-28T09:37:27Z</time>
      </trkpt>
      <trkpt lat="42.9757530" lon="-0.3142660">
        <ele>1442.0</ele>
        <time>2020-07-28T09:37:32Z</time>
      </trkpt>
      <trkpt lat="42.9757290" lon="-0.3143290">
        <ele>1442.6</ele>
        <time>2020-07-28T09:37:34Z</time>
      </trkpt>
      <trkpt lat="42.9756800" lon="-0.3144360">
        <ele>1443.0</ele>
        <time>2020-07-28T09:37:38Z</time>
      </trkpt>
      <trkpt lat="42.9756400" lon="-0.3145370">
        <ele>1443.8</ele>
        <time>2020-07-28T09:37:42Z</time>
      </trkpt>
      <trkpt lat="42.9756660" lon="-0.3146900">
        <ele>1444.2</ele>
        <time>2020-07-28T09:37:46Z</time>
      </trkpt>
      <trkpt lat="42.9756850" lon="-0.3147250">
        <ele>1444.4</ele>
        <time>2020-07-28T09:37:47Z</time>
      </trkpt>
      <trkpt lat="42.9757280" lon="-0.3148840">
        <ele>1445.4</ele>
        <time>2020-07-28T09:37:51Z</time>
      </trkpt>
      <trkpt lat="42.9757350" lon="-0.3149740">
        <ele>1445.6</ele>
        <time>2020-07-28T09:37:53Z</time>
      </trkpt>
      <trkpt lat="42.9757210" lon="-0.3152290">
        <ele>1445.8</ele>
        <time>2020-07-28T09:37:59Z</time>
      </trkpt>
      <trkpt lat="42.9757200" lon="-0.3152790">
        <ele>1446.0</ele>
        <time>2020-07-28T09:38:00Z</time>
      </trkpt>
      <trkpt lat="42.9757220" lon="-0.3155380">
        <ele>1446.4</ele>
        <time>2020-07-28T09:38:05Z</time>
      </trkpt>
      <trkpt lat="42.9757260" lon="-0.3157890">
        <ele>1447.0</ele>
        <time>2020-07-28T09:38:10Z</time>
      </trkpt>
      <trkpt lat="42.9757270" lon="-0.3159510">
        <ele>1447.0</ele>
        <time>2020-07-28T09:38:13Z</time>
      </trkpt>
      <trkpt lat="42.9757570" lon="-0.3162410">
        <ele>1447.2</ele>
        <time>2020-07-28T09:38:19Z</time>
      </trkpt>
      <trkpt lat="42.9757620" lon="-0.3162790">
        <ele>1447.4</ele>
        <time>2020-07-28T09:38:20Z</time>
      </trkpt>
      <trkpt lat="42.9757680" lon="-0.3163130">
        <ele>1447.4</ele>
        <time>2020-07-28T09:38:21Z</time>
      </trkpt>
      <trkpt lat="42.9757860" lon="-0.3164710">
        <ele>1447.8</ele>
        <time>2020-07-28T09:38:25Z</time>
      </trkpt>
      <trkpt lat="42.9757670" lon="-0.3167060">
        <ele>1448.4</ele>
        <time>2020-07-28T09:38:30Z</time>
      </trkpt>
      <trkpt lat="42.9757610" lon="-0.3167530">
        <ele>1448.6</ele>
        <time>2020-07-28T09:38:31Z</time>
      </trkpt>
      <trkpt lat="42.9757560" lon="-0.3168000">
        <ele>1448.8</ele>
        <time>2020-07-28T09:38:32Z</time>
      </trkpt>
      <trkpt lat="42.9757260" lon="-0.3169910">
        <ele>1449.4</ele>
        <time>2020-07-28T09:38:37Z</time>
      </trkpt>
      <trkpt lat="42.9757130" lon="-0.3170520">
        <ele>1450.0</ele>
        <time>2020-07-28T09:38:39Z</time>
      </trkpt>
      <trkpt lat="42.9756900" lon="-0.3171330">
        <ele>1450.6</ele>
        <time>2020-07-28T09:38:42Z</time>
      </trkpt>
      <trkpt lat="42.9756800" lon="-0.3171600">
        <ele>1451.0</ele>
        <time>2020-07-28T09:38:43Z</time>
      </trkpt>
      <trkpt lat="42.9756680" lon="-0.3171890">
        <ele>1451.2</ele>
        <time>2020-07-28T09:38:44Z</time>
      </trkpt>
      <trkpt lat="42.9756420" lon="-0.3172450">
        <ele>1451.8</ele>
        <time>2020-07-28T09:38:46Z</time>
      </trkpt>
      <trkpt lat="42.9755610" lon="-0.3173970">
        <ele>1452.8</ele>
        <time>2020-07-28T09:38:52Z</time>
      </trkpt>
      <trkpt lat="42.9755170" lon="-0.3174710">
        <ele>1453.4</ele>
        <time>2020-07-28T09:38:55Z</time>
      </trkpt>
      <trkpt lat="42.9754900" lon="-0.3175200">
        <ele>1453.8</ele>
        <time>2020-07-28T09:38:57Z</time>
      </trkpt>
      <trkpt lat="42.9754770" lon="-0.3175460">
        <ele>1454.0</ele>
        <time>2020-07-28T09:38:58Z</time>
      </trkpt>
      <trkpt lat="42.9753910" lon="-0.3176560">
        <ele>1455.2</ele>
        <time>2020-07-28T09:39:03Z</time>
      </trkpt>
      <trkpt lat="42.9753720" lon="-0.3176740">
        <ele>1455.4</ele>
        <time>2020-07-28T09:39:04Z</time>
      </trkpt>
      <trkpt lat="42.9753320" lon="-0.3177050">
        <ele>1456.2</ele>
        <time>2020-07-28T09:39:06Z</time>
      </trkpt>
      <trkpt lat="42.9752380" lon="-0.3177720">
        <ele>1457.2</ele>
        <time>2020-07-28T09:39:11Z</time>
      </trkpt>
      <trkpt lat="42.9750970" lon="-0.3178710">
        <ele>1458.4</ele>
        <time>2020-07-28T09:39:17Z</time>
      </trkpt>
      <trkpt lat="42.9750740" lon="-0.3178800">
        <ele>1458.6</ele>
        <time>2020-07-28T09:39:18Z</time>
      </trkpt>
      <trkpt lat="42.9749980" lon="-0.3179130">
        <ele>1459.4</ele>
        <time>2020-07-28T09:39:22Z</time>
      </trkpt>
      <trkpt lat="42.9749390" lon="-0.3179350">
        <ele>1460.4</ele>
        <time>2020-07-28T09:39:25Z</time>
      </trkpt>
      <trkpt lat="42.9748500" lon="-0.3179810">
        <ele>1461.2</ele>
        <time>2020-07-28T09:39:29Z</time>
      </trkpt>
      <trkpt lat="42.9748270" lon="-0.3179940">
        <ele>1461.4</ele>
        <time>2020-07-28T09:39:30Z</time>
      </trkpt>
      <trkpt lat="42.9747590" lon="-0.3180230">
        <ele>1462.0</ele>
        <time>2020-07-28T09:39:33Z</time>
      </trkpt>
      <trkpt lat="42.9747150" lon="-0.3180530">
        <ele>1462.4</ele>
        <time>2020-07-28T09:39:35Z</time>
      </trkpt>
      <trkpt lat="42.9746220" lon="-0.3181260">
        <ele>1463.6</ele>
        <time>2020-07-28T09:39:40Z</time>
      </trkpt>
      <trkpt lat="42.9746110" lon="-0.3181420">
        <ele>1463.6</ele>
        <time>2020-07-28T09:39:41Z</time>
      </trkpt>
      <trkpt lat="42.9745280" lon="-0.3182630">
        <ele>1464.6</ele>
        <time>2020-07-28T09:39:46Z</time>
      </trkpt>
      <trkpt lat="42.9744900" lon="-0.3182930">
        <ele>1465.2</ele>
        <time>2020-07-28T09:39:48Z</time>
      </trkpt>
      <trkpt lat="42.9744460" lon="-0.3183030">
        <ele>1465.8</ele>
        <time>2020-07-28T09:39:50Z</time>
      </trkpt>
      <trkpt lat="42.9744240" lon="-0.3183080">
        <ele>1466.0</ele>
        <time>2020-07-28T09:39:51Z</time>
      </trkpt>
      <trkpt lat="42.9744030" lon="-0.3183050">
        <ele>1466.4</ele>
        <time>2020-07-28T09:39:52Z</time>
      </trkpt>
      <trkpt lat="42.9743590" lon="-0.3182840">
        <ele>1466.8</ele>
        <time>2020-07-28T09:39:54Z</time>
      </trkpt>
      <trkpt lat="42.9742600" lon="-0.3182310">
        <ele>1467.6</ele>
        <time>2020-07-28T09:39:59Z</time>
      </trkpt>
      <trkpt lat="42.9742230" lon="-0.3182080">
        <ele>1468.0</ele>
        <time>2020-07-28T09:40:01Z</time>
      </trkpt>
      <trkpt lat="42.9741990" lon="-0.3182030">
        <ele>1468.2</ele>
        <time>2020-07-28T09:40:02Z</time>
      </trkpt>
      <trkpt lat="42.9741560" lon="-0.3181770">
        <ele>1469.2</ele>
        <time>2020-07-28T09:40:04Z</time>
      </trkpt>
      <trkpt lat="42.9740260" lon="-0.3181460">
        <ele>1470.0</ele>
        <time>2020-07-28T09:40:09Z</time>
      </trkpt>
      <trkpt lat="42.9739680" lon="-0.3181520">
        <ele>1470.4</ele>
        <time>2020-07-28T09:40:11Z</time>
      </trkpt>
      <trkpt lat="42.9738790" lon="-0.3181570">
        <ele>1471.0</ele>
        <time>2020-07-28T09:40:14Z</time>
      </trkpt>
      <trkpt lat="42.9738520" lon="-0.3181530">
        <ele>1471.4</ele>
        <time>2020-07-28T09:40:15Z</time>
      </trkpt>
      <trkpt lat="42.9738020" lon="-0.3181430">
        <ele>1471.6</ele>
        <time>2020-07-28T09:40:17Z</time>
      </trkpt>
      <trkpt lat="42.9736750" lon="-0.3180950">
        <ele>1472.0</ele>
        <time>2020-07-28T09:40:22Z</time>
      </trkpt>
      <trkpt lat="42.9736330" lon="-0.3180610">
        <ele>1472.4</ele>
        <time>2020-07-28T09:40:24Z</time>
      </trkpt>
      <trkpt lat="42.9736150" lon="-0.3180420">
        <ele>1472.6</ele>
        <time>2020-07-28T09:40:25Z</time>
      </trkpt>
      <trkpt lat="42.9735080" lon="-0.3179910">
        <ele>1473.6</ele>
        <time>2020-07-28T09:40:30Z</time>
      </trkpt>
      <trkpt lat="42.9734830" lon="-0.3179890">
        <ele>1473.8</ele>
        <time>2020-07-28T09:40:31Z</time>
      </trkpt>
      <trkpt lat="42.9734010" lon="-0.3179610">
        <ele>1474.6</ele>
        <time>2020-07-28T09:40:35Z</time>
      </trkpt>
      <trkpt lat="42.9733480" lon="-0.3179330">
        <ele>1475.2</ele>
        <time>2020-07-28T09:40:38Z</time>
      </trkpt>
      <trkpt lat="42.9733270" lon="-0.3179280">
        <ele>1475.6</ele>
        <time>2020-07-28T09:40:39Z</time>
      </trkpt>
      <trkpt lat="42.9732210" lon="-0.3179210">
        <ele>1476.6</ele>
        <time>2020-07-28T09:40:44Z</time>
      </trkpt>
      <trkpt lat="42.9731990" lon="-0.3179190">
        <ele>1476.8</ele>
        <time>2020-07-28T09:40:45Z</time>
      </trkpt>
      <trkpt lat="42.9731260" lon="-0.3179310">
        <ele>1477.8</ele>
        <time>2020-07-28T09:40:48Z</time>
      </trkpt>
      <trkpt lat="42.9730090" lon="-0.3179240">
        <ele>1478.6</ele>
        <time>2020-07-28T09:40:53Z</time>
      </trkpt>
      <trkpt lat="42.9729830" lon="-0.3179280">
        <ele>1479.0</ele>
        <time>2020-07-28T09:40:54Z</time>
      </trkpt>
      <trkpt lat="42.9728640" lon="-0.3179580">
        <ele>1480.0</ele>
        <time>2020-07-28T09:40:59Z</time>
      </trkpt>
      <trkpt lat="42.9728130" lon="-0.3179800">
        <ele>1480.4</ele>
        <time>2020-07-28T09:41:01Z</time>
      </trkpt>
      <trkpt lat="42.9727140" lon="-0.3180350">
        <ele>1481.2</ele>
        <time>2020-07-28T09:41:05Z</time>
      </trkpt>
      <trkpt lat="42.9726370" lon="-0.3180970">
        <ele>1482.2</ele>
        <time>2020-07-28T09:41:09Z</time>
      </trkpt>
      <trkpt lat="42.9725710" lon="-0.3182440">
        <ele>1483.4</ele>
        <time>2020-07-28T09:41:15Z</time>
      </trkpt>
      <trkpt lat="42.9725650" lon="-0.3182950">
        <ele>1483.6</ele>
        <time>2020-07-28T09:41:17Z</time>
      </trkpt>
      <trkpt lat="42.9725600" lon="-0.3183550">
        <ele>1484.4</ele>
        <time>2020-07-28T09:41:19Z</time>
      </trkpt>
      <trkpt lat="42.9725550" lon="-0.3184740">
        <ele>1485.4</ele>
        <time>2020-07-28T09:41:23Z</time>
      </trkpt>
      <trkpt lat="42.9725520" lon="-0.3185020">
        <ele>1485.6</ele>
        <time>2020-07-28T09:41:24Z</time>
      </trkpt>
      <trkpt lat="42.9725320" lon="-0.3186580">
        <ele>1486.6</ele>
        <time>2020-07-28T09:41:30Z</time>
      </trkpt>
      <trkpt lat="42.9725230" lon="-0.3186900">
        <ele>1486.8</ele>
        <time>2020-07-28T09:41:31Z</time>
      </trkpt>
      <trkpt lat="42.9725180" lon="-0.3187180">
        <ele>1487.2</ele>
        <time>2020-07-28T09:41:32Z</time>
      </trkpt>
      <trkpt lat="42.9725070" lon="-0.3187800">
        <ele>1487.6</ele>
        <time>2020-07-28T09:41:34Z</time>
      </trkpt>
      <trkpt lat="42.9724670" lon="-0.3189820">
        <ele>1488.4</ele>
        <time>2020-07-28T09:41:40Z</time>
      </trkpt>
      <trkpt lat="42.9724610" lon="-0.3190470">
        <ele>1489.0</ele>
        <time>2020-07-28T09:41:42Z</time>
      </trkpt>
      <trkpt lat="42.9724540" lon="-0.3192150">
        <ele>1490.0</ele>
        <time>2020-07-28T09:41:48Z</time>
      </trkpt>
      <trkpt lat="42.9724460" lon="-0.3193620">
        <ele>1490.8</ele>
        <time>2020-07-28T09:41:53Z</time>
      </trkpt>
      <trkpt lat="42.9724380" lon="-0.3194200">
        <ele>1491.4</ele>
        <time>2020-07-28T09:41:55Z</time>
      </trkpt>
      <trkpt lat="42.9724360" lon="-0.3194500">
        <ele>1491.6</ele>
        <time>2020-07-28T09:41:56Z</time>
      </trkpt>
      <trkpt lat="42.9724240" lon="-0.3195670">
        <ele>1492.6</ele>
        <time>2020-07-28T09:42:00Z</time>
      </trkpt>
      <trkpt lat="42.9724140" lon="-0.3196580">
        <ele>1493.0</ele>
        <time>2020-07-28T09:42:03Z</time>
      </trkpt>
      <trkpt lat="42.9724010" lon="-0.3197470">
        <ele>1493.6</ele>
        <time>2020-07-28T09:42:06Z</time>
      </trkpt>
      <trkpt lat="42.9723830" lon="-0.3198520">
        <ele>1494.4</ele>
        <time>2020-07-28T09:42:10Z</time>
      </trkpt>
      <trkpt lat="42.9723750" lon="-0.3199070">
        <ele>1494.8</ele>
        <time>2020-07-28T09:42:12Z</time>
      </trkpt>
      <trkpt lat="42.9723700" lon="-0.3199360">
        <ele>1494.8</ele>
        <time>2020-07-28T09:42:13Z</time>
      </trkpt>
      <trkpt lat="42.9723580" lon="-0.3200490">
        <ele>1495.8</ele>
        <time>2020-07-28T09:42:17Z</time>
      </trkpt>
      <trkpt lat="42.9723320" lon="-0.3202030">
        <ele>1496.8</ele>
        <time>2020-07-28T09:42:22Z</time>
      </trkpt>
      <trkpt lat="42.9723200" lon="-0.3202930">
        <ele>1497.2</ele>
        <time>2020-07-28T09:42:25Z</time>
      </trkpt>
      <trkpt lat="42.9723080" lon="-0.3204050">
        <ele>1497.8</ele>
        <time>2020-07-28T09:42:29Z</time>
      </trkpt>
      <trkpt lat="42.9723100" lon="-0.3204620">
        <ele>1498.4</ele>
        <time>2020-07-28T09:42:31Z</time>
      </trkpt>
      <trkpt lat="42.9723140" lon="-0.3205190">
        <ele>1499.0</ele>
        <time>2020-07-28T09:42:33Z</time>
      </trkpt>
      <trkpt lat="42.9723340" lon="-0.3206930">
        <ele>1500.2</ele>
        <time>2020-07-28T09:42:39Z</time>
      </trkpt>
      <trkpt lat="42.9723380" lon="-0.3208220">
        <ele>1500.8</ele>
        <time>2020-07-28T09:42:43Z</time>
      </trkpt>
      <trkpt lat="42.9723260" lon="-0.3209280">
        <ele>1501.4</ele>
        <time>2020-07-28T09:42:46Z</time>
      </trkpt>
      <trkpt lat="42.9722980" lon="-0.3210560">
        <ele>1502.2</ele>
        <time>2020-07-28T09:42:50Z</time>
      </trkpt>
      <trkpt lat="42.9722880" lon="-0.3210870">
        <ele>1502.6</ele>
        <time>2020-07-28T09:42:51Z</time>
      </trkpt>
      <trkpt lat="42.9722440" lon="-0.3212530">
        <ele>1503.6</ele>
        <time>2020-07-28T09:42:57Z</time>
      </trkpt>
      <trkpt lat="42.9722360" lon="-0.3212800">
        <ele>1503.8</ele>
        <time>2020-07-28T09:42:58Z</time>
      </trkpt>
      <trkpt lat="42.9722000" lon="-0.3213620">
        <ele>1504.6</ele>
        <time>2020-07-28T09:43:01Z</time>
      </trkpt>
      <trkpt lat="42.9721850" lon="-0.3213890">
        <ele>1505.0</ele>
        <time>2020-07-28T09:43:02Z</time>
      </trkpt>
      <trkpt lat="42.9721550" lon="-0.3214450">
        <ele>1505.4</ele>
        <time>2020-07-28T09:43:04Z</time>
      </trkpt>
      <trkpt lat="42.9721390" lon="-0.3214740">
        <ele>1505.4</ele>
        <time>2020-07-28T09:43:05Z</time>
      </trkpt>
      <trkpt lat="42.9721070" lon="-0.3215320">
        <ele>1505.8</ele>
        <time>2020-07-28T09:43:07Z</time>
      </trkpt>
      <trkpt lat="42.9720460" lon="-0.3216420">
        <ele>1506.6</ele>
        <time>2020-07-28T09:43:11Z</time>
      </trkpt>
      <trkpt lat="42.9720310" lon="-0.3216710">
        <ele>1506.8</ele>
        <time>2020-07-28T09:43:12Z</time>
      </trkpt>
      <trkpt lat="42.9720160" lon="-0.3217000">
        <ele>1507.2</ele>
        <time>2020-07-28T09:43:13Z</time>
      </trkpt>
      <trkpt lat="42.9719640" lon="-0.3218550">
        <ele>1508.0</ele>
        <time>2020-07-28T09:43:18Z</time>
      </trkpt>
      <trkpt lat="42.9719570" lon="-0.3218840">
        <ele>1508.2</ele>
        <time>2020-07-28T09:43:19Z</time>
      </trkpt>
      <trkpt lat="42.9719390" lon="-0.3219400">
        <ele>1508.6</ele>
        <time>2020-07-28T09:43:21Z</time>
      </trkpt>
      <trkpt lat="42.9719280" lon="-0.3219690">
        <ele>1509.0</ele>
        <time>2020-07-28T09:43:22Z</time>
      </trkpt>
      <trkpt lat="42.9719160" lon="-0.3219970">
        <ele>1509.4</ele>
        <time>2020-07-28T09:43:23Z</time>
      </trkpt>
      <trkpt lat="42.9718840" lon="-0.3220520">
        <ele>1510.0</ele>
        <time>2020-07-28T09:43:25Z</time>
      </trkpt>
      <trkpt lat="42.9718640" lon="-0.3220750">
        <ele>1510.2</ele>
        <time>2020-07-28T09:43:26Z</time>
      </trkpt>
      <trkpt lat="42.9718350" lon="-0.3221140">
        <ele>1510.8</ele>
        <time>2020-07-28T09:43:28Z</time>
      </trkpt>
      <trkpt lat="42.9718220" lon="-0.3221290">
        <ele>1511.0</ele>
        <time>2020-07-28T09:43:30Z</time>
      </trkpt>
      <trkpt lat="42.9716970" lon="-0.3221760">
        <ele>1511.6</ele>
        <time>2020-07-28T09:44:25Z</time>
      </trkpt>
      <trkpt lat="42.9716790" lon="-0.3221890">
        <ele>1511.8</ele>
        <time>2020-07-28T09:44:26Z</time>
      </trkpt>
      <trkpt lat="42.9716110" lon="-0.3222300">
        <ele>1512.6</ele>
        <time>2020-07-28T09:44:29Z</time>
      </trkpt>
      <trkpt lat="42.9715320" lon="-0.3223010">
        <ele>1513.4</ele>
        <time>2020-07-28T09:44:32Z</time>
      </trkpt>
      <trkpt lat="42.9714690" lon="-0.3223860">
        <ele>1513.8</ele>
        <time>2020-07-28T09:44:35Z</time>
      </trkpt>
      <trkpt lat="42.9714340" lon="-0.3224820">
        <ele>1514.8</ele>
        <time>2020-07-28T09:44:38Z</time>
      </trkpt>
      <trkpt lat="42.9714240" lon="-0.3225160">
        <ele>1515.2</ele>
        <time>2020-07-28T09:44:39Z</time>
      </trkpt>
      <trkpt lat="42.9714020" lon="-0.3226530">
        <ele>1516.2</ele>
        <time>2020-07-28T09:44:43Z</time>
      </trkpt>
      <trkpt lat="42.9714010" lon="-0.3227250">
        <ele>1516.8</ele>
        <time>2020-07-28T09:44:45Z</time>
      </trkpt>
      <trkpt lat="42.9714020" lon="-0.3227610">
        <ele>1517.0</ele>
        <time>2020-07-28T09:44:46Z</time>
      </trkpt>
      <trkpt lat="42.9714170" lon="-0.3228310">
        <ele>1517.4</ele>
        <time>2020-07-28T09:44:48Z</time>
      </trkpt>
      <trkpt lat="42.9714390" lon="-0.3228930">
        <ele>1517.8</ele>
        <time>2020-07-28T09:44:50Z</time>
      </trkpt>
      <trkpt lat="42.9714650" lon="-0.3229540">
        <ele>1518.4</ele>
        <time>2020-07-28T09:44:52Z</time>
      </trkpt>
      <trkpt lat="42.9715060" lon="-0.3230840">
        <ele>1519.8</ele>
        <time>2020-07-28T09:44:56Z</time>
      </trkpt>
      <trkpt lat="42.9715130" lon="-0.3232300">
        <ele>1520.8</ele>
        <time>2020-07-28T09:45:00Z</time>
      </trkpt>
      <trkpt lat="42.9714950" lon="-0.3233430">
        <ele>1521.2</ele>
        <time>2020-07-28T09:45:03Z</time>
      </trkpt>
      <trkpt lat="42.9714760" lon="-0.3234130">
        <ele>1521.8</ele>
        <time>2020-07-28T09:45:05Z</time>
      </trkpt>
      <trkpt lat="42.9714540" lon="-0.3234810">
        <ele>1522.2</ele>
        <time>2020-07-28T09:45:07Z</time>
      </trkpt>
      <trkpt lat="42.9714160" lon="-0.3235850">
        <ele>1522.8</ele>
        <time>2020-07-28T09:45:10Z</time>
      </trkpt>
      <trkpt lat="42.9713530" lon="-0.3237020">
        <ele>1524.0</ele>
        <time>2020-07-28T09:45:14Z</time>
      </trkpt>
      <trkpt lat="42.9713340" lon="-0.3237230">
        <ele>1524.2</ele>
        <time>2020-07-28T09:45:15Z</time>
      </trkpt>
      <trkpt lat="42.9712450" lon="-0.3237810">
        <ele>1525.0</ele>
        <time>2020-07-28T09:45:19Z</time>
      </trkpt>
      <trkpt lat="42.9711680" lon="-0.3238250">
        <ele>1525.6</ele>
        <time>2020-07-28T09:45:22Z</time>
      </trkpt>
      <trkpt lat="42.9711150" lon="-0.3238570">
        <ele>1526.2</ele>
        <time>2020-07-28T09:45:24Z</time>
      </trkpt>
      <trkpt lat="42.9710180" lon="-0.3239220">
        <ele>1527.0</ele>
        <time>2020-07-28T09:45:28Z</time>
      </trkpt>
      <trkpt lat="42.9709990" lon="-0.3239420">
        <ele>1527.2</ele>
        <time>2020-07-28T09:45:29Z</time>
      </trkpt>
      <trkpt lat="42.9709290" lon="-0.3240440">
        <ele>1528.2</ele>
        <time>2020-07-28T09:45:33Z</time>
      </trkpt>
      <trkpt lat="42.9709100" lon="-0.3241500">
        <ele>1528.8</ele>
        <time>2020-07-28T09:45:36Z</time>
      </trkpt>
      <trkpt lat="42.9709670" lon="-0.3242750">
        <ele>1529.2</ele>
        <time>2020-07-28T09:45:40Z</time>
      </trkpt>
      <trkpt lat="42.9710580" lon="-0.3243420">
        <ele>1530.4</ele>
        <time>2020-07-28T09:45:44Z</time>
      </trkpt>
      <trkpt lat="42.9711250" lon="-0.3243830">
        <ele>1531.8</ele>
        <time>2020-07-28T09:45:47Z</time>
      </trkpt>
      <trkpt lat="42.9712360" lon="-0.3244710">
        <ele>1532.8</ele>
        <time>2020-07-28T09:45:52Z</time>
      </trkpt>
      <trkpt lat="42.9713030" lon="-0.3245130">
        <ele>1533.4</ele>
        <time>2020-07-28T09:45:55Z</time>
      </trkpt>
      <trkpt lat="42.9713530" lon="-0.3245320">
        <ele>1534.0</ele>
        <time>2020-07-28T09:45:57Z</time>
      </trkpt>
      <trkpt lat="42.9714650" lon="-0.3245560">
        <ele>1535.2</ele>
        <time>2020-07-28T09:46:01Z</time>
      </trkpt>
      <trkpt lat="42.9714940" lon="-0.3245530">
        <ele>1535.4</ele>
        <time>2020-07-28T09:46:02Z</time>
      </trkpt>
      <trkpt lat="42.9716040" lon="-0.3245570">
        <ele>1536.2</ele>
        <time>2020-07-28T09:46:06Z</time>
      </trkpt>
      <trkpt lat="42.9716300" lon="-0.3245620">
        <ele>1536.6</ele>
        <time>2020-07-28T09:46:07Z</time>
      </trkpt>
      <trkpt lat="42.9716570" lon="-0.3245660">
        <ele>1536.8</ele>
        <time>2020-07-28T09:46:08Z</time>
      </trkpt>
      <trkpt lat="42.9716840" lon="-0.3245720">
        <ele>1537.2</ele>
        <time>2020-07-28T09:46:09Z</time>
      </trkpt>
      <trkpt lat="42.9717110" lon="-0.3245800">
        <ele>1537.4</ele>
        <time>2020-07-28T09:46:10Z</time>
      </trkpt>
      <trkpt lat="42.9718450" lon="-0.3246370">
        <ele>1538.6</ele>
        <time>2020-07-28T09:46:15Z</time>
      </trkpt>
      <trkpt lat="42.9718740" lon="-0.3246400">
        <ele>1538.8</ele>
        <time>2020-07-28T09:46:16Z</time>
      </trkpt>
      <trkpt lat="42.9719640" lon="-0.3246180">
        <ele>1539.2</ele>
        <time>2020-07-28T09:46:19Z</time>
      </trkpt>
      <trkpt lat="42.9719930" lon="-0.3246110">
        <ele>1539.4</ele>
        <time>2020-07-28T09:46:20Z</time>
      </trkpt>
      <trkpt lat="42.9720550" lon="-0.3245970">
        <ele>1539.6</ele>
        <time>2020-07-28T09:46:22Z</time>
      </trkpt>
      <trkpt lat="42.9720860" lon="-0.3245940">
        <ele>1539.8</ele>
        <time>2020-07-28T09:46:23Z</time>
      </trkpt>
      <trkpt lat="42.9721690" lon="-0.3245840">
        <ele>1540.8</ele>
        <time>2020-07-28T09:46:26Z</time>
      </trkpt>
      <trkpt lat="42.9722950" lon="-0.3246110">
        <ele>1542.0</ele>
        <time>2020-07-28T09:46:31Z</time>
      </trkpt>
      <trkpt lat="42.9723800" lon="-0.3246990">
        <ele>1542.8</ele>
        <time>2020-07-28T09:46:35Z</time>
      </trkpt>
      <trkpt lat="42.9724020" lon="-0.3247240">
        <ele>1543.2</ele>
        <time>2020-07-28T09:46:36Z</time>
      </trkpt>
      <trkpt lat="42.9724230" lon="-0.3247500">
        <ele>1543.4</ele>
        <time>2020-07-28T09:46:37Z</time>
      </trkpt>
      <trkpt lat="42.9724720" lon="-0.3248440">
        <ele>1544.2</ele>
        <time>2020-07-28T09:46:40Z</time>
      </trkpt>
      <trkpt lat="42.9725210" lon="-0.3249820">
        <ele>1545.0</ele>
        <time>2020-07-28T09:46:44Z</time>
      </trkpt>
      <trkpt lat="42.9725320" lon="-0.3250170">
        <ele>1545.2</ele>
        <time>2020-07-28T09:46:45Z</time>
      </trkpt>
      <trkpt lat="42.9725580" lon="-0.3252270">
        <ele>1546.2</ele>
        <time>2020-07-28T09:46:51Z</time>
      </trkpt>
      <trkpt lat="42.9725540" lon="-0.3252600">
        <ele>1546.6</ele>
        <time>2020-07-28T09:46:52Z</time>
      </trkpt>
      <trkpt lat="42.9725340" lon="-0.3253640">
        <ele>1547.4</ele>
        <time>2020-07-28T09:46:55Z</time>
      </trkpt>
      <trkpt lat="42.9724780" lon="-0.3255630">
        <ele>1548.6</ele>
        <time>2020-07-28T09:47:01Z</time>
      </trkpt>
      <trkpt lat="42.9723620" lon="-0.3257300">
        <ele>1549.4</ele>
        <time>2020-07-28T09:47:07Z</time>
      </trkpt>
      <trkpt lat="42.9722490" lon="-0.3258320">
        <ele>1549.8</ele>
        <time>2020-07-28T09:47:11Z</time>
      </trkpt>
      <trkpt lat="42.9721590" lon="-0.3259090">
        <ele>1550.0</ele>
        <time>2020-07-28T09:47:14Z</time>
      </trkpt>
      <trkpt lat="42.9720970" lon="-0.3259630">
        <ele>1550.2</ele>
        <time>2020-07-28T09:47:16Z</time>
      </trkpt>
      <trkpt lat="42.9719130" lon="-0.3261260">
        <ele>1550.4</ele>
        <time>2020-07-28T09:47:22Z</time>
      </trkpt>
      <trkpt lat="42.9718270" lon="-0.3262200">
        <ele>1550.6</ele>
        <time>2020-07-28T09:47:25Z</time>
      </trkpt>
      <trkpt lat="42.9717780" lon="-0.3262950">
        <ele>1550.8</ele>
        <time>2020-07-28T09:47:27Z</time>
      </trkpt>
      <trkpt lat="42.9716860" lon="-0.3264590">
        <ele>1551.4</ele>
        <time>2020-07-28T09:47:31Z</time>
      </trkpt>
      <trkpt lat="42.9716610" lon="-0.3265010">
        <ele>1551.6</ele>
        <time>2020-07-28T09:47:32Z</time>
      </trkpt>
      <trkpt lat="42.9716350" lon="-0.3265430">
        <ele>1551.8</ele>
        <time>2020-07-28T09:47:33Z</time>
      </trkpt>
      <trkpt lat="42.9716080" lon="-0.3265850">
        <ele>1552.0</ele>
        <time>2020-07-28T09:47:34Z</time>
      </trkpt>
      <trkpt lat="42.9714360" lon="-0.3268430">
        <ele>1552.6</ele>
        <time>2020-07-28T09:47:40Z</time>
      </trkpt>
      <trkpt lat="42.9714080" lon="-0.3268890">
        <ele>1552.8</ele>
        <time>2020-07-28T09:47:41Z</time>
      </trkpt>
      <trkpt lat="42.9713610" lon="-0.3269860">
        <ele>1553.0</ele>
        <time>2020-07-28T09:47:43Z</time>
      </trkpt>
      <trkpt lat="42.9712670" lon="-0.3272600">
        <ele>1553.4</ele>
        <time>2020-07-28T09:47:48Z</time>
      </trkpt>
      <trkpt lat="42.9712360" lon="-0.3274360">
        <ele>1553.8</ele>
        <time>2020-07-28T09:47:51Z</time>
      </trkpt>
      <trkpt lat="42.9712470" lon="-0.3275540">
        <ele>1554.0</ele>
        <time>2020-07-28T09:47:53Z</time>
      </trkpt>
      <trkpt lat="42.9712840" lon="-0.3276610">
        <ele>1554.4</ele>
        <time>2020-07-28T09:47:55Z</time>
      </trkpt>
      <trkpt lat="42.9713640" lon="-0.3277960">
        <ele>1554.8</ele>
        <time>2020-07-28T09:47:58Z</time>
      </trkpt>
      <trkpt lat="42.9714260" lon="-0.3278690">
        <ele>1555.0</ele>
        <time>2020-07-28T09:48:00Z</time>
      </trkpt>
      <trkpt lat="42.9715370" lon="-0.3279960">
        <ele>1555.8</ele>
        <time>2020-07-28T09:48:04Z</time>
      </trkpt>
      <trkpt lat="42.9715830" lon="-0.3280630">
        <ele>1556.2</ele>
        <time>2020-07-28T09:48:06Z</time>
      </trkpt>
      <trkpt lat="42.9716220" lon="-0.3281820">
        <ele>1557.0</ele>
        <time>2020-07-28T09:48:09Z</time>
      </trkpt>
      <trkpt lat="42.9716270" lon="-0.3282250">
        <ele>1557.4</ele>
        <time>2020-07-28T09:48:10Z</time>
      </trkpt>
      <trkpt lat="42.9716090" lon="-0.3283970">
        <ele>1558.2</ele>
        <time>2020-07-28T09:48:14Z</time>
      </trkpt>
      <trkpt lat="42.9715970" lon="-0.3284420">
        <ele>1558.6</ele>
        <time>2020-07-28T09:48:15Z</time>
      </trkpt>
      <trkpt lat="42.9715690" lon="-0.3285310">
        <ele>1559.0</ele>
        <time>2020-07-28T09:48:17Z</time>
      </trkpt>
      <trkpt lat="42.9715510" lon="-0.3286600">
        <ele>1559.6</ele>
        <time>2020-07-28T09:48:20Z</time>
      </trkpt>
      <trkpt lat="42.9715500" lon="-0.3286990">
        <ele>1559.6</ele>
        <time>2020-07-28T09:48:21Z</time>
      </trkpt>
      <trkpt lat="42.9715620" lon="-0.3288820">
        <ele>1560.8</ele>
        <time>2020-07-28T09:48:26Z</time>
      </trkpt>
      <trkpt lat="42.9715760" lon="-0.3289480">
        <ele>1561.2</ele>
        <time>2020-07-28T09:48:28Z</time>
      </trkpt>
      <trkpt lat="42.9715860" lon="-0.3290120">
        <ele>1561.8</ele>
        <time>2020-07-28T09:48:30Z</time>
      </trkpt>
      <trkpt lat="42.9715870" lon="-0.3290440">
        <ele>1562.0</ele>
        <time>2020-07-28T09:48:31Z</time>
      </trkpt>
      <trkpt lat="42.9716100" lon="-0.3291690">
        <ele>1563.0</ele>
        <time>2020-07-28T09:48:35Z</time>
      </trkpt>
      <trkpt lat="42.9716510" lon="-0.3293720">
        <ele>1564.2</ele>
        <time>2020-07-28T09:48:41Z</time>
      </trkpt>
      <trkpt lat="42.9716660" lon="-0.3294420">
        <ele>1564.4</ele>
        <time>2020-07-28T09:48:43Z</time>
      </trkpt>
      <trkpt lat="42.9716900" lon="-0.3295790">
        <ele>1565.2</ele>
        <time>2020-07-28T09:48:47Z</time>
      </trkpt>
      <trkpt lat="42.9717220" lon="-0.3297660">
        <ele>1566.2</ele>
        <time>2020-07-28T09:48:52Z</time>
      </trkpt>
      <trkpt lat="42.9717680" lon="-0.3299590">
        <ele>1567.2</ele>
        <time>2020-07-28T09:48:57Z</time>
      </trkpt>
      <trkpt lat="42.9717810" lon="-0.3299970">
        <ele>1567.2</ele>
        <time>2020-07-28T09:48:58Z</time>
      </trkpt>
      <trkpt lat="42.9718100" lon="-0.3300730">
        <ele>1567.6</ele>
        <time>2020-07-28T09:49:00Z</time>
      </trkpt>
      <trkpt lat="42.9718270" lon="-0.3301120">
        <ele>1567.8</ele>
        <time>2020-07-28T09:49:01Z</time>
      </trkpt>
      <trkpt lat="42.9718660" lon="-0.3301800">
        <ele>1568.0</ele>
        <time>2020-07-28T09:49:03Z</time>
      </trkpt>
      <trkpt lat="42.9719060" lon="-0.3302350">
        <ele>1568.6</ele>
        <time>2020-07-28T09:49:05Z</time>
      </trkpt>
      <trkpt lat="42.9719240" lon="-0.3302600">
        <ele>1569.0</ele>
        <time>2020-07-28T09:49:06Z</time>
      </trkpt>
      <trkpt lat="42.9719740" lon="-0.3303390">
        <ele>1569.8</ele>
        <time>2020-07-28T09:49:09Z</time>
      </trkpt>
      <trkpt lat="42.9720310" lon="-0.3304660">
        <ele>1571.0</ele>
        <time>2020-07-28T09:49:14Z</time>
      </trkpt>
      <trkpt lat="42.9720710" lon="-0.3305350">
        <ele>1572.2</ele>
        <time>2020-07-28T09:49:17Z</time>
      </trkpt>
      <trkpt lat="42.9721260" lon="-0.3306320">
        <ele>1573.4</ele>
        <time>2020-07-28T09:49:21Z</time>
      </trkpt>
      <trkpt lat="42.9721420" lon="-0.3306540">
        <ele>1573.8</ele>
        <time>2020-07-28T09:49:22Z</time>
      </trkpt>
      <trkpt lat="42.9722030" lon="-0.3307600">
        <ele>1574.6</ele>
        <time>2020-07-28T09:49:26Z</time>
      </trkpt>
      <trkpt lat="42.9722500" lon="-0.3308340">
        <ele>1575.2</ele>
        <time>2020-07-28T09:49:29Z</time>
      </trkpt>
      <trkpt lat="42.9722840" lon="-0.3309240">
        <ele>1575.6</ele>
        <time>2020-07-28T09:49:32Z</time>
      </trkpt>
      <trkpt lat="42.9723000" lon="-0.3309870">
        <ele>1576.0</ele>
        <time>2020-07-28T09:49:34Z</time>
      </trkpt>
      <trkpt lat="42.9723050" lon="-0.3310540">
        <ele>1576.4</ele>
        <time>2020-07-28T09:49:36Z</time>
      </trkpt>
      <trkpt lat="42.9723030" lon="-0.3310880">
        <ele>1576.8</ele>
        <time>2020-07-28T09:49:37Z</time>
      </trkpt>
      <trkpt lat="42.9722850" lon="-0.3312700">
        <ele>1577.8</ele>
        <time>2020-07-28T09:49:43Z</time>
      </trkpt>
      <trkpt lat="42.9722690" lon="-0.3313600">
        <ele>1578.8</ele>
        <time>2020-07-28T09:49:46Z</time>
      </trkpt>
      <trkpt lat="42.9722640" lon="-0.3313880">
        <ele>1579.0</ele>
        <time>2020-07-28T09:49:47Z</time>
      </trkpt>
      <trkpt lat="42.9722200" lon="-0.3315670">
        <ele>1580.0</ele>
        <time>2020-07-28T09:49:53Z</time>
      </trkpt>
      <trkpt lat="42.9722160" lon="-0.3315990">
        <ele>1580.0</ele>
        <time>2020-07-28T09:49:54Z</time>
      </trkpt>
      <trkpt lat="42.9722120" lon="-0.3317610">
        <ele>1581.2</ele>
        <time>2020-07-28T09:49:59Z</time>
      </trkpt>
      <trkpt lat="42.9722250" lon="-0.3318260">
        <ele>1581.4</ele>
        <time>2020-07-28T09:50:01Z</time>
      </trkpt>
      <trkpt lat="42.9722760" lon="-0.3319510">
        <ele>1582.4</ele>
        <time>2020-07-28T09:50:05Z</time>
      </trkpt>
      <trkpt lat="42.9723180" lon="-0.3319910">
        <ele>1582.8</ele>
        <time>2020-07-28T09:50:07Z</time>
      </trkpt>
      <trkpt lat="42.9724150" lon="-0.3319960">
        <ele>1583.4</ele>
        <time>2020-07-28T09:50:11Z</time>
      </trkpt>
      <trkpt lat="42.9724390" lon="-0.3319880">
        <ele>1583.6</ele>
        <time>2020-07-28T09:50:12Z</time>
      </trkpt>
      <trkpt lat="42.9725590" lon="-0.3319520">
        <ele>1584.6</ele>
        <time>2020-07-28T09:50:17Z</time>
      </trkpt>
      <trkpt lat="42.9726540" lon="-0.3319220">
        <ele>1585.4</ele>
        <time>2020-07-28T09:50:21Z</time>
      </trkpt>
      <trkpt lat="42.9727030" lon="-0.3319120">
        <ele>1585.6</ele>
        <time>2020-07-28T09:50:23Z</time>
      </trkpt>
      <trkpt lat="42.9728220" lon="-0.3319060">
        <ele>1586.6</ele>
        <time>2020-07-28T09:50:28Z</time>
      </trkpt>
      <trkpt lat="42.9729600" lon="-0.3319150">
        <ele>1587.8</ele>
        <time>2020-07-28T09:50:34Z</time>
      </trkpt>
      <trkpt lat="42.9729830" lon="-0.3319170">
        <ele>1588.0</ele>
        <time>2020-07-28T09:50:35Z</time>
      </trkpt>
      <trkpt lat="42.9731000" lon="-0.3319410">
        <ele>1589.0</ele>
        <time>2020-07-28T09:50:40Z</time>
      </trkpt>
      <trkpt lat="42.9731950" lon="-0.3319750">
        <ele>1589.8</ele>
        <time>2020-07-28T09:50:44Z</time>
      </trkpt>
      <trkpt lat="42.9732420" lon="-0.3319950">
        <ele>1590.0</ele>
        <time>2020-07-28T09:50:46Z</time>
      </trkpt>
      <trkpt lat="42.9733830" lon="-0.3320690">
        <ele>1591.2</ele>
        <time>2020-07-28T09:50:52Z</time>
      </trkpt>
      <trkpt lat="42.9734040" lon="-0.3320800">
        <ele>1591.4</ele>
        <time>2020-07-28T09:50:53Z</time>
      </trkpt>
      <trkpt lat="42.9734900" lon="-0.3321450">
        <ele>1592.4</ele>
        <time>2020-07-28T09:50:57Z</time>
      </trkpt>
      <trkpt lat="42.9735560" lon="-0.3322020">
        <ele>1593.0</ele>
        <time>2020-07-28T09:51:00Z</time>
      </trkpt>
      <trkpt lat="42.9737010" lon="-0.3323410">
        <ele>1593.4</ele>
        <time>2020-07-28T09:51:06Z</time>
      </trkpt>
      <trkpt lat="42.9737250" lon="-0.3323670">
        <ele>1593.6</ele>
        <time>2020-07-28T09:51:07Z</time>
      </trkpt>
      <trkpt lat="42.9737720" lon="-0.3324210">
        <ele>1594.0</ele>
        <time>2020-07-28T09:51:09Z</time>
      </trkpt>
      <trkpt lat="42.9738810" lon="-0.3325520">
        <ele>1594.6</ele>
        <time>2020-07-28T09:51:14Z</time>
      </trkpt>
      <trkpt lat="42.9739230" lon="-0.3326080">
        <ele>1594.8</ele>
        <time>2020-07-28T09:51:16Z</time>
      </trkpt>
      <trkpt lat="42.9740230" lon="-0.3327530">
        <ele>1595.4</ele>
        <time>2020-07-28T09:51:21Z</time>
      </trkpt>
      <trkpt lat="42.9740600" lon="-0.3328140">
        <ele>1595.8</ele>
        <time>2020-07-28T09:51:23Z</time>
      </trkpt>
      <trkpt lat="42.9740770" lon="-0.3328450">
        <ele>1595.8</ele>
        <time>2020-07-28T09:51:24Z</time>
      </trkpt>
      <trkpt lat="42.9741620" lon="-0.3330430">
        <ele>1596.8</ele>
        <time>2020-07-28T09:51:30Z</time>
      </trkpt>
      <trkpt lat="42.9741820" lon="-0.3331100">
        <ele>1597.2</ele>
        <time>2020-07-28T09:51:32Z</time>
      </trkpt>
      <trkpt lat="42.9742000" lon="-0.3332050">
        <ele>1598.0</ele>
        <time>2020-07-28T09:51:35Z</time>
      </trkpt>
      <trkpt lat="42.9742280" lon="-0.3333360">
        <ele>1598.6</ele>
        <time>2020-07-28T09:51:39Z</time>
      </trkpt>
      <trkpt lat="42.9742480" lon="-0.3333990">
        <ele>1599.0</ele>
        <time>2020-07-28T09:51:41Z</time>
      </trkpt>
      <trkpt lat="42.9742940" lon="-0.3335240">
        <ele>1599.6</ele>
        <time>2020-07-28T09:51:45Z</time>
      </trkpt>
      <trkpt lat="42.9743130" lon="-0.3335860">
        <ele>1600.2</ele>
        <time>2020-07-28T09:51:47Z</time>
      </trkpt>
      <trkpt lat="42.9743580" lon="-0.3337000">
        <ele>1601.2</ele>
        <time>2020-07-28T09:51:51Z</time>
      </trkpt>
      <trkpt lat="42.9743670" lon="-0.3337310">
        <ele>1601.4</ele>
        <time>2020-07-28T09:51:52Z</time>
      </trkpt>
      <trkpt lat="42.9744000" lon="-0.3338510">
        <ele>1602.4</ele>
        <time>2020-07-28T09:51:56Z</time>
      </trkpt>
      <trkpt lat="42.9744210" lon="-0.3339090">
        <ele>1602.8</ele>
        <time>2020-07-28T09:51:58Z</time>
      </trkpt>
      <trkpt lat="42.9744770" lon="-0.3340440">
        <ele>1603.6</ele>
        <time>2020-07-28T09:52:03Z</time>
      </trkpt>
      <trkpt lat="42.9745340" lon="-0.3341420">
        <ele>1604.6</ele>
        <time>2020-07-28T09:52:07Z</time>
      </trkpt>
      <trkpt lat="42.9745500" lon="-0.3341640">
        <ele>1604.8</ele>
        <time>2020-07-28T09:52:08Z</time>
      </trkpt>
      <trkpt lat="42.9746160" lon="-0.3342410">
        <ele>1605.8</ele>
        <time>2020-07-28T09:52:12Z</time>
      </trkpt>
      <trkpt lat="42.9747050" lon="-0.3343340">
        <ele>1606.4</ele>
        <time>2020-07-28T09:52:17Z</time>
      </trkpt>
      <trkpt lat="42.9747390" lon="-0.3343740">
        <ele>1607.0</ele>
        <time>2020-07-28T09:52:19Z</time>
      </trkpt>
      <trkpt lat="42.9747870" lon="-0.3344370">
        <ele>1607.6</ele>
        <time>2020-07-28T09:52:22Z</time>
      </trkpt>
      <trkpt lat="42.9748200" lon="-0.3344790">
        <ele>1608.0</ele>
        <time>2020-07-28T09:52:24Z</time>
      </trkpt>
      <trkpt lat="42.9748360" lon="-0.3345010">
        <ele>1608.2</ele>
        <time>2020-07-28T09:52:25Z</time>
      </trkpt>
      <trkpt lat="42.9748820" lon="-0.3345740">
        <ele>1608.8</ele>
        <time>2020-07-28T09:52:28Z</time>
      </trkpt>
      <trkpt lat="42.9749090" lon="-0.3346310">
        <ele>1609.2</ele>
        <time>2020-07-28T09:52:30Z</time>
      </trkpt>
      <trkpt lat="42.9749220" lon="-0.3346610">
        <ele>1609.4</ele>
        <time>2020-07-28T09:52:31Z</time>
      </trkpt>
      <trkpt lat="42.9749450" lon="-0.3347210">
        <ele>1609.8</ele>
        <time>2020-07-28T09:52:33Z</time>
      </trkpt>
      <trkpt lat="42.9749570" lon="-0.3347510">
        <ele>1610.0</ele>
        <time>2020-07-28T09:52:34Z</time>
      </trkpt>
      <trkpt lat="42.9749680" lon="-0.3347810">
        <ele>1610.4</ele>
        <time>2020-07-28T09:52:35Z</time>
      </trkpt>
      <trkpt lat="42.9749860" lon="-0.3348390">
        <ele>1610.6</ele>
        <time>2020-07-28T09:52:37Z</time>
      </trkpt>
      <trkpt lat="42.9750010" lon="-0.3348980">
        <ele>1610.8</ele>
        <time>2020-07-28T09:52:39Z</time>
      </trkpt>
      <trkpt lat="42.9750180" lon="-0.3349610">
        <ele>1611.2</ele>
        <time>2020-07-28T09:52:41Z</time>
      </trkpt>
      <trkpt lat="42.9750260" lon="-0.3349910">
        <ele>1611.4</ele>
        <time>2020-07-28T09:52:42Z</time>
      </trkpt>
      <trkpt lat="42.9750510" lon="-0.3351070">
        <ele>1612.8</ele>
        <time>2020-07-28T09:52:46Z</time>
      </trkpt>
      <trkpt lat="42.9750600" lon="-0.3351370">
        <ele>1613.0</ele>
        <time>2020-07-28T09:52:47Z</time>
      </trkpt>
      <trkpt lat="42.9750990" lon="-0.3353200">
        <ele>1614.0</ele>
        <time>2020-07-28T09:52:53Z</time>
      </trkpt>
      <trkpt lat="42.9751120" lon="-0.3354120">
        <ele>1614.4</ele>
        <time>2020-07-28T09:52:56Z</time>
      </trkpt>
      <trkpt lat="42.9751270" lon="-0.3355360">
        <ele>1615.0</ele>
        <time>2020-07-28T09:53:00Z</time>
      </trkpt>
      <trkpt lat="42.9751420" lon="-0.3356710">
        <ele>1616.2</ele>
        <time>2020-07-28T09:53:04Z</time>
      </trkpt>
      <trkpt lat="42.9751590" lon="-0.3358750">
        <ele>1617.0</ele>
        <time>2020-07-28T09:53:10Z</time>
      </trkpt>
      <trkpt lat="42.9751610" lon="-0.3359060">
        <ele>1617.2</ele>
        <time>2020-07-28T09:53:11Z</time>
      </trkpt>
      <trkpt lat="42.9751650" lon="-0.3359360">
        <ele>1617.4</ele>
        <time>2020-07-28T09:53:12Z</time>
      </trkpt>
      <trkpt lat="42.9751860" lon="-0.3360190">
        <ele>1618.2</ele>
        <time>2020-07-28T09:53:15Z</time>
      </trkpt>
      <trkpt lat="42.9752140" lon="-0.3361680">
        <ele>1619.4</ele>
        <time>2020-07-28T09:53:20Z</time>
      </trkpt>
      <trkpt lat="42.9752160" lon="-0.3362000">
        <ele>1619.6</ele>
        <time>2020-07-28T09:53:21Z</time>
      </trkpt>
      <trkpt lat="42.9752210" lon="-0.3363190">
        <ele>1620.4</ele>
        <time>2020-07-28T09:53:25Z</time>
      </trkpt>
      <trkpt lat="42.9752170" lon="-0.3363500">
        <ele>1620.6</ele>
        <time>2020-07-28T09:53:28Z</time>
      </trkpt>
      <trkpt lat="42.9752110" lon="-0.3363450">
        <ele>1620.8</ele>
        <time>2020-07-28T09:53:31Z</time>
      </trkpt>
      <trkpt lat="42.9752110" lon="-0.3363380">
        <ele>1620.8</ele>
        <time>2020-07-28T09:53:34Z</time>
      </trkpt>
      <trkpt lat="42.9752100" lon="-0.3363370">
        <ele>1621.0</ele>
        <time>2020-07-28T09:53:40Z</time>
      </trkpt>
      <trkpt lat="42.9752150" lon="-0.3363380">
        <ele>1621.4</ele>
        <time>2020-07-28T09:53:45Z</time>
      </trkpt>
      <trkpt lat="42.9752180" lon="-0.3363900">
        <ele>1621.4</ele>
        <time>2020-07-28T09:53:51Z</time>
      </trkpt>
      <trkpt lat="42.9752160" lon="-0.3364090">
        <ele>1621.4</ele>
        <time>2020-07-28T09:53:52Z</time>
      </trkpt>
      <trkpt lat="42.9752200" lon="-0.3364320">
        <ele>1621.4</ele>
        <time>2020-07-28T09:53:53Z</time>
      </trkpt>
      <trkpt lat="42.9752270" lon="-0.3364850">
        <ele>1621.8</ele>
        <time>2020-07-28T09:53:55Z</time>
      </trkpt>
      <trkpt lat="42.9752290" lon="-0.3366150">
        <ele>1622.4</ele>
        <time>2020-07-28T09:53:59Z</time>
      </trkpt>
      <trkpt lat="42.9752280" lon="-0.3366470">
        <ele>1622.8</ele>
        <time>2020-07-28T09:54:00Z</time>
      </trkpt>
      <trkpt lat="42.9752460" lon="-0.3368050">
        <ele>1624.2</ele>
        <time>2020-07-28T09:54:05Z</time>
      </trkpt>
      <trkpt lat="42.9752540" lon="-0.3368340">
        <ele>1624.4</ele>
        <time>2020-07-28T09:54:06Z</time>
      </trkpt>
      <trkpt lat="42.9752740" lon="-0.3369320">
        <ele>1625.4</ele>
        <time>2020-07-28T09:54:09Z</time>
      </trkpt>
      <trkpt lat="42.9753070" lon="-0.3370600">
        <ele>1626.2</ele>
        <time>2020-07-28T09:54:13Z</time>
      </trkpt>
      <trkpt lat="42.9753370" lon="-0.3371530">
        <ele>1626.6</ele>
        <time>2020-07-28T09:54:16Z</time>
      </trkpt>
      <trkpt lat="42.9753640" lon="-0.3372070">
        <ele>1626.6</ele>
        <time>2020-07-28T09:54:18Z</time>
      </trkpt>
      <trkpt lat="42.9754000" lon="-0.3372510">
        <ele>1627.0</ele>
        <time>2020-07-28T09:54:20Z</time>
      </trkpt>
      <trkpt lat="42.9754340" lon="-0.3372990">
        <ele>1627.8</ele>
        <time>2020-07-28T09:54:22Z</time>
      </trkpt>
      <trkpt lat="42.9755560" lon="-0.3374210">
        <ele>1629.0</ele>
        <time>2020-07-28T09:54:28Z</time>
      </trkpt>
      <trkpt lat="42.9755760" lon="-0.3374400">
        <ele>1629.2</ele>
        <time>2020-07-28T09:54:29Z</time>
      </trkpt>
      <trkpt lat="42.9755960" lon="-0.3374590">
        <ele>1629.4</ele>
        <time>2020-07-28T09:54:30Z</time>
      </trkpt>
      <trkpt lat="42.9756190" lon="-0.3374770">
        <ele>1629.6</ele>
        <time>2020-07-28T09:54:31Z</time>
      </trkpt>
      <trkpt lat="42.9756650" lon="-0.3375120">
        <ele>1630.0</ele>
        <time>2020-07-28T09:54:33Z</time>
      </trkpt>
      <trkpt lat="42.9756870" lon="-0.3375300">
        <ele>1630.2</ele>
        <time>2020-07-28T09:54:34Z</time>
      </trkpt>
      <trkpt lat="42.9757100" lon="-0.3375480">
        <ele>1630.4</ele>
        <time>2020-07-28T09:54:35Z</time>
      </trkpt>
      <trkpt lat="42.9757320" lon="-0.3375670">
        <ele>1630.8</ele>
        <time>2020-07-28T09:54:36Z</time>
      </trkpt>
      <trkpt lat="42.9757550" lon="-0.3375850">
        <ele>1631.0</ele>
        <time>2020-07-28T09:54:37Z</time>
      </trkpt>
      <trkpt lat="42.9758610" lon="-0.3376680">
        <ele>1632.2</ele>
        <time>2020-07-28T09:54:42Z</time>
      </trkpt>
      <trkpt lat="42.9759220" lon="-0.3377180">
        <ele>1632.8</ele>
        <time>2020-07-28T09:54:45Z</time>
      </trkpt>
      <trkpt lat="42.9759430" lon="-0.3377320">
        <ele>1633.0</ele>
        <time>2020-07-28T09:54:46Z</time>
      </trkpt>
      <trkpt lat="42.9759870" lon="-0.3377570">
        <ele>1633.4</ele>
        <time>2020-07-28T09:54:48Z</time>
      </trkpt>
      <trkpt lat="42.9760840" lon="-0.3378280">
        <ele>1634.4</ele>
        <time>2020-07-28T09:54:53Z</time>
      </trkpt>
      <trkpt lat="42.9761740" lon="-0.3379310">
        <ele>1635.6</ele>
        <time>2020-07-28T09:54:58Z</time>
      </trkpt>
      <trkpt lat="42.9762070" lon="-0.3379830">
        <ele>1636.4</ele>
        <time>2020-07-28T09:55:00Z</time>
      </trkpt>
      <trkpt lat="42.9762380" lon="-0.3380370">
        <ele>1636.8</ele>
        <time>2020-07-28T09:55:02Z</time>
      </trkpt>
      <trkpt lat="42.9762920" lon="-0.3381380">
        <ele>1638.0</ele>
        <time>2020-07-28T09:55:06Z</time>
      </trkpt>
      <trkpt lat="42.9763190" lon="-0.3382240">
        <ele>1638.4</ele>
        <time>2020-07-28T09:55:09Z</time>
      </trkpt>
      <trkpt lat="42.9763330" lon="-0.3382880">
        <ele>1638.6</ele>
        <time>2020-07-28T09:55:11Z</time>
      </trkpt>
      <trkpt lat="42.9763390" lon="-0.3383200">
        <ele>1639.0</ele>
        <time>2020-07-28T09:55:12Z</time>
      </trkpt>
      <trkpt lat="42.9763720" lon="-0.3384830">
        <ele>1640.0</ele>
        <time>2020-07-28T09:55:17Z</time>
      </trkpt>
      <trkpt lat="42.9763810" lon="-0.3385540">
        <ele>1640.4</ele>
        <time>2020-07-28T09:55:19Z</time>
      </trkpt>
      <trkpt lat="42.9764050" lon="-0.3386940">
        <ele>1641.2</ele>
        <time>2020-07-28T09:55:23Z</time>
      </trkpt>
      <trkpt lat="42.9764410" lon="-0.3388580">
        <ele>1641.6</ele>
        <time>2020-07-28T09:55:28Z</time>
      </trkpt>
      <trkpt lat="42.9764640" lon="-0.3389560">
        <ele>1642.2</ele>
        <time>2020-07-28T09:55:31Z</time>
      </trkpt>
      <trkpt lat="42.9765090" lon="-0.3390780">
        <ele>1643.0</ele>
        <time>2020-07-28T09:55:35Z</time>
      </trkpt>
      <trkpt lat="42.9765200" lon="-0.3391070">
        <ele>1643.2</ele>
        <time>2020-07-28T09:55:36Z</time>
      </trkpt>
      <trkpt lat="42.9765810" lon="-0.3392330">
        <ele>1644.6</ele>
        <time>2020-07-28T09:55:41Z</time>
      </trkpt>
      <trkpt lat="42.9765930" lon="-0.3392590">
        <ele>1644.8</ele>
        <time>2020-07-28T09:55:42Z</time>
      </trkpt>
      <trkpt lat="42.9766360" lon="-0.3393720">
        <ele>1645.6</ele>
        <time>2020-07-28T09:55:46Z</time>
      </trkpt>
      <trkpt lat="42.9766800" lon="-0.3394860">
        <ele>1646.6</ele>
        <time>2020-07-28T09:55:50Z</time>
      </trkpt>
      <trkpt lat="42.9766850" lon="-0.3395160">
        <ele>1647.0</ele>
        <time>2020-07-28T09:55:51Z</time>
      </trkpt>
      <trkpt lat="42.9766820" lon="-0.3396930">
        <ele>1647.8</ele>
        <time>2020-07-28T09:55:57Z</time>
      </trkpt>
      <trkpt lat="42.9766350" lon="-0.3398280">
        <ele>1648.8</ele>
        <time>2020-07-28T09:56:02Z</time>
      </trkpt>
      <trkpt lat="42.9763400" lon="-0.3404000">
        <ele>1649.8</ele>
        <time>2020-07-28T10:32:00Z</time>
      </trkpt>
      <trkpt lat="42.9763350" lon="-0.3404340">
        <ele>1649.8</ele>
        <time>2020-07-28T10:32:01Z</time>
      </trkpt>
      <trkpt lat="42.9763210" lon="-0.3405470">
        <ele>1648.6</ele>
        <time>2020-07-28T10:32:03Z</time>
      </trkpt>
      <trkpt lat="42.9763190" lon="-0.3406080">
        <ele>1645.8</ele>
        <time>2020-07-28T10:32:04Z</time>
      </trkpt>
      <trkpt lat="42.9763180" lon="-0.3406720">
        <ele>1643.0</ele>
        <time>2020-07-28T10:32:05Z</time>
      </trkpt>
      <trkpt lat="42.9763190" lon="-0.3407420">
        <ele>1641.0</ele>
        <time>2020-07-28T10:32:06Z</time>
      </trkpt>
      <trkpt lat="42.9763260" lon="-0.3408180">
        <ele>1639.8</ele>
        <time>2020-07-28T10:32:07Z</time>
      </trkpt>
      <trkpt lat="42.9763520" lon="-0.3409870">
        <ele>1638.6</ele>
        <time>2020-07-28T10:32:09Z</time>
      </trkpt>
      <trkpt lat="42.9763990" lon="-0.3411730">
        <ele>1637.2</ele>
        <time>2020-07-28T10:32:11Z</time>
      </trkpt>
      <trkpt lat="42.9764550" lon="-0.3413400">
        <ele>1635.6</ele>
        <time>2020-07-28T10:32:13Z</time>
      </trkpt>
      <trkpt lat="42.9764820" lon="-0.3414070">
        <ele>1635.2</ele>
        <time>2020-07-28T10:32:14Z</time>
      </trkpt>
      <trkpt lat="42.9765430" lon="-0.3415230">
        <ele>1634.4</ele>
        <time>2020-07-28T10:32:16Z</time>
      </trkpt>
      <trkpt lat="42.9766190" lon="-0.3416380">
        <ele>1633.4</ele>
        <time>2020-07-28T10:32:18Z</time>
      </trkpt>
      <trkpt lat="42.9766630" lon="-0.3416930">
        <ele>1633.0</ele>
        <time>2020-07-28T10:32:19Z</time>
      </trkpt>
      <trkpt lat="42.9767570" lon="-0.3418010">
        <ele>1632.0</ele>
        <time>2020-07-28T10:32:21Z</time>
      </trkpt>
      <trkpt lat="42.9768490" lon="-0.3419160">
        <ele>1630.4</ele>
        <time>2020-07-28T10:32:23Z</time>
      </trkpt>
      <trkpt lat="42.9768830" lon="-0.3419780">
        <ele>1629.6</ele>
        <time>2020-07-28T10:32:24Z</time>
      </trkpt>
      <trkpt lat="42.9769200" lon="-0.3420460">
        <ele>1629.2</ele>
        <time>2020-07-28T10:32:25Z</time>
      </trkpt>
      <trkpt lat="42.9769510" lon="-0.3421170">
        <ele>1628.6</ele>
        <time>2020-07-28T10:32:26Z</time>
      </trkpt>
      <trkpt lat="42.9770070" lon="-0.3422680">
        <ele>1627.8</ele>
        <time>2020-07-28T10:32:28Z</time>
      </trkpt>
      <trkpt lat="42.9770510" lon="-0.3424430">
        <ele>1626.8</ele>
        <time>2020-07-28T10:32:30Z</time>
      </trkpt>
      <trkpt lat="42.9770720" lon="-0.3425380">
        <ele>1626.4</ele>
        <time>2020-07-28T10:32:31Z</time>
      </trkpt>
      <trkpt lat="42.9770910" lon="-0.3426380">
        <ele>1626.2</ele>
        <time>2020-07-28T10:32:32Z</time>
      </trkpt>
      <trkpt lat="42.9771090" lon="-0.3427340">
        <ele>1625.4</ele>
        <time>2020-07-28T10:32:33Z</time>
      </trkpt>
      <trkpt lat="42.9771440" lon="-0.3429140">
        <ele>1623.6</ele>
        <time>2020-07-28T10:32:35Z</time>
      </trkpt>
      <trkpt lat="42.9771710" lon="-0.3429960">
        <ele>1623.0</ele>
        <time>2020-07-28T10:32:36Z</time>
      </trkpt>
      <trkpt lat="42.9772070" lon="-0.3430720">
        <ele>1622.4</ele>
        <time>2020-07-28T10:32:37Z</time>
      </trkpt>
      <trkpt lat="42.9772540" lon="-0.3431380">
        <ele>1621.8</ele>
        <time>2020-07-28T10:32:38Z</time>
      </trkpt>
      <trkpt lat="42.9773070" lon="-0.3431870">
        <ele>1621.4</ele>
        <time>2020-07-28T10:32:39Z</time>
      </trkpt>
      <trkpt lat="42.9773660" lon="-0.3432180">
        <ele>1620.8</ele>
        <time>2020-07-28T10:32:40Z</time>
      </trkpt>
      <trkpt lat="42.9774290" lon="-0.3432280">
        <ele>1620.2</ele>
        <time>2020-07-28T10:32:41Z</time>
      </trkpt>
      <trkpt lat="42.9775020" lon="-0.3432170">
        <ele>1619.8</ele>
        <time>2020-07-28T10:32:42Z</time>
      </trkpt>
      <trkpt lat="42.9775740" lon="-0.3432020">
        <ele>1619.0</ele>
        <time>2020-07-28T10:32:43Z</time>
      </trkpt>
      <trkpt lat="42.9776460" lon="-0.3431810">
        <ele>1618.4</ele>
        <time>2020-07-28T10:32:44Z</time>
      </trkpt>
      <trkpt lat="42.9777160" lon="-0.3431500">
        <ele>1617.6</ele>
        <time>2020-07-28T10:32:45Z</time>
      </trkpt>
      <trkpt lat="42.9777820" lon="-0.3431120">
        <ele>1617.0</ele>
        <time>2020-07-28T10:32:46Z</time>
      </trkpt>
      <trkpt lat="42.9778430" lon="-0.3430650">
        <ele>1616.4</ele>
        <time>2020-07-28T10:32:47Z</time>
      </trkpt>
      <trkpt lat="42.9779010" lon="-0.3430070">
        <ele>1615.8</ele>
        <time>2020-07-28T10:32:48Z</time>
      </trkpt>
      <trkpt lat="42.9779570" lon="-0.3429430">
        <ele>1615.2</ele>
        <time>2020-07-28T10:32:49Z</time>
      </trkpt>
      <trkpt lat="42.9780720" lon="-0.3428240">
        <ele>1613.6</ele>
        <time>2020-07-28T10:32:51Z</time>
      </trkpt>
      <trkpt lat="42.9781360" lon="-0.3427780">
        <ele>1613.0</ele>
        <time>2020-07-28T10:32:52Z</time>
      </trkpt>
      <trkpt lat="42.9782020" lon="-0.3427480">
        <ele>1612.4</ele>
        <time>2020-07-28T10:32:53Z</time>
      </trkpt>
      <trkpt lat="42.9783350" lon="-0.3427370">
        <ele>1611.4</ele>
        <time>2020-07-28T10:32:55Z</time>
      </trkpt>
      <trkpt lat="42.9785400" lon="-0.3427480">
        <ele>1610.4</ele>
        <time>2020-07-28T10:32:58Z</time>
      </trkpt>
      <trkpt lat="42.9786120" lon="-0.3427370">
        <ele>1610.0</ele>
        <time>2020-07-28T10:32:59Z</time>
      </trkpt>
      <trkpt lat="42.9786850" lon="-0.3427190">
        <ele>1609.6</ele>
        <time>2020-07-28T10:33:00Z</time>
      </trkpt>
      <trkpt lat="42.9787570" lon="-0.3427020">
        <ele>1608.8</ele>
        <time>2020-07-28T10:33:01Z</time>
      </trkpt>
      <trkpt lat="42.9788250" lon="-0.3426950">
        <ele>1608.2</ele>
        <time>2020-07-28T10:33:02Z</time>
      </trkpt>
      <trkpt lat="42.9788870" lon="-0.3427000">
        <ele>1607.6</ele>
        <time>2020-07-28T10:33:03Z</time>
      </trkpt>
      <trkpt lat="42.9789370" lon="-0.3427180">
        <ele>1607.2</ele>
        <time>2020-07-28T10:33:04Z</time>
      </trkpt>
      <trkpt lat="42.9790180" lon="-0.3428070">
        <ele>1606.4</ele>
        <time>2020-07-28T10:33:06Z</time>
      </trkpt>
      <trkpt lat="42.9790330" lon="-0.3428630">
        <ele>1606.2</ele>
        <time>2020-07-28T10:33:07Z</time>
      </trkpt>
      <trkpt lat="42.9790230" lon="-0.3429270">
        <ele>1605.6</ele>
        <time>2020-07-28T10:33:08Z</time>
      </trkpt>
      <trkpt lat="42.9790040" lon="-0.3429900">
        <ele>1605.4</ele>
        <time>2020-07-28T10:33:09Z</time>
      </trkpt>
      <trkpt lat="42.9789720" lon="-0.3430340">
        <ele>1605.0</ele>
        <time>2020-07-28T10:33:10Z</time>
      </trkpt>
      <trkpt lat="42.9788730" lon="-0.3430810">
        <ele>1604.4</ele>
        <time>2020-07-28T10:33:12Z</time>
      </trkpt>
      <trkpt lat="42.9788230" lon="-0.3430830">
        <ele>1604.0</ele>
        <time>2020-07-28T10:33:13Z</time>
      </trkpt>
      <trkpt lat="42.9787300" lon="-0.3430660">
        <ele>1603.4</ele>
        <time>2020-07-28T10:33:15Z</time>
      </trkpt>
      <trkpt lat="42.9786410" lon="-0.3430430">
        <ele>1603.0</ele>
        <time>2020-07-28T10:33:17Z</time>
      </trkpt>
      <trkpt lat="42.9785640" lon="-0.3430350">
        <ele>1602.2</ele>
        <time>2020-07-28T10:33:19Z</time>
      </trkpt>
      <trkpt lat="42.9784880" lon="-0.3430350">
        <ele>1601.8</ele>
        <time>2020-07-28T10:33:21Z</time>
      </trkpt>
      <trkpt lat="42.9784060" lon="-0.3430450">
        <ele>1601.6</ele>
        <time>2020-07-28T10:33:23Z</time>
      </trkpt>
      <trkpt lat="42.9783220" lon="-0.3430770">
        <ele>1601.2</ele>
        <time>2020-07-28T10:33:25Z</time>
      </trkpt>
      <trkpt lat="42.9782520" lon="-0.3431320">
        <ele>1600.8</ele>
        <time>2020-07-28T10:33:27Z</time>
      </trkpt>
      <trkpt lat="42.9782240" lon="-0.3431730">
        <ele>1600.4</ele>
        <time>2020-07-28T10:33:28Z</time>
      </trkpt>
      <trkpt lat="42.9782010" lon="-0.3432240">
        <ele>1600.0</ele>
        <time>2020-07-28T10:33:29Z</time>
      </trkpt>
      <trkpt lat="42.9781840" lon="-0.3432850">
        <ele>1599.6</ele>
        <time>2020-07-28T10:33:30Z</time>
      </trkpt>
      <trkpt lat="42.9781320" lon="-0.3435060">
        <ele>1598.4</ele>
        <time>2020-07-28T10:33:33Z</time>
      </trkpt>
      <trkpt lat="42.9780780" lon="-0.3436630">
        <ele>1597.2</ele>
        <time>2020-07-28T10:33:35Z</time>
      </trkpt>
      <trkpt lat="42.9780440" lon="-0.3437370">
        <ele>1596.6</ele>
        <time>2020-07-28T10:33:36Z</time>
      </trkpt>
      <trkpt lat="42.9780060" lon="-0.3438100">
        <ele>1595.8</ele>
        <time>2020-07-28T10:33:37Z</time>
      </trkpt>
      <trkpt lat="42.9779680" lon="-0.3438810">
        <ele>1595.2</ele>
        <time>2020-07-28T10:33:38Z</time>
      </trkpt>
      <trkpt lat="42.9779340" lon="-0.3439500">
        <ele>1594.6</ele>
        <time>2020-07-28T10:33:39Z</time>
      </trkpt>
      <trkpt lat="42.9778720" lon="-0.3440820">
        <ele>1593.4</ele>
        <time>2020-07-28T10:33:41Z</time>
      </trkpt>
      <trkpt lat="42.9778110" lon="-0.3441990">
        <ele>1592.8</ele>
        <time>2020-07-28T10:33:43Z</time>
      </trkpt>
      <trkpt lat="42.9777780" lon="-0.3442540">
        <ele>1592.6</ele>
        <time>2020-07-28T10:33:44Z</time>
      </trkpt>
      <trkpt lat="42.9777390" lon="-0.3443120">
        <ele>1592.0</ele>
        <time>2020-07-28T10:33:45Z</time>
      </trkpt>
      <trkpt lat="42.9776530" lon="-0.3444390">
        <ele>1590.8</ele>
        <time>2020-07-28T10:33:47Z</time>
      </trkpt>
      <trkpt lat="42.9775590" lon="-0.3445770">
        <ele>1590.0</ele>
        <time>2020-07-28T10:33:49Z</time>
      </trkpt>
      <trkpt lat="42.9775140" lon="-0.3446500">
        <ele>1589.4</ele>
        <time>2020-07-28T10:33:50Z</time>
      </trkpt>
      <trkpt lat="42.9774290" lon="-0.3448080">
        <ele>1588.0</ele>
        <time>2020-07-28T10:33:52Z</time>
      </trkpt>
      <trkpt lat="42.9773890" lon="-0.3448980">
        <ele>1587.6</ele>
        <time>2020-07-28T10:33:53Z</time>
      </trkpt>
      <trkpt lat="42.9773470" lon="-0.3449910">
        <ele>1586.8</ele>
        <time>2020-07-28T10:33:54Z</time>
      </trkpt>
      <trkpt lat="42.9773030" lon="-0.3450790">
        <ele>1585.8</ele>
        <time>2020-07-28T10:33:55Z</time>
      </trkpt>
      <trkpt lat="42.9772530" lon="-0.3451590">
        <ele>1585.0</ele>
        <time>2020-07-28T10:33:56Z</time>
      </trkpt>
      <trkpt lat="42.9771320" lon="-0.3452890">
        <ele>1584.2</ele>
        <time>2020-07-28T10:33:58Z</time>
      </trkpt>
      <trkpt lat="42.9770640" lon="-0.3453340">
        <ele>1583.6</ele>
        <time>2020-07-28T10:33:59Z</time>
      </trkpt>
      <trkpt lat="42.9769960" lon="-0.3453670">
        <ele>1582.6</ele>
        <time>2020-07-28T10:34:00Z</time>
      </trkpt>
      <trkpt lat="42.9768660" lon="-0.3454000">
        <ele>1581.0</ele>
        <time>2020-07-28T10:34:02Z</time>
      </trkpt>
      <trkpt lat="42.9767280" lon="-0.3453770">
        <ele>1580.2</ele>
        <time>2020-07-28T10:34:04Z</time>
      </trkpt>
      <trkpt lat="42.9766540" lon="-0.3453460">
        <ele>1579.8</ele>
        <time>2020-07-28T10:34:05Z</time>
      </trkpt>
      <trkpt lat="42.9765170" lon="-0.3452550">
        <ele>1579.0</ele>
        <time>2020-07-28T10:34:07Z</time>
      </trkpt>
      <trkpt lat="42.9764540" lon="-0.3451940">
        <ele>1578.4</ele>
        <time>2020-07-28T10:34:08Z</time>
      </trkpt>
      <trkpt lat="42.9763970" lon="-0.3451230">
        <ele>1577.6</ele>
        <time>2020-07-28T10:34:09Z</time>
      </trkpt>
      <trkpt lat="42.9763420" lon="-0.3450520">
        <ele>1577.0</ele>
        <time>2020-07-28T10:34:10Z</time>
      </trkpt>
      <trkpt lat="42.9762360" lon="-0.3449440">
        <ele>1575.6</ele>
        <time>2020-07-28T10:34:12Z</time>
      </trkpt>
      <trkpt lat="42.9761800" lon="-0.3449180">
        <ele>1575.2</ele>
        <time>2020-07-28T10:34:13Z</time>
      </trkpt>
      <trkpt lat="42.9761260" lon="-0.3449120">
        <ele>1574.4</ele>
        <time>2020-07-28T10:34:14Z</time>
      </trkpt>
      <trkpt lat="42.9760450" lon="-0.3449600">
        <ele>1573.6</ele>
        <time>2020-07-28T10:34:16Z</time>
      </trkpt>
      <trkpt lat="42.9760130" lon="-0.3449970">
        <ele>1573.2</ele>
        <time>2020-07-28T10:34:17Z</time>
      </trkpt>
      <trkpt lat="42.9759850" lon="-0.3450410">
        <ele>1573.0</ele>
        <time>2020-07-28T10:34:18Z</time>
      </trkpt>
      <trkpt lat="42.9759030" lon="-0.3451820">
        <ele>1572.4</ele>
        <time>2020-07-28T10:34:21Z</time>
      </trkpt>
      <trkpt lat="42.9758450" lon="-0.3452560">
        <ele>1572.0</ele>
        <time>2020-07-28T10:34:23Z</time>
      </trkpt>
      <trkpt lat="42.9758180" lon="-0.3452830">
        <ele>1571.6</ele>
        <time>2020-07-28T10:34:24Z</time>
      </trkpt>
      <trkpt lat="42.9757680" lon="-0.3453200">
        <ele>1570.8</ele>
        <time>2020-07-28T10:34:26Z</time>
      </trkpt>
      <trkpt lat="42.9756410" lon="-0.3453310">
        <ele>1569.6</ele>
        <time>2020-07-28T10:34:30Z</time>
      </trkpt>
      <trkpt lat="42.9755750" lon="-0.3453000">
        <ele>1569.6</ele>
        <time>2020-07-28T10:34:31Z</time>
      </trkpt>
      <trkpt lat="42.9755080" lon="-0.3452680">
        <ele>1569.4</ele>
        <time>2020-07-28T10:34:32Z</time>
      </trkpt>
      <trkpt lat="42.9754420" lon="-0.3452370">
        <ele>1567.4</ele>
        <time>2020-07-28T10:34:54Z</time>
      </trkpt>
      <trkpt lat="42.9753760" lon="-0.3452050">
        <ele>1567.2</ele>
        <time>2020-07-28T10:34:55Z</time>
      </trkpt>
      <trkpt lat="42.9752830" lon="-0.3450220">
        <ele>1566.4</ele>
        <time>2020-07-28T10:34:58Z</time>
      </trkpt>
      <trkpt lat="42.9752460" lon="-0.3449600">
        <ele>1565.8</ele>
        <time>2020-07-28T10:34:59Z</time>
      </trkpt>
      <trkpt lat="42.9752060" lon="-0.3449000">
        <ele>1565.0</ele>
        <time>2020-07-28T10:35:00Z</time>
      </trkpt>
      <trkpt lat="42.9751110" lon="-0.3447890">
        <ele>1563.6</ele>
        <time>2020-07-28T10:35:02Z</time>
      </trkpt>
      <trkpt lat="42.9750060" lon="-0.3446860">
        <ele>1562.4</ele>
        <time>2020-07-28T10:35:04Z</time>
      </trkpt>
      <trkpt lat="42.9749520" lon="-0.3446420">
        <ele>1561.8</ele>
        <time>2020-07-28T10:35:05Z</time>
      </trkpt>
      <trkpt lat="42.9748980" lon="-0.3446010">
        <ele>1561.2</ele>
        <time>2020-07-28T10:35:06Z</time>
      </trkpt>
      <trkpt lat="42.9747930" lon="-0.3445250">
        <ele>1560.2</ele>
        <time>2020-07-28T10:35:08Z</time>
      </trkpt>
      <trkpt lat="42.9746770" lon="-0.3444690">
        <ele>1559.0</ele>
        <time>2020-07-28T10:35:10Z</time>
      </trkpt>
      <trkpt lat="42.9746130" lon="-0.3444610">
        <ele>1558.2</ele>
        <time>2020-07-28T10:35:11Z</time>
      </trkpt>
      <trkpt lat="42.9745520" lon="-0.3444660">
        <ele>1557.4</ele>
        <time>2020-07-28T10:35:12Z</time>
      </trkpt>
      <trkpt lat="42.9744360" lon="-0.3445140">
        <ele>1556.0</ele>
        <time>2020-07-28T10:35:14Z</time>
      </trkpt>
      <trkpt lat="42.9743420" lon="-0.3446140">
        <ele>1555.2</ele>
        <time>2020-07-28T10:35:16Z</time>
      </trkpt>
      <trkpt lat="42.9743120" lon="-0.3446680">
        <ele>1554.8</ele>
        <time>2020-07-28T10:35:17Z</time>
      </trkpt>
      <trkpt lat="42.9742840" lon="-0.3447240">
        <ele>1554.4</ele>
        <time>2020-07-28T10:35:18Z</time>
      </trkpt>
      <trkpt lat="42.9742180" lon="-0.3449410">
        <ele>1553.4</ele>
        <time>2020-07-28T10:35:21Z</time>
      </trkpt>
      <trkpt lat="42.9741600" lon="-0.3451080">
        <ele>1552.4</ele>
        <time>2020-07-28T10:35:23Z</time>
      </trkpt>
      <trkpt lat="42.9741210" lon="-0.3451770">
        <ele>1551.6</ele>
        <time>2020-07-28T10:35:24Z</time>
      </trkpt>
      <trkpt lat="42.9740760" lon="-0.3452350">
        <ele>1551.0</ele>
        <time>2020-07-28T10:35:25Z</time>
      </trkpt>
      <trkpt lat="42.9740250" lon="-0.3452810">
        <ele>1550.4</ele>
        <time>2020-07-28T10:35:26Z</time>
      </trkpt>
      <trkpt lat="42.9739680" lon="-0.3453150">
        <ele>1550.0</ele>
        <time>2020-07-28T10:35:27Z</time>
      </trkpt>
      <trkpt lat="42.9738510" lon="-0.3453680">
        <ele>1549.0</ele>
        <time>2020-07-28T10:35:29Z</time>
      </trkpt>
      <trkpt lat="42.9737960" lon="-0.3453990">
        <ele>1548.4</ele>
        <time>2020-07-28T10:35:30Z</time>
      </trkpt>
      <trkpt lat="42.9737470" lon="-0.3454420">
        <ele>1547.6</ele>
        <time>2020-07-28T10:35:31Z</time>
      </trkpt>
      <trkpt lat="42.9737080" lon="-0.3455000">
        <ele>1546.8</ele>
        <time>2020-07-28T10:35:32Z</time>
      </trkpt>
      <trkpt lat="42.9736800" lon="-0.3455710">
        <ele>1546.2</ele>
        <time>2020-07-28T10:35:33Z</time>
      </trkpt>
      <trkpt lat="42.9736620" lon="-0.3456550">
        <ele>1545.6</ele>
        <time>2020-07-28T10:35:34Z</time>
      </trkpt>
      <trkpt lat="42.9736560" lon="-0.3457450">
        <ele>1545.0</ele>
        <time>2020-07-28T10:35:35Z</time>
      </trkpt>
      <trkpt lat="42.9736590" lon="-0.3458350">
        <ele>1544.4</ele>
        <time>2020-07-28T10:35:36Z</time>
      </trkpt>
      <trkpt lat="42.9736670" lon="-0.3459240">
        <ele>1543.8</ele>
        <time>2020-07-28T10:35:37Z</time>
      </trkpt>
      <trkpt lat="42.9736910" lon="-0.3460940">
        <ele>1542.6</ele>
        <time>2020-07-28T10:35:39Z</time>
      </trkpt>
      <trkpt lat="42.9736990" lon="-0.3461740">
        <ele>1542.0</ele>
        <time>2020-07-28T10:35:40Z</time>
      </trkpt>
      <trkpt lat="42.9736990" lon="-0.3462500">
        <ele>1541.4</ele>
        <time>2020-07-28T10:35:41Z</time>
      </trkpt>
      <trkpt lat="42.9736650" lon="-0.3463880">
        <ele>1540.2</ele>
        <time>2020-07-28T10:35:43Z</time>
      </trkpt>
      <trkpt lat="42.9735790" lon="-0.3464920">
        <ele>1539.4</ele>
        <time>2020-07-28T10:35:45Z</time>
      </trkpt>
      <trkpt lat="42.9735240" lon="-0.3465300">
        <ele>1539.0</ele>
        <time>2020-07-28T10:35:46Z</time>
      </trkpt>
      <trkpt lat="42.9734660" lon="-0.3465580">
        <ele>1538.4</ele>
        <time>2020-07-28T10:35:47Z</time>
      </trkpt>
      <trkpt lat="42.9733540" lon="-0.3465810">
        <ele>1537.6</ele>
        <time>2020-07-28T10:35:49Z</time>
      </trkpt>
      <trkpt lat="42.9733030" lon="-0.3465820">
        <ele>1537.0</ele>
        <time>2020-07-28T10:35:50Z</time>
      </trkpt>
      <trkpt lat="42.9731990" lon="-0.3465800">
        <ele>1536.2</ele>
        <time>2020-07-28T10:35:52Z</time>
      </trkpt>
      <trkpt lat="42.9730240" lon="-0.3465590">
        <ele>1535.0</ele>
        <time>2020-07-28T10:35:55Z</time>
      </trkpt>
      <trkpt lat="42.9729630" lon="-0.3465510">
        <ele>1534.2</ele>
        <time>2020-07-28T10:35:56Z</time>
      </trkpt>
      <trkpt lat="42.9729020" lon="-0.3465420">
        <ele>1533.4</ele>
        <time>2020-07-28T10:35:57Z</time>
      </trkpt>
      <trkpt lat="42.9728450" lon="-0.3465260">
        <ele>1532.6</ele>
        <time>2020-07-28T10:35:58Z</time>
      </trkpt>
      <trkpt lat="42.9727910" lon="-0.3465060">
        <ele>1531.8</ele>
        <time>2020-07-28T10:35:59Z</time>
      </trkpt>
      <trkpt lat="42.9727470" lon="-0.3464750">
        <ele>1531.4</ele>
        <time>2020-07-28T10:36:00Z</time>
      </trkpt>
      <trkpt lat="42.9727100" lon="-0.3464330">
        <ele>1531.0</ele>
        <time>2020-07-28T10:36:01Z</time>
      </trkpt>
      <trkpt lat="42.9726720" lon="-0.3463570">
        <ele>1530.4</ele>
        <time>2020-07-28T10:36:02Z</time>
      </trkpt>
      <trkpt lat="42.9726310" lon="-0.3461810">
        <ele>1529.6</ele>
        <time>2020-07-28T10:36:04Z</time>
      </trkpt>
      <trkpt lat="42.9726130" lon="-0.3460930">
        <ele>1529.2</ele>
        <time>2020-07-28T10:36:05Z</time>
      </trkpt>
      <trkpt lat="42.9725940" lon="-0.3460190">
        <ele>1528.4</ele>
        <time>2020-07-28T10:36:06Z</time>
      </trkpt>
      <trkpt lat="42.9725690" lon="-0.3459530">
        <ele>1527.8</ele>
        <time>2020-07-28T10:36:07Z</time>
      </trkpt>
      <trkpt lat="42.9725320" lon="-0.3458980">
        <ele>1527.2</ele>
        <time>2020-07-28T10:36:08Z</time>
      </trkpt>
      <trkpt lat="42.9724270" lon="-0.3458280">
        <ele>1526.2</ele>
        <time>2020-07-28T10:36:10Z</time>
      </trkpt>
      <trkpt lat="42.9723650" lon="-0.3458140">
        <ele>1525.4</ele>
        <time>2020-07-28T10:36:11Z</time>
      </trkpt>
      <trkpt lat="42.9723050" lon="-0.3458110">
        <ele>1524.6</ele>
        <time>2020-07-28T10:36:12Z</time>
      </trkpt>
      <trkpt lat="42.9721550" lon="-0.3458100">
        <ele>1523.2</ele>
        <time>2020-07-28T10:36:15Z</time>
      </trkpt>
      <trkpt lat="42.9721080" lon="-0.3458150">
        <ele>1522.8</ele>
        <time>2020-07-28T10:36:16Z</time>
      </trkpt>
      <trkpt lat="42.9720620" lon="-0.3458280">
        <ele>1522.4</ele>
        <time>2020-07-28T10:36:17Z</time>
      </trkpt>
      <trkpt lat="42.9720170" lon="-0.3458440">
        <ele>1521.8</ele>
        <time>2020-07-28T10:36:18Z</time>
      </trkpt>
      <trkpt lat="42.9719740" lon="-0.3458730">
        <ele>1521.2</ele>
        <time>2020-07-28T10:36:19Z</time>
      </trkpt>
      <trkpt lat="42.9719370" lon="-0.3459210">
        <ele>1520.8</ele>
        <time>2020-07-28T10:36:20Z</time>
      </trkpt>
      <trkpt lat="42.9719070" lon="-0.3459770">
        <ele>1520.4</ele>
        <time>2020-07-28T10:36:21Z</time>
      </trkpt>
      <trkpt lat="42.9718820" lon="-0.3461010">
        <ele>1519.6</ele>
        <time>2020-07-28T10:36:23Z</time>
      </trkpt>
      <trkpt lat="42.9718770" lon="-0.3461620">
        <ele>1519.2</ele>
        <time>2020-07-28T10:36:24Z</time>
      </trkpt>
      <trkpt lat="42.9718740" lon="-0.3462750">
        <ele>1518.2</ele>
        <time>2020-07-28T10:36:26Z</time>
      </trkpt>
      <trkpt lat="42.9718660" lon="-0.3464530">
        <ele>1517.2</ele>
        <time>2020-07-28T10:36:29Z</time>
      </trkpt>
      <trkpt lat="42.9718620" lon="-0.3465150">
        <ele>1516.8</ele>
        <time>2020-07-28T10:36:30Z</time>
      </trkpt>
      <trkpt lat="42.9718610" lon="-0.3465780">
        <ele>1516.4</ele>
        <time>2020-07-28T10:36:31Z</time>
      </trkpt>
      <trkpt lat="42.9718490" lon="-0.3466990">
        <ele>1515.4</ele>
        <time>2020-07-28T10:36:33Z</time>
      </trkpt>
      <trkpt lat="42.9718080" lon="-0.3467920">
        <ele>1514.6</ele>
        <time>2020-07-28T10:36:35Z</time>
      </trkpt>
      <trkpt lat="42.9717070" lon="-0.3468410">
        <ele>1514.4</ele>
        <time>2020-07-28T10:36:38Z</time>
      </trkpt>
      <trkpt lat="42.9716740" lon="-0.3468270">
        <ele>1514.4</ele>
        <time>2020-07-28T10:36:39Z</time>
      </trkpt>
      <trkpt lat="42.9716190" lon="-0.3467390">
        <ele>1513.8</ele>
        <time>2020-07-28T10:36:41Z</time>
      </trkpt>
      <trkpt lat="42.9715980" lon="-0.3466700">
        <ele>1513.4</ele>
        <time>2020-07-28T10:36:42Z</time>
      </trkpt>
      <trkpt lat="42.9715890" lon="-0.3465970">
        <ele>1513.0</ele>
        <time>2020-07-28T10:36:43Z</time>
      </trkpt>
      <trkpt lat="42.9715840" lon="-0.3464580">
        <ele>1512.6</ele>
        <time>2020-07-28T10:36:45Z</time>
      </trkpt>
      <trkpt lat="42.9715830" lon="-0.3463920">
        <ele>1512.4</ele>
        <time>2020-07-28T10:36:46Z</time>
      </trkpt>
      <trkpt lat="42.9715790" lon="-0.3463190">
        <ele>1511.8</ele>
        <time>2020-07-28T10:36:47Z</time>
      </trkpt>
      <trkpt lat="42.9715630" lon="-0.3461750">
        <ele>1510.6</ele>
        <time>2020-07-28T10:36:49Z</time>
      </trkpt>
      <trkpt lat="42.9715280" lon="-0.3460210">
        <ele>1509.6</ele>
        <time>2020-07-28T10:36:51Z</time>
      </trkpt>
      <trkpt lat="42.9715090" lon="-0.3459420">
        <ele>1509.4</ele>
        <time>2020-07-28T10:36:52Z</time>
      </trkpt>
      <trkpt lat="42.9714590" lon="-0.3457970">
        <ele>1508.8</ele>
        <time>2020-07-28T10:36:54Z</time>
      </trkpt>
      <trkpt lat="42.9713700" lon="-0.3456980">
        <ele>1508.2</ele>
        <time>2020-07-28T10:36:56Z</time>
      </trkpt>
      <trkpt lat="42.9712110" lon="-0.3456060">
        <ele>1506.6</ele>
        <time>2020-07-28T10:36:59Z</time>
      </trkpt>
      <trkpt lat="42.9711020" lon="-0.3455360">
        <ele>1505.4</ele>
        <time>2020-07-28T10:37:01Z</time>
      </trkpt>
      <trkpt lat="42.9709960" lon="-0.3454610">
        <ele>1504.4</ele>
        <time>2020-07-28T10:37:03Z</time>
      </trkpt>
      <trkpt lat="42.9709450" lon="-0.3454240">
        <ele>1504.0</ele>
        <time>2020-07-28T10:37:04Z</time>
      </trkpt>
      <trkpt lat="42.9708530" lon="-0.3453330">
        <ele>1502.2</ele>
        <time>2020-07-28T10:37:06Z</time>
      </trkpt>
      <trkpt lat="42.9708170" lon="-0.3452800">
        <ele>1501.6</ele>
        <time>2020-07-28T10:37:07Z</time>
      </trkpt>
      <trkpt lat="42.9707870" lon="-0.3452250">
        <ele>1501.0</ele>
        <time>2020-07-28T10:37:08Z</time>
      </trkpt>
      <trkpt lat="42.9707300" lon="-0.3450730">
        <ele>1499.6</ele>
        <time>2020-07-28T10:37:11Z</time>
      </trkpt>
      <trkpt lat="42.9706590" lon="-0.3448770">
        <ele>1498.6</ele>
        <time>2020-07-28T10:37:14Z</time>
      </trkpt>
      <trkpt lat="42.9705940" lon="-0.3447430">
        <ele>1498.0</ele>
        <time>2020-07-28T10:37:16Z</time>
      </trkpt>
      <trkpt lat="42.9705600" lon="-0.3446760">
        <ele>1497.4</ele>
        <time>2020-07-28T10:37:17Z</time>
      </trkpt>
      <trkpt lat="42.9704930" lon="-0.3445380">
        <ele>1496.2</ele>
        <time>2020-07-28T10:37:19Z</time>
      </trkpt>
      <trkpt lat="42.9704330" lon="-0.3443990">
        <ele>1495.0</ele>
        <time>2020-07-28T10:37:21Z</time>
      </trkpt>
      <trkpt lat="42.9703640" lon="-0.3442540">
        <ele>1494.0</ele>
        <time>2020-07-28T10:37:23Z</time>
      </trkpt>
      <trkpt lat="42.9703290" lon="-0.3441830">
        <ele>1493.4</ele>
        <time>2020-07-28T10:37:24Z</time>
      </trkpt>
      <trkpt lat="42.9702570" lon="-0.3440610">
        <ele>1492.4</ele>
        <time>2020-07-28T10:37:26Z</time>
      </trkpt>
      <trkpt lat="42.9702020" lon="-0.3439800">
        <ele>1491.4</ele>
        <time>2020-07-28T10:37:28Z</time>
      </trkpt>
      <trkpt lat="42.9701830" lon="-0.3439590">
        <ele>1490.8</ele>
        <time>2020-07-28T10:37:29Z</time>
      </trkpt>
      <trkpt lat="42.9701550" lon="-0.3439380">
        <ele>1489.4</ele>
        <time>2020-07-28T10:37:31Z</time>
      </trkpt>
      <trkpt lat="42.9701430" lon="-0.3439320">
        <ele>1488.8</ele>
        <time>2020-07-28T10:37:32Z</time>
      </trkpt>
      <trkpt lat="42.9701130" lon="-0.3439190">
        <ele>1488.2</ele>
        <time>2020-07-28T10:37:35Z</time>
      </trkpt>
      <trkpt lat="42.9701050" lon="-0.3439250">
        <ele>1488.0</ele>
        <time>2020-07-28T10:37:38Z</time>
      </trkpt>
      <trkpt lat="42.9701030" lon="-0.3439270">
        <ele>1487.8</ele>
        <time>2020-07-28T10:37:40Z</time>
      </trkpt>
      <trkpt lat="42.9700990" lon="-0.3439310">
        <ele>1487.6</ele>
        <time>2020-07-28T10:37:46Z</time>
      </trkpt>
      <trkpt lat="42.9701050" lon="-0.3439340">
        <ele>1487.4</ele>
        <time>2020-07-28T10:37:52Z</time>
      </trkpt>
      <trkpt lat="42.9701050" lon="-0.3439350">
        <ele>1487.4</ele>
        <time>2020-07-28T10:37:55Z</time>
      </trkpt>
      <trkpt lat="42.9701040" lon="-0.3439330">
        <ele>1487.4</ele>
        <time>2020-07-28T10:38:01Z</time>
      </trkpt>
      <trkpt lat="42.9701000" lon="-0.3439280">
        <ele>1487.2</ele>
        <time>2020-07-28T10:38:07Z</time>
      </trkpt>
      <trkpt lat="42.9700990" lon="-0.3439250">
        <ele>1487.2</ele>
        <time>2020-07-28T10:38:08Z</time>
      </trkpt>
      <trkpt lat="42.9700970" lon="-0.3439240">
        <ele>1487.2</ele>
        <time>2020-07-28T10:38:09Z</time>
      </trkpt>
      <trkpt lat="42.9700990" lon="-0.3439120">
        <ele>1487.2</ele>
        <time>2020-07-28T10:38:15Z</time>
      </trkpt>
      <trkpt lat="42.9701000" lon="-0.3438960">
        <ele>1487.4</ele>
        <time>2020-07-28T10:38:21Z</time>
      </trkpt>
      <trkpt lat="42.9700960" lon="-0.3438930">
        <ele>1487.2</ele>
        <time>2020-07-28T10:38:22Z</time>
      </trkpt>
      <trkpt lat="42.9700660" lon="-0.3438690">
        <ele>1487.0</ele>
        <time>2020-07-28T10:38:25Z</time>
      </trkpt>
      <trkpt lat="42.9699950" lon="-0.3438200">
        <ele>1486.6</ele>
        <time>2020-07-28T10:38:29Z</time>
      </trkpt>
      <trkpt lat="42.9699130" lon="-0.3437410">
        <ele>1486.0</ele>
        <time>2020-07-28T10:38:32Z</time>
      </trkpt>
      <trkpt lat="42.9698630" lon="-0.3436440">
        <ele>1485.4</ele>
        <time>2020-07-28T10:38:34Z</time>
      </trkpt>
      <trkpt lat="42.9698460" lon="-0.3435830">
        <ele>1485.0</ele>
        <time>2020-07-28T10:38:35Z</time>
      </trkpt>
      <trkpt lat="42.9698350" lon="-0.3435140">
        <ele>1484.6</ele>
        <time>2020-07-28T10:38:36Z</time>
      </trkpt>
      <trkpt lat="42.9698420" lon="-0.3433380">
        <ele>1483.6</ele>
        <time>2020-07-28T10:38:38Z</time>
      </trkpt>
      <trkpt lat="42.9698600" lon="-0.3431570">
        <ele>1483.0</ele>
        <time>2020-07-28T10:38:40Z</time>
      </trkpt>
      <trkpt lat="42.9698820" lon="-0.3429900">
        <ele>1482.4</ele>
        <time>2020-07-28T10:38:42Z</time>
      </trkpt>
      <trkpt lat="42.9698900" lon="-0.3429070">
        <ele>1482.0</ele>
        <time>2020-07-28T10:38:43Z</time>
      </trkpt>
      <trkpt lat="42.9698890" lon="-0.3428250">
        <ele>1481.4</ele>
        <time>2020-07-28T10:38:44Z</time>
      </trkpt>
      <trkpt lat="42.9698770" lon="-0.3427470">
        <ele>1481.0</ele>
        <time>2020-07-28T10:38:45Z</time>
      </trkpt>
      <trkpt lat="42.9698230" lon="-0.3425980">
        <ele>1479.8</ele>
        <time>2020-07-28T10:38:47Z</time>
      </trkpt>
      <trkpt lat="42.9697600" lon="-0.3424290">
        <ele>1478.8</ele>
        <time>2020-07-28T10:38:49Z</time>
      </trkpt>
      <trkpt lat="42.9696980" lon="-0.3422520">
        <ele>1477.8</ele>
        <time>2020-07-28T10:38:51Z</time>
      </trkpt>
      <trkpt lat="42.9696650" lon="-0.3421650">
        <ele>1477.4</ele>
        <time>2020-07-28T10:38:52Z</time>
      </trkpt>
      <trkpt lat="42.9695860" lon="-0.3419990">
        <ele>1475.8</ele>
        <time>2020-07-28T10:38:54Z</time>
      </trkpt>
      <trkpt lat="42.9694960" lon="-0.3418300">
        <ele>1474.2</ele>
        <time>2020-07-28T10:38:56Z</time>
      </trkpt>
      <trkpt lat="42.9694520" lon="-0.3417450">
        <ele>1473.6</ele>
        <time>2020-07-28T10:38:57Z</time>
      </trkpt>
      <trkpt lat="42.9694070" lon="-0.3416600">
        <ele>1472.8</ele>
        <time>2020-07-28T10:38:58Z</time>
      </trkpt>
      <trkpt lat="42.9693250" lon="-0.3414950">
        <ele>1471.2</ele>
        <time>2020-07-28T10:39:00Z</time>
      </trkpt>
      <trkpt lat="42.9692620" lon="-0.3413270">
        <ele>1470.2</ele>
        <time>2020-07-28T10:39:02Z</time>
      </trkpt>
      <trkpt lat="42.9692480" lon="-0.3411470">
        <ele>1468.6</ele>
        <time>2020-07-28T10:39:04Z</time>
      </trkpt>
      <trkpt lat="42.9692650" lon="-0.3410630">
        <ele>1467.8</ele>
        <time>2020-07-28T10:39:05Z</time>
      </trkpt>
      <trkpt lat="42.9692960" lon="-0.3409830">
        <ele>1467.2</ele>
        <time>2020-07-28T10:39:06Z</time>
      </trkpt>
      <trkpt lat="42.9693700" lon="-0.3408260">
        <ele>1466.2</ele>
        <time>2020-07-28T10:39:08Z</time>
      </trkpt>
      <trkpt lat="42.9694010" lon="-0.3407500">
        <ele>1465.8</ele>
        <time>2020-07-28T10:39:09Z</time>
      </trkpt>
      <trkpt lat="42.9694160" lon="-0.3406660">
        <ele>1465.0</ele>
        <time>2020-07-28T10:39:10Z</time>
      </trkpt>
      <trkpt lat="42.9693920" lon="-0.3404950">
        <ele>1463.0</ele>
        <time>2020-07-28T10:39:12Z</time>
      </trkpt>
      <trkpt lat="42.9693590" lon="-0.3404210">
        <ele>1462.4</ele>
        <time>2020-07-28T10:39:13Z</time>
      </trkpt>
      <trkpt lat="42.9693230" lon="-0.3403460">
        <ele>1461.8</ele>
        <time>2020-07-28T10:39:14Z</time>
      </trkpt>
      <trkpt lat="42.9692900" lon="-0.3402680">
        <ele>1461.2</ele>
        <time>2020-07-28T10:39:15Z</time>
      </trkpt>
      <trkpt lat="42.9692610" lon="-0.3401830">
        <ele>1460.6</ele>
        <time>2020-07-28T10:39:16Z</time>
      </trkpt>
      <trkpt lat="42.9692350" lon="-0.3400940">
        <ele>1460.2</ele>
        <time>2020-07-28T10:39:17Z</time>
      </trkpt>
      <trkpt lat="42.9692130" lon="-0.3400060">
        <ele>1459.6</ele>
        <time>2020-07-28T10:39:18Z</time>
      </trkpt>
      <trkpt lat="42.9691940" lon="-0.3399240">
        <ele>1459.0</ele>
        <time>2020-07-28T10:39:19Z</time>
      </trkpt>
      <trkpt lat="42.9691770" lon="-0.3398390">
        <ele>1458.2</ele>
        <time>2020-07-28T10:39:20Z</time>
      </trkpt>
      <trkpt lat="42.9691330" lon="-0.3396780">
        <ele>1457.0</ele>
        <time>2020-07-28T10:39:22Z</time>
      </trkpt>
      <trkpt lat="42.9690850" lon="-0.3395200">
        <ele>1455.8</ele>
        <time>2020-07-28T10:39:24Z</time>
      </trkpt>
      <trkpt lat="42.9690370" lon="-0.3393440">
        <ele>1454.8</ele>
        <time>2020-07-28T10:39:26Z</time>
      </trkpt>
      <trkpt lat="42.9690010" lon="-0.3391650">
        <ele>1453.8</ele>
        <time>2020-07-28T10:39:28Z</time>
      </trkpt>
      <trkpt lat="42.9689930" lon="-0.3390740">
        <ele>1453.4</ele>
        <time>2020-07-28T10:39:29Z</time>
      </trkpt>
      <trkpt lat="42.9689820" lon="-0.3388790">
        <ele>1452.2</ele>
        <time>2020-07-28T10:39:31Z</time>
      </trkpt>
      <trkpt lat="42.9689710" lon="-0.3387770">
        <ele>1451.6</ele>
        <time>2020-07-28T10:39:32Z</time>
      </trkpt>
      <trkpt lat="42.9689540" lon="-0.3386800">
        <ele>1451.0</ele>
        <time>2020-07-28T10:39:33Z</time>
      </trkpt>
      <trkpt lat="42.9689160" lon="-0.3384990">
        <ele>1449.4</ele>
        <time>2020-07-28T10:39:35Z</time>
      </trkpt>
      <trkpt lat="42.9688810" lon="-0.3383240">
        <ele>1447.6</ele>
        <time>2020-07-28T10:39:37Z</time>
      </trkpt>
      <trkpt lat="42.9688430" lon="-0.3381280">
        <ele>1446.6</ele>
        <time>2020-07-28T10:39:39Z</time>
      </trkpt>
      <trkpt lat="42.9688270" lon="-0.3379260">
        <ele>1445.6</ele>
        <time>2020-07-28T10:39:41Z</time>
      </trkpt>
      <trkpt lat="42.9688320" lon="-0.3378270">
        <ele>1445.2</ele>
        <time>2020-07-28T10:39:42Z</time>
      </trkpt>
      <trkpt lat="42.9688460" lon="-0.3377340">
        <ele>1444.4</ele>
        <time>2020-07-28T10:39:43Z</time>
      </trkpt>
      <trkpt lat="42.9688700" lon="-0.3376470">
        <ele>1443.8</ele>
        <time>2020-07-28T10:39:44Z</time>
      </trkpt>
      <trkpt lat="42.9689050" lon="-0.3374900">
        <ele>1442.2</ele>
        <time>2020-07-28T10:39:46Z</time>
      </trkpt>
      <trkpt lat="42.9688850" lon="-0.3373380">
        <ele>1440.4</ele>
        <time>2020-07-28T10:39:48Z</time>
      </trkpt>
      <trkpt lat="42.9688580" lon="-0.3372700">
        <ele>1439.8</ele>
        <time>2020-07-28T10:39:49Z</time>
      </trkpt>
      <trkpt lat="42.9688340" lon="-0.3371980">
        <ele>1439.2</ele>
        <time>2020-07-28T10:39:50Z</time>
      </trkpt>
      <trkpt lat="42.9688180" lon="-0.3370530">
        <ele>1437.6</ele>
        <time>2020-07-28T10:39:52Z</time>
      </trkpt>
      <trkpt lat="42.9688270" lon="-0.3369900">
        <ele>1437.2</ele>
        <time>2020-07-28T10:39:53Z</time>
      </trkpt>
      <trkpt lat="42.9688410" lon="-0.3369360">
        <ele>1436.8</ele>
        <time>2020-07-28T10:39:54Z</time>
      </trkpt>
      <trkpt lat="42.9688550" lon="-0.3368850">
        <ele>1436.2</ele>
        <time>2020-07-28T10:39:55Z</time>
      </trkpt>
      <trkpt lat="42.9688690" lon="-0.3368270">
        <ele>1435.6</ele>
        <time>2020-07-28T10:39:56Z</time>
      </trkpt>
      <trkpt lat="42.9688720" lon="-0.3367620">
        <ele>1435.2</ele>
        <time>2020-07-28T10:39:57Z</time>
      </trkpt>
      <trkpt lat="42.9688570" lon="-0.3366970">
        <ele>1434.6</ele>
        <time>2020-07-28T10:39:58Z</time>
      </trkpt>
      <trkpt lat="42.9688270" lon="-0.3366380">
        <ele>1434.0</ele>
        <time>2020-07-28T10:39:59Z</time>
      </trkpt>
      <trkpt lat="42.9687900" lon="-0.3365870">
        <ele>1433.6</ele>
        <time>2020-07-28T10:40:00Z</time>
      </trkpt>
      <trkpt lat="42.9687480" lon="-0.3365480">
        <ele>1433.2</ele>
        <time>2020-07-28T10:40:01Z</time>
      </trkpt>
      <trkpt lat="42.9687030" lon="-0.3365170">
        <ele>1432.8</ele>
        <time>2020-07-28T10:40:02Z</time>
      </trkpt>
      <trkpt lat="42.9686030" lon="-0.3364940">
        <ele>1431.8</ele>
        <time>2020-07-28T10:40:04Z</time>
      </trkpt>
      <trkpt lat="42.9685490" lon="-0.3364940">
        <ele>1431.4</ele>
        <time>2020-07-28T10:40:05Z</time>
      </trkpt>
      <trkpt lat="42.9684270" lon="-0.3364870">
        <ele>1430.2</ele>
        <time>2020-07-28T10:40:07Z</time>
      </trkpt>
      <trkpt lat="42.9683040" lon="-0.3364420">
        <ele>1429.0</ele>
        <time>2020-07-28T10:40:09Z</time>
      </trkpt>
      <trkpt lat="42.9681940" lon="-0.3363670">
        <ele>1428.2</ele>
        <time>2020-07-28T10:40:11Z</time>
      </trkpt>
      <trkpt lat="42.9681450" lon="-0.3363270">
        <ele>1427.6</ele>
        <time>2020-07-28T10:40:12Z</time>
      </trkpt>
      <trkpt lat="42.9681030" lon="-0.3362800">
        <ele>1427.0</ele>
        <time>2020-07-28T10:40:13Z</time>
      </trkpt>
      <trkpt lat="42.9680630" lon="-0.3362220">
        <ele>1426.0</ele>
        <time>2020-07-28T10:40:14Z</time>
      </trkpt>
      <trkpt lat="42.9680350" lon="-0.3361600">
        <ele>1425.2</ele>
        <time>2020-07-28T10:40:15Z</time>
      </trkpt>
      <trkpt lat="42.9680040" lon="-0.3360920">
        <ele>1424.6</ele>
        <time>2020-07-28T10:40:16Z</time>
      </trkpt>
      <trkpt lat="42.9679740" lon="-0.3360300">
        <ele>1424.0</ele>
        <time>2020-07-28T10:40:17Z</time>
      </trkpt>
      <trkpt lat="42.9678820" lon="-0.3359180">
        <ele>1423.2</ele>
        <time>2020-07-28T10:40:19Z</time>
      </trkpt>
      <trkpt lat="42.9678340" lon="-0.3358800">
        <ele>1422.6</ele>
        <time>2020-07-28T10:40:20Z</time>
      </trkpt>
      <trkpt lat="42.9677850" lon="-0.3358650">
        <ele>1422.2</ele>
        <time>2020-07-28T10:40:21Z</time>
      </trkpt>
      <trkpt lat="42.9677320" lon="-0.3358610">
        <ele>1421.6</ele>
        <time>2020-07-28T10:40:22Z</time>
      </trkpt>
      <trkpt lat="42.9676750" lon="-0.3358470">
        <ele>1421.0</ele>
        <time>2020-07-28T10:40:23Z</time>
      </trkpt>
      <trkpt lat="42.9676170" lon="-0.3358230">
        <ele>1420.4</ele>
        <time>2020-07-28T10:40:24Z</time>
      </trkpt>
      <trkpt lat="42.9674280" lon="-0.3357040">
        <ele>1419.2</ele>
        <time>2020-07-28T10:40:27Z</time>
      </trkpt>
      <trkpt lat="42.9673610" lon="-0.3356550">
        <ele>1418.8</ele>
        <time>2020-07-28T10:40:28Z</time>
      </trkpt>
      <trkpt lat="42.9672920" lon="-0.3356160">
        <ele>1418.0</ele>
        <time>2020-07-28T10:40:29Z</time>
      </trkpt>
      <trkpt lat="42.9671390" lon="-0.3355620">
        <ele>1416.6</ele>
        <time>2020-07-28T10:40:31Z</time>
      </trkpt>
      <trkpt lat="42.9669840" lon="-0.3355640">
        <ele>1415.0</ele>
        <time>2020-07-28T10:40:33Z</time>
      </trkpt>
      <trkpt lat="42.9669060" lon="-0.3355490">
        <ele>1414.0</ele>
        <time>2020-07-28T10:40:34Z</time>
      </trkpt>
      <trkpt lat="42.9668290" lon="-0.3355320">
        <ele>1413.4</ele>
        <time>2020-07-28T10:40:35Z</time>
      </trkpt>
      <trkpt lat="42.9666990" lon="-0.3354780">
        <ele>1412.0</ele>
        <time>2020-07-28T10:40:37Z</time>
      </trkpt>
      <trkpt lat="42.9666400" lon="-0.3354400">
        <ele>1411.2</ele>
        <time>2020-07-28T10:40:38Z</time>
      </trkpt>
      <trkpt lat="42.9665860" lon="-0.3354060">
        <ele>1410.2</ele>
        <time>2020-07-28T10:40:39Z</time>
      </trkpt>
      <trkpt lat="42.9665340" lon="-0.3353690">
        <ele>1409.2</ele>
        <time>2020-07-28T10:40:40Z</time>
      </trkpt>
      <trkpt lat="42.9664850" lon="-0.3353260">
        <ele>1408.4</ele>
        <time>2020-07-28T10:40:41Z</time>
      </trkpt>
      <trkpt lat="42.9663960" lon="-0.3352120">
        <ele>1407.0</ele>
        <time>2020-07-28T10:40:43Z</time>
      </trkpt>
      <trkpt lat="42.9663360" lon="-0.3350790">
        <ele>1406.2</ele>
        <time>2020-07-28T10:40:45Z</time>
      </trkpt>
      <trkpt lat="42.9663290" lon="-0.3350080">
        <ele>1406.0</ele>
        <time>2020-07-28T10:40:46Z</time>
      </trkpt>
      <trkpt lat="42.9663340" lon="-0.3349310">
        <ele>1405.4</ele>
        <time>2020-07-28T10:40:47Z</time>
      </trkpt>
      <trkpt lat="42.9663180" lon="-0.3347840">
        <ele>1404.8</ele>
        <time>2020-07-28T10:40:49Z</time>
      </trkpt>
      <trkpt lat="42.9662940" lon="-0.3347000">
        <ele>1404.6</ele>
        <time>2020-07-28T10:40:50Z</time>
      </trkpt>
      <trkpt lat="42.9662280" lon="-0.3345570">
        <ele>1403.6</ele>
        <time>2020-07-28T10:40:52Z</time>
      </trkpt>
      <trkpt lat="42.9661280" lon="-0.3344720">
        <ele>1402.4</ele>
        <time>2020-07-28T10:40:54Z</time>
      </trkpt>
      <trkpt lat="42.9660760" lon="-0.3344460">
        <ele>1401.8</ele>
        <time>2020-07-28T10:40:55Z</time>
      </trkpt>
      <trkpt lat="42.9660190" lon="-0.3344440">
        <ele>1401.4</ele>
        <time>2020-07-28T10:40:56Z</time>
      </trkpt>
      <trkpt lat="42.9659570" lon="-0.3344460">
        <ele>1401.0</ele>
        <time>2020-07-28T10:40:57Z</time>
      </trkpt>
      <trkpt lat="42.9658940" lon="-0.3344540">
        <ele>1400.4</ele>
        <time>2020-07-28T10:40:58Z</time>
      </trkpt>
      <trkpt lat="42.9658250" lon="-0.3344680">
        <ele>1400.0</ele>
        <time>2020-07-28T10:40:59Z</time>
      </trkpt>
      <trkpt lat="42.9656960" lon="-0.3345130">
        <ele>1398.4</ele>
        <time>2020-07-28T10:41:01Z</time>
      </trkpt>
      <trkpt lat="42.9655810" lon="-0.3345410">
        <ele>1397.2</ele>
        <time>2020-07-28T10:41:03Z</time>
      </trkpt>
      <trkpt lat="42.9655300" lon="-0.3345140">
        <ele>1396.6</ele>
        <time>2020-07-28T10:41:04Z</time>
      </trkpt>
      <trkpt lat="42.9654830" lon="-0.3344840">
        <ele>1395.8</ele>
        <time>2020-07-28T10:41:05Z</time>
      </trkpt>
      <trkpt lat="42.9654400" lon="-0.3344500">
        <ele>1395.0</ele>
        <time>2020-07-28T10:41:06Z</time>
      </trkpt>
      <trkpt lat="42.9654030" lon="-0.3344000">
        <ele>1394.4</ele>
        <time>2020-07-28T10:41:07Z</time>
      </trkpt>
      <trkpt lat="42.9653610" lon="-0.3343450">
        <ele>1393.6</ele>
        <time>2020-07-28T10:41:08Z</time>
      </trkpt>
      <trkpt lat="42.9653270" lon="-0.3342940">
        <ele>1393.0</ele>
        <time>2020-07-28T10:41:09Z</time>
      </trkpt>
      <trkpt lat="42.9653030" lon="-0.3342360">
        <ele>1392.2</ele>
        <time>2020-07-28T10:41:10Z</time>
      </trkpt>
      <trkpt lat="42.9652840" lon="-0.3341760">
        <ele>1391.4</ele>
        <time>2020-07-28T10:41:11Z</time>
      </trkpt>
      <trkpt lat="42.9652530" lon="-0.3340290">
        <ele>1390.2</ele>
        <time>2020-07-28T10:41:13Z</time>
      </trkpt>
      <trkpt lat="42.9652200" lon="-0.3338630">
        <ele>1389.4</ele>
        <time>2020-07-28T10:41:15Z</time>
      </trkpt>
      <trkpt lat="42.9651840" lon="-0.3337590">
        <ele>1389.2</ele>
        <time>2020-07-28T10:41:16Z</time>
      </trkpt>
      <trkpt lat="42.9650820" lon="-0.3334400">
        <ele>1387.6</ele>
        <time>2020-07-28T10:41:19Z</time>
      </trkpt>
      <trkpt lat="42.9650680" lon="-0.3333320">
        <ele>1387.2</ele>
        <time>2020-07-28T10:41:20Z</time>
      </trkpt>
      <trkpt lat="42.9650650" lon="-0.3332190">
        <ele>1386.6</ele>
        <time>2020-07-28T10:41:21Z</time>
      </trkpt>
      <trkpt lat="42.9650580" lon="-0.3330000">
        <ele>1385.0</ele>
        <time>2020-07-28T10:41:23Z</time>
      </trkpt>
      <trkpt lat="42.9650430" lon="-0.3329010">
        <ele>1384.2</ele>
        <time>2020-07-28T10:41:24Z</time>
      </trkpt>
      <trkpt lat="42.9650170" lon="-0.3327930">
        <ele>1383.8</ele>
        <time>2020-07-28T10:41:25Z</time>
      </trkpt>
      <trkpt lat="42.9649960" lon="-0.3326950">
        <ele>1383.2</ele>
        <time>2020-07-28T10:41:26Z</time>
      </trkpt>
      <trkpt lat="42.9649830" lon="-0.3326010">
        <ele>1382.6</ele>
        <time>2020-07-28T10:41:27Z</time>
      </trkpt>
      <trkpt lat="42.9649710" lon="-0.3324140">
        <ele>1380.8</ele>
        <time>2020-07-28T10:41:29Z</time>
      </trkpt>
      <trkpt lat="42.9649560" lon="-0.3323240">
        <ele>1380.0</ele>
        <time>2020-07-28T10:41:30Z</time>
      </trkpt>
      <trkpt lat="42.9649270" lon="-0.3322400">
        <ele>1379.4</ele>
        <time>2020-07-28T10:41:31Z</time>
      </trkpt>
      <trkpt lat="42.9648930" lon="-0.3321590">
        <ele>1379.0</ele>
        <time>2020-07-28T10:41:32Z</time>
      </trkpt>
      <trkpt lat="42.9648520" lon="-0.3320820">
        <ele>1378.4</ele>
        <time>2020-07-28T10:41:33Z</time>
      </trkpt>
      <trkpt lat="42.9647480" lon="-0.3319410">
        <ele>1377.0</ele>
        <time>2020-07-28T10:41:35Z</time>
      </trkpt>
      <trkpt lat="42.9646280" lon="-0.3318380">
        <ele>1375.6</ele>
        <time>2020-07-28T10:41:37Z</time>
      </trkpt>
      <trkpt lat="42.9645800" lon="-0.3317840">
        <ele>1375.0</ele>
        <time>2020-07-28T10:41:38Z</time>
      </trkpt>
      <trkpt lat="42.9645370" lon="-0.3317250">
        <ele>1374.4</ele>
        <time>2020-07-28T10:41:39Z</time>
      </trkpt>
      <trkpt lat="42.9644500" lon="-0.3316090">
        <ele>1373.4</ele>
        <time>2020-07-28T10:41:41Z</time>
      </trkpt>
      <trkpt lat="42.9643340" lon="-0.3315140">
        <ele>1371.8</ele>
        <time>2020-07-28T10:41:43Z</time>
      </trkpt>
      <trkpt lat="42.9641990" lon="-0.3314500">
        <ele>1370.2</ele>
        <time>2020-07-28T10:41:45Z</time>
      </trkpt>
      <trkpt lat="42.9640610" lon="-0.3313960">
        <ele>1368.6</ele>
        <time>2020-07-28T10:41:47Z</time>
      </trkpt>
      <trkpt lat="42.9639180" lon="-0.3313410">
        <ele>1367.4</ele>
        <time>2020-07-28T10:41:49Z</time>
      </trkpt>
      <trkpt lat="42.9637840" lon="-0.3312910">
        <ele>1365.8</ele>
        <time>2020-07-28T10:41:51Z</time>
      </trkpt>
      <trkpt lat="42.9637100" lon="-0.3312830">
        <ele>1364.8</ele>
        <time>2020-07-28T10:41:52Z</time>
      </trkpt>
      <trkpt lat="42.9636480" lon="-0.3312640">
        <ele>1364.0</ele>
        <time>2020-07-28T10:41:53Z</time>
      </trkpt>
      <trkpt lat="42.9635460" lon="-0.3312010">
        <ele>1362.2</ele>
        <time>2020-07-28T10:41:55Z</time>
      </trkpt>
      <trkpt lat="42.9634960" lon="-0.3311540">
        <ele>1361.4</ele>
        <time>2020-07-28T10:41:56Z</time>
      </trkpt>
      <trkpt lat="42.9634440" lon="-0.3310850">
        <ele>1361.0</ele>
        <time>2020-07-28T10:41:57Z</time>
      </trkpt>
      <trkpt lat="42.9633600" lon="-0.3308820">
        <ele>1360.0</ele>
        <time>2020-07-28T10:41:59Z</time>
      </trkpt>
      <trkpt lat="42.9633130" lon="-0.3308080">
        <ele>1359.4</ele>
        <time>2020-07-28T10:42:00Z</time>
      </trkpt>
      <trkpt lat="42.9632740" lon="-0.3307300">
        <ele>1358.8</ele>
        <time>2020-07-28T10:42:01Z</time>
      </trkpt>
      <trkpt lat="42.9632320" lon="-0.3306700">
        <ele>1358.2</ele>
        <time>2020-07-28T10:42:02Z</time>
      </trkpt>
      <trkpt lat="42.9631250" lon="-0.3305640">
        <ele>1356.6</ele>
        <time>2020-07-28T10:42:04Z</time>
      </trkpt>
      <trkpt lat="42.9630070" lon="-0.3304800">
        <ele>1355.4</ele>
        <time>2020-07-28T10:42:06Z</time>
      </trkpt>
      <trkpt lat="42.9628890" lon="-0.3304330">
        <ele>1354.0</ele>
        <time>2020-07-28T10:42:08Z</time>
      </trkpt>
      <trkpt lat="42.9627530" lon="-0.3304510">
        <ele>1352.6</ele>
        <time>2020-07-28T10:42:10Z</time>
      </trkpt>
      <trkpt lat="42.9625900" lon="-0.3305220">
        <ele>1351.4</ele>
        <time>2020-07-28T10:42:12Z</time>
      </trkpt>
      <trkpt lat="42.9623370" lon="-0.3306430">
        <ele>1350.0</ele>
        <time>2020-07-28T10:42:15Z</time>
      </trkpt>
      <trkpt lat="42.9621690" lon="-0.3307140">
        <ele>1347.8</ele>
        <time>2020-07-28T10:42:17Z</time>
      </trkpt>
      <trkpt lat="42.9620850" lon="-0.3307660">
        <ele>1346.4</ele>
        <time>2020-07-28T10:42:18Z</time>
      </trkpt>
      <trkpt lat="42.9619310" lon="-0.3308780">
        <ele>1344.6</ele>
        <time>2020-07-28T10:42:20Z</time>
      </trkpt>
      <trkpt lat="42.9617800" lon="-0.3309690">
        <ele>1342.6</ele>
        <time>2020-07-28T10:42:22Z</time>
      </trkpt>
      <trkpt lat="42.9617050" lon="-0.3310160">
        <ele>1341.4</ele>
        <time>2020-07-28T10:42:23Z</time>
      </trkpt>
      <trkpt lat="42.9615470" lon="-0.3311000">
        <ele>1339.8</ele>
        <time>2020-07-28T10:42:25Z</time>
      </trkpt>
      <trkpt lat="42.9614720" lon="-0.3311310">
        <ele>1339.0</ele>
        <time>2020-07-28T10:42:26Z</time>
      </trkpt>
      <trkpt lat="42.9613980" lon="-0.3311610">
        <ele>1338.2</ele>
        <time>2020-07-28T10:42:27Z</time>
      </trkpt>
      <trkpt lat="42.9613260" lon="-0.3311850">
        <ele>1337.0</ele>
        <time>2020-07-28T10:42:28Z</time>
      </trkpt>
      <trkpt lat="42.9612530" lon="-0.3312040">
        <ele>1336.2</ele>
        <time>2020-07-28T10:42:29Z</time>
      </trkpt>
      <trkpt lat="42.9611770" lon="-0.3312130">
        <ele>1335.6</ele>
        <time>2020-07-28T10:42:30Z</time>
      </trkpt>
      <trkpt lat="42.9610240" lon="-0.3312130">
        <ele>1334.4</ele>
        <time>2020-07-28T10:42:32Z</time>
      </trkpt>
      <trkpt lat="42.9608750" lon="-0.3312590">
        <ele>1333.8</ele>
        <time>2020-07-28T10:42:34Z</time>
      </trkpt>
      <trkpt lat="42.9607260" lon="-0.3312990">
        <ele>1333.2</ele>
        <time>2020-07-28T10:42:36Z</time>
      </trkpt>
      <trkpt lat="42.9605660" lon="-0.3313270">
        <ele>1332.0</ele>
        <time>2020-07-28T10:42:38Z</time>
      </trkpt>
      <trkpt lat="42.9604940" lon="-0.3313540">
        <ele>1331.4</ele>
        <time>2020-07-28T10:42:39Z</time>
      </trkpt>
      <trkpt lat="42.9604240" lon="-0.3313970">
        <ele>1330.6</ele>
        <time>2020-07-28T10:42:40Z</time>
      </trkpt>
      <trkpt lat="42.9603580" lon="-0.3314510">
        <ele>1329.8</ele>
        <time>2020-07-28T10:42:41Z</time>
      </trkpt>
      <trkpt lat="42.9603000" lon="-0.3315110">
        <ele>1328.8</ele>
        <time>2020-07-28T10:42:42Z</time>
      </trkpt>
      <trkpt lat="42.9602530" lon="-0.3315700">
        <ele>1327.8</ele>
        <time>2020-07-28T10:42:43Z</time>
      </trkpt>
      <trkpt lat="42.9602090" lon="-0.3316240">
        <ele>1326.6</ele>
        <time>2020-07-28T10:42:44Z</time>
      </trkpt>
      <trkpt lat="42.9601610" lon="-0.3316730">
        <ele>1325.6</ele>
        <time>2020-07-28T10:42:45Z</time>
      </trkpt>
      <trkpt lat="42.9600740" lon="-0.3317540">
        <ele>1324.2</ele>
        <time>2020-07-28T10:42:47Z</time>
      </trkpt>
      <trkpt lat="42.9599930" lon="-0.3318520">
        <ele>1323.0</ele>
        <time>2020-07-28T10:42:49Z</time>
      </trkpt>
      <trkpt lat="42.9599550" lon="-0.3319160">
        <ele>1322.4</ele>
        <time>2020-07-28T10:42:50Z</time>
      </trkpt>
      <trkpt lat="42.9599020" lon="-0.3320700">
        <ele>1321.8</ele>
        <time>2020-07-28T10:42:52Z</time>
      </trkpt>
      <trkpt lat="42.9598740" lon="-0.3322410">
        <ele>1320.8</ele>
        <time>2020-07-28T10:42:54Z</time>
      </trkpt>
      <trkpt lat="42.9598550" lon="-0.3323280">
        <ele>1320.2</ele>
        <time>2020-07-28T10:42:55Z</time>
      </trkpt>
      <trkpt lat="42.9598320" lon="-0.3324010">
        <ele>1319.6</ele>
        <time>2020-07-28T10:42:56Z</time>
      </trkpt>
      <trkpt lat="42.9598000" lon="-0.3324680">
        <ele>1318.8</ele>
        <time>2020-07-28T10:42:57Z</time>
      </trkpt>
      <trkpt lat="42.9597580" lon="-0.3325290">
        <ele>1318.2</ele>
        <time>2020-07-28T10:42:58Z</time>
      </trkpt>
      <trkpt lat="42.9597060" lon="-0.3325850">
        <ele>1317.8</ele>
        <time>2020-07-28T10:42:59Z</time>
      </trkpt>
      <trkpt lat="42.9595820" lon="-0.3326740">
        <ele>1316.8</ele>
        <time>2020-07-28T10:43:01Z</time>
      </trkpt>
      <trkpt lat="42.9594470" lon="-0.3327130">
        <ele>1315.6</ele>
        <time>2020-07-28T10:43:03Z</time>
      </trkpt>
      <trkpt lat="42.9593170" lon="-0.3327180">
        <ele>1314.6</ele>
        <time>2020-07-28T10:43:05Z</time>
      </trkpt>
      <trkpt lat="42.9591740" lon="-0.3327080">
        <ele>1313.2</ele>
        <time>2020-07-28T10:43:07Z</time>
      </trkpt>
      <trkpt lat="42.9590350" lon="-0.3327250">
        <ele>1311.8</ele>
        <time>2020-07-28T10:43:09Z</time>
      </trkpt>
      <trkpt lat="42.9589680" lon="-0.3327480">
        <ele>1311.0</ele>
        <time>2020-07-28T10:43:10Z</time>
      </trkpt>
      <trkpt lat="42.9588960" lon="-0.3327650">
        <ele>1310.4</ele>
        <time>2020-07-28T10:43:11Z</time>
      </trkpt>
      <trkpt lat="42.9588230" lon="-0.3327730">
        <ele>1309.8</ele>
        <time>2020-07-28T10:43:12Z</time>
      </trkpt>
      <trkpt lat="42.9587510" lon="-0.3327640">
        <ele>1309.4</ele>
        <time>2020-07-28T10:43:13Z</time>
      </trkpt>
      <trkpt lat="42.9586850" lon="-0.3327390">
        <ele>1308.8</ele>
        <time>2020-07-28T10:43:14Z</time>
      </trkpt>
      <trkpt lat="42.9585650" lon="-0.3326500">
        <ele>1307.8</ele>
        <time>2020-07-28T10:43:16Z</time>
      </trkpt>
      <trkpt lat="42.9584570" lon="-0.3325360">
        <ele>1306.0</ele>
        <time>2020-07-28T10:43:18Z</time>
      </trkpt>
      <trkpt lat="42.9583980" lon="-0.3324920">
        <ele>1305.0</ele>
        <time>2020-07-28T10:43:19Z</time>
      </trkpt>
      <trkpt lat="42.9583370" lon="-0.3324580">
        <ele>1304.2</ele>
        <time>2020-07-28T10:43:20Z</time>
      </trkpt>
      <trkpt lat="42.9582750" lon="-0.3324350">
        <ele>1303.6</ele>
        <time>2020-07-28T10:43:21Z</time>
      </trkpt>
      <trkpt lat="42.9582120" lon="-0.3324340">
        <ele>1303.0</ele>
        <time>2020-07-28T10:43:22Z</time>
      </trkpt>
      <trkpt lat="42.9581540" lon="-0.3324530">
        <ele>1302.4</ele>
        <time>2020-07-28T10:43:23Z</time>
      </trkpt>
      <trkpt lat="42.9581030" lon="-0.3324960">
        <ele>1301.8</ele>
        <time>2020-07-28T10:43:24Z</time>
      </trkpt>
      <trkpt lat="42.9580710" lon="-0.3325580">
        <ele>1301.2</ele>
        <time>2020-07-28T10:43:25Z</time>
      </trkpt>
      <trkpt lat="42.9580580" lon="-0.3326190">
        <ele>1300.6</ele>
        <time>2020-07-28T10:43:26Z</time>
      </trkpt>
      <trkpt lat="42.9580710" lon="-0.3326760">
        <ele>1300.2</ele>
        <time>2020-07-28T10:43:27Z</time>
      </trkpt>
      <trkpt lat="42.9581100" lon="-0.3327360">
        <ele>1299.8</ele>
        <time>2020-07-28T10:43:28Z</time>
      </trkpt>
      <trkpt lat="42.9581480" lon="-0.3327890">
        <ele>1299.6</ele>
        <time>2020-07-28T10:43:29Z</time>
      </trkpt>
      <trkpt lat="42.9582440" lon="-0.3328790">
        <ele>1298.8</ele>
        <time>2020-07-28T10:43:31Z</time>
      </trkpt>
      <trkpt lat="42.9582960" lon="-0.3329160">
        <ele>1298.6</ele>
        <time>2020-07-28T10:43:32Z</time>
      </trkpt>
      <trkpt lat="42.9583510" lon="-0.3329440">
        <ele>1298.6</ele>
        <time>2020-07-28T10:43:33Z</time>
      </trkpt>
      <trkpt lat="42.9584070" lon="-0.3329620">
        <ele>1298.4</ele>
        <time>2020-07-28T10:43:34Z</time>
      </trkpt>
      <trkpt lat="42.9585310" lon="-0.3329730">
        <ele>1298.2</ele>
        <time>2020-07-28T10:43:36Z</time>
      </trkpt>
      <trkpt lat="42.9585920" lon="-0.3329780">
        <ele>1298.2</ele>
        <time>2020-07-28T10:43:37Z</time>
      </trkpt>
      <trkpt lat="42.9587850" lon="-0.3329610">
        <ele>1297.8</ele>
        <time>2020-07-28T10:43:40Z</time>
      </trkpt>
      <trkpt lat="42.9589110" lon="-0.3329290">
        <ele>1297.4</ele>
        <time>2020-07-28T10:43:42Z</time>
      </trkpt>
      <trkpt lat="42.9589750" lon="-0.3329130">
        <ele>1297.4</ele>
        <time>2020-07-28T10:43:43Z</time>
      </trkpt>
      <trkpt lat="42.9590360" lon="-0.3329030">
        <ele>1297.2</ele>
        <time>2020-07-28T10:43:44Z</time>
      </trkpt>
      <trkpt lat="42.9592890" lon="-0.3329160">
        <ele>1296.8</ele>
        <time>2020-07-28T10:43:48Z</time>
      </trkpt>
      <trkpt lat="42.9594200" lon="-0.3329430">
        <ele>1296.6</ele>
        <time>2020-07-28T10:43:50Z</time>
      </trkpt>
      <trkpt lat="42.9594870" lon="-0.3329570">
        <ele>1296.2</ele>
        <time>2020-07-28T10:43:51Z</time>
      </trkpt>
      <trkpt lat="42.9597910" lon="-0.3329970">
        <ele>1295.2</ele>
        <time>2020-07-28T10:43:55Z</time>
      </trkpt>
      <trkpt lat="42.9600490" lon="-0.3329520">
        <ele>1293.4</ele>
        <time>2020-07-28T10:43:58Z</time>
      </trkpt>
      <trkpt lat="42.9601290" lon="-0.3329200">
        <ele>1292.4</ele>
        <time>2020-07-28T10:43:59Z</time>
      </trkpt>
      <trkpt lat="42.9602040" lon="-0.3328760">
        <ele>1291.6</ele>
        <time>2020-07-28T10:44:00Z</time>
      </trkpt>
      <trkpt lat="42.9603570" lon="-0.3327790">
        <ele>1290.2</ele>
        <time>2020-07-28T10:44:02Z</time>
      </trkpt>
      <trkpt lat="42.9604380" lon="-0.3327390">
        <ele>1289.6</ele>
        <time>2020-07-28T10:44:03Z</time>
      </trkpt>
      <trkpt lat="42.9605120" lon="-0.3327120">
        <ele>1289.0</ele>
        <time>2020-07-28T10:44:04Z</time>
      </trkpt>
      <trkpt lat="42.9606710" lon="-0.3327150">
        <ele>1287.0</ele>
        <time>2020-07-28T10:44:06Z</time>
      </trkpt>
      <trkpt lat="42.9608220" lon="-0.3327800">
        <ele>1285.4</ele>
        <time>2020-07-28T10:44:08Z</time>
      </trkpt>
      <trkpt lat="42.9609680" lon="-0.3328580">
        <ele>1283.6</ele>
        <time>2020-07-28T10:44:10Z</time>
      </trkpt>
      <trkpt lat="42.9610390" lon="-0.3328870">
        <ele>1282.4</ele>
        <time>2020-07-28T10:44:11Z</time>
      </trkpt>
      <trkpt lat="42.9611090" lon="-0.3328980">
        <ele>1281.8</ele>
        <time>2020-07-28T10:44:12Z</time>
      </trkpt>
      <trkpt lat="42.9611800" lon="-0.3328840">
        <ele>1281.2</ele>
        <time>2020-07-28T10:44:13Z</time>
      </trkpt>
      <trkpt lat="42.9612510" lon="-0.3328480">
        <ele>1280.4</ele>
        <time>2020-07-28T10:44:14Z</time>
      </trkpt>
      <trkpt lat="42.9613120" lon="-0.3327880">
        <ele>1279.6</ele>
        <time>2020-07-28T10:44:15Z</time>
      </trkpt>
      <trkpt lat="42.9613810" lon="-0.3327170">
        <ele>1278.8</ele>
        <time>2020-07-28T10:44:16Z</time>
      </trkpt>
      <trkpt lat="42.9614530" lon="-0.3326430">
        <ele>1278.2</ele>
        <time>2020-07-28T10:44:17Z</time>
      </trkpt>
      <trkpt lat="42.9615300" lon="-0.3325790">
        <ele>1277.2</ele>
        <time>2020-07-28T10:44:18Z</time>
      </trkpt>
      <trkpt lat="42.9616140" lon="-0.3325280">
        <ele>1276.4</ele>
        <time>2020-07-28T10:44:19Z</time>
      </trkpt>
      <trkpt lat="42.9616950" lon="-0.3325010">
        <ele>1275.6</ele>
        <time>2020-07-28T10:44:20Z</time>
      </trkpt>
      <trkpt lat="42.9617750" lon="-0.3324780">
        <ele>1274.8</ele>
        <time>2020-07-28T10:44:21Z</time>
      </trkpt>
      <trkpt lat="42.9618480" lon="-0.3324680">
        <ele>1274.0</ele>
        <time>2020-07-28T10:44:22Z</time>
      </trkpt>
      <trkpt lat="42.9619200" lon="-0.3324610">
        <ele>1273.2</ele>
        <time>2020-07-28T10:44:23Z</time>
      </trkpt>
      <trkpt lat="42.9619970" lon="-0.3324640">
        <ele>1272.8</ele>
        <time>2020-07-28T10:44:24Z</time>
      </trkpt>
      <trkpt lat="42.9620750" lon="-0.3324670">
        <ele>1272.2</ele>
        <time>2020-07-28T10:44:25Z</time>
      </trkpt>
      <trkpt lat="42.9622350" lon="-0.3324720">
        <ele>1270.8</ele>
        <time>2020-07-28T10:44:27Z</time>
      </trkpt>
      <trkpt lat="42.9623910" lon="-0.3324910">
        <ele>1269.2</ele>
        <time>2020-07-28T10:44:29Z</time>
      </trkpt>
      <trkpt lat="42.9624630" lon="-0.3325160">
        <ele>1268.2</ele>
        <time>2020-07-28T10:44:30Z</time>
      </trkpt>
      <trkpt lat="42.9625380" lon="-0.3325660">
        <ele>1267.0</ele>
        <time>2020-07-28T10:44:31Z</time>
      </trkpt>
      <trkpt lat="42.9626040" lon="-0.3326230">
        <ele>1266.2</ele>
        <time>2020-07-28T10:44:32Z</time>
      </trkpt>
      <trkpt lat="42.9626660" lon="-0.3326800">
        <ele>1265.8</ele>
        <time>2020-07-28T10:44:33Z</time>
      </trkpt>
      <trkpt lat="42.9628710" lon="-0.3328920">
        <ele>1264.4</ele>
        <time>2020-07-28T10:44:36Z</time>
      </trkpt>
      <trkpt lat="42.9630120" lon="-0.3330330">
        <ele>1263.0</ele>
        <time>2020-07-28T10:44:38Z</time>
      </trkpt>
      <trkpt lat="42.9631430" lon="-0.3331640">
        <ele>1261.6</ele>
        <time>2020-07-28T10:44:40Z</time>
      </trkpt>
      <trkpt lat="42.9632160" lon="-0.3332390">
        <ele>1260.6</ele>
        <time>2020-07-28T10:44:41Z</time>
      </trkpt>
      <trkpt lat="42.9632830" lon="-0.3333100">
        <ele>1259.6</ele>
        <time>2020-07-28T10:44:42Z</time>
      </trkpt>
      <trkpt lat="42.9633970" lon="-0.3334730">
        <ele>1258.4</ele>
        <time>2020-07-28T10:44:44Z</time>
      </trkpt>
      <trkpt lat="42.9634450" lon="-0.3335560">
        <ele>1257.8</ele>
        <time>2020-07-28T10:44:45Z</time>
      </trkpt>
      <trkpt lat="42.9634970" lon="-0.3336360">
        <ele>1257.0</ele>
        <time>2020-07-28T10:44:46Z</time>
      </trkpt>
      <trkpt lat="42.9635580" lon="-0.3337150">
        <ele>1256.2</ele>
        <time>2020-07-28T10:44:47Z</time>
      </trkpt>
      <trkpt lat="42.9636190" lon="-0.3337930">
        <ele>1255.6</ele>
        <time>2020-07-28T10:44:48Z</time>
      </trkpt>
      <trkpt lat="42.9636690" lon="-0.3338790">
        <ele>1254.8</ele>
        <time>2020-07-28T10:44:49Z</time>
      </trkpt>
      <trkpt lat="42.9637090" lon="-0.3339680">
        <ele>1253.8</ele>
        <time>2020-07-28T10:44:50Z</time>
      </trkpt>
      <trkpt lat="42.9637850" lon="-0.3341370">
        <ele>1252.0</ele>
        <time>2020-07-28T10:44:52Z</time>
      </trkpt>
      <trkpt lat="42.9638530" lon="-0.3343380">
        <ele>1250.2</ele>
        <time>2020-07-28T10:44:54Z</time>
      </trkpt>
      <trkpt lat="42.9639290" lon="-0.3345270">
        <ele>1249.0</ele>
        <time>2020-07-28T10:44:56Z</time>
      </trkpt>
      <trkpt lat="42.9640100" lon="-0.3347280">
        <ele>1247.2</ele>
        <time>2020-07-28T10:44:58Z</time>
      </trkpt>
      <trkpt lat="42.9640530" lon="-0.3348250">
        <ele>1246.4</ele>
        <time>2020-07-28T10:44:59Z</time>
      </trkpt>
      <trkpt lat="42.9641040" lon="-0.3349280">
        <ele>1245.8</ele>
        <time>2020-07-28T10:45:00Z</time>
      </trkpt>
      <trkpt lat="42.9642250" lon="-0.3351120">
        <ele>1244.8</ele>
        <time>2020-07-28T10:45:02Z</time>
      </trkpt>
      <trkpt lat="42.9643390" lon="-0.3352660">
        <ele>1243.2</ele>
        <time>2020-07-28T10:45:04Z</time>
      </trkpt>
      <trkpt lat="42.9644610" lon="-0.3354240">
        <ele>1241.4</ele>
        <time>2020-07-28T10:45:06Z</time>
      </trkpt>
      <trkpt lat="42.9645600" lon="-0.3356130">
        <ele>1240.2</ele>
        <time>2020-07-28T10:45:08Z</time>
      </trkpt>
      <trkpt lat="42.9646090" lon="-0.3357140">
        <ele>1239.4</ele>
        <time>2020-07-28T10:45:09Z</time>
      </trkpt>
      <trkpt lat="42.9646630" lon="-0.3358100">
        <ele>1238.8</ele>
        <time>2020-07-28T10:45:10Z</time>
      </trkpt>
      <trkpt lat="42.9647640" lon="-0.3360140">
        <ele>1237.4</ele>
        <time>2020-07-28T10:45:12Z</time>
      </trkpt>
      <trkpt lat="42.9648520" lon="-0.3362330">
        <ele>1235.6</ele>
        <time>2020-07-28T10:45:14Z</time>
      </trkpt>
      <trkpt lat="42.9649190" lon="-0.3364980">
        <ele>1233.8</ele>
        <time>2020-07-28T10:45:16Z</time>
      </trkpt>
      <trkpt lat="42.9649520" lon="-0.3366130">
        <ele>1232.6</ele>
        <time>2020-07-28T10:45:17Z</time>
      </trkpt>
      <trkpt lat="42.9649670" lon="-0.3367410">
        <ele>1231.4</ele>
        <time>2020-07-28T10:45:18Z</time>
      </trkpt>
      <trkpt lat="42.9649550" lon="-0.3368920">
        <ele>1230.4</ele>
        <time>2020-07-28T10:45:19Z</time>
      </trkpt>
      <trkpt lat="42.9649210" lon="-0.3371850">
        <ele>1228.8</ele>
        <time>2020-07-28T10:45:21Z</time>
      </trkpt>
      <trkpt lat="42.9646530" lon="-0.3376780">
        <ele>1228.0</ele>
        <time>2020-07-28T10:45:23Z</time>
      </trkpt>
      <trkpt lat="42.9646140" lon="-0.3378430">
        <ele>1227.2</ele>
        <time>2020-07-28T10:45:24Z</time>
      </trkpt>
      <trkpt lat="42.9645990" lon="-0.3379990">
        <ele>1226.0</ele>
        <time>2020-07-28T10:45:25Z</time>
      </trkpt>
      <trkpt lat="42.9646180" lon="-0.3381250">
        <ele>1224.8</ele>
        <time>2020-07-28T10:45:26Z</time>
      </trkpt>
      <trkpt lat="42.9646670" lon="-0.3383660">
        <ele>1222.8</ele>
        <time>2020-07-28T10:45:28Z</time>
      </trkpt>
      <trkpt lat="42.9646850" lon="-0.3384760">
        <ele>1222.0</ele>
        <time>2020-07-28T10:45:29Z</time>
      </trkpt>
      <trkpt lat="42.9646980" lon="-0.3385750">
        <ele>1220.8</ele>
        <time>2020-07-28T10:45:30Z</time>
      </trkpt>
      <trkpt lat="42.9647060" lon="-0.3386710">
        <ele>1219.8</ele>
        <time>2020-07-28T10:45:31Z</time>
      </trkpt>
      <trkpt lat="42.9647100" lon="-0.3387600">
        <ele>1218.6</ele>
        <time>2020-07-28T10:45:32Z</time>
      </trkpt>
      <trkpt lat="42.9646960" lon="-0.3388510">
        <ele>1217.8</ele>
        <time>2020-07-28T10:45:33Z</time>
      </trkpt>
      <trkpt lat="42.9646870" lon="-0.3389410">
        <ele>1216.8</ele>
        <time>2020-07-28T10:45:34Z</time>
      </trkpt>
      <trkpt lat="42.9646890" lon="-0.3391280">
        <ele>1215.6</ele>
        <time>2020-07-28T10:45:36Z</time>
      </trkpt>
      <trkpt lat="42.9647190" lon="-0.3393290">
        <ele>1214.6</ele>
        <time>2020-07-28T10:45:38Z</time>
      </trkpt>
      <trkpt lat="42.9647400" lon="-0.3394370">
        <ele>1214.0</ele>
        <time>2020-07-28T10:45:39Z</time>
      </trkpt>
      <trkpt lat="42.9647650" lon="-0.3396600">
        <ele>1212.6</ele>
        <time>2020-07-28T10:45:41Z</time>
      </trkpt>
      <trkpt lat="42.9647760" lon="-0.3397690">
        <ele>1211.8</ele>
        <time>2020-07-28T10:45:42Z</time>
      </trkpt>
      <trkpt lat="42.9647830" lon="-0.3398800">
        <ele>1210.8</ele>
        <time>2020-07-28T10:45:43Z</time>
      </trkpt>
      <trkpt lat="42.9647910" lon="-0.3399970">
        <ele>1209.8</ele>
        <time>2020-07-28T10:45:44Z</time>
      </trkpt>
      <trkpt lat="42.9648160" lon="-0.3402660">
        <ele>1208.2</ele>
        <time>2020-07-28T10:45:46Z</time>
      </trkpt>
      <trkpt lat="42.9648830" lon="-0.3405430">
        <ele>1207.0</ele>
        <time>2020-07-28T10:45:48Z</time>
      </trkpt>
      <trkpt lat="42.9649540" lon="-0.3408250">
        <ele>1205.4</ele>
        <time>2020-07-28T10:45:50Z</time>
      </trkpt>
      <trkpt lat="42.9649840" lon="-0.3411220">
        <ele>1204.0</ele>
        <time>2020-07-28T10:45:52Z</time>
      </trkpt>
      <trkpt lat="42.9649950" lon="-0.3412760">
        <ele>1203.2</ele>
        <time>2020-07-28T10:45:53Z</time>
      </trkpt>
      <trkpt lat="42.9650130" lon="-0.3414320">
        <ele>1202.4</ele>
        <time>2020-07-28T10:45:54Z</time>
      </trkpt>
      <trkpt lat="42.9650490" lon="-0.3417600">
        <ele>1200.6</ele>
        <time>2020-07-28T10:45:56Z</time>
      </trkpt>
      <trkpt lat="42.9650890" lon="-0.3420730">
        <ele>1199.4</ele>
        <time>2020-07-28T10:45:58Z</time>
      </trkpt>
      <trkpt lat="42.9651030" lon="-0.3422210">
        <ele>1198.4</ele>
        <time>2020-07-28T10:45:59Z</time>
      </trkpt>
      <trkpt lat="42.9651130" lon="-0.3423590">
        <ele>1197.0</ele>
        <time>2020-07-28T10:46:00Z</time>
      </trkpt>
      <trkpt lat="42.9651240" lon="-0.3424880">
        <ele>1195.6</ele>
        <time>2020-07-28T10:46:01Z</time>
      </trkpt>
      <trkpt lat="42.9651300" lon="-0.3426190">
        <ele>1194.2</ele>
        <time>2020-07-28T10:46:02Z</time>
      </trkpt>
      <trkpt lat="42.9651350" lon="-0.3427530">
        <ele>1193.0</ele>
        <time>2020-07-28T10:46:03Z</time>
      </trkpt>
      <trkpt lat="42.9651330" lon="-0.3430250">
        <ele>1191.6</ele>
        <time>2020-07-28T10:46:05Z</time>
      </trkpt>
      <trkpt lat="42.9651140" lon="-0.3432590">
        <ele>1189.8</ele>
        <time>2020-07-28T10:46:07Z</time>
      </trkpt>
      <trkpt lat="42.9650940" lon="-0.3433580">
        <ele>1188.6</ele>
        <time>2020-07-28T10:46:08Z</time>
      </trkpt>
      <trkpt lat="42.9650650" lon="-0.3434430">
        <ele>1187.4</ele>
        <time>2020-07-28T10:46:09Z</time>
      </trkpt>
      <trkpt lat="42.9650300" lon="-0.3435030">
        <ele>1186.4</ele>
        <time>2020-07-28T10:46:10Z</time>
      </trkpt>
      <trkpt lat="42.9649330" lon="-0.3435630">
        <ele>1184.6</ele>
        <time>2020-07-28T10:46:12Z</time>
      </trkpt>
      <trkpt lat="42.9648730" lon="-0.3435490">
        <ele>1184.0</ele>
        <time>2020-07-28T10:46:13Z</time>
      </trkpt>
      <trkpt lat="42.9648150" lon="-0.3434990">
        <ele>1183.6</ele>
        <time>2020-07-28T10:46:14Z</time>
      </trkpt>
      <trkpt lat="42.9647550" lon="-0.3434120">
        <ele>1183.0</ele>
        <time>2020-07-28T10:46:15Z</time>
      </trkpt>
      <trkpt lat="42.9647070" lon="-0.3433130">
        <ele>1182.6</ele>
        <time>2020-07-28T10:46:16Z</time>
      </trkpt>
      <trkpt lat="42.9646670" lon="-0.3431950">
        <ele>1182.0</ele>
        <time>2020-07-28T10:46:17Z</time>
      </trkpt>
      <trkpt lat="42.9646240" lon="-0.3430650">
        <ele>1181.6</ele>
        <time>2020-07-28T10:46:18Z</time>
      </trkpt>
      <trkpt lat="42.9645480" lon="-0.3427980">
        <ele>1180.4</ele>
        <time>2020-07-28T10:46:20Z</time>
      </trkpt>
      <trkpt lat="42.9644400" lon="-0.3423930">
        <ele>1179.0</ele>
        <time>2020-07-28T10:46:23Z</time>
      </trkpt>
      <trkpt lat="42.9643660" lon="-0.3421190">
        <ele>1177.4</ele>
        <time>2020-07-28T10:46:25Z</time>
      </trkpt>
      <trkpt lat="42.9642870" lon="-0.3418570">
        <ele>1175.4</ele>
        <time>2020-07-28T10:46:27Z</time>
      </trkpt>
      <trkpt lat="42.9642090" lon="-0.3415910">
        <ele>1174.0</ele>
        <time>2020-07-28T10:46:29Z</time>
      </trkpt>
      <trkpt lat="42.9641580" lon="-0.3413280">
        <ele>1171.8</ele>
        <time>2020-07-28T10:46:31Z</time>
      </trkpt>
      <trkpt lat="42.9641380" lon="-0.3411990">
        <ele>1170.4</ele>
        <time>2020-07-28T10:46:32Z</time>
      </trkpt>
      <trkpt lat="42.9641300" lon="-0.3410650">
        <ele>1169.2</ele>
        <time>2020-07-28T10:46:33Z</time>
      </trkpt>
      <trkpt lat="42.9641210" lon="-0.3409280">
        <ele>1168.2</ele>
        <time>2020-07-28T10:46:34Z</time>
      </trkpt>
      <trkpt lat="42.9641080" lon="-0.3406340">
        <ele>1166.4</ele>
        <time>2020-07-28T10:46:36Z</time>
      </trkpt>
      <trkpt lat="42.9640990" lon="-0.3403190">
        <ele>1164.6</ele>
        <time>2020-07-28T10:46:38Z</time>
      </trkpt>
      <trkpt lat="42.9640900" lon="-0.3400410">
        <ele>1162.8</ele>
        <time>2020-07-28T10:46:40Z</time>
      </trkpt>
      <trkpt lat="42.9640940" lon="-0.3399200">
        <ele>1161.8</ele>
        <time>2020-07-28T10:46:41Z</time>
      </trkpt>
      <trkpt lat="42.9640840" lon="-0.3397990">
        <ele>1160.8</ele>
        <time>2020-07-28T10:46:42Z</time>
      </trkpt>
      <trkpt lat="42.9640600" lon="-0.3396830">
        <ele>1159.8</ele>
        <time>2020-07-28T10:46:43Z</time>
      </trkpt>
      <trkpt lat="42.9640240" lon="-0.3395810">
        <ele>1158.4</ele>
        <time>2020-07-28T10:46:44Z</time>
      </trkpt>
      <trkpt lat="42.9639730" lon="-0.3394970">
        <ele>1157.2</ele>
        <time>2020-07-28T10:46:45Z</time>
      </trkpt>
      <trkpt lat="42.9638460" lon="-0.3393660">
        <ele>1155.8</ele>
        <time>2020-07-28T10:46:47Z</time>
      </trkpt>
      <trkpt lat="42.9637730" lon="-0.3393370">
        <ele>1154.8</ele>
        <time>2020-07-28T10:46:48Z</time>
      </trkpt>
      <trkpt lat="42.9637000" lon="-0.3393250">
        <ele>1153.6</ele>
        <time>2020-07-28T10:46:49Z</time>
      </trkpt>
      <trkpt lat="42.9635380" lon="-0.3393150">
        <ele>1151.8</ele>
        <time>2020-07-28T10:46:51Z</time>
      </trkpt>
      <trkpt lat="42.9633820" lon="-0.3393310">
        <ele>1150.4</ele>
        <time>2020-07-28T10:46:53Z</time>
      </trkpt>
      <trkpt lat="42.9632480" lon="-0.3393650">
        <ele>1149.2</ele>
        <time>2020-07-28T10:46:55Z</time>
      </trkpt>
      <trkpt lat="42.9631870" lon="-0.3393940">
        <ele>1148.4</ele>
        <time>2020-07-28T10:46:56Z</time>
      </trkpt>
      <trkpt lat="42.9631320" lon="-0.3394440">
        <ele>1147.4</ele>
        <time>2020-07-28T10:46:57Z</time>
      </trkpt>
      <trkpt lat="42.9630850" lon="-0.3395180">
        <ele>1146.6</ele>
        <time>2020-07-28T10:46:58Z</time>
      </trkpt>
      <trkpt lat="42.9630590" lon="-0.3396160">
        <ele>1145.8</ele>
        <time>2020-07-28T10:46:59Z</time>
      </trkpt>
      <trkpt lat="42.9630470" lon="-0.3397270">
        <ele>1145.0</ele>
        <time>2020-07-28T10:47:00Z</time>
      </trkpt>
      <trkpt lat="42.9630650" lon="-0.3398360">
        <ele>1144.4</ele>
        <time>2020-07-28T10:47:01Z</time>
      </trkpt>
      <trkpt lat="42.9630910" lon="-0.3399450">
        <ele>1143.6</ele>
        <time>2020-07-28T10:47:02Z</time>
      </trkpt>
      <trkpt lat="42.9631220" lon="-0.3400560">
        <ele>1142.8</ele>
        <time>2020-07-28T10:47:03Z</time>
      </trkpt>
      <trkpt lat="42.9632030" lon="-0.3402930">
        <ele>1141.4</ele>
        <time>2020-07-28T10:47:05Z</time>
      </trkpt>
      <trkpt lat="42.9632470" lon="-0.3404190">
        <ele>1140.8</ele>
        <time>2020-07-28T10:47:06Z</time>
      </trkpt>
      <trkpt lat="42.9632960" lon="-0.3405500">
        <ele>1140.4</ele>
        <time>2020-07-28T10:47:07Z</time>
      </trkpt>
      <trkpt lat="42.9634320" lon="-0.3409660">
        <ele>1138.8</ele>
        <time>2020-07-28T10:47:10Z</time>
      </trkpt>
      <trkpt lat="42.9634710" lon="-0.3410970">
        <ele>1137.8</ele>
        <time>2020-07-28T10:47:11Z</time>
      </trkpt>
      <trkpt lat="42.9635090" lon="-0.3412370">
        <ele>1136.2</ele>
        <time>2020-07-28T10:47:12Z</time>
      </trkpt>
      <trkpt lat="42.9635190" lon="-0.3413820">
        <ele>1135.0</ele>
        <time>2020-07-28T10:47:13Z</time>
      </trkpt>
      <trkpt lat="42.9635290" lon="-0.3415310">
        <ele>1134.0</ele>
        <time>2020-07-28T10:47:14Z</time>
      </trkpt>
      <trkpt lat="42.9635320" lon="-0.3416830">
        <ele>1133.2</ele>
        <time>2020-07-28T10:47:15Z</time>
      </trkpt>
      <trkpt lat="42.9635240" lon="-0.3419460">
        <ele>1132.4</ele>
        <time>2020-07-28T10:47:17Z</time>
      </trkpt>
      <trkpt lat="42.9635100" lon="-0.3420750">
        <ele>1131.8</ele>
        <time>2020-07-28T10:47:18Z</time>
      </trkpt>
      <trkpt lat="42.9634690" lon="-0.3423400">
        <ele>1130.2</ele>
        <time>2020-07-28T10:47:20Z</time>
      </trkpt>
      <trkpt lat="42.9634200" lon="-0.3426080">
        <ele>1128.4</ele>
        <time>2020-07-28T10:47:22Z</time>
      </trkpt>
      <trkpt lat="42.9633710" lon="-0.3428690">
        <ele>1126.4</ele>
        <time>2020-07-28T10:47:24Z</time>
      </trkpt>
      <trkpt lat="42.9633250" lon="-0.3431350">
        <ele>1124.6</ele>
        <time>2020-07-28T10:47:26Z</time>
      </trkpt>
      <trkpt lat="42.9632950" lon="-0.3434230">
        <ele>1123.4</ele>
        <time>2020-07-28T10:47:28Z</time>
      </trkpt>
      <trkpt lat="42.9632720" lon="-0.3437040">
        <ele>1122.0</ele>
        <time>2020-07-28T10:47:30Z</time>
      </trkpt>
      <trkpt lat="42.9632490" lon="-0.3438340">
        <ele>1121.0</ele>
        <time>2020-07-28T10:47:31Z</time>
      </trkpt>
      <trkpt lat="42.9632200" lon="-0.3439540">
        <ele>1119.8</ele>
        <time>2020-07-28T10:47:32Z</time>
      </trkpt>
      <trkpt lat="42.9631810" lon="-0.3440740">
        <ele>1118.8</ele>
        <time>2020-07-28T10:47:33Z</time>
      </trkpt>
      <trkpt lat="42.9631420" lon="-0.3441950">
        <ele>1117.8</ele>
        <time>2020-07-28T10:47:34Z</time>
      </trkpt>
      <trkpt lat="42.9631170" lon="-0.3443210">
        <ele>1116.8</ele>
        <time>2020-07-28T10:47:35Z</time>
      </trkpt>
      <trkpt lat="42.9631070" lon="-0.3444490">
        <ele>1116.0</ele>
        <time>2020-07-28T10:47:36Z</time>
      </trkpt>
      <trkpt lat="42.9630920" lon="-0.3446850">
        <ele>1114.6</ele>
        <time>2020-07-28T10:47:38Z</time>
      </trkpt>
      <trkpt lat="42.9630800" lon="-0.3449450">
        <ele>1113.0</ele>
        <time>2020-07-28T10:47:40Z</time>
      </trkpt>
      <trkpt lat="42.9630640" lon="-0.3451670">
        <ele>1111.0</ele>
        <time>2020-07-28T10:47:42Z</time>
      </trkpt>
      <trkpt lat="42.9630460" lon="-0.3452690">
        <ele>1109.8</ele>
        <time>2020-07-28T10:47:43Z</time>
      </trkpt>
      <trkpt lat="42.9630290" lon="-0.3453590">
        <ele>1108.4</ele>
        <time>2020-07-28T10:47:44Z</time>
      </trkpt>
      <trkpt lat="42.9630100" lon="-0.3454360">
        <ele>1107.2</ele>
        <time>2020-07-28T10:47:45Z</time>
      </trkpt>
      <trkpt lat="42.9629840" lon="-0.3454990">
        <ele>1106.4</ele>
        <time>2020-07-28T10:47:46Z</time>
      </trkpt>
      <trkpt lat="42.9629480" lon="-0.3455610">
        <ele>1105.6</ele>
        <time>2020-07-28T10:47:47Z</time>
      </trkpt>
      <trkpt lat="42.9628960" lon="-0.3456030">
        <ele>1105.0</ele>
        <time>2020-07-28T10:47:48Z</time>
      </trkpt>
      <trkpt lat="42.9628390" lon="-0.3456420">
        <ele>1104.4</ele>
        <time>2020-07-28T10:47:49Z</time>
      </trkpt>
      <trkpt lat="42.9627150" lon="-0.3457010">
        <ele>1103.2</ele>
        <time>2020-07-28T10:47:51Z</time>
      </trkpt>
      <trkpt lat="42.9626600" lon="-0.3457470">
        <ele>1102.8</ele>
        <time>2020-07-28T10:47:52Z</time>
      </trkpt>
      <trkpt lat="42.9625960" lon="-0.3457870">
        <ele>1102.2</ele>
        <time>2020-07-28T10:47:53Z</time>
      </trkpt>
      <trkpt lat="42.9625440" lon="-0.3458510">
        <ele>1101.6</ele>
        <time>2020-07-28T10:47:54Z</time>
      </trkpt>
      <trkpt lat="42.9625040" lon="-0.3459410">
        <ele>1101.0</ele>
        <time>2020-07-28T10:47:55Z</time>
      </trkpt>
      <trkpt lat="42.9624800" lon="-0.3460490">
        <ele>1100.2</ele>
        <time>2020-07-28T10:47:56Z</time>
      </trkpt>
      <trkpt lat="42.9624640" lon="-0.3461580">
        <ele>1099.4</ele>
        <time>2020-07-28T10:47:57Z</time>
      </trkpt>
      <trkpt lat="42.9624340" lon="-0.3463780">
        <ele>1098.2</ele>
        <time>2020-07-28T10:47:59Z</time>
      </trkpt>
      <trkpt lat="42.9624300" lon="-0.3464830">
        <ele>1097.4</ele>
        <time>2020-07-28T10:48:00Z</time>
      </trkpt>
      <trkpt lat="42.9624410" lon="-0.3465920">
        <ele>1096.6</ele>
        <time>2020-07-28T10:48:01Z</time>
      </trkpt>
      <trkpt lat="42.9624560" lon="-0.3468300">
        <ele>1094.8</ele>
        <time>2020-07-28T10:48:03Z</time>
      </trkpt>
      <trkpt lat="42.9624440" lon="-0.3470800">
        <ele>1093.4</ele>
        <time>2020-07-28T10:48:05Z</time>
      </trkpt>
      <trkpt lat="42.9623980" lon="-0.3473450">
        <ele>1092.0</ele>
        <time>2020-07-28T10:48:07Z</time>
      </trkpt>
      <trkpt lat="42.9623330" lon="-0.3476230">
        <ele>1090.8</ele>
        <time>2020-07-28T10:48:09Z</time>
      </trkpt>
      <trkpt lat="42.9622750" lon="-0.3479040">
        <ele>1088.8</ele>
        <time>2020-07-28T10:48:11Z</time>
      </trkpt>
      <trkpt lat="42.9622490" lon="-0.3480420">
        <ele>1087.6</ele>
        <time>2020-07-28T10:48:12Z</time>
      </trkpt>
      <trkpt lat="42.9622280" lon="-0.3481820">
        <ele>1086.4</ele>
        <time>2020-07-28T10:48:13Z</time>
      </trkpt>
      <trkpt lat="42.9622140" lon="-0.3483120">
        <ele>1085.2</ele>
        <time>2020-07-28T10:48:14Z</time>
      </trkpt>
      <trkpt lat="42.9621980" lon="-0.3484330">
        <ele>1084.0</ele>
        <time>2020-07-28T10:48:15Z</time>
      </trkpt>
      <trkpt lat="42.9621880" lon="-0.3485450">
        <ele>1083.0</ele>
        <time>2020-07-28T10:48:16Z</time>
      </trkpt>
      <trkpt lat="42.9621790" lon="-0.3486570">
        <ele>1081.8</ele>
        <time>2020-07-28T10:48:17Z</time>
      </trkpt>
      <trkpt lat="42.9621740" lon="-0.3487730">
        <ele>1080.8</ele>
        <time>2020-07-28T10:48:18Z</time>
      </trkpt>
      <trkpt lat="42.9621640" lon="-0.3488790">
        <ele>1079.8</ele>
        <time>2020-07-28T10:48:19Z</time>
      </trkpt>
      <trkpt lat="42.9621520" lon="-0.3489720">
        <ele>1078.6</ele>
        <time>2020-07-28T10:48:20Z</time>
      </trkpt>
      <trkpt lat="42.9621400" lon="-0.3490580">
        <ele>1077.6</ele>
        <time>2020-07-28T10:48:21Z</time>
      </trkpt>
      <trkpt lat="42.9621050" lon="-0.3492260">
        <ele>1075.8</ele>
        <time>2020-07-28T10:48:23Z</time>
      </trkpt>
      <trkpt lat="42.9620890" lon="-0.3492930">
        <ele>1075.0</ele>
        <time>2020-07-28T10:48:24Z</time>
      </trkpt>
      <trkpt lat="42.9620770" lon="-0.3493520">
        <ele>1074.4</ele>
        <time>2020-07-28T10:48:25Z</time>
      </trkpt>
      <trkpt lat="42.9620930" lon="-0.3494580">
        <ele>1073.4</ele>
        <time>2020-07-28T10:48:27Z</time>
      </trkpt>
      <trkpt lat="42.9621260" lon="-0.3494610">
        <ele>1073.0</ele>
        <time>2020-07-28T10:48:28Z</time>
      </trkpt>
      <trkpt lat="42.9621760" lon="-0.3493810">
        <ele>1072.4</ele>
        <time>2020-07-28T10:48:30Z</time>
      </trkpt>
      <trkpt lat="42.9621900" lon="-0.3493180">
        <ele>1072.0</ele>
        <time>2020-07-28T10:48:31Z</time>
      </trkpt>
      <trkpt lat="42.9622110" lon="-0.3491040">
        <ele>1071.0</ele>
        <time>2020-07-28T10:48:34Z</time>
      </trkpt>
      <trkpt lat="42.9622280" lon="-0.3490440">
        <ele>1070.6</ele>
        <time>2020-07-28T10:48:35Z</time>
      </trkpt>
      <trkpt lat="42.9622380" lon="-0.3489810">
        <ele>1070.4</ele>
        <time>2020-07-28T10:48:36Z</time>
      </trkpt>
      <trkpt lat="42.9622480" lon="-0.3489170">
        <ele>1070.0</ele>
        <time>2020-07-28T10:48:37Z</time>
      </trkpt>
      <trkpt lat="42.9622830" lon="-0.3487040">
        <ele>1069.0</ele>
        <time>2020-07-28T10:48:40Z</time>
      </trkpt>
      <trkpt lat="42.9623210" lon="-0.3485460">
        <ele>1068.4</ele>
        <time>2020-07-28T10:48:42Z</time>
      </trkpt>
      <trkpt lat="42.9623650" lon="-0.3483680">
        <ele>1067.8</ele>
        <time>2020-07-28T10:48:44Z</time>
      </trkpt>
      <trkpt lat="42.9624440" lon="-0.3480770">
        <ele>1067.0</ele>
        <time>2020-07-28T10:48:47Z</time>
      </trkpt>
      <trkpt lat="42.9624720" lon="-0.3479920">
        <ele>1066.4</ele>
        <time>2020-07-28T10:48:48Z</time>
      </trkpt>
      <trkpt lat="42.9625060" lon="-0.3479120">
        <ele>1066.0</ele>
        <time>2020-07-28T10:48:49Z</time>
      </trkpt>
      <trkpt lat="42.9625450" lon="-0.3478370">
        <ele>1065.4</ele>
        <time>2020-07-28T10:48:50Z</time>
      </trkpt>
      <trkpt lat="42.9625820" lon="-0.3477650">
        <ele>1064.8</ele>
        <time>2020-07-28T10:48:51Z</time>
      </trkpt>
      <trkpt lat="42.9626290" lon="-0.3477000">
        <ele>1064.4</ele>
        <time>2020-07-28T10:48:52Z</time>
      </trkpt>
      <trkpt lat="42.9626860" lon="-0.3476420">
        <ele>1064.0</ele>
        <time>2020-07-28T10:48:53Z</time>
      </trkpt>
      <trkpt lat="42.9627660" lon="-0.3475240">
        <ele>1063.4</ele>
        <time>2020-07-28T10:48:55Z</time>
      </trkpt>
      <trkpt lat="42.9627920" lon="-0.3474600">
        <ele>1063.0</ele>
        <time>2020-07-28T10:48:56Z</time>
      </trkpt>
      <trkpt lat="42.9629460" lon="-0.3472100">
        <ele>1061.4</ele>
        <time>2020-07-28T10:48:59Z</time>
      </trkpt>
      <trkpt lat="42.9630150" lon="-0.3471110">
        <ele>1060.8</ele>
        <time>2020-07-28T10:49:00Z</time>
      </trkpt>
      <trkpt lat="42.9630810" lon="-0.3470100">
        <ele>1060.0</ele>
        <time>2020-07-28T10:49:01Z</time>
      </trkpt>
      <trkpt lat="42.9631220" lon="-0.3468970">
        <ele>1059.0</ele>
        <time>2020-07-28T10:49:02Z</time>
      </trkpt>
      <trkpt lat="42.9631740" lon="-0.3467780">
        <ele>1057.8</ele>
        <time>2020-07-28T10:49:03Z</time>
      </trkpt>
      <trkpt lat="42.9632010" lon="-0.3466410">
        <ele>1057.0</ele>
        <time>2020-07-28T10:49:04Z</time>
      </trkpt>
      <trkpt lat="42.9633030" lon="-0.3464960">
        <ele>1056.2</ele>
        <time>2020-07-28T10:49:05Z</time>
      </trkpt>
      <trkpt lat="42.9635300" lon="-0.3462610">
        <ele>1054.2</ele>
        <time>2020-07-28T10:49:07Z</time>
      </trkpt>
      <trkpt lat="42.9636140" lon="-0.3461750">
        <ele>1053.2</ele>
        <time>2020-07-28T10:49:08Z</time>
      </trkpt>
      <trkpt lat="42.9636920" lon="-0.3461120">
        <ele>1052.4</ele>
        <time>2020-07-28T10:49:09Z</time>
      </trkpt>
      <trkpt lat="42.9637620" lon="-0.3460670">
        <ele>1051.6</ele>
        <time>2020-07-28T10:49:10Z</time>
      </trkpt>
      <trkpt lat="42.9638540" lon="-0.3460580">
        <ele>1051.0</ele>
        <time>2020-07-28T10:49:11Z</time>
      </trkpt>
      <trkpt lat="42.9639200" lon="-0.3460790">
        <ele>1050.6</ele>
        <time>2020-07-28T10:49:12Z</time>
      </trkpt>
      <trkpt lat="42.9639920" lon="-0.3461320">
        <ele>1050.2</ele>
        <time>2020-07-28T10:49:13Z</time>
      </trkpt>
      <trkpt lat="42.9640320" lon="-0.3462050">
        <ele>1050.2</ele>
        <time>2020-07-28T10:49:14Z</time>
      </trkpt>
      <trkpt lat="42.9640610" lon="-0.3462980">
        <ele>1050.0</ele>
        <time>2020-07-28T10:49:15Z</time>
      </trkpt>
      <trkpt lat="42.9640850" lon="-0.3464930">
        <ele>1049.8</ele>
        <time>2020-07-28T10:49:17Z</time>
      </trkpt>
      <trkpt lat="42.9640900" lon="-0.3466890">
        <ele>1049.6</ele>
        <time>2020-07-28T10:49:19Z</time>
      </trkpt>
      <trkpt lat="42.9640920" lon="-0.3469950">
        <ele>1049.2</ele>
        <time>2020-07-28T10:49:22Z</time>
      </trkpt>
      <trkpt lat="42.9640770" lon="-0.3472020">
        <ele>1048.8</ele>
        <time>2020-07-28T10:49:24Z</time>
      </trkpt>
      <trkpt lat="42.9640720" lon="-0.3475140">
        <ele>1048.4</ele>
        <time>2020-07-28T10:49:27Z</time>
      </trkpt>
      <trkpt lat="42.9641370" lon="-0.3476940">
        <ele>1047.6</ele>
        <time>2020-07-28T10:49:29Z</time>
      </trkpt>
      <trkpt lat="42.9641720" lon="-0.3477830">
        <ele>1047.4</ele>
        <time>2020-07-28T10:49:30Z</time>
      </trkpt>
      <trkpt lat="42.9642550" lon="-0.3480580">
        <ele>1046.4</ele>
        <time>2020-07-28T10:49:33Z</time>
      </trkpt>
      <trkpt lat="42.9642710" lon="-0.3481550">
        <ele>1046.2</ele>
        <time>2020-07-28T10:49:34Z</time>
      </trkpt>
      <trkpt lat="42.9642850" lon="-0.3482450">
        <ele>1046.0</ele>
        <time>2020-07-28T10:49:35Z</time>
      </trkpt>
      <trkpt lat="42.9642920" lon="-0.3483350">
        <ele>1045.8</ele>
        <time>2020-07-28T10:49:36Z</time>
      </trkpt>
      <trkpt lat="42.9643040" lon="-0.3485260">
        <ele>1045.2</ele>
        <time>2020-07-28T10:49:38Z</time>
      </trkpt>
      <trkpt lat="42.9642990" lon="-0.3486290">
        <ele>1044.8</ele>
        <time>2020-07-28T10:49:39Z</time>
      </trkpt>
      <trkpt lat="42.9642760" lon="-0.3487300">
        <ele>1044.4</ele>
        <time>2020-07-28T10:49:40Z</time>
      </trkpt>
      <trkpt lat="42.9642340" lon="-0.3488310">
        <ele>1044.0</ele>
        <time>2020-07-28T10:49:41Z</time>
      </trkpt>
      <trkpt lat="42.9640910" lon="-0.3490200">
        <ele>1042.6</ele>
        <time>2020-07-28T10:49:43Z</time>
      </trkpt>
      <trkpt lat="42.9639540" lon="-0.3492260">
        <ele>1041.4</ele>
        <time>2020-07-28T10:49:45Z</time>
      </trkpt>
      <trkpt lat="42.9639070" lon="-0.3493540">
        <ele>1040.8</ele>
        <time>2020-07-28T10:49:46Z</time>
      </trkpt>
      <trkpt lat="42.9638730" lon="-0.3494930">
        <ele>1040.0</ele>
        <time>2020-07-28T10:49:47Z</time>
      </trkpt>
      <trkpt lat="42.9638300" lon="-0.3497950">
        <ele>1038.4</ele>
        <time>2020-07-28T10:49:49Z</time>
      </trkpt>
      <trkpt lat="42.9637960" lon="-0.3501110">
        <ele>1036.8</ele>
        <time>2020-07-28T10:49:51Z</time>
      </trkpt>
      <trkpt lat="42.9637670" lon="-0.3504110">
        <ele>1034.8</ele>
        <time>2020-07-28T10:49:53Z</time>
      </trkpt>
      <trkpt lat="42.9637560" lon="-0.3505450">
        <ele>1033.6</ele>
        <time>2020-07-28T10:49:54Z</time>
      </trkpt>
      <trkpt lat="42.9637380" lon="-0.3506710">
        <ele>1032.2</ele>
        <time>2020-07-28T10:49:55Z</time>
      </trkpt>
      <trkpt lat="42.9636980" lon="-0.3507940">
        <ele>1030.8</ele>
        <time>2020-07-28T10:49:56Z</time>
      </trkpt>
      <trkpt lat="42.9636460" lon="-0.3509050">
        <ele>1029.4</ele>
        <time>2020-07-28T10:49:57Z</time>
      </trkpt>
      <trkpt lat="42.9635830" lon="-0.3510120">
        <ele>1028.4</ele>
        <time>2020-07-28T10:49:58Z</time>
      </trkpt>
      <trkpt lat="42.9634630" lon="-0.3512370">
        <ele>1026.6</ele>
        <time>2020-07-28T10:50:00Z</time>
      </trkpt>
      <trkpt lat="42.9634180" lon="-0.3513610">
        <ele>1026.0</ele>
        <time>2020-07-28T10:50:01Z</time>
      </trkpt>
      <trkpt lat="42.9633880" lon="-0.3514970">
        <ele>1025.2</ele>
        <time>2020-07-28T10:50:02Z</time>
      </trkpt>
      <trkpt lat="42.9633710" lon="-0.3516430">
        <ele>1024.4</ele>
        <time>2020-07-28T10:50:03Z</time>
      </trkpt>
      <trkpt lat="42.9633680" lon="-0.3517940">
        <ele>1023.6</ele>
        <time>2020-07-28T10:50:04Z</time>
      </trkpt>
      <trkpt lat="42.9633730" lon="-0.3521090">
        <ele>1021.6</ele>
        <time>2020-07-28T10:50:06Z</time>
      </trkpt>
      <trkpt lat="42.9633940" lon="-0.3524360">
        <ele>1020.4</ele>
        <time>2020-07-28T10:50:08Z</time>
      </trkpt>
      <trkpt lat="42.9634120" lon="-0.3526010">
        <ele>1019.8</ele>
        <time>2020-07-28T10:50:09Z</time>
      </trkpt>
      <trkpt lat="42.9634430" lon="-0.3527580">
        <ele>1018.8</ele>
        <time>2020-07-28T10:50:10Z</time>
      </trkpt>
      <trkpt lat="42.9634830" lon="-0.3529100">
        <ele>1017.6</ele>
        <time>2020-07-28T10:50:11Z</time>
      </trkpt>
      <trkpt lat="42.9635350" lon="-0.3530570">
        <ele>1016.4</ele>
        <time>2020-07-28T10:50:12Z</time>
      </trkpt>
      <trkpt lat="42.9636030" lon="-0.3531850">
        <ele>1015.4</ele>
        <time>2020-07-28T10:50:13Z</time>
      </trkpt>
      <trkpt lat="42.9636810" lon="-0.3533040">
        <ele>1014.0</ele>
        <time>2020-07-28T10:50:14Z</time>
      </trkpt>
      <trkpt lat="42.9637620" lon="-0.3534190">
        <ele>1012.6</ele>
        <time>2020-07-28T10:50:15Z</time>
      </trkpt>
      <trkpt lat="42.9638440" lon="-0.3535350">
        <ele>1011.4</ele>
        <time>2020-07-28T10:50:16Z</time>
      </trkpt>
      <trkpt lat="42.9639200" lon="-0.3536670">
        <ele>1010.2</ele>
        <time>2020-07-28T10:50:17Z</time>
      </trkpt>
      <trkpt lat="42.9639840" lon="-0.3538100">
        <ele>1009.2</ele>
        <time>2020-07-28T10:50:18Z</time>
      </trkpt>
      <trkpt lat="42.9640370" lon="-0.3539600">
        <ele>1008.2</ele>
        <time>2020-07-28T10:50:19Z</time>
      </trkpt>
      <trkpt lat="42.9640880" lon="-0.3541170">
        <ele>1007.0</ele>
        <time>2020-07-28T10:50:20Z</time>
      </trkpt>
      <trkpt lat="42.9641460" lon="-0.3542700">
        <ele>1005.6</ele>
        <time>2020-07-28T10:50:21Z</time>
      </trkpt>
      <trkpt lat="42.9642180" lon="-0.3544190">
        <ele>1004.4</ele>
        <time>2020-07-28T10:50:22Z</time>
      </trkpt>
      <trkpt lat="42.9643000" lon="-0.3545610">
        <ele>1003.6</ele>
        <time>2020-07-28T10:50:23Z</time>
      </trkpt>
      <trkpt lat="42.9643870" lon="-0.3546990">
        <ele>1002.6</ele>
        <time>2020-07-28T10:50:24Z</time>
      </trkpt>
      <trkpt lat="42.9644760" lon="-0.3548380">
        <ele>1001.2</ele>
        <time>2020-07-28T10:50:25Z</time>
      </trkpt>
      <trkpt lat="42.9645710" lon="-0.3549780">
        <ele>1000.0</ele>
        <time>2020-07-28T10:50:26Z</time>
      </trkpt>
      <trkpt lat="42.9646740" lon="-0.3551080">
        <ele>998.6</ele>
        <time>2020-07-28T10:50:27Z</time>
      </trkpt>
      <trkpt lat="42.9647850" lon="-0.3552260">
        <ele>997.2</ele>
        <time>2020-07-28T10:50:28Z</time>
      </trkpt>
      <trkpt lat="42.9648980" lon="-0.3553420">
        <ele>996.0</ele>
        <time>2020-07-28T10:50:29Z</time>
      </trkpt>
      <trkpt lat="42.9650070" lon="-0.3554630">
        <ele>994.8</ele>
        <time>2020-07-28T10:50:30Z</time>
      </trkpt>
      <trkpt lat="42.9651110" lon="-0.3555880">
        <ele>993.6</ele>
        <time>2020-07-28T10:50:31Z</time>
      </trkpt>
      <trkpt lat="42.9653250" lon="-0.3558180">
        <ele>991.6</ele>
        <time>2020-07-28T10:50:33Z</time>
      </trkpt>
      <trkpt lat="42.9654300" lon="-0.3559130">
        <ele>989.8</ele>
        <time>2020-07-28T10:50:34Z</time>
      </trkpt>
      <trkpt lat="42.9655270" lon="-0.3560040">
        <ele>988.0</ele>
        <time>2020-07-28T10:50:35Z</time>
      </trkpt>
      <trkpt lat="42.9656120" lon="-0.3561020">
        <ele>986.4</ele>
        <time>2020-07-28T10:50:36Z</time>
      </trkpt>
      <trkpt lat="42.9656900" lon="-0.3562020">
        <ele>984.8</ele>
        <time>2020-07-28T10:50:37Z</time>
      </trkpt>
      <trkpt lat="42.9657640" lon="-0.3563070">
        <ele>983.4</ele>
        <time>2020-07-28T10:50:38Z</time>
      </trkpt>
      <trkpt lat="42.9658340" lon="-0.3564130">
        <ele>982.0</ele>
        <time>2020-07-28T10:50:39Z</time>
      </trkpt>
      <trkpt lat="42.9659070" lon="-0.3565340">
        <ele>981.0</ele>
        <time>2020-07-28T10:50:40Z</time>
      </trkpt>
      <trkpt lat="42.9659470" lon="-0.3567060">
        <ele>979.4</ele>
        <time>2020-07-28T10:50:42Z</time>
      </trkpt>
      <trkpt lat="42.9659880" lon="-0.3568770">
        <ele>977.8</ele>
        <time>2020-07-28T10:50:44Z</time>
      </trkpt>
      <trkpt lat="42.9660280" lon="-0.3570490">
        <ele>976.6</ele>
        <time>2020-07-28T10:50:45Z</time>
      </trkpt>
      <trkpt lat="42.9661480" lon="-0.3575650">
        <ele>975.6</ele>
        <time>2020-07-28T10:50:46Z</time>
      </trkpt>
      <trkpt lat="42.9661880" lon="-0.3577280">
        <ele>974.4</ele>
        <time>2020-07-28T10:50:47Z</time>
      </trkpt>
      <trkpt lat="42.9662220" lon="-0.3578960">
        <ele>973.2</ele>
        <time>2020-07-28T10:50:48Z</time>
      </trkpt>
      <trkpt lat="42.9662360" lon="-0.3580390">
        <ele>972.2</ele>
        <time>2020-07-28T10:50:49Z</time>
      </trkpt>
      <trkpt lat="42.9662490" lon="-0.3581810">
        <ele>970.6</ele>
        <time>2020-07-28T10:50:51Z</time>
      </trkpt>
      <trkpt lat="42.9662630" lon="-0.3583240">
        <ele>969.2</ele>
        <time>2020-07-28T10:50:53Z</time>
      </trkpt>
      <trkpt lat="42.9662760" lon="-0.3584670">
        <ele>968.2</ele>
        <time>2020-07-28T10:50:54Z</time>
      </trkpt>
      <trkpt lat="42.9663290" lon="-0.3592370">
        <ele>967.0</ele>
        <time>2020-07-28T10:50:55Z</time>
      </trkpt>
      <trkpt lat="42.9663290" lon="-0.3594360">
        <ele>966.0</ele>
        <time>2020-07-28T10:50:56Z</time>
      </trkpt>
      <trkpt lat="42.9663280" lon="-0.3596340">
        <ele>964.8</ele>
        <time>2020-07-28T10:50:57Z</time>
      </trkpt>
      <trkpt lat="42.9663370" lon="-0.3598420">
        <ele>963.2</ele>
        <time>2020-07-28T10:50:58Z</time>
      </trkpt>
      <trkpt lat="42.9663620" lon="-0.3600390">
        <ele>961.8</ele>
        <time>2020-07-28T10:50:59Z</time>
      </trkpt>
      <trkpt lat="42.9663980" lon="-0.3602370">
        <ele>960.2</ele>
        <time>2020-07-28T10:51:00Z</time>
      </trkpt>
      <trkpt lat="42.9664190" lon="-0.3604270">
        <ele>958.8</ele>
        <time>2020-07-28T10:51:01Z</time>
      </trkpt>
      <trkpt lat="42.9664390" lon="-0.3606350">
        <ele>957.4</ele>
        <time>2020-07-28T10:51:02Z</time>
      </trkpt>
      <trkpt lat="42.9664440" lon="-0.3608340">
        <ele>956.0</ele>
        <time>2020-07-28T10:51:03Z</time>
      </trkpt>
      <trkpt lat="42.9664540" lon="-0.3610290">
        <ele>955.0</ele>
        <time>2020-07-28T10:51:04Z</time>
      </trkpt>
      <trkpt lat="42.9664650" lon="-0.3612290">
        <ele>953.8</ele>
        <time>2020-07-28T10:51:05Z</time>
      </trkpt>
      <trkpt lat="42.9664860" lon="-0.3614320">
        <ele>952.6</ele>
        <time>2020-07-28T10:51:06Z</time>
      </trkpt>
      <trkpt lat="42.9665210" lon="-0.3616250">
        <ele>951.4</ele>
        <time>2020-07-28T10:51:07Z</time>
      </trkpt>
      <trkpt lat="42.9665590" lon="-0.3618170">
        <ele>950.4</ele>
        <time>2020-07-28T10:51:08Z</time>
      </trkpt>
      <trkpt lat="42.9666100" lon="-0.3619990">
        <ele>948.8</ele>
        <time>2020-07-28T10:51:09Z</time>
      </trkpt>
      <trkpt lat="42.9666630" lon="-0.3621790">
        <ele>947.0</ele>
        <time>2020-07-28T10:51:10Z</time>
      </trkpt>
      <trkpt lat="42.9667090" lon="-0.3623700">
        <ele>945.6</ele>
        <time>2020-07-28T10:51:11Z</time>
      </trkpt>
      <trkpt lat="42.9668040" lon="-0.3627470">
        <ele>943.6</ele>
        <time>2020-07-28T10:51:13Z</time>
      </trkpt>
      <trkpt lat="42.9668480" lon="-0.3629420">
        <ele>942.2</ele>
        <time>2020-07-28T10:51:14Z</time>
      </trkpt>
      <trkpt lat="42.9668860" lon="-0.3631380">
        <ele>940.6</ele>
        <time>2020-07-28T10:51:15Z</time>
      </trkpt>
      <trkpt lat="42.9669200" lon="-0.3633380">
        <ele>939.4</ele>
        <time>2020-07-28T10:51:16Z</time>
      </trkpt>
      <trkpt lat="42.9669440" lon="-0.3635290">
        <ele>938.0</ele>
        <time>2020-07-28T10:51:17Z</time>
      </trkpt>
      <trkpt lat="42.9669610" lon="-0.3637100">
        <ele>936.2</ele>
        <time>2020-07-28T10:51:18Z</time>
      </trkpt>
      <trkpt lat="42.9669740" lon="-0.3638810">
        <ele>934.4</ele>
        <time>2020-07-28T10:51:19Z</time>
      </trkpt>
      <trkpt lat="42.9669820" lon="-0.3640490">
        <ele>932.8</ele>
        <time>2020-07-28T10:51:20Z</time>
      </trkpt>
      <trkpt lat="42.9670010" lon="-0.3642100">
        <ele>931.6</ele>
        <time>2020-07-28T10:51:21Z</time>
      </trkpt>
      <trkpt lat="42.9670370" lon="-0.3643620">
        <ele>930.2</ele>
        <time>2020-07-28T10:51:22Z</time>
      </trkpt>
      <trkpt lat="42.9670810" lon="-0.3645060">
        <ele>929.0</ele>
        <time>2020-07-28T10:51:23Z</time>
      </trkpt>
      <trkpt lat="42.9671250" lon="-0.3646590">
        <ele>927.8</ele>
        <time>2020-07-28T10:51:24Z</time>
      </trkpt>
      <trkpt lat="42.9671930" lon="-0.3649810">
        <ele>926.0</ele>
        <time>2020-07-28T10:51:26Z</time>
      </trkpt>
      <trkpt lat="42.9672070" lon="-0.3651440">
        <ele>924.6</ele>
        <time>2020-07-28T10:51:27Z</time>
      </trkpt>
      <trkpt lat="42.9672170" lon="-0.3653040">
        <ele>922.8</ele>
        <time>2020-07-28T10:51:28Z</time>
      </trkpt>
      <trkpt lat="42.9672310" lon="-0.3654610">
        <ele>921.6</ele>
        <time>2020-07-28T10:51:29Z</time>
      </trkpt>
      <trkpt lat="42.9672580" lon="-0.3656180">
        <ele>921.0</ele>
        <time>2020-07-28T10:51:30Z</time>
      </trkpt>
      <trkpt lat="42.9672970" lon="-0.3657740">
        <ele>920.4</ele>
        <time>2020-07-28T10:51:31Z</time>
      </trkpt>
      <trkpt lat="42.9673500" lon="-0.3659260">
        <ele>919.6</ele>
        <time>2020-07-28T10:51:32Z</time>
      </trkpt>
      <trkpt lat="42.9674110" lon="-0.3660770">
        <ele>918.8</ele>
        <time>2020-07-28T10:51:33Z</time>
      </trkpt>
      <trkpt lat="42.9674710" lon="-0.3662310">
        <ele>917.8</ele>
        <time>2020-07-28T10:51:34Z</time>
      </trkpt>
      <trkpt lat="42.9675250" lon="-0.3663930">
        <ele>916.6</ele>
        <time>2020-07-28T10:51:35Z</time>
      </trkpt>
      <trkpt lat="42.9675730" lon="-0.3665600">
        <ele>915.0</ele>
        <time>2020-07-28T10:51:36Z</time>
      </trkpt>
      <trkpt lat="42.9676120" lon="-0.3667310">
        <ele>913.6</ele>
        <time>2020-07-28T10:51:37Z</time>
      </trkpt>
      <trkpt lat="42.9676440" lon="-0.3669060">
        <ele>912.6</ele>
        <time>2020-07-28T10:51:38Z</time>
      </trkpt>
      <trkpt lat="42.9676910" lon="-0.3672640">
        <ele>910.4</ele>
        <time>2020-07-28T10:51:40Z</time>
      </trkpt>
      <trkpt lat="42.9677080" lon="-0.3674460">
        <ele>908.8</ele>
        <time>2020-07-28T10:51:41Z</time>
      </trkpt>
      <trkpt lat="42.9677270" lon="-0.3676340">
        <ele>907.4</ele>
        <time>2020-07-28T10:51:42Z</time>
      </trkpt>
      <trkpt lat="42.9677820" lon="-0.3680060">
        <ele>905.4</ele>
        <time>2020-07-28T10:51:44Z</time>
      </trkpt>
      <trkpt lat="42.9678260" lon="-0.3681850">
        <ele>904.0</ele>
        <time>2020-07-28T10:51:45Z</time>
      </trkpt>
      <trkpt lat="42.9678850" lon="-0.3683550">
        <ele>903.0</ele>
        <time>2020-07-28T10:51:46Z</time>
      </trkpt>
      <trkpt lat="42.9680200" lon="-0.3686850">
        <ele>901.2</ele>
        <time>2020-07-28T10:51:48Z</time>
      </trkpt>
      <trkpt lat="42.9680850" lon="-0.3688540">
        <ele>899.8</ele>
        <time>2020-07-28T10:51:49Z</time>
      </trkpt>
      <trkpt lat="42.9681480" lon="-0.3690270">
        <ele>898.4</ele>
        <time>2020-07-28T10:51:50Z</time>
      </trkpt>
      <trkpt lat="42.9682020" lon="-0.3691980">
        <ele>897.0</ele>
        <time>2020-07-28T10:51:51Z</time>
      </trkpt>
      <trkpt lat="42.9682570" lon="-0.3693740">
        <ele>895.4</ele>
        <time>2020-07-28T10:51:52Z</time>
      </trkpt>
      <trkpt lat="42.9683190" lon="-0.3695370">
        <ele>893.8</ele>
        <time>2020-07-28T10:51:53Z</time>
      </trkpt>
      <trkpt lat="42.9683870" lon="-0.3696890">
        <ele>892.6</ele>
        <time>2020-07-28T10:51:54Z</time>
      </trkpt>
      <trkpt lat="42.9684680" lon="-0.3698320">
        <ele>891.4</ele>
        <time>2020-07-28T10:51:55Z</time>
      </trkpt>
      <trkpt lat="42.9685520" lon="-0.3699760">
        <ele>890.2</ele>
        <time>2020-07-28T10:51:56Z</time>
      </trkpt>
      <trkpt lat="42.9686330" lon="-0.3701190">
        <ele>889.0</ele>
        <time>2020-07-28T10:51:57Z</time>
      </trkpt>
      <trkpt lat="42.9687100" lon="-0.3702650">
        <ele>887.6</ele>
        <time>2020-07-28T10:51:58Z</time>
      </trkpt>
      <trkpt lat="42.9687810" lon="-0.3704130">
        <ele>886.4</ele>
        <time>2020-07-28T10:51:59Z</time>
      </trkpt>
      <trkpt lat="42.9688440" lon="-0.3705640">
        <ele>885.2</ele>
        <time>2020-07-28T10:52:00Z</time>
      </trkpt>
      <trkpt lat="42.9689080" lon="-0.3707160">
        <ele>883.6</ele>
        <time>2020-07-28T10:52:01Z</time>
      </trkpt>
      <trkpt lat="42.9689360" lon="-0.3708620">
        <ele>882.2</ele>
        <time>2020-07-28T10:52:02Z</time>
      </trkpt>
      <trkpt lat="42.9689440" lon="-0.3710080">
        <ele>880.8</ele>
        <time>2020-07-28T10:52:03Z</time>
      </trkpt>
      <trkpt lat="42.9689290" lon="-0.3711490">
        <ele>879.2</ele>
        <time>2020-07-28T10:52:04Z</time>
      </trkpt>
      <trkpt lat="42.9689080" lon="-0.3712860">
        <ele>878.0</ele>
        <time>2020-07-28T10:52:05Z</time>
      </trkpt>
      <trkpt lat="42.9688980" lon="-0.3714250">
        <ele>876.8</ele>
        <time>2020-07-28T10:52:06Z</time>
      </trkpt>
      <trkpt lat="42.9689030" lon="-0.3715660">
        <ele>875.8</ele>
        <time>2020-07-28T10:52:07Z</time>
      </trkpt>
      <trkpt lat="42.9689430" lon="-0.3716940">
        <ele>875.0</ele>
        <time>2020-07-28T10:52:08Z</time>
      </trkpt>
      <trkpt lat="42.9689920" lon="-0.3718180">
        <ele>874.0</ele>
        <time>2020-07-28T10:52:09Z</time>
      </trkpt>
      <trkpt lat="42.9690380" lon="-0.3719470">
        <ele>873.2</ele>
        <time>2020-07-28T10:52:10Z</time>
      </trkpt>
      <trkpt lat="42.9690720" lon="-0.3720830">
        <ele>872.2</ele>
        <time>2020-07-28T10:52:11Z</time>
      </trkpt>
      <trkpt lat="42.9690850" lon="-0.3722170">
        <ele>871.2</ele>
        <time>2020-07-28T10:52:12Z</time>
      </trkpt>
      <trkpt lat="42.9690790" lon="-0.3723430">
        <ele>869.8</ele>
        <time>2020-07-28T10:52:13Z</time>
      </trkpt>
      <trkpt lat="42.9690270" lon="-0.3724680">
        <ele>868.4</ele>
        <time>2020-07-28T10:52:14Z</time>
      </trkpt>
      <trkpt lat="42.9689590" lon="-0.3725680">
        <ele>867.2</ele>
        <time>2020-07-28T10:52:15Z</time>
      </trkpt>
      <trkpt lat="42.9688820" lon="-0.3726500">
        <ele>866.2</ele>
        <time>2020-07-28T10:52:16Z</time>
      </trkpt>
      <trkpt lat="42.9687940" lon="-0.3727070">
        <ele>865.2</ele>
        <time>2020-07-28T10:52:17Z</time>
      </trkpt>
      <trkpt lat="42.9687000" lon="-0.3727420">
        <ele>864.6</ele>
        <time>2020-07-28T10:52:18Z</time>
      </trkpt>
      <trkpt lat="42.9686020" lon="-0.3727660">
        <ele>864.0</ele>
        <time>2020-07-28T10:52:19Z</time>
      </trkpt>
      <trkpt lat="42.9685000" lon="-0.3727570">
        <ele>863.4</ele>
        <time>2020-07-28T10:52:20Z</time>
      </trkpt>
      <trkpt lat="42.9682990" lon="-0.3726570">
        <ele>861.8</ele>
        <time>2020-07-28T10:52:22Z</time>
      </trkpt>
      <trkpt lat="42.9681220" lon="-0.3724570">
        <ele>860.4</ele>
        <time>2020-07-28T10:52:24Z</time>
      </trkpt>
      <trkpt lat="42.9680370" lon="-0.3723160">
        <ele>859.6</ele>
        <time>2020-07-28T10:52:25Z</time>
      </trkpt>
      <trkpt lat="42.9679690" lon="-0.3721730">
        <ele>858.8</ele>
        <time>2020-07-28T10:52:26Z</time>
      </trkpt>
      <trkpt lat="42.9678480" lon="-0.3719160">
        <ele>857.0</ele>
        <time>2020-07-28T10:52:28Z</time>
      </trkpt>
      <trkpt lat="42.9677850" lon="-0.3718190">
        <ele>855.8</ele>
        <time>2020-07-28T10:52:29Z</time>
      </trkpt>
      <trkpt lat="42.9677080" lon="-0.3717510">
        <ele>854.4</ele>
        <time>2020-07-28T10:52:30Z</time>
      </trkpt>
      <trkpt lat="42.9676240" lon="-0.3717200">
        <ele>853.0</ele>
        <time>2020-07-28T10:52:31Z</time>
      </trkpt>
      <trkpt lat="42.9675330" lon="-0.3717260">
        <ele>851.6</ele>
        <time>2020-07-28T10:52:32Z</time>
      </trkpt>
      <trkpt lat="42.9674540" lon="-0.3717830">
        <ele>850.6</ele>
        <time>2020-07-28T10:52:33Z</time>
      </trkpt>
      <trkpt lat="42.9673990" lon="-0.3718970">
        <ele>849.8</ele>
        <time>2020-07-28T10:52:34Z</time>
      </trkpt>
      <trkpt lat="42.9673650" lon="-0.3720270">
        <ele>849.0</ele>
        <time>2020-07-28T10:52:35Z</time>
      </trkpt>
      <trkpt lat="42.9673550" lon="-0.3721710">
        <ele>848.2</ele>
        <time>2020-07-28T10:52:36Z</time>
      </trkpt>
      <trkpt lat="42.9673620" lon="-0.3723160">
        <ele>847.2</ele>
        <time>2020-07-28T10:52:37Z</time>
      </trkpt>
      <trkpt lat="42.9673770" lon="-0.3724630">
        <ele>846.4</ele>
        <time>2020-07-28T10:52:38Z</time>
      </trkpt>
      <trkpt lat="42.9674240" lon="-0.3728980">
        <ele>845.2</ele>
        <time>2020-07-28T10:52:41Z</time>
      </trkpt>
      <trkpt lat="42.9674560" lon="-0.3731780">
        <ele>844.0</ele>
        <time>2020-07-28T10:52:43Z</time>
      </trkpt>
      <trkpt lat="42.9674830" lon="-0.3734520">
        <ele>843.0</ele>
        <time>2020-07-28T10:52:45Z</time>
      </trkpt>
      <trkpt lat="42.9674920" lon="-0.3737260">
        <ele>840.8</ele>
        <time>2020-07-28T10:52:47Z</time>
      </trkpt>
      <trkpt lat="42.9674900" lon="-0.3740140">
        <ele>838.8</ele>
        <time>2020-07-28T10:52:49Z</time>
      </trkpt>
      <trkpt lat="42.9674890" lon="-0.3741550">
        <ele>837.0</ele>
        <time>2020-07-28T10:52:50Z</time>
      </trkpt>
      <trkpt lat="42.9674970" lon="-0.3742960">
        <ele>835.2</ele>
        <time>2020-07-28T10:52:51Z</time>
      </trkpt>
      <trkpt lat="42.9675110" lon="-0.3744350">
        <ele>833.8</ele>
        <time>2020-07-28T10:52:52Z</time>
      </trkpt>
      <trkpt lat="42.9675340" lon="-0.3745780">
        <ele>832.8</ele>
        <time>2020-07-28T10:52:53Z</time>
      </trkpt>
      <trkpt lat="42.9675600" lon="-0.3747290">
        <ele>831.6</ele>
        <time>2020-07-28T10:52:54Z</time>
      </trkpt>
      <trkpt lat="42.9675840" lon="-0.3748800">
        <ele>830.2</ele>
        <time>2020-07-28T10:52:55Z</time>
      </trkpt>
      <trkpt lat="42.9676010" lon="-0.3750270">
        <ele>828.6</ele>
        <time>2020-07-28T10:52:56Z</time>
      </trkpt>
      <trkpt lat="42.9676180" lon="-0.3751710">
        <ele>827.0</ele>
        <time>2020-07-28T10:52:57Z</time>
      </trkpt>
      <trkpt lat="42.9676410" lon="-0.3753070">
        <ele>825.6</ele>
        <time>2020-07-28T10:52:58Z</time>
      </trkpt>
      <trkpt lat="42.9676830" lon="-0.3754260">
        <ele>824.2</ele>
        <time>2020-07-28T10:52:59Z</time>
      </trkpt>
      <trkpt lat="42.9677440" lon="-0.3755270">
        <ele>822.6</ele>
        <time>2020-07-28T10:53:00Z</time>
      </trkpt>
      <trkpt lat="42.9678170" lon="-0.3756130">
        <ele>821.2</ele>
        <time>2020-07-28T10:53:01Z</time>
      </trkpt>
      <trkpt lat="42.9678870" lon="-0.3756900">
        <ele>820.2</ele>
        <time>2020-07-28T10:53:02Z</time>
      </trkpt>
      <trkpt lat="42.9679450" lon="-0.3757700">
        <ele>819.4</ele>
        <time>2020-07-28T10:53:03Z</time>
      </trkpt>
      <trkpt lat="42.9679870" lon="-0.3758530">
        <ele>818.4</ele>
        <time>2020-07-28T10:53:04Z</time>
      </trkpt>
      <trkpt lat="42.9680100" lon="-0.3759390">
        <ele>817.2</ele>
        <time>2020-07-28T10:53:05Z</time>
      </trkpt>
      <trkpt lat="42.9679350" lon="-0.3760860">
        <ele>815.8</ele>
        <time>2020-07-28T10:53:07Z</time>
      </trkpt>
      <trkpt lat="42.9678740" lon="-0.3761550">
        <ele>815.6</ele>
        <time>2020-07-28T10:53:08Z</time>
      </trkpt>
      <trkpt lat="42.9677430" lon="-0.3762870">
        <ele>814.4</ele>
        <time>2020-07-28T10:53:10Z</time>
      </trkpt>
      <trkpt lat="42.9676160" lon="-0.3764180">
        <ele>813.2</ele>
        <time>2020-07-28T10:53:12Z</time>
      </trkpt>
      <trkpt lat="42.9675630" lon="-0.3764950">
        <ele>812.8</ele>
        <time>2020-07-28T10:53:13Z</time>
      </trkpt>
      <trkpt lat="42.9675140" lon="-0.3766950">
        <ele>812.0</ele>
        <time>2020-07-28T10:53:15Z</time>
      </trkpt>
      <trkpt lat="42.9675360" lon="-0.3769100">
        <ele>811.4</ele>
        <time>2020-07-28T10:53:17Z</time>
      </trkpt>
      <trkpt lat="42.9675830" lon="-0.3769980">
        <ele>811.2</ele>
        <time>2020-07-28T10:53:18Z</time>
      </trkpt>
      <trkpt lat="42.9676350" lon="-0.3770850">
        <ele>811.0</ele>
        <time>2020-07-28T10:53:19Z</time>
      </trkpt>
      <trkpt lat="42.9676980" lon="-0.3771620">
        <ele>810.8</ele>
        <time>2020-07-28T10:53:20Z</time>
      </trkpt>
      <trkpt lat="42.9677590" lon="-0.3772390">
        <ele>810.4</ele>
        <time>2020-07-28T10:53:21Z</time>
      </trkpt>
      <trkpt lat="42.9678180" lon="-0.3773160">
        <ele>810.2</ele>
        <time>2020-07-28T10:53:22Z</time>
      </trkpt>
      <trkpt lat="42.9678660" lon="-0.3774030">
        <ele>810.0</ele>
        <time>2020-07-28T10:53:23Z</time>
      </trkpt>
      <trkpt lat="42.9679060" lon="-0.3775070">
        <ele>809.6</ele>
        <time>2020-07-28T10:53:24Z</time>
      </trkpt>
      <trkpt lat="42.9679320" lon="-0.3776190">
        <ele>809.2</ele>
        <time>2020-07-28T10:53:25Z</time>
      </trkpt>
      <trkpt lat="42.9679460" lon="-0.3777390">
        <ele>808.6</ele>
        <time>2020-07-28T10:53:26Z</time>
      </trkpt>
      <trkpt lat="42.9679580" lon="-0.3778570">
        <ele>808.4</ele>
        <time>2020-07-28T10:53:27Z</time>
      </trkpt>
      <trkpt lat="42.9679930" lon="-0.3780950">
        <ele>808.0</ele>
        <time>2020-07-28T10:53:29Z</time>
      </trkpt>
      <trkpt lat="42.9680280" lon="-0.3782090">
        <ele>807.8</ele>
        <time>2020-07-28T10:53:30Z</time>
      </trkpt>
      <trkpt lat="42.9680690" lon="-0.3783210">
        <ele>807.2</ele>
        <time>2020-07-28T10:53:31Z</time>
      </trkpt>
      <trkpt lat="42.9681430" lon="-0.3785520">
        <ele>806.4</ele>
        <time>2020-07-28T10:53:33Z</time>
      </trkpt>
      <trkpt lat="42.9681650" lon="-0.3786830">
        <ele>806.0</ele>
        <time>2020-07-28T10:53:34Z</time>
      </trkpt>
      <trkpt lat="42.9681730" lon="-0.3790700">
        <ele>805.0</ele>
        <time>2020-07-28T10:53:37Z</time>
      </trkpt>
      <trkpt lat="42.9681910" lon="-0.3793090">
        <ele>804.6</ele>
        <time>2020-07-28T10:53:39Z</time>
      </trkpt>
      <trkpt lat="42.9683180" lon="-0.3794340">
        <ele>804.2</ele>
        <time>2020-07-28T10:53:41Z</time>
      </trkpt>
      <trkpt lat="42.9684190" lon="-0.3794500">
        <ele>804.0</ele>
        <time>2020-07-28T10:53:42Z</time>
      </trkpt>
      <trkpt lat="42.9685010" lon="-0.3794670">
        <ele>803.6</ele>
        <time>2020-07-28T10:53:43Z</time>
      </trkpt>
      <trkpt lat="42.9686510" lon="-0.3795290">
        <ele>803.0</ele>
        <time>2020-07-28T10:53:45Z</time>
      </trkpt>
      <trkpt lat="42.9687210" lon="-0.3795910">
        <ele>802.8</ele>
        <time>2020-07-28T10:53:46Z</time>
      </trkpt>
      <trkpt lat="42.9687820" lon="-0.3796740">
        <ele>802.6</ele>
        <time>2020-07-28T10:53:47Z</time>
      </trkpt>
      <trkpt lat="42.9688530" lon="-0.3798860">
        <ele>802.0</ele>
        <time>2020-07-28T10:53:49Z</time>
      </trkpt>
      <trkpt lat="42.9688520" lon="-0.3800030">
        <ele>801.6</ele>
        <time>2020-07-28T10:53:50Z</time>
      </trkpt>
      <trkpt lat="42.9688360" lon="-0.3801100">
        <ele>801.4</ele>
        <time>2020-07-28T10:53:51Z</time>
      </trkpt>
      <trkpt lat="42.9686970" lon="-0.3803230">
        <ele>800.8</ele>
        <time>2020-07-28T10:53:53Z</time>
      </trkpt>
      <trkpt lat="42.9686400" lon="-0.3804160">
        <ele>800.6</ele>
        <time>2020-07-28T10:53:54Z</time>
      </trkpt>
      <trkpt lat="42.9686070" lon="-0.3805150">
        <ele>800.2</ele>
        <time>2020-07-28T10:53:55Z</time>
      </trkpt>
      <trkpt lat="42.9686010" lon="-0.3806200">
        <ele>800.2</ele>
        <time>2020-07-28T10:53:56Z</time>
      </trkpt>
      <trkpt lat="42.9686180" lon="-0.3807180">
        <ele>800.0</ele>
        <time>2020-07-28T10:53:57Z</time>
      </trkpt>
      <trkpt lat="42.9687080" lon="-0.3808820">
        <ele>799.6</ele>
        <time>2020-07-28T10:53:59Z</time>
      </trkpt>
      <trkpt lat="42.9688010" lon="-0.3809330">
        <ele>799.4</ele>
        <time>2020-07-28T10:54:00Z</time>
      </trkpt>
      <trkpt lat="42.9688910" lon="-0.3809510">
        <ele>799.0</ele>
        <time>2020-07-28T10:54:01Z</time>
      </trkpt>
      <trkpt lat="42.9689870" lon="-0.3809550">
        <ele>798.4</ele>
        <time>2020-07-28T10:54:02Z</time>
      </trkpt>
      <trkpt lat="42.9691920" lon="-0.3809360">
        <ele>796.8</ele>
        <time>2020-07-28T10:54:04Z</time>
      </trkpt>
      <trkpt lat="42.9692860" lon="-0.3809590">
        <ele>796.2</ele>
        <time>2020-07-28T10:54:05Z</time>
      </trkpt>
      <trkpt lat="42.9693580" lon="-0.3810300">
        <ele>795.8</ele>
        <time>2020-07-28T10:54:06Z</time>
      </trkpt>
      <trkpt lat="42.9694210" lon="-0.3811200">
        <ele>795.4</ele>
        <time>2020-07-28T10:54:07Z</time>
      </trkpt>
      <trkpt lat="42.9695480" lon="-0.3813090">
        <ele>794.4</ele>
        <time>2020-07-28T10:54:09Z</time>
      </trkpt>
      <trkpt lat="42.9696250" lon="-0.3813810">
        <ele>794.0</ele>
        <time>2020-07-28T10:54:10Z</time>
      </trkpt>
      <trkpt lat="42.9697620" lon="-0.3815360">
        <ele>793.2</ele>
        <time>2020-07-28T10:54:12Z</time>
      </trkpt>
      <trkpt lat="42.9698100" lon="-0.3816360">
        <ele>792.8</ele>
        <time>2020-07-28T10:54:13Z</time>
      </trkpt>
      <trkpt lat="42.9698420" lon="-0.3818900">
        <ele>792.4</ele>
        <time>2020-07-28T10:54:15Z</time>
      </trkpt>
      <trkpt lat="42.9698560" lon="-0.3820260">
        <ele>792.2</ele>
        <time>2020-07-28T10:54:16Z</time>
      </trkpt>
      <trkpt lat="42.9698660" lon="-0.3822830">
        <ele>791.6</ele>
        <time>2020-07-28T10:54:18Z</time>
      </trkpt>
      <trkpt lat="42.9698980" lon="-0.3824810">
        <ele>791.2</ele>
        <time>2020-07-28T10:54:20Z</time>
      </trkpt>
      <trkpt lat="42.9699840" lon="-0.3825040">
        <ele>791.0</ele>
        <time>2020-07-28T10:54:22Z</time>
      </trkpt>
      <trkpt lat="42.9700100" lon="-0.3823910">
        <ele>790.6</ele>
        <time>2020-07-28T10:54:24Z</time>
      </trkpt>
      <trkpt lat="42.9699920" lon="-0.3823050">
        <ele>790.0</ele>
        <time>2020-07-28T10:54:25Z</time>
      </trkpt>
      <trkpt lat="42.9699580" lon="-0.3821050">
        <ele>788.8</ele>
        <time>2020-07-28T10:54:27Z</time>
      </trkpt>
      <trkpt lat="42.9699360" lon="-0.3817600">
        <ele>787.0</ele>
        <time>2020-07-28T10:54:30Z</time>
      </trkpt>
      <trkpt lat="42.9698890" lon="-0.3815390">
        <ele>786.0</ele>
        <time>2020-07-28T10:54:32Z</time>
      </trkpt>
      <trkpt lat="42.9697530" lon="-0.3812010">
        <ele>785.0</ele>
        <time>2020-07-28T10:54:35Z</time>
      </trkpt>
      <trkpt lat="42.9697090" lon="-0.3810750">
        <ele>784.4</ele>
        <time>2020-07-28T10:54:36Z</time>
      </trkpt>
      <trkpt lat="42.9696740" lon="-0.3809420">
        <ele>784.0</ele>
        <time>2020-07-28T10:54:37Z</time>
      </trkpt>
      <trkpt lat="42.9696560" lon="-0.3808150">
        <ele>783.4</ele>
        <time>2020-07-28T10:54:38Z</time>
      </trkpt>
      <trkpt lat="42.9696520" lon="-0.3807100">
        <ele>782.4</ele>
        <time>2020-07-28T10:54:39Z</time>
      </trkpt>
      <trkpt lat="42.9696640" lon="-0.3806300">
        <ele>781.8</ele>
        <time>2020-07-28T10:54:40Z</time>
      </trkpt>
      <trkpt lat="42.9696840" lon="-0.3805770">
        <ele>781.4</ele>
        <time>2020-07-28T10:54:41Z</time>
      </trkpt>
      <trkpt lat="42.9697160" lon="-0.3805490">
        <ele>781.0</ele>
        <time>2020-07-28T10:54:42Z</time>
      </trkpt>
      <trkpt lat="42.9697680" lon="-0.3805790">
        <ele>780.8</ele>
        <time>2020-07-28T10:54:44Z</time>
      </trkpt>
      <trkpt lat="42.9698220" lon="-0.3806450">
        <ele>780.6</ele>
        <time>2020-07-28T10:54:45Z</time>
      </trkpt>
      <trkpt lat="42.9698680" lon="-0.3807110">
        <ele>780.4</ele>
        <time>2020-07-28T10:54:46Z</time>
      </trkpt>
      <trkpt lat="42.9699650" lon="-0.3808530">
        <ele>779.8</ele>
        <time>2020-07-28T10:54:48Z</time>
      </trkpt>
      <trkpt lat="42.9700000" lon="-0.3809350">
        <ele>779.6</ele>
        <time>2020-07-28T10:54:49Z</time>
      </trkpt>
      <trkpt lat="42.9700290" lon="-0.3810240">
        <ele>778.8</ele>
        <time>2020-07-28T10:54:50Z</time>
      </trkpt>
      <trkpt lat="42.9700530" lon="-0.3811250">
        <ele>778.0</ele>
        <time>2020-07-28T10:54:51Z</time>
      </trkpt>
      <trkpt lat="42.9701120" lon="-0.3813620">
        <ele>776.2</ele>
        <time>2020-07-28T10:54:53Z</time>
      </trkpt>
      <trkpt lat="42.9701450" lon="-0.3814840">
        <ele>775.6</ele>
        <time>2020-07-28T10:54:54Z</time>
      </trkpt>
      <trkpt lat="42.9701730" lon="-0.3816100">
        <ele>775.0</ele>
        <time>2020-07-28T10:54:55Z</time>
      </trkpt>
      <trkpt lat="42.9702050" lon="-0.3817430">
        <ele>773.8</ele>
        <time>2020-07-28T10:54:56Z</time>
      </trkpt>
      <trkpt lat="42.9702420" lon="-0.3818850">
        <ele>772.2</ele>
        <time>2020-07-28T10:54:57Z</time>
      </trkpt>
      <trkpt lat="42.9702830" lon="-0.3820220">
        <ele>771.0</ele>
        <time>2020-07-28T10:54:58Z</time>
      </trkpt>
      <trkpt lat="42.9703360" lon="-0.3821500">
        <ele>770.2</ele>
        <time>2020-07-28T10:54:59Z</time>
      </trkpt>
      <trkpt lat="42.9704240" lon="-0.3822580">
        <ele>769.6</ele>
        <time>2020-07-28T10:55:00Z</time>
      </trkpt>
      <trkpt lat="42.9706150" lon="-0.3824130">
        <ele>767.8</ele>
        <time>2020-07-28T10:55:02Z</time>
      </trkpt>
      <trkpt lat="42.9707280" lon="-0.3824710">
        <ele>766.8</ele>
        <time>2020-07-28T10:55:03Z</time>
      </trkpt>
      <trkpt lat="42.9709210" lon="-0.3826150">
        <ele>765.0</ele>
        <time>2020-07-28T10:55:05Z</time>
      </trkpt>
      <trkpt lat="42.9710080" lon="-0.3826950">
        <ele>764.2</ele>
        <time>2020-07-28T10:55:06Z</time>
      </trkpt>
      <trkpt lat="42.9710870" lon="-0.3827910">
        <ele>763.4</ele>
        <time>2020-07-28T10:55:07Z</time>
      </trkpt>
      <trkpt lat="42.9711730" lon="-0.3830460">
        <ele>761.8</ele>
        <time>2020-07-28T10:55:09Z</time>
      </trkpt>
      <trkpt lat="42.9712640" lon="-0.3833210">
        <ele>760.6</ele>
        <time>2020-07-28T10:55:11Z</time>
      </trkpt>
      <trkpt lat="42.9713610" lon="-0.3836100">
        <ele>759.2</ele>
        <time>2020-07-28T10:55:13Z</time>
      </trkpt>
      <trkpt lat="42.9714180" lon="-0.3837540">
        <ele>758.4</ele>
        <time>2020-07-28T10:55:14Z</time>
      </trkpt>
      <trkpt lat="42.9714720" lon="-0.3839040">
        <ele>757.6</ele>
        <time>2020-07-28T10:55:15Z</time>
      </trkpt>
      <trkpt lat="42.9715270" lon="-0.3840500">
        <ele>756.8</ele>
        <time>2020-07-28T10:55:16Z</time>
      </trkpt>
      <trkpt lat="42.9715860" lon="-0.3841980">
        <ele>756.0</ele>
        <time>2020-07-28T10:55:17Z</time>
      </trkpt>
      <trkpt lat="42.9716490" lon="-0.3843440">
        <ele>755.4</ele>
        <time>2020-07-28T10:55:18Z</time>
      </trkpt>
      <trkpt lat="42.9717090" lon="-0.3844960">
        <ele>754.6</ele>
        <time>2020-07-28T10:55:19Z</time>
      </trkpt>
      <trkpt lat="42.9717660" lon="-0.3846510">
        <ele>753.8</ele>
        <time>2020-07-28T10:55:20Z</time>
      </trkpt>
      <trkpt lat="42.9718160" lon="-0.3848140">
        <ele>752.8</ele>
        <time>2020-07-28T10:55:21Z</time>
      </trkpt>
      <trkpt lat="42.9718490" lon="-0.3849800">
        <ele>751.4</ele>
        <time>2020-07-28T10:55:22Z</time>
      </trkpt>
      <trkpt lat="42.9718620" lon="-0.3851400">
        <ele>750.0</ele>
        <time>2020-07-28T10:55:23Z</time>
      </trkpt>
      <trkpt lat="42.9718630" lon="-0.3853030">
        <ele>748.8</ele>
        <time>2020-07-28T10:55:24Z</time>
      </trkpt>
      <trkpt lat="42.9718500" lon="-0.3854600">
        <ele>747.6</ele>
        <time>2020-07-28T10:55:25Z</time>
      </trkpt>
      <trkpt lat="42.9718250" lon="-0.3856210">
        <ele>746.8</ele>
        <time>2020-07-28T10:55:26Z</time>
      </trkpt>
      <trkpt lat="42.9717960" lon="-0.3857800">
        <ele>746.0</ele>
        <time>2020-07-28T10:55:27Z</time>
      </trkpt>
      <trkpt lat="42.9717400" lon="-0.3860940">
        <ele>744.2</ele>
        <time>2020-07-28T10:55:29Z</time>
      </trkpt>
      <trkpt lat="42.9717200" lon="-0.3862560">
        <ele>743.0</ele>
        <time>2020-07-28T10:55:30Z</time>
      </trkpt>
      <trkpt lat="42.9717140" lon="-0.3864210">
        <ele>742.2</ele>
        <time>2020-07-28T10:55:31Z</time>
      </trkpt>
      <trkpt lat="42.9717240" lon="-0.3865780">
        <ele>741.6</ele>
        <time>2020-07-28T10:55:32Z</time>
      </trkpt>
      <trkpt lat="42.9717530" lon="-0.3867270">
        <ele>741.0</ele>
        <time>2020-07-28T10:55:33Z</time>
      </trkpt>
      <trkpt lat="42.9717820" lon="-0.3868810">
        <ele>740.2</ele>
        <time>2020-07-28T10:55:34Z</time>
      </trkpt>
      <trkpt lat="42.9718600" lon="-0.3871990">
        <ele>738.2</ele>
        <time>2020-07-28T10:55:36Z</time>
      </trkpt>
      <trkpt lat="42.9719110" lon="-0.3873570">
        <ele>737.0</ele>
        <time>2020-07-28T10:55:37Z</time>
      </trkpt>
      <trkpt lat="42.9719580" lon="-0.3875140">
        <ele>736.0</ele>
        <time>2020-07-28T10:55:38Z</time>
      </trkpt>
      <trkpt lat="42.9720090" lon="-0.3876710">
        <ele>735.0</ele>
        <time>2020-07-28T10:55:39Z</time>
      </trkpt>
      <trkpt lat="42.9720590" lon="-0.3878340">
        <ele>733.8</ele>
        <time>2020-07-28T10:55:40Z</time>
      </trkpt>
      <trkpt lat="42.9721080" lon="-0.3879970">
        <ele>732.8</ele>
        <time>2020-07-28T10:55:41Z</time>
      </trkpt>
      <trkpt lat="42.9721860" lon="-0.3883270">
        <ele>731.2</ele>
        <time>2020-07-28T10:55:43Z</time>
      </trkpt>
      <trkpt lat="42.9723060" lon="-0.3886400">
        <ele>729.0</ele>
        <time>2020-07-28T10:55:45Z</time>
      </trkpt>
      <trkpt lat="42.9723820" lon="-0.3887900">
        <ele>727.8</ele>
        <time>2020-07-28T10:55:46Z</time>
      </trkpt>
      <trkpt lat="42.9724630" lon="-0.3889370">
        <ele>726.6</ele>
        <time>2020-07-28T10:55:47Z</time>
      </trkpt>
      <trkpt lat="42.9725350" lon="-0.3890920">
        <ele>725.4</ele>
        <time>2020-07-28T10:55:48Z</time>
      </trkpt>
      <trkpt lat="42.9725770" lon="-0.3892630">
        <ele>724.4</ele>
        <time>2020-07-28T10:55:49Z</time>
      </trkpt>
      <trkpt lat="42.9726250" lon="-0.3894340">
        <ele>723.2</ele>
        <time>2020-07-28T10:55:50Z</time>
      </trkpt>
      <trkpt lat="42.9726660" lon="-0.3896100">
        <ele>722.0</ele>
        <time>2020-07-28T10:55:51Z</time>
      </trkpt>
      <trkpt lat="42.9727170" lon="-0.3897820">
        <ele>720.6</ele>
        <time>2020-07-28T10:55:52Z</time>
      </trkpt>
      <trkpt lat="42.9727620" lon="-0.3899590">
        <ele>719.4</ele>
        <time>2020-07-28T10:55:53Z</time>
      </trkpt>
      <trkpt lat="42.9727970" lon="-0.3901350">
        <ele>718.0</ele>
        <time>2020-07-28T10:55:54Z</time>
      </trkpt>
      <trkpt lat="42.9728490" lon="-0.3903040">
        <ele>716.8</ele>
        <time>2020-07-28T10:55:55Z</time>
      </trkpt>
      <trkpt lat="42.9728970" lon="-0.3904630">
        <ele>715.8</ele>
        <time>2020-07-28T10:55:56Z</time>
      </trkpt>
      <trkpt lat="42.9729470" lon="-0.3906030">
        <ele>714.6</ele>
        <time>2020-07-28T10:55:57Z</time>
      </trkpt>
      <trkpt lat="42.9730010" lon="-0.3907230">
        <ele>714.0</ele>
        <time>2020-07-28T10:55:58Z</time>
      </trkpt>
      <trkpt lat="42.9730530" lon="-0.3908310">
        <ele>713.4</ele>
        <time>2020-07-28T10:55:59Z</time>
      </trkpt>
      <trkpt lat="42.9731470" lon="-0.3910120">
        <ele>711.8</ele>
        <time>2020-07-28T10:56:01Z</time>
      </trkpt>
      <trkpt lat="42.9731810" lon="-0.3910860">
        <ele>710.8</ele>
        <time>2020-07-28T10:56:02Z</time>
      </trkpt>
      <trkpt lat="42.9732110" lon="-0.3911520">
        <ele>710.2</ele>
        <time>2020-07-28T10:56:03Z</time>
      </trkpt>
      <trkpt lat="42.9732290" lon="-0.3912160">
        <ele>709.8</ele>
        <time>2020-07-28T10:56:04Z</time>
      </trkpt>
      <trkpt lat="42.9732380" lon="-0.3913370">
        <ele>709.6</ele>
        <time>2020-07-28T10:56:06Z</time>
      </trkpt>
      <trkpt lat="42.9731740" lon="-0.3915550">
        <ele>709.2</ele>
        <time>2020-07-28T10:56:10Z</time>
      </trkpt>
      <trkpt lat="42.9730800" lon="-0.3916500">
        <ele>708.4</ele>
        <time>2020-07-28T10:56:12Z</time>
      </trkpt>
      <trkpt lat="42.9730350" lon="-0.3916900">
        <ele>708.0</ele>
        <time>2020-07-28T10:56:13Z</time>
      </trkpt>
      <trkpt lat="42.9729880" lon="-0.3917250">
        <ele>707.6</ele>
        <time>2020-07-28T10:56:14Z</time>
      </trkpt>
      <trkpt lat="42.9729230" lon="-0.3917810">
        <ele>706.8</ele>
        <time>2020-07-28T10:56:16Z</time>
      </trkpt>
      <trkpt lat="42.9728510" lon="-0.3918490">
        <ele>706.2</ele>
        <time>2020-07-28T10:56:19Z</time>
      </trkpt>
      <trkpt lat="42.9728050" lon="-0.3918990">
        <ele>705.6</ele>
        <time>2020-07-28T10:56:21Z</time>
      </trkpt>
      <trkpt lat="42.9728000" lon="-0.3919470">
        <ele>705.2</ele>
        <time>2020-07-28T10:56:22Z</time>
      </trkpt>
      <trkpt lat="42.9728210" lon="-0.3919960">
        <ele>705.0</ele>
        <time>2020-07-28T10:56:23Z</time>
      </trkpt>
      <trkpt lat="42.9728410" lon="-0.3920530">
        <ele>704.8</ele>
        <time>2020-07-28T10:56:24Z</time>
      </trkpt>
      <trkpt lat="42.9728690" lon="-0.3921210">
        <ele>704.2</ele>
        <time>2020-07-28T10:56:25Z</time>
      </trkpt>
      <trkpt lat="42.9729050" lon="-0.3921870">
        <ele>703.8</ele>
        <time>2020-07-28T10:56:26Z</time>
      </trkpt>
      <trkpt lat="42.9729420" lon="-0.3922530">
        <ele>703.0</ele>
        <time>2020-07-28T10:56:27Z</time>
      </trkpt>
      <trkpt lat="42.9730310" lon="-0.3923820">
        <ele>701.6</ele>
        <time>2020-07-28T10:56:29Z</time>
      </trkpt>
      <trkpt lat="42.9731190" lon="-0.3925350">
        <ele>700.2</ele>
        <time>2020-07-28T10:56:31Z</time>
      </trkpt>
      <trkpt lat="42.9731610" lon="-0.3926180">
        <ele>699.4</ele>
        <time>2020-07-28T10:56:32Z</time>
      </trkpt>
      <trkpt lat="42.9732090" lon="-0.3927060">
        <ele>698.8</ele>
        <time>2020-07-28T10:56:33Z</time>
      </trkpt>
      <trkpt lat="42.9733160" lon="-0.3928800">
        <ele>697.4</ele>
        <time>2020-07-28T10:56:35Z</time>
      </trkpt>
      <trkpt lat="42.9733660" lon="-0.3929670">
        <ele>696.8</ele>
        <time>2020-07-28T10:56:36Z</time>
      </trkpt>
      <trkpt lat="42.9734150" lon="-0.3930610">
        <ele>696.0</ele>
        <time>2020-07-28T10:56:37Z</time>
      </trkpt>
      <trkpt lat="42.9734670" lon="-0.3931520">
        <ele>695.2</ele>
        <time>2020-07-28T10:56:38Z</time>
      </trkpt>
      <trkpt lat="42.9735250" lon="-0.3932410">
        <ele>694.4</ele>
        <time>2020-07-28T10:56:39Z</time>
      </trkpt>
      <trkpt lat="42.9736330" lon="-0.3934160">
        <ele>692.8</ele>
        <time>2020-07-28T10:56:41Z</time>
      </trkpt>
      <trkpt lat="42.9737410" lon="-0.3935870">
        <ele>691.4</ele>
        <time>2020-07-28T10:56:43Z</time>
      </trkpt>
      <trkpt lat="42.9737980" lon="-0.3936640">
        <ele>690.6</ele>
        <time>2020-07-28T10:56:44Z</time>
      </trkpt>
      <trkpt lat="42.9738490" lon="-0.3937460">
        <ele>690.0</ele>
        <time>2020-07-28T10:56:45Z</time>
      </trkpt>
      <trkpt lat="42.9739360" lon="-0.3939180">
        <ele>688.8</ele>
        <time>2020-07-28T10:56:47Z</time>
      </trkpt>
      <trkpt lat="42.9739710" lon="-0.3940120">
        <ele>688.2</ele>
        <time>2020-07-28T10:56:48Z</time>
      </trkpt>
      <trkpt lat="42.9739930" lon="-0.3941210">
        <ele>687.8</ele>
        <time>2020-07-28T10:56:49Z</time>
      </trkpt>
      <trkpt lat="42.9740030" lon="-0.3942360">
        <ele>687.4</ele>
        <time>2020-07-28T10:56:50Z</time>
      </trkpt>
      <trkpt lat="42.9740160" lon="-0.3944840">
        <ele>686.4</ele>
        <time>2020-07-28T10:56:52Z</time>
      </trkpt>
      <trkpt lat="42.9740250" lon="-0.3947510">
        <ele>685.0</ele>
        <time>2020-07-28T10:56:54Z</time>
      </trkpt>
      <trkpt lat="42.9740510" lon="-0.3950180">
        <ele>684.2</ele>
        <time>2020-07-28T10:56:56Z</time>
      </trkpt>
      <trkpt lat="42.9740740" lon="-0.3951480">
        <ele>683.8</ele>
        <time>2020-07-28T10:56:57Z</time>
      </trkpt>
      <trkpt lat="42.9741300" lon="-0.3953880">
        <ele>682.4</ele>
        <time>2020-07-28T10:56:59Z</time>
      </trkpt>
      <trkpt lat="42.9741520" lon="-0.3956230">
        <ele>681.6</ele>
        <time>2020-07-28T10:57:01Z</time>
      </trkpt>
      <trkpt lat="42.9741340" lon="-0.3957420">
        <ele>681.2</ele>
        <time>2020-07-28T10:57:02Z</time>
      </trkpt>
      <trkpt lat="42.9740990" lon="-0.3958580">
        <ele>680.6</ele>
        <time>2020-07-28T10:57:03Z</time>
      </trkpt>
      <trkpt lat="42.9740610" lon="-0.3959710">
        <ele>680.2</ele>
        <time>2020-07-28T10:57:04Z</time>
      </trkpt>
      <trkpt lat="42.9740260" lon="-0.3960880">
        <ele>680.0</ele>
        <time>2020-07-28T10:57:05Z</time>
      </trkpt>
      <trkpt lat="42.9740030" lon="-0.3962070">
        <ele>679.6</ele>
        <time>2020-07-28T10:57:06Z</time>
      </trkpt>
      <trkpt lat="42.9739800" lon="-0.3964450">
        <ele>678.8</ele>
        <time>2020-07-28T10:57:08Z</time>
      </trkpt>
      <trkpt lat="42.9739560" lon="-0.3966710">
        <ele>677.8</ele>
        <time>2020-07-28T10:57:10Z</time>
      </trkpt>
      <trkpt lat="42.9739110" lon="-0.3968700">
        <ele>676.8</ele>
        <time>2020-07-28T10:57:12Z</time>
      </trkpt>
      <trkpt lat="42.9738790" lon="-0.3969580">
        <ele>676.4</ele>
        <time>2020-07-28T10:57:13Z</time>
      </trkpt>
      <trkpt lat="42.9738240" lon="-0.3971860">
        <ele>675.8</ele>
        <time>2020-07-28T10:57:16Z</time>
      </trkpt>
      <trkpt lat="42.9738280" lon="-0.3973330">
        <ele>675.6</ele>
        <time>2020-07-28T10:57:18Z</time>
      </trkpt>
      <trkpt lat="42.9738400" lon="-0.3974080">
        <ele>675.4</ele>
        <time>2020-07-28T10:57:19Z</time>
      </trkpt>
      <trkpt lat="42.9738580" lon="-0.3974780">
        <ele>675.0</ele>
        <time>2020-07-28T10:57:20Z</time>
      </trkpt>
      <trkpt lat="42.9739260" lon="-0.3976100">
        <ele>674.2</ele>
        <time>2020-07-28T10:57:22Z</time>
      </trkpt>
      <trkpt lat="42.9739720" lon="-0.3976680">
        <ele>673.8</ele>
        <time>2020-07-28T10:57:23Z</time>
      </trkpt>
      <trkpt lat="42.9740790" lon="-0.3977780">
        <ele>673.0</ele>
        <time>2020-07-28T10:57:25Z</time>
      </trkpt>
      <trkpt lat="42.9742250" lon="-0.3979460">
        <ele>671.8</ele>
        <time>2020-07-28T10:57:28Z</time>
      </trkpt>
      <trkpt lat="42.9742490" lon="-0.3980300">
        <ele>671.4</ele>
        <time>2020-07-28T10:57:29Z</time>
      </trkpt>
      <trkpt lat="42.9742970" lon="-0.3983130">
        <ele>670.4</ele>
        <time>2020-07-28T10:57:32Z</time>
      </trkpt>
      <trkpt lat="42.9743110" lon="-0.3984220">
        <ele>669.8</ele>
        <time>2020-07-28T10:57:33Z</time>
      </trkpt>
      <trkpt lat="42.9743250" lon="-0.3985240">
        <ele>669.4</ele>
        <time>2020-07-28T10:57:34Z</time>
      </trkpt>
      <trkpt lat="42.9743380" lon="-0.3986140">
        <ele>669.0</ele>
        <time>2020-07-28T10:57:35Z</time>
      </trkpt>
      <trkpt lat="42.9743820" lon="-0.3988630">
        <ele>668.6</ele>
        <time>2020-07-28T10:57:38Z</time>
      </trkpt>
      <trkpt lat="42.9744230" lon="-0.3990280">
        <ele>668.2</ele>
        <time>2020-07-28T10:57:40Z</time>
      </trkpt>
      <trkpt lat="42.9744540" lon="-0.3991980">
        <ele>667.6</ele>
        <time>2020-07-28T10:57:42Z</time>
      </trkpt>
      <trkpt lat="42.9744750" lon="-0.3993750">
        <ele>667.2</ele>
        <time>2020-07-28T10:57:44Z</time>
      </trkpt>
      <trkpt lat="42.9744910" lon="-0.3995600">
        <ele>666.4</ele>
        <time>2020-07-28T10:57:46Z</time>
      </trkpt>
      <trkpt lat="42.9744900" lon="-0.3996630">
        <ele>665.8</ele>
        <time>2020-07-28T10:57:47Z</time>
      </trkpt>
      <trkpt lat="42.9744770" lon="-0.3998910">
        <ele>664.8</ele>
        <time>2020-07-28T10:57:49Z</time>
      </trkpt>
      <trkpt lat="42.9744480" lon="-0.4002500">
        <ele>663.2</ele>
        <time>2020-07-28T10:57:52Z</time>
      </trkpt>
      <trkpt lat="42.9744510" lon="-0.4004980">
        <ele>662.2</ele>
        <time>2020-07-28T10:57:54Z</time>
      </trkpt>
      <trkpt lat="42.9744580" lon="-0.4006250">
        <ele>661.6</ele>
        <time>2020-07-28T10:57:55Z</time>
      </trkpt>
      <trkpt lat="42.9744660" lon="-0.4007530">
        <ele>661.0</ele>
        <time>2020-07-28T10:57:56Z</time>
      </trkpt>
      <trkpt lat="42.9745020" lon="-0.4010110">
        <ele>659.6</ele>
        <time>2020-07-28T10:57:58Z</time>
      </trkpt>
      <trkpt lat="42.9745450" lon="-0.4012810">
        <ele>658.4</ele>
        <time>2020-07-28T10:58:00Z</time>
      </trkpt>
      <trkpt lat="42.9745810" lon="-0.4015550">
        <ele>657.4</ele>
        <time>2020-07-28T10:58:02Z</time>
      </trkpt>
      <trkpt lat="42.9746190" lon="-0.4018380">
        <ele>656.2</ele>
        <time>2020-07-28T10:58:04Z</time>
      </trkpt>
      <trkpt lat="42.9746410" lon="-0.4021300">
        <ele>654.6</ele>
        <time>2020-07-28T10:58:06Z</time>
      </trkpt>
      <trkpt lat="42.9746440" lon="-0.4022760">
        <ele>654.0</ele>
        <time>2020-07-28T10:58:07Z</time>
      </trkpt>
      <trkpt lat="42.9746480" lon="-0.4024200">
        <ele>653.4</ele>
        <time>2020-07-28T10:58:08Z</time>
      </trkpt>
      <trkpt lat="42.9746500" lon="-0.4027140">
        <ele>652.2</ele>
        <time>2020-07-28T10:58:10Z</time>
      </trkpt>
      <trkpt lat="42.9747030" lon="-0.4031540">
        <ele>650.8</ele>
        <time>2020-07-28T10:58:13Z</time>
      </trkpt>
      <trkpt lat="42.9747820" lon="-0.4034210">
        <ele>649.4</ele>
        <time>2020-07-28T10:58:15Z</time>
      </trkpt>
      <trkpt lat="42.9748520" lon="-0.4036970">
        <ele>648.2</ele>
        <time>2020-07-28T10:58:17Z</time>
      </trkpt>
      <trkpt lat="42.9748710" lon="-0.4038460">
        <ele>647.8</ele>
        <time>2020-07-28T10:58:18Z</time>
      </trkpt>
      <trkpt lat="42.9749380" lon="-0.4041260">
        <ele>646.8</ele>
        <time>2020-07-28T10:58:20Z</time>
      </trkpt>
      <trkpt lat="42.9749960" lon="-0.4042470">
        <ele>646.2</ele>
        <time>2020-07-28T10:58:21Z</time>
      </trkpt>
      <trkpt lat="42.9750640" lon="-0.4043560">
        <ele>645.6</ele>
        <time>2020-07-28T10:58:22Z</time>
      </trkpt>
      <trkpt lat="42.9752180" lon="-0.4045580">
        <ele>644.2</ele>
        <time>2020-07-28T10:58:24Z</time>
      </trkpt>
      <trkpt lat="42.9754580" lon="-0.4048470">
        <ele>642.6</ele>
        <time>2020-07-28T10:58:27Z</time>
      </trkpt>
      <trkpt lat="42.9756290" lon="-0.4050220">
        <ele>641.0</ele>
        <time>2020-07-28T10:58:29Z</time>
      </trkpt>
      <trkpt lat="42.9757240" lon="-0.4050960">
        <ele>640.4</ele>
        <time>2020-07-28T10:58:30Z</time>
      </trkpt>
      <trkpt lat="42.9758260" lon="-0.4051530">
        <ele>640.0</ele>
        <time>2020-07-28T10:58:31Z</time>
      </trkpt>
      <trkpt lat="42.9760330" lon="-0.4052400">
        <ele>639.0</ele>
        <time>2020-07-28T10:58:33Z</time>
      </trkpt>
      <trkpt lat="42.9761350" lon="-0.4052780">
        <ele>638.6</ele>
        <time>2020-07-28T10:58:34Z</time>
      </trkpt>
      <trkpt lat="42.9763390" lon="-0.4053870">
        <ele>637.4</ele>
        <time>2020-07-28T10:58:36Z</time>
      </trkpt>
      <trkpt lat="42.9765210" lon="-0.4055610">
        <ele>635.6</ele>
        <time>2020-07-28T10:58:38Z</time>
      </trkpt>
      <trkpt lat="42.9766760" lon="-0.4057770">
        <ele>634.2</ele>
        <time>2020-07-28T10:58:40Z</time>
      </trkpt>
      <trkpt lat="42.9767380" lon="-0.4058970">
        <ele>633.6</ele>
        <time>2020-07-28T10:58:41Z</time>
      </trkpt>
      <trkpt lat="42.9767810" lon="-0.4060300">
        <ele>633.2</ele>
        <time>2020-07-28T10:58:42Z</time>
      </trkpt>
      <trkpt lat="42.9768030" lon="-0.4061750">
        <ele>632.8</ele>
        <time>2020-07-28T10:58:43Z</time>
      </trkpt>
      <trkpt lat="42.9768470" lon="-0.4064670">
        <ele>631.8</ele>
        <time>2020-07-28T10:58:45Z</time>
      </trkpt>
      <trkpt lat="42.9768800" lon="-0.4066080">
        <ele>631.4</ele>
        <time>2020-07-28T10:58:46Z</time>
      </trkpt>
      <trkpt lat="42.9769210" lon="-0.4067360">
        <ele>630.8</ele>
        <time>2020-07-28T10:58:47Z</time>
      </trkpt>
      <trkpt lat="42.9769670" lon="-0.4068560">
        <ele>630.2</ele>
        <time>2020-07-28T10:58:48Z</time>
      </trkpt>
      <trkpt lat="42.9770290" lon="-0.4069660">
        <ele>629.6</ele>
        <time>2020-07-28T10:58:49Z</time>
      </trkpt>
      <trkpt lat="42.9771090" lon="-0.4070600">
        <ele>629.0</ele>
        <time>2020-07-28T10:58:50Z</time>
      </trkpt>
      <trkpt lat="42.9772020" lon="-0.4071360">
        <ele>628.4</ele>
        <time>2020-07-28T10:58:51Z</time>
      </trkpt>
      <trkpt lat="42.9772950" lon="-0.4071930">
        <ele>628.2</ele>
        <time>2020-07-28T10:58:52Z</time>
      </trkpt>
      <trkpt lat="42.9774740" lon="-0.4073070">
        <ele>627.2</ele>
        <time>2020-07-28T10:58:54Z</time>
      </trkpt>
      <trkpt lat="42.9775530" lon="-0.4073810">
        <ele>626.8</ele>
        <time>2020-07-28T10:58:55Z</time>
      </trkpt>
      <trkpt lat="42.9776300" lon="-0.4074620">
        <ele>626.4</ele>
        <time>2020-07-28T10:58:56Z</time>
      </trkpt>
      <trkpt lat="42.9777020" lon="-0.4075500">
        <ele>626.0</ele>
        <time>2020-07-28T10:58:57Z</time>
      </trkpt>
      <trkpt lat="42.9777630" lon="-0.4076480">
        <ele>625.6</ele>
        <time>2020-07-28T10:58:58Z</time>
      </trkpt>
      <trkpt lat="42.9778670" lon="-0.4078720">
        <ele>624.6</ele>
        <time>2020-07-28T10:59:00Z</time>
      </trkpt>
      <trkpt lat="42.9779640" lon="-0.4082350">
        <ele>623.4</ele>
        <time>2020-07-28T10:59:03Z</time>
      </trkpt>
      <trkpt lat="42.9779780" lon="-0.4083690">
        <ele>623.2</ele>
        <time>2020-07-28T10:59:04Z</time>
      </trkpt>
      <trkpt lat="42.9779900" lon="-0.4089060">
        <ele>622.2</ele>
        <time>2020-07-28T10:59:08Z</time>
      </trkpt>
      <trkpt lat="42.9779920" lon="-0.4090480">
        <ele>621.6</ele>
        <time>2020-07-28T10:59:09Z</time>
      </trkpt>
      <trkpt lat="42.9780280" lon="-0.4093260">
        <ele>620.6</ele>
        <time>2020-07-28T10:59:11Z</time>
      </trkpt>
      <trkpt lat="42.9781180" lon="-0.4095840">
        <ele>619.4</ele>
        <time>2020-07-28T10:59:13Z</time>
      </trkpt>
      <trkpt lat="42.9781740" lon="-0.4097000">
        <ele>618.6</ele>
        <time>2020-07-28T10:59:14Z</time>
      </trkpt>
      <trkpt lat="42.9782300" lon="-0.4098160">
        <ele>618.0</ele>
        <time>2020-07-28T10:59:15Z</time>
      </trkpt>
      <trkpt lat="42.9783330" lon="-0.4100460">
        <ele>617.0</ele>
        <time>2020-07-28T10:59:17Z</time>
      </trkpt>
      <trkpt lat="42.9783880" lon="-0.4102990">
        <ele>615.6</ele>
        <time>2020-07-28T10:59:19Z</time>
      </trkpt>
      <trkpt lat="42.9783970" lon="-0.4104580">
        <ele>614.8</ele>
        <time>2020-07-28T10:59:20Z</time>
      </trkpt>
      <trkpt lat="42.9783830" lon="-0.4106200">
        <ele>614.2</ele>
        <time>2020-07-28T10:59:21Z</time>
      </trkpt>
      <trkpt lat="42.9783280" lon="-0.4109240">
        <ele>613.8</ele>
        <time>2020-07-28T10:59:23Z</time>
      </trkpt>
      <trkpt lat="42.9782300" lon="-0.4113950">
        <ele>613.4</ele>
        <time>2020-07-28T10:59:26Z</time>
      </trkpt>
      <trkpt lat="42.9782090" lon="-0.4115500">
        <ele>613.0</ele>
        <time>2020-07-28T10:59:27Z</time>
      </trkpt>
      <trkpt lat="42.9781660" lon="-0.4118650">
        <ele>611.2</ele>
        <time>2020-07-28T10:59:29Z</time>
      </trkpt>
      <trkpt lat="42.9781350" lon="-0.4120240">
        <ele>610.0</ele>
        <time>2020-07-28T10:59:30Z</time>
      </trkpt>
      <trkpt lat="42.9780540" lon="-0.4123180">
        <ele>608.4</ele>
        <time>2020-07-28T10:59:32Z</time>
      </trkpt>
      <trkpt lat="42.9779510" lon="-0.4125920">
        <ele>606.6</ele>
        <time>2020-07-28T10:59:34Z</time>
      </trkpt>
      <trkpt lat="42.9778480" lon="-0.4128650">
        <ele>605.2</ele>
        <time>2020-07-28T10:59:36Z</time>
      </trkpt>
      <trkpt lat="42.9778080" lon="-0.4130100">
        <ele>604.8</ele>
        <time>2020-07-28T10:59:37Z</time>
      </trkpt>
      <trkpt lat="42.9777790" lon="-0.4131580">
        <ele>604.2</ele>
        <time>2020-07-28T10:59:38Z</time>
      </trkpt>
      <trkpt lat="42.9777430" lon="-0.4134680">
        <ele>602.8</ele>
        <time>2020-07-28T10:59:40Z</time>
      </trkpt>
      <trkpt lat="42.9777290" lon="-0.4136260">
        <ele>602.2</ele>
        <time>2020-07-28T10:59:41Z</time>
      </trkpt>
      <trkpt lat="42.9777090" lon="-0.4137810">
        <ele>601.6</ele>
        <time>2020-07-28T10:59:42Z</time>
      </trkpt>
      <trkpt lat="42.9776410" lon="-0.4140820">
        <ele>600.6</ele>
        <time>2020-07-28T10:59:44Z</time>
      </trkpt>
      <trkpt lat="42.9775940" lon="-0.4142300">
        <ele>600.2</ele>
        <time>2020-07-28T10:59:45Z</time>
      </trkpt>
      <trkpt lat="42.9775040" lon="-0.4145310">
        <ele>599.4</ele>
        <time>2020-07-28T10:59:47Z</time>
      </trkpt>
      <trkpt lat="42.9774320" lon="-0.4148310">
        <ele>597.6</ele>
        <time>2020-07-28T10:59:49Z</time>
      </trkpt>
      <trkpt lat="42.9774050" lon="-0.4149820">
        <ele>597.0</ele>
        <time>2020-07-28T10:59:50Z</time>
      </trkpt>
      <trkpt lat="42.9773930" lon="-0.4151330">
        <ele>596.4</ele>
        <time>2020-07-28T10:59:51Z</time>
      </trkpt>
      <trkpt lat="42.9773990" lon="-0.4154410">
        <ele>595.4</ele>
        <time>2020-07-28T10:59:53Z</time>
      </trkpt>
      <trkpt lat="42.9774280" lon="-0.4157520">
        <ele>594.0</ele>
        <time>2020-07-28T10:59:55Z</time>
      </trkpt>
      <trkpt lat="42.9774550" lon="-0.4160540">
        <ele>592.4</ele>
        <time>2020-07-28T10:59:57Z</time>
      </trkpt>
      <trkpt lat="42.9774610" lon="-0.4162000">
        <ele>592.0</ele>
        <time>2020-07-28T10:59:58Z</time>
      </trkpt>
      <trkpt lat="42.9774430" lon="-0.4164950">
        <ele>591.2</ele>
        <time>2020-07-28T11:00:00Z</time>
      </trkpt>
      <trkpt lat="42.9774180" lon="-0.4167460">
        <ele>590.0</ele>
        <time>2020-07-28T11:00:02Z</time>
      </trkpt>
      <trkpt lat="42.9773620" lon="-0.4169730">
        <ele>588.8</ele>
        <time>2020-07-28T11:00:04Z</time>
      </trkpt>
      <trkpt lat="42.9772580" lon="-0.4171930">
        <ele>588.2</ele>
        <time>2020-07-28T11:00:06Z</time>
      </trkpt>
      <trkpt lat="42.9770800" lon="-0.4175160">
        <ele>587.4</ele>
        <time>2020-07-28T11:00:09Z</time>
      </trkpt>
      <trkpt lat="42.9770150" lon="-0.4176260">
        <ele>586.2</ele>
        <time>2020-07-28T11:00:10Z</time>
      </trkpt>
      <trkpt lat="42.9769470" lon="-0.4177350">
        <ele>585.0</ele>
        <time>2020-07-28T11:00:11Z</time>
      </trkpt>
      <trkpt lat="42.9768770" lon="-0.4178480">
        <ele>584.0</ele>
        <time>2020-07-28T11:00:12Z</time>
      </trkpt>
      <trkpt lat="42.9767370" lon="-0.4180680">
        <ele>582.8</ele>
        <time>2020-07-28T11:00:14Z</time>
      </trkpt>
      <trkpt lat="42.9766680" lon="-0.4181800">
        <ele>582.6</ele>
        <time>2020-07-28T11:00:15Z</time>
      </trkpt>
      <trkpt lat="42.9765980" lon="-0.4182970">
        <ele>582.2</ele>
        <time>2020-07-28T11:00:16Z</time>
      </trkpt>
      <trkpt lat="42.9765310" lon="-0.4184200">
        <ele>582.0</ele>
        <time>2020-07-28T11:00:17Z</time>
      </trkpt>
      <trkpt lat="42.9764690" lon="-0.4185510">
        <ele>581.8</ele>
        <time>2020-07-28T11:00:18Z</time>
      </trkpt>
      <trkpt lat="42.9763670" lon="-0.4188210">
        <ele>580.8</ele>
        <time>2020-07-28T11:00:20Z</time>
      </trkpt>
      <trkpt lat="42.9762810" lon="-0.4191000">
        <ele>579.0</ele>
        <time>2020-07-28T11:00:22Z</time>
      </trkpt>
      <trkpt lat="42.9761710" lon="-0.4195210">
        <ele>577.6</ele>
        <time>2020-07-28T11:00:25Z</time>
      </trkpt>
      <trkpt lat="42.9760920" lon="-0.4197630">
        <ele>577.0</ele>
        <time>2020-07-28T11:00:27Z</time>
      </trkpt>
      <trkpt lat="42.9759960" lon="-0.4199710">
        <ele>576.6</ele>
        <time>2020-07-28T11:00:29Z</time>
      </trkpt>
      <trkpt lat="42.9759350" lon="-0.4200650">
        <ele>576.2</ele>
        <time>2020-07-28T11:00:30Z</time>
      </trkpt>
      <trkpt lat="42.9758740" lon="-0.4201470">
        <ele>575.8</ele>
        <time>2020-07-28T11:00:31Z</time>
      </trkpt>
      <trkpt lat="42.9758190" lon="-0.4202210">
        <ele>575.4</ele>
        <time>2020-07-28T11:00:32Z</time>
      </trkpt>
      <trkpt lat="42.9756810" lon="-0.4204150">
        <ele>574.8</ele>
        <time>2020-07-28T11:00:35Z</time>
      </trkpt>
      <trkpt lat="42.9756400" lon="-0.4204860">
        <ele>574.6</ele>
        <time>2020-07-28T11:00:36Z</time>
      </trkpt>
      <trkpt lat="42.9756060" lon="-0.4205720">
        <ele>574.4</ele>
        <time>2020-07-28T11:00:37Z</time>
      </trkpt>
      <trkpt lat="42.9755890" lon="-0.4206580">
        <ele>574.2</ele>
        <time>2020-07-28T11:00:38Z</time>
      </trkpt>
      <trkpt lat="42.9756250" lon="-0.4208170">
        <ele>573.2</ele>
        <time>2020-07-28T11:00:40Z</time>
      </trkpt>
      <trkpt lat="42.9756840" lon="-0.4208630">
        <ele>572.8</ele>
        <time>2020-07-28T11:00:41Z</time>
      </trkpt>
      <trkpt lat="42.9757550" lon="-0.4208720">
        <ele>572.4</ele>
        <time>2020-07-28T11:00:42Z</time>
      </trkpt>
      <trkpt lat="42.9758250" lon="-0.4208650">
        <ele>572.2</ele>
        <time>2020-07-28T11:00:43Z</time>
      </trkpt>
      <trkpt lat="42.9759010" lon="-0.4208350">
        <ele>572.2</ele>
        <time>2020-07-28T11:00:44Z</time>
      </trkpt>
      <trkpt lat="42.9759660" lon="-0.4207920">
        <ele>572.0</ele>
        <time>2020-07-28T11:00:45Z</time>
      </trkpt>
      <trkpt lat="42.9760130" lon="-0.4207220">
        <ele>571.8</ele>
        <time>2020-07-28T11:00:46Z</time>
      </trkpt>
      <trkpt lat="42.9760450" lon="-0.4206250">
        <ele>571.4</ele>
        <time>2020-07-28T11:00:47Z</time>
      </trkpt>
      <trkpt lat="42.9760740" lon="-0.4205260">
        <ele>570.8</ele>
        <time>2020-07-28T11:00:48Z</time>
      </trkpt>
      <trkpt lat="42.9761020" lon="-0.4204250">
        <ele>570.2</ele>
        <time>2020-07-28T11:00:49Z</time>
      </trkpt>
      <trkpt lat="42.9761620" lon="-0.4202090">
        <ele>569.4</ele>
        <time>2020-07-28T11:00:51Z</time>
      </trkpt>
      <trkpt lat="42.9762990" lon="-0.4197700">
        <ele>568.2</ele>
        <time>2020-07-28T11:00:55Z</time>
      </trkpt>
      <trkpt lat="42.9764090" lon="-0.4194390">
        <ele>567.0</ele>
        <time>2020-07-28T11:00:58Z</time>
      </trkpt>
      <trkpt lat="42.9764960" lon="-0.4192100">
        <ele>566.0</ele>
        <time>2020-07-28T11:01:00Z</time>
      </trkpt>
      <trkpt lat="42.9765550" lon="-0.4190990">
        <ele>565.6</ele>
        <time>2020-07-28T11:01:01Z</time>
      </trkpt>
      <trkpt lat="42.9766680" lon="-0.4188730">
        <ele>564.6</ele>
        <time>2020-07-28T11:01:03Z</time>
      </trkpt>
      <trkpt lat="42.9768610" lon="-0.4185550">
        <ele>563.2</ele>
        <time>2020-07-28T11:01:06Z</time>
      </trkpt>
      <trkpt lat="42.9769430" lon="-0.4184460">
        <ele>562.2</ele>
        <time>2020-07-28T11:01:07Z</time>
      </trkpt>
      <trkpt lat="42.9770160" lon="-0.4183390">
        <ele>561.2</ele>
        <time>2020-07-28T11:01:08Z</time>
      </trkpt>
      <trkpt lat="42.9770940" lon="-0.4182350">
        <ele>560.6</ele>
        <time>2020-07-28T11:01:09Z</time>
      </trkpt>
      <trkpt lat="42.9772510" lon="-0.4180260">
        <ele>559.4</ele>
        <time>2020-07-28T11:01:11Z</time>
      </trkpt>
      <trkpt lat="42.9774110" lon="-0.4178180">
        <ele>558.2</ele>
        <time>2020-07-28T11:01:13Z</time>
      </trkpt>
      <trkpt lat="42.9774940" lon="-0.4177120">
        <ele>557.6</ele>
        <time>2020-07-28T11:01:14Z</time>
      </trkpt>
      <trkpt lat="42.9775870" lon="-0.4176100">
        <ele>556.8</ele>
        <time>2020-07-28T11:01:15Z</time>
      </trkpt>
      <trkpt lat="42.9778190" lon="-0.4173010">
        <ele>555.6</ele>
        <time>2020-07-28T11:01:18Z</time>
      </trkpt>
      <trkpt lat="42.9778830" lon="-0.4171900">
        <ele>554.8</ele>
        <time>2020-07-28T11:01:19Z</time>
      </trkpt>
      <trkpt lat="42.9779460" lon="-0.4170750">
        <ele>554.0</ele>
        <time>2020-07-28T11:01:20Z</time>
      </trkpt>
      <trkpt lat="42.9780960" lon="-0.4168370">
        <ele>552.8</ele>
        <time>2020-07-28T11:01:22Z</time>
      </trkpt>
      <trkpt lat="42.9783220" lon="-0.4165030">
        <ele>551.8</ele>
        <time>2020-07-28T11:01:25Z</time>
      </trkpt>
      <trkpt lat="42.9784060" lon="-0.4164010">
        <ele>551.4</ele>
        <time>2020-07-28T11:01:26Z</time>
      </trkpt>
      <trkpt lat="42.9786140" lon="-0.4162300">
        <ele>550.0</ele>
        <time>2020-07-28T11:01:28Z</time>
      </trkpt>
      <trkpt lat="42.9787130" lon="-0.4161580">
        <ele>549.2</ele>
        <time>2020-07-28T11:01:29Z</time>
      </trkpt>
      <trkpt lat="42.9788050" lon="-0.4160860">
        <ele>548.6</ele>
        <time>2020-07-28T11:01:30Z</time>
      </trkpt>
      <trkpt lat="42.9789900" lon="-0.4159540">
        <ele>547.6</ele>
        <time>2020-07-28T11:01:32Z</time>
      </trkpt>
      <trkpt lat="42.9791510" lon="-0.4158240">
        <ele>545.8</ele>
        <time>2020-07-28T11:01:34Z</time>
      </trkpt>
      <trkpt lat="42.9792270" lon="-0.4157430">
        <ele>545.0</ele>
        <time>2020-07-28T11:01:35Z</time>
      </trkpt>
      <trkpt lat="42.9793010" lon="-0.4156580">
        <ele>544.4</ele>
        <time>2020-07-28T11:01:36Z</time>
      </trkpt>
      <trkpt lat="42.9794870" lon="-0.4153570">
        <ele>543.2</ele>
        <time>2020-07-28T11:01:39Z</time>
      </trkpt>
      <trkpt lat="42.9795710" lon="-0.4151220">
        <ele>542.4</ele>
        <time>2020-07-28T11:01:41Z</time>
      </trkpt>
      <trkpt lat="42.9796040" lon="-0.4150070">
        <ele>542.0</ele>
        <time>2020-07-28T11:01:42Z</time>
      </trkpt>
      <trkpt lat="42.9796810" lon="-0.4147160">
        <ele>540.8</ele>
        <time>2020-07-28T11:01:45Z</time>
      </trkpt>
      <trkpt lat="42.9797270" lon="-0.4146450">
        <ele>540.8</ele>
        <time>2020-07-28T11:01:46Z</time>
      </trkpt>
      <trkpt lat="42.9798160" lon="-0.4145410">
        <ele>540.4</ele>
        <time>2020-07-28T11:01:48Z</time>
      </trkpt>
      <trkpt lat="42.9798780" lon="-0.4145250">
        <ele>540.2</ele>
        <time>2020-07-28T11:01:49Z</time>
      </trkpt>
      <trkpt lat="42.9799510" lon="-0.4145320">
        <ele>540.0</ele>
        <time>2020-07-28T11:01:50Z</time>
      </trkpt>
      <trkpt lat="42.9800140" lon="-0.4145560">
        <ele>539.6</ele>
        <time>2020-07-28T11:01:51Z</time>
      </trkpt>
      <trkpt lat="42.9800650" lon="-0.4146010">
        <ele>539.4</ele>
        <time>2020-07-28T11:01:52Z</time>
      </trkpt>
      <trkpt lat="42.9801360" lon="-0.4147300">
        <ele>539.2</ele>
        <time>2020-07-28T11:01:54Z</time>
      </trkpt>
      <trkpt lat="42.9801480" lon="-0.4148140">
        <ele>539.0</ele>
        <time>2020-07-28T11:01:55Z</time>
      </trkpt>
      <trkpt lat="42.9801340" lon="-0.4149070">
        <ele>538.8</ele>
        <time>2020-07-28T11:01:56Z</time>
      </trkpt>
      <trkpt lat="42.9801090" lon="-0.4149910">
        <ele>538.6</ele>
        <time>2020-07-28T11:01:57Z</time>
      </trkpt>
      <trkpt lat="42.9800730" lon="-0.4150670">
        <ele>538.4</ele>
        <time>2020-07-28T11:01:58Z</time>
      </trkpt>
      <trkpt lat="42.9799410" lon="-0.4153140">
        <ele>537.2</ele>
        <time>2020-07-28T11:02:01Z</time>
      </trkpt>
      <trkpt lat="42.9798590" lon="-0.4154980">
        <ele>536.6</ele>
        <time>2020-07-28T11:02:03Z</time>
      </trkpt>
      <trkpt lat="42.9797730" lon="-0.4156800">
        <ele>535.6</ele>
        <time>2020-07-28T11:02:05Z</time>
      </trkpt>
      <trkpt lat="42.9796780" lon="-0.4158570">
        <ele>534.6</ele>
        <time>2020-07-28T11:02:07Z</time>
      </trkpt>
      <trkpt lat="42.9794570" lon="-0.4161950">
        <ele>533.2</ele>
        <time>2020-07-28T11:02:11Z</time>
      </trkpt>
      <trkpt lat="42.9793100" lon="-0.4163700">
        <ele>532.2</ele>
        <time>2020-07-28T11:02:13Z</time>
      </trkpt>
      <trkpt lat="42.9790790" lon="-0.4166040">
        <ele>530.6</ele>
        <time>2020-07-28T11:02:16Z</time>
      </trkpt>
      <trkpt lat="42.9789170" lon="-0.4167710">
        <ele>529.4</ele>
        <time>2020-07-28T11:02:18Z</time>
      </trkpt>
      <trkpt lat="42.9787650" lon="-0.4169560">
        <ele>527.8</ele>
        <time>2020-07-28T11:02:20Z</time>
      </trkpt>
      <trkpt lat="42.9786970" lon="-0.4170610">
        <ele>527.0</ele>
        <time>2020-07-28T11:02:21Z</time>
      </trkpt>
      <trkpt lat="42.9786410" lon="-0.4171840">
        <ele>526.4</ele>
        <time>2020-07-28T11:02:22Z</time>
      </trkpt>
      <trkpt lat="42.9785930" lon="-0.4173150">
        <ele>526.0</ele>
        <time>2020-07-28T11:02:23Z</time>
      </trkpt>
      <trkpt lat="42.9785490" lon="-0.4174510">
        <ele>525.8</ele>
        <time>2020-07-28T11:02:24Z</time>
      </trkpt>
      <trkpt lat="42.9785130" lon="-0.4175950">
        <ele>525.4</ele>
        <time>2020-07-28T11:02:25Z</time>
      </trkpt>
      <trkpt lat="42.9784780" lon="-0.4177360">
        <ele>525.2</ele>
        <time>2020-07-28T11:02:26Z</time>
      </trkpt>
      <trkpt lat="42.9784400" lon="-0.4178760">
        <ele>525.0</ele>
        <time>2020-07-28T11:02:27Z</time>
      </trkpt>
      <trkpt lat="42.9783960" lon="-0.4180050">
        <ele>524.4</ele>
        <time>2020-07-28T11:02:28Z</time>
      </trkpt>
      <trkpt lat="42.9783500" lon="-0.4181290">
        <ele>523.4</ele>
        <time>2020-07-28T11:02:29Z</time>
      </trkpt>
      <trkpt lat="42.9782550" lon="-0.4183740">
        <ele>522.2</ele>
        <time>2020-07-28T11:02:31Z</time>
      </trkpt>
      <trkpt lat="42.9781330" lon="-0.4186160">
        <ele>521.4</ele>
        <time>2020-07-28T11:02:33Z</time>
      </trkpt>
      <trkpt lat="42.9780820" lon="-0.4187270">
        <ele>521.0</ele>
        <time>2020-07-28T11:02:34Z</time>
      </trkpt>
      <trkpt lat="42.9780450" lon="-0.4188390">
        <ele>520.2</ele>
        <time>2020-07-28T11:02:35Z</time>
      </trkpt>
      <trkpt lat="42.9780240" lon="-0.4189650">
        <ele>519.6</ele>
        <time>2020-07-28T11:02:36Z</time>
      </trkpt>
      <trkpt lat="42.9780110" lon="-0.4190910">
        <ele>519.0</ele>
        <time>2020-07-28T11:02:37Z</time>
      </trkpt>
      <trkpt lat="42.9780060" lon="-0.4192220">
        <ele>518.4</ele>
        <time>2020-07-28T11:02:38Z</time>
      </trkpt>
      <trkpt lat="42.9780010" lon="-0.4194790">
        <ele>517.4</ele>
        <time>2020-07-28T11:02:40Z</time>
      </trkpt>
      <trkpt lat="42.9779890" lon="-0.4195960">
        <ele>517.0</ele>
        <time>2020-07-28T11:02:41Z</time>
      </trkpt>
      <trkpt lat="42.9779490" lon="-0.4198220">
        <ele>516.4</ele>
        <time>2020-07-28T11:02:43Z</time>
      </trkpt>
      <trkpt lat="42.9778510" lon="-0.4201080">
        <ele>515.4</ele>
        <time>2020-07-28T11:02:46Z</time>
      </trkpt>
      <trkpt lat="42.9778230" lon="-0.4201920">
        <ele>515.0</ele>
        <time>2020-07-28T11:02:47Z</time>
      </trkpt>
      <trkpt lat="42.9777580" lon="-0.4204190">
        <ele>513.8</ele>
        <time>2020-07-28T11:02:50Z</time>
      </trkpt>
      <trkpt lat="42.9777620" lon="-0.4204910">
        <ele>513.6</ele>
        <time>2020-07-28T11:02:51Z</time>
      </trkpt>
      <trkpt lat="42.9777750" lon="-0.4205610">
        <ele>513.4</ele>
        <time>2020-07-28T11:02:52Z</time>
      </trkpt>
      <trkpt lat="42.9778500" lon="-0.4206680">
        <ele>513.2</ele>
        <time>2020-07-28T11:02:54Z</time>
      </trkpt>
      <trkpt lat="42.9779010" lon="-0.4206760">
        <ele>513.0</ele>
        <time>2020-07-28T11:02:55Z</time>
      </trkpt>
      <trkpt lat="42.9779490" lon="-0.4206550">
        <ele>513.0</ele>
        <time>2020-07-28T11:02:56Z</time>
      </trkpt>
      <trkpt lat="42.9779890" lon="-0.4206020">
        <ele>512.8</ele>
        <time>2020-07-28T11:02:57Z</time>
      </trkpt>
      <trkpt lat="42.9780150" lon="-0.4205330">
        <ele>512.8</ele>
        <time>2020-07-28T11:02:58Z</time>
      </trkpt>
      <trkpt lat="42.9780580" lon="-0.4203740">
        <ele>512.2</ele>
        <time>2020-07-28T11:03:00Z</time>
      </trkpt>
      <trkpt lat="42.9780920" lon="-0.4202040">
        <ele>511.4</ele>
        <time>2020-07-28T11:03:02Z</time>
      </trkpt>
      <trkpt lat="42.9781460" lon="-0.4199520">
        <ele>510.0</ele>
        <time>2020-07-28T11:03:05Z</time>
      </trkpt>
      <trkpt lat="42.9781870" lon="-0.4197730">
        <ele>509.4</ele>
        <time>2020-07-28T11:03:07Z</time>
      </trkpt>
      <trkpt lat="42.9782060" lon="-0.4196900">
        <ele>509.0</ele>
        <time>2020-07-28T11:03:08Z</time>
      </trkpt>
      <trkpt lat="42.9782720" lon="-0.4192240">
        <ele>508.0</ele>
        <time>2020-07-28T11:03:13Z</time>
      </trkpt>
      <trkpt lat="42.9783350" lon="-0.4189730">
        <ele>507.4</ele>
        <time>2020-07-28T11:03:16Z</time>
      </trkpt>
      <trkpt lat="42.9783880" lon="-0.4188350">
        <ele>507.0</ele>
        <time>2020-07-28T11:03:18Z</time>
      </trkpt>
      <trkpt lat="42.9785380" lon="-0.4187600">
        <ele>506.4</ele>
        <time>2020-07-28T11:03:20Z</time>
      </trkpt>
      <trkpt lat="42.9786730" lon="-0.4187450">
        <ele>505.4</ele>
        <time>2020-07-28T11:03:22Z</time>
      </trkpt>
      <trkpt lat="42.9787420" lon="-0.4187660">
        <ele>504.6</ele>
        <time>2020-07-28T11:03:23Z</time>
      </trkpt>
      <trkpt lat="42.9788010" lon="-0.4188070">
        <ele>504.0</ele>
        <time>2020-07-28T11:03:24Z</time>
      </trkpt>
      <trkpt lat="42.9788530" lon="-0.4188730">
        <ele>503.6</ele>
        <time>2020-07-28T11:03:25Z</time>
      </trkpt>
      <trkpt lat="42.9789000" lon="-0.4189560">
        <ele>502.8</ele>
        <time>2020-07-28T11:03:26Z</time>
      </trkpt>
      <trkpt lat="42.9789600" lon="-0.4191610">
        <ele>502.0</ele>
        <time>2020-07-28T11:03:28Z</time>
      </trkpt>
      <trkpt lat="42.9789770" lon="-0.4192740">
        <ele>501.6</ele>
        <time>2020-07-28T11:03:29Z</time>
      </trkpt>
      <trkpt lat="42.9790080" lon="-0.4194990">
        <ele>501.0</ele>
        <time>2020-07-28T11:03:31Z</time>
      </trkpt>
      <trkpt lat="42.9790430" lon="-0.4197270">
        <ele>500.6</ele>
        <time>2020-07-28T11:03:33Z</time>
      </trkpt>
      <trkpt lat="42.9791040" lon="-0.4199490">
        <ele>499.4</ele>
        <time>2020-07-28T11:03:35Z</time>
      </trkpt>
      <trkpt lat="42.9791400" lon="-0.4200570">
        <ele>498.8</ele>
        <time>2020-07-28T11:03:36Z</time>
      </trkpt>
      <trkpt lat="42.9791810" lon="-0.4201600">
        <ele>498.4</ele>
        <time>2020-07-28T11:03:37Z</time>
      </trkpt>
      <trkpt lat="42.9792300" lon="-0.4202550">
        <ele>498.0</ele>
        <time>2020-07-28T11:03:38Z</time>
      </trkpt>
      <trkpt lat="42.9792870" lon="-0.4203390">
        <ele>497.6</ele>
        <time>2020-07-28T11:03:39Z</time>
      </trkpt>
      <trkpt lat="42.9793500" lon="-0.4204140">
        <ele>497.4</ele>
        <time>2020-07-28T11:03:40Z</time>
      </trkpt>
      <trkpt lat="42.9794930" lon="-0.4205220">
        <ele>496.8</ele>
        <time>2020-07-28T11:03:42Z</time>
      </trkpt>
      <trkpt lat="42.9796550" lon="-0.4205680">
        <ele>496.8</ele>
        <time>2020-07-28T11:03:44Z</time>
      </trkpt>
      <trkpt lat="42.9797360" lon="-0.4205840">
        <ele>496.6</ele>
        <time>2020-07-28T11:03:45Z</time>
      </trkpt>
      <trkpt lat="42.9798150" lon="-0.4205990">
        <ele>496.4</ele>
        <time>2020-07-28T11:03:46Z</time>
      </trkpt>
      <trkpt lat="42.9798890" lon="-0.4206120">
        <ele>496.2</ele>
        <time>2020-07-28T11:03:47Z</time>
      </trkpt>
      <trkpt lat="42.9802190" lon="-0.4206640">
        <ele>495.4</ele>
        <time>2020-07-28T11:03:52Z</time>
      </trkpt>
      <trkpt lat="42.9803280" lon="-0.4206770">
        <ele>495.2</ele>
        <time>2020-07-28T11:03:54Z</time>
      </trkpt>
      <trkpt lat="42.9805000" lon="-0.4206990">
        <ele>495.0</ele>
        <time>2020-07-28T11:03:57Z</time>
      </trkpt>
      <trkpt lat="42.9805570" lon="-0.4207070">
        <ele>495.0</ele>
        <time>2020-07-28T11:03:58Z</time>
      </trkpt>
      <trkpt lat="42.9809210" lon="-0.4207650">
        <ele>494.8</ele>
        <time>2020-07-28T11:04:04Z</time>
      </trkpt>
      <trkpt lat="42.9810400" lon="-0.4207960">
        <ele>494.6</ele>
        <time>2020-07-28T11:04:06Z</time>
      </trkpt>
      <trkpt lat="42.9811610" lon="-0.4208480">
        <ele>494.6</ele>
        <time>2020-07-28T11:04:08Z</time>
      </trkpt>
      <trkpt lat="42.9812130" lon="-0.4208910">
        <ele>494.6</ele>
        <time>2020-07-28T11:04:09Z</time>
      </trkpt>
      <trkpt lat="42.9812620" lon="-0.4209470">
        <ele>494.4</ele>
        <time>2020-07-28T11:04:10Z</time>
      </trkpt>
      <trkpt lat="42.9813030" lon="-0.4210110">
        <ele>494.2</ele>
        <time>2020-07-28T11:04:11Z</time>
      </trkpt>
      <trkpt lat="42.9813370" lon="-0.4210790">
        <ele>494.0</ele>
        <time>2020-07-28T11:04:12Z</time>
      </trkpt>
      <trkpt lat="42.9813960" lon="-0.4212250">
        <ele>493.8</ele>
        <time>2020-07-28T11:04:14Z</time>
      </trkpt>
      <trkpt lat="42.9814410" lon="-0.4213720">
        <ele>493.8</ele>
        <time>2020-07-28T11:04:16Z</time>
      </trkpt>
      <trkpt lat="42.9814890" lon="-0.4215960">
        <ele>493.8</ele>
        <time>2020-07-28T11:04:19Z</time>
      </trkpt>
      <trkpt lat="42.9815470" lon="-0.4219070">
        <ele>494.0</ele>
        <time>2020-07-28T11:04:23Z</time>
      </trkpt>
      <trkpt lat="42.9816420" lon="-0.4223740">
        <ele>494.0</ele>
        <time>2020-07-28T11:04:29Z</time>
      </trkpt>
      <trkpt lat="42.9816620" lon="-0.4224560">
        <ele>494.2</ele>
        <time>2020-07-28T11:04:30Z</time>
      </trkpt>
      <trkpt lat="42.9817920" lon="-0.4229470">
        <ele>494.8</ele>
        <time>2020-07-28T11:04:36Z</time>
      </trkpt>
      <trkpt lat="42.9818230" lon="-0.4231150">
        <ele>495.0</ele>
        <time>2020-07-28T11:04:38Z</time>
      </trkpt>
      <trkpt lat="42.9818410" lon="-0.4232920">
        <ele>495.4</ele>
        <time>2020-07-28T11:04:40Z</time>
      </trkpt>
      <trkpt lat="42.9818650" lon="-0.4236410">
        <ele>495.8</ele>
        <time>2020-07-28T11:04:44Z</time>
      </trkpt>
      <trkpt lat="42.9818750" lon="-0.4237230">
        <ele>496.0</ele>
        <time>2020-07-28T11:04:45Z</time>
      </trkpt>
      <trkpt lat="42.9819020" lon="-0.4240690">
        <ele>496.4</ele>
        <time>2020-07-28T11:04:49Z</time>
      </trkpt>
      <trkpt lat="42.9819410" lon="-0.4244000">
        <ele>496.4</ele>
        <time>2020-07-28T11:04:53Z</time>
      </trkpt>
      <trkpt lat="42.9819750" lon="-0.4247990">
        <ele>497.4</ele>
        <time>2020-07-28T11:04:58Z</time>
      </trkpt>
      <trkpt lat="42.9820050" lon="-0.4250160">
        <ele>497.8</ele>
        <time>2020-07-28T11:05:01Z</time>
      </trkpt>
      <trkpt lat="42.9820620" lon="-0.4253560">
        <ele>498.2</ele>
        <time>2020-07-28T11:05:06Z</time>
      </trkpt>
      <trkpt lat="42.9820750" lon="-0.4254200">
        <ele>498.4</ele>
        <time>2020-07-28T11:05:07Z</time>
      </trkpt>
      <trkpt lat="42.9821420" lon="-0.4256840">
        <ele>499.0</ele>
        <time>2020-07-28T11:05:11Z</time>
      </trkpt>
      <trkpt lat="42.9821660" lon="-0.4257480">
        <ele>499.0</ele>
        <time>2020-07-28T11:05:12Z</time>
      </trkpt>
      <trkpt lat="42.9823250" lon="-0.4261620">
        <ele>499.4</ele>
        <time>2020-07-28T11:05:18Z</time>
      </trkpt>
      <trkpt lat="42.9823550" lon="-0.4262340">
        <ele>499.4</ele>
        <time>2020-07-28T11:05:19Z</time>
      </trkpt>
      <trkpt lat="42.9825210" lon="-0.4266480">
        <ele>500.4</ele>
        <time>2020-07-28T11:05:25Z</time>
      </trkpt>
      <trkpt lat="42.9825520" lon="-0.4267150">
        <ele>500.6</ele>
        <time>2020-07-28T11:05:26Z</time>
      </trkpt>
      <trkpt lat="42.9827790" lon="-0.4270660">
        <ele>501.6</ele>
        <time>2020-07-28T11:05:32Z</time>
      </trkpt>
      <trkpt lat="42.9829810" lon="-0.4272910">
        <ele>502.8</ele>
        <time>2020-07-28T11:05:37Z</time>
      </trkpt>
      <trkpt lat="42.9830980" lon="-0.4274180">
        <ele>503.4</ele>
        <time>2020-07-28T11:05:40Z</time>
      </trkpt>
      <trkpt lat="42.9831360" lon="-0.4274580">
        <ele>503.6</ele>
        <time>2020-07-28T11:05:41Z</time>
      </trkpt>
      <trkpt lat="42.9831730" lon="-0.4274990">
        <ele>503.8</ele>
        <time>2020-07-28T11:05:42Z</time>
      </trkpt>
      <trkpt lat="42.9832090" lon="-0.4275390">
        <ele>504.0</ele>
        <time>2020-07-28T11:05:43Z</time>
      </trkpt>
      <trkpt lat="42.9833090" lon="-0.4276580">
        <ele>504.8</ele>
        <time>2020-07-28T11:05:46Z</time>
      </trkpt>
      <trkpt lat="42.9834050" lon="-0.4277670">
        <ele>505.6</ele>
        <time>2020-07-28T11:05:49Z</time>
      </trkpt>
      <trkpt lat="42.9834680" lon="-0.4278360">
        <ele>506.0</ele>
        <time>2020-07-28T11:05:51Z</time>
      </trkpt>
      <trkpt lat="42.9835000" lon="-0.4278640">
        <ele>506.2</ele>
        <time>2020-07-28T11:05:52Z</time>
      </trkpt>
      <trkpt lat="42.9835790" lon="-0.4279010">
        <ele>506.8</ele>
        <time>2020-07-28T11:05:54Z</time>
      </trkpt>
      <trkpt lat="42.9836230" lon="-0.4279130">
        <ele>507.0</ele>
        <time>2020-07-28T11:05:55Z</time>
      </trkpt>
      <trkpt lat="42.9839020" lon="-0.4278990">
        <ele>507.6</ele>
        <time>2020-07-28T11:06:01Z</time>
      </trkpt>
      <trkpt lat="42.9841870" lon="-0.4277940">
        <ele>507.4</ele>
        <time>2020-07-28T11:06:07Z</time>
      </trkpt>
      <trkpt lat="42.9842850" lon="-0.4277530">
        <ele>508.0</ele>
        <time>2020-07-28T11:06:09Z</time>
      </trkpt>
      <trkpt lat="42.9843370" lon="-0.4277330">
        <ele>508.2</ele>
        <time>2020-07-28T11:06:10Z</time>
      </trkpt>
      <trkpt lat="42.9845850" lon="-0.4276230">
        <ele>508.8</ele>
        <time>2020-07-28T11:06:15Z</time>
      </trkpt>
      <trkpt lat="42.9847290" lon="-0.4275560">
        <ele>508.6</ele>
        <time>2020-07-28T11:06:18Z</time>
      </trkpt>
      <trkpt lat="42.9850180" lon="-0.4274150">
        <ele>508.6</ele>
        <time>2020-07-28T11:06:24Z</time>
      </trkpt>
      <trkpt lat="42.9850610" lon="-0.4273920">
        <ele>508.6</ele>
        <time>2020-07-28T11:06:25Z</time>
      </trkpt>
      <trkpt lat="42.9852510" lon="-0.4273070">
        <ele>508.8</ele>
        <time>2020-07-28T11:06:29Z</time>
      </trkpt>
      <trkpt lat="42.9854050" lon="-0.4272460">
        <ele>509.0</ele>
        <time>2020-07-28T11:06:32Z</time>
      </trkpt>
      <trkpt lat="42.9855170" lon="-0.4272070">
        <ele>509.2</ele>
        <time>2020-07-28T11:06:34Z</time>
      </trkpt>
      <trkpt lat="42.9857220" lon="-0.4271300">
        <ele>509.6</ele>
        <time>2020-07-28T11:06:38Z</time>
      </trkpt>
      <trkpt lat="42.9859740" lon="-0.4270500">
        <ele>510.2</ele>
        <time>2020-07-28T11:06:43Z</time>
      </trkpt>
      <trkpt lat="42.9860200" lon="-0.4270420">
        <ele>510.2</ele>
        <time>2020-07-28T11:06:44Z</time>
      </trkpt>
      <trkpt lat="42.9860540" lon="-0.4270410">
        <ele>510.2</ele>
        <time>2020-07-28T11:06:45Z</time>
      </trkpt>
      <trkpt lat="42.9860960" lon="-0.4270530">
        <ele>510.2</ele>
        <time>2020-07-28T11:06:47Z</time>
      </trkpt>
      <trkpt lat="42.9861020" lon="-0.4270680">
        <ele>510.4</ele>
        <time>2020-07-28T11:06:48Z</time>
      </trkpt>
      <trkpt lat="42.9860980" lon="-0.4270780">
        <ele>510.6</ele>
        <time>2020-07-28T11:06:49Z</time>
      </trkpt>
      <trkpt lat="42.9862770" lon="-0.4269670">
        <ele>510.4</ele>
        <time>2020-07-28T11:12:36Z</time>
      </trkpt>
      <trkpt lat="42.9863010" lon="-0.4269500">
        <ele>510.4</ele>
        <time>2020-07-28T11:12:37Z</time>
      </trkpt>
      <trkpt lat="42.9863360" lon="-0.4269370">
        <ele>510.4</ele>
        <time>2020-07-28T11:12:38Z</time>
      </trkpt>
      <trkpt lat="42.9865820" lon="-0.4268220">
        <ele>510.4</ele>
        <time>2020-07-28T11:12:44Z</time>
      </trkpt>
      <trkpt lat="42.9868440" lon="-0.4266990">
        <ele>509.4</ele>
        <time>2020-07-28T11:12:50Z</time>
      </trkpt>
      <trkpt lat="42.9870010" lon="-0.4266480">
        <ele>508.8</ele>
        <time>2020-07-28T11:12:53Z</time>
      </trkpt>
      <trkpt lat="42.9873160" lon="-0.4265660">
        <ele>508.4</ele>
        <time>2020-07-28T11:12:59Z</time>
      </trkpt>
      <trkpt lat="42.9873650" lon="-0.4265470">
        <ele>508.4</ele>
        <time>2020-07-28T11:13:00Z</time>
      </trkpt>
      <trkpt lat="42.9874120" lon="-0.4265300">
        <ele>508.4</ele>
        <time>2020-07-28T11:13:01Z</time>
      </trkpt>
      <trkpt lat="42.9875500" lon="-0.4264760">
        <ele>508.2</ele>
        <time>2020-07-28T11:13:04Z</time>
      </trkpt>
      <trkpt lat="42.9876350" lon="-0.4264490">
        <ele>508.2</ele>
        <time>2020-07-28T11:13:06Z</time>
      </trkpt>
      <trkpt lat="42.9876770" lon="-0.4264390">
        <ele>508.0</ele>
        <time>2020-07-28T11:13:07Z</time>
      </trkpt>
      <trkpt lat="42.9877580" lon="-0.4264180">
        <ele>508.6</ele>
        <time>2020-07-28T11:13:09Z</time>
      </trkpt>
      <trkpt lat="42.9878400" lon="-0.4264130">
        <ele>509.0</ele>
        <time>2020-07-28T11:13:12Z</time>
      </trkpt>
      <trkpt lat="42.9879110" lon="-0.4263920">
        <ele>509.0</ele>
        <time>2020-07-28T11:13:14Z</time>
      </trkpt>
      <trkpt lat="42.9879420" lon="-0.4263680">
        <ele>509.0</ele>
        <time>2020-07-28T11:13:15Z</time>
      </trkpt>
      <trkpt lat="42.9880120" lon="-0.4262420">
        <ele>509.0</ele>
        <time>2020-07-28T11:13:18Z</time>
      </trkpt>
      <trkpt lat="42.9880390" lon="-0.4261360">
        <ele>509.0</ele>
        <time>2020-07-28T11:13:20Z</time>
      </trkpt>
      <trkpt lat="42.9880600" lon="-0.4259370">
        <ele>508.0</ele>
        <time>2020-07-28T11:13:23Z</time>
      </trkpt>
      <trkpt lat="42.9880580" lon="-0.4258620">
        <ele>507.2</ele>
        <time>2020-07-28T11:13:24Z</time>
      </trkpt>
      <trkpt lat="42.9880570" lon="-0.4257100">
        <ele>506.0</ele>
        <time>2020-07-28T11:13:26Z</time>
      </trkpt>
      <trkpt lat="42.9880640" lon="-0.4254690">
        <ele>504.8</ele>
        <time>2020-07-28T11:13:29Z</time>
      </trkpt>
      <trkpt lat="42.9880690" lon="-0.4253800">
        <ele>504.4</ele>
        <time>2020-07-28T11:13:30Z</time>
      </trkpt>
      <trkpt lat="42.9880750" lon="-0.4252050">
        <ele>503.6</ele>
        <time>2020-07-28T11:13:32Z</time>
      </trkpt>
      <trkpt lat="42.9880770" lon="-0.4251110">
        <ele>503.4</ele>
        <time>2020-07-28T11:13:33Z</time>
      </trkpt>
      <trkpt lat="42.9881040" lon="-0.4247780">
        <ele>502.2</ele>
        <time>2020-07-28T11:13:36Z</time>
      </trkpt>
      <trkpt lat="42.9881140" lon="-0.4244210">
        <ele>501.0</ele>
        <time>2020-07-28T11:13:39Z</time>
      </trkpt>
      <trkpt lat="42.9881150" lon="-0.4241660">
        <ele>499.6</ele>
        <time>2020-07-28T11:13:41Z</time>
      </trkpt>
      <trkpt lat="42.9881180" lon="-0.4240360">
        <ele>499.0</ele>
        <time>2020-07-28T11:13:42Z</time>
      </trkpt>
      <trkpt lat="42.9881220" lon="-0.4239080">
        <ele>498.2</ele>
        <time>2020-07-28T11:13:43Z</time>
      </trkpt>
      <trkpt lat="42.9881300" lon="-0.4236490">
        <ele>497.0</ele>
        <time>2020-07-28T11:13:45Z</time>
      </trkpt>
      <trkpt lat="42.9881410" lon="-0.4232550">
        <ele>495.4</ele>
        <time>2020-07-28T11:13:48Z</time>
      </trkpt>
      <trkpt lat="42.9881500" lon="-0.4230020">
        <ele>493.6</ele>
        <time>2020-07-28T11:13:50Z</time>
      </trkpt>
      <trkpt lat="42.9881510" lon="-0.4228830">
        <ele>493.0</ele>
        <time>2020-07-28T11:13:51Z</time>
      </trkpt>
      <trkpt lat="42.9881620" lon="-0.4226690">
        <ele>492.2</ele>
        <time>2020-07-28T11:13:53Z</time>
      </trkpt>
      <trkpt lat="42.9881770" lon="-0.4224860">
        <ele>491.6</ele>
        <time>2020-07-28T11:13:55Z</time>
      </trkpt>
      <trkpt lat="42.9882210" lon="-0.4223310">
        <ele>491.0</ele>
        <time>2020-07-28T11:13:57Z</time>
      </trkpt>
      <trkpt lat="42.9882600" lon="-0.4222740">
        <ele>490.8</ele>
        <time>2020-07-28T11:13:58Z</time>
      </trkpt>
      <trkpt lat="42.9883000" lon="-0.4222320">
        <ele>490.8</ele>
        <time>2020-07-28T11:13:59Z</time>
      </trkpt>
      <trkpt lat="42.9884130" lon="-0.4222430">
        <ele>490.6</ele>
        <time>2020-07-28T11:14:01Z</time>
      </trkpt>
      <trkpt lat="42.9885980" lon="-0.4222820">
        <ele>490.4</ele>
        <time>2020-07-28T11:14:04Z</time>
      </trkpt>
      <trkpt lat="42.9887610" lon="-0.4223370">
        <ele>490.8</ele>
        <time>2020-07-28T11:14:07Z</time>
      </trkpt>
      <trkpt lat="42.9890270" lon="-0.4223920">
        <ele>491.2</ele>
        <time>2020-07-28T11:14:13Z</time>
      </trkpt>
      <trkpt lat="42.9890700" lon="-0.4224000">
        <ele>491.2</ele>
        <time>2020-07-28T11:14:14Z</time>
      </trkpt>
      <trkpt lat="42.9892250" lon="-0.4224370">
        <ele>491.2</ele>
        <time>2020-07-28T11:14:17Z</time>
      </trkpt>
      <trkpt lat="42.9893820" lon="-0.4224770">
        <ele>491.2</ele>
        <time>2020-07-28T11:14:20Z</time>
      </trkpt>
      <trkpt lat="42.9896020" lon="-0.4225280">
        <ele>490.0</ele>
        <time>2020-07-28T11:14:24Z</time>
      </trkpt>
      <trkpt lat="42.9897850" lon="-0.4225400">
        <ele>489.4</ele>
        <time>2020-07-28T11:14:27Z</time>
      </trkpt>
      <trkpt lat="42.9899050" lon="-0.4225100">
        <ele>489.4</ele>
        <time>2020-07-28T11:14:29Z</time>
      </trkpt>
      <trkpt lat="42.9900200" lon="-0.4224470">
        <ele>489.6</ele>
        <time>2020-07-28T11:14:31Z</time>
      </trkpt>
      <trkpt lat="42.9901360" lon="-0.4223690">
        <ele>489.4</ele>
        <time>2020-07-28T11:14:33Z</time>
      </trkpt>
      <trkpt lat="42.9901940" lon="-0.4223280">
        <ele>489.4</ele>
        <time>2020-07-28T11:14:34Z</time>
      </trkpt>
      <trkpt lat="42.9903080" lon="-0.4222490">
        <ele>489.4</ele>
        <time>2020-07-28T11:14:36Z</time>
      </trkpt>
      <trkpt lat="42.9904670" lon="-0.4221440">
        <ele>489.4</ele>
        <time>2020-07-28T11:14:39Z</time>
      </trkpt>
      <trkpt lat="42.9905770" lon="-0.4220980">
        <ele>489.2</ele>
        <time>2020-07-28T11:14:41Z</time>
      </trkpt>
      <trkpt lat="42.9906980" lon="-0.4220840">
        <ele>489.0</ele>
        <time>2020-07-28T11:14:43Z</time>
      </trkpt>
      <trkpt lat="42.9907570" lon="-0.4220880">
        <ele>488.8</ele>
        <time>2020-07-28T11:14:44Z</time>
      </trkpt>
      <trkpt lat="42.9911190" lon="-0.4221560">
        <ele>488.0</ele>
        <time>2020-07-28T11:14:50Z</time>
      </trkpt>
      <trkpt lat="42.9912440" lon="-0.4221780">
        <ele>488.0</ele>
        <time>2020-07-28T11:14:52Z</time>
      </trkpt>
      <trkpt lat="42.9914880" lon="-0.4222360">
        <ele>488.6</ele>
        <time>2020-07-28T11:14:56Z</time>
      </trkpt>
      <trkpt lat="42.9916630" lon="-0.4222740">
        <ele>489.0</ele>
        <time>2020-07-28T11:14:59Z</time>
      </trkpt>
      <trkpt lat="42.9917780" lon="-0.4222970">
        <ele>488.8</ele>
        <time>2020-07-28T11:15:01Z</time>
      </trkpt>
      <trkpt lat="42.9919620" lon="-0.4223390">
        <ele>488.2</ele>
        <time>2020-07-28T11:15:04Z</time>
      </trkpt>
      <trkpt lat="42.9920230" lon="-0.4223560">
        <ele>487.8</ele>
        <time>2020-07-28T11:15:05Z</time>
      </trkpt>
      <trkpt lat="42.9920850" lon="-0.4223730">
        <ele>487.2</ele>
        <time>2020-07-28T11:15:06Z</time>
      </trkpt>
      <trkpt lat="42.9922130" lon="-0.4224050">
        <ele>486.4</ele>
        <time>2020-07-28T11:15:08Z</time>
      </trkpt>
      <trkpt lat="42.9924230" lon="-0.4224090">
        <ele>485.0</ele>
        <time>2020-07-28T11:15:10Z</time>
      </trkpt>
      <trkpt lat="42.9924980" lon="-0.4223990">
        <ele>483.4</ele>
        <time>2020-07-28T11:15:12Z</time>
      </trkpt>
      <trkpt lat="42.9926500" lon="-0.4223720">
        <ele>482.0</ele>
        <time>2020-07-28T11:15:14Z</time>
      </trkpt>
      <trkpt lat="42.9928090" lon="-0.4223430">
        <ele>480.6</ele>
        <time>2020-07-28T11:15:16Z</time>
      </trkpt>
      <trkpt lat="42.9929700" lon="-0.4223160">
        <ele>479.4</ele>
        <time>2020-07-28T11:15:18Z</time>
      </trkpt>
      <trkpt lat="42.9932050" lon="-0.4222790">
        <ele>478.2</ele>
        <time>2020-07-28T11:15:21Z</time>
      </trkpt>
      <trkpt lat="42.9935420" lon="-0.4222310">
        <ele>477.4</ele>
        <time>2020-07-28T11:15:25Z</time>
      </trkpt>
      <trkpt lat="42.9936300" lon="-0.4222220">
        <ele>477.2</ele>
        <time>2020-07-28T11:15:26Z</time>
      </trkpt>
      <trkpt lat="42.9938120" lon="-0.4222040">
        <ele>475.8</ele>
        <time>2020-07-28T11:15:28Z</time>
      </trkpt>
      <trkpt lat="42.9939800" lon="-0.4221820">
        <ele>474.6</ele>
        <time>2020-07-28T11:15:30Z</time>
      </trkpt>
      <trkpt lat="42.9942040" lon="-0.4221520">
        <ele>474.2</ele>
        <time>2020-07-28T11:15:33Z</time>
      </trkpt>
      <trkpt lat="42.9945610" lon="-0.4221290">
        <ele>474.4</ele>
        <time>2020-07-28T11:15:38Z</time>
      </trkpt>
      <trkpt lat="42.9949790" lon="-0.4220600">
        <ele>474.2</ele>
        <time>2020-07-28T11:15:44Z</time>
      </trkpt>
      <trkpt lat="42.9952770" lon="-0.4220240">
        <ele>473.8</ele>
        <time>2020-07-28T11:15:48Z</time>
      </trkpt>
      <trkpt lat="42.9954250" lon="-0.4220060">
        <ele>473.6</ele>
        <time>2020-07-28T11:15:50Z</time>
      </trkpt>
      <trkpt lat="42.9955730" lon="-0.4219880">
        <ele>473.4</ele>
        <time>2020-07-28T11:15:52Z</time>
      </trkpt>
      <trkpt lat="42.9960240" lon="-0.4219440">
        <ele>472.6</ele>
        <time>2020-07-28T11:15:58Z</time>
      </trkpt>
      <trkpt lat="42.9962310" lon="-0.4219230">
        <ele>472.4</ele>
        <time>2020-07-28T11:16:01Z</time>
      </trkpt>
      <trkpt lat="42.9965000" lon="-0.4218840">
        <ele>472.6</ele>
        <time>2020-07-28T11:16:05Z</time>
      </trkpt>
      <trkpt lat="42.9967840" lon="-0.4218310">
        <ele>472.4</ele>
        <time>2020-07-28T11:16:09Z</time>
      </trkpt>
      <trkpt lat="42.9972090" lon="-0.4217230">
        <ele>472.4</ele>
        <time>2020-07-28T11:16:15Z</time>
      </trkpt>
      <trkpt lat="42.9973490" lon="-0.4216830">
        <ele>472.2</ele>
        <time>2020-07-28T11:16:17Z</time>
      </trkpt>
      <trkpt lat="42.9975550" lon="-0.4216110">
        <ele>471.4</ele>
        <time>2020-07-28T11:16:20Z</time>
      </trkpt>
      <trkpt lat="42.9978860" lon="-0.4214640">
        <ele>471.2</ele>
        <time>2020-07-28T11:16:25Z</time>
      </trkpt>
      <trkpt lat="42.9983020" lon="-0.4212910">
        <ele>470.6</ele>
        <time>2020-07-28T11:16:31Z</time>
      </trkpt>
      <trkpt lat="42.9984380" lon="-0.4212310">
        <ele>470.6</ele>
        <time>2020-07-28T11:16:33Z</time>
      </trkpt>
      <trkpt lat="42.9986410" lon="-0.4211480">
        <ele>470.4</ele>
        <time>2020-07-28T11:16:36Z</time>
      </trkpt>
      <trkpt lat="42.9990180" lon="-0.4209960">
        <ele>470.0</ele>
        <time>2020-07-28T11:16:42Z</time>
      </trkpt>
      <trkpt lat="42.9992360" lon="-0.4209020">
        <ele>470.8</ele>
        <time>2020-07-28T11:16:46Z</time>
      </trkpt>
      <trkpt lat="42.9993380" lon="-0.4208590">
        <ele>471.2</ele>
        <time>2020-07-28T11:16:48Z</time>
      </trkpt>
      <trkpt lat="42.9993900" lon="-0.4208370">
        <ele>471.4</ele>
        <time>2020-07-28T11:16:49Z</time>
      </trkpt>
      <trkpt lat="42.9994410" lon="-0.4208140">
        <ele>471.4</ele>
        <time>2020-07-28T11:16:50Z</time>
      </trkpt>
      <trkpt lat="42.9996380" lon="-0.4207270">
        <ele>472.2</ele>
        <time>2020-07-28T11:16:54Z</time>
      </trkpt>
      <trkpt lat="42.9997350" lon="-0.4206850">
        <ele>472.6</ele>
        <time>2020-07-28T11:16:56Z</time>
      </trkpt>
      <trkpt lat="43.0000360" lon="-0.4205600">
        <ele>473.2</ele>
        <time>2020-07-28T11:17:02Z</time>
      </trkpt>
      <trkpt lat="43.0001410" lon="-0.4205150">
        <ele>473.0</ele>
        <time>2020-07-28T11:17:04Z</time>
      </trkpt>
      <trkpt lat="43.0005330" lon="-0.4203370">
        <ele>472.8</ele>
        <time>2020-07-28T11:17:10Z</time>
      </trkpt>
      <trkpt lat="43.0005330" lon="-0.4203370">
        <ele>473.2</ele>
        <time>2020-07-28T11:17:11Z</time>
      </trkpt>
      <trkpt lat="43.0009000" lon="-0.4201820">
        <ele>472.2</ele>
        <time>2020-07-28T11:17:17Z</time>
      </trkpt>
      <trkpt lat="43.0010780" lon="-0.4201130">
        <ele>472.2</ele>
        <time>2020-07-28T11:17:20Z</time>
      </trkpt>
      <trkpt lat="43.0013180" lon="-0.4200590">
        <ele>472.4</ele>
        <time>2020-07-28T11:17:24Z</time>
      </trkpt>
      <trkpt lat="43.0015000" lon="-0.4200330">
        <ele>472.8</ele>
        <time>2020-07-28T11:17:27Z</time>
      </trkpt>
      <trkpt lat="43.0017620" lon="-0.4200300">
        <ele>473.2</ele>
        <time>2020-07-28T11:17:31Z</time>
      </trkpt>
      <trkpt lat="43.0019750" lon="-0.4200510">
        <ele>472.4</ele>
        <time>2020-07-28T11:17:34Z</time>
      </trkpt>
      <trkpt lat="43.0021990" lon="-0.4201050">
        <ele>471.6</ele>
        <time>2020-07-28T11:17:37Z</time>
      </trkpt>
      <trkpt lat="43.0024400" lon="-0.4201920">
        <ele>470.2</ele>
        <time>2020-07-28T11:17:40Z</time>
      </trkpt>
      <trkpt lat="43.0026860" lon="-0.4203130">
        <ele>468.8</ele>
        <time>2020-07-28T11:17:43Z</time>
      </trkpt>
      <trkpt lat="43.0028590" lon="-0.4204030">
        <ele>468.6</ele>
        <time>2020-07-28T11:17:45Z</time>
      </trkpt>
      <trkpt lat="43.0031260" lon="-0.4205570">
        <ele>467.4</ele>
        <time>2020-07-28T11:17:48Z</time>
      </trkpt>
      <trkpt lat="43.0034000" lon="-0.4207150">
        <ele>466.0</ele>
        <time>2020-07-28T11:17:51Z</time>
      </trkpt>
      <trkpt lat="43.0035880" lon="-0.4208100">
        <ele>465.4</ele>
        <time>2020-07-28T11:17:53Z</time>
      </trkpt>
      <trkpt lat="43.0036810" lon="-0.4208570">
        <ele>465.0</ele>
        <time>2020-07-28T11:17:54Z</time>
      </trkpt>
      <trkpt lat="43.0037750" lon="-0.4209060">
        <ele>464.6</ele>
        <time>2020-07-28T11:17:55Z</time>
      </trkpt>
      <trkpt lat="43.0041460" lon="-0.4211120">
        <ele>463.6</ele>
        <time>2020-07-28T11:17:59Z</time>
      </trkpt>
      <trkpt lat="43.0043230" lon="-0.4212160">
        <ele>463.6</ele>
        <time>2020-07-28T11:18:01Z</time>
      </trkpt>
      <trkpt lat="43.0048600" lon="-0.4214430">
        <ele>462.8</ele>
        <time>2020-07-28T11:18:07Z</time>
      </trkpt>
      <trkpt lat="43.0051350" lon="-0.4214910">
        <ele>463.0</ele>
        <time>2020-07-28T11:18:10Z</time>
      </trkpt>
      <trkpt lat="43.0052220" lon="-0.4214920">
        <ele>463.2</ele>
        <time>2020-07-28T11:18:11Z</time>
      </trkpt>
      <trkpt lat="43.0053110" lon="-0.4214870">
        <ele>463.2</ele>
        <time>2020-07-28T11:18:12Z</time>
      </trkpt>
      <trkpt lat="43.0058110" lon="-0.4213750">
        <ele>463.8</ele>
        <time>2020-07-28T11:18:18Z</time>
      </trkpt>
      <trkpt lat="43.0062410" lon="-0.4211310">
        <ele>464.0</ele>
        <time>2020-07-28T11:18:24Z</time>
      </trkpt>
      <trkpt lat="43.0065220" lon="-0.4209770">
        <ele>464.0</ele>
        <time>2020-07-28T11:18:28Z</time>
      </trkpt>
      <trkpt lat="43.0067410" lon="-0.4208910">
        <ele>464.0</ele>
        <time>2020-07-28T11:18:31Z</time>
      </trkpt>
      <trkpt lat="43.0071870" lon="-0.4207890">
        <ele>463.8</ele>
        <time>2020-07-28T11:18:37Z</time>
      </trkpt>
      <trkpt lat="43.0072630" lon="-0.4207830">
        <ele>463.6</ele>
        <time>2020-07-28T11:18:38Z</time>
      </trkpt>
      <trkpt lat="43.0075000" lon="-0.4207770">
        <ele>462.4</ele>
        <time>2020-07-28T11:18:41Z</time>
      </trkpt>
      <trkpt lat="43.0078250" lon="-0.4208140">
        <ele>461.4</ele>
        <time>2020-07-28T11:18:45Z</time>
      </trkpt>
      <trkpt lat="43.0080680" lon="-0.4208670">
        <ele>461.2</ele>
        <time>2020-07-28T11:18:48Z</time>
      </trkpt>
      <trkpt lat="43.0083770" lon="-0.4209650">
        <ele>460.8</ele>
        <time>2020-07-28T11:18:52Z</time>
      </trkpt>
      <trkpt lat="43.0086830" lon="-0.4211060">
        <ele>460.2</ele>
        <time>2020-07-28T11:18:56Z</time>
      </trkpt>
      <trkpt lat="43.0087570" lon="-0.4211490">
        <ele>460.0</ele>
        <time>2020-07-28T11:18:57Z</time>
      </trkpt>
      <trkpt lat="43.0089030" lon="-0.4212380">
        <ele>459.8</ele>
        <time>2020-07-28T11:18:59Z</time>
      </trkpt>
      <trkpt lat="43.0093430" lon="-0.4215210">
        <ele>459.6</ele>
        <time>2020-07-28T11:19:05Z</time>
      </trkpt>
      <trkpt lat="43.0094160" lon="-0.4215690">
        <ele>459.4</ele>
        <time>2020-07-28T11:19:06Z</time>
      </trkpt>
      <trkpt lat="43.0094890" lon="-0.4216200">
        <ele>459.0</ele>
        <time>2020-07-28T11:19:07Z</time>
      </trkpt>
      <trkpt lat="43.0097910" lon="-0.4218210">
        <ele>458.2</ele>
        <time>2020-07-28T11:19:10Z</time>
      </trkpt>
      <trkpt lat="43.0097910" lon="-0.4218210">
        <ele>458.0</ele>
        <time>2020-07-28T11:19:11Z</time>
      </trkpt>
      <trkpt lat="43.0100250" lon="-0.4219490">
        <ele>457.6</ele>
        <time>2020-07-28T11:19:14Z</time>
      </trkpt>
      <trkpt lat="43.0102620" lon="-0.4220680">
        <ele>457.0</ele>
        <time>2020-07-28T11:19:17Z</time>
      </trkpt>
      <trkpt lat="43.0106510" lon="-0.4222590">
        <ele>456.6</ele>
        <time>2020-07-28T11:19:22Z</time>
      </trkpt>
      <trkpt lat="43.0111040" lon="-0.4224820">
        <ele>456.2</ele>
        <time>2020-07-28T11:19:28Z</time>
      </trkpt>
      <trkpt lat="43.0113270" lon="-0.4225930">
        <ele>456.0</ele>
        <time>2020-07-28T11:19:31Z</time>
      </trkpt>
      <trkpt lat="43.0114010" lon="-0.4226270">
        <ele>456.0</ele>
        <time>2020-07-28T11:19:32Z</time>
      </trkpt>
      <trkpt lat="43.0118380" lon="-0.4228220">
        <ele>456.6</ele>
        <time>2020-07-28T11:19:38Z</time>
      </trkpt>
      <trkpt lat="43.0120560" lon="-0.4228940">
        <ele>456.8</ele>
        <time>2020-07-28T11:19:41Z</time>
      </trkpt>
      <trkpt lat="43.0124000" lon="-0.4229680">
        <ele>457.0</ele>
        <time>2020-07-28T11:19:46Z</time>
      </trkpt>
      <trkpt lat="43.0125350" lon="-0.4229850">
        <ele>457.4</ele>
        <time>2020-07-28T11:19:48Z</time>
      </trkpt>
      <trkpt lat="43.0127340" lon="-0.4229960">
        <ele>458.0</ele>
        <time>2020-07-28T11:19:51Z</time>
      </trkpt>
      <trkpt lat="43.0127970" lon="-0.4229990">
        <ele>458.2</ele>
        <time>2020-07-28T11:19:52Z</time>
      </trkpt>
      <trkpt lat="43.0129880" lon="-0.4230060">
        <ele>458.6</ele>
        <time>2020-07-28T11:19:55Z</time>
      </trkpt>
      <trkpt lat="43.0132320" lon="-0.4230110">
        <ele>459.4</ele>
        <time>2020-07-28T11:19:59Z</time>
      </trkpt>
      <trkpt lat="43.0135180" lon="-0.4230140">
        <ele>460.2</ele>
        <time>2020-07-28T11:20:04Z</time>
      </trkpt>
      <trkpt lat="43.0136300" lon="-0.4230140">
        <ele>460.4</ele>
        <time>2020-07-28T11:20:06Z</time>
      </trkpt>
      <trkpt lat="43.0138460" lon="-0.4230190">
        <ele>461.4</ele>
        <time>2020-07-28T11:20:10Z</time>
      </trkpt>
      <trkpt lat="43.0140090" lon="-0.4230270">
        <ele>462.6</ele>
        <time>2020-07-28T11:20:13Z</time>
      </trkpt>
      <trkpt lat="43.0143240" lon="-0.4230190">
        <ele>463.4</ele>
        <time>2020-07-28T11:20:19Z</time>
      </trkpt>
      <trkpt lat="43.0144240" lon="-0.4230120">
        <ele>463.6</ele>
        <time>2020-07-28T11:20:21Z</time>
      </trkpt>
      <trkpt lat="43.0144770" lon="-0.4230060">
        <ele>464.0</ele>
        <time>2020-07-28T11:20:22Z</time>
      </trkpt>
      <trkpt lat="43.0148050" lon="-0.4229690">
        <ele>464.4</ele>
        <time>2020-07-28T11:20:28Z</time>
      </trkpt>
      <trkpt lat="43.0149270" lon="-0.4229510">
        <ele>464.2</ele>
        <time>2020-07-28T11:20:30Z</time>
      </trkpt>
      <trkpt lat="43.0153000" lon="-0.4229130">
        <ele>463.6</ele>
        <time>2020-07-28T11:20:36Z</time>
      </trkpt>
      <trkpt lat="43.0154310" lon="-0.4229080">
        <ele>463.6</ele>
        <time>2020-07-28T11:20:38Z</time>
      </trkpt>
      <trkpt lat="43.0158570" lon="-0.4229210">
        <ele>462.8</ele>
        <time>2020-07-28T11:20:44Z</time>
      </trkpt>
      <trkpt lat="43.0159310" lon="-0.4229250">
        <ele>462.4</ele>
        <time>2020-07-28T11:20:45Z</time>
      </trkpt>
      <trkpt lat="43.0163220" lon="-0.4229470">
        <ele>461.2</ele>
        <time>2020-07-28T11:20:50Z</time>
      </trkpt>
      <trkpt lat="43.0164840" lon="-0.4229570">
        <ele>459.8</ele>
        <time>2020-07-28T11:20:52Z</time>
      </trkpt>
      <trkpt lat="43.0166550" lon="-0.4229680">
        <ele>458.6</ele>
        <time>2020-07-28T11:20:54Z</time>
      </trkpt>
      <trkpt lat="43.0169270" lon="-0.4229920">
        <ele>457.0</ele>
        <time>2020-07-28T11:20:57Z</time>
      </trkpt>
      <trkpt lat="43.0170200" lon="-0.4230010">
        <ele>456.6</ele>
        <time>2020-07-28T11:20:58Z</time>
      </trkpt>
      <trkpt lat="43.0173110" lon="-0.4230330">
        <ele>455.6</ele>
        <time>2020-07-28T11:21:01Z</time>
      </trkpt>
      <trkpt lat="43.0176100" lon="-0.4230540">
        <ele>454.6</ele>
        <time>2020-07-28T11:21:04Z</time>
      </trkpt>
      <trkpt lat="43.0178120" lon="-0.4230680">
        <ele>453.4</ele>
        <time>2020-07-28T11:21:06Z</time>
      </trkpt>
      <trkpt lat="43.0180170" lon="-0.4230790">
        <ele>452.2</ele>
        <time>2020-07-28T11:21:08Z</time>
      </trkpt>
      <trkpt lat="43.0185120" lon="-0.4230910">
        <ele>451.0</ele>
        <time>2020-07-28T11:21:13Z</time>
      </trkpt>
      <trkpt lat="43.0190710" lon="-0.4230290">
        <ele>450.6</ele>
        <time>2020-07-28T11:21:19Z</time>
      </trkpt>
      <trkpt lat="43.0191640" lon="-0.4230150">
        <ele>450.4</ele>
        <time>2020-07-28T11:21:20Z</time>
      </trkpt>
      <trkpt lat="43.0193500" lon="-0.4229890">
        <ele>449.8</ele>
        <time>2020-07-28T11:21:22Z</time>
      </trkpt>
      <trkpt lat="43.0198140" lon="-0.4229210">
        <ele>448.8</ele>
        <time>2020-07-28T11:21:27Z</time>
      </trkpt>
      <trkpt lat="43.0199080" lon="-0.4229060">
        <ele>448.6</ele>
        <time>2020-07-28T11:21:28Z</time>
      </trkpt>
      <trkpt lat="43.0200960" lon="-0.4228720">
        <ele>448.8</ele>
        <time>2020-07-28T11:21:30Z</time>
      </trkpt>
      <trkpt lat="43.0201890" lon="-0.4228520">
        <ele>448.8</ele>
        <time>2020-07-28T11:21:31Z</time>
      </trkpt>
      <trkpt lat="43.0204590" lon="-0.4227770">
        <ele>448.8</ele>
        <time>2020-07-28T11:21:34Z</time>
      </trkpt>
      <trkpt lat="43.0206320" lon="-0.4227170">
        <ele>448.8</ele>
        <time>2020-07-28T11:21:36Z</time>
      </trkpt>
      <trkpt lat="43.0208840" lon="-0.4226230">
        <ele>448.2</ele>
        <time>2020-07-28T11:21:39Z</time>
      </trkpt>
      <trkpt lat="43.0209680" lon="-0.4225910">
        <ele>448.2</ele>
        <time>2020-07-28T11:21:40Z</time>
      </trkpt>
      <trkpt lat="43.0213850" lon="-0.4224250">
        <ele>447.6</ele>
        <time>2020-07-28T11:21:45Z</time>
      </trkpt>
      <trkpt lat="43.0216320" lon="-0.4223310">
        <ele>447.6</ele>
        <time>2020-07-28T11:21:48Z</time>
      </trkpt>
      <trkpt lat="43.0221170" lon="-0.4221490">
        <ele>446.4</ele>
        <time>2020-07-28T11:21:54Z</time>
      </trkpt>
      <trkpt lat="43.0224280" lon="-0.4220330">
        <ele>445.8</ele>
        <time>2020-07-28T11:21:58Z</time>
      </trkpt>
      <trkpt lat="43.0228770" lon="-0.4218750">
        <ele>446.2</ele>
        <time>2020-07-28T11:22:04Z</time>
      </trkpt>
      <trkpt lat="43.0231000" lon="-0.4218300">
        <ele>446.0</ele>
        <time>2020-07-28T11:22:07Z</time>
      </trkpt>
      <trkpt lat="43.0235440" lon="-0.4217680">
        <ele>445.8</ele>
        <time>2020-07-28T11:22:13Z</time>
      </trkpt>
      <trkpt lat="43.0236150" lon="-0.4217390">
        <ele>445.8</ele>
        <time>2020-07-28T11:22:14Z</time>
      </trkpt>
      <trkpt lat="43.0236850" lon="-0.4217010">
        <ele>445.6</ele>
        <time>2020-07-28T11:22:15Z</time>
      </trkpt>
      <trkpt lat="43.0238060" lon="-0.4215770">
        <ele>445.2</ele>
        <time>2020-07-28T11:22:17Z</time>
      </trkpt>
      <trkpt lat="43.0239280" lon="-0.4214660">
        <ele>445.2</ele>
        <time>2020-07-28T11:22:19Z</time>
      </trkpt>
      <trkpt lat="43.0239970" lon="-0.4214520">
        <ele>445.2</ele>
        <time>2020-07-28T11:22:20Z</time>
      </trkpt>
      <trkpt lat="43.0240690" lon="-0.4214630">
        <ele>445.2</ele>
        <time>2020-07-28T11:22:21Z</time>
      </trkpt>
      <trkpt lat="43.0242850" lon="-0.4215060">
        <ele>445.2</ele>
        <time>2020-07-28T11:22:24Z</time>
      </trkpt>
      <trkpt lat="43.0245780" lon="-0.4214760">
        <ele>445.6</ele>
        <time>2020-07-28T11:22:28Z</time>
      </trkpt>
      <trkpt lat="43.0246500" lon="-0.4214700">
        <ele>445.8</ele>
        <time>2020-07-28T11:22:29Z</time>
      </trkpt>
      <trkpt lat="43.0250670" lon="-0.4214630">
        <ele>445.8</ele>
        <time>2020-07-28T11:22:35Z</time>
      </trkpt>
      <trkpt lat="43.0251370" lon="-0.4214630">
        <ele>445.8</ele>
        <time>2020-07-28T11:22:36Z</time>
      </trkpt>
      <trkpt lat="43.0252760" lon="-0.4214650">
        <ele>445.6</ele>
        <time>2020-07-28T11:22:38Z</time>
      </trkpt>
      <trkpt lat="43.0254800" lon="-0.4214730">
        <ele>445.6</ele>
        <time>2020-07-28T11:22:41Z</time>
      </trkpt>
      <trkpt lat="43.0256930" lon="-0.4214810">
        <ele>445.6</ele>
        <time>2020-07-28T11:22:44Z</time>
      </trkpt>
      <trkpt lat="43.0261330" lon="-0.4215000">
        <ele>445.2</ele>
        <time>2020-07-28T11:22:50Z</time>
      </trkpt>
      <trkpt lat="43.0262810" lon="-0.4215060">
        <ele>444.6</ele>
        <time>2020-07-28T11:22:52Z</time>
      </trkpt>
      <trkpt lat="43.0263540" lon="-0.4215090">
        <ele>444.2</ele>
        <time>2020-07-28T11:22:53Z</time>
      </trkpt>
      <trkpt lat="43.0266540" lon="-0.4215200">
        <ele>443.2</ele>
        <time>2020-07-28T11:22:57Z</time>
      </trkpt>
      <trkpt lat="43.0268860" lon="-0.4215310">
        <ele>443.0</ele>
        <time>2020-07-28T11:23:00Z</time>
      </trkpt>
      <trkpt lat="43.0269660" lon="-0.4215330">
        <ele>443.0</ele>
        <time>2020-07-28T11:23:01Z</time>
      </trkpt>
      <trkpt lat="43.0274520" lon="-0.4215480">
        <ele>442.2</ele>
        <time>2020-07-28T11:23:07Z</time>
      </trkpt>
      <trkpt lat="43.0275340" lon="-0.4215520">
        <ele>442.0</ele>
        <time>2020-07-28T11:23:08Z</time>
      </trkpt>
      <trkpt lat="43.0276150" lon="-0.4215550">
        <ele>442.0</ele>
        <time>2020-07-28T11:23:09Z</time>
      </trkpt>
      <trkpt lat="43.0280110" lon="-0.4215720">
        <ele>441.0</ele>
        <time>2020-07-28T11:23:14Z</time>
      </trkpt>
      <trkpt lat="43.0283280" lon="-0.4215860">
        <ele>440.6</ele>
        <time>2020-07-28T11:23:18Z</time>
      </trkpt>
      <trkpt lat="43.0286510" lon="-0.4216030">
        <ele>440.2</ele>
        <time>2020-07-28T11:23:22Z</time>
      </trkpt>
      <trkpt lat="43.0287320" lon="-0.4216070">
        <ele>440.2</ele>
        <time>2020-07-28T11:23:23Z</time>
      </trkpt>
      <trkpt lat="43.0288990" lon="-0.4216130">
        <ele>439.8</ele>
        <time>2020-07-28T11:23:25Z</time>
      </trkpt>
      <trkpt lat="43.0290630" lon="-0.4216210">
        <ele>439.6</ele>
        <time>2020-07-28T11:23:27Z</time>
      </trkpt>
      <trkpt lat="43.0294750" lon="-0.4216400">
        <ele>438.6</ele>
        <time>2020-07-28T11:23:32Z</time>
      </trkpt>
      <trkpt lat="43.0298030" lon="-0.4216550">
        <ele>437.8</ele>
        <time>2020-07-28T11:23:36Z</time>
      </trkpt>
      <trkpt lat="43.0298850" lon="-0.4216580">
        <ele>437.6</ele>
        <time>2020-07-28T11:23:37Z</time>
      </trkpt>
      <trkpt lat="43.0299660" lon="-0.4216620">
        <ele>437.6</ele>
        <time>2020-07-28T11:23:38Z</time>
      </trkpt>
      <trkpt lat="43.0302830" lon="-0.4216760">
        <ele>437.4</ele>
        <time>2020-07-28T11:23:42Z</time>
      </trkpt>
      <trkpt lat="43.0305140" lon="-0.4216860">
        <ele>437.2</ele>
        <time>2020-07-28T11:23:45Z</time>
      </trkpt>
      <trkpt lat="43.0305920" lon="-0.4216890">
        <ele>437.2</ele>
        <time>2020-07-28T11:23:46Z</time>
      </trkpt>
      <trkpt lat="43.0308170" lon="-0.4216990">
        <ele>437.0</ele>
        <time>2020-07-28T11:23:49Z</time>
      </trkpt>
      <trkpt lat="43.0310340" lon="-0.4217060">
        <ele>436.6</ele>
        <time>2020-07-28T11:23:52Z</time>
      </trkpt>
      <trkpt lat="43.0312450" lon="-0.4217190">
        <ele>436.6</ele>
        <time>2020-07-28T11:23:55Z</time>
      </trkpt>
      <trkpt lat="43.0315700" lon="-0.4217270">
        <ele>438.0</ele>
        <time>2020-07-28T11:24:00Z</time>
      </trkpt>
      <trkpt lat="43.0316840" lon="-0.4217360">
        <ele>438.2</ele>
        <time>2020-07-28T11:24:02Z</time>
      </trkpt>
      <trkpt lat="43.0318530" lon="-0.4217410">
        <ele>437.6</ele>
        <time>2020-07-28T11:24:05Z</time>
      </trkpt>
      <trkpt lat="43.0320270" lon="-0.4217400">
        <ele>437.4</ele>
        <time>2020-07-28T11:24:08Z</time>
      </trkpt>
      <trkpt lat="43.0320880" lon="-0.4217420">
        <ele>437.2</ele>
        <time>2020-07-28T11:24:09Z</time>
      </trkpt>
      <trkpt lat="43.0322850" lon="-0.4217490">
        <ele>437.4</ele>
        <time>2020-07-28T11:24:12Z</time>
      </trkpt>
      <trkpt lat="43.0326220" lon="-0.4217680">
        <ele>437.2</ele>
        <time>2020-07-28T11:24:17Z</time>
      </trkpt>
      <trkpt lat="43.0330170" lon="-0.4218220">
        <ele>437.6</ele>
        <time>2020-07-28T11:24:23Z</time>
      </trkpt>
      <trkpt lat="43.0332110" lon="-0.4218650">
        <ele>437.8</ele>
        <time>2020-07-28T11:24:26Z</time>
      </trkpt>
      <trkpt lat="43.0335740" lon="-0.4219640">
        <ele>438.6</ele>
        <time>2020-07-28T11:24:32Z</time>
      </trkpt>
      <trkpt lat="43.0336310" lon="-0.4219820">
        <ele>438.8</ele>
        <time>2020-07-28T11:24:33Z</time>
      </trkpt>
      <trkpt lat="43.0339840" lon="-0.4221000">
        <ele>437.6</ele>
        <time>2020-07-28T11:24:39Z</time>
      </trkpt>
      <trkpt lat="43.0341810" lon="-0.4221750">
        <ele>437.6</ele>
        <time>2020-07-28T11:24:42Z</time>
      </trkpt>
      <trkpt lat="43.0345160" lon="-0.4222900">
        <ele>436.6</ele>
        <time>2020-07-28T11:24:47Z</time>
      </trkpt>
      <trkpt lat="43.0345840" lon="-0.4223140">
        <ele>436.2</ele>
        <time>2020-07-28T11:24:48Z</time>
      </trkpt>
      <trkpt lat="43.0349920" lon="-0.4224580">
        <ele>436.2</ele>
        <time>2020-07-28T11:24:54Z</time>
      </trkpt>
      <trkpt lat="43.0353420" lon="-0.4225790">
        <ele>436.0</ele>
        <time>2020-07-28T11:24:59Z</time>
      </trkpt>
      <trkpt lat="43.0357690" lon="-0.4227320">
        <ele>435.4</ele>
        <time>2020-07-28T11:25:05Z</time>
      </trkpt>
      <trkpt lat="43.0361910" lon="-0.4228910">
        <ele>435.0</ele>
        <time>2020-07-28T11:25:10Z</time>
      </trkpt>
      <trkpt lat="43.0365550" lon="-0.4230270">
        <ele>434.8</ele>
        <time>2020-07-28T11:25:16Z</time>
      </trkpt>
      <trkpt lat="43.0367610" lon="-0.4231350">
        <ele>435.0</ele>
        <time>2020-07-28T11:25:19Z</time>
      </trkpt>
      <trkpt lat="43.0369370" lon="-0.4232150">
        <ele>435.2</ele>
        <time>2020-07-28T11:25:22Z</time>
      </trkpt>
      <trkpt lat="43.0370600" lon="-0.4232250">
        <ele>435.4</ele>
        <time>2020-07-28T11:25:24Z</time>
      </trkpt>
      <trkpt lat="43.0371210" lon="-0.4232350">
        <ele>435.6</ele>
        <time>2020-07-28T11:25:25Z</time>
      </trkpt>
      <trkpt lat="43.0372380" lon="-0.4233020">
        <ele>435.8</ele>
        <time>2020-07-28T11:25:27Z</time>
      </trkpt>
      <trkpt lat="43.0372860" lon="-0.4233550">
        <ele>435.8</ele>
        <time>2020-07-28T11:25:28Z</time>
      </trkpt>
      <trkpt lat="43.0373140" lon="-0.4234240">
        <ele>436.0</ele>
        <time>2020-07-28T11:25:29Z</time>
      </trkpt>
      <trkpt lat="43.0373240" lon="-0.4235920">
        <ele>436.4</ele>
        <time>2020-07-28T11:25:31Z</time>
      </trkpt>
      <trkpt lat="43.0373490" lon="-0.4237740">
        <ele>436.4</ele>
        <time>2020-07-28T11:25:33Z</time>
      </trkpt>
      <trkpt lat="43.0373840" lon="-0.4238530">
        <ele>436.2</ele>
        <time>2020-07-28T11:25:34Z</time>
      </trkpt>
      <trkpt lat="43.0374400" lon="-0.4239130">
        <ele>436.0</ele>
        <time>2020-07-28T11:25:35Z</time>
      </trkpt>
      <trkpt lat="43.0375650" lon="-0.4240040">
        <ele>435.4</ele>
        <time>2020-07-28T11:25:37Z</time>
      </trkpt>
      <trkpt lat="43.0379730" lon="-0.4242170">
        <ele>434.6</ele>
        <time>2020-07-28T11:25:43Z</time>
      </trkpt>
      <trkpt lat="43.0382440" lon="-0.4243480">
        <ele>434.6</ele>
        <time>2020-07-28T11:25:47Z</time>
      </trkpt>
      <trkpt lat="43.0383790" lon="-0.4244110">
        <ele>434.4</ele>
        <time>2020-07-28T11:25:49Z</time>
      </trkpt>
      <trkpt lat="43.0385120" lon="-0.4244780">
        <ele>434.4</ele>
        <time>2020-07-28T11:25:51Z</time>
      </trkpt>
      <trkpt lat="43.0389260" lon="-0.4246780">
        <ele>433.4</ele>
        <time>2020-07-28T11:25:57Z</time>
      </trkpt>
      <trkpt lat="43.0392070" lon="-0.4247960">
        <ele>433.0</ele>
        <time>2020-07-28T11:26:00Z</time>
      </trkpt>
      <trkpt lat="43.0395720" lon="-0.4249170">
        <ele>432.4</ele>
        <time>2020-07-28T11:26:06Z</time>
      </trkpt>
      <trkpt lat="43.0396470" lon="-0.4249420">
        <ele>432.2</ele>
        <time>2020-07-28T11:26:07Z</time>
      </trkpt>
      <trkpt lat="43.0399340" lon="-0.4250300">
        <ele>431.8</ele>
        <time>2020-07-28T11:26:11Z</time>
      </trkpt>
      <trkpt lat="43.0401420" lon="-0.4250980">
        <ele>431.2</ele>
        <time>2020-07-28T11:26:14Z</time>
      </trkpt>
      <trkpt lat="43.0405460" lon="-0.4252300">
        <ele>431.2</ele>
        <time>2020-07-28T11:26:20Z</time>
      </trkpt>
      <trkpt lat="43.0406130" lon="-0.4252510">
        <ele>431.2</ele>
        <time>2020-07-28T11:26:21Z</time>
      </trkpt>
      <trkpt lat="43.0408260" lon="-0.4253170">
        <ele>431.2</ele>
        <time>2020-07-28T11:26:24Z</time>
      </trkpt>
      <trkpt lat="43.0411130" lon="-0.4254120">
        <ele>430.8</ele>
        <time>2020-07-28T11:26:28Z</time>
      </trkpt>
      <trkpt lat="43.0412610" lon="-0.4254600">
        <ele>430.8</ele>
        <time>2020-07-28T11:26:30Z</time>
      </trkpt>
      <trkpt lat="43.0416280" lon="-0.4255800">
        <ele>430.0</ele>
        <time>2020-07-28T11:26:35Z</time>
      </trkpt>
      <trkpt lat="43.0419990" lon="-0.4257040">
        <ele>429.4</ele>
        <time>2020-07-28T11:26:40Z</time>
      </trkpt>
      <trkpt lat="43.0422990" lon="-0.4258330">
        <ele>429.0</ele>
        <time>2020-07-28T11:26:44Z</time>
      </trkpt>
      <trkpt lat="43.0425940" lon="-0.4259900">
        <ele>428.4</ele>
        <time>2020-07-28T11:26:48Z</time>
      </trkpt>
      <trkpt lat="43.0428880" lon="-0.4261450">
        <ele>427.8</ele>
        <time>2020-07-28T11:26:52Z</time>
      </trkpt>
      <trkpt lat="43.0432590" lon="-0.4263270">
        <ele>427.6</ele>
        <time>2020-07-28T11:26:57Z</time>
      </trkpt>
      <trkpt lat="43.0436830" lon="-0.4265990">
        <ele>427.2</ele>
        <time>2020-07-28T11:27:03Z</time>
      </trkpt>
      <trkpt lat="43.0437530" lon="-0.4266490">
        <ele>427.0</ele>
        <time>2020-07-28T11:27:04Z</time>
      </trkpt>
      <trkpt lat="43.0439680" lon="-0.4268070">
        <ele>426.8</ele>
        <time>2020-07-28T11:27:07Z</time>
      </trkpt>
      <trkpt lat="43.0442560" lon="-0.4270180">
        <ele>426.8</ele>
        <time>2020-07-28T11:27:10Z</time>
      </trkpt>
      <trkpt lat="43.0443280" lon="-0.4270720">
        <ele>426.2</ele>
        <time>2020-07-28T11:27:12Z</time>
      </trkpt>
      <trkpt lat="43.0443990" lon="-0.4271260">
        <ele>425.4</ele>
        <time>2020-07-28T11:27:13Z</time>
      </trkpt>
      <trkpt lat="43.0446160" lon="-0.4272850">
        <ele>424.4</ele>
        <time>2020-07-28T11:27:16Z</time>
      </trkpt>
      <trkpt lat="43.0449650" lon="-0.4275360">
        <ele>424.2</ele>
        <time>2020-07-28T11:27:21Z</time>
      </trkpt>
      <trkpt lat="43.0453510" lon="-0.4278260">
        <ele>425.4</ele>
        <time>2020-07-28T11:27:27Z</time>
      </trkpt>
      <trkpt lat="43.0454070" lon="-0.4278770">
        <ele>425.4</ele>
        <time>2020-07-28T11:27:28Z</time>
      </trkpt>
      <trkpt lat="43.0454620" lon="-0.4279290">
        <ele>425.4</ele>
        <time>2020-07-28T11:27:29Z</time>
      </trkpt>
      <trkpt lat="43.0457450" lon="-0.4281880">
        <ele>425.6</ele>
        <time>2020-07-28T11:27:34Z</time>
      </trkpt>
      <trkpt lat="43.0458560" lon="-0.4282910">
        <ele>425.8</ele>
        <time>2020-07-28T11:27:36Z</time>
      </trkpt>
      <trkpt lat="43.0462040" lon="-0.4286030">
        <ele>425.8</ele>
        <time>2020-07-28T11:27:42Z</time>
      </trkpt>
      <trkpt lat="43.0464400" lon="-0.4288010">
        <ele>425.4</ele>
        <time>2020-07-28T11:27:46Z</time>
      </trkpt>
      <trkpt lat="43.0468080" lon="-0.4290630">
        <ele>425.4</ele>
        <time>2020-07-28T11:27:52Z</time>
      </trkpt>
      <trkpt lat="43.0469320" lon="-0.4291360">
        <ele>425.6</ele>
        <time>2020-07-28T11:27:54Z</time>
      </trkpt>
      <trkpt lat="43.0473090" lon="-0.4293240">
        <ele>426.0</ele>
        <time>2020-07-28T11:28:00Z</time>
      </trkpt>
      <trkpt lat="43.0474350" lon="-0.4293830">
        <ele>426.0</ele>
        <time>2020-07-28T11:28:02Z</time>
      </trkpt>
      <trkpt lat="43.0478250" lon="-0.4295420">
        <ele>426.0</ele>
        <time>2020-07-28T11:28:08Z</time>
      </trkpt>
      <trkpt lat="43.0480220" lon="-0.4296110">
        <ele>426.0</ele>
        <time>2020-07-28T11:28:11Z</time>
      </trkpt>
      <trkpt lat="43.0484060" lon="-0.4297240">
        <ele>426.0</ele>
        <time>2020-07-28T11:28:17Z</time>
      </trkpt>
      <trkpt lat="43.0485290" lon="-0.4297590">
        <ele>426.2</ele>
        <time>2020-07-28T11:28:19Z</time>
      </trkpt>
      <trkpt lat="43.0486570" lon="-0.4297820">
        <ele>426.6</ele>
        <time>2020-07-28T11:28:21Z</time>
      </trkpt>
      <trkpt lat="43.0489090" lon="-0.4298430">
        <ele>426.4</ele>
        <time>2020-07-28T11:28:25Z</time>
      </trkpt>
      <trkpt lat="43.0489740" lon="-0.4298620">
        <ele>426.2</ele>
        <time>2020-07-28T11:28:26Z</time>
      </trkpt>
      <trkpt lat="43.0493910" lon="-0.4299790">
        <ele>426.0</ele>
        <time>2020-07-28T11:28:32Z</time>
      </trkpt>
      <trkpt lat="43.0494630" lon="-0.4299980">
        <ele>426.0</ele>
        <time>2020-07-28T11:28:33Z</time>
      </trkpt>
      <trkpt lat="43.0497580" lon="-0.4300810">
        <ele>426.0</ele>
        <time>2020-07-28T11:28:37Z</time>
      </trkpt>
      <trkpt lat="43.0498270" lon="-0.4301050">
        <ele>426.0</ele>
        <time>2020-07-28T11:28:38Z</time>
      </trkpt>
      <trkpt lat="43.0500850" lon="-0.4301780">
        <ele>427.2</ele>
        <time>2020-07-28T11:28:42Z</time>
      </trkpt>
      <trkpt lat="43.0501940" lon="-0.4302050">
        <ele>427.8</ele>
        <time>2020-07-28T11:28:44Z</time>
      </trkpt>
      <trkpt lat="43.0503240" lon="-0.4302470">
        <ele>428.4</ele>
        <time>2020-07-28T11:28:47Z</time>
      </trkpt>
      <trkpt lat="43.0503640" lon="-0.4302550">
        <ele>428.8</ele>
        <time>2020-07-28T11:28:48Z</time>
      </trkpt>
      <trkpt lat="43.0505790" lon="-0.4303100">
        <ele>430.0</ele>
        <time>2020-07-28T11:28:53Z</time>
      </trkpt>
      <trkpt lat="43.0506230" lon="-0.4303230">
        <ele>430.4</ele>
        <time>2020-07-28T11:28:54Z</time>
      </trkpt>
      <trkpt lat="43.0506670" lon="-0.4303370">
        <ele>430.8</ele>
        <time>2020-07-28T11:28:55Z</time>
      </trkpt>
      <trkpt lat="43.0507130" lon="-0.4303480">
        <ele>431.2</ele>
        <time>2020-07-28T11:28:56Z</time>
      </trkpt>
      <trkpt lat="43.0508500" lon="-0.4303880">
        <ele>431.8</ele>
        <time>2020-07-28T11:28:59Z</time>
      </trkpt>
      <trkpt lat="43.0508950" lon="-0.4304030">
        <ele>432.0</ele>
        <time>2020-07-28T11:29:00Z</time>
      </trkpt>
      <trkpt lat="43.0511920" lon="-0.4304810">
        <ele>432.2</ele>
        <time>2020-07-28T11:29:06Z</time>
      </trkpt>
      <trkpt lat="43.0512440" lon="-0.4304930">
        <ele>432.2</ele>
        <time>2020-07-28T11:29:07Z</time>
      </trkpt>
      <trkpt lat="43.0512950" lon="-0.4305050">
        <ele>432.4</ele>
        <time>2020-07-28T11:29:08Z</time>
      </trkpt>
      <trkpt lat="43.0515420" lon="-0.4305660">
        <ele>432.6</ele>
        <time>2020-07-28T11:29:13Z</time>
      </trkpt>
      <trkpt lat="43.0517430" lon="-0.4306210">
        <ele>433.4</ele>
        <time>2020-07-28T11:29:17Z</time>
      </trkpt>
      <trkpt lat="43.0518400" lon="-0.4306510">
        <ele>433.8</ele>
        <time>2020-07-28T11:29:19Z</time>
      </trkpt>
      <trkpt lat="43.0521350" lon="-0.4307350">
        <ele>434.4</ele>
        <time>2020-07-28T11:29:25Z</time>
      </trkpt>
      <trkpt lat="43.0521860" lon="-0.4307520">
        <ele>434.4</ele>
        <time>2020-07-28T11:29:26Z</time>
      </trkpt>
      <trkpt lat="43.0524870" lon="-0.4308330">
        <ele>434.6</ele>
        <time>2020-07-28T11:29:32Z</time>
      </trkpt>
      <trkpt lat="43.0525370" lon="-0.4308440">
        <ele>434.6</ele>
        <time>2020-07-28T11:29:33Z</time>
      </trkpt>
      <trkpt lat="43.0526390" lon="-0.4308630">
        <ele>434.8</ele>
        <time>2020-07-28T11:29:35Z</time>
      </trkpt>
      <trkpt lat="43.0526900" lon="-0.4308740">
        <ele>434.8</ele>
        <time>2020-07-28T11:29:36Z</time>
      </trkpt>
      <trkpt lat="43.0527900" lon="-0.4308990">
        <ele>435.0</ele>
        <time>2020-07-28T11:29:38Z</time>
      </trkpt>
      <trkpt lat="43.0528910" lon="-0.4309290">
        <ele>435.4</ele>
        <time>2020-07-28T11:29:40Z</time>
      </trkpt>
      <trkpt lat="43.0529950" lon="-0.4309560">
        <ele>435.4</ele>
        <time>2020-07-28T11:29:42Z</time>
      </trkpt>
      <trkpt lat="43.0531540" lon="-0.4309800">
        <ele>435.6</ele>
        <time>2020-07-28T11:29:45Z</time>
      </trkpt>
      <trkpt lat="43.0532050" lon="-0.4309880">
        <ele>435.8</ele>
        <time>2020-07-28T11:29:46Z</time>
      </trkpt>
      <trkpt lat="43.0533050" lon="-0.4310040">
        <ele>436.2</ele>
        <time>2020-07-28T11:29:48Z</time>
      </trkpt>
      <trkpt lat="43.0534060" lon="-0.4310160">
        <ele>436.4</ele>
        <time>2020-07-28T11:29:50Z</time>
      </trkpt>
      <trkpt lat="43.0537030" lon="-0.4310760">
        <ele>436.2</ele>
        <time>2020-07-28T11:29:56Z</time>
      </trkpt>
      <trkpt lat="43.0540080" lon="-0.4311620">
        <ele>437.0</ele>
        <time>2020-07-28T11:30:02Z</time>
      </trkpt>
      <trkpt lat="43.0542120" lon="-0.4312140">
        <ele>437.2</ele>
        <time>2020-07-28T11:30:06Z</time>
      </trkpt>
      <trkpt lat="43.0544690" lon="-0.4312800">
        <ele>437.4</ele>
        <time>2020-07-28T11:30:11Z</time>
      </trkpt>
      <trkpt lat="43.0546260" lon="-0.4313110">
        <ele>437.4</ele>
        <time>2020-07-28T11:30:14Z</time>
      </trkpt>
      <trkpt lat="43.0547270" lon="-0.4313260">
        <ele>437.8</ele>
        <time>2020-07-28T11:30:16Z</time>
      </trkpt>
      <trkpt lat="43.0548240" lon="-0.4313490">
        <ele>438.0</ele>
        <time>2020-07-28T11:30:18Z</time>
      </trkpt>
      <trkpt lat="43.0549740" lon="-0.4313710">
        <ele>438.2</ele>
        <time>2020-07-28T11:30:21Z</time>
      </trkpt>
      <trkpt lat="43.0551300" lon="-0.4313500">
        <ele>438.6</ele>
        <time>2020-07-28T11:30:25Z</time>
      </trkpt>
      <trkpt lat="43.0551490" lon="-0.4313480">
        <ele>438.8</ele>
        <time>2020-07-28T11:30:26Z</time>
      </trkpt>
      <trkpt lat="43.0551590" lon="-0.4313510">
        <ele>439.0</ele>
        <time>2020-07-28T11:30:27Z</time>
      </trkpt>
      <trkpt lat="43.0552890" lon="-0.4313730">
        <ele>439.4</ele>
        <time>2020-07-28T11:55:29Z</time>
      </trkpt>
      <trkpt lat="43.0553130" lon="-0.4313570">
        <ele>439.4</ele>
        <time>2020-07-28T11:55:30Z</time>
      </trkpt>
      <trkpt lat="43.0553410" lon="-0.4313380">
        <ele>439.4</ele>
        <time>2020-07-28T11:55:31Z</time>
      </trkpt>
      <trkpt lat="43.0554930" lon="-0.4312580">
        <ele>438.6</ele>
        <time>2020-07-28T11:55:35Z</time>
      </trkpt>
      <trkpt lat="43.0555380" lon="-0.4312400">
        <ele>438.6</ele>
        <time>2020-07-28T11:55:36Z</time>
      </trkpt>
      <trkpt lat="43.0556280" lon="-0.4311980">
        <ele>438.2</ele>
        <time>2020-07-28T11:55:38Z</time>
      </trkpt>
      <trkpt lat="43.0557550" lon="-0.4311400">
        <ele>438.2</ele>
        <time>2020-07-28T11:55:41Z</time>
      </trkpt>
      <trkpt lat="43.0557960" lon="-0.4311160">
        <ele>438.4</ele>
        <time>2020-07-28T11:55:42Z</time>
      </trkpt>
      <trkpt lat="43.0560510" lon="-0.4309450">
        <ele>438.6</ele>
        <time>2020-07-28T11:55:48Z</time>
      </trkpt>
      <trkpt lat="43.0560950" lon="-0.4309170">
        <ele>438.6</ele>
        <time>2020-07-28T11:55:49Z</time>
      </trkpt>
      <trkpt lat="43.0563830" lon="-0.4307420">
        <ele>438.0</ele>
        <time>2020-07-28T11:55:55Z</time>
      </trkpt>
      <trkpt lat="43.0565310" lon="-0.4306530">
        <ele>438.0</ele>
        <time>2020-07-28T11:55:58Z</time>
      </trkpt>
      <trkpt lat="43.0566830" lon="-0.4305630">
        <ele>438.0</ele>
        <time>2020-07-28T11:56:01Z</time>
      </trkpt>
      <trkpt lat="43.0568350" lon="-0.4304600">
        <ele>438.2</ele>
        <time>2020-07-28T11:56:04Z</time>
      </trkpt>
      <trkpt lat="43.0568820" lon="-0.4304240">
        <ele>438.2</ele>
        <time>2020-07-28T11:56:05Z</time>
      </trkpt>
      <trkpt lat="43.0570260" lon="-0.4302960">
        <ele>437.6</ele>
        <time>2020-07-28T11:56:08Z</time>
      </trkpt>
      <trkpt lat="43.0571660" lon="-0.4301590">
        <ele>436.6</ele>
        <time>2020-07-28T11:56:11Z</time>
      </trkpt>
      <trkpt lat="43.0572150" lon="-0.4301160">
        <ele>436.4</ele>
        <time>2020-07-28T11:56:12Z</time>
      </trkpt>
      <trkpt lat="43.0575090" lon="-0.4298470">
        <ele>436.0</ele>
        <time>2020-07-28T11:56:18Z</time>
      </trkpt>
      <trkpt lat="43.0575570" lon="-0.4298020">
        <ele>435.8</ele>
        <time>2020-07-28T11:56:19Z</time>
      </trkpt>
      <trkpt lat="43.0576040" lon="-0.4297630">
        <ele>435.6</ele>
        <time>2020-07-28T11:56:20Z</time>
      </trkpt>
      <trkpt lat="43.0576530" lon="-0.4297490">
        <ele>435.6</ele>
        <time>2020-07-28T11:56:21Z</time>
      </trkpt>
      <trkpt lat="43.0577050" lon="-0.4297640">
        <ele>435.6</ele>
        <time>2020-07-28T11:56:22Z</time>
      </trkpt>
      <trkpt lat="43.0577810" lon="-0.4298770">
        <ele>436.0</ele>
        <time>2020-07-28T11:56:24Z</time>
      </trkpt>
      <trkpt lat="43.0579380" lon="-0.4302520">
        <ele>436.2</ele>
        <time>2020-07-28T11:56:29Z</time>
      </trkpt>
      <trkpt lat="43.0579700" lon="-0.4303280">
        <ele>436.4</ele>
        <time>2020-07-28T11:56:30Z</time>
      </trkpt>
      <trkpt lat="43.0580740" lon="-0.4307280">
        <ele>437.6</ele>
        <time>2020-07-28T11:56:35Z</time>
      </trkpt>
      <trkpt lat="43.0580860" lon="-0.4308060">
        <ele>437.8</ele>
        <time>2020-07-28T11:56:36Z</time>
      </trkpt>
      <trkpt lat="43.0581100" lon="-0.4310460">
        <ele>438.8</ele>
        <time>2020-07-28T11:56:39Z</time>
      </trkpt>
      <trkpt lat="43.0581330" lon="-0.4312820">
        <ele>440.0</ele>
        <time>2020-07-28T11:56:42Z</time>
      </trkpt>
      <trkpt lat="43.0581360" lon="-0.4313620">
        <ele>440.2</ele>
        <time>2020-07-28T11:56:43Z</time>
      </trkpt>
      <trkpt lat="43.0581390" lon="-0.4314420">
        <ele>440.4</ele>
        <time>2020-07-28T11:56:44Z</time>
      </trkpt>
      <trkpt lat="43.0581480" lon="-0.4317510">
        <ele>441.2</ele>
        <time>2020-07-28T11:56:48Z</time>
      </trkpt>
      <trkpt lat="43.0581510" lon="-0.4319760">
        <ele>442.0</ele>
        <time>2020-07-28T11:56:51Z</time>
      </trkpt>
      <trkpt lat="43.0581540" lon="-0.4320510">
        <ele>442.2</ele>
        <time>2020-07-28T11:56:52Z</time>
      </trkpt>
      <trkpt lat="43.0581580" lon="-0.4324910">
        <ele>443.2</ele>
        <time>2020-07-28T11:56:58Z</time>
      </trkpt>
      <trkpt lat="43.0581580" lon="-0.4325650">
        <ele>443.4</ele>
        <time>2020-07-28T11:56:59Z</time>
      </trkpt>
      <trkpt lat="43.0581570" lon="-0.4329300">
        <ele>444.2</ele>
        <time>2020-07-28T11:57:04Z</time>
      </trkpt>
      <trkpt lat="43.0581480" lon="-0.4331430">
        <ele>444.8</ele>
        <time>2020-07-28T11:57:07Z</time>
      </trkpt>
      <trkpt lat="43.0581330" lon="-0.4333530">
        <ele>445.6</ele>
        <time>2020-07-28T11:57:10Z</time>
      </trkpt>
      <trkpt lat="43.0581130" lon="-0.4336270">
        <ele>446.6</ele>
        <time>2020-07-28T11:57:14Z</time>
      </trkpt>
      <trkpt lat="43.0580900" lon="-0.4338920">
        <ele>447.2</ele>
        <time>2020-07-28T11:57:18Z</time>
      </trkpt>
      <trkpt lat="43.0580760" lon="-0.4340820">
        <ele>447.6</ele>
        <time>2020-07-28T11:57:21Z</time>
      </trkpt>
      <trkpt lat="43.0580590" lon="-0.4343320">
        <ele>448.6</ele>
        <time>2020-07-28T11:57:25Z</time>
      </trkpt>
      <trkpt lat="43.0580370" lon="-0.4345880">
        <ele>449.4</ele>
        <time>2020-07-28T11:57:29Z</time>
      </trkpt>
      <trkpt lat="43.0580260" lon="-0.4347130">
        <ele>449.8</ele>
        <time>2020-07-28T11:57:31Z</time>
      </trkpt>
      <trkpt lat="43.0579870" lon="-0.4350510">
        <ele>451.0</ele>
        <time>2020-07-28T11:57:37Z</time>
      </trkpt>
      <trkpt lat="43.0579780" lon="-0.4351000">
        <ele>451.2</ele>
        <time>2020-07-28T11:57:38Z</time>
      </trkpt>
      <trkpt lat="43.0579460" lon="-0.4352320">
        <ele>452.4</ele>
        <time>2020-07-28T11:57:41Z</time>
      </trkpt>
      <trkpt lat="43.0578950" lon="-0.4353910">
        <ele>453.6</ele>
        <time>2020-07-28T11:57:45Z</time>
      </trkpt>
      <trkpt lat="43.0578250" lon="-0.4355800">
        <ele>454.8</ele>
        <time>2020-07-28T11:57:50Z</time>
      </trkpt>
      <trkpt lat="43.0577790" lon="-0.4356920">
        <ele>455.8</ele>
        <time>2020-07-28T11:57:53Z</time>
      </trkpt>
      <trkpt lat="43.0577350" lon="-0.4357970">
        <ele>456.8</ele>
        <time>2020-07-28T11:57:56Z</time>
      </trkpt>
      <trkpt lat="43.0577210" lon="-0.4358340">
        <ele>457.0</ele>
        <time>2020-07-28T11:57:57Z</time>
      </trkpt>
      <trkpt lat="43.0576670" lon="-0.4359760">
        <ele>458.0</ele>
        <time>2020-07-28T11:58:01Z</time>
      </trkpt>
      <trkpt lat="43.0576330" lon="-0.4360420">
        <ele>458.6</ele>
        <time>2020-07-28T11:58:03Z</time>
      </trkpt>
      <trkpt lat="43.0575990" lon="-0.4361060">
        <ele>459.2</ele>
        <time>2020-07-28T11:58:05Z</time>
      </trkpt>
      <trkpt lat="43.0575380" lon="-0.4362420">
        <ele>460.2</ele>
        <time>2020-07-28T11:58:09Z</time>
      </trkpt>
      <trkpt lat="43.0574800" lon="-0.4363830">
        <ele>461.2</ele>
        <time>2020-07-28T11:58:13Z</time>
      </trkpt>
      <trkpt lat="43.0574250" lon="-0.4365300">
        <ele>462.2</ele>
        <time>2020-07-28T11:58:17Z</time>
      </trkpt>
      <trkpt lat="43.0574090" lon="-0.4365660">
        <ele>462.4</ele>
        <time>2020-07-28T11:58:18Z</time>
      </trkpt>
      <trkpt lat="43.0573620" lon="-0.4366710">
        <ele>463.4</ele>
        <time>2020-07-28T11:58:21Z</time>
      </trkpt>
      <trkpt lat="43.0573460" lon="-0.4367060">
        <ele>463.8</ele>
        <time>2020-07-28T11:58:22Z</time>
      </trkpt>
      <trkpt lat="43.0573310" lon="-0.4367430">
        <ele>464.0</ele>
        <time>2020-07-28T11:58:23Z</time>
      </trkpt>
      <trkpt lat="43.0572900" lon="-0.4368600">
        <ele>465.0</ele>
        <time>2020-07-28T11:58:26Z</time>
      </trkpt>
      <trkpt lat="43.0572540" lon="-0.4369850">
        <ele>465.8</ele>
        <time>2020-07-28T11:58:29Z</time>
      </trkpt>
      <trkpt lat="43.0572440" lon="-0.4370290">
        <ele>466.0</ele>
        <time>2020-07-28T11:58:30Z</time>
      </trkpt>
      <trkpt lat="43.0572360" lon="-0.4370740">
        <ele>466.2</ele>
        <time>2020-07-28T11:58:31Z</time>
      </trkpt>
      <trkpt lat="43.0572200" lon="-0.4372590">
        <ele>467.2</ele>
        <time>2020-07-28T11:58:35Z</time>
      </trkpt>
      <trkpt lat="43.0572160" lon="-0.4374410">
        <ele>468.2</ele>
        <time>2020-07-28T11:58:39Z</time>
      </trkpt>
      <trkpt lat="43.0572170" lon="-0.4374840">
        <ele>468.4</ele>
        <time>2020-07-28T11:58:40Z</time>
      </trkpt>
      <trkpt lat="43.0572200" lon="-0.4375270">
        <ele>468.8</ele>
        <time>2020-07-28T11:58:41Z</time>
      </trkpt>
      <trkpt lat="43.0572380" lon="-0.4376970">
        <ele>469.6</ele>
        <time>2020-07-28T11:58:45Z</time>
      </trkpt>
      <trkpt lat="43.0572490" lon="-0.4377820">
        <ele>470.2</ele>
        <time>2020-07-28T11:58:47Z</time>
      </trkpt>
      <trkpt lat="43.0572650" lon="-0.4378640">
        <ele>471.0</ele>
        <time>2020-07-28T11:58:49Z</time>
      </trkpt>
      <trkpt lat="43.0572990" lon="-0.4380190">
        <ele>472.0</ele>
        <time>2020-07-28T11:58:53Z</time>
      </trkpt>
      <trkpt lat="43.0573380" lon="-0.4381590">
        <ele>473.0</ele>
        <time>2020-07-28T11:58:57Z</time>
      </trkpt>
      <trkpt lat="43.0573470" lon="-0.4381930">
        <ele>473.4</ele>
        <time>2020-07-28T11:58:58Z</time>
      </trkpt>
      <trkpt lat="43.0573810" lon="-0.4383300">
        <ele>474.4</ele>
        <time>2020-07-28T11:59:02Z</time>
      </trkpt>
      <trkpt lat="43.0573870" lon="-0.4383650">
        <ele>474.6</ele>
        <time>2020-07-28T11:59:03Z</time>
      </trkpt>
      <trkpt lat="43.0574100" lon="-0.4384640">
        <ele>475.6</ele>
        <time>2020-07-28T11:59:06Z</time>
      </trkpt>
      <trkpt lat="43.0574210" lon="-0.4385320">
        <ele>476.2</ele>
        <time>2020-07-28T11:59:08Z</time>
      </trkpt>
      <trkpt lat="43.0574360" lon="-0.4385970">
        <ele>476.8</ele>
        <time>2020-07-28T11:59:10Z</time>
      </trkpt>
      <trkpt lat="43.0574620" lon="-0.4387240">
        <ele>478.0</ele>
        <time>2020-07-28T11:59:14Z</time>
      </trkpt>
      <trkpt lat="43.0574770" lon="-0.4388170">
        <ele>478.8</ele>
        <time>2020-07-28T11:59:17Z</time>
      </trkpt>
      <trkpt lat="43.0574820" lon="-0.4388470">
        <ele>479.0</ele>
        <time>2020-07-28T11:59:18Z</time>
      </trkpt>
      <trkpt lat="43.0574930" lon="-0.4389770">
        <ele>480.2</ele>
        <time>2020-07-28T11:59:22Z</time>
      </trkpt>
      <trkpt lat="43.0574970" lon="-0.4390760">
        <ele>481.2</ele>
        <time>2020-07-28T11:59:25Z</time>
      </trkpt>
      <trkpt lat="43.0574960" lon="-0.4391400">
        <ele>481.6</ele>
        <time>2020-07-28T11:59:27Z</time>
      </trkpt>
      <trkpt lat="43.0575040" lon="-0.4392030">
        <ele>482.2</ele>
        <time>2020-07-28T11:59:29Z</time>
      </trkpt>
      <trkpt lat="43.0575220" lon="-0.4393300">
        <ele>483.6</ele>
        <time>2020-07-28T11:59:33Z</time>
      </trkpt>
      <trkpt lat="43.0575220" lon="-0.4393620">
        <ele>483.8</ele>
        <time>2020-07-28T11:59:34Z</time>
      </trkpt>
      <trkpt lat="43.0575330" lon="-0.4394600">
        <ele>484.6</ele>
        <time>2020-07-28T11:59:37Z</time>
      </trkpt>
      <trkpt lat="43.0575570" lon="-0.4395750">
        <ele>485.6</ele>
        <time>2020-07-28T11:59:41Z</time>
      </trkpt>
      <trkpt lat="43.0575630" lon="-0.4396030">
        <ele>485.8</ele>
        <time>2020-07-28T11:59:42Z</time>
      </trkpt>
      <trkpt lat="43.0576120" lon="-0.4397450">
        <ele>487.2</ele>
        <time>2020-07-28T11:59:47Z</time>
      </trkpt>
      <trkpt lat="43.0576370" lon="-0.4397940">
        <ele>487.6</ele>
        <time>2020-07-28T11:59:49Z</time>
      </trkpt>
      <trkpt lat="43.0576600" lon="-0.4398330">
        <ele>488.2</ele>
        <time>2020-07-28T11:59:51Z</time>
      </trkpt>
      <trkpt lat="43.0577190" lon="-0.4398880">
        <ele>489.4</ele>
        <time>2020-07-28T11:59:55Z</time>
      </trkpt>
      <trkpt lat="43.0577370" lon="-0.4398930">
        <ele>489.8</ele>
        <time>2020-07-28T11:59:56Z</time>
      </trkpt>
      <trkpt lat="43.0578230" lon="-0.4399220">
        <ele>490.6</ele>
        <time>2020-07-28T12:00:00Z</time>
      </trkpt>
      <trkpt lat="43.0578930" lon="-0.4399060">
        <ele>491.4</ele>
        <time>2020-07-28T12:00:03Z</time>
      </trkpt>
      <trkpt lat="43.0579150" lon="-0.4398920">
        <ele>491.6</ele>
        <time>2020-07-28T12:00:04Z</time>
      </trkpt>
      <trkpt lat="43.0579920" lon="-0.4398390">
        <ele>492.4</ele>
        <time>2020-07-28T12:00:08Z</time>
      </trkpt>
      <trkpt lat="43.0580090" lon="-0.4398260">
        <ele>492.6</ele>
        <time>2020-07-28T12:00:09Z</time>
      </trkpt>
      <trkpt lat="43.0580440" lon="-0.4397900">
        <ele>493.4</ele>
        <time>2020-07-28T12:00:11Z</time>
      </trkpt>
      <trkpt lat="43.0580790" lon="-0.4397540">
        <ele>493.8</ele>
        <time>2020-07-28T12:00:13Z</time>
      </trkpt>
      <trkpt lat="43.0581380" lon="-0.4396970">
        <ele>494.8</ele>
        <time>2020-07-28T12:00:16Z</time>
      </trkpt>
      <trkpt lat="43.0581930" lon="-0.4396370">
        <ele>495.6</ele>
        <time>2020-07-28T12:00:19Z</time>
      </trkpt>
      <trkpt lat="43.0582400" lon="-0.4395760">
        <ele>496.2</ele>
        <time>2020-07-28T12:00:22Z</time>
      </trkpt>
      <trkpt lat="43.0582970" lon="-0.4395030">
        <ele>497.4</ele>
        <time>2020-07-28T12:00:26Z</time>
      </trkpt>
      <trkpt lat="43.0583090" lon="-0.4394840">
        <ele>497.6</ele>
        <time>2020-07-28T12:00:27Z</time>
      </trkpt>
      <trkpt lat="43.0583950" lon="-0.4393830">
        <ele>498.4</ele>
        <time>2020-07-28T12:00:33Z</time>
      </trkpt>
      <trkpt lat="43.0584440" lon="-0.4393300">
        <ele>499.4</ele>
        <time>2020-07-28T12:00:36Z</time>
      </trkpt>
      <trkpt lat="43.0584590" lon="-0.4393140">
        <ele>499.8</ele>
        <time>2020-07-28T12:00:37Z</time>
      </trkpt>
      <trkpt lat="43.0585410" lon="-0.4392270">
        <ele>501.0</ele>
        <time>2020-07-28T12:00:42Z</time>
      </trkpt>
      <trkpt lat="43.0585550" lon="-0.4392070">
        <ele>501.2</ele>
        <time>2020-07-28T12:00:43Z</time>
      </trkpt>
      <trkpt lat="43.0586000" lon="-0.4391450">
        <ele>502.0</ele>
        <time>2020-07-28T12:00:46Z</time>
      </trkpt>
      <trkpt lat="43.0586440" lon="-0.4390840">
        <ele>502.8</ele>
        <time>2020-07-28T12:00:49Z</time>
      </trkpt>
      <trkpt lat="43.0586740" lon="-0.4390450">
        <ele>503.2</ele>
        <time>2020-07-28T12:00:51Z</time>
      </trkpt>
      <trkpt lat="43.0586980" lon="-0.4389990">
        <ele>503.6</ele>
        <time>2020-07-28T12:00:53Z</time>
      </trkpt>
      <trkpt lat="43.0587370" lon="-0.4389330">
        <ele>504.2</ele>
        <time>2020-07-28T12:00:56Z</time>
      </trkpt>
      <trkpt lat="43.0587500" lon="-0.4389120">
        <ele>504.4</ele>
        <time>2020-07-28T12:00:57Z</time>
      </trkpt>
      <trkpt lat="43.0587950" lon="-0.4387980">
        <ele>505.4</ele>
        <time>2020-07-28T12:01:01Z</time>
      </trkpt>
      <trkpt lat="43.0588290" lon="-0.4387090">
        <ele>506.0</ele>
        <time>2020-07-28T12:01:04Z</time>
      </trkpt>
      <trkpt lat="43.0588550" lon="-0.4386560">
        <ele>506.4</ele>
        <time>2020-07-28T12:01:06Z</time>
      </trkpt>
      <trkpt lat="43.0589040" lon="-0.4385470">
        <ele>507.4</ele>
        <time>2020-07-28T12:01:10Z</time>
      </trkpt>
      <trkpt lat="43.0589140" lon="-0.4385190">
        <ele>507.8</ele>
        <time>2020-07-28T12:01:11Z</time>
      </trkpt>
      <trkpt lat="43.0589250" lon="-0.4384930">
        <ele>508.2</ele>
        <time>2020-07-28T12:01:12Z</time>
      </trkpt>
      <trkpt lat="43.0589500" lon="-0.4384410">
        <ele>508.6</ele>
        <time>2020-07-28T12:01:14Z</time>
      </trkpt>
      <trkpt lat="43.0589870" lon="-0.4383630">
        <ele>509.2</ele>
        <time>2020-07-28T12:01:17Z</time>
      </trkpt>
      <trkpt lat="43.0590020" lon="-0.4383410">
        <ele>509.6</ele>
        <time>2020-07-28T12:01:18Z</time>
      </trkpt>
      <trkpt lat="43.0590170" lon="-0.4383190">
        <ele>510.0</ele>
        <time>2020-07-28T12:01:19Z</time>
      </trkpt>
      <trkpt lat="43.0590640" lon="-0.4382530">
        <ele>510.6</ele>
        <time>2020-07-28T12:01:22Z</time>
      </trkpt>
      <trkpt lat="43.0591170" lon="-0.4382050">
        <ele>511.2</ele>
        <time>2020-07-28T12:01:25Z</time>
      </trkpt>
      <trkpt lat="43.0591580" lon="-0.4381780">
        <ele>511.8</ele>
        <time>2020-07-28T12:01:27Z</time>
      </trkpt>
      <trkpt lat="43.0592610" lon="-0.4381240">
        <ele>513.0</ele>
        <time>2020-07-28T12:01:32Z</time>
      </trkpt>
      <trkpt lat="43.0593000" lon="-0.4381110">
        <ele>513.6</ele>
        <time>2020-07-28T12:01:34Z</time>
      </trkpt>
      <trkpt lat="43.0593660" lon="-0.4380910">
        <ele>514.2</ele>
        <time>2020-07-28T12:01:37Z</time>
      </trkpt>
      <trkpt lat="43.0594790" lon="-0.4380690">
        <ele>515.6</ele>
        <time>2020-07-28T12:01:42Z</time>
      </trkpt>
      <trkpt lat="43.0595480" lon="-0.4380550">
        <ele>516.6</ele>
        <time>2020-07-28T12:01:45Z</time>
      </trkpt>
      <trkpt lat="43.0596550" lon="-0.4380380">
        <ele>517.4</ele>
        <time>2020-07-28T12:01:50Z</time>
      </trkpt>
      <trkpt lat="43.0596790" lon="-0.4380370">
        <ele>517.8</ele>
        <time>2020-07-28T12:01:51Z</time>
      </trkpt>
      <trkpt lat="43.0597660" lon="-0.4380230">
        <ele>519.0</ele>
        <time>2020-07-28T12:01:55Z</time>
      </trkpt>
      <trkpt lat="43.0597910" lon="-0.4380200">
        <ele>519.2</ele>
        <time>2020-07-28T12:01:56Z</time>
      </trkpt>
      <trkpt lat="43.0598140" lon="-0.4380150">
        <ele>519.4</ele>
        <time>2020-07-28T12:01:57Z</time>
      </trkpt>
      <trkpt lat="43.0598790" lon="-0.4379980">
        <ele>520.2</ele>
        <time>2020-07-28T12:02:00Z</time>
      </trkpt>
      <trkpt lat="43.0599920" lon="-0.4379790">
        <ele>521.2</ele>
        <time>2020-07-28T12:02:05Z</time>
      </trkpt>
      <trkpt lat="43.0600150" lon="-0.4379760">
        <ele>521.4</ele>
        <time>2020-07-28T12:02:06Z</time>
      </trkpt>
      <trkpt lat="43.0600770" lon="-0.4379640">
        <ele>522.4</ele>
        <time>2020-07-28T12:02:09Z</time>
      </trkpt>
      <trkpt lat="43.0601870" lon="-0.4379490">
        <ele>523.6</ele>
        <time>2020-07-28T12:02:14Z</time>
      </trkpt>
      <trkpt lat="43.0602090" lon="-0.4379450">
        <ele>523.8</ele>
        <time>2020-07-28T12:02:15Z</time>
      </trkpt>
      <trkpt lat="43.0602950" lon="-0.4379360">
        <ele>524.8</ele>
        <time>2020-07-28T12:02:19Z</time>
      </trkpt>
      <trkpt lat="43.0603820" lon="-0.4379360">
        <ele>525.6</ele>
        <time>2020-07-28T12:02:23Z</time>
      </trkpt>
      <trkpt lat="43.0604040" lon="-0.4379370">
        <ele>525.8</ele>
        <time>2020-07-28T12:02:24Z</time>
      </trkpt>
      <trkpt lat="43.0605180" lon="-0.4379290">
        <ele>527.2</ele>
        <time>2020-07-28T12:02:29Z</time>
      </trkpt>
      <trkpt lat="43.0605860" lon="-0.4379110">
        <ele>527.6</ele>
        <time>2020-07-28T12:02:32Z</time>
      </trkpt>
      <trkpt lat="43.0606300" lon="-0.4379020">
        <ele>528.2</ele>
        <time>2020-07-28T12:02:34Z</time>
      </trkpt>
      <trkpt lat="43.0607430" lon="-0.4379020">
        <ele>529.6</ele>
        <time>2020-07-28T12:02:39Z</time>
      </trkpt>
      <trkpt lat="43.0607660" lon="-0.4379020">
        <ele>529.8</ele>
        <time>2020-07-28T12:02:40Z</time>
      </trkpt>
      <trkpt lat="43.0608540" lon="-0.4378990">
        <ele>530.6</ele>
        <time>2020-07-28T12:02:44Z</time>
      </trkpt>
      <trkpt lat="43.0609510" lon="-0.4379000">
        <ele>531.8</ele>
        <time>2020-07-28T12:02:48Z</time>
      </trkpt>
      <trkpt lat="43.0610160" lon="-0.4378800">
        <ele>532.6</ele>
        <time>2020-07-28T12:02:51Z</time>
      </trkpt>
      <trkpt lat="43.0610360" lon="-0.4378760">
        <ele>532.8</ele>
        <time>2020-07-28T12:02:52Z</time>
      </trkpt>
      <trkpt lat="43.0610960" lon="-0.4378590">
        <ele>533.4</ele>
        <time>2020-07-28T12:02:55Z</time>
      </trkpt>
      <trkpt lat="43.0611370" lon="-0.4378360">
        <ele>533.8</ele>
        <time>2020-07-28T12:02:57Z</time>
      </trkpt>
      <trkpt lat="43.0612200" lon="-0.4377980">
        <ele>535.0</ele>
        <time>2020-07-28T12:03:01Z</time>
      </trkpt>
      <trkpt lat="43.0612610" lon="-0.4377750">
        <ele>535.4</ele>
        <time>2020-07-28T12:03:03Z</time>
      </trkpt>
      <trkpt lat="43.0613410" lon="-0.4377240">
        <ele>536.2</ele>
        <time>2020-07-28T12:03:07Z</time>
      </trkpt>
      <trkpt lat="43.0613930" lon="-0.4376800">
        <ele>537.0</ele>
        <time>2020-07-28T12:03:10Z</time>
      </trkpt>
      <trkpt lat="43.0614110" lon="-0.4376670">
        <ele>537.4</ele>
        <time>2020-07-28T12:03:11Z</time>
      </trkpt>
      <trkpt lat="43.0614690" lon="-0.4376050">
        <ele>538.4</ele>
        <time>2020-07-28T12:03:15Z</time>
      </trkpt>
      <trkpt lat="43.0615160" lon="-0.4375580">
        <ele>539.2</ele>
        <time>2020-07-28T12:03:18Z</time>
      </trkpt>
      <trkpt lat="43.0615600" lon="-0.4375400">
        <ele>539.6</ele>
        <time>2020-07-28T12:03:20Z</time>
      </trkpt>
      <trkpt lat="43.0616270" lon="-0.4375370">
        <ele>540.0</ele>
        <time>2020-07-28T12:03:23Z</time>
      </trkpt>
      <trkpt lat="43.0616490" lon="-0.4375410">
        <ele>540.4</ele>
        <time>2020-07-28T12:03:24Z</time>
      </trkpt>
      <trkpt lat="43.0616690" lon="-0.4375490">
        <ele>540.6</ele>
        <time>2020-07-28T12:03:25Z</time>
      </trkpt>
      <trkpt lat="43.0617440" lon="-0.4376560">
        <ele>541.6</ele>
        <time>2020-07-28T12:03:30Z</time>
      </trkpt>
      <trkpt lat="43.0617750" lon="-0.4378220">
        <ele>542.8</ele>
        <time>2020-07-28T12:03:35Z</time>
      </trkpt>
      <trkpt lat="43.0617630" lon="-0.4378480">
        <ele>543.0</ele>
        <time>2020-07-28T12:03:36Z</time>
      </trkpt>
      <trkpt lat="43.0616620" lon="-0.4379760">
        <ele>543.8</ele>
        <time>2020-07-28T12:03:41Z</time>
      </trkpt>
      <trkpt lat="43.0616410" lon="-0.4380020">
        <ele>544.0</ele>
        <time>2020-07-28T12:03:42Z</time>
      </trkpt>
      <trkpt lat="43.0615340" lon="-0.4381300">
        <ele>545.0</ele>
        <time>2020-07-28T12:03:47Z</time>
      </trkpt>
      <trkpt lat="43.0614850" lon="-0.4381890">
        <ele>545.6</ele>
        <time>2020-07-28T12:03:49Z</time>
      </trkpt>
      <trkpt lat="43.0614090" lon="-0.4382790">
        <ele>546.2</ele>
        <time>2020-07-28T12:03:52Z</time>
      </trkpt>
      <trkpt lat="43.0613240" lon="-0.4384100">
        <ele>547.2</ele>
        <time>2020-07-28T12:03:56Z</time>
      </trkpt>
      <trkpt lat="43.0612870" lon="-0.4384720">
        <ele>547.6</ele>
        <time>2020-07-28T12:03:58Z</time>
      </trkpt>
      <trkpt lat="43.0612460" lon="-0.4385270">
        <ele>548.0</ele>
        <time>2020-07-28T12:04:00Z</time>
      </trkpt>
      <trkpt lat="43.0612240" lon="-0.4385510">
        <ele>548.2</ele>
        <time>2020-07-28T12:04:01Z</time>
      </trkpt>
      <trkpt lat="43.0611230" lon="-0.4386630">
        <ele>549.4</ele>
        <time>2020-07-28T12:04:06Z</time>
      </trkpt>
      <trkpt lat="43.0610860" lon="-0.4387040">
        <ele>549.8</ele>
        <time>2020-07-28T12:04:08Z</time>
      </trkpt>
      <trkpt lat="43.0610280" lon="-0.4387600">
        <ele>550.6</ele>
        <time>2020-07-28T12:04:11Z</time>
      </trkpt>
      <trkpt lat="43.0609490" lon="-0.4388300">
        <ele>551.6</ele>
        <time>2020-07-28T12:04:15Z</time>
      </trkpt>
      <trkpt lat="43.0609110" lon="-0.4388660">
        <ele>552.0</ele>
        <time>2020-07-28T12:04:17Z</time>
      </trkpt>
      <trkpt lat="43.0608550" lon="-0.4389260">
        <ele>552.8</ele>
        <time>2020-07-28T12:04:20Z</time>
      </trkpt>
      <trkpt lat="43.0607760" lon="-0.4389990">
        <ele>554.0</ele>
        <time>2020-07-28T12:04:24Z</time>
      </trkpt>
      <trkpt lat="43.0607160" lon="-0.4390530">
        <ele>554.6</ele>
        <time>2020-07-28T12:04:27Z</time>
      </trkpt>
      <trkpt lat="43.0606760" lon="-0.4390920">
        <ele>555.0</ele>
        <time>2020-07-28T12:04:29Z</time>
      </trkpt>
      <trkpt lat="43.0605660" lon="-0.4392620">
        <ele>556.2</ele>
        <time>2020-07-28T12:04:35Z</time>
      </trkpt>
      <trkpt lat="43.0604950" lon="-0.4393910">
        <ele>557.2</ele>
        <time>2020-07-28T12:04:39Z</time>
      </trkpt>
      <trkpt lat="43.0604550" lon="-0.4395040">
        <ele>557.6</ele>
        <time>2020-07-28T12:04:42Z</time>
      </trkpt>
      <trkpt lat="43.0604170" lon="-0.4397670">
        <ele>558.2</ele>
        <time>2020-07-28T12:04:48Z</time>
      </trkpt>
      <trkpt lat="43.0604020" lon="-0.4398990">
        <ele>558.6</ele>
        <time>2020-07-28T12:04:51Z</time>
      </trkpt>
      <trkpt lat="43.0603930" lon="-0.4400680">
        <ele>559.4</ele>
        <time>2020-07-28T12:04:55Z</time>
      </trkpt>
      <trkpt lat="43.0603950" lon="-0.4402230">
        <ele>560.4</ele>
        <time>2020-07-28T12:04:59Z</time>
      </trkpt>
      <trkpt lat="43.0604170" lon="-0.4404400">
        <ele>561.6</ele>
        <time>2020-07-28T12:05:05Z</time>
      </trkpt>
      <trkpt lat="43.0604350" lon="-0.4405330">
        <ele>562.6</ele>
        <time>2020-07-28T12:05:08Z</time>
      </trkpt>
      <trkpt lat="43.0604590" lon="-0.4406530">
        <ele>563.8</ele>
        <time>2020-07-28T12:05:12Z</time>
      </trkpt>
      <trkpt lat="43.0604670" lon="-0.4406840">
        <ele>564.0</ele>
        <time>2020-07-28T12:05:13Z</time>
      </trkpt>
      <trkpt lat="43.0604850" lon="-0.4407700">
        <ele>565.0</ele>
        <time>2020-07-28T12:05:16Z</time>
      </trkpt>
      <trkpt lat="43.0604970" lon="-0.4408280">
        <ele>565.4</ele>
        <time>2020-07-28T12:05:18Z</time>
      </trkpt>
      <trkpt lat="43.0605120" lon="-0.4408840">
        <ele>566.0</ele>
        <time>2020-07-28T12:05:20Z</time>
      </trkpt>
      <trkpt lat="43.0605310" lon="-0.4409780">
        <ele>567.0</ele>
        <time>2020-07-28T12:05:23Z</time>
      </trkpt>
      <trkpt lat="43.0605390" lon="-0.4410090">
        <ele>567.2</ele>
        <time>2020-07-28T12:05:24Z</time>
      </trkpt>
      <trkpt lat="43.0605610" lon="-0.4411310">
        <ele>568.6</ele>
        <time>2020-07-28T12:05:28Z</time>
      </trkpt>
      <trkpt lat="43.0605800" lon="-0.4412540">
        <ele>569.6</ele>
        <time>2020-07-28T12:05:32Z</time>
      </trkpt>
      <trkpt lat="43.0605810" lon="-0.4412850">
        <ele>569.8</ele>
        <time>2020-07-28T12:05:33Z</time>
      </trkpt>
      <trkpt lat="43.0605870" lon="-0.4414370">
        <ele>570.6</ele>
        <time>2020-07-28T12:05:38Z</time>
      </trkpt>
      <trkpt lat="43.0605760" lon="-0.4415650">
        <ele>571.8</ele>
        <time>2020-07-28T12:05:42Z</time>
      </trkpt>
      <trkpt lat="43.0605580" lon="-0.4417220">
        <ele>573.0</ele>
        <time>2020-07-28T12:05:47Z</time>
      </trkpt>
      <trkpt lat="43.0605570" lon="-0.4418180">
        <ele>573.8</ele>
        <time>2020-07-28T12:05:50Z</time>
      </trkpt>
      <trkpt lat="43.0605570" lon="-0.4418490">
        <ele>574.2</ele>
        <time>2020-07-28T12:05:51Z</time>
      </trkpt>
      <trkpt lat="43.0605630" lon="-0.4420080">
        <ele>575.2</ele>
        <time>2020-07-28T12:05:56Z</time>
      </trkpt>
      <trkpt lat="43.0605660" lon="-0.4421050">
        <ele>576.0</ele>
        <time>2020-07-28T12:05:59Z</time>
      </trkpt>
      <trkpt lat="43.0605680" lon="-0.4421380">
        <ele>576.4</ele>
        <time>2020-07-28T12:06:00Z</time>
      </trkpt>
      <trkpt lat="43.0605640" lon="-0.4422980">
        <ele>577.4</ele>
        <time>2020-07-28T12:06:05Z</time>
      </trkpt>
      <trkpt lat="43.0605460" lon="-0.4423870">
        <ele>578.2</ele>
        <time>2020-07-28T12:06:08Z</time>
      </trkpt>
      <trkpt lat="43.0605390" lon="-0.4424170">
        <ele>578.6</ele>
        <time>2020-07-28T12:06:09Z</time>
      </trkpt>
      <trkpt lat="43.0605060" lon="-0.4425740">
        <ele>579.8</ele>
        <time>2020-07-28T12:06:14Z</time>
      </trkpt>
      <trkpt lat="43.0604960" lon="-0.4426700">
        <ele>580.0</ele>
        <time>2020-07-28T12:06:17Z</time>
      </trkpt>
      <trkpt lat="43.0604860" lon="-0.4427660">
        <ele>581.0</ele>
        <time>2020-07-28T12:06:20Z</time>
      </trkpt>
      <trkpt lat="43.0604890" lon="-0.4429280">
        <ele>581.8</ele>
        <time>2020-07-28T12:06:25Z</time>
      </trkpt>
      <trkpt lat="43.0604930" lon="-0.4429590">
        <ele>582.2</ele>
        <time>2020-07-28T12:06:26Z</time>
      </trkpt>
      <trkpt lat="43.0605200" lon="-0.4430740">
        <ele>583.4</ele>
        <time>2020-07-28T12:06:30Z</time>
      </trkpt>
      <trkpt lat="43.0605330" lon="-0.4431340">
        <ele>583.8</ele>
        <time>2020-07-28T12:06:32Z</time>
      </trkpt>
      <trkpt lat="43.0605560" lon="-0.4432220">
        <ele>584.4</ele>
        <time>2020-07-28T12:06:35Z</time>
      </trkpt>
      <trkpt lat="43.0605900" lon="-0.4433330">
        <ele>585.4</ele>
        <time>2020-07-28T12:06:39Z</time>
      </trkpt>
      <trkpt lat="43.0606000" lon="-0.4433620">
        <ele>585.8</ele>
        <time>2020-07-28T12:06:40Z</time>
      </trkpt>
      <trkpt lat="43.0606410" lon="-0.4434750">
        <ele>587.0</ele>
        <time>2020-07-28T12:06:44Z</time>
      </trkpt>
      <trkpt lat="43.0606430" lon="-0.4435410">
        <ele>587.4</ele>
        <time>2020-07-28T12:06:46Z</time>
      </trkpt>
      <trkpt lat="43.0606370" lon="-0.4436410">
        <ele>588.0</ele>
        <time>2020-07-28T12:06:49Z</time>
      </trkpt>
      <trkpt lat="43.0606350" lon="-0.4437070">
        <ele>588.6</ele>
        <time>2020-07-28T12:06:51Z</time>
      </trkpt>
      <trkpt lat="43.0606310" lon="-0.4437710">
        <ele>589.2</ele>
        <time>2020-07-28T12:06:53Z</time>
      </trkpt>
      <trkpt lat="43.0606260" lon="-0.4438380">
        <ele>589.8</ele>
        <time>2020-07-28T12:06:55Z</time>
      </trkpt>
      <trkpt lat="43.0606210" lon="-0.4439020">
        <ele>590.4</ele>
        <time>2020-07-28T12:06:57Z</time>
      </trkpt>
      <trkpt lat="43.0606180" lon="-0.4440280">
        <ele>591.2</ele>
        <time>2020-07-28T12:07:01Z</time>
      </trkpt>
      <trkpt lat="43.0606170" lon="-0.4440590">
        <ele>591.4</ele>
        <time>2020-07-28T12:07:02Z</time>
      </trkpt>
      <trkpt lat="43.0606250" lon="-0.4441790">
        <ele>592.8</ele>
        <time>2020-07-28T12:07:06Z</time>
      </trkpt>
      <trkpt lat="43.0606300" lon="-0.4442720">
        <ele>593.4</ele>
        <time>2020-07-28T12:07:09Z</time>
      </trkpt>
      <trkpt lat="43.0606330" lon="-0.4443330">
        <ele>594.0</ele>
        <time>2020-07-28T12:07:11Z</time>
      </trkpt>
      <trkpt lat="43.0606450" lon="-0.4444470">
        <ele>595.2</ele>
        <time>2020-07-28T12:07:15Z</time>
      </trkpt>
      <trkpt lat="43.0606560" lon="-0.4445580">
        <ele>596.0</ele>
        <time>2020-07-28T12:07:19Z</time>
      </trkpt>
      <trkpt lat="43.0606550" lon="-0.4445840">
        <ele>596.4</ele>
        <time>2020-07-28T12:07:20Z</time>
      </trkpt>
      <trkpt lat="43.0606490" lon="-0.4446620">
        <ele>597.4</ele>
        <time>2020-07-28T12:07:23Z</time>
      </trkpt>
      <trkpt lat="43.0606400" lon="-0.4447660">
        <ele>598.4</ele>
        <time>2020-07-28T12:07:27Z</time>
      </trkpt>
      <trkpt lat="43.0606340" lon="-0.4448210">
        <ele>599.0</ele>
        <time>2020-07-28T12:07:29Z</time>
      </trkpt>
      <trkpt lat="43.0606290" lon="-0.4449260">
        <ele>599.6</ele>
        <time>2020-07-28T12:07:33Z</time>
      </trkpt>
      <trkpt lat="43.0606350" lon="-0.4450200">
        <ele>600.6</ele>
        <time>2020-07-28T12:07:37Z</time>
      </trkpt>
      <trkpt lat="43.0606650" lon="-0.4450690">
        <ele>601.6</ele>
        <time>2020-07-28T12:07:40Z</time>
      </trkpt>
      <trkpt lat="43.0606810" lon="-0.4450750">
        <ele>601.8</ele>
        <time>2020-07-28T12:07:41Z</time>
      </trkpt>
      <trkpt lat="43.0607000" lon="-0.4450740">
        <ele>602.0</ele>
        <time>2020-07-28T12:07:42Z</time>
      </trkpt>
      <trkpt lat="43.0607630" lon="-0.4450410">
        <ele>602.8</ele>
        <time>2020-07-28T12:07:45Z</time>
      </trkpt>
      <trkpt lat="43.0608100" lon="-0.4449880">
        <ele>603.0</ele>
        <time>2020-07-28T12:07:47Z</time>
      </trkpt>
      <trkpt lat="43.0608560" lon="-0.4448710">
        <ele>603.8</ele>
        <time>2020-07-28T12:07:50Z</time>
      </trkpt>
      <trkpt lat="43.0608900" lon="-0.4447860">
        <ele>604.2</ele>
        <time>2020-07-28T12:07:52Z</time>
      </trkpt>
      <trkpt lat="43.0609590" lon="-0.4446040">
        <ele>605.0</ele>
        <time>2020-07-28T12:07:56Z</time>
      </trkpt>
      <trkpt lat="43.0610210" lon="-0.4444740">
        <ele>605.6</ele>
        <time>2020-07-28T12:07:59Z</time>
      </trkpt>
      <trkpt lat="43.0610440" lon="-0.4444360">
        <ele>606.0</ele>
        <time>2020-07-28T12:08:00Z</time>
      </trkpt>
      <trkpt lat="43.0611160" lon="-0.4443260">
        <ele>607.0</ele>
        <time>2020-07-28T12:08:03Z</time>
      </trkpt>
      <trkpt lat="43.0612190" lon="-0.4442090">
        <ele>607.8</ele>
        <time>2020-07-28T12:08:07Z</time>
      </trkpt>
      <trkpt lat="43.0612650" lon="-0.4441470">
        <ele>608.4</ele>
        <time>2020-07-28T12:08:09Z</time>
      </trkpt>
      <trkpt lat="43.0613500" lon="-0.4440120">
        <ele>609.2</ele>
        <time>2020-07-28T12:08:13Z</time>
      </trkpt>
      <trkpt lat="43.0613710" lon="-0.4439800">
        <ele>609.4</ele>
        <time>2020-07-28T12:08:14Z</time>
      </trkpt>
      <trkpt lat="43.0614500" lon="-0.4438400">
        <ele>610.6</ele>
        <time>2020-07-28T12:08:18Z</time>
      </trkpt>
      <trkpt lat="43.0615260" lon="-0.4436960">
        <ele>611.4</ele>
        <time>2020-07-28T12:08:22Z</time>
      </trkpt>
      <trkpt lat="43.0615440" lon="-0.4436610">
        <ele>611.8</ele>
        <time>2020-07-28T12:08:23Z</time>
      </trkpt>
      <trkpt lat="43.0616450" lon="-0.4434220">
        <ele>613.0</ele>
        <time>2020-07-28T12:08:29Z</time>
      </trkpt>
      <trkpt lat="43.0616620" lon="-0.4433810">
        <ele>613.4</ele>
        <time>2020-07-28T12:08:30Z</time>
      </trkpt>
      <trkpt lat="43.0616970" lon="-0.4432990">
        <ele>614.0</ele>
        <time>2020-07-28T12:08:32Z</time>
      </trkpt>
      <trkpt lat="43.0617790" lon="-0.4430840">
        <ele>615.2</ele>
        <time>2020-07-28T12:08:37Z</time>
      </trkpt>
      <trkpt lat="43.0618060" lon="-0.4429970">
        <ele>615.6</ele>
        <time>2020-07-28T12:08:39Z</time>
      </trkpt>
      <trkpt lat="43.0618430" lon="-0.4428630">
        <ele>616.4</ele>
        <time>2020-07-28T12:08:42Z</time>
      </trkpt>
      <trkpt lat="43.0618820" lon="-0.4427260">
        <ele>617.4</ele>
        <time>2020-07-28T12:08:45Z</time>
      </trkpt>
      <trkpt lat="43.0619260" lon="-0.4425440">
        <ele>618.6</ele>
        <time>2020-07-28T12:08:49Z</time>
      </trkpt>
      <trkpt lat="43.0619990" lon="-0.4422760">
        <ele>619.6</ele>
        <time>2020-07-28T12:08:55Z</time>
      </trkpt>
      <trkpt lat="43.0620120" lon="-0.4422320">
        <ele>619.8</ele>
        <time>2020-07-28T12:08:56Z</time>
      </trkpt>
      <trkpt lat="43.0620250" lon="-0.4421870">
        <ele>620.2</ele>
        <time>2020-07-28T12:08:57Z</time>
      </trkpt>
      <trkpt lat="43.0620370" lon="-0.4421410">
        <ele>620.4</ele>
        <time>2020-07-28T12:08:58Z</time>
      </trkpt>
      <trkpt lat="43.0620490" lon="-0.4420970">
        <ele>620.8</ele>
        <time>2020-07-28T12:08:59Z</time>
      </trkpt>
      <trkpt lat="43.0620620" lon="-0.4420520">
        <ele>621.2</ele>
        <time>2020-07-28T12:09:00Z</time>
      </trkpt>
      <trkpt lat="43.0621020" lon="-0.4419170">
        <ele>622.0</ele>
        <time>2020-07-28T12:09:03Z</time>
      </trkpt>
      <trkpt lat="43.0621240" lon="-0.4418290">
        <ele>622.2</ele>
        <time>2020-07-28T12:09:05Z</time>
      </trkpt>
      <trkpt lat="43.0621620" lon="-0.4417010">
        <ele>623.0</ele>
        <time>2020-07-28T12:09:08Z</time>
      </trkpt>
      <trkpt lat="43.0622030" lon="-0.4415700">
        <ele>624.2</ele>
        <time>2020-07-28T12:09:11Z</time>
      </trkpt>
      <trkpt lat="43.0622680" lon="-0.4413430">
        <ele>625.2</ele>
        <time>2020-07-28T12:09:16Z</time>
      </trkpt>
      <trkpt lat="43.0622840" lon="-0.4413000">
        <ele>625.4</ele>
        <time>2020-07-28T12:09:17Z</time>
      </trkpt>
      <trkpt lat="43.0623450" lon="-0.4410700">
        <ele>626.4</ele>
        <time>2020-07-28T12:09:22Z</time>
      </trkpt>
      <trkpt lat="43.0623460" lon="-0.4410200">
        <ele>626.8</ele>
        <time>2020-07-28T12:09:23Z</time>
      </trkpt>
      <trkpt lat="43.0623470" lon="-0.4409230">
        <ele>627.6</ele>
        <time>2020-07-28T12:09:25Z</time>
      </trkpt>
      <trkpt lat="43.0623380" lon="-0.4407340">
        <ele>628.8</ele>
        <time>2020-07-28T12:09:29Z</time>
      </trkpt>
      <trkpt lat="43.0623350" lon="-0.4405510">
        <ele>629.8</ele>
        <time>2020-07-28T12:09:33Z</time>
      </trkpt>
      <trkpt lat="43.0623420" lon="-0.4405070">
        <ele>630.2</ele>
        <time>2020-07-28T12:09:34Z</time>
      </trkpt>
      <trkpt lat="43.0624010" lon="-0.4403820">
        <ele>631.0</ele>
        <time>2020-07-28T12:09:37Z</time>
      </trkpt>
      <trkpt lat="43.0624300" lon="-0.4403530">
        <ele>631.2</ele>
        <time>2020-07-28T12:09:38Z</time>
      </trkpt>
      <trkpt lat="43.0625590" lon="-0.4403590">
        <ele>631.4</ele>
        <time>2020-07-28T12:09:42Z</time>
      </trkpt>
      <trkpt lat="43.0626330" lon="-0.4404550">
        <ele>632.2</ele>
        <time>2020-07-28T12:09:45Z</time>
      </trkpt>
      <trkpt lat="43.0626460" lon="-0.4404960">
        <ele>632.4</ele>
        <time>2020-07-28T12:09:46Z</time>
      </trkpt>
      <trkpt lat="43.0626380" lon="-0.4406820">
        <ele>633.0</ele>
        <time>2020-07-28T12:09:50Z</time>
      </trkpt>
      <trkpt lat="43.0626270" lon="-0.4407290">
        <ele>633.2</ele>
        <time>2020-07-28T12:09:51Z</time>
      </trkpt>
      <trkpt lat="43.0625880" lon="-0.4409180">
        <ele>634.4</ele>
        <time>2020-07-28T12:09:55Z</time>
      </trkpt>
      <trkpt lat="43.0625720" lon="-0.4410630">
        <ele>635.0</ele>
        <time>2020-07-28T12:09:58Z</time>
      </trkpt>
      <trkpt lat="43.0625740" lon="-0.4411570">
        <ele>635.4</ele>
        <time>2020-07-28T12:10:00Z</time>
      </trkpt>
      <trkpt lat="43.0625880" lon="-0.4413300">
        <ele>636.4</ele>
        <time>2020-07-28T12:10:04Z</time>
      </trkpt>
      <trkpt lat="43.0625910" lon="-0.4413710">
        <ele>636.8</ele>
        <time>2020-07-28T12:10:05Z</time>
      </trkpt>
      <trkpt lat="43.0625980" lon="-0.4414550">
        <ele>637.6</ele>
        <time>2020-07-28T12:10:07Z</time>
      </trkpt>
      <trkpt lat="43.0626160" lon="-0.4416940">
        <ele>639.0</ele>
        <time>2020-07-28T12:10:13Z</time>
      </trkpt>
      <trkpt lat="43.0626170" lon="-0.4417340">
        <ele>639.2</ele>
        <time>2020-07-28T12:10:14Z</time>
      </trkpt>
      <trkpt lat="43.0626170" lon="-0.4418550">
        <ele>640.0</ele>
        <time>2020-07-28T12:10:17Z</time>
      </trkpt>
      <trkpt lat="43.0626170" lon="-0.4420140">
        <ele>641.2</ele>
        <time>2020-07-28T12:10:21Z</time>
      </trkpt>
      <trkpt lat="43.0626130" lon="-0.4420940">
        <ele>641.8</ele>
        <time>2020-07-28T12:10:23Z</time>
      </trkpt>
      <trkpt lat="43.0626140" lon="-0.4421730">
        <ele>642.4</ele>
        <time>2020-07-28T12:10:25Z</time>
      </trkpt>
      <trkpt lat="43.0626240" lon="-0.4423700">
        <ele>643.6</ele>
        <time>2020-07-28T12:10:30Z</time>
      </trkpt>
      <trkpt lat="43.0626240" lon="-0.4424090">
        <ele>643.8</ele>
        <time>2020-07-28T12:10:31Z</time>
      </trkpt>
      <trkpt lat="43.0626200" lon="-0.4425670">
        <ele>645.0</ele>
        <time>2020-07-28T12:10:35Z</time>
      </trkpt>
      <trkpt lat="43.0626160" lon="-0.4427260">
        <ele>646.0</ele>
        <time>2020-07-28T12:10:39Z</time>
      </trkpt>
      <trkpt lat="43.0626160" lon="-0.4427670">
        <ele>646.2</ele>
        <time>2020-07-28T12:10:40Z</time>
      </trkpt>
      <trkpt lat="43.0626190" lon="-0.4429280">
        <ele>647.0</ele>
        <time>2020-07-28T12:10:44Z</time>
      </trkpt>
      <trkpt lat="43.0626190" lon="-0.4429690">
        <ele>647.2</ele>
        <time>2020-07-28T12:10:45Z</time>
      </trkpt>
      <trkpt lat="43.0626190" lon="-0.4431290">
        <ele>648.4</ele>
        <time>2020-07-28T12:10:49Z</time>
      </trkpt>
      <trkpt lat="43.0626200" lon="-0.4432450">
        <ele>649.2</ele>
        <time>2020-07-28T12:10:52Z</time>
      </trkpt>
      <trkpt lat="43.0626210" lon="-0.4433200">
        <ele>649.6</ele>
        <time>2020-07-28T12:10:54Z</time>
      </trkpt>
      <trkpt lat="43.0626220" lon="-0.4433980">
        <ele>650.2</ele>
        <time>2020-07-28T12:10:56Z</time>
      </trkpt>
      <trkpt lat="43.0626220" lon="-0.4434770">
        <ele>650.8</ele>
        <time>2020-07-28T12:10:58Z</time>
      </trkpt>
      <trkpt lat="43.0626260" lon="-0.4436360">
        <ele>651.8</ele>
        <time>2020-07-28T12:11:02Z</time>
      </trkpt>
      <trkpt lat="43.0626380" lon="-0.4438700">
        <ele>653.0</ele>
        <time>2020-07-28T12:11:08Z</time>
      </trkpt>
      <trkpt lat="43.0626460" lon="-0.4439850">
        <ele>653.8</ele>
        <time>2020-07-28T12:11:11Z</time>
      </trkpt>
      <trkpt lat="43.0626470" lon="-0.4440230">
        <ele>654.2</ele>
        <time>2020-07-28T12:11:12Z</time>
      </trkpt>
      <trkpt lat="43.0626510" lon="-0.4441380">
        <ele>655.2</ele>
        <time>2020-07-28T12:11:15Z</time>
      </trkpt>
      <trkpt lat="43.0626570" lon="-0.4442120">
        <ele>655.8</ele>
        <time>2020-07-28T12:11:17Z</time>
      </trkpt>
      <trkpt lat="43.0626630" lon="-0.4442860">
        <ele>656.2</ele>
        <time>2020-07-28T12:11:19Z</time>
      </trkpt>
      <trkpt lat="43.0626690" lon="-0.4443600">
        <ele>656.8</ele>
        <time>2020-07-28T12:11:21Z</time>
      </trkpt>
      <trkpt lat="43.0626720" lon="-0.4444360">
        <ele>657.4</ele>
        <time>2020-07-28T12:11:23Z</time>
      </trkpt>
      <trkpt lat="43.0626730" lon="-0.4445820">
        <ele>658.6</ele>
        <time>2020-07-28T12:11:27Z</time>
      </trkpt>
      <trkpt lat="43.0626740" lon="-0.4446190">
        <ele>658.8</ele>
        <time>2020-07-28T12:11:28Z</time>
      </trkpt>
      <trkpt lat="43.0626720" lon="-0.4446570">
        <ele>659.0</ele>
        <time>2020-07-28T12:11:29Z</time>
      </trkpt>
      <trkpt lat="43.0626640" lon="-0.4447740">
        <ele>659.8</ele>
        <time>2020-07-28T12:11:32Z</time>
      </trkpt>
      <trkpt lat="43.0626580" lon="-0.4449690">
        <ele>660.8</ele>
        <time>2020-07-28T12:11:37Z</time>
      </trkpt>
      <trkpt lat="43.0626580" lon="-0.4450490">
        <ele>661.2</ele>
        <time>2020-07-28T12:11:39Z</time>
      </trkpt>
      <trkpt lat="43.0626650" lon="-0.4451630">
        <ele>661.8</ele>
        <time>2020-07-28T12:11:42Z</time>
      </trkpt>
      <trkpt lat="43.0626570" lon="-0.4453200">
        <ele>663.0</ele>
        <time>2020-07-28T12:11:46Z</time>
      </trkpt>
      <trkpt lat="43.0626560" lon="-0.4453560">
        <ele>663.4</ele>
        <time>2020-07-28T12:11:47Z</time>
      </trkpt>
      <trkpt lat="43.0626540" lon="-0.4453910">
        <ele>663.8</ele>
        <time>2020-07-28T12:11:48Z</time>
      </trkpt>
      <trkpt lat="43.0626530" lon="-0.4454250">
        <ele>664.2</ele>
        <time>2020-07-28T12:11:49Z</time>
      </trkpt>
      <trkpt lat="43.0626430" lon="-0.4455350">
        <ele>664.8</ele>
        <time>2020-07-28T12:11:52Z</time>
      </trkpt>
      <trkpt lat="43.0626270" lon="-0.4456170">
        <ele>665.2</ele>
        <time>2020-07-28T12:11:54Z</time>
      </trkpt>
      <trkpt lat="43.0626210" lon="-0.4456590">
        <ele>665.4</ele>
        <time>2020-07-28T12:11:55Z</time>
      </trkpt>
      <trkpt lat="43.0626110" lon="-0.4458660">
        <ele>666.4</ele>
        <time>2020-07-28T12:12:00Z</time>
      </trkpt>
      <trkpt lat="43.0626200" lon="-0.4459860">
        <ele>666.8</ele>
        <time>2020-07-28T12:12:03Z</time>
      </trkpt>
      <trkpt lat="43.0626300" lon="-0.4460600">
        <ele>667.6</ele>
        <time>2020-07-28T12:12:05Z</time>
      </trkpt>
      <trkpt lat="43.0626410" lon="-0.4462030">
        <ele>668.8</ele>
        <time>2020-07-28T12:12:09Z</time>
      </trkpt>
      <trkpt lat="43.0626440" lon="-0.4462380">
        <ele>669.0</ele>
        <time>2020-07-28T12:12:10Z</time>
      </trkpt>
      <trkpt lat="43.0626610" lon="-0.4463820">
        <ele>669.8</ele>
        <time>2020-07-28T12:12:14Z</time>
      </trkpt>
      <trkpt lat="43.0626750" lon="-0.4465220">
        <ele>670.8</ele>
        <time>2020-07-28T12:12:18Z</time>
      </trkpt>
      <trkpt lat="43.0626790" lon="-0.4465560">
        <ele>671.2</ele>
        <time>2020-07-28T12:12:19Z</time>
      </trkpt>
      <trkpt lat="43.0626940" lon="-0.4466580">
        <ele>671.8</ele>
        <time>2020-07-28T12:12:22Z</time>
      </trkpt>
      <trkpt lat="43.0627060" lon="-0.4467640">
        <ele>672.4</ele>
        <time>2020-07-28T12:12:25Z</time>
      </trkpt>
      <trkpt lat="43.0627220" lon="-0.4468700">
        <ele>673.0</ele>
        <time>2020-07-28T12:12:28Z</time>
      </trkpt>
      <trkpt lat="43.0627320" lon="-0.4469400">
        <ele>673.2</ele>
        <time>2020-07-28T12:12:30Z</time>
      </trkpt>
      <trkpt lat="43.0627360" lon="-0.4469770">
        <ele>673.6</ele>
        <time>2020-07-28T12:12:31Z</time>
      </trkpt>
      <trkpt lat="43.0627430" lon="-0.4470120">
        <ele>674.0</ele>
        <time>2020-07-28T12:12:32Z</time>
      </trkpt>
      <trkpt lat="43.0627690" lon="-0.4471480">
        <ele>675.0</ele>
        <time>2020-07-28T12:12:36Z</time>
      </trkpt>
      <trkpt lat="43.0628130" lon="-0.4473590">
        <ele>676.0</ele>
        <time>2020-07-28T12:12:42Z</time>
      </trkpt>
      <trkpt lat="43.0628190" lon="-0.4473950">
        <ele>676.4</ele>
        <time>2020-07-28T12:12:43Z</time>
      </trkpt>
      <trkpt lat="43.0628470" lon="-0.4475430">
        <ele>677.2</ele>
        <time>2020-07-28T12:12:47Z</time>
      </trkpt>
      <trkpt lat="43.0628810" lon="-0.4476880">
        <ele>678.0</ele>
        <time>2020-07-28T12:12:51Z</time>
      </trkpt>
      <trkpt lat="43.0628890" lon="-0.4477250">
        <ele>678.0</ele>
        <time>2020-07-28T12:12:52Z</time>
      </trkpt>
      <trkpt lat="43.0629080" lon="-0.4478000">
        <ele>678.4</ele>
        <time>2020-07-28T12:12:54Z</time>
      </trkpt>
      <trkpt lat="43.0629400" lon="-0.4479590">
        <ele>679.4</ele>
        <time>2020-07-28T12:12:58Z</time>
      </trkpt>
      <trkpt lat="43.0629510" lon="-0.4480370">
        <ele>680.0</ele>
        <time>2020-07-28T12:13:00Z</time>
      </trkpt>
      <trkpt lat="43.0629580" lon="-0.4480760">
        <ele>680.2</ele>
        <time>2020-07-28T12:13:01Z</time>
      </trkpt>
      <trkpt lat="43.0629620" lon="-0.4481150">
        <ele>680.4</ele>
        <time>2020-07-28T12:13:02Z</time>
      </trkpt>
      <trkpt lat="43.0629660" lon="-0.4482770">
        <ele>681.4</ele>
        <time>2020-07-28T12:13:06Z</time>
      </trkpt>
      <trkpt lat="43.0629680" lon="-0.4483190">
        <ele>681.8</ele>
        <time>2020-07-28T12:13:07Z</time>
      </trkpt>
      <trkpt lat="43.0629790" lon="-0.4485260">
        <ele>682.8</ele>
        <time>2020-07-28T12:13:12Z</time>
      </trkpt>
      <trkpt lat="43.0629900" lon="-0.4487230">
        <ele>683.8</ele>
        <time>2020-07-28T12:13:17Z</time>
      </trkpt>
      <trkpt lat="43.0629930" lon="-0.4487660">
        <ele>684.2</ele>
        <time>2020-07-28T12:13:18Z</time>
      </trkpt>
      <trkpt lat="43.0630020" lon="-0.4489740">
        <ele>685.2</ele>
        <time>2020-07-28T12:13:23Z</time>
      </trkpt>
      <trkpt lat="43.0630170" lon="-0.4490900">
        <ele>686.0</ele>
        <time>2020-07-28T12:13:26Z</time>
      </trkpt>
      <trkpt lat="43.0630230" lon="-0.4491280">
        <ele>686.2</ele>
        <time>2020-07-28T12:13:27Z</time>
      </trkpt>
      <trkpt lat="43.0630310" lon="-0.4492450">
        <ele>687.4</ele>
        <time>2020-07-28T12:13:30Z</time>
      </trkpt>
      <trkpt lat="43.0630310" lon="-0.4493680">
        <ele>688.0</ele>
        <time>2020-07-28T12:13:33Z</time>
      </trkpt>
      <trkpt lat="43.0630330" lon="-0.4494490">
        <ele>688.4</ele>
        <time>2020-07-28T12:13:35Z</time>
      </trkpt>
      <trkpt lat="43.0630340" lon="-0.4494900">
        <ele>688.8</ele>
        <time>2020-07-28T12:13:36Z</time>
      </trkpt>
      <trkpt lat="43.0630200" lon="-0.4496570">
        <ele>689.8</ele>
        <time>2020-07-28T12:13:40Z</time>
      </trkpt>
      <trkpt lat="43.0630180" lon="-0.4497410">
        <ele>690.0</ele>
        <time>2020-07-28T12:13:42Z</time>
      </trkpt>
      <trkpt lat="43.0630100" lon="-0.4499050">
        <ele>691.2</ele>
        <time>2020-07-28T12:13:46Z</time>
      </trkpt>
      <trkpt lat="43.0629980" lon="-0.4500260">
        <ele>692.0</ele>
        <time>2020-07-28T12:13:49Z</time>
      </trkpt>
      <trkpt lat="43.0629960" lon="-0.4500660">
        <ele>692.2</ele>
        <time>2020-07-28T12:13:50Z</time>
      </trkpt>
      <trkpt lat="43.0629910" lon="-0.4501050">
        <ele>692.4</ele>
        <time>2020-07-28T12:13:51Z</time>
      </trkpt>
      <trkpt lat="43.0629750" lon="-0.4502270">
        <ele>693.0</ele>
        <time>2020-07-28T12:13:54Z</time>
      </trkpt>
      <trkpt lat="43.0629690" lon="-0.4503050">
        <ele>693.4</ele>
        <time>2020-07-28T12:13:56Z</time>
      </trkpt>
      <trkpt lat="43.0629450" lon="-0.4505080">
        <ele>694.4</ele>
        <time>2020-07-28T12:14:01Z</time>
      </trkpt>
      <trkpt lat="43.0629020" lon="-0.4507050">
        <ele>695.6</ele>
        <time>2020-07-28T12:14:06Z</time>
      </trkpt>
      <trkpt lat="43.0628530" lon="-0.4508130">
        <ele>696.4</ele>
        <time>2020-07-28T12:14:09Z</time>
      </trkpt>
      <trkpt lat="43.0628150" lon="-0.4508800">
        <ele>696.8</ele>
        <time>2020-07-28T12:14:11Z</time>
      </trkpt>
      <trkpt lat="43.0627240" lon="-0.4510480">
        <ele>697.8</ele>
        <time>2020-07-28T12:14:16Z</time>
      </trkpt>
      <trkpt lat="43.0626720" lon="-0.4511450">
        <ele>698.6</ele>
        <time>2020-07-28T12:14:19Z</time>
      </trkpt>
      <trkpt lat="43.0626390" lon="-0.4512140">
        <ele>699.2</ele>
        <time>2020-07-28T12:14:21Z</time>
      </trkpt>
      <trkpt lat="43.0625710" lon="-0.4513520">
        <ele>700.4</ele>
        <time>2020-07-28T12:14:25Z</time>
      </trkpt>
      <trkpt lat="43.0625020" lon="-0.4514840">
        <ele>701.6</ele>
        <time>2020-07-28T12:14:29Z</time>
      </trkpt>
      <trkpt lat="43.0624220" lon="-0.4516430">
        <ele>702.6</ele>
        <time>2020-07-28T12:14:34Z</time>
      </trkpt>
      <trkpt lat="43.0623600" lon="-0.4517730">
        <ele>703.4</ele>
        <time>2020-07-28T12:14:38Z</time>
      </trkpt>
      <trkpt lat="43.0623260" lon="-0.4518330">
        <ele>703.8</ele>
        <time>2020-07-28T12:14:40Z</time>
      </trkpt>
      <trkpt lat="43.0622530" lon="-0.4519790">
        <ele>705.0</ele>
        <time>2020-07-28T12:14:44Z</time>
      </trkpt>
      <trkpt lat="43.0622340" lon="-0.4520160">
        <ele>705.2</ele>
        <time>2020-07-28T12:14:45Z</time>
      </trkpt>
      <trkpt lat="43.0621570" lon="-0.4521520">
        <ele>706.2</ele>
        <time>2020-07-28T12:14:49Z</time>
      </trkpt>
      <trkpt lat="43.0620580" lon="-0.4523020">
        <ele>707.2</ele>
        <time>2020-07-28T12:14:54Z</time>
      </trkpt>
      <trkpt lat="43.0620370" lon="-0.4523310">
        <ele>707.4</ele>
        <time>2020-07-28T12:14:55Z</time>
      </trkpt>
      <trkpt lat="43.0620150" lon="-0.4523580">
        <ele>707.6</ele>
        <time>2020-07-28T12:14:56Z</time>
      </trkpt>
      <trkpt lat="43.0619690" lon="-0.4524120">
        <ele>708.2</ele>
        <time>2020-07-28T12:14:58Z</time>
      </trkpt>
      <trkpt lat="43.0619450" lon="-0.4524390">
        <ele>708.4</ele>
        <time>2020-07-28T12:14:59Z</time>
      </trkpt>
      <trkpt lat="43.0618710" lon="-0.4525140">
        <ele>709.2</ele>
        <time>2020-07-28T12:15:02Z</time>
      </trkpt>
      <trkpt lat="43.0618460" lon="-0.4525370">
        <ele>709.4</ele>
        <time>2020-07-28T12:15:03Z</time>
      </trkpt>
      <trkpt lat="43.0617650" lon="-0.4525920">
        <ele>710.0</ele>
        <time>2020-07-28T12:15:06Z</time>
      </trkpt>
      <trkpt lat="43.0616790" lon="-0.4526440">
        <ele>710.6</ele>
        <time>2020-07-28T12:15:09Z</time>
      </trkpt>
      <trkpt lat="43.0615420" lon="-0.4527420">
        <ele>711.8</ele>
        <time>2020-07-28T12:15:14Z</time>
      </trkpt>
      <trkpt lat="43.0615150" lon="-0.4527600">
        <ele>712.0</ele>
        <time>2020-07-28T12:15:15Z</time>
      </trkpt>
      <trkpt lat="43.0614100" lon="-0.4528330">
        <ele>712.8</ele>
        <time>2020-07-28T12:15:19Z</time>
      </trkpt>
      <trkpt lat="43.0612790" lon="-0.4529290">
        <ele>714.0</ele>
        <time>2020-07-28T12:15:24Z</time>
      </trkpt>
      <trkpt lat="43.0612540" lon="-0.4529510">
        <ele>714.4</ele>
        <time>2020-07-28T12:15:25Z</time>
      </trkpt>
      <trkpt lat="43.0611760" lon="-0.4530140">
        <ele>715.4</ele>
        <time>2020-07-28T12:15:28Z</time>
      </trkpt>
      <trkpt lat="43.0610630" lon="-0.4530940">
        <ele>716.0</ele>
        <time>2020-07-28T12:15:32Z</time>
      </trkpt>
      <trkpt lat="43.0610080" lon="-0.4531320">
        <ele>716.4</ele>
        <time>2020-07-28T12:15:34Z</time>
      </trkpt>
      <trkpt lat="43.0609060" lon="-0.4532040">
        <ele>717.6</ele>
        <time>2020-07-28T12:15:38Z</time>
      </trkpt>
      <trkpt lat="43.0608040" lon="-0.4532760">
        <ele>718.4</ele>
        <time>2020-07-28T12:15:42Z</time>
      </trkpt>
      <trkpt lat="43.0607760" lon="-0.4532900">
        <ele>718.8</ele>
        <time>2020-07-28T12:15:43Z</time>
      </trkpt>
      <trkpt lat="43.0606640" lon="-0.4533500">
        <ele>719.8</ele>
        <time>2020-07-28T12:15:47Z</time>
      </trkpt>
      <trkpt lat="43.0605750" lon="-0.4533920">
        <ele>720.6</ele>
        <time>2020-07-28T12:15:50Z</time>
      </trkpt>
      <trkpt lat="43.0605430" lon="-0.4534030">
        <ele>720.8</ele>
        <time>2020-07-28T12:15:51Z</time>
      </trkpt>
      <trkpt lat="43.0604820" lon="-0.4534310">
        <ele>721.4</ele>
        <time>2020-07-28T12:15:53Z</time>
      </trkpt>
      <trkpt lat="43.0604240" lon="-0.4534590">
        <ele>722.0</ele>
        <time>2020-07-28T12:15:55Z</time>
      </trkpt>
      <trkpt lat="43.0603940" lon="-0.4534740">
        <ele>722.2</ele>
        <time>2020-07-28T12:15:56Z</time>
      </trkpt>
      <trkpt lat="43.0603370" lon="-0.4534990">
        <ele>723.0</ele>
        <time>2020-07-28T12:15:58Z</time>
      </trkpt>
      <trkpt lat="43.0603100" lon="-0.4535120">
        <ele>723.2</ele>
        <time>2020-07-28T12:15:59Z</time>
      </trkpt>
      <trkpt lat="43.0601610" lon="-0.4536070">
        <ele>724.4</ele>
        <time>2020-07-28T12:16:04Z</time>
      </trkpt>
      <trkpt lat="43.0600280" lon="-0.4537850">
        <ele>725.6</ele>
        <time>2020-07-28T12:16:10Z</time>
      </trkpt>
      <trkpt lat="43.0599930" lon="-0.4538520">
        <ele>726.2</ele>
        <time>2020-07-28T12:16:12Z</time>
      </trkpt>
      <trkpt lat="43.0599620" lon="-0.4539210">
        <ele>726.8</ele>
        <time>2020-07-28T12:16:14Z</time>
      </trkpt>
      <trkpt lat="43.0598960" lon="-0.4540520">
        <ele>728.2</ele>
        <time>2020-07-28T12:16:18Z</time>
      </trkpt>
      <trkpt lat="43.0598450" lon="-0.4541360">
        <ele>729.0</ele>
        <time>2020-07-28T12:16:21Z</time>
      </trkpt>
      <trkpt lat="43.0598260" lon="-0.4541600">
        <ele>729.2</ele>
        <time>2020-07-28T12:16:22Z</time>
      </trkpt>
      <trkpt lat="43.0597700" lon="-0.4542270">
        <ele>730.4</ele>
        <time>2020-07-28T12:16:25Z</time>
      </trkpt>
      <trkpt lat="43.0597070" lon="-0.4542820">
        <ele>731.4</ele>
        <time>2020-07-28T12:16:28Z</time>
      </trkpt>
      <trkpt lat="43.0596640" lon="-0.4543110">
        <ele>732.0</ele>
        <time>2020-07-28T12:16:30Z</time>
      </trkpt>
      <trkpt lat="43.0596190" lon="-0.4543330">
        <ele>732.6</ele>
        <time>2020-07-28T12:16:32Z</time>
      </trkpt>
      <trkpt lat="43.0595230" lon="-0.4543510">
        <ele>733.8</ele>
        <time>2020-07-28T12:16:36Z</time>
      </trkpt>
      <trkpt lat="43.0594420" lon="-0.4543540">
        <ele>734.4</ele>
        <time>2020-07-28T12:16:39Z</time>
      </trkpt>
      <trkpt lat="43.0593890" lon="-0.4543540">
        <ele>735.0</ele>
        <time>2020-07-28T12:16:41Z</time>
      </trkpt>
      <trkpt lat="43.0592550" lon="-0.4543360">
        <ele>736.2</ele>
        <time>2020-07-28T12:16:46Z</time>
      </trkpt>
      <trkpt lat="43.0591740" lon="-0.4543300">
        <ele>737.0</ele>
        <time>2020-07-28T12:16:49Z</time>
      </trkpt>
      <trkpt lat="43.0591210" lon="-0.4543210">
        <ele>737.2</ele>
        <time>2020-07-28T12:16:51Z</time>
      </trkpt>
      <trkpt lat="43.0590140" lon="-0.4543050">
        <ele>738.2</ele>
        <time>2020-07-28T12:16:55Z</time>
      </trkpt>
      <trkpt lat="43.0589370" lon="-0.4542910">
        <ele>739.0</ele>
        <time>2020-07-28T12:16:58Z</time>
      </trkpt>
      <trkpt lat="43.0589120" lon="-0.4542870">
        <ele>739.4</ele>
        <time>2020-07-28T12:16:59Z</time>
      </trkpt>
      <trkpt lat="43.0587810" lon="-0.4543110">
        <ele>740.6</ele>
        <time>2020-07-28T12:17:04Z</time>
      </trkpt>
      <trkpt lat="43.0586800" lon="-0.4543450">
        <ele>741.8</ele>
        <time>2020-07-28T12:17:08Z</time>
      </trkpt>
      <trkpt lat="43.0586100" lon="-0.4543980">
        <ele>743.0</ele>
        <time>2020-07-28T12:17:11Z</time>
      </trkpt>
      <trkpt lat="43.0585930" lon="-0.4544240">
        <ele>743.2</ele>
        <time>2020-07-28T12:17:12Z</time>
      </trkpt>
      <trkpt lat="43.0585680" lon="-0.4544840">
        <ele>744.0</ele>
        <time>2020-07-28T12:17:14Z</time>
      </trkpt>
      <trkpt lat="43.0585620" lon="-0.4545920">
        <ele>745.0</ele>
        <time>2020-07-28T12:17:17Z</time>
      </trkpt>
      <trkpt lat="43.0585710" lon="-0.4546230">
        <ele>745.2</ele>
        <time>2020-07-28T12:17:18Z</time>
      </trkpt>
      <trkpt lat="43.0586270" lon="-0.4547110">
        <ele>746.4</ele>
        <time>2020-07-28T12:17:22Z</time>
      </trkpt>
      <trkpt lat="43.0586880" lon="-0.4547410">
        <ele>747.8</ele>
        <time>2020-07-28T12:17:25Z</time>
      </trkpt>
      <trkpt lat="43.0587550" lon="-0.4547510">
        <ele>748.8</ele>
        <time>2020-07-28T12:17:28Z</time>
      </trkpt>
      <trkpt lat="43.0588590" lon="-0.4547620">
        <ele>749.8</ele>
        <time>2020-07-28T12:17:32Z</time>
      </trkpt>
      <trkpt lat="43.0589680" lon="-0.4547990">
        <ele>750.8</ele>
        <time>2020-07-28T12:17:36Z</time>
      </trkpt>
      <trkpt lat="43.0591270" lon="-0.4548750">
        <ele>751.6</ele>
        <time>2020-07-28T12:17:42Z</time>
      </trkpt>
      <trkpt lat="43.0591520" lon="-0.4548910">
        <ele>751.8</ele>
        <time>2020-07-28T12:17:43Z</time>
      </trkpt>
      <trkpt lat="43.0591790" lon="-0.4549060">
        <ele>752.0</ele>
        <time>2020-07-28T12:17:44Z</time>
      </trkpt>
      <trkpt lat="43.0592310" lon="-0.4549300">
        <ele>752.4</ele>
        <time>2020-07-28T12:17:46Z</time>
      </trkpt>
      <trkpt lat="43.0593410" lon="-0.4549610">
        <ele>752.8</ele>
        <time>2020-07-28T12:17:50Z</time>
      </trkpt>
      <trkpt lat="43.0594600" lon="-0.4549800">
        <ele>753.6</ele>
        <time>2020-07-28T12:17:54Z</time>
      </trkpt>
      <trkpt lat="43.0595190" lon="-0.4549980">
        <ele>754.0</ele>
        <time>2020-07-28T12:17:56Z</time>
      </trkpt>
      <trkpt lat="43.0596070" lon="-0.4550270">
        <ele>754.6</ele>
        <time>2020-07-28T12:17:59Z</time>
      </trkpt>
      <trkpt lat="43.0596660" lon="-0.4550470">
        <ele>755.2</ele>
        <time>2020-07-28T12:18:01Z</time>
      </trkpt>
      <trkpt lat="43.0597230" lon="-0.4550670">
        <ele>755.8</ele>
        <time>2020-07-28T12:18:03Z</time>
      </trkpt>
      <trkpt lat="43.0597760" lon="-0.4550900">
        <ele>756.4</ele>
        <time>2020-07-28T12:18:05Z</time>
      </trkpt>
      <trkpt lat="43.0599040" lon="-0.4551570">
        <ele>757.6</ele>
        <time>2020-07-28T12:18:10Z</time>
      </trkpt>
      <trkpt lat="43.0599590" lon="-0.4551860">
        <ele>758.2</ele>
        <time>2020-07-28T12:18:12Z</time>
      </trkpt>
      <trkpt lat="43.0600140" lon="-0.4552110">
        <ele>759.0</ele>
        <time>2020-07-28T12:18:14Z</time>
      </trkpt>
      <trkpt lat="43.0601170" lon="-0.4552600">
        <ele>760.0</ele>
        <time>2020-07-28T12:18:18Z</time>
      </trkpt>
      <trkpt lat="43.0602140" lon="-0.4553030">
        <ele>761.0</ele>
        <time>2020-07-28T12:18:22Z</time>
      </trkpt>
      <trkpt lat="43.0603130" lon="-0.4553500">
        <ele>762.2</ele>
        <time>2020-07-28T12:18:26Z</time>
      </trkpt>
      <trkpt lat="43.0603980" lon="-0.4553900">
        <ele>763.2</ele>
        <time>2020-07-28T12:18:30Z</time>
      </trkpt>
      <trkpt lat="43.0604890" lon="-0.4554360">
        <ele>764.4</ele>
        <time>2020-07-28T12:18:34Z</time>
      </trkpt>
      <trkpt lat="43.0606250" lon="-0.4555020">
        <ele>765.4</ele>
        <time>2020-07-28T12:18:40Z</time>
      </trkpt>
      <trkpt lat="43.0606470" lon="-0.4555190">
        <ele>765.6</ele>
        <time>2020-07-28T12:18:41Z</time>
      </trkpt>
      <trkpt lat="43.0606680" lon="-0.4555330">
        <ele>766.0</ele>
        <time>2020-07-28T12:18:42Z</time>
      </trkpt>
      <trkpt lat="43.0607140" lon="-0.4555480">
        <ele>766.6</ele>
        <time>2020-07-28T12:18:44Z</time>
      </trkpt>
      <trkpt lat="43.0607840" lon="-0.4555700">
        <ele>767.2</ele>
        <time>2020-07-28T12:18:47Z</time>
      </trkpt>
      <trkpt lat="43.0608070" lon="-0.4555750">
        <ele>767.6</ele>
        <time>2020-07-28T12:18:48Z</time>
      </trkpt>
      <trkpt lat="43.0609360" lon="-0.4555930">
        <ele>768.8</ele>
        <time>2020-07-28T12:18:54Z</time>
      </trkpt>
      <trkpt lat="43.0610430" lon="-0.4556080">
        <ele>770.0</ele>
        <time>2020-07-28T12:18:59Z</time>
      </trkpt>
      <trkpt lat="43.0611350" lon="-0.4556130">
        <ele>771.0</ele>
        <time>2020-07-28T12:19:03Z</time>
      </trkpt>
      <trkpt lat="43.0611580" lon="-0.4556140">
        <ele>771.2</ele>
        <time>2020-07-28T12:19:04Z</time>
      </trkpt>
      <trkpt lat="43.0612820" lon="-0.4556270">
        <ele>772.4</ele>
        <time>2020-07-28T12:19:09Z</time>
      </trkpt>
      <trkpt lat="43.0613080" lon="-0.4556300">
        <ele>772.6</ele>
        <time>2020-07-28T12:19:10Z</time>
      </trkpt>
      <trkpt lat="43.0613340" lon="-0.4556340">
        <ele>772.8</ele>
        <time>2020-07-28T12:19:11Z</time>
      </trkpt>
      <trkpt lat="43.0613890" lon="-0.4556420">
        <ele>773.4</ele>
        <time>2020-07-28T12:19:13Z</time>
      </trkpt>
      <trkpt lat="43.0614940" lon="-0.4556610">
        <ele>774.4</ele>
        <time>2020-07-28T12:19:17Z</time>
      </trkpt>
      <trkpt lat="43.0615200" lon="-0.4556640">
        <ele>774.8</ele>
        <time>2020-07-28T12:19:18Z</time>
      </trkpt>
      <trkpt lat="43.0615710" lon="-0.4556690">
        <ele>775.6</ele>
        <time>2020-07-28T12:19:20Z</time>
      </trkpt>
      <trkpt lat="43.0616930" lon="-0.4556770">
        <ele>776.8</ele>
        <time>2020-07-28T12:19:25Z</time>
      </trkpt>
      <trkpt lat="43.0617390" lon="-0.4556800">
        <ele>777.4</ele>
        <time>2020-07-28T12:19:27Z</time>
      </trkpt>
      <trkpt lat="43.0617880" lon="-0.4556870">
        <ele>778.0</ele>
        <time>2020-07-28T12:19:29Z</time>
      </trkpt>
      <trkpt lat="43.0619100" lon="-0.4556990">
        <ele>779.2</ele>
        <time>2020-07-28T12:19:34Z</time>
      </trkpt>
      <trkpt lat="43.0619360" lon="-0.4557070">
        <ele>779.4</ele>
        <time>2020-07-28T12:19:35Z</time>
      </trkpt>
      <trkpt lat="43.0620130" lon="-0.4557510">
        <ele>780.2</ele>
        <time>2020-07-28T12:19:38Z</time>
      </trkpt>
      <trkpt lat="43.0620860" lon="-0.4558170">
        <ele>780.8</ele>
        <time>2020-07-28T12:19:41Z</time>
      </trkpt>
      <trkpt lat="43.0621440" lon="-0.4559090">
        <ele>781.6</ele>
        <time>2020-07-28T12:19:44Z</time>
      </trkpt>
      <trkpt lat="43.0621890" lon="-0.4560150">
        <ele>782.4</ele>
        <time>2020-07-28T12:19:47Z</time>
      </trkpt>
      <trkpt lat="43.0622020" lon="-0.4560510">
        <ele>782.6</ele>
        <time>2020-07-28T12:19:48Z</time>
      </trkpt>
      <trkpt lat="43.0622210" lon="-0.4562540">
        <ele>783.4</ele>
        <time>2020-07-28T12:19:53Z</time>
      </trkpt>
      <trkpt lat="43.0622150" lon="-0.4562940">
        <ele>783.6</ele>
        <time>2020-07-28T12:19:54Z</time>
      </trkpt>
      <trkpt lat="43.0621440" lon="-0.4564770">
        <ele>784.8</ele>
        <time>2020-07-28T12:19:59Z</time>
      </trkpt>
      <trkpt lat="43.0620140" lon="-0.4566450">
        <ele>785.8</ele>
        <time>2020-07-28T12:20:05Z</time>
      </trkpt>
      <trkpt lat="43.0619890" lon="-0.4566670">
        <ele>786.2</ele>
        <time>2020-07-28T12:20:06Z</time>
      </trkpt>
      <trkpt lat="43.0619170" lon="-0.4567260">
        <ele>787.2</ele>
        <time>2020-07-28T12:20:09Z</time>
      </trkpt>
      <trkpt lat="43.0618150" lon="-0.4567990">
        <ele>788.0</ele>
        <time>2020-07-28T12:20:13Z</time>
      </trkpt>
      <trkpt lat="43.0617620" lon="-0.4568400">
        <ele>788.4</ele>
        <time>2020-07-28T12:20:15Z</time>
      </trkpt>
      <trkpt lat="43.0616590" lon="-0.4569230">
        <ele>789.4</ele>
        <time>2020-07-28T12:20:19Z</time>
      </trkpt>
      <trkpt lat="43.0615480" lon="-0.4570460">
        <ele>790.6</ele>
        <time>2020-07-28T12:20:24Z</time>
      </trkpt>
      <trkpt lat="43.0615290" lon="-0.4572030">
        <ele>791.4</ele>
        <time>2020-07-28T12:20:28Z</time>
      </trkpt>
      <trkpt lat="43.0615420" lon="-0.4572390">
        <ele>791.6</ele>
        <time>2020-07-28T12:20:29Z</time>
      </trkpt>
      <trkpt lat="43.0616230" lon="-0.4573460">
        <ele>792.4</ele>
        <time>2020-07-28T12:20:33Z</time>
      </trkpt>
      <trkpt lat="43.0616440" lon="-0.4573710">
        <ele>792.6</ele>
        <time>2020-07-28T12:20:34Z</time>
      </trkpt>
      <trkpt lat="43.0617580" lon="-0.4574870">
        <ele>793.8</ele>
        <time>2020-07-28T12:20:39Z</time>
      </trkpt>
      <trkpt lat="43.0617790" lon="-0.4575050">
        <ele>794.0</ele>
        <time>2020-07-28T12:20:40Z</time>
      </trkpt>
      <trkpt lat="43.0618500" lon="-0.4575500">
        <ele>794.8</ele>
        <time>2020-07-28T12:20:43Z</time>
      </trkpt>
      <trkpt lat="43.0619440" lon="-0.4575960">
        <ele>796.0</ele>
        <time>2020-07-28T12:20:47Z</time>
      </trkpt>
      <trkpt lat="43.0619690" lon="-0.4576000">
        <ele>796.4</ele>
        <time>2020-07-28T12:20:48Z</time>
      </trkpt>
      <trkpt lat="43.0620370" lon="-0.4576120">
        <ele>797.0</ele>
        <time>2020-07-28T12:20:51Z</time>
      </trkpt>
      <trkpt lat="43.0621500" lon="-0.4576150">
        <ele>798.0</ele>
        <time>2020-07-28T12:20:56Z</time>
      </trkpt>
      <trkpt lat="43.0621740" lon="-0.4576120">
        <ele>798.0</ele>
        <time>2020-07-28T12:20:57Z</time>
      </trkpt>
      <trkpt lat="43.0623340" lon="-0.4576060">
        <ele>799.0</ele>
        <time>2020-07-28T12:21:03Z</time>
      </trkpt>
      <trkpt lat="43.0623580" lon="-0.4576040">
        <ele>799.0</ele>
        <time>2020-07-28T12:21:04Z</time>
      </trkpt>
      <trkpt lat="43.0623830" lon="-0.4576020">
        <ele>799.2</ele>
        <time>2020-07-28T12:21:05Z</time>
      </trkpt>
      <trkpt lat="43.0625300" lon="-0.4576300">
        <ele>800.0</ele>
        <time>2020-07-28T12:21:11Z</time>
      </trkpt>
      <trkpt lat="43.0625520" lon="-0.4576390">
        <ele>800.2</ele>
        <time>2020-07-28T12:21:12Z</time>
      </trkpt>
      <trkpt lat="43.0626350" lon="-0.4576870">
        <ele>801.0</ele>
        <time>2020-07-28T12:21:16Z</time>
      </trkpt>
      <trkpt lat="43.0626560" lon="-0.4577050">
        <ele>801.4</ele>
        <time>2020-07-28T12:21:17Z</time>
      </trkpt>
      <trkpt lat="43.0627170" lon="-0.4577610">
        <ele>801.8</ele>
        <time>2020-07-28T12:21:20Z</time>
      </trkpt>
      <trkpt lat="43.0627960" lon="-0.4578240">
        <ele>802.4</ele>
        <time>2020-07-28T12:21:24Z</time>
      </trkpt>
      <trkpt lat="43.0628680" lon="-0.4578690">
        <ele>803.0</ele>
        <time>2020-07-28T12:21:28Z</time>
      </trkpt>
      <trkpt lat="43.0629650" lon="-0.4578860">
        <ele>803.6</ele>
        <time>2020-07-28T12:21:32Z</time>
      </trkpt>
      <trkpt lat="43.0630300" lon="-0.4578830">
        <ele>804.2</ele>
        <time>2020-07-28T12:21:35Z</time>
      </trkpt>
      <trkpt lat="43.0630740" lon="-0.4578710">
        <ele>804.8</ele>
        <time>2020-07-28T12:21:37Z</time>
      </trkpt>
      <trkpt lat="43.0631880" lon="-0.4577990">
        <ele>805.6</ele>
        <time>2020-07-28T12:21:42Z</time>
      </trkpt>
      <trkpt lat="43.0632590" lon="-0.4577680">
        <ele>805.8</ele>
        <time>2020-07-28T12:21:45Z</time>
      </trkpt>
      <trkpt lat="43.0633560" lon="-0.4577430">
        <ele>806.4</ele>
        <time>2020-07-28T12:21:49Z</time>
      </trkpt>
      <trkpt lat="43.0634040" lon="-0.4577380">
        <ele>807.0</ele>
        <time>2020-07-28T12:21:51Z</time>
      </trkpt>
      <trkpt lat="43.0635060" lon="-0.4577650">
        <ele>807.8</ele>
        <time>2020-07-28T12:21:55Z</time>
      </trkpt>
      <trkpt lat="43.0635310" lon="-0.4577790">
        <ele>808.0</ele>
        <time>2020-07-28T12:21:56Z</time>
      </trkpt>
      <trkpt lat="43.0635960" lon="-0.4578390">
        <ele>808.4</ele>
        <time>2020-07-28T12:21:59Z</time>
      </trkpt>
      <trkpt lat="43.0636600" lon="-0.4579000">
        <ele>809.0</ele>
        <time>2020-07-28T12:22:02Z</time>
      </trkpt>
      <trkpt lat="43.0637790" lon="-0.4579960">
        <ele>810.0</ele>
        <time>2020-07-28T12:22:07Z</time>
      </trkpt>
      <trkpt lat="43.0638130" lon="-0.4580180">
        <ele>810.2</ele>
        <time>2020-07-28T12:22:08Z</time>
      </trkpt>
      <trkpt lat="43.0639670" lon="-0.4580780">
        <ele>811.0</ele>
        <time>2020-07-28T12:22:12Z</time>
      </trkpt>
      <trkpt lat="43.0640760" lon="-0.4581080">
        <ele>811.8</ele>
        <time>2020-07-28T12:22:15Z</time>
      </trkpt>
      <trkpt lat="43.0641060" lon="-0.4581120">
        <ele>812.0</ele>
        <time>2020-07-28T12:22:16Z</time>
      </trkpt>
      <trkpt lat="43.0641890" lon="-0.4581240">
        <ele>813.2</ele>
        <time>2020-07-28T12:22:19Z</time>
      </trkpt>
      <trkpt lat="43.0642890" lon="-0.4581420">
        <ele>814.2</ele>
        <time>2020-07-28T12:22:23Z</time>
      </trkpt>
      <trkpt lat="43.0643120" lon="-0.4581530">
        <ele>814.4</ele>
        <time>2020-07-28T12:22:24Z</time>
      </trkpt>
      <trkpt lat="43.0644320" lon="-0.4581870">
        <ele>815.0</ele>
        <time>2020-07-28T12:22:29Z</time>
      </trkpt>
      <trkpt lat="43.0645020" lon="-0.4582140">
        <ele>815.6</ele>
        <time>2020-07-28T12:22:32Z</time>
      </trkpt>
      <trkpt lat="43.0645840" lon="-0.4582570">
        <ele>816.2</ele>
        <time>2020-07-28T12:22:36Z</time>
      </trkpt>
      <trkpt lat="43.0646210" lon="-0.4582830">
        <ele>816.6</ele>
        <time>2020-07-28T12:22:38Z</time>
      </trkpt>
      <trkpt lat="43.0646980" lon="-0.4583290">
        <ele>817.4</ele>
        <time>2020-07-28T12:22:42Z</time>
      </trkpt>
      <trkpt lat="43.0647160" lon="-0.4583450">
        <ele>817.6</ele>
        <time>2020-07-28T12:22:43Z</time>
      </trkpt>
      <trkpt lat="43.0648490" lon="-0.4584610">
        <ele>818.8</ele>
        <time>2020-07-28T12:22:49Z</time>
      </trkpt>
      <trkpt lat="43.0649010" lon="-0.4585100">
        <ele>819.4</ele>
        <time>2020-07-28T12:22:51Z</time>
      </trkpt>
      <trkpt lat="43.0649690" lon="-0.4585800">
        <ele>820.0</ele>
        <time>2020-07-28T12:22:54Z</time>
      </trkpt>
      <trkpt lat="43.0650300" lon="-0.4586430">
        <ele>820.8</ele>
        <time>2020-07-28T12:22:57Z</time>
      </trkpt>
      <trkpt lat="43.0650510" lon="-0.4586630">
        <ele>821.2</ele>
        <time>2020-07-28T12:22:58Z</time>
      </trkpt>
      <trkpt lat="43.0651370" lon="-0.4587290">
        <ele>822.4</ele>
        <time>2020-07-28T12:23:02Z</time>
      </trkpt>
      <trkpt lat="43.0652140" lon="-0.4587700">
        <ele>823.0</ele>
        <time>2020-07-28T12:23:05Z</time>
      </trkpt>
      <trkpt lat="43.0653250" lon="-0.4588150">
        <ele>823.2</ele>
        <time>2020-07-28T12:23:09Z</time>
      </trkpt>
      <trkpt lat="43.0654620" lon="-0.4589080">
        <ele>823.2</ele>
        <time>2020-07-28T12:23:14Z</time>
      </trkpt>
      <trkpt lat="43.0655030" lon="-0.4589670">
        <ele>823.4</ele>
        <time>2020-07-28T12:23:16Z</time>
      </trkpt>
      <trkpt lat="43.0655570" lon="-0.4591020">
        <ele>824.6</ele>
        <time>2020-07-28T12:23:20Z</time>
      </trkpt>
      <trkpt lat="43.0655910" lon="-0.4592330">
        <ele>825.8</ele>
        <time>2020-07-28T12:23:24Z</time>
      </trkpt>
      <trkpt lat="43.0656240" lon="-0.4593260">
        <ele>826.4</ele>
        <time>2020-07-28T12:23:27Z</time>
      </trkpt>
      <trkpt lat="43.0656530" lon="-0.4593850">
        <ele>826.8</ele>
        <time>2020-07-28T12:23:29Z</time>
      </trkpt>
      <trkpt lat="43.0657360" lon="-0.4594990">
        <ele>827.4</ele>
        <time>2020-07-28T12:23:34Z</time>
      </trkpt>
      <trkpt lat="43.0658210" lon="-0.4595910">
        <ele>827.8</ele>
        <time>2020-07-28T12:23:38Z</time>
      </trkpt>
      <trkpt lat="43.0658870" lon="-0.4596500">
        <ele>828.2</ele>
        <time>2020-07-28T12:23:41Z</time>
      </trkpt>
      <trkpt lat="43.0659520" lon="-0.4596920">
        <ele>828.6</ele>
        <time>2020-07-28T12:23:44Z</time>
      </trkpt>
      <trkpt lat="43.0659970" lon="-0.4597160">
        <ele>829.0</ele>
        <time>2020-07-28T12:23:46Z</time>
      </trkpt>
      <trkpt lat="43.0660420" lon="-0.4597440">
        <ele>829.4</ele>
        <time>2020-07-28T12:23:48Z</time>
      </trkpt>
      <trkpt lat="43.0661590" lon="-0.4598110">
        <ele>830.0</ele>
        <time>2020-07-28T12:23:53Z</time>
      </trkpt>
      <trkpt lat="43.0662030" lon="-0.4598560">
        <ele>830.2</ele>
        <time>2020-07-28T12:23:55Z</time>
      </trkpt>
      <trkpt lat="43.0662920" lon="-0.4600670">
        <ele>830.4</ele>
        <time>2020-07-28T12:24:00Z</time>
      </trkpt>
      <trkpt lat="43.0663040" lon="-0.4601220">
        <ele>830.4</ele>
        <time>2020-07-28T12:24:01Z</time>
      </trkpt>
      <trkpt lat="43.0663300" lon="-0.4604130">
        <ele>830.8</ele>
        <time>2020-07-28T12:24:06Z</time>
      </trkpt>
      <trkpt lat="43.0663320" lon="-0.4605210">
        <ele>831.2</ele>
        <time>2020-07-28T12:24:08Z</time>
      </trkpt>
      <trkpt lat="43.0663310" lon="-0.4606910">
        <ele>832.4</ele>
        <time>2020-07-28T12:24:11Z</time>
      </trkpt>
      <trkpt lat="43.0663330" lon="-0.4608090">
        <ele>833.0</ele>
        <time>2020-07-28T12:24:13Z</time>
      </trkpt>
      <trkpt lat="43.0663390" lon="-0.4610470">
        <ele>833.4</ele>
        <time>2020-07-28T12:24:17Z</time>
      </trkpt>
      <trkpt lat="43.0663420" lon="-0.4612220">
        <ele>834.4</ele>
        <time>2020-07-28T12:24:20Z</time>
      </trkpt>
      <trkpt lat="43.0663400" lon="-0.4612810">
        <ele>834.8</ele>
        <time>2020-07-28T12:24:21Z</time>
      </trkpt>
      <trkpt lat="43.0663360" lon="-0.4613400">
        <ele>835.0</ele>
        <time>2020-07-28T12:24:22Z</time>
      </trkpt>
      <trkpt lat="43.0663210" lon="-0.4614550">
        <ele>835.4</ele>
        <time>2020-07-28T12:24:24Z</time>
      </trkpt>
      <trkpt lat="43.0662710" lon="-0.4616130">
        <ele>835.8</ele>
        <time>2020-07-28T12:24:27Z</time>
      </trkpt>
      <trkpt lat="43.0662520" lon="-0.4616620">
        <ele>836.0</ele>
        <time>2020-07-28T12:24:28Z</time>
      </trkpt>
      <trkpt lat="43.0661530" lon="-0.4619070">
        <ele>837.4</ele>
        <time>2020-07-28T12:24:33Z</time>
      </trkpt>
      <trkpt lat="43.0661040" lon="-0.4620580">
        <ele>838.4</ele>
        <time>2020-07-28T12:24:36Z</time>
      </trkpt>
      <trkpt lat="43.0660240" lon="-0.4623150">
        <ele>839.6</ele>
        <time>2020-07-28T12:24:41Z</time>
      </trkpt>
      <trkpt lat="43.0659200" lon="-0.4626060">
        <ele>840.6</ele>
        <time>2020-07-28T12:24:47Z</time>
      </trkpt>
      <trkpt lat="43.0658990" lon="-0.4626540">
        <ele>840.8</ele>
        <time>2020-07-28T12:24:48Z</time>
      </trkpt>
      <trkpt lat="43.0658150" lon="-0.4628420">
        <ele>841.6</ele>
        <time>2020-07-28T12:24:52Z</time>
      </trkpt>
      <trkpt lat="43.0657150" lon="-0.4630760">
        <ele>842.8</ele>
        <time>2020-07-28T12:24:57Z</time>
      </trkpt>
      <trkpt lat="43.0656810" lon="-0.4631700">
        <ele>843.2</ele>
        <time>2020-07-28T12:24:59Z</time>
      </trkpt>
      <trkpt lat="43.0656340" lon="-0.4633170">
        <ele>844.0</ele>
        <time>2020-07-28T12:25:02Z</time>
      </trkpt>
      <trkpt lat="43.0655590" lon="-0.4635760">
        <ele>845.0</ele>
        <time>2020-07-28T12:25:07Z</time>
      </trkpt>
      <trkpt lat="43.0654590" lon="-0.4638890">
        <ele>845.8</ele>
        <time>2020-07-28T12:25:13Z</time>
      </trkpt>
      <trkpt lat="43.0654400" lon="-0.4639380">
        <ele>846.0</ele>
        <time>2020-07-28T12:25:14Z</time>
      </trkpt>
      <trkpt lat="43.0654210" lon="-0.4639870">
        <ele>846.2</ele>
        <time>2020-07-28T12:25:15Z</time>
      </trkpt>
      <trkpt lat="43.0654050" lon="-0.4640390">
        <ele>846.4</ele>
        <time>2020-07-28T12:25:16Z</time>
      </trkpt>
      <trkpt lat="43.0653810" lon="-0.4641490">
        <ele>847.0</ele>
        <time>2020-07-28T12:25:18Z</time>
      </trkpt>
      <trkpt lat="43.0653740" lon="-0.4642600">
        <ele>847.8</ele>
        <time>2020-07-28T12:25:20Z</time>
      </trkpt>
      <trkpt lat="43.0653760" lon="-0.4643140">
        <ele>848.2</ele>
        <time>2020-07-28T12:25:21Z</time>
      </trkpt>
      <trkpt lat="43.0653730" lon="-0.4645970">
        <ele>849.2</ele>
        <time>2020-07-28T12:25:26Z</time>
      </trkpt>
      <trkpt lat="43.0653590" lon="-0.4647750">
        <ele>849.8</ele>
        <time>2020-07-28T12:25:29Z</time>
      </trkpt>
      <trkpt lat="43.0653540" lon="-0.4648970">
        <ele>850.4</ele>
        <time>2020-07-28T12:25:31Z</time>
      </trkpt>
      <trkpt lat="43.0653600" lon="-0.4650960">
        <ele>851.0</ele>
        <time>2020-07-28T12:25:34Z</time>
      </trkpt>
      <trkpt lat="43.0654450" lon="-0.4655780">
        <ele>849.6</ele>
        <time>2020-07-28T12:25:40Z</time>
      </trkpt>
      <trkpt lat="43.0654580" lon="-0.4656650">
        <ele>849.2</ele>
        <time>2020-07-28T12:25:41Z</time>
      </trkpt>
      <trkpt lat="43.0654690" lon="-0.4661150">
        <ele>848.2</ele>
        <time>2020-07-28T12:25:46Z</time>
      </trkpt>
      <trkpt lat="43.0654630" lon="-0.4662050">
        <ele>848.2</ele>
        <time>2020-07-28T12:25:47Z</time>
      </trkpt>
      <trkpt lat="43.0654280" lon="-0.4667300">
        <ele>848.4</ele>
        <time>2020-07-28T12:25:53Z</time>
      </trkpt>
      <trkpt lat="43.0654180" lon="-0.4669000">
        <ele>848.6</ele>
        <time>2020-07-28T12:25:55Z</time>
      </trkpt>
      <trkpt lat="43.0654090" lon="-0.4671630">
        <ele>848.4</ele>
        <time>2020-07-28T12:25:58Z</time>
      </trkpt>
      <trkpt lat="43.0653850" lon="-0.4676880">
        <ele>847.6</ele>
        <time>2020-07-28T12:26:04Z</time>
      </trkpt>
      <trkpt lat="43.0653790" lon="-0.4678610">
        <ele>847.0</ele>
        <time>2020-07-28T12:26:06Z</time>
      </trkpt>
      <trkpt lat="43.0653470" lon="-0.4683560">
        <ele>847.0</ele>
        <time>2020-07-28T12:26:12Z</time>
      </trkpt>
      <trkpt lat="43.0653390" lon="-0.4684360">
        <ele>847.0</ele>
        <time>2020-07-28T12:26:13Z</time>
      </trkpt>
      <trkpt lat="43.0653270" lon="-0.4685170">
        <ele>847.0</ele>
        <time>2020-07-28T12:26:14Z</time>
      </trkpt>
      <trkpt lat="43.0652410" lon="-0.4689080">
        <ele>846.4</ele>
        <time>2020-07-28T12:26:19Z</time>
      </trkpt>
      <trkpt lat="43.0651880" lon="-0.4691320">
        <ele>846.0</ele>
        <time>2020-07-28T12:26:22Z</time>
      </trkpt>
      <trkpt lat="43.0651200" lon="-0.4694080">
        <ele>846.2</ele>
        <time>2020-07-28T12:26:26Z</time>
      </trkpt>
      <trkpt lat="43.0650790" lon="-0.4695980">
        <ele>845.8</ele>
        <time>2020-07-28T12:26:29Z</time>
      </trkpt>
      <trkpt lat="43.0650450" lon="-0.4698330">
        <ele>845.6</ele>
        <time>2020-07-28T12:26:33Z</time>
      </trkpt>
      <trkpt lat="43.0650590" lon="-0.4701980">
        <ele>846.4</ele>
        <time>2020-07-28T12:26:39Z</time>
      </trkpt>
      <trkpt lat="43.0650720" lon="-0.4703210">
        <ele>846.4</ele>
        <time>2020-07-28T12:26:41Z</time>
      </trkpt>
      <trkpt lat="43.0650570" lon="-0.4705030">
        <ele>846.8</ele>
        <time>2020-07-28T12:26:44Z</time>
      </trkpt>
      <trkpt lat="43.0649570" lon="-0.4707190">
        <ele>846.0</ele>
        <time>2020-07-28T12:26:49Z</time>
      </trkpt>
      <trkpt lat="43.0648370" lon="-0.4708560">
        <ele>846.4</ele>
        <time>2020-07-28T12:26:54Z</time>
      </trkpt>
      <trkpt lat="43.0647710" lon="-0.4709030">
        <ele>846.8</ele>
        <time>2020-07-28T12:26:56Z</time>
      </trkpt>
      <trkpt lat="43.0646960" lon="-0.4709670">
        <ele>847.0</ele>
        <time>2020-07-28T12:26:58Z</time>
      </trkpt>
      <trkpt lat="43.0645480" lon="-0.4711110">
        <ele>847.6</ele>
        <time>2020-07-28T12:27:02Z</time>
      </trkpt>
      <trkpt lat="43.0645070" lon="-0.4711500">
        <ele>847.6</ele>
        <time>2020-07-28T12:27:03Z</time>
      </trkpt>
      <trkpt lat="43.0643060" lon="-0.4713900">
        <ele>847.2</ele>
        <time>2020-07-28T12:27:08Z</time>
      </trkpt>
      <trkpt lat="43.0642700" lon="-0.4714480">
        <ele>847.2</ele>
        <time>2020-07-28T12:27:09Z</time>
      </trkpt>
      <trkpt lat="43.0642110" lon="-0.4715810">
        <ele>847.2</ele>
        <time>2020-07-28T12:27:11Z</time>
      </trkpt>
      <trkpt lat="43.0641900" lon="-0.4716540">
        <ele>847.2</ele>
        <time>2020-07-28T12:27:12Z</time>
      </trkpt>
      <trkpt lat="43.0640680" lon="-0.4721070">
        <ele>847.8</ele>
        <time>2020-07-28T12:27:18Z</time>
      </trkpt>
      <trkpt lat="43.0640450" lon="-0.4721820">
        <ele>847.8</ele>
        <time>2020-07-28T12:27:19Z</time>
      </trkpt>
      <trkpt lat="43.0639210" lon="-0.4726640">
        <ele>847.6</ele>
        <time>2020-07-28T12:27:25Z</time>
      </trkpt>
      <trkpt lat="43.0638770" lon="-0.4728250">
        <ele>847.8</ele>
        <time>2020-07-28T12:27:27Z</time>
      </trkpt>
      <trkpt lat="43.0638540" lon="-0.4729040">
        <ele>848.0</ele>
        <time>2020-07-28T12:27:28Z</time>
      </trkpt>
      <trkpt lat="43.0638300" lon="-0.4729810">
        <ele>848.2</ele>
        <time>2020-07-28T12:27:29Z</time>
      </trkpt>
      <trkpt lat="43.0637830" lon="-0.4731340">
        <ele>848.4</ele>
        <time>2020-07-28T12:27:31Z</time>
      </trkpt>
      <trkpt lat="43.0637320" lon="-0.4732850">
        <ele>848.4</ele>
        <time>2020-07-28T12:27:33Z</time>
      </trkpt>
      <trkpt lat="43.0635390" lon="-0.4737110">
        <ele>848.6</ele>
        <time>2020-07-28T12:27:39Z</time>
      </trkpt>
      <trkpt lat="43.0635050" lon="-0.4737810">
        <ele>848.6</ele>
        <time>2020-07-28T12:27:40Z</time>
      </trkpt>
      <trkpt lat="43.0634260" lon="-0.4739050">
        <ele>848.6</ele>
        <time>2020-07-28T12:27:42Z</time>
      </trkpt>
      <trkpt lat="43.0633340" lon="-0.4740040">
        <ele>848.8</ele>
        <time>2020-07-28T12:27:44Z</time>
      </trkpt>
      <trkpt lat="43.0632220" lon="-0.4740700">
        <ele>849.0</ele>
        <time>2020-07-28T12:27:46Z</time>
      </trkpt>
      <trkpt lat="43.0631040" lon="-0.4741160">
        <ele>849.2</ele>
        <time>2020-07-28T12:27:48Z</time>
      </trkpt>
      <trkpt lat="43.0627450" lon="-0.4742750">
        <ele>849.0</ele>
        <time>2020-07-28T12:27:54Z</time>
      </trkpt>
      <trkpt lat="43.0626980" lon="-0.4743320">
        <ele>849.0</ele>
        <time>2020-07-28T12:27:55Z</time>
      </trkpt>
      <trkpt lat="43.0626570" lon="-0.4744040">
        <ele>849.0</ele>
        <time>2020-07-28T12:27:56Z</time>
      </trkpt>
      <trkpt lat="43.0625630" lon="-0.4746430">
        <ele>849.0</ele>
        <time>2020-07-28T12:27:59Z</time>
      </trkpt>
      <trkpt lat="43.0624270" lon="-0.4750560">
        <ele>848.8</ele>
        <time>2020-07-28T12:28:04Z</time>
      </trkpt>
      <trkpt lat="43.0622940" lon="-0.4754790">
        <ele>849.0</ele>
        <time>2020-07-28T12:28:09Z</time>
      </trkpt>
      <trkpt lat="43.0621400" lon="-0.4760080">
        <ele>849.2</ele>
        <time>2020-07-28T12:28:15Z</time>
      </trkpt>
      <trkpt lat="43.0620490" lon="-0.4763640">
        <ele>849.0</ele>
        <time>2020-07-28T12:28:19Z</time>
      </trkpt>
      <trkpt lat="43.0619560" lon="-0.4766890">
        <ele>848.6</ele>
        <time>2020-07-28T12:28:23Z</time>
      </trkpt>
      <trkpt lat="43.0618740" lon="-0.4769360">
        <ele>849.0</ele>
        <time>2020-07-28T12:28:26Z</time>
      </trkpt>
      <trkpt lat="43.0617100" lon="-0.4774720">
        <ele>849.6</ele>
        <time>2020-07-28T12:28:32Z</time>
      </trkpt>
      <trkpt lat="43.0614980" lon="-0.4779920">
        <ele>849.2</ele>
        <time>2020-07-28T12:28:38Z</time>
      </trkpt>
      <trkpt lat="43.0613920" lon="-0.4782550">
        <ele>849.2</ele>
        <time>2020-07-28T12:28:41Z</time>
      </trkpt>
      <trkpt lat="43.0611780" lon="-0.4786560">
        <ele>849.8</ele>
        <time>2020-07-28T12:28:46Z</time>
      </trkpt>
      <trkpt lat="43.0611420" lon="-0.4787430">
        <ele>850.0</ele>
        <time>2020-07-28T12:28:47Z</time>
      </trkpt>
      <trkpt lat="43.0610650" lon="-0.4790170">
        <ele>850.0</ele>
        <time>2020-07-28T12:28:50Z</time>
      </trkpt>
      <trkpt lat="43.0609390" lon="-0.4795900">
        <ele>850.2</ele>
        <time>2020-07-28T12:28:56Z</time>
      </trkpt>
      <trkpt lat="43.0608980" lon="-0.4797830">
        <ele>850.4</ele>
        <time>2020-07-28T12:28:58Z</time>
      </trkpt>
      <trkpt lat="43.0607700" lon="-0.4803300">
        <ele>851.2</ele>
        <time>2020-07-28T12:29:04Z</time>
      </trkpt>
      <trkpt lat="43.0607410" lon="-0.4805070">
        <ele>851.6</ele>
        <time>2020-07-28T12:29:06Z</time>
      </trkpt>
      <trkpt lat="43.0606850" lon="-0.4809970">
        <ele>852.4</ele>
        <time>2020-07-28T12:29:12Z</time>
      </trkpt>
      <trkpt lat="43.0606760" lon="-0.4810760">
        <ele>852.8</ele>
        <time>2020-07-28T12:29:13Z</time>
      </trkpt>
      <trkpt lat="43.0606680" lon="-0.4811550">
        <ele>853.2</ele>
        <time>2020-07-28T12:29:14Z</time>
      </trkpt>
      <trkpt lat="43.0606540" lon="-0.4813160">
        <ele>854.2</ele>
        <time>2020-07-28T12:29:16Z</time>
      </trkpt>
      <trkpt lat="43.0606220" lon="-0.4816940">
        <ele>855.2</ele>
        <time>2020-07-28T12:29:21Z</time>
      </trkpt>
      <trkpt lat="43.0606130" lon="-0.4817660">
        <ele>855.4</ele>
        <time>2020-07-28T12:29:22Z</time>
      </trkpt>
      <trkpt lat="43.0605800" lon="-0.4820470">
        <ele>856.4</ele>
        <time>2020-07-28T12:29:26Z</time>
      </trkpt>
      <trkpt lat="43.0605550" lon="-0.4822450">
        <ele>856.8</ele>
        <time>2020-07-28T12:29:29Z</time>
      </trkpt>
      <trkpt lat="43.0605410" lon="-0.4823750">
        <ele>857.2</ele>
        <time>2020-07-28T12:29:31Z</time>
      </trkpt>
      <trkpt lat="43.0605320" lon="-0.4824380">
        <ele>857.4</ele>
        <time>2020-07-28T12:29:32Z</time>
      </trkpt>
      <trkpt lat="43.0604980" lon="-0.4826890">
        <ele>858.4</ele>
        <time>2020-07-28T12:29:36Z</time>
      </trkpt>
      <trkpt lat="43.0604700" lon="-0.4828740">
        <ele>859.4</ele>
        <time>2020-07-28T12:29:39Z</time>
      </trkpt>
      <trkpt lat="43.0604600" lon="-0.4829350">
        <ele>859.8</ele>
        <time>2020-07-28T12:29:40Z</time>
      </trkpt>
      <trkpt lat="43.0604290" lon="-0.4831190">
        <ele>860.6</ele>
        <time>2020-07-28T12:29:43Z</time>
      </trkpt>
      <trkpt lat="43.0603930" lon="-0.4833600">
        <ele>861.8</ele>
        <time>2020-07-28T12:29:47Z</time>
      </trkpt>
      <trkpt lat="43.0603660" lon="-0.4835280">
        <ele>862.2</ele>
        <time>2020-07-28T12:29:50Z</time>
      </trkpt>
      <trkpt lat="43.0603580" lon="-0.4835860">
        <ele>862.4</ele>
        <time>2020-07-28T12:29:51Z</time>
      </trkpt>
      <trkpt lat="43.0603490" lon="-0.4836420">
        <ele>862.8</ele>
        <time>2020-07-28T12:29:52Z</time>
      </trkpt>
      <trkpt lat="43.0603110" lon="-0.4838650">
        <ele>863.8</ele>
        <time>2020-07-28T12:29:56Z</time>
      </trkpt>
      <trkpt lat="43.0602890" lon="-0.4840290">
        <ele>864.8</ele>
        <time>2020-07-28T12:29:59Z</time>
      </trkpt>
      <trkpt lat="43.0602810" lon="-0.4840850">
        <ele>865.0</ele>
        <time>2020-07-28T12:30:00Z</time>
      </trkpt>
      <trkpt lat="43.0602420" lon="-0.4843640">
        <ele>866.0</ele>
        <time>2020-07-28T12:30:05Z</time>
      </trkpt>
      <trkpt lat="43.0602100" lon="-0.4845760">
        <ele>866.8</ele>
        <time>2020-07-28T12:30:09Z</time>
      </trkpt>
      <trkpt lat="43.0602020" lon="-0.4846260">
        <ele>867.0</ele>
        <time>2020-07-28T12:30:10Z</time>
      </trkpt>
      <trkpt lat="43.0601570" lon="-0.4848890">
        <ele>868.4</ele>
        <time>2020-07-28T12:30:15Z</time>
      </trkpt>
      <trkpt lat="43.0601390" lon="-0.4849950">
        <ele>869.0</ele>
        <time>2020-07-28T12:30:17Z</time>
      </trkpt>
      <trkpt lat="43.0601300" lon="-0.4850460">
        <ele>869.2</ele>
        <time>2020-07-28T12:30:18Z</time>
      </trkpt>
      <trkpt lat="43.0601230" lon="-0.4850970">
        <ele>869.4</ele>
        <time>2020-07-28T12:30:19Z</time>
      </trkpt>
      <trkpt lat="43.0601080" lon="-0.4851960">
        <ele>870.0</ele>
        <time>2020-07-28T12:30:21Z</time>
      </trkpt>
      <trkpt lat="43.0600900" lon="-0.4852930">
        <ele>870.6</ele>
        <time>2020-07-28T12:30:23Z</time>
      </trkpt>
      <trkpt lat="43.0600650" lon="-0.4854330">
        <ele>871.4</ele>
        <time>2020-07-28T12:30:26Z</time>
      </trkpt>
      <trkpt lat="43.0600580" lon="-0.4854800">
        <ele>871.8</ele>
        <time>2020-07-28T12:30:27Z</time>
      </trkpt>
      <trkpt lat="43.0600500" lon="-0.4855270">
        <ele>872.0</ele>
        <time>2020-07-28T12:30:28Z</time>
      </trkpt>
      <trkpt lat="43.0600210" lon="-0.4856650">
        <ele>873.0</ele>
        <time>2020-07-28T12:30:31Z</time>
      </trkpt>
      <trkpt lat="43.0599570" lon="-0.4858830">
        <ele>874.2</ele>
        <time>2020-07-28T12:30:36Z</time>
      </trkpt>
      <trkpt lat="43.0599410" lon="-0.4859230">
        <ele>874.6</ele>
        <time>2020-07-28T12:30:37Z</time>
      </trkpt>
      <trkpt lat="43.0598900" lon="-0.4860460">
        <ele>875.2</ele>
        <time>2020-07-28T12:30:40Z</time>
      </trkpt>
      <trkpt lat="43.0598400" lon="-0.4861750">
        <ele>876.4</ele>
        <time>2020-07-28T12:30:43Z</time>
      </trkpt>
      <trkpt lat="43.0598000" lon="-0.4863070">
        <ele>877.0</ele>
        <time>2020-07-28T12:30:46Z</time>
      </trkpt>
      <trkpt lat="43.0597750" lon="-0.4863880">
        <ele>877.6</ele>
        <time>2020-07-28T12:30:48Z</time>
      </trkpt>
      <trkpt lat="43.0597110" lon="-0.4865830">
        <ele>878.8</ele>
        <time>2020-07-28T12:30:53Z</time>
      </trkpt>
      <trkpt lat="43.0596810" lon="-0.4867060">
        <ele>879.8</ele>
        <time>2020-07-28T12:30:56Z</time>
      </trkpt>
      <trkpt lat="43.0596530" lon="-0.4867900">
        <ele>880.2</ele>
        <time>2020-07-28T12:30:58Z</time>
      </trkpt>
      <trkpt lat="43.0596090" lon="-0.4869080">
        <ele>880.8</ele>
        <time>2020-07-28T12:31:01Z</time>
      </trkpt>
      <trkpt lat="43.0595510" lon="-0.4870700">
        <ele>882.0</ele>
        <time>2020-07-28T12:31:05Z</time>
      </trkpt>
      <trkpt lat="43.0595090" lon="-0.4871940">
        <ele>882.8</ele>
        <time>2020-07-28T12:31:08Z</time>
      </trkpt>
      <trkpt lat="43.0594990" lon="-0.4872350">
        <ele>883.2</ele>
        <time>2020-07-28T12:31:09Z</time>
      </trkpt>
      <trkpt lat="43.0594900" lon="-0.4872770">
        <ele>883.4</ele>
        <time>2020-07-28T12:31:10Z</time>
      </trkpt>
      <trkpt lat="43.0594570" lon="-0.4873910">
        <ele>884.0</ele>
        <time>2020-07-28T12:31:13Z</time>
      </trkpt>
      <trkpt lat="43.0594430" lon="-0.4874260">
        <ele>884.2</ele>
        <time>2020-07-28T12:31:14Z</time>
      </trkpt>
      <trkpt lat="43.0594290" lon="-0.4874600">
        <ele>884.6</ele>
        <time>2020-07-28T12:31:15Z</time>
      </trkpt>
      <trkpt lat="43.0594180" lon="-0.4874950">
        <ele>885.2</ele>
        <time>2020-07-28T12:31:16Z</time>
      </trkpt>
      <trkpt lat="43.0594110" lon="-0.4875340">
        <ele>885.6</ele>
        <time>2020-07-28T12:31:17Z</time>
      </trkpt>
      <trkpt lat="43.0593880" lon="-0.4876490">
        <ele>886.2</ele>
        <time>2020-07-28T12:31:20Z</time>
      </trkpt>
      <trkpt lat="43.0593640" lon="-0.4877230">
        <ele>886.6</ele>
        <time>2020-07-28T12:31:22Z</time>
      </trkpt>
      <trkpt lat="43.0593400" lon="-0.4878010">
        <ele>887.2</ele>
        <time>2020-07-28T12:31:24Z</time>
      </trkpt>
      <trkpt lat="43.0593190" lon="-0.4878820">
        <ele>888.2</ele>
        <time>2020-07-28T12:31:26Z</time>
      </trkpt>
      <trkpt lat="43.0592830" lon="-0.4880450">
        <ele>889.2</ele>
        <time>2020-07-28T12:31:30Z</time>
      </trkpt>
      <trkpt lat="43.0592400" lon="-0.4881840">
        <ele>890.2</ele>
        <time>2020-07-28T12:31:34Z</time>
      </trkpt>
      <trkpt lat="43.0591980" lon="-0.4883250">
        <ele>891.4</ele>
        <time>2020-07-28T12:31:38Z</time>
      </trkpt>
      <trkpt lat="43.0591650" lon="-0.4884750">
        <ele>892.6</ele>
        <time>2020-07-28T12:31:42Z</time>
      </trkpt>
      <trkpt lat="43.0591450" lon="-0.4885470">
        <ele>893.2</ele>
        <time>2020-07-28T12:31:44Z</time>
      </trkpt>
      <trkpt lat="43.0591170" lon="-0.4886120">
        <ele>894.0</ele>
        <time>2020-07-28T12:31:46Z</time>
      </trkpt>
      <trkpt lat="43.0590660" lon="-0.4887420">
        <ele>895.0</ele>
        <time>2020-07-28T12:31:50Z</time>
      </trkpt>
      <trkpt lat="43.0590410" lon="-0.4888140">
        <ele>895.6</ele>
        <time>2020-07-28T12:31:52Z</time>
      </trkpt>
      <trkpt lat="43.0590120" lon="-0.4888820">
        <ele>896.2</ele>
        <time>2020-07-28T12:31:54Z</time>
      </trkpt>
      <trkpt lat="43.0589680" lon="-0.4889780">
        <ele>897.4</ele>
        <time>2020-07-28T12:31:57Z</time>
      </trkpt>
      <trkpt lat="43.0589410" lon="-0.4890830">
        <ele>898.2</ele>
        <time>2020-07-28T12:32:00Z</time>
      </trkpt>
      <trkpt lat="43.0589430" lon="-0.4891210">
        <ele>898.6</ele>
        <time>2020-07-28T12:32:01Z</time>
      </trkpt>
      <trkpt lat="43.0589680" lon="-0.4891800">
        <ele>899.4</ele>
        <time>2020-07-28T12:32:03Z</time>
      </trkpt>
      <trkpt lat="43.0589860" lon="-0.4891990">
        <ele>899.6</ele>
        <time>2020-07-28T12:32:04Z</time>
      </trkpt>
      <trkpt lat="43.0590070" lon="-0.4892160">
        <ele>899.8</ele>
        <time>2020-07-28T12:32:05Z</time>
      </trkpt>
      <trkpt lat="43.0590950" lon="-0.4892770">
        <ele>901.0</ele>
        <time>2020-07-28T12:32:09Z</time>
      </trkpt>
      <trkpt lat="43.0591240" lon="-0.4892810">
        <ele>901.4</ele>
        <time>2020-07-28T12:32:10Z</time>
      </trkpt>
      <trkpt lat="43.0592160" lon="-0.4892640">
        <ele>902.2</ele>
        <time>2020-07-28T12:32:13Z</time>
      </trkpt>
      <trkpt lat="43.0592890" lon="-0.4892360">
        <ele>903.2</ele>
        <time>2020-07-28T12:32:16Z</time>
      </trkpt>
      <trkpt lat="43.0593100" lon="-0.4892290">
        <ele>903.4</ele>
        <time>2020-07-28T12:32:17Z</time>
      </trkpt>
      <trkpt lat="43.0593530" lon="-0.4892210">
        <ele>903.8</ele>
        <time>2020-07-28T12:32:19Z</time>
      </trkpt>
      <trkpt lat="43.0594220" lon="-0.4891890">
        <ele>904.6</ele>
        <time>2020-07-28T12:32:22Z</time>
      </trkpt>
      <trkpt lat="43.0594730" lon="-0.4891600">
        <ele>905.4</ele>
        <time>2020-07-28T12:32:24Z</time>
      </trkpt>
      <trkpt lat="43.0595340" lon="-0.4891130">
        <ele>906.0</ele>
        <time>2020-07-28T12:32:26Z</time>
      </trkpt>
      <trkpt lat="43.0596370" lon="-0.4890340">
        <ele>907.2</ele>
        <time>2020-07-28T12:32:30Z</time>
      </trkpt>
      <trkpt lat="43.0597080" lon="-0.4889720">
        <ele>908.2</ele>
        <time>2020-07-28T12:32:33Z</time>
      </trkpt>
      <trkpt lat="43.0597310" lon="-0.4889540">
        <ele>908.4</ele>
        <time>2020-07-28T12:32:34Z</time>
      </trkpt>
      <trkpt lat="43.0598140" lon="-0.4888720">
        <ele>909.6</ele>
        <time>2020-07-28T12:32:38Z</time>
      </trkpt>
      <trkpt lat="43.0598900" lon="-0.4888060">
        <ele>910.8</ele>
        <time>2020-07-28T12:32:42Z</time>
      </trkpt>
      <trkpt lat="43.0599100" lon="-0.4887920">
        <ele>911.0</ele>
        <time>2020-07-28T12:32:43Z</time>
      </trkpt>
      <trkpt lat="43.0599990" lon="-0.4887080">
        <ele>912.2</ele>
        <time>2020-07-28T12:32:47Z</time>
      </trkpt>
      <trkpt lat="43.0601020" lon="-0.4886280">
        <ele>913.4</ele>
        <time>2020-07-28T12:32:51Z</time>
      </trkpt>
      <trkpt lat="43.0602020" lon="-0.4885280">
        <ele>914.6</ele>
        <time>2020-07-28T12:32:55Z</time>
      </trkpt>
      <trkpt lat="43.0602770" lon="-0.4884550">
        <ele>915.6</ele>
        <time>2020-07-28T12:32:58Z</time>
      </trkpt>
      <trkpt lat="43.0603030" lon="-0.4884360">
        <ele>916.0</ele>
        <time>2020-07-28T12:32:59Z</time>
      </trkpt>
      <trkpt lat="43.0603680" lon="-0.4883680">
        <ele>916.6</ele>
        <time>2020-07-28T12:33:02Z</time>
      </trkpt>
      <trkpt lat="43.0604530" lon="-0.4882980">
        <ele>917.8</ele>
        <time>2020-07-28T12:33:06Z</time>
      </trkpt>
      <trkpt lat="43.0605040" lon="-0.4883550">
        <ele>919.0</ele>
        <time>2020-07-28T12:33:09Z</time>
      </trkpt>
      <trkpt lat="43.0605010" lon="-0.4883830">
        <ele>919.2</ele>
        <time>2020-07-28T12:33:10Z</time>
      </trkpt>
      <trkpt lat="43.0604610" lon="-0.4884630">
        <ele>920.0</ele>
        <time>2020-07-28T12:33:13Z</time>
      </trkpt>
      <trkpt lat="43.0604260" lon="-0.4885140">
        <ele>920.6</ele>
        <time>2020-07-28T12:33:15Z</time>
      </trkpt>
      <trkpt lat="43.0603890" lon="-0.4885590">
        <ele>921.2</ele>
        <time>2020-07-28T12:33:17Z</time>
      </trkpt>
      <trkpt lat="43.0603180" lon="-0.4886150">
        <ele>922.4</ele>
        <time>2020-07-28T12:33:20Z</time>
      </trkpt>
      <trkpt lat="43.0602620" lon="-0.4886710">
        <ele>923.6</ele>
        <time>2020-07-28T12:33:23Z</time>
      </trkpt>
      <trkpt lat="43.0602240" lon="-0.4887250">
        <ele>924.6</ele>
        <time>2020-07-28T12:33:26Z</time>
      </trkpt>
      <trkpt lat="43.0601920" lon="-0.4888060">
        <ele>925.4</ele>
        <time>2020-07-28T12:33:29Z</time>
      </trkpt>
      <trkpt lat="43.0601830" lon="-0.4888340">
        <ele>925.6</ele>
        <time>2020-07-28T12:33:30Z</time>
      </trkpt>
      <trkpt lat="43.0601440" lon="-0.4889700">
        <ele>927.0</ele>
        <time>2020-07-28T12:33:35Z</time>
      </trkpt>
      <trkpt lat="43.0601250" lon="-0.4890240">
        <ele>927.4</ele>
        <time>2020-07-28T12:33:37Z</time>
      </trkpt>
      <trkpt lat="43.0601080" lon="-0.4890800">
        <ele>928.0</ele>
        <time>2020-07-28T12:33:39Z</time>
      </trkpt>
      <trkpt lat="43.0600670" lon="-0.4892020">
        <ele>929.4</ele>
        <time>2020-07-28T12:33:43Z</time>
      </trkpt>
      <trkpt lat="43.0600570" lon="-0.4892320">
        <ele>929.6</ele>
        <time>2020-07-28T12:33:44Z</time>
      </trkpt>
      <trkpt lat="43.0600250" lon="-0.4893340">
        <ele>930.4</ele>
        <time>2020-07-28T12:33:47Z</time>
      </trkpt>
      <trkpt lat="43.0599760" lon="-0.4894200">
        <ele>931.6</ele>
        <time>2020-07-28T12:33:50Z</time>
      </trkpt>
      <trkpt lat="43.0599610" lon="-0.4894480">
        <ele>932.0</ele>
        <time>2020-07-28T12:33:51Z</time>
      </trkpt>
      <trkpt lat="43.0599310" lon="-0.4894960">
        <ele>932.6</ele>
        <time>2020-07-28T12:33:53Z</time>
      </trkpt>
      <trkpt lat="43.0598680" lon="-0.4896580">
        <ele>933.6</ele>
        <time>2020-07-28T12:33:57Z</time>
      </trkpt>
      <trkpt lat="43.0597910" lon="-0.4897980">
        <ele>935.0</ele>
        <time>2020-07-28T12:34:01Z</time>
      </trkpt>
      <trkpt lat="43.0597410" lon="-0.4898870">
        <ele>936.2</ele>
        <time>2020-07-28T12:34:04Z</time>
      </trkpt>
      <trkpt lat="43.0597110" lon="-0.4899820">
        <ele>937.2</ele>
        <time>2020-07-28T12:34:07Z</time>
      </trkpt>
      <trkpt lat="43.0596640" lon="-0.4900760">
        <ele>938.4</ele>
        <time>2020-07-28T12:34:10Z</time>
      </trkpt>
      <trkpt lat="43.0596220" lon="-0.4902350">
        <ele>939.4</ele>
        <time>2020-07-28T12:34:14Z</time>
      </trkpt>
      <trkpt lat="43.0595920" lon="-0.4903110">
        <ele>940.6</ele>
        <time>2020-07-28T12:34:16Z</time>
      </trkpt>
      <trkpt lat="43.0595810" lon="-0.4903500">
        <ele>941.0</ele>
        <time>2020-07-28T12:34:17Z</time>
      </trkpt>
      <trkpt lat="43.0595460" lon="-0.4904360">
        <ele>942.0</ele>
        <time>2020-07-28T12:34:19Z</time>
      </trkpt>
      <trkpt lat="43.0594840" lon="-0.4905540">
        <ele>943.2</ele>
        <time>2020-07-28T12:34:22Z</time>
      </trkpt>
      <trkpt lat="43.0594660" lon="-0.4905910">
        <ele>943.4</ele>
        <time>2020-07-28T12:34:23Z</time>
      </trkpt>
      <trkpt lat="43.0594050" lon="-0.4907040">
        <ele>944.2</ele>
        <time>2020-07-28T12:34:26Z</time>
      </trkpt>
      <trkpt lat="43.0593210" lon="-0.4908540">
        <ele>945.4</ele>
        <time>2020-07-28T12:34:30Z</time>
      </trkpt>
      <trkpt lat="43.0592420" lon="-0.4910060">
        <ele>946.6</ele>
        <time>2020-07-28T12:34:34Z</time>
      </trkpt>
      <trkpt lat="43.0592020" lon="-0.4910840">
        <ele>947.2</ele>
        <time>2020-07-28T12:34:36Z</time>
      </trkpt>
      <trkpt lat="43.0591480" lon="-0.4911860">
        <ele>947.6</ele>
        <time>2020-07-28T12:34:39Z</time>
      </trkpt>
      <trkpt lat="43.0591090" lon="-0.4913340">
        <ele>948.2</ele>
        <time>2020-07-28T12:34:43Z</time>
      </trkpt>
      <trkpt lat="43.0590850" lon="-0.4914060">
        <ele>948.8</ele>
        <time>2020-07-28T12:34:45Z</time>
      </trkpt>
      <trkpt lat="43.0590240" lon="-0.4915910">
        <ele>949.8</ele>
        <time>2020-07-28T12:34:49Z</time>
      </trkpt>
      <trkpt lat="43.0590120" lon="-0.4916330">
        <ele>950.2</ele>
        <time>2020-07-28T12:34:50Z</time>
      </trkpt>
      <trkpt lat="43.0589650" lon="-0.4918160">
        <ele>951.0</ele>
        <time>2020-07-28T12:34:54Z</time>
      </trkpt>
      <trkpt lat="43.0589320" lon="-0.4919330">
        <ele>951.6</ele>
        <time>2020-07-28T12:34:57Z</time>
      </trkpt>
      <trkpt lat="43.0589010" lon="-0.4920070">
        <ele>952.0</ele>
        <time>2020-07-28T12:34:59Z</time>
      </trkpt>
      <trkpt lat="43.0587950" lon="-0.4921830">
        <ele>953.0</ele>
        <time>2020-07-28T12:35:04Z</time>
      </trkpt>
      <trkpt lat="43.0587740" lon="-0.4922250">
        <ele>953.2</ele>
        <time>2020-07-28T12:35:05Z</time>
      </trkpt>
      <trkpt lat="43.0587160" lon="-0.4923520">
        <ele>954.4</ele>
        <time>2020-07-28T12:35:08Z</time>
      </trkpt>
      <trkpt lat="43.0586130" lon="-0.4925180">
        <ele>955.4</ele>
        <time>2020-07-28T12:35:12Z</time>
      </trkpt>
      <trkpt lat="43.0584630" lon="-0.4927270">
        <ele>956.6</ele>
        <time>2020-07-28T12:35:17Z</time>
      </trkpt>
      <trkpt lat="43.0584060" lon="-0.4928640">
        <ele>957.4</ele>
        <time>2020-07-28T12:35:20Z</time>
      </trkpt>
      <trkpt lat="43.0583930" lon="-0.4929140">
        <ele>957.8</ele>
        <time>2020-07-28T12:35:21Z</time>
      </trkpt>
      <trkpt lat="43.0583950" lon="-0.4930610">
        <ele>958.8</ele>
        <time>2020-07-28T12:35:24Z</time>
      </trkpt>
      <trkpt lat="43.0584100" lon="-0.4931050">
        <ele>959.0</ele>
        <time>2020-07-28T12:35:25Z</time>
      </trkpt>
      <trkpt lat="43.0585130" lon="-0.4932420">
        <ele>960.2</ele>
        <time>2020-07-28T12:35:29Z</time>
      </trkpt>
      <trkpt lat="43.0585430" lon="-0.4932700">
        <ele>960.4</ele>
        <time>2020-07-28T12:35:30Z</time>
      </trkpt>
      <trkpt lat="43.0586630" lon="-0.4933700">
        <ele>961.4</ele>
        <time>2020-07-28T12:35:34Z</time>
      </trkpt>
      <trkpt lat="43.0587840" lon="-0.4934530">
        <ele>962.4</ele>
        <time>2020-07-28T12:35:38Z</time>
      </trkpt>
      <trkpt lat="43.0588110" lon="-0.4934680">
        <ele>962.6</ele>
        <time>2020-07-28T12:35:39Z</time>
      </trkpt>
      <trkpt lat="43.0588830" lon="-0.4934960">
        <ele>963.4</ele>
        <time>2020-07-28T12:35:42Z</time>
      </trkpt>
      <trkpt lat="43.0589580" lon="-0.4934890">
        <ele>964.8</ele>
        <time>2020-07-28T12:35:45Z</time>
      </trkpt>
      <trkpt lat="43.0590770" lon="-0.4934180">
        <ele>966.0</ele>
        <time>2020-07-28T12:35:49Z</time>
      </trkpt>
      <trkpt lat="43.0591480" lon="-0.4933670">
        <ele>966.8</ele>
        <time>2020-07-28T12:35:51Z</time>
      </trkpt>
      <trkpt lat="43.0592090" lon="-0.4933010">
        <ele>967.2</ele>
        <time>2020-07-28T12:35:53Z</time>
      </trkpt>
      <trkpt lat="43.0592900" lon="-0.4931480">
        <ele>968.4</ele>
        <time>2020-07-28T12:35:57Z</time>
      </trkpt>
      <trkpt lat="43.0593020" lon="-0.4929550">
        <ele>969.6</ele>
        <time>2020-07-28T12:36:00Z</time>
      </trkpt>
      <trkpt lat="43.0593190" lon="-0.4928520">
        <ele>970.0</ele>
        <time>2020-07-28T12:36:02Z</time>
      </trkpt>
      <trkpt lat="43.0593390" lon="-0.4926910">
        <ele>970.6</ele>
        <time>2020-07-28T12:36:05Z</time>
      </trkpt>
      <trkpt lat="43.0593670" lon="-0.4925190">
        <ele>971.0</ele>
        <time>2020-07-28T12:36:08Z</time>
      </trkpt>
      <trkpt lat="43.0593930" lon="-0.4920810">
        <ele>971.0</ele>
        <time>2020-07-28T12:36:14Z</time>
      </trkpt>
      <trkpt lat="43.0594110" lon="-0.4918210">
        <ele>970.6</ele>
        <time>2020-07-28T12:36:17Z</time>
      </trkpt>
      <trkpt lat="43.0594290" lon="-0.4916440">
        <ele>970.4</ele>
        <time>2020-07-28T12:36:19Z</time>
      </trkpt>
      <trkpt lat="43.0594570" lon="-0.4915580">
        <ele>970.2</ele>
        <time>2020-07-28T12:36:20Z</time>
      </trkpt>
      <trkpt lat="43.0595430" lon="-0.4914060">
        <ele>970.0</ele>
        <time>2020-07-28T12:36:22Z</time>
      </trkpt>
      <trkpt lat="43.0597340" lon="-0.4911550">
        <ele>969.6</ele>
        <time>2020-07-28T12:36:25Z</time>
      </trkpt>
      <trkpt lat="43.0598430" lon="-0.4909980">
        <ele>969.2</ele>
        <time>2020-07-28T12:36:27Z</time>
      </trkpt>
      <trkpt lat="43.0599000" lon="-0.4909310">
        <ele>969.2</ele>
        <time>2020-07-28T12:36:28Z</time>
      </trkpt>
      <trkpt lat="43.0600180" lon="-0.4908910">
        <ele>969.0</ele>
        <time>2020-07-28T12:36:30Z</time>
      </trkpt>
      <trkpt lat="43.0601530" lon="-0.4909820">
        <ele>968.6</ele>
        <time>2020-07-28T12:36:32Z</time>
      </trkpt>
      <trkpt lat="43.0602670" lon="-0.4911340">
        <ele>968.4</ele>
        <time>2020-07-28T12:36:34Z</time>
      </trkpt>
      <trkpt lat="43.0603700" lon="-0.4912890">
        <ele>968.2</ele>
        <time>2020-07-28T12:36:36Z</time>
      </trkpt>
      <trkpt lat="43.0605130" lon="-0.4915510">
        <ele>968.2</ele>
        <time>2020-07-28T12:36:39Z</time>
      </trkpt>
      <trkpt lat="43.0605890" lon="-0.4917430">
        <ele>968.0</ele>
        <time>2020-07-28T12:36:41Z</time>
      </trkpt>
      <trkpt lat="43.0607100" lon="-0.4921800">
        <ele>967.8</ele>
        <time>2020-07-28T12:36:45Z</time>
      </trkpt>
      <trkpt lat="43.0607250" lon="-0.4923040">
        <ele>967.4</ele>
        <time>2020-07-28T12:36:46Z</time>
      </trkpt>
      <trkpt lat="43.0607390" lon="-0.4927880">
        <ele>966.6</ele>
        <time>2020-07-28T12:36:50Z</time>
      </trkpt>
      <trkpt lat="43.0607230" lon="-0.4928990">
        <ele>966.4</ele>
        <time>2020-07-28T12:36:51Z</time>
      </trkpt>
      <trkpt lat="43.0606980" lon="-0.4930040">
        <ele>966.2</ele>
        <time>2020-07-28T12:36:52Z</time>
      </trkpt>
      <trkpt lat="43.0605900" lon="-0.4932220">
        <ele>966.0</ele>
        <time>2020-07-28T12:36:54Z</time>
      </trkpt>
      <trkpt lat="43.0603730" lon="-0.4936160">
        <ele>965.2</ele>
        <time>2020-07-28T12:36:58Z</time>
      </trkpt>
      <trkpt lat="43.0603270" lon="-0.4937220">
        <ele>965.0</ele>
        <time>2020-07-28T12:36:59Z</time>
      </trkpt>
      <trkpt lat="43.0601430" lon="-0.4942920">
        <ele>964.6</ele>
        <time>2020-07-28T12:37:04Z</time>
      </trkpt>
      <trkpt lat="43.0601310" lon="-0.4944090">
        <ele>964.8</ele>
        <time>2020-07-28T12:37:05Z</time>
      </trkpt>
      <trkpt lat="43.0601460" lon="-0.4946440">
        <ele>965.0</ele>
        <time>2020-07-28T12:37:07Z</time>
      </trkpt>
      <trkpt lat="43.0601690" lon="-0.4947600">
        <ele>965.0</ele>
        <time>2020-07-28T12:37:08Z</time>
      </trkpt>
      <trkpt lat="43.0602930" lon="-0.4952160">
        <ele>964.2</ele>
        <time>2020-07-28T12:37:12Z</time>
      </trkpt>
      <trkpt lat="43.0603330" lon="-0.4953250">
        <ele>964.0</ele>
        <time>2020-07-28T12:37:13Z</time>
      </trkpt>
      <trkpt lat="43.0605050" lon="-0.4959470">
        <ele>963.6</ele>
        <time>2020-07-28T12:37:19Z</time>
      </trkpt>
      <trkpt lat="43.0605420" lon="-0.4960410">
        <ele>963.8</ele>
        <time>2020-07-28T12:37:20Z</time>
      </trkpt>
      <trkpt lat="43.0606640" lon="-0.4962620">
        <ele>963.8</ele>
        <time>2020-07-28T12:37:23Z</time>
      </trkpt>
      <trkpt lat="43.0607110" lon="-0.4963000">
        <ele>963.8</ele>
        <time>2020-07-28T12:37:24Z</time>
      </trkpt>
      <trkpt lat="43.0608370" lon="-0.4963750">
        <ele>963.6</ele>
        <time>2020-07-28T12:37:26Z</time>
      </trkpt>
      <trkpt lat="43.0609090" lon="-0.4964070">
        <ele>963.4</ele>
        <time>2020-07-28T12:37:27Z</time>
      </trkpt>
      <trkpt lat="43.0610580" lon="-0.4964720">
        <ele>963.2</ele>
        <time>2020-07-28T12:37:29Z</time>
      </trkpt>
      <trkpt lat="43.0612860" lon="-0.4965100">
        <ele>963.2</ele>
        <time>2020-07-28T12:37:32Z</time>
      </trkpt>
      <trkpt lat="43.0617230" lon="-0.4965480">
        <ele>963.4</ele>
        <time>2020-07-28T12:37:38Z</time>
      </trkpt>
      <trkpt lat="43.0619500" lon="-0.4966440">
        <ele>963.2</ele>
        <time>2020-07-28T12:37:41Z</time>
      </trkpt>
      <trkpt lat="43.0620980" lon="-0.4967650">
        <ele>963.2</ele>
        <time>2020-07-28T12:37:43Z</time>
      </trkpt>
      <trkpt lat="43.0623990" lon="-0.4970130">
        <ele>963.4</ele>
        <time>2020-07-28T12:37:47Z</time>
      </trkpt>
      <trkpt lat="43.0624780" lon="-0.4970520">
        <ele>963.4</ele>
        <time>2020-07-28T12:37:48Z</time>
      </trkpt>
      <trkpt lat="43.0626400" lon="-0.4971470">
        <ele>963.6</ele>
        <time>2020-07-28T12:37:50Z</time>
      </trkpt>
      <trkpt lat="43.0628720" lon="-0.4973360">
        <ele>963.6</ele>
        <time>2020-07-28T12:37:53Z</time>
      </trkpt>
      <trkpt lat="43.0632930" lon="-0.4977790">
        <ele>963.0</ele>
        <time>2020-07-28T12:37:59Z</time>
      </trkpt>
      <trkpt lat="43.0633620" lon="-0.4978590">
        <ele>962.8</ele>
        <time>2020-07-28T12:38:00Z</time>
      </trkpt>
      <trkpt lat="43.0635610" lon="-0.4981090">
        <ele>962.6</ele>
        <time>2020-07-28T12:38:03Z</time>
      </trkpt>
      <trkpt lat="43.0637460" lon="-0.4983640">
        <ele>962.8</ele>
        <time>2020-07-28T12:38:06Z</time>
      </trkpt>
      <trkpt lat="43.0638090" lon="-0.4984400">
        <ele>963.0</ele>
        <time>2020-07-28T12:38:07Z</time>
      </trkpt>
      <trkpt lat="43.0639880" lon="-0.4986470">
        <ele>963.4</ele>
        <time>2020-07-28T12:38:10Z</time>
      </trkpt>
      <trkpt lat="43.0641330" lon="-0.4987140">
        <ele>963.4</ele>
        <time>2020-07-28T12:38:12Z</time>
      </trkpt>
      <trkpt lat="43.0642710" lon="-0.4987150">
        <ele>963.4</ele>
        <time>2020-07-28T12:38:14Z</time>
      </trkpt>
      <trkpt lat="43.0643450" lon="-0.4986850">
        <ele>963.4</ele>
        <time>2020-07-28T12:38:15Z</time>
      </trkpt>
      <trkpt lat="43.0644130" lon="-0.4986450">
        <ele>963.4</ele>
        <time>2020-07-28T12:38:16Z</time>
      </trkpt>
      <trkpt lat="43.0646130" lon="-0.4984790">
        <ele>963.6</ele>
        <time>2020-07-28T12:38:19Z</time>
      </trkpt>
      <trkpt lat="43.0648050" lon="-0.4983150">
        <ele>963.6</ele>
        <time>2020-07-28T12:38:22Z</time>
      </trkpt>
      <trkpt lat="43.0649440" lon="-0.4982770">
        <ele>963.6</ele>
        <time>2020-07-28T12:38:24Z</time>
      </trkpt>
      <trkpt lat="43.0650930" lon="-0.4983190">
        <ele>963.6</ele>
        <time>2020-07-28T12:38:26Z</time>
      </trkpt>
      <trkpt lat="43.0651650" lon="-0.4983660">
        <ele>963.4</ele>
        <time>2020-07-28T12:38:27Z</time>
      </trkpt>
      <trkpt lat="43.0652250" lon="-0.4984300">
        <ele>963.4</ele>
        <time>2020-07-28T12:38:28Z</time>
      </trkpt>
      <trkpt lat="43.0652950" lon="-0.4986300">
        <ele>963.4</ele>
        <time>2020-07-28T12:38:30Z</time>
      </trkpt>
      <trkpt lat="43.0654010" lon="-0.4990190">
        <ele>963.4</ele>
        <time>2020-07-28T12:38:34Z</time>
      </trkpt>
      <trkpt lat="43.0654630" lon="-0.4995030">
        <ele>963.8</ele>
        <time>2020-07-28T12:38:39Z</time>
      </trkpt>
      <trkpt lat="43.0653990" lon="-0.5000100">
        <ele>963.6</ele>
        <time>2020-07-28T12:38:44Z</time>
      </trkpt>
      <trkpt lat="43.0651860" lon="-0.5006850">
        <ele>963.6</ele>
        <time>2020-07-28T12:38:50Z</time>
      </trkpt>
      <trkpt lat="43.0650890" lon="-0.5012130">
        <ele>963.8</ele>
        <time>2020-07-28T12:38:55Z</time>
      </trkpt>
      <trkpt lat="43.0650860" lon="-0.5014230">
        <ele>963.8</ele>
        <time>2020-07-28T12:38:57Z</time>
      </trkpt>
      <trkpt lat="43.0651050" lon="-0.5017440">
        <ele>963.8</ele>
        <time>2020-07-28T12:39:00Z</time>
      </trkpt>
      <trkpt lat="43.0651660" lon="-0.5019250">
        <ele>963.8</ele>
        <time>2020-07-28T12:39:02Z</time>
      </trkpt>
      <trkpt lat="43.0652440" lon="-0.5020000">
        <ele>963.8</ele>
        <time>2020-07-28T12:39:04Z</time>
      </trkpt>
      <trkpt lat="43.0653560" lon="-0.5019780">
        <ele>963.8</ele>
        <time>2020-07-28T12:39:06Z</time>
      </trkpt>
      <trkpt lat="43.0655360" lon="-0.5018390">
        <ele>963.8</ele>
        <time>2020-07-28T12:39:09Z</time>
      </trkpt>
      <trkpt lat="43.0655920" lon="-0.5017810">
        <ele>964.0</ele>
        <time>2020-07-28T12:39:10Z</time>
      </trkpt>
      <trkpt lat="43.0659490" lon="-0.5014130">
        <ele>964.0</ele>
        <time>2020-07-28T12:39:16Z</time>
      </trkpt>
      <trkpt lat="43.0660130" lon="-0.5013540">
        <ele>963.8</ele>
        <time>2020-07-28T12:39:17Z</time>
      </trkpt>
      <trkpt lat="43.0662620" lon="-0.5011240">
        <ele>963.4</ele>
        <time>2020-07-28T12:39:21Z</time>
      </trkpt>
      <trkpt lat="43.0664520" lon="-0.5009480">
        <ele>963.4</ele>
        <time>2020-07-28T12:39:24Z</time>
      </trkpt>
      <trkpt lat="43.0668470" lon="-0.5006240">
        <ele>963.6</ele>
        <time>2020-07-28T12:39:30Z</time>
      </trkpt>
      <trkpt lat="43.0670540" lon="-0.5004860">
        <ele>963.6</ele>
        <time>2020-07-28T12:39:33Z</time>
      </trkpt>
      <trkpt lat="43.0672000" lon="-0.5004480">
        <ele>963.4</ele>
        <time>2020-07-28T12:39:35Z</time>
      </trkpt>
      <trkpt lat="43.0673480" lon="-0.5004640">
        <ele>963.4</ele>
        <time>2020-07-28T12:39:37Z</time>
      </trkpt>
      <trkpt lat="43.0677660" lon="-0.5005350">
        <ele>963.8</ele>
        <time>2020-07-28T12:39:42Z</time>
      </trkpt>
      <trkpt lat="43.0679280" lon="-0.5005710">
        <ele>964.2</ele>
        <time>2020-07-28T12:39:44Z</time>
      </trkpt>
      <trkpt lat="43.0680060" lon="-0.5006040">
        <ele>964.4</ele>
        <time>2020-07-28T12:39:45Z</time>
      </trkpt>
      <trkpt lat="43.0680770" lon="-0.5006520">
        <ele>964.4</ele>
        <time>2020-07-28T12:39:46Z</time>
      </trkpt>
      <trkpt lat="43.0682720" lon="-0.5007980">
        <ele>965.4</ele>
        <time>2020-07-28T12:39:49Z</time>
      </trkpt>
      <trkpt lat="43.0683960" lon="-0.5008630">
        <ele>966.2</ele>
        <time>2020-07-28T12:39:51Z</time>
      </trkpt>
      <trkpt lat="43.0684520" lon="-0.5008940">
        <ele>966.8</ele>
        <time>2020-07-28T12:39:52Z</time>
      </trkpt>
      <trkpt lat="43.0685520" lon="-0.5009740">
        <ele>968.0</ele>
        <time>2020-07-28T12:39:54Z</time>
      </trkpt>
      <trkpt lat="43.0686050" lon="-0.5010260">
        <ele>968.4</ele>
        <time>2020-07-28T12:39:55Z</time>
      </trkpt>
      <trkpt lat="43.0686550" lon="-0.5010850">
        <ele>968.6</ele>
        <time>2020-07-28T12:39:56Z</time>
      </trkpt>
      <trkpt lat="43.0687050" lon="-0.5011450">
        <ele>969.0</ele>
        <time>2020-07-28T12:39:57Z</time>
      </trkpt>
      <trkpt lat="43.0687560" lon="-0.5012040">
        <ele>969.4</ele>
        <time>2020-07-28T12:39:58Z</time>
      </trkpt>
      <trkpt lat="43.0688900" lon="-0.5013840">
        <ele>970.4</ele>
        <time>2020-07-28T12:40:01Z</time>
      </trkpt>
      <trkpt lat="43.0690210" lon="-0.5015400">
        <ele>971.0</ele>
        <time>2020-07-28T12:40:04Z</time>
      </trkpt>
      <trkpt lat="43.0690940" lon="-0.5016400">
        <ele>971.6</ele>
        <time>2020-07-28T12:40:06Z</time>
      </trkpt>
      <trkpt lat="43.0691730" lon="-0.5017210">
        <ele>972.4</ele>
        <time>2020-07-28T12:40:08Z</time>
      </trkpt>
      <trkpt lat="43.0692090" lon="-0.5017610">
        <ele>972.6</ele>
        <time>2020-07-28T12:40:09Z</time>
      </trkpt>
      <trkpt lat="43.0692480" lon="-0.5017970">
        <ele>973.0</ele>
        <time>2020-07-28T12:40:10Z</time>
      </trkpt>
      <trkpt lat="43.0693410" lon="-0.5019000">
        <ele>973.8</ele>
        <time>2020-07-28T12:40:12Z</time>
      </trkpt>
      <trkpt lat="43.0693880" lon="-0.5019590">
        <ele>974.2</ele>
        <time>2020-07-28T12:40:13Z</time>
      </trkpt>
      <trkpt lat="43.0695240" lon="-0.5022340">
        <ele>975.2</ele>
        <time>2020-07-28T12:40:17Z</time>
      </trkpt>
      <trkpt lat="43.0695510" lon="-0.5022980">
        <ele>975.6</ele>
        <time>2020-07-28T12:40:18Z</time>
      </trkpt>
      <trkpt lat="43.0695690" lon="-0.5023650">
        <ele>976.0</ele>
        <time>2020-07-28T12:40:19Z</time>
      </trkpt>
      <trkpt lat="43.0695800" lon="-0.5024310">
        <ele>976.4</ele>
        <time>2020-07-28T12:40:20Z</time>
      </trkpt>
      <trkpt lat="43.0695910" lon="-0.5024890">
        <ele>976.8</ele>
        <time>2020-07-28T12:40:21Z</time>
      </trkpt>
      <trkpt lat="43.0696130" lon="-0.5026240">
        <ele>977.6</ele>
        <time>2020-07-28T12:40:23Z</time>
      </trkpt>
      <trkpt lat="43.0696300" lon="-0.5027690">
        <ele>978.4</ele>
        <time>2020-07-28T12:40:25Z</time>
      </trkpt>
      <trkpt lat="43.0696270" lon="-0.5028450">
        <ele>978.6</ele>
        <time>2020-07-28T12:40:26Z</time>
      </trkpt>
      <trkpt lat="43.0696260" lon="-0.5029200">
        <ele>978.8</ele>
        <time>2020-07-28T12:40:27Z</time>
      </trkpt>
      <trkpt lat="43.0696120" lon="-0.5030760">
        <ele>979.0</ele>
        <time>2020-07-28T12:40:29Z</time>
      </trkpt>
      <trkpt lat="43.0695950" lon="-0.5031550">
        <ele>979.4</ele>
        <time>2020-07-28T12:40:30Z</time>
      </trkpt>
      <trkpt lat="43.0695800" lon="-0.5032980">
        <ele>980.2</ele>
        <time>2020-07-28T12:40:32Z</time>
      </trkpt>
      <trkpt lat="43.0695540" lon="-0.5035050">
        <ele>981.0</ele>
        <time>2020-07-28T12:40:35Z</time>
      </trkpt>
      <trkpt lat="43.0695400" lon="-0.5035730">
        <ele>981.4</ele>
        <time>2020-07-28T12:40:36Z</time>
      </trkpt>
      <trkpt lat="43.0695080" lon="-0.5037080">
        <ele>981.8</ele>
        <time>2020-07-28T12:40:38Z</time>
      </trkpt>
      <trkpt lat="43.0694430" lon="-0.5039120">
        <ele>982.6</ele>
        <time>2020-07-28T12:40:41Z</time>
      </trkpt>
      <trkpt lat="43.0694240" lon="-0.5039750">
        <ele>982.8</ele>
        <time>2020-07-28T12:40:42Z</time>
      </trkpt>
      <trkpt lat="43.0693560" lon="-0.5041680">
        <ele>983.8</ele>
        <time>2020-07-28T12:40:45Z</time>
      </trkpt>
      <trkpt lat="43.0693380" lon="-0.5042310">
        <ele>984.0</ele>
        <time>2020-07-28T12:40:46Z</time>
      </trkpt>
      <trkpt lat="43.0692940" lon="-0.5043540">
        <ele>984.8</ele>
        <time>2020-07-28T12:40:48Z</time>
      </trkpt>
      <trkpt lat="43.0692260" lon="-0.5046670">
        <ele>986.0</ele>
        <time>2020-07-28T12:40:53Z</time>
      </trkpt>
      <trkpt lat="43.0692330" lon="-0.5048030">
        <ele>986.6</ele>
        <time>2020-07-28T12:40:55Z</time>
      </trkpt>
      <trkpt lat="43.0692440" lon="-0.5048700">
        <ele>986.8</ele>
        <time>2020-07-28T12:40:56Z</time>
      </trkpt>
      <trkpt lat="43.0692610" lon="-0.5049330">
        <ele>987.0</ele>
        <time>2020-07-28T12:40:57Z</time>
      </trkpt>
      <trkpt lat="43.0692840" lon="-0.5049910">
        <ele>987.2</ele>
        <time>2020-07-28T12:40:58Z</time>
      </trkpt>
      <trkpt lat="43.0693100" lon="-0.5050460">
        <ele>987.6</ele>
        <time>2020-07-28T12:40:59Z</time>
      </trkpt>
      <trkpt lat="43.0693510" lon="-0.5051630">
        <ele>988.2</ele>
        <time>2020-07-28T12:41:01Z</time>
      </trkpt>
      <trkpt lat="43.0694470" lon="-0.5053940">
        <ele>989.2</ele>
        <time>2020-07-28T12:41:05Z</time>
      </trkpt>
      <trkpt lat="43.0694670" lon="-0.5054560">
        <ele>989.6</ele>
        <time>2020-07-28T12:41:06Z</time>
      </trkpt>
      <trkpt lat="43.0695290" lon="-0.5055590">
        <ele>990.4</ele>
        <time>2020-07-28T12:41:08Z</time>
      </trkpt>
      <trkpt lat="43.0696110" lon="-0.5058070">
        <ele>991.6</ele>
        <time>2020-07-28T12:41:12Z</time>
      </trkpt>
      <trkpt lat="43.0696640" lon="-0.5059240">
        <ele>992.2</ele>
        <time>2020-07-28T12:41:14Z</time>
      </trkpt>
      <trkpt lat="43.0697600" lon="-0.5060780">
        <ele>992.8</ele>
        <time>2020-07-28T12:41:17Z</time>
      </trkpt>
      <trkpt lat="43.0697970" lon="-0.5061240">
        <ele>993.0</ele>
        <time>2020-07-28T12:41:18Z</time>
      </trkpt>
      <trkpt lat="43.0698400" lon="-0.5061570">
        <ele>993.2</ele>
        <time>2020-07-28T12:41:19Z</time>
      </trkpt>
      <trkpt lat="43.0698800" lon="-0.5061860">
        <ele>993.4</ele>
        <time>2020-07-28T12:41:20Z</time>
      </trkpt>
      <trkpt lat="43.0699580" lon="-0.5062280">
        <ele>993.8</ele>
        <time>2020-07-28T12:41:22Z</time>
      </trkpt>
      <trkpt lat="43.0700360" lon="-0.5062700">
        <ele>994.6</ele>
        <time>2020-07-28T12:41:24Z</time>
      </trkpt>
      <trkpt lat="43.0700740" lon="-0.5063000">
        <ele>995.0</ele>
        <time>2020-07-28T12:41:25Z</time>
      </trkpt>
      <trkpt lat="43.0702190" lon="-0.5064260">
        <ele>995.8</ele>
        <time>2020-07-28T12:41:28Z</time>
      </trkpt>
      <trkpt lat="43.0702540" lon="-0.5064800">
        <ele>996.0</ele>
        <time>2020-07-28T12:41:29Z</time>
      </trkpt>
      <trkpt lat="43.0703460" lon="-0.5066650">
        <ele>997.0</ele>
        <time>2020-07-28T12:41:32Z</time>
      </trkpt>
      <trkpt lat="43.0703710" lon="-0.5067260">
        <ele>997.2</ele>
        <time>2020-07-28T12:41:33Z</time>
      </trkpt>
      <trkpt lat="43.0703970" lon="-0.5067850">
        <ele>997.4</ele>
        <time>2020-07-28T12:41:34Z</time>
      </trkpt>
      <trkpt lat="43.0704490" lon="-0.5069720">
        <ele>998.4</ele>
        <time>2020-07-28T12:41:37Z</time>
      </trkpt>
      <trkpt lat="43.0704690" lon="-0.5071440">
        <ele>999.4</ele>
        <time>2020-07-28T12:41:40Z</time>
      </trkpt>
      <trkpt lat="43.0704750" lon="-0.5071900">
        <ele>999.6</ele>
        <time>2020-07-28T12:41:41Z</time>
      </trkpt>
      <trkpt lat="43.0705030" lon="-0.5073760">
        <ele>1000.4</ele>
        <time>2020-07-28T12:41:47Z</time>
      </trkpt>
      <trkpt lat="43.0705040" lon="-0.5073980">
        <ele>1000.4</ele>
        <time>2020-07-28T12:41:48Z</time>
      </trkpt>
      <trkpt lat="43.0705060" lon="-0.5074420">
        <ele>1000.2</ele>
        <time>2020-07-28T12:41:51Z</time>
      </trkpt>
      <trkpt lat="43.0704670" lon="-0.5076540">
        <ele>1000.6</ele>
        <time>2020-07-28T12:47:10Z</time>
      </trkpt>
      <trkpt lat="43.0704690" lon="-0.5077010">
        <ele>1000.6</ele>
        <time>2020-07-28T12:47:11Z</time>
      </trkpt>
      <trkpt lat="43.0704690" lon="-0.5078090">
        <ele>1000.4</ele>
        <time>2020-07-28T12:47:13Z</time>
      </trkpt>
      <trkpt lat="43.0704310" lon="-0.5079270">
        <ele>999.8</ele>
        <time>2020-07-28T12:47:15Z</time>
      </trkpt>
      <trkpt lat="43.0703690" lon="-0.5080350">
        <ele>999.0</ele>
        <time>2020-07-28T12:47:17Z</time>
      </trkpt>
      <trkpt lat="43.0703040" lon="-0.5081310">
        <ele>998.0</ele>
        <time>2020-07-28T12:47:19Z</time>
      </trkpt>
      <trkpt lat="43.0702680" lon="-0.5081790">
        <ele>997.2</ele>
        <time>2020-07-28T12:47:20Z</time>
      </trkpt>
      <trkpt lat="43.0702290" lon="-0.5082310">
        <ele>996.8</ele>
        <time>2020-07-28T12:47:21Z</time>
      </trkpt>
      <trkpt lat="43.0700800" lon="-0.5084220">
        <ele>995.6</ele>
        <time>2020-07-28T12:47:24Z</time>
      </trkpt>
      <trkpt lat="43.0700250" lon="-0.5084970">
        <ele>994.8</ele>
        <time>2020-07-28T12:47:25Z</time>
      </trkpt>
      <trkpt lat="43.0699700" lon="-0.5085730">
        <ele>994.2</ele>
        <time>2020-07-28T12:47:26Z</time>
      </trkpt>
      <trkpt lat="43.0698600" lon="-0.5087180">
        <ele>992.6</ele>
        <time>2020-07-28T12:47:28Z</time>
      </trkpt>
      <trkpt lat="43.0698070" lon="-0.5087890">
        <ele>991.6</ele>
        <time>2020-07-28T12:47:29Z</time>
      </trkpt>
      <trkpt lat="43.0697550" lon="-0.5088570">
        <ele>990.6</ele>
        <time>2020-07-28T12:47:30Z</time>
      </trkpt>
      <trkpt lat="43.0696460" lon="-0.5089930">
        <ele>988.8</ele>
        <time>2020-07-28T12:47:32Z</time>
      </trkpt>
      <trkpt lat="43.0695250" lon="-0.5091290">
        <ele>987.2</ele>
        <time>2020-07-28T12:47:34Z</time>
      </trkpt>
      <trkpt lat="43.0693970" lon="-0.5092600">
        <ele>985.6</ele>
        <time>2020-07-28T12:47:36Z</time>
      </trkpt>
      <trkpt lat="43.0692640" lon="-0.5093730">
        <ele>983.8</ele>
        <time>2020-07-28T12:47:38Z</time>
      </trkpt>
      <trkpt lat="43.0692020" lon="-0.5094200">
        <ele>982.8</ele>
        <time>2020-07-28T12:47:39Z</time>
      </trkpt>
      <trkpt lat="43.0691430" lon="-0.5094670">
        <ele>981.6</ele>
        <time>2020-07-28T12:47:40Z</time>
      </trkpt>
      <trkpt lat="43.0690880" lon="-0.5095130">
        <ele>980.4</ele>
        <time>2020-07-28T12:47:41Z</time>
      </trkpt>
      <trkpt lat="43.0689830" lon="-0.5096050">
        <ele>978.4</ele>
        <time>2020-07-28T12:47:43Z</time>
      </trkpt>
      <trkpt lat="43.0688750" lon="-0.5096910">
        <ele>976.8</ele>
        <time>2020-07-28T12:47:45Z</time>
      </trkpt>
      <trkpt lat="43.0687450" lon="-0.5097770">
        <ele>975.0</ele>
        <time>2020-07-28T12:47:47Z</time>
      </trkpt>
      <trkpt lat="43.0686740" lon="-0.5098150">
        <ele>974.6</ele>
        <time>2020-07-28T12:47:48Z</time>
      </trkpt>
      <trkpt lat="43.0686080" lon="-0.5098550">
        <ele>974.0</ele>
        <time>2020-07-28T12:47:49Z</time>
      </trkpt>
      <trkpt lat="43.0685520" lon="-0.5098980">
        <ele>973.2</ele>
        <time>2020-07-28T12:47:50Z</time>
      </trkpt>
      <trkpt lat="43.0685100" lon="-0.5099460">
        <ele>972.2</ele>
        <time>2020-07-28T12:47:51Z</time>
      </trkpt>
      <trkpt lat="43.0684820" lon="-0.5100000">
        <ele>971.4</ele>
        <time>2020-07-28T12:47:52Z</time>
      </trkpt>
      <trkpt lat="43.0684730" lon="-0.5100630">
        <ele>970.8</ele>
        <time>2020-07-28T12:47:53Z</time>
      </trkpt>
      <trkpt lat="43.0684830" lon="-0.5101170">
        <ele>970.4</ele>
        <time>2020-07-28T12:47:54Z</time>
      </trkpt>
      <trkpt lat="43.0685060" lon="-0.5101750">
        <ele>970.0</ele>
        <time>2020-07-28T12:47:55Z</time>
      </trkpt>
      <trkpt lat="43.0685300" lon="-0.5102270">
        <ele>969.6</ele>
        <time>2020-07-28T12:47:56Z</time>
      </trkpt>
      <trkpt lat="43.0686150" lon="-0.5102930">
        <ele>968.4</ele>
        <time>2020-07-28T12:47:58Z</time>
      </trkpt>
      <trkpt lat="43.0686720" lon="-0.5103080">
        <ele>967.8</ele>
        <time>2020-07-28T12:47:59Z</time>
      </trkpt>
      <trkpt lat="43.0687780" lon="-0.5102620">
        <ele>967.2</ele>
        <time>2020-07-28T12:48:00Z</time>
      </trkpt>
      <trkpt lat="43.0689110" lon="-0.5102690">
        <ele>965.8</ele>
        <time>2020-07-28T12:48:02Z</time>
      </trkpt>
      <trkpt lat="43.0689750" lon="-0.5102800">
        <ele>964.8</ele>
        <time>2020-07-28T12:48:03Z</time>
      </trkpt>
      <trkpt lat="43.0690470" lon="-0.5102900">
        <ele>963.8</ele>
        <time>2020-07-28T12:48:04Z</time>
      </trkpt>
      <trkpt lat="43.0691230" lon="-0.5102980">
        <ele>962.6</ele>
        <time>2020-07-28T12:48:05Z</time>
      </trkpt>
      <trkpt lat="43.0691950" lon="-0.5103110">
        <ele>961.4</ele>
        <time>2020-07-28T12:48:06Z</time>
      </trkpt>
      <trkpt lat="43.0693460" lon="-0.5103330">
        <ele>959.6</ele>
        <time>2020-07-28T12:48:08Z</time>
      </trkpt>
      <trkpt lat="43.0695140" lon="-0.5103860">
        <ele>958.2</ele>
        <time>2020-07-28T12:48:10Z</time>
      </trkpt>
      <trkpt lat="43.0697040" lon="-0.5104410">
        <ele>956.4</ele>
        <time>2020-07-28T12:48:12Z</time>
      </trkpt>
      <trkpt lat="43.0697820" lon="-0.5104730">
        <ele>955.2</ele>
        <time>2020-07-28T12:48:13Z</time>
      </trkpt>
      <trkpt lat="43.0698480" lon="-0.5105210">
        <ele>953.8</ele>
        <time>2020-07-28T12:48:14Z</time>
      </trkpt>
      <trkpt lat="43.0699130" lon="-0.5105740">
        <ele>952.4</ele>
        <time>2020-07-28T12:48:15Z</time>
      </trkpt>
      <trkpt lat="43.0699700" lon="-0.5106390">
        <ele>951.6</ele>
        <time>2020-07-28T12:48:16Z</time>
      </trkpt>
      <trkpt lat="43.0700300" lon="-0.5107250">
        <ele>951.0</ele>
        <time>2020-07-28T12:48:17Z</time>
      </trkpt>
      <trkpt lat="43.0701450" lon="-0.5109080">
        <ele>949.0</ele>
        <time>2020-07-28T12:48:19Z</time>
      </trkpt>
      <trkpt lat="43.0702610" lon="-0.5111270">
        <ele>947.2</ele>
        <time>2020-07-28T12:48:21Z</time>
      </trkpt>
      <trkpt lat="43.0703540" lon="-0.5113440">
        <ele>945.8</ele>
        <time>2020-07-28T12:48:23Z</time>
      </trkpt>
      <trkpt lat="43.0704150" lon="-0.5115320">
        <ele>944.0</ele>
        <time>2020-07-28T12:48:25Z</time>
      </trkpt>
      <trkpt lat="43.0704370" lon="-0.5116160">
        <ele>942.8</ele>
        <time>2020-07-28T12:48:26Z</time>
      </trkpt>
      <trkpt lat="43.0704460" lon="-0.5117150">
        <ele>941.6</ele>
        <time>2020-07-28T12:48:27Z</time>
      </trkpt>
      <trkpt lat="43.0704230" lon="-0.5119290">
        <ele>939.8</ele>
        <time>2020-07-28T12:48:29Z</time>
      </trkpt>
      <trkpt lat="43.0704040" lon="-0.5121200">
        <ele>937.8</ele>
        <time>2020-07-28T12:48:31Z</time>
      </trkpt>
      <trkpt lat="43.0704110" lon="-0.5122060">
        <ele>936.6</ele>
        <time>2020-07-28T12:48:32Z</time>
      </trkpt>
      <trkpt lat="43.0704350" lon="-0.5122850">
        <ele>935.6</ele>
        <time>2020-07-28T12:48:33Z</time>
      </trkpt>
      <trkpt lat="43.0704690" lon="-0.5123610">
        <ele>934.4</ele>
        <time>2020-07-28T12:48:34Z</time>
      </trkpt>
      <trkpt lat="43.0705160" lon="-0.5124400">
        <ele>933.6</ele>
        <time>2020-07-28T12:48:35Z</time>
      </trkpt>
      <trkpt lat="43.0705680" lon="-0.5125250">
        <ele>932.8</ele>
        <time>2020-07-28T12:48:36Z</time>
      </trkpt>
      <trkpt lat="43.0706840" lon="-0.5127140">
        <ele>930.8</ele>
        <time>2020-07-28T12:48:38Z</time>
      </trkpt>
      <trkpt lat="43.0707440" lon="-0.5128220">
        <ele>929.8</ele>
        <time>2020-07-28T12:48:39Z</time>
      </trkpt>
      <trkpt lat="43.0707890" lon="-0.5129330">
        <ele>928.4</ele>
        <time>2020-07-28T12:48:40Z</time>
      </trkpt>
      <trkpt lat="43.0708300" lon="-0.5130490">
        <ele>927.4</ele>
        <time>2020-07-28T12:48:41Z</time>
      </trkpt>
      <trkpt lat="43.0708540" lon="-0.5131710">
        <ele>926.6</ele>
        <time>2020-07-28T12:48:42Z</time>
      </trkpt>
      <trkpt lat="43.0708800" lon="-0.5132800">
        <ele>925.6</ele>
        <time>2020-07-28T12:48:43Z</time>
      </trkpt>
      <trkpt lat="43.0708830" lon="-0.5134230">
        <ele>924.6</ele>
        <time>2020-07-28T12:48:44Z</time>
      </trkpt>
      <trkpt lat="43.0708890" lon="-0.5135500">
        <ele>923.4</ele>
        <time>2020-07-28T12:48:45Z</time>
      </trkpt>
      <trkpt lat="43.0708920" lon="-0.5136730">
        <ele>922.2</ele>
        <time>2020-07-28T12:48:46Z</time>
      </trkpt>
      <trkpt lat="43.0708840" lon="-0.5137940">
        <ele>921.0</ele>
        <time>2020-07-28T12:48:47Z</time>
      </trkpt>
      <trkpt lat="43.0708660" lon="-0.5140280">
        <ele>919.0</ele>
        <time>2020-07-28T12:48:49Z</time>
      </trkpt>
      <trkpt lat="43.0708570" lon="-0.5141440">
        <ele>917.8</ele>
        <time>2020-07-28T12:48:50Z</time>
      </trkpt>
      <trkpt lat="43.0708470" lon="-0.5142600">
        <ele>916.6</ele>
        <time>2020-07-28T12:48:51Z</time>
      </trkpt>
      <trkpt lat="43.0708260" lon="-0.5143850">
        <ele>915.2</ele>
        <time>2020-07-28T12:48:52Z</time>
      </trkpt>
      <trkpt lat="43.0707990" lon="-0.5145140">
        <ele>914.0</ele>
        <time>2020-07-28T12:48:53Z</time>
      </trkpt>
      <trkpt lat="43.0707720" lon="-0.5146540">
        <ele>912.4</ele>
        <time>2020-07-28T12:48:54Z</time>
      </trkpt>
      <trkpt lat="43.0707590" lon="-0.5147930">
        <ele>911.0</ele>
        <time>2020-07-28T12:48:55Z</time>
      </trkpt>
      <trkpt lat="43.0707440" lon="-0.5149500">
        <ele>909.8</ele>
        <time>2020-07-28T12:48:56Z</time>
      </trkpt>
      <trkpt lat="43.0707160" lon="-0.5151050">
        <ele>908.6</ele>
        <time>2020-07-28T12:48:57Z</time>
      </trkpt>
      <trkpt lat="43.0706920" lon="-0.5152740">
        <ele>907.2</ele>
        <time>2020-07-28T12:48:58Z</time>
      </trkpt>
      <trkpt lat="43.0706650" lon="-0.5154360">
        <ele>906.0</ele>
        <time>2020-07-28T12:48:59Z</time>
      </trkpt>
      <trkpt lat="43.0706240" lon="-0.5155880">
        <ele>904.8</ele>
        <time>2020-07-28T12:49:00Z</time>
      </trkpt>
      <trkpt lat="43.0705930" lon="-0.5157240">
        <ele>903.6</ele>
        <time>2020-07-28T12:49:01Z</time>
      </trkpt>
      <trkpt lat="43.0705660" lon="-0.5158530">
        <ele>902.6</ele>
        <time>2020-07-28T12:49:02Z</time>
      </trkpt>
      <trkpt lat="43.0705500" lon="-0.5159830">
        <ele>901.4</ele>
        <time>2020-07-28T12:49:03Z</time>
      </trkpt>
      <trkpt lat="43.0705400" lon="-0.5161120">
        <ele>900.0</ele>
        <time>2020-07-28T12:49:04Z</time>
      </trkpt>
      <trkpt lat="43.0705380" lon="-0.5162370">
        <ele>898.8</ele>
        <time>2020-07-28T12:49:05Z</time>
      </trkpt>
      <trkpt lat="43.0705360" lon="-0.5163610">
        <ele>897.6</ele>
        <time>2020-07-28T12:49:06Z</time>
      </trkpt>
      <trkpt lat="43.0705420" lon="-0.5164830">
        <ele>896.4</ele>
        <time>2020-07-28T12:49:07Z</time>
      </trkpt>
      <trkpt lat="43.0705500" lon="-0.5166060">
        <ele>895.4</ele>
        <time>2020-07-28T12:49:08Z</time>
      </trkpt>
      <trkpt lat="43.0705550" lon="-0.5167330">
        <ele>894.2</ele>
        <time>2020-07-28T12:49:09Z</time>
      </trkpt>
      <trkpt lat="43.0705590" lon="-0.5168620">
        <ele>893.0</ele>
        <time>2020-07-28T12:49:10Z</time>
      </trkpt>
      <trkpt lat="43.0705610" lon="-0.5169850">
        <ele>891.6</ele>
        <time>2020-07-28T12:49:11Z</time>
      </trkpt>
      <trkpt lat="43.0705580" lon="-0.5171100">
        <ele>890.4</ele>
        <time>2020-07-28T12:49:12Z</time>
      </trkpt>
      <trkpt lat="43.0705500" lon="-0.5172380">
        <ele>889.4</ele>
        <time>2020-07-28T12:49:13Z</time>
      </trkpt>
      <trkpt lat="43.0705420" lon="-0.5173680">
        <ele>888.2</ele>
        <time>2020-07-28T12:49:14Z</time>
      </trkpt>
      <trkpt lat="43.0705250" lon="-0.5175020">
        <ele>886.8</ele>
        <time>2020-07-28T12:49:15Z</time>
      </trkpt>
      <trkpt lat="43.0704960" lon="-0.5176360">
        <ele>885.4</ele>
        <time>2020-07-28T12:49:16Z</time>
      </trkpt>
      <trkpt lat="43.0704740" lon="-0.5177710">
        <ele>884.2</ele>
        <time>2020-07-28T12:49:17Z</time>
      </trkpt>
      <trkpt lat="43.0704500" lon="-0.5179100">
        <ele>883.0</ele>
        <time>2020-07-28T12:49:18Z</time>
      </trkpt>
      <trkpt lat="43.0704150" lon="-0.5180470">
        <ele>881.8</ele>
        <time>2020-07-28T12:49:19Z</time>
      </trkpt>
      <trkpt lat="43.0703810" lon="-0.5181750">
        <ele>880.4</ele>
        <time>2020-07-28T12:49:20Z</time>
      </trkpt>
      <trkpt lat="43.0703390" lon="-0.5182990">
        <ele>879.2</ele>
        <time>2020-07-28T12:49:21Z</time>
      </trkpt>
      <trkpt lat="43.0702950" lon="-0.5184170">
        <ele>878.2</ele>
        <time>2020-07-28T12:49:22Z</time>
      </trkpt>
      <trkpt lat="43.0702540" lon="-0.5185330">
        <ele>877.0</ele>
        <time>2020-07-28T12:49:23Z</time>
      </trkpt>
      <trkpt lat="43.0702120" lon="-0.5186490">
        <ele>875.8</ele>
        <time>2020-07-28T12:49:24Z</time>
      </trkpt>
      <trkpt lat="43.0701730" lon="-0.5187830">
        <ele>874.6</ele>
        <time>2020-07-28T12:49:25Z</time>
      </trkpt>
      <trkpt lat="43.0701080" lon="-0.5190440">
        <ele>872.6</ele>
        <time>2020-07-28T12:49:27Z</time>
      </trkpt>
      <trkpt lat="43.0700730" lon="-0.5191720">
        <ele>871.4</ele>
        <time>2020-07-28T12:49:28Z</time>
      </trkpt>
      <trkpt lat="43.0700440" lon="-0.5192990">
        <ele>870.0</ele>
        <time>2020-07-28T12:49:29Z</time>
      </trkpt>
      <trkpt lat="43.0700240" lon="-0.5194290">
        <ele>868.6</ele>
        <time>2020-07-28T12:49:30Z</time>
      </trkpt>
      <trkpt lat="43.0700120" lon="-0.5195530">
        <ele>867.0</ele>
        <time>2020-07-28T12:49:31Z</time>
      </trkpt>
      <trkpt lat="43.0700080" lon="-0.5196790">
        <ele>865.6</ele>
        <time>2020-07-28T12:49:32Z</time>
      </trkpt>
      <trkpt lat="43.0700110" lon="-0.5198090">
        <ele>864.6</ele>
        <time>2020-07-28T12:49:33Z</time>
      </trkpt>
      <trkpt lat="43.0700330" lon="-0.5199410">
        <ele>863.6</ele>
        <time>2020-07-28T12:49:34Z</time>
      </trkpt>
      <trkpt lat="43.0700580" lon="-0.5200790">
        <ele>862.6</ele>
        <time>2020-07-28T12:49:35Z</time>
      </trkpt>
      <trkpt lat="43.0700810" lon="-0.5202220">
        <ele>861.2</ele>
        <time>2020-07-28T12:49:36Z</time>
      </trkpt>
      <trkpt lat="43.0700870" lon="-0.5203680">
        <ele>860.0</ele>
        <time>2020-07-28T12:49:37Z</time>
      </trkpt>
      <trkpt lat="43.0700930" lon="-0.5205140">
        <ele>858.6</ele>
        <time>2020-07-28T12:49:38Z</time>
      </trkpt>
      <trkpt lat="43.0700950" lon="-0.5206620">
        <ele>857.0</ele>
        <time>2020-07-28T12:49:39Z</time>
      </trkpt>
      <trkpt lat="43.0700910" lon="-0.5208140">
        <ele>855.4</ele>
        <time>2020-07-28T12:49:40Z</time>
      </trkpt>
      <trkpt lat="43.0700820" lon="-0.5209670">
        <ele>854.0</ele>
        <time>2020-07-28T12:49:41Z</time>
      </trkpt>
      <trkpt lat="43.0700720" lon="-0.5211150">
        <ele>852.8</ele>
        <time>2020-07-28T12:49:42Z</time>
      </trkpt>
      <trkpt lat="43.0700570" lon="-0.5212570">
        <ele>851.6</ele>
        <time>2020-07-28T12:49:43Z</time>
      </trkpt>
      <trkpt lat="43.0700400" lon="-0.5213930">
        <ele>850.2</ele>
        <time>2020-07-28T12:49:44Z</time>
      </trkpt>
      <trkpt lat="43.0700200" lon="-0.5215210">
        <ele>848.8</ele>
        <time>2020-07-28T12:49:45Z</time>
      </trkpt>
      <trkpt lat="43.0700060" lon="-0.5216380">
        <ele>847.6</ele>
        <time>2020-07-28T12:49:46Z</time>
      </trkpt>
      <trkpt lat="43.0700000" lon="-0.5217530">
        <ele>846.4</ele>
        <time>2020-07-28T12:49:47Z</time>
      </trkpt>
      <trkpt lat="43.0700100" lon="-0.5218730">
        <ele>844.8</ele>
        <time>2020-07-28T12:49:48Z</time>
      </trkpt>
      <trkpt lat="43.0700250" lon="-0.5219920">
        <ele>843.6</ele>
        <time>2020-07-28T12:49:49Z</time>
      </trkpt>
      <trkpt lat="43.0700380" lon="-0.5221100">
        <ele>842.6</ele>
        <time>2020-07-28T12:49:50Z</time>
      </trkpt>
      <trkpt lat="43.0700520" lon="-0.5222290">
        <ele>841.4</ele>
        <time>2020-07-28T12:49:51Z</time>
      </trkpt>
      <trkpt lat="43.0700620" lon="-0.5223490">
        <ele>840.4</ele>
        <time>2020-07-28T12:49:52Z</time>
      </trkpt>
      <trkpt lat="43.0700780" lon="-0.5224700">
        <ele>839.2</ele>
        <time>2020-07-28T12:49:53Z</time>
      </trkpt>
      <trkpt lat="43.0701040" lon="-0.5225940">
        <ele>837.8</ele>
        <time>2020-07-28T12:49:54Z</time>
      </trkpt>
      <trkpt lat="43.0701320" lon="-0.5227160">
        <ele>836.8</ele>
        <time>2020-07-28T12:49:55Z</time>
      </trkpt>
      <trkpt lat="43.0701540" lon="-0.5228370">
        <ele>835.6</ele>
        <time>2020-07-28T12:49:56Z</time>
      </trkpt>
      <trkpt lat="43.0701770" lon="-0.5229590">
        <ele>834.4</ele>
        <time>2020-07-28T12:49:57Z</time>
      </trkpt>
      <trkpt lat="43.0702010" lon="-0.5230830">
        <ele>833.2</ele>
        <time>2020-07-28T12:49:58Z</time>
      </trkpt>
      <trkpt lat="43.0702290" lon="-0.5232110">
        <ele>831.6</ele>
        <time>2020-07-28T12:49:59Z</time>
      </trkpt>
      <trkpt lat="43.0702560" lon="-0.5233410">
        <ele>830.2</ele>
        <time>2020-07-28T12:50:00Z</time>
      </trkpt>
      <trkpt lat="43.0702940" lon="-0.5234660">
        <ele>828.6</ele>
        <time>2020-07-28T12:50:01Z</time>
      </trkpt>
      <trkpt lat="43.0703330" lon="-0.5235930">
        <ele>827.4</ele>
        <time>2020-07-28T12:50:02Z</time>
      </trkpt>
      <trkpt lat="43.0703740" lon="-0.5237180">
        <ele>826.0</ele>
        <time>2020-07-28T12:50:03Z</time>
      </trkpt>
      <trkpt lat="43.0704080" lon="-0.5238350">
        <ele>824.6</ele>
        <time>2020-07-28T12:50:04Z</time>
      </trkpt>
      <trkpt lat="43.0704510" lon="-0.5239420">
        <ele>823.2</ele>
        <time>2020-07-28T12:50:05Z</time>
      </trkpt>
      <trkpt lat="43.0704800" lon="-0.5240380">
        <ele>821.6</ele>
        <time>2020-07-28T12:50:06Z</time>
      </trkpt>
      <trkpt lat="43.0705090" lon="-0.5241270">
        <ele>820.2</ele>
        <time>2020-07-28T12:50:07Z</time>
      </trkpt>
      <trkpt lat="43.0705390" lon="-0.5242210">
        <ele>818.8</ele>
        <time>2020-07-28T12:50:08Z</time>
      </trkpt>
      <trkpt lat="43.0705740" lon="-0.5243240">
        <ele>817.2</ele>
        <time>2020-07-28T12:50:09Z</time>
      </trkpt>
      <trkpt lat="43.0706100" lon="-0.5244350">
        <ele>815.8</ele>
        <time>2020-07-28T12:50:10Z</time>
      </trkpt>
      <trkpt lat="43.0706490" lon="-0.5245570">
        <ele>815.0</ele>
        <time>2020-07-28T12:50:11Z</time>
      </trkpt>
      <trkpt lat="43.0706870" lon="-0.5246870">
        <ele>814.4</ele>
        <time>2020-07-28T12:50:12Z</time>
      </trkpt>
      <trkpt lat="43.0707670" lon="-0.5249570">
        <ele>813.2</ele>
        <time>2020-07-28T12:50:14Z</time>
      </trkpt>
      <trkpt lat="43.0708460" lon="-0.5252420">
        <ele>812.4</ele>
        <time>2020-07-28T12:50:16Z</time>
      </trkpt>
      <trkpt lat="43.0708910" lon="-0.5253880">
        <ele>811.6</ele>
        <time>2020-07-28T12:50:17Z</time>
      </trkpt>
      <trkpt lat="43.0709340" lon="-0.5255350">
        <ele>810.4</ele>
        <time>2020-07-28T12:50:18Z</time>
      </trkpt>
      <trkpt lat="43.0709760" lon="-0.5256770">
        <ele>809.0</ele>
        <time>2020-07-28T12:50:19Z</time>
      </trkpt>
      <trkpt lat="43.0710280" lon="-0.5258170">
        <ele>807.6</ele>
        <time>2020-07-28T12:50:20Z</time>
      </trkpt>
      <trkpt lat="43.0710820" lon="-0.5259500">
        <ele>806.2</ele>
        <time>2020-07-28T12:50:21Z</time>
      </trkpt>
      <trkpt lat="43.0711350" lon="-0.5260820">
        <ele>804.6</ele>
        <time>2020-07-28T12:50:22Z</time>
      </trkpt>
      <trkpt lat="43.0711850" lon="-0.5262160">
        <ele>803.0</ele>
        <time>2020-07-28T12:50:23Z</time>
      </trkpt>
      <trkpt lat="43.0712290" lon="-0.5263580">
        <ele>801.6</ele>
        <time>2020-07-28T12:50:24Z</time>
      </trkpt>
      <trkpt lat="43.0712700" lon="-0.5265020">
        <ele>800.2</ele>
        <time>2020-07-28T12:50:25Z</time>
      </trkpt>
      <trkpt lat="43.0713040" lon="-0.5266500">
        <ele>798.8</ele>
        <time>2020-07-28T12:50:26Z</time>
      </trkpt>
      <trkpt lat="43.0713440" lon="-0.5268000">
        <ele>797.4</ele>
        <time>2020-07-28T12:50:27Z</time>
      </trkpt>
      <trkpt lat="43.0713850" lon="-0.5269610">
        <ele>796.0</ele>
        <time>2020-07-28T12:50:28Z</time>
      </trkpt>
      <trkpt lat="43.0714240" lon="-0.5271220">
        <ele>794.8</ele>
        <time>2020-07-28T12:50:29Z</time>
      </trkpt>
      <trkpt lat="43.0714610" lon="-0.5272770">
        <ele>793.4</ele>
        <time>2020-07-28T12:50:30Z</time>
      </trkpt>
      <trkpt lat="43.0714890" lon="-0.5274220">
        <ele>791.8</ele>
        <time>2020-07-28T12:50:31Z</time>
      </trkpt>
      <trkpt lat="43.0715130" lon="-0.5275580">
        <ele>790.0</ele>
        <time>2020-07-28T12:50:32Z</time>
      </trkpt>
      <trkpt lat="43.0715350" lon="-0.5276860">
        <ele>788.2</ele>
        <time>2020-07-28T12:50:33Z</time>
      </trkpt>
      <trkpt lat="43.0715610" lon="-0.5278050">
        <ele>786.2</ele>
        <time>2020-07-28T12:50:34Z</time>
      </trkpt>
      <trkpt lat="43.0715940" lon="-0.5279140">
        <ele>784.4</ele>
        <time>2020-07-28T12:50:35Z</time>
      </trkpt>
      <trkpt lat="43.0716360" lon="-0.5280150">
        <ele>782.6</ele>
        <time>2020-07-28T12:50:36Z</time>
      </trkpt>
      <trkpt lat="43.0716910" lon="-0.5280910">
        <ele>781.2</ele>
        <time>2020-07-28T12:50:37Z</time>
      </trkpt>
      <trkpt lat="43.0717550" lon="-0.5281490">
        <ele>780.2</ele>
        <time>2020-07-28T12:50:38Z</time>
      </trkpt>
      <trkpt lat="43.0718170" lon="-0.5282010">
        <ele>779.4</ele>
        <time>2020-07-28T12:50:39Z</time>
      </trkpt>
      <trkpt lat="43.0718990" lon="-0.5282360">
        <ele>778.6</ele>
        <time>2020-07-28T12:50:40Z</time>
      </trkpt>
      <trkpt lat="43.0720900" lon="-0.5282930">
        <ele>777.0</ele>
        <time>2020-07-28T12:50:42Z</time>
      </trkpt>
      <trkpt lat="43.0721790" lon="-0.5283450">
        <ele>775.8</ele>
        <time>2020-07-28T12:50:43Z</time>
      </trkpt>
      <trkpt lat="43.0722690" lon="-0.5284200">
        <ele>774.6</ele>
        <time>2020-07-28T12:50:44Z</time>
      </trkpt>
      <trkpt lat="43.0723520" lon="-0.5285130">
        <ele>773.2</ele>
        <time>2020-07-28T12:50:45Z</time>
      </trkpt>
      <trkpt lat="43.0724190" lon="-0.5286260">
        <ele>772.0</ele>
        <time>2020-07-28T12:50:46Z</time>
      </trkpt>
      <trkpt lat="43.0724760" lon="-0.5287380">
        <ele>770.6</ele>
        <time>2020-07-28T12:50:47Z</time>
      </trkpt>
      <trkpt lat="43.0725200" lon="-0.5288550">
        <ele>769.4</ele>
        <time>2020-07-28T12:50:48Z</time>
      </trkpt>
      <trkpt lat="43.0725680" lon="-0.5289760">
        <ele>768.0</ele>
        <time>2020-07-28T12:50:49Z</time>
      </trkpt>
      <trkpt lat="43.0726170" lon="-0.5291010">
        <ele>766.2</ele>
        <time>2020-07-28T12:50:50Z</time>
      </trkpt>
      <trkpt lat="43.0726760" lon="-0.5292250">
        <ele>764.6</ele>
        <time>2020-07-28T12:50:51Z</time>
      </trkpt>
      <trkpt lat="43.0727440" lon="-0.5293440">
        <ele>763.0</ele>
        <time>2020-07-28T12:50:52Z</time>
      </trkpt>
      <trkpt lat="43.0728170" lon="-0.5294640">
        <ele>761.4</ele>
        <time>2020-07-28T12:50:53Z</time>
      </trkpt>
      <trkpt lat="43.0728880" lon="-0.5295900">
        <ele>760.0</ele>
        <time>2020-07-28T12:50:54Z</time>
      </trkpt>
      <trkpt lat="43.0729680" lon="-0.5297020">
        <ele>758.6</ele>
        <time>2020-07-28T12:50:55Z</time>
      </trkpt>
      <trkpt lat="43.0730530" lon="-0.5298070">
        <ele>757.2</ele>
        <time>2020-07-28T12:50:56Z</time>
      </trkpt>
      <trkpt lat="43.0731400" lon="-0.5299010">
        <ele>756.0</ele>
        <time>2020-07-28T12:50:57Z</time>
      </trkpt>
      <trkpt lat="43.0732230" lon="-0.5299850">
        <ele>754.4</ele>
        <time>2020-07-28T12:50:58Z</time>
      </trkpt>
      <trkpt lat="43.0733020" lon="-0.5300570">
        <ele>752.6</ele>
        <time>2020-07-28T12:50:59Z</time>
      </trkpt>
      <trkpt lat="43.0733780" lon="-0.5301270">
        <ele>751.0</ele>
        <time>2020-07-28T12:51:00Z</time>
      </trkpt>
      <trkpt lat="43.0734450" lon="-0.5302080">
        <ele>749.8</ele>
        <time>2020-07-28T12:51:01Z</time>
      </trkpt>
      <trkpt lat="43.0735450" lon="-0.5304100">
        <ele>748.0</ele>
        <time>2020-07-28T12:51:03Z</time>
      </trkpt>
      <trkpt lat="43.0735740" lon="-0.5305370">
        <ele>747.0</ele>
        <time>2020-07-28T12:51:04Z</time>
      </trkpt>
      <trkpt lat="43.0735880" lon="-0.5306750">
        <ele>746.0</ele>
        <time>2020-07-28T12:51:05Z</time>
      </trkpt>
      <trkpt lat="43.0735970" lon="-0.5308210">
        <ele>744.6</ele>
        <time>2020-07-28T12:51:06Z</time>
      </trkpt>
      <trkpt lat="43.0735940" lon="-0.5309720">
        <ele>743.2</ele>
        <time>2020-07-28T12:51:07Z</time>
      </trkpt>
      <trkpt lat="43.0735760" lon="-0.5311260">
        <ele>742.0</ele>
        <time>2020-07-28T12:51:08Z</time>
      </trkpt>
      <trkpt lat="43.0735530" lon="-0.5312810">
        <ele>740.6</ele>
        <time>2020-07-28T12:51:09Z</time>
      </trkpt>
      <trkpt lat="43.0735090" lon="-0.5314340">
        <ele>739.4</ele>
        <time>2020-07-28T12:51:10Z</time>
      </trkpt>
      <trkpt lat="43.0734600" lon="-0.5315740">
        <ele>738.2</ele>
        <time>2020-07-28T12:51:11Z</time>
      </trkpt>
      <trkpt lat="43.0733950" lon="-0.5317060">
        <ele>737.2</ele>
        <time>2020-07-28T12:51:12Z</time>
      </trkpt>
      <trkpt lat="43.0733060" lon="-0.5318440">
        <ele>736.0</ele>
        <time>2020-07-28T12:51:13Z</time>
      </trkpt>
      <trkpt lat="43.0732200" lon="-0.5319770">
        <ele>734.8</ele>
        <time>2020-07-28T12:51:14Z</time>
      </trkpt>
      <trkpt lat="43.0731360" lon="-0.5321070">
        <ele>733.2</ele>
        <time>2020-07-28T12:51:15Z</time>
      </trkpt>
      <trkpt lat="43.0730570" lon="-0.5322360">
        <ele>731.8</ele>
        <time>2020-07-28T12:51:16Z</time>
      </trkpt>
      <trkpt lat="43.0729890" lon="-0.5323650">
        <ele>730.4</ele>
        <time>2020-07-28T12:51:17Z</time>
      </trkpt>
      <trkpt lat="43.0729300" lon="-0.5324960">
        <ele>729.4</ele>
        <time>2020-07-28T12:51:18Z</time>
      </trkpt>
      <trkpt lat="43.0728830" lon="-0.5326270">
        <ele>728.2</ele>
        <time>2020-07-28T12:51:19Z</time>
      </trkpt>
      <trkpt lat="43.0728480" lon="-0.5327610">
        <ele>726.2</ele>
        <time>2020-07-28T12:51:20Z</time>
      </trkpt>
      <trkpt lat="43.0728280" lon="-0.5328930">
        <ele>724.4</ele>
        <time>2020-07-28T12:51:21Z</time>
      </trkpt>
      <trkpt lat="43.0728200" lon="-0.5330280">
        <ele>722.8</ele>
        <time>2020-07-28T12:51:22Z</time>
      </trkpt>
      <trkpt lat="43.0728210" lon="-0.5331640">
        <ele>721.6</ele>
        <time>2020-07-28T12:51:23Z</time>
      </trkpt>
      <trkpt lat="43.0728300" lon="-0.5333050">
        <ele>720.4</ele>
        <time>2020-07-28T12:51:24Z</time>
      </trkpt>
      <trkpt lat="43.0728440" lon="-0.5334430">
        <ele>719.2</ele>
        <time>2020-07-28T12:51:25Z</time>
      </trkpt>
      <trkpt lat="43.0728630" lon="-0.5335740">
        <ele>717.8</ele>
        <time>2020-07-28T12:51:26Z</time>
      </trkpt>
      <trkpt lat="43.0728860" lon="-0.5337050">
        <ele>716.2</ele>
        <time>2020-07-28T12:51:27Z</time>
      </trkpt>
      <trkpt lat="43.0729240" lon="-0.5338480">
        <ele>714.2</ele>
        <time>2020-07-28T12:51:28Z</time>
      </trkpt>
      <trkpt lat="43.0729650" lon="-0.5339930">
        <ele>712.2</ele>
        <time>2020-07-28T12:51:29Z</time>
      </trkpt>
      <trkpt lat="43.0730190" lon="-0.5341340">
        <ele>710.6</ele>
        <time>2020-07-28T12:51:30Z</time>
      </trkpt>
      <trkpt lat="43.0730770" lon="-0.5342650">
        <ele>709.2</ele>
        <time>2020-07-28T12:51:31Z</time>
      </trkpt>
      <trkpt lat="43.0731360" lon="-0.5343920">
        <ele>708.0</ele>
        <time>2020-07-28T12:51:32Z</time>
      </trkpt>
      <trkpt lat="43.0731900" lon="-0.5345140">
        <ele>706.8</ele>
        <time>2020-07-28T12:51:33Z</time>
      </trkpt>
      <trkpt lat="43.0732410" lon="-0.5346360">
        <ele>705.8</ele>
        <time>2020-07-28T12:51:34Z</time>
      </trkpt>
      <trkpt lat="43.0732850" lon="-0.5347690">
        <ele>704.8</ele>
        <time>2020-07-28T12:51:35Z</time>
      </trkpt>
      <trkpt lat="43.0733180" lon="-0.5349080">
        <ele>703.6</ele>
        <time>2020-07-28T12:51:36Z</time>
      </trkpt>
      <trkpt lat="43.0733430" lon="-0.5350550">
        <ele>702.4</ele>
        <time>2020-07-28T12:51:37Z</time>
      </trkpt>
      <trkpt lat="43.0733570" lon="-0.5352150">
        <ele>700.8</ele>
        <time>2020-07-28T12:51:38Z</time>
      </trkpt>
      <trkpt lat="43.0733640" lon="-0.5353820">
        <ele>699.4</ele>
        <time>2020-07-28T12:51:39Z</time>
      </trkpt>
      <trkpt lat="43.0733720" lon="-0.5355400">
        <ele>698.2</ele>
        <time>2020-07-28T12:51:40Z</time>
      </trkpt>
      <trkpt lat="43.0733860" lon="-0.5356870">
        <ele>697.2</ele>
        <time>2020-07-28T12:51:41Z</time>
      </trkpt>
      <trkpt lat="43.0734010" lon="-0.5358260">
        <ele>696.0</ele>
        <time>2020-07-28T12:51:42Z</time>
      </trkpt>
      <trkpt lat="43.0734100" lon="-0.5359650">
        <ele>694.6</ele>
        <time>2020-07-28T12:51:43Z</time>
      </trkpt>
      <trkpt lat="43.0734130" lon="-0.5361080">
        <ele>693.0</ele>
        <time>2020-07-28T12:51:44Z</time>
      </trkpt>
      <trkpt lat="43.0734100" lon="-0.5362530">
        <ele>691.4</ele>
        <time>2020-07-28T12:51:45Z</time>
      </trkpt>
      <trkpt lat="43.0733950" lon="-0.5364080">
        <ele>689.6</ele>
        <time>2020-07-28T12:51:46Z</time>
      </trkpt>
      <trkpt lat="43.0733730" lon="-0.5365630">
        <ele>688.2</ele>
        <time>2020-07-28T12:51:47Z</time>
      </trkpt>
      <trkpt lat="43.0733190" lon="-0.5368700">
        <ele>686.4</ele>
        <time>2020-07-28T12:51:49Z</time>
      </trkpt>
      <trkpt lat="43.0732640" lon="-0.5371710">
        <ele>684.0</ele>
        <time>2020-07-28T12:51:51Z</time>
      </trkpt>
      <trkpt lat="43.0732430" lon="-0.5373200">
        <ele>682.2</ele>
        <time>2020-07-28T12:51:52Z</time>
      </trkpt>
      <trkpt lat="43.0732300" lon="-0.5374710">
        <ele>680.6</ele>
        <time>2020-07-28T12:51:53Z</time>
      </trkpt>
      <trkpt lat="43.0732240" lon="-0.5376220">
        <ele>679.0</ele>
        <time>2020-07-28T12:51:54Z</time>
      </trkpt>
      <trkpt lat="43.0732280" lon="-0.5377700">
        <ele>677.8</ele>
        <time>2020-07-28T12:51:55Z</time>
      </trkpt>
      <trkpt lat="43.0732340" lon="-0.5379180">
        <ele>676.6</ele>
        <time>2020-07-28T12:51:56Z</time>
      </trkpt>
      <trkpt lat="43.0732440" lon="-0.5380670">
        <ele>675.6</ele>
        <time>2020-07-28T12:51:57Z</time>
      </trkpt>
      <trkpt lat="43.0732570" lon="-0.5382180">
        <ele>674.0</ele>
        <time>2020-07-28T12:51:58Z</time>
      </trkpt>
      <trkpt lat="43.0732750" lon="-0.5383660">
        <ele>672.4</ele>
        <time>2020-07-28T12:51:59Z</time>
      </trkpt>
      <trkpt lat="43.0732960" lon="-0.5385100">
        <ele>671.4</ele>
        <time>2020-07-28T12:52:00Z</time>
      </trkpt>
      <trkpt lat="43.0733210" lon="-0.5386500">
        <ele>670.2</ele>
        <time>2020-07-28T12:52:01Z</time>
      </trkpt>
      <trkpt lat="43.0733470" lon="-0.5387880">
        <ele>668.6</ele>
        <time>2020-07-28T12:52:02Z</time>
      </trkpt>
      <trkpt lat="43.0733760" lon="-0.5389250">
        <ele>667.0</ele>
        <time>2020-07-28T12:52:03Z</time>
      </trkpt>
      <trkpt lat="43.0734110" lon="-0.5390630">
        <ele>665.6</ele>
        <time>2020-07-28T12:52:04Z</time>
      </trkpt>
      <trkpt lat="43.0734540" lon="-0.5392030">
        <ele>664.6</ele>
        <time>2020-07-28T12:52:05Z</time>
      </trkpt>
      <trkpt lat="43.0735090" lon="-0.5393410">
        <ele>663.6</ele>
        <time>2020-07-28T12:52:06Z</time>
      </trkpt>
      <trkpt lat="43.0735740" lon="-0.5394750">
        <ele>662.0</ele>
        <time>2020-07-28T12:52:07Z</time>
      </trkpt>
      <trkpt lat="43.0736440" lon="-0.5396100">
        <ele>660.2</ele>
        <time>2020-07-28T12:52:08Z</time>
      </trkpt>
      <trkpt lat="43.0737170" lon="-0.5397430">
        <ele>658.6</ele>
        <time>2020-07-28T12:52:09Z</time>
      </trkpt>
      <trkpt lat="43.0737920" lon="-0.5398750">
        <ele>657.4</ele>
        <time>2020-07-28T12:52:10Z</time>
      </trkpt>
      <trkpt lat="43.0738670" lon="-0.5400030">
        <ele>656.0</ele>
        <time>2020-07-28T12:52:11Z</time>
      </trkpt>
      <trkpt lat="43.0739410" lon="-0.5401280">
        <ele>654.2</ele>
        <time>2020-07-28T12:52:12Z</time>
      </trkpt>
      <trkpt lat="43.0740140" lon="-0.5402510">
        <ele>652.8</ele>
        <time>2020-07-28T12:52:13Z</time>
      </trkpt>
      <trkpt lat="43.0741500" lon="-0.5404930">
        <ele>650.8</ele>
        <time>2020-07-28T12:52:15Z</time>
      </trkpt>
      <trkpt lat="43.0742160" lon="-0.5406120">
        <ele>649.8</ele>
        <time>2020-07-28T12:52:16Z</time>
      </trkpt>
      <trkpt lat="43.0743410" lon="-0.5408570">
        <ele>647.6</ele>
        <time>2020-07-28T12:52:18Z</time>
      </trkpt>
      <trkpt lat="43.0743980" lon="-0.5409870">
        <ele>646.0</ele>
        <time>2020-07-28T12:52:19Z</time>
      </trkpt>
      <trkpt lat="43.0744530" lon="-0.5411220">
        <ele>644.6</ele>
        <time>2020-07-28T12:52:20Z</time>
      </trkpt>
      <trkpt lat="43.0745040" lon="-0.5412570">
        <ele>643.2</ele>
        <time>2020-07-28T12:52:21Z</time>
      </trkpt>
      <trkpt lat="43.0745480" lon="-0.5413940">
        <ele>641.8</ele>
        <time>2020-07-28T12:52:22Z</time>
      </trkpt>
      <trkpt lat="43.0745830" lon="-0.5415340">
        <ele>640.2</ele>
        <time>2020-07-28T12:52:23Z</time>
      </trkpt>
      <trkpt lat="43.0746130" lon="-0.5416770">
        <ele>638.6</ele>
        <time>2020-07-28T12:52:24Z</time>
      </trkpt>
      <trkpt lat="43.0746320" lon="-0.5418250">
        <ele>637.0</ele>
        <time>2020-07-28T12:52:25Z</time>
      </trkpt>
      <trkpt lat="43.0746390" lon="-0.5419770">
        <ele>635.4</ele>
        <time>2020-07-28T12:52:26Z</time>
      </trkpt>
      <trkpt lat="43.0746300" lon="-0.5421400">
        <ele>633.8</ele>
        <time>2020-07-28T12:52:27Z</time>
      </trkpt>
      <trkpt lat="43.0746110" lon="-0.5423100">
        <ele>632.4</ele>
        <time>2020-07-28T12:52:28Z</time>
      </trkpt>
      <trkpt lat="43.0745890" lon="-0.5424830">
        <ele>631.2</ele>
        <time>2020-07-28T12:52:29Z</time>
      </trkpt>
      <trkpt lat="43.0745720" lon="-0.5426440">
        <ele>629.8</ele>
        <time>2020-07-28T12:52:30Z</time>
      </trkpt>
      <trkpt lat="43.0745570" lon="-0.5427980">
        <ele>628.0</ele>
        <time>2020-07-28T12:52:31Z</time>
      </trkpt>
      <trkpt lat="43.0745470" lon="-0.5429490">
        <ele>626.0</ele>
        <time>2020-07-28T12:52:32Z</time>
      </trkpt>
      <trkpt lat="43.0745490" lon="-0.5430960">
        <ele>624.4</ele>
        <time>2020-07-28T12:52:33Z</time>
      </trkpt>
      <trkpt lat="43.0745630" lon="-0.5432400">
        <ele>623.2</ele>
        <time>2020-07-28T12:52:34Z</time>
      </trkpt>
      <trkpt lat="43.0745850" lon="-0.5433790">
        <ele>621.6</ele>
        <time>2020-07-28T12:52:35Z</time>
      </trkpt>
      <trkpt lat="43.0746150" lon="-0.5435160">
        <ele>620.4</ele>
        <time>2020-07-28T12:52:36Z</time>
      </trkpt>
      <trkpt lat="43.0746490" lon="-0.5436480">
        <ele>619.4</ele>
        <time>2020-07-28T12:52:37Z</time>
      </trkpt>
      <trkpt lat="43.0746910" lon="-0.5437770">
        <ele>618.2</ele>
        <time>2020-07-28T12:52:38Z</time>
      </trkpt>
      <trkpt lat="43.0747320" lon="-0.5439030">
        <ele>617.2</ele>
        <time>2020-07-28T12:52:39Z</time>
      </trkpt>
      <trkpt lat="43.0747640" lon="-0.5440280">
        <ele>616.0</ele>
        <time>2020-07-28T12:52:40Z</time>
      </trkpt>
      <trkpt lat="43.0747730" lon="-0.5441630">
        <ele>614.8</ele>
        <time>2020-07-28T12:52:41Z</time>
      </trkpt>
      <trkpt lat="43.0747720" lon="-0.5443010">
        <ele>613.6</ele>
        <time>2020-07-28T12:52:42Z</time>
      </trkpt>
      <trkpt lat="43.0747570" lon="-0.5444420">
        <ele>612.2</ele>
        <time>2020-07-28T12:52:43Z</time>
      </trkpt>
      <trkpt lat="43.0747320" lon="-0.5445840">
        <ele>610.8</ele>
        <time>2020-07-28T12:52:44Z</time>
      </trkpt>
      <trkpt lat="43.0747020" lon="-0.5447210">
        <ele>609.6</ele>
        <time>2020-07-28T12:52:45Z</time>
      </trkpt>
      <trkpt lat="43.0746670" lon="-0.5448590">
        <ele>608.4</ele>
        <time>2020-07-28T12:52:46Z</time>
      </trkpt>
      <trkpt lat="43.0746380" lon="-0.5449980">
        <ele>607.2</ele>
        <time>2020-07-28T12:52:47Z</time>
      </trkpt>
      <trkpt lat="43.0746210" lon="-0.5451360">
        <ele>605.4</ele>
        <time>2020-07-28T12:52:48Z</time>
      </trkpt>
      <trkpt lat="43.0746170" lon="-0.5452800">
        <ele>603.8</ele>
        <time>2020-07-28T12:52:49Z</time>
      </trkpt>
      <trkpt lat="43.0746250" lon="-0.5454320">
        <ele>602.4</ele>
        <time>2020-07-28T12:52:50Z</time>
      </trkpt>
      <trkpt lat="43.0746440" lon="-0.5455840">
        <ele>601.0</ele>
        <time>2020-07-28T12:52:51Z</time>
      </trkpt>
      <trkpt lat="43.0746740" lon="-0.5457300">
        <ele>599.6</ele>
        <time>2020-07-28T12:52:52Z</time>
      </trkpt>
      <trkpt lat="43.0747120" lon="-0.5458720">
        <ele>598.2</ele>
        <time>2020-07-28T12:52:53Z</time>
      </trkpt>
      <trkpt lat="43.0747460" lon="-0.5460110">
        <ele>597.0</ele>
        <time>2020-07-28T12:52:54Z</time>
      </trkpt>
      <trkpt lat="43.0747850" lon="-0.5461460">
        <ele>595.6</ele>
        <time>2020-07-28T12:52:55Z</time>
      </trkpt>
      <trkpt lat="43.0748230" lon="-0.5462840">
        <ele>594.4</ele>
        <time>2020-07-28T12:52:56Z</time>
      </trkpt>
      <trkpt lat="43.0748780" lon="-0.5465680">
        <ele>592.4</ele>
        <time>2020-07-28T12:52:58Z</time>
      </trkpt>
      <trkpt lat="43.0749020" lon="-0.5467120">
        <ele>591.2</ele>
        <time>2020-07-28T12:52:59Z</time>
      </trkpt>
      <trkpt lat="43.0749110" lon="-0.5468610">
        <ele>589.8</ele>
        <time>2020-07-28T12:53:00Z</time>
      </trkpt>
      <trkpt lat="43.0749300" lon="-0.5470040">
        <ele>588.4</ele>
        <time>2020-07-28T12:53:01Z</time>
      </trkpt>
      <trkpt lat="43.0749420" lon="-0.5471540">
        <ele>587.2</ele>
        <time>2020-07-28T12:53:02Z</time>
      </trkpt>
      <trkpt lat="43.0749590" lon="-0.5473070">
        <ele>585.8</ele>
        <time>2020-07-28T12:53:03Z</time>
      </trkpt>
      <trkpt lat="43.0749750" lon="-0.5474640">
        <ele>584.4</ele>
        <time>2020-07-28T12:53:04Z</time>
      </trkpt>
      <trkpt lat="43.0749940" lon="-0.5476250">
        <ele>582.8</ele>
        <time>2020-07-28T12:53:05Z</time>
      </trkpt>
      <trkpt lat="43.0750110" lon="-0.5477830">
        <ele>581.0</ele>
        <time>2020-07-28T12:53:06Z</time>
      </trkpt>
      <trkpt lat="43.0750280" lon="-0.5479410">
        <ele>579.2</ele>
        <time>2020-07-28T12:53:07Z</time>
      </trkpt>
      <trkpt lat="43.0750430" lon="-0.5480970">
        <ele>577.8</ele>
        <time>2020-07-28T12:53:08Z</time>
      </trkpt>
      <trkpt lat="43.0750570" lon="-0.5482540">
        <ele>576.8</ele>
        <time>2020-07-28T12:53:09Z</time>
      </trkpt>
      <trkpt lat="43.0750690" lon="-0.5484120">
        <ele>575.8</ele>
        <time>2020-07-28T12:53:10Z</time>
      </trkpt>
      <trkpt lat="43.0750740" lon="-0.5485720">
        <ele>574.2</ele>
        <time>2020-07-28T12:53:11Z</time>
      </trkpt>
      <trkpt lat="43.0750850" lon="-0.5487330">
        <ele>573.0</ele>
        <time>2020-07-28T12:53:12Z</time>
      </trkpt>
      <trkpt lat="43.0750990" lon="-0.5488950">
        <ele>571.8</ele>
        <time>2020-07-28T12:53:13Z</time>
      </trkpt>
      <trkpt lat="43.0751180" lon="-0.5490560">
        <ele>570.4</ele>
        <time>2020-07-28T12:53:14Z</time>
      </trkpt>
      <trkpt lat="43.0751400" lon="-0.5492200">
        <ele>569.2</ele>
        <time>2020-07-28T12:53:15Z</time>
      </trkpt>
      <trkpt lat="43.0751620" lon="-0.5493870">
        <ele>567.4</ele>
        <time>2020-07-28T12:53:16Z</time>
      </trkpt>
      <trkpt lat="43.0751830" lon="-0.5495540">
        <ele>566.0</ele>
        <time>2020-07-28T12:53:17Z</time>
      </trkpt>
      <trkpt lat="43.0752050" lon="-0.5497150">
        <ele>564.8</ele>
        <time>2020-07-28T12:53:18Z</time>
      </trkpt>
      <trkpt lat="43.0752270" lon="-0.5498690">
        <ele>564.0</ele>
        <time>2020-07-28T12:53:19Z</time>
      </trkpt>
      <trkpt lat="43.0752470" lon="-0.5500220">
        <ele>563.0</ele>
        <time>2020-07-28T12:53:20Z</time>
      </trkpt>
      <trkpt lat="43.0752680" lon="-0.5501730">
        <ele>562.0</ele>
        <time>2020-07-28T12:53:21Z</time>
      </trkpt>
      <trkpt lat="43.0752890" lon="-0.5503270">
        <ele>560.8</ele>
        <time>2020-07-28T12:53:22Z</time>
      </trkpt>
      <trkpt lat="43.0753120" lon="-0.5504800">
        <ele>559.6</ele>
        <time>2020-07-28T12:53:23Z</time>
      </trkpt>
      <trkpt lat="43.0753360" lon="-0.5506280">
        <ele>558.2</ele>
        <time>2020-07-28T12:53:24Z</time>
      </trkpt>
      <trkpt lat="43.0753600" lon="-0.5507740">
        <ele>556.6</ele>
        <time>2020-07-28T12:53:25Z</time>
      </trkpt>
      <trkpt lat="43.0753770" lon="-0.5509190">
        <ele>555.2</ele>
        <time>2020-07-28T12:53:26Z</time>
      </trkpt>
      <trkpt lat="43.0753870" lon="-0.5510620">
        <ele>553.8</ele>
        <time>2020-07-28T12:53:27Z</time>
      </trkpt>
      <trkpt lat="43.0753830" lon="-0.5512080">
        <ele>552.6</ele>
        <time>2020-07-28T12:53:28Z</time>
      </trkpt>
      <trkpt lat="43.0753500" lon="-0.5515060">
        <ele>551.2</ele>
        <time>2020-07-28T12:53:30Z</time>
      </trkpt>
      <trkpt lat="43.0753090" lon="-0.5518000">
        <ele>549.0</ele>
        <time>2020-07-28T12:53:32Z</time>
      </trkpt>
      <trkpt lat="43.0752990" lon="-0.5519500">
        <ele>547.6</ele>
        <time>2020-07-28T12:53:33Z</time>
      </trkpt>
      <trkpt lat="43.0752970" lon="-0.5520980">
        <ele>546.4</ele>
        <time>2020-07-28T12:53:34Z</time>
      </trkpt>
      <trkpt lat="43.0753100" lon="-0.5522420">
        <ele>545.4</ele>
        <time>2020-07-28T12:53:35Z</time>
      </trkpt>
      <trkpt lat="43.0753360" lon="-0.5523830">
        <ele>544.6</ele>
        <time>2020-07-28T12:53:36Z</time>
      </trkpt>
      <trkpt lat="43.0753730" lon="-0.5525310">
        <ele>543.8</ele>
        <time>2020-07-28T12:53:37Z</time>
      </trkpt>
      <trkpt lat="43.0754150" lon="-0.5526770">
        <ele>542.6</ele>
        <time>2020-07-28T12:53:38Z</time>
      </trkpt>
      <trkpt lat="43.0755200" lon="-0.5529500">
        <ele>541.0</ele>
        <time>2020-07-28T12:53:40Z</time>
      </trkpt>
      <trkpt lat="43.0755830" lon="-0.5530740">
        <ele>540.4</ele>
        <time>2020-07-28T12:53:41Z</time>
      </trkpt>
      <trkpt lat="43.0756550" lon="-0.5531850">
        <ele>539.8</ele>
        <time>2020-07-28T12:53:42Z</time>
      </trkpt>
      <trkpt lat="43.0758120" lon="-0.5533940">
        <ele>538.6</ele>
        <time>2020-07-28T12:53:44Z</time>
      </trkpt>
      <trkpt lat="43.0758900" lon="-0.5535010">
        <ele>538.0</ele>
        <time>2020-07-28T12:53:45Z</time>
      </trkpt>
      <trkpt lat="43.0760350" lon="-0.5537090">
        <ele>537.0</ele>
        <time>2020-07-28T12:53:47Z</time>
      </trkpt>
      <trkpt lat="43.0761670" lon="-0.5539480">
        <ele>535.0</ele>
        <time>2020-07-28T12:53:49Z</time>
      </trkpt>
      <trkpt lat="43.0762100" lon="-0.5540890">
        <ele>533.8</ele>
        <time>2020-07-28T12:53:50Z</time>
      </trkpt>
      <trkpt lat="43.0762590" lon="-0.5542310">
        <ele>532.8</ele>
        <time>2020-07-28T12:53:51Z</time>
      </trkpt>
      <trkpt lat="43.0763550" lon="-0.5545330">
        <ele>531.0</ele>
        <time>2020-07-28T12:53:53Z</time>
      </trkpt>
      <trkpt lat="43.0763970" lon="-0.5546910">
        <ele>530.4</ele>
        <time>2020-07-28T12:53:54Z</time>
      </trkpt>
      <trkpt lat="43.0764380" lon="-0.5548500">
        <ele>529.6</ele>
        <time>2020-07-28T12:53:55Z</time>
      </trkpt>
      <trkpt lat="43.0764780" lon="-0.5550100">
        <ele>529.0</ele>
        <time>2020-07-28T12:53:56Z</time>
      </trkpt>
      <trkpt lat="43.0765140" lon="-0.5551730">
        <ele>528.4</ele>
        <time>2020-07-28T12:53:57Z</time>
      </trkpt>
      <trkpt lat="43.0765740" lon="-0.5555120">
        <ele>526.8</ele>
        <time>2020-07-28T12:53:59Z</time>
      </trkpt>
      <trkpt lat="43.0766300" lon="-0.5558480">
        <ele>524.8</ele>
        <time>2020-07-28T12:54:01Z</time>
      </trkpt>
      <trkpt lat="43.0766630" lon="-0.5560110">
        <ele>523.6</ele>
        <time>2020-07-28T12:54:02Z</time>
      </trkpt>
      <trkpt lat="43.0766960" lon="-0.5561740">
        <ele>522.4</ele>
        <time>2020-07-28T12:54:03Z</time>
      </trkpt>
      <trkpt lat="43.0767280" lon="-0.5563380">
        <ele>521.0</ele>
        <time>2020-07-28T12:54:04Z</time>
      </trkpt>
      <trkpt lat="43.0767590" lon="-0.5565030">
        <ele>519.8</ele>
        <time>2020-07-28T12:54:05Z</time>
      </trkpt>
      <trkpt lat="43.0768220" lon="-0.5568280">
        <ele>518.8</ele>
        <time>2020-07-28T12:54:07Z</time>
      </trkpt>
      <trkpt lat="43.0768470" lon="-0.5569910">
        <ele>518.4</ele>
        <time>2020-07-28T12:54:08Z</time>
      </trkpt>
      <trkpt lat="43.0768610" lon="-0.5571560">
        <ele>517.8</ele>
        <time>2020-07-28T12:54:09Z</time>
      </trkpt>
      <trkpt lat="43.0768590" lon="-0.5573250">
        <ele>517.0</ele>
        <time>2020-07-28T12:54:10Z</time>
      </trkpt>
      <trkpt lat="43.0768560" lon="-0.5575020">
        <ele>516.2</ele>
        <time>2020-07-28T12:54:11Z</time>
      </trkpt>
      <trkpt lat="43.0768600" lon="-0.5576750">
        <ele>515.4</ele>
        <time>2020-07-28T12:54:12Z</time>
      </trkpt>
      <trkpt lat="43.0768910" lon="-0.5580010">
        <ele>513.6</ele>
        <time>2020-07-28T12:54:14Z</time>
      </trkpt>
      <trkpt lat="43.0769240" lon="-0.5581580">
        <ele>512.2</ele>
        <time>2020-07-28T12:54:15Z</time>
      </trkpt>
      <trkpt lat="43.0769630" lon="-0.5583150">
        <ele>511.0</ele>
        <time>2020-07-28T12:54:16Z</time>
      </trkpt>
      <trkpt lat="43.0770090" lon="-0.5584710">
        <ele>509.8</ele>
        <time>2020-07-28T12:54:17Z</time>
      </trkpt>
      <trkpt lat="43.0771080" lon="-0.5587870">
        <ele>508.6</ele>
        <time>2020-07-28T12:54:19Z</time>
      </trkpt>
      <trkpt lat="43.0771540" lon="-0.5589440">
        <ele>507.8</ele>
        <time>2020-07-28T12:54:20Z</time>
      </trkpt>
      <trkpt lat="43.0771970" lon="-0.5590980">
        <ele>507.0</ele>
        <time>2020-07-28T12:54:21Z</time>
      </trkpt>
      <trkpt lat="43.0772350" lon="-0.5592460">
        <ele>506.0</ele>
        <time>2020-07-28T12:54:22Z</time>
      </trkpt>
      <trkpt lat="43.0772820" lon="-0.5593920">
        <ele>504.8</ele>
        <time>2020-07-28T12:54:23Z</time>
      </trkpt>
      <trkpt lat="43.0773340" lon="-0.5595290">
        <ele>503.8</ele>
        <time>2020-07-28T12:54:24Z</time>
      </trkpt>
      <trkpt lat="43.0773900" lon="-0.5596620">
        <ele>503.0</ele>
        <time>2020-07-28T12:54:25Z</time>
      </trkpt>
      <trkpt lat="43.0774510" lon="-0.5597950">
        <ele>502.2</ele>
        <time>2020-07-28T12:54:26Z</time>
      </trkpt>
      <trkpt lat="43.0775210" lon="-0.5599190">
        <ele>501.4</ele>
        <time>2020-07-28T12:54:27Z</time>
      </trkpt>
      <trkpt lat="43.0775960" lon="-0.5600350">
        <ele>501.0</ele>
        <time>2020-07-28T12:54:28Z</time>
      </trkpt>
      <trkpt lat="43.0776690" lon="-0.5601470">
        <ele>500.4</ele>
        <time>2020-07-28T12:54:29Z</time>
      </trkpt>
      <trkpt lat="43.0777430" lon="-0.5602540">
        <ele>499.8</ele>
        <time>2020-07-28T12:54:30Z</time>
      </trkpt>
      <trkpt lat="43.0778840" lon="-0.5604920">
        <ele>498.4</ele>
        <time>2020-07-28T12:54:32Z</time>
      </trkpt>
      <trkpt lat="43.0779350" lon="-0.5606300">
        <ele>497.8</ele>
        <time>2020-07-28T12:54:33Z</time>
      </trkpt>
      <trkpt lat="43.0779780" lon="-0.5607680">
        <ele>497.2</ele>
        <time>2020-07-28T12:54:34Z</time>
      </trkpt>
      <trkpt lat="43.0779980" lon="-0.5609160">
        <ele>496.8</ele>
        <time>2020-07-28T12:54:35Z</time>
      </trkpt>
      <trkpt lat="43.0780450" lon="-0.5612030">
        <ele>495.8</ele>
        <time>2020-07-28T12:54:37Z</time>
      </trkpt>
      <trkpt lat="43.0780950" lon="-0.5616640">
        <ele>494.4</ele>
        <time>2020-07-28T12:54:40Z</time>
      </trkpt>
      <trkpt lat="43.0781140" lon="-0.5618130">
        <ele>493.6</ele>
        <time>2020-07-28T12:54:41Z</time>
      </trkpt>
      <trkpt lat="43.0781330" lon="-0.5619650">
        <ele>492.8</ele>
        <time>2020-07-28T12:54:42Z</time>
      </trkpt>
      <trkpt lat="43.0781550" lon="-0.5621140">
        <ele>492.2</ele>
        <time>2020-07-28T12:54:43Z</time>
      </trkpt>
      <trkpt lat="43.0781880" lon="-0.5622530">
        <ele>491.6</ele>
        <time>2020-07-28T12:54:44Z</time>
      </trkpt>
      <trkpt lat="43.0782350" lon="-0.5625140">
        <ele>490.2</ele>
        <time>2020-07-28T12:54:46Z</time>
      </trkpt>
      <trkpt lat="43.0782640" lon="-0.5626340">
        <ele>489.0</ele>
        <time>2020-07-28T12:54:47Z</time>
      </trkpt>
      <trkpt lat="43.0783060" lon="-0.5627470">
        <ele>488.2</ele>
        <time>2020-07-28T12:54:48Z</time>
      </trkpt>
      <trkpt lat="43.0783620" lon="-0.5628560">
        <ele>487.4</ele>
        <time>2020-07-28T12:54:49Z</time>
      </trkpt>
      <trkpt lat="43.0784260" lon="-0.5629600">
        <ele>486.8</ele>
        <time>2020-07-28T12:54:50Z</time>
      </trkpt>
      <trkpt lat="43.0784930" lon="-0.5630660">
        <ele>486.2</ele>
        <time>2020-07-28T12:54:51Z</time>
      </trkpt>
      <trkpt lat="43.0785680" lon="-0.5631640">
        <ele>485.4</ele>
        <time>2020-07-28T12:54:52Z</time>
      </trkpt>
      <trkpt lat="43.0786450" lon="-0.5632570">
        <ele>484.8</ele>
        <time>2020-07-28T12:54:53Z</time>
      </trkpt>
      <trkpt lat="43.0787250" lon="-0.5633420">
        <ele>484.2</ele>
        <time>2020-07-28T12:54:54Z</time>
      </trkpt>
      <trkpt lat="43.0788890" lon="-0.5634860">
        <ele>483.2</ele>
        <time>2020-07-28T12:54:56Z</time>
      </trkpt>
      <trkpt lat="43.0790470" lon="-0.5635930">
        <ele>482.0</ele>
        <time>2020-07-28T12:54:58Z</time>
      </trkpt>
      <trkpt lat="43.0791150" lon="-0.5636020">
        <ele>481.8</ele>
        <time>2020-07-28T12:54:59Z</time>
      </trkpt>
      <trkpt lat="43.0793520" lon="-0.5635790">
        <ele>481.0</ele>
        <time>2020-07-28T12:55:01Z</time>
      </trkpt>
      <trkpt lat="43.0794730" lon="-0.5635760">
        <ele>480.4</ele>
        <time>2020-07-28T12:55:02Z</time>
      </trkpt>
      <trkpt lat="43.0795920" lon="-0.5635950">
        <ele>479.8</ele>
        <time>2020-07-28T12:55:03Z</time>
      </trkpt>
      <trkpt lat="43.0796990" lon="-0.5636410">
        <ele>479.2</ele>
        <time>2020-07-28T12:55:04Z</time>
      </trkpt>
      <trkpt lat="43.0798060" lon="-0.5636940">
        <ele>478.6</ele>
        <time>2020-07-28T12:55:05Z</time>
      </trkpt>
      <trkpt lat="43.0798750" lon="-0.5637880">
        <ele>478.2</ele>
        <time>2020-07-28T12:55:06Z</time>
      </trkpt>
      <trkpt lat="43.0799270" lon="-0.5639230">
        <ele>477.6</ele>
        <time>2020-07-28T12:55:07Z</time>
      </trkpt>
      <trkpt lat="43.0799880" lon="-0.5641730">
        <ele>476.2</ele>
        <time>2020-07-28T12:55:09Z</time>
      </trkpt>
      <trkpt lat="43.0800260" lon="-0.5644450">
        <ele>474.8</ele>
        <time>2020-07-28T12:55:11Z</time>
      </trkpt>
      <trkpt lat="43.0800770" lon="-0.5647100">
        <ele>473.6</ele>
        <time>2020-07-28T12:55:13Z</time>
      </trkpt>
      <trkpt lat="43.0801590" lon="-0.5650890">
        <ele>472.4</ele>
        <time>2020-07-28T12:55:16Z</time>
      </trkpt>
      <trkpt lat="43.0801840" lon="-0.5652160">
        <ele>471.8</ele>
        <time>2020-07-28T12:55:17Z</time>
      </trkpt>
      <trkpt lat="43.0802390" lon="-0.5654560">
        <ele>471.0</ele>
        <time>2020-07-28T12:55:19Z</time>
      </trkpt>
      <trkpt lat="43.0802920" lon="-0.5658040">
        <ele>470.0</ele>
        <time>2020-07-28T12:55:22Z</time>
      </trkpt>
      <trkpt lat="43.0802970" lon="-0.5659190">
        <ele>469.8</ele>
        <time>2020-07-28T12:55:23Z</time>
      </trkpt>
      <trkpt lat="43.0802690" lon="-0.5663490">
        <ele>468.8</ele>
        <time>2020-07-28T12:55:27Z</time>
      </trkpt>
      <trkpt lat="43.0802470" lon="-0.5664500">
        <ele>468.2</ele>
        <time>2020-07-28T12:55:28Z</time>
      </trkpt>
      <trkpt lat="43.0801360" lon="-0.5669360">
        <ele>467.4</ele>
        <time>2020-07-28T12:55:33Z</time>
      </trkpt>
      <trkpt lat="43.0801000" lon="-0.5671390">
        <ele>467.2</ele>
        <time>2020-07-28T12:55:35Z</time>
      </trkpt>
      <trkpt lat="43.0800910" lon="-0.5672420">
        <ele>467.0</ele>
        <time>2020-07-28T12:55:36Z</time>
      </trkpt>
      <trkpt lat="43.0800960" lon="-0.5674700">
        <ele>466.4</ele>
        <time>2020-07-28T12:55:38Z</time>
      </trkpt>
      <trkpt lat="43.0801150" lon="-0.5675910">
        <ele>465.8</ele>
        <time>2020-07-28T12:55:39Z</time>
      </trkpt>
      <trkpt lat="43.0801470" lon="-0.5677130">
        <ele>465.4</ele>
        <time>2020-07-28T12:55:40Z</time>
      </trkpt>
      <trkpt lat="43.0801810" lon="-0.5678440">
        <ele>464.8</ele>
        <time>2020-07-28T12:55:41Z</time>
      </trkpt>
      <trkpt lat="43.0802190" lon="-0.5679750">
        <ele>464.4</ele>
        <time>2020-07-28T12:55:42Z</time>
      </trkpt>
      <trkpt lat="43.0803540" lon="-0.5683850">
        <ele>463.4</ele>
        <time>2020-07-28T12:55:45Z</time>
      </trkpt>
      <trkpt lat="43.0803990" lon="-0.5685300">
        <ele>463.0</ele>
        <time>2020-07-28T12:55:46Z</time>
      </trkpt>
      <trkpt lat="43.0804890" lon="-0.5688220">
        <ele>461.6</ele>
        <time>2020-07-28T12:55:48Z</time>
      </trkpt>
      <trkpt lat="43.0805500" lon="-0.5691150">
        <ele>460.2</ele>
        <time>2020-07-28T12:55:50Z</time>
      </trkpt>
      <trkpt lat="43.0805750" lon="-0.5694060">
        <ele>458.6</ele>
        <time>2020-07-28T12:55:52Z</time>
      </trkpt>
      <trkpt lat="43.0805730" lon="-0.5695540">
        <ele>457.8</ele>
        <time>2020-07-28T12:55:53Z</time>
      </trkpt>
      <trkpt lat="43.0805600" lon="-0.5697060">
        <ele>457.2</ele>
        <time>2020-07-28T12:55:54Z</time>
      </trkpt>
      <trkpt lat="43.0805310" lon="-0.5700100">
        <ele>455.8</ele>
        <time>2020-07-28T12:55:56Z</time>
      </trkpt>
      <trkpt lat="43.0805260" lon="-0.5703080">
        <ele>454.6</ele>
        <time>2020-07-28T12:55:58Z</time>
      </trkpt>
      <trkpt lat="43.0805390" lon="-0.5704530">
        <ele>454.0</ele>
        <time>2020-07-28T12:55:59Z</time>
      </trkpt>
      <trkpt lat="43.0805600" lon="-0.5705920">
        <ele>453.4</ele>
        <time>2020-07-28T12:56:00Z</time>
      </trkpt>
      <trkpt lat="43.0805940" lon="-0.5707250">
        <ele>452.8</ele>
        <time>2020-07-28T12:56:01Z</time>
      </trkpt>
      <trkpt lat="43.0806430" lon="-0.5708460">
        <ele>452.2</ele>
        <time>2020-07-28T12:56:02Z</time>
      </trkpt>
      <trkpt lat="43.0807020" lon="-0.5709570">
        <ele>451.6</ele>
        <time>2020-07-28T12:56:03Z</time>
      </trkpt>
      <trkpt lat="43.0807740" lon="-0.5710600">
        <ele>451.0</ele>
        <time>2020-07-28T12:56:04Z</time>
      </trkpt>
      <trkpt lat="43.0809940" lon="-0.5714020">
        <ele>449.6</ele>
        <time>2020-07-28T12:56:07Z</time>
      </trkpt>
      <trkpt lat="43.0811110" lon="-0.5716640">
        <ele>448.2</ele>
        <time>2020-07-28T12:56:09Z</time>
      </trkpt>
      <trkpt lat="43.0811540" lon="-0.5718050">
        <ele>447.2</ele>
        <time>2020-07-28T12:56:10Z</time>
      </trkpt>
      <trkpt lat="43.0811910" lon="-0.5719480">
        <ele>446.2</ele>
        <time>2020-07-28T12:56:11Z</time>
      </trkpt>
      <trkpt lat="43.0812110" lon="-0.5721010">
        <ele>445.6</ele>
        <time>2020-07-28T12:56:12Z</time>
      </trkpt>
      <trkpt lat="43.0812320" lon="-0.5724060">
        <ele>444.8</ele>
        <time>2020-07-28T12:56:14Z</time>
      </trkpt>
      <trkpt lat="43.0812340" lon="-0.5725600">
        <ele>444.2</ele>
        <time>2020-07-28T12:56:15Z</time>
      </trkpt>
      <trkpt lat="43.0812340" lon="-0.5728590">
        <ele>442.6</ele>
        <time>2020-07-28T12:56:17Z</time>
      </trkpt>
      <trkpt lat="43.0812280" lon="-0.5730050">
        <ele>441.2</ele>
        <time>2020-07-28T12:56:18Z</time>
      </trkpt>
      <trkpt lat="43.0812160" lon="-0.5731470">
        <ele>440.0</ele>
        <time>2020-07-28T12:56:19Z</time>
      </trkpt>
      <trkpt lat="43.0811780" lon="-0.5732860">
        <ele>439.4</ele>
        <time>2020-07-28T12:56:20Z</time>
      </trkpt>
      <trkpt lat="43.0811340" lon="-0.5734170">
        <ele>438.8</ele>
        <time>2020-07-28T12:56:21Z</time>
      </trkpt>
      <trkpt lat="43.0810810" lon="-0.5735480">
        <ele>438.2</ele>
        <time>2020-07-28T12:56:22Z</time>
      </trkpt>
      <trkpt lat="43.0810230" lon="-0.5736790">
        <ele>437.6</ele>
        <time>2020-07-28T12:56:23Z</time>
      </trkpt>
      <trkpt lat="43.0809620" lon="-0.5738120">
        <ele>436.4</ele>
        <time>2020-07-28T12:56:24Z</time>
      </trkpt>
      <trkpt lat="43.0809000" lon="-0.5739490">
        <ele>435.2</ele>
        <time>2020-07-28T12:56:25Z</time>
      </trkpt>
      <trkpt lat="43.0807870" lon="-0.5742280">
        <ele>434.0</ele>
        <time>2020-07-28T12:56:27Z</time>
      </trkpt>
      <trkpt lat="43.0806870" lon="-0.5745190">
        <ele>432.8</ele>
        <time>2020-07-28T12:56:29Z</time>
      </trkpt>
      <trkpt lat="43.0806100" lon="-0.5748200">
        <ele>431.6</ele>
        <time>2020-07-28T12:56:31Z</time>
      </trkpt>
      <trkpt lat="43.0805700" lon="-0.5749650">
        <ele>430.8</ele>
        <time>2020-07-28T12:56:32Z</time>
      </trkpt>
      <trkpt lat="43.0805330" lon="-0.5751040">
        <ele>430.4</ele>
        <time>2020-07-28T12:56:33Z</time>
      </trkpt>
      <trkpt lat="43.0804910" lon="-0.5753710">
        <ele>429.2</ele>
        <time>2020-07-28T12:56:35Z</time>
      </trkpt>
      <trkpt lat="43.0805040" lon="-0.5754930">
        <ele>428.4</ele>
        <time>2020-07-28T12:56:36Z</time>
      </trkpt>
      <trkpt lat="43.0805400" lon="-0.5756090">
        <ele>427.8</ele>
        <time>2020-07-28T12:56:37Z</time>
      </trkpt>
      <trkpt lat="43.0805870" lon="-0.5757200">
        <ele>427.0</ele>
        <time>2020-07-28T12:56:38Z</time>
      </trkpt>
      <trkpt lat="43.0806490" lon="-0.5758260">
        <ele>426.2</ele>
        <time>2020-07-28T12:56:39Z</time>
      </trkpt>
      <trkpt lat="43.0807240" lon="-0.5759310">
        <ele>425.6</ele>
        <time>2020-07-28T12:56:40Z</time>
      </trkpt>
      <trkpt lat="43.0808030" lon="-0.5760420">
        <ele>425.0</ele>
        <time>2020-07-28T12:56:41Z</time>
      </trkpt>
      <trkpt lat="43.0808760" lon="-0.5761650">
        <ele>424.0</ele>
        <time>2020-07-28T12:56:42Z</time>
      </trkpt>
      <trkpt lat="43.0809430" lon="-0.5762920">
        <ele>423.0</ele>
        <time>2020-07-28T12:56:43Z</time>
      </trkpt>
      <trkpt lat="43.0810570" lon="-0.5765670">
        <ele>421.4</ele>
        <time>2020-07-28T12:56:45Z</time>
      </trkpt>
      <trkpt lat="43.0810900" lon="-0.5767170">
        <ele>420.6</ele>
        <time>2020-07-28T12:56:46Z</time>
      </trkpt>
      <trkpt lat="43.0811190" lon="-0.5768700">
        <ele>419.8</ele>
        <time>2020-07-28T12:56:47Z</time>
      </trkpt>
      <trkpt lat="43.0811310" lon="-0.5770300">
        <ele>419.2</ele>
        <time>2020-07-28T12:56:48Z</time>
      </trkpt>
      <trkpt lat="43.0811360" lon="-0.5771850">
        <ele>418.4</ele>
        <time>2020-07-28T12:56:49Z</time>
      </trkpt>
      <trkpt lat="43.0811330" lon="-0.5773360">
        <ele>418.0</ele>
        <time>2020-07-28T12:56:50Z</time>
      </trkpt>
      <trkpt lat="43.0811220" lon="-0.5774860">
        <ele>417.4</ele>
        <time>2020-07-28T12:56:51Z</time>
      </trkpt>
      <trkpt lat="43.0811000" lon="-0.5777950">
        <ele>416.0</ele>
        <time>2020-07-28T12:56:53Z</time>
      </trkpt>
      <trkpt lat="43.0810650" lon="-0.5780940">
        <ele>415.0</ele>
        <time>2020-07-28T12:56:55Z</time>
      </trkpt>
      <trkpt lat="43.0810440" lon="-0.5782400">
        <ele>414.6</ele>
        <time>2020-07-28T12:56:56Z</time>
      </trkpt>
      <trkpt lat="43.0810010" lon="-0.5785320">
        <ele>413.2</ele>
        <time>2020-07-28T12:56:58Z</time>
      </trkpt>
      <trkpt lat="43.0809450" lon="-0.5788010">
        <ele>412.4</ele>
        <time>2020-07-28T12:57:00Z</time>
      </trkpt>
      <trkpt lat="43.0808960" lon="-0.5789120">
        <ele>411.6</ele>
        <time>2020-07-28T12:57:01Z</time>
      </trkpt>
      <trkpt lat="43.0808320" lon="-0.5790020">
        <ele>410.8</ele>
        <time>2020-07-28T12:57:02Z</time>
      </trkpt>
      <trkpt lat="43.0807510" lon="-0.5790630">
        <ele>410.2</ele>
        <time>2020-07-28T12:57:03Z</time>
      </trkpt>
      <trkpt lat="43.0806540" lon="-0.5790910">
        <ele>409.6</ele>
        <time>2020-07-28T12:57:04Z</time>
      </trkpt>
      <trkpt lat="43.0805600" lon="-0.5790990">
        <ele>409.0</ele>
        <time>2020-07-28T12:57:05Z</time>
      </trkpt>
      <trkpt lat="43.0803850" lon="-0.5790610">
        <ele>408.0</ele>
        <time>2020-07-28T12:57:07Z</time>
      </trkpt>
      <trkpt lat="43.0803000" lon="-0.5790080">
        <ele>407.6</ele>
        <time>2020-07-28T12:57:08Z</time>
      </trkpt>
      <trkpt lat="43.0800180" lon="-0.5787540">
        <ele>406.6</ele>
        <time>2020-07-28T12:57:11Z</time>
      </trkpt>
      <trkpt lat="43.0799360" lon="-0.5786910">
        <ele>406.2</ele>
        <time>2020-07-28T12:57:12Z</time>
      </trkpt>
      <trkpt lat="43.0797960" lon="-0.5785090">
        <ele>405.0</ele>
        <time>2020-07-28T12:57:14Z</time>
      </trkpt>
      <trkpt lat="43.0796500" lon="-0.5784050">
        <ele>403.2</ele>
        <time>2020-07-28T12:57:16Z</time>
      </trkpt>
      <trkpt lat="43.0795420" lon="-0.5783970">
        <ele>401.4</ele>
        <time>2020-07-28T12:57:18Z</time>
      </trkpt>
      <trkpt lat="43.0794990" lon="-0.5784470">
        <ele>400.6</ele>
        <time>2020-07-28T12:57:19Z</time>
      </trkpt>
      <trkpt lat="43.0794270" lon="-0.5785580">
        <ele>399.8</ele>
        <time>2020-07-28T12:57:20Z</time>
      </trkpt>
      <trkpt lat="43.0793550" lon="-0.5786690">
        <ele>398.4</ele>
        <time>2020-07-28T12:57:23Z</time>
      </trkpt>
      <trkpt lat="43.0792830" lon="-0.5787800">
        <ele>397.0</ele>
        <time>2020-07-28T12:57:25Z</time>
      </trkpt>
      <trkpt lat="43.0790660" lon="-0.5791130">
        <ele>396.2</ele>
        <time>2020-07-28T12:57:27Z</time>
      </trkpt>
      <trkpt lat="43.0790040" lon="-0.5793710">
        <ele>395.8</ele>
        <time>2020-07-28T12:57:29Z</time>
      </trkpt>
      <trkpt lat="43.0789960" lon="-0.5795030">
        <ele>395.4</ele>
        <time>2020-07-28T12:57:30Z</time>
      </trkpt>
      <trkpt lat="43.0790040" lon="-0.5796360">
        <ele>394.6</ele>
        <time>2020-07-28T12:57:31Z</time>
      </trkpt>
      <trkpt lat="43.0790010" lon="-0.5799270">
        <ele>392.8</ele>
        <time>2020-07-28T12:57:33Z</time>
      </trkpt>
      <trkpt lat="43.0789840" lon="-0.5800860">
        <ele>390.6</ele>
        <time>2020-07-28T12:57:34Z</time>
      </trkpt>
      <trkpt lat="43.0789610" lon="-0.5802310">
        <ele>388.2</ele>
        <time>2020-07-28T12:57:35Z</time>
      </trkpt>
      <trkpt lat="43.0789370" lon="-0.5803650">
        <ele>386.8</ele>
        <time>2020-07-28T12:57:36Z</time>
      </trkpt>
      <trkpt lat="43.0788550" lon="-0.5807840">
        <ele>387.4</ele>
        <time>2020-07-28T12:57:39Z</time>
      </trkpt>
      <trkpt lat="43.0788060" lon="-0.5810670">
        <ele>388.0</ele>
        <time>2020-07-28T12:57:41Z</time>
      </trkpt>
      <trkpt lat="43.0787800" lon="-0.5813590">
        <ele>388.2</ele>
        <time>2020-07-28T12:57:43Z</time>
      </trkpt>
      <trkpt lat="43.0787760" lon="-0.5815050">
        <ele>388.0</ele>
        <time>2020-07-28T12:57:44Z</time>
      </trkpt>
      <trkpt lat="43.0787490" lon="-0.5817920">
        <ele>387.4</ele>
        <time>2020-07-28T12:57:46Z</time>
      </trkpt>
      <trkpt lat="43.0786790" lon="-0.5820640">
        <ele>386.6</ele>
        <time>2020-07-28T12:57:48Z</time>
      </trkpt>
      <trkpt lat="43.0786080" lon="-0.5823260">
        <ele>386.0</ele>
        <time>2020-07-28T12:57:50Z</time>
      </trkpt>
      <trkpt lat="43.0785940" lon="-0.5824640">
        <ele>385.6</ele>
        <time>2020-07-28T12:57:51Z</time>
      </trkpt>
      <trkpt lat="43.0785910" lon="-0.5826050">
        <ele>385.2</ele>
        <time>2020-07-28T12:57:52Z</time>
      </trkpt>
      <trkpt lat="43.0785970" lon="-0.5828850">
        <ele>383.8</ele>
        <time>2020-07-28T12:57:54Z</time>
      </trkpt>
      <trkpt lat="43.0786100" lon="-0.5831620">
        <ele>382.2</ele>
        <time>2020-07-28T12:57:56Z</time>
      </trkpt>
      <trkpt lat="43.0786160" lon="-0.5832990">
        <ele>381.6</ele>
        <time>2020-07-28T12:57:57Z</time>
      </trkpt>
      <trkpt lat="43.0786320" lon="-0.5835740">
        <ele>380.8</ele>
        <time>2020-07-28T12:57:59Z</time>
      </trkpt>
      <trkpt lat="43.0786750" lon="-0.5839380">
        <ele>379.4</ele>
        <time>2020-07-28T12:58:02Z</time>
      </trkpt>
      <trkpt lat="43.0787390" lon="-0.5841760">
        <ele>378.4</ele>
        <time>2020-07-28T12:58:04Z</time>
      </trkpt>
      <trkpt lat="43.0788130" lon="-0.5844210">
        <ele>377.6</ele>
        <time>2020-07-28T12:58:06Z</time>
      </trkpt>
      <trkpt lat="43.0788490" lon="-0.5845430">
        <ele>377.4</ele>
        <time>2020-07-28T12:58:07Z</time>
      </trkpt>
      <trkpt lat="43.0789660" lon="-0.5850420">
        <ele>376.0</ele>
        <time>2020-07-28T12:58:11Z</time>
      </trkpt>
      <trkpt lat="43.0789870" lon="-0.5851630">
        <ele>375.2</ele>
        <time>2020-07-28T12:58:12Z</time>
      </trkpt>
      <trkpt lat="43.0790060" lon="-0.5852790">
        <ele>374.8</ele>
        <time>2020-07-28T12:58:13Z</time>
      </trkpt>
      <trkpt lat="43.0790550" lon="-0.5858520">
        <ele>373.6</ele>
        <time>2020-07-28T12:58:18Z</time>
      </trkpt>
      <trkpt lat="43.0790480" lon="-0.5860960">
        <ele>373.2</ele>
        <time>2020-07-28T12:58:20Z</time>
      </trkpt>
      <trkpt lat="43.0790260" lon="-0.5863430">
        <ele>372.2</ele>
        <time>2020-07-28T12:58:22Z</time>
      </trkpt>
      <trkpt lat="43.0790100" lon="-0.5864690">
        <ele>371.6</ele>
        <time>2020-07-28T12:58:23Z</time>
      </trkpt>
      <trkpt lat="43.0789870" lon="-0.5865920">
        <ele>371.0</ele>
        <time>2020-07-28T12:58:24Z</time>
      </trkpt>
      <trkpt lat="43.0788430" lon="-0.5871860">
        <ele>370.0</ele>
        <time>2020-07-28T12:58:29Z</time>
      </trkpt>
      <trkpt lat="43.0787380" lon="-0.5875290">
        <ele>369.6</ele>
        <time>2020-07-28T12:58:32Z</time>
      </trkpt>
      <trkpt lat="43.0786670" lon="-0.5877740">
        <ele>368.8</ele>
        <time>2020-07-28T12:58:34Z</time>
      </trkpt>
      <trkpt lat="43.0786360" lon="-0.5879040">
        <ele>368.4</ele>
        <time>2020-07-28T12:58:35Z</time>
      </trkpt>
      <trkpt lat="43.0785720" lon="-0.5881660">
        <ele>367.8</ele>
        <time>2020-07-28T12:58:37Z</time>
      </trkpt>
      <trkpt lat="43.0785390" lon="-0.5882950">
        <ele>367.2</ele>
        <time>2020-07-28T12:58:38Z</time>
      </trkpt>
      <trkpt lat="43.0784950" lon="-0.5885620">
        <ele>365.8</ele>
        <time>2020-07-28T12:58:40Z</time>
      </trkpt>
      <trkpt lat="43.0784830" lon="-0.5886990">
        <ele>365.2</ele>
        <time>2020-07-28T12:58:41Z</time>
      </trkpt>
      <trkpt lat="43.0784720" lon="-0.5888340">
        <ele>364.6</ele>
        <time>2020-07-28T12:58:42Z</time>
      </trkpt>
      <trkpt lat="43.0784650" lon="-0.5892520">
        <ele>363.4</ele>
        <time>2020-07-28T12:58:45Z</time>
      </trkpt>
      <trkpt lat="43.0784660" lon="-0.5894000">
        <ele>362.8</ele>
        <time>2020-07-28T12:58:46Z</time>
      </trkpt>
      <trkpt lat="43.0784550" lon="-0.5897000">
        <ele>361.8</ele>
        <time>2020-07-28T12:58:48Z</time>
      </trkpt>
      <trkpt lat="43.0784460" lon="-0.5899990">
        <ele>360.4</ele>
        <time>2020-07-28T12:58:50Z</time>
      </trkpt>
      <trkpt lat="43.0784450" lon="-0.5902850">
        <ele>359.8</ele>
        <time>2020-07-28T12:58:52Z</time>
      </trkpt>
      <trkpt lat="43.0784680" lon="-0.5905600">
        <ele>359.2</ele>
        <time>2020-07-28T12:58:54Z</time>
      </trkpt>
      <trkpt lat="43.0784980" lon="-0.5909630">
        <ele>357.8</ele>
        <time>2020-07-28T12:58:57Z</time>
      </trkpt>
      <trkpt lat="43.0784910" lon="-0.5912220">
        <ele>357.2</ele>
        <time>2020-07-28T12:58:59Z</time>
      </trkpt>
      <trkpt lat="43.0784780" lon="-0.5914710">
        <ele>357.0</ele>
        <time>2020-07-28T12:59:01Z</time>
      </trkpt>
      <trkpt lat="43.0784750" lon="-0.5915900">
        <ele>356.8</ele>
        <time>2020-07-28T12:59:02Z</time>
      </trkpt>
      <trkpt lat="43.0784710" lon="-0.5917070">
        <ele>356.8</ele>
        <time>2020-07-28T12:59:03Z</time>
      </trkpt>
      <trkpt lat="43.0784610" lon="-0.5919340">
        <ele>356.6</ele>
        <time>2020-07-28T12:59:05Z</time>
      </trkpt>
      <trkpt lat="43.0784380" lon="-0.5922610">
        <ele>355.6</ele>
        <time>2020-07-28T12:59:08Z</time>
      </trkpt>
      <trkpt lat="43.0784060" lon="-0.5925990">
        <ele>354.4</ele>
        <time>2020-07-28T12:59:11Z</time>
      </trkpt>
      <trkpt lat="43.0783420" lon="-0.5930820">
        <ele>353.4</ele>
        <time>2020-07-28T12:59:15Z</time>
      </trkpt>
      <trkpt lat="43.0783240" lon="-0.5931990">
        <ele>353.2</ele>
        <time>2020-07-28T12:59:16Z</time>
      </trkpt>
      <trkpt lat="43.0782630" lon="-0.5935300">
        <ele>352.2</ele>
        <time>2020-07-28T12:59:19Z</time>
      </trkpt>
      <trkpt lat="43.0782340" lon="-0.5936310">
        <ele>351.8</ele>
        <time>2020-07-28T12:59:20Z</time>
      </trkpt>
      <trkpt lat="43.0781980" lon="-0.5937310">
        <ele>351.6</ele>
        <time>2020-07-28T12:59:21Z</time>
      </trkpt>
      <trkpt lat="43.0781120" lon="-0.5939340">
        <ele>351.0</ele>
        <time>2020-07-28T12:59:23Z</time>
      </trkpt>
      <trkpt lat="43.0779850" lon="-0.5942680">
        <ele>350.2</ele>
        <time>2020-07-28T12:59:26Z</time>
      </trkpt>
      <trkpt lat="43.0779520" lon="-0.5943850">
        <ele>350.0</ele>
        <time>2020-07-28T12:59:27Z</time>
      </trkpt>
      <trkpt lat="43.0779000" lon="-0.5946270">
        <ele>348.8</ele>
        <time>2020-07-28T12:59:29Z</time>
      </trkpt>
      <trkpt lat="43.0778690" lon="-0.5948760">
        <ele>347.8</ele>
        <time>2020-07-28T12:59:31Z</time>
      </trkpt>
      <trkpt lat="43.0778650" lon="-0.5951310">
        <ele>346.4</ele>
        <time>2020-07-28T12:59:33Z</time>
      </trkpt>
      <trkpt lat="43.0778870" lon="-0.5955110">
        <ele>345.0</ele>
        <time>2020-07-28T12:59:36Z</time>
      </trkpt>
      <trkpt lat="43.0778880" lon="-0.5958850">
        <ele>343.8</ele>
        <time>2020-07-28T12:59:39Z</time>
      </trkpt>
      <trkpt lat="43.0778330" lon="-0.5961120">
        <ele>343.0</ele>
        <time>2020-07-28T12:59:41Z</time>
      </trkpt>
      <trkpt lat="43.0777550" lon="-0.5963240">
        <ele>342.8</ele>
        <time>2020-07-28T12:59:43Z</time>
      </trkpt>
      <trkpt lat="43.0776600" lon="-0.5965130">
        <ele>342.4</ele>
        <time>2020-07-28T12:59:45Z</time>
      </trkpt>
      <trkpt lat="43.0776040" lon="-0.5965960">
        <ele>342.2</ele>
        <time>2020-07-28T12:59:46Z</time>
      </trkpt>
      <trkpt lat="43.0774880" lon="-0.5967580">
        <ele>341.6</ele>
        <time>2020-07-28T12:59:48Z</time>
      </trkpt>
      <trkpt lat="43.0773340" lon="-0.5970150">
        <ele>340.8</ele>
        <time>2020-07-28T12:59:51Z</time>
      </trkpt>
      <trkpt lat="43.0772890" lon="-0.5971080">
        <ele>340.8</ele>
        <time>2020-07-28T12:59:52Z</time>
      </trkpt>
      <trkpt lat="43.0772550" lon="-0.5972100">
        <ele>340.6</ele>
        <time>2020-07-28T12:59:53Z</time>
      </trkpt>
      <trkpt lat="43.0772310" lon="-0.5973200">
        <ele>340.4</ele>
        <time>2020-07-28T12:59:54Z</time>
      </trkpt>
      <trkpt lat="43.0772160" lon="-0.5974360">
        <ele>340.0</ele>
        <time>2020-07-28T12:59:55Z</time>
      </trkpt>
      <trkpt lat="43.0772060" lon="-0.5975530">
        <ele>339.4</ele>
        <time>2020-07-28T12:59:56Z</time>
      </trkpt>
      <trkpt lat="43.0771930" lon="-0.5979080">
        <ele>338.0</ele>
        <time>2020-07-28T12:59:59Z</time>
      </trkpt>
      <trkpt lat="43.0771940" lon="-0.5981480">
        <ele>337.4</ele>
        <time>2020-07-28T13:00:01Z</time>
      </trkpt>
      <trkpt lat="43.0772020" lon="-0.5983840">
        <ele>336.6</ele>
        <time>2020-07-28T13:00:03Z</time>
      </trkpt>
      <trkpt lat="43.0771960" lon="-0.5987340">
        <ele>335.4</ele>
        <time>2020-07-28T13:00:06Z</time>
      </trkpt>
      <trkpt lat="43.0771830" lon="-0.5988480">
        <ele>335.2</ele>
        <time>2020-07-28T13:00:07Z</time>
      </trkpt>
      <trkpt lat="43.0771260" lon="-0.5991830">
        <ele>334.4</ele>
        <time>2020-07-28T13:00:10Z</time>
      </trkpt>
      <trkpt lat="43.0770450" lon="-0.5995170">
        <ele>333.4</ele>
        <time>2020-07-28T13:00:13Z</time>
      </trkpt>
      <trkpt lat="43.0769620" lon="-0.6000760">
        <ele>332.2</ele>
        <time>2020-07-28T13:00:18Z</time>
      </trkpt>
      <trkpt lat="43.0769630" lon="-0.6001840">
        <ele>332.0</ele>
        <time>2020-07-28T13:00:19Z</time>
      </trkpt>
      <trkpt lat="43.0770030" lon="-0.6005110">
        <ele>331.2</ele>
        <time>2020-07-28T13:00:22Z</time>
      </trkpt>
      <trkpt lat="43.0770170" lon="-0.6006270">
        <ele>331.0</ele>
        <time>2020-07-28T13:00:23Z</time>
      </trkpt>
      <trkpt lat="43.0770280" lon="-0.6012080">
        <ele>330.6</ele>
        <time>2020-07-28T13:00:28Z</time>
      </trkpt>
      <trkpt lat="43.0769900" lon="-0.6016420">
        <ele>330.2</ele>
        <time>2020-07-28T13:00:32Z</time>
      </trkpt>
      <trkpt lat="43.0769610" lon="-0.6019320">
        <ele>329.8</ele>
        <time>2020-07-28T13:00:35Z</time>
      </trkpt>
      <trkpt lat="43.0769330" lon="-0.6022090">
        <ele>329.6</ele>
        <time>2020-07-28T13:00:38Z</time>
      </trkpt>
      <trkpt lat="43.0769050" lon="-0.6025700">
        <ele>329.6</ele>
        <time>2020-07-28T13:00:42Z</time>
      </trkpt>
      <trkpt lat="43.0769100" lon="-0.6027460">
        <ele>329.6</ele>
        <time>2020-07-28T13:00:44Z</time>
      </trkpt>
      <trkpt lat="43.0769490" lon="-0.6030950">
        <ele>329.4</ele>
        <time>2020-07-28T13:00:48Z</time>
      </trkpt>
      <trkpt lat="43.0769070" lon="-0.6035270">
        <ele>329.8</ele>
        <time>2020-07-28T13:00:53Z</time>
      </trkpt>
      <trkpt lat="43.0768830" lon="-0.6037100">
        <ele>329.6</ele>
        <time>2020-07-28T13:00:55Z</time>
      </trkpt>
      <trkpt lat="43.0768770" lon="-0.6038000">
        <ele>329.4</ele>
        <time>2020-07-28T13:00:56Z</time>
      </trkpt>
      <trkpt lat="43.0768770" lon="-0.6041550">
        <ele>329.0</ele>
        <time>2020-07-28T13:01:00Z</time>
      </trkpt>
      <trkpt lat="43.0768850" lon="-0.6044860">
        <ele>327.8</ele>
        <time>2020-07-28T13:01:04Z</time>
      </trkpt>
      <trkpt lat="43.0768980" lon="-0.6047210">
        <ele>327.4</ele>
        <time>2020-07-28T13:01:07Z</time>
      </trkpt>
      <trkpt lat="43.0769180" lon="-0.6051790">
        <ele>327.4</ele>
        <time>2020-07-28T13:01:13Z</time>
      </trkpt>
      <trkpt lat="43.0769130" lon="-0.6052550">
        <ele>327.4</ele>
        <time>2020-07-28T13:01:14Z</time>
      </trkpt>
      <trkpt lat="43.0768710" lon="-0.6055670">
        <ele>327.0</ele>
        <time>2020-07-28T13:01:18Z</time>
      </trkpt>
      <trkpt lat="43.0768230" lon="-0.6058030">
        <ele>326.8</ele>
        <time>2020-07-28T13:01:21Z</time>
      </trkpt>
      <trkpt lat="43.0767990" lon="-0.6059400">
        <ele>326.6</ele>
        <time>2020-07-28T13:01:23Z</time>
      </trkpt>
      <trkpt lat="43.0767870" lon="-0.6059950">
        <ele>326.4</ele>
        <time>2020-07-28T13:01:24Z</time>
      </trkpt>
      <trkpt lat="43.0767700" lon="-0.6060380">
        <ele>326.4</ele>
        <time>2020-07-28T13:01:25Z</time>
      </trkpt>
      <trkpt lat="43.0767490" lon="-0.6060990">
        <ele>325.4</ele>
        <time>2020-07-28T13:01:28Z</time>
      </trkpt>
      <trkpt lat="43.0767560" lon="-0.6060960">
        <ele>324.4</ele>
        <time>2020-07-28T13:01:34Z</time>
      </trkpt>
      <trkpt lat="43.0767510" lon="-0.6061010">
        <ele>324.6</ele>
        <time>2020-07-28T13:01:35Z</time>
      </trkpt>
      <trkpt lat="43.0767470" lon="-0.6061130">
        <ele>324.4</ele>
        <time>2020-07-28T13:01:36Z</time>
      </trkpt>
      <trkpt lat="43.0767060" lon="-0.6061980">
        <ele>324.6</ele>
        <time>2020-07-28T13:01:41Z</time>
      </trkpt>
      <trkpt lat="43.0767090" lon="-0.6062210">
        <ele>324.4</ele>
        <time>2020-07-28T13:01:42Z</time>
      </trkpt>
      <trkpt lat="43.0767380" lon="-0.6062650">
        <ele>324.6</ele>
        <time>2020-07-28T13:01:44Z</time>
      </trkpt>
      <trkpt lat="43.0767640" lon="-0.6063280">
        <ele>324.8</ele>
        <time>2020-07-28T13:01:47Z</time>
      </trkpt>
      <trkpt lat="43.0768050" lon="-0.6064410">
        <ele>325.4</ele>
        <time>2020-07-28T13:01:51Z</time>
      </trkpt>
      <trkpt lat="43.0768680" lon="-0.6065220">
        <ele>325.8</ele>
        <time>2020-07-28T13:01:54Z</time>
      </trkpt>
      <trkpt lat="43.0768860" lon="-0.6065540">
        <ele>326.0</ele>
        <time>2020-07-28T13:01:55Z</time>
      </trkpt>
      <trkpt lat="43.0768990" lon="-0.6065930">
        <ele>326.2</ele>
        <time>2020-07-28T13:01:56Z</time>
      </trkpt>
      <trkpt lat="43.0769380" lon="-0.6066650">
        <ele>326.6</ele>
        <time>2020-07-28T13:01:58Z</time>
      </trkpt>
      <trkpt lat="43.0769780" lon="-0.6067340">
        <ele>326.8</ele>
        <time>2020-07-28T13:02:00Z</time>
      </trkpt>
      <trkpt lat="43.0770630" lon="-0.6069250">
        <ele>327.6</ele>
        <time>2020-07-28T13:02:05Z</time>
      </trkpt>
      <trkpt lat="43.0771360" lon="-0.6070280">
        <ele>328.4</ele>
        <time>2020-07-28T13:02:08Z</time>
      </trkpt>
      <trkpt lat="43.0771590" lon="-0.6070620">
        <ele>328.8</ele>
        <time>2020-07-28T13:02:09Z</time>
      </trkpt>
      <trkpt lat="43.0772560" lon="-0.6071720">
        <ele>329.2</ele>
        <time>2020-07-28T13:02:13Z</time>
      </trkpt>
      <trkpt lat="43.0773530" lon="-0.6072370">
        <ele>329.8</ele>
        <time>2020-07-28T13:02:17Z</time>
      </trkpt>
      <trkpt lat="43.0774340" lon="-0.6073080">
        <ele>329.8</ele>
        <time>2020-07-28T13:02:20Z</time>
      </trkpt>
      <trkpt lat="43.0774940" lon="-0.6073530">
        <ele>330.0</ele>
        <time>2020-07-28T13:02:22Z</time>
      </trkpt>
      <trkpt lat="43.0776960" lon="-0.6075290">
        <ele>329.6</ele>
        <time>2020-07-28T13:02:28Z</time>
      </trkpt>
      <trkpt lat="43.0779180" lon="-0.6077310">
        <ele>328.6</ele>
        <time>2020-07-28T13:02:33Z</time>
      </trkpt>
      <trkpt lat="43.0781060" lon="-0.6079320">
        <ele>327.6</ele>
        <time>2020-07-28T13:02:37Z</time>
      </trkpt>
      <trkpt lat="43.0782140" lon="-0.6080180">
        <ele>327.2</ele>
        <time>2020-07-28T13:02:39Z</time>
      </trkpt>
      <trkpt lat="43.0783200" lon="-0.6080990">
        <ele>327.0</ele>
        <time>2020-07-28T13:02:41Z</time>
      </trkpt>
      <trkpt lat="43.0785840" lon="-0.6082830">
        <ele>327.0</ele>
        <time>2020-07-28T13:02:46Z</time>
      </trkpt>
      <trkpt lat="43.0786420" lon="-0.6083240">
        <ele>327.0</ele>
        <time>2020-07-28T13:02:47Z</time>
      </trkpt>
      <trkpt lat="43.0787020" lon="-0.6083670">
        <ele>327.0</ele>
        <time>2020-07-28T13:02:48Z</time>
      </trkpt>
      <trkpt lat="43.0790170" lon="-0.6085550">
        <ele>326.4</ele>
        <time>2020-07-28T13:02:53Z</time>
      </trkpt>
      <trkpt lat="43.0794130" lon="-0.6086830">
        <ele>326.4</ele>
        <time>2020-07-28T13:02:59Z</time>
      </trkpt>
      <trkpt lat="43.0798190" lon="-0.6087790">
        <ele>326.2</ele>
        <time>2020-07-28T13:03:05Z</time>
      </trkpt>
      <trkpt lat="43.0800170" lon="-0.6088220">
        <ele>325.8</ele>
        <time>2020-07-28T13:03:08Z</time>
      </trkpt>
      <trkpt lat="43.0803610" lon="-0.6088500">
        <ele>325.2</ele>
        <time>2020-07-28T13:03:13Z</time>
      </trkpt>
      <trkpt lat="43.0804300" lon="-0.6088410">
        <ele>325.0</ele>
        <time>2020-07-28T13:03:14Z</time>
      </trkpt>
      <trkpt lat="43.0808250" lon="-0.6087720">
        <ele>325.6</ele>
        <time>2020-07-28T13:03:20Z</time>
      </trkpt>
      <trkpt lat="43.0809630" lon="-0.6087390">
        <ele>325.6</ele>
        <time>2020-07-28T13:03:22Z</time>
      </trkpt>
      <trkpt lat="43.0810320" lon="-0.6087130">
        <ele>325.6</ele>
        <time>2020-07-28T13:03:23Z</time>
      </trkpt>
      <trkpt lat="43.0811010" lon="-0.6086760">
        <ele>325.4</ele>
        <time>2020-07-28T13:03:24Z</time>
      </trkpt>
      <trkpt lat="43.0812460" lon="-0.6085770">
        <ele>324.8</ele>
        <time>2020-07-28T13:03:26Z</time>
      </trkpt>
      <trkpt lat="43.0813230" lon="-0.6085400">
        <ele>324.4</ele>
        <time>2020-07-28T13:03:27Z</time>
      </trkpt>
      <trkpt lat="43.0814790" lon="-0.6085350">
        <ele>324.0</ele>
        <time>2020-07-28T13:03:29Z</time>
      </trkpt>
      <trkpt lat="43.0817430" lon="-0.6086380">
        <ele>323.8</ele>
        <time>2020-07-28T13:03:33Z</time>
      </trkpt>
      <trkpt lat="43.0820720" lon="-0.6087220">
        <ele>323.6</ele>
        <time>2020-07-28T13:03:38Z</time>
      </trkpt>
      <trkpt lat="43.0821470" lon="-0.6087150">
        <ele>323.4</ele>
        <time>2020-07-28T13:03:39Z</time>
      </trkpt>
      <trkpt lat="43.0822190" lon="-0.6086980">
        <ele>323.0</ele>
        <time>2020-07-28T13:03:40Z</time>
      </trkpt>
      <trkpt lat="43.0822920" lon="-0.6086680">
        <ele>322.6</ele>
        <time>2020-07-28T13:03:41Z</time>
      </trkpt>
      <trkpt lat="43.0823680" lon="-0.6086250">
        <ele>322.2</ele>
        <time>2020-07-28T13:03:42Z</time>
      </trkpt>
      <trkpt lat="43.0824440" lon="-0.6085750">
        <ele>321.6</ele>
        <time>2020-07-28T13:03:43Z</time>
      </trkpt>
      <trkpt lat="43.0826840" lon="-0.6084360">
        <ele>320.4</ele>
        <time>2020-07-28T13:03:46Z</time>
      </trkpt>
      <trkpt lat="43.0827650" lon="-0.6084150">
        <ele>320.2</ele>
        <time>2020-07-28T13:03:47Z</time>
      </trkpt>
      <trkpt lat="43.0828430" lon="-0.6084180">
        <ele>320.0</ele>
        <time>2020-07-28T13:03:48Z</time>
      </trkpt>
      <trkpt lat="43.0829750" lon="-0.6085170">
        <ele>319.8</ele>
        <time>2020-07-28T13:03:50Z</time>
      </trkpt>
      <trkpt lat="43.0830440" lon="-0.6086650">
        <ele>320.2</ele>
        <time>2020-07-28T13:03:52Z</time>
      </trkpt>
      <trkpt lat="43.0830620" lon="-0.6087390">
        <ele>320.4</ele>
        <time>2020-07-28T13:03:53Z</time>
      </trkpt>
      <trkpt lat="43.0830840" lon="-0.6088840">
        <ele>321.0</ele>
        <time>2020-07-28T13:03:55Z</time>
      </trkpt>
      <trkpt lat="43.0830980" lon="-0.6090160">
        <ele>321.6</ele>
        <time>2020-07-28T13:03:57Z</time>
      </trkpt>
      <trkpt lat="43.0831190" lon="-0.6091410">
        <ele>322.2</ele>
        <time>2020-07-28T13:03:59Z</time>
      </trkpt>
      <trkpt lat="43.0831830" lon="-0.6093800">
        <ele>322.6</ele>
        <time>2020-07-28T13:04:03Z</time>
      </trkpt>
      <trkpt lat="43.0832290" lon="-0.6095010">
        <ele>323.0</ele>
        <time>2020-07-28T13:04:05Z</time>
      </trkpt>
      <trkpt lat="43.0832540" lon="-0.6095650">
        <ele>323.0</ele>
        <time>2020-07-28T13:04:06Z</time>
      </trkpt>
      <trkpt lat="43.0832760" lon="-0.6096360">
        <ele>323.2</ele>
        <time>2020-07-28T13:04:07Z</time>
      </trkpt>
      <trkpt lat="43.0833390" lon="-0.6098920">
        <ele>322.6</ele>
        <time>2020-07-28T13:04:10Z</time>
      </trkpt>
      <trkpt lat="43.0834370" lon="-0.6103240">
        <ele>321.8</ele>
        <time>2020-07-28T13:04:14Z</time>
      </trkpt>
      <trkpt lat="43.0834640" lon="-0.6104460">
        <ele>321.4</ele>
        <time>2020-07-28T13:04:15Z</time>
      </trkpt>
      <trkpt lat="43.0835760" lon="-0.6107900">
        <ele>320.0</ele>
        <time>2020-07-28T13:04:18Z</time>
      </trkpt>
      <trkpt lat="43.0836250" lon="-0.6108880">
        <ele>319.8</ele>
        <time>2020-07-28T13:04:19Z</time>
      </trkpt>
      <trkpt lat="43.0836800" lon="-0.6109760">
        <ele>319.6</ele>
        <time>2020-07-28T13:04:20Z</time>
      </trkpt>
      <trkpt lat="43.0838000" lon="-0.6111220">
        <ele>319.4</ele>
        <time>2020-07-28T13:04:22Z</time>
      </trkpt>
      <trkpt lat="43.0838640" lon="-0.6111760">
        <ele>319.2</ele>
        <time>2020-07-28T13:04:23Z</time>
      </trkpt>
      <trkpt lat="43.0839880" lon="-0.6112560">
        <ele>318.6</ele>
        <time>2020-07-28T13:04:25Z</time>
      </trkpt>
      <trkpt lat="43.0841530" lon="-0.6113850">
        <ele>318.0</ele>
        <time>2020-07-28T13:04:28Z</time>
      </trkpt>
      <trkpt lat="43.0844290" lon="-0.6115880">
        <ele>317.6</ele>
        <time>2020-07-28T13:04:33Z</time>
      </trkpt>
      <trkpt lat="43.0844970" lon="-0.6116180">
        <ele>317.6</ele>
        <time>2020-07-28T13:04:34Z</time>
      </trkpt>
      <trkpt lat="43.0846360" lon="-0.6116490">
        <ele>317.2</ele>
        <time>2020-07-28T13:04:36Z</time>
      </trkpt>
      <trkpt lat="43.0847800" lon="-0.6116330">
        <ele>317.0</ele>
        <time>2020-07-28T13:04:38Z</time>
      </trkpt>
      <trkpt lat="43.0849240" lon="-0.6115940">
        <ele>316.6</ele>
        <time>2020-07-28T13:04:40Z</time>
      </trkpt>
      <trkpt lat="43.0851160" lon="-0.6115110">
        <ele>315.6</ele>
        <time>2020-07-28T13:04:43Z</time>
      </trkpt>
      <trkpt lat="43.0851710" lon="-0.6114640">
        <ele>315.2</ele>
        <time>2020-07-28T13:04:44Z</time>
      </trkpt>
      <trkpt lat="43.0855320" lon="-0.6112570">
        <ele>315.0</ele>
        <time>2020-07-28T13:04:50Z</time>
      </trkpt>
      <trkpt lat="43.0856830" lon="-0.6112200">
        <ele>314.6</ele>
        <time>2020-07-28T13:04:52Z</time>
      </trkpt>
      <trkpt lat="43.0857590" lon="-0.6112120">
        <ele>314.4</ele>
        <time>2020-07-28T13:04:53Z</time>
      </trkpt>
      <trkpt lat="43.0858350" lon="-0.6112040">
        <ele>314.2</ele>
        <time>2020-07-28T13:04:54Z</time>
      </trkpt>
      <trkpt lat="43.0859110" lon="-0.6111930">
        <ele>314.0</ele>
        <time>2020-07-28T13:04:55Z</time>
      </trkpt>
      <trkpt lat="43.0861440" lon="-0.6111570">
        <ele>313.6</ele>
        <time>2020-07-28T13:04:58Z</time>
      </trkpt>
      <trkpt lat="43.0863080" lon="-0.6111240">
        <ele>313.2</ele>
        <time>2020-07-28T13:05:00Z</time>
      </trkpt>
      <trkpt lat="43.0864840" lon="-0.6110900">
        <ele>312.8</ele>
        <time>2020-07-28T13:05:02Z</time>
      </trkpt>
      <trkpt lat="43.0866700" lon="-0.6110610">
        <ele>312.4</ele>
        <time>2020-07-28T13:05:04Z</time>
      </trkpt>
      <trkpt lat="43.0867650" lon="-0.6110510">
        <ele>311.8</ele>
        <time>2020-07-28T13:05:05Z</time>
      </trkpt>
      <trkpt lat="43.0870580" lon="-0.6110360">
        <ele>310.6</ele>
        <time>2020-07-28T13:05:08Z</time>
      </trkpt>
      <trkpt lat="43.0873550" lon="-0.6110100">
        <ele>309.6</ele>
        <time>2020-07-28T13:05:11Z</time>
      </trkpt>
      <trkpt lat="43.0877270" lon="-0.6109490">
        <ele>309.2</ele>
        <time>2020-07-28T13:05:15Z</time>
      </trkpt>
      <trkpt lat="43.0880520" lon="-0.6108740">
        <ele>308.4</ele>
        <time>2020-07-28T13:05:19Z</time>
      </trkpt>
      <trkpt lat="43.0882070" lon="-0.6108290">
        <ele>308.2</ele>
        <time>2020-07-28T13:05:21Z</time>
      </trkpt>
      <trkpt lat="43.0885830" lon="-0.6106510">
        <ele>308.0</ele>
        <time>2020-07-28T13:05:26Z</time>
      </trkpt>
      <trkpt lat="43.0888900" lon="-0.6106370">
        <ele>308.0</ele>
        <time>2020-07-28T13:05:30Z</time>
      </trkpt>
      <trkpt lat="43.0890330" lon="-0.6106410">
        <ele>308.0</ele>
        <time>2020-07-28T13:05:32Z</time>
      </trkpt>
      <trkpt lat="43.0894690" lon="-0.6106780">
        <ele>308.4</ele>
        <time>2020-07-28T13:05:38Z</time>
      </trkpt>
      <trkpt lat="43.0896860" lon="-0.6107130">
        <ele>308.2</ele>
        <time>2020-07-28T13:05:41Z</time>
      </trkpt>
      <trkpt lat="43.0899640" lon="-0.6107640">
        <ele>308.2</ele>
        <time>2020-07-28T13:05:45Z</time>
      </trkpt>
      <trkpt lat="43.0903090" lon="-0.6108600">
        <ele>309.0</ele>
        <time>2020-07-28T13:05:51Z</time>
      </trkpt>
      <trkpt lat="43.0904130" lon="-0.6108870">
        <ele>309.4</ele>
        <time>2020-07-28T13:05:53Z</time>
      </trkpt>
      <trkpt lat="43.0905590" lon="-0.6109470">
        <ele>310.6</ele>
        <time>2020-07-28T13:05:56Z</time>
      </trkpt>
      <trkpt lat="43.0906050" lon="-0.6109640">
        <ele>310.8</ele>
        <time>2020-07-28T13:05:57Z</time>
      </trkpt>
      <trkpt lat="43.0906510" lon="-0.6109770">
        <ele>311.2</ele>
        <time>2020-07-28T13:05:58Z</time>
      </trkpt>
      <trkpt lat="43.0906970" lon="-0.6109950">
        <ele>311.6</ele>
        <time>2020-07-28T13:05:59Z</time>
      </trkpt>
      <trkpt lat="43.0908820" lon="-0.6110620">
        <ele>312.8</ele>
        <time>2020-07-28T13:06:03Z</time>
      </trkpt>
      <trkpt lat="43.0909790" lon="-0.6110790">
        <ele>313.2</ele>
        <time>2020-07-28T13:06:05Z</time>
      </trkpt>
      <trkpt lat="43.0910270" lon="-0.6110890">
        <ele>313.6</ele>
        <time>2020-07-28T13:06:06Z</time>
      </trkpt>
      <trkpt lat="43.0910770" lon="-0.6111030">
        <ele>313.8</ele>
        <time>2020-07-28T13:06:07Z</time>
      </trkpt>
      <trkpt lat="43.0913440" lon="-0.6111660">
        <ele>314.6</ele>
        <time>2020-07-28T13:06:12Z</time>
      </trkpt>
      <trkpt lat="43.0914020" lon="-0.6111680">
        <ele>314.4</ele>
        <time>2020-07-28T13:06:13Z</time>
      </trkpt>
      <trkpt lat="43.0914620" lon="-0.6111730">
        <ele>314.4</ele>
        <time>2020-07-28T13:06:14Z</time>
      </trkpt>
      <trkpt lat="43.0917030" lon="-0.6112140">
        <ele>314.2</ele>
        <time>2020-07-28T13:06:18Z</time>
      </trkpt>
      <trkpt lat="43.0917600" lon="-0.6112410">
        <ele>314.2</ele>
        <time>2020-07-28T13:06:19Z</time>
      </trkpt>
      <trkpt lat="43.0918120" lon="-0.6112800">
        <ele>314.2</ele>
        <time>2020-07-28T13:06:20Z</time>
      </trkpt>
      <trkpt lat="43.0919890" lon="-0.6114550">
        <ele>314.6</ele>
        <time>2020-07-28T13:06:24Z</time>
      </trkpt>
      <trkpt lat="43.0920690" lon="-0.6115520">
        <ele>314.8</ele>
        <time>2020-07-28T13:06:26Z</time>
      </trkpt>
      <trkpt lat="43.0921530" lon="-0.6116540">
        <ele>315.0</ele>
        <time>2020-07-28T13:06:28Z</time>
      </trkpt>
      <trkpt lat="43.0923290" lon="-0.6118620">
        <ele>314.2</ele>
        <time>2020-07-28T13:06:32Z</time>
      </trkpt>
      <trkpt lat="43.0924610" lon="-0.6120070">
        <ele>313.8</ele>
        <time>2020-07-28T13:06:35Z</time>
      </trkpt>
      <trkpt lat="43.0925450" lon="-0.6121170">
        <ele>313.6</ele>
        <time>2020-07-28T13:06:37Z</time>
      </trkpt>
      <trkpt lat="43.0926730" lon="-0.6122780">
        <ele>313.2</ele>
        <time>2020-07-28T13:06:40Z</time>
      </trkpt>
      <trkpt lat="43.0927620" lon="-0.6123760">
        <ele>313.2</ele>
        <time>2020-07-28T13:06:42Z</time>
      </trkpt>
      <trkpt lat="43.0929170" lon="-0.6124860">
        <ele>313.2</ele>
        <time>2020-07-28T13:06:45Z</time>
      </trkpt>
      <trkpt lat="43.0931380" lon="-0.6125850">
        <ele>313.0</ele>
        <time>2020-07-28T13:06:49Z</time>
      </trkpt>
      <trkpt lat="43.0932590" lon="-0.6126080">
        <ele>312.8</ele>
        <time>2020-07-28T13:06:51Z</time>
      </trkpt>
      <trkpt lat="43.0933220" lon="-0.6126150">
        <ele>312.8</ele>
        <time>2020-07-28T13:06:52Z</time>
      </trkpt>
      <trkpt lat="43.0936820" lon="-0.6126520">
        <ele>312.0</ele>
        <time>2020-07-28T13:06:58Z</time>
      </trkpt>
      <trkpt lat="43.0937420" lon="-0.6126520">
        <ele>312.0</ele>
        <time>2020-07-28T13:06:59Z</time>
      </trkpt>
      <trkpt lat="43.0940260" lon="-0.6126670">
        <ele>312.0</ele>
        <time>2020-07-28T13:07:04Z</time>
      </trkpt>
      <trkpt lat="43.0941320" lon="-0.6126800">
        <ele>312.0</ele>
        <time>2020-07-28T13:07:06Z</time>
      </trkpt>
      <trkpt lat="43.0944310" lon="-0.6127110">
        <ele>312.6</ele>
        <time>2020-07-28T13:07:12Z</time>
      </trkpt>
      <trkpt lat="43.0945760" lon="-0.6126990">
        <ele>312.8</ele>
        <time>2020-07-28T13:07:15Z</time>
      </trkpt>
      <trkpt lat="43.0947570" lon="-0.6126690">
        <ele>313.4</ele>
        <time>2020-07-28T13:07:19Z</time>
      </trkpt>
      <trkpt lat="43.0948850" lon="-0.6126400">
        <ele>313.8</ele>
        <time>2020-07-28T13:07:22Z</time>
      </trkpt>
      <trkpt lat="43.0949260" lon="-0.6126320">
        <ele>314.0</ele>
        <time>2020-07-28T13:07:23Z</time>
      </trkpt>
      <trkpt lat="43.0949650" lon="-0.6126220">
        <ele>314.2</ele>
        <time>2020-07-28T13:07:24Z</time>
      </trkpt>
      <trkpt lat="43.0950040" lon="-0.6126140">
        <ele>314.4</ele>
        <time>2020-07-28T13:07:25Z</time>
      </trkpt>
      <trkpt lat="43.0950430" lon="-0.6126110">
        <ele>314.6</ele>
        <time>2020-07-28T13:07:26Z</time>
      </trkpt>
      <trkpt lat="43.0950790" lon="-0.6126070">
        <ele>315.0</ele>
        <time>2020-07-28T13:07:27Z</time>
      </trkpt>
      <trkpt lat="43.0951900" lon="-0.6125740">
        <ele>315.4</ele>
        <time>2020-07-28T13:07:30Z</time>
      </trkpt>
      <trkpt lat="43.0953020" lon="-0.6125430">
        <ele>315.8</ele>
        <time>2020-07-28T13:07:33Z</time>
      </trkpt>
      <trkpt lat="43.0953700" lon="-0.6125260">
        <ele>316.0</ele>
        <time>2020-07-28T13:07:35Z</time>
      </trkpt>
      <trkpt lat="43.0955640" lon="-0.6125110">
        <ele>315.4</ele>
        <time>2020-07-28T13:08:48Z</time>
      </trkpt>
      <trkpt lat="43.0956440" lon="-0.6124960">
        <ele>315.4</ele>
        <time>2020-07-28T13:08:50Z</time>
      </trkpt>
      <trkpt lat="43.0958120" lon="-0.6124700">
        <ele>315.4</ele>
        <time>2020-07-28T13:08:53Z</time>
      </trkpt>
      <trkpt lat="43.0959430" lon="-0.6124430">
        <ele>315.2</ele>
        <time>2020-07-28T13:08:55Z</time>
      </trkpt>
      <trkpt lat="43.0963790" lon="-0.6124050">
        <ele>314.0</ele>
        <time>2020-07-28T13:09:01Z</time>
      </trkpt>
      <trkpt lat="43.0964580" lon="-0.6124050">
        <ele>313.6</ele>
        <time>2020-07-28T13:09:02Z</time>
      </trkpt>
      <trkpt lat="43.0967110" lon="-0.6123980">
        <ele>313.0</ele>
        <time>2020-07-28T13:09:05Z</time>
      </trkpt>
      <trkpt lat="43.0968920" lon="-0.6123880">
        <ele>312.6</ele>
        <time>2020-07-28T13:09:07Z</time>
      </trkpt>
      <trkpt lat="43.0969850" lon="-0.6123840">
        <ele>312.0</ele>
        <time>2020-07-28T13:09:08Z</time>
      </trkpt>
      <trkpt lat="43.0971780" lon="-0.6124020">
        <ele>311.2</ele>
        <time>2020-07-28T13:09:10Z</time>
      </trkpt>
      <trkpt lat="43.0974440" lon="-0.6124300">
        <ele>311.0</ele>
        <time>2020-07-28T13:09:13Z</time>
      </trkpt>
      <trkpt lat="43.0976610" lon="-0.6124250">
        <ele>312.6</ele>
        <time>2020-07-28T13:09:16Z</time>
      </trkpt>
      <trkpt lat="43.0977260" lon="-0.6124250">
        <ele>313.2</ele>
        <time>2020-07-28T13:09:17Z</time>
      </trkpt>
      <trkpt lat="43.0977890" lon="-0.6124250">
        <ele>313.8</ele>
        <time>2020-07-28T13:09:18Z</time>
      </trkpt>
      <trkpt lat="43.0979070" lon="-0.6124310">
        <ele>314.8</ele>
        <time>2020-07-28T13:09:20Z</time>
      </trkpt>
      <trkpt lat="43.0981400" lon="-0.6124330">
        <ele>315.8</ele>
        <time>2020-07-28T13:09:24Z</time>
      </trkpt>
      <trkpt lat="43.0985080" lon="-0.6123990">
        <ele>315.8</ele>
        <time>2020-07-28T13:09:30Z</time>
      </trkpt>
      <trkpt lat="43.0985730" lon="-0.6123900">
        <ele>315.8</ele>
        <time>2020-07-28T13:09:31Z</time>
      </trkpt>
      <trkpt lat="43.0988970" lon="-0.6123690">
        <ele>315.8</ele>
        <time>2020-07-28T13:09:36Z</time>
      </trkpt>
      <trkpt lat="43.0989590" lon="-0.6123730">
        <ele>315.8</ele>
        <time>2020-07-28T13:09:37Z</time>
      </trkpt>
      <trkpt lat="43.0990830" lon="-0.6123810">
        <ele>316.0</ele>
        <time>2020-07-28T13:09:39Z</time>
      </trkpt>
      <trkpt lat="43.0994410" lon="-0.6124300">
        <ele>317.0</ele>
        <time>2020-07-28T13:09:45Z</time>
      </trkpt>
      <trkpt lat="43.0997020" lon="-0.6124450">
        <ele>317.6</ele>
        <time>2020-07-28T13:09:50Z</time>
      </trkpt>
      <trkpt lat="43.0997470" lon="-0.6124570">
        <ele>318.0</ele>
        <time>2020-07-28T13:09:51Z</time>
      </trkpt>
      <trkpt lat="43.0997940" lon="-0.6124590">
        <ele>318.4</ele>
        <time>2020-07-28T13:09:52Z</time>
      </trkpt>
      <trkpt lat="43.0999340" lon="-0.6124690">
        <ele>319.2</ele>
        <time>2020-07-28T13:09:55Z</time>
      </trkpt>
      <trkpt lat="43.0999790" lon="-0.6124720">
        <ele>319.6</ele>
        <time>2020-07-28T13:09:56Z</time>
      </trkpt>
      <trkpt lat="43.1001020" lon="-0.6125150">
        <ele>320.4</ele>
        <time>2020-07-28T13:09:59Z</time>
      </trkpt>
      <trkpt lat="43.1001740" lon="-0.6125470">
        <ele>320.8</ele>
        <time>2020-07-28T13:10:01Z</time>
      </trkpt>
      <trkpt lat="43.1002510" lon="-0.6125840">
        <ele>321.4</ele>
        <time>2020-07-28T13:10:03Z</time>
      </trkpt>
      <trkpt lat="43.1004490" lon="-0.6126300">
        <ele>322.6</ele>
        <time>2020-07-28T13:10:08Z</time>
      </trkpt>
      <trkpt lat="43.1006310" lon="-0.6126630">
        <ele>323.8</ele>
        <time>2020-07-28T13:10:13Z</time>
      </trkpt>
      <trkpt lat="43.1007700" lon="-0.6127120">
        <ele>324.6</ele>
        <time>2020-07-28T13:10:17Z</time>
      </trkpt>
      <trkpt lat="43.1008360" lon="-0.6127460">
        <ele>324.8</ele>
        <time>2020-07-28T13:10:19Z</time>
      </trkpt>
      <trkpt lat="43.1009300" lon="-0.6128120">
        <ele>325.4</ele>
        <time>2020-07-28T13:10:22Z</time>
      </trkpt>
      <trkpt lat="43.1009890" lon="-0.6128540">
        <ele>326.0</ele>
        <time>2020-07-28T13:10:24Z</time>
      </trkpt>
      <trkpt lat="43.1011260" lon="-0.6130060">
        <ele>327.2</ele>
        <time>2020-07-28T13:10:29Z</time>
      </trkpt>
      <trkpt lat="43.1012120" lon="-0.6131170">
        <ele>328.2</ele>
        <time>2020-07-28T13:10:32Z</time>
      </trkpt>
      <trkpt lat="43.1013390" lon="-0.6133050">
        <ele>329.4</ele>
        <time>2020-07-28T13:10:36Z</time>
      </trkpt>
      <trkpt lat="43.1014040" lon="-0.6133850">
        <ele>330.0</ele>
        <time>2020-07-28T13:10:38Z</time>
      </trkpt>
      <trkpt lat="43.1014750" lon="-0.6134480">
        <ele>330.6</ele>
        <time>2020-07-28T13:10:40Z</time>
      </trkpt>
      <trkpt lat="43.1016290" lon="-0.6135260">
        <ele>331.6</ele>
        <time>2020-07-28T13:10:44Z</time>
      </trkpt>
      <trkpt lat="43.1016710" lon="-0.6135330">
        <ele>331.8</ele>
        <time>2020-07-28T13:10:45Z</time>
      </trkpt>
      <trkpt lat="43.1017560" lon="-0.6135490">
        <ele>332.2</ele>
        <time>2020-07-28T13:10:47Z</time>
      </trkpt>
      <trkpt lat="43.1019640" lon="-0.6135840">
        <ele>332.6</ele>
        <time>2020-07-28T13:10:52Z</time>
      </trkpt>
      <trkpt lat="43.1021240" lon="-0.6136020">
        <ele>333.4</ele>
        <time>2020-07-28T13:10:56Z</time>
      </trkpt>
      <trkpt lat="43.1021610" lon="-0.6136100">
        <ele>333.8</ele>
        <time>2020-07-28T13:10:57Z</time>
      </trkpt>
      <trkpt lat="43.1023480" lon="-0.6136750">
        <ele>334.4</ele>
        <time>2020-07-28T13:11:02Z</time>
      </trkpt>
      <trkpt lat="43.1024360" lon="-0.6137000">
        <ele>334.6</ele>
        <time>2020-07-28T13:11:04Z</time>
      </trkpt>
      <trkpt lat="43.1024770" lon="-0.6137140">
        <ele>334.8</ele>
        <time>2020-07-28T13:11:05Z</time>
      </trkpt>
      <trkpt lat="43.1027540" lon="-0.6137980">
        <ele>336.0</ele>
        <time>2020-07-28T13:11:11Z</time>
      </trkpt>
      <trkpt lat="43.1028470" lon="-0.6138360">
        <ele>336.2</ele>
        <time>2020-07-28T13:11:13Z</time>
      </trkpt>
      <trkpt lat="43.1029810" lon="-0.6139050">
        <ele>337.0</ele>
        <time>2020-07-28T13:11:16Z</time>
      </trkpt>
      <trkpt lat="43.1030670" lon="-0.6139540">
        <ele>337.6</ele>
        <time>2020-07-28T13:11:18Z</time>
      </trkpt>
      <trkpt lat="43.1031500" lon="-0.6140100">
        <ele>338.2</ele>
        <time>2020-07-28T13:11:20Z</time>
      </trkpt>
      <trkpt lat="43.1031900" lon="-0.6140410">
        <ele>338.4</ele>
        <time>2020-07-28T13:11:21Z</time>
      </trkpt>
      <trkpt lat="43.1032740" lon="-0.6140990">
        <ele>338.6</ele>
        <time>2020-07-28T13:11:23Z</time>
      </trkpt>
      <trkpt lat="43.1034800" lon="-0.6142320">
        <ele>339.2</ele>
        <time>2020-07-28T13:11:28Z</time>
      </trkpt>
      <trkpt lat="43.1036020" lon="-0.6143160">
        <ele>339.6</ele>
        <time>2020-07-28T13:11:31Z</time>
      </trkpt>
      <trkpt lat="43.1036830" lon="-0.6143760">
        <ele>339.8</ele>
        <time>2020-07-28T13:11:33Z</time>
      </trkpt>
      <trkpt lat="43.1037670" lon="-0.6144310">
        <ele>340.4</ele>
        <time>2020-07-28T13:11:35Z</time>
      </trkpt>
      <trkpt lat="43.1039190" lon="-0.6145580">
        <ele>341.4</ele>
        <time>2020-07-28T13:11:39Z</time>
      </trkpt>
      <trkpt lat="43.1039570" lon="-0.6145960">
        <ele>341.4</ele>
        <time>2020-07-28T13:11:40Z</time>
      </trkpt>
      <trkpt lat="43.1040330" lon="-0.6146630">
        <ele>341.6</ele>
        <time>2020-07-28T13:11:42Z</time>
      </trkpt>
      <trkpt lat="43.1042050" lon="-0.6148500">
        <ele>342.4</ele>
        <time>2020-07-28T13:11:47Z</time>
      </trkpt>
      <trkpt lat="43.1042380" lon="-0.6148900">
        <ele>342.6</ele>
        <time>2020-07-28T13:11:48Z</time>
      </trkpt>
      <trkpt lat="43.1044470" lon="-0.6151400">
        <ele>343.2</ele>
        <time>2020-07-28T13:11:54Z</time>
      </trkpt>
      <trkpt lat="43.1044820" lon="-0.6151860">
        <ele>343.4</ele>
        <time>2020-07-28T13:11:55Z</time>
      </trkpt>
      <trkpt lat="43.1045570" lon="-0.6152650">
        <ele>343.8</ele>
        <time>2020-07-28T13:11:57Z</time>
      </trkpt>
      <trkpt lat="43.1046390" lon="-0.6153270">
        <ele>344.0</ele>
        <time>2020-07-28T13:11:59Z</time>
      </trkpt>
      <trkpt lat="43.1047290" lon="-0.6153740">
        <ele>344.2</ele>
        <time>2020-07-28T13:12:01Z</time>
      </trkpt>
      <trkpt lat="43.1048770" lon="-0.6154250">
        <ele>344.2</ele>
        <time>2020-07-28T13:12:04Z</time>
      </trkpt>
      <trkpt lat="43.1050420" lon="-0.6154490">
        <ele>343.4</ele>
        <time>2020-07-28T13:12:07Z</time>
      </trkpt>
      <trkpt lat="43.1052150" lon="-0.6154380">
        <ele>342.8</ele>
        <time>2020-07-28T13:12:10Z</time>
      </trkpt>
      <trkpt lat="43.1053300" lon="-0.6153910">
        <ele>342.6</ele>
        <time>2020-07-28T13:12:12Z</time>
      </trkpt>
      <trkpt lat="43.1055420" lon="-0.6152260">
        <ele>342.2</ele>
        <time>2020-07-28T13:12:16Z</time>
      </trkpt>
      <trkpt lat="43.1055930" lon="-0.6151750">
        <ele>342.2</ele>
        <time>2020-07-28T13:12:17Z</time>
      </trkpt>
      <trkpt lat="43.1056930" lon="-0.6150680">
        <ele>341.4</ele>
        <time>2020-07-28T13:12:19Z</time>
      </trkpt>
      <trkpt lat="43.1058660" lon="-0.6149290">
        <ele>340.6</ele>
        <time>2020-07-28T13:12:22Z</time>
      </trkpt>
      <trkpt lat="43.1059320" lon="-0.6148870">
        <ele>340.4</ele>
        <time>2020-07-28T13:12:23Z</time>
      </trkpt>
      <trkpt lat="43.1061540" lon="-0.6147590">
        <ele>338.6</ele>
        <time>2020-07-28T13:12:26Z</time>
      </trkpt>
      <trkpt lat="43.1062350" lon="-0.6147120">
        <ele>337.6</ele>
        <time>2020-07-28T13:12:27Z</time>
      </trkpt>
      <trkpt lat="43.1063180" lon="-0.6146620">
        <ele>336.4</ele>
        <time>2020-07-28T13:12:28Z</time>
      </trkpt>
      <trkpt lat="43.1064940" lon="-0.6145550">
        <ele>334.8</ele>
        <time>2020-07-28T13:12:30Z</time>
      </trkpt>
      <trkpt lat="43.1066730" lon="-0.6144130">
        <ele>333.2</ele>
        <time>2020-07-28T13:12:32Z</time>
      </trkpt>
      <trkpt lat="43.1067650" lon="-0.6143260">
        <ele>332.6</ele>
        <time>2020-07-28T13:12:33Z</time>
      </trkpt>
      <trkpt lat="43.1068610" lon="-0.6142330">
        <ele>331.4</ele>
        <time>2020-07-28T13:12:34Z</time>
      </trkpt>
      <trkpt lat="43.1069610" lon="-0.6141380">
        <ele>330.0</ele>
        <time>2020-07-28T13:12:35Z</time>
      </trkpt>
      <trkpt lat="43.1070660" lon="-0.6140430">
        <ele>328.4</ele>
        <time>2020-07-28T13:12:36Z</time>
      </trkpt>
      <trkpt lat="43.1071800" lon="-0.6139480">
        <ele>326.4</ele>
        <time>2020-07-28T13:12:37Z</time>
      </trkpt>
      <trkpt lat="43.1073030" lon="-0.6138560">
        <ele>324.4</ele>
        <time>2020-07-28T13:12:38Z</time>
      </trkpt>
      <trkpt lat="43.1074290" lon="-0.6137630">
        <ele>322.2</ele>
        <time>2020-07-28T13:12:39Z</time>
      </trkpt>
      <trkpt lat="43.1075560" lon="-0.6136730">
        <ele>320.4</ele>
        <time>2020-07-28T13:12:40Z</time>
      </trkpt>
      <trkpt lat="43.1076860" lon="-0.6135810">
        <ele>319.0</ele>
        <time>2020-07-28T13:12:41Z</time>
      </trkpt>
      <trkpt lat="43.1078150" lon="-0.6134880">
        <ele>317.8</ele>
        <time>2020-07-28T13:12:42Z</time>
      </trkpt>
      <trkpt lat="43.1079430" lon="-0.6133930">
        <ele>316.2</ele>
        <time>2020-07-28T13:12:43Z</time>
      </trkpt>
      <trkpt lat="43.1080670" lon="-0.6133060">
        <ele>314.8</ele>
        <time>2020-07-28T13:12:44Z</time>
      </trkpt>
      <trkpt lat="43.1081810" lon="-0.6132300">
        <ele>313.6</ele>
        <time>2020-07-28T13:12:45Z</time>
      </trkpt>
      <trkpt lat="43.1082850" lon="-0.6131540">
        <ele>312.4</ele>
        <time>2020-07-28T13:12:46Z</time>
      </trkpt>
      <trkpt lat="43.1084820" lon="-0.6130160">
        <ele>310.8</ele>
        <time>2020-07-28T13:12:48Z</time>
      </trkpt>
      <trkpt lat="43.1085840" lon="-0.6129630">
        <ele>310.6</ele>
        <time>2020-07-28T13:12:49Z</time>
      </trkpt>
      <trkpt lat="43.1087910" lon="-0.6129270">
        <ele>309.8</ele>
        <time>2020-07-28T13:12:51Z</time>
      </trkpt>
      <trkpt lat="43.1088900" lon="-0.6129460">
        <ele>309.4</ele>
        <time>2020-07-28T13:12:52Z</time>
      </trkpt>
      <trkpt lat="43.1090700" lon="-0.6129850">
        <ele>309.0</ele>
        <time>2020-07-28T13:12:54Z</time>
      </trkpt>
      <trkpt lat="43.1091590" lon="-0.6129740">
        <ele>308.6</ele>
        <time>2020-07-28T13:12:55Z</time>
      </trkpt>
      <trkpt lat="43.1092410" lon="-0.6129330">
        <ele>308.4</ele>
        <time>2020-07-28T13:12:56Z</time>
      </trkpt>
      <trkpt lat="43.1093710" lon="-0.6127790">
        <ele>307.6</ele>
        <time>2020-07-28T13:12:58Z</time>
      </trkpt>
      <trkpt lat="43.1094240" lon="-0.6126890">
        <ele>307.2</ele>
        <time>2020-07-28T13:12:59Z</time>
      </trkpt>
      <trkpt lat="43.1095770" lon="-0.6124060">
        <ele>306.2</ele>
        <time>2020-07-28T13:13:02Z</time>
      </trkpt>
      <trkpt lat="43.1097730" lon="-0.6120410">
        <ele>305.6</ele>
        <time>2020-07-28T13:13:06Z</time>
      </trkpt>
      <trkpt lat="43.1099980" lon="-0.6117320">
        <ele>305.2</ele>
        <time>2020-07-28T13:13:10Z</time>
      </trkpt>
      <trkpt lat="43.1101150" lon="-0.6115880">
        <ele>304.6</ele>
        <time>2020-07-28T13:13:12Z</time>
      </trkpt>
      <trkpt lat="43.1102260" lon="-0.6114590">
        <ele>304.0</ele>
        <time>2020-07-28T13:13:14Z</time>
      </trkpt>
      <trkpt lat="43.1103870" lon="-0.6112630">
        <ele>303.0</ele>
        <time>2020-07-28T13:13:17Z</time>
      </trkpt>
      <trkpt lat="43.1104430" lon="-0.6111970">
        <ele>302.6</ele>
        <time>2020-07-28T13:13:18Z</time>
      </trkpt>
      <trkpt lat="43.1105550" lon="-0.6110720">
        <ele>301.2</ele>
        <time>2020-07-28T13:13:20Z</time>
      </trkpt>
      <trkpt lat="43.1106200" lon="-0.6110180">
        <ele>300.8</ele>
        <time>2020-07-28T13:13:21Z</time>
      </trkpt>
      <trkpt lat="43.1106910" lon="-0.6109690">
        <ele>300.2</ele>
        <time>2020-07-28T13:13:22Z</time>
      </trkpt>
      <trkpt lat="43.1107710" lon="-0.6109230">
        <ele>299.8</ele>
        <time>2020-07-28T13:13:23Z</time>
      </trkpt>
      <trkpt lat="43.1109460" lon="-0.6108220">
        <ele>298.6</ele>
        <time>2020-07-28T13:13:25Z</time>
      </trkpt>
      <trkpt lat="43.1111340" lon="-0.6107220">
        <ele>297.2</ele>
        <time>2020-07-28T13:13:27Z</time>
      </trkpt>
      <trkpt lat="43.1112290" lon="-0.6106660">
        <ele>296.6</ele>
        <time>2020-07-28T13:13:28Z</time>
      </trkpt>
      <trkpt lat="43.1114100" lon="-0.6105510">
        <ele>295.6</ele>
        <time>2020-07-28T13:13:30Z</time>
      </trkpt>
      <trkpt lat="43.1115670" lon="-0.6104100">
        <ele>294.8</ele>
        <time>2020-07-28T13:13:32Z</time>
      </trkpt>
      <trkpt lat="43.1116350" lon="-0.6103280">
        <ele>294.6</ele>
        <time>2020-07-28T13:13:33Z</time>
      </trkpt>
      <trkpt lat="43.1117350" lon="-0.6101870">
        <ele>294.4</ele>
        <time>2020-07-28T13:13:35Z</time>
      </trkpt>
      <trkpt lat="43.1117690" lon="-0.6101200">
        <ele>294.4</ele>
        <time>2020-07-28T13:13:36Z</time>
      </trkpt>
      <trkpt lat="43.1117970" lon="-0.6100470">
        <ele>294.4</ele>
        <time>2020-07-28T13:13:37Z</time>
      </trkpt>
      <trkpt lat="43.1118660" lon="-0.6098180">
        <ele>294.2</ele>
        <time>2020-07-28T13:13:40Z</time>
      </trkpt>
      <trkpt lat="43.1118770" lon="-0.6097290">
        <ele>294.0</ele>
        <time>2020-07-28T13:13:41Z</time>
      </trkpt>
      <trkpt lat="43.1118850" lon="-0.6095430">
        <ele>293.6</ele>
        <time>2020-07-28T13:13:43Z</time>
      </trkpt>
      <trkpt lat="43.1118840" lon="-0.6092580">
        <ele>293.2</ele>
        <time>2020-07-28T13:13:46Z</time>
      </trkpt>
      <trkpt lat="43.1118880" lon="-0.6091680">
        <ele>293.0</ele>
        <time>2020-07-28T13:13:47Z</time>
      </trkpt>
      <trkpt lat="43.1118980" lon="-0.6090090">
        <ele>292.8</ele>
        <time>2020-07-28T13:13:49Z</time>
      </trkpt>
      <trkpt lat="43.1119160" lon="-0.6088530">
        <ele>292.8</ele>
        <time>2020-07-28T13:13:51Z</time>
      </trkpt>
      <trkpt lat="43.1119340" lon="-0.6087780">
        <ele>292.8</ele>
        <time>2020-07-28T13:13:52Z</time>
      </trkpt>
      <trkpt lat="43.1120090" lon="-0.6086410">
        <ele>292.6</ele>
        <time>2020-07-28T13:13:54Z</time>
      </trkpt>
      <trkpt lat="43.1120460" lon="-0.6085750">
        <ele>292.4</ele>
        <time>2020-07-28T13:13:55Z</time>
      </trkpt>
      <trkpt lat="43.1122860" lon="-0.6081660">
        <ele>291.6</ele>
        <time>2020-07-28T13:14:01Z</time>
      </trkpt>
      <trkpt lat="43.1123280" lon="-0.6080920">
        <ele>291.0</ele>
        <time>2020-07-28T13:14:02Z</time>
      </trkpt>
      <trkpt lat="43.1124190" lon="-0.6079340">
        <ele>290.0</ele>
        <time>2020-07-28T13:14:04Z</time>
      </trkpt>
      <trkpt lat="43.1124990" lon="-0.6077620">
        <ele>288.8</ele>
        <time>2020-07-28T13:14:06Z</time>
      </trkpt>
      <trkpt lat="43.1125260" lon="-0.6076650">
        <ele>288.4</ele>
        <time>2020-07-28T13:14:07Z</time>
      </trkpt>
      <trkpt lat="43.1125410" lon="-0.6075610">
        <ele>288.2</ele>
        <time>2020-07-28T13:14:08Z</time>
      </trkpt>
      <trkpt lat="43.1125560" lon="-0.6074510">
        <ele>287.8</ele>
        <time>2020-07-28T13:14:09Z</time>
      </trkpt>
      <trkpt lat="43.1125770" lon="-0.6073430">
        <ele>287.4</ele>
        <time>2020-07-28T13:14:10Z</time>
      </trkpt>
      <trkpt lat="43.1126110" lon="-0.6072430">
        <ele>286.6</ele>
        <time>2020-07-28T13:14:11Z</time>
      </trkpt>
      <trkpt lat="43.1126600" lon="-0.6071530">
        <ele>286.0</ele>
        <time>2020-07-28T13:14:12Z</time>
      </trkpt>
      <trkpt lat="43.1128060" lon="-0.6070150">
        <ele>285.2</ele>
        <time>2020-07-28T13:14:14Z</time>
      </trkpt>
      <trkpt lat="43.1128920" lon="-0.6069730">
        <ele>285.0</ele>
        <time>2020-07-28T13:14:15Z</time>
      </trkpt>
      <trkpt lat="43.1129760" lon="-0.6069660">
        <ele>284.8</ele>
        <time>2020-07-28T13:14:16Z</time>
      </trkpt>
      <trkpt lat="43.1130580" lon="-0.6069650">
        <ele>284.6</ele>
        <time>2020-07-28T13:14:17Z</time>
      </trkpt>
      <trkpt lat="43.1135080" lon="-0.6070500">
        <ele>284.6</ele>
        <time>2020-07-28T13:14:23Z</time>
      </trkpt>
      <trkpt lat="43.1137840" lon="-0.6070600">
        <ele>285.8</ele>
        <time>2020-07-28T13:14:27Z</time>
      </trkpt>
      <trkpt lat="43.1138500" lon="-0.6070490">
        <ele>286.2</ele>
        <time>2020-07-28T13:14:28Z</time>
      </trkpt>
      <trkpt lat="43.1139130" lon="-0.6070310">
        <ele>286.6</ele>
        <time>2020-07-28T13:14:29Z</time>
      </trkpt>
      <trkpt lat="43.1139720" lon="-0.6070090">
        <ele>287.0</ele>
        <time>2020-07-28T13:14:30Z</time>
      </trkpt>
      <trkpt lat="43.1140280" lon="-0.6069810">
        <ele>287.4</ele>
        <time>2020-07-28T13:14:31Z</time>
      </trkpt>
      <trkpt lat="43.1140780" lon="-0.6069540">
        <ele>287.6</ele>
        <time>2020-07-28T13:14:32Z</time>
      </trkpt>
      <trkpt lat="43.1142290" lon="-0.6068730">
        <ele>288.0</ele>
        <time>2020-07-28T13:14:35Z</time>
      </trkpt>
      <trkpt lat="43.1142740" lon="-0.6068420">
        <ele>288.2</ele>
        <time>2020-07-28T13:14:36Z</time>
      </trkpt>
      <trkpt lat="43.1144660" lon="-0.6067350">
        <ele>288.4</ele>
        <time>2020-07-28T13:14:40Z</time>
      </trkpt>
      <trkpt lat="43.1147340" lon="-0.6065610">
        <ele>288.2</ele>
        <time>2020-07-28T13:14:46Z</time>
      </trkpt>
      <trkpt lat="43.1148200" lon="-0.6065030">
        <ele>288.0</ele>
        <time>2020-07-28T13:14:48Z</time>
      </trkpt>
      <trkpt lat="43.1149170" lon="-0.6064340">
        <ele>288.4</ele>
        <time>2020-07-28T13:14:51Z</time>
      </trkpt>
      <trkpt lat="43.1149480" lon="-0.6064140">
        <ele>288.4</ele>
        <time>2020-07-28T13:14:52Z</time>
      </trkpt>
      <trkpt lat="43.1150190" lon="-0.6063540">
        <ele>288.4</ele>
        <time>2020-07-28T13:14:54Z</time>
      </trkpt>
      <trkpt lat="43.1150900" lon="-0.6062560">
        <ele>288.4</ele>
        <time>2020-07-28T13:14:56Z</time>
      </trkpt>
      <trkpt lat="43.1151600" lon="-0.6061380">
        <ele>288.4</ele>
        <time>2020-07-28T13:14:58Z</time>
      </trkpt>
      <trkpt lat="43.1152990" lon="-0.6058620">
        <ele>288.0</ele>
        <time>2020-07-28T13:15:02Z</time>
      </trkpt>
      <trkpt lat="43.1154910" lon="-0.6055890">
        <ele>288.0</ele>
        <time>2020-07-28T13:15:06Z</time>
      </trkpt>
      <trkpt lat="43.1155480" lon="-0.6055260">
        <ele>288.0</ele>
        <time>2020-07-28T13:15:07Z</time>
      </trkpt>
      <trkpt lat="43.1158810" lon="-0.6052650">
        <ele>287.8</ele>
        <time>2020-07-28T13:15:12Z</time>
      </trkpt>
      <trkpt lat="43.1160430" lon="-0.6052160">
        <ele>287.4</ele>
        <time>2020-07-28T13:15:14Z</time>
      </trkpt>
      <trkpt lat="43.1161280" lon="-0.6052110">
        <ele>287.4</ele>
        <time>2020-07-28T13:15:15Z</time>
      </trkpt>
      <trkpt lat="43.1162140" lon="-0.6052130">
        <ele>287.2</ele>
        <time>2020-07-28T13:15:16Z</time>
      </trkpt>
      <trkpt lat="43.1162980" lon="-0.6052140">
        <ele>287.2</ele>
        <time>2020-07-28T13:15:17Z</time>
      </trkpt>
      <trkpt lat="43.1163840" lon="-0.6052100">
        <ele>287.0</ele>
        <time>2020-07-28T13:15:18Z</time>
      </trkpt>
      <trkpt lat="43.1165560" lon="-0.6051760">
        <ele>286.6</ele>
        <time>2020-07-28T13:15:20Z</time>
      </trkpt>
      <trkpt lat="43.1166420" lon="-0.6051450">
        <ele>286.2</ele>
        <time>2020-07-28T13:15:21Z</time>
      </trkpt>
      <trkpt lat="43.1169640" lon="-0.6049420">
        <ele>286.0</ele>
        <time>2020-07-28T13:15:25Z</time>
      </trkpt>
      <trkpt lat="43.1170440" lon="-0.6048810">
        <ele>285.8</ele>
        <time>2020-07-28T13:15:26Z</time>
      </trkpt>
      <trkpt lat="43.1172830" lon="-0.6047010">
        <ele>285.2</ele>
        <time>2020-07-28T13:15:29Z</time>
      </trkpt>
      <trkpt lat="43.1176050" lon="-0.6044500">
        <ele>284.0</ele>
        <time>2020-07-28T13:15:33Z</time>
      </trkpt>
      <trkpt lat="43.1177670" lon="-0.6043220">
        <ele>283.4</ele>
        <time>2020-07-28T13:15:35Z</time>
      </trkpt>
      <trkpt lat="43.1179310" lon="-0.6041910">
        <ele>283.0</ele>
        <time>2020-07-28T13:15:37Z</time>
      </trkpt>
      <trkpt lat="43.1184080" lon="-0.6037710">
        <ele>282.4</ele>
        <time>2020-07-28T13:15:43Z</time>
      </trkpt>
      <trkpt lat="43.1186420" lon="-0.6035540">
        <ele>282.0</ele>
        <time>2020-07-28T13:15:46Z</time>
      </trkpt>
      <trkpt lat="43.1191080" lon="-0.6031150">
        <ele>281.0</ele>
        <time>2020-07-28T13:15:52Z</time>
      </trkpt>
      <trkpt lat="43.1192630" lon="-0.6029680">
        <ele>281.0</ele>
        <time>2020-07-28T13:15:54Z</time>
      </trkpt>
      <trkpt lat="43.1197230" lon="-0.6025750">
        <ele>281.2</ele>
        <time>2020-07-28T13:16:00Z</time>
      </trkpt>
      <trkpt lat="43.1197980" lon="-0.6025220">
        <ele>281.2</ele>
        <time>2020-07-28T13:16:01Z</time>
      </trkpt>
      <trkpt lat="43.1200310" lon="-0.6023490">
        <ele>280.2</ele>
        <time>2020-07-28T13:16:04Z</time>
      </trkpt>
      <trkpt lat="43.1201120" lon="-0.6022930">
        <ele>279.6</ele>
        <time>2020-07-28T13:16:05Z</time>
      </trkpt>
      <trkpt lat="43.1202830" lon="-0.6021870">
        <ele>278.6</ele>
        <time>2020-07-28T13:16:07Z</time>
      </trkpt>
      <trkpt lat="43.1203750" lon="-0.6021420">
        <ele>278.2</ele>
        <time>2020-07-28T13:16:08Z</time>
      </trkpt>
      <trkpt lat="43.1206650" lon="-0.6020160">
        <ele>277.2</ele>
        <time>2020-07-28T13:16:11Z</time>
      </trkpt>
      <trkpt lat="43.1208630" lon="-0.6019390">
        <ele>276.4</ele>
        <time>2020-07-28T13:16:13Z</time>
      </trkpt>
      <trkpt lat="43.1211630" lon="-0.6018250">
        <ele>276.0</ele>
        <time>2020-07-28T13:16:16Z</time>
      </trkpt>
      <trkpt lat="43.1217640" lon="-0.6016100">
        <ele>274.8</ele>
        <time>2020-07-28T13:16:22Z</time>
      </trkpt>
      <trkpt lat="43.1218620" lon="-0.6015690">
        <ele>274.4</ele>
        <time>2020-07-28T13:16:23Z</time>
      </trkpt>
      <trkpt lat="43.1220510" lon="-0.6014670">
        <ele>273.8</ele>
        <time>2020-07-28T13:16:25Z</time>
      </trkpt>
      <trkpt lat="43.1221410" lon="-0.6014020">
        <ele>273.6</ele>
        <time>2020-07-28T13:16:26Z</time>
      </trkpt>
      <trkpt lat="43.1222280" lon="-0.6013280">
        <ele>273.6</ele>
        <time>2020-07-28T13:16:27Z</time>
      </trkpt>
      <trkpt lat="43.1227150" lon="-0.6008670">
        <ele>272.8</ele>
        <time>2020-07-28T13:16:33Z</time>
      </trkpt>
      <trkpt lat="43.1228650" lon="-0.6007240">
        <ele>273.0</ele>
        <time>2020-07-28T13:16:35Z</time>
      </trkpt>
      <trkpt lat="43.1230800" lon="-0.6005280">
        <ele>273.2</ele>
        <time>2020-07-28T13:16:38Z</time>
      </trkpt>
      <trkpt lat="43.1232760" lon="-0.6003630">
        <ele>274.6</ele>
        <time>2020-07-28T13:16:41Z</time>
      </trkpt>
      <trkpt lat="43.1233370" lon="-0.6003220">
        <ele>274.8</ele>
        <time>2020-07-28T13:16:42Z</time>
      </trkpt>
      <trkpt lat="43.1236030" lon="-0.6001720">
        <ele>274.8</ele>
        <time>2020-07-28T13:16:46Z</time>
      </trkpt>
      <trkpt lat="43.1240600" lon="-0.5999560">
        <ele>275.0</ele>
        <time>2020-07-28T13:16:52Z</time>
      </trkpt>
      <trkpt lat="43.1241390" lon="-0.5999180">
        <ele>274.8</ele>
        <time>2020-07-28T13:16:53Z</time>
      </trkpt>
      <trkpt lat="43.1244490" lon="-0.5997950">
        <ele>273.6</ele>
        <time>2020-07-28T13:16:57Z</time>
      </trkpt>
      <trkpt lat="43.1246020" lon="-0.5997380">
        <ele>273.4</ele>
        <time>2020-07-28T13:16:59Z</time>
      </trkpt>
      <trkpt lat="43.1246820" lon="-0.5997040">
        <ele>273.2</ele>
        <time>2020-07-28T13:17:00Z</time>
      </trkpt>
      <trkpt lat="43.1248480" lon="-0.5996310">
        <ele>272.6</ele>
        <time>2020-07-28T13:17:02Z</time>
      </trkpt>
      <trkpt lat="43.1250280" lon="-0.5995850">
        <ele>271.8</ele>
        <time>2020-07-28T13:17:04Z</time>
      </trkpt>
      <trkpt lat="43.1251240" lon="-0.5995760">
        <ele>271.8</ele>
        <time>2020-07-28T13:17:05Z</time>
      </trkpt>
      <trkpt lat="43.1252220" lon="-0.5995730">
        <ele>271.6</ele>
        <time>2020-07-28T13:17:06Z</time>
      </trkpt>
      <trkpt lat="43.1256240" lon="-0.5995730">
        <ele>270.0</ele>
        <time>2020-07-28T13:17:10Z</time>
      </trkpt>
      <trkpt lat="43.1257250" lon="-0.5995720">
        <ele>269.4</ele>
        <time>2020-07-28T13:17:11Z</time>
      </trkpt>
      <trkpt lat="43.1258260" lon="-0.5995660">
        <ele>268.8</ele>
        <time>2020-07-28T13:17:12Z</time>
      </trkpt>
      <trkpt lat="43.1260300" lon="-0.5995440">
        <ele>268.2</ele>
        <time>2020-07-28T13:17:14Z</time>
      </trkpt>
      <trkpt lat="43.1262330" lon="-0.5994990">
        <ele>267.4</ele>
        <time>2020-07-28T13:17:16Z</time>
      </trkpt>
      <trkpt lat="43.1263320" lon="-0.5994650">
        <ele>267.0</ele>
        <time>2020-07-28T13:17:17Z</time>
      </trkpt>
      <trkpt lat="43.1265290" lon="-0.5993910">
        <ele>266.4</ele>
        <time>2020-07-28T13:17:19Z</time>
      </trkpt>
      <trkpt lat="43.1266240" lon="-0.5993540">
        <ele>266.2</ele>
        <time>2020-07-28T13:17:20Z</time>
      </trkpt>
      <trkpt lat="43.1269930" lon="-0.5991780">
        <ele>265.4</ele>
        <time>2020-07-28T13:17:24Z</time>
      </trkpt>
      <trkpt lat="43.1271760" lon="-0.5990830">
        <ele>265.2</ele>
        <time>2020-07-28T13:17:26Z</time>
      </trkpt>
      <trkpt lat="43.1275210" lon="-0.5988740">
        <ele>264.4</ele>
        <time>2020-07-28T13:17:30Z</time>
      </trkpt>
      <trkpt lat="43.1277340" lon="-0.5985950">
        <ele>264.0</ele>
        <time>2020-07-28T13:17:33Z</time>
      </trkpt>
      <trkpt lat="43.1280650" lon="-0.5980900">
        <ele>263.0</ele>
        <time>2020-07-28T13:17:38Z</time>
      </trkpt>
      <trkpt lat="43.1281380" lon="-0.5980140">
        <ele>262.8</ele>
        <time>2020-07-28T13:17:39Z</time>
      </trkpt>
      <trkpt lat="43.1282900" lon="-0.5978930">
        <ele>263.0</ele>
        <time>2020-07-28T13:17:41Z</time>
      </trkpt>
      <trkpt lat="43.1284400" lon="-0.5978040">
        <ele>264.4</ele>
        <time>2020-07-28T13:17:43Z</time>
      </trkpt>
      <trkpt lat="43.1286730" lon="-0.5976970">
        <ele>265.6</ele>
        <time>2020-07-28T13:17:46Z</time>
      </trkpt>
      <trkpt lat="43.1289970" lon="-0.5975490">
        <ele>265.6</ele>
        <time>2020-07-28T13:17:50Z</time>
      </trkpt>
      <trkpt lat="43.1294920" lon="-0.5973180">
        <ele>265.2</ele>
        <time>2020-07-28T13:17:56Z</time>
      </trkpt>
      <trkpt lat="43.1296640" lon="-0.5972400">
        <ele>265.0</ele>
        <time>2020-07-28T13:17:58Z</time>
      </trkpt>
      <trkpt lat="43.1298330" lon="-0.5971600">
        <ele>264.4</ele>
        <time>2020-07-28T13:18:00Z</time>
      </trkpt>
      <trkpt lat="43.1301750" lon="-0.5969970">
        <ele>263.2</ele>
        <time>2020-07-28T13:18:04Z</time>
      </trkpt>
      <trkpt lat="43.1302640" lon="-0.5969570">
        <ele>262.8</ele>
        <time>2020-07-28T13:18:05Z</time>
      </trkpt>
      <trkpt lat="43.1304450" lon="-0.5968780">
        <ele>262.0</ele>
        <time>2020-07-28T13:18:07Z</time>
      </trkpt>
      <trkpt lat="43.1309740" lon="-0.5966340">
        <ele>261.2</ele>
        <time>2020-07-28T13:18:13Z</time>
      </trkpt>
      <trkpt lat="43.1310590" lon="-0.5965970">
        <ele>261.0</ele>
        <time>2020-07-28T13:18:14Z</time>
      </trkpt>
      <trkpt lat="43.1311440" lon="-0.5965590">
        <ele>260.8</ele>
        <time>2020-07-28T13:18:15Z</time>
      </trkpt>
      <trkpt lat="43.1313090" lon="-0.5964850">
        <ele>260.6</ele>
        <time>2020-07-28T13:18:17Z</time>
      </trkpt>
      <trkpt lat="43.1317920" lon="-0.5962660">
        <ele>260.6</ele>
        <time>2020-07-28T13:18:23Z</time>
      </trkpt>
      <trkpt lat="43.1318730" lon="-0.5962310">
        <ele>260.6</ele>
        <time>2020-07-28T13:18:24Z</time>
      </trkpt>
      <trkpt lat="43.1323750" lon="-0.5960610">
        <ele>260.2</ele>
        <time>2020-07-28T13:18:30Z</time>
      </trkpt>
      <trkpt lat="43.1324630" lon="-0.5960360">
        <ele>260.2</ele>
        <time>2020-07-28T13:18:31Z</time>
      </trkpt>
      <trkpt lat="43.1327290" lon="-0.5959630">
        <ele>260.0</ele>
        <time>2020-07-28T13:18:34Z</time>
      </trkpt>
      <trkpt lat="43.1328220" lon="-0.5959400">
        <ele>259.8</ele>
        <time>2020-07-28T13:18:35Z</time>
      </trkpt>
      <trkpt lat="43.1331160" lon="-0.5958620">
        <ele>258.8</ele>
        <time>2020-07-28T13:18:38Z</time>
      </trkpt>
      <trkpt lat="43.1334290" lon="-0.5957850">
        <ele>257.6</ele>
        <time>2020-07-28T13:18:41Z</time>
      </trkpt>
      <trkpt lat="43.1336300" lon="-0.5957320">
        <ele>256.8</ele>
        <time>2020-07-28T13:18:43Z</time>
      </trkpt>
      <trkpt lat="43.1338200" lon="-0.5956860">
        <ele>256.6</ele>
        <time>2020-07-28T13:18:45Z</time>
      </trkpt>
      <trkpt lat="43.1339940" lon="-0.5956440">
        <ele>256.6</ele>
        <time>2020-07-28T13:18:47Z</time>
      </trkpt>
      <trkpt lat="43.1342290" lon="-0.5955840">
        <ele>256.8</ele>
        <time>2020-07-28T13:18:50Z</time>
      </trkpt>
      <trkpt lat="43.1346380" lon="-0.5954780">
        <ele>256.8</ele>
        <time>2020-07-28T13:18:56Z</time>
      </trkpt>
      <trkpt lat="43.1349360" lon="-0.5953920">
        <ele>256.6</ele>
        <time>2020-07-28T13:19:01Z</time>
      </trkpt>
      <trkpt lat="43.1350420" lon="-0.5953360">
        <ele>257.0</ele>
        <time>2020-07-28T13:19:03Z</time>
      </trkpt>
      <trkpt lat="43.1351410" lon="-0.5952690">
        <ele>257.2</ele>
        <time>2020-07-28T13:19:05Z</time>
      </trkpt>
      <trkpt lat="43.1352260" lon="-0.5951870">
        <ele>257.6</ele>
        <time>2020-07-28T13:19:07Z</time>
      </trkpt>
      <trkpt lat="43.1352660" lon="-0.5951460">
        <ele>257.8</ele>
        <time>2020-07-28T13:19:08Z</time>
      </trkpt>
      <trkpt lat="43.1353760" lon="-0.5950230">
        <ele>257.8</ele>
        <time>2020-07-28T13:19:11Z</time>
      </trkpt>
      <trkpt lat="43.1354640" lon="-0.5949670">
        <ele>257.8</ele>
        <time>2020-07-28T13:19:13Z</time>
      </trkpt>
      <trkpt lat="43.1357710" lon="-0.5948460">
        <ele>257.4</ele>
        <time>2020-07-28T13:19:18Z</time>
      </trkpt>
      <trkpt lat="43.1359920" lon="-0.5947660">
        <ele>258.2</ele>
        <time>2020-07-28T13:19:21Z</time>
      </trkpt>
      <trkpt lat="43.1362180" lon="-0.5946740">
        <ele>258.0</ele>
        <time>2020-07-28T13:19:24Z</time>
      </trkpt>
      <trkpt lat="43.1366680" lon="-0.5944760">
        <ele>257.6</ele>
        <time>2020-07-28T13:19:30Z</time>
      </trkpt>
      <trkpt lat="43.1368170" lon="-0.5943970">
        <ele>257.4</ele>
        <time>2020-07-28T13:19:32Z</time>
      </trkpt>
      <trkpt lat="43.1372780" lon="-0.5941530">
        <ele>257.4</ele>
        <time>2020-07-28T13:19:38Z</time>
      </trkpt>
      <trkpt lat="43.1376570" lon="-0.5939380">
        <ele>257.0</ele>
        <time>2020-07-28T13:19:43Z</time>
      </trkpt>
      <trkpt lat="43.1379430" lon="-0.5937440">
        <ele>256.6</ele>
        <time>2020-07-28T13:19:47Z</time>
      </trkpt>
      <trkpt lat="43.1381560" lon="-0.5935990">
        <ele>256.2</ele>
        <time>2020-07-28T13:19:50Z</time>
      </trkpt>
      <trkpt lat="43.1385940" lon="-0.5933070">
        <ele>255.6</ele>
        <time>2020-07-28T13:19:56Z</time>
      </trkpt>
      <trkpt lat="43.1387360" lon="-0.5932070">
        <ele>255.6</ele>
        <time>2020-07-28T13:19:58Z</time>
      </trkpt>
      <trkpt lat="43.1389610" lon="-0.5930510">
        <ele>255.2</ele>
        <time>2020-07-28T13:20:01Z</time>
      </trkpt>
      <trkpt lat="43.1393450" lon="-0.5928060">
        <ele>254.6</ele>
        <time>2020-07-28T13:20:06Z</time>
      </trkpt>
      <trkpt lat="43.1394210" lon="-0.5927580">
        <ele>254.4</ele>
        <time>2020-07-28T13:20:07Z</time>
      </trkpt>
      <trkpt lat="43.1398250" lon="-0.5924240">
        <ele>254.2</ele>
        <time>2020-07-28T13:20:13Z</time>
      </trkpt>
      <trkpt lat="43.1402490" lon="-0.5921660">
        <ele>254.4</ele>
        <time>2020-07-28T13:20:19Z</time>
      </trkpt>
      <trkpt lat="43.1403220" lon="-0.5921420">
        <ele>254.6</ele>
        <time>2020-07-28T13:20:20Z</time>
      </trkpt>
      <trkpt lat="43.1406350" lon="-0.5921150">
        <ele>254.8</ele>
        <time>2020-07-28T13:20:24Z</time>
      </trkpt>
      <trkpt lat="43.1410890" lon="-0.5919960">
        <ele>254.8</ele>
        <time>2020-07-28T13:20:30Z</time>
      </trkpt>
      <trkpt lat="43.1415570" lon="-0.5918830">
        <ele>253.6</ele>
        <time>2020-07-28T13:20:36Z</time>
      </trkpt>
      <trkpt lat="43.1416380" lon="-0.5918680">
        <ele>253.6</ele>
        <time>2020-07-28T13:20:37Z</time>
      </trkpt>
      <trkpt lat="43.1419630" lon="-0.5917970">
        <ele>252.8</ele>
        <time>2020-07-28T13:20:41Z</time>
      </trkpt>
      <trkpt lat="43.1420480" lon="-0.5917770">
        <ele>252.2</ele>
        <time>2020-07-28T13:20:42Z</time>
      </trkpt>
      <trkpt lat="43.1423840" lon="-0.5916830">
        <ele>251.2</ele>
        <time>2020-07-28T13:20:46Z</time>
      </trkpt>
      <trkpt lat="43.1425380" lon="-0.5915930">
        <ele>251.0</ele>
        <time>2020-07-28T13:20:48Z</time>
      </trkpt>
      <trkpt lat="43.1428800" lon="-0.5912660">
        <ele>250.6</ele>
        <time>2020-07-28T13:20:53Z</time>
      </trkpt>
      <trkpt lat="43.1431050" lon="-0.5910990">
        <ele>250.2</ele>
        <time>2020-07-28T13:20:56Z</time>
      </trkpt>
      <trkpt lat="43.1431880" lon="-0.5910590">
        <ele>250.0</ele>
        <time>2020-07-28T13:20:57Z</time>
      </trkpt>
      <trkpt lat="43.1434470" lon="-0.5909580">
        <ele>249.0</ele>
        <time>2020-07-28T13:21:00Z</time>
      </trkpt>
      <trkpt lat="43.1437160" lon="-0.5908720">
        <ele>247.6</ele>
        <time>2020-07-28T13:21:03Z</time>
      </trkpt>
      <trkpt lat="43.1438920" lon="-0.5908200">
        <ele>246.4</ele>
        <time>2020-07-28T13:21:05Z</time>
      </trkpt>
      <trkpt lat="43.1443270" lon="-0.5906700">
        <ele>245.2</ele>
        <time>2020-07-28T13:21:10Z</time>
      </trkpt>
      <trkpt lat="43.1448080" lon="-0.5904450">
        <ele>245.0</ele>
        <time>2020-07-28T13:21:16Z</time>
      </trkpt>
      <trkpt lat="43.1448880" lon="-0.5904010">
        <ele>244.8</ele>
        <time>2020-07-28T13:21:17Z</time>
      </trkpt>
      <trkpt lat="43.1451320" lon="-0.5902510">
        <ele>244.2</ele>
        <time>2020-07-28T13:21:20Z</time>
      </trkpt>
      <trkpt lat="43.1455430" lon="-0.5900020">
        <ele>243.2</ele>
        <time>2020-07-28T13:21:25Z</time>
      </trkpt>
      <trkpt lat="43.1457030" lon="-0.5898940">
        <ele>243.0</ele>
        <time>2020-07-28T13:21:27Z</time>
      </trkpt>
      <trkpt lat="43.1460960" lon="-0.5895720">
        <ele>241.8</ele>
        <time>2020-07-28T13:21:32Z</time>
      </trkpt>
      <trkpt lat="43.1464960" lon="-0.5892430">
        <ele>240.8</ele>
        <time>2020-07-28T13:21:37Z</time>
      </trkpt>
      <trkpt lat="43.1467250" lon="-0.5890440">
        <ele>240.6</ele>
        <time>2020-07-28T13:21:40Z</time>
      </trkpt>
      <trkpt lat="43.1468760" lon="-0.5889070">
        <ele>240.6</ele>
        <time>2020-07-28T13:21:42Z</time>
      </trkpt>
      <trkpt lat="43.1469510" lon="-0.5888360">
        <ele>240.6</ele>
        <time>2020-07-28T13:21:43Z</time>
      </trkpt>
      <trkpt lat="43.1473000" lon="-0.5884830">
        <ele>240.2</ele>
        <time>2020-07-28T13:21:48Z</time>
      </trkpt>
      <trkpt lat="43.1477340" lon="-0.5880970">
        <ele>240.2</ele>
        <time>2020-07-28T13:21:54Z</time>
      </trkpt>
      <trkpt lat="43.1478140" lon="-0.5880450">
        <ele>240.2</ele>
        <time>2020-07-28T13:21:55Z</time>
      </trkpt>
      <trkpt lat="43.1478960" lon="-0.5880000">
        <ele>240.0</ele>
        <time>2020-07-28T13:21:56Z</time>
      </trkpt>
      <trkpt lat="43.1482320" lon="-0.5878780">
        <ele>240.0</ele>
        <time>2020-07-28T13:22:00Z</time>
      </trkpt>
      <trkpt lat="43.1486950" lon="-0.5877250">
        <ele>240.8</ele>
        <time>2020-07-28T13:22:06Z</time>
      </trkpt>
      <trkpt lat="43.1488310" lon="-0.5876700">
        <ele>241.4</ele>
        <time>2020-07-28T13:22:08Z</time>
      </trkpt>
      <trkpt lat="43.1489630" lon="-0.5876150">
        <ele>242.0</ele>
        <time>2020-07-28T13:22:10Z</time>
      </trkpt>
      <trkpt lat="43.1491880" lon="-0.5875010">
        <ele>243.2</ele>
        <time>2020-07-28T13:22:14Z</time>
      </trkpt>
      <trkpt lat="43.1492390" lon="-0.5874740">
        <ele>243.6</ele>
        <time>2020-07-28T13:22:15Z</time>
      </trkpt>
      <trkpt lat="43.1493370" lon="-0.5874220">
        <ele>244.6</ele>
        <time>2020-07-28T13:22:17Z</time>
      </trkpt>
      <trkpt lat="43.1495720" lon="-0.5872800">
        <ele>245.8</ele>
        <time>2020-07-28T13:22:22Z</time>
      </trkpt>
      <trkpt lat="43.1496170" lon="-0.5872540">
        <ele>246.0</ele>
        <time>2020-07-28T13:22:23Z</time>
      </trkpt>
      <trkpt lat="43.1497410" lon="-0.5871780">
        <ele>247.0</ele>
        <time>2020-07-28T13:22:26Z</time>
      </trkpt>
      <trkpt lat="43.1498570" lon="-0.5870920">
        <ele>248.0</ele>
        <time>2020-07-28T13:22:29Z</time>
      </trkpt>
      <trkpt lat="43.1498960" lon="-0.5870640">
        <ele>248.2</ele>
        <time>2020-07-28T13:22:30Z</time>
      </trkpt>
      <trkpt lat="43.1499340" lon="-0.5870390">
        <ele>248.4</ele>
        <time>2020-07-28T13:22:31Z</time>
      </trkpt>
      <trkpt lat="43.1500500" lon="-0.5869640">
        <ele>249.0</ele>
        <time>2020-07-28T13:22:34Z</time>
      </trkpt>
      <trkpt lat="43.1501590" lon="-0.5868850">
        <ele>249.8</ele>
        <time>2020-07-28T13:22:37Z</time>
      </trkpt>
      <trkpt lat="43.1501970" lon="-0.5868630">
        <ele>250.2</ele>
        <time>2020-07-28T13:22:38Z</time>
      </trkpt>
      <trkpt lat="43.1504280" lon="-0.5867310">
        <ele>251.2</ele>
        <time>2020-07-28T13:22:44Z</time>
      </trkpt>
      <trkpt lat="43.1505040" lon="-0.5866850">
        <ele>251.8</ele>
        <time>2020-07-28T13:22:46Z</time>
      </trkpt>
      <trkpt lat="43.1505810" lon="-0.5866470">
        <ele>252.4</ele>
        <time>2020-07-28T13:22:48Z</time>
      </trkpt>
      <trkpt lat="43.1507360" lon="-0.5865690">
        <ele>253.0</ele>
        <time>2020-07-28T13:22:52Z</time>
      </trkpt>
      <trkpt lat="43.1508190" lon="-0.5865380">
        <ele>253.4</ele>
        <time>2020-07-28T13:22:54Z</time>
      </trkpt>
      <trkpt lat="43.1508610" lon="-0.5865210">
        <ele>253.4</ele>
        <time>2020-07-28T13:22:55Z</time>
      </trkpt>
      <trkpt lat="43.1511540" lon="-0.5864480">
        <ele>254.4</ele>
        <time>2020-07-28T13:23:01Z</time>
      </trkpt>
      <trkpt lat="43.1512130" lon="-0.5864420">
        <ele>254.4</ele>
        <time>2020-07-28T13:23:02Z</time>
      </trkpt>
      <trkpt lat="43.1512730" lon="-0.5864360">
        <ele>254.4</ele>
        <time>2020-07-28T13:23:03Z</time>
      </trkpt>
      <trkpt lat="43.1513330" lon="-0.5864360">
        <ele>254.4</ele>
        <time>2020-07-28T13:23:04Z</time>
      </trkpt>
      <trkpt lat="43.1515890" lon="-0.5864490">
        <ele>254.4</ele>
        <time>2020-07-28T13:23:08Z</time>
      </trkpt>
      <trkpt lat="43.1519520" lon="-0.5865010">
        <ele>254.4</ele>
        <time>2020-07-28T13:23:14Z</time>
      </trkpt>
      <trkpt lat="43.1520150" lon="-0.5865070">
        <ele>254.4</ele>
        <time>2020-07-28T13:23:15Z</time>
      </trkpt>
      <trkpt lat="43.1524350" lon="-0.5865630">
        <ele>254.6</ele>
        <time>2020-07-28T13:23:21Z</time>
      </trkpt>
      <trkpt lat="43.1525110" lon="-0.5865700">
        <ele>254.6</ele>
        <time>2020-07-28T13:23:22Z</time>
      </trkpt>
      <trkpt lat="43.1527480" lon="-0.5865860">
        <ele>254.2</ele>
        <time>2020-07-28T13:23:25Z</time>
      </trkpt>
      <trkpt lat="43.1530840" lon="-0.5866110">
        <ele>253.6</ele>
        <time>2020-07-28T13:23:29Z</time>
      </trkpt>
      <trkpt lat="43.1531680" lon="-0.5866210">
        <ele>253.4</ele>
        <time>2020-07-28T13:23:30Z</time>
      </trkpt>
      <trkpt lat="43.1535930" lon="-0.5866490">
        <ele>252.6</ele>
        <time>2020-07-28T13:23:35Z</time>
      </trkpt>
      <trkpt lat="43.1537640" lon="-0.5866670">
        <ele>252.2</ele>
        <time>2020-07-28T13:23:37Z</time>
      </trkpt>
      <trkpt lat="43.1542910" lon="-0.5867260">
        <ele>251.8</ele>
        <time>2020-07-28T13:23:43Z</time>
      </trkpt>
      <trkpt lat="43.1543780" lon="-0.5867340">
        <ele>251.8</ele>
        <time>2020-07-28T13:23:44Z</time>
      </trkpt>
      <trkpt lat="43.1546430" lon="-0.5867670">
        <ele>251.4</ele>
        <time>2020-07-28T13:23:47Z</time>
      </trkpt>
      <trkpt lat="43.1548940" lon="-0.5867980">
        <ele>251.2</ele>
        <time>2020-07-28T13:23:50Z</time>
      </trkpt>
      <trkpt lat="43.1550570" lon="-0.5868260">
        <ele>251.2</ele>
        <time>2020-07-28T13:23:52Z</time>
      </trkpt>
      <trkpt lat="43.1553800" lon="-0.5868510">
        <ele>251.4</ele>
        <time>2020-07-28T13:23:56Z</time>
      </trkpt>
      <trkpt lat="43.1554530" lon="-0.5868690">
        <ele>251.4</ele>
        <time>2020-07-28T13:23:57Z</time>
      </trkpt>
      <trkpt lat="43.1555290" lon="-0.5868970">
        <ele>251.4</ele>
        <time>2020-07-28T13:23:58Z</time>
      </trkpt>
      <trkpt lat="43.1559940" lon="-0.5869670">
        <ele>251.6</ele>
        <time>2020-07-28T13:24:04Z</time>
      </trkpt>
      <trkpt lat="43.1561460" lon="-0.5870120">
        <ele>251.8</ele>
        <time>2020-07-28T13:24:06Z</time>
      </trkpt>
      <trkpt lat="43.1566050" lon="-0.5873400">
        <ele>250.2</ele>
        <time>2020-07-28T13:24:12Z</time>
      </trkpt>
      <trkpt lat="43.1567780" lon="-0.5874190">
        <ele>249.0</ele>
        <time>2020-07-28T13:24:14Z</time>
      </trkpt>
      <trkpt lat="43.1569670" lon="-0.5874590">
        <ele>247.4</ele>
        <time>2020-07-28T13:24:16Z</time>
      </trkpt>
      <trkpt lat="43.1570640" lon="-0.5874680">
        <ele>246.6</ele>
        <time>2020-07-28T13:24:17Z</time>
      </trkpt>
      <trkpt lat="43.1571620" lon="-0.5874790">
        <ele>245.8</ele>
        <time>2020-07-28T13:24:18Z</time>
      </trkpt>
      <trkpt lat="43.1573660" lon="-0.5875030">
        <ele>244.6</ele>
        <time>2020-07-28T13:24:20Z</time>
      </trkpt>
      <trkpt lat="43.1575710" lon="-0.5875290">
        <ele>243.6</ele>
        <time>2020-07-28T13:24:22Z</time>
      </trkpt>
      <trkpt lat="43.1578680" lon="-0.5875800">
        <ele>242.4</ele>
        <time>2020-07-28T13:24:25Z</time>
      </trkpt>
      <trkpt lat="43.1581570" lon="-0.5876690">
        <ele>241.2</ele>
        <time>2020-07-28T13:24:28Z</time>
      </trkpt>
      <trkpt lat="43.1583470" lon="-0.5877300">
        <ele>240.6</ele>
        <time>2020-07-28T13:24:30Z</time>
      </trkpt>
      <trkpt lat="43.1585310" lon="-0.5877910">
        <ele>240.0</ele>
        <time>2020-07-28T13:24:32Z</time>
      </trkpt>
      <trkpt lat="43.1587800" lon="-0.5879120">
        <ele>239.6</ele>
        <time>2020-07-28T13:24:35Z</time>
      </trkpt>
      <trkpt lat="43.1590100" lon="-0.5880550">
        <ele>239.6</ele>
        <time>2020-07-28T13:24:38Z</time>
      </trkpt>
      <trkpt lat="43.1592270" lon="-0.5882160">
        <ele>240.0</ele>
        <time>2020-07-28T13:24:41Z</time>
      </trkpt>
      <trkpt lat="43.1594440" lon="-0.5883950">
        <ele>240.0</ele>
        <time>2020-07-28T13:24:44Z</time>
      </trkpt>
      <trkpt lat="43.1597970" lon="-0.5887290">
        <ele>240.2</ele>
        <time>2020-07-28T13:24:49Z</time>
      </trkpt>
      <trkpt lat="43.1601620" lon="-0.5890830">
        <ele>239.4</ele>
        <time>2020-07-28T13:24:54Z</time>
      </trkpt>
      <trkpt lat="43.1603060" lon="-0.5892220">
        <ele>239.2</ele>
        <time>2020-07-28T13:24:56Z</time>
      </trkpt>
      <trkpt lat="43.1604500" lon="-0.5893610">
        <ele>239.0</ele>
        <time>2020-07-28T13:24:58Z</time>
      </trkpt>
      <trkpt lat="43.1608830" lon="-0.5897990">
        <ele>237.8</ele>
        <time>2020-07-28T13:25:04Z</time>
      </trkpt>
      <trkpt lat="43.1611920" lon="-0.5900970">
        <ele>236.4</ele>
        <time>2020-07-28T13:25:08Z</time>
      </trkpt>
      <trkpt lat="43.1614420" lon="-0.5902820">
        <ele>235.0</ele>
        <time>2020-07-28T13:25:11Z</time>
      </trkpt>
      <trkpt lat="43.1615270" lon="-0.5903360">
        <ele>234.6</ele>
        <time>2020-07-28T13:25:12Z</time>
      </trkpt>
      <trkpt lat="43.1616970" lon="-0.5904420">
        <ele>233.8</ele>
        <time>2020-07-28T13:25:14Z</time>
      </trkpt>
      <trkpt lat="43.1620500" lon="-0.5906290">
        <ele>233.0</ele>
        <time>2020-07-28T13:25:18Z</time>
      </trkpt>
      <trkpt lat="43.1622390" lon="-0.5906920">
        <ele>232.6</ele>
        <time>2020-07-28T13:25:20Z</time>
      </trkpt>
      <trkpt lat="43.1626190" lon="-0.5907800">
        <ele>231.4</ele>
        <time>2020-07-28T13:25:24Z</time>
      </trkpt>
      <trkpt lat="43.1628190" lon="-0.5907930">
        <ele>230.6</ele>
        <time>2020-07-28T13:25:26Z</time>
      </trkpt>
      <trkpt lat="43.1629200" lon="-0.5907920">
        <ele>230.2</ele>
        <time>2020-07-28T13:25:27Z</time>
      </trkpt>
      <trkpt lat="43.1633100" lon="-0.5907960">
        <ele>229.2</ele>
        <time>2020-07-28T13:25:31Z</time>
      </trkpt>
      <trkpt lat="43.1634040" lon="-0.5907800">
        <ele>229.0</ele>
        <time>2020-07-28T13:25:32Z</time>
      </trkpt>
      <trkpt lat="43.1638380" lon="-0.5907020">
        <ele>228.2</ele>
        <time>2020-07-28T13:25:37Z</time>
      </trkpt>
      <trkpt lat="43.1639240" lon="-0.5907050">
        <ele>228.0</ele>
        <time>2020-07-28T13:25:38Z</time>
      </trkpt>
      <trkpt lat="43.1642710" lon="-0.5907800">
        <ele>227.2</ele>
        <time>2020-07-28T13:25:42Z</time>
      </trkpt>
      <trkpt lat="43.1643550" lon="-0.5908140">
        <ele>227.2</ele>
        <time>2020-07-28T13:25:43Z</time>
      </trkpt>
      <trkpt lat="43.1645230" lon="-0.5908840">
        <ele>227.2</ele>
        <time>2020-07-28T13:25:45Z</time>
      </trkpt>
      <trkpt lat="43.1649220" lon="-0.5910810">
        <ele>227.0</ele>
        <time>2020-07-28T13:25:50Z</time>
      </trkpt>
      <trkpt lat="43.1649980" lon="-0.5911230">
        <ele>227.0</ele>
        <time>2020-07-28T13:25:51Z</time>
      </trkpt>
      <trkpt lat="43.1653840" lon="-0.5912700">
        <ele>227.0</ele>
        <time>2020-07-28T13:25:56Z</time>
      </trkpt>
      <trkpt lat="43.1654630" lon="-0.5912880">
        <ele>227.0</ele>
        <time>2020-07-28T13:25:57Z</time>
      </trkpt>
      <trkpt lat="43.1656980" lon="-0.5913250">
        <ele>227.0</ele>
        <time>2020-07-28T13:26:00Z</time>
      </trkpt>
      <trkpt lat="43.1660090" lon="-0.5913660">
        <ele>227.4</ele>
        <time>2020-07-28T13:26:04Z</time>
      </trkpt>
      <trkpt lat="43.1660880" lon="-0.5913840">
        <ele>227.4</ele>
        <time>2020-07-28T13:26:05Z</time>
      </trkpt>
      <trkpt lat="43.1665740" lon="-0.5914850">
        <ele>227.0</ele>
        <time>2020-07-28T13:26:11Z</time>
      </trkpt>
      <trkpt lat="43.1667340" lon="-0.5915320">
        <ele>226.6</ele>
        <time>2020-07-28T13:26:13Z</time>
      </trkpt>
      <trkpt lat="43.1671160" lon="-0.5917550">
        <ele>226.8</ele>
        <time>2020-07-28T13:26:18Z</time>
      </trkpt>
      <trkpt lat="43.1674740" lon="-0.5921570">
        <ele>227.2</ele>
        <time>2020-07-28T13:26:23Z</time>
      </trkpt>
      <trkpt lat="43.1679010" lon="-0.5926990">
        <ele>226.4</ele>
        <time>2020-07-28T13:26:29Z</time>
      </trkpt>
      <trkpt lat="43.1681140" lon="-0.5929790">
        <ele>226.2</ele>
        <time>2020-07-28T13:26:32Z</time>
      </trkpt>
      <trkpt lat="43.1682520" lon="-0.5931700">
        <ele>225.8</ele>
        <time>2020-07-28T13:26:34Z</time>
      </trkpt>
      <trkpt lat="43.1686300" lon="-0.5936090">
        <ele>225.4</ele>
        <time>2020-07-28T13:26:39Z</time>
      </trkpt>
      <trkpt lat="43.1690190" lon="-0.5940310">
        <ele>224.8</ele>
        <time>2020-07-28T13:26:44Z</time>
      </trkpt>
      <trkpt lat="43.1692520" lon="-0.5942830">
        <ele>224.6</ele>
        <time>2020-07-28T13:26:47Z</time>
      </trkpt>
      <trkpt lat="43.1697200" lon="-0.5947760">
        <ele>224.6</ele>
        <time>2020-07-28T13:26:53Z</time>
      </trkpt>
      <trkpt lat="43.1698870" lon="-0.5949130">
        <ele>224.4</ele>
        <time>2020-07-28T13:26:55Z</time>
      </trkpt>
      <trkpt lat="43.1703380" lon="-0.5951490">
        <ele>224.6</ele>
        <time>2020-07-28T13:27:00Z</time>
      </trkpt>
      <trkpt lat="43.1708940" lon="-0.5953490">
        <ele>224.4</ele>
        <time>2020-07-28T13:27:06Z</time>
      </trkpt>
      <trkpt lat="43.1710680" lon="-0.5954290">
        <ele>224.2</ele>
        <time>2020-07-28T13:27:08Z</time>
      </trkpt>
      <trkpt lat="43.1714500" lon="-0.5957360">
        <ele>224.4</ele>
        <time>2020-07-28T13:27:13Z</time>
      </trkpt>
      <trkpt lat="43.1718570" lon="-0.5961650">
        <ele>224.8</ele>
        <time>2020-07-28T13:27:19Z</time>
      </trkpt>
      <trkpt lat="43.1719260" lon="-0.5962180">
        <ele>225.0</ele>
        <time>2020-07-28T13:27:20Z</time>
      </trkpt>
      <trkpt lat="43.1721220" lon="-0.5963460">
        <ele>226.0</ele>
        <time>2020-07-28T13:27:23Z</time>
      </trkpt>
      <trkpt lat="43.1722420" lon="-0.5964210">
        <ele>227.2</ele>
        <time>2020-07-28T13:27:25Z</time>
      </trkpt>
      <trkpt lat="43.1724030" lon="-0.5965440">
        <ele>228.6</ele>
        <time>2020-07-28T13:27:28Z</time>
      </trkpt>
      <trkpt lat="43.1725580" lon="-0.5966410">
        <ele>229.8</ele>
        <time>2020-07-28T13:27:31Z</time>
      </trkpt>
      <trkpt lat="43.1726080" lon="-0.5966690">
        <ele>230.2</ele>
        <time>2020-07-28T13:27:32Z</time>
      </trkpt>
      <trkpt lat="43.1728170" lon="-0.5967860">
        <ele>231.2</ele>
        <time>2020-07-28T13:27:36Z</time>
      </trkpt>
      <trkpt lat="43.1729760" lon="-0.5968600">
        <ele>232.0</ele>
        <time>2020-07-28T13:27:39Z</time>
      </trkpt>
      <trkpt lat="43.1730320" lon="-0.5968750">
        <ele>232.4</ele>
        <time>2020-07-28T13:27:40Z</time>
      </trkpt>
      <trkpt lat="43.1730890" lon="-0.5968920">
        <ele>232.6</ele>
        <time>2020-07-28T13:27:41Z</time>
      </trkpt>
      <trkpt lat="43.1732520" lon="-0.5969040">
        <ele>233.4</ele>
        <time>2020-07-28T13:27:44Z</time>
      </trkpt>
      <trkpt lat="43.1733550" lon="-0.5968950">
        <ele>234.4</ele>
        <time>2020-07-28T13:27:46Z</time>
      </trkpt>
      <trkpt lat="43.1734030" lon="-0.5968920">
        <ele>234.8</ele>
        <time>2020-07-28T13:27:47Z</time>
      </trkpt>
      <trkpt lat="43.1735540" lon="-0.5968890">
        <ele>236.0</ele>
        <time>2020-07-28T13:27:50Z</time>
      </trkpt>
      <trkpt lat="43.1737060" lon="-0.5969110">
        <ele>236.8</ele>
        <time>2020-07-28T13:27:53Z</time>
      </trkpt>
      <trkpt lat="43.1737570" lon="-0.5969230">
        <ele>237.2</ele>
        <time>2020-07-28T13:27:54Z</time>
      </trkpt>
      <trkpt lat="43.1738610" lon="-0.5969890">
        <ele>237.8</ele>
        <time>2020-07-28T13:27:56Z</time>
      </trkpt>
      <trkpt lat="43.1739750" lon="-0.5970740">
        <ele>238.0</ele>
        <time>2020-07-28T13:27:58Z</time>
      </trkpt>
      <trkpt lat="43.1743430" lon="-0.5973690">
        <ele>237.6</ele>
        <time>2020-07-28T13:28:04Z</time>
      </trkpt>
      <trkpt lat="43.1747130" lon="-0.5977360">
        <ele>237.0</ele>
        <time>2020-07-28T13:28:10Z</time>
      </trkpt>
      <trkpt lat="43.1747760" lon="-0.5977940">
        <ele>237.0</ele>
        <time>2020-07-28T13:28:11Z</time>
      </trkpt>
      <trkpt lat="43.1751500" lon="-0.5981310">
        <ele>237.2</ele>
        <time>2020-07-28T13:28:17Z</time>
      </trkpt>
      <trkpt lat="43.1752810" lon="-0.5982480">
        <ele>237.4</ele>
        <time>2020-07-28T13:28:19Z</time>
      </trkpt>
      <trkpt lat="43.1755310" lon="-0.5984840">
        <ele>237.6</ele>
        <time>2020-07-28T13:28:23Z</time>
      </trkpt>
      <trkpt lat="43.1757870" lon="-0.5986830">
        <ele>238.0</ele>
        <time>2020-07-28T13:28:27Z</time>
      </trkpt>
      <trkpt lat="43.1759080" lon="-0.5987930">
        <ele>238.4</ele>
        <time>2020-07-28T13:28:29Z</time>
      </trkpt>
      <trkpt lat="43.1762150" lon="-0.5990590">
        <ele>238.8</ele>
        <time>2020-07-28T13:28:34Z</time>
      </trkpt>
      <trkpt lat="43.1765770" lon="-0.5993680">
        <ele>238.6</ele>
        <time>2020-07-28T13:28:40Z</time>
      </trkpt>
      <trkpt lat="43.1767100" lon="-0.5994780">
        <ele>238.4</ele>
        <time>2020-07-28T13:28:42Z</time>
      </trkpt>
      <trkpt lat="43.1770110" lon="-0.5997260">
        <ele>237.0</ele>
        <time>2020-07-28T13:28:46Z</time>
      </trkpt>
      <trkpt lat="43.1770920" lon="-0.5998000">
        <ele>236.6</ele>
        <time>2020-07-28T13:28:47Z</time>
      </trkpt>
      <trkpt lat="43.1771740" lon="-0.5998780">
        <ele>236.0</ele>
        <time>2020-07-28T13:28:48Z</time>
      </trkpt>
      <trkpt lat="43.1774170" lon="-0.6001380">
        <ele>234.8</ele>
        <time>2020-07-28T13:28:51Z</time>
      </trkpt>
      <trkpt lat="43.1774920" lon="-0.6002420">
        <ele>234.4</ele>
        <time>2020-07-28T13:28:52Z</time>
      </trkpt>
      <trkpt lat="43.1775620" lon="-0.6003540">
        <ele>233.8</ele>
        <time>2020-07-28T13:28:53Z</time>
      </trkpt>
      <trkpt lat="43.1776270" lon="-0.6004770">
        <ele>233.2</ele>
        <time>2020-07-28T13:28:54Z</time>
      </trkpt>
      <trkpt lat="43.1777440" lon="-0.6007420">
        <ele>231.8</ele>
        <time>2020-07-28T13:28:56Z</time>
      </trkpt>
      <trkpt lat="43.1778580" lon="-0.6010240">
        <ele>230.4</ele>
        <time>2020-07-28T13:28:58Z</time>
      </trkpt>
      <trkpt lat="43.1779720" lon="-0.6013150">
        <ele>228.6</ele>
        <time>2020-07-28T13:29:00Z</time>
      </trkpt>
      <trkpt lat="43.1780910" lon="-0.6016090">
        <ele>227.4</ele>
        <time>2020-07-28T13:29:02Z</time>
      </trkpt>
      <trkpt lat="43.1782260" lon="-0.6018880">
        <ele>226.2</ele>
        <time>2020-07-28T13:29:04Z</time>
      </trkpt>
      <trkpt lat="43.1783720" lon="-0.6021420">
        <ele>224.0</ele>
        <time>2020-07-28T13:29:06Z</time>
      </trkpt>
      <trkpt lat="43.1784360" lon="-0.6022740">
        <ele>223.0</ele>
        <time>2020-07-28T13:29:07Z</time>
      </trkpt>
      <trkpt lat="43.1784890" lon="-0.6024140">
        <ele>222.2</ele>
        <time>2020-07-28T13:29:08Z</time>
      </trkpt>
      <trkpt lat="43.1785350" lon="-0.6025580">
        <ele>221.4</ele>
        <time>2020-07-28T13:29:09Z</time>
      </trkpt>
      <trkpt lat="43.1785720" lon="-0.6027120">
        <ele>221.0</ele>
        <time>2020-07-28T13:29:10Z</time>
      </trkpt>
      <trkpt lat="43.1786190" lon="-0.6030290">
        <ele>220.0</ele>
        <time>2020-07-28T13:29:12Z</time>
      </trkpt>
      <trkpt lat="43.1786340" lon="-0.6033460">
        <ele>218.8</ele>
        <time>2020-07-28T13:29:14Z</time>
      </trkpt>
      <trkpt lat="43.1785960" lon="-0.6036500">
        <ele>217.4</ele>
        <time>2020-07-28T13:29:16Z</time>
      </trkpt>
      <trkpt lat="43.1785590" lon="-0.6037880">
        <ele>216.8</ele>
        <time>2020-07-28T13:29:17Z</time>
      </trkpt>
      <trkpt lat="43.1785120" lon="-0.6039200">
        <ele>216.4</ele>
        <time>2020-07-28T13:29:18Z</time>
      </trkpt>
      <trkpt lat="43.1783150" lon="-0.6044010">
        <ele>216.0</ele>
        <time>2020-07-28T13:29:22Z</time>
      </trkpt>
      <trkpt lat="43.1781070" lon="-0.6049340">
        <ele>216.2</ele>
        <time>2020-07-28T13:29:27Z</time>
      </trkpt>
      <trkpt lat="43.1780260" lon="-0.6051360">
        <ele>216.2</ele>
        <time>2020-07-28T13:29:29Z</time>
      </trkpt>
      <trkpt lat="43.1779630" lon="-0.6053440">
        <ele>216.4</ele>
        <time>2020-07-28T13:29:31Z</time>
      </trkpt>
      <trkpt lat="43.1779480" lon="-0.6055570">
        <ele>216.8</ele>
        <time>2020-07-28T13:29:33Z</time>
      </trkpt>
      <trkpt lat="43.1779840" lon="-0.6057560">
        <ele>217.2</ele>
        <time>2020-07-28T13:29:35Z</time>
      </trkpt>
      <trkpt lat="43.1780160" lon="-0.6058430">
        <ele>217.4</ele>
        <time>2020-07-28T13:29:36Z</time>
      </trkpt>
      <trkpt lat="43.1780530" lon="-0.6059160">
        <ele>217.4</ele>
        <time>2020-07-28T13:29:37Z</time>
      </trkpt>
      <trkpt lat="43.1781780" lon="-0.6060820">
        <ele>217.6</ele>
        <time>2020-07-28T13:29:40Z</time>
      </trkpt>
      <trkpt lat="43.1783570" lon="-0.6062630">
        <ele>218.4</ele>
        <time>2020-07-28T13:29:44Z</time>
      </trkpt>
      <trkpt lat="43.1784710" lon="-0.6063430">
        <ele>218.6</ele>
        <time>2020-07-28T13:29:46Z</time>
      </trkpt>
      <trkpt lat="43.1787370" lon="-0.6064310">
        <ele>218.8</ele>
        <time>2020-07-28T13:29:50Z</time>
      </trkpt>
      <trkpt lat="43.1788070" lon="-0.6064580">
        <ele>218.6</ele>
        <time>2020-07-28T13:29:51Z</time>
      </trkpt>
      <trkpt lat="43.1788760" lon="-0.6064970">
        <ele>218.4</ele>
        <time>2020-07-28T13:29:52Z</time>
      </trkpt>
      <trkpt lat="43.1790790" lon="-0.6066620">
        <ele>217.6</ele>
        <time>2020-07-28T13:29:55Z</time>
      </trkpt>
      <trkpt lat="43.1791470" lon="-0.6067190">
        <ele>217.4</ele>
        <time>2020-07-28T13:29:56Z</time>
      </trkpt>
      <trkpt lat="43.1792190" lon="-0.6067670">
        <ele>217.2</ele>
        <time>2020-07-28T13:29:57Z</time>
      </trkpt>
      <trkpt lat="43.1793760" lon="-0.6068270">
        <ele>216.6</ele>
        <time>2020-07-28T13:29:59Z</time>
      </trkpt>
      <trkpt lat="43.1794570" lon="-0.6068560">
        <ele>216.2</ele>
        <time>2020-07-28T13:30:00Z</time>
      </trkpt>
      <trkpt lat="43.1797100" lon="-0.6069620">
        <ele>215.2</ele>
        <time>2020-07-28T13:30:03Z</time>
      </trkpt>
      <trkpt lat="43.1797940" lon="-0.6070020">
        <ele>214.6</ele>
        <time>2020-07-28T13:30:04Z</time>
      </trkpt>
      <trkpt lat="43.1799640" lon="-0.6070800">
        <ele>213.8</ele>
        <time>2020-07-28T13:30:06Z</time>
      </trkpt>
      <trkpt lat="43.1803990" lon="-0.6072510">
        <ele>213.0</ele>
        <time>2020-07-28T13:30:11Z</time>
      </trkpt>
      <trkpt lat="43.1805710" lon="-0.6073090">
        <ele>212.6</ele>
        <time>2020-07-28T13:30:13Z</time>
      </trkpt>
      <trkpt lat="43.1809800" lon="-0.6074750">
        <ele>212.0</ele>
        <time>2020-07-28T13:30:18Z</time>
      </trkpt>
      <trkpt lat="43.1813050" lon="-0.6076030">
        <ele>212.4</ele>
        <time>2020-07-28T13:30:22Z</time>
      </trkpt>
      <trkpt lat="43.1816330" lon="-0.6077390">
        <ele>212.4</ele>
        <time>2020-07-28T13:30:26Z</time>
      </trkpt>
      <trkpt lat="43.1819590" lon="-0.6078750">
        <ele>212.0</ele>
        <time>2020-07-28T13:30:30Z</time>
      </trkpt>
      <trkpt lat="43.1820410" lon="-0.6079110">
        <ele>211.8</ele>
        <time>2020-07-28T13:30:31Z</time>
      </trkpt>
      <trkpt lat="43.1821260" lon="-0.6079450">
        <ele>211.6</ele>
        <time>2020-07-28T13:30:32Z</time>
      </trkpt>
      <trkpt lat="43.1822870" lon="-0.6080150">
        <ele>211.2</ele>
        <time>2020-07-28T13:30:34Z</time>
      </trkpt>
      <trkpt lat="43.1825240" lon="-0.6081060">
        <ele>210.6</ele>
        <time>2020-07-28T13:30:37Z</time>
      </trkpt>
      <trkpt lat="43.1829280" lon="-0.6082690">
        <ele>210.4</ele>
        <time>2020-07-28T13:30:42Z</time>
      </trkpt>
      <trkpt lat="43.1834040" lon="-0.6084630">
        <ele>210.2</ele>
        <time>2020-07-28T13:30:48Z</time>
      </trkpt>
      <trkpt lat="43.1835650" lon="-0.6085260">
        <ele>210.0</ele>
        <time>2020-07-28T13:30:50Z</time>
      </trkpt>
      <trkpt lat="43.1840260" lon="-0.6086990">
        <ele>209.4</ele>
        <time>2020-07-28T13:30:56Z</time>
      </trkpt>
      <trkpt lat="43.1841030" lon="-0.6087300">
        <ele>209.4</ele>
        <time>2020-07-28T13:30:57Z</time>
      </trkpt>
      <trkpt lat="43.1845570" lon="-0.6089720">
        <ele>208.4</ele>
        <time>2020-07-28T13:31:03Z</time>
      </trkpt>
      <trkpt lat="43.1846320" lon="-0.6090090">
        <ele>208.4</ele>
        <time>2020-07-28T13:31:04Z</time>
      </trkpt>
      <trkpt lat="43.1847060" lon="-0.6090410">
        <ele>208.6</ele>
        <time>2020-07-28T13:31:05Z</time>
      </trkpt>
      <trkpt lat="43.1849870" lon="-0.6091540">
        <ele>209.2</ele>
        <time>2020-07-28T13:31:09Z</time>
      </trkpt>
      <trkpt lat="43.1850560" lon="-0.6091750">
        <ele>209.4</ele>
        <time>2020-07-28T13:31:10Z</time>
      </trkpt>
      <trkpt lat="43.1853230" lon="-0.6092790">
        <ele>210.0</ele>
        <time>2020-07-28T13:31:14Z</time>
      </trkpt>
      <trkpt lat="43.1855060" lon="-0.6093620">
        <ele>210.2</ele>
        <time>2020-07-28T13:31:17Z</time>
      </trkpt>
      <trkpt lat="43.1856740" lon="-0.6094600">
        <ele>210.6</ele>
        <time>2020-07-28T13:31:20Z</time>
      </trkpt>
      <trkpt lat="43.1858970" lon="-0.6095630">
        <ele>211.4</ele>
        <time>2020-07-28T13:31:24Z</time>
      </trkpt>
      <trkpt lat="43.1860010" lon="-0.6096210">
        <ele>211.8</ele>
        <time>2020-07-28T13:31:26Z</time>
      </trkpt>
      <trkpt lat="43.1861350" lon="-0.6097130">
        <ele>211.8</ele>
        <time>2020-07-28T13:31:29Z</time>
      </trkpt>
      <trkpt lat="43.1861870" lon="-0.6097310">
        <ele>211.8</ele>
        <time>2020-07-28T13:31:30Z</time>
      </trkpt>
      <trkpt lat="43.1862960" lon="-0.6097640">
        <ele>211.8</ele>
        <time>2020-07-28T13:31:32Z</time>
      </trkpt>
      <trkpt lat="43.1863510" lon="-0.6097860">
        <ele>212.0</ele>
        <time>2020-07-28T13:31:33Z</time>
      </trkpt>
      <trkpt lat="43.1864700" lon="-0.6098270">
        <ele>212.2</ele>
        <time>2020-07-28T13:31:35Z</time>
      </trkpt>
      <trkpt lat="43.1868380" lon="-0.6099830">
        <ele>212.4</ele>
        <time>2020-07-28T13:31:41Z</time>
      </trkpt>
      <trkpt lat="43.1870090" lon="-0.6100730">
        <ele>212.0</ele>
        <time>2020-07-28T13:31:44Z</time>
      </trkpt>
      <trkpt lat="43.1871190" lon="-0.6101420">
        <ele>212.0</ele>
        <time>2020-07-28T13:31:46Z</time>
      </trkpt>
      <trkpt lat="43.1872360" lon="-0.6102130">
        <ele>211.8</ele>
        <time>2020-07-28T13:31:48Z</time>
      </trkpt>
      <trkpt lat="43.1874160" lon="-0.6103470">
        <ele>211.6</ele>
        <time>2020-07-28T13:31:51Z</time>
      </trkpt>
      <trkpt lat="43.1874760" lon="-0.6103960">
        <ele>211.6</ele>
        <time>2020-07-28T13:31:52Z</time>
      </trkpt>
      <trkpt lat="43.1878390" lon="-0.6106760">
        <ele>211.4</ele>
        <time>2020-07-28T13:31:58Z</time>
      </trkpt>
      <trkpt lat="43.1878960" lon="-0.6107220">
        <ele>211.4</ele>
        <time>2020-07-28T13:31:59Z</time>
      </trkpt>
      <trkpt lat="43.1880710" lon="-0.6108620">
        <ele>210.8</ele>
        <time>2020-07-28T13:32:02Z</time>
      </trkpt>
      <trkpt lat="43.1882970" lon="-0.6110450">
        <ele>210.4</ele>
        <time>2020-07-28T13:32:06Z</time>
      </trkpt>
      <trkpt lat="43.1884230" lon="-0.6111190">
        <ele>210.4</ele>
        <time>2020-07-28T13:32:09Z</time>
      </trkpt>
      <trkpt lat="43.1884850" lon="-0.6111500">
        <ele>210.2</ele>
        <time>2020-07-28T13:32:12Z</time>
      </trkpt>
      <trkpt lat="43.1885130" lon="-0.6111660">
        <ele>210.2</ele>
        <time>2020-07-28T13:32:13Z</time>
      </trkpt>
      <trkpt lat="43.1887160" lon="-0.6112530">
        <ele>210.6</ele>
        <time>2020-07-28T13:32:18Z</time>
      </trkpt>
      <trkpt lat="43.1890080" lon="-0.6113770">
        <ele>210.8</ele>
        <time>2020-07-28T13:32:23Z</time>
      </trkpt>
      <trkpt lat="43.1891150" lon="-0.6114470">
        <ele>211.0</ele>
        <time>2020-07-28T13:32:25Z</time>
      </trkpt>
      <trkpt lat="43.1893440" lon="-0.6115850">
        <ele>211.2</ele>
        <time>2020-07-28T13:32:29Z</time>
      </trkpt>
      <trkpt lat="43.1895860" lon="-0.6116860">
        <ele>211.6</ele>
        <time>2020-07-28T13:32:33Z</time>
      </trkpt>
      <trkpt lat="43.1896410" lon="-0.6117080">
        <ele>212.0</ele>
        <time>2020-07-28T13:32:34Z</time>
      </trkpt>
      <trkpt lat="43.1896940" lon="-0.6117330">
        <ele>212.0</ele>
        <time>2020-07-28T13:32:35Z</time>
      </trkpt>
      <trkpt lat="43.1898020" lon="-0.6117920">
        <ele>212.4</ele>
        <time>2020-07-28T13:32:37Z</time>
      </trkpt>
      <trkpt lat="43.1900050" lon="-0.6119620">
        <ele>213.0</ele>
        <time>2020-07-28T13:32:41Z</time>
      </trkpt>
      <trkpt lat="43.1901740" lon="-0.6121760">
        <ele>214.2</ele>
        <time>2020-07-28T13:32:45Z</time>
      </trkpt>
      <trkpt lat="43.1902910" lon="-0.6123530">
        <ele>214.4</ele>
        <time>2020-07-28T13:32:48Z</time>
      </trkpt>
      <trkpt lat="43.1905210" lon="-0.6126210">
        <ele>215.0</ele>
        <time>2020-07-28T13:32:53Z</time>
      </trkpt>
      <trkpt lat="43.1905710" lon="-0.6126690">
        <ele>215.0</ele>
        <time>2020-07-28T13:32:54Z</time>
      </trkpt>
      <trkpt lat="43.1906230" lon="-0.6127140">
        <ele>215.2</ele>
        <time>2020-07-28T13:32:55Z</time>
      </trkpt>
      <trkpt lat="43.1906810" lon="-0.6127540">
        <ele>215.4</ele>
        <time>2020-07-28T13:32:56Z</time>
      </trkpt>
      <trkpt lat="43.1907370" lon="-0.6127900">
        <ele>215.4</ele>
        <time>2020-07-28T13:32:57Z</time>
      </trkpt>
      <trkpt lat="43.1908540" lon="-0.6128410">
        <ele>215.6</ele>
        <time>2020-07-28T13:32:59Z</time>
      </trkpt>
      <trkpt lat="43.1909130" lon="-0.6128610">
        <ele>215.4</ele>
        <time>2020-07-28T13:33:00Z</time>
      </trkpt>
      <trkpt lat="43.1912750" lon="-0.6129690">
        <ele>215.8</ele>
        <time>2020-07-28T13:33:06Z</time>
      </trkpt>
      <trkpt lat="43.1913360" lon="-0.6129830">
        <ele>216.0</ele>
        <time>2020-07-28T13:33:07Z</time>
      </trkpt>
      <trkpt lat="43.1915100" lon="-0.6130300">
        <ele>216.4</ele>
        <time>2020-07-28T13:33:10Z</time>
      </trkpt>
      <trkpt lat="43.1916380" lon="-0.6130540">
        <ele>216.6</ele>
        <time>2020-07-28T13:33:13Z</time>
      </trkpt>
      <trkpt lat="43.1917480" lon="-0.6130100">
        <ele>216.4</ele>
        <time>2020-07-28T13:33:17Z</time>
      </trkpt>
      <trkpt lat="43.1917740" lon="-0.6128630">
        <ele>215.6</ele>
        <time>2020-07-28T13:33:21Z</time>
      </trkpt>
      <trkpt lat="43.1917850" lon="-0.6128450">
        <ele>215.6</ele>
        <time>2020-07-28T13:33:22Z</time>
      </trkpt>
      <trkpt lat="43.1918430" lon="-0.6128810">
        <ele>215.4</ele>
        <time>2020-07-28T13:33:24Z</time>
      </trkpt>
      <trkpt lat="43.1919180" lon="-0.6129570">
        <ele>215.4</ele>
        <time>2020-07-28T13:33:26Z</time>
      </trkpt>
      <trkpt lat="43.1920180" lon="-0.6130020">
        <ele>215.4</ele>
        <time>2020-07-28T13:33:28Z</time>
      </trkpt>
      <trkpt lat="43.1923070" lon="-0.6130160">
        <ele>215.4</ele>
        <time>2020-07-28T13:33:33Z</time>
      </trkpt>
      <trkpt lat="43.1923620" lon="-0.6130060">
        <ele>215.4</ele>
        <time>2020-07-28T13:33:34Z</time>
      </trkpt>
      <trkpt lat="43.1924720" lon="-0.6129650">
        <ele>215.2</ele>
        <time>2020-07-28T13:33:36Z</time>
      </trkpt>
      <trkpt lat="43.1925760" lon="-0.6129330">
        <ele>214.8</ele>
        <time>2020-07-28T13:33:38Z</time>
      </trkpt>
      <trkpt lat="43.1926740" lon="-0.6129410">
        <ele>214.8</ele>
        <time>2020-07-28T13:33:40Z</time>
      </trkpt>
      <trkpt lat="43.2127420" lon="-0.6245330">
        <ele>199.8</ele>
        <time>2020-07-29T06:51:31Z</time>
      </trkpt>
      <trkpt lat="43.2127390" lon="-0.6244770">
        <ele>198.8</ele>
        <time>2020-07-29T06:51:32Z</time>
      </trkpt>
      <trkpt lat="43.2127400" lon="-0.6242560">
        <ele>198.0</ele>
        <time>2020-07-29T06:51:36Z</time>
      </trkpt>
      <trkpt lat="43.2127460" lon="-0.6241960">
        <ele>198.0</ele>
        <time>2020-07-29T06:51:37Z</time>
      </trkpt>
      <trkpt lat="43.2127770" lon="-0.6239430">
        <ele>198.0</ele>
        <time>2020-07-29T06:51:41Z</time>
      </trkpt>
      <trkpt lat="43.2127840" lon="-0.6238160">
        <ele>198.0</ele>
        <time>2020-07-29T06:51:43Z</time>
      </trkpt>
      <trkpt lat="43.2127810" lon="-0.6237540">
        <ele>198.0</ele>
        <time>2020-07-29T06:51:44Z</time>
      </trkpt>
      <trkpt lat="43.2127560" lon="-0.6234370">
        <ele>198.4</ele>
        <time>2020-07-29T06:51:49Z</time>
      </trkpt>
      <trkpt lat="43.2127750" lon="-0.6233060">
        <ele>198.4</ele>
        <time>2020-07-29T06:51:51Z</time>
      </trkpt>
      <trkpt lat="43.2128970" lon="-0.6230040">
        <ele>198.6</ele>
        <time>2020-07-29T06:51:56Z</time>
      </trkpt>
      <trkpt lat="43.2129350" lon="-0.6229520">
        <ele>198.8</ele>
        <time>2020-07-29T06:51:57Z</time>
      </trkpt>
      <trkpt lat="43.2130440" lon="-0.6228220">
        <ele>199.2</ele>
        <time>2020-07-29T06:52:00Z</time>
      </trkpt>
      <trkpt lat="43.2130830" lon="-0.6227860">
        <ele>199.4</ele>
        <time>2020-07-29T06:52:01Z</time>
      </trkpt>
      <trkpt lat="43.2131020" lon="-0.6227420">
        <ele>199.6</ele>
        <time>2020-07-29T06:52:03Z</time>
      </trkpt>
      <trkpt lat="43.2131340" lon="-0.6227160">
        <ele>199.6</ele>
        <time>2020-07-29T06:52:04Z</time>
      </trkpt>
      <trkpt lat="43.2131640" lon="-0.6226910">
        <ele>199.8</ele>
        <time>2020-07-29T06:52:05Z</time>
      </trkpt>
      <trkpt lat="43.2131970" lon="-0.6226620">
        <ele>199.8</ele>
        <time>2020-07-29T06:52:06Z</time>
      </trkpt>
      <trkpt lat="43.2133070" lon="-0.6225670">
        <ele>200.0</ele>
        <time>2020-07-29T06:52:09Z</time>
      </trkpt>
      <trkpt lat="43.2134170" lon="-0.6224570">
        <ele>200.2</ele>
        <time>2020-07-29T06:52:12Z</time>
      </trkpt>
      <trkpt lat="43.2135540" lon="-0.6222990">
        <ele>200.6</ele>
        <time>2020-07-29T06:52:16Z</time>
      </trkpt>
      <trkpt lat="43.2135860" lon="-0.6222600">
        <ele>200.8</ele>
        <time>2020-07-29T06:52:17Z</time>
      </trkpt>
      <trkpt lat="43.2136160" lon="-0.6222190">
        <ele>200.8</ele>
        <time>2020-07-29T06:52:18Z</time>
      </trkpt>
      <trkpt lat="43.2138090" lon="-0.6220010">
        <ele>200.8</ele>
        <time>2020-07-29T06:52:24Z</time>
      </trkpt>
      <trkpt lat="43.2138420" lon="-0.6219640">
        <ele>200.8</ele>
        <time>2020-07-29T06:52:25Z</time>
      </trkpt>
      <trkpt lat="43.2139760" lon="-0.6217980">
        <ele>200.8</ele>
        <time>2020-07-29T06:52:29Z</time>
      </trkpt>
      <trkpt lat="43.2140290" lon="-0.6216970">
        <ele>200.8</ele>
        <time>2020-07-29T06:52:31Z</time>
      </trkpt>
      <trkpt lat="43.2141720" lon="-0.6213470">
        <ele>201.0</ele>
        <time>2020-07-29T06:52:37Z</time>
      </trkpt>
      <trkpt lat="43.2142050" lon="-0.6213000">
        <ele>201.0</ele>
        <time>2020-07-29T06:52:38Z</time>
      </trkpt>
      <trkpt lat="43.2142820" lon="-0.6212410">
        <ele>201.2</ele>
        <time>2020-07-29T06:52:40Z</time>
      </trkpt>
      <trkpt lat="43.2143700" lon="-0.6212260">
        <ele>201.4</ele>
        <time>2020-07-29T06:52:42Z</time>
      </trkpt>
      <trkpt lat="43.2144120" lon="-0.6212310">
        <ele>201.8</ele>
        <time>2020-07-29T06:52:43Z</time>
      </trkpt>
      <trkpt lat="43.2144540" lon="-0.6212410">
        <ele>202.2</ele>
        <time>2020-07-29T06:52:44Z</time>
      </trkpt>
      <trkpt lat="43.2145370" lon="-0.6212820">
        <ele>202.6</ele>
        <time>2020-07-29T06:52:46Z</time>
      </trkpt>
      <trkpt lat="43.2146700" lon="-0.6213510">
        <ele>202.8</ele>
        <time>2020-07-29T06:52:49Z</time>
      </trkpt>
      <trkpt lat="43.2147600" lon="-0.6214050">
        <ele>202.8</ele>
        <time>2020-07-29T06:52:51Z</time>
      </trkpt>
      <trkpt lat="43.2148520" lon="-0.6214560">
        <ele>202.8</ele>
        <time>2020-07-29T06:52:53Z</time>
      </trkpt>
      <trkpt lat="43.2148990" lon="-0.6214840">
        <ele>202.6</ele>
        <time>2020-07-29T06:52:54Z</time>
      </trkpt>
      <trkpt lat="43.2150770" lon="-0.6216300">
        <ele>202.4</ele>
        <time>2020-07-29T06:52:58Z</time>
      </trkpt>
      <trkpt lat="43.2151590" lon="-0.6217200">
        <ele>202.2</ele>
        <time>2020-07-29T06:53:00Z</time>
      </trkpt>
      <trkpt lat="43.2152080" lon="-0.6217580">
        <ele>202.2</ele>
        <time>2020-07-29T06:53:01Z</time>
      </trkpt>
      <trkpt lat="43.2153170" lon="-0.6218060">
        <ele>202.0</ele>
        <time>2020-07-29T06:53:03Z</time>
      </trkpt>
      <trkpt lat="43.2153730" lon="-0.6218130">
        <ele>202.0</ele>
        <time>2020-07-29T06:53:04Z</time>
      </trkpt>
      <trkpt lat="43.2154290" lon="-0.6218110">
        <ele>201.8</ele>
        <time>2020-07-29T06:53:05Z</time>
      </trkpt>
      <trkpt lat="43.2155700" lon="-0.6217740">
        <ele>202.2</ele>
        <time>2020-07-29T06:53:08Z</time>
      </trkpt>
      <trkpt lat="43.2157170" lon="-0.6216740">
        <ele>204.0</ele>
        <time>2020-07-29T06:53:12Z</time>
      </trkpt>
      <trkpt lat="43.2157830" lon="-0.6216250">
        <ele>204.6</ele>
        <time>2020-07-29T06:53:14Z</time>
      </trkpt>
      <trkpt lat="43.2158630" lon="-0.6215330">
        <ele>205.2</ele>
        <time>2020-07-29T06:53:17Z</time>
      </trkpt>
      <trkpt lat="43.2159140" lon="-0.6214260">
        <ele>205.8</ele>
        <time>2020-07-29T06:53:20Z</time>
      </trkpt>
      <trkpt lat="43.2159640" lon="-0.6213340">
        <ele>206.2</ele>
        <time>2020-07-29T06:53:23Z</time>
      </trkpt>
      <trkpt lat="43.2160190" lon="-0.6212940">
        <ele>206.8</ele>
        <time>2020-07-29T06:53:25Z</time>
      </trkpt>
      <trkpt lat="43.2161330" lon="-0.6211570">
        <ele>207.4</ele>
        <time>2020-07-29T06:53:29Z</time>
      </trkpt>
      <trkpt lat="43.2161580" lon="-0.6211130">
        <ele>207.4</ele>
        <time>2020-07-29T06:53:30Z</time>
      </trkpt>
      <trkpt lat="43.2162200" lon="-0.6209750">
        <ele>207.4</ele>
        <time>2020-07-29T06:53:33Z</time>
      </trkpt>
      <trkpt lat="43.2163580" lon="-0.6205780">
        <ele>207.4</ele>
        <time>2020-07-29T06:58:01Z</time>
      </trkpt>
      <trkpt lat="43.2163660" lon="-0.6205430">
        <ele>207.4</ele>
        <time>2020-07-29T06:58:02Z</time>
      </trkpt>
      <trkpt lat="43.2163840" lon="-0.6202830">
        <ele>208.0</ele>
        <time>2020-07-29T06:58:07Z</time>
      </trkpt>
      <trkpt lat="43.2163550" lon="-0.6201520">
        <ele>208.2</ele>
        <time>2020-07-29T06:58:09Z</time>
      </trkpt>
      <trkpt lat="43.2162990" lon="-0.6200310">
        <ele>208.2</ele>
        <time>2020-07-29T06:58:11Z</time>
      </trkpt>
      <trkpt lat="43.2162370" lon="-0.6199070">
        <ele>208.4</ele>
        <time>2020-07-29T06:58:13Z</time>
      </trkpt>
      <trkpt lat="43.2162070" lon="-0.6198440">
        <ele>208.4</ele>
        <time>2020-07-29T06:58:14Z</time>
      </trkpt>
      <trkpt lat="43.2161770" lon="-0.6197810">
        <ele>208.4</ele>
        <time>2020-07-29T06:58:15Z</time>
      </trkpt>
      <trkpt lat="43.2161470" lon="-0.6197170">
        <ele>208.4</ele>
        <time>2020-07-29T06:58:16Z</time>
      </trkpt>
      <trkpt lat="43.2160320" lon="-0.6194480">
        <ele>209.0</ele>
        <time>2020-07-29T06:58:20Z</time>
      </trkpt>
      <trkpt lat="43.2159740" lon="-0.6193170">
        <ele>209.0</ele>
        <time>2020-07-29T06:58:22Z</time>
      </trkpt>
      <trkpt lat="43.2158810" lon="-0.6191100">
        <ele>209.4</ele>
        <time>2020-07-29T06:58:25Z</time>
      </trkpt>
      <trkpt lat="43.2158500" lon="-0.6190400">
        <ele>209.4</ele>
        <time>2020-07-29T06:58:26Z</time>
      </trkpt>
      <trkpt lat="43.2157230" lon="-0.6187600">
        <ele>209.4</ele>
        <time>2020-07-29T06:58:30Z</time>
      </trkpt>
      <trkpt lat="43.2156620" lon="-0.6186220">
        <ele>209.4</ele>
        <time>2020-07-29T06:58:32Z</time>
      </trkpt>
      <trkpt lat="43.2154720" lon="-0.6181890">
        <ele>209.4</ele>
        <time>2020-07-29T06:58:38Z</time>
      </trkpt>
      <trkpt lat="43.2153740" lon="-0.6179760">
        <ele>209.8</ele>
        <time>2020-07-29T06:58:41Z</time>
      </trkpt>
      <trkpt lat="43.2152490" lon="-0.6176810">
        <ele>210.0</ele>
        <time>2020-07-29T06:58:45Z</time>
      </trkpt>
      <trkpt lat="43.2152190" lon="-0.6176070">
        <ele>209.8</ele>
        <time>2020-07-29T06:58:46Z</time>
      </trkpt>
      <trkpt lat="43.2151870" lon="-0.6175340">
        <ele>209.8</ele>
        <time>2020-07-29T06:58:47Z</time>
      </trkpt>
      <trkpt lat="43.2151220" lon="-0.6173870">
        <ele>210.0</ele>
        <time>2020-07-29T06:58:49Z</time>
      </trkpt>
      <trkpt lat="43.2150560" lon="-0.6172420">
        <ele>210.0</ele>
        <time>2020-07-29T06:58:51Z</time>
      </trkpt>
      <trkpt lat="43.2149260" lon="-0.6169510">
        <ele>210.4</ele>
        <time>2020-07-29T06:58:55Z</time>
      </trkpt>
      <trkpt lat="43.2147470" lon="-0.6166010">
        <ele>211.0</ele>
        <time>2020-07-29T06:59:00Z</time>
      </trkpt>
      <trkpt lat="43.2145150" lon="-0.6161930">
        <ele>211.6</ele>
        <time>2020-07-29T06:59:06Z</time>
      </trkpt>
      <trkpt lat="43.2143930" lon="-0.6159990">
        <ele>212.0</ele>
        <time>2020-07-29T06:59:09Z</time>
      </trkpt>
      <trkpt lat="43.2143520" lon="-0.6159300">
        <ele>212.2</ele>
        <time>2020-07-29T06:59:10Z</time>
      </trkpt>
      <trkpt lat="43.2141520" lon="-0.6156020">
        <ele>212.6</ele>
        <time>2020-07-29T06:59:15Z</time>
      </trkpt>
      <trkpt lat="43.2139950" lon="-0.6153380">
        <ele>212.8</ele>
        <time>2020-07-29T06:59:19Z</time>
      </trkpt>
      <trkpt lat="43.2139490" lon="-0.6152740">
        <ele>212.8</ele>
        <time>2020-07-29T06:59:20Z</time>
      </trkpt>
      <trkpt lat="43.2138530" lon="-0.6151560">
        <ele>213.2</ele>
        <time>2020-07-29T06:59:22Z</time>
      </trkpt>
      <trkpt lat="43.2138030" lon="-0.6151000">
        <ele>213.2</ele>
        <time>2020-07-29T06:59:23Z</time>
      </trkpt>
      <trkpt lat="43.2137030" lon="-0.6149870">
        <ele>213.4</ele>
        <time>2020-07-29T06:59:25Z</time>
      </trkpt>
      <trkpt lat="43.2136010" lon="-0.6148760">
        <ele>213.6</ele>
        <time>2020-07-29T06:59:27Z</time>
      </trkpt>
      <trkpt lat="43.2133510" lon="-0.6146540">
        <ele>214.0</ele>
        <time>2020-07-29T06:59:32Z</time>
      </trkpt>
      <trkpt lat="43.2130620" lon="-0.6144570">
        <ele>214.2</ele>
        <time>2020-07-29T06:59:38Z</time>
      </trkpt>
      <trkpt lat="43.2129540" lon="-0.6143890">
        <ele>214.2</ele>
        <time>2020-07-29T06:59:40Z</time>
      </trkpt>
      <trkpt lat="43.2125620" lon="-0.6141990">
        <ele>213.2</ele>
        <time>2020-07-29T06:59:46Z</time>
      </trkpt>
      <trkpt lat="43.2123320" lon="-0.6141320">
        <ele>212.2</ele>
        <time>2020-07-29T06:59:49Z</time>
      </trkpt>
      <trkpt lat="43.2120790" lon="-0.6140860">
        <ele>211.0</ele>
        <time>2020-07-29T06:59:52Z</time>
      </trkpt>
      <trkpt lat="43.2118120" lon="-0.6140460">
        <ele>209.6</ele>
        <time>2020-07-29T06:59:55Z</time>
      </trkpt>
      <trkpt lat="43.2117220" lon="-0.6140330">
        <ele>209.2</ele>
        <time>2020-07-29T06:59:56Z</time>
      </trkpt>
      <trkpt lat="43.2112800" lon="-0.6139650">
        <ele>208.6</ele>
        <time>2020-07-29T07:00:01Z</time>
      </trkpt>
      <trkpt lat="43.2108080" lon="-0.6138580">
        <ele>208.6</ele>
        <time>2020-07-29T07:00:07Z</time>
      </trkpt>
      <trkpt lat="43.2106640" lon="-0.6137990">
        <ele>209.0</ele>
        <time>2020-07-29T07:00:09Z</time>
      </trkpt>
      <trkpt lat="43.2104580" lon="-0.6136930">
        <ele>209.8</ele>
        <time>2020-07-29T07:00:12Z</time>
      </trkpt>
      <trkpt lat="43.2103920" lon="-0.6136540">
        <ele>209.8</ele>
        <time>2020-07-29T07:00:13Z</time>
      </trkpt>
      <trkpt lat="43.2102030" lon="-0.6135330">
        <ele>210.2</ele>
        <time>2020-07-29T07:00:16Z</time>
      </trkpt>
      <trkpt lat="43.2100290" lon="-0.6133830">
        <ele>210.2</ele>
        <time>2020-07-29T07:00:19Z</time>
      </trkpt>
      <trkpt lat="43.2099730" lon="-0.6133300">
        <ele>210.4</ele>
        <time>2020-07-29T07:00:20Z</time>
      </trkpt>
      <trkpt lat="43.2098650" lon="-0.6132160">
        <ele>210.8</ele>
        <time>2020-07-29T07:00:22Z</time>
      </trkpt>
      <trkpt lat="43.2096740" lon="-0.6129940">
        <ele>211.0</ele>
        <time>2020-07-29T07:00:26Z</time>
      </trkpt>
      <trkpt lat="43.2095770" lon="-0.6128740">
        <ele>211.0</ele>
        <time>2020-07-29T07:00:28Z</time>
      </trkpt>
      <trkpt lat="43.2094310" lon="-0.6126900">
        <ele>211.4</ele>
        <time>2020-07-29T07:00:31Z</time>
      </trkpt>
      <trkpt lat="43.2092910" lon="-0.6125080">
        <ele>211.6</ele>
        <time>2020-07-29T07:00:34Z</time>
      </trkpt>
      <trkpt lat="43.2091990" lon="-0.6123870">
        <ele>211.8</ele>
        <time>2020-07-29T07:00:36Z</time>
      </trkpt>
      <trkpt lat="43.2091510" lon="-0.6123280">
        <ele>212.0</ele>
        <time>2020-07-29T07:00:37Z</time>
      </trkpt>
      <trkpt lat="43.2088740" lon="-0.6119710">
        <ele>212.2</ele>
        <time>2020-07-29T07:00:43Z</time>
      </trkpt>
      <trkpt lat="43.2087840" lon="-0.6118480">
        <ele>212.4</ele>
        <time>2020-07-29T07:00:45Z</time>
      </trkpt>
      <trkpt lat="43.2087400" lon="-0.6117880">
        <ele>212.4</ele>
        <time>2020-07-29T07:00:46Z</time>
      </trkpt>
      <trkpt lat="43.2084620" lon="-0.6114310">
        <ele>212.2</ele>
        <time>2020-07-29T07:00:52Z</time>
      </trkpt>
      <trkpt lat="43.2084170" lon="-0.6113690">
        <ele>212.2</ele>
        <time>2020-07-29T07:00:53Z</time>
      </trkpt>
      <trkpt lat="43.2081230" lon="-0.6109950">
        <ele>211.8</ele>
        <time>2020-07-29T07:00:59Z</time>
      </trkpt>
      <trkpt lat="43.2079720" lon="-0.6108020">
        <ele>211.6</ele>
        <time>2020-07-29T07:01:02Z</time>
      </trkpt>
      <trkpt lat="43.2079220" lon="-0.6107340">
        <ele>211.6</ele>
        <time>2020-07-29T07:01:03Z</time>
      </trkpt>
      <trkpt lat="43.2077190" lon="-0.6104590">
        <ele>211.2</ele>
        <time>2020-07-29T07:01:07Z</time>
      </trkpt>
      <trkpt lat="43.2074700" lon="-0.6101110">
        <ele>211.2</ele>
        <time>2020-07-29T07:01:12Z</time>
      </trkpt>
      <trkpt lat="43.2072670" lon="-0.6098380">
        <ele>211.6</ele>
        <time>2020-07-29T07:01:16Z</time>
      </trkpt>
      <trkpt lat="43.2069710" lon="-0.6094250">
        <ele>212.0</ele>
        <time>2020-07-29T07:01:22Z</time>
      </trkpt>
      <trkpt lat="43.2068770" lon="-0.6092820">
        <ele>212.2</ele>
        <time>2020-07-29T07:01:24Z</time>
      </trkpt>
      <trkpt lat="43.2065880" lon="-0.6088680">
        <ele>212.4</ele>
        <time>2020-07-29T07:01:30Z</time>
      </trkpt>
      <trkpt lat="43.2065400" lon="-0.6087990">
        <ele>212.4</ele>
        <time>2020-07-29T07:01:31Z</time>
      </trkpt>
      <trkpt lat="43.2062860" lon="-0.6084720">
        <ele>212.0</ele>
        <time>2020-07-29T07:01:36Z</time>
      </trkpt>
      <trkpt lat="43.2061830" lon="-0.6083430">
        <ele>212.2</ele>
        <time>2020-07-29T07:01:38Z</time>
      </trkpt>
      <trkpt lat="43.2061350" lon="-0.6082780">
        <ele>212.2</ele>
        <time>2020-07-29T07:01:39Z</time>
      </trkpt>
      <trkpt lat="43.2059570" lon="-0.6080290">
        <ele>213.0</ele>
        <time>2020-07-29T07:01:43Z</time>
      </trkpt>
      <trkpt lat="43.2058390" lon="-0.6078640">
        <ele>214.2</ele>
        <time>2020-07-29T07:01:46Z</time>
      </trkpt>
      <trkpt lat="43.2058030" lon="-0.6078130">
        <ele>214.6</ele>
        <time>2020-07-29T07:01:47Z</time>
      </trkpt>
      <trkpt lat="43.2056960" lon="-0.6076690">
        <ele>215.4</ele>
        <time>2020-07-29T07:01:50Z</time>
      </trkpt>
      <trkpt lat="43.2055870" lon="-0.6075450">
        <ele>216.0</ele>
        <time>2020-07-29T07:01:53Z</time>
      </trkpt>
      <trkpt lat="43.2055510" lon="-0.6075080">
        <ele>216.4</ele>
        <time>2020-07-29T07:01:54Z</time>
      </trkpt>
      <trkpt lat="43.2054780" lon="-0.6074350">
        <ele>216.8</ele>
        <time>2020-07-29T07:01:56Z</time>
      </trkpt>
      <trkpt lat="43.2054040" lon="-0.6073570">
        <ele>217.2</ele>
        <time>2020-07-29T07:01:58Z</time>
      </trkpt>
      <trkpt lat="43.2053680" lon="-0.6073160">
        <ele>217.6</ele>
        <time>2020-07-29T07:01:59Z</time>
      </trkpt>
      <trkpt lat="43.2052540" lon="-0.6071950">
        <ele>217.8</ele>
        <time>2020-07-29T07:02:02Z</time>
      </trkpt>
      <trkpt lat="43.2051010" lon="-0.6070260">
        <ele>217.8</ele>
        <time>2020-07-29T07:02:06Z</time>
      </trkpt>
      <trkpt lat="43.2050640" lon="-0.6069830">
        <ele>217.8</ele>
        <time>2020-07-29T07:02:07Z</time>
      </trkpt>
      <trkpt lat="43.2049380" lon="-0.6068520">
        <ele>217.8</ele>
        <time>2020-07-29T07:02:10Z</time>
      </trkpt>
      <trkpt lat="43.2046370" lon="-0.6065640">
        <ele>216.6</ele>
        <time>2020-07-29T07:02:16Z</time>
      </trkpt>
      <trkpt lat="43.2045800" lon="-0.6065100">
        <ele>216.6</ele>
        <time>2020-07-29T07:02:17Z</time>
      </trkpt>
      <trkpt lat="43.2042720" lon="-0.6062260">
        <ele>215.2</ele>
        <time>2020-07-29T07:02:22Z</time>
      </trkpt>
      <trkpt lat="43.2042060" lon="-0.6061650">
        <ele>215.0</ele>
        <time>2020-07-29T07:02:23Z</time>
      </trkpt>
      <trkpt lat="43.2040120" lon="-0.6059600">
        <ele>213.8</ele>
        <time>2020-07-29T07:02:26Z</time>
      </trkpt>
      <trkpt lat="43.2038980" lon="-0.6057840">
        <ele>213.0</ele>
        <time>2020-07-29T07:02:28Z</time>
      </trkpt>
      <trkpt lat="43.2038510" lon="-0.6056900">
        <ele>212.6</ele>
        <time>2020-07-29T07:02:29Z</time>
      </trkpt>
      <trkpt lat="43.2037610" lon="-0.6054870">
        <ele>211.6</ele>
        <time>2020-07-29T07:02:31Z</time>
      </trkpt>
      <trkpt lat="43.2036770" lon="-0.6052770">
        <ele>210.8</ele>
        <time>2020-07-29T07:02:33Z</time>
      </trkpt>
      <trkpt lat="43.2036370" lon="-0.6051740">
        <ele>210.6</ele>
        <time>2020-07-29T07:02:34Z</time>
      </trkpt>
      <trkpt lat="43.2034780" lon="-0.6047830">
        <ele>210.2</ele>
        <time>2020-07-29T07:02:38Z</time>
      </trkpt>
      <trkpt lat="43.2033860" lon="-0.6046050">
        <ele>210.2</ele>
        <time>2020-07-29T07:02:40Z</time>
      </trkpt>
      <trkpt lat="43.2031800" lon="-0.6043420">
        <ele>211.0</ele>
        <time>2020-07-29T07:02:44Z</time>
      </trkpt>
      <trkpt lat="43.2030750" lon="-0.6042580">
        <ele>211.6</ele>
        <time>2020-07-29T07:02:46Z</time>
      </trkpt>
      <trkpt lat="43.2029210" lon="-0.6041800">
        <ele>212.8</ele>
        <time>2020-07-29T07:02:49Z</time>
      </trkpt>
      <trkpt lat="43.2027850" lon="-0.6041490">
        <ele>214.0</ele>
        <time>2020-07-29T07:02:52Z</time>
      </trkpt>
      <trkpt lat="43.2027020" lon="-0.6041450">
        <ele>215.2</ele>
        <time>2020-07-29T07:02:54Z</time>
      </trkpt>
      <trkpt lat="43.2026630" lon="-0.6041480">
        <ele>215.6</ele>
        <time>2020-07-29T07:02:55Z</time>
      </trkpt>
      <trkpt lat="43.2025860" lon="-0.6041570">
        <ele>216.2</ele>
        <time>2020-07-29T07:02:57Z</time>
      </trkpt>
      <trkpt lat="43.2024820" lon="-0.6041810">
        <ele>217.4</ele>
        <time>2020-07-29T07:03:00Z</time>
      </trkpt>
      <trkpt lat="43.2023820" lon="-0.6042060">
        <ele>218.6</ele>
        <time>2020-07-29T07:03:03Z</time>
      </trkpt>
      <trkpt lat="43.2023500" lon="-0.6042130">
        <ele>218.8</ele>
        <time>2020-07-29T07:03:04Z</time>
      </trkpt>
      <trkpt lat="43.2022560" lon="-0.6042290">
        <ele>219.4</ele>
        <time>2020-07-29T07:03:07Z</time>
      </trkpt>
      <trkpt lat="43.2022240" lon="-0.6042350">
        <ele>219.8</ele>
        <time>2020-07-29T07:03:08Z</time>
      </trkpt>
      <trkpt lat="43.2021250" lon="-0.6042640">
        <ele>220.2</ele>
        <time>2020-07-29T07:03:11Z</time>
      </trkpt>
      <trkpt lat="43.2020190" lon="-0.6042900">
        <ele>220.8</ele>
        <time>2020-07-29T07:03:14Z</time>
      </trkpt>
      <trkpt lat="43.2018790" lon="-0.6043150">
        <ele>221.6</ele>
        <time>2020-07-29T07:03:18Z</time>
      </trkpt>
      <trkpt lat="43.2018440" lon="-0.6043210">
        <ele>221.6</ele>
        <time>2020-07-29T07:03:19Z</time>
      </trkpt>
      <trkpt lat="43.2018090" lon="-0.6043260">
        <ele>221.8</ele>
        <time>2020-07-29T07:03:20Z</time>
      </trkpt>
      <trkpt lat="43.2017730" lon="-0.6043320">
        <ele>222.2</ele>
        <time>2020-07-29T07:03:21Z</time>
      </trkpt>
      <trkpt lat="43.2017360" lon="-0.6043360">
        <ele>222.4</ele>
        <time>2020-07-29T07:03:22Z</time>
      </trkpt>
      <trkpt lat="43.2016970" lon="-0.6043430">
        <ele>222.4</ele>
        <time>2020-07-29T07:03:23Z</time>
      </trkpt>
      <trkpt lat="43.2016580" lon="-0.6043500">
        <ele>222.4</ele>
        <time>2020-07-29T07:03:24Z</time>
      </trkpt>
      <trkpt lat="43.2014970" lon="-0.6043660">
        <ele>222.6</ele>
        <time>2020-07-29T07:03:28Z</time>
      </trkpt>
      <trkpt lat="43.2012270" lon="-0.6043950">
        <ele>222.8</ele>
        <time>2020-07-29T07:03:34Z</time>
      </trkpt>
      <trkpt lat="43.2011770" lon="-0.6043960">
        <ele>222.8</ele>
        <time>2020-07-29T07:03:35Z</time>
      </trkpt>
      <trkpt lat="43.2009870" lon="-0.6044200">
        <ele>222.8</ele>
        <time>2020-07-29T07:03:39Z</time>
      </trkpt>
      <trkpt lat="43.2008900" lon="-0.6044350">
        <ele>223.0</ele>
        <time>2020-07-29T07:03:41Z</time>
      </trkpt>
      <trkpt lat="43.2008430" lon="-0.6044410">
        <ele>223.0</ele>
        <time>2020-07-29T07:03:42Z</time>
      </trkpt>
      <trkpt lat="43.2005460" lon="-0.6044750">
        <ele>223.0</ele>
        <time>2020-07-29T07:03:48Z</time>
      </trkpt>
      <trkpt lat="43.2004410" lon="-0.6044770">
        <ele>223.0</ele>
        <time>2020-07-29T07:03:50Z</time>
      </trkpt>
      <trkpt lat="43.2002850" lon="-0.6044830">
        <ele>223.2</ele>
        <time>2020-07-29T07:03:53Z</time>
      </trkpt>
      <trkpt lat="43.1999780" lon="-0.6045030">
        <ele>223.6</ele>
        <time>2020-07-29T07:03:59Z</time>
      </trkpt>
      <trkpt lat="43.1996470" lon="-0.6045060">
        <ele>224.0</ele>
        <time>2020-07-29T07:04:05Z</time>
      </trkpt>
      <trkpt lat="43.1995900" lon="-0.6045070">
        <ele>224.0</ele>
        <time>2020-07-29T07:04:06Z</time>
      </trkpt>
      <trkpt lat="43.1993130" lon="-0.6045110">
        <ele>224.2</ele>
        <time>2020-07-29T07:04:11Z</time>
      </trkpt>
      <trkpt lat="43.1991430" lon="-0.6045130">
        <ele>224.2</ele>
        <time>2020-07-29T07:04:14Z</time>
      </trkpt>
      <trkpt lat="43.1987870" lon="-0.6045090">
        <ele>224.8</ele>
        <time>2020-07-29T07:04:20Z</time>
      </trkpt>
      <trkpt lat="43.1987220" lon="-0.6045060">
        <ele>224.6</ele>
        <time>2020-07-29T07:04:21Z</time>
      </trkpt>
      <trkpt lat="43.1985890" lon="-0.6045050">
        <ele>224.4</ele>
        <time>2020-07-29T07:04:23Z</time>
      </trkpt>
      <trkpt lat="43.1982130" lon="-0.6045280">
        <ele>224.0</ele>
        <time>2020-07-29T07:04:29Z</time>
      </trkpt>
      <trkpt lat="43.1980030" lon="-0.6045480">
        <ele>224.0</ele>
        <time>2020-07-29T07:04:33Z</time>
      </trkpt>
      <trkpt lat="43.1979680" lon="-0.6045610">
        <ele>224.0</ele>
        <time>2020-07-29T07:04:34Z</time>
      </trkpt>
      <trkpt lat="43.1978160" lon="-0.6045590">
        <ele>224.6</ele>
        <time>2020-07-29T07:05:23Z</time>
      </trkpt>
      <trkpt lat="43.1977860" lon="-0.6045580">
        <ele>224.6</ele>
        <time>2020-07-29T07:05:24Z</time>
      </trkpt>
      <trkpt lat="43.1977530" lon="-0.6045740">
        <ele>224.6</ele>
        <time>2020-07-29T07:05:25Z</time>
      </trkpt>
      <trkpt lat="43.1977280" lon="-0.6046000">
        <ele>224.6</ele>
        <time>2020-07-29T07:05:26Z</time>
      </trkpt>
      <trkpt lat="43.1976380" lon="-0.6047310">
        <ele>224.4</ele>
        <time>2020-07-29T07:05:31Z</time>
      </trkpt>
      <trkpt lat="43.1976120" lon="-0.6048320">
        <ele>224.2</ele>
        <time>2020-07-29T07:05:33Z</time>
      </trkpt>
      <trkpt lat="43.1975810" lon="-0.6049680">
        <ele>223.8</ele>
        <time>2020-07-29T07:05:35Z</time>
      </trkpt>
      <trkpt lat="43.1975290" lon="-0.6052060">
        <ele>223.2</ele>
        <time>2020-07-29T07:05:38Z</time>
      </trkpt>
      <trkpt lat="43.1975030" lon="-0.6053830">
        <ele>222.8</ele>
        <time>2020-07-29T07:05:40Z</time>
      </trkpt>
      <trkpt lat="43.1974930" lon="-0.6054780">
        <ele>222.6</ele>
        <time>2020-07-29T07:05:41Z</time>
      </trkpt>
      <trkpt lat="43.1974900" lon="-0.6055780">
        <ele>222.4</ele>
        <time>2020-07-29T07:05:42Z</time>
      </trkpt>
      <trkpt lat="43.1974930" lon="-0.6057770">
        <ele>222.0</ele>
        <time>2020-07-29T07:05:44Z</time>
      </trkpt>
      <trkpt lat="43.1974970" lon="-0.6059790">
        <ele>221.2</ele>
        <time>2020-07-29T07:05:46Z</time>
      </trkpt>
      <trkpt lat="43.1975000" lon="-0.6060810">
        <ele>220.8</ele>
        <time>2020-07-29T07:05:47Z</time>
      </trkpt>
      <trkpt lat="43.1975150" lon="-0.6066070">
        <ele>219.8</ele>
        <time>2020-07-29T07:05:52Z</time>
      </trkpt>
      <trkpt lat="43.1975190" lon="-0.6067130">
        <ele>219.4</ele>
        <time>2020-07-29T07:05:53Z</time>
      </trkpt>
      <trkpt lat="43.1975230" lon="-0.6069300">
        <ele>218.4</ele>
        <time>2020-07-29T07:05:55Z</time>
      </trkpt>
      <trkpt lat="43.1975550" lon="-0.6073550">
        <ele>217.4</ele>
        <time>2020-07-29T07:05:59Z</time>
      </trkpt>
      <trkpt lat="43.1975800" lon="-0.6074590">
        <ele>217.2</ele>
        <time>2020-07-29T07:06:00Z</time>
      </trkpt>
      <trkpt lat="43.1977250" lon="-0.6078680">
        <ele>216.6</ele>
        <time>2020-07-29T07:06:04Z</time>
      </trkpt>
      <trkpt lat="43.1977640" lon="-0.6079660">
        <ele>216.6</ele>
        <time>2020-07-29T07:06:05Z</time>
      </trkpt>
      <trkpt lat="43.1980010" lon="-0.6084020">
        <ele>217.2</ele>
        <time>2020-07-29T07:06:10Z</time>
      </trkpt>
      <trkpt lat="43.1980880" lon="-0.6085740">
        <ele>218.0</ele>
        <time>2020-07-29T07:06:12Z</time>
      </trkpt>
      <trkpt lat="43.1981290" lon="-0.6086560">
        <ele>218.2</ele>
        <time>2020-07-29T07:06:13Z</time>
      </trkpt>
      <trkpt lat="43.1982060" lon="-0.6088030">
        <ele>218.8</ele>
        <time>2020-07-29T07:06:15Z</time>
      </trkpt>
      <trkpt lat="43.1982410" lon="-0.6088730">
        <ele>219.0</ele>
        <time>2020-07-29T07:06:16Z</time>
      </trkpt>
      <trkpt lat="43.1983110" lon="-0.6090110">
        <ele>219.2</ele>
        <time>2020-07-29T07:06:18Z</time>
      </trkpt>
      <trkpt lat="43.1984550" lon="-0.6093860">
        <ele>219.8</ele>
        <time>2020-07-29T07:06:23Z</time>
      </trkpt>
      <trkpt lat="43.1985820" lon="-0.6097920">
        <ele>219.8</ele>
        <time>2020-07-29T07:06:28Z</time>
      </trkpt>
      <trkpt lat="43.1986270" lon="-0.6099710">
        <ele>219.2</ele>
        <time>2020-07-29T07:06:30Z</time>
      </trkpt>
      <trkpt lat="43.1986800" lon="-0.6102860">
        <ele>217.8</ele>
        <time>2020-07-29T07:06:33Z</time>
      </trkpt>
      <trkpt lat="43.1987150" lon="-0.6105160">
        <ele>217.2</ele>
        <time>2020-07-29T07:06:35Z</time>
      </trkpt>
      <trkpt lat="43.1987360" lon="-0.6106350">
        <ele>216.6</ele>
        <time>2020-07-29T07:06:36Z</time>
      </trkpt>
      <trkpt lat="43.1987830" lon="-0.6110000">
        <ele>215.4</ele>
        <time>2020-07-29T07:06:39Z</time>
      </trkpt>
      <trkpt lat="43.1988050" lon="-0.6112200">
        <ele>214.6</ele>
        <time>2020-07-29T07:06:41Z</time>
      </trkpt>
      <trkpt lat="43.1988440" lon="-0.6114320">
        <ele>214.2</ele>
        <time>2020-07-29T07:06:43Z</time>
      </trkpt>
      <trkpt lat="43.1989720" lon="-0.6118360">
        <ele>213.8</ele>
        <time>2020-07-29T07:06:47Z</time>
      </trkpt>
      <trkpt lat="43.1990000" lon="-0.6119360">
        <ele>213.8</ele>
        <time>2020-07-29T07:06:48Z</time>
      </trkpt>
      <trkpt lat="43.1990190" lon="-0.6120410">
        <ele>213.8</ele>
        <time>2020-07-29T07:06:49Z</time>
      </trkpt>
      <trkpt lat="43.1990340" lon="-0.6121520">
        <ele>214.0</ele>
        <time>2020-07-29T07:06:50Z</time>
      </trkpt>
      <trkpt lat="43.1990450" lon="-0.6122610">
        <ele>214.0</ele>
        <time>2020-07-29T07:06:51Z</time>
      </trkpt>
      <trkpt lat="43.1990670" lon="-0.6129190">
        <ele>214.0</ele>
        <time>2020-07-29T07:06:57Z</time>
      </trkpt>
      <trkpt lat="43.1990640" lon="-0.6130280">
        <ele>213.8</ele>
        <time>2020-07-29T07:06:58Z</time>
      </trkpt>
      <trkpt lat="43.1990170" lon="-0.6136710">
        <ele>213.8</ele>
        <time>2020-07-29T07:07:04Z</time>
      </trkpt>
      <trkpt lat="43.1989820" lon="-0.6138710">
        <ele>214.0</ele>
        <time>2020-07-29T07:07:06Z</time>
      </trkpt>
      <trkpt lat="43.1988810" lon="-0.6142160">
        <ele>215.0</ele>
        <time>2020-07-29T07:07:10Z</time>
      </trkpt>
      <trkpt lat="43.1988530" lon="-0.6142850">
        <ele>215.2</ele>
        <time>2020-07-29T07:07:11Z</time>
      </trkpt>
      <trkpt lat="43.1987640" lon="-0.6144700">
        <ele>216.4</ele>
        <time>2020-07-29T07:07:14Z</time>
      </trkpt>
      <trkpt lat="43.1986610" lon="-0.6146350">
        <ele>217.6</ele>
        <time>2020-07-29T07:07:17Z</time>
      </trkpt>
      <trkpt lat="43.1986300" lon="-0.6146880">
        <ele>217.8</ele>
        <time>2020-07-29T07:07:18Z</time>
      </trkpt>
      <trkpt lat="43.1984300" lon="-0.6150260">
        <ele>218.2</ele>
        <time>2020-07-29T07:07:24Z</time>
      </trkpt>
      <trkpt lat="43.1983630" lon="-0.6151470">
        <ele>218.2</ele>
        <time>2020-07-29T07:07:26Z</time>
      </trkpt>
      <trkpt lat="43.1982280" lon="-0.6154000">
        <ele>218.2</ele>
        <time>2020-07-29T07:07:30Z</time>
      </trkpt>
      <trkpt lat="43.1980590" lon="-0.6157430">
        <ele>218.2</ele>
        <time>2020-07-29T07:07:35Z</time>
      </trkpt>
      <trkpt lat="43.1978850" lon="-0.6161920">
        <ele>218.2</ele>
        <time>2020-07-29T07:07:41Z</time>
      </trkpt>
      <trkpt lat="43.1978570" lon="-0.6162660">
        <ele>218.4</ele>
        <time>2020-07-29T07:07:42Z</time>
      </trkpt>
      <trkpt lat="43.1977970" lon="-0.6164110">
        <ele>218.6</ele>
        <time>2020-07-29T07:07:44Z</time>
      </trkpt>
      <trkpt lat="43.1976260" lon="-0.6168500">
        <ele>219.2</ele>
        <time>2020-07-29T07:07:50Z</time>
      </trkpt>
      <trkpt lat="43.1975660" lon="-0.6169960">
        <ele>219.2</ele>
        <time>2020-07-29T07:07:52Z</time>
      </trkpt>
      <trkpt lat="43.1973900" lon="-0.6174190">
        <ele>219.6</ele>
        <time>2020-07-29T07:07:58Z</time>
      </trkpt>
      <trkpt lat="43.1973630" lon="-0.6174860">
        <ele>219.8</ele>
        <time>2020-07-29T07:07:59Z</time>
      </trkpt>
      <trkpt lat="43.1972680" lon="-0.6177480">
        <ele>220.2</ele>
        <time>2020-07-29T07:08:03Z</time>
      </trkpt>
      <trkpt lat="43.1972580" lon="-0.6177850">
        <ele>220.2</ele>
        <time>2020-07-29T07:08:04Z</time>
      </trkpt>
      <trkpt lat="43.1972130" lon="-0.6180010">
        <ele>220.6</ele>
        <time>2020-07-29T07:08:09Z</time>
      </trkpt>
      <trkpt lat="43.1971900" lon="-0.6180450">
        <ele>220.8</ele>
        <time>2020-07-29T07:08:10Z</time>
      </trkpt>
      <trkpt lat="43.1971010" lon="-0.6181920">
        <ele>220.8</ele>
        <time>2020-07-29T07:08:13Z</time>
      </trkpt>
      <trkpt lat="43.1969370" lon="-0.6185740">
        <ele>220.4</ele>
        <time>2020-07-29T07:08:19Z</time>
      </trkpt>
      <trkpt lat="43.1969120" lon="-0.6186390">
        <ele>220.4</ele>
        <time>2020-07-29T07:08:20Z</time>
      </trkpt>
      <trkpt lat="43.1967580" lon="-0.6190330">
        <ele>220.6</ele>
        <time>2020-07-29T07:08:26Z</time>
      </trkpt>
      <trkpt lat="43.1966580" lon="-0.6192820">
        <ele>220.6</ele>
        <time>2020-07-29T07:08:30Z</time>
      </trkpt>
      <trkpt lat="43.1964960" lon="-0.6196390">
        <ele>221.2</ele>
        <time>2020-07-29T07:08:36Z</time>
      </trkpt>
      <trkpt lat="43.1964680" lon="-0.6197050">
        <ele>221.2</ele>
        <time>2020-07-29T07:08:37Z</time>
      </trkpt>
      <trkpt lat="43.1964390" lon="-0.6197670">
        <ele>221.2</ele>
        <time>2020-07-29T07:08:38Z</time>
      </trkpt>
      <trkpt lat="43.1964040" lon="-0.6198190">
        <ele>221.2</ele>
        <time>2020-07-29T07:08:39Z</time>
      </trkpt>
      <trkpt lat="43.1963110" lon="-0.6198710">
        <ele>221.4</ele>
        <time>2020-07-29T07:08:41Z</time>
      </trkpt>
      <trkpt lat="43.1962070" lon="-0.6198430">
        <ele>221.2</ele>
        <time>2020-07-29T07:08:43Z</time>
      </trkpt>
      <trkpt lat="43.1961520" lon="-0.6198110">
        <ele>221.2</ele>
        <time>2020-07-29T07:08:44Z</time>
      </trkpt>
      <trkpt lat="43.1960350" lon="-0.6197570">
        <ele>221.2</ele>
        <time>2020-07-29T07:08:46Z</time>
      </trkpt>
      <trkpt lat="43.1959150" lon="-0.6197230">
        <ele>221.4</ele>
        <time>2020-07-29T07:08:48Z</time>
      </trkpt>
      <trkpt lat="43.1958560" lon="-0.6197070">
        <ele>221.4</ele>
        <time>2020-07-29T07:08:49Z</time>
      </trkpt>
      <trkpt lat="43.1954990" lon="-0.6196510">
        <ele>221.6</ele>
        <time>2020-07-29T07:08:55Z</time>
      </trkpt>
      <trkpt lat="43.1954400" lon="-0.6196490">
        <ele>221.8</ele>
        <time>2020-07-29T07:08:56Z</time>
      </trkpt>
      <trkpt lat="43.1951610" lon="-0.6196300">
        <ele>221.8</ele>
        <time>2020-07-29T07:09:01Z</time>
      </trkpt>
      <trkpt lat="43.1949920" lon="-0.6195950">
        <ele>222.2</ele>
        <time>2020-07-29T07:09:04Z</time>
      </trkpt>
      <trkpt lat="43.1946650" lon="-0.6195050">
        <ele>222.6</ele>
        <time>2020-07-29T07:09:10Z</time>
      </trkpt>
      <trkpt lat="43.1945040" lon="-0.6194410">
        <ele>222.6</ele>
        <time>2020-07-29T07:09:13Z</time>
      </trkpt>
      <trkpt lat="43.1942910" lon="-0.6193590">
        <ele>222.8</ele>
        <time>2020-07-29T07:09:17Z</time>
      </trkpt>
      <trkpt lat="43.1940710" lon="-0.6192870">
        <ele>223.2</ele>
        <time>2020-07-29T07:09:21Z</time>
      </trkpt>
      <trkpt lat="43.1939700" lon="-0.6192520">
        <ele>223.4</ele>
        <time>2020-07-29T07:09:23Z</time>
      </trkpt>
      <trkpt lat="43.1938300" lon="-0.6191990">
        <ele>223.8</ele>
        <time>2020-07-29T07:09:26Z</time>
      </trkpt>
      <trkpt lat="43.1935960" lon="-0.6191420">
        <ele>224.2</ele>
        <time>2020-07-29T07:09:31Z</time>
      </trkpt>
      <trkpt lat="43.1933370" lon="-0.6190840">
        <ele>224.2</ele>
        <time>2020-07-29T07:09:36Z</time>
      </trkpt>
      <trkpt lat="43.1931830" lon="-0.6190390">
        <ele>224.0</ele>
        <time>2020-07-29T07:09:39Z</time>
      </trkpt>
      <trkpt lat="43.1929650" lon="-0.6189900">
        <ele>224.0</ele>
        <time>2020-07-29T07:09:43Z</time>
      </trkpt>
      <trkpt lat="43.1929110" lon="-0.6189850">
        <ele>224.0</ele>
        <time>2020-07-29T07:09:44Z</time>
      </trkpt>
      <trkpt lat="43.1928000" lon="-0.6189810">
        <ele>224.2</ele>
        <time>2020-07-29T07:09:46Z</time>
      </trkpt>
      <trkpt lat="43.1926310" lon="-0.6189660">
        <ele>224.2</ele>
        <time>2020-07-29T07:09:49Z</time>
      </trkpt>
      <trkpt lat="43.1922970" lon="-0.6189260">
        <ele>224.0</ele>
        <time>2020-07-29T07:09:55Z</time>
      </trkpt>
      <trkpt lat="43.1921970" lon="-0.6188890">
        <ele>224.4</ele>
        <time>2020-07-29T07:09:57Z</time>
      </trkpt>
      <trkpt lat="43.1921130" lon="-0.6188260">
        <ele>224.6</ele>
        <time>2020-07-29T07:09:59Z</time>
      </trkpt>
      <trkpt lat="43.1920730" lon="-0.6187840">
        <ele>224.6</ele>
        <time>2020-07-29T07:10:00Z</time>
      </trkpt>
      <trkpt lat="43.1919870" lon="-0.6187120">
        <ele>224.8</ele>
        <time>2020-07-29T07:10:02Z</time>
      </trkpt>
      <trkpt lat="43.1919420" lon="-0.6186860">
        <ele>225.0</ele>
        <time>2020-07-29T07:10:03Z</time>
      </trkpt>
      <trkpt lat="43.1918940" lon="-0.6186720">
        <ele>225.0</ele>
        <time>2020-07-29T07:10:04Z</time>
      </trkpt>
      <trkpt lat="43.1918460" lon="-0.6186770">
        <ele>225.2</ele>
        <time>2020-07-29T07:10:05Z</time>
      </trkpt>
      <trkpt lat="43.1918090" lon="-0.6187090">
        <ele>225.2</ele>
        <time>2020-07-29T07:10:06Z</time>
      </trkpt>
      <trkpt lat="43.1917780" lon="-0.6188170">
        <ele>225.6</ele>
        <time>2020-07-29T07:10:08Z</time>
      </trkpt>
      <trkpt lat="43.1917510" lon="-0.6189370">
        <ele>225.6</ele>
        <time>2020-07-29T07:10:10Z</time>
      </trkpt>
      <trkpt lat="43.1916790" lon="-0.6190350">
        <ele>225.4</ele>
        <time>2020-07-29T07:10:12Z</time>
      </trkpt>
      <trkpt lat="43.1914170" lon="-0.6193600">
        <ele>225.0</ele>
        <time>2020-07-29T07:10:18Z</time>
      </trkpt>
      <trkpt lat="43.1911900" lon="-0.6197850">
        <ele>225.0</ele>
        <time>2020-07-29T07:10:24Z</time>
      </trkpt>
      <trkpt lat="43.1910540" lon="-0.6200780">
        <ele>225.2</ele>
        <time>2020-07-29T07:10:28Z</time>
      </trkpt>
      <trkpt lat="43.1910220" lon="-0.6201520">
        <ele>225.2</ele>
        <time>2020-07-29T07:10:29Z</time>
      </trkpt>
      <trkpt lat="43.1909560" lon="-0.6202980">
        <ele>225.4</ele>
        <time>2020-07-29T07:10:31Z</time>
      </trkpt>
      <trkpt lat="43.1907600" lon="-0.6207380">
        <ele>226.0</ele>
        <time>2020-07-29T07:10:37Z</time>
      </trkpt>
      <trkpt lat="43.1906920" lon="-0.6208870">
        <ele>226.0</ele>
        <time>2020-07-29T07:10:39Z</time>
      </trkpt>
      <trkpt lat="43.1906240" lon="-0.6210320">
        <ele>226.0</ele>
        <time>2020-07-29T07:10:41Z</time>
      </trkpt>
      <trkpt lat="43.1905030" lon="-0.6213190">
        <ele>226.6</ele>
        <time>2020-07-29T07:10:45Z</time>
      </trkpt>
      <trkpt lat="43.1904780" lon="-0.6214770">
        <ele>227.0</ele>
        <time>2020-07-29T07:10:47Z</time>
      </trkpt>
      <trkpt lat="43.1904630" lon="-0.6215530">
        <ele>227.2</ele>
        <time>2020-07-29T07:10:48Z</time>
      </trkpt>
      <trkpt lat="43.1904010" lon="-0.6216760">
        <ele>227.2</ele>
        <time>2020-07-29T07:10:50Z</time>
      </trkpt>
      <trkpt lat="43.1901860" lon="-0.6219370">
        <ele>227.2</ele>
        <time>2020-07-29T07:10:55Z</time>
      </trkpt>
      <trkpt lat="43.1901120" lon="-0.6220640">
        <ele>227.2</ele>
        <time>2020-07-29T07:10:57Z</time>
      </trkpt>
      <trkpt lat="43.1900500" lon="-0.6222020">
        <ele>227.0</ele>
        <time>2020-07-29T07:10:59Z</time>
      </trkpt>
      <trkpt lat="43.1899860" lon="-0.6223340">
        <ele>226.8</ele>
        <time>2020-07-29T07:11:01Z</time>
      </trkpt>
      <trkpt lat="43.1897900" lon="-0.6227070">
        <ele>226.6</ele>
        <time>2020-07-29T07:11:07Z</time>
      </trkpt>
      <trkpt lat="43.1897220" lon="-0.6228410">
        <ele>226.4</ele>
        <time>2020-07-29T07:11:09Z</time>
      </trkpt>
      <trkpt lat="43.1895340" lon="-0.6231850">
        <ele>226.0</ele>
        <time>2020-07-29T07:11:14Z</time>
      </trkpt>
      <trkpt lat="43.1894930" lon="-0.6232560">
        <ele>226.0</ele>
        <time>2020-07-29T07:11:15Z</time>
      </trkpt>
      <trkpt lat="43.1894140" lon="-0.6234030">
        <ele>225.8</ele>
        <time>2020-07-29T07:11:17Z</time>
      </trkpt>
      <trkpt lat="43.1891740" lon="-0.6238390">
        <ele>225.6</ele>
        <time>2020-07-29T07:11:23Z</time>
      </trkpt>
      <trkpt lat="43.1890880" lon="-0.6239750">
        <ele>225.8</ele>
        <time>2020-07-29T07:11:25Z</time>
      </trkpt>
      <trkpt lat="43.1889030" lon="-0.6242200">
        <ele>226.2</ele>
        <time>2020-07-29T07:11:29Z</time>
      </trkpt>
      <trkpt lat="43.1887530" lon="-0.6243830">
        <ele>226.6</ele>
        <time>2020-07-29T07:11:32Z</time>
      </trkpt>
      <trkpt lat="43.1886490" lon="-0.6244790">
        <ele>226.8</ele>
        <time>2020-07-29T07:11:34Z</time>
      </trkpt>
      <trkpt lat="43.1883860" lon="-0.6246890">
        <ele>227.0</ele>
        <time>2020-07-29T07:11:39Z</time>
      </trkpt>
      <trkpt lat="43.1880280" lon="-0.6248930">
        <ele>227.0</ele>
        <time>2020-07-29T07:11:45Z</time>
      </trkpt>
      <trkpt lat="43.1879640" lon="-0.6249210">
        <ele>227.0</ele>
        <time>2020-07-29T07:11:46Z</time>
      </trkpt>
      <trkpt lat="43.1878990" lon="-0.6249440">
        <ele>226.8</ele>
        <time>2020-07-29T07:11:47Z</time>
      </trkpt>
      <trkpt lat="43.1875620" lon="-0.6250390">
        <ele>226.4</ele>
        <time>2020-07-29T07:11:52Z</time>
      </trkpt>
      <trkpt lat="43.1874970" lon="-0.6250730">
        <ele>226.4</ele>
        <time>2020-07-29T07:11:53Z</time>
      </trkpt>
      <trkpt lat="43.1873820" lon="-0.6251700">
        <ele>226.4</ele>
        <time>2020-07-29T07:11:55Z</time>
      </trkpt>
      <trkpt lat="43.1873360" lon="-0.6252300">
        <ele>226.4</ele>
        <time>2020-07-29T07:11:56Z</time>
      </trkpt>
      <trkpt lat="43.1872190" lon="-0.6254200">
        <ele>226.4</ele>
        <time>2020-07-29T07:11:59Z</time>
      </trkpt>
      <trkpt lat="43.1871240" lon="-0.6255340">
        <ele>226.4</ele>
        <time>2020-07-29T07:12:01Z</time>
      </trkpt>
      <trkpt lat="43.1870770" lon="-0.6255900">
        <ele>226.4</ele>
        <time>2020-07-29T07:12:02Z</time>
      </trkpt>
      <trkpt lat="43.1870030" lon="-0.6257210">
        <ele>226.6</ele>
        <time>2020-07-29T07:12:04Z</time>
      </trkpt>
      <trkpt lat="43.1869780" lon="-0.6257960">
        <ele>226.6</ele>
        <time>2020-07-29T07:12:05Z</time>
      </trkpt>
      <trkpt lat="43.1868700" lon="-0.6261680">
        <ele>226.4</ele>
        <time>2020-07-29T07:12:10Z</time>
      </trkpt>
      <trkpt lat="43.1868360" lon="-0.6262300">
        <ele>226.4</ele>
        <time>2020-07-29T07:12:11Z</time>
      </trkpt>
      <trkpt lat="43.1867940" lon="-0.6262860">
        <ele>226.4</ele>
        <time>2020-07-29T07:12:12Z</time>
      </trkpt>
      <trkpt lat="43.1867460" lon="-0.6263410">
        <ele>226.4</ele>
        <time>2020-07-29T07:12:13Z</time>
      </trkpt>
      <trkpt lat="43.1866450" lon="-0.6264490">
        <ele>226.4</ele>
        <time>2020-07-29T07:12:15Z</time>
      </trkpt>
      <trkpt lat="43.1865930" lon="-0.6265030">
        <ele>226.4</ele>
        <time>2020-07-29T07:12:16Z</time>
      </trkpt>
      <trkpt lat="43.1863490" lon="-0.6267640">
        <ele>226.6</ele>
        <time>2020-07-29T07:12:21Z</time>
      </trkpt>
      <trkpt lat="43.1861630" lon="-0.6269590">
        <ele>226.8</ele>
        <time>2020-07-29T07:12:25Z</time>
      </trkpt>
      <trkpt lat="43.1859710" lon="-0.6271540">
        <ele>226.8</ele>
        <time>2020-07-29T07:12:29Z</time>
      </trkpt>
      <trkpt lat="43.1857750" lon="-0.6273400">
        <ele>226.8</ele>
        <time>2020-07-29T07:12:33Z</time>
      </trkpt>
      <trkpt lat="43.1854950" lon="-0.6276610">
        <ele>226.8</ele>
        <time>2020-07-29T07:12:39Z</time>
      </trkpt>
      <trkpt lat="43.1853980" lon="-0.6277640">
        <ele>226.8</ele>
        <time>2020-07-29T07:12:41Z</time>
      </trkpt>
      <trkpt lat="43.1853500" lon="-0.6278150">
        <ele>226.8</ele>
        <time>2020-07-29T07:12:42Z</time>
      </trkpt>
      <trkpt lat="43.1852560" lon="-0.6279180">
        <ele>227.0</ele>
        <time>2020-07-29T07:12:44Z</time>
      </trkpt>
      <trkpt lat="43.1850830" lon="-0.6281480">
        <ele>227.6</ele>
        <time>2020-07-29T07:12:48Z</time>
      </trkpt>
      <trkpt lat="43.1849690" lon="-0.6283420">
        <ele>227.8</ele>
        <time>2020-07-29T07:12:51Z</time>
      </trkpt>
      <trkpt lat="43.1849060" lon="-0.6284800">
        <ele>228.0</ele>
        <time>2020-07-29T07:12:53Z</time>
      </trkpt>
      <trkpt lat="43.1848460" lon="-0.6286200">
        <ele>228.4</ele>
        <time>2020-07-29T07:12:55Z</time>
      </trkpt>
      <trkpt lat="43.1847230" lon="-0.6289140">
        <ele>228.4</ele>
        <time>2020-07-29T07:12:59Z</time>
      </trkpt>
      <trkpt lat="43.1845910" lon="-0.6292430">
        <ele>227.8</ele>
        <time>2020-07-29T07:13:03Z</time>
      </trkpt>
      <trkpt lat="43.1844130" lon="-0.6296640">
        <ele>227.6</ele>
        <time>2020-07-29T07:13:08Z</time>
      </trkpt>
      <trkpt lat="43.1842750" lon="-0.6300080">
        <ele>228.2</ele>
        <time>2020-07-29T07:13:12Z</time>
      </trkpt>
      <trkpt lat="43.1840760" lon="-0.6305260">
        <ele>228.2</ele>
        <time>2020-07-29T07:13:18Z</time>
      </trkpt>
      <trkpt lat="43.1839440" lon="-0.6308820">
        <ele>228.0</ele>
        <time>2020-07-29T07:13:22Z</time>
      </trkpt>
      <trkpt lat="43.1837750" lon="-0.6314370">
        <ele>227.8</ele>
        <time>2020-07-29T07:13:28Z</time>
      </trkpt>
      <trkpt lat="43.1836370" lon="-0.6320370">
        <ele>228.0</ele>
        <time>2020-07-29T07:13:34Z</time>
      </trkpt>
      <trkpt lat="43.1835940" lon="-0.6322370">
        <ele>228.0</ele>
        <time>2020-07-29T07:13:36Z</time>
      </trkpt>
      <trkpt lat="43.1834620" lon="-0.6328350">
        <ele>227.8</ele>
        <time>2020-07-29T07:13:42Z</time>
      </trkpt>
      <trkpt lat="43.1833940" lon="-0.6331320">
        <ele>227.8</ele>
        <time>2020-07-29T07:13:45Z</time>
      </trkpt>
      <trkpt lat="43.1833030" lon="-0.6335350">
        <ele>227.8</ele>
        <time>2020-07-29T07:13:49Z</time>
      </trkpt>
      <trkpt lat="43.1832340" lon="-0.6338450">
        <ele>227.8</ele>
        <time>2020-07-29T07:13:52Z</time>
      </trkpt>
      <trkpt lat="43.1831910" lon="-0.6340510">
        <ele>227.6</ele>
        <time>2020-07-29T07:13:54Z</time>
      </trkpt>
      <trkpt lat="43.1830830" lon="-0.6345680">
        <ele>227.0</ele>
        <time>2020-07-29T07:13:59Z</time>
      </trkpt>
      <trkpt lat="43.1829470" lon="-0.6350580">
        <ele>227.0</ele>
        <time>2020-07-29T07:14:04Z</time>
      </trkpt>
      <trkpt lat="43.1826920" lon="-0.6355940">
        <ele>227.4</ele>
        <time>2020-07-29T07:14:10Z</time>
      </trkpt>
      <trkpt lat="43.1824170" lon="-0.6361190">
        <ele>227.0</ele>
        <time>2020-07-29T07:14:16Z</time>
      </trkpt>
      <trkpt lat="43.1822740" lon="-0.6363860">
        <ele>226.8</ele>
        <time>2020-07-29T07:14:19Z</time>
      </trkpt>
      <trkpt lat="43.1819960" lon="-0.6368980">
        <ele>227.0</ele>
        <time>2020-07-29T07:14:25Z</time>
      </trkpt>
      <trkpt lat="43.1819050" lon="-0.6370660">
        <ele>227.2</ele>
        <time>2020-07-29T07:14:27Z</time>
      </trkpt>
      <trkpt lat="43.1818130" lon="-0.6372390">
        <ele>227.4</ele>
        <time>2020-07-29T07:14:29Z</time>
      </trkpt>
      <trkpt lat="43.1817190" lon="-0.6374120">
        <ele>227.4</ele>
        <time>2020-07-29T07:14:31Z</time>
      </trkpt>
      <trkpt lat="43.1816720" lon="-0.6374980">
        <ele>227.2</ele>
        <time>2020-07-29T07:14:32Z</time>
      </trkpt>
      <trkpt lat="43.1815790" lon="-0.6376710">
        <ele>226.8</ele>
        <time>2020-07-29T07:14:34Z</time>
      </trkpt>
      <trkpt lat="43.1814840" lon="-0.6378470">
        <ele>226.4</ele>
        <time>2020-07-29T07:14:36Z</time>
      </trkpt>
      <trkpt lat="43.1812480" lon="-0.6382850">
        <ele>226.0</ele>
        <time>2020-07-29T07:14:41Z</time>
      </trkpt>
      <trkpt lat="43.1809700" lon="-0.6388100">
        <ele>225.8</ele>
        <time>2020-07-29T07:14:47Z</time>
      </trkpt>
      <trkpt lat="43.1808760" lon="-0.6389860">
        <ele>225.8</ele>
        <time>2020-07-29T07:14:49Z</time>
      </trkpt>
      <trkpt lat="43.1805860" lon="-0.6395010">
        <ele>226.0</ele>
        <time>2020-07-29T07:14:55Z</time>
      </trkpt>
      <trkpt lat="43.1804740" lon="-0.6396520">
        <ele>225.8</ele>
        <time>2020-07-29T07:14:57Z</time>
      </trkpt>
      <trkpt lat="43.1803540" lon="-0.6397890">
        <ele>225.8</ele>
        <time>2020-07-29T07:14:59Z</time>
      </trkpt>
      <trkpt lat="43.1801570" lon="-0.6399630">
        <ele>225.6</ele>
        <time>2020-07-29T07:15:02Z</time>
      </trkpt>
      <trkpt lat="43.1797270" lon="-0.6402620">
        <ele>225.2</ele>
        <time>2020-07-29T07:15:08Z</time>
      </trkpt>
      <trkpt lat="43.1796480" lon="-0.6403080">
        <ele>225.2</ele>
        <time>2020-07-29T07:15:09Z</time>
      </trkpt>
      <trkpt lat="43.1795710" lon="-0.6403540">
        <ele>225.0</ele>
        <time>2020-07-29T07:15:10Z</time>
      </trkpt>
      <trkpt lat="43.1791120" lon="-0.6406390">
        <ele>224.2</ele>
        <time>2020-07-29T07:15:16Z</time>
      </trkpt>
      <trkpt lat="43.1790360" lon="-0.6406870">
        <ele>224.0</ele>
        <time>2020-07-29T07:15:17Z</time>
      </trkpt>
      <trkpt lat="43.1789590" lon="-0.6407340">
        <ele>223.8</ele>
        <time>2020-07-29T07:15:18Z</time>
      </trkpt>
      <trkpt lat="43.1784920" lon="-0.6410200">
        <ele>223.2</ele>
        <time>2020-07-29T07:15:24Z</time>
      </trkpt>
      <trkpt lat="43.1783420" lon="-0.6411240">
        <ele>223.0</ele>
        <time>2020-07-29T07:15:26Z</time>
      </trkpt>
      <trkpt lat="43.1781930" lon="-0.6412380">
        <ele>222.8</ele>
        <time>2020-07-29T07:15:28Z</time>
      </trkpt>
      <trkpt lat="43.1779870" lon="-0.6414590">
        <ele>222.2</ele>
        <time>2020-07-29T07:15:31Z</time>
      </trkpt>
      <trkpt lat="43.1777450" lon="-0.6418040">
        <ele>221.6</ele>
        <time>2020-07-29T07:15:35Z</time>
      </trkpt>
      <trkpt lat="43.1776370" lon="-0.6419900">
        <ele>221.6</ele>
        <time>2020-07-29T07:15:37Z</time>
      </trkpt>
      <trkpt lat="43.1773610" lon="-0.6424500">
        <ele>220.4</ele>
        <time>2020-07-29T07:15:42Z</time>
      </trkpt>
      <trkpt lat="43.1772960" lon="-0.6425250">
        <ele>220.2</ele>
        <time>2020-07-29T07:15:43Z</time>
      </trkpt>
      <trkpt lat="43.1770040" lon="-0.6427870">
        <ele>219.4</ele>
        <time>2020-07-29T07:15:47Z</time>
      </trkpt>
      <trkpt lat="43.1768600" lon="-0.6429200">
        <ele>219.2</ele>
        <time>2020-07-29T07:15:49Z</time>
      </trkpt>
      <trkpt lat="43.1764600" lon="-0.6433750">
        <ele>219.2</ele>
        <time>2020-07-29T07:15:55Z</time>
      </trkpt>
      <trkpt lat="43.1760520" lon="-0.6437990">
        <ele>218.4</ele>
        <time>2020-07-29T07:16:01Z</time>
      </trkpt>
      <trkpt lat="43.1759840" lon="-0.6438690">
        <ele>218.2</ele>
        <time>2020-07-29T07:16:02Z</time>
      </trkpt>
      <trkpt lat="43.1759150" lon="-0.6439380">
        <ele>218.0</ele>
        <time>2020-07-29T07:16:03Z</time>
      </trkpt>
      <trkpt lat="43.1755000" lon="-0.6443770">
        <ele>217.6</ele>
        <time>2020-07-29T07:16:09Z</time>
      </trkpt>
      <trkpt lat="43.1753530" lon="-0.6445140">
        <ele>217.2</ele>
        <time>2020-07-29T07:16:11Z</time>
      </trkpt>
      <trkpt lat="43.1752780" lon="-0.6445780">
        <ele>217.2</ele>
        <time>2020-07-29T07:16:12Z</time>
      </trkpt>
      <trkpt lat="43.1748340" lon="-0.6449710">
        <ele>216.8</ele>
        <time>2020-07-29T07:16:18Z</time>
      </trkpt>
      <trkpt lat="43.1747600" lon="-0.6450310">
        <ele>216.8</ele>
        <time>2020-07-29T07:16:19Z</time>
      </trkpt>
      <trkpt lat="43.1746860" lon="-0.6450860">
        <ele>216.8</ele>
        <time>2020-07-29T07:16:20Z</time>
      </trkpt>
      <trkpt lat="43.1742480" lon="-0.6453540">
        <ele>217.2</ele>
        <time>2020-07-29T07:16:26Z</time>
      </trkpt>
      <trkpt lat="43.1741760" lon="-0.6453940">
        <ele>217.4</ele>
        <time>2020-07-29T07:16:27Z</time>
      </trkpt>
      <trkpt lat="43.1737340" lon="-0.6455950">
        <ele>218.0</ele>
        <time>2020-07-29T07:16:33Z</time>
      </trkpt>
      <trkpt lat="43.1735830" lon="-0.6456610">
        <ele>217.8</ele>
        <time>2020-07-29T07:16:35Z</time>
      </trkpt>
      <trkpt lat="43.1731320" lon="-0.6458550">
        <ele>217.8</ele>
        <time>2020-07-29T07:16:41Z</time>
      </trkpt>
      <trkpt lat="43.1729830" lon="-0.6459230">
        <ele>217.6</ele>
        <time>2020-07-29T07:16:43Z</time>
      </trkpt>
      <trkpt lat="43.1725660" lon="-0.6461220">
        <ele>217.6</ele>
        <time>2020-07-29T07:16:49Z</time>
      </trkpt>
      <trkpt lat="43.1723490" lon="-0.6462110">
        <ele>217.6</ele>
        <time>2020-07-29T07:16:52Z</time>
      </trkpt>
      <trkpt lat="43.1719480" lon="-0.6464080">
        <ele>218.0</ele>
        <time>2020-07-29T07:16:58Z</time>
      </trkpt>
      <trkpt lat="43.1718100" lon="-0.6464710">
        <ele>218.2</ele>
        <time>2020-07-29T07:17:00Z</time>
      </trkpt>
      <trkpt lat="43.1714230" lon="-0.6466890">
        <ele>218.4</ele>
        <time>2020-07-29T07:17:06Z</time>
      </trkpt>
      <trkpt lat="43.1712290" lon="-0.6467870">
        <ele>218.4</ele>
        <time>2020-07-29T07:17:09Z</time>
      </trkpt>
      <trkpt lat="43.1711010" lon="-0.6468510">
        <ele>218.2</ele>
        <time>2020-07-29T07:17:11Z</time>
      </trkpt>
      <trkpt lat="43.1707160" lon="-0.6470390">
        <ele>218.2</ele>
        <time>2020-07-29T07:17:17Z</time>
      </trkpt>
      <trkpt lat="43.1705270" lon="-0.6471400">
        <ele>218.4</ele>
        <time>2020-07-29T07:17:20Z</time>
      </trkpt>
      <trkpt lat="43.1702260" lon="-0.6473040">
        <ele>218.6</ele>
        <time>2020-07-29T07:17:25Z</time>
      </trkpt>
      <trkpt lat="43.1699680" lon="-0.6475050">
        <ele>218.4</ele>
        <time>2020-07-29T07:17:29Z</time>
      </trkpt>
      <trkpt lat="43.1699070" lon="-0.6475720">
        <ele>218.2</ele>
        <time>2020-07-29T07:17:30Z</time>
      </trkpt>
      <trkpt lat="43.1697980" lon="-0.6477190">
        <ele>217.8</ele>
        <time>2020-07-29T07:17:32Z</time>
      </trkpt>
      <trkpt lat="43.1697130" lon="-0.6478820">
        <ele>217.6</ele>
        <time>2020-07-29T07:17:34Z</time>
      </trkpt>
      <trkpt lat="43.1696750" lon="-0.6479580">
        <ele>217.6</ele>
        <time>2020-07-29T07:17:35Z</time>
      </trkpt>
      <trkpt lat="43.1694390" lon="-0.6484450">
        <ele>218.6</ele>
        <time>2020-07-29T07:17:41Z</time>
      </trkpt>
      <trkpt lat="43.1692640" lon="-0.6488510">
        <ele>219.0</ele>
        <time>2020-07-29T07:17:46Z</time>
      </trkpt>
      <trkpt lat="43.1691570" lon="-0.6490880">
        <ele>219.0</ele>
        <time>2020-07-29T07:17:49Z</time>
      </trkpt>
      <trkpt lat="43.1689750" lon="-0.6494940">
        <ele>217.2</ele>
        <time>2020-07-29T07:17:54Z</time>
      </trkpt>
      <trkpt lat="43.1689450" lon="-0.6495800">
        <ele>216.6</ele>
        <time>2020-07-29T07:17:55Z</time>
      </trkpt>
      <trkpt lat="43.1688940" lon="-0.6497710">
        <ele>215.6</ele>
        <time>2020-07-29T07:17:57Z</time>
      </trkpt>
      <trkpt lat="43.1688480" lon="-0.6501010">
        <ele>214.2</ele>
        <time>2020-07-29T07:18:00Z</time>
      </trkpt>
      <trkpt lat="43.1688330" lon="-0.6504830">
        <ele>213.0</ele>
        <time>2020-07-29T07:18:03Z</time>
      </trkpt>
      <trkpt lat="43.1688210" lon="-0.6509000">
        <ele>212.2</ele>
        <time>2020-07-29T07:18:06Z</time>
      </trkpt>
      <trkpt lat="43.1688150" lon="-0.6514540">
        <ele>212.8</ele>
        <time>2020-07-29T07:18:11Z</time>
      </trkpt>
      <trkpt lat="43.1688180" lon="-0.6516640">
        <ele>213.4</ele>
        <time>2020-07-29T07:18:13Z</time>
      </trkpt>
      <trkpt lat="43.1688190" lon="-0.6517670">
        <ele>213.4</ele>
        <time>2020-07-29T07:18:14Z</time>
      </trkpt>
      <trkpt lat="43.1688250" lon="-0.6523730">
        <ele>213.6</ele>
        <time>2020-07-29T07:18:20Z</time>
      </trkpt>
      <trkpt lat="43.1688360" lon="-0.6526730">
        <ele>213.8</ele>
        <time>2020-07-29T07:18:23Z</time>
      </trkpt>
      <trkpt lat="43.1688730" lon="-0.6533050">
        <ele>213.4</ele>
        <time>2020-07-29T07:18:29Z</time>
      </trkpt>
      <trkpt lat="43.1688840" lon="-0.6535220">
        <ele>213.2</ele>
        <time>2020-07-29T07:18:31Z</time>
      </trkpt>
      <trkpt lat="43.1689070" lon="-0.6541510">
        <ele>213.0</ele>
        <time>2020-07-29T07:18:37Z</time>
      </trkpt>
      <trkpt lat="43.1689150" lon="-0.6544650">
        <ele>213.2</ele>
        <time>2020-07-29T07:18:40Z</time>
      </trkpt>
      <trkpt lat="43.1689300" lon="-0.6548670">
        <ele>213.2</ele>
        <time>2020-07-29T07:18:44Z</time>
      </trkpt>
      <trkpt lat="43.1689510" lon="-0.6554600">
        <ele>213.2</ele>
        <time>2020-07-29T07:18:50Z</time>
      </trkpt>
      <trkpt lat="43.1689640" lon="-0.6559430">
        <ele>213.2</ele>
        <time>2020-07-29T07:18:55Z</time>
      </trkpt>
      <trkpt lat="43.1689720" lon="-0.6562430">
        <ele>213.0</ele>
        <time>2020-07-29T07:18:58Z</time>
      </trkpt>
      <trkpt lat="43.1689930" lon="-0.6568280">
        <ele>212.8</ele>
        <time>2020-07-29T07:19:04Z</time>
      </trkpt>
      <trkpt lat="43.1690060" lon="-0.6572140">
        <ele>212.6</ele>
        <time>2020-07-29T07:19:08Z</time>
      </trkpt>
      <trkpt lat="43.1690220" lon="-0.6578000">
        <ele>213.2</ele>
        <time>2020-07-29T07:19:14Z</time>
      </trkpt>
      <trkpt lat="43.1690050" lon="-0.6581980">
        <ele>213.2</ele>
        <time>2020-07-29T07:19:18Z</time>
      </trkpt>
      <trkpt lat="43.1689890" lon="-0.6583960">
        <ele>213.2</ele>
        <time>2020-07-29T07:19:20Z</time>
      </trkpt>
      <trkpt lat="43.1689590" lon="-0.6586900">
        <ele>214.2</ele>
        <time>2020-07-29T07:19:23Z</time>
      </trkpt>
      <trkpt lat="43.1689400" lon="-0.6588860">
        <ele>214.2</ele>
        <time>2020-07-29T07:19:25Z</time>
      </trkpt>
      <trkpt lat="43.1689140" lon="-0.6591790">
        <ele>214.0</ele>
        <time>2020-07-29T07:19:28Z</time>
      </trkpt>
      <trkpt lat="43.1688860" lon="-0.6594760">
        <ele>213.8</ele>
        <time>2020-07-29T07:19:31Z</time>
      </trkpt>
      <trkpt lat="43.1688260" lon="-0.6600700">
        <ele>213.6</ele>
        <time>2020-07-29T07:19:37Z</time>
      </trkpt>
      <trkpt lat="43.1687910" lon="-0.6604690">
        <ele>213.6</ele>
        <time>2020-07-29T07:19:41Z</time>
      </trkpt>
      <trkpt lat="43.1687320" lon="-0.6610620">
        <ele>214.0</ele>
        <time>2020-07-29T07:19:47Z</time>
      </trkpt>
      <trkpt lat="43.1687030" lon="-0.6613580">
        <ele>214.6</ele>
        <time>2020-07-29T07:19:50Z</time>
      </trkpt>
      <trkpt lat="43.1686740" lon="-0.6616560">
        <ele>215.2</ele>
        <time>2020-07-29T07:19:53Z</time>
      </trkpt>
      <trkpt lat="43.1686180" lon="-0.6622580">
        <ele>215.6</ele>
        <time>2020-07-29T07:19:59Z</time>
      </trkpt>
      <trkpt lat="43.1685700" lon="-0.6627630">
        <ele>215.8</ele>
        <time>2020-07-29T07:20:04Z</time>
      </trkpt>
      <trkpt lat="43.1685500" lon="-0.6629640">
        <ele>216.2</ele>
        <time>2020-07-29T07:20:06Z</time>
      </trkpt>
      <trkpt lat="43.1684930" lon="-0.6635730">
        <ele>215.8</ele>
        <time>2020-07-29T07:20:12Z</time>
      </trkpt>
      <trkpt lat="43.1684540" lon="-0.6639780">
        <ele>215.8</ele>
        <time>2020-07-29T07:20:16Z</time>
      </trkpt>
      <trkpt lat="43.1683970" lon="-0.6645840">
        <ele>215.8</ele>
        <time>2020-07-29T07:20:22Z</time>
      </trkpt>
      <trkpt lat="43.1683490" lon="-0.6650850">
        <ele>215.6</ele>
        <time>2020-07-29T07:20:27Z</time>
      </trkpt>
      <trkpt lat="43.1683210" lon="-0.6653860">
        <ele>215.6</ele>
        <time>2020-07-29T07:20:30Z</time>
      </trkpt>
      <trkpt lat="43.1682710" lon="-0.6659900">
        <ele>216.2</ele>
        <time>2020-07-29T07:20:36Z</time>
      </trkpt>
      <trkpt lat="43.1682630" lon="-0.6660890">
        <ele>216.2</ele>
        <time>2020-07-29T07:20:37Z</time>
      </trkpt>
      <trkpt lat="43.1682190" lon="-0.6664860">
        <ele>216.2</ele>
        <time>2020-07-29T07:20:41Z</time>
      </trkpt>
      <trkpt lat="43.1681280" lon="-0.6669670">
        <ele>216.4</ele>
        <time>2020-07-29T07:20:46Z</time>
      </trkpt>
      <trkpt lat="43.1679720" lon="-0.6675090">
        <ele>217.0</ele>
        <time>2020-07-29T07:20:52Z</time>
      </trkpt>
      <trkpt lat="43.1678830" lon="-0.6677570">
        <ele>217.2</ele>
        <time>2020-07-29T07:20:55Z</time>
      </trkpt>
      <trkpt lat="43.1677090" lon="-0.6681920">
        <ele>218.0</ele>
        <time>2020-07-29T07:21:01Z</time>
      </trkpt>
      <trkpt lat="43.1676790" lon="-0.6682550">
        <ele>218.6</ele>
        <time>2020-07-29T07:21:02Z</time>
      </trkpt>
      <trkpt lat="43.1676210" lon="-0.6683740">
        <ele>219.8</ele>
        <time>2020-07-29T07:21:04Z</time>
      </trkpt>
      <trkpt lat="43.1674460" lon="-0.6686960">
        <ele>220.6</ele>
        <time>2020-07-29T07:21:10Z</time>
      </trkpt>
      <trkpt lat="43.1673930" lon="-0.6687990">
        <ele>220.8</ele>
        <time>2020-07-29T07:21:12Z</time>
      </trkpt>
      <trkpt lat="43.1673190" lon="-0.6689530">
        <ele>222.2</ele>
        <time>2020-07-29T07:21:15Z</time>
      </trkpt>
      <trkpt lat="43.1672190" lon="-0.6691600">
        <ele>223.4</ele>
        <time>2020-07-29T07:21:19Z</time>
      </trkpt>
      <trkpt lat="43.1671960" lon="-0.6692100">
        <ele>223.6</ele>
        <time>2020-07-29T07:21:20Z</time>
      </trkpt>
      <trkpt lat="43.1671020" lon="-0.6694130">
        <ele>224.6</ele>
        <time>2020-07-29T07:21:24Z</time>
      </trkpt>
      <trkpt lat="43.1669960" lon="-0.6696830">
        <ele>225.8</ele>
        <time>2020-07-29T07:21:29Z</time>
      </trkpt>
      <trkpt lat="43.1668820" lon="-0.6700180">
        <ele>226.8</ele>
        <time>2020-07-29T07:21:35Z</time>
      </trkpt>
      <trkpt lat="43.1668640" lon="-0.6700770">
        <ele>226.8</ele>
        <time>2020-07-29T07:21:36Z</time>
      </trkpt>
      <trkpt lat="43.1667530" lon="-0.6704440">
        <ele>227.6</ele>
        <time>2020-07-29T07:21:42Z</time>
      </trkpt>
      <trkpt lat="43.1667150" lon="-0.6705710">
        <ele>227.8</ele>
        <time>2020-07-29T07:21:44Z</time>
      </trkpt>
      <trkpt lat="43.1665980" lon="-0.6709740">
        <ele>228.0</ele>
        <time>2020-07-29T07:21:50Z</time>
      </trkpt>
      <trkpt lat="43.1665590" lon="-0.6711100">
        <ele>227.8</ele>
        <time>2020-07-29T07:21:52Z</time>
      </trkpt>
      <trkpt lat="43.1665190" lon="-0.6712480">
        <ele>228.2</ele>
        <time>2020-07-29T07:21:54Z</time>
      </trkpt>
      <trkpt lat="43.1663950" lon="-0.6716650">
        <ele>228.4</ele>
        <time>2020-07-29T07:22:00Z</time>
      </trkpt>
      <trkpt lat="43.1663740" lon="-0.6717330">
        <ele>228.4</ele>
        <time>2020-07-29T07:22:01Z</time>
      </trkpt>
      <trkpt lat="43.1662700" lon="-0.6720730">
        <ele>228.8</ele>
        <time>2020-07-29T07:22:06Z</time>
      </trkpt>
      <trkpt lat="43.1662490" lon="-0.6721380">
        <ele>229.0</ele>
        <time>2020-07-29T07:22:07Z</time>
      </trkpt>
      <trkpt lat="43.1661580" lon="-0.6724260">
        <ele>229.0</ele>
        <time>2020-07-29T07:22:11Z</time>
      </trkpt>
      <trkpt lat="43.1661170" lon="-0.6725750">
        <ele>229.0</ele>
        <time>2020-07-29T07:22:13Z</time>
      </trkpt>
      <trkpt lat="43.1659820" lon="-0.6730290">
        <ele>229.4</ele>
        <time>2020-07-29T07:22:19Z</time>
      </trkpt>
      <trkpt lat="43.1659090" lon="-0.6732600">
        <ele>229.8</ele>
        <time>2020-07-29T07:22:22Z</time>
      </trkpt>
      <trkpt lat="43.1658580" lon="-0.6734160">
        <ele>229.8</ele>
        <time>2020-07-29T07:22:24Z</time>
      </trkpt>
      <trkpt lat="43.1658330" lon="-0.6734920">
        <ele>229.8</ele>
        <time>2020-07-29T07:22:25Z</time>
      </trkpt>
      <trkpt lat="43.1657840" lon="-0.6736380">
        <ele>229.8</ele>
        <time>2020-07-29T07:22:27Z</time>
      </trkpt>
      <trkpt lat="43.1657120" lon="-0.6738630">
        <ele>229.8</ele>
        <time>2020-07-29T07:22:30Z</time>
      </trkpt>
      <trkpt lat="43.1655740" lon="-0.6743440">
        <ele>229.8</ele>
        <time>2020-07-29T07:22:36Z</time>
      </trkpt>
      <trkpt lat="43.1654760" lon="-0.6746680">
        <ele>229.6</ele>
        <time>2020-07-29T07:22:40Z</time>
      </trkpt>
      <trkpt lat="43.1654020" lon="-0.6749120">
        <ele>229.6</ele>
        <time>2020-07-29T07:22:43Z</time>
      </trkpt>
      <trkpt lat="43.1653780" lon="-0.6749930">
        <ele>229.6</ele>
        <time>2020-07-29T07:22:44Z</time>
      </trkpt>
      <trkpt lat="43.1653020" lon="-0.6752340">
        <ele>229.8</ele>
        <time>2020-07-29T07:22:47Z</time>
      </trkpt>
      <trkpt lat="43.1652280" lon="-0.6754760">
        <ele>229.8</ele>
        <time>2020-07-29T07:22:50Z</time>
      </trkpt>
      <trkpt lat="43.1650820" lon="-0.6759550">
        <ele>229.8</ele>
        <time>2020-07-29T07:22:56Z</time>
      </trkpt>
      <trkpt lat="43.1650340" lon="-0.6761140">
        <ele>230.2</ele>
        <time>2020-07-29T07:22:58Z</time>
      </trkpt>
      <trkpt lat="43.1649880" lon="-0.6762710">
        <ele>230.2</ele>
        <time>2020-07-29T07:23:00Z</time>
      </trkpt>
      <trkpt lat="43.1648710" lon="-0.6766510">
        <ele>231.2</ele>
        <time>2020-07-29T07:23:05Z</time>
      </trkpt>
      <trkpt lat="43.1648270" lon="-0.6767990">
        <ele>231.8</ele>
        <time>2020-07-29T07:23:07Z</time>
      </trkpt>
      <trkpt lat="43.1647810" lon="-0.6769500">
        <ele>232.0</ele>
        <time>2020-07-29T07:23:09Z</time>
      </trkpt>
      <trkpt lat="43.1646390" lon="-0.6774100">
        <ele>231.4</ele>
        <time>2020-07-29T07:23:15Z</time>
      </trkpt>
      <trkpt lat="43.1645900" lon="-0.6775630">
        <ele>231.2</ele>
        <time>2020-07-29T07:23:17Z</time>
      </trkpt>
      <trkpt lat="43.1645380" lon="-0.6777190">
        <ele>230.6</ele>
        <time>2020-07-29T07:23:19Z</time>
      </trkpt>
      <trkpt lat="43.1644290" lon="-0.6780340">
        <ele>230.2</ele>
        <time>2020-07-29T07:23:23Z</time>
      </trkpt>
      <trkpt lat="43.1642590" lon="-0.6784440">
        <ele>229.6</ele>
        <time>2020-07-29T07:23:28Z</time>
      </trkpt>
      <trkpt lat="43.1641800" lon="-0.6786070">
        <ele>229.0</ele>
        <time>2020-07-29T07:23:30Z</time>
      </trkpt>
      <trkpt lat="43.1639590" lon="-0.6790290">
        <ele>228.0</ele>
        <time>2020-07-29T07:23:35Z</time>
      </trkpt>
      <trkpt lat="43.1639120" lon="-0.6791140">
        <ele>227.8</ele>
        <time>2020-07-29T07:23:36Z</time>
      </trkpt>
      <trkpt lat="43.1636480" lon="-0.6796000">
        <ele>227.8</ele>
        <time>2020-07-29T07:23:42Z</time>
      </trkpt>
      <trkpt lat="43.1635700" lon="-0.6797620">
        <ele>228.2</ele>
        <time>2020-07-29T07:23:44Z</time>
      </trkpt>
      <trkpt lat="43.1634000" lon="-0.6802630">
        <ele>228.6</ele>
        <time>2020-07-29T07:23:50Z</time>
      </trkpt>
      <trkpt lat="43.1633670" lon="-0.6804400">
        <ele>229.0</ele>
        <time>2020-07-29T07:23:52Z</time>
      </trkpt>
      <trkpt lat="43.1633360" lon="-0.6806060">
        <ele>229.4</ele>
        <time>2020-07-29T07:23:54Z</time>
      </trkpt>
      <trkpt lat="43.1632920" lon="-0.6808610">
        <ele>229.4</ele>
        <time>2020-07-29T07:23:57Z</time>
      </trkpt>
      <trkpt lat="43.1632280" lon="-0.6812010">
        <ele>229.4</ele>
        <time>2020-07-29T07:24:01Z</time>
      </trkpt>
      <trkpt lat="43.1631390" lon="-0.6817100">
        <ele>228.8</ele>
        <time>2020-07-29T07:24:07Z</time>
      </trkpt>
      <trkpt lat="43.1631080" lon="-0.6818860">
        <ele>228.6</ele>
        <time>2020-07-29T07:24:09Z</time>
      </trkpt>
      <trkpt lat="43.1630240" lon="-0.6823550">
        <ele>228.0</ele>
        <time>2020-07-29T07:24:14Z</time>
      </trkpt>
      <trkpt lat="43.1629910" lon="-0.6825540">
        <ele>227.8</ele>
        <time>2020-07-29T07:24:16Z</time>
      </trkpt>
      <trkpt lat="43.1629580" lon="-0.6827520">
        <ele>227.8</ele>
        <time>2020-07-29T07:24:18Z</time>
      </trkpt>
      <trkpt lat="43.1628950" lon="-0.6831340">
        <ele>227.8</ele>
        <time>2020-07-29T07:24:22Z</time>
      </trkpt>
      <trkpt lat="43.1628800" lon="-0.6832270">
        <ele>227.8</ele>
        <time>2020-07-29T07:24:23Z</time>
      </trkpt>
      <trkpt lat="43.1628430" lon="-0.6834150">
        <ele>227.6</ele>
        <time>2020-07-29T07:24:25Z</time>
      </trkpt>
      <trkpt lat="43.1627660" lon="-0.6838010">
        <ele>227.0</ele>
        <time>2020-07-29T07:24:29Z</time>
      </trkpt>
      <trkpt lat="43.1627450" lon="-0.6839050">
        <ele>226.8</ele>
        <time>2020-07-29T07:24:30Z</time>
      </trkpt>
      <trkpt lat="43.1626550" lon="-0.6843120">
        <ele>226.4</ele>
        <time>2020-07-29T07:24:34Z</time>
      </trkpt>
      <trkpt lat="43.1625950" lon="-0.6845060">
        <ele>226.0</ele>
        <time>2020-07-29T07:24:36Z</time>
      </trkpt>
      <trkpt lat="43.1625280" lon="-0.6846930">
        <ele>225.8</ele>
        <time>2020-07-29T07:24:38Z</time>
      </trkpt>
      <trkpt lat="43.1624530" lon="-0.6848730">
        <ele>225.8</ele>
        <time>2020-07-29T07:24:40Z</time>
      </trkpt>
      <trkpt lat="43.1622040" lon="-0.6853770">
        <ele>226.4</ele>
        <time>2020-07-29T07:24:46Z</time>
      </trkpt>
      <trkpt lat="43.1621160" lon="-0.6855330">
        <ele>226.4</ele>
        <time>2020-07-29T07:24:48Z</time>
      </trkpt>
      <trkpt lat="43.1619270" lon="-0.6858210">
        <ele>226.8</ele>
        <time>2020-07-29T07:24:52Z</time>
      </trkpt>
      <trkpt lat="43.1618760" lon="-0.6858910">
        <ele>226.8</ele>
        <time>2020-07-29T07:24:53Z</time>
      </trkpt>
      <trkpt lat="43.1615570" lon="-0.6862710">
        <ele>226.8</ele>
        <time>2020-07-29T07:24:59Z</time>
      </trkpt>
      <trkpt lat="43.1614990" lon="-0.6863260">
        <ele>226.8</ele>
        <time>2020-07-29T07:25:00Z</time>
      </trkpt>
      <trkpt lat="43.1612110" lon="-0.6865960">
        <ele>226.6</ele>
        <time>2020-07-29T07:25:05Z</time>
      </trkpt>
      <trkpt lat="43.1611490" lon="-0.6866340">
        <ele>226.6</ele>
        <time>2020-07-29T07:25:06Z</time>
      </trkpt>
      <trkpt lat="43.1609570" lon="-0.6867270">
        <ele>226.6</ele>
        <time>2020-07-29T07:25:09Z</time>
      </trkpt>
      <trkpt lat="43.1608940" lon="-0.6867610">
        <ele>226.8</ele>
        <time>2020-07-29T07:25:10Z</time>
      </trkpt>
      <trkpt lat="43.1607840" lon="-0.6868550">
        <ele>227.2</ele>
        <time>2020-07-29T07:25:12Z</time>
      </trkpt>
      <trkpt lat="43.1606740" lon="-0.6869310">
        <ele>227.8</ele>
        <time>2020-07-29T07:25:14Z</time>
      </trkpt>
      <trkpt lat="43.1606150" lon="-0.6869520">
        <ele>228.0</ele>
        <time>2020-07-29T07:25:15Z</time>
      </trkpt>
      <trkpt lat="43.1605550" lon="-0.6869730">
        <ele>228.2</ele>
        <time>2020-07-29T07:25:16Z</time>
      </trkpt>
      <trkpt lat="43.1604340" lon="-0.6870270">
        <ele>228.8</ele>
        <time>2020-07-29T07:25:18Z</time>
      </trkpt>
      <trkpt lat="43.1603240" lon="-0.6871000">
        <ele>229.0</ele>
        <time>2020-07-29T07:25:20Z</time>
      </trkpt>
      <trkpt lat="43.1602720" lon="-0.6871330">
        <ele>229.4</ele>
        <time>2020-07-29T07:25:21Z</time>
      </trkpt>
      <trkpt lat="43.1601220" lon="-0.6872120">
        <ele>230.4</ele>
        <time>2020-07-29T07:25:24Z</time>
      </trkpt>
      <trkpt lat="43.1599720" lon="-0.6872520">
        <ele>231.0</ele>
        <time>2020-07-29T07:25:27Z</time>
      </trkpt>
      <trkpt lat="43.1598230" lon="-0.6872750">
        <ele>231.6</ele>
        <time>2020-07-29T07:25:30Z</time>
      </trkpt>
      <trkpt lat="43.1597730" lon="-0.6872790">
        <ele>231.8</ele>
        <time>2020-07-29T07:25:31Z</time>
      </trkpt>
      <trkpt lat="43.1596700" lon="-0.6872870">
        <ele>232.2</ele>
        <time>2020-07-29T07:25:33Z</time>
      </trkpt>
      <trkpt lat="43.1595630" lon="-0.6872840">
        <ele>232.4</ele>
        <time>2020-07-29T07:25:35Z</time>
      </trkpt>
      <trkpt lat="43.1595100" lon="-0.6872850">
        <ele>232.6</ele>
        <time>2020-07-29T07:25:36Z</time>
      </trkpt>
      <trkpt lat="43.1591860" lon="-0.6873190">
        <ele>232.8</ele>
        <time>2020-07-29T07:25:42Z</time>
      </trkpt>
      <trkpt lat="43.1590760" lon="-0.6873380">
        <ele>232.8</ele>
        <time>2020-07-29T07:25:44Z</time>
      </trkpt>
      <trkpt lat="43.1589060" lon="-0.6873740">
        <ele>233.0</ele>
        <time>2020-07-29T07:25:47Z</time>
      </trkpt>
      <trkpt lat="43.1586860" lon="-0.6874700">
        <ele>233.2</ele>
        <time>2020-07-29T07:25:51Z</time>
      </trkpt>
      <trkpt lat="43.1585360" lon="-0.6875630">
        <ele>233.8</ele>
        <time>2020-07-29T07:25:54Z</time>
      </trkpt>
      <trkpt lat="43.1582680" lon="-0.6877260">
        <ele>234.2</ele>
        <time>2020-07-29T07:25:59Z</time>
      </trkpt>
      <trkpt lat="43.1579220" lon="-0.6879230">
        <ele>233.2</ele>
        <time>2020-07-29T07:26:05Z</time>
      </trkpt>
      <trkpt lat="43.1578050" lon="-0.6879800">
        <ele>233.2</ele>
        <time>2020-07-29T07:26:07Z</time>
      </trkpt>
      <trkpt lat="43.1574430" lon="-0.6881430">
        <ele>233.4</ele>
        <time>2020-07-29T07:26:13Z</time>
      </trkpt>
      <trkpt lat="43.1573770" lon="-0.6881500">
        <ele>233.2</ele>
        <time>2020-07-29T07:26:14Z</time>
      </trkpt>
      <trkpt lat="43.1572390" lon="-0.6881400">
        <ele>233.0</ele>
        <time>2020-07-29T07:26:16Z</time>
      </trkpt>
      <trkpt lat="43.1570380" lon="-0.6881170">
        <ele>232.8</ele>
        <time>2020-07-29T07:26:19Z</time>
      </trkpt>
      <trkpt lat="43.1569730" lon="-0.6881100">
        <ele>232.8</ele>
        <time>2020-07-29T07:26:20Z</time>
      </trkpt>
      <trkpt lat="43.1569080" lon="-0.6881050">
        <ele>232.6</ele>
        <time>2020-07-29T07:26:21Z</time>
      </trkpt>
      <trkpt lat="43.1565850" lon="-0.6880480">
        <ele>233.0</ele>
        <time>2020-07-29T07:26:26Z</time>
      </trkpt>
      <trkpt lat="43.1564630" lon="-0.6880320">
        <ele>233.4</ele>
        <time>2020-07-29T07:26:28Z</time>
      </trkpt>
      <trkpt lat="43.1561580" lon="-0.6879880">
        <ele>234.0</ele>
        <time>2020-07-29T07:26:33Z</time>
      </trkpt>
      <trkpt lat="43.1560330" lon="-0.6879620">
        <ele>234.4</ele>
        <time>2020-07-29T07:26:35Z</time>
      </trkpt>
      <trkpt lat="43.1558510" lon="-0.6879140">
        <ele>234.6</ele>
        <time>2020-07-29T07:26:38Z</time>
      </trkpt>
      <trkpt lat="43.1556030" lon="-0.6878660">
        <ele>234.8</ele>
        <time>2020-07-29T07:26:42Z</time>
      </trkpt>
      <trkpt lat="43.1554710" lon="-0.6878460">
        <ele>234.6</ele>
        <time>2020-07-29T07:26:44Z</time>
      </trkpt>
      <trkpt lat="43.1551580" lon="-0.6878120">
        <ele>234.4</ele>
        <time>2020-07-29T07:26:49Z</time>
      </trkpt>
      <trkpt lat="43.1548540" lon="-0.6877760">
        <ele>235.0</ele>
        <time>2020-07-29T07:26:54Z</time>
      </trkpt>
      <trkpt lat="43.1547360" lon="-0.6877150">
        <ele>234.8</ele>
        <time>2020-07-29T07:26:56Z</time>
      </trkpt>
      <trkpt lat="43.1546740" lon="-0.6876750">
        <ele>234.8</ele>
        <time>2020-07-29T07:26:57Z</time>
      </trkpt>
      <trkpt lat="43.1544320" lon="-0.6874630">
        <ele>234.2</ele>
        <time>2020-07-29T07:27:01Z</time>
      </trkpt>
      <trkpt lat="43.1540920" lon="-0.6872590">
        <ele>233.4</ele>
        <time>2020-07-29T07:27:06Z</time>
      </trkpt>
      <trkpt lat="43.1538740" lon="-0.6872320">
        <ele>233.4</ele>
        <time>2020-07-29T07:27:09Z</time>
      </trkpt>
      <trkpt lat="43.1538030" lon="-0.6872400">
        <ele>233.6</ele>
        <time>2020-07-29T07:27:10Z</time>
      </trkpt>
      <trkpt lat="43.1536030" lon="-0.6872930">
        <ele>233.8</ele>
        <time>2020-07-29T07:27:13Z</time>
      </trkpt>
      <trkpt lat="43.1534690" lon="-0.6873580">
        <ele>234.0</ele>
        <time>2020-07-29T07:27:15Z</time>
      </trkpt>
      <trkpt lat="43.1530410" lon="-0.6875250">
        <ele>233.6</ele>
        <time>2020-07-29T07:27:21Z</time>
      </trkpt>
      <trkpt lat="43.1528970" lon="-0.6875880">
        <ele>233.8</ele>
        <time>2020-07-29T07:27:23Z</time>
      </trkpt>
      <trkpt lat="43.1524820" lon="-0.6878070">
        <ele>233.2</ele>
        <time>2020-07-29T07:27:29Z</time>
      </trkpt>
      <trkpt lat="43.1523480" lon="-0.6878920">
        <ele>233.2</ele>
        <time>2020-07-29T07:27:31Z</time>
      </trkpt>
      <trkpt lat="43.1522140" lon="-0.6879720">
        <ele>233.2</ele>
        <time>2020-07-29T07:27:33Z</time>
      </trkpt>
      <trkpt lat="43.1518220" lon="-0.6882120">
        <ele>233.8</ele>
        <time>2020-07-29T07:27:39Z</time>
      </trkpt>
      <trkpt lat="43.1517550" lon="-0.6882470">
        <ele>233.8</ele>
        <time>2020-07-29T07:27:40Z</time>
      </trkpt>
      <trkpt lat="43.1513740" lon="-0.6884540">
        <ele>235.0</ele>
        <time>2020-07-29T07:27:46Z</time>
      </trkpt>
      <trkpt lat="43.1513130" lon="-0.6884850">
        <ele>235.2</ele>
        <time>2020-07-29T07:27:47Z</time>
      </trkpt>
      <trkpt lat="43.1511910" lon="-0.6885490">
        <ele>235.4</ele>
        <time>2020-07-29T07:27:49Z</time>
      </trkpt>
      <trkpt lat="43.1511310" lon="-0.6885820">
        <ele>235.4</ele>
        <time>2020-07-29T07:27:50Z</time>
      </trkpt>
      <trkpt lat="43.1508210" lon="-0.6887510">
        <ele>235.8</ele>
        <time>2020-07-29T07:27:55Z</time>
      </trkpt>
      <trkpt lat="43.1506280" lon="-0.6888550">
        <ele>236.0</ele>
        <time>2020-07-29T07:27:58Z</time>
      </trkpt>
      <trkpt lat="43.1504390" lon="-0.6889650">
        <ele>235.6</ele>
        <time>2020-07-29T07:28:01Z</time>
      </trkpt>
      <trkpt lat="43.1500680" lon="-0.6891770">
        <ele>235.8</ele>
        <time>2020-07-29T07:28:07Z</time>
      </trkpt>
      <trkpt lat="43.1497620" lon="-0.6893450">
        <ele>236.2</ele>
        <time>2020-07-29T07:28:12Z</time>
      </trkpt>
      <trkpt lat="43.1497010" lon="-0.6893800">
        <ele>236.4</ele>
        <time>2020-07-29T07:28:13Z</time>
      </trkpt>
      <trkpt lat="43.1493360" lon="-0.6895890">
        <ele>236.6</ele>
        <time>2020-07-29T07:28:19Z</time>
      </trkpt>
      <trkpt lat="43.1490310" lon="-0.6897600">
        <ele>237.2</ele>
        <time>2020-07-29T07:28:24Z</time>
      </trkpt>
      <trkpt lat="43.1489700" lon="-0.6897950">
        <ele>237.4</ele>
        <time>2020-07-29T07:28:25Z</time>
      </trkpt>
      <trkpt lat="43.1485900" lon="-0.6900090">
        <ele>238.6</ele>
        <time>2020-07-29T07:28:31Z</time>
      </trkpt>
      <trkpt lat="43.1485270" lon="-0.6900440">
        <ele>238.6</ele>
        <time>2020-07-29T07:28:32Z</time>
      </trkpt>
      <trkpt lat="43.1481540" lon="-0.6902640">
        <ele>238.6</ele>
        <time>2020-07-29T07:28:38Z</time>
      </trkpt>
      <trkpt lat="43.1480910" lon="-0.6902990">
        <ele>238.6</ele>
        <time>2020-07-29T07:28:39Z</time>
      </trkpt>
      <trkpt lat="43.1477740" lon="-0.6904670">
        <ele>239.6</ele>
        <time>2020-07-29T07:28:44Z</time>
      </trkpt>
      <trkpt lat="43.1475180" lon="-0.6906080">
        <ele>239.8</ele>
        <time>2020-07-29T07:28:48Z</time>
      </trkpt>
      <trkpt lat="43.1471500" lon="-0.6908170">
        <ele>240.2</ele>
        <time>2020-07-29T07:28:54Z</time>
      </trkpt>
      <trkpt lat="43.1467790" lon="-0.6910180">
        <ele>240.2</ele>
        <time>2020-07-29T07:29:00Z</time>
      </trkpt>
      <trkpt lat="43.1465970" lon="-0.6911190">
        <ele>240.8</ele>
        <time>2020-07-29T07:29:03Z</time>
      </trkpt>
      <trkpt lat="43.1462190" lon="-0.6913210">
        <ele>241.2</ele>
        <time>2020-07-29T07:29:09Z</time>
      </trkpt>
      <trkpt lat="43.1460280" lon="-0.6914290">
        <ele>241.4</ele>
        <time>2020-07-29T07:29:12Z</time>
      </trkpt>
      <trkpt lat="43.1459050" lon="-0.6915060">
        <ele>241.8</ele>
        <time>2020-07-29T07:29:14Z</time>
      </trkpt>
      <trkpt lat="43.1455340" lon="-0.6917330">
        <ele>242.2</ele>
        <time>2020-07-29T07:29:20Z</time>
      </trkpt>
      <trkpt lat="43.1454160" lon="-0.6918270">
        <ele>242.6</ele>
        <time>2020-07-29T07:29:22Z</time>
      </trkpt>
      <trkpt lat="43.1453240" lon="-0.6919600">
        <ele>242.8</ele>
        <time>2020-07-29T07:29:24Z</time>
      </trkpt>
      <trkpt lat="43.1452530" lon="-0.6921170">
        <ele>243.0</ele>
        <time>2020-07-29T07:29:26Z</time>
      </trkpt>
      <trkpt lat="43.1451350" lon="-0.6923520">
        <ele>243.0</ele>
        <time>2020-07-29T07:29:29Z</time>
      </trkpt>
      <trkpt lat="43.1450290" lon="-0.6924680">
        <ele>243.0</ele>
        <time>2020-07-29T07:29:31Z</time>
      </trkpt>
      <trkpt lat="43.1449060" lon="-0.6925350">
        <ele>243.0</ele>
        <time>2020-07-29T07:29:33Z</time>
      </trkpt>
      <trkpt lat="43.1447740" lon="-0.6925640">
        <ele>243.0</ele>
        <time>2020-07-29T07:29:35Z</time>
      </trkpt>
      <trkpt lat="43.1447070" lon="-0.6925650">
        <ele>243.0</ele>
        <time>2020-07-29T07:29:36Z</time>
      </trkpt>
      <trkpt lat="43.1444260" lon="-0.6925380">
        <ele>243.0</ele>
        <time>2020-07-29T07:29:40Z</time>
      </trkpt>
      <trkpt lat="43.1440650" lon="-0.6926100">
        <ele>243.2</ele>
        <time>2020-07-29T07:29:45Z</time>
      </trkpt>
      <trkpt lat="43.1438640" lon="-0.6927240">
        <ele>243.2</ele>
        <time>2020-07-29T07:29:48Z</time>
      </trkpt>
      <trkpt lat="43.1436800" lon="-0.6928640">
        <ele>243.0</ele>
        <time>2020-07-29T07:29:51Z</time>
      </trkpt>
      <trkpt lat="43.1433070" lon="-0.6931490">
        <ele>243.6</ele>
        <time>2020-07-29T07:29:57Z</time>
      </trkpt>
      <trkpt lat="43.1431780" lon="-0.6932460">
        <ele>243.8</ele>
        <time>2020-07-29T07:29:59Z</time>
      </trkpt>
      <trkpt lat="43.1430480" lon="-0.6933420">
        <ele>243.8</ele>
        <time>2020-07-29T07:30:01Z</time>
      </trkpt>
      <trkpt lat="43.1429840" lon="-0.6933920">
        <ele>243.8</ele>
        <time>2020-07-29T07:30:02Z</time>
      </trkpt>
      <trkpt lat="43.1429200" lon="-0.6934410">
        <ele>243.8</ele>
        <time>2020-07-29T07:30:03Z</time>
      </trkpt>
      <trkpt lat="43.1428540" lon="-0.6934870">
        <ele>243.8</ele>
        <time>2020-07-29T07:30:04Z</time>
      </trkpt>
      <trkpt lat="43.1427280" lon="-0.6935830">
        <ele>243.4</ele>
        <time>2020-07-29T07:30:06Z</time>
      </trkpt>
      <trkpt lat="43.1426020" lon="-0.6936920">
        <ele>243.4</ele>
        <time>2020-07-29T07:30:08Z</time>
      </trkpt>
      <trkpt lat="43.1424040" lon="-0.6938460">
        <ele>243.4</ele>
        <time>2020-07-29T07:30:11Z</time>
      </trkpt>
      <trkpt lat="43.1422720" lon="-0.6939490">
        <ele>243.6</ele>
        <time>2020-07-29T07:30:13Z</time>
      </trkpt>
      <trkpt lat="43.1421430" lon="-0.6940540">
        <ele>243.6</ele>
        <time>2020-07-29T07:30:15Z</time>
      </trkpt>
      <trkpt lat="43.1418250" lon="-0.6943220">
        <ele>244.0</ele>
        <time>2020-07-29T07:30:20Z</time>
      </trkpt>
      <trkpt lat="43.1414860" lon="-0.6945850">
        <ele>243.8</ele>
        <time>2020-07-29T07:30:25Z</time>
      </trkpt>
      <trkpt lat="43.1412810" lon="-0.6947500">
        <ele>243.6</ele>
        <time>2020-07-29T07:30:28Z</time>
      </trkpt>
      <trkpt lat="43.1411440" lon="-0.6948620">
        <ele>243.4</ele>
        <time>2020-07-29T07:30:30Z</time>
      </trkpt>
      <trkpt lat="43.1410750" lon="-0.6949160">
        <ele>243.4</ele>
        <time>2020-07-29T07:30:31Z</time>
      </trkpt>
      <trkpt lat="43.1409360" lon="-0.6950220">
        <ele>243.4</ele>
        <time>2020-07-29T07:30:33Z</time>
      </trkpt>
      <trkpt lat="43.1405210" lon="-0.6953220">
        <ele>243.4</ele>
        <time>2020-07-29T07:30:39Z</time>
      </trkpt>
      <trkpt lat="43.1404510" lon="-0.6953690">
        <ele>243.6</ele>
        <time>2020-07-29T07:30:40Z</time>
      </trkpt>
      <trkpt lat="43.1401070" lon="-0.6955900">
        <ele>244.2</ele>
        <time>2020-07-29T07:30:45Z</time>
      </trkpt>
      <trkpt lat="43.1397590" lon="-0.6958100">
        <ele>244.8</ele>
        <time>2020-07-29T07:30:50Z</time>
      </trkpt>
      <trkpt lat="43.1393350" lon="-0.6961100">
        <ele>245.0</ele>
        <time>2020-07-29T07:30:56Z</time>
      </trkpt>
      <trkpt lat="43.1391320" lon="-0.6962550">
        <ele>245.4</ele>
        <time>2020-07-29T07:30:59Z</time>
      </trkpt>
      <trkpt lat="43.1389350" lon="-0.6963760">
        <ele>245.8</ele>
        <time>2020-07-29T07:31:02Z</time>
      </trkpt>
      <trkpt lat="43.1388060" lon="-0.6964520">
        <ele>246.4</ele>
        <time>2020-07-29T07:31:04Z</time>
      </trkpt>
      <trkpt lat="43.1386100" lon="-0.6965640">
        <ele>246.8</ele>
        <time>2020-07-29T07:31:07Z</time>
      </trkpt>
      <trkpt lat="43.1384160" lon="-0.6966840">
        <ele>247.0</ele>
        <time>2020-07-29T07:31:10Z</time>
      </trkpt>
      <trkpt lat="43.1382240" lon="-0.6968180">
        <ele>247.2</ele>
        <time>2020-07-29T07:31:13Z</time>
      </trkpt>
      <trkpt lat="43.1378700" lon="-0.6971540">
        <ele>247.0</ele>
        <time>2020-07-29T07:31:19Z</time>
      </trkpt>
      <trkpt lat="43.1378160" lon="-0.6972150">
        <ele>247.0</ele>
        <time>2020-07-29T07:31:20Z</time>
      </trkpt>
      <trkpt lat="43.1375150" lon="-0.6976420">
        <ele>246.8</ele>
        <time>2020-07-29T07:31:26Z</time>
      </trkpt>
      <trkpt lat="43.1374210" lon="-0.6978040">
        <ele>246.8</ele>
        <time>2020-07-29T07:31:28Z</time>
      </trkpt>
      <trkpt lat="43.1373030" lon="-0.6980710">
        <ele>247.6</ele>
        <time>2020-07-29T07:31:31Z</time>
      </trkpt>
      <trkpt lat="43.1372710" lon="-0.6981600">
        <ele>247.8</ele>
        <time>2020-07-29T07:31:32Z</time>
      </trkpt>
      <trkpt lat="43.1372140" lon="-0.6983390">
        <ele>248.2</ele>
        <time>2020-07-29T07:31:34Z</time>
      </trkpt>
      <trkpt lat="43.1371190" lon="-0.6986810">
        <ele>249.2</ele>
        <time>2020-07-29T07:31:38Z</time>
      </trkpt>
      <trkpt lat="43.1370380" lon="-0.6989240">
        <ele>250.0</ele>
        <time>2020-07-29T07:31:41Z</time>
      </trkpt>
      <trkpt lat="43.1370080" lon="-0.6990050">
        <ele>250.2</ele>
        <time>2020-07-29T07:31:42Z</time>
      </trkpt>
      <trkpt lat="43.1369760" lon="-0.6990890">
        <ele>250.2</ele>
        <time>2020-07-29T07:31:43Z</time>
      </trkpt>
      <trkpt lat="43.1369410" lon="-0.6991710">
        <ele>250.2</ele>
        <time>2020-07-29T07:31:44Z</time>
      </trkpt>
      <trkpt lat="43.1368360" lon="-0.6994140">
        <ele>250.2</ele>
        <time>2020-07-29T07:31:47Z</time>
      </trkpt>
      <trkpt lat="43.1366750" lon="-0.6997240">
        <ele>250.6</ele>
        <time>2020-07-29T07:31:51Z</time>
      </trkpt>
      <trkpt lat="43.1365380" lon="-0.6999530">
        <ele>250.6</ele>
        <time>2020-07-29T07:31:54Z</time>
      </trkpt>
      <trkpt lat="43.1363340" lon="-0.7002310">
        <ele>250.0</ele>
        <time>2020-07-29T07:31:58Z</time>
      </trkpt>
      <trkpt lat="43.1359930" lon="-0.7005980">
        <ele>250.0</ele>
        <time>2020-07-29T07:32:04Z</time>
      </trkpt>
      <trkpt lat="43.1359330" lon="-0.7006550">
        <ele>250.2</ele>
        <time>2020-07-29T07:32:05Z</time>
      </trkpt>
      <trkpt lat="43.1355800" lon="-0.7010140">
        <ele>250.4</ele>
        <time>2020-07-29T07:32:11Z</time>
      </trkpt>
      <trkpt lat="43.1354080" lon="-0.7011990">
        <ele>250.2</ele>
        <time>2020-07-29T07:32:14Z</time>
      </trkpt>
      <trkpt lat="43.1350650" lon="-0.7015720">
        <ele>250.6</ele>
        <time>2020-07-29T07:32:20Z</time>
      </trkpt>
      <trkpt lat="43.1348870" lon="-0.7017630">
        <ele>250.8</ele>
        <time>2020-07-29T07:32:23Z</time>
      </trkpt>
      <trkpt lat="43.1347670" lon="-0.7018930">
        <ele>250.8</ele>
        <time>2020-07-29T07:32:25Z</time>
      </trkpt>
      <trkpt lat="43.1347070" lon="-0.7019580">
        <ele>250.8</ele>
        <time>2020-07-29T07:32:26Z</time>
      </trkpt>
      <trkpt lat="43.1343570" lon="-0.7023880">
        <ele>250.4</ele>
        <time>2020-07-29T07:32:32Z</time>
      </trkpt>
      <trkpt lat="43.1342560" lon="-0.7025560">
        <ele>250.2</ele>
        <time>2020-07-29T07:32:34Z</time>
      </trkpt>
      <trkpt lat="43.1339950" lon="-0.7030850">
        <ele>250.2</ele>
        <time>2020-07-29T07:32:40Z</time>
      </trkpt>
      <trkpt lat="43.1339600" lon="-0.7031770">
        <ele>250.2</ele>
        <time>2020-07-29T07:32:41Z</time>
      </trkpt>
      <trkpt lat="43.1337710" lon="-0.7037320">
        <ele>250.8</ele>
        <time>2020-07-29T07:32:47Z</time>
      </trkpt>
      <trkpt lat="43.1337020" lon="-0.7039010">
        <ele>251.2</ele>
        <time>2020-07-29T07:32:49Z</time>
      </trkpt>
      <trkpt lat="43.1336240" lon="-0.7040640">
        <ele>251.2</ele>
        <time>2020-07-29T07:32:51Z</time>
      </trkpt>
      <trkpt lat="43.1333610" lon="-0.7045280">
        <ele>251.0</ele>
        <time>2020-07-29T07:32:57Z</time>
      </trkpt>
      <trkpt lat="43.1331500" lon="-0.7048370">
        <ele>250.2</ele>
        <time>2020-07-29T07:33:01Z</time>
      </trkpt>
      <trkpt lat="43.1329290" lon="-0.7051470">
        <ele>249.6</ele>
        <time>2020-07-29T07:33:05Z</time>
      </trkpt>
      <trkpt lat="43.1327120" lon="-0.7054730">
        <ele>249.2</ele>
        <time>2020-07-29T07:33:09Z</time>
      </trkpt>
      <trkpt lat="43.1324410" lon="-0.7058670">
        <ele>249.4</ele>
        <time>2020-07-29T07:33:14Z</time>
      </trkpt>
      <trkpt lat="43.1321230" lon="-0.7063140">
        <ele>249.8</ele>
        <time>2020-07-29T07:33:20Z</time>
      </trkpt>
      <trkpt lat="43.1319220" lon="-0.7066050">
        <ele>250.0</ele>
        <time>2020-07-29T07:33:24Z</time>
      </trkpt>
      <trkpt lat="43.1316680" lon="-0.7069290">
        <ele>250.2</ele>
        <time>2020-07-29T07:33:29Z</time>
      </trkpt>
      <trkpt lat="43.1315640" lon="-0.7070380">
        <ele>250.6</ele>
        <time>2020-07-29T07:33:31Z</time>
      </trkpt>
      <trkpt lat="43.1313010" lon="-0.7072640">
        <ele>251.4</ele>
        <time>2020-07-29T07:33:36Z</time>
      </trkpt>
      <trkpt lat="43.1311460" lon="-0.7073850">
        <ele>252.0</ele>
        <time>2020-07-29T07:33:39Z</time>
      </trkpt>
      <trkpt lat="43.1310030" lon="-0.7075090">
        <ele>252.6</ele>
        <time>2020-07-29T07:33:42Z</time>
      </trkpt>
      <trkpt lat="43.1308100" lon="-0.7076630">
        <ele>253.8</ele>
        <time>2020-07-29T07:33:46Z</time>
      </trkpt>
      <trkpt lat="43.1305130" lon="-0.7079010">
        <ele>254.4</ele>
        <time>2020-07-29T07:33:52Z</time>
      </trkpt>
      <trkpt lat="43.1304050" lon="-0.7079840">
        <ele>254.2</ele>
        <time>2020-07-29T07:33:54Z</time>
      </trkpt>
      <trkpt lat="43.1303490" lon="-0.7080270">
        <ele>254.2</ele>
        <time>2020-07-29T07:33:55Z</time>
      </trkpt>
      <trkpt lat="43.1299930" lon="-0.7083120">
        <ele>253.2</ele>
        <time>2020-07-29T07:34:01Z</time>
      </trkpt>
      <trkpt lat="43.1298620" lon="-0.7084160">
        <ele>252.6</ele>
        <time>2020-07-29T07:34:03Z</time>
      </trkpt>
      <trkpt lat="43.1294540" lon="-0.7087440">
        <ele>251.6</ele>
        <time>2020-07-29T07:34:09Z</time>
      </trkpt>
      <trkpt lat="43.1293860" lon="-0.7088000">
        <ele>251.4</ele>
        <time>2020-07-29T07:34:10Z</time>
      </trkpt>
      <trkpt lat="43.1292490" lon="-0.7089200">
        <ele>251.0</ele>
        <time>2020-07-29T07:34:12Z</time>
      </trkpt>
      <trkpt lat="43.1290420" lon="-0.7091070">
        <ele>250.4</ele>
        <time>2020-07-29T07:34:15Z</time>
      </trkpt>
      <trkpt lat="43.1287050" lon="-0.7094360">
        <ele>250.0</ele>
        <time>2020-07-29T07:34:20Z</time>
      </trkpt>
      <trkpt lat="43.1283650" lon="-0.7099190">
        <ele>250.8</ele>
        <time>2020-07-29T07:34:26Z</time>
      </trkpt>
      <trkpt lat="43.1283170" lon="-0.7100060">
        <ele>251.0</ele>
        <time>2020-07-29T07:34:27Z</time>
      </trkpt>
      <trkpt lat="43.1280840" lon="-0.7105800">
        <ele>250.8</ele>
        <time>2020-07-29T07:34:33Z</time>
      </trkpt>
      <trkpt lat="43.1279460" lon="-0.7111980">
        <ele>251.0</ele>
        <time>2020-07-29T07:34:39Z</time>
      </trkpt>
      <trkpt lat="43.1279100" lon="-0.7115100">
        <ele>251.6</ele>
        <time>2020-07-29T07:34:42Z</time>
      </trkpt>
      <trkpt lat="43.1278780" lon="-0.7118140">
        <ele>251.8</ele>
        <time>2020-07-29T07:34:45Z</time>
      </trkpt>
      <trkpt lat="43.1278670" lon="-0.7119120">
        <ele>252.0</ele>
        <time>2020-07-29T07:34:46Z</time>
      </trkpt>
      <trkpt lat="43.1278310" lon="-0.7122080">
        <ele>252.0</ele>
        <time>2020-07-29T07:34:49Z</time>
      </trkpt>
      <trkpt lat="43.1277610" lon="-0.7127920">
        <ele>252.0</ele>
        <time>2020-07-29T07:34:55Z</time>
      </trkpt>
      <trkpt lat="43.1276900" lon="-0.7133790">
        <ele>252.6</ele>
        <time>2020-07-29T07:35:01Z</time>
      </trkpt>
      <trkpt lat="43.1276790" lon="-0.7134770">
        <ele>252.8</ele>
        <time>2020-07-29T07:35:02Z</time>
      </trkpt>
      <trkpt lat="43.1276140" lon="-0.7139670">
        <ele>253.2</ele>
        <time>2020-07-29T07:35:07Z</time>
      </trkpt>
      <trkpt lat="43.1275780" lon="-0.7142590">
        <ele>252.8</ele>
        <time>2020-07-29T07:35:10Z</time>
      </trkpt>
      <trkpt lat="43.1275530" lon="-0.7144520">
        <ele>252.6</ele>
        <time>2020-07-29T07:35:12Z</time>
      </trkpt>
      <trkpt lat="43.1274900" lon="-0.7149310">
        <ele>253.2</ele>
        <time>2020-07-29T07:35:17Z</time>
      </trkpt>
      <trkpt lat="43.1274130" lon="-0.7155150">
        <ele>253.8</ele>
        <time>2020-07-29T07:35:23Z</time>
      </trkpt>
      <trkpt lat="43.1273360" lon="-0.7161060">
        <ele>253.8</ele>
        <time>2020-07-29T07:35:29Z</time>
      </trkpt>
      <trkpt lat="43.1272600" lon="-0.7166940">
        <ele>254.4</ele>
        <time>2020-07-29T07:35:35Z</time>
      </trkpt>
      <trkpt lat="43.1271910" lon="-0.7172660">
        <ele>254.4</ele>
        <time>2020-07-29T07:35:41Z</time>
      </trkpt>
      <trkpt lat="43.1271340" lon="-0.7177310">
        <ele>254.8</ele>
        <time>2020-07-29T07:35:46Z</time>
      </trkpt>
      <trkpt lat="43.1271150" lon="-0.7179170">
        <ele>255.2</ele>
        <time>2020-07-29T07:35:48Z</time>
      </trkpt>
      <trkpt lat="43.1270590" lon="-0.7184520">
        <ele>255.8</ele>
        <time>2020-07-29T07:35:54Z</time>
      </trkpt>
      <trkpt lat="43.1270230" lon="-0.7187110">
        <ele>256.4</ele>
        <time>2020-07-29T07:35:57Z</time>
      </trkpt>
      <trkpt lat="43.1269290" lon="-0.7192170">
        <ele>256.8</ele>
        <time>2020-07-29T07:36:03Z</time>
      </trkpt>
      <trkpt lat="43.1269090" lon="-0.7192990">
        <ele>256.8</ele>
        <time>2020-07-29T07:36:04Z</time>
      </trkpt>
      <trkpt lat="43.1268670" lon="-0.7194620">
        <ele>257.4</ele>
        <time>2020-07-29T07:36:06Z</time>
      </trkpt>
      <trkpt lat="43.1268210" lon="-0.7196210">
        <ele>257.8</ele>
        <time>2020-07-29T07:36:08Z</time>
      </trkpt>
      <trkpt lat="43.1267150" lon="-0.7199320">
        <ele>258.2</ele>
        <time>2020-07-29T07:36:12Z</time>
      </trkpt>
      <trkpt lat="43.1265270" lon="-0.7203850">
        <ele>258.2</ele>
        <time>2020-07-29T07:36:18Z</time>
      </trkpt>
      <trkpt lat="43.1264560" lon="-0.7205310">
        <ele>258.4</ele>
        <time>2020-07-29T07:36:20Z</time>
      </trkpt>
      <trkpt lat="43.1262260" lon="-0.7209390">
        <ele>258.6</ele>
        <time>2020-07-29T07:36:26Z</time>
      </trkpt>
      <trkpt lat="43.1260990" lon="-0.7211320">
        <ele>258.6</ele>
        <time>2020-07-29T07:36:29Z</time>
      </trkpt>
      <trkpt lat="43.1259740" lon="-0.7213230">
        <ele>259.0</ele>
        <time>2020-07-29T07:36:32Z</time>
      </trkpt>
      <trkpt lat="43.1257280" lon="-0.7217000">
        <ele>259.6</ele>
        <time>2020-07-29T07:36:38Z</time>
      </trkpt>
      <trkpt lat="43.1255670" lon="-0.7219470">
        <ele>259.8</ele>
        <time>2020-07-29T07:36:42Z</time>
      </trkpt>
      <trkpt lat="43.1254450" lon="-0.7221270">
        <ele>260.2</ele>
        <time>2020-07-29T07:36:45Z</time>
      </trkpt>
      <trkpt lat="43.1252050" lon="-0.7224910">
        <ele>261.2</ele>
        <time>2020-07-29T07:36:51Z</time>
      </trkpt>
      <trkpt lat="43.1249610" lon="-0.7228760">
        <ele>261.8</ele>
        <time>2020-07-29T07:36:57Z</time>
      </trkpt>
      <trkpt lat="43.1248340" lon="-0.7230610">
        <ele>261.8</ele>
        <time>2020-07-29T07:37:00Z</time>
      </trkpt>
      <trkpt lat="43.1245880" lon="-0.7234180">
        <ele>262.0</ele>
        <time>2020-07-29T07:37:06Z</time>
      </trkpt>
      <trkpt lat="43.1244980" lon="-0.7235370">
        <ele>262.0</ele>
        <time>2020-07-29T07:37:08Z</time>
      </trkpt>
      <trkpt lat="43.1242370" lon="-0.7239230">
        <ele>262.2</ele>
        <time>2020-07-29T07:37:14Z</time>
      </trkpt>
      <trkpt lat="43.1240560" lon="-0.7241830">
        <ele>262.2</ele>
        <time>2020-07-29T07:37:18Z</time>
      </trkpt>
      <trkpt lat="43.1238340" lon="-0.7245270">
        <ele>262.2</ele>
        <time>2020-07-29T07:37:23Z</time>
      </trkpt>
      <trkpt lat="43.1236610" lon="-0.7247920">
        <ele>262.6</ele>
        <time>2020-07-29T07:37:27Z</time>
      </trkpt>
      <trkpt lat="43.1234120" lon="-0.7252070">
        <ele>262.2</ele>
        <time>2020-07-29T07:37:33Z</time>
      </trkpt>
      <trkpt lat="43.1232770" lon="-0.7254030">
        <ele>262.4</ele>
        <time>2020-07-29T07:37:36Z</time>
      </trkpt>
      <trkpt lat="43.1229810" lon="-0.7257720">
        <ele>262.6</ele>
        <time>2020-07-29T07:37:42Z</time>
      </trkpt>
      <trkpt lat="43.1228290" lon="-0.7259520">
        <ele>262.6</ele>
        <time>2020-07-29T07:37:45Z</time>
      </trkpt>
      <trkpt lat="43.1226840" lon="-0.7261390">
        <ele>262.8</ele>
        <time>2020-07-29T07:37:48Z</time>
      </trkpt>
      <trkpt lat="43.1224820" lon="-0.7263870">
        <ele>263.4</ele>
        <time>2020-07-29T07:37:52Z</time>
      </trkpt>
      <trkpt lat="43.1223740" lon="-0.7264930">
        <ele>263.8</ele>
        <time>2020-07-29T07:37:54Z</time>
      </trkpt>
      <trkpt lat="43.1223170" lon="-0.7265330">
        <ele>264.0</ele>
        <time>2020-07-29T07:37:55Z</time>
      </trkpt>
      <trkpt lat="43.1222590" lon="-0.7265650">
        <ele>264.6</ele>
        <time>2020-07-29T07:37:56Z</time>
      </trkpt>
      <trkpt lat="43.1222020" lon="-0.7265910">
        <ele>264.8</ele>
        <time>2020-07-29T07:37:57Z</time>
      </trkpt>
      <trkpt lat="43.1221440" lon="-0.7266070">
        <ele>265.0</ele>
        <time>2020-07-29T07:37:58Z</time>
      </trkpt>
      <trkpt lat="43.1218220" lon="-0.7267020">
        <ele>265.6</ele>
        <time>2020-07-29T07:38:04Z</time>
      </trkpt>
      <trkpt lat="43.1217750" lon="-0.7267240">
        <ele>266.2</ele>
        <time>2020-07-29T07:38:05Z</time>
      </trkpt>
      <trkpt lat="43.1216800" lon="-0.7267710">
        <ele>266.8</ele>
        <time>2020-07-29T07:38:07Z</time>
      </trkpt>
      <trkpt lat="43.1214620" lon="-0.7269180">
        <ele>267.8</ele>
        <time>2020-07-29T07:38:12Z</time>
      </trkpt>
      <trkpt lat="43.1214250" lon="-0.7269530">
        <ele>268.2</ele>
        <time>2020-07-29T07:38:13Z</time>
      </trkpt>
      <trkpt lat="43.1211930" lon="-0.7271920">
        <ele>268.6</ele>
        <time>2020-07-29T07:38:19Z</time>
      </trkpt>
      <trkpt lat="43.1211100" lon="-0.7272820">
        <ele>268.6</ele>
        <time>2020-07-29T07:38:21Z</time>
      </trkpt>
      <trkpt lat="43.1209930" lon="-0.7274420">
        <ele>269.0</ele>
        <time>2020-07-29T07:38:24Z</time>
      </trkpt>
      <trkpt lat="43.1208600" lon="-0.7276910">
        <ele>269.2</ele>
        <time>2020-07-29T07:38:28Z</time>
      </trkpt>
      <trkpt lat="43.1207130" lon="-0.7280110">
        <ele>269.2</ele>
        <time>2020-07-29T07:38:33Z</time>
      </trkpt>
      <trkpt lat="43.1207040" lon="-0.7280820">
        <ele>269.4</ele>
        <time>2020-07-29T07:38:34Z</time>
      </trkpt>
      <trkpt lat="43.1207130" lon="-0.7281610">
        <ele>269.6</ele>
        <time>2020-07-29T07:38:35Z</time>
      </trkpt>
      <trkpt lat="43.1207730" lon="-0.7283070">
        <ele>269.8</ele>
        <time>2020-07-29T07:38:37Z</time>
      </trkpt>
      <trkpt lat="43.1208650" lon="-0.7284370">
        <ele>270.0</ele>
        <time>2020-07-29T07:38:39Z</time>
      </trkpt>
      <trkpt lat="43.1210240" lon="-0.7286850">
        <ele>270.2</ele>
        <time>2020-07-29T07:38:43Z</time>
      </trkpt>
      <trkpt lat="43.1210830" lon="-0.7288280">
        <ele>270.4</ele>
        <time>2020-07-29T07:38:45Z</time>
      </trkpt>
      <trkpt lat="43.1211430" lon="-0.7290630">
        <ele>270.8</ele>
        <time>2020-07-29T07:38:48Z</time>
      </trkpt>
      <trkpt lat="43.1212450" lon="-0.7295650">
        <ele>270.8</ele>
        <time>2020-07-29T07:38:54Z</time>
      </trkpt>
      <trkpt lat="43.1212820" lon="-0.7297200">
        <ele>271.0</ele>
        <time>2020-07-29T07:38:56Z</time>
      </trkpt>
      <trkpt lat="43.1213020" lon="-0.7297960">
        <ele>271.0</ele>
        <time>2020-07-29T07:38:57Z</time>
      </trkpt>
      <trkpt lat="43.1213790" lon="-0.7302870">
        <ele>271.6</ele>
        <time>2020-07-29T07:39:03Z</time>
      </trkpt>
      <trkpt lat="43.1213690" lon="-0.7305310">
        <ele>272.2</ele>
        <time>2020-07-29T07:39:06Z</time>
      </trkpt>
      <trkpt lat="43.1213360" lon="-0.7307600">
        <ele>272.8</ele>
        <time>2020-07-29T07:39:09Z</time>
      </trkpt>
      <trkpt lat="43.1212960" lon="-0.7308960">
        <ele>273.0</ele>
        <time>2020-07-29T07:39:11Z</time>
      </trkpt>
      <trkpt lat="43.1212710" lon="-0.7309590">
        <ele>273.2</ele>
        <time>2020-07-29T07:39:12Z</time>
      </trkpt>
      <trkpt lat="43.1212180" lon="-0.7310740">
        <ele>273.8</ele>
        <time>2020-07-29T07:39:14Z</time>
      </trkpt>
      <trkpt lat="43.1211680" lon="-0.7311740">
        <ele>274.2</ele>
        <time>2020-07-29T07:39:16Z</time>
      </trkpt>
      <trkpt lat="43.1210740" lon="-0.7313350">
        <ele>275.6</ele>
        <time>2020-07-29T07:39:20Z</time>
      </trkpt>
      <trkpt lat="43.1210110" lon="-0.7314400">
        <ele>276.6</ele>
        <time>2020-07-29T07:39:23Z</time>
      </trkpt>
      <trkpt lat="43.1209490" lon="-0.7315430">
        <ele>277.8</ele>
        <time>2020-07-29T07:39:26Z</time>
      </trkpt>
      <trkpt lat="43.1209120" lon="-0.7316060">
        <ele>278.6</ele>
        <time>2020-07-29T07:39:28Z</time>
      </trkpt>
      <trkpt lat="43.1208740" lon="-0.7316620">
        <ele>279.2</ele>
        <time>2020-07-29T07:39:30Z</time>
      </trkpt>
      <trkpt lat="43.1208160" lon="-0.7317470">
        <ele>280.2</ele>
        <time>2020-07-29T07:39:33Z</time>
      </trkpt>
      <trkpt lat="43.1207960" lon="-0.7317720">
        <ele>280.4</ele>
        <time>2020-07-29T07:39:34Z</time>
      </trkpt>
      <trkpt lat="43.1207320" lon="-0.7318620">
        <ele>281.2</ele>
        <time>2020-07-29T07:39:37Z</time>
      </trkpt>
      <trkpt lat="43.1206680" lon="-0.7319520">
        <ele>281.8</ele>
        <time>2020-07-29T07:39:40Z</time>
      </trkpt>
      <trkpt lat="43.1206220" lon="-0.7320100">
        <ele>282.6</ele>
        <time>2020-07-29T07:39:42Z</time>
      </trkpt>
      <trkpt lat="43.1205270" lon="-0.7321190">
        <ele>284.0</ele>
        <time>2020-07-29T07:39:46Z</time>
      </trkpt>
      <trkpt lat="43.1204780" lon="-0.7321740">
        <ele>284.4</ele>
        <time>2020-07-29T07:39:48Z</time>
      </trkpt>
      <trkpt lat="43.1204240" lon="-0.7322250">
        <ele>284.8</ele>
        <time>2020-07-29T07:39:50Z</time>
      </trkpt>
      <trkpt lat="43.1203970" lon="-0.7322510">
        <ele>285.0</ele>
        <time>2020-07-29T07:39:51Z</time>
      </trkpt>
      <trkpt lat="43.1202380" lon="-0.7324020">
        <ele>286.2</ele>
        <time>2020-07-29T07:39:57Z</time>
      </trkpt>
      <trkpt lat="43.1201850" lon="-0.7324510">
        <ele>286.6</ele>
        <time>2020-07-29T07:39:59Z</time>
      </trkpt>
      <trkpt lat="43.1201030" lon="-0.7325260">
        <ele>287.2</ele>
        <time>2020-07-29T07:40:02Z</time>
      </trkpt>
      <trkpt lat="43.1199530" lon="-0.7326360">
        <ele>288.4</ele>
        <time>2020-07-29T07:40:07Z</time>
      </trkpt>
      <trkpt lat="43.1199210" lon="-0.7326600">
        <ele>288.6</ele>
        <time>2020-07-29T07:40:08Z</time>
      </trkpt>
      <trkpt lat="43.1197830" lon="-0.7327430">
        <ele>289.0</ele>
        <time>2020-07-29T07:40:12Z</time>
      </trkpt>
      <trkpt lat="43.1196340" lon="-0.7328320">
        <ele>289.6</ele>
        <time>2020-07-29T07:40:16Z</time>
      </trkpt>
      <trkpt lat="43.1195930" lon="-0.7328560">
        <ele>289.6</ele>
        <time>2020-07-29T07:40:17Z</time>
      </trkpt>
      <trkpt lat="43.1193320" lon="-0.7329960">
        <ele>290.0</ele>
        <time>2020-07-29T07:40:23Z</time>
      </trkpt>
      <trkpt lat="43.1192000" lon="-0.7330750">
        <ele>290.2</ele>
        <time>2020-07-29T07:40:26Z</time>
      </trkpt>
      <trkpt lat="43.1189170" lon="-0.7332410">
        <ele>290.4</ele>
        <time>2020-07-29T07:40:32Z</time>
      </trkpt>
      <trkpt lat="43.1187680" lon="-0.7333260">
        <ele>290.4</ele>
        <time>2020-07-29T07:40:35Z</time>
      </trkpt>
      <trkpt lat="43.1187180" lon="-0.7333540">
        <ele>290.6</ele>
        <time>2020-07-29T07:40:36Z</time>
      </trkpt>
      <trkpt lat="43.1184160" lon="-0.7335240">
        <ele>291.4</ele>
        <time>2020-07-29T07:40:42Z</time>
      </trkpt>
      <trkpt lat="43.1183130" lon="-0.7335830">
        <ele>291.6</ele>
        <time>2020-07-29T07:40:44Z</time>
      </trkpt>
      <trkpt lat="43.1182610" lon="-0.7336140">
        <ele>291.6</ele>
        <time>2020-07-29T07:40:45Z</time>
      </trkpt>
      <trkpt lat="43.1179400" lon="-0.7338010">
        <ele>291.8</ele>
        <time>2020-07-29T07:40:51Z</time>
      </trkpt>
      <trkpt lat="43.1177760" lon="-0.7338850">
        <ele>292.0</ele>
        <time>2020-07-29T07:40:54Z</time>
      </trkpt>
      <trkpt lat="43.1176140" lon="-0.7339780">
        <ele>292.8</ele>
        <time>2020-07-29T07:40:57Z</time>
      </trkpt>
      <trkpt lat="43.1175620" lon="-0.7340130">
        <ele>293.0</ele>
        <time>2020-07-29T07:40:58Z</time>
      </trkpt>
      <trkpt lat="43.1172440" lon="-0.7342110">
        <ele>293.0</ele>
        <time>2020-07-29T07:41:04Z</time>
      </trkpt>
      <trkpt lat="43.1169260" lon="-0.7344590">
        <ele>293.6</ele>
        <time>2020-07-29T07:41:10Z</time>
      </trkpt>
      <trkpt lat="43.1168210" lon="-0.7345520">
        <ele>293.6</ele>
        <time>2020-07-29T07:41:12Z</time>
      </trkpt>
      <trkpt lat="43.1165610" lon="-0.7347900">
        <ele>293.8</ele>
        <time>2020-07-29T07:41:17Z</time>
      </trkpt>
      <trkpt lat="43.1164090" lon="-0.7349340">
        <ele>294.4</ele>
        <time>2020-07-29T07:41:20Z</time>
      </trkpt>
      <trkpt lat="43.1161190" lon="-0.7352110">
        <ele>294.6</ele>
        <time>2020-07-29T07:41:26Z</time>
      </trkpt>
      <trkpt lat="43.1160720" lon="-0.7352570">
        <ele>295.0</ele>
        <time>2020-07-29T07:41:27Z</time>
      </trkpt>
      <trkpt lat="43.1159310" lon="-0.7353890">
        <ele>295.6</ele>
        <time>2020-07-29T07:41:30Z</time>
      </trkpt>
      <trkpt lat="43.1158360" lon="-0.7354760">
        <ele>296.0</ele>
        <time>2020-07-29T07:41:32Z</time>
      </trkpt>
      <trkpt lat="43.1156570" lon="-0.7356480">
        <ele>296.6</ele>
        <time>2020-07-29T07:41:36Z</time>
      </trkpt>
      <trkpt lat="43.1155240" lon="-0.7357730">
        <ele>297.0</ele>
        <time>2020-07-29T07:41:39Z</time>
      </trkpt>
      <trkpt lat="43.1154370" lon="-0.7358560">
        <ele>297.4</ele>
        <time>2020-07-29T07:41:41Z</time>
      </trkpt>
      <trkpt lat="43.1153510" lon="-0.7359420">
        <ele>297.8</ele>
        <time>2020-07-29T07:41:43Z</time>
      </trkpt>
      <trkpt lat="43.1153090" lon="-0.7359850">
        <ele>298.0</ele>
        <time>2020-07-29T07:41:44Z</time>
      </trkpt>
      <trkpt lat="43.1151320" lon="-0.7361570">
        <ele>298.2</ele>
        <time>2020-07-29T07:41:48Z</time>
      </trkpt>
      <trkpt lat="43.1150390" lon="-0.7362490">
        <ele>298.4</ele>
        <time>2020-07-29T07:41:50Z</time>
      </trkpt>
      <trkpt lat="43.1148020" lon="-0.7364660">
        <ele>299.0</ele>
        <time>2020-07-29T07:41:55Z</time>
      </trkpt>
      <trkpt lat="43.1145710" lon="-0.7366890">
        <ele>299.6</ele>
        <time>2020-07-29T07:42:00Z</time>
      </trkpt>
      <trkpt lat="43.1143830" lon="-0.7368670">
        <ele>300.0</ele>
        <time>2020-07-29T07:42:04Z</time>
      </trkpt>
      <trkpt lat="43.1141860" lon="-0.7370550">
        <ele>300.4</ele>
        <time>2020-07-29T07:42:08Z</time>
      </trkpt>
      <trkpt lat="43.1139870" lon="-0.7372480">
        <ele>300.0</ele>
        <time>2020-07-29T07:42:12Z</time>
      </trkpt>
      <trkpt lat="43.1137380" lon="-0.7374900">
        <ele>299.4</ele>
        <time>2020-07-29T07:42:17Z</time>
      </trkpt>
      <trkpt lat="43.1136320" lon="-0.7376030">
        <ele>299.0</ele>
        <time>2020-07-29T07:42:19Z</time>
      </trkpt>
      <trkpt lat="43.1134780" lon="-0.7378020">
        <ele>298.2</ele>
        <time>2020-07-29T07:42:22Z</time>
      </trkpt>
      <trkpt lat="43.1134370" lon="-0.7378820">
        <ele>298.0</ele>
        <time>2020-07-29T07:42:23Z</time>
      </trkpt>
      <trkpt lat="43.1134040" lon="-0.7379710">
        <ele>297.8</ele>
        <time>2020-07-29T07:42:24Z</time>
      </trkpt>
      <trkpt lat="43.1133620" lon="-0.7381670">
        <ele>297.6</ele>
        <time>2020-07-29T07:42:26Z</time>
      </trkpt>
      <trkpt lat="43.1133520" lon="-0.7382730">
        <ele>297.2</ele>
        <time>2020-07-29T07:42:27Z</time>
      </trkpt>
      <trkpt lat="43.1133480" lon="-0.7383810">
        <ele>296.6</ele>
        <time>2020-07-29T07:42:28Z</time>
      </trkpt>
      <trkpt lat="43.1133690" lon="-0.7387950">
        <ele>296.2</ele>
        <time>2020-07-29T07:42:32Z</time>
      </trkpt>
      <trkpt lat="43.1134160" lon="-0.7393750">
        <ele>297.2</ele>
        <time>2020-07-29T07:42:38Z</time>
      </trkpt>
      <trkpt lat="43.1134360" lon="-0.7396580">
        <ele>297.8</ele>
        <time>2020-07-29T07:42:41Z</time>
      </trkpt>
      <trkpt lat="43.1134480" lon="-0.7398510">
        <ele>298.2</ele>
        <time>2020-07-29T07:42:43Z</time>
      </trkpt>
      <trkpt lat="43.1135090" lon="-0.7404500">
        <ele>298.0</ele>
        <time>2020-07-29T07:42:49Z</time>
      </trkpt>
      <trkpt lat="43.1135440" lon="-0.7406500">
        <ele>297.8</ele>
        <time>2020-07-29T07:42:51Z</time>
      </trkpt>
      <trkpt lat="43.1136760" lon="-0.7412430">
        <ele>297.2</ele>
        <time>2020-07-29T07:42:57Z</time>
      </trkpt>
      <trkpt lat="43.1137040" lon="-0.7414470">
        <ele>297.0</ele>
        <time>2020-07-29T07:42:59Z</time>
      </trkpt>
      <trkpt lat="43.1137090" lon="-0.7415540">
        <ele>296.8</ele>
        <time>2020-07-29T07:43:00Z</time>
      </trkpt>
      <trkpt lat="43.1136880" lon="-0.7418700">
        <ele>296.2</ele>
        <time>2020-07-29T07:43:03Z</time>
      </trkpt>
      <trkpt lat="43.1135410" lon="-0.7424600">
        <ele>296.0</ele>
        <time>2020-07-29T07:43:09Z</time>
      </trkpt>
      <trkpt lat="43.1133810" lon="-0.7430010">
        <ele>296.6</ele>
        <time>2020-07-29T07:43:15Z</time>
      </trkpt>
      <trkpt lat="43.1133550" lon="-0.7430860">
        <ele>296.8</ele>
        <time>2020-07-29T07:43:16Z</time>
      </trkpt>
      <trkpt lat="43.1132140" lon="-0.7435550">
        <ele>297.6</ele>
        <time>2020-07-29T07:43:22Z</time>
      </trkpt>
      <trkpt lat="43.1131900" lon="-0.7436260">
        <ele>297.6</ele>
        <time>2020-07-29T07:43:23Z</time>
      </trkpt>
      <trkpt lat="43.1131680" lon="-0.7436950">
        <ele>297.6</ele>
        <time>2020-07-29T07:43:24Z</time>
      </trkpt>
      <trkpt lat="43.1129960" lon="-0.7441390">
        <ele>297.4</ele>
        <time>2020-07-29T07:43:30Z</time>
      </trkpt>
      <trkpt lat="43.1128370" lon="-0.7446280">
        <ele>295.4</ele>
        <time>2020-07-29T07:43:35Z</time>
      </trkpt>
      <trkpt lat="43.1127880" lon="-0.7448540">
        <ele>293.8</ele>
        <time>2020-07-29T07:43:37Z</time>
      </trkpt>
      <trkpt lat="43.1127420" lon="-0.7450890">
        <ele>292.2</ele>
        <time>2020-07-29T07:43:39Z</time>
      </trkpt>
      <trkpt lat="43.1127180" lon="-0.7452120">
        <ele>291.8</ele>
        <time>2020-07-29T07:43:40Z</time>
      </trkpt>
      <trkpt lat="43.1126670" lon="-0.7454750">
        <ele>290.8</ele>
        <time>2020-07-29T07:43:42Z</time>
      </trkpt>
      <trkpt lat="43.1126040" lon="-0.7457500">
        <ele>288.6</ele>
        <time>2020-07-29T07:43:44Z</time>
      </trkpt>
      <trkpt lat="43.1125610" lon="-0.7458940">
        <ele>287.6</ele>
        <time>2020-07-29T07:43:45Z</time>
      </trkpt>
      <trkpt lat="43.1124680" lon="-0.7461840">
        <ele>286.0</ele>
        <time>2020-07-29T07:43:47Z</time>
      </trkpt>
      <trkpt lat="43.1123850" lon="-0.7464950">
        <ele>284.4</ele>
        <time>2020-07-29T07:43:49Z</time>
      </trkpt>
      <trkpt lat="43.1123560" lon="-0.7466550">
        <ele>283.2</ele>
        <time>2020-07-29T07:43:50Z</time>
      </trkpt>
      <trkpt lat="43.1123330" lon="-0.7468220">
        <ele>281.8</ele>
        <time>2020-07-29T07:43:51Z</time>
      </trkpt>
      <trkpt lat="43.1123160" lon="-0.7469930">
        <ele>280.6</ele>
        <time>2020-07-29T07:43:52Z</time>
      </trkpt>
      <trkpt lat="43.1123070" lon="-0.7471660">
        <ele>279.4</ele>
        <time>2020-07-29T07:43:53Z</time>
      </trkpt>
      <trkpt lat="43.1123050" lon="-0.7473390">
        <ele>278.2</ele>
        <time>2020-07-29T07:43:54Z</time>
      </trkpt>
      <trkpt lat="43.1123120" lon="-0.7475130">
        <ele>277.0</ele>
        <time>2020-07-29T07:43:55Z</time>
      </trkpt>
      <trkpt lat="43.1123520" lon="-0.7478550">
        <ele>276.0</ele>
        <time>2020-07-29T07:43:57Z</time>
      </trkpt>
      <trkpt lat="43.1123830" lon="-0.7480180">
        <ele>275.8</ele>
        <time>2020-07-29T07:43:58Z</time>
      </trkpt>
      <trkpt lat="43.1125680" lon="-0.7487860">
        <ele>275.6</ele>
        <time>2020-07-29T07:44:03Z</time>
      </trkpt>
      <trkpt lat="43.1126020" lon="-0.7489320">
        <ele>275.6</ele>
        <time>2020-07-29T07:44:04Z</time>
      </trkpt>
      <trkpt lat="43.1126340" lon="-0.7490740">
        <ele>275.6</ele>
        <time>2020-07-29T07:44:05Z</time>
      </trkpt>
      <trkpt lat="43.1126870" lon="-0.7493520">
        <ele>275.8</ele>
        <time>2020-07-29T07:44:07Z</time>
      </trkpt>
      <trkpt lat="43.1127220" lon="-0.7496260">
        <ele>275.8</ele>
        <time>2020-07-29T07:44:09Z</time>
      </trkpt>
      <trkpt lat="43.1127710" lon="-0.7503750">
        <ele>277.2</ele>
        <time>2020-07-29T07:44:15Z</time>
      </trkpt>
      <trkpt lat="43.1127620" lon="-0.7510350">
        <ele>277.8</ele>
        <time>2020-07-29T07:44:21Z</time>
      </trkpt>
      <trkpt lat="43.1127600" lon="-0.7511360">
        <ele>278.0</ele>
        <time>2020-07-29T07:44:22Z</time>
      </trkpt>
      <trkpt lat="43.1127560" lon="-0.7513260">
        <ele>278.0</ele>
        <time>2020-07-29T07:44:24Z</time>
      </trkpt>
      <trkpt lat="43.1127530" lon="-0.7514190">
        <ele>278.4</ele>
        <time>2020-07-29T07:44:25Z</time>
      </trkpt>
      <trkpt lat="43.1127510" lon="-0.7515080">
        <ele>278.8</ele>
        <time>2020-07-29T07:44:26Z</time>
      </trkpt>
      <trkpt lat="43.1127470" lon="-0.7516710">
        <ele>279.8</ele>
        <time>2020-07-29T07:44:28Z</time>
      </trkpt>
      <trkpt lat="43.1127450" lon="-0.7517470">
        <ele>280.2</ele>
        <time>2020-07-29T07:44:29Z</time>
      </trkpt>
      <trkpt lat="43.1127430" lon="-0.7518170">
        <ele>280.6</ele>
        <time>2020-07-29T07:44:30Z</time>
      </trkpt>
      <trkpt lat="43.1127420" lon="-0.7519440">
        <ele>281.0</ele>
        <time>2020-07-29T07:44:32Z</time>
      </trkpt>
      <trkpt lat="43.1127360" lon="-0.7521220">
        <ele>281.6</ele>
        <time>2020-07-29T07:44:35Z</time>
      </trkpt>
      <trkpt lat="43.1127340" lon="-0.7521760">
        <ele>282.0</ele>
        <time>2020-07-29T07:44:36Z</time>
      </trkpt>
      <trkpt lat="43.1127320" lon="-0.7523740">
        <ele>283.2</ele>
        <time>2020-07-29T07:44:40Z</time>
      </trkpt>
      <trkpt lat="43.1127320" lon="-0.7525060">
        <ele>284.2</ele>
        <time>2020-07-29T07:44:43Z</time>
      </trkpt>
      <trkpt lat="43.1127350" lon="-0.7526700">
        <ele>285.4</ele>
        <time>2020-07-29T07:44:47Z</time>
      </trkpt>
      <trkpt lat="43.1127350" lon="-0.7528300">
        <ele>286.4</ele>
        <time>2020-07-29T07:44:51Z</time>
      </trkpt>
      <trkpt lat="43.1127340" lon="-0.7529070">
        <ele>287.0</ele>
        <time>2020-07-29T07:44:53Z</time>
      </trkpt>
      <trkpt lat="43.1127330" lon="-0.7529830">
        <ele>287.6</ele>
        <time>2020-07-29T07:44:55Z</time>
      </trkpt>
      <trkpt lat="43.1127340" lon="-0.7531390">
        <ele>288.8</ele>
        <time>2020-07-29T07:44:59Z</time>
      </trkpt>
      <trkpt lat="43.1127380" lon="-0.7533380">
        <ele>290.0</ele>
        <time>2020-07-29T07:45:04Z</time>
      </trkpt>
      <trkpt lat="43.1127400" lon="-0.7533770">
        <ele>290.4</ele>
        <time>2020-07-29T07:45:05Z</time>
      </trkpt>
      <trkpt lat="43.1127370" lon="-0.7534870">
        <ele>291.2</ele>
        <time>2020-07-29T07:45:08Z</time>
      </trkpt>
      <trkpt lat="43.1127370" lon="-0.7536620">
        <ele>292.0</ele>
        <time>2020-07-29T07:45:13Z</time>
      </trkpt>
      <trkpt lat="43.1127360" lon="-0.7536960">
        <ele>292.2</ele>
        <time>2020-07-29T07:45:14Z</time>
      </trkpt>
      <trkpt lat="43.1127370" lon="-0.7537670">
        <ele>292.6</ele>
        <time>2020-07-29T07:45:16Z</time>
      </trkpt>
      <trkpt lat="43.1127390" lon="-0.7539140">
        <ele>293.4</ele>
        <time>2020-07-29T07:45:20Z</time>
      </trkpt>
      <trkpt lat="43.1127370" lon="-0.7539490">
        <ele>293.8</ele>
        <time>2020-07-29T07:45:21Z</time>
      </trkpt>
      <trkpt lat="43.1127410" lon="-0.7540880">
        <ele>294.6</ele>
        <time>2020-07-29T07:45:25Z</time>
      </trkpt>
      <trkpt lat="43.1127380" lon="-0.7542310">
        <ele>295.6</ele>
        <time>2020-07-29T07:45:29Z</time>
      </trkpt>
      <trkpt lat="43.1127450" lon="-0.7544540">
        <ele>296.6</ele>
        <time>2020-07-29T07:45:35Z</time>
      </trkpt>
      <trkpt lat="43.1127450" lon="-0.7544930">
        <ele>296.8</ele>
        <time>2020-07-29T07:45:36Z</time>
      </trkpt>
      <trkpt lat="43.1127460" lon="-0.7545320">
        <ele>297.0</ele>
        <time>2020-07-29T07:45:37Z</time>
      </trkpt>
      <trkpt lat="43.1127480" lon="-0.7546390">
        <ele>298.0</ele>
        <time>2020-07-29T07:45:40Z</time>
      </trkpt>
      <trkpt lat="43.1127550" lon="-0.7548280">
        <ele>299.2</ele>
        <time>2020-07-29T07:45:45Z</time>
      </trkpt>
      <trkpt lat="43.1127530" lon="-0.7548650">
        <ele>299.4</ele>
        <time>2020-07-29T07:45:46Z</time>
      </trkpt>
      <trkpt lat="43.1127540" lon="-0.7550170">
        <ele>300.2</ele>
        <time>2020-07-29T07:45:50Z</time>
      </trkpt>
      <trkpt lat="43.1127500" lon="-0.7551810">
        <ele>301.0</ele>
        <time>2020-07-29T07:45:54Z</time>
      </trkpt>
      <trkpt lat="43.1127460" lon="-0.7552660">
        <ele>301.4</ele>
        <time>2020-07-29T07:45:56Z</time>
      </trkpt>
      <trkpt lat="43.1127310" lon="-0.7554810">
        <ele>302.6</ele>
        <time>2020-07-29T07:46:01Z</time>
      </trkpt>
      <trkpt lat="43.1127290" lon="-0.7555660">
        <ele>303.0</ele>
        <time>2020-07-29T07:46:03Z</time>
      </trkpt>
      <trkpt lat="43.1127050" lon="-0.7558350">
        <ele>303.4</ele>
        <time>2020-07-29T07:46:09Z</time>
      </trkpt>
      <trkpt lat="43.1127000" lon="-0.7558800">
        <ele>303.6</ele>
        <time>2020-07-29T07:46:10Z</time>
      </trkpt>
      <trkpt lat="43.1126790" lon="-0.7560200">
        <ele>304.0</ele>
        <time>2020-07-29T07:46:13Z</time>
      </trkpt>
      <trkpt lat="43.1126160" lon="-0.7563380">
        <ele>304.2</ele>
        <time>2020-07-29T07:46:19Z</time>
      </trkpt>
      <trkpt lat="43.1126040" lon="-0.7563940">
        <ele>304.2</ele>
        <time>2020-07-29T07:46:20Z</time>
      </trkpt>
      <trkpt lat="43.1125330" lon="-0.7567400">
        <ele>304.6</ele>
        <time>2020-07-29T07:46:26Z</time>
      </trkpt>
      <trkpt lat="43.1125220" lon="-0.7567990">
        <ele>304.6</ele>
        <time>2020-07-29T07:46:27Z</time>
      </trkpt>
      <trkpt lat="43.1125110" lon="-0.7568590">
        <ele>304.6</ele>
        <time>2020-07-29T07:46:28Z</time>
      </trkpt>
      <trkpt lat="43.1124870" lon="-0.7569830">
        <ele>304.8</ele>
        <time>2020-07-29T07:46:30Z</time>
      </trkpt>
      <trkpt lat="43.1124090" lon="-0.7573600">
        <ele>305.6</ele>
        <time>2020-07-29T07:46:36Z</time>
      </trkpt>
      <trkpt lat="43.1123980" lon="-0.7574210">
        <ele>305.8</ele>
        <time>2020-07-29T07:46:37Z</time>
      </trkpt>
      <trkpt lat="43.1123570" lon="-0.7577290">
        <ele>306.6</ele>
        <time>2020-07-29T07:46:42Z</time>
      </trkpt>
      <trkpt lat="43.1123530" lon="-0.7577900">
        <ele>306.8</ele>
        <time>2020-07-29T07:46:43Z</time>
      </trkpt>
      <trkpt lat="43.1123530" lon="-0.7578510">
        <ele>307.0</ele>
        <time>2020-07-29T07:46:44Z</time>
      </trkpt>
      <trkpt lat="43.1123540" lon="-0.7579120">
        <ele>307.2</ele>
        <time>2020-07-29T07:46:45Z</time>
      </trkpt>
      <trkpt lat="43.1123610" lon="-0.7579740">
        <ele>307.2</ele>
        <time>2020-07-29T07:46:46Z</time>
      </trkpt>
      <trkpt lat="43.1123990" lon="-0.7581590">
        <ele>307.4</ele>
        <time>2020-07-29T07:46:49Z</time>
      </trkpt>
      <trkpt lat="43.1124320" lon="-0.7582760">
        <ele>308.0</ele>
        <time>2020-07-29T07:46:51Z</time>
      </trkpt>
      <trkpt lat="43.1125520" lon="-0.7585370">
        <ele>308.6</ele>
        <time>2020-07-29T07:46:56Z</time>
      </trkpt>
      <trkpt lat="43.1127710" lon="-0.7587830">
        <ele>308.8</ele>
        <time>2020-07-29T07:47:02Z</time>
      </trkpt>
      <trkpt lat="43.1130250" lon="-0.7590170">
        <ele>308.6</ele>
        <time>2020-07-29T07:47:08Z</time>
      </trkpt>
      <trkpt lat="43.1131120" lon="-0.7590980">
        <ele>308.4</ele>
        <time>2020-07-29T07:47:10Z</time>
      </trkpt>
      <trkpt lat="43.1132850" lon="-0.7592840">
        <ele>307.6</ele>
        <time>2020-07-29T07:47:14Z</time>
      </trkpt>
      <trkpt lat="43.1133450" lon="-0.7594100">
        <ele>307.4</ele>
        <time>2020-07-29T07:47:16Z</time>
      </trkpt>
      <trkpt lat="43.1133730" lon="-0.7595570">
        <ele>307.2</ele>
        <time>2020-07-29T07:47:18Z</time>
      </trkpt>
      <trkpt lat="43.1133780" lon="-0.7597050">
        <ele>307.0</ele>
        <time>2020-07-29T07:47:20Z</time>
      </trkpt>
      <trkpt lat="43.1133710" lon="-0.7598540">
        <ele>306.8</ele>
        <time>2020-07-29T07:47:22Z</time>
      </trkpt>
      <trkpt lat="43.1133430" lon="-0.7600930">
        <ele>306.8</ele>
        <time>2020-07-29T07:47:25Z</time>
      </trkpt>
      <trkpt lat="43.1133310" lon="-0.7601710">
        <ele>306.8</ele>
        <time>2020-07-29T07:47:26Z</time>
      </trkpt>
      <trkpt lat="43.1132730" lon="-0.7605700">
        <ele>307.8</ele>
        <time>2020-07-29T07:47:32Z</time>
      </trkpt>
      <trkpt lat="43.1132700" lon="-0.7606380">
        <ele>308.0</ele>
        <time>2020-07-29T07:47:33Z</time>
      </trkpt>
      <trkpt lat="43.1132600" lon="-0.7608980">
        <ele>309.2</ele>
        <time>2020-07-29T07:47:37Z</time>
      </trkpt>
      <trkpt lat="43.1132650" lon="-0.7611640">
        <ele>309.8</ele>
        <time>2020-07-29T07:47:41Z</time>
      </trkpt>
      <trkpt lat="43.1132630" lon="-0.7614970">
        <ele>310.2</ele>
        <time>2020-07-29T07:47:46Z</time>
      </trkpt>
      <trkpt lat="43.1132650" lon="-0.7617010">
        <ele>310.0</ele>
        <time>2020-07-29T07:47:49Z</time>
      </trkpt>
      <trkpt lat="43.1132590" lon="-0.7621530">
        <ele>310.0</ele>
        <time>2020-07-29T07:47:55Z</time>
      </trkpt>
      <trkpt lat="43.1132700" lon="-0.7623140">
        <ele>309.8</ele>
        <time>2020-07-29T07:47:57Z</time>
      </trkpt>
      <trkpt lat="43.1132750" lon="-0.7623970">
        <ele>309.8</ele>
        <time>2020-07-29T07:47:58Z</time>
      </trkpt>
      <trkpt lat="43.1132570" lon="-0.7628060">
        <ele>309.6</ele>
        <time>2020-07-29T07:48:03Z</time>
      </trkpt>
      <trkpt lat="43.1131920" lon="-0.7632800">
        <ele>309.2</ele>
        <time>2020-07-29T07:48:09Z</time>
      </trkpt>
      <trkpt lat="43.1131690" lon="-0.7634440">
        <ele>309.2</ele>
        <time>2020-07-29T07:48:11Z</time>
      </trkpt>
      <trkpt lat="43.1131300" lon="-0.7639490">
        <ele>309.8</ele>
        <time>2020-07-29T07:48:17Z</time>
      </trkpt>
      <trkpt lat="43.1131160" lon="-0.7641120">
        <ele>309.6</ele>
        <time>2020-07-29T07:48:19Z</time>
      </trkpt>
      <trkpt lat="43.1130660" lon="-0.7642700">
        <ele>309.0</ele>
        <time>2020-07-29T07:48:21Z</time>
      </trkpt>
      <trkpt lat="43.1130010" lon="-0.7644330">
        <ele>308.8</ele>
        <time>2020-07-29T07:48:23Z</time>
      </trkpt>
      <trkpt lat="43.1129450" lon="-0.7645990">
        <ele>308.8</ele>
        <time>2020-07-29T07:48:25Z</time>
      </trkpt>
      <trkpt lat="43.1127950" lon="-0.7650980">
        <ele>309.4</ele>
        <time>2020-07-29T07:48:31Z</time>
      </trkpt>
      <trkpt lat="43.1126520" lon="-0.7655750">
        <ele>309.6</ele>
        <time>2020-07-29T07:48:37Z</time>
      </trkpt>
      <trkpt lat="43.1125860" lon="-0.7658240">
        <ele>309.4</ele>
        <time>2020-07-29T07:48:40Z</time>
      </trkpt>
      <trkpt lat="43.1125640" lon="-0.7659050">
        <ele>309.4</ele>
        <time>2020-07-29T07:48:41Z</time>
      </trkpt>
      <trkpt lat="43.1124260" lon="-0.7663710">
        <ele>309.4</ele>
        <time>2020-07-29T07:48:47Z</time>
      </trkpt>
      <trkpt lat="43.1123520" lon="-0.7666200">
        <ele>309.4</ele>
        <time>2020-07-29T07:48:50Z</time>
      </trkpt>
      <trkpt lat="43.1121960" lon="-0.7671440">
        <ele>309.0</ele>
        <time>2020-07-29T07:48:56Z</time>
      </trkpt>
      <trkpt lat="43.1121200" lon="-0.7674250">
        <ele>308.8</ele>
        <time>2020-07-29T07:48:59Z</time>
      </trkpt>
      <trkpt lat="43.1120210" lon="-0.7679320">
        <ele>307.8</ele>
        <time>2020-07-29T07:49:04Z</time>
      </trkpt>
      <trkpt lat="43.1120020" lon="-0.7680320">
        <ele>307.8</ele>
        <time>2020-07-29T07:49:05Z</time>
      </trkpt>
      <trkpt lat="43.1119460" lon="-0.7683190">
        <ele>307.8</ele>
        <time>2020-07-29T07:49:08Z</time>
      </trkpt>
      <trkpt lat="43.1118570" lon="-0.7687850">
        <ele>308.8</ele>
        <time>2020-07-29T07:49:13Z</time>
      </trkpt>
      <trkpt lat="43.1117150" lon="-0.7693260">
        <ele>308.8</ele>
        <time>2020-07-29T07:49:19Z</time>
      </trkpt>
      <trkpt lat="43.1116850" lon="-0.7694120">
        <ele>308.8</ele>
        <time>2020-07-29T07:49:20Z</time>
      </trkpt>
      <trkpt lat="43.1114680" lon="-0.7699210">
        <ele>307.0</ele>
        <time>2020-07-29T07:49:26Z</time>
      </trkpt>
      <trkpt lat="43.1114170" lon="-0.7699990">
        <ele>306.6</ele>
        <time>2020-07-29T07:49:27Z</time>
      </trkpt>
      <trkpt lat="43.1112370" lon="-0.7702080">
        <ele>305.6</ele>
        <time>2020-07-29T07:49:30Z</time>
      </trkpt>
      <trkpt lat="43.1111700" lon="-0.7702630">
        <ele>305.4</ele>
        <time>2020-07-29T07:49:31Z</time>
      </trkpt>
      <trkpt lat="43.1109560" lon="-0.7703800">
        <ele>305.0</ele>
        <time>2020-07-29T07:49:34Z</time>
      </trkpt>
      <trkpt lat="43.1108730" lon="-0.7704060">
        <ele>304.8</ele>
        <time>2020-07-29T07:49:35Z</time>
      </trkpt>
      <trkpt lat="43.1107870" lon="-0.7704250">
        <ele>304.4</ele>
        <time>2020-07-29T07:49:36Z</time>
      </trkpt>
      <trkpt lat="43.1106180" lon="-0.7704780">
        <ele>303.2</ele>
        <time>2020-07-29T07:49:38Z</time>
      </trkpt>
      <trkpt lat="43.1105350" lon="-0.7705090">
        <ele>303.0</ele>
        <time>2020-07-29T07:49:39Z</time>
      </trkpt>
      <trkpt lat="43.1104540" lon="-0.7705480">
        <ele>302.6</ele>
        <time>2020-07-29T07:49:40Z</time>
      </trkpt>
      <trkpt lat="43.1103150" lon="-0.7706740">
        <ele>302.2</ele>
        <time>2020-07-29T07:49:42Z</time>
      </trkpt>
      <trkpt lat="43.1102670" lon="-0.7707610">
        <ele>302.2</ele>
        <time>2020-07-29T07:49:43Z</time>
      </trkpt>
      <trkpt lat="43.1102380" lon="-0.7708600">
        <ele>302.2</ele>
        <time>2020-07-29T07:49:44Z</time>
      </trkpt>
      <trkpt lat="43.1102230" lon="-0.7709650">
        <ele>302.2</ele>
        <time>2020-07-29T07:49:45Z</time>
      </trkpt>
      <trkpt lat="43.1102190" lon="-0.7710740">
        <ele>302.2</ele>
        <time>2020-07-29T07:49:46Z</time>
      </trkpt>
      <trkpt lat="43.1102350" lon="-0.7713900">
        <ele>302.2</ele>
        <time>2020-07-29T07:49:49Z</time>
      </trkpt>
      <trkpt lat="43.1102520" lon="-0.7716930">
        <ele>302.4</ele>
        <time>2020-07-29T07:49:52Z</time>
      </trkpt>
      <trkpt lat="43.1102880" lon="-0.7723050">
        <ele>302.8</ele>
        <time>2020-07-29T07:49:58Z</time>
      </trkpt>
      <trkpt lat="43.1102930" lon="-0.7725910">
        <ele>303.6</ele>
        <time>2020-07-29T07:50:01Z</time>
      </trkpt>
      <trkpt lat="43.1103130" lon="-0.7730490">
        <ele>304.2</ele>
        <time>2020-07-29T07:50:06Z</time>
      </trkpt>
      <trkpt lat="43.1103300" lon="-0.7735140">
        <ele>304.0</ele>
        <time>2020-07-29T07:50:11Z</time>
      </trkpt>
      <trkpt lat="43.1103460" lon="-0.7739840">
        <ele>304.0</ele>
        <time>2020-07-29T07:50:16Z</time>
      </trkpt>
      <trkpt lat="43.1103480" lon="-0.7740760">
        <ele>304.0</ele>
        <time>2020-07-29T07:50:17Z</time>
      </trkpt>
      <trkpt lat="43.1103570" lon="-0.7743510">
        <ele>304.0</ele>
        <time>2020-07-29T07:50:20Z</time>
      </trkpt>
      <trkpt lat="43.1103770" lon="-0.7749010">
        <ele>304.4</ele>
        <time>2020-07-29T07:50:26Z</time>
      </trkpt>
      <trkpt lat="43.1103840" lon="-0.7750830">
        <ele>304.6</ele>
        <time>2020-07-29T07:50:28Z</time>
      </trkpt>
      <trkpt lat="43.1103860" lon="-0.7751740">
        <ele>304.6</ele>
        <time>2020-07-29T07:50:29Z</time>
      </trkpt>
      <trkpt lat="43.1104020" lon="-0.7757140">
        <ele>304.8</ele>
        <time>2020-07-29T07:50:35Z</time>
      </trkpt>
      <trkpt lat="43.1104200" lon="-0.7762670">
        <ele>305.2</ele>
        <time>2020-07-29T07:50:41Z</time>
      </trkpt>
      <trkpt lat="43.1104270" lon="-0.7765420">
        <ele>305.4</ele>
        <time>2020-07-29T07:50:44Z</time>
      </trkpt>
      <trkpt lat="43.1104420" lon="-0.7770040">
        <ele>305.4</ele>
        <time>2020-07-29T07:50:49Z</time>
      </trkpt>
      <trkpt lat="43.1104510" lon="-0.7773720">
        <ele>305.4</ele>
        <time>2020-07-29T07:50:53Z</time>
      </trkpt>
      <trkpt lat="43.1104590" lon="-0.7777400">
        <ele>305.4</ele>
        <time>2020-07-29T07:50:57Z</time>
      </trkpt>
      <trkpt lat="43.1104640" lon="-0.7779170">
        <ele>305.8</ele>
        <time>2020-07-29T07:50:59Z</time>
      </trkpt>
      <trkpt lat="43.1104730" lon="-0.7780900">
        <ele>306.0</ele>
        <time>2020-07-29T07:51:01Z</time>
      </trkpt>
      <trkpt lat="43.1105260" lon="-0.7784240">
        <ele>306.2</ele>
        <time>2020-07-29T07:51:05Z</time>
      </trkpt>
      <trkpt lat="43.1105500" lon="-0.7785040">
        <ele>306.4</ele>
        <time>2020-07-29T07:51:06Z</time>
      </trkpt>
      <trkpt lat="43.1107030" lon="-0.7789640">
        <ele>307.0</ele>
        <time>2020-07-29T07:51:12Z</time>
      </trkpt>
      <trkpt lat="43.1107270" lon="-0.7790370">
        <ele>307.2</ele>
        <time>2020-07-29T07:51:13Z</time>
      </trkpt>
      <trkpt lat="43.1107940" lon="-0.7792530">
        <ele>308.0</ele>
        <time>2020-07-29T07:51:16Z</time>
      </trkpt>
      <trkpt lat="43.1109070" lon="-0.7795920">
        <ele>309.2</ele>
        <time>2020-07-29T07:51:21Z</time>
      </trkpt>
      <trkpt lat="43.1109930" lon="-0.7798490">
        <ele>310.4</ele>
        <time>2020-07-29T07:51:25Z</time>
      </trkpt>
      <trkpt lat="43.1111130" lon="-0.7802170">
        <ele>311.0</ele>
        <time>2020-07-29T07:51:31Z</time>
      </trkpt>
      <trkpt lat="43.1111340" lon="-0.7802770">
        <ele>311.0</ele>
        <time>2020-07-29T07:51:32Z</time>
      </trkpt>
      <trkpt lat="43.1111750" lon="-0.7803970">
        <ele>311.2</ele>
        <time>2020-07-29T07:51:34Z</time>
      </trkpt>
      <trkpt lat="43.1112170" lon="-0.7805190">
        <ele>311.4</ele>
        <time>2020-07-29T07:51:36Z</time>
      </trkpt>
      <trkpt lat="43.1113120" lon="-0.7808300">
        <ele>312.2</ele>
        <time>2020-07-29T07:51:41Z</time>
      </trkpt>
      <trkpt lat="43.1113320" lon="-0.7808920">
        <ele>312.6</ele>
        <time>2020-07-29T07:51:42Z</time>
      </trkpt>
      <trkpt lat="43.1113530" lon="-0.7809550">
        <ele>312.8</ele>
        <time>2020-07-29T07:51:43Z</time>
      </trkpt>
      <trkpt lat="43.1114600" lon="-0.7813460">
        <ele>313.6</ele>
        <time>2020-07-29T07:51:49Z</time>
      </trkpt>
      <trkpt lat="43.1114770" lon="-0.7814150">
        <ele>313.8</ele>
        <time>2020-07-29T07:51:50Z</time>
      </trkpt>
      <trkpt lat="43.1114920" lon="-0.7814860">
        <ele>314.0</ele>
        <time>2020-07-29T07:51:51Z</time>
      </trkpt>
      <trkpt lat="43.1115560" lon="-0.7819510">
        <ele>313.8</ele>
        <time>2020-07-29T07:51:57Z</time>
      </trkpt>
      <trkpt lat="43.1115460" lon="-0.7825200">
        <ele>312.8</ele>
        <time>2020-07-29T07:52:03Z</time>
      </trkpt>
      <trkpt lat="43.1115400" lon="-0.7826230">
        <ele>312.4</ele>
        <time>2020-07-29T07:52:04Z</time>
      </trkpt>
      <trkpt lat="43.1115250" lon="-0.7829480">
        <ele>312.0</ele>
        <time>2020-07-29T07:52:07Z</time>
      </trkpt>
      <trkpt lat="43.1115180" lon="-0.7832950">
        <ele>311.4</ele>
        <time>2020-07-29T07:52:10Z</time>
      </trkpt>
      <trkpt lat="43.1115150" lon="-0.7834130">
        <ele>311.2</ele>
        <time>2020-07-29T07:52:11Z</time>
      </trkpt>
      <trkpt lat="43.1114740" lon="-0.7840000">
        <ele>310.0</ele>
        <time>2020-07-29T07:52:16Z</time>
      </trkpt>
      <trkpt lat="43.1114490" lon="-0.7841090">
        <ele>310.0</ele>
        <time>2020-07-29T07:52:17Z</time>
      </trkpt>
      <trkpt lat="43.1114140" lon="-0.7842110">
        <ele>310.0</ele>
        <time>2020-07-29T07:52:18Z</time>
      </trkpt>
      <trkpt lat="43.1113210" lon="-0.7843900">
        <ele>310.2</ele>
        <time>2020-07-29T07:52:20Z</time>
      </trkpt>
      <trkpt lat="43.1111290" lon="-0.7846920">
        <ele>311.0</ele>
        <time>2020-07-29T07:52:24Z</time>
      </trkpt>
      <trkpt lat="43.1110870" lon="-0.7847630">
        <ele>311.2</ele>
        <time>2020-07-29T07:52:25Z</time>
      </trkpt>
      <trkpt lat="43.1110480" lon="-0.7848330">
        <ele>311.6</ele>
        <time>2020-07-29T07:52:26Z</time>
      </trkpt>
      <trkpt lat="43.1109810" lon="-0.7849710">
        <ele>312.4</ele>
        <time>2020-07-29T07:52:28Z</time>
      </trkpt>
      <trkpt lat="43.1109070" lon="-0.7851840">
        <ele>313.6</ele>
        <time>2020-07-29T07:52:31Z</time>
      </trkpt>
      <trkpt lat="43.1108490" lon="-0.7856310">
        <ele>314.8</ele>
        <time>2020-07-29T07:52:37Z</time>
      </trkpt>
      <trkpt lat="43.1108460" lon="-0.7857030">
        <ele>315.2</ele>
        <time>2020-07-29T07:52:38Z</time>
      </trkpt>
      <trkpt lat="43.1108300" lon="-0.7859950">
        <ele>315.8</ele>
        <time>2020-07-29T07:52:42Z</time>
      </trkpt>
      <trkpt lat="43.1108030" lon="-0.7862120">
        <ele>316.2</ele>
        <time>2020-07-29T07:52:45Z</time>
      </trkpt>
      <trkpt lat="43.1107870" lon="-0.7862840">
        <ele>316.4</ele>
        <time>2020-07-29T07:52:46Z</time>
      </trkpt>
      <trkpt lat="43.1107700" lon="-0.7863550">
        <ele>316.6</ele>
        <time>2020-07-29T07:52:47Z</time>
      </trkpt>
      <trkpt lat="43.1107520" lon="-0.7864280">
        <ele>316.6</ele>
        <time>2020-07-29T07:52:48Z</time>
      </trkpt>
      <trkpt lat="43.1107090" lon="-0.7865810">
        <ele>316.8</ele>
        <time>2020-07-29T07:52:50Z</time>
      </trkpt>
      <trkpt lat="43.1106420" lon="-0.7868220">
        <ele>316.8</ele>
        <time>2020-07-29T07:52:53Z</time>
      </trkpt>
      <trkpt lat="43.1105090" lon="-0.7872120">
        <ele>316.8</ele>
        <time>2020-07-29T07:52:58Z</time>
      </trkpt>
      <trkpt lat="43.1104490" lon="-0.7873810">
        <ele>316.8</ele>
        <time>2020-07-29T07:53:00Z</time>
      </trkpt>
      <trkpt lat="43.1102760" lon="-0.7879040">
        <ele>315.8</ele>
        <time>2020-07-29T07:53:06Z</time>
      </trkpt>
      <trkpt lat="43.1102010" lon="-0.7880700">
        <ele>315.8</ele>
        <time>2020-07-29T07:53:08Z</time>
      </trkpt>
      <trkpt lat="43.1099240" lon="-0.7885200">
        <ele>315.6</ele>
        <time>2020-07-29T07:53:14Z</time>
      </trkpt>
      <trkpt lat="43.1098730" lon="-0.7885860">
        <ele>315.6</ele>
        <time>2020-07-29T07:53:15Z</time>
      </trkpt>
      <trkpt lat="43.1095970" lon="-0.7889080">
        <ele>315.6</ele>
        <time>2020-07-29T07:53:20Z</time>
      </trkpt>
      <trkpt lat="43.1094740" lon="-0.7890250">
        <ele>315.2</ele>
        <time>2020-07-29T07:53:22Z</time>
      </trkpt>
      <trkpt lat="43.1091730" lon="-0.7892330">
        <ele>316.4</ele>
        <time>2020-07-29T07:53:27Z</time>
      </trkpt>
      <trkpt lat="43.1090770" lon="-0.7892980">
        <ele>317.4</ele>
        <time>2020-07-29T07:53:29Z</time>
      </trkpt>
      <trkpt lat="43.1089870" lon="-0.7893420">
        <ele>318.6</ele>
        <time>2020-07-29T07:53:31Z</time>
      </trkpt>
      <trkpt lat="43.1089470" lon="-0.7893660">
        <ele>319.0</ele>
        <time>2020-07-29T07:53:32Z</time>
      </trkpt>
      <trkpt lat="43.1088710" lon="-0.7894100">
        <ele>319.8</ele>
        <time>2020-07-29T07:53:34Z</time>
      </trkpt>
      <trkpt lat="43.1087630" lon="-0.7894850">
        <ele>320.8</ele>
        <time>2020-07-29T07:53:37Z</time>
      </trkpt>
      <trkpt lat="43.1086680" lon="-0.7895640">
        <ele>321.6</ele>
        <time>2020-07-29T07:53:40Z</time>
      </trkpt>
      <trkpt lat="43.1086370" lon="-0.7895900">
        <ele>322.0</ele>
        <time>2020-07-29T07:53:41Z</time>
      </trkpt>
      <trkpt lat="43.1084790" lon="-0.7897280">
        <ele>323.2</ele>
        <time>2020-07-29T07:53:46Z</time>
      </trkpt>
      <trkpt lat="43.1083850" lon="-0.7898130">
        <ele>323.8</ele>
        <time>2020-07-29T07:53:49Z</time>
      </trkpt>
      <trkpt lat="43.1083240" lon="-0.7898740">
        <ele>324.0</ele>
        <time>2020-07-29T07:53:51Z</time>
      </trkpt>
      <trkpt lat="43.1082630" lon="-0.7899330">
        <ele>324.4</ele>
        <time>2020-07-29T07:53:53Z</time>
      </trkpt>
      <trkpt lat="43.1080800" lon="-0.7901030">
        <ele>325.4</ele>
        <time>2020-07-29T07:53:59Z</time>
      </trkpt>
      <trkpt lat="43.1080500" lon="-0.7901310">
        <ele>325.4</ele>
        <time>2020-07-29T07:54:00Z</time>
      </trkpt>
      <trkpt lat="43.1079910" lon="-0.7901860">
        <ele>325.8</ele>
        <time>2020-07-29T07:54:02Z</time>
      </trkpt>
      <trkpt lat="43.1078720" lon="-0.7902970">
        <ele>326.6</ele>
        <time>2020-07-29T07:54:06Z</time>
      </trkpt>
      <trkpt lat="43.1077890" lon="-0.7903960">
        <ele>327.0</ele>
        <time>2020-07-29T07:54:09Z</time>
      </trkpt>
      <trkpt lat="43.1076750" lon="-0.7905320">
        <ele>327.6</ele>
        <time>2020-07-29T07:54:13Z</time>
      </trkpt>
      <trkpt lat="43.1076260" lon="-0.7906190">
        <ele>328.0</ele>
        <time>2020-07-29T07:54:15Z</time>
      </trkpt>
      <trkpt lat="43.1076020" lon="-0.7906680">
        <ele>328.2</ele>
        <time>2020-07-29T07:54:16Z</time>
      </trkpt>
      <trkpt lat="43.1075550" lon="-0.7907590">
        <ele>328.6</ele>
        <time>2020-07-29T07:54:18Z</time>
      </trkpt>
      <trkpt lat="43.1075310" lon="-0.7908040">
        <ele>328.8</ele>
        <time>2020-07-29T07:54:19Z</time>
      </trkpt>
      <trkpt lat="43.1074140" lon="-0.7910360">
        <ele>329.4</ele>
        <time>2020-07-29T07:54:24Z</time>
      </trkpt>
      <trkpt lat="43.1073690" lon="-0.7911220">
        <ele>329.8</ele>
        <time>2020-07-29T07:54:26Z</time>
      </trkpt>
      <trkpt lat="43.1073400" lon="-0.7911600">
        <ele>330.2</ele>
        <time>2020-07-29T07:54:27Z</time>
      </trkpt>
      <trkpt lat="43.1072350" lon="-0.7913330">
        <ele>330.8</ele>
        <time>2020-07-29T07:54:31Z</time>
      </trkpt>
      <trkpt lat="43.1072140" lon="-0.7913870">
        <ele>331.2</ele>
        <time>2020-07-29T07:54:32Z</time>
      </trkpt>
      <trkpt lat="43.1070940" lon="-0.7916310">
        <ele>331.8</ele>
        <time>2020-07-29T07:54:37Z</time>
      </trkpt>
      <trkpt lat="43.1070460" lon="-0.7917220">
        <ele>332.4</ele>
        <time>2020-07-29T07:54:39Z</time>
      </trkpt>
      <trkpt lat="43.1069650" lon="-0.7918590">
        <ele>333.0</ele>
        <time>2020-07-29T07:54:42Z</time>
      </trkpt>
      <trkpt lat="43.1069060" lon="-0.7919440">
        <ele>333.4</ele>
        <time>2020-07-29T07:54:44Z</time>
      </trkpt>
      <trkpt lat="43.1068440" lon="-0.7920240">
        <ele>334.0</ele>
        <time>2020-07-29T07:54:46Z</time>
      </trkpt>
      <trkpt lat="43.1067810" lon="-0.7921080">
        <ele>334.0</ele>
        <time>2020-07-29T07:54:48Z</time>
      </trkpt>
      <trkpt lat="43.1066500" lon="-0.7922650">
        <ele>334.6</ele>
        <time>2020-07-29T07:54:52Z</time>
      </trkpt>
      <trkpt lat="43.1065860" lon="-0.7923430">
        <ele>335.0</ele>
        <time>2020-07-29T07:54:54Z</time>
      </trkpt>
      <trkpt lat="43.1065530" lon="-0.7923790">
        <ele>335.2</ele>
        <time>2020-07-29T07:54:55Z</time>
      </trkpt>
      <trkpt lat="43.1064890" lon="-0.7924560">
        <ele>335.6</ele>
        <time>2020-07-29T07:54:57Z</time>
      </trkpt>
      <trkpt lat="43.1064220" lon="-0.7925340">
        <ele>336.0</ele>
        <time>2020-07-29T07:54:59Z</time>
      </trkpt>
      <trkpt lat="43.1062610" lon="-0.7927460">
        <ele>336.4</ele>
        <time>2020-07-29T07:55:04Z</time>
      </trkpt>
      <trkpt lat="43.1062250" lon="-0.7927890">
        <ele>336.6</ele>
        <time>2020-07-29T07:55:05Z</time>
      </trkpt>
      <trkpt lat="43.1059980" lon="-0.7930560">
        <ele>337.8</ele>
        <time>2020-07-29T07:55:11Z</time>
      </trkpt>
      <trkpt lat="43.1059610" lon="-0.7930990">
        <ele>337.8</ele>
        <time>2020-07-29T07:55:12Z</time>
      </trkpt>
      <trkpt lat="43.1059270" lon="-0.7931440">
        <ele>338.0</ele>
        <time>2020-07-29T07:55:13Z</time>
      </trkpt>
      <trkpt lat="43.1057930" lon="-0.7933320">
        <ele>338.8</ele>
        <time>2020-07-29T07:55:17Z</time>
      </trkpt>
      <trkpt lat="43.1057360" lon="-0.7934320">
        <ele>339.4</ele>
        <time>2020-07-29T07:55:19Z</time>
      </trkpt>
      <trkpt lat="43.1056050" lon="-0.7937530">
        <ele>339.8</ele>
        <time>2020-07-29T07:55:25Z</time>
      </trkpt>
      <trkpt lat="43.1055830" lon="-0.7938080">
        <ele>339.8</ele>
        <time>2020-07-29T07:55:26Z</time>
      </trkpt>
      <trkpt lat="43.1054660" lon="-0.7941180">
        <ele>340.6</ele>
        <time>2020-07-29T07:55:31Z</time>
      </trkpt>
      <trkpt lat="43.1053140" lon="-0.7945030">
        <ele>340.8</ele>
        <time>2020-07-29T07:55:37Z</time>
      </trkpt>
      <trkpt lat="43.1052880" lon="-0.7945740">
        <ele>341.0</ele>
        <time>2020-07-29T07:55:38Z</time>
      </trkpt>
      <trkpt lat="43.1052350" lon="-0.7947130">
        <ele>340.8</ele>
        <time>2020-07-29T07:55:40Z</time>
      </trkpt>
      <trkpt lat="43.1050680" lon="-0.7951150">
        <ele>341.4</ele>
        <time>2020-07-29T07:55:46Z</time>
      </trkpt>
      <trkpt lat="43.1049820" lon="-0.7953020">
        <ele>342.0</ele>
        <time>2020-07-29T07:55:49Z</time>
      </trkpt>
      <trkpt lat="43.1049530" lon="-0.7953630">
        <ele>342.2</ele>
        <time>2020-07-29T07:55:50Z</time>
      </trkpt>
      <trkpt lat="43.1047920" lon="-0.7957310">
        <ele>343.0</ele>
        <time>2020-07-29T07:55:56Z</time>
      </trkpt>
      <trkpt lat="43.1047680" lon="-0.7957920">
        <ele>343.4</ele>
        <time>2020-07-29T07:55:57Z</time>
      </trkpt>
      <trkpt lat="43.1046780" lon="-0.7960290">
        <ele>344.6</ele>
        <time>2020-07-29T07:56:01Z</time>
      </trkpt>
      <trkpt lat="43.1045940" lon="-0.7962660">
        <ele>345.6</ele>
        <time>2020-07-29T07:56:05Z</time>
      </trkpt>
      <trkpt lat="43.1044960" lon="-0.7965710">
        <ele>346.6</ele>
        <time>2020-07-29T07:56:10Z</time>
      </trkpt>
      <trkpt lat="43.1044750" lon="-0.7966290">
        <ele>347.0</ele>
        <time>2020-07-29T07:56:11Z</time>
      </trkpt>
      <trkpt lat="43.1044130" lon="-0.7968060">
        <ele>348.0</ele>
        <time>2020-07-29T07:56:14Z</time>
      </trkpt>
      <trkpt lat="43.1042840" lon="-0.7971570">
        <ele>349.0</ele>
        <time>2020-07-29T07:56:20Z</time>
      </trkpt>
      <trkpt lat="43.1041490" lon="-0.7975010">
        <ele>349.8</ele>
        <time>2020-07-29T07:56:26Z</time>
      </trkpt>
      <trkpt lat="43.1041260" lon="-0.7975610">
        <ele>350.0</ele>
        <time>2020-07-29T07:56:27Z</time>
      </trkpt>
      <trkpt lat="43.1040290" lon="-0.7978050">
        <ele>351.0</ele>
        <time>2020-07-29T07:56:31Z</time>
      </trkpt>
      <trkpt lat="43.1039830" lon="-0.7979260">
        <ele>351.2</ele>
        <time>2020-07-29T07:56:33Z</time>
      </trkpt>
      <trkpt lat="43.1038670" lon="-0.7982160">
        <ele>352.0</ele>
        <time>2020-07-29T07:56:38Z</time>
      </trkpt>
      <trkpt lat="43.1038420" lon="-0.7982710">
        <ele>352.0</ele>
        <time>2020-07-29T07:56:39Z</time>
      </trkpt>
      <trkpt lat="43.1038190" lon="-0.7983290">
        <ele>352.2</ele>
        <time>2020-07-29T07:56:40Z</time>
      </trkpt>
      <trkpt lat="43.1037200" lon="-0.7986210">
        <ele>353.2</ele>
        <time>2020-07-29T07:56:45Z</time>
      </trkpt>
      <trkpt lat="43.1037000" lon="-0.7986790">
        <ele>353.6</ele>
        <time>2020-07-29T07:56:46Z</time>
      </trkpt>
      <trkpt lat="43.1036150" lon="-0.7989040">
        <ele>354.4</ele>
        <time>2020-07-29T07:56:50Z</time>
      </trkpt>
      <trkpt lat="43.1034980" lon="-0.7991760">
        <ele>355.2</ele>
        <time>2020-07-29T07:56:55Z</time>
      </trkpt>
      <trkpt lat="43.1034740" lon="-0.7992320">
        <ele>355.4</ele>
        <time>2020-07-29T07:56:56Z</time>
      </trkpt>
      <trkpt lat="43.1033990" lon="-0.7994040">
        <ele>355.6</ele>
        <time>2020-07-29T07:56:59Z</time>
      </trkpt>
      <trkpt lat="43.1032920" lon="-0.7996350">
        <ele>355.4</ele>
        <time>2020-07-29T07:57:03Z</time>
      </trkpt>
      <trkpt lat="43.1031070" lon="-0.8000220">
        <ele>354.0</ele>
        <time>2020-07-29T07:57:09Z</time>
      </trkpt>
      <trkpt lat="43.1030040" lon="-0.8002570">
        <ele>352.6</ele>
        <time>2020-07-29T07:57:12Z</time>
      </trkpt>
      <trkpt lat="43.1029420" lon="-0.8004470">
        <ele>351.4</ele>
        <time>2020-07-29T07:57:14Z</time>
      </trkpt>
      <trkpt lat="43.1029190" lon="-0.8005590">
        <ele>350.6</ele>
        <time>2020-07-29T07:57:15Z</time>
      </trkpt>
      <trkpt lat="43.1028960" lon="-0.8006780">
        <ele>350.0</ele>
        <time>2020-07-29T07:57:16Z</time>
      </trkpt>
      <trkpt lat="43.1028650" lon="-0.8009290">
        <ele>348.4</ele>
        <time>2020-07-29T07:57:18Z</time>
      </trkpt>
      <trkpt lat="43.1028600" lon="-0.8011920">
        <ele>346.8</ele>
        <time>2020-07-29T07:57:20Z</time>
      </trkpt>
      <trkpt lat="43.1028680" lon="-0.8014740">
        <ele>345.8</ele>
        <time>2020-07-29T07:57:22Z</time>
      </trkpt>
      <trkpt lat="43.1028760" lon="-0.8016180">
        <ele>345.4</ele>
        <time>2020-07-29T07:57:23Z</time>
      </trkpt>
      <trkpt lat="43.1029020" lon="-0.8019190">
        <ele>343.8</ele>
        <time>2020-07-29T07:57:25Z</time>
      </trkpt>
      <trkpt lat="43.1029290" lon="-0.8022280">
        <ele>342.2</ele>
        <time>2020-07-29T07:57:27Z</time>
      </trkpt>
      <trkpt lat="43.1029410" lon="-0.8023870">
        <ele>341.0</ele>
        <time>2020-07-29T07:57:28Z</time>
      </trkpt>
      <trkpt lat="43.1029500" lon="-0.8025490">
        <ele>340.0</ele>
        <time>2020-07-29T07:57:29Z</time>
      </trkpt>
      <trkpt lat="43.1029360" lon="-0.8028830">
        <ele>338.4</ele>
        <time>2020-07-29T07:57:31Z</time>
      </trkpt>
      <trkpt lat="43.1029070" lon="-0.8030530">
        <ele>337.4</ele>
        <time>2020-07-29T07:57:32Z</time>
      </trkpt>
      <trkpt lat="43.1028510" lon="-0.8033790">
        <ele>335.4</ele>
        <time>2020-07-29T07:57:34Z</time>
      </trkpt>
      <trkpt lat="43.1028380" lon="-0.8035460">
        <ele>334.0</ele>
        <time>2020-07-29T07:57:35Z</time>
      </trkpt>
      <trkpt lat="43.1028440" lon="-0.8037090">
        <ele>332.8</ele>
        <time>2020-07-29T07:57:36Z</time>
      </trkpt>
      <trkpt lat="43.1028730" lon="-0.8038680">
        <ele>331.8</ele>
        <time>2020-07-29T07:57:37Z</time>
      </trkpt>
      <trkpt lat="43.1029230" lon="-0.8040240">
        <ele>331.0</ele>
        <time>2020-07-29T07:57:38Z</time>
      </trkpt>
      <trkpt lat="43.1029910" lon="-0.8041650">
        <ele>330.2</ele>
        <time>2020-07-29T07:57:39Z</time>
      </trkpt>
      <trkpt lat="43.1030580" lon="-0.8043130">
        <ele>329.6</ele>
        <time>2020-07-29T07:57:40Z</time>
      </trkpt>
      <trkpt lat="43.1031150" lon="-0.8044670">
        <ele>328.4</ele>
        <time>2020-07-29T07:57:41Z</time>
      </trkpt>
      <trkpt lat="43.1031570" lon="-0.8046250">
        <ele>327.0</ele>
        <time>2020-07-29T07:57:42Z</time>
      </trkpt>
      <trkpt lat="43.1031810" lon="-0.8047970">
        <ele>325.2</ele>
        <time>2020-07-29T07:57:43Z</time>
      </trkpt>
      <trkpt lat="43.1031870" lon="-0.8049710">
        <ele>323.6</ele>
        <time>2020-07-29T07:57:44Z</time>
      </trkpt>
      <trkpt lat="43.1031720" lon="-0.8051530">
        <ele>322.4</ele>
        <time>2020-07-29T07:57:45Z</time>
      </trkpt>
      <trkpt lat="43.1031430" lon="-0.8053290">
        <ele>321.4</ele>
        <time>2020-07-29T07:57:46Z</time>
      </trkpt>
      <trkpt lat="43.1031010" lon="-0.8055000">
        <ele>320.2</ele>
        <time>2020-07-29T07:57:47Z</time>
      </trkpt>
      <trkpt lat="43.1030510" lon="-0.8056680">
        <ele>319.0</ele>
        <time>2020-07-29T07:57:48Z</time>
      </trkpt>
      <trkpt lat="43.1029940" lon="-0.8058370">
        <ele>318.0</ele>
        <time>2020-07-29T07:57:49Z</time>
      </trkpt>
      <trkpt lat="43.1029300" lon="-0.8060050">
        <ele>316.6</ele>
        <time>2020-07-29T07:57:50Z</time>
      </trkpt>
      <trkpt lat="43.1028590" lon="-0.8061690">
        <ele>315.2</ele>
        <time>2020-07-29T07:57:51Z</time>
      </trkpt>
      <trkpt lat="43.1027840" lon="-0.8063300">
        <ele>313.8</ele>
        <time>2020-07-29T07:57:52Z</time>
      </trkpt>
      <trkpt lat="43.1027030" lon="-0.8064890">
        <ele>312.6</ele>
        <time>2020-07-29T07:57:53Z</time>
      </trkpt>
      <trkpt lat="43.1026100" lon="-0.8066400">
        <ele>311.6</ele>
        <time>2020-07-29T07:57:54Z</time>
      </trkpt>
      <trkpt lat="43.1025100" lon="-0.8067760">
        <ele>310.8</ele>
        <time>2020-07-29T07:57:55Z</time>
      </trkpt>
      <trkpt lat="43.1023960" lon="-0.8069000">
        <ele>309.6</ele>
        <time>2020-07-29T07:57:56Z</time>
      </trkpt>
      <trkpt lat="43.1022750" lon="-0.8070100">
        <ele>308.4</ele>
        <time>2020-07-29T07:57:57Z</time>
      </trkpt>
      <trkpt lat="43.1021470" lon="-0.8071140">
        <ele>307.0</ele>
        <time>2020-07-29T07:57:58Z</time>
      </trkpt>
      <trkpt lat="43.1020170" lon="-0.8072130">
        <ele>305.6</ele>
        <time>2020-07-29T07:57:59Z</time>
      </trkpt>
      <trkpt lat="43.1018880" lon="-0.8073070">
        <ele>304.2</ele>
        <time>2020-07-29T07:58:00Z</time>
      </trkpt>
      <trkpt lat="43.1017590" lon="-0.8074020">
        <ele>302.4</ele>
        <time>2020-07-29T07:58:01Z</time>
      </trkpt>
      <trkpt lat="43.1016340" lon="-0.8074990">
        <ele>300.6</ele>
        <time>2020-07-29T07:58:02Z</time>
      </trkpt>
      <trkpt lat="43.1015100" lon="-0.8075950">
        <ele>298.6</ele>
        <time>2020-07-29T07:58:03Z</time>
      </trkpt>
      <trkpt lat="43.1013890" lon="-0.8076920">
        <ele>297.2</ele>
        <time>2020-07-29T07:58:04Z</time>
      </trkpt>
      <trkpt lat="43.1012700" lon="-0.8077840">
        <ele>296.2</ele>
        <time>2020-07-29T07:58:05Z</time>
      </trkpt>
      <trkpt lat="43.1011560" lon="-0.8078710">
        <ele>295.2</ele>
        <time>2020-07-29T07:58:06Z</time>
      </trkpt>
      <trkpt lat="43.1009360" lon="-0.8080310">
        <ele>293.4</ele>
        <time>2020-07-29T07:58:08Z</time>
      </trkpt>
      <trkpt lat="43.1007280" lon="-0.8082130">
        <ele>291.4</ele>
        <time>2020-07-29T07:58:10Z</time>
      </trkpt>
      <trkpt lat="43.1006410" lon="-0.8083290">
        <ele>290.2</ele>
        <time>2020-07-29T07:58:11Z</time>
      </trkpt>
      <trkpt lat="43.1005690" lon="-0.8084610">
        <ele>288.8</ele>
        <time>2020-07-29T07:58:12Z</time>
      </trkpt>
      <trkpt lat="43.1005120" lon="-0.8086100">
        <ele>287.8</ele>
        <time>2020-07-29T07:58:13Z</time>
      </trkpt>
      <trkpt lat="43.1004730" lon="-0.8087710">
        <ele>287.0</ele>
        <time>2020-07-29T07:58:14Z</time>
      </trkpt>
      <trkpt lat="43.1004630" lon="-0.8089510">
        <ele>286.0</ele>
        <time>2020-07-29T07:58:15Z</time>
      </trkpt>
      <trkpt lat="43.1004730" lon="-0.8091310">
        <ele>284.8</ele>
        <time>2020-07-29T07:58:16Z</time>
      </trkpt>
      <trkpt lat="43.1005010" lon="-0.8093090">
        <ele>283.0</ele>
        <time>2020-07-29T07:58:17Z</time>
      </trkpt>
      <trkpt lat="43.1005490" lon="-0.8094820">
        <ele>281.2</ele>
        <time>2020-07-29T07:58:18Z</time>
      </trkpt>
      <trkpt lat="43.1006150" lon="-0.8096520">
        <ele>279.4</ele>
        <time>2020-07-29T07:58:19Z</time>
      </trkpt>
      <trkpt lat="43.1006940" lon="-0.8098100">
        <ele>277.4</ele>
        <time>2020-07-29T07:58:20Z</time>
      </trkpt>
      <trkpt lat="43.1007810" lon="-0.8099640">
        <ele>275.6</ele>
        <time>2020-07-29T07:58:21Z</time>
      </trkpt>
      <trkpt lat="43.1008730" lon="-0.8101210">
        <ele>273.8</ele>
        <time>2020-07-29T07:58:22Z</time>
      </trkpt>
      <trkpt lat="43.1009650" lon="-0.8102820">
        <ele>271.8</ele>
        <time>2020-07-29T07:58:23Z</time>
      </trkpt>
      <trkpt lat="43.1010500" lon="-0.8104520">
        <ele>270.0</ele>
        <time>2020-07-29T07:58:24Z</time>
      </trkpt>
      <trkpt lat="43.1011260" lon="-0.8106300">
        <ele>268.8</ele>
        <time>2020-07-29T07:58:25Z</time>
      </trkpt>
      <trkpt lat="43.1011970" lon="-0.8108130">
        <ele>268.0</ele>
        <time>2020-07-29T07:58:26Z</time>
      </trkpt>
      <trkpt lat="43.1012590" lon="-0.8109920">
        <ele>267.2</ele>
        <time>2020-07-29T07:58:27Z</time>
      </trkpt>
      <trkpt lat="43.1013640" lon="-0.8113480">
        <ele>265.6</ele>
        <time>2020-07-29T07:58:29Z</time>
      </trkpt>
      <trkpt lat="43.1014030" lon="-0.8115260">
        <ele>264.6</ele>
        <time>2020-07-29T07:58:30Z</time>
      </trkpt>
      <trkpt lat="43.1014300" lon="-0.8117050">
        <ele>263.8</ele>
        <time>2020-07-29T07:58:31Z</time>
      </trkpt>
      <trkpt lat="43.1014460" lon="-0.8118820">
        <ele>263.4</ele>
        <time>2020-07-29T07:58:32Z</time>
      </trkpt>
      <trkpt lat="43.1014550" lon="-0.8120540">
        <ele>263.2</ele>
        <time>2020-07-29T07:58:33Z</time>
      </trkpt>
      <trkpt lat="43.1014470" lon="-0.8125230">
        <ele>265.2</ele>
        <time>2020-07-29T07:58:36Z</time>
      </trkpt>
      <trkpt lat="43.1014330" lon="-0.8126660">
        <ele>265.8</ele>
        <time>2020-07-29T07:58:37Z</time>
      </trkpt>
      <trkpt lat="43.1014140" lon="-0.8128010">
        <ele>266.6</ele>
        <time>2020-07-29T07:58:38Z</time>
      </trkpt>
      <trkpt lat="43.1013710" lon="-0.8130490">
        <ele>268.0</ele>
        <time>2020-07-29T07:58:40Z</time>
      </trkpt>
      <trkpt lat="43.1013210" lon="-0.8132760">
        <ele>269.0</ele>
        <time>2020-07-29T07:58:42Z</time>
      </trkpt>
      <trkpt lat="43.1012520" lon="-0.8135780">
        <ele>270.2</ele>
        <time>2020-07-29T07:58:45Z</time>
      </trkpt>
      <trkpt lat="43.1011920" lon="-0.8138470">
        <ele>271.2</ele>
        <time>2020-07-29T07:58:48Z</time>
      </trkpt>
      <trkpt lat="43.1011730" lon="-0.8139310">
        <ele>271.6</ele>
        <time>2020-07-29T07:58:49Z</time>
      </trkpt>
      <trkpt lat="43.1011550" lon="-0.8140110">
        <ele>272.0</ele>
        <time>2020-07-29T07:58:50Z</time>
      </trkpt>
      <trkpt lat="43.1011190" lon="-0.8141650">
        <ele>272.6</ele>
        <time>2020-07-29T07:58:52Z</time>
      </trkpt>
      <trkpt lat="43.1010810" lon="-0.8143000">
        <ele>273.2</ele>
        <time>2020-07-29T07:58:54Z</time>
      </trkpt>
      <trkpt lat="43.1010600" lon="-0.8143610">
        <ele>273.6</ele>
        <time>2020-07-29T07:58:55Z</time>
      </trkpt>
      <trkpt lat="43.1009630" lon="-0.8145940">
        <ele>274.6</ele>
        <time>2020-07-29T07:58:59Z</time>
      </trkpt>
      <trkpt lat="43.1009070" lon="-0.8146970">
        <ele>275.2</ele>
        <time>2020-07-29T07:59:01Z</time>
      </trkpt>
      <trkpt lat="43.1008170" lon="-0.8148370">
        <ele>275.4</ele>
        <time>2020-07-29T07:59:04Z</time>
      </trkpt>
      <trkpt lat="43.1007070" lon="-0.8149440">
        <ele>275.2</ele>
        <time>2020-07-29T07:59:07Z</time>
      </trkpt>
      <trkpt lat="43.1004860" lon="-0.8151290">
        <ele>274.2</ele>
        <time>2020-07-29T07:59:12Z</time>
      </trkpt>
      <trkpt lat="43.1004340" lon="-0.8151670">
        <ele>274.0</ele>
        <time>2020-07-29T07:59:13Z</time>
      </trkpt>
      <trkpt lat="43.1003160" lon="-0.8152420">
        <ele>273.2</ele>
        <time>2020-07-29T07:59:15Z</time>
      </trkpt>
      <trkpt lat="43.1002460" lon="-0.8152720">
        <ele>272.8</ele>
        <time>2020-07-29T07:59:16Z</time>
      </trkpt>
      <trkpt lat="43.1001690" lon="-0.8153000">
        <ele>272.0</ele>
        <time>2020-07-29T07:59:17Z</time>
      </trkpt>
      <trkpt lat="43.1000830" lon="-0.8153250">
        <ele>271.6</ele>
        <time>2020-07-29T07:59:18Z</time>
      </trkpt>
      <trkpt lat="43.0999930" lon="-0.8153520">
        <ele>271.0</ele>
        <time>2020-07-29T07:59:19Z</time>
      </trkpt>
      <trkpt lat="43.0997950" lon="-0.8154170">
        <ele>269.2</ele>
        <time>2020-07-29T07:59:21Z</time>
      </trkpt>
      <trkpt lat="43.0996930" lon="-0.8154580">
        <ele>268.2</ele>
        <time>2020-07-29T07:59:22Z</time>
      </trkpt>
      <trkpt lat="43.0995930" lon="-0.8155030">
        <ele>267.2</ele>
        <time>2020-07-29T07:59:23Z</time>
      </trkpt>
      <trkpt lat="43.0994980" lon="-0.8155580">
        <ele>266.0</ele>
        <time>2020-07-29T07:59:24Z</time>
      </trkpt>
      <trkpt lat="43.0994090" lon="-0.8156290">
        <ele>264.8</ele>
        <time>2020-07-29T07:59:25Z</time>
      </trkpt>
      <trkpt lat="43.0993250" lon="-0.8157210">
        <ele>263.6</ele>
        <time>2020-07-29T07:59:26Z</time>
      </trkpt>
      <trkpt lat="43.0992450" lon="-0.8158340">
        <ele>262.2</ele>
        <time>2020-07-29T07:59:27Z</time>
      </trkpt>
      <trkpt lat="43.0991670" lon="-0.8159580">
        <ele>260.4</ele>
        <time>2020-07-29T07:59:28Z</time>
      </trkpt>
      <trkpt lat="43.0990870" lon="-0.8160900">
        <ele>258.8</ele>
        <time>2020-07-29T07:59:29Z</time>
      </trkpt>
      <trkpt lat="43.0990050" lon="-0.8162260">
        <ele>257.6</ele>
        <time>2020-07-29T07:59:30Z</time>
      </trkpt>
      <trkpt lat="43.0988330" lon="-0.8165080">
        <ele>255.6</ele>
        <time>2020-07-29T07:59:32Z</time>
      </trkpt>
      <trkpt lat="43.0987480" lon="-0.8166470">
        <ele>254.4</ele>
        <time>2020-07-29T07:59:33Z</time>
      </trkpt>
      <trkpt lat="43.0986640" lon="-0.8167800">
        <ele>252.8</ele>
        <time>2020-07-29T07:59:34Z</time>
      </trkpt>
      <trkpt lat="43.0985850" lon="-0.8169100">
        <ele>251.4</ele>
        <time>2020-07-29T07:59:35Z</time>
      </trkpt>
      <trkpt lat="43.0985080" lon="-0.8170360">
        <ele>250.8</ele>
        <time>2020-07-29T07:59:36Z</time>
      </trkpt>
      <trkpt lat="43.0983720" lon="-0.8172900">
        <ele>250.4</ele>
        <time>2020-07-29T07:59:38Z</time>
      </trkpt>
      <trkpt lat="43.0982730" lon="-0.8175610">
        <ele>250.4</ele>
        <time>2020-07-29T07:59:40Z</time>
      </trkpt>
      <trkpt lat="43.0981790" lon="-0.8179680">
        <ele>250.2</ele>
        <time>2020-07-29T07:59:43Z</time>
      </trkpt>
      <trkpt lat="43.0981540" lon="-0.8180990">
        <ele>250.2</ele>
        <time>2020-07-29T07:59:44Z</time>
      </trkpt>
      <trkpt lat="43.0980720" lon="-0.8185470">
        <ele>251.4</ele>
        <time>2020-07-29T07:59:48Z</time>
      </trkpt>
      <trkpt lat="43.0980380" lon="-0.8187350">
        <ele>252.6</ele>
        <time>2020-07-29T07:59:50Z</time>
      </trkpt>
      <trkpt lat="43.0980050" lon="-0.8189070">
        <ele>253.8</ele>
        <time>2020-07-29T07:59:52Z</time>
      </trkpt>
      <trkpt lat="43.0979740" lon="-0.8190610">
        <ele>254.4</ele>
        <time>2020-07-29T07:59:54Z</time>
      </trkpt>
      <trkpt lat="43.0979630" lon="-0.8191330">
        <ele>254.8</ele>
        <time>2020-07-29T07:59:55Z</time>
      </trkpt>
      <trkpt lat="43.0979460" lon="-0.8193250">
        <ele>255.4</ele>
        <time>2020-07-29T07:59:58Z</time>
      </trkpt>
      <trkpt lat="43.0979510" lon="-0.8193840">
        <ele>255.6</ele>
        <time>2020-07-29T07:59:59Z</time>
      </trkpt>
      <trkpt lat="43.0979700" lon="-0.8195080">
        <ele>255.8</ele>
        <time>2020-07-29T08:00:01Z</time>
      </trkpt>
      <trkpt lat="43.0979780" lon="-0.8195890">
        <ele>256.0</ele>
        <time>2020-07-29T08:00:03Z</time>
      </trkpt>
      <trkpt lat="43.0979600" lon="-0.8195490">
        <ele>256.2</ele>
        <time>2020-07-29T08:00:05Z</time>
      </trkpt>
      <trkpt lat="43.0979630" lon="-0.8195210">
        <ele>256.6</ele>
        <time>2020-07-29T08:00:58Z</time>
      </trkpt>
      <trkpt lat="43.0979670" lon="-0.8194920">
        <ele>256.4</ele>
        <time>2020-07-29T08:00:59Z</time>
      </trkpt>
      <trkpt lat="43.0980910" lon="-0.8198730">
        <ele>255.8</ele>
        <time>2020-07-29T08:01:05Z</time>
      </trkpt>
      <trkpt lat="43.0981720" lon="-0.8200660">
        <ele>255.2</ele>
        <time>2020-07-29T08:01:08Z</time>
      </trkpt>
      <trkpt lat="43.0982540" lon="-0.8202720">
        <ele>255.0</ele>
        <time>2020-07-29T08:01:11Z</time>
      </trkpt>
      <trkpt lat="43.0982800" lon="-0.8203440">
        <ele>255.0</ele>
        <time>2020-07-29T08:01:12Z</time>
      </trkpt>
      <trkpt lat="43.0983510" lon="-0.8205620">
        <ele>255.2</ele>
        <time>2020-07-29T08:01:15Z</time>
      </trkpt>
      <trkpt lat="43.0984790" lon="-0.8209270">
        <ele>255.8</ele>
        <time>2020-07-29T08:01:20Z</time>
      </trkpt>
      <trkpt lat="43.0985040" lon="-0.8210000">
        <ele>256.0</ele>
        <time>2020-07-29T08:01:21Z</time>
      </trkpt>
      <trkpt lat="43.0986610" lon="-0.8214300">
        <ele>255.8</ele>
        <time>2020-07-29T08:01:27Z</time>
      </trkpt>
      <trkpt lat="43.0987460" lon="-0.8216710">
        <ele>255.4</ele>
        <time>2020-07-29T08:01:30Z</time>
      </trkpt>
      <trkpt lat="43.0987750" lon="-0.8217560">
        <ele>255.0</ele>
        <time>2020-07-29T08:01:31Z</time>
      </trkpt>
      <trkpt lat="43.0988050" lon="-0.8218440">
        <ele>254.8</ele>
        <time>2020-07-29T08:01:32Z</time>
      </trkpt>
      <trkpt lat="43.0988740" lon="-0.8220310">
        <ele>254.0</ele>
        <time>2020-07-29T08:01:34Z</time>
      </trkpt>
      <trkpt lat="43.0989110" lon="-0.8221300">
        <ele>253.6</ele>
        <time>2020-07-29T08:01:35Z</time>
      </trkpt>
      <trkpt lat="43.0989480" lon="-0.8222320">
        <ele>253.2</ele>
        <time>2020-07-29T08:01:36Z</time>
      </trkpt>
      <trkpt lat="43.0990250" lon="-0.8224440">
        <ele>252.0</ele>
        <time>2020-07-29T08:01:38Z</time>
      </trkpt>
      <trkpt lat="43.0991420" lon="-0.8227750">
        <ele>250.6</ele>
        <time>2020-07-29T08:01:41Z</time>
      </trkpt>
      <trkpt lat="43.0992610" lon="-0.8231090">
        <ele>250.0</ele>
        <time>2020-07-29T08:01:44Z</time>
      </trkpt>
      <trkpt lat="43.0994890" lon="-0.8237370">
        <ele>250.2</ele>
        <time>2020-07-29T08:01:50Z</time>
      </trkpt>
      <trkpt lat="43.0995250" lon="-0.8238380">
        <ele>250.2</ele>
        <time>2020-07-29T08:01:51Z</time>
      </trkpt>
      <trkpt lat="43.0997360" lon="-0.8244180">
        <ele>251.0</ele>
        <time>2020-07-29T08:01:57Z</time>
      </trkpt>
      <trkpt lat="43.0998440" lon="-0.8246930">
        <ele>251.0</ele>
        <time>2020-07-29T08:02:00Z</time>
      </trkpt>
      <trkpt lat="43.0999600" lon="-0.8249520">
        <ele>251.0</ele>
        <time>2020-07-29T08:02:03Z</time>
      </trkpt>
      <trkpt lat="43.1001560" lon="-0.8253810">
        <ele>251.0</ele>
        <time>2020-07-29T08:02:08Z</time>
      </trkpt>
      <trkpt lat="43.1001920" lon="-0.8254730">
        <ele>251.0</ele>
        <time>2020-07-29T08:02:09Z</time>
      </trkpt>
      <trkpt lat="43.1003080" lon="-0.8259720">
        <ele>250.4</ele>
        <time>2020-07-29T08:02:14Z</time>
      </trkpt>
      <trkpt lat="43.1003160" lon="-0.8261900">
        <ele>249.4</ele>
        <time>2020-07-29T08:02:16Z</time>
      </trkpt>
      <trkpt lat="43.1002920" lon="-0.8264150">
        <ele>248.8</ele>
        <time>2020-07-29T08:02:18Z</time>
      </trkpt>
      <trkpt lat="43.1002450" lon="-0.8266430">
        <ele>248.4</ele>
        <time>2020-07-29T08:02:20Z</time>
      </trkpt>
      <trkpt lat="43.1001340" lon="-0.8269860">
        <ele>247.6</ele>
        <time>2020-07-29T08:02:23Z</time>
      </trkpt>
      <trkpt lat="43.1000910" lon="-0.8271000">
        <ele>247.0</ele>
        <time>2020-07-29T08:02:24Z</time>
      </trkpt>
      <trkpt lat="43.1000010" lon="-0.8273490">
        <ele>245.8</ele>
        <time>2020-07-29T08:02:26Z</time>
      </trkpt>
      <trkpt lat="43.0999270" lon="-0.8276170">
        <ele>244.4</ele>
        <time>2020-07-29T08:02:28Z</time>
      </trkpt>
      <trkpt lat="43.0999020" lon="-0.8277580">
        <ele>243.6</ele>
        <time>2020-07-29T08:02:29Z</time>
      </trkpt>
      <trkpt lat="43.0998880" lon="-0.8279050">
        <ele>243.0</ele>
        <time>2020-07-29T08:02:30Z</time>
      </trkpt>
      <trkpt lat="43.0998860" lon="-0.8280550">
        <ele>242.2</ele>
        <time>2020-07-29T08:02:31Z</time>
      </trkpt>
      <trkpt lat="43.0998940" lon="-0.8282080">
        <ele>241.6</ele>
        <time>2020-07-29T08:02:32Z</time>
      </trkpt>
      <trkpt lat="43.0999550" lon="-0.8286660">
        <ele>240.2</ele>
        <time>2020-07-29T08:02:35Z</time>
      </trkpt>
      <trkpt lat="43.1000080" lon="-0.8289660">
        <ele>239.0</ele>
        <time>2020-07-29T08:02:37Z</time>
      </trkpt>
      <trkpt lat="43.1000640" lon="-0.8292600">
        <ele>238.6</ele>
        <time>2020-07-29T08:02:39Z</time>
      </trkpt>
      <trkpt lat="43.1001180" lon="-0.8295490">
        <ele>238.2</ele>
        <time>2020-07-29T08:02:41Z</time>
      </trkpt>
      <trkpt lat="43.1001450" lon="-0.8296910">
        <ele>238.2</ele>
        <time>2020-07-29T08:02:42Z</time>
      </trkpt>
      <trkpt lat="43.1001690" lon="-0.8298310">
        <ele>238.4</ele>
        <time>2020-07-29T08:02:43Z</time>
      </trkpt>
      <trkpt lat="43.1001950" lon="-0.8299680">
        <ele>238.2</ele>
        <time>2020-07-29T08:02:44Z</time>
      </trkpt>
      <trkpt lat="43.1002200" lon="-0.8301040">
        <ele>238.2</ele>
        <time>2020-07-29T08:02:45Z</time>
      </trkpt>
      <trkpt lat="43.1002940" lon="-0.8305030">
        <ele>238.2</ele>
        <time>2020-07-29T08:02:48Z</time>
      </trkpt>
      <trkpt lat="43.1003430" lon="-0.8307640">
        <ele>238.4</ele>
        <time>2020-07-29T08:02:50Z</time>
      </trkpt>
      <trkpt lat="43.1004130" lon="-0.8311430">
        <ele>238.0</ele>
        <time>2020-07-29T08:02:53Z</time>
      </trkpt>
      <trkpt lat="43.1005120" lon="-0.8317520">
        <ele>237.8</ele>
        <time>2020-07-29T08:02:58Z</time>
      </trkpt>
      <trkpt lat="43.1006080" lon="-0.8324330">
        <ele>238.4</ele>
        <time>2020-07-29T08:03:04Z</time>
      </trkpt>
      <trkpt lat="43.1006550" lon="-0.8327660">
        <ele>238.8</ele>
        <time>2020-07-29T08:03:07Z</time>
      </trkpt>
      <trkpt lat="43.1007240" lon="-0.8333330">
        <ele>239.2</ele>
        <time>2020-07-29T08:03:12Z</time>
      </trkpt>
      <trkpt lat="43.1007680" lon="-0.8336700">
        <ele>239.6</ele>
        <time>2020-07-29T08:03:15Z</time>
      </trkpt>
      <trkpt lat="43.1008460" lon="-0.8343560">
        <ele>239.2</ele>
        <time>2020-07-29T08:03:21Z</time>
      </trkpt>
      <trkpt lat="43.1008710" lon="-0.8345900">
        <ele>239.0</ele>
        <time>2020-07-29T08:03:23Z</time>
      </trkpt>
      <trkpt lat="43.1008830" lon="-0.8347090">
        <ele>238.8</ele>
        <time>2020-07-29T08:03:24Z</time>
      </trkpt>
      <trkpt lat="43.1009600" lon="-0.8354440">
        <ele>238.2</ele>
        <time>2020-07-29T08:03:30Z</time>
      </trkpt>
      <trkpt lat="43.1010010" lon="-0.8358210">
        <ele>237.0</ele>
        <time>2020-07-29T08:03:33Z</time>
      </trkpt>
      <trkpt lat="43.1010150" lon="-0.8359470">
        <ele>236.6</ele>
        <time>2020-07-29T08:03:34Z</time>
      </trkpt>
      <trkpt lat="43.1010940" lon="-0.8366970">
        <ele>236.0</ele>
        <time>2020-07-29T08:03:40Z</time>
      </trkpt>
      <trkpt lat="43.1011070" lon="-0.8368220">
        <ele>235.8</ele>
        <time>2020-07-29T08:03:41Z</time>
      </trkpt>
      <trkpt lat="43.1011740" lon="-0.8374340">
        <ele>234.8</ele>
        <time>2020-07-29T08:03:46Z</time>
      </trkpt>
      <trkpt lat="43.1012360" lon="-0.8380160">
        <ele>234.8</ele>
        <time>2020-07-29T08:03:51Z</time>
      </trkpt>
      <trkpt lat="43.1012810" lon="-0.8384570">
        <ele>234.6</ele>
        <time>2020-07-29T08:03:55Z</time>
      </trkpt>
      <trkpt lat="43.1012980" lon="-0.8391150">
        <ele>234.2</ele>
        <time>2020-07-29T08:04:01Z</time>
      </trkpt>
      <trkpt lat="43.1012900" lon="-0.8392240">
        <ele>234.2</ele>
        <time>2020-07-29T08:04:02Z</time>
      </trkpt>
      <trkpt lat="43.1012210" lon="-0.8397520">
        <ele>234.6</ele>
        <time>2020-07-29T08:04:07Z</time>
      </trkpt>
      <trkpt lat="43.1011630" lon="-0.8400610">
        <ele>234.6</ele>
        <time>2020-07-29T08:04:10Z</time>
      </trkpt>
      <trkpt lat="43.1010870" lon="-0.8405860">
        <ele>234.4</ele>
        <time>2020-07-29T08:04:15Z</time>
      </trkpt>
      <trkpt lat="43.1010730" lon="-0.8408060">
        <ele>234.2</ele>
        <time>2020-07-29T08:04:17Z</time>
      </trkpt>
      <trkpt lat="43.1010900" lon="-0.8412690">
        <ele>233.6</ele>
        <time>2020-07-29T08:04:21Z</time>
      </trkpt>
      <trkpt lat="43.1011010" lon="-0.8413890">
        <ele>233.4</ele>
        <time>2020-07-29T08:04:22Z</time>
      </trkpt>
      <trkpt lat="43.1011160" lon="-0.8415070">
        <ele>233.0</ele>
        <time>2020-07-29T08:04:23Z</time>
      </trkpt>
      <trkpt lat="43.1011340" lon="-0.8416250">
        <ele>232.6</ele>
        <time>2020-07-29T08:04:24Z</time>
      </trkpt>
      <trkpt lat="43.1011530" lon="-0.8417440">
        <ele>232.2</ele>
        <time>2020-07-29T08:04:25Z</time>
      </trkpt>
      <trkpt lat="43.1012210" lon="-0.8420970">
        <ele>231.2</ele>
        <time>2020-07-29T08:04:28Z</time>
      </trkpt>
      <trkpt lat="43.1013590" lon="-0.8428010">
        <ele>231.4</ele>
        <time>2020-07-29T08:04:34Z</time>
      </trkpt>
      <trkpt lat="43.1013920" lon="-0.8430380">
        <ele>231.2</ele>
        <time>2020-07-29T08:04:36Z</time>
      </trkpt>
      <trkpt lat="43.1014010" lon="-0.8436430">
        <ele>230.6</ele>
        <time>2020-07-29T08:04:41Z</time>
      </trkpt>
      <trkpt lat="43.1013700" lon="-0.8443720">
        <ele>230.6</ele>
        <time>2020-07-29T08:04:47Z</time>
      </trkpt>
      <trkpt lat="43.1013590" lon="-0.8450890">
        <ele>230.6</ele>
        <time>2020-07-29T08:04:53Z</time>
      </trkpt>
      <trkpt lat="43.1013900" lon="-0.8458150">
        <ele>230.8</ele>
        <time>2020-07-29T08:04:59Z</time>
      </trkpt>
      <trkpt lat="43.1014240" lon="-0.8461610">
        <ele>231.2</ele>
        <time>2020-07-29T08:05:02Z</time>
      </trkpt>
      <trkpt lat="43.1015010" lon="-0.8467850">
        <ele>231.2</ele>
        <time>2020-07-29T08:05:08Z</time>
      </trkpt>
      <trkpt lat="43.1015840" lon="-0.8473970">
        <ele>231.0</ele>
        <time>2020-07-29T08:05:14Z</time>
      </trkpt>
      <trkpt lat="43.1016110" lon="-0.8476160">
        <ele>231.0</ele>
        <time>2020-07-29T08:05:16Z</time>
      </trkpt>
      <trkpt lat="43.1017000" lon="-0.8483040">
        <ele>230.2</ele>
        <time>2020-07-29T08:05:22Z</time>
      </trkpt>
      <trkpt lat="43.1017150" lon="-0.8484220">
        <ele>230.0</ele>
        <time>2020-07-29T08:05:23Z</time>
      </trkpt>
      <trkpt lat="43.1017460" lon="-0.8486580">
        <ele>229.8</ele>
        <time>2020-07-29T08:05:25Z</time>
      </trkpt>
      <trkpt lat="43.1018380" lon="-0.8493640">
        <ele>229.2</ele>
        <time>2020-07-29T08:05:31Z</time>
      </trkpt>
      <trkpt lat="43.1019270" lon="-0.8499280">
        <ele>229.2</ele>
        <time>2020-07-29T08:05:36Z</time>
      </trkpt>
      <trkpt lat="43.1020640" lon="-0.8504370">
        <ele>229.8</ele>
        <time>2020-07-29T08:05:41Z</time>
      </trkpt>
      <trkpt lat="43.1021000" lon="-0.8505290">
        <ele>229.8</ele>
        <time>2020-07-29T08:05:42Z</time>
      </trkpt>
      <trkpt lat="43.1022920" lon="-0.8509350">
        <ele>230.8</ele>
        <time>2020-07-29T08:05:47Z</time>
      </trkpt>
      <trkpt lat="43.1023360" lon="-0.8510040">
        <ele>231.0</ele>
        <time>2020-07-29T08:05:48Z</time>
      </trkpt>
      <trkpt lat="43.1024890" lon="-0.8511870">
        <ele>231.4</ele>
        <time>2020-07-29T08:05:51Z</time>
      </trkpt>
      <trkpt lat="43.1025940" lon="-0.8513100">
        <ele>231.6</ele>
        <time>2020-07-29T08:05:53Z</time>
      </trkpt>
      <trkpt lat="43.1028700" lon="-0.8516290">
        <ele>231.6</ele>
        <time>2020-07-29T08:05:58Z</time>
      </trkpt>
      <trkpt lat="43.1030440" lon="-0.8518160">
        <ele>231.0</ele>
        <time>2020-07-29T08:06:01Z</time>
      </trkpt>
      <trkpt lat="43.1034010" lon="-0.8522010">
        <ele>230.4</ele>
        <time>2020-07-29T08:06:07Z</time>
      </trkpt>
      <trkpt lat="43.1037160" lon="-0.8525490">
        <ele>229.8</ele>
        <time>2020-07-29T08:06:12Z</time>
      </trkpt>
      <trkpt lat="43.1037810" lon="-0.8526250">
        <ele>229.6</ele>
        <time>2020-07-29T08:06:13Z</time>
      </trkpt>
      <trkpt lat="43.1039140" lon="-0.8527820">
        <ele>229.2</ele>
        <time>2020-07-29T08:06:15Z</time>
      </trkpt>
      <trkpt lat="43.1039790" lon="-0.8528650">
        <ele>228.8</ele>
        <time>2020-07-29T08:06:16Z</time>
      </trkpt>
      <trkpt lat="43.1041820" lon="-0.8531170">
        <ele>227.4</ele>
        <time>2020-07-29T08:06:19Z</time>
      </trkpt>
      <trkpt lat="43.1043850" lon="-0.8533710">
        <ele>226.4</ele>
        <time>2020-07-29T08:06:22Z</time>
      </trkpt>
      <trkpt lat="43.1044500" lon="-0.8534610">
        <ele>226.2</ele>
        <time>2020-07-29T08:06:23Z</time>
      </trkpt>
      <trkpt lat="43.1048140" lon="-0.8540010">
        <ele>225.4</ele>
        <time>2020-07-29T08:06:29Z</time>
      </trkpt>
      <trkpt lat="43.1049240" lon="-0.8541830">
        <ele>225.4</ele>
        <time>2020-07-29T08:06:31Z</time>
      </trkpt>
      <trkpt lat="43.1052440" lon="-0.8547180">
        <ele>225.2</ele>
        <time>2020-07-29T08:06:37Z</time>
      </trkpt>
      <trkpt lat="43.1054580" lon="-0.8550600">
        <ele>225.0</ele>
        <time>2020-07-29T08:06:41Z</time>
      </trkpt>
      <trkpt lat="43.1057230" lon="-0.8555720">
        <ele>225.2</ele>
        <time>2020-07-29T08:06:47Z</time>
      </trkpt>
      <trkpt lat="43.1058250" lon="-0.8558410">
        <ele>225.6</ele>
        <time>2020-07-29T08:06:50Z</time>
      </trkpt>
      <trkpt lat="43.1060210" lon="-0.8563420">
        <ele>226.0</ele>
        <time>2020-07-29T08:06:56Z</time>
      </trkpt>
      <trkpt lat="43.1062190" lon="-0.8567350">
        <ele>225.8</ele>
        <time>2020-07-29T08:07:01Z</time>
      </trkpt>
      <trkpt lat="43.1062730" lon="-0.8568020">
        <ele>225.6</ele>
        <time>2020-07-29T08:07:02Z</time>
      </trkpt>
      <trkpt lat="43.1063330" lon="-0.8568600">
        <ele>225.4</ele>
        <time>2020-07-29T08:07:03Z</time>
      </trkpt>
      <trkpt lat="43.1064670" lon="-0.8569490">
        <ele>225.0</ele>
        <time>2020-07-29T08:07:05Z</time>
      </trkpt>
      <trkpt lat="43.1065410" lon="-0.8569790">
        <ele>225.0</ele>
        <time>2020-07-29T08:07:06Z</time>
      </trkpt>
      <trkpt lat="43.1067670" lon="-0.8570490">
        <ele>224.2</ele>
        <time>2020-07-29T08:07:09Z</time>
      </trkpt>
      <trkpt lat="43.1070710" lon="-0.8571760">
        <ele>223.0</ele>
        <time>2020-07-29T08:07:13Z</time>
      </trkpt>
      <trkpt lat="43.1074970" lon="-0.8574380">
        <ele>222.0</ele>
        <time>2020-07-29T08:07:19Z</time>
      </trkpt>
      <trkpt lat="43.1075590" lon="-0.8574990">
        <ele>221.8</ele>
        <time>2020-07-29T08:07:20Z</time>
      </trkpt>
      <trkpt lat="43.1078290" lon="-0.8578450">
        <ele>221.4</ele>
        <time>2020-07-29T08:07:25Z</time>
      </trkpt>
      <trkpt lat="43.1079220" lon="-0.8580030">
        <ele>220.8</ele>
        <time>2020-07-29T08:07:27Z</time>
      </trkpt>
      <trkpt lat="43.1080500" lon="-0.8582460">
        <ele>220.0</ele>
        <time>2020-07-29T08:07:30Z</time>
      </trkpt>
      <trkpt lat="43.1080930" lon="-0.8583240">
        <ele>219.8</ele>
        <time>2020-07-29T08:07:31Z</time>
      </trkpt>
      <trkpt lat="43.1083410" lon="-0.8586840">
        <ele>218.8</ele>
        <time>2020-07-29T08:07:36Z</time>
      </trkpt>
      <trkpt lat="43.1083960" lon="-0.8587500">
        <ele>218.8</ele>
        <time>2020-07-29T08:07:37Z</time>
      </trkpt>
      <trkpt lat="43.1087760" lon="-0.8591450">
        <ele>218.4</ele>
        <time>2020-07-29T08:07:43Z</time>
      </trkpt>
      <trkpt lat="43.1089810" lon="-0.8593200">
        <ele>217.6</ele>
        <time>2020-07-29T08:07:46Z</time>
      </trkpt>
      <trkpt lat="43.1091850" lon="-0.8595100">
        <ele>216.2</ele>
        <time>2020-07-29T08:07:49Z</time>
      </trkpt>
      <trkpt lat="43.1092550" lon="-0.8595690">
        <ele>216.0</ele>
        <time>2020-07-29T08:07:50Z</time>
      </trkpt>
      <trkpt lat="43.1096340" lon="-0.8597840">
        <ele>215.6</ele>
        <time>2020-07-29T08:07:55Z</time>
      </trkpt>
      <trkpt lat="43.1098710" lon="-0.8598850">
        <ele>215.2</ele>
        <time>2020-07-29T08:07:58Z</time>
      </trkpt>
      <trkpt lat="43.1100250" lon="-0.8599480">
        <ele>215.0</ele>
        <time>2020-07-29T08:08:00Z</time>
      </trkpt>
      <trkpt lat="43.1102500" lon="-0.8600150">
        <ele>215.0</ele>
        <time>2020-07-29T08:08:03Z</time>
      </trkpt>
      <trkpt lat="43.1104780" lon="-0.8600260">
        <ele>215.2</ele>
        <time>2020-07-29T08:08:06Z</time>
      </trkpt>
      <trkpt lat="43.1106260" lon="-0.8600110">
        <ele>215.2</ele>
        <time>2020-07-29T08:08:08Z</time>
      </trkpt>
      <trkpt lat="43.1110450" lon="-0.8599530">
        <ele>215.8</ele>
        <time>2020-07-29T08:08:14Z</time>
      </trkpt>
      <trkpt lat="43.1111120" lon="-0.8599470">
        <ele>216.0</ele>
        <time>2020-07-29T08:08:15Z</time>
      </trkpt>
      <trkpt lat="43.1112420" lon="-0.8599480">
        <ele>216.2</ele>
        <time>2020-07-29T08:08:17Z</time>
      </trkpt>
      <trkpt lat="43.1113040" lon="-0.8599520">
        <ele>216.2</ele>
        <time>2020-07-29T08:08:18Z</time>
      </trkpt>
      <trkpt lat="43.1113670" lon="-0.8599550">
        <ele>216.4</ele>
        <time>2020-07-29T08:08:19Z</time>
      </trkpt>
      <trkpt lat="43.1114280" lon="-0.8599590">
        <ele>216.4</ele>
        <time>2020-07-29T08:08:20Z</time>
      </trkpt>
      <trkpt lat="43.1114880" lon="-0.8599610">
        <ele>216.4</ele>
        <time>2020-07-29T08:08:21Z</time>
      </trkpt>
      <trkpt lat="43.1115460" lon="-0.8599620">
        <ele>216.8</ele>
        <time>2020-07-29T08:08:22Z</time>
      </trkpt>
      <trkpt lat="43.1116040" lon="-0.8599570">
        <ele>217.2</ele>
        <time>2020-07-29T08:08:23Z</time>
      </trkpt>
      <trkpt lat="43.1116600" lon="-0.8599570">
        <ele>217.6</ele>
        <time>2020-07-29T08:08:24Z</time>
      </trkpt>
      <trkpt lat="43.1118180" lon="-0.8599700">
        <ele>219.0</ele>
        <time>2020-07-29T08:08:27Z</time>
      </trkpt>
      <trkpt lat="43.1119170" lon="-0.8599780">
        <ele>219.8</ele>
        <time>2020-07-29T08:08:29Z</time>
      </trkpt>
      <trkpt lat="43.1120120" lon="-0.8599940">
        <ele>220.2</ele>
        <time>2020-07-29T08:08:31Z</time>
      </trkpt>
      <trkpt lat="43.1122450" lon="-0.8600330">
        <ele>220.6</ele>
        <time>2020-07-29T08:08:36Z</time>
      </trkpt>
      <trkpt lat="43.1125160" lon="-0.8601590">
        <ele>220.6</ele>
        <time>2020-07-29T08:08:42Z</time>
      </trkpt>
      <trkpt lat="43.1125640" lon="-0.8601870">
        <ele>220.6</ele>
        <time>2020-07-29T08:08:43Z</time>
      </trkpt>
      <trkpt lat="43.1128710" lon="-0.8604060">
        <ele>219.8</ele>
        <time>2020-07-29T08:08:49Z</time>
      </trkpt>
      <trkpt lat="43.1129230" lon="-0.8604500">
        <ele>219.8</ele>
        <time>2020-07-29T08:08:50Z</time>
      </trkpt>
      <trkpt lat="43.1131490" lon="-0.8605750">
        <ele>219.6</ele>
        <time>2020-07-29T08:08:54Z</time>
      </trkpt>
      <trkpt lat="43.1134810" lon="-0.8608070">
        <ele>219.0</ele>
        <time>2020-07-29T08:09:00Z</time>
      </trkpt>
      <trkpt lat="43.1135340" lon="-0.8608520">
        <ele>219.0</ele>
        <time>2020-07-29T08:09:01Z</time>
      </trkpt>
      <trkpt lat="43.1138780" lon="-0.8610540">
        <ele>219.2</ele>
        <time>2020-07-29T08:09:07Z</time>
      </trkpt>
      <trkpt lat="43.1141130" lon="-0.8611920">
        <ele>219.4</ele>
        <time>2020-07-29T08:09:11Z</time>
      </trkpt>
      <trkpt lat="43.1143670" lon="-0.8614770">
        <ele>219.4</ele>
        <time>2020-07-29T08:09:16Z</time>
      </trkpt>
      <trkpt lat="43.1144190" lon="-0.8615130">
        <ele>219.4</ele>
        <time>2020-07-29T08:09:17Z</time>
      </trkpt>
      <trkpt lat="43.1146190" lon="-0.8616470">
        <ele>219.2</ele>
        <time>2020-07-29T08:09:21Z</time>
      </trkpt>
      <trkpt lat="43.1149300" lon="-0.8618440">
        <ele>219.4</ele>
        <time>2020-07-29T08:09:27Z</time>
      </trkpt>
      <trkpt lat="43.1150410" lon="-0.8619080">
        <ele>219.4</ele>
        <time>2020-07-29T08:09:29Z</time>
      </trkpt>
      <trkpt lat="43.1153470" lon="-0.8621340">
        <ele>219.2</ele>
        <time>2020-07-29T08:09:35Z</time>
      </trkpt>
      <trkpt lat="43.1153910" lon="-0.8621870">
        <ele>219.2</ele>
        <time>2020-07-29T08:09:36Z</time>
      </trkpt>
      <trkpt lat="43.1154330" lon="-0.8622450">
        <ele>219.0</ele>
        <time>2020-07-29T08:09:37Z</time>
      </trkpt>
      <trkpt lat="43.1155860" lon="-0.8624590">
        <ele>218.2</ele>
        <time>2020-07-29T08:09:41Z</time>
      </trkpt>
      <trkpt lat="43.1156200" lon="-0.8625140">
        <ele>218.0</ele>
        <time>2020-07-29T08:09:42Z</time>
      </trkpt>
      <trkpt lat="43.1156710" lon="-0.8626560">
        <ele>217.2</ele>
        <time>2020-07-29T08:09:44Z</time>
      </trkpt>
      <trkpt lat="43.1156970" lon="-0.8627280">
        <ele>217.0</ele>
        <time>2020-07-29T08:09:45Z</time>
      </trkpt>
      <trkpt lat="43.1157260" lon="-0.8627920">
        <ele>216.8</ele>
        <time>2020-07-29T08:09:46Z</time>
      </trkpt>
      <trkpt lat="43.1157930" lon="-0.8629220">
        <ele>216.2</ele>
        <time>2020-07-29T08:09:49Z</time>
      </trkpt>
      <trkpt lat="43.1158130" lon="-0.8629390">
        <ele>216.2</ele>
        <time>2020-07-29T08:09:51Z</time>
      </trkpt>
      <trkpt lat="43.1170400" lon="-0.8642000">
        <ele>208.8</ele>
        <time>2020-07-29T08:37:27Z</time>
      </trkpt>
      <trkpt lat="43.1170210" lon="-0.8642510">
        <ele>208.8</ele>
        <time>2020-07-29T08:37:28Z</time>
      </trkpt>
      <trkpt lat="43.1169400" lon="-0.8645650">
        <ele>207.8</ele>
        <time>2020-07-29T08:37:33Z</time>
      </trkpt>
      <trkpt lat="43.1169250" lon="-0.8646250">
        <ele>207.6</ele>
        <time>2020-07-29T08:37:34Z</time>
      </trkpt>
      <trkpt lat="43.1168850" lon="-0.8647430">
        <ele>207.6</ele>
        <time>2020-07-29T08:37:36Z</time>
      </trkpt>
      <trkpt lat="43.1167720" lon="-0.8651100">
        <ele>207.4</ele>
        <time>2020-07-29T08:37:42Z</time>
      </trkpt>
      <trkpt lat="43.1166630" lon="-0.8654500">
        <ele>208.6</ele>
        <time>2020-07-29T08:37:48Z</time>
      </trkpt>
      <trkpt lat="43.1166200" lon="-0.8655720">
        <ele>208.6</ele>
        <time>2020-07-29T08:37:50Z</time>
      </trkpt>
      <trkpt lat="43.1164720" lon="-0.8660240">
        <ele>207.8</ele>
        <time>2020-07-29T08:37:56Z</time>
      </trkpt>
      <trkpt lat="43.1164430" lon="-0.8661080">
        <ele>207.4</ele>
        <time>2020-07-29T08:37:57Z</time>
      </trkpt>
      <trkpt lat="43.1163560" lon="-0.8663720">
        <ele>206.6</ele>
        <time>2020-07-29T08:38:00Z</time>
      </trkpt>
      <trkpt lat="43.1162620" lon="-0.8666440">
        <ele>205.8</ele>
        <time>2020-07-29T08:38:03Z</time>
      </trkpt>
      <trkpt lat="43.1162310" lon="-0.8667350">
        <ele>205.4</ele>
        <time>2020-07-29T08:38:04Z</time>
      </trkpt>
      <trkpt lat="43.1161600" lon="-0.8670060">
        <ele>204.8</ele>
        <time>2020-07-29T08:38:07Z</time>
      </trkpt>
      <trkpt lat="43.1161430" lon="-0.8671880">
        <ele>204.6</ele>
        <time>2020-07-29T08:38:09Z</time>
      </trkpt>
      <trkpt lat="43.1161620" lon="-0.8674570">
        <ele>204.6</ele>
        <time>2020-07-29T08:38:12Z</time>
      </trkpt>
      <trkpt lat="43.1161860" lon="-0.8675450">
        <ele>204.6</ele>
        <time>2020-07-29T08:38:13Z</time>
      </trkpt>
      <trkpt lat="43.1163920" lon="-0.8680600">
        <ele>204.4</ele>
        <time>2020-07-29T08:38:19Z</time>
      </trkpt>
      <trkpt lat="43.1164280" lon="-0.8681460">
        <ele>204.4</ele>
        <time>2020-07-29T08:38:20Z</time>
      </trkpt>
      <trkpt lat="43.1166350" lon="-0.8686680">
        <ele>203.8</ele>
        <time>2020-07-29T08:38:26Z</time>
      </trkpt>
      <trkpt lat="43.1166700" lon="-0.8687520">
        <ele>203.8</ele>
        <time>2020-07-29T08:38:27Z</time>
      </trkpt>
      <trkpt lat="43.1167660" lon="-0.8689960">
        <ele>203.8</ele>
        <time>2020-07-29T08:38:30Z</time>
      </trkpt>
      <trkpt lat="43.1169370" lon="-0.8694150">
        <ele>205.0</ele>
        <time>2020-07-29T08:38:36Z</time>
      </trkpt>
      <trkpt lat="43.1169640" lon="-0.8694810">
        <ele>205.4</ele>
        <time>2020-07-29T08:38:37Z</time>
      </trkpt>
      <trkpt lat="43.1169910" lon="-0.8695480">
        <ele>205.6</ele>
        <time>2020-07-29T08:38:38Z</time>
      </trkpt>
      <trkpt lat="43.1170980" lon="-0.8698190">
        <ele>206.0</ele>
        <time>2020-07-29T08:38:42Z</time>
      </trkpt>
      <trkpt lat="43.1171780" lon="-0.8700270">
        <ele>206.4</ele>
        <time>2020-07-29T08:38:45Z</time>
      </trkpt>
      <trkpt lat="43.1172340" lon="-0.8701630">
        <ele>206.6</ele>
        <time>2020-07-29T08:38:47Z</time>
      </trkpt>
      <trkpt lat="43.1172610" lon="-0.8702290">
        <ele>206.6</ele>
        <time>2020-07-29T08:38:48Z</time>
      </trkpt>
      <trkpt lat="43.1174190" lon="-0.8706280">
        <ele>207.2</ele>
        <time>2020-07-29T08:38:54Z</time>
      </trkpt>
      <trkpt lat="43.1174480" lon="-0.8706980">
        <ele>207.2</ele>
        <time>2020-07-29T08:38:55Z</time>
      </trkpt>
      <trkpt lat="43.1176220" lon="-0.8711230">
        <ele>207.2</ele>
        <time>2020-07-29T08:39:01Z</time>
      </trkpt>
      <trkpt lat="43.1177150" lon="-0.8713310">
        <ele>207.8</ele>
        <time>2020-07-29T08:39:04Z</time>
      </trkpt>
      <trkpt lat="43.1178410" lon="-0.8716500">
        <ele>209.0</ele>
        <time>2020-07-29T08:39:09Z</time>
      </trkpt>
      <trkpt lat="43.1178860" lon="-0.8717650">
        <ele>209.6</ele>
        <time>2020-07-29T08:39:11Z</time>
      </trkpt>
      <trkpt lat="43.1179300" lon="-0.8718690">
        <ele>210.0</ele>
        <time>2020-07-29T08:39:13Z</time>
      </trkpt>
      <trkpt lat="43.1179880" lon="-0.8720150">
        <ele>211.0</ele>
        <time>2020-07-29T08:39:16Z</time>
      </trkpt>
      <trkpt lat="43.1180330" lon="-0.8721590">
        <ele>212.0</ele>
        <time>2020-07-29T08:39:19Z</time>
      </trkpt>
      <trkpt lat="43.1180480" lon="-0.8722040">
        <ele>212.4</ele>
        <time>2020-07-29T08:39:20Z</time>
      </trkpt>
      <trkpt lat="43.1181030" lon="-0.8723700">
        <ele>213.4</ele>
        <time>2020-07-29T08:39:24Z</time>
      </trkpt>
      <trkpt lat="43.1181180" lon="-0.8724570">
        <ele>214.0</ele>
        <time>2020-07-29T08:39:26Z</time>
      </trkpt>
      <trkpt lat="43.1181330" lon="-0.8725470">
        <ele>214.6</ele>
        <time>2020-07-29T08:39:28Z</time>
      </trkpt>
      <trkpt lat="43.1181600" lon="-0.8726810">
        <ele>215.8</ele>
        <time>2020-07-29T08:39:31Z</time>
      </trkpt>
      <trkpt lat="43.1181820" lon="-0.8728220">
        <ele>216.2</ele>
        <time>2020-07-29T08:39:34Z</time>
      </trkpt>
      <trkpt lat="43.1181980" lon="-0.8729170">
        <ele>217.0</ele>
        <time>2020-07-29T08:39:36Z</time>
      </trkpt>
      <trkpt lat="43.1182290" lon="-0.8731250">
        <ele>217.8</ele>
        <time>2020-07-29T08:39:40Z</time>
      </trkpt>
      <trkpt lat="43.1182380" lon="-0.8731820">
        <ele>218.0</ele>
        <time>2020-07-29T08:39:41Z</time>
      </trkpt>
      <trkpt lat="43.1182480" lon="-0.8732410">
        <ele>218.0</ele>
        <time>2020-07-29T08:39:42Z</time>
      </trkpt>
      <trkpt lat="43.1183130" lon="-0.8736080">
        <ele>218.2</ele>
        <time>2020-07-29T08:39:48Z</time>
      </trkpt>
      <trkpt lat="43.1183440" lon="-0.8738060">
        <ele>218.4</ele>
        <time>2020-07-29T08:39:51Z</time>
      </trkpt>
      <trkpt lat="43.1184170" lon="-0.8742130">
        <ele>218.4</ele>
        <time>2020-07-29T08:39:57Z</time>
      </trkpt>
      <trkpt lat="43.1184410" lon="-0.8743560">
        <ele>218.6</ele>
        <time>2020-07-29T08:39:59Z</time>
      </trkpt>
      <trkpt lat="43.1185150" lon="-0.8747920">
        <ele>218.4</ele>
        <time>2020-07-29T08:40:05Z</time>
      </trkpt>
      <trkpt lat="43.1185630" lon="-0.8750830">
        <ele>218.2</ele>
        <time>2020-07-29T08:40:09Z</time>
      </trkpt>
      <trkpt lat="43.1185700" lon="-0.8754720">
        <ele>218.2</ele>
        <time>2020-07-29T08:40:14Z</time>
      </trkpt>
      <trkpt lat="43.1185600" lon="-0.8755500">
        <ele>218.2</ele>
        <time>2020-07-29T08:40:15Z</time>
      </trkpt>
      <trkpt lat="43.1185420" lon="-0.8756270">
        <ele>218.2</ele>
        <time>2020-07-29T08:40:16Z</time>
      </trkpt>
      <trkpt lat="43.1184840" lon="-0.8757840">
        <ele>218.2</ele>
        <time>2020-07-29T08:40:18Z</time>
      </trkpt>
      <trkpt lat="43.1184430" lon="-0.8758590">
        <ele>218.2</ele>
        <time>2020-07-29T08:40:19Z</time>
      </trkpt>
      <trkpt lat="43.1183950" lon="-0.8759280">
        <ele>218.0</ele>
        <time>2020-07-29T08:40:20Z</time>
      </trkpt>
      <trkpt lat="43.1182260" lon="-0.8761110">
        <ele>217.2</ele>
        <time>2020-07-29T08:40:23Z</time>
      </trkpt>
      <trkpt lat="43.1181630" lon="-0.8761700">
        <ele>216.6</ele>
        <time>2020-07-29T08:40:24Z</time>
      </trkpt>
      <trkpt lat="43.1179720" lon="-0.8763510">
        <ele>215.4</ele>
        <time>2020-07-29T08:40:27Z</time>
      </trkpt>
      <trkpt lat="43.1177750" lon="-0.8765470">
        <ele>214.4</ele>
        <time>2020-07-29T08:40:30Z</time>
      </trkpt>
      <trkpt lat="43.1177050" lon="-0.8766140">
        <ele>214.0</ele>
        <time>2020-07-29T08:40:31Z</time>
      </trkpt>
      <trkpt lat="43.1175570" lon="-0.8767480">
        <ele>213.0</ele>
        <time>2020-07-29T08:40:33Z</time>
      </trkpt>
      <trkpt lat="43.1174060" lon="-0.8769070">
        <ele>212.0</ele>
        <time>2020-07-29T08:40:35Z</time>
      </trkpt>
      <trkpt lat="43.1172530" lon="-0.8770900">
        <ele>210.2</ele>
        <time>2020-07-29T08:40:37Z</time>
      </trkpt>
      <trkpt lat="43.1170970" lon="-0.8772830">
        <ele>208.4</ele>
        <time>2020-07-29T08:40:39Z</time>
      </trkpt>
      <trkpt lat="43.1169380" lon="-0.8774740">
        <ele>207.0</ele>
        <time>2020-07-29T08:40:41Z</time>
      </trkpt>
      <trkpt lat="43.1167790" lon="-0.8776610">
        <ele>205.8</ele>
        <time>2020-07-29T08:40:43Z</time>
      </trkpt>
      <trkpt lat="43.1166160" lon="-0.8778350">
        <ele>205.4</ele>
        <time>2020-07-29T08:40:45Z</time>
      </trkpt>
      <trkpt lat="43.1161840" lon="-0.8781800">
        <ele>205.0</ele>
        <time>2020-07-29T08:40:50Z</time>
      </trkpt>
      <trkpt lat="43.1156960" lon="-0.8785440">
        <ele>205.8</ele>
        <time>2020-07-29T08:40:56Z</time>
      </trkpt>
      <trkpt lat="43.1156160" lon="-0.8786010">
        <ele>206.0</ele>
        <time>2020-07-29T08:40:57Z</time>
      </trkpt>
      <trkpt lat="43.1151490" lon="-0.8789180">
        <ele>206.8</ele>
        <time>2020-07-29T08:41:03Z</time>
      </trkpt>
      <trkpt lat="43.1150700" lon="-0.8789570">
        <ele>206.8</ele>
        <time>2020-07-29T08:41:04Z</time>
      </trkpt>
      <trkpt lat="43.1149100" lon="-0.8790260">
        <ele>207.0</ele>
        <time>2020-07-29T08:41:06Z</time>
      </trkpt>
      <trkpt lat="43.1146040" lon="-0.8791580">
        <ele>207.0</ele>
        <time>2020-07-29T08:41:10Z</time>
      </trkpt>
      <trkpt lat="43.1142560" lon="-0.8793020">
        <ele>207.8</ele>
        <time>2020-07-29T08:41:15Z</time>
      </trkpt>
      <trkpt lat="43.1139880" lon="-0.8794390">
        <ele>208.8</ele>
        <time>2020-07-29T08:41:19Z</time>
      </trkpt>
      <trkpt lat="43.1139210" lon="-0.8794750">
        <ele>209.0</ele>
        <time>2020-07-29T08:41:20Z</time>
      </trkpt>
      <trkpt lat="43.1135930" lon="-0.8796750">
        <ele>209.6</ele>
        <time>2020-07-29T08:41:25Z</time>
      </trkpt>
      <trkpt lat="43.1133980" lon="-0.8797980">
        <ele>209.2</ele>
        <time>2020-07-29T08:41:28Z</time>
      </trkpt>
      <trkpt lat="43.1130140" lon="-0.8800380">
        <ele>209.6</ele>
        <time>2020-07-29T08:41:34Z</time>
      </trkpt>
      <trkpt lat="43.1126970" lon="-0.8802350">
        <ele>210.0</ele>
        <time>2020-07-29T08:41:39Z</time>
      </trkpt>
      <trkpt lat="43.1123090" lon="-0.8804720">
        <ele>209.8</ele>
        <time>2020-07-29T08:41:45Z</time>
      </trkpt>
      <trkpt lat="43.1120480" lon="-0.8806300">
        <ele>209.4</ele>
        <time>2020-07-29T08:41:49Z</time>
      </trkpt>
      <trkpt lat="43.1117220" lon="-0.8808250">
        <ele>209.6</ele>
        <time>2020-07-29T08:41:54Z</time>
      </trkpt>
      <trkpt lat="43.1113980" lon="-0.8810180">
        <ele>210.0</ele>
        <time>2020-07-29T08:41:59Z</time>
      </trkpt>
      <trkpt lat="43.1110070" lon="-0.8812570">
        <ele>209.6</ele>
        <time>2020-07-29T08:42:05Z</time>
      </trkpt>
      <trkpt lat="43.1106150" lon="-0.8814920">
        <ele>209.2</ele>
        <time>2020-07-29T08:42:11Z</time>
      </trkpt>
      <trkpt lat="43.1105500" lon="-0.8815330">
        <ele>209.2</ele>
        <time>2020-07-29T08:42:12Z</time>
      </trkpt>
      <trkpt lat="43.1101730" lon="-0.8818400">
        <ele>209.0</ele>
        <time>2020-07-29T08:42:18Z</time>
      </trkpt>
      <trkpt lat="43.1101200" lon="-0.8819110">
        <ele>209.0</ele>
        <time>2020-07-29T08:42:19Z</time>
      </trkpt>
      <trkpt lat="43.1099340" lon="-0.8822130">
        <ele>209.2</ele>
        <time>2020-07-29T08:42:23Z</time>
      </trkpt>
      <trkpt lat="43.1098980" lon="-0.8822950">
        <ele>209.4</ele>
        <time>2020-07-29T08:42:24Z</time>
      </trkpt>
      <trkpt lat="43.1098790" lon="-0.8824810">
        <ele>209.4</ele>
        <time>2020-07-29T08:42:26Z</time>
      </trkpt>
      <trkpt lat="43.1099150" lon="-0.8826560">
        <ele>209.6</ele>
        <time>2020-07-29T08:42:28Z</time>
      </trkpt>
      <trkpt lat="43.1099780" lon="-0.8828010">
        <ele>209.8</ele>
        <time>2020-07-29T08:42:30Z</time>
      </trkpt>
      <trkpt lat="43.1100180" lon="-0.8828660">
        <ele>210.0</ele>
        <time>2020-07-29T08:42:31Z</time>
      </trkpt>
      <trkpt lat="43.1101840" lon="-0.8831450">
        <ele>210.4</ele>
        <time>2020-07-29T08:42:35Z</time>
      </trkpt>
      <trkpt lat="43.1102180" lon="-0.8832270">
        <ele>210.4</ele>
        <time>2020-07-29T08:42:36Z</time>
      </trkpt>
      <trkpt lat="43.1103270" lon="-0.8835860">
        <ele>210.0</ele>
        <time>2020-07-29T08:42:40Z</time>
      </trkpt>
      <trkpt lat="43.1103550" lon="-0.8837830">
        <ele>209.4</ele>
        <time>2020-07-29T08:42:42Z</time>
      </trkpt>
      <trkpt lat="43.1103390" lon="-0.8839710">
        <ele>209.2</ele>
        <time>2020-07-29T08:42:44Z</time>
      </trkpt>
      <trkpt lat="43.1103170" lon="-0.8840500">
        <ele>209.0</ele>
        <time>2020-07-29T08:42:45Z</time>
      </trkpt>
      <trkpt lat="43.1102880" lon="-0.8841180">
        <ele>209.0</ele>
        <time>2020-07-29T08:42:46Z</time>
      </trkpt>
      <trkpt lat="43.1102510" lon="-0.8841750">
        <ele>209.2</ele>
        <time>2020-07-29T08:42:47Z</time>
      </trkpt>
      <trkpt lat="43.1101360" lon="-0.8843210">
        <ele>210.6</ele>
        <time>2020-07-29T08:42:50Z</time>
      </trkpt>
      <trkpt lat="43.1100520" lon="-0.8843980">
        <ele>211.0</ele>
        <time>2020-07-29T08:42:52Z</time>
      </trkpt>
      <trkpt lat="43.1100020" lon="-0.8844270">
        <ele>211.2</ele>
        <time>2020-07-29T08:42:53Z</time>
      </trkpt>
      <trkpt lat="43.1099470" lon="-0.8844500">
        <ele>211.2</ele>
        <time>2020-07-29T08:42:54Z</time>
      </trkpt>
      <trkpt lat="43.1097020" lon="-0.8844900">
        <ele>211.2</ele>
        <time>2020-07-29T08:42:58Z</time>
      </trkpt>
      <trkpt lat="43.1093060" lon="-0.8845470">
        <ele>210.8</ele>
        <time>2020-07-29T08:43:04Z</time>
      </trkpt>
      <trkpt lat="43.1091710" lon="-0.8845880">
        <ele>210.4</ele>
        <time>2020-07-29T08:43:06Z</time>
      </trkpt>
      <trkpt lat="43.1089110" lon="-0.8847260">
        <ele>209.6</ele>
        <time>2020-07-29T08:43:10Z</time>
      </trkpt>
      <trkpt lat="43.1088010" lon="-0.8848320">
        <ele>209.8</ele>
        <time>2020-07-29T08:43:12Z</time>
      </trkpt>
      <trkpt lat="43.1085110" lon="-0.8851490">
        <ele>210.6</ele>
        <time>2020-07-29T08:43:18Z</time>
      </trkpt>
      <trkpt lat="43.1084180" lon="-0.8852490">
        <ele>211.0</ele>
        <time>2020-07-29T08:43:20Z</time>
      </trkpt>
      <trkpt lat="43.1082260" lon="-0.8854640">
        <ele>211.6</ele>
        <time>2020-07-29T08:43:24Z</time>
      </trkpt>
      <trkpt lat="43.1080780" lon="-0.8856340">
        <ele>211.6</ele>
        <time>2020-07-29T08:43:27Z</time>
      </trkpt>
      <trkpt lat="43.1079730" lon="-0.8857420">
        <ele>211.4</ele>
        <time>2020-07-29T08:43:29Z</time>
      </trkpt>
      <trkpt lat="43.1076510" lon="-0.8860820">
        <ele>210.8</ele>
        <time>2020-07-29T08:43:35Z</time>
      </trkpt>
      <trkpt lat="43.1074830" lon="-0.8862520">
        <ele>211.0</ele>
        <time>2020-07-29T08:43:38Z</time>
      </trkpt>
      <trkpt lat="43.1072010" lon="-0.8865360">
        <ele>210.6</ele>
        <time>2020-07-29T08:43:43Z</time>
      </trkpt>
      <trkpt lat="43.1071460" lon="-0.8865900">
        <ele>210.4</ele>
        <time>2020-07-29T08:43:44Z</time>
      </trkpt>
      <trkpt lat="43.1068820" lon="-0.8868550">
        <ele>211.6</ele>
        <time>2020-07-29T08:43:49Z</time>
      </trkpt>
      <trkpt lat="43.1066790" lon="-0.8870540">
        <ele>212.6</ele>
        <time>2020-07-29T08:43:53Z</time>
      </trkpt>
      <trkpt lat="43.1066300" lon="-0.8871040">
        <ele>212.8</ele>
        <time>2020-07-29T08:43:54Z</time>
      </trkpt>
      <trkpt lat="43.1063240" lon="-0.8873950">
        <ele>213.4</ele>
        <time>2020-07-29T08:44:00Z</time>
      </trkpt>
      <trkpt lat="43.1060110" lon="-0.8876950">
        <ele>213.2</ele>
        <time>2020-07-29T08:44:06Z</time>
      </trkpt>
      <trkpt lat="43.1056910" lon="-0.8880010">
        <ele>213.0</ele>
        <time>2020-07-29T08:44:12Z</time>
      </trkpt>
      <trkpt lat="43.1055790" lon="-0.8881010">
        <ele>212.8</ele>
        <time>2020-07-29T08:44:14Z</time>
      </trkpt>
      <trkpt lat="43.1052460" lon="-0.8884110">
        <ele>212.8</ele>
        <time>2020-07-29T08:44:20Z</time>
      </trkpt>
      <trkpt lat="43.1050980" lon="-0.8886000">
        <ele>213.0</ele>
        <time>2020-07-29T08:44:23Z</time>
      </trkpt>
      <trkpt lat="43.1048830" lon="-0.8890440">
        <ele>213.4</ele>
        <time>2020-07-29T08:44:29Z</time>
      </trkpt>
      <trkpt lat="43.1048070" lon="-0.8892790">
        <ele>213.8</ele>
        <time>2020-07-29T08:44:32Z</time>
      </trkpt>
      <trkpt lat="43.1047050" lon="-0.8896690">
        <ele>214.4</ele>
        <time>2020-07-29T08:44:37Z</time>
      </trkpt>
      <trkpt lat="43.1045900" lon="-0.8901100">
        <ele>214.8</ele>
        <time>2020-07-29T08:44:43Z</time>
      </trkpt>
      <trkpt lat="43.1045160" lon="-0.8903880">
        <ele>215.6</ele>
        <time>2020-07-29T08:44:47Z</time>
      </trkpt>
      <trkpt lat="43.1044810" lon="-0.8905220">
        <ele>216.0</ele>
        <time>2020-07-29T08:44:49Z</time>
      </trkpt>
      <trkpt lat="43.1043780" lon="-0.8908460">
        <ele>217.0</ele>
        <time>2020-07-29T08:44:54Z</time>
      </trkpt>
      <trkpt lat="43.1043500" lon="-0.8909070">
        <ele>217.4</ele>
        <time>2020-07-29T08:44:55Z</time>
      </trkpt>
      <trkpt lat="43.1043190" lon="-0.8909660">
        <ele>217.4</ele>
        <time>2020-07-29T08:44:56Z</time>
      </trkpt>
      <trkpt lat="43.1042020" lon="-0.8912100">
        <ele>218.0</ele>
        <time>2020-07-29T08:45:00Z</time>
      </trkpt>
      <trkpt lat="43.1041630" lon="-0.8913490">
        <ele>218.2</ele>
        <time>2020-07-29T08:45:02Z</time>
      </trkpt>
      <trkpt lat="43.1041100" lon="-0.8917000">
        <ele>219.2</ele>
        <time>2020-07-29T08:45:07Z</time>
      </trkpt>
      <trkpt lat="43.1041000" lon="-0.8917720">
        <ele>219.2</ele>
        <time>2020-07-29T08:45:08Z</time>
      </trkpt>
      <trkpt lat="43.1040880" lon="-0.8918410">
        <ele>219.2</ele>
        <time>2020-07-29T08:45:09Z</time>
      </trkpt>
      <trkpt lat="43.1040730" lon="-0.8919080">
        <ele>219.2</ele>
        <time>2020-07-29T08:45:10Z</time>
      </trkpt>
      <trkpt lat="43.1040350" lon="-0.8920380">
        <ele>219.2</ele>
        <time>2020-07-29T08:45:12Z</time>
      </trkpt>
      <trkpt lat="43.1039750" lon="-0.8921530">
        <ele>219.6</ele>
        <time>2020-07-29T08:45:14Z</time>
      </trkpt>
      <trkpt lat="43.1038710" lon="-0.8923100">
        <ele>220.4</ele>
        <time>2020-07-29T08:45:17Z</time>
      </trkpt>
      <trkpt lat="43.1038380" lon="-0.8923620">
        <ele>220.6</ele>
        <time>2020-07-29T08:45:18Z</time>
      </trkpt>
      <trkpt lat="43.1037060" lon="-0.8925680">
        <ele>221.6</ele>
        <time>2020-07-29T08:45:22Z</time>
      </trkpt>
      <trkpt lat="43.1035990" lon="-0.8927820">
        <ele>222.6</ele>
        <time>2020-07-29T08:45:26Z</time>
      </trkpt>
      <trkpt lat="43.1035840" lon="-0.8928410">
        <ele>222.6</ele>
        <time>2020-07-29T08:45:27Z</time>
      </trkpt>
      <trkpt lat="43.1035760" lon="-0.8929030">
        <ele>222.8</ele>
        <time>2020-07-29T08:45:28Z</time>
      </trkpt>
      <trkpt lat="43.1035790" lon="-0.8931320">
        <ele>224.0</ele>
        <time>2020-07-29T08:45:32Z</time>
      </trkpt>
      <trkpt lat="43.1035870" lon="-0.8932240">
        <ele>224.8</ele>
        <time>2020-07-29T08:45:34Z</time>
      </trkpt>
      <trkpt lat="43.1035910" lon="-0.8932640">
        <ele>225.0</ele>
        <time>2020-07-29T08:45:35Z</time>
      </trkpt>
      <trkpt lat="43.1036010" lon="-0.8934120">
        <ele>226.0</ele>
        <time>2020-07-29T08:45:39Z</time>
      </trkpt>
      <trkpt lat="43.1035940" lon="-0.8935290">
        <ele>227.0</ele>
        <time>2020-07-29T08:45:42Z</time>
      </trkpt>
      <trkpt lat="43.1035860" lon="-0.8935670">
        <ele>227.4</ele>
        <time>2020-07-29T08:45:43Z</time>
      </trkpt>
      <trkpt lat="43.1035520" lon="-0.8936740">
        <ele>228.6</ele>
        <time>2020-07-29T08:45:46Z</time>
      </trkpt>
      <trkpt lat="43.1035110" lon="-0.8937890">
        <ele>229.4</ele>
        <time>2020-07-29T08:45:49Z</time>
      </trkpt>
      <trkpt lat="43.1034970" lon="-0.8938280">
        <ele>229.6</ele>
        <time>2020-07-29T08:45:50Z</time>
      </trkpt>
      <trkpt lat="43.1034040" lon="-0.8940540">
        <ele>230.8</ele>
        <time>2020-07-29T08:45:56Z</time>
      </trkpt>
      <trkpt lat="43.1033860" lon="-0.8940870">
        <ele>231.0</ele>
        <time>2020-07-29T08:45:57Z</time>
      </trkpt>
      <trkpt lat="43.1032980" lon="-0.8942780">
        <ele>231.8</ele>
        <time>2020-07-29T08:46:02Z</time>
      </trkpt>
      <trkpt lat="43.1032750" lon="-0.8943240">
        <ele>232.0</ele>
        <time>2020-07-29T08:46:03Z</time>
      </trkpt>
      <trkpt lat="43.1031460" lon="-0.8945950">
        <ele>232.6</ele>
        <time>2020-07-29T08:46:09Z</time>
      </trkpt>
      <trkpt lat="43.1031280" lon="-0.8946330">
        <ele>232.8</ele>
        <time>2020-07-29T08:46:10Z</time>
      </trkpt>
      <trkpt lat="43.1031110" lon="-0.8946750">
        <ele>233.0</ele>
        <time>2020-07-29T08:46:11Z</time>
      </trkpt>
      <trkpt lat="43.1029810" lon="-0.8949630">
        <ele>233.6</ele>
        <time>2020-07-29T08:46:17Z</time>
      </trkpt>
      <trkpt lat="43.1028460" lon="-0.8952670">
        <ele>233.6</ele>
        <time>2020-07-29T08:46:23Z</time>
      </trkpt>
      <trkpt lat="43.1027740" lon="-0.8954270">
        <ele>233.6</ele>
        <time>2020-07-29T08:46:26Z</time>
      </trkpt>
      <trkpt lat="43.1026200" lon="-0.8957740">
        <ele>233.2</ele>
        <time>2020-07-29T08:46:32Z</time>
      </trkpt>
      <trkpt lat="43.1025620" lon="-0.8958980">
        <ele>233.2</ele>
        <time>2020-07-29T08:46:34Z</time>
      </trkpt>
      <trkpt lat="43.1023670" lon="-0.8963040">
        <ele>231.8</ele>
        <time>2020-07-29T08:46:40Z</time>
      </trkpt>
      <trkpt lat="43.1022960" lon="-0.8964510">
        <ele>231.4</ele>
        <time>2020-07-29T08:46:42Z</time>
      </trkpt>
      <trkpt lat="43.1021790" lon="-0.8966770">
        <ele>230.8</ele>
        <time>2020-07-29T08:46:45Z</time>
      </trkpt>
      <trkpt lat="43.1019710" lon="-0.8970500">
        <ele>230.2</ele>
        <time>2020-07-29T08:46:50Z</time>
      </trkpt>
      <trkpt lat="43.1018490" lon="-0.8972650">
        <ele>229.8</ele>
        <time>2020-07-29T08:46:53Z</time>
      </trkpt>
      <trkpt lat="43.1016470" lon="-0.8976110">
        <ele>229.0</ele>
        <time>2020-07-29T08:46:58Z</time>
      </trkpt>
      <trkpt lat="43.1016090" lon="-0.8976770">
        <ele>229.2</ele>
        <time>2020-07-29T08:46:59Z</time>
      </trkpt>
      <trkpt lat="43.1013830" lon="-0.8980670">
        <ele>229.4</ele>
        <time>2020-07-29T08:47:05Z</time>
      </trkpt>
      <trkpt lat="43.1011520" lon="-0.8984750">
        <ele>229.6</ele>
        <time>2020-07-29T08:47:11Z</time>
      </trkpt>
      <trkpt lat="43.1010810" lon="-0.8985990">
        <ele>229.4</ele>
        <time>2020-07-29T08:47:13Z</time>
      </trkpt>
      <trkpt lat="43.1008620" lon="-0.8989780">
        <ele>229.6</ele>
        <time>2020-07-29T08:47:19Z</time>
      </trkpt>
      <trkpt lat="43.1007860" lon="-0.8991090">
        <ele>229.8</ele>
        <time>2020-07-29T08:47:21Z</time>
      </trkpt>
      <trkpt lat="43.1006680" lon="-0.8993130">
        <ele>229.8</ele>
        <time>2020-07-29T08:47:24Z</time>
      </trkpt>
      <trkpt lat="43.1004990" lon="-0.8995760">
        <ele>229.6</ele>
        <time>2020-07-29T08:47:28Z</time>
      </trkpt>
      <trkpt lat="43.1004080" lon="-0.8997000">
        <ele>229.4</ele>
        <time>2020-07-29T08:47:30Z</time>
      </trkpt>
      <trkpt lat="43.1000990" lon="-0.8999850">
        <ele>229.4</ele>
        <time>2020-07-29T08:47:36Z</time>
      </trkpt>
      <trkpt lat="43.0998120" lon="-0.9001950">
        <ele>230.2</ele>
        <time>2020-07-29T08:47:42Z</time>
      </trkpt>
      <trkpt lat="43.0995650" lon="-0.9003640">
        <ele>230.6</ele>
        <time>2020-07-29T08:47:48Z</time>
      </trkpt>
      <trkpt lat="43.0995170" lon="-0.9004020">
        <ele>230.6</ele>
        <time>2020-07-29T08:47:49Z</time>
      </trkpt>
      <trkpt lat="43.0991800" lon="-0.9006440">
        <ele>229.4</ele>
        <time>2020-07-29T08:47:55Z</time>
      </trkpt>
      <trkpt lat="43.0991190" lon="-0.9006880">
        <ele>229.4</ele>
        <time>2020-07-29T08:47:56Z</time>
      </trkpt>
      <trkpt lat="43.0989310" lon="-0.9008270">
        <ele>228.8</ele>
        <time>2020-07-29T08:47:59Z</time>
      </trkpt>
      <trkpt lat="43.0988030" lon="-0.9009270">
        <ele>228.2</ele>
        <time>2020-07-29T08:48:01Z</time>
      </trkpt>
      <trkpt lat="43.0986760" lon="-0.9010380">
        <ele>227.6</ele>
        <time>2020-07-29T08:48:03Z</time>
      </trkpt>
      <trkpt lat="43.0986140" lon="-0.9010980">
        <ele>227.4</ele>
        <time>2020-07-29T08:48:04Z</time>
      </trkpt>
      <trkpt lat="43.0984900" lon="-0.9012270">
        <ele>226.6</ele>
        <time>2020-07-29T08:48:06Z</time>
      </trkpt>
      <trkpt lat="43.0981670" lon="-0.9015580">
        <ele>225.6</ele>
        <time>2020-07-29T08:48:11Z</time>
      </trkpt>
      <trkpt lat="43.0981020" lon="-0.9016310">
        <ele>225.4</ele>
        <time>2020-07-29T08:48:12Z</time>
      </trkpt>
      <trkpt lat="43.0979190" lon="-0.9018710">
        <ele>224.6</ele>
        <time>2020-07-29T08:48:15Z</time>
      </trkpt>
      <trkpt lat="43.0978680" lon="-0.9019620">
        <ele>224.4</ele>
        <time>2020-07-29T08:48:16Z</time>
      </trkpt>
      <trkpt lat="43.0978250" lon="-0.9020590">
        <ele>224.0</ele>
        <time>2020-07-29T08:48:17Z</time>
      </trkpt>
      <trkpt lat="43.0977090" lon="-0.9024600">
        <ele>223.6</ele>
        <time>2020-07-29T08:48:21Z</time>
      </trkpt>
      <trkpt lat="43.0975720" lon="-0.9030180">
        <ele>224.4</ele>
        <time>2020-07-29T08:48:27Z</time>
      </trkpt>
      <trkpt lat="43.0975410" lon="-0.9031040">
        <ele>224.4</ele>
        <time>2020-07-29T08:48:28Z</time>
      </trkpt>
      <trkpt lat="43.0973220" lon="-0.9035730">
        <ele>224.8</ele>
        <time>2020-07-29T08:48:34Z</time>
      </trkpt>
      <trkpt lat="43.0972450" lon="-0.9037230">
        <ele>224.6</ele>
        <time>2020-07-29T08:48:36Z</time>
      </trkpt>
      <trkpt lat="43.0970540" lon="-0.9041540">
        <ele>225.2</ele>
        <time>2020-07-29T08:48:42Z</time>
      </trkpt>
      <trkpt lat="43.0970160" lon="-0.9042950">
        <ele>225.6</ele>
        <time>2020-07-29T08:48:44Z</time>
      </trkpt>
      <trkpt lat="43.0969920" lon="-0.9044340">
        <ele>226.0</ele>
        <time>2020-07-29T08:48:46Z</time>
      </trkpt>
      <trkpt lat="43.0969750" lon="-0.9045710">
        <ele>226.4</ele>
        <time>2020-07-29T08:48:48Z</time>
      </trkpt>
      <trkpt lat="43.0969670" lon="-0.9046390">
        <ele>227.0</ele>
        <time>2020-07-29T08:48:49Z</time>
      </trkpt>
      <trkpt lat="43.0969580" lon="-0.9047060">
        <ele>227.2</ele>
        <time>2020-07-29T08:48:50Z</time>
      </trkpt>
      <trkpt lat="43.0969480" lon="-0.9047720">
        <ele>227.6</ele>
        <time>2020-07-29T08:48:51Z</time>
      </trkpt>
      <trkpt lat="43.0969380" lon="-0.9048380">
        <ele>227.8</ele>
        <time>2020-07-29T08:48:52Z</time>
      </trkpt>
      <trkpt lat="43.0969260" lon="-0.9049030">
        <ele>228.0</ele>
        <time>2020-07-29T08:48:53Z</time>
      </trkpt>
      <trkpt lat="43.0968970" lon="-0.9050300">
        <ele>228.4</ele>
        <time>2020-07-29T08:48:55Z</time>
      </trkpt>
      <trkpt lat="43.0968590" lon="-0.9051540">
        <ele>228.6</ele>
        <time>2020-07-29T08:48:57Z</time>
      </trkpt>
      <trkpt lat="43.0967040" lon="-0.9054960">
        <ele>229.2</ele>
        <time>2020-07-29T08:49:03Z</time>
      </trkpt>
      <trkpt lat="43.0966440" lon="-0.9056030">
        <ele>229.4</ele>
        <time>2020-07-29T08:49:05Z</time>
      </trkpt>
      <trkpt lat="43.0964650" lon="-0.9059270">
        <ele>229.8</ele>
        <time>2020-07-29T08:49:11Z</time>
      </trkpt>
      <trkpt lat="43.0963480" lon="-0.9061390">
        <ele>230.2</ele>
        <time>2020-07-29T08:49:15Z</time>
      </trkpt>
      <trkpt lat="43.0963180" lon="-0.9061910">
        <ele>230.4</ele>
        <time>2020-07-29T08:49:16Z</time>
      </trkpt>
      <trkpt lat="43.0961670" lon="-0.9064360">
        <ele>231.4</ele>
        <time>2020-07-29T08:49:21Z</time>
      </trkpt>
      <trkpt lat="43.0960530" lon="-0.9066130">
        <ele>232.2</ele>
        <time>2020-07-29T08:49:25Z</time>
      </trkpt>
      <trkpt lat="43.0960220" lon="-0.9066550">
        <ele>232.4</ele>
        <time>2020-07-29T08:49:26Z</time>
      </trkpt>
      <trkpt lat="43.0959280" lon="-0.9067750">
        <ele>233.0</ele>
        <time>2020-07-29T08:49:29Z</time>
      </trkpt>
      <trkpt lat="43.0958300" lon="-0.9068940">
        <ele>233.6</ele>
        <time>2020-07-29T08:49:32Z</time>
      </trkpt>
      <trkpt lat="43.0957360" lon="-0.9070140">
        <ele>234.0</ele>
        <time>2020-07-29T08:49:35Z</time>
      </trkpt>
      <trkpt lat="43.0956100" lon="-0.9071760">
        <ele>234.6</ele>
        <time>2020-07-29T08:49:39Z</time>
      </trkpt>
      <trkpt lat="43.0955780" lon="-0.9072170">
        <ele>234.6</ele>
        <time>2020-07-29T08:49:40Z</time>
      </trkpt>
      <trkpt lat="43.0954090" lon="-0.9074290">
        <ele>235.2</ele>
        <time>2020-07-29T08:49:45Z</time>
      </trkpt>
      <trkpt lat="43.0953380" lon="-0.9075210">
        <ele>235.4</ele>
        <time>2020-07-29T08:49:47Z</time>
      </trkpt>
      <trkpt lat="43.0951100" lon="-0.9078010">
        <ele>234.8</ele>
        <time>2020-07-29T08:49:53Z</time>
      </trkpt>
      <trkpt lat="43.0950710" lon="-0.9078480">
        <ele>234.8</ele>
        <time>2020-07-29T08:49:54Z</time>
      </trkpt>
      <trkpt lat="43.0948620" lon="-0.9081060">
        <ele>234.6</ele>
        <time>2020-07-29T08:49:59Z</time>
      </trkpt>
      <trkpt lat="43.0947740" lon="-0.9082110">
        <ele>234.8</ele>
        <time>2020-07-29T08:50:01Z</time>
      </trkpt>
      <trkpt lat="43.0946960" lon="-0.9083230">
        <ele>234.6</ele>
        <time>2020-07-29T08:50:03Z</time>
      </trkpt>
      <trkpt lat="43.0945680" lon="-0.9085650">
        <ele>234.8</ele>
        <time>2020-07-29T08:50:07Z</time>
      </trkpt>
      <trkpt lat="43.0945060" lon="-0.9086880">
        <ele>235.0</ele>
        <time>2020-07-29T08:50:09Z</time>
      </trkpt>
      <trkpt lat="43.0943190" lon="-0.9090350">
        <ele>235.6</ele>
        <time>2020-07-29T08:50:15Z</time>
      </trkpt>
      <trkpt lat="43.0942840" lon="-0.9090870">
        <ele>235.6</ele>
        <time>2020-07-29T08:50:16Z</time>
      </trkpt>
      <trkpt lat="43.0940210" lon="-0.9093590">
        <ele>235.6</ele>
        <time>2020-07-29T08:50:22Z</time>
      </trkpt>
      <trkpt lat="43.0938570" lon="-0.9095310">
        <ele>235.6</ele>
        <time>2020-07-29T08:50:26Z</time>
      </trkpt>
      <trkpt lat="43.0938480" lon="-0.9095730">
        <ele>235.8</ele>
        <time>2020-07-29T08:50:27Z</time>
      </trkpt>
      <trkpt lat="43.0938710" lon="-0.9096970">
        <ele>236.2</ele>
        <time>2020-07-29T08:50:31Z</time>
      </trkpt>
      <trkpt lat="43.0938820" lon="-0.9097350">
        <ele>236.8</ele>
        <time>2020-07-29T08:50:33Z</time>
      </trkpt>
      <trkpt lat="43.0939180" lon="-0.9097950">
        <ele>237.8</ele>
        <time>2020-07-29T08:50:37Z</time>
      </trkpt>
      <trkpt lat="43.0939220" lon="-0.9098040">
        <ele>238.0</ele>
        <time>2020-07-29T08:50:38Z</time>
      </trkpt>
      <trkpt lat="43.0939170" lon="-0.9098100">
        <ele>238.0</ele>
        <time>2020-07-29T08:50:39Z</time>
      </trkpt>
      <trkpt lat="43.0938920" lon="-0.9097870">
        <ele>238.2</ele>
        <time>2020-07-29T08:50:41Z</time>
      </trkpt>
      <trkpt lat="43.0938680" lon="-0.9096350">
        <ele>237.2</ele>
        <time>2020-07-29T08:50:45Z</time>
      </trkpt>
      <trkpt lat="43.0938260" lon="-0.9096490">
        <ele>236.8</ele>
        <time>2020-07-29T08:50:48Z</time>
      </trkpt>
      <trkpt lat="43.0938250" lon="-0.9096750">
        <ele>236.8</ele>
        <time>2020-07-29T08:50:49Z</time>
      </trkpt>
      <trkpt lat="43.0938360" lon="-0.9097020">
        <ele>237.0</ele>
        <time>2020-07-29T08:50:50Z</time>
      </trkpt>
      <trkpt lat="43.0938550" lon="-0.9097240">
        <ele>237.0</ele>
        <time>2020-07-29T08:50:51Z</time>
      </trkpt>
      <trkpt lat="43.0939430" lon="-0.9098410">
        <ele>237.6</ele>
        <time>2020-07-29T08:50:56Z</time>
      </trkpt>
      <trkpt lat="43.0939620" lon="-0.9098610">
        <ele>238.0</ele>
        <time>2020-07-29T08:50:57Z</time>
      </trkpt>
      <trkpt lat="43.0940390" lon="-0.9099590">
        <ele>239.0</ele>
        <time>2020-07-29T08:51:01Z</time>
      </trkpt>
      <trkpt lat="43.0941060" lon="-0.9100260">
        <ele>240.0</ele>
        <time>2020-07-29T08:51:04Z</time>
      </trkpt>
      <trkpt lat="43.0941510" lon="-0.9100620">
        <ele>240.6</ele>
        <time>2020-07-29T08:51:06Z</time>
      </trkpt>
      <trkpt lat="43.0941940" lon="-0.9100990">
        <ele>241.4</ele>
        <time>2020-07-29T08:51:08Z</time>
      </trkpt>
      <trkpt lat="43.0942630" lon="-0.9101560">
        <ele>242.4</ele>
        <time>2020-07-29T08:51:11Z</time>
      </trkpt>
      <trkpt lat="43.0943040" lon="-0.9102150">
        <ele>243.0</ele>
        <time>2020-07-29T08:51:13Z</time>
      </trkpt>
      <trkpt lat="43.0943070" lon="-0.9102530">
        <ele>243.2</ele>
        <time>2020-07-29T08:51:14Z</time>
      </trkpt>
      <trkpt lat="43.0943000" lon="-0.9102890">
        <ele>243.4</ele>
        <time>2020-07-29T08:51:15Z</time>
      </trkpt>
      <trkpt lat="43.0942840" lon="-0.9103210">
        <ele>243.8</ele>
        <time>2020-07-29T08:51:16Z</time>
      </trkpt>
      <trkpt lat="43.0942290" lon="-0.9104110">
        <ele>244.6</ele>
        <time>2020-07-29T08:51:19Z</time>
      </trkpt>
      <trkpt lat="43.0941490" lon="-0.9105410">
        <ele>245.0</ele>
        <time>2020-07-29T08:51:23Z</time>
      </trkpt>
      <trkpt lat="43.0941110" lon="-0.9106210">
        <ele>245.0</ele>
        <time>2020-07-29T08:51:25Z</time>
      </trkpt>
      <trkpt lat="43.0940350" lon="-0.9108050">
        <ele>245.2</ele>
        <time>2020-07-29T08:51:29Z</time>
      </trkpt>
      <trkpt lat="43.0939850" lon="-0.9110430">
        <ele>245.2</ele>
        <time>2020-07-29T08:51:33Z</time>
      </trkpt>
      <trkpt lat="43.0939800" lon="-0.9111700">
        <ele>245.4</ele>
        <time>2020-07-29T08:51:35Z</time>
      </trkpt>
      <trkpt lat="43.0939930" lon="-0.9112950">
        <ele>245.2</ele>
        <time>2020-07-29T08:51:37Z</time>
      </trkpt>
      <trkpt lat="43.0940260" lon="-0.9114060">
        <ele>245.4</ele>
        <time>2020-07-29T08:51:39Z</time>
      </trkpt>
      <trkpt lat="43.0940490" lon="-0.9114470">
        <ele>245.6</ele>
        <time>2020-07-29T08:51:40Z</time>
      </trkpt>
      <trkpt lat="43.0940770" lon="-0.9114660">
        <ele>245.6</ele>
        <time>2020-07-29T08:51:41Z</time>
      </trkpt>
      <trkpt lat="43.0941220" lon="-0.9114540">
        <ele>246.2</ele>
        <time>2020-07-29T08:51:43Z</time>
      </trkpt>
      <trkpt lat="43.0941400" lon="-0.9114410">
        <ele>246.8</ele>
        <time>2020-07-29T08:51:44Z</time>
      </trkpt>
      <trkpt lat="43.0941740" lon="-0.9114180">
        <ele>247.8</ele>
        <time>2020-07-29T08:51:46Z</time>
      </trkpt>
      <trkpt lat="43.0942210" lon="-0.9113750">
        <ele>248.8</ele>
        <time>2020-07-29T08:51:49Z</time>
      </trkpt>
      <trkpt lat="43.0942360" lon="-0.9113590">
        <ele>249.2</ele>
        <time>2020-07-29T08:51:50Z</time>
      </trkpt>
      <trkpt lat="43.0943370" lon="-0.9112550">
        <ele>250.4</ele>
        <time>2020-07-29T08:51:56Z</time>
      </trkpt>
      <trkpt lat="43.0943530" lon="-0.9112410">
        <ele>250.6</ele>
        <time>2020-07-29T08:51:57Z</time>
      </trkpt>
      <trkpt lat="43.0944190" lon="-0.9111990">
        <ele>251.4</ele>
        <time>2020-07-29T08:52:01Z</time>
      </trkpt>
      <trkpt lat="43.0944710" lon="-0.9111720">
        <ele>252.2</ele>
        <time>2020-07-29T08:52:04Z</time>
      </trkpt>
      <trkpt lat="43.0944930" lon="-0.9111630">
        <ele>252.4</ele>
        <time>2020-07-29T08:52:05Z</time>
      </trkpt>
      <trkpt lat="43.0945650" lon="-0.9111250">
        <ele>253.6</ele>
        <time>2020-07-29T08:52:08Z</time>
      </trkpt>
      <trkpt lat="43.0946330" lon="-0.9110830">
        <ele>254.4</ele>
        <time>2020-07-29T08:52:11Z</time>
      </trkpt>
      <trkpt lat="43.0946710" lon="-0.9110650">
        <ele>254.6</ele>
        <time>2020-07-29T08:52:13Z</time>
      </trkpt>
      <trkpt lat="43.0947640" lon="-0.9110020">
        <ele>254.8</ele>
        <time>2020-07-29T08:52:17Z</time>
      </trkpt>
      <trkpt lat="43.0948960" lon="-0.9108750">
        <ele>255.2</ele>
        <time>2020-07-29T08:52:22Z</time>
      </trkpt>
      <trkpt lat="43.0949220" lon="-0.9108420">
        <ele>255.4</ele>
        <time>2020-07-29T08:52:23Z</time>
      </trkpt>
      <trkpt lat="43.0949490" lon="-0.9108090">
        <ele>255.4</ele>
        <time>2020-07-29T08:52:24Z</time>
      </trkpt>
      <trkpt lat="43.0949770" lon="-0.9107770">
        <ele>255.6</ele>
        <time>2020-07-29T08:52:25Z</time>
      </trkpt>
      <trkpt lat="43.0950360" lon="-0.9107190">
        <ele>255.8</ele>
        <time>2020-07-29T08:52:27Z</time>
      </trkpt>
      <trkpt lat="43.0951640" lon="-0.9106620">
        <ele>255.8</ele>
        <time>2020-07-29T08:52:31Z</time>
      </trkpt>
      <trkpt lat="43.0952650" lon="-0.9107220">
        <ele>257.0</ele>
        <time>2020-07-29T08:52:35Z</time>
      </trkpt>
      <trkpt lat="43.0952830" lon="-0.9107430">
        <ele>257.2</ele>
        <time>2020-07-29T08:52:36Z</time>
      </trkpt>
      <trkpt lat="43.0953270" lon="-0.9108050">
        <ele>258.0</ele>
        <time>2020-07-29T08:52:39Z</time>
      </trkpt>
      <trkpt lat="43.0953570" lon="-0.9108400">
        <ele>258.6</ele>
        <time>2020-07-29T08:52:41Z</time>
      </trkpt>
      <trkpt lat="43.0953720" lon="-0.9108860">
        <ele>259.4</ele>
        <time>2020-07-29T08:52:43Z</time>
      </trkpt>
      <trkpt lat="43.0953730" lon="-0.9109160">
        <ele>259.6</ele>
        <time>2020-07-29T08:52:44Z</time>
      </trkpt>
      <trkpt lat="43.0953650" lon="-0.9110300">
        <ele>260.6</ele>
        <time>2020-07-29T08:52:48Z</time>
      </trkpt>
      <trkpt lat="43.0953510" lon="-0.9111260">
        <ele>261.4</ele>
        <time>2020-07-29T08:52:51Z</time>
      </trkpt>
      <trkpt lat="43.0953460" lon="-0.9111570">
        <ele>261.8</ele>
        <time>2020-07-29T08:52:52Z</time>
      </trkpt>
      <trkpt lat="43.0953330" lon="-0.9112830">
        <ele>262.8</ele>
        <time>2020-07-29T08:52:56Z</time>
      </trkpt>
      <trkpt lat="43.0953220" lon="-0.9113660">
        <ele>263.6</ele>
        <time>2020-07-29T08:52:59Z</time>
      </trkpt>
      <trkpt lat="43.0953180" lon="-0.9114180">
        <ele>264.0</ele>
        <time>2020-07-29T08:53:01Z</time>
      </trkpt>
      <trkpt lat="43.0953060" lon="-0.9115150">
        <ele>265.2</ele>
        <time>2020-07-29T08:53:05Z</time>
      </trkpt>
      <trkpt lat="43.0952900" lon="-0.9115610">
        <ele>265.6</ele>
        <time>2020-07-29T08:53:07Z</time>
      </trkpt>
      <trkpt lat="43.0952840" lon="-0.9115860">
        <ele>266.0</ele>
        <time>2020-07-29T08:53:08Z</time>
      </trkpt>
      <trkpt lat="43.0952830" lon="-0.9116090">
        <ele>266.2</ele>
        <time>2020-07-29T08:53:09Z</time>
      </trkpt>
      <trkpt lat="43.0952790" lon="-0.9116840">
        <ele>266.8</ele>
        <time>2020-07-29T08:53:12Z</time>
      </trkpt>
      <trkpt lat="43.0952670" lon="-0.9117350">
        <ele>267.4</ele>
        <time>2020-07-29T08:53:14Z</time>
      </trkpt>
      <trkpt lat="43.0952920" lon="-0.9118340">
        <ele>268.6</ele>
        <time>2020-07-29T08:53:18Z</time>
      </trkpt>
      <trkpt lat="43.0953290" lon="-0.9118570">
        <ele>269.2</ele>
        <time>2020-07-29T08:53:20Z</time>
      </trkpt>
      <trkpt lat="43.0953710" lon="-0.9118610">
        <ele>269.8</ele>
        <time>2020-07-29T08:53:22Z</time>
      </trkpt>
      <trkpt lat="43.0953920" lon="-0.9118560">
        <ele>270.0</ele>
        <time>2020-07-29T08:53:23Z</time>
      </trkpt>
      <trkpt lat="43.0954460" lon="-0.9118140">
        <ele>270.8</ele>
        <time>2020-07-29T08:53:26Z</time>
      </trkpt>
      <trkpt lat="43.0954640" lon="-0.9118010">
        <ele>271.0</ele>
        <time>2020-07-29T08:53:27Z</time>
      </trkpt>
      <trkpt lat="43.0954820" lon="-0.9117860">
        <ele>271.4</ele>
        <time>2020-07-29T08:53:28Z</time>
      </trkpt>
      <trkpt lat="43.0955160" lon="-0.9117620">
        <ele>272.0</ele>
        <time>2020-07-29T08:53:30Z</time>
      </trkpt>
      <trkpt lat="43.0955670" lon="-0.9117180">
        <ele>272.8</ele>
        <time>2020-07-29T08:53:33Z</time>
      </trkpt>
      <trkpt lat="43.0956070" lon="-0.9116990">
        <ele>273.2</ele>
        <time>2020-07-29T08:53:35Z</time>
      </trkpt>
      <trkpt lat="43.0956980" lon="-0.9117500">
        <ele>274.0</ele>
        <time>2020-07-29T08:53:40Z</time>
      </trkpt>
      <trkpt lat="43.0957080" lon="-0.9117750">
        <ele>274.2</ele>
        <time>2020-07-29T08:53:41Z</time>
      </trkpt>
      <trkpt lat="43.0957380" lon="-0.9118760">
        <ele>275.4</ele>
        <time>2020-07-29T08:53:45Z</time>
      </trkpt>
      <trkpt lat="43.0957450" lon="-0.9119010">
        <ele>275.8</ele>
        <time>2020-07-29T08:53:46Z</time>
      </trkpt>
      <trkpt lat="43.0957620" lon="-0.9119490">
        <ele>276.4</ele>
        <time>2020-07-29T08:53:48Z</time>
      </trkpt>
      <trkpt lat="43.0958100" lon="-0.9120680">
        <ele>277.8</ele>
        <time>2020-07-29T08:53:53Z</time>
      </trkpt>
      <trkpt lat="43.0958730" lon="-0.9122040">
        <ele>278.8</ele>
        <time>2020-07-29T08:53:58Z</time>
      </trkpt>
      <trkpt lat="43.0959010" lon="-0.9122580">
        <ele>279.4</ele>
        <time>2020-07-29T08:54:00Z</time>
      </trkpt>
      <trkpt lat="43.0959350" lon="-0.9123040">
        <ele>280.0</ele>
        <time>2020-07-29T08:54:02Z</time>
      </trkpt>
      <trkpt lat="43.0960290" lon="-0.9123460">
        <ele>280.8</ele>
        <time>2020-07-29T08:54:06Z</time>
      </trkpt>
      <trkpt lat="43.0960560" lon="-0.9123320">
        <ele>281.0</ele>
        <time>2020-07-29T08:54:07Z</time>
      </trkpt>
      <trkpt lat="43.0961250" lon="-0.9122390">
        <ele>281.4</ele>
        <time>2020-07-29T08:54:10Z</time>
      </trkpt>
      <trkpt lat="43.0962600" lon="-0.9119960">
        <ele>281.6</ele>
        <time>2020-07-29T08:54:16Z</time>
      </trkpt>
      <trkpt lat="43.0962900" lon="-0.9119630">
        <ele>281.6</ele>
        <time>2020-07-29T08:54:17Z</time>
      </trkpt>
      <trkpt lat="43.0963250" lon="-0.9119340">
        <ele>281.6</ele>
        <time>2020-07-29T08:54:18Z</time>
      </trkpt>
      <trkpt lat="43.0964070" lon="-0.9118970">
        <ele>281.4</ele>
        <time>2020-07-29T08:54:20Z</time>
      </trkpt>
      <trkpt lat="43.0964510" lon="-0.9118990">
        <ele>281.4</ele>
        <time>2020-07-29T08:54:21Z</time>
      </trkpt>
      <trkpt lat="43.0964920" lon="-0.9119160">
        <ele>281.2</ele>
        <time>2020-07-29T08:54:22Z</time>
      </trkpt>
      <trkpt lat="43.0965900" lon="-0.9120200">
        <ele>282.0</ele>
        <time>2020-07-29T08:54:25Z</time>
      </trkpt>
      <trkpt lat="43.0966180" lon="-0.9120620">
        <ele>282.2</ele>
        <time>2020-07-29T08:54:26Z</time>
      </trkpt>
      <trkpt lat="43.0967270" lon="-0.9122670">
        <ele>283.6</ele>
        <time>2020-07-29T08:54:31Z</time>
      </trkpt>
      <trkpt lat="43.0967480" lon="-0.9123070">
        <ele>283.8</ele>
        <time>2020-07-29T08:54:32Z</time>
      </trkpt>
      <trkpt lat="43.0968180" lon="-0.9124270">
        <ele>284.6</ele>
        <time>2020-07-29T08:54:35Z</time>
      </trkpt>
      <trkpt lat="43.0969210" lon="-0.9124900">
        <ele>284.6</ele>
        <time>2020-07-29T08:54:38Z</time>
      </trkpt>
      <trkpt lat="43.0971110" lon="-0.9124790">
        <ele>285.4</ele>
        <time>2020-07-29T08:54:43Z</time>
      </trkpt>
      <trkpt lat="43.0971490" lon="-0.9124900">
        <ele>285.8</ele>
        <time>2020-07-29T08:54:44Z</time>
      </trkpt>
      <trkpt lat="43.0972200" lon="-0.9125270">
        <ele>286.2</ele>
        <time>2020-07-29T08:54:46Z</time>
      </trkpt>
      <trkpt lat="43.0972810" lon="-0.9125810">
        <ele>286.6</ele>
        <time>2020-07-29T08:54:48Z</time>
      </trkpt>
      <trkpt lat="43.0973110" lon="-0.9126080">
        <ele>286.8</ele>
        <time>2020-07-29T08:54:49Z</time>
      </trkpt>
      <trkpt lat="43.0974160" lon="-0.9127220">
        <ele>288.0</ele>
        <time>2020-07-29T08:54:53Z</time>
      </trkpt>
      <trkpt lat="43.0974930" lon="-0.9128070">
        <ele>288.6</ele>
        <time>2020-07-29T08:54:56Z</time>
      </trkpt>
      <trkpt lat="43.0975400" lon="-0.9128670">
        <ele>289.0</ele>
        <time>2020-07-29T08:54:58Z</time>
      </trkpt>
      <trkpt lat="43.0976610" lon="-0.9130840">
        <ele>290.0</ele>
        <time>2020-07-29T08:55:04Z</time>
      </trkpt>
      <trkpt lat="43.0977670" lon="-0.9133150">
        <ele>291.4</ele>
        <time>2020-07-29T08:55:10Z</time>
      </trkpt>
      <trkpt lat="43.0978190" lon="-0.9134240">
        <ele>291.6</ele>
        <time>2020-07-29T08:55:13Z</time>
      </trkpt>
      <trkpt lat="43.0979220" lon="-0.9135810">
        <ele>292.6</ele>
        <time>2020-07-29T08:55:18Z</time>
      </trkpt>
      <trkpt lat="43.0979640" lon="-0.9136440">
        <ele>293.2</ele>
        <time>2020-07-29T08:55:20Z</time>
      </trkpt>
      <trkpt lat="43.0979850" lon="-0.9136760">
        <ele>293.6</ele>
        <time>2020-07-29T08:55:21Z</time>
      </trkpt>
      <trkpt lat="43.0980080" lon="-0.9137070">
        <ele>293.8</ele>
        <time>2020-07-29T08:55:22Z</time>
      </trkpt>
      <trkpt lat="43.0981550" lon="-0.9138850">
        <ele>294.6</ele>
        <time>2020-07-29T08:55:28Z</time>
      </trkpt>
      <trkpt lat="43.0982030" lon="-0.9139450">
        <ele>295.0</ele>
        <time>2020-07-29T08:55:30Z</time>
      </trkpt>
      <trkpt lat="43.0983490" lon="-0.9141640">
        <ele>296.0</ele>
        <time>2020-07-29T08:55:36Z</time>
      </trkpt>
      <trkpt lat="43.0983730" lon="-0.9141980">
        <ele>296.0</ele>
        <time>2020-07-29T08:55:37Z</time>
      </trkpt>
      <trkpt lat="43.0984400" lon="-0.9143040">
        <ele>296.6</ele>
        <time>2020-07-29T08:55:40Z</time>
      </trkpt>
      <trkpt lat="43.0985060" lon="-0.9144060">
        <ele>297.2</ele>
        <time>2020-07-29T08:55:43Z</time>
      </trkpt>
      <trkpt lat="43.0986030" lon="-0.9145450">
        <ele>297.6</ele>
        <time>2020-07-29T08:55:47Z</time>
      </trkpt>
      <trkpt lat="43.0986300" lon="-0.9145770">
        <ele>297.8</ele>
        <time>2020-07-29T08:55:48Z</time>
      </trkpt>
      <trkpt lat="43.0986560" lon="-0.9146080">
        <ele>297.8</ele>
        <time>2020-07-29T08:55:49Z</time>
      </trkpt>
      <trkpt lat="43.0987080" lon="-0.9146750">
        <ele>298.2</ele>
        <time>2020-07-29T08:55:51Z</time>
      </trkpt>
      <trkpt lat="43.0988800" lon="-0.9148930">
        <ele>298.4</ele>
        <time>2020-07-29T08:55:57Z</time>
      </trkpt>
      <trkpt lat="43.0989150" lon="-0.9149370">
        <ele>298.2</ele>
        <time>2020-07-29T08:55:58Z</time>
      </trkpt>
      <trkpt lat="43.0989510" lon="-0.9149900">
        <ele>298.2</ele>
        <time>2020-07-29T08:55:59Z</time>
      </trkpt>
      <trkpt lat="43.0990510" lon="-0.9152050">
        <ele>297.0</ele>
        <time>2020-07-29T08:56:02Z</time>
      </trkpt>
      <trkpt lat="43.0991110" lon="-0.9153810">
        <ele>295.4</ele>
        <time>2020-07-29T08:56:04Z</time>
      </trkpt>
      <trkpt lat="43.0991780" lon="-0.9155700">
        <ele>293.8</ele>
        <time>2020-07-29T08:56:06Z</time>
      </trkpt>
      <trkpt lat="43.0992190" lon="-0.9156730">
        <ele>293.0</ele>
        <time>2020-07-29T08:56:07Z</time>
      </trkpt>
      <trkpt lat="43.0992720" lon="-0.9157800">
        <ele>292.4</ele>
        <time>2020-07-29T08:56:08Z</time>
      </trkpt>
      <trkpt lat="43.0993910" lon="-0.9160080">
        <ele>290.4</ele>
        <time>2020-07-29T08:56:10Z</time>
      </trkpt>
      <trkpt lat="43.0994410" lon="-0.9161310">
        <ele>289.4</ele>
        <time>2020-07-29T08:56:11Z</time>
      </trkpt>
      <trkpt lat="43.0994870" lon="-0.9162510">
        <ele>288.6</ele>
        <time>2020-07-29T08:56:12Z</time>
      </trkpt>
      <trkpt lat="43.0995290" lon="-0.9163630">
        <ele>288.2</ele>
        <time>2020-07-29T08:56:13Z</time>
      </trkpt>
      <trkpt lat="43.0995910" lon="-0.9165550">
        <ele>288.0</ele>
        <time>2020-07-29T08:56:15Z</time>
      </trkpt>
      <trkpt lat="43.0996280" lon="-0.9167870">
        <ele>289.8</ele>
        <time>2020-07-29T08:56:18Z</time>
      </trkpt>
      <trkpt lat="43.0996300" lon="-0.9168470">
        <ele>291.0</ele>
        <time>2020-07-29T08:56:19Z</time>
      </trkpt>
      <trkpt lat="43.0996190" lon="-0.9169510">
        <ele>292.6</ele>
        <time>2020-07-29T08:56:21Z</time>
      </trkpt>
      <trkpt lat="43.0995870" lon="-0.9170860">
        <ele>293.6</ele>
        <time>2020-07-29T08:56:24Z</time>
      </trkpt>
      <trkpt lat="43.0995500" lon="-0.9172230">
        <ele>295.0</ele>
        <time>2020-07-29T08:56:27Z</time>
      </trkpt>
      <trkpt lat="43.0994880" lon="-0.9174500">
        <ele>296.0</ele>
        <time>2020-07-29T08:56:32Z</time>
      </trkpt>
      <trkpt lat="43.0994640" lon="-0.9175480">
        <ele>296.4</ele>
        <time>2020-07-29T08:56:34Z</time>
      </trkpt>
      <trkpt lat="43.0994460" lon="-0.9176960">
        <ele>297.0</ele>
        <time>2020-07-29T08:56:37Z</time>
      </trkpt>
      <trkpt lat="43.0994410" lon="-0.9177450">
        <ele>297.0</ele>
        <time>2020-07-29T08:56:38Z</time>
      </trkpt>
      <trkpt lat="43.0994470" lon="-0.9178880">
        <ele>297.2</ele>
        <time>2020-07-29T08:56:41Z</time>
      </trkpt>
      <trkpt lat="43.0994680" lon="-0.9180370">
        <ele>297.2</ele>
        <time>2020-07-29T08:56:44Z</time>
      </trkpt>
      <trkpt lat="43.0995130" lon="-0.9181780">
        <ele>297.4</ele>
        <time>2020-07-29T08:56:47Z</time>
      </trkpt>
      <trkpt lat="43.0996480" lon="-0.9184800">
        <ele>297.8</ele>
        <time>2020-07-29T08:56:53Z</time>
      </trkpt>
      <trkpt lat="43.0996870" lon="-0.9185810">
        <ele>298.0</ele>
        <time>2020-07-29T08:56:55Z</time>
      </trkpt>
      <trkpt lat="43.0997090" lon="-0.9186310">
        <ele>298.0</ele>
        <time>2020-07-29T08:56:56Z</time>
      </trkpt>
      <trkpt lat="43.0997950" lon="-0.9188410">
        <ele>299.4</ele>
        <time>2020-07-29T08:57:01Z</time>
      </trkpt>
      <trkpt lat="43.0998120" lon="-0.9188680">
        <ele>299.8</ele>
        <time>2020-07-29T08:57:02Z</time>
      </trkpt>
      <trkpt lat="43.0998440" lon="-0.9189220">
        <ele>300.8</ele>
        <time>2020-07-29T08:57:04Z</time>
      </trkpt>
      <trkpt lat="43.0999180" lon="-0.9190310">
        <ele>301.8</ele>
        <time>2020-07-29T08:57:08Z</time>
      </trkpt>
      <trkpt lat="43.1000130" lon="-0.9191460">
        <ele>302.4</ele>
        <time>2020-07-29T08:57:12Z</time>
      </trkpt>
      <trkpt lat="43.1001020" lon="-0.9192920">
        <ele>303.0</ele>
        <time>2020-07-29T08:57:16Z</time>
      </trkpt>
      <trkpt lat="43.1001790" lon="-0.9194490">
        <ele>303.4</ele>
        <time>2020-07-29T08:57:20Z</time>
      </trkpt>
      <trkpt lat="43.1002920" lon="-0.9197810">
        <ele>303.4</ele>
        <time>2020-07-29T08:57:26Z</time>
      </trkpt>
      <trkpt lat="43.1003910" lon="-0.9201640">
        <ele>302.6</ele>
        <time>2020-07-29T08:57:32Z</time>
      </trkpt>
      <trkpt lat="43.1004200" lon="-0.9202790">
        <ele>302.6</ele>
        <time>2020-07-29T08:57:34Z</time>
      </trkpt>
      <trkpt lat="43.1004860" lon="-0.9205940">
        <ele>303.2</ele>
        <time>2020-07-29T08:57:40Z</time>
      </trkpt>
      <trkpt lat="43.1005100" lon="-0.9207320">
        <ele>303.8</ele>
        <time>2020-07-29T08:57:43Z</time>
      </trkpt>
      <trkpt lat="43.1005160" lon="-0.9207730">
        <ele>304.2</ele>
        <time>2020-07-29T08:57:44Z</time>
      </trkpt>
      <trkpt lat="43.1005330" lon="-0.9209850">
        <ele>305.4</ele>
        <time>2020-07-29T08:57:50Z</time>
      </trkpt>
      <trkpt lat="43.1005440" lon="-0.9210730">
        <ele>306.6</ele>
        <time>2020-07-29T08:57:53Z</time>
      </trkpt>
      <trkpt lat="43.1005570" lon="-0.9211320">
        <ele>307.8</ele>
        <time>2020-07-29T08:57:56Z</time>
      </trkpt>
      <trkpt lat="43.1005560" lon="-0.9211510">
        <ele>308.0</ele>
        <time>2020-07-29T08:57:57Z</time>
      </trkpt>
      <trkpt lat="43.1005760" lon="-0.9212330">
        <ele>308.8</ele>
        <time>2020-07-29T08:58:01Z</time>
      </trkpt>
      <trkpt lat="43.1005880" lon="-0.9212740">
        <ele>309.2</ele>
        <time>2020-07-29T08:58:03Z</time>
      </trkpt>
      <trkpt lat="43.1006080" lon="-0.9213270">
        <ele>310.0</ele>
        <time>2020-07-29T08:58:06Z</time>
      </trkpt>
      <trkpt lat="43.1006250" lon="-0.9213890">
        <ele>310.8</ele>
        <time>2020-07-29T08:58:09Z</time>
      </trkpt>
      <trkpt lat="43.1006310" lon="-0.9214090">
        <ele>311.0</ele>
        <time>2020-07-29T08:58:10Z</time>
      </trkpt>
      <trkpt lat="43.1006400" lon="-0.9214290">
        <ele>311.2</ele>
        <time>2020-07-29T08:58:11Z</time>
      </trkpt>
      <trkpt lat="43.1006730" lon="-0.9214970">
        <ele>312.4</ele>
        <time>2020-07-29T08:58:15Z</time>
      </trkpt>
      <trkpt lat="43.1007150" lon="-0.9215560">
        <ele>313.4</ele>
        <time>2020-07-29T08:58:19Z</time>
      </trkpt>
      <trkpt lat="43.1007810" lon="-0.9215950">
        <ele>314.6</ele>
        <time>2020-07-29T08:58:23Z</time>
      </trkpt>
      <trkpt lat="43.1008210" lon="-0.9216010">
        <ele>315.4</ele>
        <time>2020-07-29T08:58:25Z</time>
      </trkpt>
      <trkpt lat="43.1008540" lon="-0.9216010">
        <ele>315.8</ele>
        <time>2020-07-29T08:58:27Z</time>
      </trkpt>
      <trkpt lat="43.1009110" lon="-0.9216050">
        <ele>316.8</ele>
        <time>2020-07-29T08:58:31Z</time>
      </trkpt>
      <trkpt lat="43.1009330" lon="-0.9215980">
        <ele>317.4</ele>
        <time>2020-07-29T08:58:33Z</time>
      </trkpt>
      <trkpt lat="43.1009670" lon="-0.9215920">
        <ele>318.0</ele>
        <time>2020-07-29T08:58:36Z</time>
      </trkpt>
      <trkpt lat="43.1010220" lon="-0.9215760">
        <ele>318.4</ele>
        <time>2020-07-29T08:58:41Z</time>
      </trkpt>
      <trkpt lat="43.1010810" lon="-0.9215820">
        <ele>319.0</ele>
        <time>2020-07-29T08:58:46Z</time>
      </trkpt>
      <trkpt lat="43.1011060" lon="-0.9215720">
        <ele>319.2</ele>
        <time>2020-07-29T08:58:48Z</time>
      </trkpt>
      <trkpt lat="43.1011680" lon="-0.9215650">
        <ele>320.0</ele>
        <time>2020-07-29T08:58:53Z</time>
      </trkpt>
      <trkpt lat="43.1011810" lon="-0.9215600">
        <ele>320.2</ele>
        <time>2020-07-29T08:58:54Z</time>
      </trkpt>
      <trkpt lat="43.1012680" lon="-0.9215360">
        <ele>320.8</ele>
        <time>2020-07-29T08:59:00Z</time>
      </trkpt>
      <trkpt lat="43.1012820" lon="-0.9215270">
        <ele>320.8</ele>
        <time>2020-07-29T08:59:01Z</time>
      </trkpt>
      <trkpt lat="43.1013100" lon="-0.9215160">
        <ele>321.0</ele>
        <time>2020-07-29T08:59:03Z</time>
      </trkpt>
      <trkpt lat="43.1013650" lon="-0.9214900">
        <ele>321.8</ele>
        <time>2020-07-29T08:59:07Z</time>
      </trkpt>
      <trkpt lat="43.1013910" lon="-0.9214790">
        <ele>322.2</ele>
        <time>2020-07-29T08:59:09Z</time>
      </trkpt>
      <trkpt lat="43.1014720" lon="-0.9214970">
        <ele>323.2</ele>
        <time>2020-07-29T08:59:15Z</time>
      </trkpt>
      <trkpt lat="43.1014850" lon="-0.9215070">
        <ele>323.4</ele>
        <time>2020-07-29T08:59:16Z</time>
      </trkpt>
      <trkpt lat="43.1015360" lon="-0.9215460">
        <ele>324.4</ele>
        <time>2020-07-29T08:59:20Z</time>
      </trkpt>
      <trkpt lat="43.1015390" lon="-0.9215630">
        <ele>324.6</ele>
        <time>2020-07-29T08:59:21Z</time>
      </trkpt>
      <trkpt lat="43.1015340" lon="-0.9215830">
        <ele>324.8</ele>
        <time>2020-07-29T08:59:22Z</time>
      </trkpt>
      <trkpt lat="43.1014900" lon="-0.9216860">
        <ele>325.8</ele>
        <time>2020-07-29T08:59:27Z</time>
      </trkpt>
      <trkpt lat="43.1014630" lon="-0.9217370">
        <ele>326.4</ele>
        <time>2020-07-29T08:59:30Z</time>
      </trkpt>
      <trkpt lat="43.1014390" lon="-0.9217590">
        <ele>326.8</ele>
        <time>2020-07-29T08:59:32Z</time>
      </trkpt>
      <trkpt lat="43.1013920" lon="-0.9218170">
        <ele>327.4</ele>
        <time>2020-07-29T08:59:36Z</time>
      </trkpt>
      <trkpt lat="43.1013810" lon="-0.9218290">
        <ele>327.6</ele>
        <time>2020-07-29T08:59:37Z</time>
      </trkpt>
      <trkpt lat="43.1013440" lon="-0.9218780">
        <ele>328.0</ele>
        <time>2020-07-29T08:59:40Z</time>
      </trkpt>
      <trkpt lat="43.1013100" lon="-0.9219350">
        <ele>328.4</ele>
        <time>2020-07-29T08:59:43Z</time>
      </trkpt>
      <trkpt lat="43.1012510" lon="-0.9219980">
        <ele>329.0</ele>
        <time>2020-07-29T08:59:46Z</time>
      </trkpt>
      <trkpt lat="43.1011830" lon="-0.9220920">
        <ele>330.2</ele>
        <time>2020-07-29T08:59:50Z</time>
      </trkpt>
      <trkpt lat="43.1011390" lon="-0.9221450">
        <ele>331.0</ele>
        <time>2020-07-29T08:59:53Z</time>
      </trkpt>
      <trkpt lat="43.1011260" lon="-0.9221620">
        <ele>331.2</ele>
        <time>2020-07-29T08:59:54Z</time>
      </trkpt>
      <trkpt lat="43.1011150" lon="-0.9221810">
        <ele>331.4</ele>
        <time>2020-07-29T08:59:55Z</time>
      </trkpt>
      <trkpt lat="43.1011040" lon="-0.9221980">
        <ele>331.8</ele>
        <time>2020-07-29T08:59:56Z</time>
      </trkpt>
      <trkpt lat="43.1010930" lon="-0.9222140">
        <ele>332.0</ele>
        <time>2020-07-29T08:59:57Z</time>
      </trkpt>
      <trkpt lat="43.1010670" lon="-0.9222610">
        <ele>332.2</ele>
        <time>2020-07-29T09:00:00Z</time>
      </trkpt>
      <trkpt lat="43.1010370" lon="-0.9223170">
        <ele>333.0</ele>
        <time>2020-07-29T09:00:04Z</time>
      </trkpt>
      <trkpt lat="43.1010280" lon="-0.9223300">
        <ele>333.4</ele>
        <time>2020-07-29T09:00:05Z</time>
      </trkpt>
      <trkpt lat="43.1009950" lon="-0.9224080">
        <ele>334.4</ele>
        <time>2020-07-29T09:00:11Z</time>
      </trkpt>
      <trkpt lat="43.1009770" lon="-0.9224580">
        <ele>334.8</ele>
        <time>2020-07-29T09:00:14Z</time>
      </trkpt>
      <trkpt lat="43.1009470" lon="-0.9225190">
        <ele>335.4</ele>
        <time>2020-07-29T09:00:17Z</time>
      </trkpt>
      <trkpt lat="43.1009350" lon="-0.9225410">
        <ele>335.8</ele>
        <time>2020-07-29T09:00:18Z</time>
      </trkpt>
      <trkpt lat="43.1009010" lon="-0.9226420">
        <ele>336.6</ele>
        <time>2020-07-29T09:00:22Z</time>
      </trkpt>
      <trkpt lat="43.1008900" lon="-0.9226660">
        <ele>336.8</ele>
        <time>2020-07-29T09:00:23Z</time>
      </trkpt>
      <trkpt lat="43.1008370" lon="-0.9227840">
        <ele>338.0</ele>
        <time>2020-07-29T09:00:28Z</time>
      </trkpt>
      <trkpt lat="43.1007970" lon="-0.9228700">
        <ele>338.8</ele>
        <time>2020-07-29T09:00:32Z</time>
      </trkpt>
      <trkpt lat="43.1007900" lon="-0.9228890">
        <ele>339.0</ele>
        <time>2020-07-29T09:00:33Z</time>
      </trkpt>
      <trkpt lat="43.1007850" lon="-0.9229070">
        <ele>339.2</ele>
        <time>2020-07-29T09:00:34Z</time>
      </trkpt>
      <trkpt lat="43.1007590" lon="-0.9229860">
        <ele>340.2</ele>
        <time>2020-07-29T09:00:38Z</time>
      </trkpt>
      <trkpt lat="43.1007420" lon="-0.9230300">
        <ele>340.6</ele>
        <time>2020-07-29T09:00:40Z</time>
      </trkpt>
      <trkpt lat="43.1007230" lon="-0.9230960">
        <ele>341.4</ele>
        <time>2020-07-29T09:00:43Z</time>
      </trkpt>
      <trkpt lat="43.1007030" lon="-0.9232140">
        <ele>342.6</ele>
        <time>2020-07-29T09:00:48Z</time>
      </trkpt>
      <trkpt lat="43.1006830" lon="-0.9232990">
        <ele>343.8</ele>
        <time>2020-07-29T09:00:52Z</time>
      </trkpt>
      <trkpt lat="43.1006720" lon="-0.9233380">
        <ele>344.2</ele>
        <time>2020-07-29T09:00:54Z</time>
      </trkpt>
      <trkpt lat="43.1006650" lon="-0.9233820">
        <ele>344.6</ele>
        <time>2020-07-29T09:00:56Z</time>
      </trkpt>
      <trkpt lat="43.1006610" lon="-0.9234050">
        <ele>344.8</ele>
        <time>2020-07-29T09:00:57Z</time>
      </trkpt>
      <trkpt lat="43.1006510" lon="-0.9234480">
        <ele>345.2</ele>
        <time>2020-07-29T09:00:59Z</time>
      </trkpt>
      <trkpt lat="43.1006370" lon="-0.9235160">
        <ele>345.8</ele>
        <time>2020-07-29T09:01:02Z</time>
      </trkpt>
      <trkpt lat="43.1006340" lon="-0.9235400">
        <ele>346.0</ele>
        <time>2020-07-29T09:01:03Z</time>
      </trkpt>
      <trkpt lat="43.1006300" lon="-0.9235670">
        <ele>346.2</ele>
        <time>2020-07-29T09:01:04Z</time>
      </trkpt>
      <trkpt lat="43.1006150" lon="-0.9236660">
        <ele>347.2</ele>
        <time>2020-07-29T09:01:08Z</time>
      </trkpt>
      <trkpt lat="43.1006060" lon="-0.9237090">
        <ele>347.8</ele>
        <time>2020-07-29T09:01:10Z</time>
      </trkpt>
      <trkpt lat="43.1006020" lon="-0.9237310">
        <ele>347.8</ele>
        <time>2020-07-29T09:01:11Z</time>
      </trkpt>
      <trkpt lat="43.1005970" lon="-0.9237510">
        <ele>348.0</ele>
        <time>2020-07-29T09:01:12Z</time>
      </trkpt>
      <trkpt lat="43.1005940" lon="-0.9237740">
        <ele>348.2</ele>
        <time>2020-07-29T09:01:13Z</time>
      </trkpt>
      <trkpt lat="43.1005920" lon="-0.9237970">
        <ele>348.6</ele>
        <time>2020-07-29T09:01:14Z</time>
      </trkpt>
      <trkpt lat="43.1005840" lon="-0.9238720">
        <ele>349.4</ele>
        <time>2020-07-29T09:01:17Z</time>
      </trkpt>
      <trkpt lat="43.1005770" lon="-0.9239250">
        <ele>350.0</ele>
        <time>2020-07-29T09:01:19Z</time>
      </trkpt>
      <trkpt lat="43.1005730" lon="-0.9239770">
        <ele>350.6</ele>
        <time>2020-07-29T09:01:21Z</time>
      </trkpt>
      <trkpt lat="43.1005690" lon="-0.9240290">
        <ele>351.0</ele>
        <time>2020-07-29T09:01:23Z</time>
      </trkpt>
      <trkpt lat="43.1005660" lon="-0.9240540">
        <ele>351.2</ele>
        <time>2020-07-29T09:01:24Z</time>
      </trkpt>
      <trkpt lat="43.1005600" lon="-0.9241020">
        <ele>351.8</ele>
        <time>2020-07-29T09:01:26Z</time>
      </trkpt>
      <trkpt lat="43.1005450" lon="-0.9242300">
        <ele>353.0</ele>
        <time>2020-07-29T09:01:31Z</time>
      </trkpt>
      <trkpt lat="43.1005410" lon="-0.9242570">
        <ele>353.2</ele>
        <time>2020-07-29T09:01:32Z</time>
      </trkpt>
      <trkpt lat="43.1005320" lon="-0.9243100">
        <ele>354.0</ele>
        <time>2020-07-29T09:01:34Z</time>
      </trkpt>
      <trkpt lat="43.1005190" lon="-0.9243910">
        <ele>354.8</ele>
        <time>2020-07-29T09:01:37Z</time>
      </trkpt>
      <trkpt lat="43.1005160" lon="-0.9244170">
        <ele>355.0</ele>
        <time>2020-07-29T09:01:38Z</time>
      </trkpt>
      <trkpt lat="43.1005010" lon="-0.9245090">
        <ele>355.8</ele>
        <time>2020-07-29T09:01:42Z</time>
      </trkpt>
      <trkpt lat="43.1004950" lon="-0.9245280">
        <ele>356.2</ele>
        <time>2020-07-29T09:01:43Z</time>
      </trkpt>
      <trkpt lat="43.1004760" lon="-0.9246080">
        <ele>357.4</ele>
        <time>2020-07-29T09:01:47Z</time>
      </trkpt>
      <trkpt lat="43.1004640" lon="-0.9246480">
        <ele>358.0</ele>
        <time>2020-07-29T09:01:49Z</time>
      </trkpt>
      <trkpt lat="43.1004490" lon="-0.9247080">
        <ele>358.6</ele>
        <time>2020-07-29T09:01:52Z</time>
      </trkpt>
      <trkpt lat="43.1004380" lon="-0.9247640">
        <ele>359.4</ele>
        <time>2020-07-29T09:01:55Z</time>
      </trkpt>
      <trkpt lat="43.1004340" lon="-0.9247820">
        <ele>359.6</ele>
        <time>2020-07-29T09:01:56Z</time>
      </trkpt>
      <trkpt lat="43.1004000" lon="-0.9248570">
        <ele>360.4</ele>
        <time>2020-07-29T09:02:00Z</time>
      </trkpt>
      <trkpt lat="43.1003820" lon="-0.9248920">
        <ele>360.8</ele>
        <time>2020-07-29T09:02:02Z</time>
      </trkpt>
      <trkpt lat="43.1003640" lon="-0.9249240">
        <ele>361.4</ele>
        <time>2020-07-29T09:02:04Z</time>
      </trkpt>
      <trkpt lat="43.1003410" lon="-0.9249800">
        <ele>361.8</ele>
        <time>2020-07-29T09:02:07Z</time>
      </trkpt>
      <trkpt lat="43.1003000" lon="-0.9250510">
        <ele>363.0</ele>
        <time>2020-07-29T09:02:11Z</time>
      </trkpt>
      <trkpt lat="43.1002280" lon="-0.9251100">
        <ele>364.2</ele>
        <time>2020-07-29T09:02:16Z</time>
      </trkpt>
      <trkpt lat="43.1001870" lon="-0.9251300">
        <ele>364.8</ele>
        <time>2020-07-29T09:02:18Z</time>
      </trkpt>
      <trkpt lat="43.1001120" lon="-0.9251330">
        <ele>365.2</ele>
        <time>2020-07-29T09:02:21Z</time>
      </trkpt>
      <trkpt lat="43.1000240" lon="-0.9251030">
        <ele>365.6</ele>
        <time>2020-07-29T09:02:24Z</time>
      </trkpt>
      <trkpt lat="43.0999060" lon="-0.9250270">
        <ele>366.4</ele>
        <time>2020-07-29T09:02:28Z</time>
      </trkpt>
      <trkpt lat="43.0998760" lon="-0.9250130">
        <ele>366.6</ele>
        <time>2020-07-29T09:02:29Z</time>
      </trkpt>
      <trkpt lat="43.0998140" lon="-0.9249920">
        <ele>367.0</ele>
        <time>2020-07-29T09:02:31Z</time>
      </trkpt>
      <trkpt lat="43.0997250" lon="-0.9249730">
        <ele>367.6</ele>
        <time>2020-07-29T09:02:34Z</time>
      </trkpt>
      <trkpt lat="43.0996070" lon="-0.9249560">
        <ele>368.4</ele>
        <time>2020-07-29T09:02:38Z</time>
      </trkpt>
      <trkpt lat="43.0995790" lon="-0.9249530">
        <ele>368.8</ele>
        <time>2020-07-29T09:02:39Z</time>
      </trkpt>
      <trkpt lat="43.0994510" lon="-0.9249140">
        <ele>370.0</ele>
        <time>2020-07-29T09:02:44Z</time>
      </trkpt>
      <trkpt lat="43.0993660" lon="-0.9248840">
        <ele>371.0</ele>
        <time>2020-07-29T09:02:47Z</time>
      </trkpt>
      <trkpt lat="43.0992800" lon="-0.9248530">
        <ele>372.0</ele>
        <time>2020-07-29T09:02:50Z</time>
      </trkpt>
      <trkpt lat="43.0991950" lon="-0.9248290">
        <ele>372.6</ele>
        <time>2020-07-29T09:02:53Z</time>
      </trkpt>
      <trkpt lat="43.0991120" lon="-0.9248130">
        <ele>373.2</ele>
        <time>2020-07-29T09:02:56Z</time>
      </trkpt>
      <trkpt lat="43.0989440" lon="-0.9248360">
        <ele>374.4</ele>
        <time>2020-07-29T09:03:02Z</time>
      </trkpt>
      <trkpt lat="43.0988910" lon="-0.9248510">
        <ele>375.0</ele>
        <time>2020-07-29T09:03:04Z</time>
      </trkpt>
      <trkpt lat="43.0988420" lon="-0.9248710">
        <ele>375.8</ele>
        <time>2020-07-29T09:03:06Z</time>
      </trkpt>
      <trkpt lat="43.0987970" lon="-0.9248930">
        <ele>376.4</ele>
        <time>2020-07-29T09:03:08Z</time>
      </trkpt>
      <trkpt lat="43.0987750" lon="-0.9249020">
        <ele>376.8</ele>
        <time>2020-07-29T09:03:09Z</time>
      </trkpt>
      <trkpt lat="43.0987110" lon="-0.9249250">
        <ele>377.6</ele>
        <time>2020-07-29T09:03:12Z</time>
      </trkpt>
      <trkpt lat="43.0986680" lon="-0.9249500">
        <ele>378.0</ele>
        <time>2020-07-29T09:03:14Z</time>
      </trkpt>
      <trkpt lat="43.0985780" lon="-0.9250160">
        <ele>379.2</ele>
        <time>2020-07-29T09:03:19Z</time>
      </trkpt>
      <trkpt lat="43.0985600" lon="-0.9250290">
        <ele>379.4</ele>
        <time>2020-07-29T09:03:20Z</time>
      </trkpt>
      <trkpt lat="43.0985150" lon="-0.9250520">
        <ele>380.2</ele>
        <time>2020-07-29T09:03:23Z</time>
      </trkpt>
      <trkpt lat="43.0984740" lon="-0.9250830">
        <ele>381.4</ele>
        <time>2020-07-29T09:03:27Z</time>
      </trkpt>
      <trkpt lat="43.0984620" lon="-0.9250870">
        <ele>381.6</ele>
        <time>2020-07-29T09:03:28Z</time>
      </trkpt>
      <trkpt lat="43.0984240" lon="-0.9251210">
        <ele>382.6</ele>
        <time>2020-07-29T09:03:32Z</time>
      </trkpt>
      <trkpt lat="43.0983960" lon="-0.9251420">
        <ele>383.0</ele>
        <time>2020-07-29T09:03:35Z</time>
      </trkpt>
      <trkpt lat="43.0983570" lon="-0.9251810">
        <ele>383.6</ele>
        <time>2020-07-29T09:03:39Z</time>
      </trkpt>
      <trkpt lat="43.0983180" lon="-0.9252090">
        <ele>384.2</ele>
        <time>2020-07-29T09:03:42Z</time>
      </trkpt>
      <trkpt lat="43.0982960" lon="-0.9252370">
        <ele>384.8</ele>
        <time>2020-07-29T09:03:44Z</time>
      </trkpt>
      <trkpt lat="43.0982760" lon="-0.9252620">
        <ele>385.0</ele>
        <time>2020-07-29T09:03:46Z</time>
      </trkpt>
      <trkpt lat="43.0982520" lon="-0.9252840">
        <ele>385.4</ele>
        <time>2020-07-29T09:03:48Z</time>
      </trkpt>
      <trkpt lat="43.0982280" lon="-0.9253110">
        <ele>385.8</ele>
        <time>2020-07-29T09:03:50Z</time>
      </trkpt>
      <trkpt lat="43.0981810" lon="-0.9253570">
        <ele>386.6</ele>
        <time>2020-07-29T09:03:54Z</time>
      </trkpt>
      <trkpt lat="43.0981510" lon="-0.9253720">
        <ele>387.0</ele>
        <time>2020-07-29T09:03:56Z</time>
      </trkpt>
      <trkpt lat="43.0980980" lon="-0.9254200">
        <ele>388.0</ele>
        <time>2020-07-29T09:04:00Z</time>
      </trkpt>
      <trkpt lat="43.0980590" lon="-0.9254690">
        <ele>388.6</ele>
        <time>2020-07-29T09:04:03Z</time>
      </trkpt>
      <trkpt lat="43.0980420" lon="-0.9255100">
        <ele>389.2</ele>
        <time>2020-07-29T09:04:05Z</time>
      </trkpt>
      <trkpt lat="43.0980330" lon="-0.9255300">
        <ele>389.4</ele>
        <time>2020-07-29T09:04:06Z</time>
      </trkpt>
      <trkpt lat="43.0980230" lon="-0.9255490">
        <ele>389.6</ele>
        <time>2020-07-29T09:04:07Z</time>
      </trkpt>
      <trkpt lat="43.0979910" lon="-0.9256050">
        <ele>390.2</ele>
        <time>2020-07-29T09:04:10Z</time>
      </trkpt>
      <trkpt lat="43.0979560" lon="-0.9256630">
        <ele>391.0</ele>
        <time>2020-07-29T09:04:13Z</time>
      </trkpt>
      <trkpt lat="43.0979440" lon="-0.9256820">
        <ele>391.4</ele>
        <time>2020-07-29T09:04:14Z</time>
      </trkpt>
      <trkpt lat="43.0978960" lon="-0.9257680">
        <ele>392.4</ele>
        <time>2020-07-29T09:04:18Z</time>
      </trkpt>
      <trkpt lat="43.0978880" lon="-0.9257930">
        <ele>392.4</ele>
        <time>2020-07-29T09:04:19Z</time>
      </trkpt>
      <trkpt lat="43.0978580" lon="-0.9259150">
        <ele>393.2</ele>
        <time>2020-07-29T09:04:24Z</time>
      </trkpt>
      <trkpt lat="43.0978540" lon="-0.9259400">
        <ele>393.6</ele>
        <time>2020-07-29T09:04:25Z</time>
      </trkpt>
      <trkpt lat="43.0978420" lon="-0.9260100">
        <ele>394.4</ele>
        <time>2020-07-29T09:04:28Z</time>
      </trkpt>
      <trkpt lat="43.0978390" lon="-0.9260320">
        <ele>394.6</ele>
        <time>2020-07-29T09:04:29Z</time>
      </trkpt>
      <trkpt lat="43.0978370" lon="-0.9260770">
        <ele>395.2</ele>
        <time>2020-07-29T09:04:31Z</time>
      </trkpt>
      <trkpt lat="43.0978370" lon="-0.9261440">
        <ele>395.8</ele>
        <time>2020-07-29T09:04:34Z</time>
      </trkpt>
      <trkpt lat="43.0978350" lon="-0.9261660">
        <ele>396.0</ele>
        <time>2020-07-29T09:04:35Z</time>
      </trkpt>
      <trkpt lat="43.0978400" lon="-0.9263020">
        <ele>397.0</ele>
        <time>2020-07-29T09:04:40Z</time>
      </trkpt>
      <trkpt lat="43.0978390" lon="-0.9263360">
        <ele>397.0</ele>
        <time>2020-07-29T09:04:41Z</time>
      </trkpt>
      <trkpt lat="43.0978360" lon="-0.9264770">
        <ele>398.2</ele>
        <time>2020-07-29T09:04:45Z</time>
      </trkpt>
      <trkpt lat="43.0978360" lon="-0.9265130">
        <ele>398.6</ele>
        <time>2020-07-29T09:04:46Z</time>
      </trkpt>
      <trkpt lat="43.0978350" lon="-0.9265840">
        <ele>399.4</ele>
        <time>2020-07-29T09:04:48Z</time>
      </trkpt>
      <trkpt lat="43.0978350" lon="-0.9266190">
        <ele>399.8</ele>
        <time>2020-07-29T09:04:49Z</time>
      </trkpt>
      <trkpt lat="43.0978300" lon="-0.9266880">
        <ele>400.6</ele>
        <time>2020-07-29T09:04:51Z</time>
      </trkpt>
      <trkpt lat="43.0978340" lon="-0.9268230">
        <ele>401.8</ele>
        <time>2020-07-29T09:04:55Z</time>
      </trkpt>
      <trkpt lat="43.0978410" lon="-0.9268870">
        <ele>402.4</ele>
        <time>2020-07-29T09:04:57Z</time>
      </trkpt>
      <trkpt lat="43.0978450" lon="-0.9269770">
        <ele>403.0</ele>
        <time>2020-07-29T09:05:00Z</time>
      </trkpt>
      <trkpt lat="43.0978550" lon="-0.9270760">
        <ele>403.8</ele>
        <time>2020-07-29T09:05:03Z</time>
      </trkpt>
      <trkpt lat="43.0978580" lon="-0.9271100">
        <ele>404.2</ele>
        <time>2020-07-29T09:05:04Z</time>
      </trkpt>
      <trkpt lat="43.0978600" lon="-0.9272120">
        <ele>405.6</ele>
        <time>2020-07-29T09:05:07Z</time>
      </trkpt>
      <trkpt lat="43.0978580" lon="-0.9273850">
        <ele>406.6</ele>
        <time>2020-07-29T09:05:12Z</time>
      </trkpt>
      <trkpt lat="43.0978580" lon="-0.9274210">
        <ele>406.8</ele>
        <time>2020-07-29T09:05:13Z</time>
      </trkpt>
      <trkpt lat="43.0978650" lon="-0.9275220">
        <ele>407.8</ele>
        <time>2020-07-29T09:05:16Z</time>
      </trkpt>
      <trkpt lat="43.0978790" lon="-0.9276480">
        <ele>409.2</ele>
        <time>2020-07-29T09:05:20Z</time>
      </trkpt>
      <trkpt lat="43.0978930" lon="-0.9277380">
        <ele>410.2</ele>
        <time>2020-07-29T09:05:23Z</time>
      </trkpt>
      <trkpt lat="43.0979240" lon="-0.9278870">
        <ele>411.2</ele>
        <time>2020-07-29T09:05:28Z</time>
      </trkpt>
      <trkpt lat="43.0979490" lon="-0.9279770">
        <ele>412.4</ele>
        <time>2020-07-29T09:05:31Z</time>
      </trkpt>
      <trkpt lat="43.0979670" lon="-0.9280710">
        <ele>413.4</ele>
        <time>2020-07-29T09:05:34Z</time>
      </trkpt>
      <trkpt lat="43.0979800" lon="-0.9281310">
        <ele>413.8</ele>
        <time>2020-07-29T09:05:36Z</time>
      </trkpt>
      <trkpt lat="43.0979880" lon="-0.9281930">
        <ele>414.4</ele>
        <time>2020-07-29T09:05:38Z</time>
      </trkpt>
      <trkpt lat="43.0979980" lon="-0.9282840">
        <ele>415.6</ele>
        <time>2020-07-29T09:05:41Z</time>
      </trkpt>
      <trkpt lat="43.0980110" lon="-0.9284010">
        <ele>416.8</ele>
        <time>2020-07-29T09:05:45Z</time>
      </trkpt>
      <trkpt lat="43.0980040" lon="-0.9284880">
        <ele>417.4</ele>
        <time>2020-07-29T09:05:48Z</time>
      </trkpt>
      <trkpt lat="43.0980110" lon="-0.9285160">
        <ele>417.8</ele>
        <time>2020-07-29T09:05:49Z</time>
      </trkpt>
      <trkpt lat="43.0980180" lon="-0.9285430">
        <ele>418.2</ele>
        <time>2020-07-29T09:05:50Z</time>
      </trkpt>
      <trkpt lat="43.0980250" lon="-0.9285960">
        <ele>419.0</ele>
        <time>2020-07-29T09:05:52Z</time>
      </trkpt>
      <trkpt lat="43.0980330" lon="-0.9286930">
        <ele>420.2</ele>
        <time>2020-07-29T09:05:56Z</time>
      </trkpt>
      <trkpt lat="43.0980330" lon="-0.9287420">
        <ele>420.6</ele>
        <time>2020-07-29T09:05:58Z</time>
      </trkpt>
      <trkpt lat="43.0980430" lon="-0.9288460">
        <ele>421.4</ele>
        <time>2020-07-29T09:06:02Z</time>
      </trkpt>
      <trkpt lat="43.0980490" lon="-0.9288910">
        <ele>422.0</ele>
        <time>2020-07-29T09:06:04Z</time>
      </trkpt>
      <trkpt lat="43.0980610" lon="-0.9289450">
        <ele>422.4</ele>
        <time>2020-07-29T09:06:06Z</time>
      </trkpt>
      <trkpt lat="43.0980720" lon="-0.9290280">
        <ele>423.6</ele>
        <time>2020-07-29T09:06:09Z</time>
      </trkpt>
      <trkpt lat="43.0980850" lon="-0.9290810">
        <ele>424.4</ele>
        <time>2020-07-29T09:06:11Z</time>
      </trkpt>
      <trkpt lat="43.0981020" lon="-0.9291310">
        <ele>424.6</ele>
        <time>2020-07-29T09:06:13Z</time>
      </trkpt>
      <trkpt lat="43.0981130" lon="-0.9291560">
        <ele>424.8</ele>
        <time>2020-07-29T09:06:14Z</time>
      </trkpt>
      <trkpt lat="43.0981230" lon="-0.9291810">
        <ele>425.0</ele>
        <time>2020-07-29T09:06:15Z</time>
      </trkpt>
      <trkpt lat="43.0981390" lon="-0.9292320">
        <ele>425.4</ele>
        <time>2020-07-29T09:06:17Z</time>
      </trkpt>
      <trkpt lat="43.0981460" lon="-0.9292600">
        <ele>425.8</ele>
        <time>2020-07-29T09:06:18Z</time>
      </trkpt>
      <trkpt lat="43.0981680" lon="-0.9293110">
        <ele>426.4</ele>
        <time>2020-07-29T09:06:20Z</time>
      </trkpt>
      <trkpt lat="43.0982080" lon="-0.9293840">
        <ele>427.0</ele>
        <time>2020-07-29T09:06:23Z</time>
      </trkpt>
      <trkpt lat="43.0982610" lon="-0.9294720">
        <ele>428.0</ele>
        <time>2020-07-29T09:06:27Z</time>
      </trkpt>
      <trkpt lat="43.0983060" lon="-0.9295250">
        <ele>428.8</ele>
        <time>2020-07-29T09:06:30Z</time>
      </trkpt>
      <trkpt lat="43.0983210" lon="-0.9295390">
        <ele>429.2</ele>
        <time>2020-07-29T09:06:31Z</time>
      </trkpt>
      <trkpt lat="43.0984060" lon="-0.9296160">
        <ele>430.4</ele>
        <time>2020-07-29T09:06:37Z</time>
      </trkpt>
      <trkpt lat="43.0984210" lon="-0.9296270">
        <ele>430.6</ele>
        <time>2020-07-29T09:06:38Z</time>
      </trkpt>
      <trkpt lat="43.0984780" lon="-0.9296740">
        <ele>431.4</ele>
        <time>2020-07-29T09:06:42Z</time>
      </trkpt>
      <trkpt lat="43.0985490" lon="-0.9297280">
        <ele>432.6</ele>
        <time>2020-07-29T09:06:47Z</time>
      </trkpt>
      <trkpt lat="43.0985620" lon="-0.9297380">
        <ele>432.8</ele>
        <time>2020-07-29T09:06:48Z</time>
      </trkpt>
      <trkpt lat="43.0986190" lon="-0.9298000">
        <ele>433.6</ele>
        <time>2020-07-29T09:06:52Z</time>
      </trkpt>
      <trkpt lat="43.0986660" lon="-0.9298390">
        <ele>434.4</ele>
        <time>2020-07-29T09:06:55Z</time>
      </trkpt>
      <trkpt lat="43.0986830" lon="-0.9298580">
        <ele>434.8</ele>
        <time>2020-07-29T09:06:56Z</time>
      </trkpt>
      <trkpt lat="43.0987580" lon="-0.9299420">
        <ele>436.0</ele>
        <time>2020-07-29T09:07:00Z</time>
      </trkpt>
      <trkpt lat="43.0987960" lon="-0.9299850">
        <ele>436.6</ele>
        <time>2020-07-29T09:07:02Z</time>
      </trkpt>
      <trkpt lat="43.0988460" lon="-0.9300560">
        <ele>437.2</ele>
        <time>2020-07-29T09:07:05Z</time>
      </trkpt>
      <trkpt lat="43.0989070" lon="-0.9301430">
        <ele>438.4</ele>
        <time>2020-07-29T09:07:09Z</time>
      </trkpt>
      <trkpt lat="43.0989650" lon="-0.9302360">
        <ele>439.4</ele>
        <time>2020-07-29T09:07:13Z</time>
      </trkpt>
      <trkpt lat="43.0990230" lon="-0.9303250">
        <ele>440.4</ele>
        <time>2020-07-29T09:07:17Z</time>
      </trkpt>
      <trkpt lat="43.0990410" lon="-0.9303440">
        <ele>440.8</ele>
        <time>2020-07-29T09:07:18Z</time>
      </trkpt>
      <trkpt lat="43.0991030" lon="-0.9303920">
        <ele>441.4</ele>
        <time>2020-07-29T09:07:21Z</time>
      </trkpt>
      <trkpt lat="43.0992000" lon="-0.9304600">
        <ele>442.6</ele>
        <time>2020-07-29T09:07:26Z</time>
      </trkpt>
      <trkpt lat="43.0992390" lon="-0.9304800">
        <ele>443.0</ele>
        <time>2020-07-29T09:07:28Z</time>
      </trkpt>
      <trkpt lat="43.0992760" lon="-0.9304990">
        <ele>443.8</ele>
        <time>2020-07-29T09:07:30Z</time>
      </trkpt>
      <trkpt lat="43.0993860" lon="-0.9305510">
        <ele>444.6</ele>
        <time>2020-07-29T09:07:36Z</time>
      </trkpt>
      <trkpt lat="43.0993990" lon="-0.9305700">
        <ele>445.0</ele>
        <time>2020-07-29T09:07:37Z</time>
      </trkpt>
      <trkpt lat="43.0994720" lon="-0.9306460">
        <ele>446.0</ele>
        <time>2020-07-29T09:07:42Z</time>
      </trkpt>
      <trkpt lat="43.0995320" lon="-0.9307030">
        <ele>446.6</ele>
        <time>2020-07-29T09:07:45Z</time>
      </trkpt>
      <trkpt lat="43.0995670" lon="-0.9307410">
        <ele>447.4</ele>
        <time>2020-07-29T09:07:47Z</time>
      </trkpt>
      <trkpt lat="43.0995960" lon="-0.9307840">
        <ele>448.2</ele>
        <time>2020-07-29T09:07:49Z</time>
      </trkpt>
      <trkpt lat="43.0996270" lon="-0.9308300">
        <ele>448.6</ele>
        <time>2020-07-29T09:07:51Z</time>
      </trkpt>
      <trkpt lat="43.0996430" lon="-0.9308510">
        <ele>448.6</ele>
        <time>2020-07-29T09:07:52Z</time>
      </trkpt>
      <trkpt lat="43.0997090" lon="-0.9309260">
        <ele>449.6</ele>
        <time>2020-07-29T09:07:56Z</time>
      </trkpt>
      <trkpt lat="43.0997690" lon="-0.9310080">
        <ele>450.4</ele>
        <time>2020-07-29T09:08:00Z</time>
      </trkpt>
      <trkpt lat="43.0997860" lon="-0.9310270">
        <ele>450.8</ele>
        <time>2020-07-29T09:08:01Z</time>
      </trkpt>
      <trkpt lat="43.0998590" lon="-0.9310950">
        <ele>451.8</ele>
        <time>2020-07-29T09:08:05Z</time>
      </trkpt>
      <trkpt lat="43.0998920" lon="-0.9311330">
        <ele>452.4</ele>
        <time>2020-07-29T09:08:07Z</time>
      </trkpt>
      <trkpt lat="43.0999360" lon="-0.9311910">
        <ele>453.0</ele>
        <time>2020-07-29T09:08:10Z</time>
      </trkpt>
      <trkpt lat="43.1000040" lon="-0.9312460">
        <ele>454.2</ele>
        <time>2020-07-29T09:08:14Z</time>
      </trkpt>
      <trkpt lat="43.1000410" lon="-0.9312750">
        <ele>455.0</ele>
        <time>2020-07-29T09:08:16Z</time>
      </trkpt>
      <trkpt lat="43.1000620" lon="-0.9312880">
        <ele>455.2</ele>
        <time>2020-07-29T09:08:17Z</time>
      </trkpt>
      <trkpt lat="43.1001350" lon="-0.9313450">
        <ele>456.4</ele>
        <time>2020-07-29T09:08:21Z</time>
      </trkpt>
      <trkpt lat="43.1001990" lon="-0.9314030">
        <ele>457.6</ele>
        <time>2020-07-29T09:08:25Z</time>
      </trkpt>
      <trkpt lat="43.1002720" lon="-0.9314410">
        <ele>458.6</ele>
        <time>2020-07-29T09:08:29Z</time>
      </trkpt>
      <trkpt lat="43.1003400" lon="-0.9314640">
        <ele>459.2</ele>
        <time>2020-07-29T09:08:32Z</time>
      </trkpt>
      <trkpt lat="43.1003820" lon="-0.9314820">
        <ele>459.6</ele>
        <time>2020-07-29T09:08:34Z</time>
      </trkpt>
      <trkpt lat="43.1004630" lon="-0.9315240">
        <ele>460.8</ele>
        <time>2020-07-29T09:08:38Z</time>
      </trkpt>
      <trkpt lat="43.1005220" lon="-0.9315570">
        <ele>461.2</ele>
        <time>2020-07-29T09:08:41Z</time>
      </trkpt>
      <trkpt lat="43.1005820" lon="-0.9315870">
        <ele>461.8</ele>
        <time>2020-07-29T09:08:44Z</time>
      </trkpt>
      <trkpt lat="43.1006810" lon="-0.9316330">
        <ele>463.0</ele>
        <time>2020-07-29T09:08:49Z</time>
      </trkpt>
      <trkpt lat="43.1007020" lon="-0.9316430">
        <ele>463.2</ele>
        <time>2020-07-29T09:08:50Z</time>
      </trkpt>
      <trkpt lat="43.1007860" lon="-0.9316830">
        <ele>464.0</ele>
        <time>2020-07-29T09:08:54Z</time>
      </trkpt>
      <trkpt lat="43.1008700" lon="-0.9317160">
        <ele>465.2</ele>
        <time>2020-07-29T09:08:58Z</time>
      </trkpt>
      <trkpt lat="43.1009530" lon="-0.9317560">
        <ele>466.4</ele>
        <time>2020-07-29T09:09:02Z</time>
      </trkpt>
      <trkpt lat="43.1010230" lon="-0.9318060">
        <ele>467.4</ele>
        <time>2020-07-29T09:09:06Z</time>
      </trkpt>
      <trkpt lat="43.1010430" lon="-0.9318370">
        <ele>467.8</ele>
        <time>2020-07-29T09:09:08Z</time>
      </trkpt>
      <trkpt lat="43.1010660" lon="-0.9319040">
        <ele>468.6</ele>
        <time>2020-07-29T09:09:11Z</time>
      </trkpt>
      <trkpt lat="43.1010760" lon="-0.9319240">
        <ele>469.0</ele>
        <time>2020-07-29T09:09:12Z</time>
      </trkpt>
      <trkpt lat="43.1010840" lon="-0.9319460">
        <ele>469.2</ele>
        <time>2020-07-29T09:09:13Z</time>
      </trkpt>
      <trkpt lat="43.1010920" lon="-0.9320280">
        <ele>469.8</ele>
        <time>2020-07-29T09:09:16Z</time>
      </trkpt>
      <trkpt lat="43.1011110" lon="-0.9321070">
        <ele>470.4</ele>
        <time>2020-07-29T09:09:19Z</time>
      </trkpt>
      <trkpt lat="43.1011300" lon="-0.9321590">
        <ele>471.0</ele>
        <time>2020-07-29T09:09:21Z</time>
      </trkpt>
      <trkpt lat="43.1011610" lon="-0.9322680">
        <ele>472.0</ele>
        <time>2020-07-29T09:09:25Z</time>
      </trkpt>
      <trkpt lat="43.1011840" lon="-0.9323200">
        <ele>472.6</ele>
        <time>2020-07-29T09:09:27Z</time>
      </trkpt>
      <trkpt lat="43.1012240" lon="-0.9323640">
        <ele>473.2</ele>
        <time>2020-07-29T09:09:29Z</time>
      </trkpt>
      <trkpt lat="43.1013030" lon="-0.9324180">
        <ele>474.4</ele>
        <time>2020-07-29T09:09:32Z</time>
      </trkpt>
      <trkpt lat="43.1014420" lon="-0.9324340">
        <ele>475.4</ele>
        <time>2020-07-29T09:09:37Z</time>
      </trkpt>
      <trkpt lat="43.1014710" lon="-0.9324320">
        <ele>475.6</ele>
        <time>2020-07-29T09:09:38Z</time>
      </trkpt>
      <trkpt lat="43.1016360" lon="-0.9324270">
        <ele>475.6</ele>
        <time>2020-07-29T09:09:44Z</time>
      </trkpt>
      <trkpt lat="43.1016920" lon="-0.9324250">
        <ele>475.6</ele>
        <time>2020-07-29T09:09:46Z</time>
      </trkpt>
      <trkpt lat="43.1018000" lon="-0.9324430">
        <ele>475.6</ele>
        <time>2020-07-29T09:09:50Z</time>
      </trkpt>
      <trkpt lat="43.1018590" lon="-0.9324420">
        <ele>475.6</ele>
        <time>2020-07-29T09:09:52Z</time>
      </trkpt>
      <trkpt lat="43.1020200" lon="-0.9325030">
        <ele>475.2</ele>
        <time>2020-07-29T09:09:57Z</time>
      </trkpt>
      <trkpt lat="43.1020560" lon="-0.9325330">
        <ele>475.2</ele>
        <time>2020-07-29T09:09:58Z</time>
      </trkpt>
      <trkpt lat="43.1021150" lon="-0.9326290">
        <ele>474.8</ele>
        <time>2020-07-29T09:10:00Z</time>
      </trkpt>
      <trkpt lat="43.1021280" lon="-0.9326980">
        <ele>474.6</ele>
        <time>2020-07-29T09:10:01Z</time>
      </trkpt>
      <trkpt lat="43.1021360" lon="-0.9327720">
        <ele>474.4</ele>
        <time>2020-07-29T09:10:02Z</time>
      </trkpt>
      <trkpt lat="43.1021390" lon="-0.9328480">
        <ele>474.2</ele>
        <time>2020-07-29T09:10:03Z</time>
      </trkpt>
      <trkpt lat="43.1021360" lon="-0.9329320">
        <ele>473.8</ele>
        <time>2020-07-29T09:10:04Z</time>
      </trkpt>
      <trkpt lat="43.1021300" lon="-0.9330220">
        <ele>473.6</ele>
        <time>2020-07-29T09:10:05Z</time>
      </trkpt>
      <trkpt lat="43.1021160" lon="-0.9331180">
        <ele>473.0</ele>
        <time>2020-07-29T09:10:06Z</time>
      </trkpt>
      <trkpt lat="43.1020990" lon="-0.9332100">
        <ele>472.4</ele>
        <time>2020-07-29T09:10:07Z</time>
      </trkpt>
      <trkpt lat="43.1020750" lon="-0.9332970">
        <ele>471.8</ele>
        <time>2020-07-29T09:10:08Z</time>
      </trkpt>
      <trkpt lat="43.1020480" lon="-0.9333830">
        <ele>471.6</ele>
        <time>2020-07-29T09:10:09Z</time>
      </trkpt>
      <trkpt lat="43.1019330" lon="-0.9337600">
        <ele>472.2</ele>
        <time>2020-07-29T09:10:14Z</time>
      </trkpt>
      <trkpt lat="43.1018800" lon="-0.9338710">
        <ele>472.8</ele>
        <time>2020-07-29T09:10:16Z</time>
      </trkpt>
      <trkpt lat="43.1018210" lon="-0.9339590">
        <ele>472.8</ele>
        <time>2020-07-29T09:10:18Z</time>
      </trkpt>
      <trkpt lat="43.1017960" lon="-0.9339980">
        <ele>473.0</ele>
        <time>2020-07-29T09:10:19Z</time>
      </trkpt>
      <trkpt lat="43.1017430" lon="-0.9341270">
        <ele>473.2</ele>
        <time>2020-07-29T09:10:23Z</time>
      </trkpt>
      <trkpt lat="43.1017320" lon="-0.9341560">
        <ele>473.2</ele>
        <time>2020-07-29T09:10:24Z</time>
      </trkpt>
      <trkpt lat="43.1016780" lon="-0.9342780">
        <ele>473.6</ele>
        <time>2020-07-29T09:10:28Z</time>
      </trkpt>
      <trkpt lat="43.1016660" lon="-0.9343080">
        <ele>474.0</ele>
        <time>2020-07-29T09:10:29Z</time>
      </trkpt>
      <trkpt lat="43.1016210" lon="-0.9344220">
        <ele>474.8</ele>
        <time>2020-07-29T09:10:33Z</time>
      </trkpt>
      <trkpt lat="43.1015980" lon="-0.9344760">
        <ele>475.0</ele>
        <time>2020-07-29T09:10:35Z</time>
      </trkpt>
      <trkpt lat="43.1015390" lon="-0.9345770">
        <ele>475.8</ele>
        <time>2020-07-29T09:10:39Z</time>
      </trkpt>
      <trkpt lat="43.1015180" lon="-0.9345990">
        <ele>476.0</ele>
        <time>2020-07-29T09:10:40Z</time>
      </trkpt>
      <trkpt lat="43.1014970" lon="-0.9346200">
        <ele>476.2</ele>
        <time>2020-07-29T09:10:41Z</time>
      </trkpt>
      <trkpt lat="43.1013890" lon="-0.9346920">
        <ele>477.2</ele>
        <time>2020-07-29T09:10:46Z</time>
      </trkpt>
      <trkpt lat="43.1013430" lon="-0.9347040">
        <ele>477.8</ele>
        <time>2020-07-29T09:10:48Z</time>
      </trkpt>
      <trkpt lat="43.1012760" lon="-0.9347280">
        <ele>478.6</ele>
        <time>2020-07-29T09:10:51Z</time>
      </trkpt>
      <trkpt lat="43.1011770" lon="-0.9347590">
        <ele>479.8</ele>
        <time>2020-07-29T09:10:55Z</time>
      </trkpt>
      <trkpt lat="43.1011510" lon="-0.9347670">
        <ele>480.0</ele>
        <time>2020-07-29T09:10:56Z</time>
      </trkpt>
      <trkpt lat="43.1010230" lon="-0.9348220">
        <ele>481.2</ele>
        <time>2020-07-29T09:11:01Z</time>
      </trkpt>
      <trkpt lat="43.1009150" lon="-0.9348680">
        <ele>482.0</ele>
        <time>2020-07-29T09:11:05Z</time>
      </trkpt>
      <trkpt lat="43.1008900" lon="-0.9348830">
        <ele>482.2</ele>
        <time>2020-07-29T09:11:06Z</time>
      </trkpt>
      <trkpt lat="43.1008000" lon="-0.9350080">
        <ele>483.4</ele>
        <time>2020-07-29T09:11:11Z</time>
      </trkpt>
      <trkpt lat="43.1007410" lon="-0.9351190">
        <ele>484.8</ele>
        <time>2020-07-29T09:11:15Z</time>
      </trkpt>
      <trkpt lat="43.1006900" lon="-0.9352590">
        <ele>485.8</ele>
        <time>2020-07-29T09:11:20Z</time>
      </trkpt>
      <trkpt lat="43.1006780" lon="-0.9352820">
        <ele>486.2</ele>
        <time>2020-07-29T09:11:21Z</time>
      </trkpt>
      <trkpt lat="43.1006520" lon="-0.9353460">
        <ele>487.0</ele>
        <time>2020-07-29T09:11:24Z</time>
      </trkpt>
      <trkpt lat="43.1006330" lon="-0.9353990">
        <ele>487.6</ele>
        <time>2020-07-29T09:11:27Z</time>
      </trkpt>
      <trkpt lat="43.1006170" lon="-0.9354510">
        <ele>488.0</ele>
        <time>2020-07-29T09:11:29Z</time>
      </trkpt>
      <trkpt lat="43.1006060" lon="-0.9354760">
        <ele>488.0</ele>
        <time>2020-07-29T09:11:30Z</time>
      </trkpt>
      <trkpt lat="43.1005670" lon="-0.9355680">
        <ele>488.8</ele>
        <time>2020-07-29T09:11:34Z</time>
      </trkpt>
      <trkpt lat="43.1005550" lon="-0.9355890">
        <ele>489.0</ele>
        <time>2020-07-29T09:11:35Z</time>
      </trkpt>
      <trkpt lat="43.1005020" lon="-0.9356810">
        <ele>490.2</ele>
        <time>2020-07-29T09:11:39Z</time>
      </trkpt>
      <trkpt lat="43.1004610" lon="-0.9357500">
        <ele>491.2</ele>
        <time>2020-07-29T09:11:42Z</time>
      </trkpt>
      <trkpt lat="43.1004500" lon="-0.9357760">
        <ele>491.6</ele>
        <time>2020-07-29T09:11:43Z</time>
      </trkpt>
      <trkpt lat="43.1004270" lon="-0.9358500">
        <ele>492.2</ele>
        <time>2020-07-29T09:11:46Z</time>
      </trkpt>
      <trkpt lat="43.1003990" lon="-0.9359700">
        <ele>493.4</ele>
        <time>2020-07-29T09:11:51Z</time>
      </trkpt>
      <trkpt lat="43.1003930" lon="-0.9359970">
        <ele>493.6</ele>
        <time>2020-07-29T09:11:52Z</time>
      </trkpt>
      <trkpt lat="43.1003770" lon="-0.9360750">
        <ele>494.6</ele>
        <time>2020-07-29T09:11:55Z</time>
      </trkpt>
      <trkpt lat="43.1003460" lon="-0.9362100">
        <ele>495.8</ele>
        <time>2020-07-29T09:12:00Z</time>
      </trkpt>
      <trkpt lat="43.1003390" lon="-0.9362390">
        <ele>496.0</ele>
        <time>2020-07-29T09:12:01Z</time>
      </trkpt>
      <trkpt lat="43.1003130" lon="-0.9363180">
        <ele>496.8</ele>
        <time>2020-07-29T09:12:04Z</time>
      </trkpt>
      <trkpt lat="43.1002810" lon="-0.9364020">
        <ele>497.4</ele>
        <time>2020-07-29T09:12:07Z</time>
      </trkpt>
      <trkpt lat="43.1002620" lon="-0.9364550">
        <ele>497.8</ele>
        <time>2020-07-29T09:12:09Z</time>
      </trkpt>
      <trkpt lat="43.1002530" lon="-0.9364830">
        <ele>498.0</ele>
        <time>2020-07-29T09:12:10Z</time>
      </trkpt>
      <trkpt lat="43.1002160" lon="-0.9366000">
        <ele>499.0</ele>
        <time>2020-07-29T09:12:14Z</time>
      </trkpt>
      <trkpt lat="43.1001820" lon="-0.9366790">
        <ele>500.0</ele>
        <time>2020-07-29T09:12:17Z</time>
      </trkpt>
      <trkpt lat="43.1001690" lon="-0.9367050">
        <ele>500.2</ele>
        <time>2020-07-29T09:12:18Z</time>
      </trkpt>
      <trkpt lat="43.1001360" lon="-0.9367880">
        <ele>501.2</ele>
        <time>2020-07-29T09:12:21Z</time>
      </trkpt>
      <trkpt lat="43.1001030" lon="-0.9368720">
        <ele>502.0</ele>
        <time>2020-07-29T09:12:24Z</time>
      </trkpt>
      <trkpt lat="43.1000810" lon="-0.9369290">
        <ele>502.4</ele>
        <time>2020-07-29T09:12:26Z</time>
      </trkpt>
      <trkpt lat="43.1000290" lon="-0.9370300">
        <ele>503.6</ele>
        <time>2020-07-29T09:12:30Z</time>
      </trkpt>
      <trkpt lat="43.0999940" lon="-0.9370750">
        <ele>504.2</ele>
        <time>2020-07-29T09:12:32Z</time>
      </trkpt>
      <trkpt lat="43.0999600" lon="-0.9371190">
        <ele>504.8</ele>
        <time>2020-07-29T09:12:34Z</time>
      </trkpt>
      <trkpt lat="43.0998540" lon="-0.9372250">
        <ele>505.6</ele>
        <time>2020-07-29T09:12:40Z</time>
      </trkpt>
      <trkpt lat="43.0998370" lon="-0.9372410">
        <ele>506.0</ele>
        <time>2020-07-29T09:12:41Z</time>
      </trkpt>
      <trkpt lat="43.0997200" lon="-0.9373420">
        <ele>507.2</ele>
        <time>2020-07-29T09:12:47Z</time>
      </trkpt>
      <trkpt lat="43.0997030" lon="-0.9373620">
        <ele>507.4</ele>
        <time>2020-07-29T09:12:48Z</time>
      </trkpt>
      <trkpt lat="43.0996460" lon="-0.9374460">
        <ele>508.4</ele>
        <time>2020-07-29T09:12:52Z</time>
      </trkpt>
      <trkpt lat="43.0996080" lon="-0.9375410">
        <ele>509.6</ele>
        <time>2020-07-29T09:12:56Z</time>
      </trkpt>
      <trkpt lat="43.0995590" lon="-0.9376310">
        <ele>510.6</ele>
        <time>2020-07-29T09:13:01Z</time>
      </trkpt>
      <trkpt lat="43.0995330" lon="-0.9376540">
        <ele>511.0</ele>
        <time>2020-07-29T09:13:03Z</time>
      </trkpt>
      <trkpt lat="43.0994960" lon="-0.9377040">
        <ele>511.8</ele>
        <time>2020-07-29T09:13:06Z</time>
      </trkpt>
      <trkpt lat="43.0994480" lon="-0.9377930">
        <ele>512.8</ele>
        <time>2020-07-29T09:13:11Z</time>
      </trkpt>
      <trkpt lat="43.0994400" lon="-0.9378150">
        <ele>513.0</ele>
        <time>2020-07-29T09:13:12Z</time>
      </trkpt>
      <trkpt lat="43.0993980" lon="-0.9379210">
        <ele>514.2</ele>
        <time>2020-07-29T09:13:16Z</time>
      </trkpt>
      <trkpt lat="43.0993670" lon="-0.9380050">
        <ele>515.0</ele>
        <time>2020-07-29T09:13:19Z</time>
      </trkpt>
      <trkpt lat="43.0993560" lon="-0.9380330">
        <ele>515.4</ele>
        <time>2020-07-29T09:13:20Z</time>
      </trkpt>
      <trkpt lat="43.0993070" lon="-0.9381320">
        <ele>516.6</ele>
        <time>2020-07-29T09:13:24Z</time>
      </trkpt>
      <trkpt lat="43.0992620" lon="-0.9382390">
        <ele>517.6</ele>
        <time>2020-07-29T09:13:28Z</time>
      </trkpt>
      <trkpt lat="43.0992040" lon="-0.9383800">
        <ele>518.8</ele>
        <time>2020-07-29T09:13:33Z</time>
      </trkpt>
      <trkpt lat="43.0991940" lon="-0.9384100">
        <ele>519.2</ele>
        <time>2020-07-29T09:13:34Z</time>
      </trkpt>
      <trkpt lat="43.0991810" lon="-0.9384730">
        <ele>520.0</ele>
        <time>2020-07-29T09:13:36Z</time>
      </trkpt>
      <trkpt lat="43.0991690" lon="-0.9385720">
        <ele>520.6</ele>
        <time>2020-07-29T09:13:39Z</time>
      </trkpt>
      <trkpt lat="43.0991650" lon="-0.9386050">
        <ele>521.0</ele>
        <time>2020-07-29T09:13:40Z</time>
      </trkpt>
      <trkpt lat="43.0991620" lon="-0.9386380">
        <ele>521.2</ele>
        <time>2020-07-29T09:13:41Z</time>
      </trkpt>
      <trkpt lat="43.0991600" lon="-0.9386710">
        <ele>521.4</ele>
        <time>2020-07-29T09:13:42Z</time>
      </trkpt>
      <trkpt lat="43.0991570" lon="-0.9387060">
        <ele>521.6</ele>
        <time>2020-07-29T09:13:43Z</time>
      </trkpt>
      <trkpt lat="43.0991530" lon="-0.9387750">
        <ele>522.2</ele>
        <time>2020-07-29T09:13:45Z</time>
      </trkpt>
      <trkpt lat="43.0991590" lon="-0.9389380">
        <ele>523.2</ele>
        <time>2020-07-29T09:13:50Z</time>
      </trkpt>
      <trkpt lat="43.0991630" lon="-0.9389710">
        <ele>523.6</ele>
        <time>2020-07-29T09:13:51Z</time>
      </trkpt>
      <trkpt lat="43.0991800" lon="-0.9391050">
        <ele>524.6</ele>
        <time>2020-07-29T09:13:55Z</time>
      </trkpt>
      <trkpt lat="43.0992080" lon="-0.9392240">
        <ele>525.6</ele>
        <time>2020-07-29T09:13:59Z</time>
      </trkpt>
      <trkpt lat="43.0992200" lon="-0.9392500">
        <ele>525.8</ele>
        <time>2020-07-29T09:14:00Z</time>
      </trkpt>
      <trkpt lat="43.0992530" lon="-0.9393320">
        <ele>526.8</ele>
        <time>2020-07-29T09:14:03Z</time>
      </trkpt>
      <trkpt lat="43.0993010" lon="-0.9394480">
        <ele>528.0</ele>
        <time>2020-07-29T09:14:07Z</time>
      </trkpt>
      <trkpt lat="43.0993640" lon="-0.9395700">
        <ele>529.2</ele>
        <time>2020-07-29T09:14:12Z</time>
      </trkpt>
      <trkpt lat="43.0993870" lon="-0.9396100">
        <ele>529.6</ele>
        <time>2020-07-29T09:14:14Z</time>
      </trkpt>
      <trkpt lat="43.0994150" lon="-0.9396780">
        <ele>530.2</ele>
        <time>2020-07-29T09:14:17Z</time>
      </trkpt>
      <trkpt lat="43.0994340" lon="-0.9397450">
        <ele>531.2</ele>
        <time>2020-07-29T09:14:20Z</time>
      </trkpt>
      <trkpt lat="43.0994450" lon="-0.9397880">
        <ele>531.8</ele>
        <time>2020-07-29T09:14:22Z</time>
      </trkpt>
      <trkpt lat="43.0994580" lon="-0.9398500">
        <ele>532.4</ele>
        <time>2020-07-29T09:14:25Z</time>
      </trkpt>
      <trkpt lat="43.0994770" lon="-0.9399680">
        <ele>533.4</ele>
        <time>2020-07-29T09:14:30Z</time>
      </trkpt>
      <trkpt lat="43.0994860" lon="-0.9400380">
        <ele>534.2</ele>
        <time>2020-07-29T09:14:33Z</time>
      </trkpt>
      <trkpt lat="43.0994940" lon="-0.9400820">
        <ele>534.6</ele>
        <time>2020-07-29T09:14:35Z</time>
      </trkpt>
      <trkpt lat="43.0995130" lon="-0.9401800">
        <ele>535.6</ele>
        <time>2020-07-29T09:14:39Z</time>
      </trkpt>
      <trkpt lat="43.0995210" lon="-0.9402020">
        <ele>535.6</ele>
        <time>2020-07-29T09:14:40Z</time>
      </trkpt>
      <trkpt lat="43.0995390" lon="-0.9402960">
        <ele>536.8</ele>
        <time>2020-07-29T09:14:44Z</time>
      </trkpt>
      <trkpt lat="43.0995470" lon="-0.9403840">
        <ele>537.8</ele>
        <time>2020-07-29T09:14:48Z</time>
      </trkpt>
      <trkpt lat="43.0995520" lon="-0.9405290">
        <ele>538.8</ele>
        <time>2020-07-29T09:14:54Z</time>
      </trkpt>
      <trkpt lat="43.0995460" lon="-0.9406030">
        <ele>539.4</ele>
        <time>2020-07-29T09:14:57Z</time>
      </trkpt>
      <trkpt lat="43.0995520" lon="-0.9406690">
        <ele>540.2</ele>
        <time>2020-07-29T09:15:00Z</time>
      </trkpt>
      <trkpt lat="43.0995470" lon="-0.9408100">
        <ele>541.4</ele>
        <time>2020-07-29T09:15:06Z</time>
      </trkpt>
      <trkpt lat="43.0995400" lon="-0.9409400">
        <ele>542.6</ele>
        <time>2020-07-29T09:15:10Z</time>
      </trkpt>
      <trkpt lat="43.0995410" lon="-0.9410370">
        <ele>543.6</ele>
        <time>2020-07-29T09:15:13Z</time>
      </trkpt>
      <trkpt lat="43.0995420" lon="-0.9411010">
        <ele>544.4</ele>
        <time>2020-07-29T09:15:15Z</time>
      </trkpt>
      <trkpt lat="43.0995420" lon="-0.9411320">
        <ele>544.8</ele>
        <time>2020-07-29T09:15:16Z</time>
      </trkpt>
      <trkpt lat="43.0995440" lon="-0.9412500">
        <ele>545.8</ele>
        <time>2020-07-29T09:15:20Z</time>
      </trkpt>
      <trkpt lat="43.0995480" lon="-0.9413420">
        <ele>546.6</ele>
        <time>2020-07-29T09:15:23Z</time>
      </trkpt>
      <trkpt lat="43.0995530" lon="-0.9413730">
        <ele>547.0</ele>
        <time>2020-07-29T09:15:24Z</time>
      </trkpt>
      <trkpt lat="43.0995640" lon="-0.9415030">
        <ele>548.2</ele>
        <time>2020-07-29T09:15:28Z</time>
      </trkpt>
      <trkpt lat="43.0995710" lon="-0.9415970">
        <ele>549.2</ele>
        <time>2020-07-29T09:15:31Z</time>
      </trkpt>
      <trkpt lat="43.0995730" lon="-0.9416280">
        <ele>549.4</ele>
        <time>2020-07-29T09:15:32Z</time>
      </trkpt>
      <trkpt lat="43.0995820" lon="-0.9417200">
        <ele>550.4</ele>
        <time>2020-07-29T09:15:35Z</time>
      </trkpt>
      <trkpt lat="43.0995840" lon="-0.9418390">
        <ele>551.6</ele>
        <time>2020-07-29T09:15:39Z</time>
      </trkpt>
      <trkpt lat="43.0995910" lon="-0.9419080">
        <ele>552.4</ele>
        <time>2020-07-29T09:15:42Z</time>
      </trkpt>
      <trkpt lat="43.0995930" lon="-0.9419320">
        <ele>552.6</ele>
        <time>2020-07-29T09:15:43Z</time>
      </trkpt>
      <trkpt lat="43.0995930" lon="-0.9419900">
        <ele>553.0</ele>
        <time>2020-07-29T09:15:45Z</time>
      </trkpt>
      <trkpt lat="43.0995840" lon="-0.9420800">
        <ele>553.8</ele>
        <time>2020-07-29T09:15:48Z</time>
      </trkpt>
      <trkpt lat="43.0995650" lon="-0.9422000">
        <ele>555.2</ele>
        <time>2020-07-29T09:15:52Z</time>
      </trkpt>
      <trkpt lat="43.0995620" lon="-0.9422320">
        <ele>555.4</ele>
        <time>2020-07-29T09:15:53Z</time>
      </trkpt>
      <trkpt lat="43.0995540" lon="-0.9423220">
        <ele>556.2</ele>
        <time>2020-07-29T09:15:56Z</time>
      </trkpt>
      <trkpt lat="43.0995310" lon="-0.9424600">
        <ele>557.4</ele>
        <time>2020-07-29T09:16:01Z</time>
      </trkpt>
      <trkpt lat="43.0995080" lon="-0.9426080">
        <ele>558.4</ele>
        <time>2020-07-29T09:16:06Z</time>
      </trkpt>
      <trkpt lat="43.0995060" lon="-0.9426400">
        <ele>558.6</ele>
        <time>2020-07-29T09:16:07Z</time>
      </trkpt>
      <trkpt lat="43.0994900" lon="-0.9427620">
        <ele>559.6</ele>
        <time>2020-07-29T09:16:11Z</time>
      </trkpt>
      <trkpt lat="43.0994780" lon="-0.9428490">
        <ele>560.2</ele>
        <time>2020-07-29T09:16:14Z</time>
      </trkpt>
      <trkpt lat="43.0994680" lon="-0.9429070">
        <ele>560.6</ele>
        <time>2020-07-29T09:16:16Z</time>
      </trkpt>
      <trkpt lat="43.0994510" lon="-0.9430050">
        <ele>561.4</ele>
        <time>2020-07-29T09:16:19Z</time>
      </trkpt>
      <trkpt lat="43.0994430" lon="-0.9430400">
        <ele>561.6</ele>
        <time>2020-07-29T09:16:20Z</time>
      </trkpt>
      <trkpt lat="43.0994350" lon="-0.9430760">
        <ele>561.8</ele>
        <time>2020-07-29T09:16:21Z</time>
      </trkpt>
      <trkpt lat="43.0993930" lon="-0.9432260">
        <ele>562.4</ele>
        <time>2020-07-29T09:16:25Z</time>
      </trkpt>
      <trkpt lat="43.0993720" lon="-0.9433000">
        <ele>563.0</ele>
        <time>2020-07-29T09:16:27Z</time>
      </trkpt>
      <trkpt lat="43.0993620" lon="-0.9433410">
        <ele>563.2</ele>
        <time>2020-07-29T09:16:28Z</time>
      </trkpt>
      <trkpt lat="43.0993200" lon="-0.9434980">
        <ele>564.0</ele>
        <time>2020-07-29T09:16:32Z</time>
      </trkpt>
      <trkpt lat="43.0993080" lon="-0.9435390">
        <ele>564.2</ele>
        <time>2020-07-29T09:16:33Z</time>
      </trkpt>
      <trkpt lat="43.0992930" lon="-0.9436170">
        <ele>565.0</ele>
        <time>2020-07-29T09:16:35Z</time>
      </trkpt>
      <trkpt lat="43.0992860" lon="-0.9436600">
        <ele>565.2</ele>
        <time>2020-07-29T09:16:36Z</time>
      </trkpt>
      <trkpt lat="43.0992750" lon="-0.9437400">
        <ele>565.4</ele>
        <time>2020-07-29T09:16:38Z</time>
      </trkpt>
      <trkpt lat="43.0992490" lon="-0.9438890">
        <ele>566.2</ele>
        <time>2020-07-29T09:16:42Z</time>
      </trkpt>
      <trkpt lat="43.0992280" lon="-0.9439680">
        <ele>566.4</ele>
        <time>2020-07-29T09:16:44Z</time>
      </trkpt>
      <trkpt lat="43.0992010" lon="-0.9440440">
        <ele>567.0</ele>
        <time>2020-07-29T09:16:46Z</time>
      </trkpt>
      <trkpt lat="43.0991880" lon="-0.9440810">
        <ele>567.4</ele>
        <time>2020-07-29T09:16:47Z</time>
      </trkpt>
      <trkpt lat="43.0991400" lon="-0.9442330">
        <ele>568.4</ele>
        <time>2020-07-29T09:16:51Z</time>
      </trkpt>
      <trkpt lat="43.0991290" lon="-0.9442700">
        <ele>568.4</ele>
        <time>2020-07-29T09:16:52Z</time>
      </trkpt>
      <trkpt lat="43.0990780" lon="-0.9444200">
        <ele>569.2</ele>
        <time>2020-07-29T09:16:56Z</time>
      </trkpt>
      <trkpt lat="43.0990680" lon="-0.9444580">
        <ele>569.4</ele>
        <time>2020-07-29T09:16:57Z</time>
      </trkpt>
      <trkpt lat="43.0990370" lon="-0.9445730">
        <ele>570.2</ele>
        <time>2020-07-29T09:17:00Z</time>
      </trkpt>
      <trkpt lat="43.0990250" lon="-0.9446090">
        <ele>570.2</ele>
        <time>2020-07-29T09:17:01Z</time>
      </trkpt>
      <trkpt lat="43.0990010" lon="-0.9446840">
        <ele>570.6</ele>
        <time>2020-07-29T09:17:03Z</time>
      </trkpt>
      <trkpt lat="43.0989780" lon="-0.9447570">
        <ele>570.6</ele>
        <time>2020-07-29T09:17:05Z</time>
      </trkpt>
      <trkpt lat="43.0989470" lon="-0.9448710">
        <ele>571.6</ele>
        <time>2020-07-29T09:17:08Z</time>
      </trkpt>
      <trkpt lat="43.0989350" lon="-0.9449080">
        <ele>571.8</ele>
        <time>2020-07-29T09:17:09Z</time>
      </trkpt>
      <trkpt lat="43.0988720" lon="-0.9450850">
        <ele>572.6</ele>
        <time>2020-07-29T09:17:14Z</time>
      </trkpt>
      <trkpt lat="43.0988300" lon="-0.9452250">
        <ele>573.6</ele>
        <time>2020-07-29T09:17:18Z</time>
      </trkpt>
      <trkpt lat="43.0988180" lon="-0.9452580">
        <ele>573.8</ele>
        <time>2020-07-29T09:17:19Z</time>
      </trkpt>
      <trkpt lat="43.0987400" lon="-0.9454250">
        <ele>575.0</ele>
        <time>2020-07-29T09:17:24Z</time>
      </trkpt>
      <trkpt lat="43.0987030" lon="-0.9454910">
        <ele>575.4</ele>
        <time>2020-07-29T09:17:26Z</time>
      </trkpt>
      <trkpt lat="43.0986210" lon="-0.9456080">
        <ele>576.2</ele>
        <time>2020-07-29T09:17:30Z</time>
      </trkpt>
      <trkpt lat="43.0985300" lon="-0.9457040">
        <ele>577.6</ele>
        <time>2020-07-29T09:17:34Z</time>
      </trkpt>
      <trkpt lat="43.0983890" lon="-0.9458310">
        <ele>578.8</ele>
        <time>2020-07-29T09:17:40Z</time>
      </trkpt>
      <trkpt lat="43.0983220" lon="-0.9458890">
        <ele>579.8</ele>
        <time>2020-07-29T09:17:43Z</time>
      </trkpt>
      <trkpt lat="43.0982990" lon="-0.9459070">
        <ele>580.0</ele>
        <time>2020-07-29T09:17:44Z</time>
      </trkpt>
      <trkpt lat="43.0982110" lon="-0.9459780">
        <ele>581.4</ele>
        <time>2020-07-29T09:17:48Z</time>
      </trkpt>
      <trkpt lat="43.0981450" lon="-0.9460380">
        <ele>582.6</ele>
        <time>2020-07-29T09:17:51Z</time>
      </trkpt>
      <trkpt lat="43.0981250" lon="-0.9460590">
        <ele>582.8</ele>
        <time>2020-07-29T09:17:52Z</time>
      </trkpt>
      <trkpt lat="43.0980580" lon="-0.9461200">
        <ele>583.6</ele>
        <time>2020-07-29T09:17:55Z</time>
      </trkpt>
      <trkpt lat="43.0980000" lon="-0.9461940">
        <ele>584.0</ele>
        <time>2020-07-29T09:17:58Z</time>
      </trkpt>
      <trkpt lat="43.0979800" lon="-0.9462160">
        <ele>584.2</ele>
        <time>2020-07-29T09:17:59Z</time>
      </trkpt>
      <trkpt lat="43.0979410" lon="-0.9462610">
        <ele>584.8</ele>
        <time>2020-07-29T09:18:01Z</time>
      </trkpt>
      <trkpt lat="43.0978680" lon="-0.9463670">
        <ele>585.8</ele>
        <time>2020-07-29T09:18:05Z</time>
      </trkpt>
      <trkpt lat="43.0978370" lon="-0.9464230">
        <ele>586.2</ele>
        <time>2020-07-29T09:18:07Z</time>
      </trkpt>
      <trkpt lat="43.0977860" lon="-0.9465510">
        <ele>587.0</ele>
        <time>2020-07-29T09:18:11Z</time>
      </trkpt>
      <trkpt lat="43.0977240" lon="-0.9467090">
        <ele>588.0</ele>
        <time>2020-07-29T09:18:16Z</time>
      </trkpt>
      <trkpt lat="43.0976680" lon="-0.9468260">
        <ele>589.2</ele>
        <time>2020-07-29T09:18:20Z</time>
      </trkpt>
      <trkpt lat="43.0976150" lon="-0.9469420">
        <ele>590.4</ele>
        <time>2020-07-29T09:18:24Z</time>
      </trkpt>
      <trkpt lat="43.0975790" lon="-0.9470330">
        <ele>591.2</ele>
        <time>2020-07-29T09:18:27Z</time>
      </trkpt>
      <trkpt lat="43.0975550" lon="-0.9470910">
        <ele>591.6</ele>
        <time>2020-07-29T09:18:29Z</time>
      </trkpt>
      <trkpt lat="43.0975080" lon="-0.9472120">
        <ele>592.6</ele>
        <time>2020-07-29T09:18:33Z</time>
      </trkpt>
      <trkpt lat="43.0974840" lon="-0.9472650">
        <ele>593.2</ele>
        <time>2020-07-29T09:18:35Z</time>
      </trkpt>
      <trkpt lat="43.0974590" lon="-0.9473170">
        <ele>593.8</ele>
        <time>2020-07-29T09:18:37Z</time>
      </trkpt>
      <trkpt lat="43.0974050" lon="-0.9474260">
        <ele>595.0</ele>
        <time>2020-07-29T09:18:41Z</time>
      </trkpt>
      <trkpt lat="43.0973900" lon="-0.9474490">
        <ele>595.2</ele>
        <time>2020-07-29T09:18:42Z</time>
      </trkpt>
      <trkpt lat="43.0973490" lon="-0.9475290">
        <ele>596.2</ele>
        <time>2020-07-29T09:18:45Z</time>
      </trkpt>
      <trkpt lat="43.0973030" lon="-0.9476390">
        <ele>597.4</ele>
        <time>2020-07-29T09:18:49Z</time>
      </trkpt>
      <trkpt lat="43.0972840" lon="-0.9476920">
        <ele>598.0</ele>
        <time>2020-07-29T09:18:51Z</time>
      </trkpt>
      <trkpt lat="43.0972540" lon="-0.9477600">
        <ele>598.6</ele>
        <time>2020-07-29T09:18:54Z</time>
      </trkpt>
      <trkpt lat="43.0972080" lon="-0.9478910">
        <ele>599.6</ele>
        <time>2020-07-29T09:19:00Z</time>
      </trkpt>
      <trkpt lat="43.0971940" lon="-0.9479140">
        <ele>599.8</ele>
        <time>2020-07-29T09:19:01Z</time>
      </trkpt>
      <trkpt lat="43.0971430" lon="-0.9480200">
        <ele>600.8</ele>
        <time>2020-07-29T09:19:05Z</time>
      </trkpt>
      <trkpt lat="43.0970720" lon="-0.9481730">
        <ele>602.2</ele>
        <time>2020-07-29T09:19:11Z</time>
      </trkpt>
      <trkpt lat="43.0970480" lon="-0.9482270">
        <ele>603.0</ele>
        <time>2020-07-29T09:19:13Z</time>
      </trkpt>
      <trkpt lat="43.0970370" lon="-0.9482470">
        <ele>603.4</ele>
        <time>2020-07-29T09:19:14Z</time>
      </trkpt>
      <trkpt lat="43.0969960" lon="-0.9483550">
        <ele>604.2</ele>
        <time>2020-07-29T09:19:18Z</time>
      </trkpt>
      <trkpt lat="43.0969780" lon="-0.9484110">
        <ele>604.6</ele>
        <time>2020-07-29T09:19:20Z</time>
      </trkpt>
      <trkpt lat="43.0969470" lon="-0.9484860">
        <ele>605.8</ele>
        <time>2020-07-29T09:19:23Z</time>
      </trkpt>
      <trkpt lat="43.0969120" lon="-0.9485690">
        <ele>606.4</ele>
        <time>2020-07-29T09:19:26Z</time>
      </trkpt>
      <trkpt lat="43.0968900" lon="-0.9486250">
        <ele>606.8</ele>
        <time>2020-07-29T09:19:28Z</time>
      </trkpt>
      <trkpt lat="43.0968520" lon="-0.9487670">
        <ele>608.0</ele>
        <time>2020-07-29T09:19:33Z</time>
      </trkpt>
      <trkpt lat="43.0968340" lon="-0.9488200">
        <ele>608.6</ele>
        <time>2020-07-29T09:19:35Z</time>
      </trkpt>
      <trkpt lat="43.0968170" lon="-0.9488800">
        <ele>609.2</ele>
        <time>2020-07-29T09:19:37Z</time>
      </trkpt>
      <trkpt lat="43.0967700" lon="-0.9490250">
        <ele>610.4</ele>
        <time>2020-07-29T09:19:42Z</time>
      </trkpt>
      <trkpt lat="43.0967600" lon="-0.9490560">
        <ele>610.6</ele>
        <time>2020-07-29T09:19:43Z</time>
      </trkpt>
      <trkpt lat="43.0967340" lon="-0.9491510">
        <ele>611.4</ele>
        <time>2020-07-29T09:19:46Z</time>
      </trkpt>
      <trkpt lat="43.0967110" lon="-0.9492690">
        <ele>612.4</ele>
        <time>2020-07-29T09:19:50Z</time>
      </trkpt>
      <trkpt lat="43.0967050" lon="-0.9492960">
        <ele>612.6</ele>
        <time>2020-07-29T09:19:51Z</time>
      </trkpt>
      <trkpt lat="43.0966710" lon="-0.9494280">
        <ele>613.8</ele>
        <time>2020-07-29T09:19:56Z</time>
      </trkpt>
      <trkpt lat="43.0966520" lon="-0.9494780">
        <ele>614.6</ele>
        <time>2020-07-29T09:19:58Z</time>
      </trkpt>
      <trkpt lat="43.0966330" lon="-0.9495340">
        <ele>615.0</ele>
        <time>2020-07-29T09:20:00Z</time>
      </trkpt>
      <trkpt lat="43.0965680" lon="-0.9496950">
        <ele>616.0</ele>
        <time>2020-07-29T09:20:06Z</time>
      </trkpt>
      <trkpt lat="43.0965500" lon="-0.9497560">
        <ele>616.4</ele>
        <time>2020-07-29T09:20:08Z</time>
      </trkpt>
      <trkpt lat="43.0965590" lon="-0.9498490">
        <ele>617.0</ele>
        <time>2020-07-29T09:20:11Z</time>
      </trkpt>
      <trkpt lat="43.0965740" lon="-0.9498740">
        <ele>617.2</ele>
        <time>2020-07-29T09:20:12Z</time>
      </trkpt>
      <trkpt lat="43.0965970" lon="-0.9498860">
        <ele>617.2</ele>
        <time>2020-07-29T09:20:13Z</time>
      </trkpt>
      <trkpt lat="43.0966180" lon="-0.9498820">
        <ele>617.4</ele>
        <time>2020-07-29T09:20:14Z</time>
      </trkpt>
      <trkpt lat="43.0966540" lon="-0.9498310">
        <ele>618.0</ele>
        <time>2020-07-29T09:20:16Z</time>
      </trkpt>
      <trkpt lat="43.0966710" lon="-0.9497940">
        <ele>618.2</ele>
        <time>2020-07-29T09:20:17Z</time>
      </trkpt>
      <trkpt lat="43.0967770" lon="-0.9495740">
        <ele>619.0</ele>
        <time>2020-07-29T09:20:23Z</time>
      </trkpt>
      <trkpt lat="43.0967980" lon="-0.9495410">
        <ele>619.2</ele>
        <time>2020-07-29T09:20:24Z</time>
      </trkpt>
      <trkpt lat="43.0969230" lon="-0.9493540">
        <ele>620.2</ele>
        <time>2020-07-29T09:20:30Z</time>
      </trkpt>
      <trkpt lat="43.0969450" lon="-0.9493240">
        <ele>620.4</ele>
        <time>2020-07-29T09:20:31Z</time>
      </trkpt>
      <trkpt lat="43.0969650" lon="-0.9492940">
        <ele>620.6</ele>
        <time>2020-07-29T09:20:32Z</time>
      </trkpt>
      <trkpt lat="43.0970090" lon="-0.9492400">
        <ele>621.4</ele>
        <time>2020-07-29T09:20:34Z</time>
      </trkpt>
      <trkpt lat="43.0971320" lon="-0.9491290">
        <ele>622.4</ele>
        <time>2020-07-29T09:20:39Z</time>
      </trkpt>
      <trkpt lat="43.0971580" lon="-0.9491090">
        <ele>622.8</ele>
        <time>2020-07-29T09:20:40Z</time>
      </trkpt>
      <trkpt lat="43.0972380" lon="-0.9490500">
        <ele>623.4</ele>
        <time>2020-07-29T09:20:43Z</time>
      </trkpt>
      <trkpt lat="43.0973390" lon="-0.9489600">
        <ele>624.4</ele>
        <time>2020-07-29T09:20:47Z</time>
      </trkpt>
      <trkpt lat="43.0973800" lon="-0.9488990">
        <ele>625.0</ele>
        <time>2020-07-29T09:20:49Z</time>
      </trkpt>
      <trkpt lat="43.0974340" lon="-0.9487930">
        <ele>625.6</ele>
        <time>2020-07-29T09:20:52Z</time>
      </trkpt>
      <trkpt lat="43.0975200" lon="-0.9486730">
        <ele>626.0</ele>
        <time>2020-07-29T09:20:56Z</time>
      </trkpt>
      <trkpt lat="43.0975480" lon="-0.9486660">
        <ele>626.2</ele>
        <time>2020-07-29T09:20:57Z</time>
      </trkpt>
      <trkpt lat="43.0975940" lon="-0.9487000">
        <ele>626.8</ele>
        <time>2020-07-29T09:20:59Z</time>
      </trkpt>
      <trkpt lat="43.0975860" lon="-0.9488290">
        <ele>627.6</ele>
        <time>2020-07-29T09:21:02Z</time>
      </trkpt>
      <trkpt lat="43.0975750" lon="-0.9488740">
        <ele>628.0</ele>
        <time>2020-07-29T09:21:03Z</time>
      </trkpt>
      <trkpt lat="43.0975250" lon="-0.9490930">
        <ele>629.4</ele>
        <time>2020-07-29T09:21:08Z</time>
      </trkpt>
      <trkpt lat="43.0975110" lon="-0.9491770">
        <ele>630.2</ele>
        <time>2020-07-29T09:21:10Z</time>
      </trkpt>
      <trkpt lat="43.0975040" lon="-0.9492180">
        <ele>630.4</ele>
        <time>2020-07-29T09:21:11Z</time>
      </trkpt>
      <trkpt lat="43.0974800" lon="-0.9493760">
        <ele>631.6</ele>
        <time>2020-07-29T09:21:15Z</time>
      </trkpt>
      <trkpt lat="43.0974730" lon="-0.9494860">
        <ele>632.6</ele>
        <time>2020-07-29T09:21:18Z</time>
      </trkpt>
      <trkpt lat="43.0974740" lon="-0.9495200">
        <ele>632.8</ele>
        <time>2020-07-29T09:21:19Z</time>
      </trkpt>
      <trkpt lat="43.0974540" lon="-0.9496520">
        <ele>634.0</ele>
        <time>2020-07-29T09:21:23Z</time>
      </trkpt>
      <trkpt lat="43.0974480" lon="-0.9496860">
        <ele>634.2</ele>
        <time>2020-07-29T09:21:24Z</time>
      </trkpt>
      <trkpt lat="43.0974320" lon="-0.9497880">
        <ele>635.2</ele>
        <time>2020-07-29T09:21:27Z</time>
      </trkpt>
      <trkpt lat="43.0974240" lon="-0.9498880">
        <ele>635.8</ele>
        <time>2020-07-29T09:21:30Z</time>
      </trkpt>
      <trkpt lat="43.0974280" lon="-0.9499530">
        <ele>636.4</ele>
        <time>2020-07-29T09:21:32Z</time>
      </trkpt>
      <trkpt lat="43.0974320" lon="-0.9499870">
        <ele>636.8</ele>
        <time>2020-07-29T09:21:33Z</time>
      </trkpt>
      <trkpt lat="43.0974500" lon="-0.9500520">
        <ele>637.4</ele>
        <time>2020-07-29T09:21:35Z</time>
      </trkpt>
      <trkpt lat="43.0975170" lon="-0.9502150">
        <ele>638.4</ele>
        <time>2020-07-29T09:21:40Z</time>
      </trkpt>
      <trkpt lat="43.0975520" lon="-0.9504300">
        <ele>639.8</ele>
        <time>2020-07-29T09:21:46Z</time>
      </trkpt>
      <trkpt lat="43.0975550" lon="-0.9504660">
        <ele>640.0</ele>
        <time>2020-07-29T09:21:47Z</time>
      </trkpt>
      <trkpt lat="43.0975570" lon="-0.9505380">
        <ele>640.6</ele>
        <time>2020-07-29T09:21:49Z</time>
      </trkpt>
      <trkpt lat="43.0975580" lon="-0.9505730">
        <ele>640.8</ele>
        <time>2020-07-29T09:21:50Z</time>
      </trkpt>
      <trkpt lat="43.0975620" lon="-0.9506740">
        <ele>641.8</ele>
        <time>2020-07-29T09:21:53Z</time>
      </trkpt>
      <trkpt lat="43.0975520" lon="-0.9508110">
        <ele>642.8</ele>
        <time>2020-07-29T09:21:57Z</time>
      </trkpt>
      <trkpt lat="43.0975160" lon="-0.9509740">
        <ele>643.6</ele>
        <time>2020-07-29T09:22:02Z</time>
      </trkpt>
      <trkpt lat="43.0975050" lon="-0.9510070">
        <ele>644.0</ele>
        <time>2020-07-29T09:22:03Z</time>
      </trkpt>
      <trkpt lat="43.0974950" lon="-0.9510400">
        <ele>644.2</ele>
        <time>2020-07-29T09:22:04Z</time>
      </trkpt>
      <trkpt lat="43.0974530" lon="-0.9511630">
        <ele>645.0</ele>
        <time>2020-07-29T09:22:08Z</time>
      </trkpt>
      <trkpt lat="43.0973800" lon="-0.9513040">
        <ele>646.0</ele>
        <time>2020-07-29T09:22:13Z</time>
      </trkpt>
      <trkpt lat="43.0973200" lon="-0.9514430">
        <ele>647.2</ele>
        <time>2020-07-29T09:22:18Z</time>
      </trkpt>
      <trkpt lat="43.0973040" lon="-0.9515100">
        <ele>648.0</ele>
        <time>2020-07-29T09:22:20Z</time>
      </trkpt>
      <trkpt lat="43.0972990" lon="-0.9515450">
        <ele>648.4</ele>
        <time>2020-07-29T09:22:21Z</time>
      </trkpt>
      <trkpt lat="43.0972930" lon="-0.9517050">
        <ele>649.6</ele>
        <time>2020-07-29T09:22:26Z</time>
      </trkpt>
      <trkpt lat="43.0972940" lon="-0.9517700">
        <ele>650.0</ele>
        <time>2020-07-29T09:22:28Z</time>
      </trkpt>
      <trkpt lat="43.0972970" lon="-0.9518640">
        <ele>650.6</ele>
        <time>2020-07-29T09:22:31Z</time>
      </trkpt>
      <trkpt lat="43.0972850" lon="-0.9519620">
        <ele>651.6</ele>
        <time>2020-07-29T09:22:34Z</time>
      </trkpt>
      <trkpt lat="43.0972650" lon="-0.9520320">
        <ele>652.2</ele>
        <time>2020-07-29T09:22:36Z</time>
      </trkpt>
      <trkpt lat="43.0972330" lon="-0.9521290">
        <ele>652.8</ele>
        <time>2020-07-29T09:22:39Z</time>
      </trkpt>
      <trkpt lat="43.0971840" lon="-0.9522890">
        <ele>654.0</ele>
        <time>2020-07-29T09:22:44Z</time>
      </trkpt>
      <trkpt lat="43.0971210" lon="-0.9524670">
        <ele>655.2</ele>
        <time>2020-07-29T09:22:49Z</time>
      </trkpt>
      <trkpt lat="43.0970810" lon="-0.9525710">
        <ele>655.8</ele>
        <time>2020-07-29T09:22:52Z</time>
      </trkpt>
      <trkpt lat="43.0970560" lon="-0.9526430">
        <ele>656.2</ele>
        <time>2020-07-29T09:22:54Z</time>
      </trkpt>
      <trkpt lat="43.0969780" lon="-0.9528430">
        <ele>657.2</ele>
        <time>2020-07-29T09:23:00Z</time>
      </trkpt>
      <trkpt lat="43.0969070" lon="-0.9530240">
        <ele>658.0</ele>
        <time>2020-07-29T09:23:06Z</time>
      </trkpt>
      <trkpt lat="43.0968900" lon="-0.9530780">
        <ele>658.2</ele>
        <time>2020-07-29T09:23:08Z</time>
      </trkpt>
      <trkpt lat="43.0967790" lon="-0.9533020">
        <ele>658.8</ele>
        <time>2020-07-29T09:23:14Z</time>
      </trkpt>
      <trkpt lat="43.0966010" lon="-0.9535030">
        <ele>658.8</ele>
        <time>2020-07-29T09:23:20Z</time>
      </trkpt>
      <trkpt lat="43.0965390" lon="-0.9535680">
        <ele>658.8</ele>
        <time>2020-07-29T09:23:22Z</time>
      </trkpt>
      <trkpt lat="43.0965100" lon="-0.9536050">
        <ele>658.8</ele>
        <time>2020-07-29T09:23:23Z</time>
      </trkpt>
      <trkpt lat="43.0964580" lon="-0.9536950">
        <ele>658.8</ele>
        <time>2020-07-29T09:23:25Z</time>
      </trkpt>
      <trkpt lat="43.0964150" lon="-0.9538000">
        <ele>659.0</ele>
        <time>2020-07-29T09:23:27Z</time>
      </trkpt>
      <trkpt lat="43.0963630" lon="-0.9539660">
        <ele>659.4</ele>
        <time>2020-07-29T09:23:30Z</time>
      </trkpt>
      <trkpt lat="43.0963480" lon="-0.9540210">
        <ele>659.6</ele>
        <time>2020-07-29T09:23:31Z</time>
      </trkpt>
      <trkpt lat="43.0963210" lon="-0.9541320">
        <ele>660.2</ele>
        <time>2020-07-29T09:23:33Z</time>
      </trkpt>
      <trkpt lat="43.0963090" lon="-0.9541850">
        <ele>660.4</ele>
        <time>2020-07-29T09:23:34Z</time>
      </trkpt>
      <trkpt lat="43.0962960" lon="-0.9542380">
        <ele>660.6</ele>
        <time>2020-07-29T09:23:35Z</time>
      </trkpt>
      <trkpt lat="43.0962430" lon="-0.9543800">
        <ele>661.4</ele>
        <time>2020-07-29T09:23:38Z</time>
      </trkpt>
      <trkpt lat="43.0962190" lon="-0.9544220">
        <ele>661.8</ele>
        <time>2020-07-29T09:23:39Z</time>
      </trkpt>
      <trkpt lat="43.0961930" lon="-0.9544610">
        <ele>662.0</ele>
        <time>2020-07-29T09:23:40Z</time>
      </trkpt>
      <trkpt lat="43.0960620" lon="-0.9546120">
        <ele>662.4</ele>
        <time>2020-07-29T09:23:44Z</time>
      </trkpt>
      <trkpt lat="43.0960000" lon="-0.9546740">
        <ele>662.8</ele>
        <time>2020-07-29T09:23:46Z</time>
      </trkpt>
      <trkpt lat="43.0959710" lon="-0.9547030">
        <ele>663.0</ele>
        <time>2020-07-29T09:23:47Z</time>
      </trkpt>
      <trkpt lat="43.0958600" lon="-0.9548150">
        <ele>663.8</ele>
        <time>2020-07-29T09:23:51Z</time>
      </trkpt>
      <trkpt lat="43.0957510" lon="-0.9549110">
        <ele>665.0</ele>
        <time>2020-07-29T09:23:55Z</time>
      </trkpt>
      <trkpt lat="43.0957020" lon="-0.9549470">
        <ele>665.4</ele>
        <time>2020-07-29T09:23:57Z</time>
      </trkpt>
      <trkpt lat="43.0956550" lon="-0.9549750">
        <ele>666.0</ele>
        <time>2020-07-29T09:23:59Z</time>
      </trkpt>
      <trkpt lat="43.0955550" lon="-0.9550310">
        <ele>667.2</ele>
        <time>2020-07-29T09:24:04Z</time>
      </trkpt>
      <trkpt lat="43.0954560" lon="-0.9550670">
        <ele>668.6</ele>
        <time>2020-07-29T09:24:09Z</time>
      </trkpt>
      <trkpt lat="43.0953950" lon="-0.9550780">
        <ele>669.2</ele>
        <time>2020-07-29T09:24:12Z</time>
      </trkpt>
      <trkpt lat="43.0953500" lon="-0.9550860">
        <ele>669.6</ele>
        <time>2020-07-29T09:24:14Z</time>
      </trkpt>
      <trkpt lat="43.0953050" lon="-0.9551000">
        <ele>670.2</ele>
        <time>2020-07-29T09:24:16Z</time>
      </trkpt>
      <trkpt lat="43.0952560" lon="-0.9551080">
        <ele>670.6</ele>
        <time>2020-07-29T09:24:18Z</time>
      </trkpt>
      <trkpt lat="43.0951860" lon="-0.9551230">
        <ele>671.4</ele>
        <time>2020-07-29T09:24:21Z</time>
      </trkpt>
      <trkpt lat="43.0951390" lon="-0.9551400">
        <ele>671.8</ele>
        <time>2020-07-29T09:24:23Z</time>
      </trkpt>
      <trkpt lat="43.0950020" lon="-0.9551990">
        <ele>672.8</ele>
        <time>2020-07-29T09:24:29Z</time>
      </trkpt>
      <trkpt lat="43.0949780" lon="-0.9552140">
        <ele>673.0</ele>
        <time>2020-07-29T09:24:30Z</time>
      </trkpt>
      <trkpt lat="43.0948650" lon="-0.9552920">
        <ele>674.0</ele>
        <time>2020-07-29T09:24:35Z</time>
      </trkpt>
      <trkpt lat="43.0948260" lon="-0.9553410">
        <ele>674.8</ele>
        <time>2020-07-29T09:24:37Z</time>
      </trkpt>
      <trkpt lat="43.0948070" lon="-0.9553660">
        <ele>675.2</ele>
        <time>2020-07-29T09:24:38Z</time>
      </trkpt>
      <trkpt lat="43.0947380" lon="-0.9554760">
        <ele>676.4</ele>
        <time>2020-07-29T09:24:42Z</time>
      </trkpt>
      <trkpt lat="43.0946780" lon="-0.9556010">
        <ele>677.4</ele>
        <time>2020-07-29T09:24:46Z</time>
      </trkpt>
      <trkpt lat="43.0946670" lon="-0.9556330">
        <ele>677.6</ele>
        <time>2020-07-29T09:24:47Z</time>
      </trkpt>
      <trkpt lat="43.0946300" lon="-0.9557560">
        <ele>678.8</ele>
        <time>2020-07-29T09:24:51Z</time>
      </trkpt>
      <trkpt lat="43.0945900" lon="-0.9558770">
        <ele>679.8</ele>
        <time>2020-07-29T09:24:55Z</time>
      </trkpt>
      <trkpt lat="43.0945300" lon="-0.9560260">
        <ele>681.0</ele>
        <time>2020-07-29T09:25:00Z</time>
      </trkpt>
      <trkpt lat="43.0944880" lon="-0.9561090">
        <ele>681.8</ele>
        <time>2020-07-29T09:25:03Z</time>
      </trkpt>
      <trkpt lat="43.0944730" lon="-0.9561350">
        <ele>682.0</ele>
        <time>2020-07-29T09:25:04Z</time>
      </trkpt>
      <trkpt lat="43.0944570" lon="-0.9561620">
        <ele>682.4</ele>
        <time>2020-07-29T09:25:05Z</time>
      </trkpt>
      <trkpt lat="43.0944250" lon="-0.9562170">
        <ele>683.0</ele>
        <time>2020-07-29T09:25:07Z</time>
      </trkpt>
      <trkpt lat="43.0944100" lon="-0.9562450">
        <ele>683.2</ele>
        <time>2020-07-29T09:25:08Z</time>
      </trkpt>
      <trkpt lat="43.0943610" lon="-0.9563280">
        <ele>683.8</ele>
        <time>2020-07-29T09:25:11Z</time>
      </trkpt>
      <trkpt lat="43.0943320" lon="-0.9563880">
        <ele>684.4</ele>
        <time>2020-07-29T09:25:13Z</time>
      </trkpt>
      <trkpt lat="43.0943160" lon="-0.9564170">
        <ele>684.6</ele>
        <time>2020-07-29T09:25:14Z</time>
      </trkpt>
      <trkpt lat="43.0942720" lon="-0.9565050">
        <ele>685.4</ele>
        <time>2020-07-29T09:25:17Z</time>
      </trkpt>
      <trkpt lat="43.0942280" lon="-0.9565900">
        <ele>686.4</ele>
        <time>2020-07-29T09:25:20Z</time>
      </trkpt>
      <trkpt lat="43.0941770" lon="-0.9566700">
        <ele>687.2</ele>
        <time>2020-07-29T09:25:23Z</time>
      </trkpt>
      <trkpt lat="43.0941400" lon="-0.9567200">
        <ele>687.6</ele>
        <time>2020-07-29T09:25:25Z</time>
      </trkpt>
      <trkpt lat="43.0940650" lon="-0.9568120">
        <ele>688.6</ele>
        <time>2020-07-29T09:25:29Z</time>
      </trkpt>
      <trkpt lat="43.0940250" lon="-0.9568550">
        <ele>689.4</ele>
        <time>2020-07-29T09:25:31Z</time>
      </trkpt>
      <trkpt lat="43.0940030" lon="-0.9568770">
        <ele>689.8</ele>
        <time>2020-07-29T09:25:32Z</time>
      </trkpt>
      <trkpt lat="43.0939130" lon="-0.9569480">
        <ele>691.0</ele>
        <time>2020-07-29T09:25:36Z</time>
      </trkpt>
      <trkpt lat="43.0938510" lon="-0.9570010">
        <ele>692.0</ele>
        <time>2020-07-29T09:25:39Z</time>
      </trkpt>
      <trkpt lat="43.0937500" lon="-0.9570950">
        <ele>693.0</ele>
        <time>2020-07-29T09:25:44Z</time>
      </trkpt>
      <trkpt lat="43.0936780" lon="-0.9571860">
        <ele>694.4</ele>
        <time>2020-07-29T09:25:48Z</time>
      </trkpt>
      <trkpt lat="43.0936210" lon="-0.9572930">
        <ele>695.6</ele>
        <time>2020-07-29T09:25:52Z</time>
      </trkpt>
      <trkpt lat="43.0935590" lon="-0.9574050">
        <ele>696.8</ele>
        <time>2020-07-29T09:25:56Z</time>
      </trkpt>
      <trkpt lat="43.0935440" lon="-0.9574350">
        <ele>697.0</ele>
        <time>2020-07-29T09:25:57Z</time>
      </trkpt>
      <trkpt lat="43.0935050" lon="-0.9575260">
        <ele>698.0</ele>
        <time>2020-07-29T09:26:00Z</time>
      </trkpt>
      <trkpt lat="43.0934660" lon="-0.9576640">
        <ele>699.0</ele>
        <time>2020-07-29T09:26:04Z</time>
      </trkpt>
      <trkpt lat="43.0934600" lon="-0.9576940">
        <ele>699.4</ele>
        <time>2020-07-29T09:26:05Z</time>
      </trkpt>
      <trkpt lat="43.0934250" lon="-0.9578060">
        <ele>700.0</ele>
        <time>2020-07-29T09:26:09Z</time>
      </trkpt>
      <trkpt lat="43.0934060" lon="-0.9578480">
        <ele>700.2</ele>
        <time>2020-07-29T09:26:11Z</time>
      </trkpt>
      <trkpt lat="43.0933640" lon="-0.9579480">
        <ele>701.2</ele>
        <time>2020-07-29T09:26:15Z</time>
      </trkpt>
      <trkpt lat="43.0933330" lon="-0.9579950">
        <ele>701.6</ele>
        <time>2020-07-29T09:26:17Z</time>
      </trkpt>
      <trkpt lat="43.0933020" lon="-0.9580440">
        <ele>702.2</ele>
        <time>2020-07-29T09:26:19Z</time>
      </trkpt>
      <trkpt lat="43.0932430" lon="-0.9581440">
        <ele>703.4</ele>
        <time>2020-07-29T09:26:23Z</time>
      </trkpt>
      <trkpt lat="43.0932260" lon="-0.9581660">
        <ele>703.8</ele>
        <time>2020-07-29T09:26:24Z</time>
      </trkpt>
      <trkpt lat="43.0931820" lon="-0.9582310">
        <ele>704.6</ele>
        <time>2020-07-29T09:26:27Z</time>
      </trkpt>
      <trkpt lat="43.0931130" lon="-0.9583440">
        <ele>705.8</ele>
        <time>2020-07-29T09:26:32Z</time>
      </trkpt>
      <trkpt lat="43.0930650" lon="-0.9584150">
        <ele>706.8</ele>
        <time>2020-07-29T09:26:35Z</time>
      </trkpt>
      <trkpt lat="43.0930160" lon="-0.9584870">
        <ele>708.0</ele>
        <time>2020-07-29T09:26:38Z</time>
      </trkpt>
      <trkpt lat="43.0929350" lon="-0.9586090">
        <ele>709.2</ele>
        <time>2020-07-29T09:26:43Z</time>
      </trkpt>
      <trkpt lat="43.0928540" lon="-0.9587380">
        <ele>710.4</ele>
        <time>2020-07-29T09:26:48Z</time>
      </trkpt>
      <trkpt lat="43.0927920" lon="-0.9588550">
        <ele>711.6</ele>
        <time>2020-07-29T09:26:53Z</time>
      </trkpt>
      <trkpt lat="43.0927800" lon="-0.9588600">
        <ele>711.6</ele>
        <time>2020-07-29T09:26:54Z</time>
      </trkpt>
      <trkpt lat="43.0927430" lon="-0.9588760">
        <ele>712.6</ele>
        <time>2020-07-29T09:26:57Z</time>
      </trkpt>
      <trkpt lat="43.0927320" lon="-0.9588900">
        <ele>712.8</ele>
        <time>2020-07-29T09:27:00Z</time>
      </trkpt>
      <trkpt lat="43.0927430" lon="-0.9589100">
        <ele>712.6</ele>
        <time>2020-07-29T09:27:06Z</time>
      </trkpt>
      <trkpt lat="43.0927440" lon="-0.9589400">
        <ele>712.6</ele>
        <time>2020-07-29T09:27:08Z</time>
      </trkpt>
      <trkpt lat="43.0927410" lon="-0.9589650">
        <ele>712.6</ele>
        <time>2020-07-29T09:27:09Z</time>
      </trkpt>
      <trkpt lat="43.0927200" lon="-0.9590200">
        <ele>712.8</ele>
        <time>2020-07-29T09:27:12Z</time>
      </trkpt>
      <trkpt lat="43.0927010" lon="-0.9590570">
        <ele>713.2</ele>
        <time>2020-07-29T09:27:14Z</time>
      </trkpt>
      <trkpt lat="43.0926690" lon="-0.9591600">
        <ele>714.0</ele>
        <time>2020-07-29T09:27:17Z</time>
      </trkpt>
      <trkpt lat="43.0926470" lon="-0.9592330">
        <ele>714.6</ele>
        <time>2020-07-29T09:27:19Z</time>
      </trkpt>
      <trkpt lat="43.0926370" lon="-0.9592690">
        <ele>715.0</ele>
        <time>2020-07-29T09:27:20Z</time>
      </trkpt>
      <trkpt lat="43.0926000" lon="-0.9594050">
        <ele>716.2</ele>
        <time>2020-07-29T09:27:24Z</time>
      </trkpt>
      <trkpt lat="43.0925710" lon="-0.9595000">
        <ele>717.2</ele>
        <time>2020-07-29T09:27:27Z</time>
      </trkpt>
      <trkpt lat="43.0925600" lon="-0.9595300">
        <ele>717.4</ele>
        <time>2020-07-29T09:27:28Z</time>
      </trkpt>
      <trkpt lat="43.0925490" lon="-0.9595590">
        <ele>717.6</ele>
        <time>2020-07-29T09:27:29Z</time>
      </trkpt>
      <trkpt lat="43.0925310" lon="-0.9596200">
        <ele>718.0</ele>
        <time>2020-07-29T09:27:31Z</time>
      </trkpt>
      <trkpt lat="43.0925230" lon="-0.9596520">
        <ele>718.0</ele>
        <time>2020-07-29T09:27:32Z</time>
      </trkpt>
      <trkpt lat="43.0925150" lon="-0.9596830">
        <ele>718.2</ele>
        <time>2020-07-29T09:27:33Z</time>
      </trkpt>
      <trkpt lat="43.0924890" lon="-0.9597770">
        <ele>719.0</ele>
        <time>2020-07-29T09:27:36Z</time>
      </trkpt>
      <trkpt lat="43.0924800" lon="-0.9598080">
        <ele>719.4</ele>
        <time>2020-07-29T09:27:37Z</time>
      </trkpt>
      <trkpt lat="43.0924700" lon="-0.9598370">
        <ele>719.6</ele>
        <time>2020-07-29T09:27:38Z</time>
      </trkpt>
      <trkpt lat="43.0924360" lon="-0.9599620">
        <ele>720.6</ele>
        <time>2020-07-29T09:27:42Z</time>
      </trkpt>
      <trkpt lat="43.0923910" lon="-0.9601180">
        <ele>721.6</ele>
        <time>2020-07-29T09:27:47Z</time>
      </trkpt>
      <trkpt lat="43.0923490" lon="-0.9602810">
        <ele>723.0</ele>
        <time>2020-07-29T09:27:52Z</time>
      </trkpt>
      <trkpt lat="43.0923270" lon="-0.9603750">
        <ele>724.0</ele>
        <time>2020-07-29T09:27:55Z</time>
      </trkpt>
      <trkpt lat="43.0923110" lon="-0.9604370">
        <ele>724.8</ele>
        <time>2020-07-29T09:27:57Z</time>
      </trkpt>
      <trkpt lat="43.0923020" lon="-0.9604980">
        <ele>725.2</ele>
        <time>2020-07-29T09:27:59Z</time>
      </trkpt>
      <trkpt lat="43.0922800" lon="-0.9606790">
        <ele>726.2</ele>
        <time>2020-07-29T09:28:05Z</time>
      </trkpt>
      <trkpt lat="43.0922850" lon="-0.9607590">
        <ele>727.2</ele>
        <time>2020-07-29T09:28:08Z</time>
      </trkpt>
      <trkpt lat="43.0922890" lon="-0.9608720">
        <ele>728.2</ele>
        <time>2020-07-29T09:28:12Z</time>
      </trkpt>
      <trkpt lat="43.0922910" lon="-0.9609080">
        <ele>728.4</ele>
        <time>2020-07-29T09:28:13Z</time>
      </trkpt>
      <trkpt lat="43.0922770" lon="-0.9610420">
        <ele>729.6</ele>
        <time>2020-07-29T09:28:17Z</time>
      </trkpt>
      <trkpt lat="43.0922620" lon="-0.9611050">
        <ele>730.2</ele>
        <time>2020-07-29T09:28:19Z</time>
      </trkpt>
      <trkpt lat="43.0922400" lon="-0.9611620">
        <ele>730.8</ele>
        <time>2020-07-29T09:28:21Z</time>
      </trkpt>
      <trkpt lat="43.0922150" lon="-0.9612300">
        <ele>731.0</ele>
        <time>2020-07-29T09:28:23Z</time>
      </trkpt>
      <trkpt lat="43.0921910" lon="-0.9612880">
        <ele>731.6</ele>
        <time>2020-07-29T09:28:25Z</time>
      </trkpt>
      <trkpt lat="43.0921770" lon="-0.9613150">
        <ele>732.2</ele>
        <time>2020-07-29T09:28:26Z</time>
      </trkpt>
      <trkpt lat="43.0921070" lon="-0.9614170">
        <ele>733.2</ele>
        <time>2020-07-29T09:28:30Z</time>
      </trkpt>
      <trkpt lat="43.0920700" lon="-0.9614570">
        <ele>733.6</ele>
        <time>2020-07-29T09:28:32Z</time>
      </trkpt>
      <trkpt lat="43.0920150" lon="-0.9615270">
        <ele>734.6</ele>
        <time>2020-07-29T09:28:35Z</time>
      </trkpt>
      <trkpt lat="43.0919850" lon="-0.9615610">
        <ele>735.0</ele>
        <time>2020-07-29T09:28:37Z</time>
      </trkpt>
      <trkpt lat="43.0919520" lon="-0.9615910">
        <ele>735.6</ele>
        <time>2020-07-29T09:28:39Z</time>
      </trkpt>
      <trkpt lat="43.0918350" lon="-0.9616500">
        <ele>736.8</ele>
        <time>2020-07-29T09:28:45Z</time>
      </trkpt>
      <trkpt lat="43.0918180" lon="-0.9616580">
        <ele>737.0</ele>
        <time>2020-07-29T09:28:46Z</time>
      </trkpt>
      <trkpt lat="43.0917670" lon="-0.9616800">
        <ele>738.0</ele>
        <time>2020-07-29T09:28:49Z</time>
      </trkpt>
      <trkpt lat="43.0916850" lon="-0.9617330">
        <ele>739.2</ele>
        <time>2020-07-29T09:28:53Z</time>
      </trkpt>
      <trkpt lat="43.0916020" lon="-0.9618880">
        <ele>740.4</ele>
        <time>2020-07-29T09:28:58Z</time>
      </trkpt>
      <trkpt lat="43.0915790" lon="-0.9619550">
        <ele>741.0</ele>
        <time>2020-07-29T09:29:00Z</time>
      </trkpt>
      <trkpt lat="43.0915610" lon="-0.9620200">
        <ele>741.4</ele>
        <time>2020-07-29T09:29:02Z</time>
      </trkpt>
      <trkpt lat="43.0915480" lon="-0.9621450">
        <ele>742.6</ele>
        <time>2020-07-29T09:29:06Z</time>
      </trkpt>
      <trkpt lat="43.0915460" lon="-0.9621740">
        <ele>742.8</ele>
        <time>2020-07-29T09:29:07Z</time>
      </trkpt>
      <trkpt lat="43.0915390" lon="-0.9622680">
        <ele>743.4</ele>
        <time>2020-07-29T09:29:10Z</time>
      </trkpt>
      <trkpt lat="43.0915350" lon="-0.9623010">
        <ele>743.8</ele>
        <time>2020-07-29T09:29:11Z</time>
      </trkpt>
      <trkpt lat="43.0915300" lon="-0.9624280">
        <ele>744.8</ele>
        <time>2020-07-29T09:29:15Z</time>
      </trkpt>
      <trkpt lat="43.0915440" lon="-0.9625550">
        <ele>746.0</ele>
        <time>2020-07-29T09:29:19Z</time>
      </trkpt>
      <trkpt lat="43.0915570" lon="-0.9626440">
        <ele>747.0</ele>
        <time>2020-07-29T09:29:22Z</time>
      </trkpt>
      <trkpt lat="43.0915620" lon="-0.9626700">
        <ele>747.2</ele>
        <time>2020-07-29T09:29:23Z</time>
      </trkpt>
      <trkpt lat="43.0915900" lon="-0.9627870">
        <ele>748.0</ele>
        <time>2020-07-29T09:29:27Z</time>
      </trkpt>
      <trkpt lat="43.0916020" lon="-0.9628470">
        <ele>748.4</ele>
        <time>2020-07-29T09:29:29Z</time>
      </trkpt>
      <trkpt lat="43.0916210" lon="-0.9630110">
        <ele>749.6</ele>
        <time>2020-07-29T09:29:34Z</time>
      </trkpt>
      <trkpt lat="43.0916210" lon="-0.9630780">
        <ele>750.2</ele>
        <time>2020-07-29T09:29:36Z</time>
      </trkpt>
      <trkpt lat="43.0916130" lon="-0.9631420">
        <ele>750.8</ele>
        <time>2020-07-29T09:29:38Z</time>
      </trkpt>
      <trkpt lat="43.0915880" lon="-0.9632130">
        <ele>751.2</ele>
        <time>2020-07-29T09:29:40Z</time>
      </trkpt>
      <trkpt lat="43.0915750" lon="-0.9632470">
        <ele>751.4</ele>
        <time>2020-07-29T09:29:41Z</time>
      </trkpt>
      <trkpt lat="43.0915460" lon="-0.9633110">
        <ele>752.0</ele>
        <time>2020-07-29T09:29:43Z</time>
      </trkpt>
      <trkpt lat="43.0915170" lon="-0.9633690">
        <ele>752.2</ele>
        <time>2020-07-29T09:29:45Z</time>
      </trkpt>
      <trkpt lat="43.0914810" lon="-0.9634580">
        <ele>753.2</ele>
        <time>2020-07-29T09:29:48Z</time>
      </trkpt>
      <trkpt lat="43.0914550" lon="-0.9635590">
        <ele>754.2</ele>
        <time>2020-07-29T09:29:51Z</time>
      </trkpt>
      <trkpt lat="43.0914500" lon="-0.9635930">
        <ele>754.4</ele>
        <time>2020-07-29T09:29:52Z</time>
      </trkpt>
      <trkpt lat="43.0914400" lon="-0.9637330">
        <ele>755.8</ele>
        <time>2020-07-29T09:29:56Z</time>
      </trkpt>
      <trkpt lat="43.0914420" lon="-0.9638030">
        <ele>756.4</ele>
        <time>2020-07-29T09:29:58Z</time>
      </trkpt>
      <trkpt lat="43.0914480" lon="-0.9638720">
        <ele>756.8</ele>
        <time>2020-07-29T09:30:00Z</time>
      </trkpt>
      <trkpt lat="43.0914760" lon="-0.9640480">
        <ele>758.0</ele>
        <time>2020-07-29T09:30:05Z</time>
      </trkpt>
      <trkpt lat="43.0914910" lon="-0.9641170">
        <ele>758.8</ele>
        <time>2020-07-29T09:30:07Z</time>
      </trkpt>
      <trkpt lat="43.0915010" lon="-0.9641480">
        <ele>759.2</ele>
        <time>2020-07-29T09:30:08Z</time>
      </trkpt>
      <trkpt lat="43.0915570" lon="-0.9642900">
        <ele>760.0</ele>
        <time>2020-07-29T09:30:13Z</time>
      </trkpt>
      <trkpt lat="43.0915810" lon="-0.9643510">
        <ele>760.2</ele>
        <time>2020-07-29T09:30:15Z</time>
      </trkpt>
      <trkpt lat="43.0916140" lon="-0.9644910">
        <ele>761.4</ele>
        <time>2020-07-29T09:30:19Z</time>
      </trkpt>
      <trkpt lat="43.0916270" lon="-0.9645610">
        <ele>762.4</ele>
        <time>2020-07-29T09:30:21Z</time>
      </trkpt>
      <trkpt lat="43.0916320" lon="-0.9645960">
        <ele>762.8</ele>
        <time>2020-07-29T09:30:22Z</time>
      </trkpt>
      <trkpt lat="43.0916450" lon="-0.9646670">
        <ele>763.2</ele>
        <time>2020-07-29T09:30:24Z</time>
      </trkpt>
      <trkpt lat="43.0916570" lon="-0.9647390">
        <ele>763.8</ele>
        <time>2020-07-29T09:30:26Z</time>
      </trkpt>
      <trkpt lat="43.0916940" lon="-0.9649010">
        <ele>765.2</ele>
        <time>2020-07-29T09:30:31Z</time>
      </trkpt>
      <trkpt lat="43.0917170" lon="-0.9649990">
        <ele>766.2</ele>
        <time>2020-07-29T09:30:34Z</time>
      </trkpt>
      <trkpt lat="43.0917250" lon="-0.9650320">
        <ele>766.6</ele>
        <time>2020-07-29T09:30:35Z</time>
      </trkpt>
      <trkpt lat="43.0917440" lon="-0.9651720">
        <ele>767.2</ele>
        <time>2020-07-29T09:30:39Z</time>
      </trkpt>
      <trkpt lat="43.0917510" lon="-0.9652390">
        <ele>768.0</ele>
        <time>2020-07-29T09:30:41Z</time>
      </trkpt>
      <trkpt lat="43.0917560" lon="-0.9653070">
        <ele>768.4</ele>
        <time>2020-07-29T09:30:43Z</time>
      </trkpt>
      <trkpt lat="43.0917720" lon="-0.9654460">
        <ele>769.4</ele>
        <time>2020-07-29T09:30:48Z</time>
      </trkpt>
      <trkpt lat="43.0917880" lon="-0.9655420">
        <ele>770.4</ele>
        <time>2020-07-29T09:30:52Z</time>
      </trkpt>
      <trkpt lat="43.0918030" lon="-0.9656220">
        <ele>771.0</ele>
        <time>2020-07-29T09:30:55Z</time>
      </trkpt>
      <trkpt lat="43.0918080" lon="-0.9656460">
        <ele>771.4</ele>
        <time>2020-07-29T09:30:56Z</time>
      </trkpt>
      <trkpt lat="43.0918090" lon="-0.9656660">
        <ele>771.6</ele>
        <time>2020-07-29T09:30:57Z</time>
      </trkpt>
      <trkpt lat="43.0918210" lon="-0.9657830">
        <ele>772.8</ele>
        <time>2020-07-29T09:31:02Z</time>
      </trkpt>
      <trkpt lat="43.0918640" lon="-0.9658900">
        <ele>773.8</ele>
        <time>2020-07-29T09:31:07Z</time>
      </trkpt>
      <trkpt lat="43.0918880" lon="-0.9659250">
        <ele>774.2</ele>
        <time>2020-07-29T09:31:09Z</time>
      </trkpt>
      <trkpt lat="43.0919330" lon="-0.9660340">
        <ele>775.0</ele>
        <time>2020-07-29T09:31:14Z</time>
      </trkpt>
      <trkpt lat="43.0919440" lon="-0.9660600">
        <ele>775.4</ele>
        <time>2020-07-29T09:31:15Z</time>
      </trkpt>
      <trkpt lat="43.0919810" lon="-0.9661920">
        <ele>776.0</ele>
        <time>2020-07-29T09:31:20Z</time>
      </trkpt>
      <trkpt lat="43.0919980" lon="-0.9662990">
        <ele>776.6</ele>
        <time>2020-07-29T09:31:24Z</time>
      </trkpt>
      <trkpt lat="43.0920170" lon="-0.9663740">
        <ele>777.4</ele>
        <time>2020-07-29T09:31:27Z</time>
      </trkpt>
      <trkpt lat="43.0920490" lon="-0.9664880">
        <ele>778.6</ele>
        <time>2020-07-29T09:31:32Z</time>
      </trkpt>
      <trkpt lat="43.0920640" lon="-0.9666070">
        <ele>779.6</ele>
        <time>2020-07-29T09:31:37Z</time>
      </trkpt>
      <trkpt lat="43.0920610" lon="-0.9666670">
        <ele>780.0</ele>
        <time>2020-07-29T09:31:39Z</time>
      </trkpt>
      <trkpt lat="43.0920790" lon="-0.9667960">
        <ele>781.0</ele>
        <time>2020-07-29T09:31:44Z</time>
      </trkpt>
      <trkpt lat="43.0921060" lon="-0.9668570">
        <ele>781.8</ele>
        <time>2020-07-29T09:31:47Z</time>
      </trkpt>
      <trkpt lat="43.0921110" lon="-0.9668800">
        <ele>782.0</ele>
        <time>2020-07-29T09:31:48Z</time>
      </trkpt>
      <trkpt lat="43.0921030" lon="-0.9669990">
        <ele>782.8</ele>
        <time>2020-07-29T09:31:53Z</time>
      </trkpt>
      <trkpt lat="43.0921060" lon="-0.9670220">
        <ele>783.2</ele>
        <time>2020-07-29T09:31:54Z</time>
      </trkpt>
      <trkpt lat="43.0920920" lon="-0.9671220">
        <ele>784.2</ele>
        <time>2020-07-29T09:31:58Z</time>
      </trkpt>
      <trkpt lat="43.0920880" lon="-0.9671490">
        <ele>784.4</ele>
        <time>2020-07-29T09:31:59Z</time>
      </trkpt>
      <trkpt lat="43.0920830" lon="-0.9672800">
        <ele>785.4</ele>
        <time>2020-07-29T09:32:04Z</time>
      </trkpt>
      <trkpt lat="43.0920750" lon="-0.9673520">
        <ele>786.2</ele>
        <time>2020-07-29T09:32:07Z</time>
      </trkpt>
      <trkpt lat="43.0920690" lon="-0.9673770">
        <ele>786.6</ele>
        <time>2020-07-29T09:32:08Z</time>
      </trkpt>
      <trkpt lat="43.0920570" lon="-0.9674990">
        <ele>787.6</ele>
        <time>2020-07-29T09:32:13Z</time>
      </trkpt>
      <trkpt lat="43.0920540" lon="-0.9675250">
        <ele>787.8</ele>
        <time>2020-07-29T09:32:14Z</time>
      </trkpt>
      <trkpt lat="43.0920390" lon="-0.9676670">
        <ele>788.8</ele>
        <time>2020-07-29T09:32:19Z</time>
      </trkpt>
      <trkpt lat="43.0920400" lon="-0.9677370">
        <ele>789.4</ele>
        <time>2020-07-29T09:32:21Z</time>
      </trkpt>
      <trkpt lat="43.0920390" lon="-0.9678130">
        <ele>790.0</ele>
        <time>2020-07-29T09:32:23Z</time>
      </trkpt>
      <trkpt lat="43.0920400" lon="-0.9679290">
        <ele>791.0</ele>
        <time>2020-07-29T09:32:26Z</time>
      </trkpt>
      <trkpt lat="43.0920650" lon="-0.9680730">
        <ele>791.8</ele>
        <time>2020-07-29T09:32:30Z</time>
      </trkpt>
      <trkpt lat="43.0920820" lon="-0.9681320">
        <ele>792.2</ele>
        <time>2020-07-29T09:32:32Z</time>
      </trkpt>
      <trkpt lat="43.0921240" lon="-0.9682560">
        <ele>793.4</ele>
        <time>2020-07-29T09:32:37Z</time>
      </trkpt>
      <trkpt lat="43.0921710" lon="-0.9684000">
        <ele>794.6</ele>
        <time>2020-07-29T09:32:43Z</time>
      </trkpt>
      <trkpt lat="43.0921930" lon="-0.9684650">
        <ele>795.6</ele>
        <time>2020-07-29T09:32:46Z</time>
      </trkpt>
      <trkpt lat="43.0922010" lon="-0.9684890">
        <ele>796.0</ele>
        <time>2020-07-29T09:32:47Z</time>
      </trkpt>
      <trkpt lat="43.0922290" lon="-0.9686310">
        <ele>797.0</ele>
        <time>2020-07-29T09:32:52Z</time>
      </trkpt>
      <trkpt lat="43.0922390" lon="-0.9686570">
        <ele>797.2</ele>
        <time>2020-07-29T09:32:53Z</time>
      </trkpt>
      <trkpt lat="43.0922660" lon="-0.9687350">
        <ele>798.0</ele>
        <time>2020-07-29T09:32:56Z</time>
      </trkpt>
      <trkpt lat="43.0923020" lon="-0.9688710">
        <ele>799.2</ele>
        <time>2020-07-29T09:33:01Z</time>
      </trkpt>
      <trkpt lat="43.0923280" lon="-0.9690170">
        <ele>800.2</ele>
        <time>2020-07-29T09:33:06Z</time>
      </trkpt>
      <trkpt lat="43.0923450" lon="-0.9691130">
        <ele>801.2</ele>
        <time>2020-07-29T09:33:09Z</time>
      </trkpt>
      <trkpt lat="43.0923480" lon="-0.9691480">
        <ele>801.4</ele>
        <time>2020-07-29T09:33:10Z</time>
      </trkpt>
      <trkpt lat="43.0923640" lon="-0.9693550">
        <ele>801.8</ele>
        <time>2020-07-29T09:33:16Z</time>
      </trkpt>
      <trkpt lat="43.0923750" lon="-0.9694250">
        <ele>802.2</ele>
        <time>2020-07-29T09:33:18Z</time>
      </trkpt>
      <trkpt lat="43.0923830" lon="-0.9694580">
        <ele>802.4</ele>
        <time>2020-07-29T09:33:19Z</time>
      </trkpt>
      <trkpt lat="43.0924030" lon="-0.9696500">
        <ele>803.0</ele>
        <time>2020-07-29T09:33:25Z</time>
      </trkpt>
      <trkpt lat="43.0924080" lon="-0.9696810">
        <ele>803.4</ele>
        <time>2020-07-29T09:33:26Z</time>
      </trkpt>
      <trkpt lat="43.0924140" lon="-0.9697110">
        <ele>803.6</ele>
        <time>2020-07-29T09:33:27Z</time>
      </trkpt>
      <trkpt lat="43.0924310" lon="-0.9698400">
        <ele>804.2</ele>
        <time>2020-07-29T09:33:32Z</time>
      </trkpt>
      <trkpt lat="43.0924400" lon="-0.9698900">
        <ele>804.2</ele>
        <time>2020-07-29T09:33:35Z</time>
      </trkpt>
      <trkpt lat="43.0924440" lon="-0.9699050">
        <ele>804.0</ele>
        <time>2020-07-29T09:33:37Z</time>
      </trkpt>
      <trkpt lat="43.0925230" lon="-0.9702360">
        <ele>802.8</ele>
        <time>2020-07-29T09:34:22Z</time>
      </trkpt>
      <trkpt lat="43.0925990" lon="-0.9704150">
        <ele>802.6</ele>
        <time>2020-07-29T09:34:26Z</time>
      </trkpt>
      <trkpt lat="43.0926200" lon="-0.9704760">
        <ele>802.4</ele>
        <time>2020-07-29T09:34:27Z</time>
      </trkpt>
      <trkpt lat="43.0926750" lon="-0.9706820">
        <ele>801.2</ele>
        <time>2020-07-29T09:34:30Z</time>
      </trkpt>
      <trkpt lat="43.0926890" lon="-0.9708290">
        <ele>800.6</ele>
        <time>2020-07-29T09:34:32Z</time>
      </trkpt>
      <trkpt lat="43.0926880" lon="-0.9709050">
        <ele>800.2</ele>
        <time>2020-07-29T09:34:33Z</time>
      </trkpt>
      <trkpt lat="43.0926840" lon="-0.9710590">
        <ele>799.6</ele>
        <time>2020-07-29T09:34:35Z</time>
      </trkpt>
      <trkpt lat="43.0926830" lon="-0.9712110">
        <ele>798.8</ele>
        <time>2020-07-29T09:34:37Z</time>
      </trkpt>
      <trkpt lat="43.0926880" lon="-0.9713540">
        <ele>797.4</ele>
        <time>2020-07-29T09:34:39Z</time>
      </trkpt>
      <trkpt lat="43.0926900" lon="-0.9714300">
        <ele>796.8</ele>
        <time>2020-07-29T09:34:40Z</time>
      </trkpt>
      <trkpt lat="43.0926880" lon="-0.9715110">
        <ele>796.0</ele>
        <time>2020-07-29T09:34:41Z</time>
      </trkpt>
      <trkpt lat="43.0926870" lon="-0.9716710">
        <ele>794.8</ele>
        <time>2020-07-29T09:34:43Z</time>
      </trkpt>
      <trkpt lat="43.0926850" lon="-0.9718220">
        <ele>793.6</ele>
        <time>2020-07-29T09:34:45Z</time>
      </trkpt>
      <trkpt lat="43.0926850" lon="-0.9719630">
        <ele>792.6</ele>
        <time>2020-07-29T09:34:47Z</time>
      </trkpt>
      <trkpt lat="43.0926880" lon="-0.9721030">
        <ele>791.4</ele>
        <time>2020-07-29T09:34:49Z</time>
      </trkpt>
      <trkpt lat="43.0926950" lon="-0.9721720">
        <ele>790.8</ele>
        <time>2020-07-29T09:34:50Z</time>
      </trkpt>
      <trkpt lat="43.0927210" lon="-0.9723040">
        <ele>790.0</ele>
        <time>2020-07-29T09:34:52Z</time>
      </trkpt>
      <trkpt lat="43.0927330" lon="-0.9723790">
        <ele>789.4</ele>
        <time>2020-07-29T09:34:53Z</time>
      </trkpt>
      <trkpt lat="43.0927440" lon="-0.9724610">
        <ele>788.8</ele>
        <time>2020-07-29T09:34:54Z</time>
      </trkpt>
      <trkpt lat="43.0927710" lon="-0.9726320">
        <ele>787.4</ele>
        <time>2020-07-29T09:34:56Z</time>
      </trkpt>
      <trkpt lat="43.0927950" lon="-0.9728160">
        <ele>786.4</ele>
        <time>2020-07-29T09:34:58Z</time>
      </trkpt>
      <trkpt lat="43.0928080" lon="-0.9729120">
        <ele>785.8</ele>
        <time>2020-07-29T09:34:59Z</time>
      </trkpt>
      <trkpt lat="43.0928170" lon="-0.9730150">
        <ele>785.2</ele>
        <time>2020-07-29T09:35:00Z</time>
      </trkpt>
      <trkpt lat="43.0928440" lon="-0.9732220">
        <ele>783.4</ele>
        <time>2020-07-29T09:35:02Z</time>
      </trkpt>
      <trkpt lat="43.0928790" lon="-0.9734150">
        <ele>782.0</ele>
        <time>2020-07-29T09:35:04Z</time>
      </trkpt>
      <trkpt lat="43.0928970" lon="-0.9735090">
        <ele>781.2</ele>
        <time>2020-07-29T09:35:05Z</time>
      </trkpt>
      <trkpt lat="43.0929130" lon="-0.9736030">
        <ele>780.4</ele>
        <time>2020-07-29T09:35:06Z</time>
      </trkpt>
      <trkpt lat="43.0929350" lon="-0.9738020">
        <ele>778.4</ele>
        <time>2020-07-29T09:35:08Z</time>
      </trkpt>
      <trkpt lat="43.0929460" lon="-0.9740150">
        <ele>776.8</ele>
        <time>2020-07-29T09:35:10Z</time>
      </trkpt>
      <trkpt lat="43.0929550" lon="-0.9741230">
        <ele>776.2</ele>
        <time>2020-07-29T09:35:11Z</time>
      </trkpt>
      <trkpt lat="43.0929570" lon="-0.9742330">
        <ele>775.4</ele>
        <time>2020-07-29T09:35:12Z</time>
      </trkpt>
      <trkpt lat="43.0929560" lon="-0.9743450">
        <ele>774.2</ele>
        <time>2020-07-29T09:35:13Z</time>
      </trkpt>
      <trkpt lat="43.0929500" lon="-0.9744640">
        <ele>773.2</ele>
        <time>2020-07-29T09:35:14Z</time>
      </trkpt>
      <trkpt lat="43.0929640" lon="-0.9747140">
        <ele>771.4</ele>
        <time>2020-07-29T09:35:16Z</time>
      </trkpt>
      <trkpt lat="43.0929720" lon="-0.9748510">
        <ele>770.4</ele>
        <time>2020-07-29T09:35:17Z</time>
      </trkpt>
      <trkpt lat="43.0929820" lon="-0.9749980">
        <ele>769.4</ele>
        <time>2020-07-29T09:35:18Z</time>
      </trkpt>
      <trkpt lat="43.0929970" lon="-0.9751500">
        <ele>768.2</ele>
        <time>2020-07-29T09:35:19Z</time>
      </trkpt>
      <trkpt lat="43.0930100" lon="-0.9752980">
        <ele>766.8</ele>
        <time>2020-07-29T09:35:20Z</time>
      </trkpt>
      <trkpt lat="43.0930310" lon="-0.9754360">
        <ele>765.8</ele>
        <time>2020-07-29T09:35:21Z</time>
      </trkpt>
      <trkpt lat="43.0930560" lon="-0.9755670">
        <ele>764.8</ele>
        <time>2020-07-29T09:35:22Z</time>
      </trkpt>
      <trkpt lat="43.0930910" lon="-0.9756900">
        <ele>764.0</ele>
        <time>2020-07-29T09:35:23Z</time>
      </trkpt>
      <trkpt lat="43.0931930" lon="-0.9759120">
        <ele>762.6</ele>
        <time>2020-07-29T09:35:25Z</time>
      </trkpt>
      <trkpt lat="43.0932540" lon="-0.9760130">
        <ele>761.8</ele>
        <time>2020-07-29T09:35:26Z</time>
      </trkpt>
      <trkpt lat="43.0933250" lon="-0.9761020">
        <ele>761.0</ele>
        <time>2020-07-29T09:35:27Z</time>
      </trkpt>
      <trkpt lat="43.0933990" lon="-0.9761780">
        <ele>760.0</ele>
        <time>2020-07-29T09:35:28Z</time>
      </trkpt>
      <trkpt lat="43.0934770" lon="-0.9762440">
        <ele>759.4</ele>
        <time>2020-07-29T09:35:29Z</time>
      </trkpt>
      <trkpt lat="43.0937060" lon="-0.9764420">
        <ele>758.0</ele>
        <time>2020-07-29T09:35:32Z</time>
      </trkpt>
      <trkpt lat="43.0937710" lon="-0.9765180">
        <ele>757.4</ele>
        <time>2020-07-29T09:35:33Z</time>
      </trkpt>
      <trkpt lat="43.0938910" lon="-0.9766730">
        <ele>756.6</ele>
        <time>2020-07-29T09:35:35Z</time>
      </trkpt>
      <trkpt lat="43.0939530" lon="-0.9767350">
        <ele>756.4</ele>
        <time>2020-07-29T09:35:36Z</time>
      </trkpt>
      <trkpt lat="43.0940190" lon="-0.9767790">
        <ele>756.0</ele>
        <time>2020-07-29T09:35:37Z</time>
      </trkpt>
      <trkpt lat="43.0940870" lon="-0.9768040">
        <ele>755.4</ele>
        <time>2020-07-29T09:35:38Z</time>
      </trkpt>
      <trkpt lat="43.0942150" lon="-0.9768000">
        <ele>754.0</ele>
        <time>2020-07-29T09:35:40Z</time>
      </trkpt>
      <trkpt lat="43.0943130" lon="-0.9767590">
        <ele>752.8</ele>
        <time>2020-07-29T09:35:42Z</time>
      </trkpt>
      <trkpt lat="43.0943810" lon="-0.9767220">
        <ele>751.8</ele>
        <time>2020-07-29T09:35:44Z</time>
      </trkpt>
      <trkpt lat="43.0944110" lon="-0.9767190">
        <ele>751.4</ele>
        <time>2020-07-29T09:35:45Z</time>
      </trkpt>
      <trkpt lat="43.0944560" lon="-0.9767450">
        <ele>751.0</ele>
        <time>2020-07-29T09:35:48Z</time>
      </trkpt>
      <trkpt lat="43.0944590" lon="-0.9767440">
        <ele>750.8</ele>
        <time>2020-07-29T09:35:49Z</time>
      </trkpt>
      <trkpt lat="43.0944490" lon="-0.9768290">
        <ele>749.8</ele>
        <time>2020-07-29T09:40:26Z</time>
      </trkpt>
      <trkpt lat="43.0944770" lon="-0.9768640">
        <ele>749.8</ele>
        <time>2020-07-29T09:40:28Z</time>
      </trkpt>
      <trkpt lat="43.0945140" lon="-0.9769160">
        <ele>750.0</ele>
        <time>2020-07-29T09:40:30Z</time>
      </trkpt>
      <trkpt lat="43.0945460" lon="-0.9769800">
        <ele>750.4</ele>
        <time>2020-07-29T09:40:32Z</time>
      </trkpt>
      <trkpt lat="43.0945760" lon="-0.9770470">
        <ele>750.4</ele>
        <time>2020-07-29T09:40:34Z</time>
      </trkpt>
      <trkpt lat="43.0946450" lon="-0.9771870">
        <ele>751.0</ele>
        <time>2020-07-29T09:40:38Z</time>
      </trkpt>
      <trkpt lat="43.0947580" lon="-0.9774220">
        <ele>751.8</ele>
        <time>2020-07-29T09:40:44Z</time>
      </trkpt>
      <trkpt lat="43.0947780" lon="-0.9774620">
        <ele>751.8</ele>
        <time>2020-07-29T09:40:45Z</time>
      </trkpt>
      <trkpt lat="43.0948170" lon="-0.9775480">
        <ele>752.0</ele>
        <time>2020-07-29T09:40:47Z</time>
      </trkpt>
      <trkpt lat="43.0948330" lon="-0.9775930">
        <ele>752.2</ele>
        <time>2020-07-29T09:40:48Z</time>
      </trkpt>
      <trkpt lat="43.0949060" lon="-0.9778140">
        <ele>753.2</ele>
        <time>2020-07-29T09:40:53Z</time>
      </trkpt>
      <trkpt lat="43.0949610" lon="-0.9780490">
        <ele>754.0</ele>
        <time>2020-07-29T09:40:59Z</time>
      </trkpt>
      <trkpt lat="43.0949880" lon="-0.9781210">
        <ele>754.2</ele>
        <time>2020-07-29T09:41:01Z</time>
      </trkpt>
      <trkpt lat="43.0950000" lon="-0.9781570">
        <ele>754.4</ele>
        <time>2020-07-29T09:41:02Z</time>
      </trkpt>
      <trkpt lat="43.0950360" lon="-0.9782670">
        <ele>755.4</ele>
        <time>2020-07-29T09:41:05Z</time>
      </trkpt>
      <trkpt lat="43.0950850" lon="-0.9784130">
        <ele>756.2</ele>
        <time>2020-07-29T09:41:09Z</time>
      </trkpt>
      <trkpt lat="43.0951240" lon="-0.9785250">
        <ele>756.4</ele>
        <time>2020-07-29T09:41:12Z</time>
      </trkpt>
      <trkpt lat="43.0951800" lon="-0.9787100">
        <ele>757.2</ele>
        <time>2020-07-29T09:41:17Z</time>
      </trkpt>
      <trkpt lat="43.0952060" lon="-0.9787800">
        <ele>757.6</ele>
        <time>2020-07-29T09:41:19Z</time>
      </trkpt>
      <trkpt lat="43.0952440" lon="-0.9788910">
        <ele>758.2</ele>
        <time>2020-07-29T09:41:22Z</time>
      </trkpt>
      <trkpt lat="43.0952680" lon="-0.9789710">
        <ele>758.4</ele>
        <time>2020-07-29T09:41:24Z</time>
      </trkpt>
      <trkpt lat="43.0952900" lon="-0.9790500">
        <ele>758.8</ele>
        <time>2020-07-29T09:41:26Z</time>
      </trkpt>
      <trkpt lat="43.0953540" lon="-0.9792500">
        <ele>759.8</ele>
        <time>2020-07-29T09:41:31Z</time>
      </trkpt>
      <trkpt lat="43.0954170" lon="-0.9794660">
        <ele>760.4</ele>
        <time>2020-07-29T09:41:36Z</time>
      </trkpt>
      <trkpt lat="43.0954370" lon="-0.9795530">
        <ele>760.8</ele>
        <time>2020-07-29T09:41:38Z</time>
      </trkpt>
      <trkpt lat="43.0954510" lon="-0.9796450">
        <ele>761.2</ele>
        <time>2020-07-29T09:41:40Z</time>
      </trkpt>
      <trkpt lat="43.0954770" lon="-0.9799610">
        <ele>761.4</ele>
        <time>2020-07-29T09:41:46Z</time>
      </trkpt>
      <trkpt lat="43.0954930" lon="-0.9801130">
        <ele>761.8</ele>
        <time>2020-07-29T09:41:49Z</time>
      </trkpt>
      <trkpt lat="43.0955190" lon="-0.9803400">
        <ele>763.0</ele>
        <time>2020-07-29T09:41:54Z</time>
      </trkpt>
      <trkpt lat="43.0955350" lon="-0.9804250">
        <ele>763.4</ele>
        <time>2020-07-29T09:41:56Z</time>
      </trkpt>
      <trkpt lat="43.0955610" lon="-0.9805460">
        <ele>764.2</ele>
        <time>2020-07-29T09:41:59Z</time>
      </trkpt>
      <trkpt lat="43.0955960" lon="-0.9807030">
        <ele>765.2</ele>
        <time>2020-07-29T09:42:03Z</time>
      </trkpt>
      <trkpt lat="43.0956300" lon="-0.9808200">
        <ele>766.2</ele>
        <time>2020-07-29T09:42:06Z</time>
      </trkpt>
      <trkpt lat="43.0956390" lon="-0.9808580">
        <ele>766.6</ele>
        <time>2020-07-29T09:42:07Z</time>
      </trkpt>
      <trkpt lat="43.0956770" lon="-0.9810420">
        <ele>767.6</ele>
        <time>2020-07-29T09:42:12Z</time>
      </trkpt>
      <trkpt lat="43.0956870" lon="-0.9810820">
        <ele>767.8</ele>
        <time>2020-07-29T09:42:13Z</time>
      </trkpt>
      <trkpt lat="43.0957120" lon="-0.9812230">
        <ele>769.0</ele>
        <time>2020-07-29T09:42:16Z</time>
      </trkpt>
      <trkpt lat="43.0957580" lon="-0.9814090">
        <ele>769.8</ele>
        <time>2020-07-29T09:42:20Z</time>
      </trkpt>
      <trkpt lat="43.0958110" lon="-0.9816160">
        <ele>770.2</ele>
        <time>2020-07-29T09:42:24Z</time>
      </trkpt>
      <trkpt lat="43.0958240" lon="-0.9816680">
        <ele>770.4</ele>
        <time>2020-07-29T09:42:25Z</time>
      </trkpt>
      <trkpt lat="43.0958350" lon="-0.9817210">
        <ele>770.4</ele>
        <time>2020-07-29T09:42:26Z</time>
      </trkpt>
      <trkpt lat="43.0958540" lon="-0.9818310">
        <ele>770.6</ele>
        <time>2020-07-29T09:42:28Z</time>
      </trkpt>
      <trkpt lat="43.0958850" lon="-0.9820370">
        <ele>771.0</ele>
        <time>2020-07-29T09:42:32Z</time>
      </trkpt>
      <trkpt lat="43.0958930" lon="-0.9820860">
        <ele>771.4</ele>
        <time>2020-07-29T09:42:33Z</time>
      </trkpt>
      <trkpt lat="43.0959060" lon="-0.9821970">
        <ele>771.6</ele>
        <time>2020-07-29T09:42:35Z</time>
      </trkpt>
      <trkpt lat="43.0959120" lon="-0.9822550">
        <ele>771.6</ele>
        <time>2020-07-29T09:42:36Z</time>
      </trkpt>
      <trkpt lat="43.0959410" lon="-0.9826110">
        <ele>772.4</ele>
        <time>2020-07-29T09:42:42Z</time>
      </trkpt>
      <trkpt lat="43.0959470" lon="-0.9826690">
        <ele>772.6</ele>
        <time>2020-07-29T09:42:43Z</time>
      </trkpt>
      <trkpt lat="43.0959560" lon="-0.9827920">
        <ele>772.8</ele>
        <time>2020-07-29T09:42:45Z</time>
      </trkpt>
      <trkpt lat="43.0959650" lon="-0.9831220">
        <ele>773.0</ele>
        <time>2020-07-29T09:42:50Z</time>
      </trkpt>
      <trkpt lat="43.0959790" lon="-0.9833260">
        <ele>773.2</ele>
        <time>2020-07-29T09:42:53Z</time>
      </trkpt>
      <trkpt lat="43.0960100" lon="-0.9834540">
        <ele>773.4</ele>
        <time>2020-07-29T09:42:55Z</time>
      </trkpt>
      <trkpt lat="43.0960300" lon="-0.9835120">
        <ele>773.6</ele>
        <time>2020-07-29T09:42:56Z</time>
      </trkpt>
      <trkpt lat="43.0961210" lon="-0.9837260">
        <ele>774.4</ele>
        <time>2020-07-29T09:43:00Z</time>
      </trkpt>
      <trkpt lat="43.0961460" lon="-0.9837780">
        <ele>774.6</ele>
        <time>2020-07-29T09:43:01Z</time>
      </trkpt>
      <trkpt lat="43.0961720" lon="-0.9838300">
        <ele>774.6</ele>
        <time>2020-07-29T09:43:02Z</time>
      </trkpt>
      <trkpt lat="43.0961990" lon="-0.9838810">
        <ele>774.6</ele>
        <time>2020-07-29T09:43:03Z</time>
      </trkpt>
      <trkpt lat="43.0962560" lon="-0.9839840">
        <ele>774.6</ele>
        <time>2020-07-29T09:43:05Z</time>
      </trkpt>
      <trkpt lat="43.0963520" lon="-0.9841280">
        <ele>774.8</ele>
        <time>2020-07-29T09:43:08Z</time>
      </trkpt>
      <trkpt lat="43.0964610" lon="-0.9842510">
        <ele>775.4</ele>
        <time>2020-07-29T09:43:11Z</time>
      </trkpt>
      <trkpt lat="43.0964970" lon="-0.9842890">
        <ele>775.8</ele>
        <time>2020-07-29T09:43:12Z</time>
      </trkpt>
      <trkpt lat="43.0965970" lon="-0.9844090">
        <ele>776.4</ele>
        <time>2020-07-29T09:43:15Z</time>
      </trkpt>
      <trkpt lat="43.0966290" lon="-0.9844510">
        <ele>776.4</ele>
        <time>2020-07-29T09:43:16Z</time>
      </trkpt>
      <trkpt lat="43.0966610" lon="-0.9844930">
        <ele>776.6</ele>
        <time>2020-07-29T09:43:17Z</time>
      </trkpt>
      <trkpt lat="43.0967190" lon="-0.9845830">
        <ele>776.8</ele>
        <time>2020-07-29T09:43:19Z</time>
      </trkpt>
      <trkpt lat="43.0967470" lon="-0.9846290">
        <ele>777.0</ele>
        <time>2020-07-29T09:43:20Z</time>
      </trkpt>
      <trkpt lat="43.0968620" lon="-0.9848250">
        <ele>777.4</ele>
        <time>2020-07-29T09:43:24Z</time>
      </trkpt>
      <trkpt lat="43.0969850" lon="-0.9850260">
        <ele>777.6</ele>
        <time>2020-07-29T09:43:28Z</time>
      </trkpt>
      <trkpt lat="43.0971110" lon="-0.9852360">
        <ele>777.8</ele>
        <time>2020-07-29T09:43:32Z</time>
      </trkpt>
      <trkpt lat="43.0971430" lon="-0.9852880">
        <ele>778.0</ele>
        <time>2020-07-29T09:43:33Z</time>
      </trkpt>
      <trkpt lat="43.0971750" lon="-0.9853390">
        <ele>778.0</ele>
        <time>2020-07-29T09:43:34Z</time>
      </trkpt>
      <trkpt lat="43.0973120" lon="-0.9855430">
        <ele>778.4</ele>
        <time>2020-07-29T09:43:38Z</time>
      </trkpt>
      <trkpt lat="43.0974760" lon="-0.9857940">
        <ele>779.0</ele>
        <time>2020-07-29T09:43:43Z</time>
      </trkpt>
      <trkpt lat="43.0975690" lon="-0.9859420">
        <ele>779.8</ele>
        <time>2020-07-29T09:43:46Z</time>
      </trkpt>
      <trkpt lat="43.0976400" lon="-0.9860340">
        <ele>780.2</ele>
        <time>2020-07-29T09:43:48Z</time>
      </trkpt>
      <trkpt lat="43.0977920" lon="-0.9862950">
        <ele>780.6</ele>
        <time>2020-07-29T09:43:53Z</time>
      </trkpt>
      <trkpt lat="43.0978160" lon="-0.9863500">
        <ele>780.6</ele>
        <time>2020-07-29T09:43:54Z</time>
      </trkpt>
      <trkpt lat="43.0979340" lon="-0.9866140">
        <ele>781.2</ele>
        <time>2020-07-29T09:43:59Z</time>
      </trkpt>
      <trkpt lat="43.0979420" lon="-0.9866830">
        <ele>781.4</ele>
        <time>2020-07-29T09:44:00Z</time>
      </trkpt>
      <trkpt lat="43.0980460" lon="-0.9868880">
        <ele>782.0</ele>
        <time>2020-07-29T09:44:04Z</time>
      </trkpt>
      <trkpt lat="43.0981020" lon="-0.9869860">
        <ele>782.2</ele>
        <time>2020-07-29T09:44:06Z</time>
      </trkpt>
      <trkpt lat="43.0981550" lon="-0.9870810">
        <ele>782.6</ele>
        <time>2020-07-29T09:44:08Z</time>
      </trkpt>
      <trkpt lat="43.0982390" lon="-0.9872790">
        <ele>783.2</ele>
        <time>2020-07-29T09:44:12Z</time>
      </trkpt>
      <trkpt lat="43.0982510" lon="-0.9873330">
        <ele>783.4</ele>
        <time>2020-07-29T09:44:13Z</time>
      </trkpt>
      <trkpt lat="43.0982590" lon="-0.9873890">
        <ele>783.4</ele>
        <time>2020-07-29T09:44:14Z</time>
      </trkpt>
      <trkpt lat="43.0982630" lon="-0.9874470">
        <ele>783.6</ele>
        <time>2020-07-29T09:44:15Z</time>
      </trkpt>
      <trkpt lat="43.0982800" lon="-0.9876150">
        <ele>783.8</ele>
        <time>2020-07-29T09:44:18Z</time>
      </trkpt>
      <trkpt lat="43.0982970" lon="-0.9878190">
        <ele>784.4</ele>
        <time>2020-07-29T09:44:22Z</time>
      </trkpt>
      <trkpt lat="43.0983100" lon="-0.9879530">
        <ele>785.4</ele>
        <time>2020-07-29T09:44:25Z</time>
      </trkpt>
      <trkpt lat="43.0983160" lon="-0.9880430">
        <ele>785.8</ele>
        <time>2020-07-29T09:44:27Z</time>
      </trkpt>
      <trkpt lat="43.0983410" lon="-0.9882120">
        <ele>786.6</ele>
        <time>2020-07-29T09:44:31Z</time>
      </trkpt>
      <trkpt lat="43.0983720" lon="-0.9884210">
        <ele>787.8</ele>
        <time>2020-07-29T09:44:36Z</time>
      </trkpt>
      <trkpt lat="43.0983990" lon="-0.9885790">
        <ele>789.0</ele>
        <time>2020-07-29T09:44:40Z</time>
      </trkpt>
      <trkpt lat="43.0984250" lon="-0.9888120">
        <ele>790.0</ele>
        <time>2020-07-29T09:44:46Z</time>
      </trkpt>
      <trkpt lat="43.0984410" lon="-0.9889300">
        <ele>790.6</ele>
        <time>2020-07-29T09:44:49Z</time>
      </trkpt>
      <trkpt lat="43.0984540" lon="-0.9890480">
        <ele>791.2</ele>
        <time>2020-07-29T09:44:53Z</time>
      </trkpt>
      <trkpt lat="43.0984680" lon="-0.9894600">
        <ele>790.8</ele>
        <time>2020-07-29T09:45:39Z</time>
      </trkpt>
      <trkpt lat="43.0984670" lon="-0.9895000">
        <ele>791.0</ele>
        <time>2020-07-29T09:45:40Z</time>
      </trkpt>
      <trkpt lat="43.0984850" lon="-0.9896410">
        <ele>791.4</ele>
        <time>2020-07-29T09:45:43Z</time>
      </trkpt>
      <trkpt lat="43.0984920" lon="-0.9898900">
        <ele>792.0</ele>
        <time>2020-07-29T09:45:48Z</time>
      </trkpt>
      <trkpt lat="43.0984950" lon="-0.9899380">
        <ele>792.2</ele>
        <time>2020-07-29T09:45:49Z</time>
      </trkpt>
      <trkpt lat="43.0984970" lon="-0.9899880">
        <ele>792.6</ele>
        <time>2020-07-29T09:45:50Z</time>
      </trkpt>
      <trkpt lat="43.0984980" lon="-0.9900350">
        <ele>792.8</ele>
        <time>2020-07-29T09:45:51Z</time>
      </trkpt>
      <trkpt lat="43.0985050" lon="-0.9901270">
        <ele>793.2</ele>
        <time>2020-07-29T09:45:53Z</time>
      </trkpt>
      <trkpt lat="43.0985060" lon="-0.9901750">
        <ele>793.4</ele>
        <time>2020-07-29T09:45:54Z</time>
      </trkpt>
      <trkpt lat="43.0985100" lon="-0.9902720">
        <ele>793.6</ele>
        <time>2020-07-29T09:45:56Z</time>
      </trkpt>
      <trkpt lat="43.0985050" lon="-0.9905230">
        <ele>794.6</ele>
        <time>2020-07-29T09:46:01Z</time>
      </trkpt>
      <trkpt lat="43.0984930" lon="-0.9906880">
        <ele>794.6</ele>
        <time>2020-07-29T09:46:04Z</time>
      </trkpt>
      <trkpt lat="43.0984580" lon="-0.9910460">
        <ele>795.4</ele>
        <time>2020-07-29T09:46:10Z</time>
      </trkpt>
      <trkpt lat="43.0984560" lon="-0.9911470">
        <ele>795.8</ele>
        <time>2020-07-29T09:46:12Z</time>
      </trkpt>
      <trkpt lat="43.0984610" lon="-0.9913150">
        <ele>797.2</ele>
        <time>2020-07-29T09:46:16Z</time>
      </trkpt>
      <trkpt lat="43.0984640" lon="-0.9914390">
        <ele>797.6</ele>
        <time>2020-07-29T09:46:19Z</time>
      </trkpt>
      <trkpt lat="43.0984800" lon="-0.9916150">
        <ele>798.2</ele>
        <time>2020-07-29T09:46:23Z</time>
      </trkpt>
      <trkpt lat="43.0984900" lon="-0.9917920">
        <ele>798.6</ele>
        <time>2020-07-29T09:46:27Z</time>
      </trkpt>
      <trkpt lat="43.0984920" lon="-0.9918370">
        <ele>798.8</ele>
        <time>2020-07-29T09:46:28Z</time>
      </trkpt>
      <trkpt lat="43.0984960" lon="-0.9918810">
        <ele>799.0</ele>
        <time>2020-07-29T09:46:29Z</time>
      </trkpt>
      <trkpt lat="43.0984980" lon="-0.9919240">
        <ele>799.2</ele>
        <time>2020-07-29T09:46:30Z</time>
      </trkpt>
      <trkpt lat="43.0985070" lon="-0.9920070">
        <ele>799.6</ele>
        <time>2020-07-29T09:46:32Z</time>
      </trkpt>
      <trkpt lat="43.0985140" lon="-0.9921370">
        <ele>800.4</ele>
        <time>2020-07-29T09:46:35Z</time>
      </trkpt>
      <trkpt lat="43.0985160" lon="-0.9921820">
        <ele>800.6</ele>
        <time>2020-07-29T09:46:36Z</time>
      </trkpt>
      <trkpt lat="43.0985240" lon="-0.9924100">
        <ele>801.4</ele>
        <time>2020-07-29T09:46:41Z</time>
      </trkpt>
      <trkpt lat="43.0985330" lon="-0.9925960">
        <ele>801.8</ele>
        <time>2020-07-29T09:46:45Z</time>
      </trkpt>
      <trkpt lat="43.0985380" lon="-0.9927390">
        <ele>802.2</ele>
        <time>2020-07-29T09:46:48Z</time>
      </trkpt>
      <trkpt lat="43.0985460" lon="-0.9928310">
        <ele>802.6</ele>
        <time>2020-07-29T09:46:50Z</time>
      </trkpt>
      <trkpt lat="43.0985730" lon="-0.9930150">
        <ele>803.4</ele>
        <time>2020-07-29T09:46:54Z</time>
      </trkpt>
      <trkpt lat="43.0985830" lon="-0.9930610">
        <ele>803.6</ele>
        <time>2020-07-29T09:46:55Z</time>
      </trkpt>
      <trkpt lat="43.0985940" lon="-0.9931070">
        <ele>803.8</ele>
        <time>2020-07-29T09:46:56Z</time>
      </trkpt>
      <trkpt lat="43.0986390" lon="-0.9932840">
        <ele>804.8</ele>
        <time>2020-07-29T09:47:00Z</time>
      </trkpt>
      <trkpt lat="43.0987190" lon="-0.9935420">
        <ele>805.6</ele>
        <time>2020-07-29T09:47:06Z</time>
      </trkpt>
      <trkpt lat="43.0987330" lon="-0.9935830">
        <ele>805.8</ele>
        <time>2020-07-29T09:47:07Z</time>
      </trkpt>
      <trkpt lat="43.0987960" lon="-0.9937510">
        <ele>807.0</ele>
        <time>2020-07-29T09:47:11Z</time>
      </trkpt>
      <trkpt lat="43.0988750" lon="-0.9939640">
        <ele>808.2</ele>
        <time>2020-07-29T09:47:16Z</time>
      </trkpt>
      <trkpt lat="43.0989320" lon="-0.9941440">
        <ele>808.6</ele>
        <time>2020-07-29T09:47:20Z</time>
      </trkpt>
      <trkpt lat="43.0989600" lon="-0.9942360">
        <ele>809.2</ele>
        <time>2020-07-29T09:47:22Z</time>
      </trkpt>
      <trkpt lat="43.0990080" lon="-0.9944230">
        <ele>810.2</ele>
        <time>2020-07-29T09:47:26Z</time>
      </trkpt>
      <trkpt lat="43.0990200" lon="-0.9944710">
        <ele>810.2</ele>
        <time>2020-07-29T09:47:27Z</time>
      </trkpt>
      <trkpt lat="43.0990640" lon="-0.9947220">
        <ele>811.4</ele>
        <time>2020-07-29T09:47:32Z</time>
      </trkpt>
      <trkpt lat="43.0990780" lon="-0.9948730">
        <ele>812.2</ele>
        <time>2020-07-29T09:47:35Z</time>
      </trkpt>
      <trkpt lat="43.0990840" lon="-0.9949740">
        <ele>812.6</ele>
        <time>2020-07-29T09:47:37Z</time>
      </trkpt>
      <trkpt lat="43.0990880" lon="-0.9950250">
        <ele>812.8</ele>
        <time>2020-07-29T09:47:38Z</time>
      </trkpt>
      <trkpt lat="43.0990890" lon="-0.9951740">
        <ele>813.4</ele>
        <time>2020-07-29T09:47:41Z</time>
      </trkpt>
      <trkpt lat="43.0990900" lon="-0.9952220">
        <ele>813.6</ele>
        <time>2020-07-29T09:47:42Z</time>
      </trkpt>
      <trkpt lat="43.0990910" lon="-0.9953130">
        <ele>814.2</ele>
        <time>2020-07-29T09:47:44Z</time>
      </trkpt>
      <trkpt lat="43.0990890" lon="-0.9954030">
        <ele>814.8</ele>
        <time>2020-07-29T09:47:46Z</time>
      </trkpt>
      <trkpt lat="43.0990920" lon="-0.9955840">
        <ele>815.8</ele>
        <time>2020-07-29T09:47:50Z</time>
      </trkpt>
      <trkpt lat="43.0991010" lon="-0.9957640">
        <ele>816.4</ele>
        <time>2020-07-29T09:47:54Z</time>
      </trkpt>
      <trkpt lat="43.0990970" lon="-0.9959040">
        <ele>817.0</ele>
        <time>2020-07-29T09:47:57Z</time>
      </trkpt>
      <trkpt lat="43.0990970" lon="-0.9960460">
        <ele>818.0</ele>
        <time>2020-07-29T09:48:00Z</time>
      </trkpt>
      <trkpt lat="43.0990940" lon="-0.9962380">
        <ele>819.0</ele>
        <time>2020-07-29T09:48:04Z</time>
      </trkpt>
      <trkpt lat="43.0990930" lon="-0.9962850">
        <ele>819.2</ele>
        <time>2020-07-29T09:48:05Z</time>
      </trkpt>
      <trkpt lat="43.0990910" lon="-0.9965090">
        <ele>820.0</ele>
        <time>2020-07-29T09:48:10Z</time>
      </trkpt>
      <trkpt lat="43.0990910" lon="-0.9965510">
        <ele>820.4</ele>
        <time>2020-07-29T09:48:11Z</time>
      </trkpt>
      <trkpt lat="43.0990760" lon="-0.9967150">
        <ele>821.2</ele>
        <time>2020-07-29T09:48:15Z</time>
      </trkpt>
      <trkpt lat="43.0990690" lon="-0.9967540">
        <ele>821.4</ele>
        <time>2020-07-29T09:48:16Z</time>
      </trkpt>
      <trkpt lat="43.0990300" lon="-0.9969040">
        <ele>822.2</ele>
        <time>2020-07-29T09:48:20Z</time>
      </trkpt>
      <trkpt lat="43.0990190" lon="-0.9969390">
        <ele>822.6</ele>
        <time>2020-07-29T09:48:21Z</time>
      </trkpt>
      <trkpt lat="43.0989840" lon="-0.9970430">
        <ele>823.4</ele>
        <time>2020-07-29T09:48:24Z</time>
      </trkpt>
      <trkpt lat="43.0989710" lon="-0.9970770">
        <ele>823.8</ele>
        <time>2020-07-29T09:48:25Z</time>
      </trkpt>
      <trkpt lat="43.0989310" lon="-0.9971820">
        <ele>825.2</ele>
        <time>2020-07-29T09:48:28Z</time>
      </trkpt>
      <trkpt lat="43.0988990" lon="-0.9972940">
        <ele>826.4</ele>
        <time>2020-07-29T09:48:31Z</time>
      </trkpt>
      <trkpt lat="43.0988920" lon="-0.9973340">
        <ele>826.6</ele>
        <time>2020-07-29T09:48:32Z</time>
      </trkpt>
      <trkpt lat="43.0988850" lon="-0.9973750">
        <ele>826.8</ele>
        <time>2020-07-29T09:48:33Z</time>
      </trkpt>
      <trkpt lat="43.0988700" lon="-0.9975020">
        <ele>827.4</ele>
        <time>2020-07-29T09:48:36Z</time>
      </trkpt>
      <trkpt lat="43.0988600" lon="-0.9976850">
        <ele>828.4</ele>
        <time>2020-07-29T09:48:40Z</time>
      </trkpt>
      <trkpt lat="43.0988590" lon="-0.9977760">
        <ele>828.6</ele>
        <time>2020-07-29T09:48:42Z</time>
      </trkpt>
      <trkpt lat="43.0988650" lon="-0.9980480">
        <ele>829.0</ele>
        <time>2020-07-29T09:48:48Z</time>
      </trkpt>
      <trkpt lat="43.0988680" lon="-0.9981360">
        <ele>829.4</ele>
        <time>2020-07-29T09:48:50Z</time>
      </trkpt>
      <trkpt lat="43.0988760" lon="-0.9983070">
        <ele>830.8</ele>
        <time>2020-07-29T09:48:54Z</time>
      </trkpt>
      <trkpt lat="43.0988930" lon="-0.9984760">
        <ele>832.0</ele>
        <time>2020-07-29T09:48:58Z</time>
      </trkpt>
      <trkpt lat="43.0989290" lon="-0.9987260">
        <ele>833.2</ele>
        <time>2020-07-29T09:49:04Z</time>
      </trkpt>
      <trkpt lat="43.0989350" lon="-0.9987680">
        <ele>833.4</ele>
        <time>2020-07-29T09:49:05Z</time>
      </trkpt>
      <trkpt lat="43.0989570" lon="-0.9989380">
        <ele>834.2</ele>
        <time>2020-07-29T09:49:09Z</time>
      </trkpt>
      <trkpt lat="43.0989750" lon="-0.9990640">
        <ele>835.2</ele>
        <time>2020-07-29T09:49:12Z</time>
      </trkpt>
      <trkpt lat="43.0990080" lon="-0.9992340">
        <ele>836.4</ele>
        <time>2020-07-29T09:49:16Z</time>
      </trkpt>
      <trkpt lat="43.0990280" lon="-0.9993140">
        <ele>836.6</ele>
        <time>2020-07-29T09:49:18Z</time>
      </trkpt>
      <trkpt lat="43.0990360" lon="-0.9993550">
        <ele>836.8</ele>
        <time>2020-07-29T09:49:19Z</time>
      </trkpt>
      <trkpt lat="43.0990500" lon="-0.9994360">
        <ele>837.4</ele>
        <time>2020-07-29T09:49:21Z</time>
      </trkpt>
      <trkpt lat="43.0990890" lon="-0.9995970">
        <ele>838.4</ele>
        <time>2020-07-29T09:49:25Z</time>
      </trkpt>
      <trkpt lat="43.0990990" lon="-0.9996380">
        <ele>838.6</ele>
        <time>2020-07-29T09:49:26Z</time>
      </trkpt>
      <trkpt lat="43.0991300" lon="-0.9997540">
        <ele>839.8</ele>
        <time>2020-07-29T09:49:29Z</time>
      </trkpt>
      <trkpt lat="43.0991700" lon="-0.9999520">
        <ele>841.0</ele>
        <time>2020-07-29T09:49:34Z</time>
      </trkpt>
      <trkpt lat="43.0991780" lon="-0.9999940">
        <ele>841.0</ele>
        <time>2020-07-29T09:49:35Z</time>
      </trkpt>
      <trkpt lat="43.0991940" lon="-1.0000780">
        <ele>841.6</ele>
        <time>2020-07-29T09:49:37Z</time>
      </trkpt>
      <trkpt lat="43.0992010" lon="-1.0001190">
        <ele>842.0</ele>
        <time>2020-07-29T09:49:38Z</time>
      </trkpt>
      <trkpt lat="43.0992400" lon="-1.0003310">
        <ele>843.2</ele>
        <time>2020-07-29T09:49:43Z</time>
      </trkpt>
      <trkpt lat="43.0992470" lon="-1.0003740">
        <ele>843.4</ele>
        <time>2020-07-29T09:49:44Z</time>
      </trkpt>
      <trkpt lat="43.0992700" lon="-1.0005010">
        <ele>844.2</ele>
        <time>2020-07-29T09:49:47Z</time>
      </trkpt>
      <trkpt lat="43.0992940" lon="-1.0006730">
        <ele>845.4</ele>
        <time>2020-07-29T09:49:51Z</time>
      </trkpt>
      <trkpt lat="43.0993070" lon="-1.0008080">
        <ele>846.0</ele>
        <time>2020-07-29T09:49:54Z</time>
      </trkpt>
      <trkpt lat="43.0993100" lon="-1.0008540">
        <ele>846.4</ele>
        <time>2020-07-29T09:49:55Z</time>
      </trkpt>
      <trkpt lat="43.0993210" lon="-1.0010330">
        <ele>847.4</ele>
        <time>2020-07-29T09:49:59Z</time>
      </trkpt>
      <trkpt lat="43.0993290" lon="-1.0013060">
        <ele>848.2</ele>
        <time>2020-07-29T09:50:05Z</time>
      </trkpt>
      <trkpt lat="43.0993280" lon="-1.0013930">
        <ele>848.6</ele>
        <time>2020-07-29T09:50:07Z</time>
      </trkpt>
      <trkpt lat="43.0993280" lon="-1.0015240">
        <ele>849.8</ele>
        <time>2020-07-29T09:50:10Z</time>
      </trkpt>
      <trkpt lat="43.0993380" lon="-1.0017430">
        <ele>851.0</ele>
        <time>2020-07-29T09:50:15Z</time>
      </trkpt>
      <trkpt lat="43.0993370" lon="-1.0018320">
        <ele>851.2</ele>
        <time>2020-07-29T09:50:17Z</time>
      </trkpt>
      <trkpt lat="43.0993360" lon="-1.0018760">
        <ele>851.4</ele>
        <time>2020-07-29T09:50:18Z</time>
      </trkpt>
      <trkpt lat="43.0993290" lon="-1.0020120">
        <ele>852.0</ele>
        <time>2020-07-29T09:50:21Z</time>
      </trkpt>
      <trkpt lat="43.0993170" lon="-1.0021450">
        <ele>852.6</ele>
        <time>2020-07-29T09:50:24Z</time>
      </trkpt>
      <trkpt lat="43.0992970" lon="-1.0022730">
        <ele>853.2</ele>
        <time>2020-07-29T09:50:27Z</time>
      </trkpt>
      <trkpt lat="43.0992580" lon="-1.0024790">
        <ele>854.4</ele>
        <time>2020-07-29T09:50:32Z</time>
      </trkpt>
      <trkpt lat="43.0992480" lon="-1.0025170">
        <ele>854.6</ele>
        <time>2020-07-29T09:50:33Z</time>
      </trkpt>
      <trkpt lat="43.0992260" lon="-1.0026340">
        <ele>855.4</ele>
        <time>2020-07-29T09:50:36Z</time>
      </trkpt>
      <trkpt lat="43.0992020" lon="-1.0027500">
        <ele>856.4</ele>
        <time>2020-07-29T09:50:39Z</time>
      </trkpt>
      <trkpt lat="43.0991940" lon="-1.0027870">
        <ele>856.6</ele>
        <time>2020-07-29T09:50:40Z</time>
      </trkpt>
      <trkpt lat="43.0991740" lon="-1.0028630">
        <ele>856.8</ele>
        <time>2020-07-29T09:50:42Z</time>
      </trkpt>
      <trkpt lat="43.0991320" lon="-1.0030420">
        <ele>857.6</ele>
        <time>2020-07-29T09:50:47Z</time>
      </trkpt>
      <trkpt lat="43.0991000" lon="-1.0031720">
        <ele>858.8</ele>
        <time>2020-07-29T09:50:51Z</time>
      </trkpt>
      <trkpt lat="43.0990340" lon="-1.0033070">
        <ele>859.4</ele>
        <time>2020-07-29T09:50:55Z</time>
      </trkpt>
      <trkpt lat="43.0990220" lon="-1.0033460">
        <ele>859.8</ele>
        <time>2020-07-29T09:50:56Z</time>
      </trkpt>
      <trkpt lat="43.0990010" lon="-1.0034260">
        <ele>860.2</ele>
        <time>2020-07-29T09:50:58Z</time>
      </trkpt>
      <trkpt lat="43.0989760" lon="-1.0035640">
        <ele>861.0</ele>
        <time>2020-07-29T09:51:01Z</time>
      </trkpt>
      <trkpt lat="43.0989040" lon="-1.0038050">
        <ele>861.8</ele>
        <time>2020-07-29T09:51:07Z</time>
      </trkpt>
      <trkpt lat="43.0988920" lon="-1.0038450">
        <ele>861.8</ele>
        <time>2020-07-29T09:51:08Z</time>
      </trkpt>
      <trkpt lat="43.0988490" lon="-1.0039730">
        <ele>862.0</ele>
        <time>2020-07-29T09:51:11Z</time>
      </trkpt>
      <trkpt lat="43.0988130" lon="-1.0040630">
        <ele>862.2</ele>
        <time>2020-07-29T09:51:13Z</time>
      </trkpt>
      <trkpt lat="43.0987560" lon="-1.0041990">
        <ele>862.8</ele>
        <time>2020-07-29T09:51:16Z</time>
      </trkpt>
      <trkpt lat="43.0987100" lon="-1.0042940">
        <ele>863.0</ele>
        <time>2020-07-29T09:51:18Z</time>
      </trkpt>
      <trkpt lat="43.0986450" lon="-1.0044330">
        <ele>863.2</ele>
        <time>2020-07-29T09:51:21Z</time>
      </trkpt>
      <trkpt lat="43.0986020" lon="-1.0045180">
        <ele>863.4</ele>
        <time>2020-07-29T09:51:23Z</time>
      </trkpt>
      <trkpt lat="43.0985270" lon="-1.0046880">
        <ele>863.6</ele>
        <time>2020-07-29T09:51:27Z</time>
      </trkpt>
      <trkpt lat="43.0984560" lon="-1.0048440">
        <ele>864.2</ele>
        <time>2020-07-29T09:51:31Z</time>
      </trkpt>
      <trkpt lat="43.0984210" lon="-1.0049190">
        <ele>864.4</ele>
        <time>2020-07-29T09:51:33Z</time>
      </trkpt>
      <trkpt lat="43.0983330" lon="-1.0050960">
        <ele>865.4</ele>
        <time>2020-07-29T09:51:38Z</time>
      </trkpt>
      <trkpt lat="43.0983050" lon="-1.0051680">
        <ele>865.8</ele>
        <time>2020-07-29T09:51:40Z</time>
      </trkpt>
      <trkpt lat="43.0982290" lon="-1.0053010">
        <ele>866.6</ele>
        <time>2020-07-29T09:51:44Z</time>
      </trkpt>
      <trkpt lat="43.0981780" lon="-1.0054010">
        <ele>867.6</ele>
        <time>2020-07-29T09:51:47Z</time>
      </trkpt>
      <trkpt lat="43.0981610" lon="-1.0054340">
        <ele>867.8</ele>
        <time>2020-07-29T09:51:48Z</time>
      </trkpt>
      <trkpt lat="43.0981450" lon="-1.0054670">
        <ele>868.0</ele>
        <time>2020-07-29T09:51:49Z</time>
      </trkpt>
      <trkpt lat="43.0981300" lon="-1.0055000">
        <ele>868.2</ele>
        <time>2020-07-29T09:51:50Z</time>
      </trkpt>
      <trkpt lat="43.0980990" lon="-1.0055630">
        <ele>868.8</ele>
        <time>2020-07-29T09:51:52Z</time>
      </trkpt>
      <trkpt lat="43.0980240" lon="-1.0057130">
        <ele>870.0</ele>
        <time>2020-07-29T09:51:57Z</time>
      </trkpt>
      <trkpt lat="43.0980080" lon="-1.0057430">
        <ele>870.4</ele>
        <time>2020-07-29T09:51:58Z</time>
      </trkpt>
      <trkpt lat="43.0979810" lon="-1.0058000">
        <ele>871.0</ele>
        <time>2020-07-29T09:52:00Z</time>
      </trkpt>
      <trkpt lat="43.0979330" lon="-1.0059070">
        <ele>872.2</ele>
        <time>2020-07-29T09:52:04Z</time>
      </trkpt>
      <trkpt lat="43.0979060" lon="-1.0059560">
        <ele>872.4</ele>
        <time>2020-07-29T09:52:06Z</time>
      </trkpt>
      <trkpt lat="43.0978680" lon="-1.0060300">
        <ele>873.2</ele>
        <time>2020-07-29T09:52:09Z</time>
      </trkpt>
      <trkpt lat="43.0977970" lon="-1.0061270">
        <ele>874.2</ele>
        <time>2020-07-29T09:52:14Z</time>
      </trkpt>
      <trkpt lat="43.0977440" lon="-1.0061840">
        <ele>875.2</ele>
        <time>2020-07-29T09:52:18Z</time>
      </trkpt>
      <trkpt lat="43.0977170" lon="-1.0062230">
        <ele>875.6</ele>
        <time>2020-07-29T09:52:20Z</time>
      </trkpt>
      <trkpt lat="43.0976460" lon="-1.0063070">
        <ele>876.2</ele>
        <time>2020-07-29T09:52:24Z</time>
      </trkpt>
      <trkpt lat="43.0976330" lon="-1.0063320">
        <ele>876.4</ele>
        <time>2020-07-29T09:52:25Z</time>
      </trkpt>
      <trkpt lat="43.0975900" lon="-1.0064030">
        <ele>877.2</ele>
        <time>2020-07-29T09:52:28Z</time>
      </trkpt>
      <trkpt lat="43.0975750" lon="-1.0064290">
        <ele>877.6</ele>
        <time>2020-07-29T09:52:29Z</time>
      </trkpt>
      <trkpt lat="43.0975320" lon="-1.0064990">
        <ele>878.2</ele>
        <time>2020-07-29T09:52:32Z</time>
      </trkpt>
      <trkpt lat="43.0974970" lon="-1.0065680">
        <ele>878.6</ele>
        <time>2020-07-29T09:52:35Z</time>
      </trkpt>
      <trkpt lat="43.0974450" lon="-1.0066690">
        <ele>879.6</ele>
        <time>2020-07-29T09:52:40Z</time>
      </trkpt>
      <trkpt lat="43.0974350" lon="-1.0066880">
        <ele>880.0</ele>
        <time>2020-07-29T09:52:41Z</time>
      </trkpt>
      <trkpt lat="43.0974170" lon="-1.0067300">
        <ele>880.6</ele>
        <time>2020-07-29T09:52:43Z</time>
      </trkpt>
      <trkpt lat="43.0973680" lon="-1.0068030">
        <ele>881.2</ele>
        <time>2020-07-29T09:52:47Z</time>
      </trkpt>
      <trkpt lat="43.0973490" lon="-1.0068390">
        <ele>881.8</ele>
        <time>2020-07-29T09:52:49Z</time>
      </trkpt>
      <trkpt lat="43.0973150" lon="-1.0069000">
        <ele>882.2</ele>
        <time>2020-07-29T09:52:52Z</time>
      </trkpt>
      <trkpt lat="43.0972770" lon="-1.0069720">
        <ele>882.6</ele>
        <time>2020-07-29T09:52:55Z</time>
      </trkpt>
      <trkpt lat="43.0972350" lon="-1.0070780">
        <ele>883.6</ele>
        <time>2020-07-29T09:52:59Z</time>
      </trkpt>
      <trkpt lat="43.0971970" lon="-1.0071750">
        <ele>884.6</ele>
        <time>2020-07-29T09:53:03Z</time>
      </trkpt>
      <trkpt lat="43.0971870" lon="-1.0071990">
        <ele>884.8</ele>
        <time>2020-07-29T09:53:04Z</time>
      </trkpt>
      <trkpt lat="43.0971400" lon="-1.0073070">
        <ele>885.8</ele>
        <time>2020-07-29T09:53:08Z</time>
      </trkpt>
      <trkpt lat="43.0970930" lon="-1.0073930">
        <ele>886.8</ele>
        <time>2020-07-29T09:53:11Z</time>
      </trkpt>
      <trkpt lat="43.0970800" lon="-1.0074210">
        <ele>887.0</ele>
        <time>2020-07-29T09:53:12Z</time>
      </trkpt>
      <trkpt lat="43.0970260" lon="-1.0075350">
        <ele>887.8</ele>
        <time>2020-07-29T09:53:16Z</time>
      </trkpt>
      <trkpt lat="43.0969800" lon="-1.0076390">
        <ele>888.8</ele>
        <time>2020-07-29T09:53:20Z</time>
      </trkpt>
      <trkpt lat="43.0969630" lon="-1.0076640">
        <ele>889.0</ele>
        <time>2020-07-29T09:53:21Z</time>
      </trkpt>
      <trkpt lat="43.0968840" lon="-1.0078020">
        <ele>890.2</ele>
        <time>2020-07-29T09:53:27Z</time>
      </trkpt>
      <trkpt lat="43.0968650" lon="-1.0078460">
        <ele>890.8</ele>
        <time>2020-07-29T09:53:29Z</time>
      </trkpt>
      <trkpt lat="43.0968450" lon="-1.0078940">
        <ele>891.0</ele>
        <time>2020-07-29T09:53:31Z</time>
      </trkpt>
      <trkpt lat="43.0968320" lon="-1.0079150">
        <ele>891.2</ele>
        <time>2020-07-29T09:53:32Z</time>
      </trkpt>
      <trkpt lat="43.0967860" lon="-1.0080020">
        <ele>892.2</ele>
        <time>2020-07-29T09:53:36Z</time>
      </trkpt>
      <trkpt lat="43.0967750" lon="-1.0080260">
        <ele>892.6</ele>
        <time>2020-07-29T09:53:37Z</time>
      </trkpt>
      <trkpt lat="43.0967390" lon="-1.0080900">
        <ele>893.4</ele>
        <time>2020-07-29T09:53:40Z</time>
      </trkpt>
      <trkpt lat="43.0966760" lon="-1.0081860">
        <ele>894.6</ele>
        <time>2020-07-29T09:53:45Z</time>
      </trkpt>
      <trkpt lat="43.0966640" lon="-1.0082060">
        <ele>894.8</ele>
        <time>2020-07-29T09:53:46Z</time>
      </trkpt>
      <trkpt lat="43.0965840" lon="-1.0083030">
        <ele>895.6</ele>
        <time>2020-07-29T09:53:51Z</time>
      </trkpt>
      <trkpt lat="43.0965720" lon="-1.0083190">
        <ele>896.0</ele>
        <time>2020-07-29T09:53:52Z</time>
      </trkpt>
      <trkpt lat="43.0965320" lon="-1.0083790">
        <ele>896.8</ele>
        <time>2020-07-29T09:53:55Z</time>
      </trkpt>
      <trkpt lat="43.0964750" lon="-1.0084750">
        <ele>897.4</ele>
        <time>2020-07-29T09:53:59Z</time>
      </trkpt>
      <trkpt lat="43.0964410" lon="-1.0085550">
        <ele>897.8</ele>
        <time>2020-07-29T09:54:02Z</time>
      </trkpt>
      <trkpt lat="43.0964100" lon="-1.0086580">
        <ele>898.8</ele>
        <time>2020-07-29T09:54:05Z</time>
      </trkpt>
      <trkpt lat="43.0964020" lon="-1.0086920">
        <ele>899.4</ele>
        <time>2020-07-29T09:54:06Z</time>
      </trkpt>
      <trkpt lat="43.0963850" lon="-1.0087640">
        <ele>900.0</ele>
        <time>2020-07-29T09:54:08Z</time>
      </trkpt>
      <trkpt lat="43.0963460" lon="-1.0089140">
        <ele>900.8</ele>
        <time>2020-07-29T09:54:13Z</time>
      </trkpt>
      <trkpt lat="43.0963390" lon="-1.0089440">
        <ele>901.0</ele>
        <time>2020-07-29T09:54:14Z</time>
      </trkpt>
      <trkpt lat="43.0963030" lon="-1.0090620">
        <ele>902.0</ele>
        <time>2020-07-29T09:54:18Z</time>
      </trkpt>
      <trkpt lat="43.0962920" lon="-1.0090900">
        <ele>902.2</ele>
        <time>2020-07-29T09:54:19Z</time>
      </trkpt>
      <trkpt lat="43.0962720" lon="-1.0091430">
        <ele>902.8</ele>
        <time>2020-07-29T09:54:21Z</time>
      </trkpt>
      <trkpt lat="43.0962400" lon="-1.0092310">
        <ele>903.4</ele>
        <time>2020-07-29T09:54:25Z</time>
      </trkpt>
      <trkpt lat="43.0962110" lon="-1.0093160">
        <ele>904.2</ele>
        <time>2020-07-29T09:54:29Z</time>
      </trkpt>
      <trkpt lat="43.0962040" lon="-1.0093400">
        <ele>904.4</ele>
        <time>2020-07-29T09:54:30Z</time>
      </trkpt>
      <trkpt lat="43.0961660" lon="-1.0094860">
        <ele>905.4</ele>
        <time>2020-07-29T09:54:36Z</time>
      </trkpt>
      <trkpt lat="43.0961600" lon="-1.0095110">
        <ele>905.8</ele>
        <time>2020-07-29T09:54:37Z</time>
      </trkpt>
      <trkpt lat="43.0961500" lon="-1.0095840">
        <ele>906.8</ele>
        <time>2020-07-29T09:54:40Z</time>
      </trkpt>
      <trkpt lat="43.0961120" lon="-1.0097040">
        <ele>908.0</ele>
        <time>2020-07-29T09:54:45Z</time>
      </trkpt>
      <trkpt lat="43.0960940" lon="-1.0097870">
        <ele>909.2</ele>
        <time>2020-07-29T09:54:48Z</time>
      </trkpt>
      <trkpt lat="43.0960570" lon="-1.0099230">
        <ele>910.2</ele>
        <time>2020-07-29T09:54:53Z</time>
      </trkpt>
      <trkpt lat="43.0960280" lon="-1.0100030">
        <ele>910.8</ele>
        <time>2020-07-29T09:54:56Z</time>
      </trkpt>
      <trkpt lat="43.0960140" lon="-1.0100610">
        <ele>911.2</ele>
        <time>2020-07-29T09:54:58Z</time>
      </trkpt>
      <trkpt lat="43.0959710" lon="-1.0101960">
        <ele>912.4</ele>
        <time>2020-07-29T09:55:03Z</time>
      </trkpt>
      <trkpt lat="43.0959570" lon="-1.0102230">
        <ele>912.6</ele>
        <time>2020-07-29T09:55:04Z</time>
      </trkpt>
      <trkpt lat="43.0959180" lon="-1.0103400">
        <ele>913.6</ele>
        <time>2020-07-29T09:55:08Z</time>
      </trkpt>
      <trkpt lat="43.0958820" lon="-1.0104240">
        <ele>914.4</ele>
        <time>2020-07-29T09:55:11Z</time>
      </trkpt>
      <trkpt lat="43.0958730" lon="-1.0104520">
        <ele>914.8</ele>
        <time>2020-07-29T09:55:12Z</time>
      </trkpt>
      <trkpt lat="43.0958360" lon="-1.0105930">
        <ele>916.0</ele>
        <time>2020-07-29T09:55:17Z</time>
      </trkpt>
      <trkpt lat="43.0958180" lon="-1.0106490">
        <ele>916.4</ele>
        <time>2020-07-29T09:55:19Z</time>
      </trkpt>
      <trkpt lat="43.0957950" lon="-1.0107280">
        <ele>917.2</ele>
        <time>2020-07-29T09:55:22Z</time>
      </trkpt>
      <trkpt lat="43.0957530" lon="-1.0108860">
        <ele>917.8</ele>
        <time>2020-07-29T09:55:27Z</time>
      </trkpt>
      <trkpt lat="43.0957320" lon="-1.0109510">
        <ele>918.2</ele>
        <time>2020-07-29T09:55:29Z</time>
      </trkpt>
      <trkpt lat="43.0956930" lon="-1.0110710">
        <ele>919.2</ele>
        <time>2020-07-29T09:55:33Z</time>
      </trkpt>
      <trkpt lat="43.0956720" lon="-1.0111310">
        <ele>919.8</ele>
        <time>2020-07-29T09:55:35Z</time>
      </trkpt>
      <trkpt lat="43.0956430" lon="-1.0112200">
        <ele>920.4</ele>
        <time>2020-07-29T09:55:38Z</time>
      </trkpt>
      <trkpt lat="43.0955950" lon="-1.0113280">
        <ele>921.4</ele>
        <time>2020-07-29T09:55:42Z</time>
      </trkpt>
      <trkpt lat="43.0955840" lon="-1.0113560">
        <ele>921.8</ele>
        <time>2020-07-29T09:55:43Z</time>
      </trkpt>
      <trkpt lat="43.0955470" lon="-1.0114390">
        <ele>922.4</ele>
        <time>2020-07-29T09:55:46Z</time>
      </trkpt>
      <trkpt lat="43.0955340" lon="-1.0114670">
        <ele>922.6</ele>
        <time>2020-07-29T09:55:47Z</time>
      </trkpt>
      <trkpt lat="43.0954940" lon="-1.0115620">
        <ele>923.2</ele>
        <time>2020-07-29T09:55:50Z</time>
      </trkpt>
      <trkpt lat="43.0954570" lon="-1.0116600">
        <ele>923.8</ele>
        <time>2020-07-29T09:55:53Z</time>
      </trkpt>
      <trkpt lat="43.0953920" lon="-1.0118320">
        <ele>924.8</ele>
        <time>2020-07-29T09:55:58Z</time>
      </trkpt>
      <trkpt lat="43.0953670" lon="-1.0119020">
        <ele>925.2</ele>
        <time>2020-07-29T09:56:00Z</time>
      </trkpt>
      <trkpt lat="43.0953330" lon="-1.0120120">
        <ele>926.0</ele>
        <time>2020-07-29T09:56:03Z</time>
      </trkpt>
      <trkpt lat="43.0952720" lon="-1.0122400">
        <ele>927.0</ele>
        <time>2020-07-29T09:56:09Z</time>
      </trkpt>
      <trkpt lat="43.0952630" lon="-1.0122780">
        <ele>927.2</ele>
        <time>2020-07-29T09:56:10Z</time>
      </trkpt>
      <trkpt lat="43.0952250" lon="-1.0124460">
        <ele>928.2</ele>
        <time>2020-07-29T09:56:15Z</time>
      </trkpt>
      <trkpt lat="43.0952170" lon="-1.0124770">
        <ele>928.4</ele>
        <time>2020-07-29T09:56:16Z</time>
      </trkpt>
      <trkpt lat="43.0951810" lon="-1.0126270">
        <ele>929.2</ele>
        <time>2020-07-29T09:56:20Z</time>
      </trkpt>
      <trkpt lat="43.0951570" lon="-1.0127060">
        <ele>929.8</ele>
        <time>2020-07-29T09:56:22Z</time>
      </trkpt>
      <trkpt lat="43.0951330" lon="-1.0127840">
        <ele>930.6</ele>
        <time>2020-07-29T09:56:24Z</time>
      </trkpt>
      <trkpt lat="43.0950660" lon="-1.0129640">
        <ele>931.6</ele>
        <time>2020-07-29T09:56:29Z</time>
      </trkpt>
      <trkpt lat="43.0950420" lon="-1.0130360">
        <ele>932.2</ele>
        <time>2020-07-29T09:56:31Z</time>
      </trkpt>
      <trkpt lat="43.0950150" lon="-1.0131080">
        <ele>932.6</ele>
        <time>2020-07-29T09:56:33Z</time>
      </trkpt>
      <trkpt lat="43.0949420" lon="-1.0133260">
        <ele>933.6</ele>
        <time>2020-07-29T09:56:39Z</time>
      </trkpt>
      <trkpt lat="43.0949310" lon="-1.0133650">
        <ele>933.8</ele>
        <time>2020-07-29T09:56:40Z</time>
      </trkpt>
      <trkpt lat="43.0949110" lon="-1.0134410">
        <ele>934.2</ele>
        <time>2020-07-29T09:56:42Z</time>
      </trkpt>
      <trkpt lat="43.0948870" lon="-1.0135580">
        <ele>934.8</ele>
        <time>2020-07-29T09:56:45Z</time>
      </trkpt>
      <trkpt lat="43.0948450" lon="-1.0137900">
        <ele>935.8</ele>
        <time>2020-07-29T09:56:51Z</time>
      </trkpt>
      <trkpt lat="43.0948160" lon="-1.0139830">
        <ele>937.0</ele>
        <time>2020-07-29T09:56:56Z</time>
      </trkpt>
      <trkpt lat="43.0947960" lon="-1.0141450">
        <ele>938.0</ele>
        <time>2020-07-29T09:57:00Z</time>
      </trkpt>
      <trkpt lat="43.0947730" lon="-1.0143040">
        <ele>939.2</ele>
        <time>2020-07-29T09:57:04Z</time>
      </trkpt>
      <trkpt lat="43.0947550" lon="-1.0144530">
        <ele>940.2</ele>
        <time>2020-07-29T09:57:08Z</time>
      </trkpt>
      <trkpt lat="43.0947510" lon="-1.0144900">
        <ele>940.4</ele>
        <time>2020-07-29T09:57:09Z</time>
      </trkpt>
      <trkpt lat="43.0947550" lon="-1.0146760">
        <ele>940.8</ele>
        <time>2020-07-29T09:57:15Z</time>
      </trkpt>
      <trkpt lat="43.0947550" lon="-1.0146810">
        <ele>941.0</ele>
        <time>2020-07-29T09:57:16Z</time>
      </trkpt>
      <trkpt lat="43.0947670" lon="-1.0147720">
        <ele>940.2</ele>
        <time>2020-07-29T09:58:43Z</time>
      </trkpt>
      <trkpt lat="43.0947670" lon="-1.0147930">
        <ele>940.2</ele>
        <time>2020-07-29T09:58:44Z</time>
      </trkpt>
      <trkpt lat="43.0947670" lon="-1.0148180">
        <ele>940.2</ele>
        <time>2020-07-29T09:58:45Z</time>
      </trkpt>
      <trkpt lat="43.0947730" lon="-1.0150200">
        <ele>940.8</ele>
        <time>2020-07-29T09:58:51Z</time>
      </trkpt>
      <trkpt lat="43.0947750" lon="-1.0150880">
        <ele>941.2</ele>
        <time>2020-07-29T09:58:53Z</time>
      </trkpt>
      <trkpt lat="43.0947670" lon="-1.0152350">
        <ele>942.2</ele>
        <time>2020-07-29T09:58:58Z</time>
      </trkpt>
      <trkpt lat="43.0947760" lon="-1.0152880">
        <ele>942.6</ele>
        <time>2020-07-29T09:59:00Z</time>
      </trkpt>
      <trkpt lat="43.0947900" lon="-1.0153280">
        <ele>943.2</ele>
        <time>2020-07-29T09:59:02Z</time>
      </trkpt>
      <trkpt lat="43.0947970" lon="-1.0153490">
        <ele>943.4</ele>
        <time>2020-07-29T09:59:03Z</time>
      </trkpt>
      <trkpt lat="43.0948160" lon="-1.0154140">
        <ele>943.8</ele>
        <time>2020-07-29T09:59:06Z</time>
      </trkpt>
      <trkpt lat="43.0948180" lon="-1.0154290">
        <ele>944.0</ele>
        <time>2020-07-29T09:59:11Z</time>
      </trkpt>
      <trkpt lat="43.0947980" lon="-1.0153450">
        <ele>944.0</ele>
        <time>2020-07-29T09:59:14Z</time>
      </trkpt>
      <trkpt lat="43.0947790" lon="-1.0153360">
        <ele>943.8</ele>
        <time>2020-07-29T09:59:15Z</time>
      </trkpt>
      <trkpt lat="43.0947490" lon="-1.0153450">
        <ele>943.6</ele>
        <time>2020-07-29T09:59:17Z</time>
      </trkpt>
      <trkpt lat="43.0947430" lon="-1.0153540">
        <ele>943.6</ele>
        <time>2020-07-29T09:59:19Z</time>
      </trkpt>
      <trkpt lat="43.0947330" lon="-1.0153550">
        <ele>943.4</ele>
        <time>2020-07-29T09:59:25Z</time>
      </trkpt>
      <trkpt lat="43.0947370" lon="-1.0153510">
        <ele>943.4</ele>
        <time>2020-07-29T09:59:31Z</time>
      </trkpt>
      <trkpt lat="43.0947370" lon="-1.0153510">
        <ele>943.4</ele>
        <time>2020-07-29T09:59:34Z</time>
      </trkpt>
      <trkpt lat="43.0947370" lon="-1.0153460">
        <ele>943.2</ele>
        <time>2020-07-29T09:59:40Z</time>
      </trkpt>
      <trkpt lat="43.0947400" lon="-1.0153210">
        <ele>942.8</ele>
        <time>2020-07-29T09:59:46Z</time>
      </trkpt>
      <trkpt lat="43.0947510" lon="-1.0152880">
        <ele>942.8</ele>
        <time>2020-07-29T09:59:49Z</time>
      </trkpt>
      <trkpt lat="43.0947800" lon="-1.0152580">
        <ele>942.8</ele>
        <time>2020-07-29T09:59:52Z</time>
      </trkpt>
      <trkpt lat="43.0947980" lon="-1.0152580">
        <ele>942.8</ele>
        <time>2020-07-29T09:59:53Z</time>
      </trkpt>
      <trkpt lat="43.0948290" lon="-1.0153140">
        <ele>942.8</ele>
        <time>2020-07-29T09:59:57Z</time>
      </trkpt>
      <trkpt lat="43.0948490" lon="-1.0154380">
        <ele>943.4</ele>
        <time>2020-07-29T10:00:01Z</time>
      </trkpt>
      <trkpt lat="43.0948540" lon="-1.0155790">
        <ele>944.6</ele>
        <time>2020-07-29T10:00:05Z</time>
      </trkpt>
      <trkpt lat="43.0948540" lon="-1.0156130">
        <ele>945.0</ele>
        <time>2020-07-29T10:00:06Z</time>
      </trkpt>
      <trkpt lat="43.0948520" lon="-1.0156800">
        <ele>945.4</ele>
        <time>2020-07-29T10:00:08Z</time>
      </trkpt>
      <trkpt lat="43.0948510" lon="-1.0157140">
        <ele>945.8</ele>
        <time>2020-07-29T10:00:09Z</time>
      </trkpt>
      <trkpt lat="43.0948490" lon="-1.0157490">
        <ele>946.0</ele>
        <time>2020-07-29T10:00:10Z</time>
      </trkpt>
      <trkpt lat="43.0948450" lon="-1.0158500">
        <ele>946.8</ele>
        <time>2020-07-29T10:00:13Z</time>
      </trkpt>
      <trkpt lat="43.0948440" lon="-1.0158810">
        <ele>947.2</ele>
        <time>2020-07-29T10:00:14Z</time>
      </trkpt>
      <trkpt lat="43.0948440" lon="-1.0159910">
        <ele>948.2</ele>
        <time>2020-07-29T10:00:18Z</time>
      </trkpt>
      <trkpt lat="43.0948450" lon="-1.0160450">
        <ele>948.8</ele>
        <time>2020-07-29T10:00:20Z</time>
      </trkpt>
      <trkpt lat="43.0948470" lon="-1.0160700">
        <ele>949.0</ele>
        <time>2020-07-29T10:00:21Z</time>
      </trkpt>
      <trkpt lat="43.0948510" lon="-1.0160950">
        <ele>949.2</ele>
        <time>2020-07-29T10:00:22Z</time>
      </trkpt>
      <trkpt lat="43.0948650" lon="-1.0161630">
        <ele>950.6</ele>
        <time>2020-07-29T10:00:25Z</time>
      </trkpt>
      <trkpt lat="43.0948740" lon="-1.0162370">
        <ele>951.8</ele>
        <time>2020-07-29T10:00:28Z</time>
      </trkpt>
      <trkpt lat="43.0948780" lon="-1.0162600">
        <ele>952.2</ele>
        <time>2020-07-29T10:00:29Z</time>
      </trkpt>
      <trkpt lat="43.0948860" lon="-1.0163300">
        <ele>952.8</ele>
        <time>2020-07-29T10:00:32Z</time>
      </trkpt>
      <trkpt lat="43.0948910" lon="-1.0164000">
        <ele>954.0</ele>
        <time>2020-07-29T10:00:35Z</time>
      </trkpt>
      <trkpt lat="43.0948920" lon="-1.0164730">
        <ele>955.2</ele>
        <time>2020-07-29T10:00:38Z</time>
      </trkpt>
      <trkpt lat="43.0948960" lon="-1.0165000">
        <ele>955.4</ele>
        <time>2020-07-29T10:00:39Z</time>
      </trkpt>
      <trkpt lat="43.0949030" lon="-1.0165490">
        <ele>956.0</ele>
        <time>2020-07-29T10:00:41Z</time>
      </trkpt>
      <trkpt lat="43.0949060" lon="-1.0165720">
        <ele>956.2</ele>
        <time>2020-07-29T10:00:42Z</time>
      </trkpt>
      <trkpt lat="43.0949230" lon="-1.0166590">
        <ele>957.4</ele>
        <time>2020-07-29T10:00:46Z</time>
      </trkpt>
      <trkpt lat="43.0949310" lon="-1.0167090">
        <ele>958.0</ele>
        <time>2020-07-29T10:00:48Z</time>
      </trkpt>
      <trkpt lat="43.0949360" lon="-1.0167360">
        <ele>958.4</ele>
        <time>2020-07-29T10:00:49Z</time>
      </trkpt>
      <trkpt lat="43.0949420" lon="-1.0168060">
        <ele>959.6</ele>
        <time>2020-07-29T10:00:52Z</time>
      </trkpt>
      <trkpt lat="43.0949480" lon="-1.0168430">
        <ele>960.2</ele>
        <time>2020-07-29T10:00:54Z</time>
      </trkpt>
      <trkpt lat="43.0949590" lon="-1.0168830">
        <ele>960.8</ele>
        <time>2020-07-29T10:00:56Z</time>
      </trkpt>
      <trkpt lat="43.0949780" lon="-1.0169660">
        <ele>962.0</ele>
        <time>2020-07-29T10:01:00Z</time>
      </trkpt>
      <trkpt lat="43.0949950" lon="-1.0170550">
        <ele>963.0</ele>
        <time>2020-07-29T10:01:04Z</time>
      </trkpt>
      <trkpt lat="43.0950160" lon="-1.0171360">
        <ele>964.0</ele>
        <time>2020-07-29T10:01:08Z</time>
      </trkpt>
      <trkpt lat="43.0950180" lon="-1.0171560">
        <ele>964.4</ele>
        <time>2020-07-29T10:01:09Z</time>
      </trkpt>
      <trkpt lat="43.0950160" lon="-1.0172080">
        <ele>965.6</ele>
        <time>2020-07-29T10:01:12Z</time>
      </trkpt>
      <trkpt lat="43.0950260" lon="-1.0173040">
        <ele>966.8</ele>
        <time>2020-07-29T10:01:17Z</time>
      </trkpt>
      <trkpt lat="43.0950290" lon="-1.0173210">
        <ele>967.0</ele>
        <time>2020-07-29T10:01:18Z</time>
      </trkpt>
      <trkpt lat="43.0950170" lon="-1.0173660">
        <ele>967.6</ele>
        <time>2020-07-29T10:01:23Z</time>
      </trkpt>
      <trkpt lat="43.0950160" lon="-1.0172460">
        <ele>967.6</ele>
        <time>2020-07-29T10:01:27Z</time>
      </trkpt>
      <trkpt lat="43.0949610" lon="-1.0169610">
        <ele>965.2</ele>
        <time>2020-07-29T10:01:32Z</time>
      </trkpt>
      <trkpt lat="43.0949490" lon="-1.0169040">
        <ele>964.4</ele>
        <time>2020-07-29T10:01:33Z</time>
      </trkpt>
      <trkpt lat="43.0949390" lon="-1.0168500">
        <ele>963.4</ele>
        <time>2020-07-29T10:01:34Z</time>
      </trkpt>
      <trkpt lat="43.0949220" lon="-1.0167520">
        <ele>962.0</ele>
        <time>2020-07-29T10:01:36Z</time>
      </trkpt>
      <trkpt lat="43.0949090" lon="-1.0166440">
        <ele>960.8</ele>
        <time>2020-07-29T10:01:38Z</time>
      </trkpt>
      <trkpt lat="43.0949030" lon="-1.0165760">
        <ele>960.0</ele>
        <time>2020-07-29T10:01:39Z</time>
      </trkpt>
      <trkpt lat="43.0948990" lon="-1.0165040">
        <ele>959.2</ele>
        <time>2020-07-29T10:01:40Z</time>
      </trkpt>
      <trkpt lat="43.0948930" lon="-1.0163630">
        <ele>957.6</ele>
        <time>2020-07-29T10:01:42Z</time>
      </trkpt>
      <trkpt lat="43.0948790" lon="-1.0162180">
        <ele>956.4</ele>
        <time>2020-07-29T10:01:44Z</time>
      </trkpt>
      <trkpt lat="43.0948660" lon="-1.0161420">
        <ele>955.4</ele>
        <time>2020-07-29T10:01:45Z</time>
      </trkpt>
      <trkpt lat="43.0948540" lon="-1.0160600">
        <ele>954.4</ele>
        <time>2020-07-29T10:01:46Z</time>
      </trkpt>
      <trkpt lat="43.0948410" lon="-1.0158790">
        <ele>952.6</ele>
        <time>2020-07-29T10:01:48Z</time>
      </trkpt>
      <trkpt lat="43.0948390" lon="-1.0157850">
        <ele>951.4</ele>
        <time>2020-07-29T10:01:49Z</time>
      </trkpt>
      <trkpt lat="43.0948410" lon="-1.0156940">
        <ele>950.2</ele>
        <time>2020-07-29T10:01:50Z</time>
      </trkpt>
      <trkpt lat="43.0948420" lon="-1.0156050">
        <ele>949.0</ele>
        <time>2020-07-29T10:01:51Z</time>
      </trkpt>
      <trkpt lat="43.0948380" lon="-1.0154430">
        <ele>947.0</ele>
        <time>2020-07-29T10:01:53Z</time>
      </trkpt>
      <trkpt lat="43.0948330" lon="-1.0153240">
        <ele>945.2</ele>
        <time>2020-07-29T10:01:55Z</time>
      </trkpt>
      <trkpt lat="43.0948330" lon="-1.0152840">
        <ele>944.8</ele>
        <time>2020-07-29T10:01:56Z</time>
      </trkpt>
      <trkpt lat="43.0948250" lon="-1.0152560">
        <ele>944.4</ele>
        <time>2020-07-29T10:01:57Z</time>
      </trkpt>
      <trkpt lat="43.0948130" lon="-1.0152410">
        <ele>944.2</ele>
        <time>2020-07-29T10:01:58Z</time>
      </trkpt>
      <trkpt lat="43.0948060" lon="-1.0152350">
        <ele>944.0</ele>
        <time>2020-07-29T10:01:59Z</time>
      </trkpt>
      <trkpt lat="43.0948050" lon="-1.0152430">
        <ele>944.0</ele>
        <time>2020-07-29T10:02:01Z</time>
      </trkpt>
      <trkpt lat="43.0947510" lon="-1.0153700">
        <ele>944.2</ele>
        <time>2020-07-29T10:02:12Z</time>
      </trkpt>
      <trkpt lat="43.0947570" lon="-1.0154420">
        <ele>944.4</ele>
        <time>2020-07-29T10:02:14Z</time>
      </trkpt>
      <trkpt lat="43.0947580" lon="-1.0156740">
        <ele>944.6</ele>
        <time>2020-07-29T10:02:20Z</time>
      </trkpt>
      <trkpt lat="43.0947550" lon="-1.0157220">
        <ele>944.8</ele>
        <time>2020-07-29T10:02:21Z</time>
      </trkpt>
      <trkpt lat="43.0947490" lon="-1.0158290">
        <ele>945.4</ele>
        <time>2020-07-29T10:02:23Z</time>
      </trkpt>
      <trkpt lat="43.0947160" lon="-1.0161130">
        <ele>946.0</ele>
        <time>2020-07-29T10:02:28Z</time>
      </trkpt>
      <trkpt lat="43.0946930" lon="-1.0162210">
        <ele>946.4</ele>
        <time>2020-07-29T10:02:30Z</time>
      </trkpt>
      <trkpt lat="43.0946150" lon="-1.0164760">
        <ele>947.4</ele>
        <time>2020-07-29T10:02:35Z</time>
      </trkpt>
      <trkpt lat="43.0945940" lon="-1.0165220">
        <ele>947.6</ele>
        <time>2020-07-29T10:02:36Z</time>
      </trkpt>
      <trkpt lat="43.0944600" lon="-1.0167160">
        <ele>948.6</ele>
        <time>2020-07-29T10:02:41Z</time>
      </trkpt>
      <trkpt lat="43.0943870" lon="-1.0167960">
        <ele>948.8</ele>
        <time>2020-07-29T10:02:43Z</time>
      </trkpt>
      <trkpt lat="43.0943490" lon="-1.0168420">
        <ele>948.8</ele>
        <time>2020-07-29T10:02:44Z</time>
      </trkpt>
      <trkpt lat="43.0942910" lon="-1.0169500">
        <ele>949.2</ele>
        <time>2020-07-29T10:02:46Z</time>
      </trkpt>
      <trkpt lat="43.0942690" lon="-1.0170750">
        <ele>949.4</ele>
        <time>2020-07-29T10:02:48Z</time>
      </trkpt>
      <trkpt lat="43.0942660" lon="-1.0172080">
        <ele>949.4</ele>
        <time>2020-07-29T10:02:50Z</time>
      </trkpt>
      <trkpt lat="43.0942740" lon="-1.0173260">
        <ele>950.0</ele>
        <time>2020-07-29T10:02:52Z</time>
      </trkpt>
      <trkpt lat="43.0942870" lon="-1.0174720">
        <ele>951.0</ele>
        <time>2020-07-29T10:02:55Z</time>
      </trkpt>
      <trkpt lat="43.0942970" lon="-1.0176100">
        <ele>952.4</ele>
        <time>2020-07-29T10:02:58Z</time>
      </trkpt>
      <trkpt lat="43.0943190" lon="-1.0177410">
        <ele>953.2</ele>
        <time>2020-07-29T10:03:01Z</time>
      </trkpt>
      <trkpt lat="43.0943260" lon="-1.0177860">
        <ele>953.4</ele>
        <time>2020-07-29T10:03:02Z</time>
      </trkpt>
      <trkpt lat="43.0943520" lon="-1.0179620">
        <ele>954.4</ele>
        <time>2020-07-29T10:03:06Z</time>
      </trkpt>
      <trkpt lat="43.0943660" lon="-1.0180570">
        <ele>954.8</ele>
        <time>2020-07-29T10:03:08Z</time>
      </trkpt>
      <trkpt lat="43.0943950" lon="-1.0183080">
        <ele>955.4</ele>
        <time>2020-07-29T10:03:13Z</time>
      </trkpt>
      <trkpt lat="43.0944250" lon="-1.0186030">
        <ele>956.2</ele>
        <time>2020-07-29T10:03:19Z</time>
      </trkpt>
      <trkpt lat="43.0944260" lon="-1.0186990">
        <ele>956.4</ele>
        <time>2020-07-29T10:03:21Z</time>
      </trkpt>
      <trkpt lat="43.0944270" lon="-1.0187460">
        <ele>956.8</ele>
        <time>2020-07-29T10:03:22Z</time>
      </trkpt>
      <trkpt lat="43.0944230" lon="-1.0189880">
        <ele>957.6</ele>
        <time>2020-07-29T10:03:27Z</time>
      </trkpt>
      <trkpt lat="43.0944080" lon="-1.0191740">
        <ele>958.6</ele>
        <time>2020-07-29T10:03:31Z</time>
      </trkpt>
      <trkpt lat="43.0943730" lon="-1.0192850">
        <ele>959.6</ele>
        <time>2020-07-29T10:03:34Z</time>
      </trkpt>
      <trkpt lat="43.0943590" lon="-1.0193180">
        <ele>960.0</ele>
        <time>2020-07-29T10:03:35Z</time>
      </trkpt>
      <trkpt lat="43.0942770" lon="-1.0194110">
        <ele>961.2</ele>
        <time>2020-07-29T10:03:39Z</time>
      </trkpt>
      <trkpt lat="43.0942480" lon="-1.0194210">
        <ele>961.2</ele>
        <time>2020-07-29T10:03:40Z</time>
      </trkpt>
      <trkpt lat="43.0940800" lon="-1.0194510">
        <ele>962.2</ele>
        <time>2020-07-29T10:03:45Z</time>
      </trkpt>
      <trkpt lat="43.0939710" lon="-1.0194560">
        <ele>962.8</ele>
        <time>2020-07-29T10:03:48Z</time>
      </trkpt>
      <trkpt lat="43.0938750" lon="-1.0195310">
        <ele>963.4</ele>
        <time>2020-07-29T10:03:51Z</time>
      </trkpt>
      <trkpt lat="43.0938550" lon="-1.0195660">
        <ele>963.4</ele>
        <time>2020-07-29T10:03:52Z</time>
      </trkpt>
      <trkpt lat="43.0938300" lon="-1.0198040">
        <ele>963.8</ele>
        <time>2020-07-29T10:03:57Z</time>
      </trkpt>
      <trkpt lat="43.0938360" lon="-1.0200790">
        <ele>964.4</ele>
        <time>2020-07-29T10:04:02Z</time>
      </trkpt>
      <trkpt lat="43.0938310" lon="-1.0202420">
        <ele>965.2</ele>
        <time>2020-07-29T10:04:05Z</time>
      </trkpt>
      <trkpt lat="43.0938290" lon="-1.0202960">
        <ele>965.4</ele>
        <time>2020-07-29T10:04:06Z</time>
      </trkpt>
      <trkpt lat="43.0938270" lon="-1.0203490">
        <ele>965.6</ele>
        <time>2020-07-29T10:04:07Z</time>
      </trkpt>
      <trkpt lat="43.0938030" lon="-1.0206380">
        <ele>966.0</ele>
        <time>2020-07-29T10:04:13Z</time>
      </trkpt>
      <trkpt lat="43.0937980" lon="-1.0206820">
        <ele>966.2</ele>
        <time>2020-07-29T10:04:14Z</time>
      </trkpt>
      <trkpt lat="43.0937920" lon="-1.0207250">
        <ele>966.6</ele>
        <time>2020-07-29T10:04:15Z</time>
      </trkpt>
      <trkpt lat="43.0937730" lon="-1.0208580">
        <ele>967.6</ele>
        <time>2020-07-29T10:04:18Z</time>
      </trkpt>
      <trkpt lat="43.0937380" lon="-1.0210400">
        <ele>968.6</ele>
        <time>2020-07-29T10:04:22Z</time>
      </trkpt>
      <trkpt lat="43.0937030" lon="-1.0211740">
        <ele>969.2</ele>
        <time>2020-07-29T10:04:25Z</time>
      </trkpt>
      <trkpt lat="43.0936590" lon="-1.0214010">
        <ele>970.0</ele>
        <time>2020-07-29T10:04:30Z</time>
      </trkpt>
      <trkpt lat="43.0936360" lon="-1.0215450">
        <ele>970.8</ele>
        <time>2020-07-29T10:04:33Z</time>
      </trkpt>
      <trkpt lat="43.0936300" lon="-1.0215940">
        <ele>971.2</ele>
        <time>2020-07-29T10:04:34Z</time>
      </trkpt>
      <trkpt lat="43.0936140" lon="-1.0218400">
        <ele>972.4</ele>
        <time>2020-07-29T10:04:39Z</time>
      </trkpt>
      <trkpt lat="43.0936180" lon="-1.0219410">
        <ele>973.0</ele>
        <time>2020-07-29T10:04:41Z</time>
      </trkpt>
      <trkpt lat="43.0936440" lon="-1.0220900">
        <ele>973.4</ele>
        <time>2020-07-29T10:04:44Z</time>
      </trkpt>
      <trkpt lat="43.0937140" lon="-1.0223260">
        <ele>974.6</ele>
        <time>2020-07-29T10:04:49Z</time>
      </trkpt>
      <trkpt lat="43.0937800" lon="-1.0224530">
        <ele>976.0</ele>
        <time>2020-07-29T10:04:52Z</time>
      </trkpt>
      <trkpt lat="43.0938280" lon="-1.0225290">
        <ele>976.6</ele>
        <time>2020-07-29T10:04:54Z</time>
      </trkpt>
      <trkpt lat="43.0938510" lon="-1.0225680">
        <ele>977.0</ele>
        <time>2020-07-29T10:04:55Z</time>
      </trkpt>
      <trkpt lat="43.0938750" lon="-1.0226050">
        <ele>977.2</ele>
        <time>2020-07-29T10:04:56Z</time>
      </trkpt>
      <trkpt lat="43.0940240" lon="-1.0228390">
        <ele>978.0</ele>
        <time>2020-07-29T10:05:02Z</time>
      </trkpt>
      <trkpt lat="43.0940430" lon="-1.0228840">
        <ele>978.2</ele>
        <time>2020-07-29T10:05:03Z</time>
      </trkpt>
      <trkpt lat="43.0940580" lon="-1.0229300">
        <ele>978.4</ele>
        <time>2020-07-29T10:05:04Z</time>
      </trkpt>
      <trkpt lat="43.0941060" lon="-1.0231800">
        <ele>979.4</ele>
        <time>2020-07-29T10:05:09Z</time>
      </trkpt>
      <trkpt lat="43.0941160" lon="-1.0232290">
        <ele>979.6</ele>
        <time>2020-07-29T10:05:10Z</time>
      </trkpt>
      <trkpt lat="43.0941760" lon="-1.0234720">
        <ele>980.6</ele>
        <time>2020-07-29T10:05:15Z</time>
      </trkpt>
      <trkpt lat="43.0942010" lon="-1.0235660">
        <ele>981.0</ele>
        <time>2020-07-29T10:05:17Z</time>
      </trkpt>
      <trkpt lat="43.0942240" lon="-1.0236600">
        <ele>981.2</ele>
        <time>2020-07-29T10:05:19Z</time>
      </trkpt>
      <trkpt lat="43.0942390" lon="-1.0237530">
        <ele>981.8</ele>
        <time>2020-07-29T10:05:21Z</time>
      </trkpt>
      <trkpt lat="43.0942430" lon="-1.0238370">
        <ele>982.6</ele>
        <time>2020-07-29T10:05:23Z</time>
      </trkpt>
      <trkpt lat="43.0942380" lon="-1.0238780">
        <ele>983.0</ele>
        <time>2020-07-29T10:05:24Z</time>
      </trkpt>
      <trkpt lat="43.0942320" lon="-1.0239200">
        <ele>983.2</ele>
        <time>2020-07-29T10:05:25Z</time>
      </trkpt>
      <trkpt lat="43.0942170" lon="-1.0240200">
        <ele>984.0</ele>
        <time>2020-07-29T10:05:28Z</time>
      </trkpt>
      <trkpt lat="43.0941980" lon="-1.0240770">
        <ele>984.4</ele>
        <time>2020-07-29T10:05:30Z</time>
      </trkpt>
      <trkpt lat="43.0941790" lon="-1.0241360">
        <ele>984.8</ele>
        <time>2020-07-29T10:05:32Z</time>
      </trkpt>
      <trkpt lat="43.0941680" lon="-1.0241600">
        <ele>984.8</ele>
        <time>2020-07-29T10:05:33Z</time>
      </trkpt>
      <trkpt lat="43.0941250" lon="-1.0242240">
        <ele>984.8</ele>
        <time>2020-07-29T10:05:36Z</time>
      </trkpt>
      <trkpt lat="43.0940750" lon="-1.0242970">
        <ele>985.2</ele>
        <time>2020-07-29T10:05:39Z</time>
      </trkpt>
      <trkpt lat="43.0940360" lon="-1.0243990">
        <ele>985.8</ele>
        <time>2020-07-29T10:05:42Z</time>
      </trkpt>
      <trkpt lat="43.0940260" lon="-1.0244830">
        <ele>986.0</ele>
        <time>2020-07-29T10:05:47Z</time>
      </trkpt>
      <trkpt lat="43.0940270" lon="-1.0244940">
        <ele>986.0</ele>
        <time>2020-07-29T10:05:48Z</time>
      </trkpt>
      <trkpt lat="43.0940370" lon="-1.0245460">
        <ele>985.8</ele>
        <time>2020-07-29T10:05:53Z</time>
      </trkpt>
      <trkpt lat="43.0940390" lon="-1.0245700">
        <ele>985.8</ele>
        <time>2020-07-29T10:05:55Z</time>
      </trkpt>
      <trkpt lat="43.0940450" lon="-1.0246140">
        <ele>986.2</ele>
        <time>2020-07-29T10:05:59Z</time>
      </trkpt>
      <trkpt lat="43.0940460" lon="-1.0246230">
        <ele>986.2</ele>
        <time>2020-07-29T10:06:00Z</time>
      </trkpt>
      <trkpt lat="43.0940540" lon="-1.0246480">
        <ele>986.0</ele>
        <time>2020-07-29T10:06:02Z</time>
      </trkpt>
      <trkpt lat="43.0940670" lon="-1.0246830">
        <ele>986.0</ele>
        <time>2020-07-29T10:06:05Z</time>
      </trkpt>
      <trkpt lat="43.0940870" lon="-1.0247810">
        <ele>986.0</ele>
        <time>2020-07-29T10:06:11Z</time>
      </trkpt>
      <trkpt lat="43.0940900" lon="-1.0248290">
        <ele>985.8</ele>
        <time>2020-07-29T10:06:14Z</time>
      </trkpt>
      <trkpt lat="43.0940910" lon="-1.0248430">
        <ele>985.8</ele>
        <time>2020-07-29T10:06:15Z</time>
      </trkpt>
      <trkpt lat="43.0940980" lon="-1.0248680">
        <ele>986.0</ele>
        <time>2020-07-29T10:06:17Z</time>
      </trkpt>
      <trkpt lat="43.0941020" lon="-1.0248810">
        <ele>986.0</ele>
        <time>2020-07-29T10:06:18Z</time>
      </trkpt>
      <trkpt lat="43.0941050" lon="-1.0249050">
        <ele>986.0</ele>
        <time>2020-07-29T10:06:20Z</time>
      </trkpt>
      <trkpt lat="43.0941220" lon="-1.0249750">
        <ele>986.0</ele>
        <time>2020-07-29T10:06:26Z</time>
      </trkpt>
      <trkpt lat="43.0941280" lon="-1.0250090">
        <ele>986.0</ele>
        <time>2020-07-29T10:06:29Z</time>
      </trkpt>
      <trkpt lat="43.0941340" lon="-1.0250510">
        <ele>986.4</ele>
        <time>2020-07-29T10:06:34Z</time>
      </trkpt>
      <trkpt lat="43.0941390" lon="-1.0250930">
        <ele>986.4</ele>
        <time>2020-07-29T10:06:39Z</time>
      </trkpt>
      <trkpt lat="43.0941470" lon="-1.0251760">
        <ele>986.6</ele>
        <time>2020-07-29T10:06:45Z</time>
      </trkpt>
      <trkpt lat="43.0941470" lon="-1.0251890">
        <ele>986.8</ele>
        <time>2020-07-29T10:06:46Z</time>
      </trkpt>
      <trkpt lat="43.0941480" lon="-1.0252110">
        <ele>986.8</ele>
        <time>2020-07-29T10:06:48Z</time>
      </trkpt>
      <trkpt lat="43.0941740" lon="-1.0253480">
        <ele>987.0</ele>
        <time>2020-07-29T10:06:54Z</time>
      </trkpt>
      <trkpt lat="43.0941790" lon="-1.0254190">
        <ele>987.2</ele>
        <time>2020-07-29T10:06:56Z</time>
      </trkpt>
      <trkpt lat="43.0941820" lon="-1.0254850">
        <ele>987.6</ele>
        <time>2020-07-29T10:06:59Z</time>
      </trkpt>
      <trkpt lat="43.0941810" lon="-1.0255120">
        <ele>988.2</ele>
        <time>2020-07-29T10:07:01Z</time>
      </trkpt>
      <trkpt lat="43.0941780" lon="-1.0255380">
        <ele>988.4</ele>
        <time>2020-07-29T10:07:06Z</time>
      </trkpt>
      <trkpt lat="43.0941690" lon="-1.0255610">
        <ele>988.4</ele>
        <time>2020-07-29T10:07:09Z</time>
      </trkpt>
      <trkpt lat="43.0941720" lon="-1.0255850">
        <ele>988.4</ele>
        <time>2020-07-29T10:07:10Z</time>
      </trkpt>
      <trkpt lat="43.0941780" lon="-1.0256490">
        <ele>988.4</ele>
        <time>2020-07-29T10:07:12Z</time>
      </trkpt>
      <trkpt lat="43.0941780" lon="-1.0257350">
        <ele>988.8</ele>
        <time>2020-07-29T10:07:16Z</time>
      </trkpt>
      <trkpt lat="43.0941760" lon="-1.0257480">
        <ele>989.0</ele>
        <time>2020-07-29T10:07:17Z</time>
      </trkpt>
      <trkpt lat="43.0941740" lon="-1.0258030">
        <ele>989.2</ele>
        <time>2020-07-29T10:07:20Z</time>
      </trkpt>
      <trkpt lat="43.0941660" lon="-1.0258940">
        <ele>989.4</ele>
        <time>2020-07-29T10:07:22Z</time>
      </trkpt>
      <trkpt lat="43.0941300" lon="-1.0259940">
        <ele>989.6</ele>
        <time>2020-07-29T10:07:24Z</time>
      </trkpt>
      <trkpt lat="43.0940840" lon="-1.0260910">
        <ele>989.6</ele>
        <time>2020-07-29T10:07:26Z</time>
      </trkpt>
      <trkpt lat="43.0940320" lon="-1.0262490">
        <ele>990.4</ele>
        <time>2020-07-29T10:07:29Z</time>
      </trkpt>
      <trkpt lat="43.0940250" lon="-1.0263050">
        <ele>990.8</ele>
        <time>2020-07-29T10:07:30Z</time>
      </trkpt>
      <trkpt lat="43.0940250" lon="-1.0263620">
        <ele>991.2</ele>
        <time>2020-07-29T10:07:31Z</time>
      </trkpt>
      <trkpt lat="43.0940290" lon="-1.0264180">
        <ele>991.6</ele>
        <time>2020-07-29T10:07:32Z</time>
      </trkpt>
      <trkpt lat="43.0940480" lon="-1.0266310">
        <ele>992.8</ele>
        <time>2020-07-29T10:07:36Z</time>
      </trkpt>
      <trkpt lat="43.0940580" lon="-1.0267950">
        <ele>993.8</ele>
        <time>2020-07-29T10:07:39Z</time>
      </trkpt>
      <trkpt lat="43.0940590" lon="-1.0268480">
        <ele>994.2</ele>
        <time>2020-07-29T10:07:40Z</time>
      </trkpt>
      <trkpt lat="43.0940580" lon="-1.0271090">
        <ele>995.0</ele>
        <time>2020-07-29T10:07:45Z</time>
      </trkpt>
      <trkpt lat="43.0940650" lon="-1.0271640">
        <ele>995.0</ele>
        <time>2020-07-29T10:07:46Z</time>
      </trkpt>
      <trkpt lat="43.0941180" lon="-1.0274570">
        <ele>995.4</ele>
        <time>2020-07-29T10:07:51Z</time>
      </trkpt>
      <trkpt lat="43.0941300" lon="-1.0275230">
        <ele>995.4</ele>
        <time>2020-07-29T10:07:52Z</time>
      </trkpt>
      <trkpt lat="43.0941430" lon="-1.0275920">
        <ele>995.4</ele>
        <time>2020-07-29T10:07:53Z</time>
      </trkpt>
      <trkpt lat="43.0942150" lon="-1.0278880">
        <ele>995.0</ele>
        <time>2020-07-29T10:07:57Z</time>
      </trkpt>
      <trkpt lat="43.0942520" lon="-1.0280410">
        <ele>995.0</ele>
        <time>2020-07-29T10:07:59Z</time>
      </trkpt>
      <trkpt lat="43.0943500" lon="-1.0283970">
        <ele>994.8</ele>
        <time>2020-07-29T10:08:04Z</time>
      </trkpt>
      <trkpt lat="43.0943970" lon="-1.0285360">
        <ele>994.8</ele>
        <time>2020-07-29T10:08:06Z</time>
      </trkpt>
      <trkpt lat="43.0945260" lon="-1.0289340">
        <ele>995.8</ele>
        <time>2020-07-29T10:08:12Z</time>
      </trkpt>
      <trkpt lat="43.0945460" lon="-1.0289970">
        <ele>996.0</ele>
        <time>2020-07-29T10:08:13Z</time>
      </trkpt>
      <trkpt lat="43.0945670" lon="-1.0290600">
        <ele>996.2</ele>
        <time>2020-07-29T10:08:14Z</time>
      </trkpt>
      <trkpt lat="43.0946090" lon="-1.0291870">
        <ele>996.4</ele>
        <time>2020-07-29T10:08:16Z</time>
      </trkpt>
      <trkpt lat="43.0946830" lon="-1.0294570">
        <ele>996.2</ele>
        <time>2020-07-29T10:08:20Z</time>
      </trkpt>
      <trkpt lat="43.0946930" lon="-1.0295990">
        <ele>996.0</ele>
        <time>2020-07-29T10:08:22Z</time>
      </trkpt>
      <trkpt lat="43.0946700" lon="-1.0300140">
        <ele>996.0</ele>
        <time>2020-07-29T10:08:28Z</time>
      </trkpt>
      <trkpt lat="43.0946630" lon="-1.0300780">
        <ele>995.8</ele>
        <time>2020-07-29T10:08:29Z</time>
      </trkpt>
      <trkpt lat="43.0946360" lon="-1.0304430">
        <ele>996.0</ele>
        <time>2020-07-29T10:08:35Z</time>
      </trkpt>
      <trkpt lat="43.0946350" lon="-1.0304990">
        <ele>996.4</ele>
        <time>2020-07-29T10:08:36Z</time>
      </trkpt>
      <trkpt lat="43.0946290" lon="-1.0306020">
        <ele>997.0</ele>
        <time>2020-07-29T10:08:38Z</time>
      </trkpt>
      <trkpt lat="43.0946250" lon="-1.0307860">
        <ele>998.0</ele>
        <time>2020-07-29T10:08:42Z</time>
      </trkpt>
      <trkpt lat="43.0946260" lon="-1.0308330">
        <ele>998.4</ele>
        <time>2020-07-29T10:08:43Z</time>
      </trkpt>
      <trkpt lat="43.0946400" lon="-1.0310670">
        <ele>999.6</ele>
        <time>2020-07-29T10:08:48Z</time>
      </trkpt>
      <trkpt lat="43.0946610" lon="-1.0312430">
        <ele>1000.8</ele>
        <time>2020-07-29T10:08:52Z</time>
      </trkpt>
      <trkpt lat="43.0946830" lon="-1.0313670">
        <ele>1001.6</ele>
        <time>2020-07-29T10:08:55Z</time>
      </trkpt>
      <trkpt lat="43.0946900" lon="-1.0314060">
        <ele>1001.8</ele>
        <time>2020-07-29T10:08:56Z</time>
      </trkpt>
      <trkpt lat="43.0947270" lon="-1.0316000">
        <ele>1003.0</ele>
        <time>2020-07-29T10:09:01Z</time>
      </trkpt>
      <trkpt lat="43.0947460" lon="-1.0316810">
        <ele>1003.2</ele>
        <time>2020-07-29T10:09:03Z</time>
      </trkpt>
      <trkpt lat="43.0947620" lon="-1.0317650">
        <ele>1003.8</ele>
        <time>2020-07-29T10:09:05Z</time>
      </trkpt>
      <trkpt lat="43.0947730" lon="-1.0318510">
        <ele>1004.0</ele>
        <time>2020-07-29T10:09:07Z</time>
      </trkpt>
      <trkpt lat="43.0947830" lon="-1.0321250">
        <ele>1004.6</ele>
        <time>2020-07-29T10:09:13Z</time>
      </trkpt>
      <trkpt lat="43.0947830" lon="-1.0322160">
        <ele>1005.2</ele>
        <time>2020-07-29T10:09:15Z</time>
      </trkpt>
      <trkpt lat="43.0947830" lon="-1.0323460">
        <ele>1005.8</ele>
        <time>2020-07-29T10:09:18Z</time>
      </trkpt>
      <trkpt lat="43.0947840" lon="-1.0324660">
        <ele>1006.4</ele>
        <time>2020-07-29T10:09:21Z</time>
      </trkpt>
      <trkpt lat="43.0947770" lon="-1.0325020">
        <ele>1006.4</ele>
        <time>2020-07-29T10:09:22Z</time>
      </trkpt>
      <trkpt lat="43.0947550" lon="-1.0326690">
        <ele>1006.6</ele>
        <time>2020-07-29T10:09:27Z</time>
      </trkpt>
      <trkpt lat="43.0946980" lon="-1.0328570">
        <ele>1006.4</ele>
        <time>2020-07-29T10:09:33Z</time>
      </trkpt>
      <trkpt lat="43.0946840" lon="-1.0328980">
        <ele>1006.4</ele>
        <time>2020-07-29T10:09:34Z</time>
      </trkpt>
      <trkpt lat="43.0945770" lon="-1.0332110">
        <ele>1006.2</ele>
        <time>2020-07-29T10:09:40Z</time>
      </trkpt>
      <trkpt lat="43.0944340" lon="-1.0336040">
        <ele>1005.2</ele>
        <time>2020-07-29T10:09:46Z</time>
      </trkpt>
      <trkpt lat="43.0944080" lon="-1.0336730">
        <ele>1005.0</ele>
        <time>2020-07-29T10:09:47Z</time>
      </trkpt>
      <trkpt lat="43.0943010" lon="-1.0339530">
        <ele>1003.8</ele>
        <time>2020-07-29T10:09:51Z</time>
      </trkpt>
      <trkpt lat="43.0942730" lon="-1.0340250">
        <ele>1003.4</ele>
        <time>2020-07-29T10:09:52Z</time>
      </trkpt>
      <trkpt lat="43.0942130" lon="-1.0341780">
        <ele>1002.4</ele>
        <time>2020-07-29T10:09:54Z</time>
      </trkpt>
      <trkpt lat="43.0941490" lon="-1.0343390">
        <ele>1001.6</ele>
        <time>2020-07-29T10:09:56Z</time>
      </trkpt>
      <trkpt lat="43.0941180" lon="-1.0344210">
        <ele>1001.2</ele>
        <time>2020-07-29T10:09:57Z</time>
      </trkpt>
      <trkpt lat="43.0940250" lon="-1.0346580">
        <ele>1000.0</ele>
        <time>2020-07-29T10:10:00Z</time>
      </trkpt>
      <trkpt lat="43.0938760" lon="-1.0350390">
        <ele>999.2</ele>
        <time>2020-07-29T10:10:05Z</time>
      </trkpt>
      <trkpt lat="43.0937750" lon="-1.0353990">
        <ele>999.8</ele>
        <time>2020-07-29T10:10:10Z</time>
      </trkpt>
      <trkpt lat="43.0937550" lon="-1.0355230">
        <ele>1000.2</ele>
        <time>2020-07-29T10:10:12Z</time>
      </trkpt>
      <trkpt lat="43.0937340" lon="-1.0357740">
        <ele>1001.0</ele>
        <time>2020-07-29T10:10:16Z</time>
      </trkpt>
      <trkpt lat="43.0937200" lon="-1.0360740">
        <ele>1000.6</ele>
        <time>2020-07-29T10:10:20Z</time>
      </trkpt>
      <trkpt lat="43.0937130" lon="-1.0363050">
        <ele>1000.8</ele>
        <time>2020-07-29T10:10:23Z</time>
      </trkpt>
      <trkpt lat="43.0937090" lon="-1.0363770">
        <ele>1000.8</ele>
        <time>2020-07-29T10:10:24Z</time>
      </trkpt>
      <trkpt lat="43.0937050" lon="-1.0364470">
        <ele>1001.0</ele>
        <time>2020-07-29T10:10:25Z</time>
      </trkpt>
      <trkpt lat="43.0936990" lon="-1.0365880">
        <ele>1001.4</ele>
        <time>2020-07-29T10:10:27Z</time>
      </trkpt>
      <trkpt lat="43.0937060" lon="-1.0367980">
        <ele>1002.0</ele>
        <time>2020-07-29T10:10:30Z</time>
      </trkpt>
      <trkpt lat="43.0937320" lon="-1.0369420">
        <ele>1002.0</ele>
        <time>2020-07-29T10:10:32Z</time>
      </trkpt>
      <trkpt lat="43.0938870" lon="-1.0373760">
        <ele>1001.2</ele>
        <time>2020-07-29T10:10:38Z</time>
      </trkpt>
      <trkpt lat="43.0939180" lon="-1.0374440">
        <ele>1001.2</ele>
        <time>2020-07-29T10:10:39Z</time>
      </trkpt>
      <trkpt lat="43.0940320" lon="-1.0376960">
        <ele>1002.0</ele>
        <time>2020-07-29T10:10:43Z</time>
      </trkpt>
      <trkpt lat="43.0940610" lon="-1.0377600">
        <ele>1002.0</ele>
        <time>2020-07-29T10:10:44Z</time>
      </trkpt>
      <trkpt lat="43.0940890" lon="-1.0378240">
        <ele>1002.0</ele>
        <time>2020-07-29T10:10:45Z</time>
      </trkpt>
      <trkpt lat="43.0942040" lon="-1.0381860">
        <ele>1002.0</ele>
        <time>2020-07-29T10:10:50Z</time>
      </trkpt>
      <trkpt lat="43.0942290" lon="-1.0384720">
        <ele>1002.2</ele>
        <time>2020-07-29T10:10:54Z</time>
      </trkpt>
      <trkpt lat="43.0942320" lon="-1.0385290">
        <ele>1002.4</ele>
        <time>2020-07-29T10:10:55Z</time>
      </trkpt>
      <trkpt lat="43.0942540" lon="-1.0386720">
        <ele>1003.0</ele>
        <time>2020-07-29T10:10:58Z</time>
      </trkpt>
      <trkpt lat="43.0942610" lon="-1.0387140">
        <ele>1003.4</ele>
        <time>2020-07-29T10:10:59Z</time>
      </trkpt>
      <trkpt lat="43.0942680" lon="-1.0387490">
        <ele>1004.0</ele>
        <time>2020-07-29T10:11:00Z</time>
      </trkpt>
      <trkpt lat="43.0942890" lon="-1.0388100">
        <ele>1004.8</ele>
        <time>2020-07-29T10:11:02Z</time>
      </trkpt>
      <trkpt lat="43.0943290" lon="-1.0389150">
        <ele>1006.0</ele>
        <time>2020-07-29T10:11:06Z</time>
      </trkpt>
      <trkpt lat="43.0943400" lon="-1.0389430">
        <ele>1006.0</ele>
        <time>2020-07-29T10:11:07Z</time>
      </trkpt>
      <trkpt lat="43.0944180" lon="-1.0391050">
        <ele>1006.8</ele>
        <time>2020-07-29T10:11:13Z</time>
      </trkpt>
      <trkpt lat="43.0944310" lon="-1.0391320">
        <ele>1007.0</ele>
        <time>2020-07-29T10:11:14Z</time>
      </trkpt>
      <trkpt lat="43.0944450" lon="-1.0391580">
        <ele>1007.0</ele>
        <time>2020-07-29T10:11:15Z</time>
      </trkpt>
      <trkpt lat="43.0944810" lon="-1.0392380">
        <ele>1008.2</ele>
        <time>2020-07-29T10:11:18Z</time>
      </trkpt>
      <trkpt lat="43.0945360" lon="-1.0393470">
        <ele>1009.4</ele>
        <time>2020-07-29T10:11:22Z</time>
      </trkpt>
      <trkpt lat="43.0946040" lon="-1.0394870">
        <ele>1010.4</ele>
        <time>2020-07-29T10:11:27Z</time>
      </trkpt>
      <trkpt lat="43.0946660" lon="-1.0395900">
        <ele>1011.2</ele>
        <time>2020-07-29T10:11:31Z</time>
      </trkpt>
      <trkpt lat="43.0946820" lon="-1.0396160">
        <ele>1011.6</ele>
        <time>2020-07-29T10:11:32Z</time>
      </trkpt>
      <trkpt lat="43.0947290" lon="-1.0396900">
        <ele>1012.8</ele>
        <time>2020-07-29T10:11:35Z</time>
      </trkpt>
      <trkpt lat="43.0947860" lon="-1.0397880">
        <ele>1013.4</ele>
        <time>2020-07-29T10:11:39Z</time>
      </trkpt>
      <trkpt lat="43.0947970" lon="-1.0398130">
        <ele>1013.6</ele>
        <time>2020-07-29T10:11:40Z</time>
      </trkpt>
      <trkpt lat="43.0948170" lon="-1.0398630">
        <ele>1013.8</ele>
        <time>2020-07-29T10:11:42Z</time>
      </trkpt>
      <trkpt lat="43.0948400" lon="-1.0399110">
        <ele>1014.2</ele>
        <time>2020-07-29T10:11:44Z</time>
      </trkpt>
      <trkpt lat="43.0948760" lon="-1.0399900">
        <ele>1015.2</ele>
        <time>2020-07-29T10:11:47Z</time>
      </trkpt>
      <trkpt lat="43.0949130" lon="-1.0400690">
        <ele>1016.2</ele>
        <time>2020-07-29T10:11:50Z</time>
      </trkpt>
      <trkpt lat="43.0949250" lon="-1.0400960">
        <ele>1016.6</ele>
        <time>2020-07-29T10:11:51Z</time>
      </trkpt>
      <trkpt lat="43.0949590" lon="-1.0401830">
        <ele>1017.6</ele>
        <time>2020-07-29T10:11:54Z</time>
      </trkpt>
      <trkpt lat="43.0949980" lon="-1.0402960">
        <ele>1018.6</ele>
        <time>2020-07-29T10:11:58Z</time>
      </trkpt>
      <trkpt lat="43.0950210" lon="-1.0403880">
        <ele>1019.0</ele>
        <time>2020-07-29T10:12:01Z</time>
      </trkpt>
      <trkpt lat="43.0950590" lon="-1.0405120">
        <ele>1019.8</ele>
        <time>2020-07-29T10:12:05Z</time>
      </trkpt>
      <trkpt lat="43.0950680" lon="-1.0405760">
        <ele>1020.0</ele>
        <time>2020-07-29T10:12:07Z</time>
      </trkpt>
      <trkpt lat="43.0950690" lon="-1.0406760">
        <ele>1020.8</ele>
        <time>2020-07-29T10:12:10Z</time>
      </trkpt>
      <trkpt lat="43.0950610" lon="-1.0408090">
        <ele>1021.8</ele>
        <time>2020-07-29T10:12:14Z</time>
      </trkpt>
      <trkpt lat="43.0950580" lon="-1.0408410">
        <ele>1022.0</ele>
        <time>2020-07-29T10:12:15Z</time>
      </trkpt>
      <trkpt lat="43.0950370" lon="-1.0409410">
        <ele>1022.8</ele>
        <time>2020-07-29T10:12:18Z</time>
      </trkpt>
      <trkpt lat="43.0950150" lon="-1.0410070">
        <ele>1023.2</ele>
        <time>2020-07-29T10:12:20Z</time>
      </trkpt>
      <trkpt lat="43.0949930" lon="-1.0410750">
        <ele>1023.6</ele>
        <time>2020-07-29T10:12:22Z</time>
      </trkpt>
      <trkpt lat="43.0949370" lon="-1.0411930">
        <ele>1024.4</ele>
        <time>2020-07-29T10:12:26Z</time>
      </trkpt>
      <trkpt lat="43.0949020" lon="-1.0412480">
        <ele>1025.0</ele>
        <time>2020-07-29T10:12:28Z</time>
      </trkpt>
      <trkpt lat="43.0948520" lon="-1.0413290">
        <ele>1025.4</ele>
        <time>2020-07-29T10:12:31Z</time>
      </trkpt>
      <trkpt lat="43.0947620" lon="-1.0414460">
        <ele>1026.4</ele>
        <time>2020-07-29T10:12:36Z</time>
      </trkpt>
      <trkpt lat="43.0947410" lon="-1.0414670">
        <ele>1026.6</ele>
        <time>2020-07-29T10:12:37Z</time>
      </trkpt>
      <trkpt lat="43.0946280" lon="-1.0415610">
        <ele>1027.4</ele>
        <time>2020-07-29T10:12:42Z</time>
      </trkpt>
      <trkpt lat="43.0946040" lon="-1.0415760">
        <ele>1027.6</ele>
        <time>2020-07-29T10:12:43Z</time>
      </trkpt>
      <trkpt lat="43.0945810" lon="-1.0415900">
        <ele>1027.6</ele>
        <time>2020-07-29T10:12:44Z</time>
      </trkpt>
      <trkpt lat="43.0945570" lon="-1.0416040">
        <ele>1027.8</ele>
        <time>2020-07-29T10:12:45Z</time>
      </trkpt>
      <trkpt lat="43.0945100" lon="-1.0416310">
        <ele>1028.2</ele>
        <time>2020-07-29T10:12:47Z</time>
      </trkpt>
      <trkpt lat="43.0944850" lon="-1.0416430">
        <ele>1028.6</ele>
        <time>2020-07-29T10:12:48Z</time>
      </trkpt>
      <trkpt lat="43.0944610" lon="-1.0416560">
        <ele>1028.8</ele>
        <time>2020-07-29T10:12:49Z</time>
      </trkpt>
      <trkpt lat="43.0944140" lon="-1.0416780">
        <ele>1029.4</ele>
        <time>2020-07-29T10:12:51Z</time>
      </trkpt>
      <trkpt lat="43.0943660" lon="-1.0417010">
        <ele>1029.8</ele>
        <time>2020-07-29T10:12:53Z</time>
      </trkpt>
      <trkpt lat="43.0942100" lon="-1.0417640">
        <ele>1030.8</ele>
        <time>2020-07-29T10:12:59Z</time>
      </trkpt>
      <trkpt lat="43.0941840" lon="-1.0417720">
        <ele>1031.2</ele>
        <time>2020-07-29T10:13:00Z</time>
      </trkpt>
      <trkpt lat="43.0941340" lon="-1.0417920">
        <ele>1032.0</ele>
        <time>2020-07-29T10:13:02Z</time>
      </trkpt>
      <trkpt lat="43.0941080" lon="-1.0418030">
        <ele>1032.2</ele>
        <time>2020-07-29T10:13:03Z</time>
      </trkpt>
      <trkpt lat="43.0940280" lon="-1.0418340">
        <ele>1032.6</ele>
        <time>2020-07-29T10:13:06Z</time>
      </trkpt>
      <trkpt lat="43.0939190" lon="-1.0418790">
        <ele>1033.4</ele>
        <time>2020-07-29T10:13:10Z</time>
      </trkpt>
      <trkpt lat="43.0938680" lon="-1.0419170">
        <ele>1033.8</ele>
        <time>2020-07-29T10:13:12Z</time>
      </trkpt>
      <trkpt lat="43.0938070" lon="-1.0419960">
        <ele>1034.6</ele>
        <time>2020-07-29T10:13:15Z</time>
      </trkpt>
      <trkpt lat="43.0937670" lon="-1.0420980">
        <ele>1035.2</ele>
        <time>2020-07-29T10:13:18Z</time>
      </trkpt>
      <trkpt lat="43.0937510" lon="-1.0421700">
        <ele>1035.8</ele>
        <time>2020-07-29T10:13:20Z</time>
      </trkpt>
      <trkpt lat="43.0937340" lon="-1.0423140">
        <ele>1036.6</ele>
        <time>2020-07-29T10:13:24Z</time>
      </trkpt>
      <trkpt lat="43.0937260" lon="-1.0423830">
        <ele>1037.0</ele>
        <time>2020-07-29T10:13:26Z</time>
      </trkpt>
      <trkpt lat="43.0937140" lon="-1.0424760">
        <ele>1038.2</ele>
        <time>2020-07-29T10:13:29Z</time>
      </trkpt>
      <trkpt lat="43.0937090" lon="-1.0425300">
        <ele>1038.6</ele>
        <time>2020-07-29T10:13:31Z</time>
      </trkpt>
      <trkpt lat="43.0937100" lon="-1.0425840">
        <ele>1039.2</ele>
        <time>2020-07-29T10:13:34Z</time>
      </trkpt>
      <trkpt lat="43.0937110" lon="-1.0425970">
        <ele>1039.2</ele>
        <time>2020-07-29T10:13:35Z</time>
      </trkpt>
      <trkpt lat="43.0937310" lon="-1.0426940">
        <ele>1039.8</ele>
        <time>2020-07-29T10:13:41Z</time>
      </trkpt>
      <trkpt lat="43.0937340" lon="-1.0427130">
        <ele>1039.8</ele>
        <time>2020-07-29T10:13:42Z</time>
      </trkpt>
      <trkpt lat="43.0937390" lon="-1.0427440">
        <ele>1039.8</ele>
        <time>2020-07-29T10:13:44Z</time>
      </trkpt>
      <trkpt lat="43.0937320" lon="-1.0427980">
        <ele>1039.8</ele>
        <time>2020-07-29T10:13:47Z</time>
      </trkpt>
      <trkpt lat="43.0937270" lon="-1.0428500">
        <ele>1039.8</ele>
        <time>2020-07-29T10:13:49Z</time>
      </trkpt>
      <trkpt lat="43.0937250" lon="-1.0429890">
        <ele>1040.0</ele>
        <time>2020-07-29T10:13:53Z</time>
      </trkpt>
      <trkpt lat="43.0937470" lon="-1.0431860">
        <ele>1039.8</ele>
        <time>2020-07-29T10:13:57Z</time>
      </trkpt>
      <trkpt lat="43.0937690" lon="-1.0432410">
        <ele>1039.6</ele>
        <time>2020-07-29T10:13:58Z</time>
      </trkpt>
      <trkpt lat="43.0937980" lon="-1.0432900">
        <ele>1039.4</ele>
        <time>2020-07-29T10:13:59Z</time>
      </trkpt>
      <trkpt lat="43.0939020" lon="-1.0434240">
        <ele>1039.0</ele>
        <time>2020-07-29T10:14:02Z</time>
      </trkpt>
      <trkpt lat="43.0939390" lon="-1.0434690">
        <ele>1038.8</ele>
        <time>2020-07-29T10:14:03Z</time>
      </trkpt>
      <trkpt lat="43.0941850" lon="-1.0437560">
        <ele>1038.6</ele>
        <time>2020-07-29T10:14:09Z</time>
      </trkpt>
      <trkpt lat="43.0942980" lon="-1.0438940">
        <ele>1038.4</ele>
        <time>2020-07-29T10:14:12Z</time>
      </trkpt>
      <trkpt lat="43.0943330" lon="-1.0439350">
        <ele>1038.2</ele>
        <time>2020-07-29T10:14:13Z</time>
      </trkpt>
      <trkpt lat="43.0945300" lon="-1.0441820">
        <ele>1037.6</ele>
        <time>2020-07-29T10:14:19Z</time>
      </trkpt>
      <trkpt lat="43.0945590" lon="-1.0442280">
        <ele>1037.4</ele>
        <time>2020-07-29T10:14:20Z</time>
      </trkpt>
      <trkpt lat="43.0946500" lon="-1.0443830">
        <ele>1037.2</ele>
        <time>2020-07-29T10:14:23Z</time>
      </trkpt>
      <trkpt lat="43.0947790" lon="-1.0446060">
        <ele>1036.4</ele>
        <time>2020-07-29T10:14:27Z</time>
      </trkpt>
      <trkpt lat="43.0948790" lon="-1.0447890">
        <ele>1036.2</ele>
        <time>2020-07-29T10:14:30Z</time>
      </trkpt>
      <trkpt lat="43.0950200" lon="-1.0450490">
        <ele>1035.4</ele>
        <time>2020-07-29T10:14:34Z</time>
      </trkpt>
      <trkpt lat="43.0950600" lon="-1.0451170">
        <ele>1035.2</ele>
        <time>2020-07-29T10:14:35Z</time>
      </trkpt>
      <trkpt lat="43.0951040" lon="-1.0451820">
        <ele>1035.0</ele>
        <time>2020-07-29T10:14:36Z</time>
      </trkpt>
      <trkpt lat="43.0953660" lon="-1.0455290">
        <ele>1033.8</ele>
        <time>2020-07-29T10:14:41Z</time>
      </trkpt>
      <trkpt lat="43.0956300" lon="-1.0457960">
        <ele>1032.6</ele>
        <time>2020-07-29T10:14:45Z</time>
      </trkpt>
      <trkpt lat="43.0957560" lon="-1.0459240">
        <ele>1031.8</ele>
        <time>2020-07-29T10:14:47Z</time>
      </trkpt>
      <trkpt lat="43.0958680" lon="-1.0460280">
        <ele>1031.4</ele>
        <time>2020-07-29T10:14:49Z</time>
      </trkpt>
      <trkpt lat="43.0959240" lon="-1.0460710">
        <ele>1031.0</ele>
        <time>2020-07-29T10:14:50Z</time>
      </trkpt>
      <trkpt lat="43.0960340" lon="-1.0461530">
        <ele>1030.4</ele>
        <time>2020-07-29T10:14:52Z</time>
      </trkpt>
      <trkpt lat="43.0961400" lon="-1.0462300">
        <ele>1030.2</ele>
        <time>2020-07-29T10:14:54Z</time>
      </trkpt>
      <trkpt lat="43.0964080" lon="-1.0464510">
        <ele>1030.4</ele>
        <time>2020-07-29T10:14:59Z</time>
      </trkpt>
      <trkpt lat="43.0966060" lon="-1.0466360">
        <ele>1030.8</ele>
        <time>2020-07-29T10:15:03Z</time>
      </trkpt>
      <trkpt lat="43.0966990" lon="-1.0467370">
        <ele>1030.8</ele>
        <time>2020-07-29T10:15:05Z</time>
      </trkpt>
      <trkpt lat="43.0967880" lon="-1.0468440">
        <ele>1030.8</ele>
        <time>2020-07-29T10:15:07Z</time>
      </trkpt>
      <trkpt lat="43.0969460" lon="-1.0470720">
        <ele>1031.2</ele>
        <time>2020-07-29T10:15:11Z</time>
      </trkpt>
      <trkpt lat="43.0969760" lon="-1.0471300">
        <ele>1031.4</ele>
        <time>2020-07-29T10:15:12Z</time>
      </trkpt>
      <trkpt lat="43.0969980" lon="-1.0471910">
        <ele>1031.6</ele>
        <time>2020-07-29T10:15:13Z</time>
      </trkpt>
      <trkpt lat="43.0970110" lon="-1.0472530">
        <ele>1031.6</ele>
        <time>2020-07-29T10:15:14Z</time>
      </trkpt>
      <trkpt lat="43.0970230" lon="-1.0473740">
        <ele>1031.8</ele>
        <time>2020-07-29T10:15:16Z</time>
      </trkpt>
      <trkpt lat="43.0970270" lon="-1.0474940">
        <ele>1032.4</ele>
        <time>2020-07-29T10:15:18Z</time>
      </trkpt>
      <trkpt lat="43.0970240" lon="-1.0478780">
        <ele>1032.6</ele>
        <time>2020-07-29T10:15:24Z</time>
      </trkpt>
      <trkpt lat="43.0970190" lon="-1.0479460">
        <ele>1032.6</ele>
        <time>2020-07-29T10:15:25Z</time>
      </trkpt>
      <trkpt lat="43.0970060" lon="-1.0481400">
        <ele>1032.6</ele>
        <time>2020-07-29T10:15:28Z</time>
      </trkpt>
      <trkpt lat="43.0969960" lon="-1.0483230">
        <ele>1033.2</ele>
        <time>2020-07-29T10:15:31Z</time>
      </trkpt>
      <trkpt lat="43.0970000" lon="-1.0483880">
        <ele>1033.4</ele>
        <time>2020-07-29T10:15:32Z</time>
      </trkpt>
      <trkpt lat="43.0970100" lon="-1.0484570">
        <ele>1033.4</ele>
        <time>2020-07-29T10:15:33Z</time>
      </trkpt>
      <trkpt lat="43.0970810" lon="-1.0486470">
        <ele>1033.0</ele>
        <time>2020-07-29T10:15:36Z</time>
      </trkpt>
      <trkpt lat="43.0971190" lon="-1.0487220">
        <ele>1032.4</ele>
        <time>2020-07-29T10:15:39Z</time>
      </trkpt>
      <trkpt lat="43.0971230" lon="-1.0487260">
        <ele>1032.0</ele>
        <time>2020-07-29T10:15:41Z</time>
      </trkpt>
      <trkpt lat="43.0971200" lon="-1.0487250">
        <ele>1031.4</ele>
        <time>2020-07-29T10:15:44Z</time>
      </trkpt>
      <trkpt lat="43.0971200" lon="-1.0487250">
        <ele>1031.4</ele>
        <time>2020-07-29T10:15:45Z</time>
      </trkpt>
      <trkpt lat="43.0971210" lon="-1.0487160">
        <ele>1031.0</ele>
        <time>2020-07-29T10:15:51Z</time>
      </trkpt>
      <trkpt lat="43.0971210" lon="-1.0487130">
        <ele>1031.2</ele>
        <time>2020-07-29T10:15:55Z</time>
      </trkpt>
      <trkpt lat="43.0971210" lon="-1.0487110">
        <ele>1031.2</ele>
        <time>2020-07-29T10:16:01Z</time>
      </trkpt>
      <trkpt lat="43.0971220" lon="-1.0487100">
        <ele>1031.0</ele>
        <time>2020-07-29T10:16:07Z</time>
      </trkpt>
      <trkpt lat="43.0971270" lon="-1.0487110">
        <ele>1031.2</ele>
        <time>2020-07-29T10:16:10Z</time>
      </trkpt>
      <trkpt lat="43.0971350" lon="-1.0487190">
        <ele>1031.2</ele>
        <time>2020-07-29T10:16:14Z</time>
      </trkpt>
      <trkpt lat="43.0971350" lon="-1.0487160">
        <ele>1031.2</ele>
        <time>2020-07-29T10:16:20Z</time>
      </trkpt>
      <trkpt lat="43.0971360" lon="-1.0487160">
        <ele>1031.4</ele>
        <time>2020-07-29T10:16:23Z</time>
      </trkpt>
      <trkpt lat="43.0971350" lon="-1.0487190">
        <ele>1030.8</ele>
        <time>2020-07-29T10:16:29Z</time>
      </trkpt>
      <trkpt lat="43.0971360" lon="-1.0487190">
        <ele>1030.6</ele>
        <time>2020-07-29T10:16:30Z</time>
      </trkpt>
      <trkpt lat="43.0971410" lon="-1.0487300">
        <ele>1030.6</ele>
        <time>2020-07-29T10:16:33Z</time>
      </trkpt>
      <trkpt lat="43.0971460" lon="-1.0487450">
        <ele>1030.6</ele>
        <time>2020-07-29T10:16:34Z</time>
      </trkpt>
      <trkpt lat="43.0971710" lon="-1.0487960">
        <ele>1030.6</ele>
        <time>2020-07-29T10:16:36Z</time>
      </trkpt>
      <trkpt lat="43.0972500" lon="-1.0489140">
        <ele>1030.4</ele>
        <time>2020-07-29T10:16:40Z</time>
      </trkpt>
      <trkpt lat="43.0972760" lon="-1.0489550">
        <ele>1030.4</ele>
        <time>2020-07-29T10:16:41Z</time>
      </trkpt>
      <trkpt lat="43.0973070" lon="-1.0490000">
        <ele>1030.2</ele>
        <time>2020-07-29T10:16:42Z</time>
      </trkpt>
      <trkpt lat="43.0974690" lon="-1.0492060">
        <ele>1029.2</ele>
        <time>2020-07-29T10:16:46Z</time>
      </trkpt>
      <trkpt lat="43.0975200" lon="-1.0492520">
        <ele>1028.8</ele>
        <time>2020-07-29T10:16:47Z</time>
      </trkpt>
      <trkpt lat="43.0976300" lon="-1.0493340">
        <ele>1027.8</ele>
        <time>2020-07-29T10:16:49Z</time>
      </trkpt>
      <trkpt lat="43.0978870" lon="-1.0494840">
        <ele>1026.4</ele>
        <time>2020-07-29T10:16:53Z</time>
      </trkpt>
      <trkpt lat="43.0980990" lon="-1.0496020">
        <ele>1025.2</ele>
        <time>2020-07-29T10:16:56Z</time>
      </trkpt>
      <trkpt lat="43.0983190" lon="-1.0497400">
        <ele>1024.0</ele>
        <time>2020-07-29T10:16:59Z</time>
      </trkpt>
      <trkpt lat="43.0984630" lon="-1.0498310">
        <ele>1023.0</ele>
        <time>2020-07-29T10:17:01Z</time>
      </trkpt>
      <trkpt lat="43.0985330" lon="-1.0498710">
        <ele>1022.2</ele>
        <time>2020-07-29T10:17:02Z</time>
      </trkpt>
      <trkpt lat="43.0986740" lon="-1.0499430">
        <ele>1021.0</ele>
        <time>2020-07-29T10:17:04Z</time>
      </trkpt>
      <trkpt lat="43.0988240" lon="-1.0500030">
        <ele>1019.8</ele>
        <time>2020-07-29T10:17:06Z</time>
      </trkpt>
      <trkpt lat="43.0988970" lon="-1.0500270">
        <ele>1019.6</ele>
        <time>2020-07-29T10:17:07Z</time>
      </trkpt>
      <trkpt lat="43.0991940" lon="-1.0501310">
        <ele>1018.6</ele>
        <time>2020-07-29T10:17:11Z</time>
      </trkpt>
      <trkpt lat="43.0993380" lon="-1.0502280">
        <ele>1017.6</ele>
        <time>2020-07-29T10:17:13Z</time>
      </trkpt>
      <trkpt lat="43.0994070" lon="-1.0502920">
        <ele>1017.2</ele>
        <time>2020-07-29T10:17:14Z</time>
      </trkpt>
      <trkpt lat="43.0996130" lon="-1.0505110">
        <ele>1016.0</ele>
        <time>2020-07-29T10:17:17Z</time>
      </trkpt>
      <trkpt lat="43.0996800" lon="-1.0505980">
        <ele>1015.6</ele>
        <time>2020-07-29T10:17:18Z</time>
      </trkpt>
      <trkpt lat="43.0998070" lon="-1.0507830">
        <ele>1014.8</ele>
        <time>2020-07-29T10:17:20Z</time>
      </trkpt>
      <trkpt lat="43.0999230" lon="-1.0509610">
        <ele>1013.8</ele>
        <time>2020-07-29T10:17:22Z</time>
      </trkpt>
      <trkpt lat="43.1000260" lon="-1.0511490">
        <ele>1012.6</ele>
        <time>2020-07-29T10:17:24Z</time>
      </trkpt>
      <trkpt lat="43.1001290" lon="-1.0514780">
        <ele>1011.6</ele>
        <time>2020-07-29T10:17:27Z</time>
      </trkpt>
      <trkpt lat="43.1001530" lon="-1.0515940">
        <ele>1011.2</ele>
        <time>2020-07-29T10:17:28Z</time>
      </trkpt>
      <trkpt lat="43.1001890" lon="-1.0518400">
        <ele>1010.4</ele>
        <time>2020-07-29T10:17:30Z</time>
      </trkpt>
      <trkpt lat="43.1002200" lon="-1.0520970">
        <ele>1009.4</ele>
        <time>2020-07-29T10:17:32Z</time>
      </trkpt>
      <trkpt lat="43.1002490" lon="-1.0523610">
        <ele>1008.6</ele>
        <time>2020-07-29T10:17:34Z</time>
      </trkpt>
      <trkpt lat="43.1002620" lon="-1.0524970">
        <ele>1008.2</ele>
        <time>2020-07-29T10:17:35Z</time>
      </trkpt>
      <trkpt lat="43.1002900" lon="-1.0527720">
        <ele>1007.0</ele>
        <time>2020-07-29T10:17:37Z</time>
      </trkpt>
      <trkpt lat="43.1003240" lon="-1.0530480">
        <ele>1006.2</ele>
        <time>2020-07-29T10:17:39Z</time>
      </trkpt>
      <trkpt lat="43.1003420" lon="-1.0531870">
        <ele>1005.8</ele>
        <time>2020-07-29T10:17:40Z</time>
      </trkpt>
      <trkpt lat="43.1003860" lon="-1.0534580">
        <ele>1004.8</ele>
        <time>2020-07-29T10:17:42Z</time>
      </trkpt>
      <trkpt lat="43.1004070" lon="-1.0535900">
        <ele>1004.6</ele>
        <time>2020-07-29T10:17:43Z</time>
      </trkpt>
      <trkpt lat="43.1004410" lon="-1.0538470">
        <ele>1003.6</ele>
        <time>2020-07-29T10:17:45Z</time>
      </trkpt>
      <trkpt lat="43.1004440" lon="-1.0539720">
        <ele>1003.6</ele>
        <time>2020-07-29T10:17:46Z</time>
      </trkpt>
      <trkpt lat="43.1004410" lon="-1.0540900">
        <ele>1003.6</ele>
        <time>2020-07-29T10:17:47Z</time>
      </trkpt>
      <trkpt lat="43.1003820" lon="-1.0545210">
        <ele>1004.6</ele>
        <time>2020-07-29T10:17:51Z</time>
      </trkpt>
      <trkpt lat="43.1003640" lon="-1.0546170">
        <ele>1004.8</ele>
        <time>2020-07-29T10:17:52Z</time>
      </trkpt>
      <trkpt lat="43.1002870" lon="-1.0549700">
        <ele>1006.2</ele>
        <time>2020-07-29T10:17:56Z</time>
      </trkpt>
      <trkpt lat="43.1002480" lon="-1.0551400">
        <ele>1006.0</ele>
        <time>2020-07-29T10:17:58Z</time>
      </trkpt>
      <trkpt lat="43.1002080" lon="-1.0553040">
        <ele>1006.0</ele>
        <time>2020-07-29T10:18:00Z</time>
      </trkpt>
      <trkpt lat="43.1001900" lon="-1.0553840">
        <ele>1006.2</ele>
        <time>2020-07-29T10:18:01Z</time>
      </trkpt>
      <trkpt lat="43.1001550" lon="-1.0555410">
        <ele>1006.6</ele>
        <time>2020-07-29T10:18:03Z</time>
      </trkpt>
      <trkpt lat="43.1001380" lon="-1.0556170">
        <ele>1006.8</ele>
        <time>2020-07-29T10:18:04Z</time>
      </trkpt>
      <trkpt lat="43.1001210" lon="-1.0556940">
        <ele>1007.0</ele>
        <time>2020-07-29T10:18:05Z</time>
      </trkpt>
      <trkpt lat="43.1000870" lon="-1.0558440">
        <ele>1007.4</ele>
        <time>2020-07-29T10:18:07Z</time>
      </trkpt>
      <trkpt lat="43.1000720" lon="-1.0559190">
        <ele>1007.4</ele>
        <time>2020-07-29T10:18:08Z</time>
      </trkpt>
      <trkpt lat="43.1000180" lon="-1.0562130">
        <ele>1008.0</ele>
        <time>2020-07-29T10:18:12Z</time>
      </trkpt>
      <trkpt lat="43.0999960" lon="-1.0563520">
        <ele>1008.4</ele>
        <time>2020-07-29T10:18:14Z</time>
      </trkpt>
      <trkpt lat="43.0999780" lon="-1.0564920">
        <ele>1008.6</ele>
        <time>2020-07-29T10:18:16Z</time>
      </trkpt>
      <trkpt lat="43.0999400" lon="-1.0569100">
        <ele>1009.4</ele>
        <time>2020-07-29T10:18:22Z</time>
      </trkpt>
      <trkpt lat="43.0999240" lon="-1.0571140">
        <ele>1009.4</ele>
        <time>2020-07-29T10:18:25Z</time>
      </trkpt>
      <trkpt lat="43.0999160" lon="-1.0572500">
        <ele>1009.8</ele>
        <time>2020-07-29T10:18:27Z</time>
      </trkpt>
      <trkpt lat="43.0999200" lon="-1.0575080">
        <ele>1010.4</ele>
        <time>2020-07-29T10:18:31Z</time>
      </trkpt>
      <trkpt lat="43.0999310" lon="-1.0576210">
        <ele>1011.0</ele>
        <time>2020-07-29T10:18:33Z</time>
      </trkpt>
      <trkpt lat="43.0999550" lon="-1.0577620">
        <ele>1011.4</ele>
        <time>2020-07-29T10:18:36Z</time>
      </trkpt>
      <trkpt lat="43.0999910" lon="-1.0578770">
        <ele>1011.6</ele>
        <time>2020-07-29T10:18:39Z</time>
      </trkpt>
      <trkpt lat="43.1000810" lon="-1.0580450">
        <ele>1011.6</ele>
        <time>2020-07-29T10:18:45Z</time>
      </trkpt>
      <trkpt lat="43.1001220" lon="-1.0580960">
        <ele>1011.8</ele>
        <time>2020-07-29T10:18:47Z</time>
      </trkpt>
      <trkpt lat="43.1002190" lon="-1.0582250">
        <ele>1012.0</ele>
        <time>2020-07-29T10:18:51Z</time>
      </trkpt>
      <trkpt lat="43.1002850" lon="-1.0583280">
        <ele>1012.0</ele>
        <time>2020-07-29T10:18:54Z</time>
      </trkpt>
      <trkpt lat="43.1003250" lon="-1.0583870">
        <ele>1012.0</ele>
        <time>2020-07-29T10:18:56Z</time>
      </trkpt>
      <trkpt lat="43.1003940" lon="-1.0585150">
        <ele>1012.0</ele>
        <time>2020-07-29T10:19:00Z</time>
      </trkpt>
      <trkpt lat="43.1005060" lon="-1.0587170">
        <ele>1012.4</ele>
        <time>2020-07-29T10:19:06Z</time>
      </trkpt>
      <trkpt lat="43.1005240" lon="-1.0587510">
        <ele>1012.6</ele>
        <time>2020-07-29T10:19:07Z</time>
      </trkpt>
      <trkpt lat="43.1005580" lon="-1.0588250">
        <ele>1012.6</ele>
        <time>2020-07-29T10:19:09Z</time>
      </trkpt>
      <trkpt lat="43.1006690" lon="-1.0590670">
        <ele>1013.0</ele>
        <time>2020-07-29T10:19:15Z</time>
      </trkpt>
      <trkpt lat="43.1007040" lon="-1.0591540">
        <ele>1013.2</ele>
        <time>2020-07-29T10:19:17Z</time>
      </trkpt>
      <trkpt lat="43.1008020" lon="-1.0594270">
        <ele>1013.4</ele>
        <time>2020-07-29T10:19:23Z</time>
      </trkpt>
      <trkpt lat="43.1008170" lon="-1.0594750">
        <ele>1013.6</ele>
        <time>2020-07-29T10:19:24Z</time>
      </trkpt>
      <trkpt lat="43.1008300" lon="-1.0595250">
        <ele>1013.8</ele>
        <time>2020-07-29T10:19:25Z</time>
      </trkpt>
      <trkpt lat="43.1008700" lon="-1.0596720">
        <ele>1014.0</ele>
        <time>2020-07-29T10:19:28Z</time>
      </trkpt>
      <trkpt lat="43.1009420" lon="-1.0599580">
        <ele>1014.4</ele>
        <time>2020-07-29T10:19:34Z</time>
      </trkpt>
      <trkpt lat="43.1009550" lon="-1.0600090">
        <ele>1014.6</ele>
        <time>2020-07-29T10:19:35Z</time>
      </trkpt>
      <trkpt lat="43.1009690" lon="-1.0600590">
        <ele>1014.8</ele>
        <time>2020-07-29T10:19:36Z</time>
      </trkpt>
      <trkpt lat="43.1010120" lon="-1.0602060">
        <ele>1015.0</ele>
        <time>2020-07-29T10:19:39Z</time>
      </trkpt>
      <trkpt lat="43.1010860" lon="-1.0603790">
        <ele>1015.2</ele>
        <time>2020-07-29T10:19:43Z</time>
      </trkpt>
      <trkpt lat="43.1012470" lon="-1.0606400">
        <ele>1014.4</ele>
        <time>2020-07-29T10:19:49Z</time>
      </trkpt>
      <trkpt lat="43.1012790" lon="-1.0606830">
        <ele>1014.4</ele>
        <time>2020-07-29T10:19:50Z</time>
      </trkpt>
      <trkpt lat="43.1013120" lon="-1.0607290">
        <ele>1014.2</ele>
        <time>2020-07-29T10:19:51Z</time>
      </trkpt>
      <trkpt lat="43.1014140" lon="-1.0608740">
        <ele>1013.8</ele>
        <time>2020-07-29T10:19:54Z</time>
      </trkpt>
      <trkpt lat="43.1015250" lon="-1.0610270">
        <ele>1013.8</ele>
        <time>2020-07-29T10:19:57Z</time>
      </trkpt>
      <trkpt lat="43.1017620" lon="-1.0613670">
        <ele>1013.0</ele>
        <time>2020-07-29T10:20:03Z</time>
      </trkpt>
      <trkpt lat="43.1018050" lon="-1.0614310">
        <ele>1012.6</ele>
        <time>2020-07-29T10:20:04Z</time>
      </trkpt>
      <trkpt lat="43.1019500" lon="-1.0616470">
        <ele>1011.8</ele>
        <time>2020-07-29T10:20:07Z</time>
      </trkpt>
      <trkpt lat="43.1020020" lon="-1.0617150">
        <ele>1011.6</ele>
        <time>2020-07-29T10:20:08Z</time>
      </trkpt>
      <trkpt lat="43.1020560" lon="-1.0617800">
        <ele>1011.2</ele>
        <time>2020-07-29T10:20:09Z</time>
      </trkpt>
      <trkpt lat="43.1023890" lon="-1.0620290">
        <ele>1010.4</ele>
        <time>2020-07-29T10:20:14Z</time>
      </trkpt>
      <trkpt lat="43.1025380" lon="-1.0621060">
        <ele>1009.8</ele>
        <time>2020-07-29T10:20:16Z</time>
      </trkpt>
      <trkpt lat="43.1026140" lon="-1.0621410">
        <ele>1009.8</ele>
        <time>2020-07-29T10:20:17Z</time>
      </trkpt>
      <trkpt lat="43.1026880" lon="-1.0621750">
        <ele>1009.4</ele>
        <time>2020-07-29T10:20:18Z</time>
      </trkpt>
      <trkpt lat="43.1027600" lon="-1.0622070">
        <ele>1009.2</ele>
        <time>2020-07-29T10:20:19Z</time>
      </trkpt>
      <trkpt lat="43.1028930" lon="-1.0622680">
        <ele>1008.8</ele>
        <time>2020-07-29T10:20:21Z</time>
      </trkpt>
      <trkpt lat="43.1031670" lon="-1.0623970">
        <ele>1010.0</ele>
        <time>2020-07-29T10:20:26Z</time>
      </trkpt>
      <trkpt lat="43.1032160" lon="-1.0624180">
        <ele>1010.2</ele>
        <time>2020-07-29T10:20:27Z</time>
      </trkpt>
      <trkpt lat="43.1033460" lon="-1.0624770">
        <ele>1011.4</ele>
        <time>2020-07-29T10:20:30Z</time>
      </trkpt>
      <trkpt lat="43.1034590" lon="-1.0625260">
        <ele>1012.0</ele>
        <time>2020-07-29T10:20:33Z</time>
      </trkpt>
      <trkpt lat="43.1035650" lon="-1.0625720">
        <ele>1012.4</ele>
        <time>2020-07-29T10:20:36Z</time>
      </trkpt>
      <trkpt lat="43.1036650" lon="-1.0626260">
        <ele>1013.0</ele>
        <time>2020-07-29T10:20:39Z</time>
      </trkpt>
      <trkpt lat="43.1037320" lon="-1.0626650">
        <ele>1013.4</ele>
        <time>2020-07-29T10:20:41Z</time>
      </trkpt>
      <trkpt lat="43.1037650" lon="-1.0626860">
        <ele>1013.4</ele>
        <time>2020-07-29T10:20:42Z</time>
      </trkpt>
      <trkpt lat="43.1039750" lon="-1.0627960">
        <ele>1014.2</ele>
        <time>2020-07-29T10:20:48Z</time>
      </trkpt>
      <trkpt lat="43.1040460" lon="-1.0628310">
        <ele>1014.6</ele>
        <time>2020-07-29T10:20:50Z</time>
      </trkpt>
      <trkpt lat="43.1040790" lon="-1.0628450">
        <ele>1014.6</ele>
        <time>2020-07-29T10:20:51Z</time>
      </trkpt>
      <trkpt lat="43.1041430" lon="-1.0628700">
        <ele>1014.8</ele>
        <time>2020-07-29T10:20:53Z</time>
      </trkpt>
      <trkpt lat="43.1042370" lon="-1.0629050">
        <ele>1015.8</ele>
        <time>2020-07-29T10:20:56Z</time>
      </trkpt>
      <trkpt lat="43.1043610" lon="-1.0629340">
        <ele>1017.0</ele>
        <time>2020-07-29T10:21:00Z</time>
      </trkpt>
      <trkpt lat="43.1043910" lon="-1.0629360">
        <ele>1017.2</ele>
        <time>2020-07-29T10:21:01Z</time>
      </trkpt>
      <trkpt lat="43.1044470" lon="-1.0629390">
        <ele>1017.4</ele>
        <time>2020-07-29T10:21:03Z</time>
      </trkpt>
      <trkpt lat="43.1045500" lon="-1.0629410">
        <ele>1017.8</ele>
        <time>2020-07-29T10:21:07Z</time>
      </trkpt>
      <trkpt lat="43.1046040" lon="-1.0629390">
        <ele>1018.2</ele>
        <time>2020-07-29T10:21:09Z</time>
      </trkpt>
      <trkpt lat="43.1046330" lon="-1.0629400">
        <ele>1018.4</ele>
        <time>2020-07-29T10:21:10Z</time>
      </trkpt>
      <trkpt lat="43.1047490" lon="-1.0629640">
        <ele>1019.4</ele>
        <time>2020-07-29T10:21:15Z</time>
      </trkpt>
      <trkpt lat="43.1048650" lon="-1.0630170">
        <ele>1019.6</ele>
        <time>2020-07-29T10:21:21Z</time>
      </trkpt>
      <trkpt lat="43.1049170" lon="-1.0630530">
        <ele>1020.2</ele>
        <time>2020-07-29T10:21:26Z</time>
      </trkpt>
      <trkpt lat="43.1049430" lon="-1.0630800">
        <ele>1020.4</ele>
        <time>2020-07-29T10:21:32Z</time>
      </trkpt>
      <trkpt lat="43.1049420" lon="-1.0630820">
        <ele>1020.4</ele>
        <time>2020-07-29T10:21:33Z</time>
      </trkpt>
      <trkpt lat="43.1049470" lon="-1.0630930">
        <ele>1020.4</ele>
        <time>2020-07-29T10:21:35Z</time>
      </trkpt>
      <trkpt lat="43.1049620" lon="-1.0631130">
        <ele>1020.4</ele>
        <time>2020-07-29T10:21:37Z</time>
      </trkpt>
      <trkpt lat="43.1050060" lon="-1.0631800">
        <ele>1020.6</ele>
        <time>2020-07-29T10:21:42Z</time>
      </trkpt>
      <trkpt lat="43.1051020" lon="-1.0633260">
        <ele>1021.2</ele>
        <time>2020-07-29T10:21:48Z</time>
      </trkpt>
      <trkpt lat="43.1051660" lon="-1.0634500">
        <ele>1021.4</ele>
        <time>2020-07-29T10:21:51Z</time>
      </trkpt>
      <trkpt lat="43.1052480" lon="-1.0636760">
        <ele>1022.2</ele>
        <time>2020-07-29T10:21:56Z</time>
      </trkpt>
      <trkpt lat="43.1052820" lon="-1.0637710">
        <ele>1022.6</ele>
        <time>2020-07-29T10:21:58Z</time>
      </trkpt>
      <trkpt lat="43.1053750" lon="-1.0640080">
        <ele>1023.6</ele>
        <time>2020-07-29T10:22:03Z</time>
      </trkpt>
      <trkpt lat="43.1054100" lon="-1.0641030">
        <ele>1024.0</ele>
        <time>2020-07-29T10:22:05Z</time>
      </trkpt>
      <trkpt lat="43.1054460" lon="-1.0642000">
        <ele>1024.2</ele>
        <time>2020-07-29T10:22:07Z</time>
      </trkpt>
      <trkpt lat="43.1055260" lon="-1.0643900">
        <ele>1024.8</ele>
        <time>2020-07-29T10:22:11Z</time>
      </trkpt>
      <trkpt lat="43.1055700" lon="-1.0644770">
        <ele>1025.0</ele>
        <time>2020-07-29T10:22:13Z</time>
      </trkpt>
      <trkpt lat="43.1055900" lon="-1.0645200">
        <ele>1025.2</ele>
        <time>2020-07-29T10:22:14Z</time>
      </trkpt>
      <trkpt lat="43.1057210" lon="-1.0647780">
        <ele>1025.8</ele>
        <time>2020-07-29T10:22:20Z</time>
      </trkpt>
      <trkpt lat="43.1057430" lon="-1.0648240">
        <ele>1025.8</ele>
        <time>2020-07-29T10:22:21Z</time>
      </trkpt>
      <trkpt lat="43.1058080" lon="-1.0649640">
        <ele>1026.8</ele>
        <time>2020-07-29T10:22:24Z</time>
      </trkpt>
      <trkpt lat="43.1058290" lon="-1.0650100">
        <ele>1027.0</ele>
        <time>2020-07-29T10:22:25Z</time>
      </trkpt>
      <trkpt lat="43.1059280" lon="-1.0652460">
        <ele>1027.6</ele>
        <time>2020-07-29T10:22:30Z</time>
      </trkpt>
      <trkpt lat="43.1059480" lon="-1.0652940">
        <ele>1027.8</ele>
        <time>2020-07-29T10:22:31Z</time>
      </trkpt>
      <trkpt lat="43.1059670" lon="-1.0653420">
        <ele>1028.0</ele>
        <time>2020-07-29T10:22:32Z</time>
      </trkpt>
      <trkpt lat="43.1060780" lon="-1.0656240">
        <ele>1029.0</ele>
        <time>2020-07-29T10:22:38Z</time>
      </trkpt>
      <trkpt lat="43.1060950" lon="-1.0656680">
        <ele>1029.2</ele>
        <time>2020-07-29T10:22:39Z</time>
      </trkpt>
      <trkpt lat="43.1061120" lon="-1.0657140">
        <ele>1029.4</ele>
        <time>2020-07-29T10:22:40Z</time>
      </trkpt>
      <trkpt lat="43.1061860" lon="-1.0658980">
        <ele>1030.2</ele>
        <time>2020-07-29T10:22:44Z</time>
      </trkpt>
      <trkpt lat="43.1062870" lon="-1.0661270">
        <ele>1031.2</ele>
        <time>2020-07-29T10:22:49Z</time>
      </trkpt>
      <trkpt lat="43.1064140" lon="-1.0664050">
        <ele>1032.2</ele>
        <time>2020-07-29T10:22:55Z</time>
      </trkpt>
      <trkpt lat="43.1064390" lon="-1.0664510">
        <ele>1032.4</ele>
        <time>2020-07-29T10:22:56Z</time>
      </trkpt>
      <trkpt lat="43.1064920" lon="-1.0665420">
        <ele>1033.0</ele>
        <time>2020-07-29T10:22:58Z</time>
      </trkpt>
      <trkpt lat="43.1065460" lon="-1.0666320">
        <ele>1033.2</ele>
        <time>2020-07-29T10:23:00Z</time>
      </trkpt>
      <trkpt lat="43.1065990" lon="-1.0667160">
        <ele>1033.6</ele>
        <time>2020-07-29T10:23:02Z</time>
      </trkpt>
      <trkpt lat="43.1067300" lon="-1.0669350">
        <ele>1034.2</ele>
        <time>2020-07-29T10:23:07Z</time>
      </trkpt>
      <trkpt lat="43.1067840" lon="-1.0670260">
        <ele>1034.6</ele>
        <time>2020-07-29T10:23:09Z</time>
      </trkpt>
      <trkpt lat="43.1068100" lon="-1.0670750">
        <ele>1034.6</ele>
        <time>2020-07-29T10:23:10Z</time>
      </trkpt>
      <trkpt lat="43.1069410" lon="-1.0673130">
        <ele>1035.4</ele>
        <time>2020-07-29T10:23:15Z</time>
      </trkpt>
      <trkpt lat="43.1069650" lon="-1.0673600">
        <ele>1035.8</ele>
        <time>2020-07-29T10:23:16Z</time>
      </trkpt>
      <trkpt lat="43.1069910" lon="-1.0674060">
        <ele>1036.0</ele>
        <time>2020-07-29T10:23:17Z</time>
      </trkpt>
      <trkpt lat="43.1071470" lon="-1.0676640">
        <ele>1036.2</ele>
        <time>2020-07-29T10:23:23Z</time>
      </trkpt>
      <trkpt lat="43.1072630" lon="-1.0678440">
        <ele>1036.8</ele>
        <time>2020-07-29T10:23:27Z</time>
      </trkpt>
      <trkpt lat="43.1073750" lon="-1.0679820">
        <ele>1037.0</ele>
        <time>2020-07-29T10:23:30Z</time>
      </trkpt>
      <trkpt lat="43.1074170" lon="-1.0680190">
        <ele>1037.0</ele>
        <time>2020-07-29T10:23:31Z</time>
      </trkpt>
      <trkpt lat="43.1074610" lon="-1.0680510">
        <ele>1036.8</ele>
        <time>2020-07-29T10:23:32Z</time>
      </trkpt>
      <trkpt lat="43.1075920" lon="-1.0681300">
        <ele>1037.0</ele>
        <time>2020-07-29T10:23:35Z</time>
      </trkpt>
      <trkpt lat="43.1076360" lon="-1.0681560">
        <ele>1037.0</ele>
        <time>2020-07-29T10:23:36Z</time>
      </trkpt>
      <trkpt lat="43.1078910" lon="-1.0683440">
        <ele>1037.6</ele>
        <time>2020-07-29T10:23:42Z</time>
      </trkpt>
      <trkpt lat="43.1079690" lon="-1.0684090">
        <ele>1037.8</ele>
        <time>2020-07-29T10:23:44Z</time>
      </trkpt>
      <trkpt lat="43.1080440" lon="-1.0684690">
        <ele>1037.8</ele>
        <time>2020-07-29T10:23:46Z</time>
      </trkpt>
      <trkpt lat="43.1082010" lon="-1.0686170">
        <ele>1038.0</ele>
        <time>2020-07-29T10:23:50Z</time>
      </trkpt>
      <trkpt lat="43.1084150" lon="-1.0688690">
        <ele>1038.4</ele>
        <time>2020-07-29T10:23:56Z</time>
      </trkpt>
      <trkpt lat="43.1084470" lon="-1.0689070">
        <ele>1038.4</ele>
        <time>2020-07-29T10:23:57Z</time>
      </trkpt>
      <trkpt lat="43.1085400" lon="-1.0690260">
        <ele>1038.6</ele>
        <time>2020-07-29T10:24:00Z</time>
      </trkpt>
      <trkpt lat="43.1086820" lon="-1.0692240">
        <ele>1038.6</ele>
        <time>2020-07-29T10:24:05Z</time>
      </trkpt>
      <trkpt lat="43.1088440" lon="-1.0694220">
        <ele>1038.2</ele>
        <time>2020-07-29T10:24:10Z</time>
      </trkpt>
      <trkpt lat="43.1089190" lon="-1.0694620">
        <ele>1038.0</ele>
        <time>2020-07-29T10:24:12Z</time>
      </trkpt>
      <trkpt lat="43.1091780" lon="-1.0695080">
        <ele>1037.0</ele>
        <time>2020-07-29T10:24:18Z</time>
      </trkpt>
      <trkpt lat="43.1092170" lon="-1.0695160">
        <ele>1036.8</ele>
        <time>2020-07-29T10:24:19Z</time>
      </trkpt>
      <trkpt lat="43.1093130" lon="-1.0695400">
        <ele>1037.2</ele>
        <time>2020-07-29T10:24:23Z</time>
      </trkpt>
      <trkpt lat="43.1093280" lon="-1.0695270">
        <ele>1037.2</ele>
        <time>2020-07-29T10:24:27Z</time>
      </trkpt>
      <trkpt lat="43.1093260" lon="-1.0695270">
        <ele>1037.2</ele>
        <time>2020-07-29T10:24:28Z</time>
      </trkpt>
      <trkpt lat="43.1094360" lon="-1.0696400">
        <ele>1037.2</ele>
        <time>2020-07-29T10:24:51Z</time>
      </trkpt>
      <trkpt lat="43.1094660" lon="-1.0696680">
        <ele>1037.2</ele>
        <time>2020-07-29T10:24:52Z</time>
      </trkpt>
      <trkpt lat="43.1096930" lon="-1.0698850">
        <ele>1037.0</ele>
        <time>2020-07-29T10:24:58Z</time>
      </trkpt>
      <trkpt lat="43.1097760" lon="-1.0699660">
        <ele>1037.0</ele>
        <time>2020-07-29T10:25:00Z</time>
      </trkpt>
      <trkpt lat="43.1099060" lon="-1.0700920">
        <ele>1037.0</ele>
        <time>2020-07-29T10:25:03Z</time>
      </trkpt>
      <trkpt lat="43.1100690" lon="-1.0702710">
        <ele>1037.0</ele>
        <time>2020-07-29T10:25:07Z</time>
      </trkpt>
      <trkpt lat="43.1101410" lon="-1.0703550">
        <ele>1037.0</ele>
        <time>2020-07-29T10:25:10Z</time>
      </trkpt>
      <trkpt lat="43.1101460" lon="-1.0703650">
        <ele>1037.0</ele>
        <time>2020-07-29T10:25:12Z</time>
      </trkpt>
      <trkpt lat="43.1103270" lon="-1.0705100">
        <ele>1036.6</ele>
        <time>2020-07-29T10:25:46Z</time>
      </trkpt>
      <trkpt lat="43.1104640" lon="-1.0706540">
        <ele>1036.8</ele>
        <time>2020-07-29T10:25:50Z</time>
      </trkpt>
      <trkpt lat="43.1105840" lon="-1.0707740">
        <ele>1036.8</ele>
        <time>2020-07-29T10:25:53Z</time>
      </trkpt>
      <trkpt lat="43.1107690" lon="-1.0709250">
        <ele>1036.4</ele>
        <time>2020-07-29T10:25:57Z</time>
      </trkpt>
      <trkpt lat="43.1109670" lon="-1.0710380">
        <ele>1036.2</ele>
        <time>2020-07-29T10:26:01Z</time>
      </trkpt>
      <trkpt lat="43.1111780" lon="-1.0711110">
        <ele>1035.8</ele>
        <time>2020-07-29T10:26:05Z</time>
      </trkpt>
      <trkpt lat="43.1113870" lon="-1.0712060">
        <ele>1035.4</ele>
        <time>2020-07-29T10:26:09Z</time>
      </trkpt>
      <trkpt lat="43.1115370" lon="-1.0712980">
        <ele>1035.2</ele>
        <time>2020-07-29T10:26:12Z</time>
      </trkpt>
      <trkpt lat="43.1116750" lon="-1.0714340">
        <ele>1035.4</ele>
        <time>2020-07-29T10:26:15Z</time>
      </trkpt>
      <trkpt lat="43.1118620" lon="-1.0716660">
        <ele>1035.4</ele>
        <time>2020-07-29T10:26:19Z</time>
      </trkpt>
      <trkpt lat="43.1119110" lon="-1.0717300">
        <ele>1035.2</ele>
        <time>2020-07-29T10:26:20Z</time>
      </trkpt>
      <trkpt lat="43.1120070" lon="-1.0718610">
        <ele>1035.0</ele>
        <time>2020-07-29T10:26:22Z</time>
      </trkpt>
      <trkpt lat="43.1121050" lon="-1.0719930">
        <ele>1034.8</ele>
        <time>2020-07-29T10:26:24Z</time>
      </trkpt>
      <trkpt lat="43.1122410" lon="-1.0721900">
        <ele>1033.6</ele>
        <time>2020-07-29T10:26:27Z</time>
      </trkpt>
      <trkpt lat="43.1122830" lon="-1.0722530">
        <ele>1033.6</ele>
        <time>2020-07-29T10:26:28Z</time>
      </trkpt>
      <trkpt lat="43.1123640" lon="-1.0723840">
        <ele>1033.8</ele>
        <time>2020-07-29T10:26:30Z</time>
      </trkpt>
      <trkpt lat="43.1125790" lon="-1.0727990">
        <ele>1034.2</ele>
        <time>2020-07-29T10:26:36Z</time>
      </trkpt>
      <trkpt lat="43.1126110" lon="-1.0728710">
        <ele>1034.2</ele>
        <time>2020-07-29T10:26:37Z</time>
      </trkpt>
      <trkpt lat="43.1127830" lon="-1.0733330">
        <ele>1034.2</ele>
        <time>2020-07-29T10:26:43Z</time>
      </trkpt>
      <trkpt lat="43.1128150" lon="-1.0734120">
        <ele>1034.0</ele>
        <time>2020-07-29T10:26:44Z</time>
      </trkpt>
      <trkpt lat="43.1129200" lon="-1.0736410">
        <ele>1033.8</ele>
        <time>2020-07-29T10:26:47Z</time>
      </trkpt>
      <trkpt lat="43.1130420" lon="-1.0738140">
        <ele>1033.6</ele>
        <time>2020-07-29T10:26:50Z</time>
      </trkpt>
      <trkpt lat="43.1132940" lon="-1.0741220">
        <ele>1033.4</ele>
        <time>2020-07-29T10:26:56Z</time>
      </trkpt>
      <trkpt lat="43.1133910" lon="-1.0742370">
        <ele>1033.0</ele>
        <time>2020-07-29T10:26:58Z</time>
      </trkpt>
      <trkpt lat="43.1134420" lon="-1.0742980">
        <ele>1032.6</ele>
        <time>2020-07-29T10:26:59Z</time>
      </trkpt>
      <trkpt lat="43.1136130" lon="-1.0744760">
        <ele>1031.6</ele>
        <time>2020-07-29T10:27:02Z</time>
      </trkpt>
      <trkpt lat="43.1137320" lon="-1.0746000">
        <ele>1030.8</ele>
        <time>2020-07-29T10:27:04Z</time>
      </trkpt>
      <trkpt lat="43.1138480" lon="-1.0747240">
        <ele>1030.6</ele>
        <time>2020-07-29T10:27:06Z</time>
      </trkpt>
      <trkpt lat="43.1140320" lon="-1.0749740">
        <ele>1030.6</ele>
        <time>2020-07-29T10:27:10Z</time>
      </trkpt>
      <trkpt lat="43.1142320" lon="-1.0753750">
        <ele>1030.6</ele>
        <time>2020-07-29T10:27:16Z</time>
      </trkpt>
      <trkpt lat="43.1143000" lon="-1.0755060">
        <ele>1031.0</ele>
        <time>2020-07-29T10:27:18Z</time>
      </trkpt>
      <trkpt lat="43.1144890" lon="-1.0759210">
        <ele>1031.0</ele>
        <time>2020-07-29T10:27:24Z</time>
      </trkpt>
      <trkpt lat="43.1145110" lon="-1.0760020">
        <ele>1030.8</ele>
        <time>2020-07-29T10:27:25Z</time>
      </trkpt>
      <trkpt lat="43.1146470" lon="-1.0763910">
        <ele>1030.2</ele>
        <time>2020-07-29T10:27:30Z</time>
      </trkpt>
      <trkpt lat="43.1146860" lon="-1.0764580">
        <ele>1030.2</ele>
        <time>2020-07-29T10:27:31Z</time>
      </trkpt>
      <trkpt lat="43.1149280" lon="-1.0768190">
        <ele>1030.2</ele>
        <time>2020-07-29T10:27:37Z</time>
      </trkpt>
      <trkpt lat="43.1150560" lon="-1.0770060">
        <ele>1029.8</ele>
        <time>2020-07-29T10:27:40Z</time>
      </trkpt>
      <trkpt lat="43.1152730" lon="-1.0774080">
        <ele>1029.6</ele>
        <time>2020-07-29T10:27:46Z</time>
      </trkpt>
      <trkpt lat="43.1153090" lon="-1.0774790">
        <ele>1029.4</ele>
        <time>2020-07-29T10:27:47Z</time>
      </trkpt>
      <trkpt lat="43.1154510" lon="-1.0777580">
        <ele>1029.0</ele>
        <time>2020-07-29T10:27:51Z</time>
      </trkpt>
      <trkpt lat="43.1155480" lon="-1.0778750">
        <ele>1028.6</ele>
        <time>2020-07-29T10:27:53Z</time>
      </trkpt>
      <trkpt lat="43.1156070" lon="-1.0779170">
        <ele>1028.2</ele>
        <time>2020-07-29T10:27:54Z</time>
      </trkpt>
      <trkpt lat="43.1156720" lon="-1.0779510">
        <ele>1028.0</ele>
        <time>2020-07-29T10:27:55Z</time>
      </trkpt>
      <trkpt lat="43.1158110" lon="-1.0780020">
        <ele>1027.0</ele>
        <time>2020-07-29T10:27:57Z</time>
      </trkpt>
      <trkpt lat="43.1158780" lon="-1.0780320">
        <ele>1026.4</ele>
        <time>2020-07-29T10:27:58Z</time>
      </trkpt>
      <trkpt lat="43.1159430" lon="-1.0780670">
        <ele>1025.8</ele>
        <time>2020-07-29T10:27:59Z</time>
      </trkpt>
      <trkpt lat="43.1160660" lon="-1.0781530">
        <ele>1024.6</ele>
        <time>2020-07-29T10:28:01Z</time>
      </trkpt>
      <trkpt lat="43.1161270" lon="-1.0782040">
        <ele>1024.2</ele>
        <time>2020-07-29T10:28:02Z</time>
      </trkpt>
      <trkpt lat="43.1163030" lon="-1.0783850">
        <ele>1023.4</ele>
        <time>2020-07-29T10:28:05Z</time>
      </trkpt>
      <trkpt lat="43.1164850" lon="-1.0785930">
        <ele>1022.2</ele>
        <time>2020-07-29T10:28:08Z</time>
      </trkpt>
      <trkpt lat="43.1166530" lon="-1.0787470">
        <ele>1021.0</ele>
        <time>2020-07-29T10:28:11Z</time>
      </trkpt>
      <trkpt lat="43.1166970" lon="-1.0787790">
        <ele>1020.6</ele>
        <time>2020-07-29T10:28:12Z</time>
      </trkpt>
      <trkpt lat="43.1167340" lon="-1.0788040">
        <ele>1020.6</ele>
        <time>2020-07-29T10:28:13Z</time>
      </trkpt>
      <trkpt lat="43.1167910" lon="-1.0788320">
        <ele>1020.4</ele>
        <time>2020-07-29T10:28:15Z</time>
      </trkpt>
      <trkpt lat="43.1168130" lon="-1.0788400">
        <ele>1020.4</ele>
        <time>2020-07-29T10:28:16Z</time>
      </trkpt>
      <trkpt lat="43.1169150" lon="-1.0788770">
        <ele>1020.0</ele>
        <time>2020-07-29T10:28:22Z</time>
      </trkpt>
      <trkpt lat="43.1169320" lon="-1.0788820">
        <ele>1019.8</ele>
        <time>2020-07-29T10:28:23Z</time>
      </trkpt>
      <trkpt lat="43.1169760" lon="-1.0788900">
        <ele>1019.4</ele>
        <time>2020-07-29T10:28:25Z</time>
      </trkpt>
      <trkpt lat="43.1171030" lon="-1.0789080">
        <ele>1018.8</ele>
        <time>2020-07-29T10:28:29Z</time>
      </trkpt>
      <trkpt lat="43.1171360" lon="-1.0789070">
        <ele>1018.4</ele>
        <time>2020-07-29T10:28:30Z</time>
      </trkpt>
      <trkpt lat="43.1172260" lon="-1.0789000">
        <ele>1017.6</ele>
        <time>2020-07-29T10:28:33Z</time>
      </trkpt>
      <trkpt lat="43.1173240" lon="-1.0788990">
        <ele>1016.6</ele>
        <time>2020-07-29T10:28:37Z</time>
      </trkpt>
      <trkpt lat="43.1173600" lon="-1.0788980">
        <ele>1016.4</ele>
        <time>2020-07-29T10:28:38Z</time>
      </trkpt>
      <trkpt lat="43.1175180" lon="-1.0788860">
        <ele>1015.2</ele>
        <time>2020-07-29T10:28:41Z</time>
      </trkpt>
      <trkpt lat="43.1176530" lon="-1.0788870">
        <ele>1013.8</ele>
        <time>2020-07-29T10:28:43Z</time>
      </trkpt>
      <trkpt lat="43.1178000" lon="-1.0789110">
        <ele>1012.2</ele>
        <time>2020-07-29T10:28:45Z</time>
      </trkpt>
      <trkpt lat="43.1178640" lon="-1.0789280">
        <ele>1011.6</ele>
        <time>2020-07-29T10:28:46Z</time>
      </trkpt>
      <trkpt lat="43.1179150" lon="-1.0789450">
        <ele>1011.0</ele>
        <time>2020-07-29T10:28:47Z</time>
      </trkpt>
      <trkpt lat="43.1180730" lon="-1.0790220">
        <ele>1010.2</ele>
        <time>2020-07-29T10:28:50Z</time>
      </trkpt>
      <trkpt lat="43.1181270" lon="-1.0790490">
        <ele>1009.8</ele>
        <time>2020-07-29T10:28:51Z</time>
      </trkpt>
      <trkpt lat="43.1182130" lon="-1.0790950">
        <ele>1008.8</ele>
        <time>2020-07-29T10:28:53Z</time>
      </trkpt>
      <trkpt lat="43.1182390" lon="-1.0791120">
        <ele>1008.4</ele>
        <time>2020-07-29T10:28:54Z</time>
      </trkpt>
      <trkpt lat="43.1182580" lon="-1.0791250">
        <ele>1008.0</ele>
        <time>2020-07-29T10:28:57Z</time>
      </trkpt>
      <trkpt lat="43.1182580" lon="-1.0791260">
        <ele>1007.8</ele>
        <time>2020-07-29T10:28:58Z</time>
      </trkpt>
      <trkpt lat="43.1182600" lon="-1.0791320">
        <ele>1007.8</ele>
        <time>2020-07-29T10:29:04Z</time>
      </trkpt>
      <trkpt lat="43.1182560" lon="-1.0791330">
        <ele>1008.2</ele>
        <time>2020-07-29T10:29:06Z</time>
      </trkpt>
      <trkpt lat="43.1182550" lon="-1.0791350">
        <ele>1008.4</ele>
        <time>2020-07-29T10:29:07Z</time>
      </trkpt>
      <trkpt lat="43.1182510" lon="-1.0791400">
        <ele>1008.2</ele>
        <time>2020-07-29T10:29:13Z</time>
      </trkpt>
      <trkpt lat="43.1182500" lon="-1.0791400">
        <ele>1007.6</ele>
        <time>2020-07-29T10:29:17Z</time>
      </trkpt>
      <trkpt lat="43.1182510" lon="-1.0791400">
        <ele>1007.4</ele>
        <time>2020-07-29T10:29:18Z</time>
      </trkpt>
      <trkpt lat="43.1182500" lon="-1.0791430">
        <ele>1007.8</ele>
        <time>2020-07-29T10:29:24Z</time>
      </trkpt>
      <trkpt lat="43.1182720" lon="-1.0791690">
        <ele>1007.8</ele>
        <time>2020-07-29T10:29:26Z</time>
      </trkpt>
      <trkpt lat="43.1182880" lon="-1.0791870">
        <ele>1007.6</ele>
        <time>2020-07-29T10:29:27Z</time>
      </trkpt>
      <trkpt lat="43.1184120" lon="-1.0793150">
        <ele>1007.0</ele>
        <time>2020-07-29T10:29:31Z</time>
      </trkpt>
      <trkpt lat="43.1185020" lon="-1.0794070">
        <ele>1006.8</ele>
        <time>2020-07-29T10:29:33Z</time>
      </trkpt>
      <trkpt lat="43.1186510" lon="-1.0795700">
        <ele>1006.4</ele>
        <time>2020-07-29T10:29:36Z</time>
      </trkpt>
      <trkpt lat="43.1187030" lon="-1.0796310">
        <ele>1006.0</ele>
        <time>2020-07-29T10:29:37Z</time>
      </trkpt>
      <trkpt lat="43.1187540" lon="-1.0796950">
        <ele>1005.4</ele>
        <time>2020-07-29T10:29:38Z</time>
      </trkpt>
      <trkpt lat="43.1188550" lon="-1.0798340">
        <ele>1004.4</ele>
        <time>2020-07-29T10:29:40Z</time>
      </trkpt>
      <trkpt lat="43.1189070" lon="-1.0799070">
        <ele>1004.2</ele>
        <time>2020-07-29T10:29:41Z</time>
      </trkpt>
      <trkpt lat="43.1189590" lon="-1.0799820">
        <ele>1003.8</ele>
        <time>2020-07-29T10:29:42Z</time>
      </trkpt>
      <trkpt lat="43.1190640" lon="-1.0801390">
        <ele>1003.0</ele>
        <time>2020-07-29T10:29:44Z</time>
      </trkpt>
      <trkpt lat="43.1192270" lon="-1.0803930">
        <ele>1002.0</ele>
        <time>2020-07-29T10:29:47Z</time>
      </trkpt>
      <trkpt lat="43.1193420" lon="-1.0805600">
        <ele>1001.6</ele>
        <time>2020-07-29T10:29:49Z</time>
      </trkpt>
      <trkpt lat="43.1195660" lon="-1.0808630">
        <ele>1000.0</ele>
        <time>2020-07-29T10:29:53Z</time>
      </trkpt>
      <trkpt lat="43.1196180" lon="-1.0809390">
        <ele>999.2</ele>
        <time>2020-07-29T10:29:54Z</time>
      </trkpt>
      <trkpt lat="43.1196660" lon="-1.0810180">
        <ele>998.6</ele>
        <time>2020-07-29T10:29:55Z</time>
      </trkpt>
      <trkpt lat="43.1197130" lon="-1.0811010">
        <ele>998.2</ele>
        <time>2020-07-29T10:29:56Z</time>
      </trkpt>
      <trkpt lat="43.1197600" lon="-1.0811860">
        <ele>997.6</ele>
        <time>2020-07-29T10:29:57Z</time>
      </trkpt>
      <trkpt lat="43.1198070" lon="-1.0812730">
        <ele>997.0</ele>
        <time>2020-07-29T10:29:58Z</time>
      </trkpt>
      <trkpt lat="43.1199020" lon="-1.0814570">
        <ele>995.8</ele>
        <time>2020-07-29T10:30:00Z</time>
      </trkpt>
      <trkpt lat="43.1200020" lon="-1.0816430">
        <ele>994.2</ele>
        <time>2020-07-29T10:30:02Z</time>
      </trkpt>
      <trkpt lat="43.1200560" lon="-1.0817320">
        <ele>993.6</ele>
        <time>2020-07-29T10:30:03Z</time>
      </trkpt>
      <trkpt lat="43.1201750" lon="-1.0818980">
        <ele>993.0</ele>
        <time>2020-07-29T10:30:05Z</time>
      </trkpt>
      <trkpt lat="43.1202960" lon="-1.0820530">
        <ele>992.0</ele>
        <time>2020-07-29T10:30:07Z</time>
      </trkpt>
      <trkpt lat="43.1203460" lon="-1.0821180">
        <ele>991.4</ele>
        <time>2020-07-29T10:30:08Z</time>
      </trkpt>
      <trkpt lat="43.1203880" lon="-1.0821730">
        <ele>990.8</ele>
        <time>2020-07-29T10:30:09Z</time>
      </trkpt>
      <trkpt lat="43.1204470" lon="-1.0822510">
        <ele>989.4</ele>
        <time>2020-07-29T10:30:11Z</time>
      </trkpt>
      <trkpt lat="43.1204840" lon="-1.0822990">
        <ele>988.2</ele>
        <time>2020-07-29T10:30:13Z</time>
      </trkpt>
      <trkpt lat="43.1205330" lon="-1.0823600">
        <ele>987.2</ele>
        <time>2020-07-29T10:30:16Z</time>
      </trkpt>
      <trkpt lat="43.1205530" lon="-1.0823820">
        <ele>987.0</ele>
        <time>2020-07-29T10:30:17Z</time>
      </trkpt>
      <trkpt lat="43.1205740" lon="-1.0824070">
        <ele>986.8</ele>
        <time>2020-07-29T10:30:18Z</time>
      </trkpt>
      <trkpt lat="43.1206790" lon="-1.0825280">
        <ele>986.4</ele>
        <time>2020-07-29T10:30:22Z</time>
      </trkpt>
      <trkpt lat="43.1207140" lon="-1.0825690">
        <ele>986.0</ele>
        <time>2020-07-29T10:30:23Z</time>
      </trkpt>
      <trkpt lat="43.1208750" lon="-1.0827680">
        <ele>985.0</ele>
        <time>2020-07-29T10:30:27Z</time>
      </trkpt>
      <trkpt lat="43.1210320" lon="-1.0829750">
        <ele>984.0</ele>
        <time>2020-07-29T10:30:32Z</time>
      </trkpt>
      <trkpt lat="43.1210670" lon="-1.0830140">
        <ele>983.8</ele>
        <time>2020-07-29T10:30:33Z</time>
      </trkpt>
      <trkpt lat="43.1212410" lon="-1.0831950">
        <ele>982.6</ele>
        <time>2020-07-29T10:30:37Z</time>
      </trkpt>
      <trkpt lat="43.1215400" lon="-1.0834700">
        <ele>981.0</ele>
        <time>2020-07-29T10:30:42Z</time>
      </trkpt>
      <trkpt lat="43.1216110" lon="-1.0835200">
        <ele>980.4</ele>
        <time>2020-07-29T10:30:43Z</time>
      </trkpt>
      <trkpt lat="43.1218480" lon="-1.0836180">
        <ele>979.8</ele>
        <time>2020-07-29T10:30:46Z</time>
      </trkpt>
      <trkpt lat="43.1220190" lon="-1.0836490">
        <ele>978.4</ele>
        <time>2020-07-29T10:30:48Z</time>
      </trkpt>
      <trkpt lat="43.1221860" lon="-1.0836630">
        <ele>977.2</ele>
        <time>2020-07-29T10:30:50Z</time>
      </trkpt>
      <trkpt lat="43.1222640" lon="-1.0836650">
        <ele>976.6</ele>
        <time>2020-07-29T10:30:51Z</time>
      </trkpt>
      <trkpt lat="43.1223340" lon="-1.0836640">
        <ele>975.8</ele>
        <time>2020-07-29T10:30:52Z</time>
      </trkpt>
      <trkpt lat="43.1224700" lon="-1.0836560">
        <ele>974.6</ele>
        <time>2020-07-29T10:30:54Z</time>
      </trkpt>
      <trkpt lat="43.1226190" lon="-1.0836490">
        <ele>974.0</ele>
        <time>2020-07-29T10:30:56Z</time>
      </trkpt>
      <trkpt lat="43.1226970" lon="-1.0836540">
        <ele>973.4</ele>
        <time>2020-07-29T10:30:57Z</time>
      </trkpt>
      <trkpt lat="43.1227780" lon="-1.0836670">
        <ele>973.0</ele>
        <time>2020-07-29T10:30:58Z</time>
      </trkpt>
      <trkpt lat="43.1228600" lon="-1.0836910">
        <ele>972.4</ele>
        <time>2020-07-29T10:30:59Z</time>
      </trkpt>
      <trkpt lat="43.1229420" lon="-1.0837230">
        <ele>971.8</ele>
        <time>2020-07-29T10:31:00Z</time>
      </trkpt>
      <trkpt lat="43.1230230" lon="-1.0837620">
        <ele>971.6</ele>
        <time>2020-07-29T10:31:01Z</time>
      </trkpt>
      <trkpt lat="43.1231010" lon="-1.0838110">
        <ele>971.0</ele>
        <time>2020-07-29T10:31:02Z</time>
      </trkpt>
      <trkpt lat="43.1232480" lon="-1.0839260">
        <ele>970.2</ele>
        <time>2020-07-29T10:31:04Z</time>
      </trkpt>
      <trkpt lat="43.1233160" lon="-1.0839830">
        <ele>969.4</ele>
        <time>2020-07-29T10:31:05Z</time>
      </trkpt>
      <trkpt lat="43.1234480" lon="-1.0841100">
        <ele>968.0</ele>
        <time>2020-07-29T10:31:07Z</time>
      </trkpt>
      <trkpt lat="43.1235820" lon="-1.0842440">
        <ele>967.0</ele>
        <time>2020-07-29T10:31:09Z</time>
      </trkpt>
      <trkpt lat="43.1236490" lon="-1.0843120">
        <ele>966.6</ele>
        <time>2020-07-29T10:31:10Z</time>
      </trkpt>
      <trkpt lat="43.1239140" lon="-1.0845470">
        <ele>965.6</ele>
        <time>2020-07-29T10:31:14Z</time>
      </trkpt>
      <trkpt lat="43.1240570" lon="-1.0846510">
        <ele>964.0</ele>
        <time>2020-07-29T10:31:16Z</time>
      </trkpt>
      <trkpt lat="43.1242090" lon="-1.0847540">
        <ele>962.8</ele>
        <time>2020-07-29T10:31:18Z</time>
      </trkpt>
      <trkpt lat="43.1243600" lon="-1.0848640">
        <ele>961.4</ele>
        <time>2020-07-29T10:31:20Z</time>
      </trkpt>
      <trkpt lat="43.1245160" lon="-1.0849490">
        <ele>959.6</ele>
        <time>2020-07-29T10:31:22Z</time>
      </trkpt>
      <trkpt lat="43.1246730" lon="-1.0849780">
        <ele>958.0</ele>
        <time>2020-07-29T10:31:24Z</time>
      </trkpt>
      <trkpt lat="43.1248300" lon="-1.0849650">
        <ele>956.6</ele>
        <time>2020-07-29T10:31:26Z</time>
      </trkpt>
      <trkpt lat="43.1249800" lon="-1.0849280">
        <ele>955.4</ele>
        <time>2020-07-29T10:31:28Z</time>
      </trkpt>
      <trkpt lat="43.1251120" lon="-1.0848550">
        <ele>953.8</ele>
        <time>2020-07-29T10:31:30Z</time>
      </trkpt>
      <trkpt lat="43.1252200" lon="-1.0847380">
        <ele>952.2</ele>
        <time>2020-07-29T10:31:32Z</time>
      </trkpt>
      <trkpt lat="43.1252760" lon="-1.0846850">
        <ele>951.6</ele>
        <time>2020-07-29T10:31:33Z</time>
      </trkpt>
      <trkpt lat="43.1254040" lon="-1.0846500">
        <ele>950.8</ele>
        <time>2020-07-29T10:31:35Z</time>
      </trkpt>
      <trkpt lat="43.1254710" lon="-1.0846650">
        <ele>950.4</ele>
        <time>2020-07-29T10:31:36Z</time>
      </trkpt>
      <trkpt lat="43.1255410" lon="-1.0846860">
        <ele>949.4</ele>
        <time>2020-07-29T10:31:37Z</time>
      </trkpt>
      <trkpt lat="43.1256820" lon="-1.0847220">
        <ele>947.8</ele>
        <time>2020-07-29T10:31:39Z</time>
      </trkpt>
      <trkpt lat="43.1258180" lon="-1.0847500">
        <ele>946.8</ele>
        <time>2020-07-29T10:31:41Z</time>
      </trkpt>
      <trkpt lat="43.1258780" lon="-1.0847690">
        <ele>946.2</ele>
        <time>2020-07-29T10:31:42Z</time>
      </trkpt>
      <trkpt lat="43.1259320" lon="-1.0847920">
        <ele>945.4</ele>
        <time>2020-07-29T10:31:43Z</time>
      </trkpt>
      <trkpt lat="43.1260400" lon="-1.0848600">
        <ele>944.0</ele>
        <time>2020-07-29T10:31:45Z</time>
      </trkpt>
      <trkpt lat="43.1261300" lon="-1.0849310">
        <ele>942.6</ele>
        <time>2020-07-29T10:31:47Z</time>
      </trkpt>
      <trkpt lat="43.1262230" lon="-1.0850120">
        <ele>941.6</ele>
        <time>2020-07-29T10:31:49Z</time>
      </trkpt>
      <trkpt lat="43.1263330" lon="-1.0851120">
        <ele>940.4</ele>
        <time>2020-07-29T10:31:51Z</time>
      </trkpt>
      <trkpt lat="43.1263940" lon="-1.0851680">
        <ele>939.8</ele>
        <time>2020-07-29T10:31:52Z</time>
      </trkpt>
      <trkpt lat="43.1265260" lon="-1.0852700">
        <ele>939.2</ele>
        <time>2020-07-29T10:31:54Z</time>
      </trkpt>
      <trkpt lat="43.1266380" lon="-1.0853520">
        <ele>937.8</ele>
        <time>2020-07-29T10:31:56Z</time>
      </trkpt>
      <trkpt lat="43.1266940" lon="-1.0854410">
        <ele>935.8</ele>
        <time>2020-07-29T10:31:58Z</time>
      </trkpt>
      <trkpt lat="43.1267000" lon="-1.0854850">
        <ele>934.8</ele>
        <time>2020-07-29T10:31:59Z</time>
      </trkpt>
      <trkpt lat="43.1266880" lon="-1.0855230">
        <ele>934.0</ele>
        <time>2020-07-29T10:32:00Z</time>
      </trkpt>
      <trkpt lat="43.1266590" lon="-1.0855480">
        <ele>933.4</ele>
        <time>2020-07-29T10:32:01Z</time>
      </trkpt>
      <trkpt lat="43.1266180" lon="-1.0855580">
        <ele>933.0</ele>
        <time>2020-07-29T10:32:02Z</time>
      </trkpt>
      <trkpt lat="43.1265140" lon="-1.0855490">
        <ele>932.2</ele>
        <time>2020-07-29T10:32:04Z</time>
      </trkpt>
      <trkpt lat="43.1264530" lon="-1.0855470">
        <ele>932.0</ele>
        <time>2020-07-29T10:32:05Z</time>
      </trkpt>
      <trkpt lat="43.1263880" lon="-1.0855540">
        <ele>931.8</ele>
        <time>2020-07-29T10:32:06Z</time>
      </trkpt>
      <trkpt lat="43.1262420" lon="-1.0855880">
        <ele>931.0</ele>
        <time>2020-07-29T10:32:08Z</time>
      </trkpt>
      <trkpt lat="43.1260070" lon="-1.0856530">
        <ele>929.4</ele>
        <time>2020-07-29T10:32:11Z</time>
      </trkpt>
      <trkpt lat="43.1258550" lon="-1.0856960">
        <ele>928.0</ele>
        <time>2020-07-29T10:32:13Z</time>
      </trkpt>
      <trkpt lat="43.1257800" lon="-1.0857190">
        <ele>926.8</ele>
        <time>2020-07-29T10:32:14Z</time>
      </trkpt>
      <trkpt lat="43.1257050" lon="-1.0857430">
        <ele>925.8</ele>
        <time>2020-07-29T10:32:15Z</time>
      </trkpt>
      <trkpt lat="43.1255560" lon="-1.0858040">
        <ele>924.4</ele>
        <time>2020-07-29T10:32:17Z</time>
      </trkpt>
      <trkpt lat="43.1254820" lon="-1.0858520">
        <ele>923.8</ele>
        <time>2020-07-29T10:32:18Z</time>
      </trkpt>
      <trkpt lat="43.1254140" lon="-1.0859090">
        <ele>923.0</ele>
        <time>2020-07-29T10:32:19Z</time>
      </trkpt>
      <trkpt lat="43.1253520" lon="-1.0859760">
        <ele>921.8</ele>
        <time>2020-07-29T10:32:20Z</time>
      </trkpt>
      <trkpt lat="43.1252390" lon="-1.0861340">
        <ele>920.2</ele>
        <time>2020-07-29T10:32:22Z</time>
      </trkpt>
      <trkpt lat="43.1251610" lon="-1.0863240">
        <ele>919.0</ele>
        <time>2020-07-29T10:32:24Z</time>
      </trkpt>
      <trkpt lat="43.1251290" lon="-1.0864170">
        <ele>918.2</ele>
        <time>2020-07-29T10:32:25Z</time>
      </trkpt>
      <trkpt lat="43.1250900" lon="-1.0865090">
        <ele>917.0</ele>
        <time>2020-07-29T10:32:26Z</time>
      </trkpt>
      <trkpt lat="43.1250440" lon="-1.0865960">
        <ele>915.6</ele>
        <time>2020-07-29T10:32:27Z</time>
      </trkpt>
      <trkpt lat="43.1249910" lon="-1.0866760">
        <ele>914.2</ele>
        <time>2020-07-29T10:32:28Z</time>
      </trkpt>
      <trkpt lat="43.1249360" lon="-1.0867480">
        <ele>912.8</ele>
        <time>2020-07-29T10:32:29Z</time>
      </trkpt>
      <trkpt lat="43.1248210" lon="-1.0868810">
        <ele>911.2</ele>
        <time>2020-07-29T10:32:31Z</time>
      </trkpt>
      <trkpt lat="43.1246980" lon="-1.0870110">
        <ele>910.0</ele>
        <time>2020-07-29T10:32:33Z</time>
      </trkpt>
      <trkpt lat="43.1245700" lon="-1.0871360">
        <ele>908.8</ele>
        <time>2020-07-29T10:32:35Z</time>
      </trkpt>
      <trkpt lat="43.1244760" lon="-1.0872320">
        <ele>907.0</ele>
        <time>2020-07-29T10:32:37Z</time>
      </trkpt>
      <trkpt lat="43.1244360" lon="-1.0872700">
        <ele>906.0</ele>
        <time>2020-07-29T10:32:38Z</time>
      </trkpt>
      <trkpt lat="43.1243950" lon="-1.0873060">
        <ele>905.0</ele>
        <time>2020-07-29T10:32:39Z</time>
      </trkpt>
      <trkpt lat="43.1243000" lon="-1.0873820">
        <ele>903.4</ele>
        <time>2020-07-29T10:32:41Z</time>
      </trkpt>
      <trkpt lat="43.1241830" lon="-1.0874650">
        <ele>902.4</ele>
        <time>2020-07-29T10:32:43Z</time>
      </trkpt>
      <trkpt lat="43.1241150" lon="-1.0875010">
        <ele>901.8</ele>
        <time>2020-07-29T10:32:44Z</time>
      </trkpt>
      <trkpt lat="43.1239920" lon="-1.0875490">
        <ele>900.4</ele>
        <time>2020-07-29T10:32:46Z</time>
      </trkpt>
      <trkpt lat="43.1239430" lon="-1.0875670">
        <ele>899.4</ele>
        <time>2020-07-29T10:32:47Z</time>
      </trkpt>
      <trkpt lat="43.1239040" lon="-1.0875920">
        <ele>898.4</ele>
        <time>2020-07-29T10:32:48Z</time>
      </trkpt>
      <trkpt lat="43.1238850" lon="-1.0876290">
        <ele>897.6</ele>
        <time>2020-07-29T10:32:49Z</time>
      </trkpt>
      <trkpt lat="43.1238890" lon="-1.0876680">
        <ele>896.8</ele>
        <time>2020-07-29T10:32:50Z</time>
      </trkpt>
      <trkpt lat="43.1240080" lon="-1.0877140">
        <ele>895.6</ele>
        <time>2020-07-29T10:32:53Z</time>
      </trkpt>
      <trkpt lat="43.1242110" lon="-1.0877160">
        <ele>894.4</ele>
        <time>2020-07-29T10:32:56Z</time>
      </trkpt>
      <trkpt lat="43.1242870" lon="-1.0877180">
        <ele>893.6</ele>
        <time>2020-07-29T10:32:57Z</time>
      </trkpt>
      <trkpt lat="43.1243660" lon="-1.0877160">
        <ele>893.0</ele>
        <time>2020-07-29T10:32:58Z</time>
      </trkpt>
      <trkpt lat="43.1245310" lon="-1.0877000">
        <ele>891.2</ele>
        <time>2020-07-29T10:33:00Z</time>
      </trkpt>
      <trkpt lat="43.1246870" lon="-1.0876810">
        <ele>890.2</ele>
        <time>2020-07-29T10:33:02Z</time>
      </trkpt>
      <trkpt lat="43.1248400" lon="-1.0876610">
        <ele>887.4</ele>
        <time>2020-07-29T10:33:04Z</time>
      </trkpt>
      <trkpt lat="43.1249180" lon="-1.0876470">
        <ele>885.6</ele>
        <time>2020-07-29T10:33:05Z</time>
      </trkpt>
      <trkpt lat="43.1249980" lon="-1.0876360">
        <ele>884.4</ele>
        <time>2020-07-29T10:33:06Z</time>
      </trkpt>
      <trkpt lat="43.1251570" lon="-1.0876200">
        <ele>883.0</ele>
        <time>2020-07-29T10:33:08Z</time>
      </trkpt>
      <trkpt lat="43.1253110" lon="-1.0876140">
        <ele>881.6</ele>
        <time>2020-07-29T10:33:10Z</time>
      </trkpt>
      <trkpt lat="43.1254660" lon="-1.0876280">
        <ele>880.4</ele>
        <time>2020-07-29T10:33:12Z</time>
      </trkpt>
      <trkpt lat="43.1256140" lon="-1.0876530">
        <ele>879.2</ele>
        <time>2020-07-29T10:33:14Z</time>
      </trkpt>
      <trkpt lat="43.1256820" lon="-1.0876690">
        <ele>878.2</ele>
        <time>2020-07-29T10:33:15Z</time>
      </trkpt>
      <trkpt lat="43.1257360" lon="-1.0876830">
        <ele>876.8</ele>
        <time>2020-07-29T10:33:16Z</time>
      </trkpt>
      <trkpt lat="43.1257790" lon="-1.0876950">
        <ele>875.8</ele>
        <time>2020-07-29T10:33:17Z</time>
      </trkpt>
      <trkpt lat="43.1258300" lon="-1.0877110">
        <ele>874.4</ele>
        <time>2020-07-29T10:33:19Z</time>
      </trkpt>
      <trkpt lat="43.1258800" lon="-1.0877250">
        <ele>873.4</ele>
        <time>2020-07-29T10:33:21Z</time>
      </trkpt>
      <trkpt lat="43.1260050" lon="-1.0877550">
        <ele>872.2</ele>
        <time>2020-07-29T10:33:24Z</time>
      </trkpt>
      <trkpt lat="43.1260600" lon="-1.0877630">
        <ele>872.0</ele>
        <time>2020-07-29T10:33:25Z</time>
      </trkpt>
      <trkpt lat="43.1261820" lon="-1.0877960">
        <ele>871.4</ele>
        <time>2020-07-29T10:33:27Z</time>
      </trkpt>
      <trkpt lat="43.1262410" lon="-1.0878340">
        <ele>871.0</ele>
        <time>2020-07-29T10:33:28Z</time>
      </trkpt>
      <trkpt lat="43.1262950" lon="-1.0878870">
        <ele>870.8</ele>
        <time>2020-07-29T10:33:29Z</time>
      </trkpt>
      <trkpt lat="43.1263950" lon="-1.0880270">
        <ele>869.8</ele>
        <time>2020-07-29T10:33:31Z</time>
      </trkpt>
      <trkpt lat="43.1264960" lon="-1.0881760">
        <ele>868.6</ele>
        <time>2020-07-29T10:33:33Z</time>
      </trkpt>
      <trkpt lat="43.1266410" lon="-1.0883880">
        <ele>867.2</ele>
        <time>2020-07-29T10:33:36Z</time>
      </trkpt>
      <trkpt lat="43.1267390" lon="-1.0885210">
        <ele>866.2</ele>
        <time>2020-07-29T10:33:38Z</time>
      </trkpt>
      <trkpt lat="43.1268440" lon="-1.0886550">
        <ele>864.4</ele>
        <time>2020-07-29T10:33:40Z</time>
      </trkpt>
      <trkpt lat="43.1269530" lon="-1.0887920">
        <ele>862.8</ele>
        <time>2020-07-29T10:33:42Z</time>
      </trkpt>
      <trkpt lat="43.1270630" lon="-1.0889330">
        <ele>861.6</ele>
        <time>2020-07-29T10:33:44Z</time>
      </trkpt>
      <trkpt lat="43.1271840" lon="-1.0890680">
        <ele>859.4</ele>
        <time>2020-07-29T10:33:46Z</time>
      </trkpt>
      <trkpt lat="43.1272490" lon="-1.0891290">
        <ele>858.2</ele>
        <time>2020-07-29T10:33:47Z</time>
      </trkpt>
      <trkpt lat="43.1273170" lon="-1.0891860">
        <ele>857.2</ele>
        <time>2020-07-29T10:33:48Z</time>
      </trkpt>
      <trkpt lat="43.1273850" lon="-1.0892400">
        <ele>856.6</ele>
        <time>2020-07-29T10:33:49Z</time>
      </trkpt>
      <trkpt lat="43.1274520" lon="-1.0892950">
        <ele>855.4</ele>
        <time>2020-07-29T10:33:50Z</time>
      </trkpt>
      <trkpt lat="43.1275190" lon="-1.0893510">
        <ele>854.2</ele>
        <time>2020-07-29T10:33:51Z</time>
      </trkpt>
      <trkpt lat="43.1275840" lon="-1.0894090">
        <ele>853.0</ele>
        <time>2020-07-29T10:33:52Z</time>
      </trkpt>
      <trkpt lat="43.1276430" lon="-1.0894730">
        <ele>851.8</ele>
        <time>2020-07-29T10:33:53Z</time>
      </trkpt>
      <trkpt lat="43.1276980" lon="-1.0895470">
        <ele>850.8</ele>
        <time>2020-07-29T10:33:54Z</time>
      </trkpt>
      <trkpt lat="43.1277500" lon="-1.0896270">
        <ele>850.0</ele>
        <time>2020-07-29T10:33:55Z</time>
      </trkpt>
      <trkpt lat="43.1277980" lon="-1.0897120">
        <ele>849.4</ele>
        <time>2020-07-29T10:33:56Z</time>
      </trkpt>
      <trkpt lat="43.1278810" lon="-1.0898950">
        <ele>848.2</ele>
        <time>2020-07-29T10:33:58Z</time>
      </trkpt>
      <trkpt lat="43.1279140" lon="-1.0899900">
        <ele>847.6</ele>
        <time>2020-07-29T10:33:59Z</time>
      </trkpt>
      <trkpt lat="43.1279380" lon="-1.0900890">
        <ele>846.4</ele>
        <time>2020-07-29T10:34:00Z</time>
      </trkpt>
      <trkpt lat="43.1279560" lon="-1.0901920">
        <ele>844.8</ele>
        <time>2020-07-29T10:34:01Z</time>
      </trkpt>
      <trkpt lat="43.1279680" lon="-1.0903000">
        <ele>843.0</ele>
        <time>2020-07-29T10:34:02Z</time>
      </trkpt>
      <trkpt lat="43.1279790" lon="-1.0904060">
        <ele>842.0</ele>
        <time>2020-07-29T10:34:03Z</time>
      </trkpt>
      <trkpt lat="43.1279870" lon="-1.0905120">
        <ele>841.2</ele>
        <time>2020-07-29T10:34:04Z</time>
      </trkpt>
      <trkpt lat="43.1279960" lon="-1.0906170">
        <ele>840.6</ele>
        <time>2020-07-29T10:34:05Z</time>
      </trkpt>
      <trkpt lat="43.1280090" lon="-1.0908160">
        <ele>838.4</ele>
        <time>2020-07-29T10:34:07Z</time>
      </trkpt>
      <trkpt lat="43.1280170" lon="-1.0909140">
        <ele>837.0</ele>
        <time>2020-07-29T10:34:08Z</time>
      </trkpt>
      <trkpt lat="43.1280400" lon="-1.0911190">
        <ele>835.0</ele>
        <time>2020-07-29T10:34:10Z</time>
      </trkpt>
      <trkpt lat="43.1280470" lon="-1.0912240">
        <ele>833.8</ele>
        <time>2020-07-29T10:34:11Z</time>
      </trkpt>
      <trkpt lat="43.1280520" lon="-1.0913300">
        <ele>832.6</ele>
        <time>2020-07-29T10:34:12Z</time>
      </trkpt>
      <trkpt lat="43.1280480" lon="-1.0915460">
        <ele>830.8</ele>
        <time>2020-07-29T10:34:14Z</time>
      </trkpt>
      <trkpt lat="43.1280430" lon="-1.0916540">
        <ele>829.8</ele>
        <time>2020-07-29T10:34:15Z</time>
      </trkpt>
      <trkpt lat="43.1280390" lon="-1.0917600">
        <ele>828.6</ele>
        <time>2020-07-29T10:34:16Z</time>
      </trkpt>
      <trkpt lat="43.1280380" lon="-1.0918650">
        <ele>827.6</ele>
        <time>2020-07-29T10:34:17Z</time>
      </trkpt>
      <trkpt lat="43.1280420" lon="-1.0920820">
        <ele>826.0</ele>
        <time>2020-07-29T10:34:19Z</time>
      </trkpt>
      <trkpt lat="43.1280450" lon="-1.0921950">
        <ele>824.8</ele>
        <time>2020-07-29T10:34:20Z</time>
      </trkpt>
      <trkpt lat="43.1280500" lon="-1.0924150">
        <ele>823.2</ele>
        <time>2020-07-29T10:34:22Z</time>
      </trkpt>
      <trkpt lat="43.1280530" lon="-1.0925210">
        <ele>822.0</ele>
        <time>2020-07-29T10:34:23Z</time>
      </trkpt>
      <trkpt lat="43.1280560" lon="-1.0926240">
        <ele>820.2</ele>
        <time>2020-07-29T10:34:24Z</time>
      </trkpt>
      <trkpt lat="43.1280570" lon="-1.0927230">
        <ele>818.8</ele>
        <time>2020-07-29T10:34:25Z</time>
      </trkpt>
      <trkpt lat="43.1280610" lon="-1.0928210">
        <ele>817.6</ele>
        <time>2020-07-29T10:34:26Z</time>
      </trkpt>
      <trkpt lat="43.1280670" lon="-1.0929210">
        <ele>816.4</ele>
        <time>2020-07-29T10:34:27Z</time>
      </trkpt>
      <trkpt lat="43.1280730" lon="-1.0930210">
        <ele>815.4</ele>
        <time>2020-07-29T10:34:28Z</time>
      </trkpt>
      <trkpt lat="43.1280910" lon="-1.0932210">
        <ele>813.8</ele>
        <time>2020-07-29T10:34:30Z</time>
      </trkpt>
      <trkpt lat="43.1281220" lon="-1.0934290">
        <ele>812.2</ele>
        <time>2020-07-29T10:34:32Z</time>
      </trkpt>
      <trkpt lat="43.1281460" lon="-1.0935350">
        <ele>811.2</ele>
        <time>2020-07-29T10:34:33Z</time>
      </trkpt>
      <trkpt lat="43.1281770" lon="-1.0936380">
        <ele>810.0</ele>
        <time>2020-07-29T10:34:34Z</time>
      </trkpt>
      <trkpt lat="43.1282120" lon="-1.0937350">
        <ele>808.8</ele>
        <time>2020-07-29T10:34:35Z</time>
      </trkpt>
      <trkpt lat="43.1282480" lon="-1.0938250">
        <ele>807.8</ele>
        <time>2020-07-29T10:34:36Z</time>
      </trkpt>
      <trkpt lat="43.1283350" lon="-1.0939990">
        <ele>805.8</ele>
        <time>2020-07-29T10:34:38Z</time>
      </trkpt>
      <trkpt lat="43.1283780" lon="-1.0940870">
        <ele>804.6</ele>
        <time>2020-07-29T10:34:39Z</time>
      </trkpt>
      <trkpt lat="43.1284190" lon="-1.0941700">
        <ele>803.6</ele>
        <time>2020-07-29T10:34:40Z</time>
      </trkpt>
      <trkpt lat="43.1285000" lon="-1.0943350">
        <ele>802.0</ele>
        <time>2020-07-29T10:34:42Z</time>
      </trkpt>
      <trkpt lat="43.1285430" lon="-1.0944210">
        <ele>801.0</ele>
        <time>2020-07-29T10:34:43Z</time>
      </trkpt>
      <trkpt lat="43.1285860" lon="-1.0945120">
        <ele>799.6</ele>
        <time>2020-07-29T10:34:44Z</time>
      </trkpt>
      <trkpt lat="43.1286270" lon="-1.0946040">
        <ele>798.2</ele>
        <time>2020-07-29T10:34:45Z</time>
      </trkpt>
      <trkpt lat="43.1286660" lon="-1.0946960">
        <ele>797.0</ele>
        <time>2020-07-29T10:34:46Z</time>
      </trkpt>
      <trkpt lat="43.1287390" lon="-1.0948710">
        <ele>795.4</ele>
        <time>2020-07-29T10:34:48Z</time>
      </trkpt>
      <trkpt lat="43.1287810" lon="-1.0949580">
        <ele>794.2</ele>
        <time>2020-07-29T10:34:49Z</time>
      </trkpt>
      <trkpt lat="43.1288270" lon="-1.0950450">
        <ele>793.0</ele>
        <time>2020-07-29T10:34:50Z</time>
      </trkpt>
      <trkpt lat="43.1288770" lon="-1.0951310">
        <ele>791.8</ele>
        <time>2020-07-29T10:34:51Z</time>
      </trkpt>
      <trkpt lat="43.1289820" lon="-1.0953040">
        <ele>789.8</ele>
        <time>2020-07-29T10:34:53Z</time>
      </trkpt>
      <trkpt lat="43.1290360" lon="-1.0953910">
        <ele>788.2</ele>
        <time>2020-07-29T10:34:54Z</time>
      </trkpt>
      <trkpt lat="43.1290900" lon="-1.0954790">
        <ele>786.8</ele>
        <time>2020-07-29T10:34:55Z</time>
      </trkpt>
      <trkpt lat="43.1291470" lon="-1.0955650">
        <ele>785.8</ele>
        <time>2020-07-29T10:34:56Z</time>
      </trkpt>
      <trkpt lat="43.1292050" lon="-1.0956480">
        <ele>784.6</ele>
        <time>2020-07-29T10:34:57Z</time>
      </trkpt>
      <trkpt lat="43.1292670" lon="-1.0957320">
        <ele>783.4</ele>
        <time>2020-07-29T10:34:58Z</time>
      </trkpt>
      <trkpt lat="43.1293340" lon="-1.0958170">
        <ele>782.2</ele>
        <time>2020-07-29T10:34:59Z</time>
      </trkpt>
      <trkpt lat="43.1294700" lon="-1.0959840">
        <ele>781.0</ele>
        <time>2020-07-29T10:35:01Z</time>
      </trkpt>
      <trkpt lat="43.1296020" lon="-1.0961360">
        <ele>779.0</ele>
        <time>2020-07-29T10:35:03Z</time>
      </trkpt>
      <trkpt lat="43.1297290" lon="-1.0962940">
        <ele>777.2</ele>
        <time>2020-07-29T10:35:05Z</time>
      </trkpt>
      <trkpt lat="43.1297950" lon="-1.0963730">
        <ele>776.0</ele>
        <time>2020-07-29T10:35:06Z</time>
      </trkpt>
      <trkpt lat="43.1298620" lon="-1.0964530">
        <ele>774.8</ele>
        <time>2020-07-29T10:35:07Z</time>
      </trkpt>
      <trkpt lat="43.1299910" lon="-1.0966020">
        <ele>773.0</ele>
        <time>2020-07-29T10:35:09Z</time>
      </trkpt>
      <trkpt lat="43.1300530" lon="-1.0966720">
        <ele>771.4</ele>
        <time>2020-07-29T10:35:10Z</time>
      </trkpt>
      <trkpt lat="43.1301120" lon="-1.0967390">
        <ele>770.0</ele>
        <time>2020-07-29T10:35:11Z</time>
      </trkpt>
      <trkpt lat="43.1301720" lon="-1.0968030">
        <ele>769.2</ele>
        <time>2020-07-29T10:35:12Z</time>
      </trkpt>
      <trkpt lat="43.1302320" lon="-1.0968650">
        <ele>768.2</ele>
        <time>2020-07-29T10:35:13Z</time>
      </trkpt>
      <trkpt lat="43.1302920" lon="-1.0969250">
        <ele>767.0</ele>
        <time>2020-07-29T10:35:14Z</time>
      </trkpt>
      <trkpt lat="43.1303520" lon="-1.0969860">
        <ele>766.0</ele>
        <time>2020-07-29T10:35:15Z</time>
      </trkpt>
      <trkpt lat="43.1304100" lon="-1.0970500">
        <ele>765.0</ele>
        <time>2020-07-29T10:35:16Z</time>
      </trkpt>
      <trkpt lat="43.1304660" lon="-1.0971140">
        <ele>763.6</ele>
        <time>2020-07-29T10:35:17Z</time>
      </trkpt>
      <trkpt lat="43.1305200" lon="-1.0971760">
        <ele>762.4</ele>
        <time>2020-07-29T10:35:18Z</time>
      </trkpt>
      <trkpt lat="43.1305690" lon="-1.0972390">
        <ele>761.4</ele>
        <time>2020-07-29T10:35:19Z</time>
      </trkpt>
      <trkpt lat="43.1306120" lon="-1.0973020">
        <ele>760.8</ele>
        <time>2020-07-29T10:35:20Z</time>
      </trkpt>
      <trkpt lat="43.1306480" lon="-1.0973690">
        <ele>760.0</ele>
        <time>2020-07-29T10:35:21Z</time>
      </trkpt>
      <trkpt lat="43.1306730" lon="-1.0974400">
        <ele>759.0</ele>
        <time>2020-07-29T10:35:22Z</time>
      </trkpt>
      <trkpt lat="43.1306900" lon="-1.0975180">
        <ele>757.8</ele>
        <time>2020-07-29T10:35:23Z</time>
      </trkpt>
      <trkpt lat="43.1306990" lon="-1.0976010">
        <ele>756.6</ele>
        <time>2020-07-29T10:35:24Z</time>
      </trkpt>
      <trkpt lat="43.1307110" lon="-1.0977690">
        <ele>755.0</ele>
        <time>2020-07-29T10:35:26Z</time>
      </trkpt>
      <trkpt lat="43.1307250" lon="-1.0978530">
        <ele>754.0</ele>
        <time>2020-07-29T10:35:27Z</time>
      </trkpt>
      <trkpt lat="43.1307440" lon="-1.0979350">
        <ele>753.2</ele>
        <time>2020-07-29T10:35:28Z</time>
      </trkpt>
      <trkpt lat="43.1307850" lon="-1.0980910">
        <ele>751.4</ele>
        <time>2020-07-29T10:35:30Z</time>
      </trkpt>
      <trkpt lat="43.1308270" lon="-1.0982430">
        <ele>750.0</ele>
        <time>2020-07-29T10:35:32Z</time>
      </trkpt>
      <trkpt lat="43.1308800" lon="-1.0983850">
        <ele>748.8</ele>
        <time>2020-07-29T10:35:34Z</time>
      </trkpt>
      <trkpt lat="43.1309180" lon="-1.0984520">
        <ele>748.2</ele>
        <time>2020-07-29T10:35:35Z</time>
      </trkpt>
      <trkpt lat="43.1309630" lon="-1.0985140">
        <ele>747.6</ele>
        <time>2020-07-29T10:35:36Z</time>
      </trkpt>
      <trkpt lat="43.1310630" lon="-1.0986420">
        <ele>746.4</ele>
        <time>2020-07-29T10:35:38Z</time>
      </trkpt>
      <trkpt lat="43.1311080" lon="-1.0987170">
        <ele>745.6</ele>
        <time>2020-07-29T10:35:39Z</time>
      </trkpt>
      <trkpt lat="43.1311410" lon="-1.0987990">
        <ele>744.6</ele>
        <time>2020-07-29T10:35:40Z</time>
      </trkpt>
      <trkpt lat="43.1311900" lon="-1.0989380">
        <ele>742.8</ele>
        <time>2020-07-29T10:35:42Z</time>
      </trkpt>
      <trkpt lat="43.1312260" lon="-1.0990350">
        <ele>741.0</ele>
        <time>2020-07-29T10:35:44Z</time>
      </trkpt>
      <trkpt lat="43.1312790" lon="-1.0991440">
        <ele>739.8</ele>
        <time>2020-07-29T10:35:46Z</time>
      </trkpt>
      <trkpt lat="43.1313400" lon="-1.0992950">
        <ele>738.4</ele>
        <time>2020-07-29T10:35:48Z</time>
      </trkpt>
      <trkpt lat="43.1313600" lon="-1.0994980">
        <ele>736.6</ele>
        <time>2020-07-29T10:35:50Z</time>
      </trkpt>
      <trkpt lat="43.1313670" lon="-1.0996030">
        <ele>736.0</ele>
        <time>2020-07-29T10:35:51Z</time>
      </trkpt>
      <trkpt lat="43.1313810" lon="-1.0997070">
        <ele>735.6</ele>
        <time>2020-07-29T10:35:52Z</time>
      </trkpt>
      <trkpt lat="43.1314000" lon="-1.0998060">
        <ele>735.0</ele>
        <time>2020-07-29T10:35:53Z</time>
      </trkpt>
      <trkpt lat="43.1314340" lon="-1.0999910">
        <ele>733.6</ele>
        <time>2020-07-29T10:35:55Z</time>
      </trkpt>
      <trkpt lat="43.1314490" lon="-1.1001830">
        <ele>732.0</ele>
        <time>2020-07-29T10:35:57Z</time>
      </trkpt>
      <trkpt lat="43.1314540" lon="-1.1003830">
        <ele>730.2</ele>
        <time>2020-07-29T10:35:59Z</time>
      </trkpt>
      <trkpt lat="43.1314570" lon="-1.1004820">
        <ele>729.0</ele>
        <time>2020-07-29T10:36:00Z</time>
      </trkpt>
      <trkpt lat="43.1314680" lon="-1.1005740">
        <ele>727.6</ele>
        <time>2020-07-29T10:36:01Z</time>
      </trkpt>
      <trkpt lat="43.1314850" lon="-1.1006640">
        <ele>726.4</ele>
        <time>2020-07-29T10:36:02Z</time>
      </trkpt>
      <trkpt lat="43.1315060" lon="-1.1007540">
        <ele>725.6</ele>
        <time>2020-07-29T10:36:03Z</time>
      </trkpt>
      <trkpt lat="43.1315280" lon="-1.1008440">
        <ele>724.8</ele>
        <time>2020-07-29T10:36:04Z</time>
      </trkpt>
      <trkpt lat="43.1315500" lon="-1.1009360">
        <ele>724.0</ele>
        <time>2020-07-29T10:36:05Z</time>
      </trkpt>
      <trkpt lat="43.1315710" lon="-1.1010320">
        <ele>723.0</ele>
        <time>2020-07-29T10:36:06Z</time>
      </trkpt>
      <trkpt lat="43.1315910" lon="-1.1011280">
        <ele>721.6</ele>
        <time>2020-07-29T10:36:07Z</time>
      </trkpt>
      <trkpt lat="43.1316070" lon="-1.1012230">
        <ele>720.4</ele>
        <time>2020-07-29T10:36:08Z</time>
      </trkpt>
      <trkpt lat="43.1316230" lon="-1.1013110">
        <ele>719.0</ele>
        <time>2020-07-29T10:36:09Z</time>
      </trkpt>
      <trkpt lat="43.1316390" lon="-1.1013920">
        <ele>717.8</ele>
        <time>2020-07-29T10:36:10Z</time>
      </trkpt>
      <trkpt lat="43.1316530" lon="-1.1014720">
        <ele>717.2</ele>
        <time>2020-07-29T10:36:11Z</time>
      </trkpt>
      <trkpt lat="43.1316630" lon="-1.1015530">
        <ele>716.8</ele>
        <time>2020-07-29T10:36:12Z</time>
      </trkpt>
      <trkpt lat="43.1316680" lon="-1.1016310">
        <ele>716.0</ele>
        <time>2020-07-29T10:36:13Z</time>
      </trkpt>
      <trkpt lat="43.1316620" lon="-1.1016990">
        <ele>715.2</ele>
        <time>2020-07-29T10:36:14Z</time>
      </trkpt>
      <trkpt lat="43.1316420" lon="-1.1017580">
        <ele>714.6</ele>
        <time>2020-07-29T10:36:15Z</time>
      </trkpt>
      <trkpt lat="43.1316090" lon="-1.1018030">
        <ele>714.0</ele>
        <time>2020-07-29T10:36:16Z</time>
      </trkpt>
      <trkpt lat="43.1315660" lon="-1.1018350">
        <ele>713.6</ele>
        <time>2020-07-29T10:36:17Z</time>
      </trkpt>
      <trkpt lat="43.1315160" lon="-1.1018680">
        <ele>713.2</ele>
        <time>2020-07-29T10:36:18Z</time>
      </trkpt>
      <trkpt lat="43.1314680" lon="-1.1019080">
        <ele>713.0</ele>
        <time>2020-07-29T10:36:19Z</time>
      </trkpt>
      <trkpt lat="43.1314020" lon="-1.1020350">
        <ele>711.8</ele>
        <time>2020-07-29T10:36:21Z</time>
      </trkpt>
      <trkpt lat="43.1313670" lon="-1.1022060">
        <ele>710.4</ele>
        <time>2020-07-29T10:36:23Z</time>
      </trkpt>
      <trkpt lat="43.1313440" lon="-1.1023820">
        <ele>709.0</ele>
        <time>2020-07-29T10:36:25Z</time>
      </trkpt>
      <trkpt lat="43.1313260" lon="-1.1025630">
        <ele>707.8</ele>
        <time>2020-07-29T10:36:27Z</time>
      </trkpt>
      <trkpt lat="43.1313200" lon="-1.1026540">
        <ele>706.6</ele>
        <time>2020-07-29T10:36:28Z</time>
      </trkpt>
      <trkpt lat="43.1313200" lon="-1.1027440">
        <ele>705.4</ele>
        <time>2020-07-29T10:36:29Z</time>
      </trkpt>
      <trkpt lat="43.1313380" lon="-1.1029230">
        <ele>703.6</ele>
        <time>2020-07-29T10:36:31Z</time>
      </trkpt>
      <trkpt lat="43.1313550" lon="-1.1030140">
        <ele>702.4</ele>
        <time>2020-07-29T10:36:32Z</time>
      </trkpt>
      <trkpt lat="43.1313760" lon="-1.1031030">
        <ele>701.4</ele>
        <time>2020-07-29T10:36:33Z</time>
      </trkpt>
      <trkpt lat="43.1314330" lon="-1.1032690">
        <ele>700.0</ele>
        <time>2020-07-29T10:36:35Z</time>
      </trkpt>
      <trkpt lat="43.1314650" lon="-1.1033440">
        <ele>699.2</ele>
        <time>2020-07-29T10:36:36Z</time>
      </trkpt>
      <trkpt lat="43.1314980" lon="-1.1034210">
        <ele>698.2</ele>
        <time>2020-07-29T10:36:37Z</time>
      </trkpt>
      <trkpt lat="43.1315280" lon="-1.1035050">
        <ele>697.0</ele>
        <time>2020-07-29T10:36:38Z</time>
      </trkpt>
      <trkpt lat="43.1315510" lon="-1.1037070">
        <ele>695.2</ele>
        <time>2020-07-29T10:36:40Z</time>
      </trkpt>
      <trkpt lat="43.1315380" lon="-1.1039010">
        <ele>693.8</ele>
        <time>2020-07-29T10:36:42Z</time>
      </trkpt>
      <trkpt lat="43.1315320" lon="-1.1039840">
        <ele>692.8</ele>
        <time>2020-07-29T10:36:43Z</time>
      </trkpt>
      <trkpt lat="43.1315370" lon="-1.1040670">
        <ele>691.8</ele>
        <time>2020-07-29T10:36:44Z</time>
      </trkpt>
      <trkpt lat="43.1315530" lon="-1.1041550">
        <ele>691.0</ele>
        <time>2020-07-29T10:36:45Z</time>
      </trkpt>
      <trkpt lat="43.1315820" lon="-1.1042480">
        <ele>690.2</ele>
        <time>2020-07-29T10:36:46Z</time>
      </trkpt>
      <trkpt lat="43.1316550" lon="-1.1044380">
        <ele>689.2</ele>
        <time>2020-07-29T10:36:48Z</time>
      </trkpt>
      <trkpt lat="43.1317000" lon="-1.1045230">
        <ele>688.6</ele>
        <time>2020-07-29T10:36:49Z</time>
      </trkpt>
      <trkpt lat="43.1317520" lon="-1.1046040">
        <ele>687.4</ele>
        <time>2020-07-29T10:36:50Z</time>
      </trkpt>
      <trkpt lat="43.1318640" lon="-1.1047550">
        <ele>685.6</ele>
        <time>2020-07-29T10:36:52Z</time>
      </trkpt>
      <trkpt lat="43.1319690" lon="-1.1049110">
        <ele>684.4</ele>
        <time>2020-07-29T10:36:54Z</time>
      </trkpt>
      <trkpt lat="43.1321170" lon="-1.1051490">
        <ele>683.2</ele>
        <time>2020-07-29T10:36:57Z</time>
      </trkpt>
      <trkpt lat="43.1322710" lon="-1.1054060">
        <ele>682.0</ele>
        <time>2020-07-29T10:37:00Z</time>
      </trkpt>
      <trkpt lat="43.1323680" lon="-1.1055800">
        <ele>680.2</ele>
        <time>2020-07-29T10:37:02Z</time>
      </trkpt>
      <trkpt lat="43.1324160" lon="-1.1056660">
        <ele>679.6</ele>
        <time>2020-07-29T10:37:03Z</time>
      </trkpt>
      <trkpt lat="43.1325120" lon="-1.1058430">
        <ele>678.8</ele>
        <time>2020-07-29T10:37:05Z</time>
      </trkpt>
      <trkpt lat="43.1326120" lon="-1.1060140">
        <ele>677.2</ele>
        <time>2020-07-29T10:37:07Z</time>
      </trkpt>
      <trkpt lat="43.1326620" lon="-1.1060940">
        <ele>676.0</ele>
        <time>2020-07-29T10:37:08Z</time>
      </trkpt>
      <trkpt lat="43.1327100" lon="-1.1061680">
        <ele>675.0</ele>
        <time>2020-07-29T10:37:09Z</time>
      </trkpt>
      <trkpt lat="43.1327540" lon="-1.1062300">
        <ele>674.2</ele>
        <time>2020-07-29T10:37:10Z</time>
      </trkpt>
      <trkpt lat="43.1327960" lon="-1.1062850">
        <ele>673.6</ele>
        <time>2020-07-29T10:37:11Z</time>
      </trkpt>
      <trkpt lat="43.1328660" lon="-1.1063740">
        <ele>672.2</ele>
        <time>2020-07-29T10:37:13Z</time>
      </trkpt>
      <trkpt lat="43.1329060" lon="-1.1064220">
        <ele>671.2</ele>
        <time>2020-07-29T10:37:14Z</time>
      </trkpt>
      <trkpt lat="43.1329950" lon="-1.1065330">
        <ele>669.8</ele>
        <time>2020-07-29T10:37:16Z</time>
      </trkpt>
      <trkpt lat="43.1331390" lon="-1.1067310">
        <ele>668.6</ele>
        <time>2020-07-29T10:37:19Z</time>
      </trkpt>
      <trkpt lat="43.1331800" lon="-1.1068050">
        <ele>668.0</ele>
        <time>2020-07-29T10:37:20Z</time>
      </trkpt>
      <trkpt lat="43.1332150" lon="-1.1068810">
        <ele>667.4</ele>
        <time>2020-07-29T10:37:21Z</time>
      </trkpt>
      <trkpt lat="43.1332420" lon="-1.1069590">
        <ele>666.6</ele>
        <time>2020-07-29T10:37:22Z</time>
      </trkpt>
      <trkpt lat="43.1332660" lon="-1.1070340">
        <ele>665.8</ele>
        <time>2020-07-29T10:37:23Z</time>
      </trkpt>
      <trkpt lat="43.1333090" lon="-1.1071760">
        <ele>664.0</ele>
        <time>2020-07-29T10:37:25Z</time>
      </trkpt>
      <trkpt lat="43.1333500" lon="-1.1072860">
        <ele>662.4</ele>
        <time>2020-07-29T10:37:27Z</time>
      </trkpt>
      <trkpt lat="43.1333690" lon="-1.1073290">
        <ele>661.6</ele>
        <time>2020-07-29T10:37:28Z</time>
      </trkpt>
      <trkpt lat="43.1333860" lon="-1.1073640">
        <ele>661.0</ele>
        <time>2020-07-29T10:37:29Z</time>
      </trkpt>
      <trkpt lat="43.1334050" lon="-1.1074020">
        <ele>659.8</ele>
        <time>2020-07-29T10:37:31Z</time>
      </trkpt>
      <trkpt lat="43.1334080" lon="-1.1074040">
        <ele>659.2</ele>
        <time>2020-07-29T10:37:32Z</time>
      </trkpt>
      <trkpt lat="43.1334080" lon="-1.1074010">
        <ele>658.8</ele>
        <time>2020-07-29T10:37:33Z</time>
      </trkpt>
      <trkpt lat="43.1334070" lon="-1.1073950">
        <ele>658.4</ele>
        <time>2020-07-29T10:37:35Z</time>
      </trkpt>
      <trkpt lat="43.1333940" lon="-1.1073750">
        <ele>658.4</ele>
        <time>2020-07-29T10:37:49Z</time>
      </trkpt>
      <trkpt lat="43.1333970" lon="-1.1074080">
        <ele>658.0</ele>
        <time>2020-07-29T10:37:55Z</time>
      </trkpt>
      <trkpt lat="43.1333820" lon="-1.1074700">
        <ele>658.0</ele>
        <time>2020-07-29T10:37:57Z</time>
      </trkpt>
      <trkpt lat="43.1333520" lon="-1.1075080">
        <ele>658.0</ele>
        <time>2020-07-29T10:37:58Z</time>
      </trkpt>
      <trkpt lat="43.1333090" lon="-1.1075320">
        <ele>658.0</ele>
        <time>2020-07-29T10:37:59Z</time>
      </trkpt>
      <trkpt lat="43.1332550" lon="-1.1075440">
        <ele>657.8</ele>
        <time>2020-07-29T10:38:00Z</time>
      </trkpt>
      <trkpt lat="43.1331950" lon="-1.1075460">
        <ele>657.2</ele>
        <time>2020-07-29T10:38:01Z</time>
      </trkpt>
      <trkpt lat="43.1330650" lon="-1.1075300">
        <ele>656.6</ele>
        <time>2020-07-29T10:38:03Z</time>
      </trkpt>
      <trkpt lat="43.1330010" lon="-1.1075130">
        <ele>656.4</ele>
        <time>2020-07-29T10:38:04Z</time>
      </trkpt>
      <trkpt lat="43.1329440" lon="-1.1074810">
        <ele>656.0</ele>
        <time>2020-07-29T10:38:05Z</time>
      </trkpt>
      <trkpt lat="43.1328980" lon="-1.1074310">
        <ele>655.4</ele>
        <time>2020-07-29T10:38:06Z</time>
      </trkpt>
      <trkpt lat="43.1328180" lon="-1.1073140">
        <ele>654.0</ele>
        <time>2020-07-29T10:38:08Z</time>
      </trkpt>
      <trkpt lat="43.1327680" lon="-1.1072670">
        <ele>653.4</ele>
        <time>2020-07-29T10:38:09Z</time>
      </trkpt>
      <trkpt lat="43.1327080" lon="-1.1072420">
        <ele>652.8</ele>
        <time>2020-07-29T10:38:10Z</time>
      </trkpt>
      <trkpt lat="43.1326380" lon="-1.1072420">
        <ele>652.0</ele>
        <time>2020-07-29T10:38:11Z</time>
      </trkpt>
      <trkpt lat="43.1325630" lon="-1.1072640">
        <ele>651.4</ele>
        <time>2020-07-29T10:38:12Z</time>
      </trkpt>
      <trkpt lat="43.1324110" lon="-1.1073190">
        <ele>649.6</ele>
        <time>2020-07-29T10:38:14Z</time>
      </trkpt>
      <trkpt lat="43.1323340" lon="-1.1073350">
        <ele>648.8</ele>
        <time>2020-07-29T10:38:15Z</time>
      </trkpt>
      <trkpt lat="43.1322570" lon="-1.1073380">
        <ele>648.0</ele>
        <time>2020-07-29T10:38:16Z</time>
      </trkpt>
      <trkpt lat="43.1320970" lon="-1.1073120">
        <ele>646.6</ele>
        <time>2020-07-29T10:38:18Z</time>
      </trkpt>
      <trkpt lat="43.1320130" lon="-1.1072890">
        <ele>645.8</ele>
        <time>2020-07-29T10:38:19Z</time>
      </trkpt>
      <trkpt lat="43.1319290" lon="-1.1072690">
        <ele>644.6</ele>
        <time>2020-07-29T10:38:20Z</time>
      </trkpt>
      <trkpt lat="43.1318420" lon="-1.1072550">
        <ele>643.0</ele>
        <time>2020-07-29T10:38:21Z</time>
      </trkpt>
      <trkpt lat="43.1317560" lon="-1.1072460">
        <ele>641.8</ele>
        <time>2020-07-29T10:38:22Z</time>
      </trkpt>
      <trkpt lat="43.1315930" lon="-1.1072520">
        <ele>640.0</ele>
        <time>2020-07-29T10:38:24Z</time>
      </trkpt>
      <trkpt lat="43.1314310" lon="-1.1072860">
        <ele>638.2</ele>
        <time>2020-07-29T10:38:26Z</time>
      </trkpt>
      <trkpt lat="43.1313460" lon="-1.1073210">
        <ele>637.2</ele>
        <time>2020-07-29T10:38:27Z</time>
      </trkpt>
      <trkpt lat="43.1312690" lon="-1.1073700">
        <ele>636.4</ele>
        <time>2020-07-29T10:38:28Z</time>
      </trkpt>
      <trkpt lat="43.1312010" lon="-1.1074200">
        <ele>635.6</ele>
        <time>2020-07-29T10:38:29Z</time>
      </trkpt>
      <trkpt lat="43.1311400" lon="-1.1074650">
        <ele>634.6</ele>
        <time>2020-07-29T10:38:30Z</time>
      </trkpt>
      <trkpt lat="43.1310780" lon="-1.1074920">
        <ele>633.6</ele>
        <time>2020-07-29T10:38:31Z</time>
      </trkpt>
      <trkpt lat="43.1310130" lon="-1.1074990">
        <ele>633.0</ele>
        <time>2020-07-29T10:38:32Z</time>
      </trkpt>
      <trkpt lat="43.1309430" lon="-1.1074840">
        <ele>632.4</ele>
        <time>2020-07-29T10:38:33Z</time>
      </trkpt>
      <trkpt lat="43.1308700" lon="-1.1074510">
        <ele>631.6</ele>
        <time>2020-07-29T10:38:34Z</time>
      </trkpt>
      <trkpt lat="43.1307990" lon="-1.1074020">
        <ele>631.2</ele>
        <time>2020-07-29T10:38:35Z</time>
      </trkpt>
      <trkpt lat="43.1306810" lon="-1.1072400">
        <ele>630.4</ele>
        <time>2020-07-29T10:38:37Z</time>
      </trkpt>
      <trkpt lat="43.1306370" lon="-1.1071300">
        <ele>629.6</ele>
        <time>2020-07-29T10:38:38Z</time>
      </trkpt>
      <trkpt lat="43.1306090" lon="-1.1070090">
        <ele>629.0</ele>
        <time>2020-07-29T10:38:39Z</time>
      </trkpt>
      <trkpt lat="43.1305560" lon="-1.1067540">
        <ele>628.0</ele>
        <time>2020-07-29T10:38:41Z</time>
      </trkpt>
      <trkpt lat="43.1305260" lon="-1.1066230">
        <ele>627.4</ele>
        <time>2020-07-29T10:38:42Z</time>
      </trkpt>
      <trkpt lat="43.1304670" lon="-1.1063430">
        <ele>625.8</ele>
        <time>2020-07-29T10:38:44Z</time>
      </trkpt>
      <trkpt lat="43.1304220" lon="-1.1060740">
        <ele>624.4</ele>
        <time>2020-07-29T10:38:46Z</time>
      </trkpt>
      <trkpt lat="43.1303570" lon="-1.1058310">
        <ele>623.6</ele>
        <time>2020-07-29T10:38:48Z</time>
      </trkpt>
      <trkpt lat="43.1303150" lon="-1.1057120">
        <ele>623.2</ele>
        <time>2020-07-29T10:38:49Z</time>
      </trkpt>
      <trkpt lat="43.1302730" lon="-1.1055940">
        <ele>622.2</ele>
        <time>2020-07-29T10:38:50Z</time>
      </trkpt>
      <trkpt lat="43.1302320" lon="-1.1054760">
        <ele>621.4</ele>
        <time>2020-07-29T10:38:51Z</time>
      </trkpt>
      <trkpt lat="43.1301040" lon="-1.1051100">
        <ele>620.4</ele>
        <time>2020-07-29T10:38:54Z</time>
      </trkpt>
      <trkpt lat="43.1299910" lon="-1.1048770">
        <ele>619.4</ele>
        <time>2020-07-29T10:38:56Z</time>
      </trkpt>
      <trkpt lat="43.1299300" lon="-1.1047560">
        <ele>618.8</ele>
        <time>2020-07-29T10:38:57Z</time>
      </trkpt>
      <trkpt lat="43.1297390" lon="-1.1043740">
        <ele>617.2</ele>
        <time>2020-07-29T10:39:00Z</time>
      </trkpt>
      <trkpt lat="43.1296690" lon="-1.1042510">
        <ele>616.6</ele>
        <time>2020-07-29T10:39:01Z</time>
      </trkpt>
      <trkpt lat="43.1295950" lon="-1.1041270">
        <ele>615.6</ele>
        <time>2020-07-29T10:39:02Z</time>
      </trkpt>
      <trkpt lat="43.1295170" lon="-1.1040040">
        <ele>614.2</ele>
        <time>2020-07-29T10:39:03Z</time>
      </trkpt>
      <trkpt lat="43.1294350" lon="-1.1038860">
        <ele>613.0</ele>
        <time>2020-07-29T10:39:04Z</time>
      </trkpt>
      <trkpt lat="43.1292600" lon="-1.1036650">
        <ele>611.0</ele>
        <time>2020-07-29T10:39:06Z</time>
      </trkpt>
      <trkpt lat="43.1291740" lon="-1.1035630">
        <ele>610.0</ele>
        <time>2020-07-29T10:39:07Z</time>
      </trkpt>
      <trkpt lat="43.1290930" lon="-1.1034690">
        <ele>608.6</ele>
        <time>2020-07-29T10:39:08Z</time>
      </trkpt>
      <trkpt lat="43.1290150" lon="-1.1033800">
        <ele>607.0</ele>
        <time>2020-07-29T10:39:09Z</time>
      </trkpt>
      <trkpt lat="43.1289370" lon="-1.1033010">
        <ele>605.6</ele>
        <time>2020-07-29T10:39:10Z</time>
      </trkpt>
      <trkpt lat="43.1288580" lon="-1.1032340">
        <ele>604.0</ele>
        <time>2020-07-29T10:39:11Z</time>
      </trkpt>
      <trkpt lat="43.1287810" lon="-1.1031750">
        <ele>602.4</ele>
        <time>2020-07-29T10:39:12Z</time>
      </trkpt>
      <trkpt lat="43.1287120" lon="-1.1031220">
        <ele>601.0</ele>
        <time>2020-07-29T10:39:13Z</time>
      </trkpt>
      <trkpt lat="43.1286500" lon="-1.1030760">
        <ele>599.6</ele>
        <time>2020-07-29T10:39:14Z</time>
      </trkpt>
      <trkpt lat="43.1285930" lon="-1.1030380">
        <ele>598.4</ele>
        <time>2020-07-29T10:39:15Z</time>
      </trkpt>
      <trkpt lat="43.1285430" lon="-1.1030180">
        <ele>597.0</ele>
        <time>2020-07-29T10:39:16Z</time>
      </trkpt>
      <trkpt lat="43.1284970" lon="-1.1030300">
        <ele>595.8</ele>
        <time>2020-07-29T10:39:17Z</time>
      </trkpt>
      <trkpt lat="43.1284750" lon="-1.1030750">
        <ele>594.6</ele>
        <time>2020-07-29T10:39:18Z</time>
      </trkpt>
      <trkpt lat="43.1284720" lon="-1.1031460">
        <ele>593.6</ele>
        <time>2020-07-29T10:39:19Z</time>
      </trkpt>
      <trkpt lat="43.1284880" lon="-1.1032290">
        <ele>593.0</ele>
        <time>2020-07-29T10:39:20Z</time>
      </trkpt>
      <trkpt lat="43.1285680" lon="-1.1034200">
        <ele>591.6</ele>
        <time>2020-07-29T10:39:22Z</time>
      </trkpt>
      <trkpt lat="43.1286570" lon="-1.1036580">
        <ele>590.4</ele>
        <time>2020-07-29T10:39:24Z</time>
      </trkpt>
      <trkpt lat="43.1287350" lon="-1.1039420">
        <ele>589.0</ele>
        <time>2020-07-29T10:39:26Z</time>
      </trkpt>
      <trkpt lat="43.1287730" lon="-1.1040950">
        <ele>588.4</ele>
        <time>2020-07-29T10:39:27Z</time>
      </trkpt>
      <trkpt lat="43.1288090" lon="-1.1042480">
        <ele>587.8</ele>
        <time>2020-07-29T10:39:28Z</time>
      </trkpt>
      <trkpt lat="43.1288760" lon="-1.1045560">
        <ele>585.6</ele>
        <time>2020-07-29T10:39:30Z</time>
      </trkpt>
      <trkpt lat="43.1289150" lon="-1.1047040">
        <ele>584.4</ele>
        <time>2020-07-29T10:39:31Z</time>
      </trkpt>
      <trkpt lat="43.1289510" lon="-1.1048630">
        <ele>583.0</ele>
        <time>2020-07-29T10:39:32Z</time>
      </trkpt>
      <trkpt lat="43.1289800" lon="-1.1050250">
        <ele>582.0</ele>
        <time>2020-07-29T10:39:33Z</time>
      </trkpt>
      <trkpt lat="43.1290020" lon="-1.1051850">
        <ele>581.0</ele>
        <time>2020-07-29T10:39:34Z</time>
      </trkpt>
      <trkpt lat="43.1290130" lon="-1.1053390">
        <ele>579.4</ele>
        <time>2020-07-29T10:39:35Z</time>
      </trkpt>
      <trkpt lat="43.1290140" lon="-1.1054820">
        <ele>577.2</ele>
        <time>2020-07-29T10:39:36Z</time>
      </trkpt>
      <trkpt lat="43.1289960" lon="-1.1056170">
        <ele>575.4</ele>
        <time>2020-07-29T10:39:37Z</time>
      </trkpt>
      <trkpt lat="43.1289710" lon="-1.1057390">
        <ele>573.8</ele>
        <time>2020-07-29T10:39:38Z</time>
      </trkpt>
      <trkpt lat="43.1289370" lon="-1.1058600">
        <ele>572.6</ele>
        <time>2020-07-29T10:39:39Z</time>
      </trkpt>
      <trkpt lat="43.1288990" lon="-1.1059750">
        <ele>571.6</ele>
        <time>2020-07-29T10:39:40Z</time>
      </trkpt>
      <trkpt lat="43.1288350" lon="-1.1061660">
        <ele>569.4</ele>
        <time>2020-07-29T10:39:42Z</time>
      </trkpt>
      <trkpt lat="43.1288050" lon="-1.1062480">
        <ele>567.4</ele>
        <time>2020-07-29T10:39:43Z</time>
      </trkpt>
      <trkpt lat="43.1287880" lon="-1.1063100">
        <ele>565.4</ele>
        <time>2020-07-29T10:39:44Z</time>
      </trkpt>
      <trkpt lat="43.1287670" lon="-1.1063450">
        <ele>563.8</ele>
        <time>2020-07-29T10:39:45Z</time>
      </trkpt>
      <trkpt lat="43.1287380" lon="-1.1063530">
        <ele>562.4</ele>
        <time>2020-07-29T10:39:46Z</time>
      </trkpt>
      <trkpt lat="43.1287090" lon="-1.1063310">
        <ele>561.2</ele>
        <time>2020-07-29T10:39:47Z</time>
      </trkpt>
      <trkpt lat="43.1286420" lon="-1.1062060">
        <ele>559.8</ele>
        <time>2020-07-29T10:39:49Z</time>
      </trkpt>
      <trkpt lat="43.1285720" lon="-1.1060340">
        <ele>558.8</ele>
        <time>2020-07-29T10:39:51Z</time>
      </trkpt>
      <trkpt lat="43.1285340" lon="-1.1059760">
        <ele>558.0</ele>
        <time>2020-07-29T10:39:52Z</time>
      </trkpt>
      <trkpt lat="43.1284910" lon="-1.1059610">
        <ele>557.4</ele>
        <time>2020-07-29T10:39:53Z</time>
      </trkpt>
      <trkpt lat="43.1284560" lon="-1.1060550">
        <ele>556.2</ele>
        <time>2020-07-29T10:39:55Z</time>
      </trkpt>
      <trkpt lat="43.1284650" lon="-1.1061380">
        <ele>555.6</ele>
        <time>2020-07-29T10:39:56Z</time>
      </trkpt>
      <trkpt lat="43.1284770" lon="-1.1062310">
        <ele>554.8</ele>
        <time>2020-07-29T10:39:57Z</time>
      </trkpt>
      <trkpt lat="43.1284900" lon="-1.1063200">
        <ele>554.0</ele>
        <time>2020-07-29T10:39:58Z</time>
      </trkpt>
      <trkpt lat="43.1284990" lon="-1.1063990">
        <ele>553.0</ele>
        <time>2020-07-29T10:39:59Z</time>
      </trkpt>
      <trkpt lat="43.1285030" lon="-1.1064770">
        <ele>552.0</ele>
        <time>2020-07-29T10:40:00Z</time>
      </trkpt>
      <trkpt lat="43.1284990" lon="-1.1065690">
        <ele>551.2</ele>
        <time>2020-07-29T10:40:01Z</time>
      </trkpt>
      <trkpt lat="43.1284920" lon="-1.1066750">
        <ele>550.6</ele>
        <time>2020-07-29T10:40:02Z</time>
      </trkpt>
      <trkpt lat="43.1284800" lon="-1.1069290">
        <ele>549.4</ele>
        <time>2020-07-29T10:40:04Z</time>
      </trkpt>
      <trkpt lat="43.1284840" lon="-1.1070750">
        <ele>548.6</ele>
        <time>2020-07-29T10:40:05Z</time>
      </trkpt>
      <trkpt lat="43.1285020" lon="-1.1072300">
        <ele>547.6</ele>
        <time>2020-07-29T10:40:06Z</time>
      </trkpt>
      <trkpt lat="43.1285270" lon="-1.1073920">
        <ele>546.4</ele>
        <time>2020-07-29T10:40:07Z</time>
      </trkpt>
      <trkpt lat="43.1285590" lon="-1.1075610">
        <ele>545.2</ele>
        <time>2020-07-29T10:40:08Z</time>
      </trkpt>
      <trkpt lat="43.1285900" lon="-1.1077390">
        <ele>543.8</ele>
        <time>2020-07-29T10:40:09Z</time>
      </trkpt>
      <trkpt lat="43.1286190" lon="-1.1079200">
        <ele>542.8</ele>
        <time>2020-07-29T10:40:10Z</time>
      </trkpt>
      <trkpt lat="43.1286430" lon="-1.1081030">
        <ele>541.6</ele>
        <time>2020-07-29T10:40:11Z</time>
      </trkpt>
      <trkpt lat="43.1286640" lon="-1.1082840">
        <ele>540.0</ele>
        <time>2020-07-29T10:40:12Z</time>
      </trkpt>
      <trkpt lat="43.1286790" lon="-1.1084610">
        <ele>538.2</ele>
        <time>2020-07-29T10:40:13Z</time>
      </trkpt>
      <trkpt lat="43.1286890" lon="-1.1086270">
        <ele>536.2</ele>
        <time>2020-07-29T10:40:14Z</time>
      </trkpt>
      <trkpt lat="43.1286960" lon="-1.1087840">
        <ele>534.4</ele>
        <time>2020-07-29T10:40:15Z</time>
      </trkpt>
      <trkpt lat="43.1287000" lon="-1.1089330">
        <ele>532.4</ele>
        <time>2020-07-29T10:40:16Z</time>
      </trkpt>
      <trkpt lat="43.1287040" lon="-1.1090710">
        <ele>530.2</ele>
        <time>2020-07-29T10:40:17Z</time>
      </trkpt>
      <trkpt lat="43.1287080" lon="-1.1092020">
        <ele>528.4</ele>
        <time>2020-07-29T10:40:18Z</time>
      </trkpt>
      <trkpt lat="43.1287140" lon="-1.1093290">
        <ele>527.2</ele>
        <time>2020-07-29T10:40:19Z</time>
      </trkpt>
      <trkpt lat="43.1287470" lon="-1.1095830">
        <ele>525.6</ele>
        <time>2020-07-29T10:40:21Z</time>
      </trkpt>
      <trkpt lat="43.1287800" lon="-1.1097060">
        <ele>524.6</ele>
        <time>2020-07-29T10:40:22Z</time>
      </trkpt>
      <trkpt lat="43.1288230" lon="-1.1098270">
        <ele>523.2</ele>
        <time>2020-07-29T10:40:23Z</time>
      </trkpt>
      <trkpt lat="43.1288760" lon="-1.1099430">
        <ele>522.0</ele>
        <time>2020-07-29T10:40:24Z</time>
      </trkpt>
      <trkpt lat="43.1289370" lon="-1.1100570">
        <ele>520.6</ele>
        <time>2020-07-29T10:40:25Z</time>
      </trkpt>
      <trkpt lat="43.1290080" lon="-1.1101650">
        <ele>519.0</ele>
        <time>2020-07-29T10:40:26Z</time>
      </trkpt>
      <trkpt lat="43.1290770" lon="-1.1102760">
        <ele>517.4</ele>
        <time>2020-07-29T10:40:27Z</time>
      </trkpt>
      <trkpt lat="43.1291430" lon="-1.1103860">
        <ele>516.2</ele>
        <time>2020-07-29T10:40:28Z</time>
      </trkpt>
      <trkpt lat="43.1292710" lon="-1.1106100">
        <ele>514.4</ele>
        <time>2020-07-29T10:40:30Z</time>
      </trkpt>
      <trkpt lat="43.1293300" lon="-1.1107370">
        <ele>513.2</ele>
        <time>2020-07-29T10:40:31Z</time>
      </trkpt>
      <trkpt lat="43.1293840" lon="-1.1108740">
        <ele>512.0</ele>
        <time>2020-07-29T10:40:32Z</time>
      </trkpt>
      <trkpt lat="43.1294770" lon="-1.1111490">
        <ele>510.0</ele>
        <time>2020-07-29T10:40:34Z</time>
      </trkpt>
      <trkpt lat="43.1295210" lon="-1.1112790">
        <ele>508.2</ele>
        <time>2020-07-29T10:40:35Z</time>
      </trkpt>
      <trkpt lat="43.1295610" lon="-1.1114050">
        <ele>506.0</ele>
        <time>2020-07-29T10:40:36Z</time>
      </trkpt>
      <trkpt lat="43.1295940" lon="-1.1115290">
        <ele>504.2</ele>
        <time>2020-07-29T10:40:37Z</time>
      </trkpt>
      <trkpt lat="43.1296240" lon="-1.1116480">
        <ele>502.8</ele>
        <time>2020-07-29T10:40:38Z</time>
      </trkpt>
      <trkpt lat="43.1296560" lon="-1.1117640">
        <ele>501.6</ele>
        <time>2020-07-29T10:40:39Z</time>
      </trkpt>
      <trkpt lat="43.1296900" lon="-1.1118880">
        <ele>500.6</ele>
        <time>2020-07-29T10:40:40Z</time>
      </trkpt>
      <trkpt lat="43.1297270" lon="-1.1120170">
        <ele>499.4</ele>
        <time>2020-07-29T10:40:41Z</time>
      </trkpt>
      <trkpt lat="43.1297630" lon="-1.1121480">
        <ele>498.2</ele>
        <time>2020-07-29T10:40:42Z</time>
      </trkpt>
      <trkpt lat="43.1297970" lon="-1.1122840">
        <ele>497.0</ele>
        <time>2020-07-29T10:40:43Z</time>
      </trkpt>
      <trkpt lat="43.1298250" lon="-1.1124270">
        <ele>496.0</ele>
        <time>2020-07-29T10:40:44Z</time>
      </trkpt>
      <trkpt lat="43.1298770" lon="-1.1127320">
        <ele>494.2</ele>
        <time>2020-07-29T10:40:46Z</time>
      </trkpt>
      <trkpt lat="43.1299210" lon="-1.1130700">
        <ele>492.6</ele>
        <time>2020-07-29T10:40:48Z</time>
      </trkpt>
      <trkpt lat="43.1299520" lon="-1.1134100">
        <ele>490.8</ele>
        <time>2020-07-29T10:40:50Z</time>
      </trkpt>
      <trkpt lat="43.1299660" lon="-1.1135680">
        <ele>489.4</ele>
        <time>2020-07-29T10:40:51Z</time>
      </trkpt>
      <trkpt lat="43.1299830" lon="-1.1137160">
        <ele>487.6</ele>
        <time>2020-07-29T10:40:52Z</time>
      </trkpt>
      <trkpt lat="43.1300030" lon="-1.1138530">
        <ele>486.0</ele>
        <time>2020-07-29T10:40:53Z</time>
      </trkpt>
      <trkpt lat="43.1300220" lon="-1.1139820">
        <ele>484.2</ele>
        <time>2020-07-29T10:40:54Z</time>
      </trkpt>
      <trkpt lat="43.1300430" lon="-1.1141000">
        <ele>482.4</ele>
        <time>2020-07-29T10:40:55Z</time>
      </trkpt>
      <trkpt lat="43.1300630" lon="-1.1142110">
        <ele>480.6</ele>
        <time>2020-07-29T10:40:56Z</time>
      </trkpt>
      <trkpt lat="43.1300800" lon="-1.1143190">
        <ele>478.8</ele>
        <time>2020-07-29T10:40:57Z</time>
      </trkpt>
      <trkpt lat="43.1300950" lon="-1.1144280">
        <ele>477.2</ele>
        <time>2020-07-29T10:40:58Z</time>
      </trkpt>
      <trkpt lat="43.1301090" lon="-1.1145410">
        <ele>476.2</ele>
        <time>2020-07-29T10:40:59Z</time>
      </trkpt>
      <trkpt lat="43.1301210" lon="-1.1146600">
        <ele>475.4</ele>
        <time>2020-07-29T10:41:00Z</time>
      </trkpt>
      <trkpt lat="43.1301360" lon="-1.1147820">
        <ele>474.4</ele>
        <time>2020-07-29T10:41:01Z</time>
      </trkpt>
      <trkpt lat="43.1301520" lon="-1.1149120">
        <ele>473.4</ele>
        <time>2020-07-29T10:41:02Z</time>
      </trkpt>
      <trkpt lat="43.1301720" lon="-1.1150450">
        <ele>472.8</ele>
        <time>2020-07-29T10:41:03Z</time>
      </trkpt>
      <trkpt lat="43.1302120" lon="-1.1153220">
        <ele>471.4</ele>
        <time>2020-07-29T10:41:05Z</time>
      </trkpt>
      <trkpt lat="43.1302360" lon="-1.1154700">
        <ele>470.2</ele>
        <time>2020-07-29T10:41:06Z</time>
      </trkpt>
      <trkpt lat="43.1302700" lon="-1.1157810">
        <ele>468.4</ele>
        <time>2020-07-29T10:41:08Z</time>
      </trkpt>
      <trkpt lat="43.1302820" lon="-1.1159350">
        <ele>467.8</ele>
        <time>2020-07-29T10:41:09Z</time>
      </trkpt>
      <trkpt lat="43.1302930" lon="-1.1160900">
        <ele>466.8</ele>
        <time>2020-07-29T10:41:10Z</time>
      </trkpt>
      <trkpt lat="43.1303040" lon="-1.1162430">
        <ele>465.4</ele>
        <time>2020-07-29T10:41:11Z</time>
      </trkpt>
      <trkpt lat="43.1303170" lon="-1.1163940">
        <ele>464.0</ele>
        <time>2020-07-29T10:41:12Z</time>
      </trkpt>
      <trkpt lat="43.1303300" lon="-1.1165440">
        <ele>462.8</ele>
        <time>2020-07-29T10:41:13Z</time>
      </trkpt>
      <trkpt lat="43.1303390" lon="-1.1166930">
        <ele>461.6</ele>
        <time>2020-07-29T10:41:14Z</time>
      </trkpt>
      <trkpt lat="43.1303460" lon="-1.1168390">
        <ele>460.2</ele>
        <time>2020-07-29T10:41:15Z</time>
      </trkpt>
      <trkpt lat="43.1303480" lon="-1.1169800">
        <ele>458.8</ele>
        <time>2020-07-29T10:41:16Z</time>
      </trkpt>
      <trkpt lat="43.1303470" lon="-1.1171130">
        <ele>457.6</ele>
        <time>2020-07-29T10:41:17Z</time>
      </trkpt>
      <trkpt lat="43.1303470" lon="-1.1172450">
        <ele>456.4</ele>
        <time>2020-07-29T10:41:18Z</time>
      </trkpt>
      <trkpt lat="43.1303490" lon="-1.1173780">
        <ele>455.0</ele>
        <time>2020-07-29T10:41:19Z</time>
      </trkpt>
      <trkpt lat="43.1303540" lon="-1.1175110">
        <ele>453.6</ele>
        <time>2020-07-29T10:41:20Z</time>
      </trkpt>
      <trkpt lat="43.1303570" lon="-1.1176440">
        <ele>452.4</ele>
        <time>2020-07-29T10:41:21Z</time>
      </trkpt>
      <trkpt lat="43.1303580" lon="-1.1179070">
        <ele>450.4</ele>
        <time>2020-07-29T10:41:23Z</time>
      </trkpt>
      <trkpt lat="43.1303530" lon="-1.1180430">
        <ele>449.0</ele>
        <time>2020-07-29T10:41:24Z</time>
      </trkpt>
      <trkpt lat="43.1303450" lon="-1.1181790">
        <ele>447.8</ele>
        <time>2020-07-29T10:41:25Z</time>
      </trkpt>
      <trkpt lat="43.1303270" lon="-1.1184370">
        <ele>446.4</ele>
        <time>2020-07-29T10:41:27Z</time>
      </trkpt>
      <trkpt lat="43.1303180" lon="-1.1185580">
        <ele>445.2</ele>
        <time>2020-07-29T10:41:28Z</time>
      </trkpt>
      <trkpt lat="43.1303120" lon="-1.1186710">
        <ele>443.8</ele>
        <time>2020-07-29T10:41:29Z</time>
      </trkpt>
      <trkpt lat="43.1303090" lon="-1.1187820">
        <ele>442.6</ele>
        <time>2020-07-29T10:41:30Z</time>
      </trkpt>
      <trkpt lat="43.1303090" lon="-1.1188940">
        <ele>441.2</ele>
        <time>2020-07-29T10:41:31Z</time>
      </trkpt>
      <trkpt lat="43.1303190" lon="-1.1190030">
        <ele>439.6</ele>
        <time>2020-07-29T10:41:32Z</time>
      </trkpt>
      <trkpt lat="43.1303370" lon="-1.1191120">
        <ele>438.2</ele>
        <time>2020-07-29T10:41:33Z</time>
      </trkpt>
      <trkpt lat="43.1303610" lon="-1.1192170">
        <ele>437.2</ele>
        <time>2020-07-29T10:41:34Z</time>
      </trkpt>
      <trkpt lat="43.1303850" lon="-1.1193110">
        <ele>436.2</ele>
        <time>2020-07-29T10:41:35Z</time>
      </trkpt>
      <trkpt lat="43.1304090" lon="-1.1193950">
        <ele>435.0</ele>
        <time>2020-07-29T10:41:36Z</time>
      </trkpt>
      <trkpt lat="43.1304310" lon="-1.1194680">
        <ele>433.4</ele>
        <time>2020-07-29T10:41:37Z</time>
      </trkpt>
      <trkpt lat="43.1304410" lon="-1.1195290">
        <ele>432.0</ele>
        <time>2020-07-29T10:41:38Z</time>
      </trkpt>
      <trkpt lat="43.1304380" lon="-1.1195780">
        <ele>430.6</ele>
        <time>2020-07-29T10:41:39Z</time>
      </trkpt>
      <trkpt lat="43.1304240" lon="-1.1196070">
        <ele>429.6</ele>
        <time>2020-07-29T10:41:40Z</time>
      </trkpt>
      <trkpt lat="43.1304020" lon="-1.1196170">
        <ele>428.8</ele>
        <time>2020-07-29T10:41:41Z</time>
      </trkpt>
      <trkpt lat="43.1303720" lon="-1.1196040">
        <ele>428.0</ele>
        <time>2020-07-29T10:41:42Z</time>
      </trkpt>
      <trkpt lat="43.1303060" lon="-1.1195370">
        <ele>426.2</ele>
        <time>2020-07-29T10:41:44Z</time>
      </trkpt>
      <trkpt lat="43.1302130" lon="-1.1194490">
        <ele>425.0</ele>
        <time>2020-07-29T10:41:46Z</time>
      </trkpt>
      <trkpt lat="43.1300940" lon="-1.1193490">
        <ele>423.6</ele>
        <time>2020-07-29T10:41:48Z</time>
      </trkpt>
      <trkpt lat="43.1300360" lon="-1.1192840">
        <ele>422.6</ele>
        <time>2020-07-29T10:41:49Z</time>
      </trkpt>
      <trkpt lat="43.1299230" lon="-1.1191290">
        <ele>421.0</ele>
        <time>2020-07-29T10:41:51Z</time>
      </trkpt>
      <trkpt lat="43.1298710" lon="-1.1190510">
        <ele>420.2</ele>
        <time>2020-07-29T10:41:52Z</time>
      </trkpt>
      <trkpt lat="43.1298130" lon="-1.1189780">
        <ele>419.2</ele>
        <time>2020-07-29T10:41:53Z</time>
      </trkpt>
      <trkpt lat="43.1297530" lon="-1.1189110">
        <ele>418.0</ele>
        <time>2020-07-29T10:41:54Z</time>
      </trkpt>
      <trkpt lat="43.1296860" lon="-1.1188540">
        <ele>416.8</ele>
        <time>2020-07-29T10:41:55Z</time>
      </trkpt>
      <trkpt lat="43.1296150" lon="-1.1188040">
        <ele>415.0</ele>
        <time>2020-07-29T10:41:56Z</time>
      </trkpt>
      <trkpt lat="43.1295380" lon="-1.1187560">
        <ele>413.0</ele>
        <time>2020-07-29T10:41:57Z</time>
      </trkpt>
      <trkpt lat="43.1294550" lon="-1.1187090">
        <ele>411.8</ele>
        <time>2020-07-29T10:41:58Z</time>
      </trkpt>
      <trkpt lat="43.1293680" lon="-1.1186740">
        <ele>410.8</ele>
        <time>2020-07-29T10:41:59Z</time>
      </trkpt>
      <trkpt lat="43.1292850" lon="-1.1186430">
        <ele>410.0</ele>
        <time>2020-07-29T10:42:00Z</time>
      </trkpt>
      <trkpt lat="43.1292040" lon="-1.1186080">
        <ele>408.8</ele>
        <time>2020-07-29T10:42:01Z</time>
      </trkpt>
      <trkpt lat="43.1291330" lon="-1.1185570">
        <ele>407.6</ele>
        <time>2020-07-29T10:42:02Z</time>
      </trkpt>
      <trkpt lat="43.1290770" lon="-1.1184920">
        <ele>406.8</ele>
        <time>2020-07-29T10:42:03Z</time>
      </trkpt>
      <trkpt lat="43.1290320" lon="-1.1184240">
        <ele>406.4</ele>
        <time>2020-07-29T10:42:04Z</time>
      </trkpt>
      <trkpt lat="43.1289500" lon="-1.1183220">
        <ele>405.2</ele>
        <time>2020-07-29T10:42:06Z</time>
      </trkpt>
      <trkpt lat="43.1289110" lon="-1.1183020">
        <ele>404.6</ele>
        <time>2020-07-29T10:42:07Z</time>
      </trkpt>
      <trkpt lat="43.1288720" lon="-1.1182990">
        <ele>404.2</ele>
        <time>2020-07-29T10:42:08Z</time>
      </trkpt>
      <trkpt lat="43.1288010" lon="-1.1183490">
        <ele>403.2</ele>
        <time>2020-07-29T10:42:10Z</time>
      </trkpt>
      <trkpt lat="43.1287730" lon="-1.1184020">
        <ele>402.8</ele>
        <time>2020-07-29T10:42:11Z</time>
      </trkpt>
      <trkpt lat="43.1287590" lon="-1.1184630">
        <ele>402.0</ele>
        <time>2020-07-29T10:42:12Z</time>
      </trkpt>
      <trkpt lat="43.1287620" lon="-1.1185340">
        <ele>401.2</ele>
        <time>2020-07-29T10:42:13Z</time>
      </trkpt>
      <trkpt lat="43.1287850" lon="-1.1186030">
        <ele>400.4</ele>
        <time>2020-07-29T10:42:14Z</time>
      </trkpt>
      <trkpt lat="43.1288230" lon="-1.1186640">
        <ele>399.8</ele>
        <time>2020-07-29T10:42:15Z</time>
      </trkpt>
      <trkpt lat="43.1288680" lon="-1.1187210">
        <ele>399.2</ele>
        <time>2020-07-29T10:42:16Z</time>
      </trkpt>
      <trkpt lat="43.1289200" lon="-1.1187730">
        <ele>398.2</ele>
        <time>2020-07-29T10:42:17Z</time>
      </trkpt>
      <trkpt lat="43.1289760" lon="-1.1188180">
        <ele>397.4</ele>
        <time>2020-07-29T10:42:18Z</time>
      </trkpt>
      <trkpt lat="43.1290360" lon="-1.1188620">
        <ele>396.6</ele>
        <time>2020-07-29T10:42:19Z</time>
      </trkpt>
      <trkpt lat="43.1290960" lon="-1.1189120">
        <ele>395.4</ele>
        <time>2020-07-29T10:42:20Z</time>
      </trkpt>
      <trkpt lat="43.1291570" lon="-1.1189750">
        <ele>394.2</ele>
        <time>2020-07-29T10:42:21Z</time>
      </trkpt>
      <trkpt lat="43.1292760" lon="-1.1191410">
        <ele>392.4</ele>
        <time>2020-07-29T10:42:23Z</time>
      </trkpt>
      <trkpt lat="43.1293360" lon="-1.1192380">
        <ele>391.4</ele>
        <time>2020-07-29T10:42:24Z</time>
      </trkpt>
      <trkpt lat="43.1293940" lon="-1.1193380">
        <ele>390.6</ele>
        <time>2020-07-29T10:42:25Z</time>
      </trkpt>
      <trkpt lat="43.1295020" lon="-1.1195340">
        <ele>389.4</ele>
        <time>2020-07-29T10:42:27Z</time>
      </trkpt>
      <trkpt lat="43.1295850" lon="-1.1197330">
        <ele>388.8</ele>
        <time>2020-07-29T10:42:29Z</time>
      </trkpt>
      <trkpt lat="43.1296890" lon="-1.1200360">
        <ele>388.2</ele>
        <time>2020-07-29T10:42:32Z</time>
      </trkpt>
      <trkpt lat="43.1297940" lon="-1.1203120">
        <ele>387.8</ele>
        <time>2020-07-29T10:42:35Z</time>
      </trkpt>
      <trkpt lat="43.1298770" lon="-1.1206040">
        <ele>387.8</ele>
        <time>2020-07-29T10:42:39Z</time>
      </trkpt>
      <trkpt lat="43.1299500" lon="-1.1209020">
        <ele>389.2</ele>
        <time>2020-07-29T10:42:45Z</time>
      </trkpt>
      <trkpt lat="43.1299590" lon="-1.1209430">
        <ele>389.6</ele>
        <time>2020-07-29T10:42:46Z</time>
      </trkpt>
      <trkpt lat="43.1299740" lon="-1.1210190">
        <ele>390.4</ele>
        <time>2020-07-29T10:42:48Z</time>
      </trkpt>
      <trkpt lat="43.1299830" lon="-1.1211660">
        <ele>391.6</ele>
        <time>2020-07-29T10:42:52Z</time>
      </trkpt>
      <trkpt lat="43.1299890" lon="-1.1212050">
        <ele>392.0</ele>
        <time>2020-07-29T10:42:53Z</time>
      </trkpt>
      <trkpt lat="43.1300140" lon="-1.1213260">
        <ele>392.6</ele>
        <time>2020-07-29T10:42:56Z</time>
      </trkpt>
      <trkpt lat="43.1300220" lon="-1.1213650">
        <ele>392.8</ele>
        <time>2020-07-29T10:42:57Z</time>
      </trkpt>
      <trkpt lat="43.1300360" lon="-1.1214400">
        <ele>393.2</ele>
        <time>2020-07-29T10:42:59Z</time>
      </trkpt>
      <trkpt lat="43.1300430" lon="-1.1214790">
        <ele>393.4</ele>
        <time>2020-07-29T10:43:00Z</time>
      </trkpt>
      <trkpt lat="43.1300520" lon="-1.1215170">
        <ele>393.6</ele>
        <time>2020-07-29T10:43:01Z</time>
      </trkpt>
      <trkpt lat="43.1300600" lon="-1.1215530">
        <ele>393.8</ele>
        <time>2020-07-29T10:43:02Z</time>
      </trkpt>
      <trkpt lat="43.1300750" lon="-1.1216230">
        <ele>394.4</ele>
        <time>2020-07-29T10:43:04Z</time>
      </trkpt>
      <trkpt lat="43.1300890" lon="-1.1216960">
        <ele>395.0</ele>
        <time>2020-07-29T10:43:06Z</time>
      </trkpt>
      <trkpt lat="43.1301030" lon="-1.1217770">
        <ele>395.6</ele>
        <time>2020-07-29T10:43:09Z</time>
      </trkpt>
      <trkpt lat="43.1300900" lon="-1.1219910">
        <ele>395.8</ele>
        <time>2020-07-29T10:43:15Z</time>
      </trkpt>
      <trkpt lat="43.1300840" lon="-1.1221000">
        <ele>395.6</ele>
        <time>2020-07-29T10:43:17Z</time>
      </trkpt>
      <trkpt lat="43.1300780" lon="-1.1222320">
        <ele>395.6</ele>
        <time>2020-07-29T10:43:19Z</time>
      </trkpt>
      <trkpt lat="43.1300750" lon="-1.1223060">
        <ele>395.4</ele>
        <time>2020-07-29T10:43:20Z</time>
      </trkpt>
      <trkpt lat="43.1300430" lon="-1.1227570">
        <ele>393.6</ele>
        <time>2020-07-29T10:43:25Z</time>
      </trkpt>
      <trkpt lat="43.1299910" lon="-1.1229870">
        <ele>392.6</ele>
        <time>2020-07-29T10:43:27Z</time>
      </trkpt>
      <trkpt lat="43.1299470" lon="-1.1231040">
        <ele>392.2</ele>
        <time>2020-07-29T10:43:28Z</time>
      </trkpt>
      <trkpt lat="43.1298920" lon="-1.1232170">
        <ele>391.6</ele>
        <time>2020-07-29T10:43:29Z</time>
      </trkpt>
      <trkpt lat="43.1297740" lon="-1.1234530">
        <ele>390.8</ele>
        <time>2020-07-29T10:43:31Z</time>
      </trkpt>
      <trkpt lat="43.1297220" lon="-1.1235670">
        <ele>390.2</ele>
        <time>2020-07-29T10:43:32Z</time>
      </trkpt>
      <trkpt lat="43.1296800" lon="-1.1236800">
        <ele>389.6</ele>
        <time>2020-07-29T10:43:33Z</time>
      </trkpt>
      <trkpt lat="43.1296510" lon="-1.1237910">
        <ele>388.6</ele>
        <time>2020-07-29T10:43:34Z</time>
      </trkpt>
      <trkpt lat="43.1296360" lon="-1.1238970">
        <ele>387.2</ele>
        <time>2020-07-29T10:43:35Z</time>
      </trkpt>
      <trkpt lat="43.1296400" lon="-1.1240020">
        <ele>385.8</ele>
        <time>2020-07-29T10:43:36Z</time>
      </trkpt>
      <trkpt lat="43.1296650" lon="-1.1240960">
        <ele>384.8</ele>
        <time>2020-07-29T10:43:37Z</time>
      </trkpt>
      <trkpt lat="43.1297040" lon="-1.1241760">
        <ele>384.0</ele>
        <time>2020-07-29T10:43:38Z</time>
      </trkpt>
      <trkpt lat="43.1297490" lon="-1.1242330">
        <ele>383.0</ele>
        <time>2020-07-29T10:43:39Z</time>
      </trkpt>
      <trkpt lat="43.1297990" lon="-1.1242580">
        <ele>382.2</ele>
        <time>2020-07-29T10:43:40Z</time>
      </trkpt>
      <trkpt lat="43.1298520" lon="-1.1242490">
        <ele>381.2</ele>
        <time>2020-07-29T10:43:41Z</time>
      </trkpt>
      <trkpt lat="43.1299050" lon="-1.1242150">
        <ele>380.6</ele>
        <time>2020-07-29T10:43:42Z</time>
      </trkpt>
      <trkpt lat="43.1299600" lon="-1.1241590">
        <ele>380.0</ele>
        <time>2020-07-29T10:43:43Z</time>
      </trkpt>
      <trkpt lat="43.1300150" lon="-1.1240960">
        <ele>379.6</ele>
        <time>2020-07-29T10:43:44Z</time>
      </trkpt>
      <trkpt lat="43.1301560" lon="-1.1239040">
        <ele>378.6</ele>
        <time>2020-07-29T10:43:47Z</time>
      </trkpt>
      <trkpt lat="43.1302400" lon="-1.1237670">
        <ele>378.2</ele>
        <time>2020-07-29T10:43:49Z</time>
      </trkpt>
      <trkpt lat="43.1303290" lon="-1.1236570">
        <ele>377.2</ele>
        <time>2020-07-29T10:43:51Z</time>
      </trkpt>
      <trkpt lat="43.1304440" lon="-1.1236350">
        <ele>376.0</ele>
        <time>2020-07-29T10:43:53Z</time>
      </trkpt>
      <trkpt lat="43.1305750" lon="-1.1237180">
        <ele>375.0</ele>
        <time>2020-07-29T10:43:55Z</time>
      </trkpt>
      <trkpt lat="43.1306410" lon="-1.1237880">
        <ele>374.4</ele>
        <time>2020-07-29T10:43:56Z</time>
      </trkpt>
      <trkpt lat="43.1307100" lon="-1.1238630">
        <ele>373.8</ele>
        <time>2020-07-29T10:43:57Z</time>
      </trkpt>
      <trkpt lat="43.1307790" lon="-1.1239460">
        <ele>373.0</ele>
        <time>2020-07-29T10:43:58Z</time>
      </trkpt>
      <trkpt lat="43.1308360" lon="-1.1240380">
        <ele>372.2</ele>
        <time>2020-07-29T10:43:59Z</time>
      </trkpt>
      <trkpt lat="43.1308850" lon="-1.1241420">
        <ele>371.8</ele>
        <time>2020-07-29T10:44:00Z</time>
      </trkpt>
      <trkpt lat="43.1309670" lon="-1.1243700">
        <ele>371.2</ele>
        <time>2020-07-29T10:44:02Z</time>
      </trkpt>
      <trkpt lat="43.1310880" lon="-1.1247280">
        <ele>370.8</ele>
        <time>2020-07-29T10:44:05Z</time>
      </trkpt>
      <trkpt lat="43.1311980" lon="-1.1249640">
        <ele>370.0</ele>
        <time>2020-07-29T10:44:07Z</time>
      </trkpt>
      <trkpt lat="43.1313360" lon="-1.1251890">
        <ele>369.0</ele>
        <time>2020-07-29T10:44:09Z</time>
      </trkpt>
      <trkpt lat="43.1314130" lon="-1.1252850">
        <ele>368.4</ele>
        <time>2020-07-29T10:44:10Z</time>
      </trkpt>
      <trkpt lat="43.1314960" lon="-1.1253680">
        <ele>367.4</ele>
        <time>2020-07-29T10:44:11Z</time>
      </trkpt>
      <trkpt lat="43.1315890" lon="-1.1254360">
        <ele>366.2</ele>
        <time>2020-07-29T10:44:12Z</time>
      </trkpt>
      <trkpt lat="43.1317900" lon="-1.1255350">
        <ele>364.6</ele>
        <time>2020-07-29T10:44:14Z</time>
      </trkpt>
      <trkpt lat="43.1319920" lon="-1.1256200">
        <ele>363.4</ele>
        <time>2020-07-29T10:44:16Z</time>
      </trkpt>
      <trkpt lat="43.1323040" lon="-1.1257060">
        <ele>362.0</ele>
        <time>2020-07-29T10:44:19Z</time>
      </trkpt>
      <trkpt lat="43.1325270" lon="-1.1257780">
        <ele>361.2</ele>
        <time>2020-07-29T10:44:21Z</time>
      </trkpt>
      <trkpt lat="43.1326360" lon="-1.1258310">
        <ele>360.6</ele>
        <time>2020-07-29T10:44:22Z</time>
      </trkpt>
      <trkpt lat="43.1328530" lon="-1.1259790">
        <ele>358.8</ele>
        <time>2020-07-29T10:44:24Z</time>
      </trkpt>
      <trkpt lat="43.1329630" lon="-1.1260570">
        <ele>357.8</ele>
        <time>2020-07-29T10:44:25Z</time>
      </trkpt>
      <trkpt lat="43.1330720" lon="-1.1261340">
        <ele>356.4</ele>
        <time>2020-07-29T10:44:26Z</time>
      </trkpt>
      <trkpt lat="43.1331740" lon="-1.1262120">
        <ele>355.2</ele>
        <time>2020-07-29T10:44:27Z</time>
      </trkpt>
      <trkpt lat="43.1332700" lon="-1.1262960">
        <ele>354.2</ele>
        <time>2020-07-29T10:44:28Z</time>
      </trkpt>
      <trkpt lat="43.1333560" lon="-1.1264010">
        <ele>353.0</ele>
        <time>2020-07-29T10:44:29Z</time>
      </trkpt>
      <trkpt lat="43.1334300" lon="-1.1265310">
        <ele>351.6</ele>
        <time>2020-07-29T10:44:30Z</time>
      </trkpt>
      <trkpt lat="43.1334860" lon="-1.1266770">
        <ele>350.2</ele>
        <time>2020-07-29T10:44:31Z</time>
      </trkpt>
      <trkpt lat="43.1335280" lon="-1.1268340">
        <ele>349.0</ele>
        <time>2020-07-29T10:44:32Z</time>
      </trkpt>
      <trkpt lat="43.1335670" lon="-1.1269950">
        <ele>348.0</ele>
        <time>2020-07-29T10:44:33Z</time>
      </trkpt>
      <trkpt lat="43.1336090" lon="-1.1271530">
        <ele>347.0</ele>
        <time>2020-07-29T10:44:34Z</time>
      </trkpt>
      <trkpt lat="43.1336580" lon="-1.1273070">
        <ele>345.8</ele>
        <time>2020-07-29T10:44:35Z</time>
      </trkpt>
      <trkpt lat="43.1337590" lon="-1.1275790">
        <ele>343.8</ele>
        <time>2020-07-29T10:44:37Z</time>
      </trkpt>
      <trkpt lat="43.1338060" lon="-1.1276960">
        <ele>341.8</ele>
        <time>2020-07-29T10:44:38Z</time>
      </trkpt>
      <trkpt lat="43.1338620" lon="-1.1278010">
        <ele>339.8</ele>
        <time>2020-07-29T10:44:39Z</time>
      </trkpt>
      <trkpt lat="43.1339300" lon="-1.1278990">
        <ele>338.2</ele>
        <time>2020-07-29T10:44:40Z</time>
      </trkpt>
      <trkpt lat="43.1340100" lon="-1.1279890">
        <ele>336.6</ele>
        <time>2020-07-29T10:44:41Z</time>
      </trkpt>
      <trkpt lat="43.1340980" lon="-1.1280780">
        <ele>335.2</ele>
        <time>2020-07-29T10:44:42Z</time>
      </trkpt>
      <trkpt lat="43.1342930" lon="-1.1282460">
        <ele>333.6</ele>
        <time>2020-07-29T10:44:44Z</time>
      </trkpt>
      <trkpt lat="43.1345020" lon="-1.1284210">
        <ele>332.8</ele>
        <time>2020-07-29T10:44:46Z</time>
      </trkpt>
      <trkpt lat="43.1346120" lon="-1.1285040">
        <ele>332.0</ele>
        <time>2020-07-29T10:44:47Z</time>
      </trkpt>
      <trkpt lat="43.1348460" lon="-1.1286480">
        <ele>330.8</ele>
        <time>2020-07-29T10:44:49Z</time>
      </trkpt>
      <trkpt lat="43.1349550" lon="-1.1287130">
        <ele>330.0</ele>
        <time>2020-07-29T10:44:50Z</time>
      </trkpt>
      <trkpt lat="43.1350490" lon="-1.1287790">
        <ele>328.8</ele>
        <time>2020-07-29T10:44:51Z</time>
      </trkpt>
      <trkpt lat="43.1351290" lon="-1.1288490">
        <ele>327.4</ele>
        <time>2020-07-29T10:44:52Z</time>
      </trkpt>
      <trkpt lat="43.1351920" lon="-1.1289210">
        <ele>326.0</ele>
        <time>2020-07-29T10:44:53Z</time>
      </trkpt>
      <trkpt lat="43.1352360" lon="-1.1289950">
        <ele>324.2</ele>
        <time>2020-07-29T10:44:54Z</time>
      </trkpt>
      <trkpt lat="43.1352560" lon="-1.1290750">
        <ele>322.4</ele>
        <time>2020-07-29T10:44:55Z</time>
      </trkpt>
      <trkpt lat="43.1352360" lon="-1.1291590">
        <ele>320.6</ele>
        <time>2020-07-29T10:44:56Z</time>
      </trkpt>
      <trkpt lat="43.1351890" lon="-1.1292280">
        <ele>319.0</ele>
        <time>2020-07-29T10:44:57Z</time>
      </trkpt>
      <trkpt lat="43.1351200" lon="-1.1292750">
        <ele>317.6</ele>
        <time>2020-07-29T10:44:58Z</time>
      </trkpt>
      <trkpt lat="43.1350380" lon="-1.1293090">
        <ele>316.6</ele>
        <time>2020-07-29T10:44:59Z</time>
      </trkpt>
      <trkpt lat="43.1348510" lon="-1.1293650">
        <ele>315.2</ele>
        <time>2020-07-29T10:45:01Z</time>
      </trkpt>
      <trkpt lat="43.1347530" lon="-1.1293830">
        <ele>315.0</ele>
        <time>2020-07-29T10:45:02Z</time>
      </trkpt>
      <trkpt lat="43.1346530" lon="-1.1293840">
        <ele>314.6</ele>
        <time>2020-07-29T10:45:03Z</time>
      </trkpt>
      <trkpt lat="43.1344430" lon="-1.1293440">
        <ele>314.0</ele>
        <time>2020-07-29T10:45:05Z</time>
      </trkpt>
      <trkpt lat="43.1342150" lon="-1.1292650">
        <ele>312.8</ele>
        <time>2020-07-29T10:45:07Z</time>
      </trkpt>
      <trkpt lat="43.1339760" lon="-1.1292080">
        <ele>311.0</ele>
        <time>2020-07-29T10:45:09Z</time>
      </trkpt>
      <trkpt lat="43.1337350" lon="-1.1292210">
        <ele>309.6</ele>
        <time>2020-07-29T10:45:11Z</time>
      </trkpt>
      <trkpt lat="43.1336130" lon="-1.1292490">
        <ele>308.6</ele>
        <time>2020-07-29T10:45:12Z</time>
      </trkpt>
      <trkpt lat="43.1334880" lon="-1.1292790">
        <ele>307.6</ele>
        <time>2020-07-29T10:45:13Z</time>
      </trkpt>
      <trkpt lat="43.1333610" lon="-1.1293100">
        <ele>306.4</ele>
        <time>2020-07-29T10:45:14Z</time>
      </trkpt>
      <trkpt lat="43.1332380" lon="-1.1293350">
        <ele>305.2</ele>
        <time>2020-07-29T10:45:15Z</time>
      </trkpt>
      <trkpt lat="43.1331220" lon="-1.1293620">
        <ele>304.0</ele>
        <time>2020-07-29T10:45:16Z</time>
      </trkpt>
      <trkpt lat="43.1330190" lon="-1.1294010">
        <ele>303.0</ele>
        <time>2020-07-29T10:45:17Z</time>
      </trkpt>
      <trkpt lat="43.1329320" lon="-1.1294590">
        <ele>301.6</ele>
        <time>2020-07-29T10:45:18Z</time>
      </trkpt>
      <trkpt lat="43.1328710" lon="-1.1295480">
        <ele>300.2</ele>
        <time>2020-07-29T10:45:19Z</time>
      </trkpt>
      <trkpt lat="43.1328420" lon="-1.1296600">
        <ele>299.2</ele>
        <time>2020-07-29T10:45:20Z</time>
      </trkpt>
      <trkpt lat="43.1328420" lon="-1.1297800">
        <ele>298.6</ele>
        <time>2020-07-29T10:45:21Z</time>
      </trkpt>
      <trkpt lat="43.1328550" lon="-1.1298970">
        <ele>298.0</ele>
        <time>2020-07-29T10:45:22Z</time>
      </trkpt>
      <trkpt lat="43.1328850" lon="-1.1301330">
        <ele>296.8</ele>
        <time>2020-07-29T10:45:24Z</time>
      </trkpt>
      <trkpt lat="43.1329380" lon="-1.1304970">
        <ele>295.8</ele>
        <time>2020-07-29T10:45:27Z</time>
      </trkpt>
      <trkpt lat="43.1330100" lon="-1.1308460">
        <ele>294.6</ele>
        <time>2020-07-29T10:45:30Z</time>
      </trkpt>
      <trkpt lat="43.1331060" lon="-1.1311780">
        <ele>294.0</ele>
        <time>2020-07-29T10:45:33Z</time>
      </trkpt>
      <trkpt lat="43.1331740" lon="-1.1314940">
        <ele>294.4</ele>
        <time>2020-07-29T10:45:36Z</time>
      </trkpt>
      <trkpt lat="43.1331580" lon="-1.1315890">
        <ele>294.4</ele>
        <time>2020-07-29T10:45:37Z</time>
      </trkpt>
      <trkpt lat="43.1331270" lon="-1.1316670">
        <ele>294.0</ele>
        <time>2020-07-29T10:45:38Z</time>
      </trkpt>
      <trkpt lat="43.1330450" lon="-1.1317400">
        <ele>293.6</ele>
        <time>2020-07-29T10:45:40Z</time>
      </trkpt>
      <trkpt lat="43.1329630" lon="-1.1317310">
        <ele>292.4</ele>
        <time>2020-07-29T10:45:43Z</time>
      </trkpt>
      <trkpt lat="43.1329030" lon="-1.1317200">
        <ele>291.6</ele>
        <time>2020-07-29T10:45:46Z</time>
      </trkpt>
      <trkpt lat="43.1328550" lon="-1.1317660">
        <ele>291.4</ele>
        <time>2020-07-29T10:45:48Z</time>
      </trkpt>
      <trkpt lat="43.1327420" lon="-1.1319200">
        <ele>291.2</ele>
        <time>2020-07-29T10:45:51Z</time>
      </trkpt>
      <trkpt lat="43.1326600" lon="-1.1321030">
        <ele>291.0</ele>
        <time>2020-07-29T10:45:53Z</time>
      </trkpt>
      <trkpt lat="43.1326260" lon="-1.1322220">
        <ele>290.6</ele>
        <time>2020-07-29T10:45:54Z</time>
      </trkpt>
      <trkpt lat="43.1325910" lon="-1.1323530">
        <ele>289.8</ele>
        <time>2020-07-29T10:45:55Z</time>
      </trkpt>
      <trkpt lat="43.1325150" lon="-1.1326370">
        <ele>288.0</ele>
        <time>2020-07-29T10:45:57Z</time>
      </trkpt>
      <trkpt lat="43.1324720" lon="-1.1327820">
        <ele>287.2</ele>
        <time>2020-07-29T10:45:58Z</time>
      </trkpt>
      <trkpt lat="43.1324300" lon="-1.1329270">
        <ele>286.6</ele>
        <time>2020-07-29T10:45:59Z</time>
      </trkpt>
      <trkpt lat="43.1323460" lon="-1.1332200">
        <ele>285.4</ele>
        <time>2020-07-29T10:46:01Z</time>
      </trkpt>
      <trkpt lat="43.1322750" lon="-1.1335160">
        <ele>284.2</ele>
        <time>2020-07-29T10:46:03Z</time>
      </trkpt>
      <trkpt lat="43.1322220" lon="-1.1338140">
        <ele>283.4</ele>
        <time>2020-07-29T10:46:05Z</time>
      </trkpt>
      <trkpt lat="43.1322020" lon="-1.1339620">
        <ele>282.8</ele>
        <time>2020-07-29T10:46:06Z</time>
      </trkpt>
      <trkpt lat="43.1321520" lon="-1.1342500">
        <ele>281.2</ele>
        <time>2020-07-29T10:46:08Z</time>
      </trkpt>
      <trkpt lat="43.1321140" lon="-1.1343890">
        <ele>280.8</ele>
        <time>2020-07-29T10:46:09Z</time>
      </trkpt>
      <trkpt lat="43.1320300" lon="-1.1346570">
        <ele>279.6</ele>
        <time>2020-07-29T10:46:11Z</time>
      </trkpt>
      <trkpt lat="43.1319430" lon="-1.1349190">
        <ele>278.2</ele>
        <time>2020-07-29T10:46:13Z</time>
      </trkpt>
      <trkpt lat="43.1318220" lon="-1.1353300">
        <ele>276.8</ele>
        <time>2020-07-29T10:46:16Z</time>
      </trkpt>
      <trkpt lat="43.1317420" lon="-1.1355950">
        <ele>275.8</ele>
        <time>2020-07-29T10:46:18Z</time>
      </trkpt>
      <trkpt lat="43.1316700" lon="-1.1358200">
        <ele>273.8</ele>
        <time>2020-07-29T10:46:20Z</time>
      </trkpt>
      <trkpt lat="43.1316390" lon="-1.1359170">
        <ele>273.0</ele>
        <time>2020-07-29T10:46:21Z</time>
      </trkpt>
      <trkpt lat="43.1316250" lon="-1.1360140">
        <ele>272.4</ele>
        <time>2020-07-29T10:46:22Z</time>
      </trkpt>
      <trkpt lat="43.1316730" lon="-1.1361870">
        <ele>271.6</ele>
        <time>2020-07-29T10:46:24Z</time>
      </trkpt>
      <trkpt lat="43.1317300" lon="-1.1362440">
        <ele>271.4</ele>
        <time>2020-07-29T10:46:25Z</time>
      </trkpt>
      <trkpt lat="43.1318610" lon="-1.1363450">
        <ele>270.8</ele>
        <time>2020-07-29T10:46:27Z</time>
      </trkpt>
      <trkpt lat="43.1319210" lon="-1.1364070">
        <ele>270.4</ele>
        <time>2020-07-29T10:46:28Z</time>
      </trkpt>
      <trkpt lat="43.1319710" lon="-1.1364780">
        <ele>270.2</ele>
        <time>2020-07-29T10:46:29Z</time>
      </trkpt>
      <trkpt lat="43.1320130" lon="-1.1365550">
        <ele>270.0</ele>
        <time>2020-07-29T10:46:30Z</time>
      </trkpt>
      <trkpt lat="43.1320510" lon="-1.1366370">
        <ele>269.6</ele>
        <time>2020-07-29T10:46:31Z</time>
      </trkpt>
      <trkpt lat="43.1320840" lon="-1.1367220">
        <ele>269.4</ele>
        <time>2020-07-29T10:46:32Z</time>
      </trkpt>
      <trkpt lat="43.1321160" lon="-1.1368040">
        <ele>269.0</ele>
        <time>2020-07-29T10:46:33Z</time>
      </trkpt>
      <trkpt lat="43.1321400" lon="-1.1368850">
        <ele>268.8</ele>
        <time>2020-07-29T10:46:34Z</time>
      </trkpt>
      <trkpt lat="43.1321280" lon="-1.1370490">
        <ele>268.2</ele>
        <time>2020-07-29T10:46:36Z</time>
      </trkpt>
      <trkpt lat="43.1320930" lon="-1.1371250">
        <ele>267.8</ele>
        <time>2020-07-29T10:46:37Z</time>
      </trkpt>
      <trkpt lat="43.1320480" lon="-1.1372000">
        <ele>267.6</ele>
        <time>2020-07-29T10:46:38Z</time>
      </trkpt>
      <trkpt lat="43.1319990" lon="-1.1372710">
        <ele>267.2</ele>
        <time>2020-07-29T10:46:39Z</time>
      </trkpt>
      <trkpt lat="43.1318990" lon="-1.1374040">
        <ele>266.6</ele>
        <time>2020-07-29T10:46:41Z</time>
      </trkpt>
      <trkpt lat="43.1317620" lon="-1.1375750">
        <ele>266.0</ele>
        <time>2020-07-29T10:46:44Z</time>
      </trkpt>
      <trkpt lat="43.1317230" lon="-1.1376280">
        <ele>265.4</ele>
        <time>2020-07-29T10:46:45Z</time>
      </trkpt>
      <trkpt lat="43.1316430" lon="-1.1377430">
        <ele>264.0</ele>
        <time>2020-07-29T10:46:47Z</time>
      </trkpt>
      <trkpt lat="43.1315570" lon="-1.1378730">
        <ele>263.2</ele>
        <time>2020-07-29T10:46:49Z</time>
      </trkpt>
      <trkpt lat="43.1314660" lon="-1.1380100">
        <ele>262.8</ele>
        <time>2020-07-29T10:46:51Z</time>
      </trkpt>
      <trkpt lat="43.1314200" lon="-1.1380780">
        <ele>262.6</ele>
        <time>2020-07-29T10:46:52Z</time>
      </trkpt>
      <trkpt lat="43.1312230" lon="-1.1384140">
        <ele>262.0</ele>
        <time>2020-07-29T10:46:57Z</time>
      </trkpt>
      <trkpt lat="43.1311360" lon="-1.1385680">
        <ele>261.8</ele>
        <time>2020-07-29T10:46:59Z</time>
      </trkpt>
      <trkpt lat="43.1309390" lon="-1.1389230">
        <ele>261.6</ele>
        <time>2020-07-29T10:47:04Z</time>
      </trkpt>
      <trkpt lat="43.1308440" lon="-1.1391180">
        <ele>261.6</ele>
        <time>2020-07-29T10:47:07Z</time>
      </trkpt>
      <trkpt lat="43.1307580" lon="-1.1392860">
        <ele>261.6</ele>
        <time>2020-07-29T10:47:10Z</time>
      </trkpt>
      <trkpt lat="43.1306850" lon="-1.1394190">
        <ele>262.0</ele>
        <time>2020-07-29T10:47:13Z</time>
      </trkpt>
      <trkpt lat="43.1306050" lon="-1.1395880">
        <ele>263.0</ele>
        <time>2020-07-29T10:47:17Z</time>
      </trkpt>
      <trkpt lat="43.1305560" lon="-1.1396630">
        <ele>263.6</ele>
        <time>2020-07-29T10:47:19Z</time>
      </trkpt>
      <trkpt lat="43.1305120" lon="-1.1397320">
        <ele>264.4</ele>
        <time>2020-07-29T10:47:21Z</time>
      </trkpt>
      <trkpt lat="43.1304660" lon="-1.1397990">
        <ele>264.8</ele>
        <time>2020-07-29T10:47:23Z</time>
      </trkpt>
      <trkpt lat="43.1303610" lon="-1.1399670">
        <ele>265.2</ele>
        <time>2020-07-29T10:47:28Z</time>
      </trkpt>
      <trkpt lat="43.1303370" lon="-1.1399940">
        <ele>265.2</ele>
        <time>2020-07-29T10:47:29Z</time>
      </trkpt>
      <trkpt lat="43.1303130" lon="-1.1400200">
        <ele>265.2</ele>
        <time>2020-07-29T10:47:30Z</time>
      </trkpt>
      <trkpt lat="43.1302000" lon="-1.1402340">
        <ele>265.4</ele>
        <time>2020-07-29T10:47:36Z</time>
      </trkpt>
      <trkpt lat="43.1301940" lon="-1.1402600">
        <ele>265.2</ele>
        <time>2020-07-29T10:47:37Z</time>
      </trkpt>
      <trkpt lat="43.1302760" lon="-1.1403290">
        <ele>265.2</ele>
        <time>2020-07-29T10:47:38Z</time>
      </trkpt>
      <trkpt lat="43.1303610" lon="-1.1403890">
        <ele>264.8</ele>
        <time>2020-07-29T10:48:18Z</time>
      </trkpt>
      <trkpt lat="43.1304460" lon="-1.1404490">
        <ele>264.8</ele>
        <time>2020-07-29T10:48:19Z</time>
      </trkpt>
      <trkpt lat="43.1305290" lon="-1.1405080">
        <ele>264.8</ele>
        <time>2020-07-29T10:48:21Z</time>
      </trkpt>
      <trkpt lat="43.1306690" lon="-1.1405890">
        <ele>264.8</ele>
        <time>2020-07-29T10:48:24Z</time>
      </trkpt>
      <trkpt lat="43.1309910" lon="-1.1407890">
        <ele>264.8</ele>
        <time>2020-07-29T10:48:30Z</time>
      </trkpt>
      <trkpt lat="43.1310520" lon="-1.1408290">
        <ele>265.0</ele>
        <time>2020-07-29T10:48:31Z</time>
      </trkpt>
      <trkpt lat="43.1311770" lon="-1.1409200">
        <ele>264.8</ele>
        <time>2020-07-29T10:48:33Z</time>
      </trkpt>
      <trkpt lat="43.1314990" lon="-1.1411430">
        <ele>264.6</ele>
        <time>2020-07-29T10:48:38Z</time>
      </trkpt>
      <trkpt lat="43.1316850" lon="-1.1412840">
        <ele>264.2</ele>
        <time>2020-07-29T10:48:41Z</time>
      </trkpt>
      <trkpt lat="43.1319970" lon="-1.1415050">
        <ele>264.0</ele>
        <time>2020-07-29T10:48:46Z</time>
      </trkpt>
      <trkpt lat="43.1323870" lon="-1.1417290">
        <ele>263.8</ele>
        <time>2020-07-29T10:48:52Z</time>
      </trkpt>
      <trkpt lat="43.1325860" lon="-1.1418480">
        <ele>263.4</ele>
        <time>2020-07-29T10:48:55Z</time>
      </trkpt>
      <trkpt lat="43.1329280" lon="-1.1420380">
        <ele>262.6</ele>
        <time>2020-07-29T10:49:00Z</time>
      </trkpt>
      <trkpt lat="43.1332120" lon="-1.1421990">
        <ele>262.4</ele>
        <time>2020-07-29T10:49:04Z</time>
      </trkpt>
      <trkpt lat="43.1336260" lon="-1.1424480">
        <ele>261.8</ele>
        <time>2020-07-29T10:49:10Z</time>
      </trkpt>
      <trkpt lat="43.1340320" lon="-1.1426840">
        <ele>261.8</ele>
        <time>2020-07-29T10:49:16Z</time>
      </trkpt>
      <trkpt lat="43.1342390" lon="-1.1428140">
        <ele>261.6</ele>
        <time>2020-07-29T10:49:19Z</time>
      </trkpt>
      <trkpt lat="43.1343050" lon="-1.1428710">
        <ele>261.4</ele>
        <time>2020-07-29T10:49:20Z</time>
      </trkpt>
      <trkpt lat="43.1343690" lon="-1.1429340">
        <ele>261.2</ele>
        <time>2020-07-29T10:49:21Z</time>
      </trkpt>
      <trkpt lat="43.1344860" lon="-1.1430810">
        <ele>260.6</ele>
        <time>2020-07-29T10:49:23Z</time>
      </trkpt>
      <trkpt lat="43.1345360" lon="-1.1431640">
        <ele>260.4</ele>
        <time>2020-07-29T10:49:24Z</time>
      </trkpt>
      <trkpt lat="43.1346270" lon="-1.1433390">
        <ele>260.0</ele>
        <time>2020-07-29T10:49:26Z</time>
      </trkpt>
      <trkpt lat="43.1347240" lon="-1.1435100">
        <ele>260.0</ele>
        <time>2020-07-29T10:49:28Z</time>
      </trkpt>
      <trkpt lat="43.1348860" lon="-1.1437490">
        <ele>259.6</ele>
        <time>2020-07-29T10:49:31Z</time>
      </trkpt>
      <trkpt lat="43.1350670" lon="-1.1439680">
        <ele>259.0</ele>
        <time>2020-07-29T10:49:34Z</time>
      </trkpt>
      <trkpt lat="43.1352630" lon="-1.1441670">
        <ele>258.2</ele>
        <time>2020-07-29T10:49:37Z</time>
      </trkpt>
      <trkpt lat="43.1353920" lon="-1.1442990">
        <ele>257.8</ele>
        <time>2020-07-29T10:49:39Z</time>
      </trkpt>
      <trkpt lat="43.1357680" lon="-1.1447280">
        <ele>256.8</ele>
        <time>2020-07-29T10:49:45Z</time>
      </trkpt>
      <trkpt lat="43.1359600" lon="-1.1449610">
        <ele>256.0</ele>
        <time>2020-07-29T10:49:48Z</time>
      </trkpt>
      <trkpt lat="43.1360750" lon="-1.1451270">
        <ele>255.6</ele>
        <time>2020-07-29T10:49:50Z</time>
      </trkpt>
      <trkpt lat="43.1361840" lon="-1.1452970">
        <ele>255.2</ele>
        <time>2020-07-29T10:49:52Z</time>
      </trkpt>
      <trkpt lat="43.1363330" lon="-1.1455600">
        <ele>254.6</ele>
        <time>2020-07-29T10:49:55Z</time>
      </trkpt>
      <trkpt lat="43.1365290" lon="-1.1459100">
        <ele>254.0</ele>
        <time>2020-07-29T10:49:59Z</time>
      </trkpt>
      <trkpt lat="43.1365790" lon="-1.1459980">
        <ele>253.6</ele>
        <time>2020-07-29T10:50:00Z</time>
      </trkpt>
      <trkpt lat="43.1368900" lon="-1.1465160">
        <ele>252.6</ele>
        <time>2020-07-29T10:50:06Z</time>
      </trkpt>
      <trkpt lat="43.1370000" lon="-1.1466870">
        <ele>252.4</ele>
        <time>2020-07-29T10:50:08Z</time>
      </trkpt>
      <trkpt lat="43.1371720" lon="-1.1469320">
        <ele>252.0</ele>
        <time>2020-07-29T10:50:11Z</time>
      </trkpt>
      <trkpt lat="43.1373370" lon="-1.1471750">
        <ele>251.4</ele>
        <time>2020-07-29T10:50:14Z</time>
      </trkpt>
      <trkpt lat="43.1373890" lon="-1.1472570">
        <ele>251.4</ele>
        <time>2020-07-29T10:50:15Z</time>
      </trkpt>
      <trkpt lat="43.1375430" lon="-1.1475030">
        <ele>250.4</ele>
        <time>2020-07-29T10:50:18Z</time>
      </trkpt>
      <trkpt lat="43.1376400" lon="-1.1476640">
        <ele>249.6</ele>
        <time>2020-07-29T10:50:20Z</time>
      </trkpt>
      <trkpt lat="43.1376880" lon="-1.1477450">
        <ele>249.2</ele>
        <time>2020-07-29T10:50:21Z</time>
      </trkpt>
      <trkpt lat="43.1378350" lon="-1.1479750">
        <ele>248.2</ele>
        <time>2020-07-29T10:50:24Z</time>
      </trkpt>
      <trkpt lat="43.1378820" lon="-1.1480470">
        <ele>248.0</ele>
        <time>2020-07-29T10:50:25Z</time>
      </trkpt>
      <trkpt lat="43.1380110" lon="-1.1482540">
        <ele>247.8</ele>
        <time>2020-07-29T10:50:28Z</time>
      </trkpt>
      <trkpt lat="43.1380930" lon="-1.1483910">
        <ele>247.4</ele>
        <time>2020-07-29T10:50:30Z</time>
      </trkpt>
      <trkpt lat="43.1383660" lon="-1.1488170">
        <ele>247.2</ele>
        <time>2020-07-29T10:50:36Z</time>
      </trkpt>
      <trkpt lat="43.1384590" lon="-1.1489720">
        <ele>247.6</ele>
        <time>2020-07-29T10:50:38Z</time>
      </trkpt>
      <trkpt lat="43.1387440" lon="-1.1494330">
        <ele>247.2</ele>
        <time>2020-07-29T10:50:44Z</time>
      </trkpt>
      <trkpt lat="43.1388900" lon="-1.1496700">
        <ele>246.8</ele>
        <time>2020-07-29T10:50:47Z</time>
      </trkpt>
      <trkpt lat="43.1391880" lon="-1.1501500">
        <ele>246.8</ele>
        <time>2020-07-29T10:50:53Z</time>
      </trkpt>
      <trkpt lat="43.1392920" lon="-1.1503120">
        <ele>246.6</ele>
        <time>2020-07-29T10:50:55Z</time>
      </trkpt>
      <trkpt lat="43.1395000" lon="-1.1506270">
        <ele>246.0</ele>
        <time>2020-07-29T10:50:59Z</time>
      </trkpt>
      <trkpt lat="43.1395500" lon="-1.1507060">
        <ele>245.8</ele>
        <time>2020-07-29T10:51:00Z</time>
      </trkpt>
      <trkpt lat="43.1397060" lon="-1.1509310">
        <ele>245.8</ele>
        <time>2020-07-29T10:51:03Z</time>
      </trkpt>
      <trkpt lat="43.1399150" lon="-1.1512420">
        <ele>245.4</ele>
        <time>2020-07-29T10:51:07Z</time>
      </trkpt>
      <trkpt lat="43.1402280" lon="-1.1517110">
        <ele>244.6</ele>
        <time>2020-07-29T10:51:13Z</time>
      </trkpt>
      <trkpt lat="43.1403780" lon="-1.1519600">
        <ele>244.6</ele>
        <time>2020-07-29T10:51:16Z</time>
      </trkpt>
      <trkpt lat="43.1406340" lon="-1.1525220">
        <ele>243.6</ele>
        <time>2020-07-29T10:51:22Z</time>
      </trkpt>
      <trkpt lat="43.1406760" lon="-1.1526230">
        <ele>243.2</ele>
        <time>2020-07-29T10:51:23Z</time>
      </trkpt>
      <trkpt lat="43.1407600" lon="-1.1528290">
        <ele>242.4</ele>
        <time>2020-07-29T10:51:25Z</time>
      </trkpt>
      <trkpt lat="43.1409610" lon="-1.1532220">
        <ele>241.2</ele>
        <time>2020-07-29T10:51:29Z</time>
      </trkpt>
      <trkpt lat="43.1410310" lon="-1.1532990">
        <ele>241.0</ele>
        <time>2020-07-29T10:51:30Z</time>
      </trkpt>
      <trkpt lat="43.1411120" lon="-1.1533550">
        <ele>240.8</ele>
        <time>2020-07-29T10:51:31Z</time>
      </trkpt>
      <trkpt lat="43.1412910" lon="-1.1534350">
        <ele>240.4</ele>
        <time>2020-07-29T10:51:33Z</time>
      </trkpt>
      <trkpt lat="43.1413820" lon="-1.1534720">
        <ele>240.2</ele>
        <time>2020-07-29T10:51:34Z</time>
      </trkpt>
      <trkpt lat="43.1416470" lon="-1.1535740">
        <ele>239.0</ele>
        <time>2020-07-29T10:51:37Z</time>
      </trkpt>
      <trkpt lat="43.1418860" lon="-1.1536630">
        <ele>238.8</ele>
        <time>2020-07-29T10:51:40Z</time>
      </trkpt>
      <trkpt lat="43.1420500" lon="-1.1536880">
        <ele>238.8</ele>
        <time>2020-07-29T10:51:42Z</time>
      </trkpt>
      <trkpt lat="43.1422290" lon="-1.1536790">
        <ele>238.4</ele>
        <time>2020-07-29T10:51:44Z</time>
      </trkpt>
      <trkpt lat="43.1423190" lon="-1.1536740">
        <ele>237.6</ele>
        <time>2020-07-29T10:51:45Z</time>
      </trkpt>
      <trkpt lat="43.1425870" lon="-1.1536360">
        <ele>236.6</ele>
        <time>2020-07-29T10:51:48Z</time>
      </trkpt>
      <trkpt lat="43.1427600" lon="-1.1536070">
        <ele>236.4</ele>
        <time>2020-07-29T10:51:50Z</time>
      </trkpt>
      <trkpt lat="43.1430950" lon="-1.1535890">
        <ele>236.2</ele>
        <time>2020-07-29T10:51:54Z</time>
      </trkpt>
      <trkpt lat="43.1431740" lon="-1.1536060">
        <ele>236.2</ele>
        <time>2020-07-29T10:51:55Z</time>
      </trkpt>
      <trkpt lat="43.1436140" lon="-1.1538280">
        <ele>236.8</ele>
        <time>2020-07-29T10:52:01Z</time>
      </trkpt>
      <trkpt lat="43.1436770" lon="-1.1538810">
        <ele>236.8</ele>
        <time>2020-07-29T10:52:02Z</time>
      </trkpt>
      <trkpt lat="43.1437720" lon="-1.1540210">
        <ele>237.0</ele>
        <time>2020-07-29T10:52:04Z</time>
      </trkpt>
      <trkpt lat="43.1438250" lon="-1.1541860">
        <ele>237.0</ele>
        <time>2020-07-29T10:52:06Z</time>
      </trkpt>
      <trkpt lat="43.1438530" lon="-1.1543550">
        <ele>236.8</ele>
        <time>2020-07-29T10:52:08Z</time>
      </trkpt>
      <trkpt lat="43.1439010" lon="-1.1548710">
        <ele>237.4</ele>
        <time>2020-07-29T10:52:14Z</time>
      </trkpt>
      <trkpt lat="43.1439200" lon="-1.1550570">
        <ele>237.6</ele>
        <time>2020-07-29T10:52:16Z</time>
      </trkpt>
      <trkpt lat="43.1439290" lon="-1.1551530">
        <ele>237.6</ele>
        <time>2020-07-29T10:52:17Z</time>
      </trkpt>
      <trkpt lat="43.1439840" lon="-1.1556400">
        <ele>237.8</ele>
        <time>2020-07-29T10:52:22Z</time>
      </trkpt>
      <trkpt lat="43.1440170" lon="-1.1558330">
        <ele>238.0</ele>
        <time>2020-07-29T10:52:24Z</time>
      </trkpt>
      <trkpt lat="43.1441060" lon="-1.1563150">
        <ele>237.8</ele>
        <time>2020-07-29T10:52:29Z</time>
      </trkpt>
      <trkpt lat="43.1441800" lon="-1.1568050">
        <ele>238.2</ele>
        <time>2020-07-29T10:52:34Z</time>
      </trkpt>
      <trkpt lat="43.1442420" lon="-1.1574070">
        <ele>237.8</ele>
        <time>2020-07-29T10:52:40Z</time>
      </trkpt>
      <trkpt lat="43.1442890" lon="-1.1578090">
        <ele>237.6</ele>
        <time>2020-07-29T10:52:44Z</time>
      </trkpt>
      <trkpt lat="43.1444300" lon="-1.1583770">
        <ele>238.8</ele>
        <time>2020-07-29T10:52:50Z</time>
      </trkpt>
      <trkpt lat="43.1446630" lon="-1.1588890">
        <ele>238.8</ele>
        <time>2020-07-29T10:52:56Z</time>
      </trkpt>
      <trkpt lat="43.1446940" lon="-1.1589800">
        <ele>238.8</ele>
        <time>2020-07-29T10:52:57Z</time>
      </trkpt>
      <trkpt lat="43.1447190" lon="-1.1590750">
        <ele>238.8</ele>
        <time>2020-07-29T10:52:58Z</time>
      </trkpt>
      <trkpt lat="43.1447470" lon="-1.1592790">
        <ele>238.8</ele>
        <time>2020-07-29T10:53:00Z</time>
      </trkpt>
      <trkpt lat="43.1447510" lon="-1.1593860">
        <ele>238.8</ele>
        <time>2020-07-29T10:53:01Z</time>
      </trkpt>
      <trkpt lat="43.1447320" lon="-1.1599660">
        <ele>237.4</ele>
        <time>2020-07-29T10:53:06Z</time>
      </trkpt>
      <trkpt lat="43.1447260" lon="-1.1600860">
        <ele>237.0</ele>
        <time>2020-07-29T10:53:07Z</time>
      </trkpt>
      <trkpt lat="43.1447140" lon="-1.1603210">
        <ele>236.2</ele>
        <time>2020-07-29T10:53:09Z</time>
      </trkpt>
      <trkpt lat="43.1447120" lon="-1.1604350">
        <ele>236.2</ele>
        <time>2020-07-29T10:53:10Z</time>
      </trkpt>
      <trkpt lat="43.1447260" lon="-1.1608740">
        <ele>236.0</ele>
        <time>2020-07-29T10:53:14Z</time>
      </trkpt>
      <trkpt lat="43.1447450" lon="-1.1614790">
        <ele>235.6</ele>
        <time>2020-07-29T10:53:20Z</time>
      </trkpt>
      <trkpt lat="43.1447290" lon="-1.1616730">
        <ele>235.6</ele>
        <time>2020-07-29T10:53:22Z</time>
      </trkpt>
      <trkpt lat="43.1446800" lon="-1.1621280">
        <ele>236.2</ele>
        <time>2020-07-29T10:53:27Z</time>
      </trkpt>
      <trkpt lat="43.1447030" lon="-1.1625970">
        <ele>237.0</ele>
        <time>2020-07-29T10:53:33Z</time>
      </trkpt>
      <trkpt lat="43.1447300" lon="-1.1627260">
        <ele>237.4</ele>
        <time>2020-07-29T10:53:35Z</time>
      </trkpt>
      <trkpt lat="43.1447470" lon="-1.1627820">
        <ele>237.8</ele>
        <time>2020-07-29T10:53:36Z</time>
      </trkpt>
      <trkpt lat="43.1447650" lon="-1.1628350">
        <ele>238.0</ele>
        <time>2020-07-29T10:53:37Z</time>
      </trkpt>
      <trkpt lat="43.1447820" lon="-1.1628870">
        <ele>238.4</ele>
        <time>2020-07-29T10:53:38Z</time>
      </trkpt>
      <trkpt lat="43.1448000" lon="-1.1629400">
        <ele>238.8</ele>
        <time>2020-07-29T10:53:39Z</time>
      </trkpt>
      <trkpt lat="43.1448510" lon="-1.1631030">
        <ele>239.6</ele>
        <time>2020-07-29T10:53:42Z</time>
      </trkpt>
      <trkpt lat="43.1449420" lon="-1.1633860">
        <ele>240.4</ele>
        <time>2020-07-29T10:53:47Z</time>
      </trkpt>
      <trkpt lat="43.1449580" lon="-1.1634460">
        <ele>240.6</ele>
        <time>2020-07-29T10:53:48Z</time>
      </trkpt>
      <trkpt lat="43.1450590" lon="-1.1637830">
        <ele>240.8</ele>
        <time>2020-07-29T10:53:54Z</time>
      </trkpt>
      <trkpt lat="43.1450720" lon="-1.1638360">
        <ele>240.8</ele>
        <time>2020-07-29T10:53:55Z</time>
      </trkpt>
      <trkpt lat="43.1451220" lon="-1.1640390">
        <ele>241.4</ele>
        <time>2020-07-29T10:53:59Z</time>
      </trkpt>
      <trkpt lat="43.1451290" lon="-1.1640910">
        <ele>241.6</ele>
        <time>2020-07-29T10:54:00Z</time>
      </trkpt>
      <trkpt lat="43.1451270" lon="-1.1641950">
        <ele>242.0</ele>
        <time>2020-07-29T10:54:02Z</time>
      </trkpt>
      <trkpt lat="43.1451190" lon="-1.1642440">
        <ele>242.2</ele>
        <time>2020-07-29T10:54:03Z</time>
      </trkpt>
      <trkpt lat="43.1450540" lon="-1.1644510">
        <ele>242.8</ele>
        <time>2020-07-29T10:54:07Z</time>
      </trkpt>
      <trkpt lat="43.1449420" lon="-1.1647260">
        <ele>243.4</ele>
        <time>2020-07-29T10:54:12Z</time>
      </trkpt>
      <trkpt lat="43.1449130" lon="-1.1648430">
        <ele>243.8</ele>
        <time>2020-07-29T10:54:14Z</time>
      </trkpt>
      <trkpt lat="43.1448990" lon="-1.1649040">
        <ele>243.8</ele>
        <time>2020-07-29T10:54:15Z</time>
      </trkpt>
      <trkpt lat="43.1448300" lon="-1.1652870">
        <ele>244.0</ele>
        <time>2020-07-29T10:54:21Z</time>
      </trkpt>
      <trkpt lat="43.1448100" lon="-1.1655240">
        <ele>244.0</ele>
        <time>2020-07-29T10:54:24Z</time>
      </trkpt>
      <trkpt lat="43.1447980" lon="-1.1656950">
        <ele>243.6</ele>
        <time>2020-07-29T10:54:26Z</time>
      </trkpt>
      <trkpt lat="43.1447860" lon="-1.1658760">
        <ele>243.0</ele>
        <time>2020-07-29T10:54:28Z</time>
      </trkpt>
      <trkpt lat="43.1447870" lon="-1.1660680">
        <ele>242.6</ele>
        <time>2020-07-29T10:54:30Z</time>
      </trkpt>
      <trkpt lat="43.1448070" lon="-1.1662730">
        <ele>242.2</ele>
        <time>2020-07-29T10:54:32Z</time>
      </trkpt>
      <trkpt lat="43.1448920" lon="-1.1664660">
        <ele>241.6</ele>
        <time>2020-07-29T10:54:34Z</time>
      </trkpt>
      <trkpt lat="43.1450480" lon="-1.1665760">
        <ele>241.0</ele>
        <time>2020-07-29T10:54:36Z</time>
      </trkpt>
      <trkpt lat="43.1451400" lon="-1.1666070">
        <ele>240.6</ele>
        <time>2020-07-29T10:54:37Z</time>
      </trkpt>
      <trkpt lat="43.1452350" lon="-1.1666350">
        <ele>240.2</ele>
        <time>2020-07-29T10:54:38Z</time>
      </trkpt>
      <trkpt lat="43.1455210" lon="-1.1667450">
        <ele>238.8</ele>
        <time>2020-07-29T10:54:41Z</time>
      </trkpt>
      <trkpt lat="43.1456110" lon="-1.1668030">
        <ele>238.4</ele>
        <time>2020-07-29T10:54:42Z</time>
      </trkpt>
      <trkpt lat="43.1457670" lon="-1.1669550">
        <ele>237.8</ele>
        <time>2020-07-29T10:54:44Z</time>
      </trkpt>
      <trkpt lat="43.1459020" lon="-1.1671150">
        <ele>237.4</ele>
        <time>2020-07-29T10:54:46Z</time>
      </trkpt>
      <trkpt lat="43.1462770" lon="-1.1675230">
        <ele>237.2</ele>
        <time>2020-07-29T10:54:52Z</time>
      </trkpt>
      <trkpt lat="43.1464050" lon="-1.1676610">
        <ele>236.6</ele>
        <time>2020-07-29T10:54:54Z</time>
      </trkpt>
      <trkpt lat="43.1466140" lon="-1.1678940">
        <ele>235.4</ele>
        <time>2020-07-29T10:54:57Z</time>
      </trkpt>
      <trkpt lat="43.1466820" lon="-1.1679860">
        <ele>234.8</ele>
        <time>2020-07-29T10:54:58Z</time>
      </trkpt>
      <trkpt lat="43.1468460" lon="-1.1682970">
        <ele>234.2</ele>
        <time>2020-07-29T10:55:01Z</time>
      </trkpt>
      <trkpt lat="43.1468880" lon="-1.1684030">
        <ele>234.0</ele>
        <time>2020-07-29T10:55:02Z</time>
      </trkpt>
      <trkpt lat="43.1470610" lon="-1.1688840">
        <ele>233.8</ele>
        <time>2020-07-29T10:55:07Z</time>
      </trkpt>
      <trkpt lat="43.1472160" lon="-1.1692450">
        <ele>233.8</ele>
        <time>2020-07-29T10:55:11Z</time>
      </trkpt>
      <trkpt lat="43.1473100" lon="-1.1694260">
        <ele>233.4</ele>
        <time>2020-07-29T10:55:13Z</time>
      </trkpt>
      <trkpt lat="43.1474200" lon="-1.1696000">
        <ele>233.2</ele>
        <time>2020-07-29T10:55:15Z</time>
      </trkpt>
      <trkpt lat="43.1474770" lon="-1.1696840">
        <ele>233.0</ele>
        <time>2020-07-29T10:55:16Z</time>
      </trkpt>
      <trkpt lat="43.1475890" lon="-1.1698440">
        <ele>233.2</ele>
        <time>2020-07-29T10:55:18Z</time>
      </trkpt>
      <trkpt lat="43.1476990" lon="-1.1700040">
        <ele>233.2</ele>
        <time>2020-07-29T10:55:20Z</time>
      </trkpt>
      <trkpt lat="43.1479410" lon="-1.1704550">
        <ele>233.2</ele>
        <time>2020-07-29T10:55:25Z</time>
      </trkpt>
      <trkpt lat="43.1479870" lon="-1.1705540">
        <ele>233.0</ele>
        <time>2020-07-29T10:55:26Z</time>
      </trkpt>
      <trkpt lat="43.1482710" lon="-1.1711280">
        <ele>232.8</ele>
        <time>2020-07-29T10:55:32Z</time>
      </trkpt>
      <trkpt lat="43.1483300" lon="-1.1712070">
        <ele>232.6</ele>
        <time>2020-07-29T10:55:33Z</time>
      </trkpt>
      <trkpt lat="43.1484560" lon="-1.1713370">
        <ele>232.4</ele>
        <time>2020-07-29T10:55:35Z</time>
      </trkpt>
      <trkpt lat="43.1485930" lon="-1.1714280">
        <ele>232.2</ele>
        <time>2020-07-29T10:55:37Z</time>
      </trkpt>
      <trkpt lat="43.1487300" lon="-1.1715030">
        <ele>232.0</ele>
        <time>2020-07-29T10:55:39Z</time>
      </trkpt>
      <trkpt lat="43.1490740" lon="-1.1717270">
        <ele>231.6</ele>
        <time>2020-07-29T10:55:44Z</time>
      </trkpt>
      <trkpt lat="43.1493500" lon="-1.1719840">
        <ele>230.8</ele>
        <time>2020-07-29T10:55:48Z</time>
      </trkpt>
      <trkpt lat="43.1494820" lon="-1.1721330">
        <ele>230.4</ele>
        <time>2020-07-29T10:55:50Z</time>
      </trkpt>
      <trkpt lat="43.1498620" lon="-1.1725840">
        <ele>230.0</ele>
        <time>2020-07-29T10:55:56Z</time>
      </trkpt>
      <trkpt lat="43.1499780" lon="-1.1727490">
        <ele>229.8</ele>
        <time>2020-07-29T10:55:58Z</time>
      </trkpt>
      <trkpt lat="43.1500340" lon="-1.1728330">
        <ele>229.6</ele>
        <time>2020-07-29T10:55:59Z</time>
      </trkpt>
      <trkpt lat="43.1501470" lon="-1.1730020">
        <ele>229.4</ele>
        <time>2020-07-29T10:56:01Z</time>
      </trkpt>
      <trkpt lat="43.1503840" lon="-1.1733490">
        <ele>228.4</ele>
        <time>2020-07-29T10:56:05Z</time>
      </trkpt>
      <trkpt lat="43.1506210" lon="-1.1737040">
        <ele>227.2</ele>
        <time>2020-07-29T10:56:09Z</time>
      </trkpt>
      <trkpt lat="43.1507830" lon="-1.1739770">
        <ele>226.2</ele>
        <time>2020-07-29T10:56:12Z</time>
      </trkpt>
      <trkpt lat="43.1509120" lon="-1.1742690">
        <ele>225.4</ele>
        <time>2020-07-29T10:56:15Z</time>
      </trkpt>
      <trkpt lat="43.1510160" lon="-1.1745700">
        <ele>225.0</ele>
        <time>2020-07-29T10:56:18Z</time>
      </trkpt>
      <trkpt lat="43.1511400" lon="-1.1749540">
        <ele>225.4</ele>
        <time>2020-07-29T10:56:22Z</time>
      </trkpt>
      <trkpt lat="43.1512190" lon="-1.1752260">
        <ele>225.8</ele>
        <time>2020-07-29T10:56:25Z</time>
      </trkpt>
      <trkpt lat="43.1513000" lon="-1.1755730">
        <ele>225.6</ele>
        <time>2020-07-29T10:56:29Z</time>
      </trkpt>
      <trkpt lat="43.1513720" lon="-1.1759020">
        <ele>225.6</ele>
        <time>2020-07-29T10:56:33Z</time>
      </trkpt>
      <trkpt lat="43.1514270" lon="-1.1761340">
        <ele>225.6</ele>
        <time>2020-07-29T10:56:36Z</time>
      </trkpt>
      <trkpt lat="43.1514970" lon="-1.1764760">
        <ele>226.4</ele>
        <time>2020-07-29T10:56:41Z</time>
      </trkpt>
      <trkpt lat="43.1515120" lon="-1.1765350">
        <ele>226.6</ele>
        <time>2020-07-29T10:56:42Z</time>
      </trkpt>
      <trkpt lat="43.1515470" lon="-1.1766920">
        <ele>227.0</ele>
        <time>2020-07-29T10:56:45Z</time>
      </trkpt>
      <trkpt lat="43.1515750" lon="-1.1768250">
        <ele>227.4</ele>
        <time>2020-07-29T10:56:48Z</time>
      </trkpt>
      <trkpt lat="43.1515980" lon="-1.1769100">
        <ele>227.4</ele>
        <time>2020-07-29T10:56:50Z</time>
      </trkpt>
      <trkpt lat="43.1516430" lon="-1.1771120">
        <ele>228.4</ele>
        <time>2020-07-29T10:56:55Z</time>
      </trkpt>
      <trkpt lat="43.1516590" lon="-1.1771860">
        <ele>229.4</ele>
        <time>2020-07-29T10:56:57Z</time>
      </trkpt>
      <trkpt lat="43.1516670" lon="-1.1772240">
        <ele>229.8</ele>
        <time>2020-07-29T10:56:58Z</time>
      </trkpt>
      <trkpt lat="43.1516880" lon="-1.1773410">
        <ele>230.4</ele>
        <time>2020-07-29T10:57:01Z</time>
      </trkpt>
      <trkpt lat="43.1517280" lon="-1.1775070">
        <ele>231.0</ele>
        <time>2020-07-29T10:57:05Z</time>
      </trkpt>
      <trkpt lat="43.1517470" lon="-1.1775910">
        <ele>231.4</ele>
        <time>2020-07-29T10:57:07Z</time>
      </trkpt>
      <trkpt lat="43.1517920" lon="-1.1777110">
        <ele>232.2</ele>
        <time>2020-07-29T10:57:10Z</time>
      </trkpt>
      <trkpt lat="43.1518280" lon="-1.1777870">
        <ele>232.4</ele>
        <time>2020-07-29T10:57:12Z</time>
      </trkpt>
      <trkpt lat="43.1519170" lon="-1.1779250">
        <ele>233.4</ele>
        <time>2020-07-29T10:57:16Z</time>
      </trkpt>
      <trkpt lat="43.1520200" lon="-1.1780620">
        <ele>234.4</ele>
        <time>2020-07-29T10:57:20Z</time>
      </trkpt>
      <trkpt lat="43.1521960" lon="-1.1782430">
        <ele>235.2</ele>
        <time>2020-07-29T10:57:26Z</time>
      </trkpt>
      <trkpt lat="43.1522810" lon="-1.1783410">
        <ele>235.6</ele>
        <time>2020-07-29T10:57:29Z</time>
      </trkpt>
      <trkpt lat="43.1523110" lon="-1.1783750">
        <ele>236.0</ele>
        <time>2020-07-29T10:57:30Z</time>
      </trkpt>
      <trkpt lat="43.1524730" lon="-1.1785520">
        <ele>236.8</ele>
        <time>2020-07-29T10:57:35Z</time>
      </trkpt>
      <trkpt lat="43.1525410" lon="-1.1786300">
        <ele>236.6</ele>
        <time>2020-07-29T10:57:37Z</time>
      </trkpt>
      <trkpt lat="43.1527400" lon="-1.1788570">
        <ele>235.6</ele>
        <time>2020-07-29T10:57:42Z</time>
      </trkpt>
      <trkpt lat="43.1527860" lon="-1.1789100">
        <ele>235.2</ele>
        <time>2020-07-29T10:57:43Z</time>
      </trkpt>
      <trkpt lat="43.1528330" lon="-1.1789630">
        <ele>234.6</ele>
        <time>2020-07-29T10:57:44Z</time>
      </trkpt>
      <trkpt lat="43.1529880" lon="-1.1791420">
        <ele>233.4</ele>
        <time>2020-07-29T10:57:47Z</time>
      </trkpt>
      <trkpt lat="43.1531010" lon="-1.1792610">
        <ele>233.2</ele>
        <time>2020-07-29T10:57:49Z</time>
      </trkpt>
      <trkpt lat="43.1534660" lon="-1.1796710">
        <ele>233.4</ele>
        <time>2020-07-29T10:57:55Z</time>
      </trkpt>
      <trkpt lat="43.1535300" lon="-1.1797450">
        <ele>233.2</ele>
        <time>2020-07-29T10:57:56Z</time>
      </trkpt>
      <trkpt lat="43.1538560" lon="-1.1801100">
        <ele>232.4</ele>
        <time>2020-07-29T10:58:01Z</time>
      </trkpt>
      <trkpt lat="43.1539950" lon="-1.1802660">
        <ele>231.2</ele>
        <time>2020-07-29T10:58:03Z</time>
      </trkpt>
      <trkpt lat="43.1541250" lon="-1.1804400">
        <ele>230.0</ele>
        <time>2020-07-29T10:58:05Z</time>
      </trkpt>
      <trkpt lat="43.1542280" lon="-1.1806420">
        <ele>229.2</ele>
        <time>2020-07-29T10:58:07Z</time>
      </trkpt>
      <trkpt lat="43.1542660" lon="-1.1807510">
        <ele>228.8</ele>
        <time>2020-07-29T10:58:08Z</time>
      </trkpt>
      <trkpt lat="43.1542960" lon="-1.1808660">
        <ele>228.2</ele>
        <time>2020-07-29T10:58:09Z</time>
      </trkpt>
      <trkpt lat="43.1543430" lon="-1.1811070">
        <ele>227.4</ele>
        <time>2020-07-29T10:58:11Z</time>
      </trkpt>
      <trkpt lat="43.1544010" lon="-1.1814780">
        <ele>226.2</ele>
        <time>2020-07-29T10:58:14Z</time>
      </trkpt>
      <trkpt lat="43.1544670" lon="-1.1819550">
        <ele>225.2</ele>
        <time>2020-07-29T10:58:18Z</time>
      </trkpt>
      <trkpt lat="43.1544840" lon="-1.1820690">
        <ele>225.0</ele>
        <time>2020-07-29T10:58:19Z</time>
      </trkpt>
      <trkpt lat="43.1545560" lon="-1.1825220">
        <ele>224.4</ele>
        <time>2020-07-29T10:58:23Z</time>
      </trkpt>
      <trkpt lat="43.1545790" lon="-1.1826300">
        <ele>224.0</ele>
        <time>2020-07-29T10:58:24Z</time>
      </trkpt>
      <trkpt lat="43.1546680" lon="-1.1830760">
        <ele>222.8</ele>
        <time>2020-07-29T10:58:28Z</time>
      </trkpt>
      <trkpt lat="43.1546910" lon="-1.1831850">
        <ele>222.8</ele>
        <time>2020-07-29T10:58:29Z</time>
      </trkpt>
      <trkpt lat="43.1548020" lon="-1.1837250">
        <ele>221.8</ele>
        <time>2020-07-29T10:58:34Z</time>
      </trkpt>
      <trkpt lat="43.1548660" lon="-1.1840480">
        <ele>221.2</ele>
        <time>2020-07-29T10:58:37Z</time>
      </trkpt>
      <trkpt lat="43.1549040" lon="-1.1842580">
        <ele>220.8</ele>
        <time>2020-07-29T10:58:39Z</time>
      </trkpt>
      <trkpt lat="43.1549440" lon="-1.1844620">
        <ele>220.8</ele>
        <time>2020-07-29T10:58:41Z</time>
      </trkpt>
      <trkpt lat="43.1549840" lon="-1.1846640">
        <ele>220.4</ele>
        <time>2020-07-29T10:58:43Z</time>
      </trkpt>
      <trkpt lat="43.1550080" lon="-1.1847640">
        <ele>220.0</ele>
        <time>2020-07-29T10:58:44Z</time>
      </trkpt>
      <trkpt lat="43.1550660" lon="-1.1849760">
        <ele>219.4</ele>
        <time>2020-07-29T10:58:46Z</time>
      </trkpt>
      <trkpt lat="43.1552040" lon="-1.1852960">
        <ele>218.6</ele>
        <time>2020-07-29T10:58:49Z</time>
      </trkpt>
      <trkpt lat="43.1552620" lon="-1.1853970">
        <ele>218.2</ele>
        <time>2020-07-29T10:58:50Z</time>
      </trkpt>
      <trkpt lat="43.1554610" lon="-1.1856620">
        <ele>216.8</ele>
        <time>2020-07-29T10:58:53Z</time>
      </trkpt>
      <trkpt lat="43.1555980" lon="-1.1858140">
        <ele>215.6</ele>
        <time>2020-07-29T10:58:55Z</time>
      </trkpt>
      <trkpt lat="43.1557310" lon="-1.1859540">
        <ele>215.0</ele>
        <time>2020-07-29T10:58:57Z</time>
      </trkpt>
      <trkpt lat="43.1559250" lon="-1.1861510">
        <ele>214.4</ele>
        <time>2020-07-29T10:59:00Z</time>
      </trkpt>
      <trkpt lat="43.1560510" lon="-1.1862740">
        <ele>214.2</ele>
        <time>2020-07-29T10:59:02Z</time>
      </trkpt>
      <trkpt lat="43.1563770" lon="-1.1865850">
        <ele>213.2</ele>
        <time>2020-07-29T10:59:07Z</time>
      </trkpt>
      <trkpt lat="43.1565130" lon="-1.1867220">
        <ele>212.6</ele>
        <time>2020-07-29T10:59:09Z</time>
      </trkpt>
      <trkpt lat="43.1566520" lon="-1.1868640">
        <ele>212.0</ele>
        <time>2020-07-29T10:59:11Z</time>
      </trkpt>
      <trkpt lat="43.1567920" lon="-1.1870080">
        <ele>211.8</ele>
        <time>2020-07-29T10:59:13Z</time>
      </trkpt>
      <trkpt lat="43.1569320" lon="-1.1871490">
        <ele>211.6</ele>
        <time>2020-07-29T10:59:15Z</time>
      </trkpt>
      <trkpt lat="43.1571400" lon="-1.1873600">
        <ele>211.2</ele>
        <time>2020-07-29T10:59:18Z</time>
      </trkpt>
      <trkpt lat="43.1572760" lon="-1.1874990">
        <ele>211.0</ele>
        <time>2020-07-29T10:59:20Z</time>
      </trkpt>
      <trkpt lat="43.1574790" lon="-1.1876910">
        <ele>210.2</ele>
        <time>2020-07-29T10:59:23Z</time>
      </trkpt>
      <trkpt lat="43.1576120" lon="-1.1878090">
        <ele>209.8</ele>
        <time>2020-07-29T10:59:25Z</time>
      </trkpt>
      <trkpt lat="43.1577420" lon="-1.1879260">
        <ele>209.2</ele>
        <time>2020-07-29T10:59:27Z</time>
      </trkpt>
      <trkpt lat="43.1579320" lon="-1.1880950">
        <ele>208.8</ele>
        <time>2020-07-29T10:59:30Z</time>
      </trkpt>
      <trkpt lat="43.1579950" lon="-1.1881510">
        <ele>208.8</ele>
        <time>2020-07-29T10:59:31Z</time>
      </trkpt>
      <trkpt lat="43.1583890" lon="-1.1885020">
        <ele>207.6</ele>
        <time>2020-07-29T10:59:37Z</time>
      </trkpt>
      <trkpt lat="43.1586700" lon="-1.1887570">
        <ele>206.4</ele>
        <time>2020-07-29T10:59:41Z</time>
      </trkpt>
      <trkpt lat="43.1587410" lon="-1.1888230">
        <ele>206.2</ele>
        <time>2020-07-29T10:59:42Z</time>
      </trkpt>
      <trkpt lat="43.1589560" lon="-1.1890160">
        <ele>205.6</ele>
        <time>2020-07-29T10:59:45Z</time>
      </trkpt>
      <trkpt lat="43.1590260" lon="-1.1890810">
        <ele>205.6</ele>
        <time>2020-07-29T10:59:46Z</time>
      </trkpt>
      <trkpt lat="43.1590950" lon="-1.1891460">
        <ele>205.2</ele>
        <time>2020-07-29T10:59:47Z</time>
      </trkpt>
      <trkpt lat="43.1593620" lon="-1.1893900">
        <ele>204.0</ele>
        <time>2020-07-29T10:59:51Z</time>
      </trkpt>
      <trkpt lat="43.1594900" lon="-1.1895000">
        <ele>203.8</ele>
        <time>2020-07-29T10:59:53Z</time>
      </trkpt>
      <trkpt lat="43.1598380" lon="-1.1897680">
        <ele>203.6</ele>
        <time>2020-07-29T10:59:59Z</time>
      </trkpt>
      <trkpt lat="43.1598950" lon="-1.1898120">
        <ele>203.6</ele>
        <time>2020-07-29T11:00:00Z</time>
      </trkpt>
      <trkpt lat="43.1599490" lon="-1.1898610">
        <ele>203.8</ele>
        <time>2020-07-29T11:00:01Z</time>
      </trkpt>
      <trkpt lat="43.1601530" lon="-1.1900850">
        <ele>203.8</ele>
        <time>2020-07-29T11:00:05Z</time>
      </trkpt>
      <trkpt lat="43.1604750" lon="-1.1903670">
        <ele>203.6</ele>
        <time>2020-07-29T11:00:11Z</time>
      </trkpt>
      <trkpt lat="43.1606310" lon="-1.1905070">
        <ele>203.8</ele>
        <time>2020-07-29T11:00:14Z</time>
      </trkpt>
      <trkpt lat="43.1609570" lon="-1.1908000">
        <ele>204.2</ele>
        <time>2020-07-29T11:00:20Z</time>
      </trkpt>
      <trkpt lat="43.1610170" lon="-1.1908540">
        <ele>204.2</ele>
        <time>2020-07-29T11:00:21Z</time>
      </trkpt>
      <trkpt lat="43.1614200" lon="-1.1912130">
        <ele>203.2</ele>
        <time>2020-07-29T11:00:27Z</time>
      </trkpt>
      <trkpt lat="43.1614910" lon="-1.1912780">
        <ele>203.0</ele>
        <time>2020-07-29T11:00:28Z</time>
      </trkpt>
      <trkpt lat="43.1619100" lon="-1.1916570">
        <ele>202.0</ele>
        <time>2020-07-29T11:00:34Z</time>
      </trkpt>
      <trkpt lat="43.1619770" lon="-1.1917190">
        <ele>201.8</ele>
        <time>2020-07-29T11:00:35Z</time>
      </trkpt>
      <trkpt lat="43.1620440" lon="-1.1917790">
        <ele>201.4</ele>
        <time>2020-07-29T11:00:36Z</time>
      </trkpt>
      <trkpt lat="43.1624310" lon="-1.1920890">
        <ele>200.8</ele>
        <time>2020-07-29T11:00:42Z</time>
      </trkpt>
      <trkpt lat="43.1624940" lon="-1.1921290">
        <ele>200.8</ele>
        <time>2020-07-29T11:00:43Z</time>
      </trkpt>
      <trkpt lat="43.1625570" lon="-1.1921680">
        <ele>200.8</ele>
        <time>2020-07-29T11:00:44Z</time>
      </trkpt>
      <trkpt lat="43.1626190" lon="-1.1922070">
        <ele>200.6</ele>
        <time>2020-07-29T11:00:45Z</time>
      </trkpt>
      <trkpt lat="43.1629290" lon="-1.1923970">
        <ele>199.4</ele>
        <time>2020-07-29T11:00:50Z</time>
      </trkpt>
      <trkpt lat="43.1629900" lon="-1.1924370">
        <ele>198.8</ele>
        <time>2020-07-29T11:00:51Z</time>
      </trkpt>
      <trkpt lat="43.1630500" lon="-1.1924710">
        <ele>198.4</ele>
        <time>2020-07-29T11:00:52Z</time>
      </trkpt>
      <trkpt lat="43.1631110" lon="-1.1925050">
        <ele>198.2</ele>
        <time>2020-07-29T11:00:53Z</time>
      </trkpt>
      <trkpt lat="43.1635040" lon="-1.1927500">
        <ele>198.2</ele>
        <time>2020-07-29T11:00:59Z</time>
      </trkpt>
      <trkpt lat="43.1639550" lon="-1.1930340">
        <ele>197.2</ele>
        <time>2020-07-29T11:01:05Z</time>
      </trkpt>
      <trkpt lat="43.1640330" lon="-1.1930850">
        <ele>196.8</ele>
        <time>2020-07-29T11:01:06Z</time>
      </trkpt>
      <trkpt lat="43.1641900" lon="-1.1931810">
        <ele>196.2</ele>
        <time>2020-07-29T11:01:08Z</time>
      </trkpt>
      <trkpt lat="43.1644130" lon="-1.1933130">
        <ele>195.8</ele>
        <time>2020-07-29T11:01:11Z</time>
      </trkpt>
      <trkpt lat="43.1644820" lon="-1.1933540">
        <ele>195.6</ele>
        <time>2020-07-29T11:01:12Z</time>
      </trkpt>
      <trkpt lat="43.1648440" lon="-1.1935860">
        <ele>195.2</ele>
        <time>2020-07-29T11:01:18Z</time>
      </trkpt>
      <trkpt lat="43.1649970" lon="-1.1936600">
        <ele>195.4</ele>
        <time>2020-07-29T11:01:21Z</time>
      </trkpt>
      <trkpt lat="43.1651300" lon="-1.1937130">
        <ele>195.8</ele>
        <time>2020-07-29T11:01:24Z</time>
      </trkpt>
      <trkpt lat="43.1653360" lon="-1.1937870">
        <ele>196.8</ele>
        <time>2020-07-29T11:01:30Z</time>
      </trkpt>
      <trkpt lat="43.1654260" lon="-1.1938140">
        <ele>197.0</ele>
        <time>2020-07-29T11:01:34Z</time>
      </trkpt>
      <trkpt lat="43.1654450" lon="-1.1938250">
        <ele>197.0</ele>
        <time>2020-07-29T11:01:35Z</time>
      </trkpt>
      <trkpt lat="43.1654700" lon="-1.1938700">
        <ele>197.2</ele>
        <time>2020-07-29T11:01:37Z</time>
      </trkpt>
      <trkpt lat="43.1654740" lon="-1.1939310">
        <ele>197.2</ele>
        <time>2020-07-29T11:01:39Z</time>
      </trkpt>
      <trkpt lat="43.1653750" lon="-1.1940410">
        <ele>196.6</ele>
        <time>2020-07-29T11:38:29Z</time>
      </trkpt>
      <trkpt lat="43.1653630" lon="-1.1942200">
        <ele>198.4</ele>
        <time>2020-07-29T11:38:33Z</time>
      </trkpt>
      <trkpt lat="43.1653650" lon="-1.1943650">
        <ele>199.0</ele>
        <time>2020-07-29T11:38:36Z</time>
      </trkpt>
      <trkpt lat="43.1653600" lon="-1.1945070">
        <ele>199.2</ele>
        <time>2020-07-29T11:38:39Z</time>
      </trkpt>
      <trkpt lat="43.1653490" lon="-1.1945590">
        <ele>199.2</ele>
        <time>2020-07-29T11:38:40Z</time>
      </trkpt>
      <trkpt lat="43.1653160" lon="-1.1948120">
        <ele>199.2</ele>
        <time>2020-07-29T11:38:45Z</time>
      </trkpt>
      <trkpt lat="43.1652820" lon="-1.1950360">
        <ele>199.2</ele>
        <time>2020-07-29T11:38:49Z</time>
      </trkpt>
      <trkpt lat="43.1652500" lon="-1.1952550">
        <ele>199.4</ele>
        <time>2020-07-29T11:38:53Z</time>
      </trkpt>
      <trkpt lat="43.1651960" lon="-1.1955330">
        <ele>199.6</ele>
        <time>2020-07-29T11:38:58Z</time>
      </trkpt>
      <trkpt lat="43.1651850" lon="-1.1955930">
        <ele>199.6</ele>
        <time>2020-07-29T11:38:59Z</time>
      </trkpt>
      <trkpt lat="43.1651620" lon="-1.1957150">
        <ele>199.4</ele>
        <time>2020-07-29T11:39:01Z</time>
      </trkpt>
      <trkpt lat="43.1651560" lon="-1.1957790">
        <ele>199.4</ele>
        <time>2020-07-29T11:39:02Z</time>
      </trkpt>
      <trkpt lat="43.1651490" lon="-1.1959700">
        <ele>199.2</ele>
        <time>2020-07-29T11:39:05Z</time>
      </trkpt>
      <trkpt lat="43.1651700" lon="-1.1961710">
        <ele>199.0</ele>
        <time>2020-07-29T11:39:08Z</time>
      </trkpt>
      <trkpt lat="43.1652020" lon="-1.1963880">
        <ele>198.6</ele>
        <time>2020-07-29T11:39:11Z</time>
      </trkpt>
      <trkpt lat="43.1652190" lon="-1.1965510">
        <ele>198.4</ele>
        <time>2020-07-29T11:39:13Z</time>
      </trkpt>
      <trkpt lat="43.1652380" lon="-1.1967150">
        <ele>198.0</ele>
        <time>2020-07-29T11:39:15Z</time>
      </trkpt>
      <trkpt lat="43.1652550" lon="-1.1969970">
        <ele>197.6</ele>
        <time>2020-07-29T11:39:18Z</time>
      </trkpt>
      <trkpt lat="43.1652700" lon="-1.1970900">
        <ele>197.4</ele>
        <time>2020-07-29T11:39:19Z</time>
      </trkpt>
      <trkpt lat="43.1652890" lon="-1.1971840">
        <ele>197.0</ele>
        <time>2020-07-29T11:39:20Z</time>
      </trkpt>
      <trkpt lat="43.1653400" lon="-1.1974770">
        <ele>196.2</ele>
        <time>2020-07-29T11:39:23Z</time>
      </trkpt>
      <trkpt lat="43.1653700" lon="-1.1976730">
        <ele>196.0</ele>
        <time>2020-07-29T11:39:25Z</time>
      </trkpt>
      <trkpt lat="43.1654060" lon="-1.1979810">
        <ele>195.4</ele>
        <time>2020-07-29T11:39:28Z</time>
      </trkpt>
      <trkpt lat="43.1654160" lon="-1.1980850">
        <ele>195.2</ele>
        <time>2020-07-29T11:39:29Z</time>
      </trkpt>
      <trkpt lat="43.1654260" lon="-1.1981880">
        <ele>195.0</ele>
        <time>2020-07-29T11:39:30Z</time>
      </trkpt>
      <trkpt lat="43.1654610" lon="-1.1985060">
        <ele>194.2</ele>
        <time>2020-07-29T11:39:33Z</time>
      </trkpt>
      <trkpt lat="43.1654850" lon="-1.1987220">
        <ele>194.0</ele>
        <time>2020-07-29T11:39:35Z</time>
      </trkpt>
      <trkpt lat="43.1655200" lon="-1.1990540">
        <ele>192.8</ele>
        <time>2020-07-29T11:39:38Z</time>
      </trkpt>
      <trkpt lat="43.1655430" lon="-1.1992820">
        <ele>191.8</ele>
        <time>2020-07-29T11:39:40Z</time>
      </trkpt>
      <trkpt lat="43.1655660" lon="-1.1995130">
        <ele>191.0</ele>
        <time>2020-07-29T11:39:42Z</time>
      </trkpt>
      <trkpt lat="43.1655880" lon="-1.1997470">
        <ele>190.8</ele>
        <time>2020-07-29T11:39:44Z</time>
      </trkpt>
      <trkpt lat="43.1656350" lon="-1.2002150">
        <ele>189.6</ele>
        <time>2020-07-29T11:39:48Z</time>
      </trkpt>
      <trkpt lat="43.1656840" lon="-1.2006860">
        <ele>189.4</ele>
        <time>2020-07-29T11:39:52Z</time>
      </trkpt>
      <trkpt lat="43.1657420" lon="-1.2011520">
        <ele>188.4</ele>
        <time>2020-07-29T11:39:56Z</time>
      </trkpt>
      <trkpt lat="43.1657810" lon="-1.2015000">
        <ele>187.4</ele>
        <time>2020-07-29T11:39:59Z</time>
      </trkpt>
      <trkpt lat="43.1658170" lon="-1.2018450">
        <ele>187.0</ele>
        <time>2020-07-29T11:40:02Z</time>
      </trkpt>
      <trkpt lat="43.1658770" lon="-1.2024120">
        <ele>186.2</ele>
        <time>2020-07-29T11:40:07Z</time>
      </trkpt>
      <trkpt lat="43.1659010" lon="-1.2026320">
        <ele>185.8</ele>
        <time>2020-07-29T11:40:09Z</time>
      </trkpt>
      <trkpt lat="43.1659580" lon="-1.2031790">
        <ele>185.2</ele>
        <time>2020-07-29T11:40:14Z</time>
      </trkpt>
      <trkpt lat="43.1659710" lon="-1.2032880">
        <ele>185.0</ele>
        <time>2020-07-29T11:40:15Z</time>
      </trkpt>
      <trkpt lat="43.1659910" lon="-1.2033950">
        <ele>184.8</ele>
        <time>2020-07-29T11:40:16Z</time>
      </trkpt>
      <trkpt lat="43.1660640" lon="-1.2035830">
        <ele>184.6</ele>
        <time>2020-07-29T11:40:18Z</time>
      </trkpt>
      <trkpt lat="43.1661180" lon="-1.2037510">
        <ele>184.6</ele>
        <time>2020-07-29T11:40:20Z</time>
      </trkpt>
      <trkpt lat="43.1661160" lon="-1.2038380">
        <ele>184.6</ele>
        <time>2020-07-29T11:40:21Z</time>
      </trkpt>
      <trkpt lat="43.1661030" lon="-1.2039240">
        <ele>184.6</ele>
        <time>2020-07-29T11:40:22Z</time>
      </trkpt>
      <trkpt lat="43.1660780" lon="-1.2041060">
        <ele>184.8</ele>
        <time>2020-07-29T11:40:24Z</time>
      </trkpt>
      <trkpt lat="43.1660780" lon="-1.2042020">
        <ele>184.8</ele>
        <time>2020-07-29T11:40:25Z</time>
      </trkpt>
      <trkpt lat="43.1660850" lon="-1.2043020">
        <ele>184.8</ele>
        <time>2020-07-29T11:40:26Z</time>
      </trkpt>
      <trkpt lat="43.1661320" lon="-1.2047250">
        <ele>184.4</ele>
        <time>2020-07-29T11:40:30Z</time>
      </trkpt>
      <trkpt lat="43.1661440" lon="-1.2048350">
        <ele>184.0</ele>
        <time>2020-07-29T11:40:31Z</time>
      </trkpt>
      <trkpt lat="43.1661580" lon="-1.2049460">
        <ele>183.8</ele>
        <time>2020-07-29T11:40:32Z</time>
      </trkpt>
      <trkpt lat="43.1661830" lon="-1.2051700">
        <ele>183.4</ele>
        <time>2020-07-29T11:40:34Z</time>
      </trkpt>
      <trkpt lat="43.1662060" lon="-1.2053950">
        <ele>183.4</ele>
        <time>2020-07-29T11:40:36Z</time>
      </trkpt>
      <trkpt lat="43.1662400" lon="-1.2057320">
        <ele>183.0</ele>
        <time>2020-07-29T11:40:39Z</time>
      </trkpt>
      <trkpt lat="43.1662800" lon="-1.2060660">
        <ele>182.2</ele>
        <time>2020-07-29T11:40:42Z</time>
      </trkpt>
      <trkpt lat="43.1663050" lon="-1.2062890">
        <ele>182.0</ele>
        <time>2020-07-29T11:40:44Z</time>
      </trkpt>
      <trkpt lat="43.1663290" lon="-1.2065120">
        <ele>181.8</ele>
        <time>2020-07-29T11:40:46Z</time>
      </trkpt>
      <trkpt lat="43.1664030" lon="-1.2071780">
        <ele>182.0</ele>
        <time>2020-07-29T11:40:52Z</time>
      </trkpt>
      <trkpt lat="43.1664380" lon="-1.2075120">
        <ele>182.2</ele>
        <time>2020-07-29T11:40:55Z</time>
      </trkpt>
      <trkpt lat="43.1664620" lon="-1.2077360">
        <ele>182.0</ele>
        <time>2020-07-29T11:40:57Z</time>
      </trkpt>
      <trkpt lat="43.1664740" lon="-1.2078480">
        <ele>182.0</ele>
        <time>2020-07-29T11:40:58Z</time>
      </trkpt>
      <trkpt lat="43.1664990" lon="-1.2080740">
        <ele>181.4</ele>
        <time>2020-07-29T11:41:00Z</time>
      </trkpt>
      <trkpt lat="43.1665780" lon="-1.2087560">
        <ele>180.8</ele>
        <time>2020-07-29T11:41:06Z</time>
      </trkpt>
      <trkpt lat="43.1666300" lon="-1.2092040">
        <ele>180.6</ele>
        <time>2020-07-29T11:41:10Z</time>
      </trkpt>
      <trkpt lat="43.1667040" lon="-1.2098630">
        <ele>180.4</ele>
        <time>2020-07-29T11:41:16Z</time>
      </trkpt>
      <trkpt lat="43.1667400" lon="-1.2101950">
        <ele>180.2</ele>
        <time>2020-07-29T11:41:19Z</time>
      </trkpt>
      <trkpt lat="43.1667890" lon="-1.2106420">
        <ele>179.8</ele>
        <time>2020-07-29T11:41:23Z</time>
      </trkpt>
      <trkpt lat="43.1668350" lon="-1.2110780">
        <ele>179.4</ele>
        <time>2020-07-29T11:41:27Z</time>
      </trkpt>
      <trkpt lat="43.1668810" lon="-1.2115110">
        <ele>178.6</ele>
        <time>2020-07-29T11:41:31Z</time>
      </trkpt>
      <trkpt lat="43.1669290" lon="-1.2119540">
        <ele>178.0</ele>
        <time>2020-07-29T11:41:35Z</time>
      </trkpt>
      <trkpt lat="43.1670030" lon="-1.2126130">
        <ele>177.6</ele>
        <time>2020-07-29T11:41:41Z</time>
      </trkpt>
      <trkpt lat="43.1670150" lon="-1.2127230">
        <ele>177.6</ele>
        <time>2020-07-29T11:41:42Z</time>
      </trkpt>
      <trkpt lat="43.1670400" lon="-1.2129450">
        <ele>177.2</ele>
        <time>2020-07-29T11:41:44Z</time>
      </trkpt>
      <trkpt lat="43.1671090" lon="-1.2135960">
        <ele>176.8</ele>
        <time>2020-07-29T11:41:50Z</time>
      </trkpt>
      <trkpt lat="43.1671220" lon="-1.2137040">
        <ele>176.8</ele>
        <time>2020-07-29T11:41:51Z</time>
      </trkpt>
      <trkpt lat="43.1671330" lon="-1.2138110">
        <ele>176.8</ele>
        <time>2020-07-29T11:41:52Z</time>
      </trkpt>
      <trkpt lat="43.1671680" lon="-1.2141430">
        <ele>176.4</ele>
        <time>2020-07-29T11:41:55Z</time>
      </trkpt>
      <trkpt lat="43.1671900" lon="-1.2143700">
        <ele>176.0</ele>
        <time>2020-07-29T11:41:57Z</time>
      </trkpt>
      <trkpt lat="43.1672020" lon="-1.2144830">
        <ele>176.0</ele>
        <time>2020-07-29T11:41:58Z</time>
      </trkpt>
      <trkpt lat="43.1672280" lon="-1.2147130">
        <ele>175.6</ele>
        <time>2020-07-29T11:42:00Z</time>
      </trkpt>
      <trkpt lat="43.1672550" lon="-1.2149490">
        <ele>175.4</ele>
        <time>2020-07-29T11:42:02Z</time>
      </trkpt>
      <trkpt lat="43.1672680" lon="-1.2150670">
        <ele>175.2</ele>
        <time>2020-07-29T11:42:03Z</time>
      </trkpt>
      <trkpt lat="43.1672940" lon="-1.2153040">
        <ele>174.6</ele>
        <time>2020-07-29T11:42:05Z</time>
      </trkpt>
      <trkpt lat="43.1673200" lon="-1.2155380">
        <ele>174.4</ele>
        <time>2020-07-29T11:42:07Z</time>
      </trkpt>
      <trkpt lat="43.1673850" lon="-1.2160960">
        <ele>173.8</ele>
        <time>2020-07-29T11:42:12Z</time>
      </trkpt>
      <trkpt lat="43.1674210" lon="-1.2164160">
        <ele>173.4</ele>
        <time>2020-07-29T11:42:15Z</time>
      </trkpt>
      <trkpt lat="43.1674880" lon="-1.2170500">
        <ele>173.2</ele>
        <time>2020-07-29T11:42:21Z</time>
      </trkpt>
      <trkpt lat="43.1675220" lon="-1.2173520">
        <ele>173.2</ele>
        <time>2020-07-29T11:42:24Z</time>
      </trkpt>
      <trkpt lat="43.1675340" lon="-1.2174490">
        <ele>173.4</ele>
        <time>2020-07-29T11:42:25Z</time>
      </trkpt>
      <trkpt lat="43.1675780" lon="-1.2178260">
        <ele>173.6</ele>
        <time>2020-07-29T11:42:29Z</time>
      </trkpt>
      <trkpt lat="43.1676250" lon="-1.2182780">
        <ele>174.4</ele>
        <time>2020-07-29T11:42:34Z</time>
      </trkpt>
      <trkpt lat="43.1676440" lon="-1.2184550">
        <ele>174.4</ele>
        <time>2020-07-29T11:42:36Z</time>
      </trkpt>
      <trkpt lat="43.1677010" lon="-1.2189860">
        <ele>174.8</ele>
        <time>2020-07-29T11:42:42Z</time>
      </trkpt>
      <trkpt lat="43.1677260" lon="-1.2192590">
        <ele>174.8</ele>
        <time>2020-07-29T11:42:45Z</time>
      </trkpt>
      <trkpt lat="43.1677860" lon="-1.2198250">
        <ele>173.6</ele>
        <time>2020-07-29T11:42:51Z</time>
      </trkpt>
      <trkpt lat="43.1677950" lon="-1.2199230">
        <ele>173.4</ele>
        <time>2020-07-29T11:42:52Z</time>
      </trkpt>
      <trkpt lat="43.1678150" lon="-1.2201230">
        <ele>172.8</ele>
        <time>2020-07-29T11:42:54Z</time>
      </trkpt>
      <trkpt lat="43.1678470" lon="-1.2204280">
        <ele>172.4</ele>
        <time>2020-07-29T11:42:57Z</time>
      </trkpt>
      <trkpt lat="43.1679140" lon="-1.2210530">
        <ele>171.6</ele>
        <time>2020-07-29T11:43:03Z</time>
      </trkpt>
      <trkpt lat="43.1679370" lon="-1.2212640">
        <ele>171.2</ele>
        <time>2020-07-29T11:43:05Z</time>
      </trkpt>
      <trkpt lat="43.1679480" lon="-1.2213700">
        <ele>171.0</ele>
        <time>2020-07-29T11:43:06Z</time>
      </trkpt>
      <trkpt lat="43.1679820" lon="-1.2216890">
        <ele>170.8</ele>
        <time>2020-07-29T11:43:09Z</time>
      </trkpt>
      <trkpt lat="43.1680160" lon="-1.2220090">
        <ele>170.8</ele>
        <time>2020-07-29T11:43:12Z</time>
      </trkpt>
      <trkpt lat="43.1680420" lon="-1.2222200">
        <ele>170.8</ele>
        <time>2020-07-29T11:43:14Z</time>
      </trkpt>
      <trkpt lat="43.1680960" lon="-1.2226260">
        <ele>170.6</ele>
        <time>2020-07-29T11:43:18Z</time>
      </trkpt>
      <trkpt lat="43.1681670" lon="-1.2232140">
        <ele>170.6</ele>
        <time>2020-07-29T11:43:24Z</time>
      </trkpt>
      <trkpt lat="43.1682230" lon="-1.2236730">
        <ele>171.4</ele>
        <time>2020-07-29T11:43:29Z</time>
      </trkpt>
      <trkpt lat="43.1682900" lon="-1.2242060">
        <ele>171.8</ele>
        <time>2020-07-29T11:43:35Z</time>
      </trkpt>
      <trkpt lat="43.1683320" lon="-1.2245800">
        <ele>171.0</ele>
        <time>2020-07-29T11:43:39Z</time>
      </trkpt>
      <trkpt lat="43.1683870" lon="-1.2250660">
        <ele>170.4</ele>
        <time>2020-07-29T11:43:44Z</time>
      </trkpt>
      <trkpt lat="43.1684460" lon="-1.2255340">
        <ele>170.2</ele>
        <time>2020-07-29T11:43:49Z</time>
      </trkpt>
      <trkpt lat="43.1684590" lon="-1.2256200">
        <ele>170.2</ele>
        <time>2020-07-29T11:43:50Z</time>
      </trkpt>
      <trkpt lat="43.1684880" lon="-1.2258730">
        <ele>169.8</ele>
        <time>2020-07-29T11:43:53Z</time>
      </trkpt>
      <trkpt lat="43.1685090" lon="-1.2260510">
        <ele>169.6</ele>
        <time>2020-07-29T11:43:55Z</time>
      </trkpt>
      <trkpt lat="43.1685670" lon="-1.2265240">
        <ele>170.0</ele>
        <time>2020-07-29T11:44:00Z</time>
      </trkpt>
      <trkpt lat="43.1685970" lon="-1.2268100">
        <ele>170.2</ele>
        <time>2020-07-29T11:44:03Z</time>
      </trkpt>
      <trkpt lat="43.1686070" lon="-1.2269070">
        <ele>170.2</ele>
        <time>2020-07-29T11:44:04Z</time>
      </trkpt>
      <trkpt lat="43.1686590" lon="-1.2274010">
        <ele>169.4</ele>
        <time>2020-07-29T11:44:09Z</time>
      </trkpt>
      <trkpt lat="43.1687060" lon="-1.2277900">
        <ele>169.2</ele>
        <time>2020-07-29T11:44:13Z</time>
      </trkpt>
      <trkpt lat="43.1687670" lon="-1.2283580">
        <ele>168.0</ele>
        <time>2020-07-29T11:44:19Z</time>
      </trkpt>
      <trkpt lat="43.1687780" lon="-1.2284550">
        <ele>168.0</ele>
        <time>2020-07-29T11:44:20Z</time>
      </trkpt>
      <trkpt lat="43.1688070" lon="-1.2287520">
        <ele>168.0</ele>
        <time>2020-07-29T11:44:23Z</time>
      </trkpt>
      <trkpt lat="43.1688710" lon="-1.2292510">
        <ele>167.8</ele>
        <time>2020-07-29T11:44:28Z</time>
      </trkpt>
      <trkpt lat="43.1688820" lon="-1.2293510">
        <ele>167.6</ele>
        <time>2020-07-29T11:44:29Z</time>
      </trkpt>
      <trkpt lat="43.1689230" lon="-1.2297550">
        <ele>166.8</ele>
        <time>2020-07-29T11:44:33Z</time>
      </trkpt>
      <trkpt lat="43.1689350" lon="-1.2301770">
        <ele>166.2</ele>
        <time>2020-07-29T11:44:37Z</time>
      </trkpt>
      <trkpt lat="43.1689350" lon="-1.2302830">
        <ele>166.0</ele>
        <time>2020-07-29T11:44:38Z</time>
      </trkpt>
      <trkpt lat="43.1689330" lon="-1.2303880">
        <ele>165.8</ele>
        <time>2020-07-29T11:44:39Z</time>
      </trkpt>
      <trkpt lat="43.1689270" lon="-1.2310630">
        <ele>165.2</ele>
        <time>2020-07-29T11:44:45Z</time>
      </trkpt>
      <trkpt lat="43.1689300" lon="-1.2313040">
        <ele>164.4</ele>
        <time>2020-07-29T11:44:47Z</time>
      </trkpt>
      <trkpt lat="43.1689360" lon="-1.2316720">
        <ele>163.0</ele>
        <time>2020-07-29T11:44:50Z</time>
      </trkpt>
      <trkpt lat="43.1689390" lon="-1.2319150">
        <ele>162.4</ele>
        <time>2020-07-29T11:44:52Z</time>
      </trkpt>
      <trkpt lat="43.1689380" lon="-1.2320350">
        <ele>162.2</ele>
        <time>2020-07-29T11:44:53Z</time>
      </trkpt>
      <trkpt lat="43.1689310" lon="-1.2321540">
        <ele>161.8</ele>
        <time>2020-07-29T11:44:54Z</time>
      </trkpt>
      <trkpt lat="43.1689170" lon="-1.2322720">
        <ele>161.6</ele>
        <time>2020-07-29T11:44:55Z</time>
      </trkpt>
      <trkpt lat="43.1688480" lon="-1.2324900">
        <ele>161.2</ele>
        <time>2020-07-29T11:44:57Z</time>
      </trkpt>
      <trkpt lat="43.1687900" lon="-1.2325830">
        <ele>160.8</ele>
        <time>2020-07-29T11:44:58Z</time>
      </trkpt>
      <trkpt lat="43.1687190" lon="-1.2326610">
        <ele>160.4</ele>
        <time>2020-07-29T11:44:59Z</time>
      </trkpt>
      <trkpt lat="43.1685520" lon="-1.2327720">
        <ele>159.6</ele>
        <time>2020-07-29T11:45:01Z</time>
      </trkpt>
      <trkpt lat="43.1684620" lon="-1.2328130">
        <ele>159.4</ele>
        <time>2020-07-29T11:45:02Z</time>
      </trkpt>
      <trkpt lat="43.1681030" lon="-1.2329470">
        <ele>159.0</ele>
        <time>2020-07-29T11:45:06Z</time>
      </trkpt>
      <trkpt lat="43.1679340" lon="-1.2330150">
        <ele>158.8</ele>
        <time>2020-07-29T11:45:08Z</time>
      </trkpt>
      <trkpt lat="43.1676830" lon="-1.2331060">
        <ele>158.4</ele>
        <time>2020-07-29T11:45:11Z</time>
      </trkpt>
      <trkpt lat="43.1675260" lon="-1.2331680">
        <ele>158.6</ele>
        <time>2020-07-29T11:45:13Z</time>
      </trkpt>
      <trkpt lat="43.1670990" lon="-1.2333580">
        <ele>159.0</ele>
        <time>2020-07-29T11:45:19Z</time>
      </trkpt>
      <trkpt lat="43.1670280" lon="-1.2333840">
        <ele>158.8</ele>
        <time>2020-07-29T11:45:20Z</time>
      </trkpt>
      <trkpt lat="43.1668150" lon="-1.2334510">
        <ele>158.2</ele>
        <time>2020-07-29T11:45:23Z</time>
      </trkpt>
      <trkpt lat="43.1665410" lon="-1.2335500">
        <ele>157.6</ele>
        <time>2020-07-29T11:45:27Z</time>
      </trkpt>
      <trkpt lat="43.1664080" lon="-1.2335960">
        <ele>157.6</ele>
        <time>2020-07-29T11:45:29Z</time>
      </trkpt>
      <trkpt lat="43.1660940" lon="-1.2337170">
        <ele>157.8</ele>
        <time>2020-07-29T11:45:34Z</time>
      </trkpt>
      <trkpt lat="43.1659770" lon="-1.2337650">
        <ele>158.0</ele>
        <time>2020-07-29T11:45:36Z</time>
      </trkpt>
      <trkpt lat="43.1659210" lon="-1.2337880">
        <ele>158.4</ele>
        <time>2020-07-29T11:45:37Z</time>
      </trkpt>
      <trkpt lat="43.1658240" lon="-1.2338350">
        <ele>158.6</ele>
        <time>2020-07-29T11:45:39Z</time>
      </trkpt>
      <trkpt lat="43.1657700" lon="-1.2338610">
        <ele>158.8</ele>
        <time>2020-07-29T11:45:41Z</time>
      </trkpt>
      <trkpt lat="43.1657200" lon="-1.2339010">
        <ele>159.2</ele>
        <time>2020-07-29T11:45:44Z</time>
      </trkpt>
      <trkpt lat="43.1656690" lon="-1.2339440">
        <ele>159.4</ele>
        <time>2020-07-29T11:45:46Z</time>
      </trkpt>
      <trkpt lat="43.1655950" lon="-1.2339670">
        <ele>159.2</ele>
        <time>2020-07-29T11:45:48Z</time>
      </trkpt>
      <trkpt lat="43.1655080" lon="-1.2339610">
        <ele>159.4</ele>
        <time>2020-07-29T11:45:50Z</time>
      </trkpt>
      <trkpt lat="43.1654620" lon="-1.2339610">
        <ele>159.4</ele>
        <time>2020-07-29T11:45:51Z</time>
      </trkpt>
      <trkpt lat="43.1652710" lon="-1.2340160">
        <ele>160.0</ele>
        <time>2020-07-29T11:45:55Z</time>
      </trkpt>
      <trkpt lat="43.1652250" lon="-1.2340330">
        <ele>160.0</ele>
        <time>2020-07-29T11:45:56Z</time>
      </trkpt>
      <trkpt lat="43.1650400" lon="-1.2341060">
        <ele>160.2</ele>
        <time>2020-07-29T11:46:00Z</time>
      </trkpt>
      <trkpt lat="43.1649550" lon="-1.2341370">
        <ele>160.8</ele>
        <time>2020-07-29T11:46:02Z</time>
      </trkpt>
      <trkpt lat="43.1648770" lon="-1.2341660">
        <ele>161.4</ele>
        <time>2020-07-29T11:46:04Z</time>
      </trkpt>
      <trkpt lat="43.1646590" lon="-1.2342480">
        <ele>162.4</ele>
        <time>2020-07-29T11:46:10Z</time>
      </trkpt>
      <trkpt lat="43.1646240" lon="-1.2342610">
        <ele>162.6</ele>
        <time>2020-07-29T11:46:11Z</time>
      </trkpt>
      <trkpt lat="43.1644860" lon="-1.2343270">
        <ele>163.6</ele>
        <time>2020-07-29T11:46:15Z</time>
      </trkpt>
      <trkpt lat="43.1644000" lon="-1.2344180">
        <ele>164.2</ele>
        <time>2020-07-29T11:46:18Z</time>
      </trkpt>
      <trkpt lat="43.1643480" lon="-1.2344890">
        <ele>164.8</ele>
        <time>2020-07-29T11:46:20Z</time>
      </trkpt>
      <trkpt lat="43.1642780" lon="-1.2346570">
        <ele>165.6</ele>
        <time>2020-07-29T11:46:24Z</time>
      </trkpt>
      <trkpt lat="43.1642670" lon="-1.2347030">
        <ele>165.8</ele>
        <time>2020-07-29T11:46:25Z</time>
      </trkpt>
      <trkpt lat="43.1642580" lon="-1.2347510">
        <ele>166.2</ele>
        <time>2020-07-29T11:46:26Z</time>
      </trkpt>
      <trkpt lat="43.1642500" lon="-1.2348550">
        <ele>166.6</ele>
        <time>2020-07-29T11:46:28Z</time>
      </trkpt>
      <trkpt lat="43.1642480" lon="-1.2349580">
        <ele>166.8</ele>
        <time>2020-07-29T11:46:30Z</time>
      </trkpt>
      <trkpt lat="43.1642450" lon="-1.2351610">
        <ele>167.4</ele>
        <time>2020-07-29T11:46:34Z</time>
      </trkpt>
      <trkpt lat="43.1642440" lon="-1.2353110">
        <ele>168.0</ele>
        <time>2020-07-29T11:46:37Z</time>
      </trkpt>
      <trkpt lat="43.1642360" lon="-1.2354640">
        <ele>168.6</ele>
        <time>2020-07-29T11:46:40Z</time>
      </trkpt>
      <trkpt lat="43.1641950" lon="-1.2357950">
        <ele>168.8</ele>
        <time>2020-07-29T11:46:46Z</time>
      </trkpt>
      <trkpt lat="43.1641560" lon="-1.2359620">
        <ele>169.0</ele>
        <time>2020-07-29T11:46:49Z</time>
      </trkpt>
      <trkpt lat="43.1641380" lon="-1.2360150">
        <ele>169.2</ele>
        <time>2020-07-29T11:46:50Z</time>
      </trkpt>
      <trkpt lat="43.1640650" lon="-1.2362210">
        <ele>169.4</ele>
        <time>2020-07-29T11:46:54Z</time>
      </trkpt>
      <trkpt lat="43.1640280" lon="-1.2363240">
        <ele>169.4</ele>
        <time>2020-07-29T11:46:56Z</time>
      </trkpt>
      <trkpt lat="43.1639910" lon="-1.2364270">
        <ele>169.2</ele>
        <time>2020-07-29T11:46:58Z</time>
      </trkpt>
      <trkpt lat="43.1638830" lon="-1.2366900">
        <ele>169.2</ele>
        <time>2020-07-29T11:47:04Z</time>
      </trkpt>
      <trkpt lat="43.1638640" lon="-1.2367250">
        <ele>169.2</ele>
        <time>2020-07-29T11:47:05Z</time>
      </trkpt>
      <trkpt lat="43.1638480" lon="-1.2367600">
        <ele>169.2</ele>
        <time>2020-07-29T11:47:06Z</time>
      </trkpt>
      <trkpt lat="43.1637440" lon="-1.2369510">
        <ele>168.8</ele>
        <time>2020-07-29T11:47:12Z</time>
      </trkpt>
      <trkpt lat="43.1636660" lon="-1.2370540">
        <ele>168.2</ele>
        <time>2020-07-29T11:47:15Z</time>
      </trkpt>
      <trkpt lat="43.1636400" lon="-1.2370880">
        <ele>168.0</ele>
        <time>2020-07-29T11:47:16Z</time>
      </trkpt>
      <trkpt lat="43.1635970" lon="-1.2371500">
        <ele>167.8</ele>
        <time>2020-07-29T11:47:18Z</time>
      </trkpt>
      <trkpt lat="43.1634370" lon="-1.2373700">
        <ele>167.4</ele>
        <time>2020-07-29T11:47:24Z</time>
      </trkpt>
      <trkpt lat="43.1633690" lon="-1.2374650">
        <ele>166.6</ele>
        <time>2020-07-29T11:47:26Z</time>
      </trkpt>
      <trkpt lat="43.1632470" lon="-1.2376130">
        <ele>165.4</ele>
        <time>2020-07-29T11:47:29Z</time>
      </trkpt>
      <trkpt lat="43.1632070" lon="-1.2376680">
        <ele>165.0</ele>
        <time>2020-07-29T11:47:30Z</time>
      </trkpt>
      <trkpt lat="43.1631160" lon="-1.2377840">
        <ele>164.2</ele>
        <time>2020-07-29T11:47:32Z</time>
      </trkpt>
      <trkpt lat="43.1629750" lon="-1.2379490">
        <ele>163.2</ele>
        <time>2020-07-29T11:47:35Z</time>
      </trkpt>
      <trkpt lat="43.1629230" lon="-1.2380020">
        <ele>163.0</ele>
        <time>2020-07-29T11:47:36Z</time>
      </trkpt>
      <trkpt lat="43.1627570" lon="-1.2381480">
        <ele>162.0</ele>
        <time>2020-07-29T11:47:39Z</time>
      </trkpt>
      <trkpt lat="43.1626000" lon="-1.2382710">
        <ele>161.8</ele>
        <time>2020-07-29T11:47:42Z</time>
      </trkpt>
      <trkpt lat="43.1623440" lon="-1.2384800">
        <ele>162.0</ele>
        <time>2020-07-29T11:47:48Z</time>
      </trkpt>
      <trkpt lat="43.1623100" lon="-1.2385070">
        <ele>162.2</ele>
        <time>2020-07-29T11:47:49Z</time>
      </trkpt>
      <trkpt lat="43.1621920" lon="-1.2386010">
        <ele>162.4</ele>
        <time>2020-07-29T11:47:54Z</time>
      </trkpt>
      <trkpt lat="43.1620640" lon="-1.2387390">
        <ele>162.0</ele>
        <time>2020-07-29T11:47:59Z</time>
      </trkpt>
      <trkpt lat="43.1620000" lon="-1.2389000">
        <ele>162.0</ele>
        <time>2020-07-29T11:48:03Z</time>
      </trkpt>
      <trkpt lat="43.1620320" lon="-1.2389860">
        <ele>162.4</ele>
        <time>2020-07-29T11:48:05Z</time>
      </trkpt>
      <trkpt lat="43.1620950" lon="-1.2390580">
        <ele>162.6</ele>
        <time>2020-07-29T11:48:07Z</time>
      </trkpt>
      <trkpt lat="43.1621680" lon="-1.2391270">
        <ele>162.6</ele>
        <time>2020-07-29T11:48:09Z</time>
      </trkpt>
      <trkpt lat="43.1623730" lon="-1.2392760">
        <ele>163.0</ele>
        <time>2020-07-29T11:48:14Z</time>
      </trkpt>
      <trkpt lat="43.1624130" lon="-1.2393040">
        <ele>163.0</ele>
        <time>2020-07-29T11:48:15Z</time>
      </trkpt>
      <trkpt lat="43.1624850" lon="-1.2393710">
        <ele>163.0</ele>
        <time>2020-07-29T11:48:17Z</time>
      </trkpt>
      <trkpt lat="43.1625450" lon="-1.2394470">
        <ele>163.0</ele>
        <time>2020-07-29T11:48:19Z</time>
      </trkpt>
      <trkpt lat="43.1627520" lon="-1.2397240">
        <ele>161.8</ele>
        <time>2020-07-29T11:48:25Z</time>
      </trkpt>
      <trkpt lat="43.1628860" lon="-1.2398930">
        <ele>161.0</ele>
        <time>2020-07-29T11:48:29Z</time>
      </trkpt>
      <trkpt lat="43.1629050" lon="-1.2399160">
        <ele>161.2</ele>
        <time>2020-07-29T11:48:30Z</time>
      </trkpt>
      <trkpt lat="43.1629970" lon="-1.2400230">
        <ele>161.4</ele>
        <time>2020-07-29T11:48:36Z</time>
      </trkpt>
      <trkpt lat="43.1631110" lon="-1.2401990">
        <ele>161.4</ele>
        <time>2020-07-29T11:48:41Z</time>
      </trkpt>
      <trkpt lat="43.1631690" lon="-1.2402780">
        <ele>161.0</ele>
        <time>2020-07-29T11:48:43Z</time>
      </trkpt>
      <trkpt lat="43.1632310" lon="-1.2403600">
        <ele>160.0</ele>
        <time>2020-07-29T11:48:45Z</time>
      </trkpt>
      <trkpt lat="43.1632610" lon="-1.2404110">
        <ele>159.6</ele>
        <time>2020-07-29T11:48:46Z</time>
      </trkpt>
      <trkpt lat="43.1632890" lon="-1.2404620">
        <ele>159.6</ele>
        <time>2020-07-29T11:48:47Z</time>
      </trkpt>
      <trkpt lat="43.1633490" lon="-1.2405750">
        <ele>159.2</ele>
        <time>2020-07-29T11:48:49Z</time>
      </trkpt>
      <trkpt lat="43.1634090" lon="-1.2407010">
        <ele>159.0</ele>
        <time>2020-07-29T11:48:51Z</time>
      </trkpt>
      <trkpt lat="43.1634430" lon="-1.2407640">
        <ele>159.0</ele>
        <time>2020-07-29T11:48:52Z</time>
      </trkpt>
      <trkpt lat="43.1635220" lon="-1.2408840">
        <ele>158.4</ele>
        <time>2020-07-29T11:48:54Z</time>
      </trkpt>
      <trkpt lat="43.1636060" lon="-1.2410030">
        <ele>157.8</ele>
        <time>2020-07-29T11:48:56Z</time>
      </trkpt>
      <trkpt lat="43.1636580" lon="-1.2410620">
        <ele>157.6</ele>
        <time>2020-07-29T11:48:57Z</time>
      </trkpt>
      <trkpt lat="43.1637900" lon="-1.2412400">
        <ele>156.8</ele>
        <time>2020-07-29T11:49:00Z</time>
      </trkpt>
      <trkpt lat="43.1638270" lon="-1.2413030">
        <ele>156.6</ele>
        <time>2020-07-29T11:49:01Z</time>
      </trkpt>
      <trkpt lat="43.1639130" lon="-1.2415190">
        <ele>156.4</ele>
        <time>2020-07-29T11:49:04Z</time>
      </trkpt>
      <trkpt lat="43.1639360" lon="-1.2415890">
        <ele>156.4</ele>
        <time>2020-07-29T11:49:05Z</time>
      </trkpt>
      <trkpt lat="43.1640080" lon="-1.2419090">
        <ele>157.2</ele>
        <time>2020-07-29T11:49:10Z</time>
      </trkpt>
      <trkpt lat="43.1640390" lon="-1.2420230">
        <ele>157.2</ele>
        <time>2020-07-29T11:49:12Z</time>
      </trkpt>
      <trkpt lat="43.1640810" lon="-1.2422000">
        <ele>157.2</ele>
        <time>2020-07-29T11:49:15Z</time>
      </trkpt>
      <trkpt lat="43.1641350" lon="-1.2423770">
        <ele>157.6</ele>
        <time>2020-07-29T11:49:18Z</time>
      </trkpt>
      <trkpt lat="43.1641600" lon="-1.2424980">
        <ele>157.6</ele>
        <time>2020-07-29T11:49:20Z</time>
      </trkpt>
      <trkpt lat="43.1642000" lon="-1.2426170">
        <ele>157.6</ele>
        <time>2020-07-29T11:49:22Z</time>
      </trkpt>
      <trkpt lat="43.1642600" lon="-1.2427230">
        <ele>157.6</ele>
        <time>2020-07-29T11:49:24Z</time>
      </trkpt>
      <trkpt lat="43.1642930" lon="-1.2427740">
        <ele>157.8</ele>
        <time>2020-07-29T11:49:25Z</time>
      </trkpt>
      <trkpt lat="43.1644810" lon="-1.2430400">
        <ele>158.4</ele>
        <time>2020-07-29T11:49:30Z</time>
      </trkpt>
      <trkpt lat="43.1645550" lon="-1.2431290">
        <ele>158.6</ele>
        <time>2020-07-29T11:49:32Z</time>
      </trkpt>
      <trkpt lat="43.1646430" lon="-1.2432470">
        <ele>159.0</ele>
        <time>2020-07-29T11:49:35Z</time>
      </trkpt>
      <trkpt lat="43.1647270" lon="-1.2433110">
        <ele>159.4</ele>
        <time>2020-07-29T11:49:39Z</time>
      </trkpt>
      <trkpt lat="43.1648180" lon="-1.2433920">
        <ele>159.6</ele>
        <time>2020-07-29T11:49:40Z</time>
      </trkpt>
      <trkpt lat="43.1649020" lon="-1.2434770">
        <ele>159.2</ele>
        <time>2020-07-29T11:51:35Z</time>
      </trkpt>
      <trkpt lat="43.1649860" lon="-1.2435620">
        <ele>159.2</ele>
        <time>2020-07-29T11:51:36Z</time>
      </trkpt>
      <trkpt lat="43.1651680" lon="-1.2438320">
        <ele>159.4</ele>
        <time>2020-07-29T11:51:42Z</time>
      </trkpt>
      <trkpt lat="43.1654320" lon="-1.2441310">
        <ele>158.0</ele>
        <time>2020-07-29T11:51:48Z</time>
      </trkpt>
      <trkpt lat="43.1654780" lon="-1.2441910">
        <ele>157.6</ele>
        <time>2020-07-29T11:51:49Z</time>
      </trkpt>
      <trkpt lat="43.1655260" lon="-1.2442520">
        <ele>157.0</ele>
        <time>2020-07-29T11:51:50Z</time>
      </trkpt>
      <trkpt lat="43.1655760" lon="-1.2443180">
        <ele>156.4</ele>
        <time>2020-07-29T11:51:51Z</time>
      </trkpt>
      <trkpt lat="43.1656830" lon="-1.2444610">
        <ele>155.8</ele>
        <time>2020-07-29T11:51:53Z</time>
      </trkpt>
      <trkpt lat="43.1657380" lon="-1.2445410">
        <ele>155.2</ele>
        <time>2020-07-29T11:51:54Z</time>
      </trkpt>
      <trkpt lat="43.1657960" lon="-1.2446210">
        <ele>154.8</ele>
        <time>2020-07-29T11:51:55Z</time>
      </trkpt>
      <trkpt lat="43.1659140" lon="-1.2447790">
        <ele>154.2</ele>
        <time>2020-07-29T11:51:57Z</time>
      </trkpt>
      <trkpt lat="43.1659880" lon="-1.2449510">
        <ele>154.0</ele>
        <time>2020-07-29T11:51:59Z</time>
      </trkpt>
      <trkpt lat="43.1660720" lon="-1.2450980">
        <ele>154.2</ele>
        <time>2020-07-29T11:52:01Z</time>
      </trkpt>
      <trkpt lat="43.1662100" lon="-1.2453900">
        <ele>154.6</ele>
        <time>2020-07-29T11:52:05Z</time>
      </trkpt>
      <trkpt lat="43.1662540" lon="-1.2454530">
        <ele>154.8</ele>
        <time>2020-07-29T11:52:06Z</time>
      </trkpt>
      <trkpt lat="43.1663400" lon="-1.2455760">
        <ele>154.8</ele>
        <time>2020-07-29T11:52:08Z</time>
      </trkpt>
      <trkpt lat="43.1665330" lon="-1.2458370">
        <ele>154.0</ele>
        <time>2020-07-29T11:52:13Z</time>
      </trkpt>
      <trkpt lat="43.1665660" lon="-1.2458960">
        <ele>154.0</ele>
        <time>2020-07-29T11:52:14Z</time>
      </trkpt>
      <trkpt lat="43.1666070" lon="-1.2459510">
        <ele>154.0</ele>
        <time>2020-07-29T11:52:15Z</time>
      </trkpt>
      <trkpt lat="43.1667300" lon="-1.2461180">
        <ele>154.4</ele>
        <time>2020-07-29T11:52:18Z</time>
      </trkpt>
      <trkpt lat="43.1667810" lon="-1.2462600">
        <ele>154.6</ele>
        <time>2020-07-29T11:52:20Z</time>
      </trkpt>
      <trkpt lat="43.1667900" lon="-1.2463360">
        <ele>154.8</ele>
        <time>2020-07-29T11:52:21Z</time>
      </trkpt>
      <trkpt lat="43.1668040" lon="-1.2466510">
        <ele>154.8</ele>
        <time>2020-07-29T11:52:25Z</time>
      </trkpt>
      <trkpt lat="43.1667970" lon="-1.2468900">
        <ele>155.0</ele>
        <time>2020-07-29T11:52:28Z</time>
      </trkpt>
      <trkpt lat="43.1667820" lon="-1.2470490">
        <ele>155.2</ele>
        <time>2020-07-29T11:52:30Z</time>
      </trkpt>
      <trkpt lat="43.1667680" lon="-1.2471270">
        <ele>155.4</ele>
        <time>2020-07-29T11:52:31Z</time>
      </trkpt>
      <trkpt lat="43.1667250" lon="-1.2472790">
        <ele>155.6</ele>
        <time>2020-07-29T11:52:33Z</time>
      </trkpt>
      <trkpt lat="43.1665530" lon="-1.2477250">
        <ele>156.0</ele>
        <time>2020-07-29T11:52:39Z</time>
      </trkpt>
      <trkpt lat="43.1664950" lon="-1.2478730">
        <ele>156.0</ele>
        <time>2020-07-29T11:52:41Z</time>
      </trkpt>
      <trkpt lat="43.1664350" lon="-1.2480180">
        <ele>156.4</ele>
        <time>2020-07-29T11:52:43Z</time>
      </trkpt>
      <trkpt lat="43.1663450" lon="-1.2482470">
        <ele>156.4</ele>
        <time>2020-07-29T11:52:46Z</time>
      </trkpt>
      <trkpt lat="43.1663130" lon="-1.2483270">
        <ele>156.4</ele>
        <time>2020-07-29T11:52:47Z</time>
      </trkpt>
      <trkpt lat="43.1662490" lon="-1.2484890">
        <ele>156.2</ele>
        <time>2020-07-29T11:52:49Z</time>
      </trkpt>
      <trkpt lat="43.1660670" lon="-1.2489640">
        <ele>155.8</ele>
        <time>2020-07-29T11:52:55Z</time>
      </trkpt>
      <trkpt lat="43.1659760" lon="-1.2491980">
        <ele>156.2</ele>
        <time>2020-07-29T11:52:58Z</time>
      </trkpt>
      <trkpt lat="43.1657930" lon="-1.2496320">
        <ele>156.8</ele>
        <time>2020-07-29T11:53:04Z</time>
      </trkpt>
      <trkpt lat="43.1657220" lon="-1.2497520">
        <ele>157.4</ele>
        <time>2020-07-29T11:53:06Z</time>
      </trkpt>
      <trkpt lat="43.1656410" lon="-1.2498550">
        <ele>157.8</ele>
        <time>2020-07-29T11:53:08Z</time>
      </trkpt>
      <trkpt lat="43.1655960" lon="-1.2498970">
        <ele>157.8</ele>
        <time>2020-07-29T11:53:09Z</time>
      </trkpt>
      <trkpt lat="43.1655470" lon="-1.2499320">
        <ele>158.0</ele>
        <time>2020-07-29T11:53:10Z</time>
      </trkpt>
      <trkpt lat="43.1653960" lon="-1.2500040">
        <ele>158.6</ele>
        <time>2020-07-29T11:53:13Z</time>
      </trkpt>
      <trkpt lat="43.1653460" lon="-1.2500220">
        <ele>158.8</ele>
        <time>2020-07-29T11:53:14Z</time>
      </trkpt>
      <trkpt lat="43.1651440" lon="-1.2500870">
        <ele>159.6</ele>
        <time>2020-07-29T11:53:18Z</time>
      </trkpt>
      <trkpt lat="43.1650450" lon="-1.2501410">
        <ele>159.8</ele>
        <time>2020-07-29T11:53:20Z</time>
      </trkpt>
      <trkpt lat="43.1650000" lon="-1.2501830">
        <ele>159.8</ele>
        <time>2020-07-29T11:53:21Z</time>
      </trkpt>
      <trkpt lat="43.1649590" lon="-1.2502340">
        <ele>159.8</ele>
        <time>2020-07-29T11:53:22Z</time>
      </trkpt>
      <trkpt lat="43.1648970" lon="-1.2503610">
        <ele>160.0</ele>
        <time>2020-07-29T11:53:24Z</time>
      </trkpt>
      <trkpt lat="43.1648800" lon="-1.2504350">
        <ele>160.0</ele>
        <time>2020-07-29T11:53:25Z</time>
      </trkpt>
      <trkpt lat="43.1648730" lon="-1.2505100">
        <ele>160.2</ele>
        <time>2020-07-29T11:53:26Z</time>
      </trkpt>
      <trkpt lat="43.1648880" lon="-1.2506470">
        <ele>160.8</ele>
        <time>2020-07-29T11:53:28Z</time>
      </trkpt>
      <trkpt lat="43.1649050" lon="-1.2507060">
        <ele>161.0</ele>
        <time>2020-07-29T11:53:29Z</time>
      </trkpt>
      <trkpt lat="43.1649470" lon="-1.2507950">
        <ele>161.8</ele>
        <time>2020-07-29T11:53:31Z</time>
      </trkpt>
      <trkpt lat="43.1649940" lon="-1.2508580">
        <ele>162.6</ele>
        <time>2020-07-29T11:53:33Z</time>
      </trkpt>
      <trkpt lat="43.1650190" lon="-1.2508790">
        <ele>163.0</ele>
        <time>2020-07-29T11:53:34Z</time>
      </trkpt>
      <trkpt lat="43.1650980" lon="-1.2509220">
        <ele>164.2</ele>
        <time>2020-07-29T11:53:37Z</time>
      </trkpt>
      <trkpt lat="43.1651500" lon="-1.2509410">
        <ele>164.8</ele>
        <time>2020-07-29T11:53:39Z</time>
      </trkpt>
      <trkpt lat="43.1651760" lon="-1.2509480">
        <ele>165.2</ele>
        <time>2020-07-29T11:53:40Z</time>
      </trkpt>
      <trkpt lat="43.1652560" lon="-1.2509700">
        <ele>166.2</ele>
        <time>2020-07-29T11:53:43Z</time>
      </trkpt>
      <trkpt lat="43.1652830" lon="-1.2509780">
        <ele>166.4</ele>
        <time>2020-07-29T11:53:44Z</time>
      </trkpt>
      <trkpt lat="43.1653660" lon="-1.2510030">
        <ele>166.8</ele>
        <time>2020-07-29T11:53:47Z</time>
      </trkpt>
      <trkpt lat="43.1653910" lon="-1.2510120">
        <ele>167.2</ele>
        <time>2020-07-29T11:53:48Z</time>
      </trkpt>
      <trkpt lat="43.1654160" lon="-1.2510200">
        <ele>167.4</ele>
        <time>2020-07-29T11:53:49Z</time>
      </trkpt>
      <trkpt lat="43.1654440" lon="-1.2510320">
        <ele>167.8</ele>
        <time>2020-07-29T11:53:50Z</time>
      </trkpt>
      <trkpt lat="43.1655300" lon="-1.2510630">
        <ele>168.6</ele>
        <time>2020-07-29T11:53:53Z</time>
      </trkpt>
      <trkpt lat="43.1655840" lon="-1.2510840">
        <ele>169.2</ele>
        <time>2020-07-29T11:53:55Z</time>
      </trkpt>
      <trkpt lat="43.1656400" lon="-1.2511050">
        <ele>169.8</ele>
        <time>2020-07-29T11:53:57Z</time>
      </trkpt>
      <trkpt lat="43.1656690" lon="-1.2511130">
        <ele>170.0</ele>
        <time>2020-07-29T11:53:58Z</time>
      </trkpt>
      <trkpt lat="43.1657260" lon="-1.2511320">
        <ele>170.4</ele>
        <time>2020-07-29T11:54:00Z</time>
      </trkpt>
      <trkpt lat="43.1657840" lon="-1.2511560">
        <ele>170.8</ele>
        <time>2020-07-29T11:54:02Z</time>
      </trkpt>
      <trkpt lat="43.1658140" lon="-1.2511660">
        <ele>171.0</ele>
        <time>2020-07-29T11:54:03Z</time>
      </trkpt>
      <trkpt lat="43.1659200" lon="-1.2512080">
        <ele>171.8</ele>
        <time>2020-07-29T11:54:07Z</time>
      </trkpt>
      <trkpt lat="43.1660120" lon="-1.2512430">
        <ele>172.6</ele>
        <time>2020-07-29T11:54:10Z</time>
      </trkpt>
      <trkpt lat="43.1660740" lon="-1.2512690">
        <ele>173.0</ele>
        <time>2020-07-29T11:54:12Z</time>
      </trkpt>
      <trkpt lat="43.1662550" lon="-1.2513420">
        <ele>174.0</ele>
        <time>2020-07-29T11:54:18Z</time>
      </trkpt>
      <trkpt lat="43.1662820" lon="-1.2513560">
        <ele>174.2</ele>
        <time>2020-07-29T11:54:19Z</time>
      </trkpt>
      <trkpt lat="43.1664260" lon="-1.2514330">
        <ele>175.2</ele>
        <time>2020-07-29T11:54:24Z</time>
      </trkpt>
      <trkpt lat="43.1664550" lon="-1.2514500">
        <ele>175.4</ele>
        <time>2020-07-29T11:54:25Z</time>
      </trkpt>
      <trkpt lat="43.1665750" lon="-1.2515140">
        <ele>176.6</ele>
        <time>2020-07-29T11:54:29Z</time>
      </trkpt>
      <trkpt lat="43.1666330" lon="-1.2515470">
        <ele>177.0</ele>
        <time>2020-07-29T11:54:31Z</time>
      </trkpt>
      <trkpt lat="43.1667490" lon="-1.2516120">
        <ele>177.8</ele>
        <time>2020-07-29T11:54:35Z</time>
      </trkpt>
      <trkpt lat="43.1668050" lon="-1.2516420">
        <ele>178.2</ele>
        <time>2020-07-29T11:54:37Z</time>
      </trkpt>
      <trkpt lat="43.1668320" lon="-1.2516560">
        <ele>178.6</ele>
        <time>2020-07-29T11:54:38Z</time>
      </trkpt>
      <trkpt lat="43.1668610" lon="-1.2516690">
        <ele>179.0</ele>
        <time>2020-07-29T11:54:39Z</time>
      </trkpt>
      <trkpt lat="43.1670090" lon="-1.2517320">
        <ele>180.2</ele>
        <time>2020-07-29T11:54:44Z</time>
      </trkpt>
      <trkpt lat="43.1670680" lon="-1.2517600">
        <ele>180.6</ele>
        <time>2020-07-29T11:54:46Z</time>
      </trkpt>
      <trkpt lat="43.1671530" lon="-1.2518020">
        <ele>181.2</ele>
        <time>2020-07-29T11:54:49Z</time>
      </trkpt>
      <trkpt lat="43.1673320" lon="-1.2518870">
        <ele>181.8</ele>
        <time>2020-07-29T11:54:55Z</time>
      </trkpt>
      <trkpt lat="43.1673630" lon="-1.2519060">
        <ele>182.0</ele>
        <time>2020-07-29T11:54:56Z</time>
      </trkpt>
      <trkpt lat="43.1674480" lon="-1.2519700">
        <ele>182.4</ele>
        <time>2020-07-29T11:54:59Z</time>
      </trkpt>
      <trkpt lat="43.1675440" lon="-1.2520760">
        <ele>183.4</ele>
        <time>2020-07-29T11:55:03Z</time>
      </trkpt>
      <trkpt lat="43.1675690" lon="-1.2521050">
        <ele>183.4</ele>
        <time>2020-07-29T11:55:04Z</time>
      </trkpt>
      <trkpt lat="43.1676650" lon="-1.2522390">
        <ele>184.6</ele>
        <time>2020-07-29T11:55:08Z</time>
      </trkpt>
      <trkpt lat="43.1677520" lon="-1.2524110">
        <ele>185.0</ele>
        <time>2020-07-29T11:55:12Z</time>
      </trkpt>
      <trkpt lat="43.1678640" lon="-1.2527380">
        <ele>184.8</ele>
        <time>2020-07-29T11:55:18Z</time>
      </trkpt>
      <trkpt lat="43.1678790" lon="-1.2528090">
        <ele>184.4</ele>
        <time>2020-07-29T11:55:19Z</time>
      </trkpt>
      <trkpt lat="43.1679470" lon="-1.2530650">
        <ele>183.2</ele>
        <time>2020-07-29T11:55:22Z</time>
      </trkpt>
      <trkpt lat="43.1679700" lon="-1.2531670">
        <ele>182.6</ele>
        <time>2020-07-29T11:55:23Z</time>
      </trkpt>
      <trkpt lat="43.1679960" lon="-1.2532810">
        <ele>181.8</ele>
        <time>2020-07-29T11:55:24Z</time>
      </trkpt>
      <trkpt lat="43.1680450" lon="-1.2535370">
        <ele>179.4</ele>
        <time>2020-07-29T11:55:26Z</time>
      </trkpt>
      <trkpt lat="43.1680790" lon="-1.2536760">
        <ele>177.6</ele>
        <time>2020-07-29T11:55:27Z</time>
      </trkpt>
      <trkpt lat="43.1681150" lon="-1.2538230">
        <ele>175.8</ele>
        <time>2020-07-29T11:55:28Z</time>
      </trkpt>
      <trkpt lat="43.1681460" lon="-1.2539810">
        <ele>174.6</ele>
        <time>2020-07-29T11:55:29Z</time>
      </trkpt>
      <trkpt lat="43.1681700" lon="-1.2541460">
        <ele>173.6</ele>
        <time>2020-07-29T11:55:30Z</time>
      </trkpt>
      <trkpt lat="43.1681830" lon="-1.2543130">
        <ele>172.6</ele>
        <time>2020-07-29T11:55:31Z</time>
      </trkpt>
      <trkpt lat="43.1681900" lon="-1.2544810">
        <ele>171.6</ele>
        <time>2020-07-29T11:55:32Z</time>
      </trkpt>
      <trkpt lat="43.1681920" lon="-1.2548130">
        <ele>169.8</ele>
        <time>2020-07-29T11:55:34Z</time>
      </trkpt>
      <trkpt lat="43.1681880" lon="-1.2551370">
        <ele>168.6</ele>
        <time>2020-07-29T11:55:36Z</time>
      </trkpt>
      <trkpt lat="43.1681870" lon="-1.2557610">
        <ele>167.8</ele>
        <time>2020-07-29T11:55:40Z</time>
      </trkpt>
      <trkpt lat="43.1681780" lon="-1.2561950">
        <ele>168.0</ele>
        <time>2020-07-29T11:55:43Z</time>
      </trkpt>
      <trkpt lat="43.1681550" lon="-1.2567410">
        <ele>168.8</ele>
        <time>2020-07-29T11:55:47Z</time>
      </trkpt>
      <trkpt lat="43.1681480" lon="-1.2571270">
        <ele>169.2</ele>
        <time>2020-07-29T11:55:50Z</time>
      </trkpt>
      <trkpt lat="43.1681470" lon="-1.2572480">
        <ele>169.6</ele>
        <time>2020-07-29T11:55:51Z</time>
      </trkpt>
      <trkpt lat="43.1681440" lon="-1.2575810">
        <ele>170.8</ele>
        <time>2020-07-29T11:55:54Z</time>
      </trkpt>
      <trkpt lat="43.1681410" lon="-1.2576830">
        <ele>171.2</ele>
        <time>2020-07-29T11:55:55Z</time>
      </trkpt>
      <trkpt lat="43.1681330" lon="-1.2579660">
        <ele>171.8</ele>
        <time>2020-07-29T11:55:58Z</time>
      </trkpt>
      <trkpt lat="43.1681270" lon="-1.2581390">
        <ele>173.0</ele>
        <time>2020-07-29T11:56:00Z</time>
      </trkpt>
      <trkpt lat="43.1681230" lon="-1.2582210">
        <ele>173.4</ele>
        <time>2020-07-29T11:56:01Z</time>
      </trkpt>
      <trkpt lat="43.1681110" lon="-1.2584510">
        <ele>174.2</ele>
        <time>2020-07-29T11:56:04Z</time>
      </trkpt>
      <trkpt lat="43.1681040" lon="-1.2585230">
        <ele>174.4</ele>
        <time>2020-07-29T11:56:05Z</time>
      </trkpt>
      <trkpt lat="43.1680940" lon="-1.2585930">
        <ele>174.6</ele>
        <time>2020-07-29T11:56:06Z</time>
      </trkpt>
      <trkpt lat="43.1680760" lon="-1.2587260">
        <ele>175.0</ele>
        <time>2020-07-29T11:56:08Z</time>
      </trkpt>
      <trkpt lat="43.1680720" lon="-1.2587900">
        <ele>175.2</ele>
        <time>2020-07-29T11:56:09Z</time>
      </trkpt>
      <trkpt lat="43.1680710" lon="-1.2588540">
        <ele>175.4</ele>
        <time>2020-07-29T11:56:10Z</time>
      </trkpt>
      <trkpt lat="43.1680570" lon="-1.2590910">
        <ele>176.6</ele>
        <time>2020-07-29T11:56:14Z</time>
      </trkpt>
      <trkpt lat="43.1680380" lon="-1.2593670">
        <ele>177.6</ele>
        <time>2020-07-29T11:56:19Z</time>
      </trkpt>
      <trkpt lat="43.1680270" lon="-1.2595340">
        <ele>178.6</ele>
        <time>2020-07-29T11:56:22Z</time>
      </trkpt>
      <trkpt lat="43.1680240" lon="-1.2595890">
        <ele>178.8</ele>
        <time>2020-07-29T11:56:23Z</time>
      </trkpt>
      <trkpt lat="43.1680310" lon="-1.2599230">
        <ele>180.0</ele>
        <time>2020-07-29T11:56:29Z</time>
      </trkpt>
      <trkpt lat="43.1680410" lon="-1.2600340">
        <ele>180.2</ele>
        <time>2020-07-29T11:56:31Z</time>
      </trkpt>
      <trkpt lat="43.1680650" lon="-1.2602040">
        <ele>180.6</ele>
        <time>2020-07-29T11:56:34Z</time>
      </trkpt>
      <trkpt lat="43.1680850" lon="-1.2603180">
        <ele>181.2</ele>
        <time>2020-07-29T11:56:36Z</time>
      </trkpt>
      <trkpt lat="43.1681290" lon="-1.2605330">
        <ele>182.2</ele>
        <time>2020-07-29T11:56:40Z</time>
      </trkpt>
      <trkpt lat="43.1681640" lon="-1.2606930">
        <ele>183.0</ele>
        <time>2020-07-29T11:56:43Z</time>
      </trkpt>
      <trkpt lat="43.1681760" lon="-1.2607460">
        <ele>183.4</ele>
        <time>2020-07-29T11:56:44Z</time>
      </trkpt>
      <trkpt lat="43.1682260" lon="-1.2609720">
        <ele>184.2</ele>
        <time>2020-07-29T11:56:49Z</time>
      </trkpt>
      <trkpt lat="43.1682290" lon="-1.2609840">
        <ele>184.4</ele>
        <time>2020-07-29T11:56:50Z</time>
      </trkpt>
      <trkpt lat="43.1682260" lon="-1.2609850">
        <ele>185.0</ele>
        <time>2020-07-29T11:56:53Z</time>
      </trkpt>
      <trkpt lat="43.1682260" lon="-1.2610140">
        <ele>185.0</ele>
        <time>2020-07-29T11:56:57Z</time>
      </trkpt>
      <trkpt lat="43.1682360" lon="-1.2610760">
        <ele>185.2</ele>
        <time>2020-07-29T11:57:00Z</time>
      </trkpt>
      <trkpt lat="43.1682600" lon="-1.2612180">
        <ele>185.6</ele>
        <time>2020-07-29T11:57:03Z</time>
      </trkpt>
      <trkpt lat="43.1682770" lon="-1.2612760">
        <ele>185.8</ele>
        <time>2020-07-29T11:57:04Z</time>
      </trkpt>
      <trkpt lat="43.1683550" lon="-1.2616580">
        <ele>186.6</ele>
        <time>2020-07-29T11:57:10Z</time>
      </trkpt>
      <trkpt lat="43.1683690" lon="-1.2617210">
        <ele>186.8</ele>
        <time>2020-07-29T11:57:11Z</time>
      </trkpt>
      <trkpt lat="43.1684570" lon="-1.2620730">
        <ele>188.0</ele>
        <time>2020-07-29T11:57:17Z</time>
      </trkpt>
      <trkpt lat="43.1684910" lon="-1.2621980">
        <ele>188.0</ele>
        <time>2020-07-29T11:57:19Z</time>
      </trkpt>
      <trkpt lat="43.1685890" lon="-1.2624860">
        <ele>187.4</ele>
        <time>2020-07-29T11:57:23Z</time>
      </trkpt>
      <trkpt lat="43.1686240" lon="-1.2625640">
        <ele>187.0</ele>
        <time>2020-07-29T11:57:24Z</time>
      </trkpt>
      <trkpt lat="43.1686630" lon="-1.2626400">
        <ele>186.6</ele>
        <time>2020-07-29T11:57:25Z</time>
      </trkpt>
      <trkpt lat="43.1689390" lon="-1.2630830">
        <ele>185.6</ele>
        <time>2020-07-29T11:57:31Z</time>
      </trkpt>
      <trkpt lat="43.1691250" lon="-1.2633850">
        <ele>185.4</ele>
        <time>2020-07-29T11:57:35Z</time>
      </trkpt>
      <trkpt lat="43.1693570" lon="-1.2637690">
        <ele>185.2</ele>
        <time>2020-07-29T11:57:40Z</time>
      </trkpt>
      <trkpt lat="43.1694040" lon="-1.2638460">
        <ele>185.0</ele>
        <time>2020-07-29T11:57:41Z</time>
      </trkpt>
      <trkpt lat="43.1695820" lon="-1.2641640">
        <ele>184.6</ele>
        <time>2020-07-29T11:57:45Z</time>
      </trkpt>
      <trkpt lat="43.1696720" lon="-1.2643220">
        <ele>184.4</ele>
        <time>2020-07-29T11:57:47Z</time>
      </trkpt>
      <trkpt lat="43.1697650" lon="-1.2644840">
        <ele>184.4</ele>
        <time>2020-07-29T11:57:49Z</time>
      </trkpt>
      <trkpt lat="43.1699670" lon="-1.2649490">
        <ele>183.2</ele>
        <time>2020-07-29T11:57:54Z</time>
      </trkpt>
      <trkpt lat="43.1700060" lon="-1.2650570">
        <ele>183.0</ele>
        <time>2020-07-29T11:57:55Z</time>
      </trkpt>
      <trkpt lat="43.1700400" lon="-1.2651750">
        <ele>182.2</ele>
        <time>2020-07-29T11:57:56Z</time>
      </trkpt>
      <trkpt lat="43.1700670" lon="-1.2653030">
        <ele>181.2</ele>
        <time>2020-07-29T11:57:57Z</time>
      </trkpt>
      <trkpt lat="43.1700860" lon="-1.2654360">
        <ele>180.0</ele>
        <time>2020-07-29T11:57:58Z</time>
      </trkpt>
      <trkpt lat="43.1701020" lon="-1.2655720">
        <ele>179.0</ele>
        <time>2020-07-29T11:57:59Z</time>
      </trkpt>
      <trkpt lat="43.1701230" lon="-1.2658570">
        <ele>177.4</ele>
        <time>2020-07-29T11:58:01Z</time>
      </trkpt>
      <trkpt lat="43.1701480" lon="-1.2661480">
        <ele>176.4</ele>
        <time>2020-07-29T11:58:03Z</time>
      </trkpt>
      <trkpt lat="43.1701650" lon="-1.2662930">
        <ele>175.6</ele>
        <time>2020-07-29T11:58:04Z</time>
      </trkpt>
      <trkpt lat="43.1701840" lon="-1.2664370">
        <ele>174.8</ele>
        <time>2020-07-29T11:58:05Z</time>
      </trkpt>
      <trkpt lat="43.1702110" lon="-1.2665790">
        <ele>174.4</ele>
        <time>2020-07-29T11:58:06Z</time>
      </trkpt>
      <trkpt lat="43.1702960" lon="-1.2668450">
        <ele>173.8</ele>
        <time>2020-07-29T11:58:08Z</time>
      </trkpt>
      <trkpt lat="43.1704170" lon="-1.2670710">
        <ele>173.6</ele>
        <time>2020-07-29T11:58:10Z</time>
      </trkpt>
      <trkpt lat="43.1704860" lon="-1.2671690">
        <ele>173.6</ele>
        <time>2020-07-29T11:58:11Z</time>
      </trkpt>
      <trkpt lat="43.1707100" lon="-1.2673920">
        <ele>174.0</ele>
        <time>2020-07-29T11:58:14Z</time>
      </trkpt>
      <trkpt lat="43.1707870" lon="-1.2674510">
        <ele>174.2</ele>
        <time>2020-07-29T11:58:15Z</time>
      </trkpt>
      <trkpt lat="43.1709490" lon="-1.2675450">
        <ele>174.8</ele>
        <time>2020-07-29T11:58:17Z</time>
      </trkpt>
      <trkpt lat="43.1710200" lon="-1.2675920">
        <ele>175.0</ele>
        <time>2020-07-29T11:58:18Z</time>
      </trkpt>
      <trkpt lat="43.1711700" lon="-1.2676670">
        <ele>175.2</ele>
        <time>2020-07-29T11:58:20Z</time>
      </trkpt>
      <trkpt lat="43.1713750" lon="-1.2677770">
        <ele>175.6</ele>
        <time>2020-07-29T11:58:23Z</time>
      </trkpt>
      <trkpt lat="43.1714410" lon="-1.2678140">
        <ele>175.8</ele>
        <time>2020-07-29T11:58:24Z</time>
      </trkpt>
      <trkpt lat="43.1715770" lon="-1.2678820">
        <ele>176.2</ele>
        <time>2020-07-29T11:58:26Z</time>
      </trkpt>
      <trkpt lat="43.1719530" lon="-1.2680950">
        <ele>176.2</ele>
        <time>2020-07-29T11:58:32Z</time>
      </trkpt>
      <trkpt lat="43.1720080" lon="-1.2681260">
        <ele>176.2</ele>
        <time>2020-07-29T11:58:33Z</time>
      </trkpt>
      <trkpt lat="43.1723940" lon="-1.2683410">
        <ele>176.2</ele>
        <time>2020-07-29T11:58:39Z</time>
      </trkpt>
      <trkpt lat="43.1727690" lon="-1.2686340">
        <ele>176.0</ele>
        <time>2020-07-29T11:58:45Z</time>
      </trkpt>
      <trkpt lat="43.1728740" lon="-1.2687650">
        <ele>176.2</ele>
        <time>2020-07-29T11:58:47Z</time>
      </trkpt>
      <trkpt lat="43.1729620" lon="-1.2689220">
        <ele>176.2</ele>
        <time>2020-07-29T11:58:49Z</time>
      </trkpt>
      <trkpt lat="43.1731000" lon="-1.2693960">
        <ele>175.6</ele>
        <time>2020-07-29T11:58:54Z</time>
      </trkpt>
      <trkpt lat="43.1731250" lon="-1.2697260">
        <ele>174.8</ele>
        <time>2020-07-29T11:58:57Z</time>
      </trkpt>
      <trkpt lat="43.1731200" lon="-1.2699610">
        <ele>174.4</ele>
        <time>2020-07-29T11:58:59Z</time>
      </trkpt>
      <trkpt lat="43.1731010" lon="-1.2703260">
        <ele>173.2</ele>
        <time>2020-07-29T11:59:02Z</time>
      </trkpt>
      <trkpt lat="43.1730900" lon="-1.2705800">
        <ele>172.2</ele>
        <time>2020-07-29T11:59:04Z</time>
      </trkpt>
      <trkpt lat="43.1730830" lon="-1.2708380">
        <ele>171.8</ele>
        <time>2020-07-29T11:59:06Z</time>
      </trkpt>
      <trkpt lat="43.1730680" lon="-1.2712270">
        <ele>170.8</ele>
        <time>2020-07-29T11:59:09Z</time>
      </trkpt>
      <trkpt lat="43.1730560" lon="-1.2716190">
        <ele>170.0</ele>
        <time>2020-07-29T11:59:12Z</time>
      </trkpt>
      <trkpt lat="43.1730520" lon="-1.2717470">
        <ele>169.8</ele>
        <time>2020-07-29T11:59:13Z</time>
      </trkpt>
      <trkpt lat="43.1730450" lon="-1.2720050">
        <ele>169.6</ele>
        <time>2020-07-29T11:59:15Z</time>
      </trkpt>
      <trkpt lat="43.1730310" lon="-1.2725140">
        <ele>169.6</ele>
        <time>2020-07-29T11:59:19Z</time>
      </trkpt>
      <trkpt lat="43.1730140" lon="-1.2731170">
        <ele>169.6</ele>
        <time>2020-07-29T11:59:24Z</time>
      </trkpt>
      <trkpt lat="43.1730110" lon="-1.2732310">
        <ele>169.8</ele>
        <time>2020-07-29T11:59:25Z</time>
      </trkpt>
      <trkpt lat="43.1729960" lon="-1.2738830">
        <ele>171.0</ele>
        <time>2020-07-29T11:59:31Z</time>
      </trkpt>
      <trkpt lat="43.1729930" lon="-1.2739870">
        <ele>171.2</ele>
        <time>2020-07-29T11:59:32Z</time>
      </trkpt>
      <trkpt lat="43.1729790" lon="-1.2744870">
        <ele>172.0</ele>
        <time>2020-07-29T11:59:37Z</time>
      </trkpt>
      <trkpt lat="43.1729650" lon="-1.2749710">
        <ele>172.4</ele>
        <time>2020-07-29T11:59:42Z</time>
      </trkpt>
      <trkpt lat="43.1729630" lon="-1.2750660">
        <ele>172.4</ele>
        <time>2020-07-29T11:59:43Z</time>
      </trkpt>
      <trkpt lat="43.1729530" lon="-1.2754400">
        <ele>173.2</ele>
        <time>2020-07-29T11:59:47Z</time>
      </trkpt>
      <trkpt lat="43.1729380" lon="-1.2760010">
        <ele>173.4</ele>
        <time>2020-07-29T11:59:53Z</time>
      </trkpt>
      <trkpt lat="43.1729360" lon="-1.2760960">
        <ele>173.6</ele>
        <time>2020-07-29T11:59:54Z</time>
      </trkpt>
      <trkpt lat="43.1729220" lon="-1.2764740">
        <ele>174.0</ele>
        <time>2020-07-29T11:59:58Z</time>
      </trkpt>
      <trkpt lat="43.1729190" lon="-1.2765680">
        <ele>174.2</ele>
        <time>2020-07-29T11:59:59Z</time>
      </trkpt>
      <trkpt lat="43.1729080" lon="-1.2769430">
        <ele>174.6</ele>
        <time>2020-07-29T12:00:03Z</time>
      </trkpt>
      <trkpt lat="43.1728920" lon="-1.2775020">
        <ele>174.8</ele>
        <time>2020-07-29T12:00:09Z</time>
      </trkpt>
      <trkpt lat="43.1729040" lon="-1.2776880">
        <ele>174.8</ele>
        <time>2020-07-29T12:00:11Z</time>
      </trkpt>
      <trkpt lat="43.1729410" lon="-1.2778730">
        <ele>174.8</ele>
        <time>2020-07-29T12:00:13Z</time>
      </trkpt>
      <trkpt lat="43.1730040" lon="-1.2780490">
        <ele>174.6</ele>
        <time>2020-07-29T12:00:15Z</time>
      </trkpt>
      <trkpt lat="43.1730920" lon="-1.2782110">
        <ele>174.4</ele>
        <time>2020-07-29T12:00:17Z</time>
      </trkpt>
      <trkpt lat="43.1731440" lon="-1.2782830">
        <ele>174.2</ele>
        <time>2020-07-29T12:00:18Z</time>
      </trkpt>
      <trkpt lat="43.1732040" lon="-1.2783460">
        <ele>174.2</ele>
        <time>2020-07-29T12:00:19Z</time>
      </trkpt>
      <trkpt lat="43.1733380" lon="-1.2784400">
        <ele>174.0</ele>
        <time>2020-07-29T12:00:21Z</time>
      </trkpt>
      <trkpt lat="43.1734800" lon="-1.2784950">
        <ele>174.0</ele>
        <time>2020-07-29T12:00:23Z</time>
      </trkpt>
      <trkpt lat="43.1738130" lon="-1.2786220">
        <ele>174.4</ele>
        <time>2020-07-29T12:00:28Z</time>
      </trkpt>
      <trkpt lat="43.1738720" lon="-1.2786590">
        <ele>174.6</ele>
        <time>2020-07-29T12:00:29Z</time>
      </trkpt>
      <trkpt lat="43.1739850" lon="-1.2787470">
        <ele>175.2</ele>
        <time>2020-07-29T12:00:31Z</time>
      </trkpt>
      <trkpt lat="43.1740370" lon="-1.2787980">
        <ele>175.4</ele>
        <time>2020-07-29T12:00:32Z</time>
      </trkpt>
      <trkpt lat="43.1741330" lon="-1.2789170">
        <ele>175.6</ele>
        <time>2020-07-29T12:00:34Z</time>
      </trkpt>
      <trkpt lat="43.1742160" lon="-1.2790550">
        <ele>175.8</ele>
        <time>2020-07-29T12:00:36Z</time>
      </trkpt>
      <trkpt lat="43.1743160" lon="-1.2792920">
        <ele>176.0</ele>
        <time>2020-07-29T12:00:39Z</time>
      </trkpt>
      <trkpt lat="43.1743390" lon="-1.2793800">
        <ele>176.2</ele>
        <time>2020-07-29T12:00:40Z</time>
      </trkpt>
      <trkpt lat="43.1744180" lon="-1.2798390">
        <ele>176.4</ele>
        <time>2020-07-29T12:00:45Z</time>
      </trkpt>
      <trkpt lat="43.1744540" lon="-1.2801230">
        <ele>176.4</ele>
        <time>2020-07-29T12:00:48Z</time>
      </trkpt>
      <trkpt lat="43.1745160" lon="-1.2807060">
        <ele>177.0</ele>
        <time>2020-07-29T12:00:54Z</time>
      </trkpt>
      <trkpt lat="43.1745270" lon="-1.2808050">
        <ele>177.0</ele>
        <time>2020-07-29T12:00:55Z</time>
      </trkpt>
      <trkpt lat="43.1745690" lon="-1.2812070">
        <ele>177.2</ele>
        <time>2020-07-29T12:00:59Z</time>
      </trkpt>
      <trkpt lat="43.1745890" lon="-1.2814060">
        <ele>177.4</ele>
        <time>2020-07-29T12:01:01Z</time>
      </trkpt>
      <trkpt lat="43.1746080" lon="-1.2816060">
        <ele>177.6</ele>
        <time>2020-07-29T12:01:03Z</time>
      </trkpt>
      <trkpt lat="43.1746280" lon="-1.2818040">
        <ele>177.6</ele>
        <time>2020-07-29T12:01:05Z</time>
      </trkpt>
      <trkpt lat="43.1746590" lon="-1.2821020">
        <ele>177.8</ele>
        <time>2020-07-29T12:01:08Z</time>
      </trkpt>
      <trkpt lat="43.1746890" lon="-1.2824040">
        <ele>178.2</ele>
        <time>2020-07-29T12:01:11Z</time>
      </trkpt>
      <trkpt lat="43.1747420" lon="-1.2829150">
        <ele>178.8</ele>
        <time>2020-07-29T12:01:16Z</time>
      </trkpt>
      <trkpt lat="43.1747860" lon="-1.2833260">
        <ele>178.8</ele>
        <time>2020-07-29T12:01:20Z</time>
      </trkpt>
      <trkpt lat="43.1748400" lon="-1.2838340">
        <ele>179.2</ele>
        <time>2020-07-29T12:01:25Z</time>
      </trkpt>
      <trkpt lat="43.1748510" lon="-1.2839350">
        <ele>179.2</ele>
        <time>2020-07-29T12:01:26Z</time>
      </trkpt>
      <trkpt lat="43.1749050" lon="-1.2844390">
        <ele>179.2</ele>
        <time>2020-07-29T12:01:31Z</time>
      </trkpt>
      <trkpt lat="43.1749260" lon="-1.2846370">
        <ele>179.6</ele>
        <time>2020-07-29T12:01:33Z</time>
      </trkpt>
      <trkpt lat="43.1749880" lon="-1.2852240">
        <ele>180.2</ele>
        <time>2020-07-29T12:01:39Z</time>
      </trkpt>
      <trkpt lat="43.1749960" lon="-1.2853180">
        <ele>180.4</ele>
        <time>2020-07-29T12:01:40Z</time>
      </trkpt>
      <trkpt lat="43.1750170" lon="-1.2855040">
        <ele>180.6</ele>
        <time>2020-07-29T12:01:42Z</time>
      </trkpt>
      <trkpt lat="43.1750270" lon="-1.2855970">
        <ele>181.0</ele>
        <time>2020-07-29T12:01:43Z</time>
      </trkpt>
      <trkpt lat="43.1750460" lon="-1.2857840">
        <ele>181.4</ele>
        <time>2020-07-29T12:01:45Z</time>
      </trkpt>
      <trkpt lat="43.1750540" lon="-1.2858780">
        <ele>181.6</ele>
        <time>2020-07-29T12:01:46Z</time>
      </trkpt>
      <trkpt lat="43.1751100" lon="-1.2864310">
        <ele>181.8</ele>
        <time>2020-07-29T12:01:52Z</time>
      </trkpt>
      <trkpt lat="43.1751560" lon="-1.2868870">
        <ele>182.6</ele>
        <time>2020-07-29T12:01:57Z</time>
      </trkpt>
      <trkpt lat="43.1752140" lon="-1.2874440">
        <ele>183.4</ele>
        <time>2020-07-29T12:02:03Z</time>
      </trkpt>
      <trkpt lat="43.1752520" lon="-1.2878240">
        <ele>183.8</ele>
        <time>2020-07-29T12:02:07Z</time>
      </trkpt>
      <trkpt lat="43.1752910" lon="-1.2882120">
        <ele>184.0</ele>
        <time>2020-07-29T12:02:11Z</time>
      </trkpt>
      <trkpt lat="43.1753520" lon="-1.2888010">
        <ele>184.2</ele>
        <time>2020-07-29T12:02:17Z</time>
      </trkpt>
      <trkpt lat="43.1753850" lon="-1.2891010">
        <ele>184.4</ele>
        <time>2020-07-29T12:02:20Z</time>
      </trkpt>
      <trkpt lat="43.1754490" lon="-1.2897190">
        <ele>184.8</ele>
        <time>2020-07-29T12:02:26Z</time>
      </trkpt>
      <trkpt lat="43.1755020" lon="-1.2902330">
        <ele>185.4</ele>
        <time>2020-07-29T12:02:31Z</time>
      </trkpt>
      <trkpt lat="43.1755650" lon="-1.2908300">
        <ele>185.4</ele>
        <time>2020-07-29T12:02:37Z</time>
      </trkpt>
      <trkpt lat="43.1756150" lon="-1.2913110">
        <ele>185.8</ele>
        <time>2020-07-29T12:02:42Z</time>
      </trkpt>
      <trkpt lat="43.1756240" lon="-1.2914040">
        <ele>186.0</ele>
        <time>2020-07-29T12:02:43Z</time>
      </trkpt>
      <trkpt lat="43.1756610" lon="-1.2917740">
        <ele>186.6</ele>
        <time>2020-07-29T12:02:47Z</time>
      </trkpt>
      <trkpt lat="43.1756800" lon="-1.2919570">
        <ele>186.8</ele>
        <time>2020-07-29T12:02:49Z</time>
      </trkpt>
      <trkpt lat="43.1757330" lon="-1.2925100">
        <ele>187.8</ele>
        <time>2020-07-29T12:02:55Z</time>
      </trkpt>
      <trkpt lat="43.1757730" lon="-1.2928770">
        <ele>188.0</ele>
        <time>2020-07-29T12:02:59Z</time>
      </trkpt>
      <trkpt lat="43.1758310" lon="-1.2934310">
        <ele>188.6</ele>
        <time>2020-07-29T12:03:05Z</time>
      </trkpt>
      <trkpt lat="43.1758390" lon="-1.2935240">
        <ele>188.8</ele>
        <time>2020-07-29T12:03:06Z</time>
      </trkpt>
      <trkpt lat="43.1758600" lon="-1.2937100">
        <ele>189.0</ele>
        <time>2020-07-29T12:03:08Z</time>
      </trkpt>
      <trkpt lat="43.1759200" lon="-1.2942570">
        <ele>189.2</ele>
        <time>2020-07-29T12:03:14Z</time>
      </trkpt>
      <trkpt lat="43.1759290" lon="-1.2943500">
        <ele>189.4</ele>
        <time>2020-07-29T12:03:15Z</time>
      </trkpt>
      <trkpt lat="43.1759550" lon="-1.2946220">
        <ele>190.0</ele>
        <time>2020-07-29T12:03:18Z</time>
      </trkpt>
      <trkpt lat="43.1760070" lon="-1.2951300">
        <ele>190.6</ele>
        <time>2020-07-29T12:03:24Z</time>
      </trkpt>
      <trkpt lat="43.1760250" lon="-1.2952850">
        <ele>191.2</ele>
        <time>2020-07-29T12:03:26Z</time>
      </trkpt>
      <trkpt lat="43.1760530" lon="-1.2955720">
        <ele>192.4</ele>
        <time>2020-07-29T12:03:30Z</time>
      </trkpt>
      <trkpt lat="43.1760600" lon="-1.2956420">
        <ele>192.8</ele>
        <time>2020-07-29T12:03:31Z</time>
      </trkpt>
      <trkpt lat="43.1760660" lon="-1.2957110">
        <ele>193.0</ele>
        <time>2020-07-29T12:03:32Z</time>
      </trkpt>
      <trkpt lat="43.1760730" lon="-1.2957800">
        <ele>193.2</ele>
        <time>2020-07-29T12:03:33Z</time>
      </trkpt>
      <trkpt lat="43.1760900" lon="-1.2959210">
        <ele>193.4</ele>
        <time>2020-07-29T12:03:35Z</time>
      </trkpt>
      <trkpt lat="43.1761200" lon="-1.2962000">
        <ele>193.8</ele>
        <time>2020-07-29T12:03:39Z</time>
      </trkpt>
      <trkpt lat="43.1761520" lon="-1.2964740">
        <ele>194.6</ele>
        <time>2020-07-29T12:03:43Z</time>
      </trkpt>
      <trkpt lat="43.1762140" lon="-1.2967450">
        <ele>195.6</ele>
        <time>2020-07-29T12:03:47Z</time>
      </trkpt>
      <trkpt lat="43.1762540" lon="-1.2968730">
        <ele>195.8</ele>
        <time>2020-07-29T12:03:49Z</time>
      </trkpt>
      <trkpt lat="43.1763690" lon="-1.2971820">
        <ele>196.6</ele>
        <time>2020-07-29T12:03:54Z</time>
      </trkpt>
      <trkpt lat="43.1763910" lon="-1.2972430">
        <ele>196.8</ele>
        <time>2020-07-29T12:03:55Z</time>
      </trkpt>
      <trkpt lat="43.1764730" lon="-1.2974920">
        <ele>198.0</ele>
        <time>2020-07-29T12:03:59Z</time>
      </trkpt>
      <trkpt lat="43.1765530" lon="-1.2978090">
        <ele>198.8</ele>
        <time>2020-07-29T12:04:04Z</time>
      </trkpt>
      <trkpt lat="43.1765760" lon="-1.2979380">
        <ele>199.2</ele>
        <time>2020-07-29T12:04:06Z</time>
      </trkpt>
      <trkpt lat="43.1766070" lon="-1.2983090">
        <ele>200.2</ele>
        <time>2020-07-29T12:04:12Z</time>
      </trkpt>
      <trkpt lat="43.1765980" lon="-1.2985410">
        <ele>201.4</ele>
        <time>2020-07-29T12:04:16Z</time>
      </trkpt>
      <trkpt lat="43.1765700" lon="-1.2987710">
        <ele>202.2</ele>
        <time>2020-07-29T12:04:20Z</time>
      </trkpt>
      <trkpt lat="43.1765550" lon="-1.2988890">
        <ele>202.4</ele>
        <time>2020-07-29T12:04:22Z</time>
      </trkpt>
      <trkpt lat="43.1765120" lon="-1.2992470">
        <ele>203.4</ele>
        <time>2020-07-29T12:04:28Z</time>
      </trkpt>
      <trkpt lat="43.1765050" lon="-1.2993050">
        <ele>203.6</ele>
        <time>2020-07-29T12:04:29Z</time>
      </trkpt>
      <trkpt lat="43.1764900" lon="-1.2994230">
        <ele>203.8</ele>
        <time>2020-07-29T12:04:31Z</time>
      </trkpt>
      <trkpt lat="43.1764400" lon="-1.2997820">
        <ele>204.6</ele>
        <time>2020-07-29T12:04:37Z</time>
      </trkpt>
      <trkpt lat="43.1764200" lon="-1.2999630">
        <ele>205.4</ele>
        <time>2020-07-29T12:04:40Z</time>
      </trkpt>
      <trkpt lat="43.1763990" lon="-1.3001440">
        <ele>205.6</ele>
        <time>2020-07-29T12:04:43Z</time>
      </trkpt>
      <trkpt lat="43.1763620" lon="-1.3005120">
        <ele>206.0</ele>
        <time>2020-07-29T12:04:49Z</time>
      </trkpt>
      <trkpt lat="43.1763560" lon="-1.3006360">
        <ele>206.4</ele>
        <time>2020-07-29T12:04:51Z</time>
      </trkpt>
      <trkpt lat="43.1763560" lon="-1.3006980">
        <ele>206.8</ele>
        <time>2020-07-29T12:04:52Z</time>
      </trkpt>
      <trkpt lat="43.1763580" lon="-1.3007600">
        <ele>207.0</ele>
        <time>2020-07-29T12:04:53Z</time>
      </trkpt>
      <trkpt lat="43.1764010" lon="-1.3010020">
        <ele>207.8</ele>
        <time>2020-07-29T12:04:57Z</time>
      </trkpt>
      <trkpt lat="43.1764370" lon="-1.3011160">
        <ele>208.4</ele>
        <time>2020-07-29T12:04:59Z</time>
      </trkpt>
      <trkpt lat="43.1764880" lon="-1.3012200">
        <ele>209.0</ele>
        <time>2020-07-29T12:05:01Z</time>
      </trkpt>
      <trkpt lat="43.1765200" lon="-1.3012660">
        <ele>209.2</ele>
        <time>2020-07-29T12:05:02Z</time>
      </trkpt>
      <trkpt lat="43.1765890" lon="-1.3013460">
        <ele>209.8</ele>
        <time>2020-07-29T12:05:04Z</time>
      </trkpt>
      <trkpt lat="43.1766680" lon="-1.3014080">
        <ele>210.2</ele>
        <time>2020-07-29T12:05:06Z</time>
      </trkpt>
      <trkpt lat="43.1767110" lon="-1.3014320">
        <ele>210.4</ele>
        <time>2020-07-29T12:05:07Z</time>
      </trkpt>
      <trkpt lat="43.1768410" lon="-1.3014680">
        <ele>211.4</ele>
        <time>2020-07-29T12:05:10Z</time>
      </trkpt>
      <trkpt lat="43.1769240" lon="-1.3014650">
        <ele>211.8</ele>
        <time>2020-07-29T12:05:12Z</time>
      </trkpt>
      <trkpt lat="43.1770340" lon="-1.3014530">
        <ele>212.6</ele>
        <time>2020-07-29T12:05:15Z</time>
      </trkpt>
      <trkpt lat="43.1771320" lon="-1.3014200">
        <ele>213.2</ele>
        <time>2020-07-29T12:05:18Z</time>
      </trkpt>
      <trkpt lat="43.1771930" lon="-1.3013990">
        <ele>213.8</ele>
        <time>2020-07-29T12:05:20Z</time>
      </trkpt>
      <trkpt lat="43.1772570" lon="-1.3013880">
        <ele>214.4</ele>
        <time>2020-07-29T12:05:22Z</time>
      </trkpt>
      <trkpt lat="43.1772910" lon="-1.3013850">
        <ele>214.6</ele>
        <time>2020-07-29T12:05:23Z</time>
      </trkpt>
      <trkpt lat="43.1773250" lon="-1.3013800">
        <ele>214.8</ele>
        <time>2020-07-29T12:05:24Z</time>
      </trkpt>
      <trkpt lat="43.1773570" lon="-1.3013780">
        <ele>215.0</ele>
        <time>2020-07-29T12:05:25Z</time>
      </trkpt>
      <trkpt lat="43.1773870" lon="-1.3013800">
        <ele>215.4</ele>
        <time>2020-07-29T12:05:26Z</time>
      </trkpt>
      <trkpt lat="43.1774750" lon="-1.3013840">
        <ele>216.2</ele>
        <time>2020-07-29T12:05:29Z</time>
      </trkpt>
      <trkpt lat="43.1775340" lon="-1.3013890">
        <ele>216.8</ele>
        <time>2020-07-29T12:05:31Z</time>
      </trkpt>
      <trkpt lat="43.1775890" lon="-1.3014130">
        <ele>217.6</ele>
        <time>2020-07-29T12:05:33Z</time>
      </trkpt>
      <trkpt lat="43.1776990" lon="-1.3014670">
        <ele>218.4</ele>
        <time>2020-07-29T12:05:37Z</time>
      </trkpt>
      <trkpt lat="43.1777520" lon="-1.3014950">
        <ele>218.6</ele>
        <time>2020-07-29T12:05:39Z</time>
      </trkpt>
      <trkpt lat="43.1778860" lon="-1.3015790">
        <ele>220.0</ele>
        <time>2020-07-29T12:05:44Z</time>
      </trkpt>
      <trkpt lat="43.1779370" lon="-1.3016230">
        <ele>220.8</ele>
        <time>2020-07-29T12:05:46Z</time>
      </trkpt>
      <trkpt lat="43.1779610" lon="-1.3016480">
        <ele>221.0</ele>
        <time>2020-07-29T12:05:47Z</time>
      </trkpt>
      <trkpt lat="43.1780720" lon="-1.3017830">
        <ele>222.0</ele>
        <time>2020-07-29T12:05:52Z</time>
      </trkpt>
      <trkpt lat="43.1781090" lon="-1.3018490">
        <ele>222.4</ele>
        <time>2020-07-29T12:05:54Z</time>
      </trkpt>
      <trkpt lat="43.1781860" lon="-1.3019910">
        <ele>223.2</ele>
        <time>2020-07-29T12:05:58Z</time>
      </trkpt>
      <trkpt lat="43.1782640" lon="-1.3021900">
        <ele>224.4</ele>
        <time>2020-07-29T12:06:03Z</time>
      </trkpt>
      <trkpt lat="43.1783620" lon="-1.3024240">
        <ele>225.4</ele>
        <time>2020-07-29T12:06:09Z</time>
      </trkpt>
      <trkpt lat="43.1783780" lon="-1.3024640">
        <ele>225.6</ele>
        <time>2020-07-29T12:06:10Z</time>
      </trkpt>
      <trkpt lat="43.1784260" lon="-1.3025790">
        <ele>226.0</ele>
        <time>2020-07-29T12:06:13Z</time>
      </trkpt>
      <trkpt lat="43.1784600" lon="-1.3026530">
        <ele>226.6</ele>
        <time>2020-07-29T12:06:15Z</time>
      </trkpt>
      <trkpt lat="43.1785340" lon="-1.3028340">
        <ele>227.8</ele>
        <time>2020-07-29T12:06:20Z</time>
      </trkpt>
      <trkpt lat="43.1785480" lon="-1.3028740">
        <ele>228.2</ele>
        <time>2020-07-29T12:06:21Z</time>
      </trkpt>
      <trkpt lat="43.1785870" lon="-1.3029910">
        <ele>229.0</ele>
        <time>2020-07-29T12:06:24Z</time>
      </trkpt>
      <trkpt lat="43.1786490" lon="-1.3031820">
        <ele>230.0</ele>
        <time>2020-07-29T12:06:29Z</time>
      </trkpt>
      <trkpt lat="43.1786660" lon="-1.3032520">
        <ele>230.4</ele>
        <time>2020-07-29T12:06:31Z</time>
      </trkpt>
      <trkpt lat="43.1786990" lon="-1.3033740">
        <ele>231.2</ele>
        <time>2020-07-29T12:06:34Z</time>
      </trkpt>
      <trkpt lat="43.1787200" lon="-1.3034550">
        <ele>231.6</ele>
        <time>2020-07-29T12:06:36Z</time>
      </trkpt>
      <trkpt lat="43.1787480" lon="-1.3035770">
        <ele>232.2</ele>
        <time>2020-07-29T12:06:39Z</time>
      </trkpt>
      <trkpt lat="43.1787730" lon="-1.3036990">
        <ele>233.2</ele>
        <time>2020-07-29T12:06:42Z</time>
      </trkpt>
      <trkpt lat="43.1787970" lon="-1.3038570">
        <ele>234.0</ele>
        <time>2020-07-29T12:06:46Z</time>
      </trkpt>
      <trkpt lat="43.1788080" lon="-1.3039330">
        <ele>234.4</ele>
        <time>2020-07-29T12:06:48Z</time>
      </trkpt>
      <trkpt lat="43.1788300" lon="-1.3041100">
        <ele>235.6</ele>
        <time>2020-07-29T12:06:53Z</time>
      </trkpt>
      <trkpt lat="43.1788390" lon="-1.3041510">
        <ele>235.8</ele>
        <time>2020-07-29T12:06:54Z</time>
      </trkpt>
      <trkpt lat="43.1788530" lon="-1.3042360">
        <ele>236.0</ele>
        <time>2020-07-29T12:06:56Z</time>
      </trkpt>
      <trkpt lat="43.1788690" lon="-1.3043220">
        <ele>236.6</ele>
        <time>2020-07-29T12:06:58Z</time>
      </trkpt>
      <trkpt lat="43.1788960" lon="-1.3044930">
        <ele>237.4</ele>
        <time>2020-07-29T12:07:02Z</time>
      </trkpt>
      <trkpt lat="43.1789020" lon="-1.3045340">
        <ele>237.6</ele>
        <time>2020-07-29T12:07:03Z</time>
      </trkpt>
      <trkpt lat="43.1789080" lon="-1.3045730">
        <ele>238.0</ele>
        <time>2020-07-29T12:07:04Z</time>
      </trkpt>
      <trkpt lat="43.1789200" lon="-1.3046520">
        <ele>239.0</ele>
        <time>2020-07-29T12:07:06Z</time>
      </trkpt>
      <trkpt lat="43.1789260" lon="-1.3046930">
        <ele>239.6</ele>
        <time>2020-07-29T12:07:07Z</time>
      </trkpt>
      <trkpt lat="43.1789330" lon="-1.3047340">
        <ele>239.8</ele>
        <time>2020-07-29T12:07:08Z</time>
      </trkpt>
      <trkpt lat="43.1789450" lon="-1.3048170">
        <ele>240.2</ele>
        <time>2020-07-29T12:07:10Z</time>
      </trkpt>
      <trkpt lat="43.1789680" lon="-1.3049450">
        <ele>240.4</ele>
        <time>2020-07-29T12:07:13Z</time>
      </trkpt>
      <trkpt lat="43.1789880" lon="-1.3050720">
        <ele>241.2</ele>
        <time>2020-07-29T12:07:16Z</time>
      </trkpt>
      <trkpt lat="43.1790200" lon="-1.3052870">
        <ele>242.2</ele>
        <time>2020-07-29T12:07:21Z</time>
      </trkpt>
      <trkpt lat="43.1790270" lon="-1.3053290">
        <ele>242.4</ele>
        <time>2020-07-29T12:07:22Z</time>
      </trkpt>
      <trkpt lat="43.1790590" lon="-1.3054910">
        <ele>243.4</ele>
        <time>2020-07-29T12:07:26Z</time>
      </trkpt>
      <trkpt lat="43.1790840" lon="-1.3056560">
        <ele>244.6</ele>
        <time>2020-07-29T12:07:30Z</time>
      </trkpt>
      <trkpt lat="43.1791150" lon="-1.3058200">
        <ele>245.6</ele>
        <time>2020-07-29T12:07:34Z</time>
      </trkpt>
      <trkpt lat="43.1791500" lon="-1.3060300">
        <ele>246.8</ele>
        <time>2020-07-29T12:07:39Z</time>
      </trkpt>
      <trkpt lat="43.1791910" lon="-1.3062860">
        <ele>247.4</ele>
        <time>2020-07-29T12:07:45Z</time>
      </trkpt>
      <trkpt lat="43.1792040" lon="-1.3064240">
        <ele>247.8</ele>
        <time>2020-07-29T12:07:48Z</time>
      </trkpt>
      <trkpt lat="43.1792090" lon="-1.3064690">
        <ele>247.8</ele>
        <time>2020-07-29T12:07:49Z</time>
      </trkpt>
      <trkpt lat="43.1792250" lon="-1.3066650">
        <ele>248.6</ele>
        <time>2020-07-29T12:07:53Z</time>
      </trkpt>
      <trkpt lat="43.1792240" lon="-1.3068490">
        <ele>248.8</ele>
        <time>2020-07-29T12:07:56Z</time>
      </trkpt>
      <trkpt lat="43.1792080" lon="-1.3069720">
        <ele>248.6</ele>
        <time>2020-07-29T12:07:58Z</time>
      </trkpt>
      <trkpt lat="43.1791580" lon="-1.3071690">
        <ele>248.2</ele>
        <time>2020-07-29T12:08:01Z</time>
      </trkpt>
      <trkpt lat="43.1790760" lon="-1.3074080">
        <ele>247.8</ele>
        <time>2020-07-29T12:08:04Z</time>
      </trkpt>
      <trkpt lat="43.1790470" lon="-1.3075000">
        <ele>247.0</ele>
        <time>2020-07-29T12:08:05Z</time>
      </trkpt>
      <trkpt lat="43.1790190" lon="-1.3075960">
        <ele>245.8</ele>
        <time>2020-07-29T12:08:06Z</time>
      </trkpt>
      <trkpt lat="43.1789890" lon="-1.3076950">
        <ele>244.6</ele>
        <time>2020-07-29T12:08:07Z</time>
      </trkpt>
      <trkpt lat="43.1789240" lon="-1.3079050">
        <ele>243.2</ele>
        <time>2020-07-29T12:08:09Z</time>
      </trkpt>
      <trkpt lat="43.1788620" lon="-1.3081400">
        <ele>242.0</ele>
        <time>2020-07-29T12:08:11Z</time>
      </trkpt>
      <trkpt lat="43.1788130" lon="-1.3083980">
        <ele>240.6</ele>
        <time>2020-07-29T12:08:13Z</time>
      </trkpt>
      <trkpt lat="43.1787720" lon="-1.3086740">
        <ele>239.2</ele>
        <time>2020-07-29T12:08:15Z</time>
      </trkpt>
      <trkpt lat="43.1787520" lon="-1.3088190">
        <ele>238.6</ele>
        <time>2020-07-29T12:08:16Z</time>
      </trkpt>
      <trkpt lat="43.1787300" lon="-1.3089680">
        <ele>238.0</ele>
        <time>2020-07-29T12:08:17Z</time>
      </trkpt>
      <trkpt lat="43.1786790" lon="-1.3092800">
        <ele>236.4</ele>
        <time>2020-07-29T12:08:19Z</time>
      </trkpt>
      <trkpt lat="43.1786120" lon="-1.3095970">
        <ele>234.6</ele>
        <time>2020-07-29T12:08:21Z</time>
      </trkpt>
      <trkpt lat="43.1785710" lon="-1.3097550">
        <ele>233.4</ele>
        <time>2020-07-29T12:08:22Z</time>
      </trkpt>
      <trkpt lat="43.1785280" lon="-1.3099130">
        <ele>231.8</ele>
        <time>2020-07-29T12:08:23Z</time>
      </trkpt>
      <trkpt lat="43.1784870" lon="-1.3100740">
        <ele>230.6</ele>
        <time>2020-07-29T12:08:24Z</time>
      </trkpt>
      <trkpt lat="43.1784010" lon="-1.3104080">
        <ele>228.8</ele>
        <time>2020-07-29T12:08:26Z</time>
      </trkpt>
      <trkpt lat="43.1783630" lon="-1.3105800">
        <ele>227.8</ele>
        <time>2020-07-29T12:08:27Z</time>
      </trkpt>
      <trkpt lat="43.1783290" lon="-1.3107540">
        <ele>226.6</ele>
        <time>2020-07-29T12:08:28Z</time>
      </trkpt>
      <trkpt lat="43.1783000" lon="-1.3109290">
        <ele>225.2</ele>
        <time>2020-07-29T12:08:29Z</time>
      </trkpt>
      <trkpt lat="43.1782740" lon="-1.3111050">
        <ele>224.0</ele>
        <time>2020-07-29T12:08:30Z</time>
      </trkpt>
      <trkpt lat="43.1782480" lon="-1.3112820">
        <ele>222.8</ele>
        <time>2020-07-29T12:08:31Z</time>
      </trkpt>
      <trkpt lat="43.1782200" lon="-1.3114620">
        <ele>222.0</ele>
        <time>2020-07-29T12:08:32Z</time>
      </trkpt>
      <trkpt lat="43.1781990" lon="-1.3116430">
        <ele>221.4</ele>
        <time>2020-07-29T12:08:33Z</time>
      </trkpt>
      <trkpt lat="43.1781840" lon="-1.3119980">
        <ele>219.6</ele>
        <time>2020-07-29T12:08:35Z</time>
      </trkpt>
      <trkpt lat="43.1781870" lon="-1.3123460">
        <ele>218.4</ele>
        <time>2020-07-29T12:08:37Z</time>
      </trkpt>
      <trkpt lat="43.1782350" lon="-1.3128640">
        <ele>217.2</ele>
        <time>2020-07-29T12:08:40Z</time>
      </trkpt>
      <trkpt lat="43.1783110" lon="-1.3132160">
        <ele>216.6</ele>
        <time>2020-07-29T12:08:42Z</time>
      </trkpt>
      <trkpt lat="43.1783600" lon="-1.3133950">
        <ele>215.8</ele>
        <time>2020-07-29T12:08:43Z</time>
      </trkpt>
      <trkpt lat="43.1784800" lon="-1.3137570">
        <ele>213.8</ele>
        <time>2020-07-29T12:08:45Z</time>
      </trkpt>
      <trkpt lat="43.1785450" lon="-1.3139390">
        <ele>212.8</ele>
        <time>2020-07-29T12:08:46Z</time>
      </trkpt>
      <trkpt lat="43.1786090" lon="-1.3141240">
        <ele>212.0</ele>
        <time>2020-07-29T12:08:47Z</time>
      </trkpt>
      <trkpt lat="43.1787420" lon="-1.3144890">
        <ele>209.8</ele>
        <time>2020-07-29T12:08:49Z</time>
      </trkpt>
      <trkpt lat="43.1788050" lon="-1.3146690">
        <ele>208.2</ele>
        <time>2020-07-29T12:08:50Z</time>
      </trkpt>
      <trkpt lat="43.1788600" lon="-1.3148520">
        <ele>207.2</ele>
        <time>2020-07-29T12:08:51Z</time>
      </trkpt>
      <trkpt lat="43.1789060" lon="-1.3150370">
        <ele>206.4</ele>
        <time>2020-07-29T12:08:52Z</time>
      </trkpt>
      <trkpt lat="43.1789450" lon="-1.3152250">
        <ele>205.8</ele>
        <time>2020-07-29T12:08:53Z</time>
      </trkpt>
      <trkpt lat="43.1789690" lon="-1.3154150">
        <ele>205.2</ele>
        <time>2020-07-29T12:08:54Z</time>
      </trkpt>
      <trkpt lat="43.1789860" lon="-1.3156100">
        <ele>204.6</ele>
        <time>2020-07-29T12:08:55Z</time>
      </trkpt>
      <trkpt lat="43.1790870" lon="-1.3161890">
        <ele>203.2</ele>
        <time>2020-07-29T12:08:58Z</time>
      </trkpt>
      <trkpt lat="43.1791440" lon="-1.3163770">
        <ele>202.4</ele>
        <time>2020-07-29T12:08:59Z</time>
      </trkpt>
      <trkpt lat="43.1792120" lon="-1.3165600">
        <ele>201.4</ele>
        <time>2020-07-29T12:09:00Z</time>
      </trkpt>
      <trkpt lat="43.1792910" lon="-1.3167370">
        <ele>199.4</ele>
        <time>2020-07-29T12:09:01Z</time>
      </trkpt>
      <trkpt lat="43.1793710" lon="-1.3169090">
        <ele>197.2</ele>
        <time>2020-07-29T12:09:02Z</time>
      </trkpt>
      <trkpt lat="43.1794490" lon="-1.3170800">
        <ele>195.4</ele>
        <time>2020-07-29T12:09:03Z</time>
      </trkpt>
      <trkpt lat="43.1795280" lon="-1.3172480">
        <ele>194.0</ele>
        <time>2020-07-29T12:09:04Z</time>
      </trkpt>
      <trkpt lat="43.1796030" lon="-1.3174130">
        <ele>192.8</ele>
        <time>2020-07-29T12:09:05Z</time>
      </trkpt>
      <trkpt lat="43.1796790" lon="-1.3175760">
        <ele>191.8</ele>
        <time>2020-07-29T12:09:06Z</time>
      </trkpt>
      <trkpt lat="43.1798270" lon="-1.3178890">
        <ele>190.2</ele>
        <time>2020-07-29T12:09:08Z</time>
      </trkpt>
      <trkpt lat="43.1799750" lon="-1.3181470">
        <ele>188.6</ele>
        <time>2020-07-29T12:09:10Z</time>
      </trkpt>
      <trkpt lat="43.1800700" lon="-1.3182480">
        <ele>187.8</ele>
        <time>2020-07-29T12:09:11Z</time>
      </trkpt>
      <trkpt lat="43.1801750" lon="-1.3183400">
        <ele>187.2</ele>
        <time>2020-07-29T12:09:12Z</time>
      </trkpt>
      <trkpt lat="43.1803910" lon="-1.3185100">
        <ele>185.0</ele>
        <time>2020-07-29T12:09:14Z</time>
      </trkpt>
      <trkpt lat="43.1804830" lon="-1.3186070">
        <ele>183.6</ele>
        <time>2020-07-29T12:09:15Z</time>
      </trkpt>
      <trkpt lat="43.1805520" lon="-1.3187270">
        <ele>182.4</ele>
        <time>2020-07-29T12:09:16Z</time>
      </trkpt>
      <trkpt lat="43.1806060" lon="-1.3188600">
        <ele>181.8</ele>
        <time>2020-07-29T12:09:17Z</time>
      </trkpt>
      <trkpt lat="43.1806400" lon="-1.3190030">
        <ele>181.4</ele>
        <time>2020-07-29T12:09:18Z</time>
      </trkpt>
      <trkpt lat="43.1807040" lon="-1.3192970">
        <ele>180.2</ele>
        <time>2020-07-29T12:09:20Z</time>
      </trkpt>
      <trkpt lat="43.1808200" lon="-1.3195550">
        <ele>179.6</ele>
        <time>2020-07-29T12:09:22Z</time>
      </trkpt>
      <trkpt lat="43.1808990" lon="-1.3196640">
        <ele>179.2</ele>
        <time>2020-07-29T12:09:23Z</time>
      </trkpt>
      <trkpt lat="43.1809870" lon="-1.3197590">
        <ele>178.6</ele>
        <time>2020-07-29T12:09:24Z</time>
      </trkpt>
      <trkpt lat="43.1810810" lon="-1.3198420">
        <ele>178.0</ele>
        <time>2020-07-29T12:09:25Z</time>
      </trkpt>
      <trkpt lat="43.1812710" lon="-1.3199970">
        <ele>176.6</ele>
        <time>2020-07-29T12:09:27Z</time>
      </trkpt>
      <trkpt lat="43.1815230" lon="-1.3202170">
        <ele>176.0</ele>
        <time>2020-07-29T12:09:30Z</time>
      </trkpt>
      <trkpt lat="43.1815940" lon="-1.3202870">
        <ele>176.2</ele>
        <time>2020-07-29T12:09:31Z</time>
      </trkpt>
      <trkpt lat="43.1817150" lon="-1.3204280">
        <ele>177.4</ele>
        <time>2020-07-29T12:09:33Z</time>
      </trkpt>
      <trkpt lat="43.1817640" lon="-1.3205030">
        <ele>177.8</ele>
        <time>2020-07-29T12:09:34Z</time>
      </trkpt>
      <trkpt lat="43.1818060" lon="-1.3205800">
        <ele>178.4</ele>
        <time>2020-07-29T12:09:35Z</time>
      </trkpt>
      <trkpt lat="43.1818620" lon="-1.3207500">
        <ele>178.8</ele>
        <time>2020-07-29T12:09:37Z</time>
      </trkpt>
      <trkpt lat="43.1818830" lon="-1.3208430">
        <ele>178.8</ele>
        <time>2020-07-29T12:09:38Z</time>
      </trkpt>
      <trkpt lat="43.1818960" lon="-1.3209430">
        <ele>179.0</ele>
        <time>2020-07-29T12:09:39Z</time>
      </trkpt>
      <trkpt lat="43.1818970" lon="-1.3211640">
        <ele>178.6</ele>
        <time>2020-07-29T12:09:41Z</time>
      </trkpt>
      <trkpt lat="43.1818850" lon="-1.3212850">
        <ele>177.8</ele>
        <time>2020-07-29T12:09:42Z</time>
      </trkpt>
      <trkpt lat="43.1818630" lon="-1.3214130">
        <ele>176.6</ele>
        <time>2020-07-29T12:09:43Z</time>
      </trkpt>
      <trkpt lat="43.1818290" lon="-1.3215450">
        <ele>175.6</ele>
        <time>2020-07-29T12:09:44Z</time>
      </trkpt>
      <trkpt lat="43.1817810" lon="-1.3216770">
        <ele>174.6</ele>
        <time>2020-07-29T12:09:45Z</time>
      </trkpt>
      <trkpt lat="43.1817190" lon="-1.3218060">
        <ele>173.6</ele>
        <time>2020-07-29T12:09:46Z</time>
      </trkpt>
      <trkpt lat="43.1816400" lon="-1.3219320">
        <ele>172.4</ele>
        <time>2020-07-29T12:09:47Z</time>
      </trkpt>
      <trkpt lat="43.1815490" lon="-1.3220520">
        <ele>170.8</ele>
        <time>2020-07-29T12:09:48Z</time>
      </trkpt>
      <trkpt lat="43.1814480" lon="-1.3221630">
        <ele>168.8</ele>
        <time>2020-07-29T12:09:49Z</time>
      </trkpt>
      <trkpt lat="43.1813410" lon="-1.3222670">
        <ele>166.8</ele>
        <time>2020-07-29T12:09:50Z</time>
      </trkpt>
      <trkpt lat="43.1812310" lon="-1.3223710">
        <ele>165.2</ele>
        <time>2020-07-29T12:09:51Z</time>
      </trkpt>
      <trkpt lat="43.1811290" lon="-1.3224840">
        <ele>164.2</ele>
        <time>2020-07-29T12:09:52Z</time>
      </trkpt>
      <trkpt lat="43.1809950" lon="-1.3227700">
        <ele>163.0</ele>
        <time>2020-07-29T12:09:54Z</time>
      </trkpt>
      <trkpt lat="43.1809730" lon="-1.3230870">
        <ele>162.8</ele>
        <time>2020-07-29T12:09:56Z</time>
      </trkpt>
      <trkpt lat="43.1810390" lon="-1.3233750">
        <ele>162.8</ele>
        <time>2020-07-29T12:09:58Z</time>
      </trkpt>
      <trkpt lat="43.1813390" lon="-1.3241250">
        <ele>164.0</ele>
        <time>2020-07-29T12:10:04Z</time>
      </trkpt>
      <trkpt lat="43.1815170" lon="-1.3245740">
        <ele>165.0</ele>
        <time>2020-07-29T12:10:08Z</time>
      </trkpt>
      <trkpt lat="43.1815940" lon="-1.3247740">
        <ele>165.8</ele>
        <time>2020-07-29T12:10:10Z</time>
      </trkpt>
      <trkpt lat="43.1816300" lon="-1.3248660">
        <ele>166.4</ele>
        <time>2020-07-29T12:10:11Z</time>
      </trkpt>
      <trkpt lat="43.1816970" lon="-1.3250400">
        <ele>167.6</ele>
        <time>2020-07-29T12:10:13Z</time>
      </trkpt>
      <trkpt lat="43.1817500" lon="-1.3251980">
        <ele>168.6</ele>
        <time>2020-07-29T12:10:15Z</time>
      </trkpt>
      <trkpt lat="43.1817720" lon="-1.3252710">
        <ele>169.0</ele>
        <time>2020-07-29T12:10:16Z</time>
      </trkpt>
      <trkpt lat="43.1818040" lon="-1.3254080">
        <ele>169.8</ele>
        <time>2020-07-29T12:10:18Z</time>
      </trkpt>
      <trkpt lat="43.1818150" lon="-1.3254730">
        <ele>170.0</ele>
        <time>2020-07-29T12:10:19Z</time>
      </trkpt>
      <trkpt lat="43.1818260" lon="-1.3255340">
        <ele>170.4</ele>
        <time>2020-07-29T12:10:20Z</time>
      </trkpt>
      <trkpt lat="43.1818440" lon="-1.3256540">
        <ele>171.2</ele>
        <time>2020-07-29T12:10:22Z</time>
      </trkpt>
      <trkpt lat="43.1818840" lon="-1.3258700">
        <ele>172.4</ele>
        <time>2020-07-29T12:10:26Z</time>
      </trkpt>
      <trkpt lat="43.1819000" lon="-1.3259710">
        <ele>172.8</ele>
        <time>2020-07-29T12:10:28Z</time>
      </trkpt>
      <trkpt lat="43.1819350" lon="-1.3261680">
        <ele>173.6</ele>
        <time>2020-07-29T12:10:32Z</time>
      </trkpt>
      <trkpt lat="43.1819840" lon="-1.3264030">
        <ele>174.2</ele>
        <time>2020-07-29T12:10:37Z</time>
      </trkpt>
      <trkpt lat="43.1820050" lon="-1.3265040">
        <ele>174.4</ele>
        <time>2020-07-29T12:10:39Z</time>
      </trkpt>
      <trkpt lat="43.1820500" lon="-1.3266600">
        <ele>174.4</ele>
        <time>2020-07-29T12:10:42Z</time>
      </trkpt>
      <trkpt lat="43.1820970" lon="-1.3267620">
        <ele>174.2</ele>
        <time>2020-07-29T12:10:44Z</time>
      </trkpt>
      <trkpt lat="43.1823000" lon="-1.3270640">
        <ele>173.4</ele>
        <time>2020-07-29T12:10:50Z</time>
      </trkpt>
      <trkpt lat="43.1824520" lon="-1.3271970">
        <ele>172.6</ele>
        <time>2020-07-29T12:10:53Z</time>
      </trkpt>
      <trkpt lat="43.1825480" lon="-1.3272850">
        <ele>172.2</ele>
        <time>2020-07-29T12:10:55Z</time>
      </trkpt>
      <trkpt lat="43.1827720" lon="-1.3274780">
        <ele>172.2</ele>
        <time>2020-07-29T12:10:59Z</time>
      </trkpt>
      <trkpt lat="43.1828880" lon="-1.3275780">
        <ele>171.8</ele>
        <time>2020-07-29T12:11:01Z</time>
      </trkpt>
      <trkpt lat="43.1830100" lon="-1.3276840">
        <ele>171.2</ele>
        <time>2020-07-29T12:11:03Z</time>
      </trkpt>
      <trkpt lat="43.1832060" lon="-1.3278510">
        <ele>169.8</ele>
        <time>2020-07-29T12:11:06Z</time>
      </trkpt>
      <trkpt lat="43.1832720" lon="-1.3279140">
        <ele>168.8</ele>
        <time>2020-07-29T12:11:07Z</time>
      </trkpt>
      <trkpt lat="43.1833420" lon="-1.3279780">
        <ele>168.0</ele>
        <time>2020-07-29T12:11:08Z</time>
      </trkpt>
      <trkpt lat="43.1834880" lon="-1.3281130">
        <ele>166.8</ele>
        <time>2020-07-29T12:11:10Z</time>
      </trkpt>
      <trkpt lat="43.1836420" lon="-1.3282440">
        <ele>165.2</ele>
        <time>2020-07-29T12:11:12Z</time>
      </trkpt>
      <trkpt lat="43.1837220" lon="-1.3283130">
        <ele>164.6</ele>
        <time>2020-07-29T12:11:13Z</time>
      </trkpt>
      <trkpt lat="43.1838030" lon="-1.3283820">
        <ele>164.0</ele>
        <time>2020-07-29T12:11:14Z</time>
      </trkpt>
      <trkpt lat="43.1839530" lon="-1.3285500">
        <ele>163.2</ele>
        <time>2020-07-29T12:11:16Z</time>
      </trkpt>
      <trkpt lat="43.1840200" lon="-1.3286540">
        <ele>162.8</ele>
        <time>2020-07-29T12:11:17Z</time>
      </trkpt>
      <trkpt lat="43.1840790" lon="-1.3287730">
        <ele>162.2</ele>
        <time>2020-07-29T12:11:18Z</time>
      </trkpt>
      <trkpt lat="43.1841280" lon="-1.3289030">
        <ele>161.6</ele>
        <time>2020-07-29T12:11:19Z</time>
      </trkpt>
      <trkpt lat="43.1842490" lon="-1.3293390">
        <ele>160.2</ele>
        <time>2020-07-29T12:11:22Z</time>
      </trkpt>
      <trkpt lat="43.1842920" lon="-1.3296300">
        <ele>158.2</ele>
        <time>2020-07-29T12:11:24Z</time>
      </trkpt>
      <trkpt lat="43.1842790" lon="-1.3297680">
        <ele>157.2</ele>
        <time>2020-07-29T12:11:25Z</time>
      </trkpt>
      <trkpt lat="43.1842480" lon="-1.3298930">
        <ele>156.2</ele>
        <time>2020-07-29T12:11:26Z</time>
      </trkpt>
      <trkpt lat="43.1842010" lon="-1.3300180">
        <ele>155.6</ele>
        <time>2020-07-29T12:11:27Z</time>
      </trkpt>
      <trkpt lat="43.1841490" lon="-1.3301500">
        <ele>155.2</ele>
        <time>2020-07-29T12:11:28Z</time>
      </trkpt>
      <trkpt lat="43.1840990" lon="-1.3302910">
        <ele>154.6</ele>
        <time>2020-07-29T12:11:29Z</time>
      </trkpt>
      <trkpt lat="43.1840610" lon="-1.3304420">
        <ele>154.0</ele>
        <time>2020-07-29T12:11:30Z</time>
      </trkpt>
      <trkpt lat="43.1840360" lon="-1.3305980">
        <ele>153.2</ele>
        <time>2020-07-29T12:11:31Z</time>
      </trkpt>
      <trkpt lat="43.1840220" lon="-1.3307550">
        <ele>152.4</ele>
        <time>2020-07-29T12:11:32Z</time>
      </trkpt>
      <trkpt lat="43.1840220" lon="-1.3309090">
        <ele>151.6</ele>
        <time>2020-07-29T12:11:33Z</time>
      </trkpt>
      <trkpt lat="43.1840400" lon="-1.3312030">
        <ele>150.2</ele>
        <time>2020-07-29T12:11:35Z</time>
      </trkpt>
      <trkpt lat="43.1840530" lon="-1.3313490">
        <ele>150.0</ele>
        <time>2020-07-29T12:11:36Z</time>
      </trkpt>
      <trkpt lat="43.1840830" lon="-1.3317790">
        <ele>149.0</ele>
        <time>2020-07-29T12:11:39Z</time>
      </trkpt>
      <trkpt lat="43.1840640" lon="-1.3321950">
        <ele>150.2</ele>
        <time>2020-07-29T12:11:42Z</time>
      </trkpt>
      <trkpt lat="43.1839780" lon="-1.3325740">
        <ele>148.8</ele>
        <time>2020-07-29T12:11:45Z</time>
      </trkpt>
      <trkpt lat="43.1839480" lon="-1.3326890">
        <ele>148.6</ele>
        <time>2020-07-29T12:11:46Z</time>
      </trkpt>
      <trkpt lat="43.1838850" lon="-1.3329050">
        <ele>147.8</ele>
        <time>2020-07-29T12:11:48Z</time>
      </trkpt>
      <trkpt lat="43.1837700" lon="-1.3332960">
        <ele>148.0</ele>
        <time>2020-07-29T12:11:52Z</time>
      </trkpt>
      <trkpt lat="43.1836800" lon="-1.3335420">
        <ele>148.6</ele>
        <time>2020-07-29T12:11:55Z</time>
      </trkpt>
      <trkpt lat="43.1836060" lon="-1.3336690">
        <ele>148.8</ele>
        <time>2020-07-29T12:11:57Z</time>
      </trkpt>
      <trkpt lat="43.1833750" lon="-1.3340000">
        <ele>149.6</ele>
        <time>2020-07-29T12:12:03Z</time>
      </trkpt>
      <trkpt lat="43.1832490" lon="-1.3341480">
        <ele>150.0</ele>
        <time>2020-07-29T12:12:06Z</time>
      </trkpt>
      <trkpt lat="43.1830890" lon="-1.3343590">
        <ele>150.2</ele>
        <time>2020-07-29T12:12:10Z</time>
      </trkpt>
      <trkpt lat="43.1830110" lon="-1.3344650">
        <ele>150.6</ele>
        <time>2020-07-29T12:12:12Z</time>
      </trkpt>
      <trkpt lat="43.1829720" lon="-1.3345170">
        <ele>150.6</ele>
        <time>2020-07-29T12:12:13Z</time>
      </trkpt>
      <trkpt lat="43.1827440" lon="-1.3348350">
        <ele>150.8</ele>
        <time>2020-07-29T12:12:19Z</time>
      </trkpt>
      <trkpt lat="43.1826740" lon="-1.3349400">
        <ele>151.0</ele>
        <time>2020-07-29T12:12:21Z</time>
      </trkpt>
      <trkpt lat="43.1826420" lon="-1.3349930">
        <ele>151.0</ele>
        <time>2020-07-29T12:12:22Z</time>
      </trkpt>
      <trkpt lat="43.1825880" lon="-1.3351030">
        <ele>151.4</ele>
        <time>2020-07-29T12:12:24Z</time>
      </trkpt>
      <trkpt lat="43.1825630" lon="-1.3352190">
        <ele>151.6</ele>
        <time>2020-07-29T12:12:26Z</time>
      </trkpt>
      <trkpt lat="43.1825080" lon="-1.3354600">
        <ele>152.0</ele>
        <time>2020-07-29T12:12:31Z</time>
      </trkpt>
      <trkpt lat="43.1824740" lon="-1.3355570">
        <ele>152.0</ele>
        <time>2020-07-29T12:12:33Z</time>
      </trkpt>
      <trkpt lat="43.1824730" lon="-1.3356660">
        <ele>152.2</ele>
        <time>2020-07-29T12:12:35Z</time>
      </trkpt>
      <trkpt lat="43.1824820" lon="-1.3360150">
        <ele>152.8</ele>
        <time>2020-07-29T12:12:41Z</time>
      </trkpt>
      <trkpt lat="43.1825030" lon="-1.3363210">
        <ele>153.2</ele>
        <time>2020-07-29T12:12:46Z</time>
      </trkpt>
      <trkpt lat="43.1825150" lon="-1.3364260">
        <ele>153.4</ele>
        <time>2020-07-29T12:12:48Z</time>
      </trkpt>
      <trkpt lat="43.1825330" lon="-1.3367250">
        <ele>153.2</ele>
        <time>2020-07-29T12:12:54Z</time>
      </trkpt>
      <trkpt lat="43.1825400" lon="-1.3367710">
        <ele>153.2</ele>
        <time>2020-07-29T12:12:55Z</time>
      </trkpt>
      <trkpt lat="43.1825570" lon="-1.3369350">
        <ele>153.2</ele>
        <time>2020-07-29T12:13:00Z</time>
      </trkpt>
      <trkpt lat="43.1825400" lon="-1.3369620">
        <ele>153.2</ele>
        <time>2020-07-29T12:13:01Z</time>
      </trkpt>
      <trkpt lat="43.1824440" lon="-1.3370220">
        <ele>152.8</ele>
        <time>2020-07-29T12:13:04Z</time>
      </trkpt>
      <trkpt lat="43.1822810" lon="-1.3371050">
        <ele>152.0</ele>
        <time>2020-07-29T12:13:08Z</time>
      </trkpt>
      <trkpt lat="43.1821980" lon="-1.3371520">
        <ele>152.0</ele>
        <time>2020-07-29T12:13:10Z</time>
      </trkpt>
      <trkpt lat="43.1821160" lon="-1.3372080">
        <ele>151.8</ele>
        <time>2020-07-29T12:13:12Z</time>
      </trkpt>
      <trkpt lat="43.1820340" lon="-1.3372650">
        <ele>151.8</ele>
        <time>2020-07-29T12:13:14Z</time>
      </trkpt>
      <trkpt lat="43.1818130" lon="-1.3374640">
        <ele>151.8</ele>
        <time>2020-07-29T12:13:20Z</time>
      </trkpt>
      <trkpt lat="43.1817520" lon="-1.3375150">
        <ele>151.4</ele>
        <time>2020-07-29T12:13:22Z</time>
      </trkpt>
      <trkpt lat="43.1817140" lon="-1.3375520">
        <ele>151.4</ele>
        <time>2020-07-29T12:13:24Z</time>
      </trkpt>
      <trkpt lat="43.1817090" lon="-1.3375570">
        <ele>151.4</ele>
        <time>2020-07-29T12:13:25Z</time>
      </trkpt>
      <trkpt lat="43.1816490" lon="-1.3375790">
        <ele>150.2</ele>
        <time>2020-07-29T12:14:52Z</time>
      </trkpt>
      <trkpt lat="43.1816260" lon="-1.3376000">
        <ele>150.2</ele>
        <time>2020-07-29T12:14:53Z</time>
      </trkpt>
      <trkpt lat="43.1815980" lon="-1.3376240">
        <ele>150.4</ele>
        <time>2020-07-29T12:14:54Z</time>
      </trkpt>
      <trkpt lat="43.1815660" lon="-1.3376520">
        <ele>150.4</ele>
        <time>2020-07-29T12:14:55Z</time>
      </trkpt>
      <trkpt lat="43.1815310" lon="-1.3376850">
        <ele>150.4</ele>
        <time>2020-07-29T12:14:56Z</time>
      </trkpt>
      <trkpt lat="43.1814170" lon="-1.3377990">
        <ele>150.2</ele>
        <time>2020-07-29T12:14:59Z</time>
      </trkpt>
      <trkpt lat="43.1812270" lon="-1.3379860">
        <ele>151.2</ele>
        <time>2020-07-29T12:15:04Z</time>
      </trkpt>
      <trkpt lat="43.1811620" lon="-1.3380730">
        <ele>151.8</ele>
        <time>2020-07-29T12:15:06Z</time>
      </trkpt>
      <trkpt lat="43.1811330" lon="-1.3381200">
        <ele>152.0</ele>
        <time>2020-07-29T12:15:07Z</time>
      </trkpt>
      <trkpt lat="43.1811030" lon="-1.3381660">
        <ele>152.0</ele>
        <time>2020-07-29T12:15:08Z</time>
      </trkpt>
      <trkpt lat="43.1810450" lon="-1.3382660">
        <ele>152.0</ele>
        <time>2020-07-29T12:15:10Z</time>
      </trkpt>
      <trkpt lat="43.1809920" lon="-1.3383820">
        <ele>152.0</ele>
        <time>2020-07-29T12:15:12Z</time>
      </trkpt>
      <trkpt lat="43.1809640" lon="-1.3384330">
        <ele>152.0</ele>
        <time>2020-07-29T12:15:13Z</time>
      </trkpt>
      <trkpt lat="43.1809460" lon="-1.3384970">
        <ele>152.0</ele>
        <time>2020-07-29T12:15:14Z</time>
      </trkpt>
      <trkpt lat="43.1808770" lon="-1.3386940">
        <ele>151.6</ele>
        <time>2020-07-29T12:15:17Z</time>
      </trkpt>
      <trkpt lat="43.1807900" lon="-1.3388820">
        <ele>151.4</ele>
        <time>2020-07-29T12:15:20Z</time>
      </trkpt>
      <trkpt lat="43.1807570" lon="-1.3389430">
        <ele>151.2</ele>
        <time>2020-07-29T12:15:21Z</time>
      </trkpt>
      <trkpt lat="43.1806260" lon="-1.3390780">
        <ele>151.2</ele>
        <time>2020-07-29T12:15:24Z</time>
      </trkpt>
      <trkpt lat="43.1804760" lon="-1.3391710">
        <ele>151.4</ele>
        <time>2020-07-29T12:15:27Z</time>
      </trkpt>
      <trkpt lat="43.1803230" lon="-1.3392550">
        <ele>152.0</ele>
        <time>2020-07-29T12:15:30Z</time>
      </trkpt>
      <trkpt lat="43.1802760" lon="-1.3392840">
        <ele>152.2</ele>
        <time>2020-07-29T12:15:31Z</time>
      </trkpt>
      <trkpt lat="43.1802310" lon="-1.3393190">
        <ele>152.2</ele>
        <time>2020-07-29T12:15:32Z</time>
      </trkpt>
      <trkpt lat="43.1801910" lon="-1.3393590">
        <ele>152.4</ele>
        <time>2020-07-29T12:15:33Z</time>
      </trkpt>
      <trkpt lat="43.1800310" lon="-1.3395050">
        <ele>153.0</ele>
        <time>2020-07-29T12:15:37Z</time>
      </trkpt>
      <trkpt lat="43.1799210" lon="-1.3396100">
        <ele>153.4</ele>
        <time>2020-07-29T12:15:40Z</time>
      </trkpt>
      <trkpt lat="43.1797240" lon="-1.3397690">
        <ele>154.2</ele>
        <time>2020-07-29T12:15:45Z</time>
      </trkpt>
      <trkpt lat="43.1796450" lon="-1.3398300">
        <ele>154.4</ele>
        <time>2020-07-29T12:15:47Z</time>
      </trkpt>
      <trkpt lat="43.1794250" lon="-1.3400330">
        <ele>154.6</ele>
        <time>2020-07-29T12:15:53Z</time>
      </trkpt>
      <trkpt lat="43.1793970" lon="-1.3400740">
        <ele>154.8</ele>
        <time>2020-07-29T12:15:54Z</time>
      </trkpt>
      <trkpt lat="43.1793670" lon="-1.3401110">
        <ele>154.8</ele>
        <time>2020-07-29T12:15:55Z</time>
      </trkpt>
      <trkpt lat="43.1791920" lon="-1.3402790">
        <ele>155.2</ele>
        <time>2020-07-29T12:16:00Z</time>
      </trkpt>
      <trkpt lat="43.1791170" lon="-1.3403560">
        <ele>155.4</ele>
        <time>2020-07-29T12:16:03Z</time>
      </trkpt>
      <trkpt lat="43.1790920" lon="-1.3403790">
        <ele>155.4</ele>
        <time>2020-07-29T12:16:04Z</time>
      </trkpt>
      <trkpt lat="43.1790020" lon="-1.3404490">
        <ele>155.4</ele>
        <time>2020-07-29T12:16:07Z</time>
      </trkpt>
      <trkpt lat="43.1789360" lon="-1.3405120">
        <ele>155.4</ele>
        <time>2020-07-29T12:16:09Z</time>
      </trkpt>
      <trkpt lat="43.1788680" lon="-1.3405970">
        <ele>155.4</ele>
        <time>2020-07-29T12:16:11Z</time>
      </trkpt>
      <trkpt lat="43.1788320" lon="-1.3406410">
        <ele>155.4</ele>
        <time>2020-07-29T12:16:12Z</time>
      </trkpt>
      <trkpt lat="43.1787930" lon="-1.3406820">
        <ele>155.4</ele>
        <time>2020-07-29T12:16:13Z</time>
      </trkpt>
      <trkpt lat="43.1787540" lon="-1.3407250">
        <ele>155.4</ele>
        <time>2020-07-29T12:16:14Z</time>
      </trkpt>
      <trkpt lat="43.1787150" lon="-1.3407680">
        <ele>155.4</ele>
        <time>2020-07-29T12:16:15Z</time>
      </trkpt>
      <trkpt lat="43.1786790" lon="-1.3408170">
        <ele>155.4</ele>
        <time>2020-07-29T12:16:16Z</time>
      </trkpt>
      <trkpt lat="43.1786110" lon="-1.3409210">
        <ele>155.4</ele>
        <time>2020-07-29T12:16:18Z</time>
      </trkpt>
      <trkpt lat="43.1783820" lon="-1.3411950">
        <ele>155.8</ele>
        <time>2020-07-29T12:16:24Z</time>
      </trkpt>
      <trkpt lat="43.1783070" lon="-1.3412870">
        <ele>156.0</ele>
        <time>2020-07-29T12:16:26Z</time>
      </trkpt>
      <trkpt lat="43.1782290" lon="-1.3413740">
        <ele>156.2</ele>
        <time>2020-07-29T12:16:28Z</time>
      </trkpt>
      <trkpt lat="43.1781530" lon="-1.3414650">
        <ele>156.6</ele>
        <time>2020-07-29T12:16:30Z</time>
      </trkpt>
      <trkpt lat="43.1779620" lon="-1.3416900">
        <ele>156.8</ele>
        <time>2020-07-29T12:16:35Z</time>
      </trkpt>
      <trkpt lat="43.1779260" lon="-1.3417350">
        <ele>157.0</ele>
        <time>2020-07-29T12:16:36Z</time>
      </trkpt>
      <trkpt lat="43.1778930" lon="-1.3417780">
        <ele>157.0</ele>
        <time>2020-07-29T12:16:37Z</time>
      </trkpt>
      <trkpt lat="43.1777190" lon="-1.3419620">
        <ele>157.2</ele>
        <time>2020-07-29T12:16:42Z</time>
      </trkpt>
      <trkpt lat="43.1776770" lon="-1.3419840">
        <ele>157.2</ele>
        <time>2020-07-29T12:16:43Z</time>
      </trkpt>
      <trkpt lat="43.1776320" lon="-1.3419980">
        <ele>157.2</ele>
        <time>2020-07-29T12:16:44Z</time>
      </trkpt>
      <trkpt lat="43.1775850" lon="-1.3420060">
        <ele>157.2</ele>
        <time>2020-07-29T12:16:45Z</time>
      </trkpt>
      <trkpt lat="43.1775360" lon="-1.3420070">
        <ele>157.2</ele>
        <time>2020-07-29T12:16:46Z</time>
      </trkpt>
      <trkpt lat="43.1774400" lon="-1.3419990">
        <ele>157.2</ele>
        <time>2020-07-29T12:16:48Z</time>
      </trkpt>
      <trkpt lat="43.1772390" lon="-1.3419480">
        <ele>157.6</ele>
        <time>2020-07-29T12:16:53Z</time>
      </trkpt>
      <trkpt lat="43.1772000" lon="-1.3419400">
        <ele>157.6</ele>
        <time>2020-07-29T12:16:54Z</time>
      </trkpt>
      <trkpt lat="43.1769630" lon="-1.3419040">
        <ele>157.4</ele>
        <time>2020-07-29T12:16:59Z</time>
      </trkpt>
      <trkpt lat="43.1769060" lon="-1.3419070">
        <ele>157.2</ele>
        <time>2020-07-29T12:17:00Z</time>
      </trkpt>
      <trkpt lat="43.1768510" lon="-1.3419200">
        <ele>157.2</ele>
        <time>2020-07-29T12:17:01Z</time>
      </trkpt>
      <trkpt lat="43.1766990" lon="-1.3419970">
        <ele>157.0</ele>
        <time>2020-07-29T12:17:04Z</time>
      </trkpt>
      <trkpt lat="43.1766320" lon="-1.3420950">
        <ele>157.0</ele>
        <time>2020-07-29T12:17:06Z</time>
      </trkpt>
      <trkpt lat="43.1766100" lon="-1.3421560">
        <ele>157.0</ele>
        <time>2020-07-29T12:17:07Z</time>
      </trkpt>
      <trkpt lat="43.1765340" lon="-1.3424530">
        <ele>157.2</ele>
        <time>2020-07-29T12:17:12Z</time>
      </trkpt>
      <trkpt lat="43.1765190" lon="-1.3425100">
        <ele>157.2</ele>
        <time>2020-07-29T12:17:13Z</time>
      </trkpt>
      <trkpt lat="43.1763980" lon="-1.3428920">
        <ele>157.6</ele>
        <time>2020-07-29T12:17:19Z</time>
      </trkpt>
      <trkpt lat="43.1762720" lon="-1.3432780">
        <ele>157.8</ele>
        <time>2020-07-29T12:17:25Z</time>
      </trkpt>
      <trkpt lat="43.1762350" lon="-1.3434020">
        <ele>158.0</ele>
        <time>2020-07-29T12:17:27Z</time>
      </trkpt>
      <trkpt lat="43.1762080" lon="-1.3435300">
        <ele>158.0</ele>
        <time>2020-07-29T12:17:29Z</time>
      </trkpt>
      <trkpt lat="43.1761960" lon="-1.3435980">
        <ele>158.0</ele>
        <time>2020-07-29T12:17:30Z</time>
      </trkpt>
      <trkpt lat="43.1761880" lon="-1.3436660">
        <ele>158.2</ele>
        <time>2020-07-29T12:17:31Z</time>
      </trkpt>
      <trkpt lat="43.1761700" lon="-1.3439390">
        <ele>158.4</ele>
        <time>2020-07-29T12:17:35Z</time>
      </trkpt>
      <trkpt lat="43.1761660" lon="-1.3440660">
        <ele>158.6</ele>
        <time>2020-07-29T12:17:37Z</time>
      </trkpt>
      <trkpt lat="43.1761600" lon="-1.3441910">
        <ele>159.2</ele>
        <time>2020-07-29T12:17:39Z</time>
      </trkpt>
      <trkpt lat="43.1761330" lon="-1.3445730">
        <ele>159.6</ele>
        <time>2020-07-29T12:17:45Z</time>
      </trkpt>
      <trkpt lat="43.1761280" lon="-1.3447010">
        <ele>159.6</ele>
        <time>2020-07-29T12:17:47Z</time>
      </trkpt>
      <trkpt lat="43.1761240" lon="-1.3447640">
        <ele>159.8</ele>
        <time>2020-07-29T12:17:48Z</time>
      </trkpt>
      <trkpt lat="43.1760950" lon="-1.3450170">
        <ele>159.8</ele>
        <time>2020-07-29T12:17:52Z</time>
      </trkpt>
      <trkpt lat="43.1760800" lon="-1.3452020">
        <ele>159.6</ele>
        <time>2020-07-29T12:17:55Z</time>
      </trkpt>
      <trkpt lat="43.1760710" lon="-1.3452620">
        <ele>159.6</ele>
        <time>2020-07-29T12:17:56Z</time>
      </trkpt>
      <trkpt lat="43.1759870" lon="-1.3455510">
        <ele>159.6</ele>
        <time>2020-07-29T12:18:01Z</time>
      </trkpt>
      <trkpt lat="43.1759450" lon="-1.3456540">
        <ele>160.0</ele>
        <time>2020-07-29T12:18:03Z</time>
      </trkpt>
      <trkpt lat="43.1758780" lon="-1.3457850">
        <ele>160.4</ele>
        <time>2020-07-29T12:18:06Z</time>
      </trkpt>
      <trkpt lat="43.1758260" lon="-1.3459160">
        <ele>160.6</ele>
        <time>2020-07-29T12:18:09Z</time>
      </trkpt>
      <trkpt lat="43.1758040" lon="-1.3459640">
        <ele>160.6</ele>
        <time>2020-07-29T12:18:10Z</time>
      </trkpt>
      <trkpt lat="43.1757590" lon="-1.3460620">
        <ele>160.6</ele>
        <time>2020-07-29T12:18:12Z</time>
      </trkpt>
      <trkpt lat="43.1757030" lon="-1.3462100">
        <ele>161.0</ele>
        <time>2020-07-29T12:18:15Z</time>
      </trkpt>
      <trkpt lat="43.1755850" lon="-1.3465010">
        <ele>161.4</ele>
        <time>2020-07-29T12:18:21Z</time>
      </trkpt>
      <trkpt lat="43.1755570" lon="-1.3465500">
        <ele>161.4</ele>
        <time>2020-07-29T12:18:22Z</time>
      </trkpt>
      <trkpt lat="43.1755290" lon="-1.3466030">
        <ele>161.4</ele>
        <time>2020-07-29T12:18:23Z</time>
      </trkpt>
      <trkpt lat="43.1755090" lon="-1.3466610">
        <ele>161.6</ele>
        <time>2020-07-29T12:18:24Z</time>
      </trkpt>
      <trkpt lat="43.1754570" lon="-1.3467760">
        <ele>161.4</ele>
        <time>2020-07-29T12:18:26Z</time>
      </trkpt>
      <trkpt lat="43.1754240" lon="-1.3468290">
        <ele>161.4</ele>
        <time>2020-07-29T12:18:27Z</time>
      </trkpt>
      <trkpt lat="43.1753550" lon="-1.3469300">
        <ele>161.4</ele>
        <time>2020-07-29T12:18:29Z</time>
      </trkpt>
      <trkpt lat="43.1752860" lon="-1.3470310">
        <ele>161.6</ele>
        <time>2020-07-29T12:18:31Z</time>
      </trkpt>
      <trkpt lat="43.1752550" lon="-1.3470810">
        <ele>161.6</ele>
        <time>2020-07-29T12:18:32Z</time>
      </trkpt>
      <trkpt lat="43.1752250" lon="-1.3471310">
        <ele>161.8</ele>
        <time>2020-07-29T12:18:33Z</time>
      </trkpt>
      <trkpt lat="43.1751620" lon="-1.3472260">
        <ele>162.0</ele>
        <time>2020-07-29T12:18:35Z</time>
      </trkpt>
      <trkpt lat="43.1751380" lon="-1.3472800">
        <ele>162.0</ele>
        <time>2020-07-29T12:18:36Z</time>
      </trkpt>
      <trkpt lat="43.1751420" lon="-1.3474010">
        <ele>162.0</ele>
        <time>2020-07-29T12:18:38Z</time>
      </trkpt>
      <trkpt lat="43.1752470" lon="-1.3475320">
        <ele>161.6</ele>
        <time>2020-07-29T12:18:41Z</time>
      </trkpt>
      <trkpt lat="43.1754790" lon="-1.3478010">
        <ele>161.4</ele>
        <time>2020-07-29T12:18:47Z</time>
      </trkpt>
      <trkpt lat="43.1756790" lon="-1.3480260">
        <ele>162.0</ele>
        <time>2020-07-29T12:18:52Z</time>
      </trkpt>
      <trkpt lat="43.1757190" lon="-1.3480580">
        <ele>162.0</ele>
        <time>2020-07-29T12:18:53Z</time>
      </trkpt>
      <trkpt lat="43.1757560" lon="-1.3480920">
        <ele>162.0</ele>
        <time>2020-07-29T12:18:54Z</time>
      </trkpt>
      <trkpt lat="43.1758640" lon="-1.3482700">
        <ele>162.2</ele>
        <time>2020-07-29T12:18:58Z</time>
      </trkpt>
      <trkpt lat="43.1758810" lon="-1.3483700">
        <ele>162.6</ele>
        <time>2020-07-29T12:19:00Z</time>
      </trkpt>
      <trkpt lat="43.1758840" lon="-1.3484220">
        <ele>162.8</ele>
        <time>2020-07-29T12:19:01Z</time>
      </trkpt>
      <trkpt lat="43.1758850" lon="-1.3484740">
        <ele>163.0</ele>
        <time>2020-07-29T12:19:02Z</time>
      </trkpt>
      <trkpt lat="43.1758570" lon="-1.3486160">
        <ele>163.8</ele>
        <time>2020-07-29T12:19:05Z</time>
      </trkpt>
      <trkpt lat="43.1758430" lon="-1.3486590">
        <ele>164.0</ele>
        <time>2020-07-29T12:19:06Z</time>
      </trkpt>
      <trkpt lat="43.1758280" lon="-1.3487020">
        <ele>164.0</ele>
        <time>2020-07-29T12:19:07Z</time>
      </trkpt>
      <trkpt lat="43.1758120" lon="-1.3487410">
        <ele>164.2</ele>
        <time>2020-07-29T12:19:08Z</time>
      </trkpt>
      <trkpt lat="43.1757630" lon="-1.3488490">
        <ele>165.0</ele>
        <time>2020-07-29T12:19:11Z</time>
      </trkpt>
      <trkpt lat="43.1756950" lon="-1.3489910">
        <ele>165.8</ele>
        <time>2020-07-29T12:19:15Z</time>
      </trkpt>
      <trkpt lat="43.1756560" lon="-1.3490550">
        <ele>166.2</ele>
        <time>2020-07-29T12:19:17Z</time>
      </trkpt>
      <trkpt lat="43.1756120" lon="-1.3491400">
        <ele>167.0</ele>
        <time>2020-07-29T12:19:20Z</time>
      </trkpt>
      <trkpt lat="43.1755990" lon="-1.3491630">
        <ele>167.6</ele>
        <time>2020-07-29T12:19:21Z</time>
      </trkpt>
      <trkpt lat="43.1755890" lon="-1.3491840">
        <ele>167.8</ele>
        <time>2020-07-29T12:19:22Z</time>
      </trkpt>
      <trkpt lat="43.1755450" lon="-1.3492600">
        <ele>168.4</ele>
        <time>2020-07-29T12:19:28Z</time>
      </trkpt>
      <trkpt lat="43.1755430" lon="-1.3492540">
        <ele>168.4</ele>
        <time>2020-07-29T12:19:31Z</time>
      </trkpt>
      <trkpt lat="43.1755440" lon="-1.3492560">
        <ele>167.8</ele>
        <time>2020-07-29T12:19:37Z</time>
      </trkpt>
      <trkpt lat="43.1755440" lon="-1.3492560">
        <ele>168.0</ele>
        <time>2020-07-29T12:19:39Z</time>
      </trkpt>
      <trkpt lat="43.1755450" lon="-1.3492570">
        <ele>168.6</ele>
        <time>2020-07-29T12:19:42Z</time>
      </trkpt>
      <trkpt lat="43.1755460" lon="-1.3492590">
        <ele>168.4</ele>
        <time>2020-07-29T12:19:47Z</time>
      </trkpt>
      <trkpt lat="43.1755420" lon="-1.3492640">
        <ele>168.4</ele>
        <time>2020-07-29T12:19:52Z</time>
      </trkpt>
      <trkpt lat="43.1755200" lon="-1.3492770">
        <ele>168.4</ele>
        <time>2020-07-29T12:19:57Z</time>
      </trkpt>
      <trkpt lat="43.1754930" lon="-1.3492830">
        <ele>168.4</ele>
        <time>2020-07-29T12:19:59Z</time>
      </trkpt>
      <trkpt lat="43.1754170" lon="-1.3493770">
        <ele>168.6</ele>
        <time>2020-07-29T12:20:03Z</time>
      </trkpt>
      <trkpt lat="43.1753270" lon="-1.3494960">
        <ele>169.4</ele>
        <time>2020-07-29T12:20:07Z</time>
      </trkpt>
      <trkpt lat="43.1753030" lon="-1.3495250">
        <ele>169.6</ele>
        <time>2020-07-29T12:20:08Z</time>
      </trkpt>
      <trkpt lat="43.1752560" lon="-1.3495810">
        <ele>170.0</ele>
        <time>2020-07-29T12:20:10Z</time>
      </trkpt>
      <trkpt lat="43.1752340" lon="-1.3496100">
        <ele>170.2</ele>
        <time>2020-07-29T12:20:11Z</time>
      </trkpt>
      <trkpt lat="43.1752130" lon="-1.3496400">
        <ele>170.6</ele>
        <time>2020-07-29T12:20:12Z</time>
      </trkpt>
      <trkpt lat="43.1751920" lon="-1.3496690">
        <ele>171.0</ele>
        <time>2020-07-29T12:20:13Z</time>
      </trkpt>
      <trkpt lat="43.1751370" lon="-1.3497700">
        <ele>171.8</ele>
        <time>2020-07-29T12:20:16Z</time>
      </trkpt>
      <trkpt lat="43.1751210" lon="-1.3498930">
        <ele>172.4</ele>
        <time>2020-07-29T12:20:19Z</time>
      </trkpt>
      <trkpt lat="43.1751560" lon="-1.3500050">
        <ele>172.8</ele>
        <time>2020-07-29T12:20:22Z</time>
      </trkpt>
      <trkpt lat="43.1751780" lon="-1.3500330">
        <ele>173.2</ele>
        <time>2020-07-29T12:20:23Z</time>
      </trkpt>
      <trkpt lat="43.1752060" lon="-1.3500550">
        <ele>173.6</ele>
        <time>2020-07-29T12:20:24Z</time>
      </trkpt>
      <trkpt lat="43.1752730" lon="-1.3500720">
        <ele>174.0</ele>
        <time>2020-07-29T12:20:26Z</time>
      </trkpt>
      <trkpt lat="43.1753090" lon="-1.3500680">
        <ele>174.2</ele>
        <time>2020-07-29T12:20:27Z</time>
      </trkpt>
      <trkpt lat="43.1754030" lon="-1.3500150">
        <ele>174.6</ele>
        <time>2020-07-29T12:20:30Z</time>
      </trkpt>
      <trkpt lat="43.1754540" lon="-1.3499520">
        <ele>174.8</ele>
        <time>2020-07-29T12:20:32Z</time>
      </trkpt>
      <trkpt lat="43.1754790" lon="-1.3499180">
        <ele>175.0</ele>
        <time>2020-07-29T12:20:33Z</time>
      </trkpt>
      <trkpt lat="43.1755920" lon="-1.3497620">
        <ele>176.2</ele>
        <time>2020-07-29T12:20:38Z</time>
      </trkpt>
      <trkpt lat="43.1756450" lon="-1.3497010">
        <ele>176.6</ele>
        <time>2020-07-29T12:20:40Z</time>
      </trkpt>
      <trkpt lat="43.1756970" lon="-1.3496440">
        <ele>177.4</ele>
        <time>2020-07-29T12:20:42Z</time>
      </trkpt>
      <trkpt lat="43.1758270" lon="-1.3495140">
        <ele>178.4</ele>
        <time>2020-07-29T12:20:47Z</time>
      </trkpt>
      <trkpt lat="43.1758540" lon="-1.3494920">
        <ele>178.6</ele>
        <time>2020-07-29T12:20:48Z</time>
      </trkpt>
      <trkpt lat="43.1759740" lon="-1.3494230">
        <ele>179.2</ele>
        <time>2020-07-29T12:20:52Z</time>
      </trkpt>
      <trkpt lat="43.1760360" lon="-1.3493920">
        <ele>179.6</ele>
        <time>2020-07-29T12:20:54Z</time>
      </trkpt>
      <trkpt lat="43.1760990" lon="-1.3493560">
        <ele>180.0</ele>
        <time>2020-07-29T12:20:56Z</time>
      </trkpt>
      <trkpt lat="43.1761630" lon="-1.3493240">
        <ele>180.8</ele>
        <time>2020-07-29T12:20:58Z</time>
      </trkpt>
      <trkpt lat="43.1762580" lon="-1.3492810">
        <ele>181.8</ele>
        <time>2020-07-29T12:21:01Z</time>
      </trkpt>
      <trkpt lat="43.1762890" lon="-1.3492650">
        <ele>182.0</ele>
        <time>2020-07-29T12:21:02Z</time>
      </trkpt>
      <trkpt lat="43.1763830" lon="-1.3492320">
        <ele>182.6</ele>
        <time>2020-07-29T12:21:05Z</time>
      </trkpt>
      <trkpt lat="43.1764490" lon="-1.3492310">
        <ele>183.0</ele>
        <time>2020-07-29T12:21:07Z</time>
      </trkpt>
      <trkpt lat="43.1765770" lon="-1.3492600">
        <ele>184.2</ele>
        <time>2020-07-29T12:21:11Z</time>
      </trkpt>
      <trkpt lat="43.1766830" lon="-1.3493450">
        <ele>185.4</ele>
        <time>2020-07-29T12:21:15Z</time>
      </trkpt>
      <trkpt lat="43.1767280" lon="-1.3494070">
        <ele>186.0</ele>
        <time>2020-07-29T12:21:17Z</time>
      </trkpt>
      <trkpt lat="43.1767960" lon="-1.3495060">
        <ele>186.4</ele>
        <time>2020-07-29T12:21:20Z</time>
      </trkpt>
      <trkpt lat="43.1768870" lon="-1.3496930">
        <ele>187.2</ele>
        <time>2020-07-29T12:21:25Z</time>
      </trkpt>
      <trkpt lat="43.1769010" lon="-1.3497350">
        <ele>187.6</ele>
        <time>2020-07-29T12:21:26Z</time>
      </trkpt>
      <trkpt lat="43.1769620" lon="-1.3499000">
        <ele>189.0</ele>
        <time>2020-07-29T12:21:30Z</time>
      </trkpt>
      <trkpt lat="43.1770030" lon="-1.3500270">
        <ele>189.8</ele>
        <time>2020-07-29T12:21:33Z</time>
      </trkpt>
      <trkpt lat="43.1770180" lon="-1.3500670">
        <ele>190.2</ele>
        <time>2020-07-29T12:21:34Z</time>
      </trkpt>
      <trkpt lat="43.1771270" lon="-1.3502610">
        <ele>191.0</ele>
        <time>2020-07-29T12:21:39Z</time>
      </trkpt>
      <trkpt lat="43.1771570" lon="-1.3502890">
        <ele>191.2</ele>
        <time>2020-07-29T12:21:40Z</time>
      </trkpt>
      <trkpt lat="43.1772200" lon="-1.3503120">
        <ele>191.2</ele>
        <time>2020-07-29T12:21:42Z</time>
      </trkpt>
      <trkpt lat="43.1772840" lon="-1.3502950">
        <ele>191.4</ele>
        <time>2020-07-29T12:21:44Z</time>
      </trkpt>
      <trkpt lat="43.1774110" lon="-1.3502680">
        <ele>192.4</ele>
        <time>2020-07-29T12:21:48Z</time>
      </trkpt>
      <trkpt lat="43.1774710" lon="-1.3502810">
        <ele>192.6</ele>
        <time>2020-07-29T12:21:50Z</time>
      </trkpt>
      <trkpt lat="43.1775580" lon="-1.3503320">
        <ele>193.6</ele>
        <time>2020-07-29T12:21:53Z</time>
      </trkpt>
      <trkpt lat="43.1776360" lon="-1.3504080">
        <ele>194.0</ele>
        <time>2020-07-29T12:21:56Z</time>
      </trkpt>
      <trkpt lat="43.1776620" lon="-1.3504420">
        <ele>194.2</ele>
        <time>2020-07-29T12:21:57Z</time>
      </trkpt>
      <trkpt lat="43.1777080" lon="-1.3505140">
        <ele>194.6</ele>
        <time>2020-07-29T12:21:59Z</time>
      </trkpt>
      <trkpt lat="43.1777680" lon="-1.3506050">
        <ele>195.4</ele>
        <time>2020-07-29T12:22:02Z</time>
      </trkpt>
      <trkpt lat="43.1777850" lon="-1.3506430">
        <ele>195.6</ele>
        <time>2020-07-29T12:22:03Z</time>
      </trkpt>
      <trkpt lat="43.1778290" lon="-1.3508060">
        <ele>196.6</ele>
        <time>2020-07-29T12:22:07Z</time>
      </trkpt>
      <trkpt lat="43.1778370" lon="-1.3508480">
        <ele>197.0</ele>
        <time>2020-07-29T12:22:08Z</time>
      </trkpt>
      <trkpt lat="43.1778410" lon="-1.3508910">
        <ele>197.4</ele>
        <time>2020-07-29T12:22:09Z</time>
      </trkpt>
      <trkpt lat="43.1778310" lon="-1.3509800">
        <ele>197.8</ele>
        <time>2020-07-29T12:22:11Z</time>
      </trkpt>
      <trkpt lat="43.1777970" lon="-1.3510630">
        <ele>198.2</ele>
        <time>2020-07-29T12:22:13Z</time>
      </trkpt>
      <trkpt lat="43.1776740" lon="-1.3511770">
        <ele>199.0</ele>
        <time>2020-07-29T12:22:17Z</time>
      </trkpt>
      <trkpt lat="43.1776390" lon="-1.3511880">
        <ele>199.2</ele>
        <time>2020-07-29T12:22:18Z</time>
      </trkpt>
      <trkpt lat="43.1774650" lon="-1.3511460">
        <ele>200.0</ele>
        <time>2020-07-29T12:22:23Z</time>
      </trkpt>
      <trkpt lat="43.1773110" lon="-1.3510250">
        <ele>201.0</ele>
        <time>2020-07-29T12:22:28Z</time>
      </trkpt>
      <trkpt lat="43.1772290" lon="-1.3509440">
        <ele>201.8</ele>
        <time>2020-07-29T12:22:31Z</time>
      </trkpt>
      <trkpt lat="43.1772030" lon="-1.3509180">
        <ele>202.0</ele>
        <time>2020-07-29T12:22:32Z</time>
      </trkpt>
      <trkpt lat="43.1770880" lon="-1.3508140">
        <ele>203.2</ele>
        <time>2020-07-29T12:22:36Z</time>
      </trkpt>
      <trkpt lat="43.1770270" lon="-1.3507540">
        <ele>203.6</ele>
        <time>2020-07-29T12:22:38Z</time>
      </trkpt>
      <trkpt lat="43.1769260" lon="-1.3506880">
        <ele>204.4</ele>
        <time>2020-07-29T12:22:41Z</time>
      </trkpt>
      <trkpt lat="43.1768890" lon="-1.3506740">
        <ele>204.8</ele>
        <time>2020-07-29T12:22:42Z</time>
      </trkpt>
      <trkpt lat="43.1768520" lon="-1.3506770">
        <ele>205.2</ele>
        <time>2020-07-29T12:22:43Z</time>
      </trkpt>
      <trkpt lat="43.1768150" lon="-1.3506930">
        <ele>205.4</ele>
        <time>2020-07-29T12:22:44Z</time>
      </trkpt>
      <trkpt lat="43.1767070" lon="-1.3507530">
        <ele>206.2</ele>
        <time>2020-07-29T12:22:47Z</time>
      </trkpt>
      <trkpt lat="43.1766720" lon="-1.3507750">
        <ele>206.4</ele>
        <time>2020-07-29T12:22:48Z</time>
      </trkpt>
      <trkpt lat="43.1766340" lon="-1.3507970">
        <ele>206.6</ele>
        <time>2020-07-29T12:22:49Z</time>
      </trkpt>
      <trkpt lat="43.1765980" lon="-1.3508200">
        <ele>206.8</ele>
        <time>2020-07-29T12:22:50Z</time>
      </trkpt>
      <trkpt lat="43.1765000" lon="-1.3508980">
        <ele>207.4</ele>
        <time>2020-07-29T12:22:53Z</time>
      </trkpt>
      <trkpt lat="43.1764680" lon="-1.3509230">
        <ele>207.8</ele>
        <time>2020-07-29T12:22:54Z</time>
      </trkpt>
      <trkpt lat="43.1764070" lon="-1.3509710">
        <ele>208.2</ele>
        <time>2020-07-29T12:22:56Z</time>
      </trkpt>
      <trkpt lat="43.1763770" lon="-1.3509950">
        <ele>208.6</ele>
        <time>2020-07-29T12:22:57Z</time>
      </trkpt>
      <trkpt lat="43.1763460" lon="-1.3510180">
        <ele>208.8</ele>
        <time>2020-07-29T12:22:58Z</time>
      </trkpt>
      <trkpt lat="43.1762900" lon="-1.3510730">
        <ele>209.6</ele>
        <time>2020-07-29T12:23:00Z</time>
      </trkpt>
      <trkpt lat="43.1762620" lon="-1.3511000">
        <ele>209.8</ele>
        <time>2020-07-29T12:23:01Z</time>
      </trkpt>
      <trkpt lat="43.1762030" lon="-1.3511520">
        <ele>210.2</ele>
        <time>2020-07-29T12:23:03Z</time>
      </trkpt>
      <trkpt lat="43.1760790" lon="-1.3513110">
        <ele>211.0</ele>
        <time>2020-07-29T12:23:08Z</time>
      </trkpt>
      <trkpt lat="43.1760430" lon="-1.3513830">
        <ele>211.6</ele>
        <time>2020-07-29T12:23:10Z</time>
      </trkpt>
      <trkpt lat="43.1760260" lon="-1.3514200">
        <ele>212.0</ele>
        <time>2020-07-29T12:23:11Z</time>
      </trkpt>
      <trkpt lat="43.1759590" lon="-1.3516180">
        <ele>213.2</ele>
        <time>2020-07-29T12:23:16Z</time>
      </trkpt>
      <trkpt lat="43.1759350" lon="-1.3516960">
        <ele>213.8</ele>
        <time>2020-07-29T12:23:18Z</time>
      </trkpt>
      <trkpt lat="43.1759250" lon="-1.3517360">
        <ele>214.0</ele>
        <time>2020-07-29T12:23:19Z</time>
      </trkpt>
      <trkpt lat="43.1759070" lon="-1.3518220">
        <ele>214.2</ele>
        <time>2020-07-29T12:23:21Z</time>
      </trkpt>
      <trkpt lat="43.1758850" lon="-1.3519610">
        <ele>214.8</ele>
        <time>2020-07-29T12:23:24Z</time>
      </trkpt>
      <trkpt lat="43.1758750" lon="-1.3520530">
        <ele>215.6</ele>
        <time>2020-07-29T12:23:26Z</time>
      </trkpt>
      <trkpt lat="43.1758680" lon="-1.3522970">
        <ele>216.6</ele>
        <time>2020-07-29T12:23:31Z</time>
      </trkpt>
      <trkpt lat="43.1758730" lon="-1.3523910">
        <ele>217.2</ele>
        <time>2020-07-29T12:23:33Z</time>
      </trkpt>
      <trkpt lat="43.1758850" lon="-1.3524830">
        <ele>217.8</ele>
        <time>2020-07-29T12:23:35Z</time>
      </trkpt>
      <trkpt lat="43.1758940" lon="-1.3526590">
        <ele>218.8</ele>
        <time>2020-07-29T12:23:39Z</time>
      </trkpt>
      <trkpt lat="43.1758990" lon="-1.3527410">
        <ele>219.2</ele>
        <time>2020-07-29T12:23:41Z</time>
      </trkpt>
      <trkpt lat="43.1759090" lon="-1.3528850">
        <ele>220.0</ele>
        <time>2020-07-29T12:23:44Z</time>
      </trkpt>
      <trkpt lat="43.1759170" lon="-1.3530810">
        <ele>220.8</ele>
        <time>2020-07-29T12:23:48Z</time>
      </trkpt>
      <trkpt lat="43.1759210" lon="-1.3531310">
        <ele>221.0</ele>
        <time>2020-07-29T12:23:49Z</time>
      </trkpt>
      <trkpt lat="43.1759230" lon="-1.3531800">
        <ele>221.4</ele>
        <time>2020-07-29T12:23:50Z</time>
      </trkpt>
      <trkpt lat="43.1759130" lon="-1.3533260">
        <ele>222.0</ele>
        <time>2020-07-29T12:23:53Z</time>
      </trkpt>
      <trkpt lat="43.1758770" lon="-1.3535170">
        <ele>223.2</ele>
        <time>2020-07-29T12:23:57Z</time>
      </trkpt>
      <trkpt lat="43.1757370" lon="-1.3537000">
        <ele>224.4</ele>
        <time>2020-07-29T12:24:02Z</time>
      </trkpt>
      <trkpt lat="43.1755580" lon="-1.3537870">
        <ele>225.2</ele>
        <time>2020-07-29T12:24:07Z</time>
      </trkpt>
      <trkpt lat="43.1755240" lon="-1.3537950">
        <ele>225.4</ele>
        <time>2020-07-29T12:24:08Z</time>
      </trkpt>
      <trkpt lat="43.1753740" lon="-1.3538200">
        <ele>226.4</ele>
        <time>2020-07-29T12:24:12Z</time>
      </trkpt>
      <trkpt lat="43.1752990" lon="-1.3538280">
        <ele>226.8</ele>
        <time>2020-07-29T12:24:14Z</time>
      </trkpt>
      <trkpt lat="43.1751470" lon="-1.3538730">
        <ele>227.6</ele>
        <time>2020-07-29T12:24:18Z</time>
      </trkpt>
      <trkpt lat="43.1750410" lon="-1.3539360">
        <ele>228.6</ele>
        <time>2020-07-29T12:24:21Z</time>
      </trkpt>
      <trkpt lat="43.1749460" lon="-1.3540250">
        <ele>229.8</ele>
        <time>2020-07-29T12:24:24Z</time>
      </trkpt>
      <trkpt lat="43.1747960" lon="-1.3541990">
        <ele>230.8</ele>
        <time>2020-07-29T12:24:29Z</time>
      </trkpt>
      <trkpt lat="43.1746900" lon="-1.3544150">
        <ele>232.0</ele>
        <time>2020-07-29T12:24:34Z</time>
      </trkpt>
      <trkpt lat="43.1746540" lon="-1.3545560">
        <ele>233.0</ele>
        <time>2020-07-29T12:24:37Z</time>
      </trkpt>
      <trkpt lat="43.1746470" lon="-1.3546020">
        <ele>233.4</ele>
        <time>2020-07-29T12:24:38Z</time>
      </trkpt>
      <trkpt lat="43.1746350" lon="-1.3547260">
        <ele>234.4</ele>
        <time>2020-07-29T12:24:41Z</time>
      </trkpt>
      <trkpt lat="43.1746210" lon="-1.3547670">
        <ele>234.6</ele>
        <time>2020-07-29T12:24:42Z</time>
      </trkpt>
      <trkpt lat="43.1745760" lon="-1.3548970">
        <ele>235.4</ele>
        <time>2020-07-29T12:24:45Z</time>
      </trkpt>
      <trkpt lat="43.1745500" lon="-1.3550480">
        <ele>236.2</ele>
        <time>2020-07-29T12:24:48Z</time>
      </trkpt>
      <trkpt lat="43.1745370" lon="-1.3551500">
        <ele>236.8</ele>
        <time>2020-07-29T12:24:50Z</time>
      </trkpt>
      <trkpt lat="43.1745130" lon="-1.3553380">
        <ele>237.8</ele>
        <time>2020-07-29T12:24:54Z</time>
      </trkpt>
      <trkpt lat="43.1745000" lon="-1.3553800">
        <ele>238.2</ele>
        <time>2020-07-29T12:24:55Z</time>
      </trkpt>
      <trkpt lat="43.1744520" lon="-1.3554890">
        <ele>239.0</ele>
        <time>2020-07-29T12:24:58Z</time>
      </trkpt>
      <trkpt lat="43.1743950" lon="-1.3556430">
        <ele>240.2</ele>
        <time>2020-07-29T12:25:02Z</time>
      </trkpt>
      <trkpt lat="43.1743690" lon="-1.3557260">
        <ele>240.6</ele>
        <time>2020-07-29T12:25:04Z</time>
      </trkpt>
      <trkpt lat="43.1743000" lon="-1.3559440">
        <ele>241.2</ele>
        <time>2020-07-29T12:25:09Z</time>
      </trkpt>
      <trkpt lat="43.1742570" lon="-1.3560840">
        <ele>242.2</ele>
        <time>2020-07-29T12:25:12Z</time>
      </trkpt>
      <trkpt lat="43.1742450" lon="-1.3561290">
        <ele>242.6</ele>
        <time>2020-07-29T12:25:13Z</time>
      </trkpt>
      <trkpt lat="43.1741650" lon="-1.3563850">
        <ele>243.6</ele>
        <time>2020-07-29T12:25:19Z</time>
      </trkpt>
      <trkpt lat="43.1740840" lon="-1.3565410">
        <ele>244.6</ele>
        <time>2020-07-29T12:25:23Z</time>
      </trkpt>
      <trkpt lat="43.1739970" lon="-1.3566940">
        <ele>245.4</ele>
        <time>2020-07-29T12:25:27Z</time>
      </trkpt>
      <trkpt lat="43.1739760" lon="-1.3567320">
        <ele>245.6</ele>
        <time>2020-07-29T12:25:28Z</time>
      </trkpt>
      <trkpt lat="43.1738690" lon="-1.3569720">
        <ele>247.0</ele>
        <time>2020-07-29T12:25:34Z</time>
      </trkpt>
      <trkpt lat="43.1738540" lon="-1.3570150">
        <ele>247.2</ele>
        <time>2020-07-29T12:25:35Z</time>
      </trkpt>
      <trkpt lat="43.1738330" lon="-1.3571050">
        <ele>248.0</ele>
        <time>2020-07-29T12:25:37Z</time>
      </trkpt>
      <trkpt lat="43.1738170" lon="-1.3572890">
        <ele>248.8</ele>
        <time>2020-07-29T12:25:41Z</time>
      </trkpt>
      <trkpt lat="43.1738180" lon="-1.3573350">
        <ele>249.2</ele>
        <time>2020-07-29T12:25:42Z</time>
      </trkpt>
      <trkpt lat="43.1738360" lon="-1.3576130">
        <ele>250.0</ele>
        <time>2020-07-29T12:25:48Z</time>
      </trkpt>
      <trkpt lat="43.1738410" lon="-1.3576600">
        <ele>250.6</ele>
        <time>2020-07-29T12:25:49Z</time>
      </trkpt>
      <trkpt lat="43.1738630" lon="-1.3577550">
        <ele>251.8</ele>
        <time>2020-07-29T12:25:51Z</time>
      </trkpt>
      <trkpt lat="43.1739030" lon="-1.3578950">
        <ele>252.4</ele>
        <time>2020-07-29T12:25:54Z</time>
      </trkpt>
      <trkpt lat="43.1739400" lon="-1.3579880">
        <ele>253.0</ele>
        <time>2020-07-29T12:25:56Z</time>
      </trkpt>
      <trkpt lat="43.1740500" lon="-1.3581360">
        <ele>253.6</ele>
        <time>2020-07-29T12:26:00Z</time>
      </trkpt>
      <trkpt lat="43.1741620" lon="-1.3581800">
        <ele>254.0</ele>
        <time>2020-07-29T12:26:03Z</time>
      </trkpt>
      <trkpt lat="43.1742400" lon="-1.3581840">
        <ele>254.6</ele>
        <time>2020-07-29T12:26:05Z</time>
      </trkpt>
      <trkpt lat="43.1743140" lon="-1.3581840">
        <ele>255.2</ele>
        <time>2020-07-29T12:26:07Z</time>
      </trkpt>
      <trkpt lat="43.1745160" lon="-1.3581610">
        <ele>256.2</ele>
        <time>2020-07-29T12:26:13Z</time>
      </trkpt>
      <trkpt lat="43.1745510" lon="-1.3581580">
        <ele>256.4</ele>
        <time>2020-07-29T12:26:14Z</time>
      </trkpt>
      <trkpt lat="43.1746540" lon="-1.3581600">
        <ele>257.4</ele>
        <time>2020-07-29T12:26:17Z</time>
      </trkpt>
      <trkpt lat="43.1747520" lon="-1.3581460">
        <ele>258.6</ele>
        <time>2020-07-29T12:26:20Z</time>
      </trkpt>
      <trkpt lat="43.1748150" lon="-1.3581370">
        <ele>259.0</ele>
        <time>2020-07-29T12:26:22Z</time>
      </trkpt>
      <trkpt lat="43.1749190" lon="-1.3581310">
        <ele>259.6</ele>
        <time>2020-07-29T12:26:25Z</time>
      </trkpt>
      <trkpt lat="43.1751020" lon="-1.3581510">
        <ele>260.4</ele>
        <time>2020-07-29T12:26:30Z</time>
      </trkpt>
      <trkpt lat="43.1751770" lon="-1.3581620">
        <ele>260.6</ele>
        <time>2020-07-29T12:26:32Z</time>
      </trkpt>
      <trkpt lat="43.1753690" lon="-1.3581540">
        <ele>261.8</ele>
        <time>2020-07-29T12:26:37Z</time>
      </trkpt>
      <trkpt lat="43.1754090" lon="-1.3581550">
        <ele>262.0</ele>
        <time>2020-07-29T12:26:38Z</time>
      </trkpt>
      <trkpt lat="43.1755570" lon="-1.3581710">
        <ele>262.8</ele>
        <time>2020-07-29T12:26:42Z</time>
      </trkpt>
      <trkpt lat="43.1756910" lon="-1.3581880">
        <ele>263.8</ele>
        <time>2020-07-29T12:26:46Z</time>
      </trkpt>
      <trkpt lat="43.1757230" lon="-1.3581970">
        <ele>264.0</ele>
        <time>2020-07-29T12:26:47Z</time>
      </trkpt>
      <trkpt lat="43.1758580" lon="-1.3582280">
        <ele>265.0</ele>
        <time>2020-07-29T12:26:52Z</time>
      </trkpt>
      <trkpt lat="43.1758920" lon="-1.3582310">
        <ele>265.4</ele>
        <time>2020-07-29T12:26:53Z</time>
      </trkpt>
      <trkpt lat="43.1759940" lon="-1.3582620">
        <ele>266.4</ele>
        <time>2020-07-29T12:26:56Z</time>
      </trkpt>
      <trkpt lat="43.1760900" lon="-1.3583100">
        <ele>267.0</ele>
        <time>2020-07-29T12:26:59Z</time>
      </trkpt>
      <trkpt lat="43.1761860" lon="-1.3583690">
        <ele>267.6</ele>
        <time>2020-07-29T12:27:02Z</time>
      </trkpt>
      <trkpt lat="43.1762990" lon="-1.3584480">
        <ele>268.8</ele>
        <time>2020-07-29T12:27:06Z</time>
      </trkpt>
      <trkpt lat="43.1763260" lon="-1.3584680">
        <ele>269.2</ele>
        <time>2020-07-29T12:27:07Z</time>
      </trkpt>
      <trkpt lat="43.1764350" lon="-1.3585500">
        <ele>270.0</ele>
        <time>2020-07-29T12:27:11Z</time>
      </trkpt>
      <trkpt lat="43.1765420" lon="-1.3586450">
        <ele>270.8</ele>
        <time>2020-07-29T12:27:15Z</time>
      </trkpt>
      <trkpt lat="43.1766030" lon="-1.3586990">
        <ele>271.2</ele>
        <time>2020-07-29T12:27:17Z</time>
      </trkpt>
      <trkpt lat="43.1767180" lon="-1.3587940">
        <ele>272.4</ele>
        <time>2020-07-29T12:27:21Z</time>
      </trkpt>
      <trkpt lat="43.1767700" lon="-1.3588440">
        <ele>272.8</ele>
        <time>2020-07-29T12:27:23Z</time>
      </trkpt>
      <trkpt lat="43.1768420" lon="-1.3589310">
        <ele>273.6</ele>
        <time>2020-07-29T12:27:26Z</time>
      </trkpt>
      <trkpt lat="43.1769510" lon="-1.3590830">
        <ele>274.8</ele>
        <time>2020-07-29T12:27:31Z</time>
      </trkpt>
      <trkpt lat="43.1769720" lon="-1.3591130">
        <ele>274.8</ele>
        <time>2020-07-29T12:27:32Z</time>
      </trkpt>
      <trkpt lat="43.1770600" lon="-1.3592540">
        <ele>275.8</ele>
        <time>2020-07-29T12:27:36Z</time>
      </trkpt>
      <trkpt lat="43.1771180" lon="-1.3593760">
        <ele>276.4</ele>
        <time>2020-07-29T12:27:39Z</time>
      </trkpt>
      <trkpt lat="43.1771520" lon="-1.3595160">
        <ele>276.8</ele>
        <time>2020-07-29T12:27:42Z</time>
      </trkpt>
      <trkpt lat="43.1771900" lon="-1.3597430">
        <ele>278.0</ele>
        <time>2020-07-29T12:27:47Z</time>
      </trkpt>
      <trkpt lat="43.1772400" lon="-1.3600030">
        <ele>279.0</ele>
        <time>2020-07-29T12:27:53Z</time>
      </trkpt>
      <trkpt lat="43.1772560" lon="-1.3600910">
        <ele>279.6</ele>
        <time>2020-07-29T12:27:55Z</time>
      </trkpt>
      <trkpt lat="43.1772780" lon="-1.3601750">
        <ele>280.2</ele>
        <time>2020-07-29T12:27:57Z</time>
      </trkpt>
      <trkpt lat="43.1773270" lon="-1.3603390">
        <ele>281.4</ele>
        <time>2020-07-29T12:28:01Z</time>
      </trkpt>
      <trkpt lat="43.1773400" lon="-1.3603820">
        <ele>281.6</ele>
        <time>2020-07-29T12:28:02Z</time>
      </trkpt>
      <trkpt lat="43.1774220" lon="-1.3605890">
        <ele>282.8</ele>
        <time>2020-07-29T12:28:07Z</time>
      </trkpt>
      <trkpt lat="43.1774500" lon="-1.3607250">
        <ele>283.6</ele>
        <time>2020-07-29T12:28:10Z</time>
      </trkpt>
      <trkpt lat="43.1774470" lon="-1.3607760">
        <ele>283.8</ele>
        <time>2020-07-29T12:28:11Z</time>
      </trkpt>
      <trkpt lat="43.1774060" lon="-1.3610390">
        <ele>284.8</ele>
        <time>2020-07-29T12:28:16Z</time>
      </trkpt>
      <trkpt lat="43.1773950" lon="-1.3610910">
        <ele>285.0</ele>
        <time>2020-07-29T12:28:17Z</time>
      </trkpt>
      <trkpt lat="43.1773810" lon="-1.3614170">
        <ele>285.6</ele>
        <time>2020-07-29T12:28:23Z</time>
      </trkpt>
      <trkpt lat="43.1773890" lon="-1.3614710">
        <ele>286.0</ele>
        <time>2020-07-29T12:28:24Z</time>
      </trkpt>
      <trkpt lat="43.1774010" lon="-1.3615200">
        <ele>286.2</ele>
        <time>2020-07-29T12:28:25Z</time>
      </trkpt>
      <trkpt lat="43.1774710" lon="-1.3616740">
        <ele>287.2</ele>
        <time>2020-07-29T12:28:29Z</time>
      </trkpt>
      <trkpt lat="43.1775590" lon="-1.3618570">
        <ele>288.4</ele>
        <time>2020-07-29T12:28:34Z</time>
      </trkpt>
      <trkpt lat="43.1775870" lon="-1.3619830">
        <ele>289.0</ele>
        <time>2020-07-29T12:28:37Z</time>
      </trkpt>
      <trkpt lat="43.1775830" lon="-1.3620780">
        <ele>289.4</ele>
        <time>2020-07-29T12:28:39Z</time>
      </trkpt>
      <trkpt lat="43.1775590" lon="-1.3622630">
        <ele>290.2</ele>
        <time>2020-07-29T12:28:43Z</time>
      </trkpt>
      <trkpt lat="43.1775340" lon="-1.3623480">
        <ele>290.6</ele>
        <time>2020-07-29T12:28:45Z</time>
      </trkpt>
      <trkpt lat="43.1774670" lon="-1.3624930">
        <ele>291.4</ele>
        <time>2020-07-29T12:28:49Z</time>
      </trkpt>
      <trkpt lat="43.1774270" lon="-1.3625710">
        <ele>291.6</ele>
        <time>2020-07-29T12:28:51Z</time>
      </trkpt>
      <trkpt lat="43.1773480" lon="-1.3627790">
        <ele>292.8</ele>
        <time>2020-07-29T12:28:56Z</time>
      </trkpt>
      <trkpt lat="43.1772970" lon="-1.3630180">
        <ele>293.8</ele>
        <time>2020-07-29T12:29:02Z</time>
      </trkpt>
      <trkpt lat="43.1772880" lon="-1.3630600">
        <ele>294.0</ele>
        <time>2020-07-29T12:29:03Z</time>
      </trkpt>
      <trkpt lat="43.1772790" lon="-1.3631010">
        <ele>294.2</ele>
        <time>2020-07-29T12:29:04Z</time>
      </trkpt>
      <trkpt lat="43.1772550" lon="-1.3632710">
        <ele>295.2</ele>
        <time>2020-07-29T12:29:08Z</time>
      </trkpt>
      <trkpt lat="43.1772420" lon="-1.3634920">
        <ele>296.4</ele>
        <time>2020-07-29T12:29:13Z</time>
      </trkpt>
      <trkpt lat="43.1772340" lon="-1.3635360">
        <ele>296.6</ele>
        <time>2020-07-29T12:29:14Z</time>
      </trkpt>
      <trkpt lat="43.1772060" lon="-1.3636600">
        <ele>297.6</ele>
        <time>2020-07-29T12:29:17Z</time>
      </trkpt>
      <trkpt lat="43.1771320" lon="-1.3637670">
        <ele>298.6</ele>
        <time>2020-07-29T12:29:20Z</time>
      </trkpt>
      <trkpt lat="43.1770640" lon="-1.3638270">
        <ele>298.8</ele>
        <time>2020-07-29T12:29:22Z</time>
      </trkpt>
      <trkpt lat="43.1769730" lon="-1.3639860">
        <ele>299.6</ele>
        <time>2020-07-29T12:29:26Z</time>
      </trkpt>
      <trkpt lat="43.1769600" lon="-1.3640760">
        <ele>300.0</ele>
        <time>2020-07-29T12:29:28Z</time>
      </trkpt>
      <trkpt lat="43.1769710" lon="-1.3641610">
        <ele>300.6</ele>
        <time>2020-07-29T12:29:30Z</time>
      </trkpt>
      <trkpt lat="43.1770060" lon="-1.3642270">
        <ele>301.0</ele>
        <time>2020-07-29T12:29:32Z</time>
      </trkpt>
      <trkpt lat="43.1770600" lon="-1.3642720">
        <ele>301.4</ele>
        <time>2020-07-29T12:29:34Z</time>
      </trkpt>
      <trkpt lat="43.1772090" lon="-1.3643720">
        <ele>302.2</ele>
        <time>2020-07-29T12:29:39Z</time>
      </trkpt>
      <trkpt lat="43.1773040" lon="-1.3643970">
        <ele>302.6</ele>
        <time>2020-07-29T12:29:42Z</time>
      </trkpt>
      <trkpt lat="43.1773960" lon="-1.3644180">
        <ele>303.2</ele>
        <time>2020-07-29T12:29:45Z</time>
      </trkpt>
      <trkpt lat="43.1775310" lon="-1.3644580">
        <ele>304.4</ele>
        <time>2020-07-29T12:29:49Z</time>
      </trkpt>
      <trkpt lat="43.1775590" lon="-1.3644720">
        <ele>304.8</ele>
        <time>2020-07-29T12:29:50Z</time>
      </trkpt>
      <trkpt lat="43.1776960" lon="-1.3645150">
        <ele>305.4</ele>
        <time>2020-07-29T12:29:54Z</time>
      </trkpt>
      <trkpt lat="43.1777310" lon="-1.3645290">
        <ele>305.8</ele>
        <time>2020-07-29T12:29:55Z</time>
      </trkpt>
      <trkpt lat="43.1778460" lon="-1.3645930">
        <ele>306.8</ele>
        <time>2020-07-29T12:29:59Z</time>
      </trkpt>
      <trkpt lat="43.1779760" lon="-1.3647280">
        <ele>308.0</ele>
        <time>2020-07-29T12:30:04Z</time>
      </trkpt>
      <trkpt lat="43.1779980" lon="-1.3647670">
        <ele>308.4</ele>
        <time>2020-07-29T12:30:05Z</time>
      </trkpt>
      <trkpt lat="43.1780360" lon="-1.3649460">
        <ele>309.2</ele>
        <time>2020-07-29T12:30:09Z</time>
      </trkpt>
      <trkpt lat="43.1780390" lon="-1.3649900">
        <ele>309.6</ele>
        <time>2020-07-29T12:30:10Z</time>
      </trkpt>
      <trkpt lat="43.1780260" lon="-1.3651810">
        <ele>310.4</ele>
        <time>2020-07-29T12:30:14Z</time>
      </trkpt>
      <trkpt lat="43.1780000" lon="-1.3653140">
        <ele>311.4</ele>
        <time>2020-07-29T12:30:17Z</time>
      </trkpt>
      <trkpt lat="43.1779420" lon="-1.3655180">
        <ele>312.4</ele>
        <time>2020-07-29T12:30:22Z</time>
      </trkpt>
      <trkpt lat="43.1779270" lon="-1.3655560">
        <ele>312.6</ele>
        <time>2020-07-29T12:30:23Z</time>
      </trkpt>
      <trkpt lat="43.1778550" lon="-1.3657600">
        <ele>313.8</ele>
        <time>2020-07-29T12:30:28Z</time>
      </trkpt>
      <trkpt lat="43.1778430" lon="-1.3658010">
        <ele>314.0</ele>
        <time>2020-07-29T12:30:29Z</time>
      </trkpt>
      <trkpt lat="43.1777880" lon="-1.3659110">
        <ele>315.0</ele>
        <time>2020-07-29T12:30:32Z</time>
      </trkpt>
      <trkpt lat="43.1777490" lon="-1.3659870">
        <ele>315.6</ele>
        <time>2020-07-29T12:30:34Z</time>
      </trkpt>
      <trkpt lat="43.1776890" lon="-1.3661010">
        <ele>316.0</ele>
        <time>2020-07-29T12:30:37Z</time>
      </trkpt>
      <trkpt lat="43.1776120" lon="-1.3662440">
        <ele>317.2</ele>
        <time>2020-07-29T12:30:41Z</time>
      </trkpt>
      <trkpt lat="43.1774940" lon="-1.3664570">
        <ele>318.4</ele>
        <time>2020-07-29T12:30:47Z</time>
      </trkpt>
      <trkpt lat="43.1774530" lon="-1.3665300">
        <ele>318.8</ele>
        <time>2020-07-29T12:30:49Z</time>
      </trkpt>
      <trkpt lat="43.1773790" lon="-1.3666870">
        <ele>319.6</ele>
        <time>2020-07-29T12:30:53Z</time>
      </trkpt>
      <trkpt lat="43.1773400" lon="-1.3668120">
        <ele>320.4</ele>
        <time>2020-07-29T12:30:56Z</time>
      </trkpt>
      <trkpt lat="43.1773320" lon="-1.3668560">
        <ele>320.6</ele>
        <time>2020-07-29T12:30:57Z</time>
      </trkpt>
      <trkpt lat="43.1773070" lon="-1.3670750">
        <ele>322.0</ele>
        <time>2020-07-29T12:31:02Z</time>
      </trkpt>
      <trkpt lat="43.1773060" lon="-1.3672520">
        <ele>323.2</ele>
        <time>2020-07-29T12:31:06Z</time>
      </trkpt>
      <trkpt lat="43.1773140" lon="-1.3674750">
        <ele>324.0</ele>
        <time>2020-07-29T12:31:11Z</time>
      </trkpt>
      <trkpt lat="43.1773160" lon="-1.3675220">
        <ele>324.2</ele>
        <time>2020-07-29T12:31:12Z</time>
      </trkpt>
      <trkpt lat="43.1773200" lon="-1.3677950">
        <ele>325.2</ele>
        <time>2020-07-29T12:31:18Z</time>
      </trkpt>
      <trkpt lat="43.1773180" lon="-1.3678410">
        <ele>325.4</ele>
        <time>2020-07-29T12:31:19Z</time>
      </trkpt>
      <trkpt lat="43.1773200" lon="-1.3679790">
        <ele>326.4</ele>
        <time>2020-07-29T12:31:22Z</time>
      </trkpt>
      <trkpt lat="43.1773320" lon="-1.3681520">
        <ele>327.4</ele>
        <time>2020-07-29T12:31:26Z</time>
      </trkpt>
      <trkpt lat="43.1773370" lon="-1.3681960">
        <ele>327.8</ele>
        <time>2020-07-29T12:31:27Z</time>
      </trkpt>
      <trkpt lat="43.1773480" lon="-1.3683290">
        <ele>328.4</ele>
        <time>2020-07-29T12:31:30Z</time>
      </trkpt>
      <trkpt lat="43.1773540" lon="-1.3683690">
        <ele>328.6</ele>
        <time>2020-07-29T12:31:31Z</time>
      </trkpt>
      <trkpt lat="43.1773630" lon="-1.3684510">
        <ele>329.2</ele>
        <time>2020-07-29T12:31:33Z</time>
      </trkpt>
      <trkpt lat="43.1773710" lon="-1.3685330">
        <ele>329.6</ele>
        <time>2020-07-29T12:31:35Z</time>
      </trkpt>
      <trkpt lat="43.1774110" lon="-1.3687470">
        <ele>330.8</ele>
        <time>2020-07-29T12:31:40Z</time>
      </trkpt>
      <trkpt lat="43.1774170" lon="-1.3688420">
        <ele>331.0</ele>
        <time>2020-07-29T12:31:42Z</time>
      </trkpt>
      <trkpt lat="43.1774320" lon="-1.3689760">
        <ele>332.0</ele>
        <time>2020-07-29T12:31:45Z</time>
      </trkpt>
      <trkpt lat="43.1774290" lon="-1.3691860">
        <ele>333.2</ele>
        <time>2020-07-29T12:31:50Z</time>
      </trkpt>
      <trkpt lat="43.1774130" lon="-1.3694300">
        <ele>334.4</ele>
        <time>2020-07-29T12:31:56Z</time>
      </trkpt>
      <trkpt lat="43.1773630" lon="-1.3696170">
        <ele>335.8</ele>
        <time>2020-07-29T12:32:01Z</time>
      </trkpt>
      <trkpt lat="43.1773020" lon="-1.3697780">
        <ele>336.8</ele>
        <time>2020-07-29T12:32:05Z</time>
      </trkpt>
      <trkpt lat="43.1773470" lon="-1.3700070">
        <ele>337.6</ele>
        <time>2020-07-29T12:32:10Z</time>
      </trkpt>
      <trkpt lat="43.1774130" lon="-1.3700650">
        <ele>338.0</ele>
        <time>2020-07-29T12:32:12Z</time>
      </trkpt>
      <trkpt lat="43.1774860" lon="-1.3700830">
        <ele>338.2</ele>
        <time>2020-07-29T12:32:14Z</time>
      </trkpt>
      <trkpt lat="43.1775800" lon="-1.3700820">
        <ele>339.0</ele>
        <time>2020-07-29T12:32:17Z</time>
      </trkpt>
      <trkpt lat="43.1776600" lon="-1.3700730">
        <ele>340.0</ele>
        <time>2020-07-29T12:32:20Z</time>
      </trkpt>
      <trkpt lat="43.1777650" lon="-1.3700760">
        <ele>341.0</ele>
        <time>2020-07-29T12:32:24Z</time>
      </trkpt>
      <trkpt lat="43.1778510" lon="-1.3700770">
        <ele>341.8</ele>
        <time>2020-07-29T12:32:27Z</time>
      </trkpt>
      <trkpt lat="43.1779130" lon="-1.3700770">
        <ele>342.2</ele>
        <time>2020-07-29T12:32:29Z</time>
      </trkpt>
      <trkpt lat="43.1780480" lon="-1.3701160">
        <ele>343.0</ele>
        <time>2020-07-29T12:32:33Z</time>
      </trkpt>
      <trkpt lat="43.1780790" lon="-1.3701210">
        <ele>343.4</ele>
        <time>2020-07-29T12:32:34Z</time>
      </trkpt>
      <trkpt lat="43.1782350" lon="-1.3701150">
        <ele>344.4</ele>
        <time>2020-07-29T12:32:39Z</time>
      </trkpt>
      <trkpt lat="43.1782690" lon="-1.3701150">
        <ele>344.6</ele>
        <time>2020-07-29T12:32:40Z</time>
      </trkpt>
      <trkpt lat="43.1783730" lon="-1.3701170">
        <ele>345.4</ele>
        <time>2020-07-29T12:32:43Z</time>
      </trkpt>
      <trkpt lat="43.1785040" lon="-1.3701260">
        <ele>346.6</ele>
        <time>2020-07-29T12:32:47Z</time>
      </trkpt>
      <trkpt lat="43.1785690" lon="-1.3701400">
        <ele>347.2</ele>
        <time>2020-07-29T12:32:49Z</time>
      </trkpt>
      <trkpt lat="43.1786290" lon="-1.3701590">
        <ele>347.8</ele>
        <time>2020-07-29T12:32:51Z</time>
      </trkpt>
      <trkpt lat="43.1787430" lon="-1.3701950">
        <ele>348.6</ele>
        <time>2020-07-29T12:32:55Z</time>
      </trkpt>
      <trkpt lat="43.1788220" lon="-1.3702280">
        <ele>349.0</ele>
        <time>2020-07-29T12:32:58Z</time>
      </trkpt>
      <trkpt lat="43.1789550" lon="-1.3702810">
        <ele>350.2</ele>
        <time>2020-07-29T12:33:03Z</time>
      </trkpt>
      <trkpt lat="43.1790600" lon="-1.3702910">
        <ele>351.4</ele>
        <time>2020-07-29T12:33:07Z</time>
      </trkpt>
      <trkpt lat="43.1791470" lon="-1.3703060">
        <ele>352.0</ele>
        <time>2020-07-29T12:33:10Z</time>
      </trkpt>
      <trkpt lat="43.1791720" lon="-1.3703100">
        <ele>352.4</ele>
        <time>2020-07-29T12:33:11Z</time>
      </trkpt>
      <trkpt lat="43.1792990" lon="-1.3703250">
        <ele>353.2</ele>
        <time>2020-07-29T12:33:16Z</time>
      </trkpt>
      <trkpt lat="43.1793560" lon="-1.3703460">
        <ele>353.4</ele>
        <time>2020-07-29T12:33:18Z</time>
      </trkpt>
      <trkpt lat="43.1794490" lon="-1.3704000">
        <ele>353.8</ele>
        <time>2020-07-29T12:33:21Z</time>
      </trkpt>
      <trkpt lat="43.1795250" lon="-1.3704500">
        <ele>354.6</ele>
        <time>2020-07-29T12:33:24Z</time>
      </trkpt>
      <trkpt lat="43.1796690" lon="-1.3705120">
        <ele>355.6</ele>
        <time>2020-07-29T12:33:29Z</time>
      </trkpt>
      <trkpt lat="43.1796940" lon="-1.3705270">
        <ele>355.6</ele>
        <time>2020-07-29T12:33:30Z</time>
      </trkpt>
      <trkpt lat="43.1798240" lon="-1.3706010">
        <ele>356.4</ele>
        <time>2020-07-29T12:33:35Z</time>
      </trkpt>
      <trkpt lat="43.1798850" lon="-1.3706360">
        <ele>356.8</ele>
        <time>2020-07-29T12:33:37Z</time>
      </trkpt>
      <trkpt lat="43.1799660" lon="-1.3707040">
        <ele>357.8</ele>
        <time>2020-07-29T12:33:40Z</time>
      </trkpt>
      <trkpt lat="43.1800470" lon="-1.3707770">
        <ele>358.6</ele>
        <time>2020-07-29T12:33:43Z</time>
      </trkpt>
      <trkpt lat="43.1800760" lon="-1.3708050">
        <ele>358.8</ele>
        <time>2020-07-29T12:33:44Z</time>
      </trkpt>
      <trkpt lat="43.1802100" lon="-1.3709500">
        <ele>360.0</ele>
        <time>2020-07-29T12:33:49Z</time>
      </trkpt>
      <trkpt lat="43.1802670" lon="-1.3710010">
        <ele>360.2</ele>
        <time>2020-07-29T12:33:51Z</time>
      </trkpt>
      <trkpt lat="43.1803600" lon="-1.3711500">
        <ele>361.0</ele>
        <time>2020-07-29T12:33:55Z</time>
      </trkpt>
      <trkpt lat="43.1803850" lon="-1.3711940">
        <ele>361.2</ele>
        <time>2020-07-29T12:33:56Z</time>
      </trkpt>
      <trkpt lat="43.1804600" lon="-1.3713090">
        <ele>362.2</ele>
        <time>2020-07-29T12:33:59Z</time>
      </trkpt>
      <trkpt lat="43.1805360" lon="-1.3714640">
        <ele>363.6</ele>
        <time>2020-07-29T12:34:03Z</time>
      </trkpt>
      <trkpt lat="43.1806040" lon="-1.3717160">
        <ele>364.6</ele>
        <time>2020-07-29T12:34:09Z</time>
      </trkpt>
      <trkpt lat="43.1805890" lon="-1.3720060">
        <ele>365.6</ele>
        <time>2020-07-29T12:34:15Z</time>
      </trkpt>
      <trkpt lat="43.1805800" lon="-1.3720560">
        <ele>365.6</ele>
        <time>2020-07-29T12:34:16Z</time>
      </trkpt>
      <trkpt lat="43.1805730" lon="-1.3722400">
        <ele>366.8</ele>
        <time>2020-07-29T12:34:20Z</time>
      </trkpt>
      <trkpt lat="43.1805690" lon="-1.3723350">
        <ele>367.2</ele>
        <time>2020-07-29T12:34:22Z</time>
      </trkpt>
      <trkpt lat="43.1805630" lon="-1.3725330">
        <ele>367.8</ele>
        <time>2020-07-29T12:34:26Z</time>
      </trkpt>
      <trkpt lat="43.1805750" lon="-1.3727390">
        <ele>369.0</ele>
        <time>2020-07-29T12:34:30Z</time>
      </trkpt>
      <trkpt lat="43.1805990" lon="-1.3729800">
        <ele>370.0</ele>
        <time>2020-07-29T12:34:35Z</time>
      </trkpt>
      <trkpt lat="43.1806200" lon="-1.3731120">
        <ele>370.8</ele>
        <time>2020-07-29T12:34:38Z</time>
      </trkpt>
      <trkpt lat="43.1806280" lon="-1.3731560">
        <ele>371.2</ele>
        <time>2020-07-29T12:34:39Z</time>
      </trkpt>
      <trkpt lat="43.1807170" lon="-1.3733930">
        <ele>372.4</ele>
        <time>2020-07-29T12:34:45Z</time>
      </trkpt>
      <trkpt lat="43.1807900" lon="-1.3734760">
        <ele>373.4</ele>
        <time>2020-07-29T12:34:48Z</time>
      </trkpt>
      <trkpt lat="43.1808670" lon="-1.3735300">
        <ele>374.2</ele>
        <time>2020-07-29T12:34:51Z</time>
      </trkpt>
      <trkpt lat="43.1809230" lon="-1.3735600">
        <ele>374.6</ele>
        <time>2020-07-29T12:34:53Z</time>
      </trkpt>
      <trkpt lat="43.1810940" lon="-1.3736510">
        <ele>375.8</ele>
        <time>2020-07-29T12:34:59Z</time>
      </trkpt>
      <trkpt lat="43.1811190" lon="-1.3736740">
        <ele>376.2</ele>
        <time>2020-07-29T12:35:00Z</time>
      </trkpt>
      <trkpt lat="43.1812550" lon="-1.3738070">
        <ele>377.0</ele>
        <time>2020-07-29T12:35:05Z</time>
      </trkpt>
      <trkpt lat="43.1812990" lon="-1.3738810">
        <ele>377.6</ele>
        <time>2020-07-29T12:35:07Z</time>
      </trkpt>
      <trkpt lat="43.1813290" lon="-1.3739620">
        <ele>378.0</ele>
        <time>2020-07-29T12:35:09Z</time>
      </trkpt>
      <trkpt lat="43.1813510" lon="-1.3740960">
        <ele>379.0</ele>
        <time>2020-07-29T12:35:12Z</time>
      </trkpt>
      <trkpt lat="43.1813520" lon="-1.3741420">
        <ele>379.4</ele>
        <time>2020-07-29T12:35:13Z</time>
      </trkpt>
      <trkpt lat="43.1814040" lon="-1.3744090">
        <ele>380.0</ele>
        <time>2020-07-29T12:35:19Z</time>
      </trkpt>
      <trkpt lat="43.1814990" lon="-1.3744740">
        <ele>380.4</ele>
        <time>2020-07-29T12:35:22Z</time>
      </trkpt>
      <trkpt lat="43.1815290" lon="-1.3744860">
        <ele>380.6</ele>
        <time>2020-07-29T12:35:23Z</time>
      </trkpt>
      <trkpt lat="43.1817080" lon="-1.3745380">
        <ele>381.6</ele>
        <time>2020-07-29T12:35:29Z</time>
      </trkpt>
      <trkpt lat="43.1817400" lon="-1.3745510">
        <ele>381.8</ele>
        <time>2020-07-29T12:35:30Z</time>
      </trkpt>
      <trkpt lat="43.1818390" lon="-1.3745930">
        <ele>382.8</ele>
        <time>2020-07-29T12:35:33Z</time>
      </trkpt>
      <trkpt lat="43.1819680" lon="-1.3746560">
        <ele>383.8</ele>
        <time>2020-07-29T12:35:37Z</time>
      </trkpt>
      <trkpt lat="43.1819990" lon="-1.3746770">
        <ele>384.0</ele>
        <time>2020-07-29T12:35:38Z</time>
      </trkpt>
      <trkpt lat="43.1821310" lon="-1.3747570">
        <ele>385.0</ele>
        <time>2020-07-29T12:35:42Z</time>
      </trkpt>
      <trkpt lat="43.1822430" lon="-1.3748400">
        <ele>386.2</ele>
        <time>2020-07-29T12:35:46Z</time>
      </trkpt>
      <trkpt lat="43.1822990" lon="-1.3748830">
        <ele>386.8</ele>
        <time>2020-07-29T12:35:48Z</time>
      </trkpt>
      <trkpt lat="43.1823270" lon="-1.3749070">
        <ele>387.2</ele>
        <time>2020-07-29T12:35:49Z</time>
      </trkpt>
      <trkpt lat="43.1824640" lon="-1.3750300">
        <ele>388.4</ele>
        <time>2020-07-29T12:35:54Z</time>
      </trkpt>
      <trkpt lat="43.1825180" lon="-1.3750810">
        <ele>388.8</ele>
        <time>2020-07-29T12:35:56Z</time>
      </trkpt>
      <trkpt lat="43.1825890" lon="-1.3751330">
        <ele>389.4</ele>
        <time>2020-07-29T12:35:59Z</time>
      </trkpt>
      <trkpt lat="43.1826690" lon="-1.3752010">
        <ele>389.8</ele>
        <time>2020-07-29T12:36:02Z</time>
      </trkpt>
      <trkpt lat="43.1827210" lon="-1.3752610">
        <ele>390.4</ele>
        <time>2020-07-29T12:36:04Z</time>
      </trkpt>
      <trkpt lat="43.1828320" lon="-1.3753790">
        <ele>391.6</ele>
        <time>2020-07-29T12:36:08Z</time>
      </trkpt>
      <trkpt lat="43.1828570" lon="-1.3754070">
        <ele>391.6</ele>
        <time>2020-07-29T12:36:09Z</time>
      </trkpt>
      <trkpt lat="43.1830110" lon="-1.3755000">
        <ele>392.8</ele>
        <time>2020-07-29T12:36:14Z</time>
      </trkpt>
      <trkpt lat="43.1830390" lon="-1.3755120">
        <ele>393.4</ele>
        <time>2020-07-29T12:36:15Z</time>
      </trkpt>
      <trkpt lat="43.1830950" lon="-1.3755290">
        <ele>394.0</ele>
        <time>2020-07-29T12:36:17Z</time>
      </trkpt>
      <trkpt lat="43.1831860" lon="-1.3755450">
        <ele>395.0</ele>
        <time>2020-07-29T12:36:20Z</time>
      </trkpt>
      <trkpt lat="43.1832520" lon="-1.3755570">
        <ele>395.6</ele>
        <time>2020-07-29T12:36:22Z</time>
      </trkpt>
      <trkpt lat="43.1833470" lon="-1.3755770">
        <ele>396.4</ele>
        <time>2020-07-29T12:36:25Z</time>
      </trkpt>
      <trkpt lat="43.1834090" lon="-1.3756640">
        <ele>396.8</ele>
        <time>2020-07-29T12:36:28Z</time>
      </trkpt>
      <trkpt lat="43.1833990" lon="-1.3758430">
        <ele>397.0</ele>
        <time>2020-07-29T12:36:32Z</time>
      </trkpt>
      <trkpt lat="43.1832570" lon="-1.3760140">
        <ele>396.8</ele>
        <time>2020-07-29T12:36:37Z</time>
      </trkpt>
      <trkpt lat="43.1830820" lon="-1.3761200">
        <ele>397.4</ele>
        <time>2020-07-29T12:36:41Z</time>
      </trkpt>
      <trkpt lat="43.1829430" lon="-1.3761890">
        <ele>397.6</ele>
        <time>2020-07-29T12:36:44Z</time>
      </trkpt>
      <trkpt lat="43.1826660" lon="-1.3762660">
        <ele>398.2</ele>
        <time>2020-07-29T12:36:50Z</time>
      </trkpt>
      <trkpt lat="43.1826220" lon="-1.3762680">
        <ele>398.4</ele>
        <time>2020-07-29T12:36:51Z</time>
      </trkpt>
      <trkpt lat="43.1825340" lon="-1.3762670">
        <ele>398.6</ele>
        <time>2020-07-29T12:36:53Z</time>
      </trkpt>
      <trkpt lat="43.1823850" lon="-1.3762290">
        <ele>399.4</ele>
        <time>2020-07-29T12:36:57Z</time>
      </trkpt>
      <trkpt lat="43.1823520" lon="-1.3762230">
        <ele>399.8</ele>
        <time>2020-07-29T12:36:58Z</time>
      </trkpt>
      <trkpt lat="43.1822050" lon="-1.3761650">
        <ele>401.0</ele>
        <time>2020-07-29T12:37:03Z</time>
      </trkpt>
      <trkpt lat="43.1821400" lon="-1.3761310">
        <ele>401.2</ele>
        <time>2020-07-29T12:37:05Z</time>
      </trkpt>
      <trkpt lat="43.1819940" lon="-1.3760900">
        <ele>402.0</ele>
        <time>2020-07-29T12:37:09Z</time>
      </trkpt>
      <trkpt lat="43.1819220" lon="-1.3760840">
        <ele>402.8</ele>
        <time>2020-07-29T12:37:11Z</time>
      </trkpt>
      <trkpt lat="43.1818860" lon="-1.3760830">
        <ele>403.2</ele>
        <time>2020-07-29T12:37:12Z</time>
      </trkpt>
      <trkpt lat="43.1817040" lon="-1.3761250">
        <ele>404.4</ele>
        <time>2020-07-29T12:37:17Z</time>
      </trkpt>
      <trkpt lat="43.1815120" lon="-1.3762250">
        <ele>405.6</ele>
        <time>2020-07-29T12:37:23Z</time>
      </trkpt>
      <trkpt lat="43.1814510" lon="-1.3762560">
        <ele>406.2</ele>
        <time>2020-07-29T12:37:25Z</time>
      </trkpt>
      <trkpt lat="43.1813930" lon="-1.3762900">
        <ele>406.6</ele>
        <time>2020-07-29T12:37:27Z</time>
      </trkpt>
      <trkpt lat="43.1812400" lon="-1.3763610">
        <ele>407.6</ele>
        <time>2020-07-29T12:37:32Z</time>
      </trkpt>
      <trkpt lat="43.1811750" lon="-1.3763860">
        <ele>408.0</ele>
        <time>2020-07-29T12:37:34Z</time>
      </trkpt>
      <trkpt lat="43.1810820" lon="-1.3764380">
        <ele>408.8</ele>
        <time>2020-07-29T12:37:37Z</time>
      </trkpt>
      <trkpt lat="43.1809310" lon="-1.3765150">
        <ele>409.8</ele>
        <time>2020-07-29T12:37:42Z</time>
      </trkpt>
      <trkpt lat="43.1808100" lon="-1.3765610">
        <ele>410.6</ele>
        <time>2020-07-29T12:37:46Z</time>
      </trkpt>
      <trkpt lat="43.1807790" lon="-1.3765670">
        <ele>410.8</ele>
        <time>2020-07-29T12:37:47Z</time>
      </trkpt>
      <trkpt lat="43.1807170" lon="-1.3765700">
        <ele>411.4</ele>
        <time>2020-07-29T12:37:49Z</time>
      </trkpt>
      <trkpt lat="43.1806870" lon="-1.3765730">
        <ele>411.6</ele>
        <time>2020-07-29T12:37:50Z</time>
      </trkpt>
      <trkpt lat="43.1806230" lon="-1.3765680">
        <ele>412.0</ele>
        <time>2020-07-29T12:37:52Z</time>
      </trkpt>
      <trkpt lat="43.1805250" lon="-1.3765350">
        <ele>413.4</ele>
        <time>2020-07-29T12:37:55Z</time>
      </trkpt>
      <trkpt lat="43.1804950" lon="-1.3765190">
        <ele>413.8</ele>
        <time>2020-07-29T12:37:56Z</time>
      </trkpt>
      <trkpt lat="43.1804060" lon="-1.3764580">
        <ele>414.4</ele>
        <time>2020-07-29T12:37:59Z</time>
      </trkpt>
      <trkpt lat="43.1802600" lon="-1.3763620">
        <ele>415.4</ele>
        <time>2020-07-29T12:38:04Z</time>
      </trkpt>
      <trkpt lat="43.1800640" lon="-1.3763170">
        <ele>416.6</ele>
        <time>2020-07-29T12:38:10Z</time>
      </trkpt>
      <trkpt lat="43.1800310" lon="-1.3763090">
        <ele>416.8</ele>
        <time>2020-07-29T12:38:11Z</time>
      </trkpt>
      <trkpt lat="43.1799050" lon="-1.3762790">
        <ele>417.6</ele>
        <time>2020-07-29T12:38:15Z</time>
      </trkpt>
      <trkpt lat="43.1797740" lon="-1.3762440">
        <ele>418.8</ele>
        <time>2020-07-29T12:38:19Z</time>
      </trkpt>
      <trkpt lat="43.1796450" lon="-1.3761700">
        <ele>420.0</ele>
        <time>2020-07-29T12:38:23Z</time>
      </trkpt>
      <trkpt lat="43.1795330" lon="-1.3760600">
        <ele>421.2</ele>
        <time>2020-07-29T12:38:27Z</time>
      </trkpt>
      <trkpt lat="43.1794080" lon="-1.3759540">
        <ele>422.4</ele>
        <time>2020-07-29T12:38:32Z</time>
      </trkpt>
      <trkpt lat="43.1793400" lon="-1.3758830">
        <ele>423.0</ele>
        <time>2020-07-29T12:38:35Z</time>
      </trkpt>
      <trkpt lat="43.1792620" lon="-1.3758250">
        <ele>423.6</ele>
        <time>2020-07-29T12:38:38Z</time>
      </trkpt>
      <trkpt lat="43.1791610" lon="-1.3757420">
        <ele>424.6</ele>
        <time>2020-07-29T12:38:42Z</time>
      </trkpt>
      <trkpt lat="43.1791370" lon="-1.3757160">
        <ele>425.0</ele>
        <time>2020-07-29T12:38:43Z</time>
      </trkpt>
      <trkpt lat="43.1790450" lon="-1.3756080">
        <ele>426.0</ele>
        <time>2020-07-29T12:38:47Z</time>
      </trkpt>
      <trkpt lat="43.1789710" lon="-1.3755460">
        <ele>426.8</ele>
        <time>2020-07-29T12:38:50Z</time>
      </trkpt>
      <trkpt lat="43.1789240" lon="-1.3754970">
        <ele>427.0</ele>
        <time>2020-07-29T12:38:52Z</time>
      </trkpt>
      <trkpt lat="43.1787480" lon="-1.3753640">
        <ele>428.0</ele>
        <time>2020-07-29T12:38:58Z</time>
      </trkpt>
      <trkpt lat="43.1787110" lon="-1.3753670">
        <ele>428.2</ele>
        <time>2020-07-29T12:38:59Z</time>
      </trkpt>
      <trkpt lat="43.1786110" lon="-1.3754200">
        <ele>429.0</ele>
        <time>2020-07-29T12:39:02Z</time>
      </trkpt>
      <trkpt lat="43.1785840" lon="-1.3754420">
        <ele>429.2</ele>
        <time>2020-07-29T12:39:03Z</time>
      </trkpt>
      <trkpt lat="43.1784340" lon="-1.3755780">
        <ele>430.4</ele>
        <time>2020-07-29T12:39:08Z</time>
      </trkpt>
      <trkpt lat="43.1783330" lon="-1.3756490">
        <ele>431.2</ele>
        <time>2020-07-29T12:39:11Z</time>
      </trkpt>
      <trkpt lat="43.1782640" lon="-1.3756840">
        <ele>431.6</ele>
        <time>2020-07-29T12:39:13Z</time>
      </trkpt>
      <trkpt lat="43.1780960" lon="-1.3757780">
        <ele>432.6</ele>
        <time>2020-07-29T12:39:18Z</time>
      </trkpt>
      <trkpt lat="43.1780670" lon="-1.3758040">
        <ele>432.8</ele>
        <time>2020-07-29T12:39:19Z</time>
      </trkpt>
      <trkpt lat="43.1780050" lon="-1.3759160">
        <ele>433.6</ele>
        <time>2020-07-29T12:39:22Z</time>
      </trkpt>
      <trkpt lat="43.1779930" lon="-1.3759600">
        <ele>434.0</ele>
        <time>2020-07-29T12:39:23Z</time>
      </trkpt>
      <trkpt lat="43.1779780" lon="-1.3761010">
        <ele>434.8</ele>
        <time>2020-07-29T12:39:26Z</time>
      </trkpt>
      <trkpt lat="43.1779910" lon="-1.3762470">
        <ele>435.6</ele>
        <time>2020-07-29T12:39:29Z</time>
      </trkpt>
      <trkpt lat="43.1779960" lon="-1.3762950">
        <ele>436.0</ele>
        <time>2020-07-29T12:39:30Z</time>
      </trkpt>
      <trkpt lat="43.1780330" lon="-1.3765290">
        <ele>437.0</ele>
        <time>2020-07-29T12:39:35Z</time>
      </trkpt>
      <trkpt lat="43.1780570" lon="-1.3766600">
        <ele>437.6</ele>
        <time>2020-07-29T12:39:38Z</time>
      </trkpt>
      <trkpt lat="43.1780710" lon="-1.3767460">
        <ele>438.2</ele>
        <time>2020-07-29T12:39:40Z</time>
      </trkpt>
      <trkpt lat="43.1781110" lon="-1.3769510">
        <ele>439.4</ele>
        <time>2020-07-29T12:39:45Z</time>
      </trkpt>
      <trkpt lat="43.1781140" lon="-1.3769890">
        <ele>439.8</ele>
        <time>2020-07-29T12:39:46Z</time>
      </trkpt>
      <trkpt lat="43.1781400" lon="-1.3771260">
        <ele>440.6</ele>
        <time>2020-07-29T12:39:50Z</time>
      </trkpt>
      <trkpt lat="43.1781460" lon="-1.3771610">
        <ele>440.8</ele>
        <time>2020-07-29T12:39:51Z</time>
      </trkpt>
      <trkpt lat="43.1781820" lon="-1.3773030">
        <ele>441.6</ele>
        <time>2020-07-29T12:39:56Z</time>
      </trkpt>
      <trkpt lat="43.1781870" lon="-1.3773270">
        <ele>441.8</ele>
        <time>2020-07-29T12:39:57Z</time>
      </trkpt>
      <trkpt lat="43.1782180" lon="-1.3774530">
        <ele>442.8</ele>
        <time>2020-07-29T12:40:02Z</time>
      </trkpt>
      <trkpt lat="43.1782450" lon="-1.3775350">
        <ele>443.0</ele>
        <time>2020-07-29T12:40:05Z</time>
      </trkpt>
      <trkpt lat="43.1783000" lon="-1.3776630">
        <ele>443.8</ele>
        <time>2020-07-29T12:40:10Z</time>
      </trkpt>
      <trkpt lat="43.1783240" lon="-1.3777180">
        <ele>444.2</ele>
        <time>2020-07-29T12:40:12Z</time>
      </trkpt>
      <trkpt lat="43.1783860" lon="-1.3778640">
        <ele>444.8</ele>
        <time>2020-07-29T12:40:17Z</time>
      </trkpt>
      <trkpt lat="43.1784420" lon="-1.3779570">
        <ele>445.4</ele>
        <time>2020-07-29T12:40:20Z</time>
      </trkpt>
      <trkpt lat="43.1785100" lon="-1.3780240">
        <ele>446.0</ele>
        <time>2020-07-29T12:40:23Z</time>
      </trkpt>
      <trkpt lat="43.1785920" lon="-1.3780670">
        <ele>446.8</ele>
        <time>2020-07-29T12:40:26Z</time>
      </trkpt>
      <trkpt lat="43.1786250" lon="-1.3780780">
        <ele>447.0</ele>
        <time>2020-07-29T12:40:27Z</time>
      </trkpt>
      <trkpt lat="43.1787320" lon="-1.3780990">
        <ele>447.8</ele>
        <time>2020-07-29T12:40:30Z</time>
      </trkpt>
      <trkpt lat="43.1788020" lon="-1.3781080">
        <ele>448.2</ele>
        <time>2020-07-29T12:40:32Z</time>
      </trkpt>
      <trkpt lat="43.1788720" lon="-1.3781100">
        <ele>448.6</ele>
        <time>2020-07-29T12:40:34Z</time>
      </trkpt>
      <trkpt lat="43.1789840" lon="-1.3781150">
        <ele>449.4</ele>
        <time>2020-07-29T12:40:37Z</time>
      </trkpt>
      <trkpt lat="43.1790220" lon="-1.3781150">
        <ele>449.6</ele>
        <time>2020-07-29T12:40:38Z</time>
      </trkpt>
      <trkpt lat="43.1792040" lon="-1.3781170">
        <ele>450.4</ele>
        <time>2020-07-29T12:40:43Z</time>
      </trkpt>
      <trkpt lat="43.1792410" lon="-1.3781230">
        <ele>450.4</ele>
        <time>2020-07-29T12:40:44Z</time>
      </trkpt>
      <trkpt lat="43.1794150" lon="-1.3781650">
        <ele>451.6</ele>
        <time>2020-07-29T12:40:49Z</time>
      </trkpt>
      <trkpt lat="43.1794490" lon="-1.3781750">
        <ele>451.8</ele>
        <time>2020-07-29T12:40:50Z</time>
      </trkpt>
      <trkpt lat="43.1795790" lon="-1.3782290">
        <ele>452.6</ele>
        <time>2020-07-29T12:40:54Z</time>
      </trkpt>
      <trkpt lat="43.1797270" lon="-1.3783350">
        <ele>453.8</ele>
        <time>2020-07-29T12:40:59Z</time>
      </trkpt>
      <trkpt lat="43.1798150" lon="-1.3784080">
        <ele>454.8</ele>
        <time>2020-07-29T12:41:02Z</time>
      </trkpt>
      <trkpt lat="43.1799610" lon="-1.3785420">
        <ele>456.2</ele>
        <time>2020-07-29T12:41:07Z</time>
      </trkpt>
      <trkpt lat="43.1799860" lon="-1.3785700">
        <ele>456.4</ele>
        <time>2020-07-29T12:41:08Z</time>
      </trkpt>
      <trkpt lat="43.1800660" lon="-1.3786520">
        <ele>457.2</ele>
        <time>2020-07-29T12:41:11Z</time>
      </trkpt>
      <trkpt lat="43.1801930" lon="-1.3787590">
        <ele>458.2</ele>
        <time>2020-07-29T12:41:16Z</time>
      </trkpt>
      <trkpt lat="43.1802120" lon="-1.3787710">
        <ele>458.4</ele>
        <time>2020-07-29T12:41:17Z</time>
      </trkpt>
      <trkpt lat="43.1803330" lon="-1.3788530">
        <ele>459.4</ele>
        <time>2020-07-29T12:41:22Z</time>
      </trkpt>
      <trkpt lat="43.1803620" lon="-1.3788650">
        <ele>459.4</ele>
        <time>2020-07-29T12:41:23Z</time>
      </trkpt>
      <trkpt lat="43.1805170" lon="-1.3789250">
        <ele>460.4</ele>
        <time>2020-07-29T12:41:28Z</time>
      </trkpt>
      <trkpt lat="43.1806050" lon="-1.3789690">
        <ele>461.0</ele>
        <time>2020-07-29T12:41:31Z</time>
      </trkpt>
      <trkpt lat="43.1806660" lon="-1.3789970">
        <ele>461.4</ele>
        <time>2020-07-29T12:41:33Z</time>
      </trkpt>
      <trkpt lat="43.1808160" lon="-1.3790860">
        <ele>462.4</ele>
        <time>2020-07-29T12:41:38Z</time>
      </trkpt>
      <trkpt lat="43.1808680" lon="-1.3791250">
        <ele>463.0</ele>
        <time>2020-07-29T12:41:40Z</time>
      </trkpt>
      <trkpt lat="43.1809650" lon="-1.3792290">
        <ele>463.6</ele>
        <time>2020-07-29T12:41:44Z</time>
      </trkpt>
      <trkpt lat="43.1810440" lon="-1.3792940">
        <ele>464.4</ele>
        <time>2020-07-29T12:41:47Z</time>
      </trkpt>
      <trkpt lat="43.1810670" lon="-1.3793190">
        <ele>464.8</ele>
        <time>2020-07-29T12:41:48Z</time>
      </trkpt>
      <trkpt lat="43.1811980" lon="-1.3794470">
        <ele>465.8</ele>
        <time>2020-07-29T12:41:53Z</time>
      </trkpt>
      <trkpt lat="43.1812470" lon="-1.3795010">
        <ele>466.4</ele>
        <time>2020-07-29T12:41:55Z</time>
      </trkpt>
      <trkpt lat="43.1812700" lon="-1.3795280">
        <ele>466.8</ele>
        <time>2020-07-29T12:41:56Z</time>
      </trkpt>
      <trkpt lat="43.1813580" lon="-1.3796420">
        <ele>467.8</ele>
        <time>2020-07-29T12:42:00Z</time>
      </trkpt>
      <trkpt lat="43.1814280" lon="-1.3797250">
        <ele>468.4</ele>
        <time>2020-07-29T12:42:03Z</time>
      </trkpt>
      <trkpt lat="43.1814720" lon="-1.3797820">
        <ele>469.0</ele>
        <time>2020-07-29T12:42:05Z</time>
      </trkpt>
      <trkpt lat="43.1815960" lon="-1.3799420">
        <ele>470.0</ele>
        <time>2020-07-29T12:42:11Z</time>
      </trkpt>
      <trkpt lat="43.1817030" lon="-1.3800890">
        <ele>471.0</ele>
        <time>2020-07-29T12:42:16Z</time>
      </trkpt>
      <trkpt lat="43.1817520" lon="-1.3801380">
        <ele>471.8</ele>
        <time>2020-07-29T12:42:18Z</time>
      </trkpt>
      <trkpt lat="43.1817940" lon="-1.3801920">
        <ele>472.4</ele>
        <time>2020-07-29T12:42:20Z</time>
      </trkpt>
      <trkpt lat="43.1818790" lon="-1.3803100">
        <ele>473.2</ele>
        <time>2020-07-29T12:42:24Z</time>
      </trkpt>
      <trkpt lat="43.1819010" lon="-1.3803400">
        <ele>473.4</ele>
        <time>2020-07-29T12:42:25Z</time>
      </trkpt>
      <trkpt lat="43.1820220" lon="-1.3805460">
        <ele>474.6</ele>
        <time>2020-07-29T12:42:31Z</time>
      </trkpt>
      <trkpt lat="43.1820370" lon="-1.3805850">
        <ele>474.6</ele>
        <time>2020-07-29T12:42:32Z</time>
      </trkpt>
      <trkpt lat="43.1820860" lon="-1.3807890">
        <ele>475.6</ele>
        <time>2020-07-29T12:42:37Z</time>
      </trkpt>
      <trkpt lat="43.1820890" lon="-1.3808720">
        <ele>476.2</ele>
        <time>2020-07-29T12:42:39Z</time>
      </trkpt>
      <trkpt lat="43.1820810" lon="-1.3810140">
        <ele>476.6</ele>
        <time>2020-07-29T12:42:43Z</time>
      </trkpt>
      <trkpt lat="43.1820730" lon="-1.3810480">
        <ele>476.8</ele>
        <time>2020-07-29T12:42:44Z</time>
      </trkpt>
      <trkpt lat="43.1819880" lon="-1.3811690">
        <ele>477.4</ele>
        <time>2020-07-29T12:42:48Z</time>
      </trkpt>
      <trkpt lat="43.1819670" lon="-1.3812020">
        <ele>477.6</ele>
        <time>2020-07-29T12:42:49Z</time>
      </trkpt>
      <trkpt lat="43.1819450" lon="-1.3812340">
        <ele>477.8</ele>
        <time>2020-07-29T12:42:50Z</time>
      </trkpt>
      <trkpt lat="43.1818090" lon="-1.3814170">
        <ele>478.8</ele>
        <time>2020-07-29T12:42:56Z</time>
      </trkpt>
      <trkpt lat="43.1817840" lon="-1.3814450">
        <ele>479.0</ele>
        <time>2020-07-29T12:42:57Z</time>
      </trkpt>
      <trkpt lat="43.1816810" lon="-1.3815440">
        <ele>480.0</ele>
        <time>2020-07-29T12:43:01Z</time>
      </trkpt>
      <trkpt lat="43.1816260" lon="-1.3815880">
        <ele>480.6</ele>
        <time>2020-07-29T12:43:03Z</time>
      </trkpt>
      <trkpt lat="43.1815700" lon="-1.3816250">
        <ele>481.0</ele>
        <time>2020-07-29T12:43:05Z</time>
      </trkpt>
      <trkpt lat="43.1814150" lon="-1.3816780">
        <ele>482.2</ele>
        <time>2020-07-29T12:43:10Z</time>
      </trkpt>
      <trkpt lat="43.1812230" lon="-1.3817290">
        <ele>483.0</ele>
        <time>2020-07-29T12:43:16Z</time>
      </trkpt>
      <trkpt lat="43.1811920" lon="-1.3817400">
        <ele>483.4</ele>
        <time>2020-07-29T12:43:17Z</time>
      </trkpt>
      <trkpt lat="43.1811350" lon="-1.3817690">
        <ele>484.0</ele>
        <time>2020-07-29T12:43:19Z</time>
      </trkpt>
      <trkpt lat="43.1810350" lon="-1.3818640">
        <ele>484.6</ele>
        <time>2020-07-29T12:43:23Z</time>
      </trkpt>
      <trkpt lat="43.1809970" lon="-1.3819320">
        <ele>485.2</ele>
        <time>2020-07-29T12:43:25Z</time>
      </trkpt>
      <trkpt lat="43.1809810" lon="-1.3819700">
        <ele>485.6</ele>
        <time>2020-07-29T12:43:26Z</time>
      </trkpt>
      <trkpt lat="43.1809000" lon="-1.3821590">
        <ele>486.6</ele>
        <time>2020-07-29T12:43:31Z</time>
      </trkpt>
      <trkpt lat="43.1808820" lon="-1.3821940">
        <ele>487.0</ele>
        <time>2020-07-29T12:43:32Z</time>
      </trkpt>
      <trkpt lat="43.1808190" lon="-1.3823300">
        <ele>487.8</ele>
        <time>2020-07-29T12:43:36Z</time>
      </trkpt>
      <trkpt lat="43.1807410" lon="-1.3824450">
        <ele>488.4</ele>
        <time>2020-07-29T12:43:40Z</time>
      </trkpt>
      <trkpt lat="43.1806690" lon="-1.3825220">
        <ele>488.8</ele>
        <time>2020-07-29T12:43:43Z</time>
      </trkpt>
      <trkpt lat="43.1805500" lon="-1.3826710">
        <ele>490.2</ele>
        <time>2020-07-29T12:43:48Z</time>
      </trkpt>
      <trkpt lat="43.1804360" lon="-1.3828280">
        <ele>491.4</ele>
        <time>2020-07-29T12:43:53Z</time>
      </trkpt>
      <trkpt lat="43.1803130" lon="-1.3829700">
        <ele>492.4</ele>
        <time>2020-07-29T12:43:58Z</time>
      </trkpt>
      <trkpt lat="43.1802180" lon="-1.3830860">
        <ele>493.4</ele>
        <time>2020-07-29T12:44:02Z</time>
      </trkpt>
      <trkpt lat="43.1800960" lon="-1.3832120">
        <ele>494.4</ele>
        <time>2020-07-29T12:44:07Z</time>
      </trkpt>
      <trkpt lat="43.1799620" lon="-1.3833130">
        <ele>495.4</ele>
        <time>2020-07-29T12:44:12Z</time>
      </trkpt>
      <trkpt lat="43.1799080" lon="-1.3833620">
        <ele>495.8</ele>
        <time>2020-07-29T12:44:14Z</time>
      </trkpt>
      <trkpt lat="43.1798550" lon="-1.3834130">
        <ele>496.6</ele>
        <time>2020-07-29T12:44:16Z</time>
      </trkpt>
      <trkpt lat="43.1797090" lon="-1.3835160">
        <ele>497.8</ele>
        <time>2020-07-29T12:44:21Z</time>
      </trkpt>
      <trkpt lat="43.1796500" lon="-1.3835600">
        <ele>498.2</ele>
        <time>2020-07-29T12:44:23Z</time>
      </trkpt>
      <trkpt lat="43.1795290" lon="-1.3836980">
        <ele>499.0</ele>
        <time>2020-07-29T12:44:28Z</time>
      </trkpt>
      <trkpt lat="43.1794860" lon="-1.3837650">
        <ele>499.4</ele>
        <time>2020-07-29T12:44:30Z</time>
      </trkpt>
      <trkpt lat="43.1794420" lon="-1.3838310">
        <ele>500.0</ele>
        <time>2020-07-29T12:44:32Z</time>
      </trkpt>
      <trkpt lat="43.1793220" lon="-1.3839780">
        <ele>500.6</ele>
        <time>2020-07-29T12:44:37Z</time>
      </trkpt>
      <trkpt lat="43.1792520" lon="-1.3840600">
        <ele>501.2</ele>
        <time>2020-07-29T12:44:40Z</time>
      </trkpt>
      <trkpt lat="43.1791350" lon="-1.3841640">
        <ele>502.2</ele>
        <time>2020-07-29T12:44:45Z</time>
      </trkpt>
      <trkpt lat="43.1790770" lon="-1.3842320">
        <ele>503.4</ele>
        <time>2020-07-29T12:44:48Z</time>
      </trkpt>
      <trkpt lat="43.1790470" lon="-1.3843290">
        <ele>503.8</ele>
        <time>2020-07-29T12:44:51Z</time>
      </trkpt>
      <trkpt lat="43.1790470" lon="-1.3844940">
        <ele>504.4</ele>
        <time>2020-07-29T12:44:55Z</time>
      </trkpt>
      <trkpt lat="43.1790590" lon="-1.3845760">
        <ele>504.6</ele>
        <time>2020-07-29T12:44:57Z</time>
      </trkpt>
      <trkpt lat="43.1790720" lon="-1.3847010">
        <ele>505.4</ele>
        <time>2020-07-29T12:45:00Z</time>
      </trkpt>
      <trkpt lat="43.1791060" lon="-1.3849260">
        <ele>506.4</ele>
        <time>2020-07-29T12:45:05Z</time>
      </trkpt>
      <trkpt lat="43.1791130" lon="-1.3849690">
        <ele>506.6</ele>
        <time>2020-07-29T12:45:06Z</time>
      </trkpt>
      <trkpt lat="43.1791300" lon="-1.3851490">
        <ele>507.6</ele>
        <time>2020-07-29T12:45:10Z</time>
      </trkpt>
      <trkpt lat="43.1791390" lon="-1.3853340">
        <ele>508.8</ele>
        <time>2020-07-29T12:45:14Z</time>
      </trkpt>
      <trkpt lat="43.1791440" lon="-1.3855170">
        <ele>510.0</ele>
        <time>2020-07-29T12:45:18Z</time>
      </trkpt>
      <trkpt lat="43.1791390" lon="-1.3857480">
        <ele>511.0</ele>
        <time>2020-07-29T12:45:23Z</time>
      </trkpt>
      <trkpt lat="43.1791350" lon="-1.3857930">
        <ele>511.2</ele>
        <time>2020-07-29T12:45:24Z</time>
      </trkpt>
      <trkpt lat="43.1790930" lon="-1.3859610">
        <ele>512.4</ele>
        <time>2020-07-29T12:45:28Z</time>
      </trkpt>
      <trkpt lat="43.1790610" lon="-1.3860370">
        <ele>512.8</ele>
        <time>2020-07-29T12:45:30Z</time>
      </trkpt>
      <trkpt lat="43.1789960" lon="-1.3861870">
        <ele>513.4</ele>
        <time>2020-07-29T12:45:34Z</time>
      </trkpt>
      <trkpt lat="43.1789550" lon="-1.3863080">
        <ele>514.8</ele>
        <time>2020-07-29T12:45:37Z</time>
      </trkpt>
      <trkpt lat="43.1789610" lon="-1.3864890">
        <ele>515.8</ele>
        <time>2020-07-29T12:45:41Z</time>
      </trkpt>
      <trkpt lat="43.1789740" lon="-1.3865300">
        <ele>516.2</ele>
        <time>2020-07-29T12:45:42Z</time>
      </trkpt>
      <trkpt lat="43.1790560" lon="-1.3866490">
        <ele>517.0</ele>
        <time>2020-07-29T12:45:46Z</time>
      </trkpt>
      <trkpt lat="43.1790860" lon="-1.3866730">
        <ele>517.0</ele>
        <time>2020-07-29T12:45:47Z</time>
      </trkpt>
      <trkpt lat="43.1792630" lon="-1.3867540">
        <ele>517.8</ele>
        <time>2020-07-29T12:45:52Z</time>
      </trkpt>
      <trkpt lat="43.1793000" lon="-1.3867560">
        <ele>518.2</ele>
        <time>2020-07-29T12:45:53Z</time>
      </trkpt>
      <trkpt lat="43.1794650" lon="-1.3867500">
        <ele>519.4</ele>
        <time>2020-07-29T12:45:58Z</time>
      </trkpt>
      <trkpt lat="43.1795610" lon="-1.3867490">
        <ele>520.4</ele>
        <time>2020-07-29T12:46:01Z</time>
      </trkpt>
      <trkpt lat="43.1796860" lon="-1.3867370">
        <ele>521.6</ele>
        <time>2020-07-29T12:46:05Z</time>
      </trkpt>
      <trkpt lat="43.1797160" lon="-1.3867320">
        <ele>522.0</ele>
        <time>2020-07-29T12:46:06Z</time>
      </trkpt>
      <trkpt lat="43.1798400" lon="-1.3866870">
        <ele>522.8</ele>
        <time>2020-07-29T12:46:10Z</time>
      </trkpt>
      <trkpt lat="43.1799930" lon="-1.3866070">
        <ele>523.8</ele>
        <time>2020-07-29T12:46:15Z</time>
      </trkpt>
      <trkpt lat="43.1801310" lon="-1.3865470">
        <ele>525.0</ele>
        <time>2020-07-29T12:46:20Z</time>
      </trkpt>
      <trkpt lat="43.1802270" lon="-1.3865060">
        <ele>525.6</ele>
        <time>2020-07-29T12:46:23Z</time>
      </trkpt>
      <trkpt lat="43.1802910" lon="-1.3864800">
        <ele>526.2</ele>
        <time>2020-07-29T12:46:25Z</time>
      </trkpt>
      <trkpt lat="43.1804470" lon="-1.3864200">
        <ele>527.6</ele>
        <time>2020-07-29T12:46:30Z</time>
      </trkpt>
      <trkpt lat="43.1805080" lon="-1.3863880">
        <ele>528.2</ele>
        <time>2020-07-29T12:46:32Z</time>
      </trkpt>
      <trkpt lat="43.1805700" lon="-1.3863610">
        <ele>528.8</ele>
        <time>2020-07-29T12:46:34Z</time>
      </trkpt>
      <trkpt lat="43.1807270" lon="-1.3863210">
        <ele>530.0</ele>
        <time>2020-07-29T12:46:39Z</time>
      </trkpt>
      <trkpt lat="43.1807580" lon="-1.3863180">
        <ele>530.2</ele>
        <time>2020-07-29T12:46:40Z</time>
      </trkpt>
      <trkpt lat="43.1808530" lon="-1.3863330">
        <ele>531.2</ele>
        <time>2020-07-29T12:46:43Z</time>
      </trkpt>
      <trkpt lat="43.1809660" lon="-1.3863910">
        <ele>532.0</ele>
        <time>2020-07-29T12:46:47Z</time>
      </trkpt>
      <trkpt lat="43.1809950" lon="-1.3864070">
        <ele>532.4</ele>
        <time>2020-07-29T12:46:48Z</time>
      </trkpt>
      <trkpt lat="43.1811020" lon="-1.3865080">
        <ele>533.4</ele>
        <time>2020-07-29T12:46:52Z</time>
      </trkpt>
      <trkpt lat="43.1811240" lon="-1.3865410">
        <ele>533.6</ele>
        <time>2020-07-29T12:46:53Z</time>
      </trkpt>
      <trkpt lat="43.1812410" lon="-1.3867470">
        <ele>534.4</ele>
        <time>2020-07-29T12:46:59Z</time>
      </trkpt>
      <trkpt lat="43.1813010" lon="-1.3868520">
        <ele>535.4</ele>
        <time>2020-07-29T12:47:02Z</time>
      </trkpt>
      <trkpt lat="43.1813180" lon="-1.3868840">
        <ele>535.6</ele>
        <time>2020-07-29T12:47:03Z</time>
      </trkpt>
      <trkpt lat="43.1814020" lon="-1.3869750">
        <ele>536.6</ele>
        <time>2020-07-29T12:47:07Z</time>
      </trkpt>
      <trkpt lat="43.1814250" lon="-1.3869920">
        <ele>536.8</ele>
        <time>2020-07-29T12:47:08Z</time>
      </trkpt>
      <trkpt lat="43.1815850" lon="-1.3870860">
        <ele>537.8</ele>
        <time>2020-07-29T12:47:14Z</time>
      </trkpt>
      <trkpt lat="43.1816430" lon="-1.3871080">
        <ele>538.0</ele>
        <time>2020-07-29T12:47:16Z</time>
      </trkpt>
      <trkpt lat="43.1817290" lon="-1.3871400">
        <ele>538.8</ele>
        <time>2020-07-29T12:47:19Z</time>
      </trkpt>
      <trkpt lat="43.1818770" lon="-1.3871930">
        <ele>540.2</ele>
        <time>2020-07-29T12:47:24Z</time>
      </trkpt>
      <trkpt lat="43.1820250" lon="-1.3872290">
        <ele>541.0</ele>
        <time>2020-07-29T12:47:29Z</time>
      </trkpt>
      <trkpt lat="43.1820550" lon="-1.3872350">
        <ele>541.2</ele>
        <time>2020-07-29T12:47:30Z</time>
      </trkpt>
      <trkpt lat="43.1821200" lon="-1.3872520">
        <ele>541.6</ele>
        <time>2020-07-29T12:47:32Z</time>
      </trkpt>
      <trkpt lat="43.1822450" lon="-1.3872920">
        <ele>542.4</ele>
        <time>2020-07-29T12:47:36Z</time>
      </trkpt>
      <trkpt lat="43.1823640" lon="-1.3873260">
        <ele>543.2</ele>
        <time>2020-07-29T12:47:40Z</time>
      </trkpt>
      <trkpt lat="43.1823940" lon="-1.3873370">
        <ele>543.6</ele>
        <time>2020-07-29T12:47:41Z</time>
      </trkpt>
      <trkpt lat="43.1825580" lon="-1.3873700">
        <ele>544.6</ele>
        <time>2020-07-29T12:47:46Z</time>
      </trkpt>
      <trkpt lat="43.1826520" lon="-1.3873900">
        <ele>545.8</ele>
        <time>2020-07-29T12:47:49Z</time>
      </trkpt>
      <trkpt lat="43.1826820" lon="-1.3873980">
        <ele>546.0</ele>
        <time>2020-07-29T12:47:50Z</time>
      </trkpt>
      <trkpt lat="43.1828020" lon="-1.3874350">
        <ele>546.8</ele>
        <time>2020-07-29T12:47:54Z</time>
      </trkpt>
      <trkpt lat="43.1829060" lon="-1.3874630">
        <ele>547.8</ele>
        <time>2020-07-29T12:47:58Z</time>
      </trkpt>
      <trkpt lat="43.1829300" lon="-1.3874720">
        <ele>548.0</ele>
        <time>2020-07-29T12:47:59Z</time>
      </trkpt>
      <trkpt lat="43.1830790" lon="-1.3875140">
        <ele>549.2</ele>
        <time>2020-07-29T12:48:05Z</time>
      </trkpt>
      <trkpt lat="43.1831030" lon="-1.3875240">
        <ele>549.4</ele>
        <time>2020-07-29T12:48:06Z</time>
      </trkpt>
      <trkpt lat="43.1831940" lon="-1.3875850">
        <ele>550.4</ele>
        <time>2020-07-29T12:48:10Z</time>
      </trkpt>
      <trkpt lat="43.1832380" lon="-1.3876750">
        <ele>550.8</ele>
        <time>2020-07-29T12:48:13Z</time>
      </trkpt>
      <trkpt lat="43.1832200" lon="-1.3878700">
        <ele>551.0</ele>
        <time>2020-07-29T12:48:18Z</time>
      </trkpt>
      <trkpt lat="43.1831540" lon="-1.3879810">
        <ele>551.4</ele>
        <time>2020-07-29T12:48:22Z</time>
      </trkpt>
      <trkpt lat="43.1831340" lon="-1.3880110">
        <ele>551.6</ele>
        <time>2020-07-29T12:48:23Z</time>
      </trkpt>
      <trkpt lat="43.1830340" lon="-1.3882230">
        <ele>551.8</ele>
        <time>2020-07-29T12:48:29Z</time>
      </trkpt>
      <trkpt lat="43.1829400" lon="-1.3884160">
        <ele>552.0</ele>
        <time>2020-07-29T12:48:35Z</time>
      </trkpt>
      <trkpt lat="43.1828920" lon="-1.3885110">
        <ele>552.2</ele>
        <time>2020-07-29T12:48:38Z</time>
      </trkpt>
      <trkpt lat="43.1828760" lon="-1.3885450">
        <ele>552.4</ele>
        <time>2020-07-29T12:48:39Z</time>
      </trkpt>
      <trkpt lat="43.1828610" lon="-1.3885800">
        <ele>552.8</ele>
        <time>2020-07-29T12:48:40Z</time>
      </trkpt>
      <trkpt lat="43.1828060" lon="-1.3886740">
        <ele>553.6</ele>
        <time>2020-07-29T12:48:43Z</time>
      </trkpt>
      <trkpt lat="43.1827470" lon="-1.3888100">
        <ele>554.4</ele>
        <time>2020-07-29T12:48:47Z</time>
      </trkpt>
      <trkpt lat="43.1827320" lon="-1.3888420">
        <ele>554.8</ele>
        <time>2020-07-29T12:48:48Z</time>
      </trkpt>
      <trkpt lat="43.1826770" lon="-1.3889670">
        <ele>555.8</ele>
        <time>2020-07-29T12:48:52Z</time>
      </trkpt>
      <trkpt lat="43.1826480" lon="-1.3890650">
        <ele>556.6</ele>
        <time>2020-07-29T12:48:55Z</time>
      </trkpt>
      <trkpt lat="43.1826180" lon="-1.3891160">
        <ele>556.8</ele>
        <time>2020-07-29T12:48:57Z</time>
      </trkpt>
      <trkpt lat="43.1825590" lon="-1.3891880">
        <ele>557.6</ele>
        <time>2020-07-29T12:49:00Z</time>
      </trkpt>
      <trkpt lat="43.1825390" lon="-1.3892150">
        <ele>558.0</ele>
        <time>2020-07-29T12:49:01Z</time>
      </trkpt>
      <trkpt lat="43.1824350" lon="-1.3893310">
        <ele>559.0</ele>
        <time>2020-07-29T12:49:06Z</time>
      </trkpt>
      <trkpt lat="43.1824100" lon="-1.3893520">
        <ele>559.0</ele>
        <time>2020-07-29T12:49:07Z</time>
      </trkpt>
      <trkpt lat="43.1822580" lon="-1.3895020">
        <ele>560.0</ele>
        <time>2020-07-29T12:49:13Z</time>
      </trkpt>
      <trkpt lat="43.1821700" lon="-1.3896200">
        <ele>561.0</ele>
        <time>2020-07-29T12:49:17Z</time>
      </trkpt>
      <trkpt lat="43.1821510" lon="-1.3896520">
        <ele>561.4</ele>
        <time>2020-07-29T12:49:18Z</time>
      </trkpt>
      <trkpt lat="43.1820880" lon="-1.3897480">
        <ele>562.0</ele>
        <time>2020-07-29T12:49:21Z</time>
      </trkpt>
      <trkpt lat="43.1820600" lon="-1.3898230">
        <ele>562.4</ele>
        <time>2020-07-29T12:49:23Z</time>
      </trkpt>
      <trkpt lat="43.1820680" lon="-1.3899450">
        <ele>563.8</ele>
        <time>2020-07-29T12:49:26Z</time>
      </trkpt>
      <trkpt lat="43.1821480" lon="-1.3901210">
        <ele>564.8</ele>
        <time>2020-07-29T12:49:31Z</time>
      </trkpt>
      <trkpt lat="43.1821880" lon="-1.3901770">
        <ele>565.6</ele>
        <time>2020-07-29T12:49:33Z</time>
      </trkpt>
      <trkpt lat="43.1822270" lon="-1.3902280">
        <ele>566.0</ele>
        <time>2020-07-29T12:49:35Z</time>
      </trkpt>
      <trkpt lat="43.1822860" lon="-1.3904060">
        <ele>567.2</ele>
        <time>2020-07-29T12:49:40Z</time>
      </trkpt>
      <trkpt lat="43.1823050" lon="-1.3905770">
        <ele>567.8</ele>
        <time>2020-07-29T12:49:44Z</time>
      </trkpt>
      <trkpt lat="43.1823000" lon="-1.3906560">
        <ele>568.2</ele>
        <time>2020-07-29T12:49:46Z</time>
      </trkpt>
      <trkpt lat="43.1822940" lon="-1.3906950">
        <ele>568.4</ele>
        <time>2020-07-29T12:49:47Z</time>
      </trkpt>
      <trkpt lat="43.1822650" lon="-1.3908560">
        <ele>569.2</ele>
        <time>2020-07-29T12:49:51Z</time>
      </trkpt>
      <trkpt lat="43.1822600" lon="-1.3908980">
        <ele>569.4</ele>
        <time>2020-07-29T12:49:52Z</time>
      </trkpt>
      <trkpt lat="43.1822540" lon="-1.3910240">
        <ele>570.2</ele>
        <time>2020-07-29T12:49:55Z</time>
      </trkpt>
      <trkpt lat="43.1822560" lon="-1.3910660">
        <ele>570.4</ele>
        <time>2020-07-29T12:49:56Z</time>
      </trkpt>
      <trkpt lat="43.1822580" lon="-1.3911080">
        <ele>570.6</ele>
        <time>2020-07-29T12:49:57Z</time>
      </trkpt>
      <trkpt lat="43.1822680" lon="-1.3912930">
        <ele>571.6</ele>
        <time>2020-07-29T12:50:03Z</time>
      </trkpt>
      <trkpt lat="43.1822700" lon="-1.3913180">
        <ele>571.8</ele>
        <time>2020-07-29T12:50:04Z</time>
      </trkpt>
      <trkpt lat="43.1822790" lon="-1.3914330">
        <ele>572.2</ele>
        <time>2020-07-29T12:50:08Z</time>
      </trkpt>
      <trkpt lat="43.1822670" lon="-1.3915330">
        <ele>573.0</ele>
        <time>2020-07-29T12:50:11Z</time>
      </trkpt>
      <trkpt lat="43.1822310" lon="-1.3916640">
        <ele>573.4</ele>
        <time>2020-07-29T12:50:15Z</time>
      </trkpt>
      <trkpt lat="43.1821330" lon="-1.3917980">
        <ele>574.0</ele>
        <time>2020-07-29T12:50:20Z</time>
      </trkpt>
      <trkpt lat="43.1821080" lon="-1.3918170">
        <ele>574.2</ele>
        <time>2020-07-29T12:50:21Z</time>
      </trkpt>
      <trkpt lat="43.1819850" lon="-1.3919170">
        <ele>575.0</ele>
        <time>2020-07-29T12:50:26Z</time>
      </trkpt>
      <trkpt lat="43.1819570" lon="-1.3919360">
        <ele>575.2</ele>
        <time>2020-07-29T12:50:27Z</time>
      </trkpt>
      <trkpt lat="43.1817780" lon="-1.3920010">
        <ele>576.0</ele>
        <time>2020-07-29T12:50:33Z</time>
      </trkpt>
      <trkpt lat="43.1817240" lon="-1.3920180">
        <ele>576.2</ele>
        <time>2020-07-29T12:50:35Z</time>
      </trkpt>
      <trkpt lat="43.1816140" lon="-1.3920450">
        <ele>577.0</ele>
        <time>2020-07-29T12:50:39Z</time>
      </trkpt>
      <trkpt lat="43.1815880" lon="-1.3920600">
        <ele>577.2</ele>
        <time>2020-07-29T12:50:40Z</time>
      </trkpt>
      <trkpt lat="43.1815010" lon="-1.3921360">
        <ele>578.2</ele>
        <time>2020-07-29T12:50:44Z</time>
      </trkpt>
      <trkpt lat="43.1814650" lon="-1.3921870">
        <ele>578.6</ele>
        <time>2020-07-29T12:50:46Z</time>
      </trkpt>
      <trkpt lat="43.1814280" lon="-1.3922740">
        <ele>579.4</ele>
        <time>2020-07-29T12:50:49Z</time>
      </trkpt>
      <trkpt lat="43.1814150" lon="-1.3923850">
        <ele>580.0</ele>
        <time>2020-07-29T12:50:52Z</time>
      </trkpt>
      <trkpt lat="43.1814080" lon="-1.3925160">
        <ele>580.6</ele>
        <time>2020-07-29T12:50:55Z</time>
      </trkpt>
      <trkpt lat="43.1814060" lon="-1.3926010">
        <ele>581.2</ele>
        <time>2020-07-29T12:50:57Z</time>
      </trkpt>
      <trkpt lat="43.1814050" lon="-1.3927180">
        <ele>581.6</ele>
        <time>2020-07-29T12:51:00Z</time>
      </trkpt>
      <trkpt lat="43.1814100" lon="-1.3929030">
        <ele>583.0</ele>
        <time>2020-07-29T12:51:05Z</time>
      </trkpt>
      <trkpt lat="43.1814080" lon="-1.3930540">
        <ele>584.0</ele>
        <time>2020-07-29T12:51:09Z</time>
      </trkpt>
      <trkpt lat="43.1813870" lon="-1.3932020">
        <ele>585.2</ele>
        <time>2020-07-29T12:51:13Z</time>
      </trkpt>
      <trkpt lat="43.1813810" lon="-1.3933160">
        <ele>586.0</ele>
        <time>2020-07-29T12:51:16Z</time>
      </trkpt>
      <trkpt lat="43.1813800" lon="-1.3933540">
        <ele>586.2</ele>
        <time>2020-07-29T12:51:17Z</time>
      </trkpt>
      <trkpt lat="43.1813890" lon="-1.3935890">
        <ele>587.0</ele>
        <time>2020-07-29T12:51:23Z</time>
      </trkpt>
      <trkpt lat="43.1813920" lon="-1.3936290">
        <ele>587.2</ele>
        <time>2020-07-29T12:51:24Z</time>
      </trkpt>
      <trkpt lat="43.1813930" lon="-1.3937080">
        <ele>587.4</ele>
        <time>2020-07-29T12:51:26Z</time>
      </trkpt>
      <trkpt lat="43.1813840" lon="-1.3939120">
        <ele>588.2</ele>
        <time>2020-07-29T12:51:31Z</time>
      </trkpt>
      <trkpt lat="43.1813780" lon="-1.3939920">
        <ele>588.6</ele>
        <time>2020-07-29T12:51:33Z</time>
      </trkpt>
      <trkpt lat="43.1813170" lon="-1.3942100">
        <ele>589.6</ele>
        <time>2020-07-29T12:51:39Z</time>
      </trkpt>
      <trkpt lat="43.1813010" lon="-1.3942420">
        <ele>589.6</ele>
        <time>2020-07-29T12:51:40Z</time>
      </trkpt>
      <trkpt lat="43.1811910" lon="-1.3944220">
        <ele>590.4</ele>
        <time>2020-07-29T12:51:46Z</time>
      </trkpt>
      <trkpt lat="43.1811720" lon="-1.3944490">
        <ele>590.6</ele>
        <time>2020-07-29T12:51:47Z</time>
      </trkpt>
      <trkpt lat="43.1811510" lon="-1.3944750">
        <ele>590.8</ele>
        <time>2020-07-29T12:51:48Z</time>
      </trkpt>
      <trkpt lat="43.1810640" lon="-1.3945590">
        <ele>591.8</ele>
        <time>2020-07-29T12:51:52Z</time>
      </trkpt>
      <trkpt lat="43.1810160" lon="-1.3946040">
        <ele>592.2</ele>
        <time>2020-07-29T12:51:54Z</time>
      </trkpt>
      <trkpt lat="43.1809130" lon="-1.3946660">
        <ele>593.0</ele>
        <time>2020-07-29T12:51:58Z</time>
      </trkpt>
      <trkpt lat="43.1808330" lon="-1.3947090">
        <ele>593.8</ele>
        <time>2020-07-29T12:52:01Z</time>
      </trkpt>
      <trkpt lat="43.1807810" lon="-1.3947430">
        <ele>594.0</ele>
        <time>2020-07-29T12:52:03Z</time>
      </trkpt>
      <trkpt lat="43.1807010" lon="-1.3948560">
        <ele>595.0</ele>
        <time>2020-07-29T12:52:07Z</time>
      </trkpt>
      <trkpt lat="43.1806820" lon="-1.3948860">
        <ele>595.4</ele>
        <time>2020-07-29T12:52:08Z</time>
      </trkpt>
      <trkpt lat="43.1805860" lon="-1.3950260">
        <ele>596.6</ele>
        <time>2020-07-29T12:52:13Z</time>
      </trkpt>
      <trkpt lat="43.1804790" lon="-1.3951620">
        <ele>597.4</ele>
        <time>2020-07-29T12:52:18Z</time>
      </trkpt>
      <trkpt lat="43.1804580" lon="-1.3951910">
        <ele>597.6</ele>
        <time>2020-07-29T12:52:19Z</time>
      </trkpt>
      <trkpt lat="43.1803830" lon="-1.3953140">
        <ele>598.8</ele>
        <time>2020-07-29T12:52:23Z</time>
      </trkpt>
      <trkpt lat="43.1803270" lon="-1.3954510">
        <ele>599.6</ele>
        <time>2020-07-29T12:52:27Z</time>
      </trkpt>
      <trkpt lat="43.1803180" lon="-1.3954880">
        <ele>599.8</ele>
        <time>2020-07-29T12:52:28Z</time>
      </trkpt>
      <trkpt lat="43.1802700" lon="-1.3957040">
        <ele>600.8</ele>
        <time>2020-07-29T12:52:34Z</time>
      </trkpt>
      <trkpt lat="43.1802100" lon="-1.3958370">
        <ele>602.0</ele>
        <time>2020-07-29T12:52:38Z</time>
      </trkpt>
      <trkpt lat="43.1801300" lon="-1.3959530">
        <ele>602.8</ele>
        <time>2020-07-29T12:52:42Z</time>
      </trkpt>
      <trkpt lat="43.1800830" lon="-1.3960010">
        <ele>603.0</ele>
        <time>2020-07-29T12:52:44Z</time>
      </trkpt>
      <trkpt lat="43.1799570" lon="-1.3961050">
        <ele>604.2</ele>
        <time>2020-07-29T12:52:49Z</time>
      </trkpt>
      <trkpt lat="43.1799300" lon="-1.3961200">
        <ele>604.4</ele>
        <time>2020-07-29T12:52:50Z</time>
      </trkpt>
      <trkpt lat="43.1797730" lon="-1.3961830">
        <ele>605.2</ele>
        <time>2020-07-29T12:52:56Z</time>
      </trkpt>
      <trkpt lat="43.1797450" lon="-1.3961920">
        <ele>605.4</ele>
        <time>2020-07-29T12:52:57Z</time>
      </trkpt>
      <trkpt lat="43.1796300" lon="-1.3962060">
        <ele>606.4</ele>
        <time>2020-07-29T12:53:01Z</time>
      </trkpt>
      <trkpt lat="43.1795170" lon="-1.3962210">
        <ele>607.4</ele>
        <time>2020-07-29T12:53:05Z</time>
      </trkpt>
      <trkpt lat="43.1793460" lon="-1.3962680">
        <ele>608.6</ele>
        <time>2020-07-29T12:53:11Z</time>
      </trkpt>
      <trkpt lat="43.1792900" lon="-1.3962980">
        <ele>609.0</ele>
        <time>2020-07-29T12:53:13Z</time>
      </trkpt>
      <trkpt lat="43.1792080" lon="-1.3963520">
        <ele>609.8</ele>
        <time>2020-07-29T12:53:16Z</time>
      </trkpt>
      <trkpt lat="43.1790820" lon="-1.3964530">
        <ele>610.8</ele>
        <time>2020-07-29T12:53:21Z</time>
      </trkpt>
      <trkpt lat="43.1789460" lon="-1.3965210">
        <ele>612.0</ele>
        <time>2020-07-29T12:53:26Z</time>
      </trkpt>
      <trkpt lat="43.1788330" lon="-1.3965720">
        <ele>612.6</ele>
        <time>2020-07-29T12:53:30Z</time>
      </trkpt>
      <trkpt lat="43.1787780" lon="-1.3965980">
        <ele>613.0</ele>
        <time>2020-07-29T12:53:32Z</time>
      </trkpt>
      <trkpt lat="43.1786450" lon="-1.3966460">
        <ele>614.0</ele>
        <time>2020-07-29T12:53:37Z</time>
      </trkpt>
      <trkpt lat="43.1784550" lon="-1.3966540">
        <ele>614.6</ele>
        <time>2020-07-29T12:53:43Z</time>
      </trkpt>
      <trkpt lat="43.1783650" lon="-1.3966810">
        <ele>615.0</ele>
        <time>2020-07-29T12:53:46Z</time>
      </trkpt>
      <trkpt lat="43.1782590" lon="-1.3967480">
        <ele>615.6</ele>
        <time>2020-07-29T12:53:50Z</time>
      </trkpt>
      <trkpt lat="43.1782190" lon="-1.3968050">
        <ele>616.2</ele>
        <time>2020-07-29T12:53:52Z</time>
      </trkpt>
      <trkpt lat="43.1781520" lon="-1.3969370">
        <ele>617.4</ele>
        <time>2020-07-29T12:53:56Z</time>
      </trkpt>
      <trkpt lat="43.1780960" lon="-1.3970850">
        <ele>618.4</ele>
        <time>2020-07-29T12:54:00Z</time>
      </trkpt>
      <trkpt lat="43.1780380" lon="-1.3972290">
        <ele>619.8</ele>
        <time>2020-07-29T12:54:04Z</time>
      </trkpt>
      <trkpt lat="43.1780130" lon="-1.3973040">
        <ele>620.2</ele>
        <time>2020-07-29T12:54:06Z</time>
      </trkpt>
      <trkpt lat="43.1779660" lon="-1.3974510">
        <ele>621.0</ele>
        <time>2020-07-29T12:54:10Z</time>
      </trkpt>
      <trkpt lat="43.1779060" lon="-1.3976330">
        <ele>622.0</ele>
        <time>2020-07-29T12:54:15Z</time>
      </trkpt>
      <trkpt lat="43.1778930" lon="-1.3976680">
        <ele>622.2</ele>
        <time>2020-07-29T12:54:16Z</time>
      </trkpt>
      <trkpt lat="43.1778500" lon="-1.3978130">
        <ele>623.0</ele>
        <time>2020-07-29T12:54:20Z</time>
      </trkpt>
      <trkpt lat="43.1778260" lon="-1.3978910">
        <ele>623.6</ele>
        <time>2020-07-29T12:54:22Z</time>
      </trkpt>
      <trkpt lat="43.1778010" lon="-1.3979690">
        <ele>624.2</ele>
        <time>2020-07-29T12:54:24Z</time>
      </trkpt>
      <trkpt lat="43.1777360" lon="-1.3981870">
        <ele>625.2</ele>
        <time>2020-07-29T12:54:30Z</time>
      </trkpt>
      <trkpt lat="43.1777100" lon="-1.3982580">
        <ele>625.6</ele>
        <time>2020-07-29T12:54:32Z</time>
      </trkpt>
      <trkpt lat="43.1776680" lon="-1.3983630">
        <ele>626.4</ele>
        <time>2020-07-29T12:54:35Z</time>
      </trkpt>
      <trkpt lat="43.1776040" lon="-1.3985340">
        <ele>627.4</ele>
        <time>2020-07-29T12:54:40Z</time>
      </trkpt>
      <trkpt lat="43.1775900" lon="-1.3985670">
        <ele>627.6</ele>
        <time>2020-07-29T12:54:41Z</time>
      </trkpt>
      <trkpt lat="43.1775260" lon="-1.3987320">
        <ele>628.6</ele>
        <time>2020-07-29T12:54:46Z</time>
      </trkpt>
      <trkpt lat="43.1775000" lon="-1.3988020">
        <ele>629.2</ele>
        <time>2020-07-29T12:54:48Z</time>
      </trkpt>
      <trkpt lat="43.1774670" lon="-1.3988630">
        <ele>629.6</ele>
        <time>2020-07-29T12:54:50Z</time>
      </trkpt>
      <trkpt lat="43.1773890" lon="-1.3990160">
        <ele>630.4</ele>
        <time>2020-07-29T12:54:55Z</time>
      </trkpt>
      <trkpt lat="43.1773560" lon="-1.3990780">
        <ele>630.8</ele>
        <time>2020-07-29T12:54:57Z</time>
      </trkpt>
      <trkpt lat="43.1773100" lon="-1.3991750">
        <ele>632.0</ele>
        <time>2020-07-29T12:55:00Z</time>
      </trkpt>
      <trkpt lat="43.1772780" lon="-1.3992440">
        <ele>632.4</ele>
        <time>2020-07-29T12:55:02Z</time>
      </trkpt>
      <trkpt lat="43.1771890" lon="-1.3994530">
        <ele>633.0</ele>
        <time>2020-07-29T12:55:08Z</time>
      </trkpt>
      <trkpt lat="43.1771650" lon="-1.3995270">
        <ele>633.6</ele>
        <time>2020-07-29T12:55:10Z</time>
      </trkpt>
      <trkpt lat="43.1771340" lon="-1.3995950">
        <ele>634.2</ele>
        <time>2020-07-29T12:55:12Z</time>
      </trkpt>
      <trkpt lat="43.1770850" lon="-1.3997380">
        <ele>635.4</ele>
        <time>2020-07-29T12:55:16Z</time>
      </trkpt>
      <trkpt lat="43.1770050" lon="-1.3999500">
        <ele>636.4</ele>
        <time>2020-07-29T12:55:22Z</time>
      </trkpt>
      <trkpt lat="43.1769660" lon="-1.4000530">
        <ele>637.4</ele>
        <time>2020-07-29T12:55:25Z</time>
      </trkpt>
      <trkpt lat="43.1769520" lon="-1.4000850">
        <ele>637.6</ele>
        <time>2020-07-29T12:55:26Z</time>
      </trkpt>
      <trkpt lat="43.1769010" lon="-1.4002150">
        <ele>638.6</ele>
        <time>2020-07-29T12:55:30Z</time>
      </trkpt>
      <trkpt lat="43.1768780" lon="-1.4003220">
        <ele>639.2</ele>
        <time>2020-07-29T12:55:33Z</time>
      </trkpt>
      <trkpt lat="43.1768370" lon="-1.4004580">
        <ele>639.6</ele>
        <time>2020-07-29T12:55:37Z</time>
      </trkpt>
      <trkpt lat="43.1768260" lon="-1.4004910">
        <ele>639.8</ele>
        <time>2020-07-29T12:55:38Z</time>
      </trkpt>
      <trkpt lat="43.1767950" lon="-1.4005920">
        <ele>640.8</ele>
        <time>2020-07-29T12:55:41Z</time>
      </trkpt>
      <trkpt lat="43.1767840" lon="-1.4006260">
        <ele>641.0</ele>
        <time>2020-07-29T12:55:42Z</time>
      </trkpt>
      <trkpt lat="43.1767400" lon="-1.4007570">
        <ele>641.8</ele>
        <time>2020-07-29T12:55:46Z</time>
      </trkpt>
      <trkpt lat="43.1767050" lon="-1.4008870">
        <ele>642.2</ele>
        <time>2020-07-29T12:55:50Z</time>
      </trkpt>
      <trkpt lat="43.1766550" lon="-1.4010020">
        <ele>643.0</ele>
        <time>2020-07-29T12:55:54Z</time>
      </trkpt>
      <trkpt lat="43.1765830" lon="-1.4010920">
        <ele>643.6</ele>
        <time>2020-07-29T12:55:58Z</time>
      </trkpt>
      <trkpt lat="43.1765630" lon="-1.4011150">
        <ele>643.8</ele>
        <time>2020-07-29T12:55:59Z</time>
      </trkpt>
      <trkpt lat="43.1765250" lon="-1.4011700">
        <ele>644.0</ele>
        <time>2020-07-29T12:56:01Z</time>
      </trkpt>
      <trkpt lat="43.1764530" lon="-1.4012330">
        <ele>644.6</ele>
        <time>2020-07-29T12:56:04Z</time>
      </trkpt>
      <trkpt lat="43.1763780" lon="-1.4012960">
        <ele>645.2</ele>
        <time>2020-07-29T12:56:07Z</time>
      </trkpt>
      <trkpt lat="43.1763510" lon="-1.4013120">
        <ele>645.6</ele>
        <time>2020-07-29T12:56:08Z</time>
      </trkpt>
      <trkpt lat="43.1762160" lon="-1.4013880">
        <ele>646.4</ele>
        <time>2020-07-29T12:56:13Z</time>
      </trkpt>
      <trkpt lat="43.1761900" lon="-1.4014040">
        <ele>646.6</ele>
        <time>2020-07-29T12:56:14Z</time>
      </trkpt>
      <trkpt lat="43.1761130" lon="-1.4014510">
        <ele>647.4</ele>
        <time>2020-07-29T12:56:17Z</time>
      </trkpt>
      <trkpt lat="43.1760640" lon="-1.4014850">
        <ele>647.8</ele>
        <time>2020-07-29T12:56:19Z</time>
      </trkpt>
      <trkpt lat="43.1759710" lon="-1.4015550">
        <ele>648.6</ele>
        <time>2020-07-29T12:56:23Z</time>
      </trkpt>
      <trkpt lat="43.1758810" lon="-1.4016260">
        <ele>649.6</ele>
        <time>2020-07-29T12:56:27Z</time>
      </trkpt>
      <trkpt lat="43.1757780" lon="-1.4017370">
        <ele>650.6</ele>
        <time>2020-07-29T12:56:32Z</time>
      </trkpt>
      <trkpt lat="43.1757180" lon="-1.4018440">
        <ele>651.4</ele>
        <time>2020-07-29T12:56:36Z</time>
      </trkpt>
      <trkpt lat="43.1757190" lon="-1.4018780">
        <ele>651.8</ele>
        <time>2020-07-29T12:56:37Z</time>
      </trkpt>
      <trkpt lat="43.1757220" lon="-1.4019110">
        <ele>652.0</ele>
        <time>2020-07-29T12:56:38Z</time>
      </trkpt>
      <trkpt lat="43.1757040" lon="-1.4020790">
        <ele>652.6</ele>
        <time>2020-07-29T12:56:44Z</time>
      </trkpt>
      <trkpt lat="43.1755400" lon="-1.4020050">
        <ele>656.0</ele>
        <time>2020-07-29T13:11:12Z</time>
      </trkpt>
      <trkpt lat="43.1755390" lon="-1.4020060">
        <ele>656.0</ele>
        <time>2020-07-29T13:11:13Z</time>
      </trkpt>
      <trkpt lat="43.1755410" lon="-1.4020050">
        <ele>656.0</ele>
        <time>2020-07-29T13:11:14Z</time>
      </trkpt>
      <trkpt lat="43.1755600" lon="-1.4019750">
        <ele>656.0</ele>
        <time>2020-07-29T13:11:16Z</time>
      </trkpt>
      <trkpt lat="43.1756130" lon="-1.4018820">
        <ele>655.2</ele>
        <time>2020-07-29T13:11:19Z</time>
      </trkpt>
      <trkpt lat="43.1756340" lon="-1.4018440">
        <ele>654.8</ele>
        <time>2020-07-29T13:11:20Z</time>
      </trkpt>
      <trkpt lat="43.1756910" lon="-1.4017740">
        <ele>653.6</ele>
        <time>2020-07-29T13:11:23Z</time>
      </trkpt>
      <trkpt lat="43.1757120" lon="-1.4017750">
        <ele>653.6</ele>
        <time>2020-07-29T13:11:24Z</time>
      </trkpt>
      <trkpt lat="43.1757410" lon="-1.4018590">
        <ele>653.4</ele>
        <time>2020-07-29T13:11:27Z</time>
      </trkpt>
      <trkpt lat="43.1757210" lon="-1.4020770">
        <ele>654.2</ele>
        <time>2020-07-29T13:11:33Z</time>
      </trkpt>
      <trkpt lat="43.1757120" lon="-1.4021350">
        <ele>654.2</ele>
        <time>2020-07-29T13:11:35Z</time>
      </trkpt>
      <trkpt lat="43.1757150" lon="-1.4021950">
        <ele>654.4</ele>
        <time>2020-07-29T13:11:37Z</time>
      </trkpt>
      <trkpt lat="43.1757240" lon="-1.4022670">
        <ele>654.4</ele>
        <time>2020-07-29T13:11:39Z</time>
      </trkpt>
      <trkpt lat="43.1757630" lon="-1.4025200">
        <ele>654.0</ele>
        <time>2020-07-29T13:11:44Z</time>
      </trkpt>
      <trkpt lat="43.1757910" lon="-1.4026540">
        <ele>653.8</ele>
        <time>2020-07-29T13:11:46Z</time>
      </trkpt>
      <trkpt lat="43.1758140" lon="-1.4027270">
        <ele>653.4</ele>
        <time>2020-07-29T13:11:47Z</time>
      </trkpt>
      <trkpt lat="43.1758390" lon="-1.4027960">
        <ele>653.2</ele>
        <time>2020-07-29T13:11:48Z</time>
      </trkpt>
      <trkpt lat="43.1758950" lon="-1.4029400">
        <ele>652.2</ele>
        <time>2020-07-29T13:11:50Z</time>
      </trkpt>
      <trkpt lat="43.1759920" lon="-1.4031730">
        <ele>650.6</ele>
        <time>2020-07-29T13:11:53Z</time>
      </trkpt>
      <trkpt lat="43.1760350" lon="-1.4032540">
        <ele>650.0</ele>
        <time>2020-07-29T13:11:54Z</time>
      </trkpt>
      <trkpt lat="43.1760810" lon="-1.4033370">
        <ele>649.4</ele>
        <time>2020-07-29T13:11:55Z</time>
      </trkpt>
      <trkpt lat="43.1761800" lon="-1.4035160">
        <ele>648.4</ele>
        <time>2020-07-29T13:11:57Z</time>
      </trkpt>
      <trkpt lat="43.1762850" lon="-1.4037150">
        <ele>647.4</ele>
        <time>2020-07-29T13:11:59Z</time>
      </trkpt>
      <trkpt lat="43.1763980" lon="-1.4039140">
        <ele>646.2</ele>
        <time>2020-07-29T13:12:01Z</time>
      </trkpt>
      <trkpt lat="43.1765250" lon="-1.4041250">
        <ele>644.8</ele>
        <time>2020-07-29T13:12:03Z</time>
      </trkpt>
      <trkpt lat="43.1766480" lon="-1.4043570">
        <ele>643.8</ele>
        <time>2020-07-29T13:12:05Z</time>
      </trkpt>
      <trkpt lat="43.1767840" lon="-1.4045930">
        <ele>642.6</ele>
        <time>2020-07-29T13:12:07Z</time>
      </trkpt>
      <trkpt lat="43.1769940" lon="-1.4049630">
        <ele>640.8</ele>
        <time>2020-07-29T13:12:10Z</time>
      </trkpt>
      <trkpt lat="43.1770610" lon="-1.4050940">
        <ele>639.6</ele>
        <time>2020-07-29T13:12:11Z</time>
      </trkpt>
      <trkpt lat="43.1771280" lon="-1.4052260">
        <ele>637.8</ele>
        <time>2020-07-29T13:12:12Z</time>
      </trkpt>
      <trkpt lat="43.1771900" lon="-1.4053620">
        <ele>636.4</ele>
        <time>2020-07-29T13:12:13Z</time>
      </trkpt>
      <trkpt lat="43.1772430" lon="-1.4055060">
        <ele>635.4</ele>
        <time>2020-07-29T13:12:14Z</time>
      </trkpt>
      <trkpt lat="43.1772840" lon="-1.4056560">
        <ele>634.4</ele>
        <time>2020-07-29T13:12:15Z</time>
      </trkpt>
      <trkpt lat="43.1773170" lon="-1.4058110">
        <ele>633.6</ele>
        <time>2020-07-29T13:12:16Z</time>
      </trkpt>
      <trkpt lat="43.1773610" lon="-1.4061080">
        <ele>632.2</ele>
        <time>2020-07-29T13:12:18Z</time>
      </trkpt>
      <trkpt lat="43.1773770" lon="-1.4062370">
        <ele>631.6</ele>
        <time>2020-07-29T13:12:19Z</time>
      </trkpt>
      <trkpt lat="43.1773980" lon="-1.4063460">
        <ele>631.2</ele>
        <time>2020-07-29T13:12:20Z</time>
      </trkpt>
      <trkpt lat="43.1774640" lon="-1.4065120">
        <ele>630.8</ele>
        <time>2020-07-29T13:12:22Z</time>
      </trkpt>
      <trkpt lat="43.1776260" lon="-1.4064850">
        <ele>630.6</ele>
        <time>2020-07-29T13:12:24Z</time>
      </trkpt>
      <trkpt lat="43.1777020" lon="-1.4064600">
        <ele>630.6</ele>
        <time>2020-07-29T13:12:25Z</time>
      </trkpt>
      <trkpt lat="43.1777810" lon="-1.4064340">
        <ele>630.4</ele>
        <time>2020-07-29T13:12:26Z</time>
      </trkpt>
      <trkpt lat="43.1778620" lon="-1.4064080">
        <ele>629.8</ele>
        <time>2020-07-29T13:12:27Z</time>
      </trkpt>
      <trkpt lat="43.1779460" lon="-1.4063810">
        <ele>629.0</ele>
        <time>2020-07-29T13:12:28Z</time>
      </trkpt>
      <trkpt lat="43.1780300" lon="-1.4063560">
        <ele>628.4</ele>
        <time>2020-07-29T13:12:29Z</time>
      </trkpt>
      <trkpt lat="43.1782060" lon="-1.4063090">
        <ele>627.6</ele>
        <time>2020-07-29T13:12:31Z</time>
      </trkpt>
      <trkpt lat="43.1782960" lon="-1.4062880">
        <ele>627.4</ele>
        <time>2020-07-29T13:12:32Z</time>
      </trkpt>
      <trkpt lat="43.1785760" lon="-1.4062580">
        <ele>626.4</ele>
        <time>2020-07-29T13:12:35Z</time>
      </trkpt>
      <trkpt lat="43.1786710" lon="-1.4062590">
        <ele>625.8</ele>
        <time>2020-07-29T13:12:36Z</time>
      </trkpt>
      <trkpt lat="43.1787690" lon="-1.4062650">
        <ele>624.8</ele>
        <time>2020-07-29T13:12:37Z</time>
      </trkpt>
      <trkpt lat="43.1788680" lon="-1.4062750">
        <ele>623.8</ele>
        <time>2020-07-29T13:12:38Z</time>
      </trkpt>
      <trkpt lat="43.1790700" lon="-1.4062990">
        <ele>622.6</ele>
        <time>2020-07-29T13:12:40Z</time>
      </trkpt>
      <trkpt lat="43.1791720" lon="-1.4063170">
        <ele>622.0</ele>
        <time>2020-07-29T13:12:41Z</time>
      </trkpt>
      <trkpt lat="43.1792730" lon="-1.4063460">
        <ele>621.4</ele>
        <time>2020-07-29T13:12:42Z</time>
      </trkpt>
      <trkpt lat="43.1794750" lon="-1.4064280">
        <ele>620.2</ele>
        <time>2020-07-29T13:12:44Z</time>
      </trkpt>
      <trkpt lat="43.1795760" lon="-1.4064760">
        <ele>619.6</ele>
        <time>2020-07-29T13:12:45Z</time>
      </trkpt>
      <trkpt lat="43.1796760" lon="-1.4065280">
        <ele>619.0</ele>
        <time>2020-07-29T13:12:46Z</time>
      </trkpt>
      <trkpt lat="43.1798790" lon="-1.4066290">
        <ele>617.6</ele>
        <time>2020-07-29T13:12:48Z</time>
      </trkpt>
      <trkpt lat="43.1800760" lon="-1.4067190">
        <ele>616.2</ele>
        <time>2020-07-29T13:12:50Z</time>
      </trkpt>
      <trkpt lat="43.1801740" lon="-1.4067370">
        <ele>615.8</ele>
        <time>2020-07-29T13:12:51Z</time>
      </trkpt>
      <trkpt lat="43.1802660" lon="-1.4067320">
        <ele>615.4</ele>
        <time>2020-07-29T13:12:52Z</time>
      </trkpt>
      <trkpt lat="43.1804050" lon="-1.4067100">
        <ele>615.2</ele>
        <time>2020-07-29T13:12:54Z</time>
      </trkpt>
      <trkpt lat="43.1804550" lon="-1.4067810">
        <ele>615.0</ele>
        <time>2020-07-29T13:12:56Z</time>
      </trkpt>
      <trkpt lat="43.1804050" lon="-1.4068460">
        <ele>614.8</ele>
        <time>2020-07-29T13:12:57Z</time>
      </trkpt>
      <trkpt lat="43.1802680" lon="-1.4069230">
        <ele>614.6</ele>
        <time>2020-07-29T13:12:59Z</time>
      </trkpt>
      <trkpt lat="43.1801970" lon="-1.4069350">
        <ele>614.2</ele>
        <time>2020-07-29T13:13:00Z</time>
      </trkpt>
      <trkpt lat="43.1801260" lon="-1.4069380">
        <ele>614.0</ele>
        <time>2020-07-29T13:13:01Z</time>
      </trkpt>
      <trkpt lat="43.1799830" lon="-1.4069250">
        <ele>613.6</ele>
        <time>2020-07-29T13:13:03Z</time>
      </trkpt>
      <trkpt lat="43.1798400" lon="-1.4068820">
        <ele>613.4</ele>
        <time>2020-07-29T13:13:05Z</time>
      </trkpt>
      <trkpt lat="43.1796120" lon="-1.4067970">
        <ele>612.8</ele>
        <time>2020-07-29T13:13:08Z</time>
      </trkpt>
      <trkpt lat="43.1795320" lon="-1.4067730">
        <ele>612.4</ele>
        <time>2020-07-29T13:13:09Z</time>
      </trkpt>
      <trkpt lat="43.1794480" lon="-1.4067580">
        <ele>611.8</ele>
        <time>2020-07-29T13:13:10Z</time>
      </trkpt>
      <trkpt lat="43.1793630" lon="-1.4067530">
        <ele>611.4</ele>
        <time>2020-07-29T13:13:11Z</time>
      </trkpt>
      <trkpt lat="43.1791060" lon="-1.4067620">
        <ele>610.2</ele>
        <time>2020-07-29T13:13:14Z</time>
      </trkpt>
      <trkpt lat="43.1790170" lon="-1.4067700">
        <ele>609.6</ele>
        <time>2020-07-29T13:13:15Z</time>
      </trkpt>
      <trkpt lat="43.1789270" lon="-1.4067790">
        <ele>609.0</ele>
        <time>2020-07-29T13:13:16Z</time>
      </trkpt>
      <trkpt lat="43.1786500" lon="-1.4068070">
        <ele>608.0</ele>
        <time>2020-07-29T13:13:19Z</time>
      </trkpt>
      <trkpt lat="43.1783700" lon="-1.4068860">
        <ele>607.6</ele>
        <time>2020-07-29T13:13:22Z</time>
      </trkpt>
      <trkpt lat="43.1782770" lon="-1.4069330">
        <ele>607.2</ele>
        <time>2020-07-29T13:13:23Z</time>
      </trkpt>
      <trkpt lat="43.1781880" lon="-1.4069910">
        <ele>606.2</ele>
        <time>2020-07-29T13:13:24Z</time>
      </trkpt>
      <trkpt lat="43.1781030" lon="-1.4070520">
        <ele>605.0</ele>
        <time>2020-07-29T13:13:25Z</time>
      </trkpt>
      <trkpt lat="43.1780210" lon="-1.4071150">
        <ele>603.8</ele>
        <time>2020-07-29T13:13:26Z</time>
      </trkpt>
      <trkpt lat="43.1778630" lon="-1.4072630">
        <ele>602.4</ele>
        <time>2020-07-29T13:13:28Z</time>
      </trkpt>
      <trkpt lat="43.1777910" lon="-1.4073470">
        <ele>602.2</ele>
        <time>2020-07-29T13:13:29Z</time>
      </trkpt>
      <trkpt lat="43.1777240" lon="-1.4074400">
        <ele>601.8</ele>
        <time>2020-07-29T13:13:30Z</time>
      </trkpt>
      <trkpt lat="43.1773890" lon="-1.4079590">
        <ele>601.0</ele>
        <time>2020-07-29T13:13:35Z</time>
      </trkpt>
      <trkpt lat="43.1772470" lon="-1.4081720">
        <ele>599.6</ele>
        <time>2020-07-29T13:13:37Z</time>
      </trkpt>
      <trkpt lat="43.1771750" lon="-1.4082590">
        <ele>599.0</ele>
        <time>2020-07-29T13:13:38Z</time>
      </trkpt>
      <trkpt lat="43.1771000" lon="-1.4083210">
        <ele>598.6</ele>
        <time>2020-07-29T13:13:39Z</time>
      </trkpt>
      <trkpt lat="43.1770260" lon="-1.4083480">
        <ele>598.0</ele>
        <time>2020-07-29T13:13:40Z</time>
      </trkpt>
      <trkpt lat="43.1769590" lon="-1.4083390">
        <ele>597.6</ele>
        <time>2020-07-29T13:13:41Z</time>
      </trkpt>
      <trkpt lat="43.1769080" lon="-1.4082930">
        <ele>597.2</ele>
        <time>2020-07-29T13:13:42Z</time>
      </trkpt>
      <trkpt lat="43.1768400" lon="-1.4081340">
        <ele>596.4</ele>
        <time>2020-07-29T13:13:44Z</time>
      </trkpt>
      <trkpt lat="43.1768210" lon="-1.4080330">
        <ele>596.0</ele>
        <time>2020-07-29T13:13:45Z</time>
      </trkpt>
      <trkpt lat="43.1767280" lon="-1.4073690">
        <ele>595.0</ele>
        <time>2020-07-29T13:13:51Z</time>
      </trkpt>
      <trkpt lat="43.1767040" lon="-1.4072560">
        <ele>594.8</ele>
        <time>2020-07-29T13:13:52Z</time>
      </trkpt>
      <trkpt lat="43.1766450" lon="-1.4070280">
        <ele>593.8</ele>
        <time>2020-07-29T13:13:54Z</time>
      </trkpt>
      <trkpt lat="43.1765770" lon="-1.4067990">
        <ele>592.6</ele>
        <time>2020-07-29T13:13:56Z</time>
      </trkpt>
      <trkpt lat="43.1765370" lon="-1.4066850">
        <ele>592.2</ele>
        <time>2020-07-29T13:13:57Z</time>
      </trkpt>
      <trkpt lat="43.1764580" lon="-1.4064580">
        <ele>591.2</ele>
        <time>2020-07-29T13:13:59Z</time>
      </trkpt>
      <trkpt lat="43.1763720" lon="-1.4061870">
        <ele>589.8</ele>
        <time>2020-07-29T13:14:02Z</time>
      </trkpt>
      <trkpt lat="43.1763260" lon="-1.4060820">
        <ele>589.8</ele>
        <time>2020-07-29T13:14:04Z</time>
      </trkpt>
      <trkpt lat="43.1762720" lon="-1.4060340">
        <ele>589.8</ele>
        <time>2020-07-29T13:14:06Z</time>
      </trkpt>
      <trkpt lat="43.1762160" lon="-1.4060900">
        <ele>589.8</ele>
        <time>2020-07-29T13:14:09Z</time>
      </trkpt>
      <trkpt lat="43.1762430" lon="-1.4061820">
        <ele>589.6</ele>
        <time>2020-07-29T13:14:11Z</time>
      </trkpt>
      <trkpt lat="43.1762760" lon="-1.4062300">
        <ele>588.8</ele>
        <time>2020-07-29T13:16:08Z</time>
      </trkpt>
      <trkpt lat="43.1763100" lon="-1.4062790">
        <ele>588.8</ele>
        <time>2020-07-29T13:16:09Z</time>
      </trkpt>
      <trkpt lat="43.1764070" lon="-1.4065140">
        <ele>588.2</ele>
        <time>2020-07-29T13:16:13Z</time>
      </trkpt>
      <trkpt lat="43.1764320" lon="-1.4065840">
        <ele>588.2</ele>
        <time>2020-07-29T13:16:14Z</time>
      </trkpt>
      <trkpt lat="43.1764970" lon="-1.4068340">
        <ele>587.8</ele>
        <time>2020-07-29T13:16:17Z</time>
      </trkpt>
      <trkpt lat="43.1765300" lon="-1.4070280">
        <ele>587.6</ele>
        <time>2020-07-29T13:16:19Z</time>
      </trkpt>
      <trkpt lat="43.1765540" lon="-1.4072370">
        <ele>586.6</ele>
        <time>2020-07-29T13:16:21Z</time>
      </trkpt>
      <trkpt lat="43.1765760" lon="-1.4074590">
        <ele>585.8</ele>
        <time>2020-07-29T13:16:23Z</time>
      </trkpt>
      <trkpt lat="43.1765860" lon="-1.4075700">
        <ele>585.4</ele>
        <time>2020-07-29T13:16:24Z</time>
      </trkpt>
      <trkpt lat="43.1765910" lon="-1.4076870">
        <ele>585.2</ele>
        <time>2020-07-29T13:16:25Z</time>
      </trkpt>
      <trkpt lat="43.1766080" lon="-1.4079130">
        <ele>584.4</ele>
        <time>2020-07-29T13:16:27Z</time>
      </trkpt>
      <trkpt lat="43.1766150" lon="-1.4080330">
        <ele>584.0</ele>
        <time>2020-07-29T13:16:28Z</time>
      </trkpt>
      <trkpt lat="43.1766200" lon="-1.4081560">
        <ele>583.4</ele>
        <time>2020-07-29T13:16:29Z</time>
      </trkpt>
      <trkpt lat="43.1766220" lon="-1.4082850">
        <ele>583.0</ele>
        <time>2020-07-29T13:16:30Z</time>
      </trkpt>
      <trkpt lat="43.1766220" lon="-1.4084150">
        <ele>582.6</ele>
        <time>2020-07-29T13:16:31Z</time>
      </trkpt>
      <trkpt lat="43.1766190" lon="-1.4086860">
        <ele>581.8</ele>
        <time>2020-07-29T13:16:33Z</time>
      </trkpt>
      <trkpt lat="43.1766410" lon="-1.4089410">
        <ele>580.6</ele>
        <time>2020-07-29T13:16:35Z</time>
      </trkpt>
      <trkpt lat="43.1766760" lon="-1.4090530">
        <ele>580.2</ele>
        <time>2020-07-29T13:16:36Z</time>
      </trkpt>
      <trkpt lat="43.1767270" lon="-1.4091490">
        <ele>579.8</ele>
        <time>2020-07-29T13:16:37Z</time>
      </trkpt>
      <trkpt lat="43.1767980" lon="-1.4092170">
        <ele>579.2</ele>
        <time>2020-07-29T13:16:38Z</time>
      </trkpt>
      <trkpt lat="43.1768840" lon="-1.4092540">
        <ele>578.4</ele>
        <time>2020-07-29T13:16:39Z</time>
      </trkpt>
      <trkpt lat="43.1769790" lon="-1.4092490">
        <ele>577.6</ele>
        <time>2020-07-29T13:16:40Z</time>
      </trkpt>
      <trkpt lat="43.1770750" lon="-1.4092260">
        <ele>577.2</ele>
        <time>2020-07-29T13:16:41Z</time>
      </trkpt>
      <trkpt lat="43.1772690" lon="-1.4091470">
        <ele>576.2</ele>
        <time>2020-07-29T13:16:43Z</time>
      </trkpt>
      <trkpt lat="43.1774640" lon="-1.4090400">
        <ele>575.0</ele>
        <time>2020-07-29T13:16:45Z</time>
      </trkpt>
      <trkpt lat="43.1776620" lon="-1.4089100">
        <ele>573.2</ele>
        <time>2020-07-29T13:16:47Z</time>
      </trkpt>
      <trkpt lat="43.1777550" lon="-1.4088290">
        <ele>572.6</ele>
        <time>2020-07-29T13:16:48Z</time>
      </trkpt>
      <trkpt lat="43.1778420" lon="-1.4087400">
        <ele>572.2</ele>
        <time>2020-07-29T13:16:49Z</time>
      </trkpt>
      <trkpt lat="43.1780060" lon="-1.4085520">
        <ele>571.2</ele>
        <time>2020-07-29T13:16:51Z</time>
      </trkpt>
      <trkpt lat="43.1781900" lon="-1.4083760">
        <ele>570.2</ele>
        <time>2020-07-29T13:16:53Z</time>
      </trkpt>
      <trkpt lat="43.1783920" lon="-1.4082380">
        <ele>569.0</ele>
        <time>2020-07-29T13:16:55Z</time>
      </trkpt>
      <trkpt lat="43.1786190" lon="-1.4081920">
        <ele>568.6</ele>
        <time>2020-07-29T13:16:57Z</time>
      </trkpt>
      <trkpt lat="43.1789480" lon="-1.4082280">
        <ele>567.8</ele>
        <time>2020-07-29T13:17:00Z</time>
      </trkpt>
      <trkpt lat="43.1790500" lon="-1.4082620">
        <ele>567.4</ele>
        <time>2020-07-29T13:17:01Z</time>
      </trkpt>
      <trkpt lat="43.1791430" lon="-1.4083220">
        <ele>566.6</ele>
        <time>2020-07-29T13:17:02Z</time>
      </trkpt>
      <trkpt lat="43.1792250" lon="-1.4084020">
        <ele>565.4</ele>
        <time>2020-07-29T13:17:03Z</time>
      </trkpt>
      <trkpt lat="43.1792860" lon="-1.4085090">
        <ele>564.6</ele>
        <time>2020-07-29T13:17:04Z</time>
      </trkpt>
      <trkpt lat="43.1793290" lon="-1.4086420">
        <ele>564.0</ele>
        <time>2020-07-29T13:17:05Z</time>
      </trkpt>
      <trkpt lat="43.1794350" lon="-1.4088900">
        <ele>563.4</ele>
        <time>2020-07-29T13:17:07Z</time>
      </trkpt>
      <trkpt lat="43.1795040" lon="-1.4090010">
        <ele>563.2</ele>
        <time>2020-07-29T13:17:08Z</time>
      </trkpt>
      <trkpt lat="43.1795810" lon="-1.4091030">
        <ele>562.8</ele>
        <time>2020-07-29T13:17:09Z</time>
      </trkpt>
      <trkpt lat="43.1797520" lon="-1.4092770">
        <ele>561.8</ele>
        <time>2020-07-29T13:17:11Z</time>
      </trkpt>
      <trkpt lat="43.1800390" lon="-1.4094840">
        <ele>560.4</ele>
        <time>2020-07-29T13:17:14Z</time>
      </trkpt>
      <trkpt lat="43.1801430" lon="-1.4095270">
        <ele>559.8</ele>
        <time>2020-07-29T13:17:15Z</time>
      </trkpt>
      <trkpt lat="43.1802510" lon="-1.4095490">
        <ele>559.2</ele>
        <time>2020-07-29T13:17:16Z</time>
      </trkpt>
      <trkpt lat="43.1803660" lon="-1.4095460">
        <ele>558.6</ele>
        <time>2020-07-29T13:17:17Z</time>
      </trkpt>
      <trkpt lat="43.1804800" lon="-1.4095310">
        <ele>558.2</ele>
        <time>2020-07-29T13:17:18Z</time>
      </trkpt>
      <trkpt lat="43.1805970" lon="-1.4095050">
        <ele>557.6</ele>
        <time>2020-07-29T13:17:19Z</time>
      </trkpt>
      <trkpt lat="43.1807130" lon="-1.4094800">
        <ele>557.0</ele>
        <time>2020-07-29T13:17:20Z</time>
      </trkpt>
      <trkpt lat="43.1810470" lon="-1.4094080">
        <ele>555.6</ele>
        <time>2020-07-29T13:17:23Z</time>
      </trkpt>
      <trkpt lat="43.1812750" lon="-1.4093570">
        <ele>554.4</ele>
        <time>2020-07-29T13:17:25Z</time>
      </trkpt>
      <trkpt lat="43.1813890" lon="-1.4093390">
        <ele>554.0</ele>
        <time>2020-07-29T13:17:26Z</time>
      </trkpt>
      <trkpt lat="43.1815000" lon="-1.4093300">
        <ele>553.4</ele>
        <time>2020-07-29T13:17:27Z</time>
      </trkpt>
      <trkpt lat="43.1816090" lon="-1.4093370">
        <ele>553.2</ele>
        <time>2020-07-29T13:17:28Z</time>
      </trkpt>
      <trkpt lat="43.1818130" lon="-1.4094210">
        <ele>552.2</ele>
        <time>2020-07-29T13:17:30Z</time>
      </trkpt>
      <trkpt lat="43.1819120" lon="-1.4094780">
        <ele>551.4</ele>
        <time>2020-07-29T13:17:31Z</time>
      </trkpt>
      <trkpt lat="43.1821120" lon="-1.4095600">
        <ele>549.6</ele>
        <time>2020-07-29T13:17:33Z</time>
      </trkpt>
      <trkpt lat="43.1822130" lon="-1.4095760">
        <ele>548.8</ele>
        <time>2020-07-29T13:17:34Z</time>
      </trkpt>
      <trkpt lat="43.1823000" lon="-1.4095810">
        <ele>548.0</ele>
        <time>2020-07-29T13:17:35Z</time>
      </trkpt>
      <trkpt lat="43.1823650" lon="-1.4095930">
        <ele>547.0</ele>
        <time>2020-07-29T13:17:36Z</time>
      </trkpt>
      <trkpt lat="43.1824110" lon="-1.4096240">
        <ele>545.4</ele>
        <time>2020-07-29T13:17:37Z</time>
      </trkpt>
      <trkpt lat="43.1824290" lon="-1.4096740">
        <ele>544.0</ele>
        <time>2020-07-29T13:17:38Z</time>
      </trkpt>
      <trkpt lat="43.1824020" lon="-1.4097450">
        <ele>543.0</ele>
        <time>2020-07-29T13:17:39Z</time>
      </trkpt>
      <trkpt lat="43.1823090" lon="-1.4098120">
        <ele>541.8</ele>
        <time>2020-07-29T13:17:41Z</time>
      </trkpt>
      <trkpt lat="43.1822450" lon="-1.4098230">
        <ele>541.4</ele>
        <time>2020-07-29T13:17:42Z</time>
      </trkpt>
      <trkpt lat="43.1820440" lon="-1.4098170">
        <ele>540.8</ele>
        <time>2020-07-29T13:17:45Z</time>
      </trkpt>
      <trkpt lat="43.1819720" lon="-1.4098130">
        <ele>540.4</ele>
        <time>2020-07-29T13:17:46Z</time>
      </trkpt>
      <trkpt lat="43.1818870" lon="-1.4097970">
        <ele>540.2</ele>
        <time>2020-07-29T13:17:47Z</time>
      </trkpt>
      <trkpt lat="43.1816190" lon="-1.4097400">
        <ele>539.2</ele>
        <time>2020-07-29T13:17:50Z</time>
      </trkpt>
      <trkpt lat="43.1815200" lon="-1.4097360">
        <ele>539.2</ele>
        <time>2020-07-29T13:17:51Z</time>
      </trkpt>
      <trkpt lat="43.1814190" lon="-1.4097540">
        <ele>539.0</ele>
        <time>2020-07-29T13:17:52Z</time>
      </trkpt>
      <trkpt lat="43.1813180" lon="-1.4097880">
        <ele>539.0</ele>
        <time>2020-07-29T13:17:53Z</time>
      </trkpt>
      <trkpt lat="43.1810200" lon="-1.4099450">
        <ele>538.2</ele>
        <time>2020-07-29T13:17:56Z</time>
      </trkpt>
      <trkpt lat="43.1809230" lon="-1.4100130">
        <ele>538.0</ele>
        <time>2020-07-29T13:17:57Z</time>
      </trkpt>
      <trkpt lat="43.1804960" lon="-1.4102490">
        <ele>536.8</ele>
        <time>2020-07-29T13:18:01Z</time>
      </trkpt>
      <trkpt lat="43.1803800" lon="-1.4102820">
        <ele>535.8</ele>
        <time>2020-07-29T13:18:02Z</time>
      </trkpt>
      <trkpt lat="43.1802660" lon="-1.4103040">
        <ele>535.0</ele>
        <time>2020-07-29T13:18:03Z</time>
      </trkpt>
      <trkpt lat="43.1801440" lon="-1.4103070">
        <ele>534.4</ele>
        <time>2020-07-29T13:18:04Z</time>
      </trkpt>
      <trkpt lat="43.1800280" lon="-1.4102990">
        <ele>533.8</ele>
        <time>2020-07-29T13:18:05Z</time>
      </trkpt>
      <trkpt lat="43.1799190" lon="-1.4102770">
        <ele>533.2</ele>
        <time>2020-07-29T13:18:06Z</time>
      </trkpt>
      <trkpt lat="43.1798060" lon="-1.4102460">
        <ele>532.6</ele>
        <time>2020-07-29T13:18:07Z</time>
      </trkpt>
      <trkpt lat="43.1796930" lon="-1.4102080">
        <ele>532.2</ele>
        <time>2020-07-29T13:18:08Z</time>
      </trkpt>
      <trkpt lat="43.1793500" lon="-1.4100850">
        <ele>531.2</ele>
        <time>2020-07-29T13:18:11Z</time>
      </trkpt>
      <trkpt lat="43.1791320" lon="-1.4100180">
        <ele>530.0</ele>
        <time>2020-07-29T13:18:13Z</time>
      </trkpt>
      <trkpt lat="43.1790330" lon="-1.4099810">
        <ele>529.0</ele>
        <time>2020-07-29T13:18:14Z</time>
      </trkpt>
      <trkpt lat="43.1789420" lon="-1.4099300">
        <ele>528.0</ele>
        <time>2020-07-29T13:18:15Z</time>
      </trkpt>
      <trkpt lat="43.1788560" lon="-1.4098460">
        <ele>526.8</ele>
        <time>2020-07-29T13:18:16Z</time>
      </trkpt>
      <trkpt lat="43.1787910" lon="-1.4097520">
        <ele>525.8</ele>
        <time>2020-07-29T13:18:17Z</time>
      </trkpt>
      <trkpt lat="43.1787320" lon="-1.4096530">
        <ele>525.0</ele>
        <time>2020-07-29T13:18:18Z</time>
      </trkpt>
      <trkpt lat="43.1786680" lon="-1.4095780">
        <ele>524.2</ele>
        <time>2020-07-29T13:18:19Z</time>
      </trkpt>
      <trkpt lat="43.1785990" lon="-1.4095340">
        <ele>523.4</ele>
        <time>2020-07-29T13:18:20Z</time>
      </trkpt>
      <trkpt lat="43.1785240" lon="-1.4095200">
        <ele>522.8</ele>
        <time>2020-07-29T13:18:21Z</time>
      </trkpt>
      <trkpt lat="43.1784430" lon="-1.4095320">
        <ele>522.2</ele>
        <time>2020-07-29T13:18:22Z</time>
      </trkpt>
      <trkpt lat="43.1783680" lon="-1.4095660">
        <ele>521.6</ele>
        <time>2020-07-29T13:18:23Z</time>
      </trkpt>
      <trkpt lat="43.1782430" lon="-1.4097160">
        <ele>521.0</ele>
        <time>2020-07-29T13:18:25Z</time>
      </trkpt>
      <trkpt lat="43.1781810" lon="-1.4098030">
        <ele>520.6</ele>
        <time>2020-07-29T13:18:26Z</time>
      </trkpt>
      <trkpt lat="43.1780590" lon="-1.4100000">
        <ele>519.8</ele>
        <time>2020-07-29T13:18:28Z</time>
      </trkpt>
      <trkpt lat="43.1779360" lon="-1.4102110">
        <ele>518.8</ele>
        <time>2020-07-29T13:18:30Z</time>
      </trkpt>
      <trkpt lat="43.1778710" lon="-1.4103220">
        <ele>518.4</ele>
        <time>2020-07-29T13:18:31Z</time>
      </trkpt>
      <trkpt lat="43.1776510" lon="-1.4106490">
        <ele>517.0</ele>
        <time>2020-07-29T13:18:34Z</time>
      </trkpt>
      <trkpt lat="43.1775740" lon="-1.4107510">
        <ele>516.6</ele>
        <time>2020-07-29T13:18:35Z</time>
      </trkpt>
      <trkpt lat="43.1773270" lon="-1.4110500">
        <ele>515.6</ele>
        <time>2020-07-29T13:18:38Z</time>
      </trkpt>
      <trkpt lat="43.1771610" lon="-1.4112670">
        <ele>514.0</ele>
        <time>2020-07-29T13:18:40Z</time>
      </trkpt>
      <trkpt lat="43.1770030" lon="-1.4114750">
        <ele>512.2</ele>
        <time>2020-07-29T13:18:42Z</time>
      </trkpt>
      <trkpt lat="43.1769180" lon="-1.4115620">
        <ele>511.4</ele>
        <time>2020-07-29T13:18:43Z</time>
      </trkpt>
      <trkpt lat="43.1768320" lon="-1.4116340">
        <ele>510.8</ele>
        <time>2020-07-29T13:18:44Z</time>
      </trkpt>
      <trkpt lat="43.1766740" lon="-1.4117260">
        <ele>509.6</ele>
        <time>2020-07-29T13:18:46Z</time>
      </trkpt>
      <trkpt lat="43.1766170" lon="-1.4117740">
        <ele>508.8</ele>
        <time>2020-07-29T13:18:47Z</time>
      </trkpt>
      <trkpt lat="43.1765950" lon="-1.4118360">
        <ele>507.8</ele>
        <time>2020-07-29T13:18:48Z</time>
      </trkpt>
      <trkpt lat="43.1766090" lon="-1.4118990">
        <ele>506.4</ele>
        <time>2020-07-29T13:18:49Z</time>
      </trkpt>
      <trkpt lat="43.1766440" lon="-1.4119380">
        <ele>505.2</ele>
        <time>2020-07-29T13:18:50Z</time>
      </trkpt>
      <trkpt lat="43.1766970" lon="-1.4119280">
        <ele>504.4</ele>
        <time>2020-07-29T13:18:51Z</time>
      </trkpt>
      <trkpt lat="43.1767510" lon="-1.4119010">
        <ele>504.2</ele>
        <time>2020-07-29T13:18:52Z</time>
      </trkpt>
      <trkpt lat="43.1769350" lon="-1.4117950">
        <ele>503.6</ele>
        <time>2020-07-29T13:18:55Z</time>
      </trkpt>
      <trkpt lat="43.1771890" lon="-1.4115580">
        <ele>503.0</ele>
        <time>2020-07-29T13:18:59Z</time>
      </trkpt>
      <trkpt lat="43.1772560" lon="-1.4114850">
        <ele>502.8</ele>
        <time>2020-07-29T13:19:00Z</time>
      </trkpt>
      <trkpt lat="43.1774580" lon="-1.4112750">
        <ele>502.0</ele>
        <time>2020-07-29T13:19:03Z</time>
      </trkpt>
      <trkpt lat="43.1775960" lon="-1.4111260">
        <ele>501.6</ele>
        <time>2020-07-29T13:19:05Z</time>
      </trkpt>
      <trkpt lat="43.1776710" lon="-1.4110480">
        <ele>501.4</ele>
        <time>2020-07-29T13:19:06Z</time>
      </trkpt>
      <trkpt lat="43.1778380" lon="-1.4108950">
        <ele>500.8</ele>
        <time>2020-07-29T13:19:08Z</time>
      </trkpt>
      <trkpt lat="43.1780720" lon="-1.4106550">
        <ele>499.8</ele>
        <time>2020-07-29T13:19:11Z</time>
      </trkpt>
      <trkpt lat="43.1781790" lon="-1.4104500">
        <ele>499.6</ele>
        <time>2020-07-29T13:19:13Z</time>
      </trkpt>
      <trkpt lat="43.1782240" lon="-1.4103500">
        <ele>499.4</ele>
        <time>2020-07-29T13:19:14Z</time>
      </trkpt>
      <trkpt lat="43.1782900" lon="-1.4102760">
        <ele>499.0</ele>
        <time>2020-07-29T13:19:15Z</time>
      </trkpt>
      <trkpt lat="43.1783730" lon="-1.4102410">
        <ele>498.4</ele>
        <time>2020-07-29T13:19:16Z</time>
      </trkpt>
      <trkpt lat="43.1784520" lon="-1.4102530">
        <ele>497.8</ele>
        <time>2020-07-29T13:19:17Z</time>
      </trkpt>
      <trkpt lat="43.1785290" lon="-1.4102930">
        <ele>497.4</ele>
        <time>2020-07-29T13:19:18Z</time>
      </trkpt>
      <trkpt lat="43.1785810" lon="-1.4103770">
        <ele>497.2</ele>
        <time>2020-07-29T13:19:19Z</time>
      </trkpt>
      <trkpt lat="43.1786280" lon="-1.4104660">
        <ele>497.0</ele>
        <time>2020-07-29T13:19:20Z</time>
      </trkpt>
      <trkpt lat="43.1786660" lon="-1.4105630">
        <ele>496.6</ele>
        <time>2020-07-29T13:19:21Z</time>
      </trkpt>
      <trkpt lat="43.1786990" lon="-1.4106690">
        <ele>496.0</ele>
        <time>2020-07-29T13:19:22Z</time>
      </trkpt>
      <trkpt lat="43.1787650" lon="-1.4108990">
        <ele>495.4</ele>
        <time>2020-07-29T13:19:24Z</time>
      </trkpt>
      <trkpt lat="43.1788260" lon="-1.4111650">
        <ele>494.6</ele>
        <time>2020-07-29T13:19:26Z</time>
      </trkpt>
      <trkpt lat="43.1788860" lon="-1.4114380">
        <ele>493.2</ele>
        <time>2020-07-29T13:19:28Z</time>
      </trkpt>
      <trkpt lat="43.1789200" lon="-1.4115760">
        <ele>492.8</ele>
        <time>2020-07-29T13:19:29Z</time>
      </trkpt>
      <trkpt lat="43.1789640" lon="-1.4117110">
        <ele>492.4</ele>
        <time>2020-07-29T13:19:30Z</time>
      </trkpt>
      <trkpt lat="43.1790160" lon="-1.4118500">
        <ele>491.8</ele>
        <time>2020-07-29T13:19:31Z</time>
      </trkpt>
      <trkpt lat="43.1790790" lon="-1.4119760">
        <ele>490.8</ele>
        <time>2020-07-29T13:19:32Z</time>
      </trkpt>
      <trkpt lat="43.1791520" lon="-1.4120910">
        <ele>489.8</ele>
        <time>2020-07-29T13:19:33Z</time>
      </trkpt>
      <trkpt lat="43.1792310" lon="-1.4121980">
        <ele>489.2</ele>
        <time>2020-07-29T13:19:34Z</time>
      </trkpt>
      <trkpt lat="43.1793860" lon="-1.4124090">
        <ele>488.0</ele>
        <time>2020-07-29T13:19:36Z</time>
      </trkpt>
      <trkpt lat="43.1795690" lon="-1.4125860">
        <ele>486.8</ele>
        <time>2020-07-29T13:19:38Z</time>
      </trkpt>
      <trkpt lat="43.1796710" lon="-1.4126480">
        <ele>486.0</ele>
        <time>2020-07-29T13:19:39Z</time>
      </trkpt>
      <trkpt lat="43.1797890" lon="-1.4126620">
        <ele>485.2</ele>
        <time>2020-07-29T13:19:40Z</time>
      </trkpt>
      <trkpt lat="43.1799060" lon="-1.4126450">
        <ele>484.4</ele>
        <time>2020-07-29T13:19:41Z</time>
      </trkpt>
      <trkpt lat="43.1800180" lon="-1.4126080">
        <ele>484.0</ele>
        <time>2020-07-29T13:19:42Z</time>
      </trkpt>
      <trkpt lat="43.1801270" lon="-1.4125520">
        <ele>483.6</ele>
        <time>2020-07-29T13:19:43Z</time>
      </trkpt>
      <trkpt lat="43.1802270" lon="-1.4124890">
        <ele>483.0</ele>
        <time>2020-07-29T13:19:44Z</time>
      </trkpt>
      <trkpt lat="43.1803240" lon="-1.4124150">
        <ele>482.6</ele>
        <time>2020-07-29T13:19:45Z</time>
      </trkpt>
      <trkpt lat="43.1806150" lon="-1.4122120">
        <ele>481.4</ele>
        <time>2020-07-29T13:19:48Z</time>
      </trkpt>
      <trkpt lat="43.1807180" lon="-1.4121670">
        <ele>481.2</ele>
        <time>2020-07-29T13:19:49Z</time>
      </trkpt>
      <trkpt lat="43.1808230" lon="-1.4121370">
        <ele>480.6</ele>
        <time>2020-07-29T13:19:50Z</time>
      </trkpt>
      <trkpt lat="43.1809300" lon="-1.4121130">
        <ele>480.2</ele>
        <time>2020-07-29T13:19:51Z</time>
      </trkpt>
      <trkpt lat="43.1811290" lon="-1.4120960">
        <ele>479.2</ele>
        <time>2020-07-29T13:19:53Z</time>
      </trkpt>
      <trkpt lat="43.1812130" lon="-1.4121260">
        <ele>478.4</ele>
        <time>2020-07-29T13:19:54Z</time>
      </trkpt>
      <trkpt lat="43.1812820" lon="-1.4121870">
        <ele>477.4</ele>
        <time>2020-07-29T13:19:55Z</time>
      </trkpt>
      <trkpt lat="43.1813250" lon="-1.4123720">
        <ele>476.2</ele>
        <time>2020-07-29T13:19:57Z</time>
      </trkpt>
      <trkpt lat="43.1812920" lon="-1.4126100">
        <ele>475.2</ele>
        <time>2020-07-29T13:19:59Z</time>
      </trkpt>
      <trkpt lat="43.1812660" lon="-1.4127330">
        <ele>474.8</ele>
        <time>2020-07-29T13:20:00Z</time>
      </trkpt>
      <trkpt lat="43.1811630" lon="-1.4131130">
        <ele>473.6</ele>
        <time>2020-07-29T13:20:03Z</time>
      </trkpt>
      <trkpt lat="43.1810690" lon="-1.4133720">
        <ele>472.4</ele>
        <time>2020-07-29T13:20:05Z</time>
      </trkpt>
      <trkpt lat="43.1808810" lon="-1.4137580">
        <ele>471.2</ele>
        <time>2020-07-29T13:20:08Z</time>
      </trkpt>
      <trkpt lat="43.1808090" lon="-1.4138870">
        <ele>470.4</ele>
        <time>2020-07-29T13:20:09Z</time>
      </trkpt>
      <trkpt lat="43.1807350" lon="-1.4140130">
        <ele>469.6</ele>
        <time>2020-07-29T13:20:10Z</time>
      </trkpt>
      <trkpt lat="43.1805800" lon="-1.4142690">
        <ele>468.4</ele>
        <time>2020-07-29T13:20:12Z</time>
      </trkpt>
      <trkpt lat="43.1804280" lon="-1.4145150">
        <ele>467.0</ele>
        <time>2020-07-29T13:20:14Z</time>
      </trkpt>
      <trkpt lat="43.1803620" lon="-1.4146220">
        <ele>466.2</ele>
        <time>2020-07-29T13:20:15Z</time>
      </trkpt>
      <trkpt lat="43.1803090" lon="-1.4147170">
        <ele>465.2</ele>
        <time>2020-07-29T13:20:16Z</time>
      </trkpt>
      <trkpt lat="43.1802720" lon="-1.4148100">
        <ele>463.6</ele>
        <time>2020-07-29T13:20:17Z</time>
      </trkpt>
      <trkpt lat="43.1802670" lon="-1.4149090">
        <ele>461.8</ele>
        <time>2020-07-29T13:20:18Z</time>
      </trkpt>
      <trkpt lat="43.1802990" lon="-1.4150130">
        <ele>460.4</ele>
        <time>2020-07-29T13:20:19Z</time>
      </trkpt>
      <trkpt lat="43.1803490" lon="-1.4151110">
        <ele>459.6</ele>
        <time>2020-07-29T13:20:20Z</time>
      </trkpt>
      <trkpt lat="43.1804150" lon="-1.4151780">
        <ele>458.6</ele>
        <time>2020-07-29T13:20:21Z</time>
      </trkpt>
      <trkpt lat="43.1805980" lon="-1.4152070">
        <ele>457.0</ele>
        <time>2020-07-29T13:20:23Z</time>
      </trkpt>
      <trkpt lat="43.1810980" lon="-1.4151600">
        <ele>456.8</ele>
        <time>2020-07-29T13:20:28Z</time>
      </trkpt>
      <trkpt lat="43.1813980" lon="-1.4151380">
        <ele>455.6</ele>
        <time>2020-07-29T13:20:31Z</time>
      </trkpt>
      <trkpt lat="43.1816020" lon="-1.4151090">
        <ele>454.6</ele>
        <time>2020-07-29T13:20:33Z</time>
      </trkpt>
      <trkpt lat="43.1817020" lon="-1.4150980">
        <ele>454.4</ele>
        <time>2020-07-29T13:20:34Z</time>
      </trkpt>
      <trkpt lat="43.1817990" lon="-1.4150900">
        <ele>454.2</ele>
        <time>2020-07-29T13:20:35Z</time>
      </trkpt>
      <trkpt lat="43.1819750" lon="-1.4151130">
        <ele>453.4</ele>
        <time>2020-07-29T13:20:37Z</time>
      </trkpt>
      <trkpt lat="43.1820510" lon="-1.4151600">
        <ele>453.0</ele>
        <time>2020-07-29T13:20:38Z</time>
      </trkpt>
      <trkpt lat="43.1821150" lon="-1.4152370">
        <ele>452.2</ele>
        <time>2020-07-29T13:20:39Z</time>
      </trkpt>
      <trkpt lat="43.1821440" lon="-1.4153460">
        <ele>451.2</ele>
        <time>2020-07-29T13:20:40Z</time>
      </trkpt>
      <trkpt lat="43.1821400" lon="-1.4154660">
        <ele>450.2</ele>
        <time>2020-07-29T13:20:41Z</time>
      </trkpt>
      <trkpt lat="43.1821160" lon="-1.4155830">
        <ele>449.6</ele>
        <time>2020-07-29T13:20:42Z</time>
      </trkpt>
      <trkpt lat="43.1820790" lon="-1.4156910">
        <ele>448.8</ele>
        <time>2020-07-29T13:20:43Z</time>
      </trkpt>
      <trkpt lat="43.1820290" lon="-1.4157870">
        <ele>448.2</ele>
        <time>2020-07-29T13:20:44Z</time>
      </trkpt>
      <trkpt lat="43.1819660" lon="-1.4158680">
        <ele>447.4</ele>
        <time>2020-07-29T13:20:45Z</time>
      </trkpt>
      <trkpt lat="43.1818890" lon="-1.4159360">
        <ele>447.0</ele>
        <time>2020-07-29T13:20:46Z</time>
      </trkpt>
      <trkpt lat="43.1817330" lon="-1.4160750">
        <ele>446.6</ele>
        <time>2020-07-29T13:20:48Z</time>
      </trkpt>
      <trkpt lat="43.1816670" lon="-1.4161620">
        <ele>446.4</ele>
        <time>2020-07-29T13:20:49Z</time>
      </trkpt>
      <trkpt lat="43.1815580" lon="-1.4163780">
        <ele>446.0</ele>
        <time>2020-07-29T13:20:51Z</time>
      </trkpt>
      <trkpt lat="43.1815240" lon="-1.4164950">
        <ele>445.8</ele>
        <time>2020-07-29T13:20:52Z</time>
      </trkpt>
      <trkpt lat="43.1814510" lon="-1.4167200">
        <ele>444.8</ele>
        <time>2020-07-29T13:20:54Z</time>
      </trkpt>
      <trkpt lat="43.1814040" lon="-1.4168270">
        <ele>444.0</ele>
        <time>2020-07-29T13:20:55Z</time>
      </trkpt>
      <trkpt lat="43.1813270" lon="-1.4169130">
        <ele>443.4</ele>
        <time>2020-07-29T13:20:56Z</time>
      </trkpt>
      <trkpt lat="43.1812440" lon="-1.4169860">
        <ele>443.0</ele>
        <time>2020-07-29T13:20:57Z</time>
      </trkpt>
      <trkpt lat="43.1811700" lon="-1.4170600">
        <ele>442.2</ele>
        <time>2020-07-29T13:20:58Z</time>
      </trkpt>
      <trkpt lat="43.1811030" lon="-1.4171390">
        <ele>441.6</ele>
        <time>2020-07-29T13:20:59Z</time>
      </trkpt>
      <trkpt lat="43.1810490" lon="-1.4172240">
        <ele>441.0</ele>
        <time>2020-07-29T13:21:00Z</time>
      </trkpt>
      <trkpt lat="43.1810240" lon="-1.4173310">
        <ele>440.0</ele>
        <time>2020-07-29T13:21:01Z</time>
      </trkpt>
      <trkpt lat="43.1809830" lon="-1.4174110">
        <ele>439.2</ele>
        <time>2020-07-29T13:21:02Z</time>
      </trkpt>
      <trkpt lat="43.1809340" lon="-1.4174480">
        <ele>438.2</ele>
        <time>2020-07-29T13:21:03Z</time>
      </trkpt>
      <trkpt lat="43.1808810" lon="-1.4174440">
        <ele>437.4</ele>
        <time>2020-07-29T13:21:04Z</time>
      </trkpt>
      <trkpt lat="43.1808360" lon="-1.4174130">
        <ele>436.6</ele>
        <time>2020-07-29T13:21:05Z</time>
      </trkpt>
      <trkpt lat="43.1808190" lon="-1.4173460">
        <ele>436.0</ele>
        <time>2020-07-29T13:21:06Z</time>
      </trkpt>
      <trkpt lat="43.1808190" lon="-1.4172780">
        <ele>435.6</ele>
        <time>2020-07-29T13:21:07Z</time>
      </trkpt>
      <trkpt lat="43.1808270" lon="-1.4172110">
        <ele>435.2</ele>
        <time>2020-07-29T13:21:08Z</time>
      </trkpt>
      <trkpt lat="43.1808730" lon="-1.4170760">
        <ele>435.2</ele>
        <time>2020-07-29T13:21:10Z</time>
      </trkpt>
      <trkpt lat="43.1809170" lon="-1.4170100">
        <ele>435.2</ele>
        <time>2020-07-29T13:21:11Z</time>
      </trkpt>
      <trkpt lat="43.1809660" lon="-1.4169370">
        <ele>435.2</ele>
        <time>2020-07-29T13:21:12Z</time>
      </trkpt>
      <trkpt lat="43.1811090" lon="-1.4166990">
        <ele>434.8</ele>
        <time>2020-07-29T13:21:15Z</time>
      </trkpt>
      <trkpt lat="43.1811450" lon="-1.4166050">
        <ele>434.6</ele>
        <time>2020-07-29T13:21:16Z</time>
      </trkpt>
      <trkpt lat="43.1811750" lon="-1.4165050">
        <ele>434.2</ele>
        <time>2020-07-29T13:21:17Z</time>
      </trkpt>
      <trkpt lat="43.1812070" lon="-1.4164080">
        <ele>434.0</ele>
        <time>2020-07-29T13:21:18Z</time>
      </trkpt>
      <trkpt lat="43.1812340" lon="-1.4163110">
        <ele>433.6</ele>
        <time>2020-07-29T13:21:19Z</time>
      </trkpt>
      <trkpt lat="43.1813020" lon="-1.4161300">
        <ele>433.0</ele>
        <time>2020-07-29T13:21:21Z</time>
      </trkpt>
      <trkpt lat="43.1813130" lon="-1.4160510">
        <ele>432.6</ele>
        <time>2020-07-29T13:21:22Z</time>
      </trkpt>
      <trkpt lat="43.1812940" lon="-1.4159860">
        <ele>431.8</ele>
        <time>2020-07-29T13:21:23Z</time>
      </trkpt>
      <trkpt lat="43.1812530" lon="-1.4159490">
        <ele>431.2</ele>
        <time>2020-07-29T13:21:24Z</time>
      </trkpt>
      <trkpt lat="43.1812050" lon="-1.4159390">
        <ele>430.4</ele>
        <time>2020-07-29T13:21:25Z</time>
      </trkpt>
      <trkpt lat="43.1811510" lon="-1.4159530">
        <ele>430.0</ele>
        <time>2020-07-29T13:21:26Z</time>
      </trkpt>
      <trkpt lat="43.1810200" lon="-1.4160340">
        <ele>429.2</ele>
        <time>2020-07-29T13:21:28Z</time>
      </trkpt>
      <trkpt lat="43.1806610" lon="-1.4162650">
        <ele>428.4</ele>
        <time>2020-07-29T13:21:33Z</time>
      </trkpt>
      <trkpt lat="43.1805770" lon="-1.4163290">
        <ele>428.0</ele>
        <time>2020-07-29T13:21:34Z</time>
      </trkpt>
      <trkpt lat="43.1804130" lon="-1.4164720">
        <ele>426.4</ele>
        <time>2020-07-29T13:21:36Z</time>
      </trkpt>
      <trkpt lat="43.1803320" lon="-1.4165440">
        <ele>425.4</ele>
        <time>2020-07-29T13:21:37Z</time>
      </trkpt>
      <trkpt lat="43.1802440" lon="-1.4166120">
        <ele>424.6</ele>
        <time>2020-07-29T13:21:38Z</time>
      </trkpt>
      <trkpt lat="43.1801580" lon="-1.4166830">
        <ele>424.2</ele>
        <time>2020-07-29T13:21:39Z</time>
      </trkpt>
      <trkpt lat="43.1799900" lon="-1.4168090">
        <ele>423.8</ele>
        <time>2020-07-29T13:21:41Z</time>
      </trkpt>
      <trkpt lat="43.1798970" lon="-1.4168550">
        <ele>423.6</ele>
        <time>2020-07-29T13:21:42Z</time>
      </trkpt>
      <trkpt lat="43.1798050" lon="-1.4168770">
        <ele>423.4</ele>
        <time>2020-07-29T13:21:43Z</time>
      </trkpt>
      <trkpt lat="43.1797000" lon="-1.4168710">
        <ele>422.8</ele>
        <time>2020-07-29T13:21:44Z</time>
      </trkpt>
      <trkpt lat="43.1795410" lon="-1.4168840">
        <ele>421.4</ele>
        <time>2020-07-29T13:21:46Z</time>
      </trkpt>
      <trkpt lat="43.1794840" lon="-1.4169020">
        <ele>420.0</ele>
        <time>2020-07-29T13:21:47Z</time>
      </trkpt>
      <trkpt lat="43.1794810" lon="-1.4169660">
        <ele>418.8</ele>
        <time>2020-07-29T13:21:48Z</time>
      </trkpt>
      <trkpt lat="43.1795090" lon="-1.4170190">
        <ele>417.8</ele>
        <time>2020-07-29T13:21:49Z</time>
      </trkpt>
      <trkpt lat="43.1795530" lon="-1.4170520">
        <ele>417.0</ele>
        <time>2020-07-29T13:21:50Z</time>
      </trkpt>
      <trkpt lat="43.1796100" lon="-1.4170610">
        <ele>416.0</ele>
        <time>2020-07-29T13:21:51Z</time>
      </trkpt>
      <trkpt lat="43.1796810" lon="-1.4170470">
        <ele>415.2</ele>
        <time>2020-07-29T13:21:52Z</time>
      </trkpt>
      <trkpt lat="43.1797530" lon="-1.4170260">
        <ele>414.8</ele>
        <time>2020-07-29T13:21:53Z</time>
      </trkpt>
      <trkpt lat="43.1799870" lon="-1.4169300">
        <ele>414.4</ele>
        <time>2020-07-29T13:21:56Z</time>
      </trkpt>
      <trkpt lat="43.1802420" lon="-1.4168450">
        <ele>414.4</ele>
        <time>2020-07-29T13:21:59Z</time>
      </trkpt>
      <trkpt lat="43.1803230" lon="-1.4168500">
        <ele>414.2</ele>
        <time>2020-07-29T13:22:00Z</time>
      </trkpt>
      <trkpt lat="43.1803990" lon="-1.4168630">
        <ele>413.8</ele>
        <time>2020-07-29T13:22:01Z</time>
      </trkpt>
      <trkpt lat="43.1804430" lon="-1.4169080">
        <ele>412.8</ele>
        <time>2020-07-29T13:22:02Z</time>
      </trkpt>
      <trkpt lat="43.1804310" lon="-1.4170050">
        <ele>411.6</ele>
        <time>2020-07-29T13:22:03Z</time>
      </trkpt>
      <trkpt lat="43.1803750" lon="-1.4171910">
        <ele>410.2</ele>
        <time>2020-07-29T13:22:05Z</time>
      </trkpt>
      <trkpt lat="43.1802510" lon="-1.4173030">
        <ele>409.0</ele>
        <time>2020-07-29T13:22:07Z</time>
      </trkpt>
      <trkpt lat="43.1801710" lon="-1.4173630">
        <ele>408.6</ele>
        <time>2020-07-29T13:22:08Z</time>
      </trkpt>
      <trkpt lat="43.1800330" lon="-1.4175100">
        <ele>408.4</ele>
        <time>2020-07-29T13:22:10Z</time>
      </trkpt>
      <trkpt lat="43.1799950" lon="-1.4176190">
        <ele>408.2</ele>
        <time>2020-07-29T13:22:11Z</time>
      </trkpt>
      <trkpt lat="43.1799790" lon="-1.4177360">
        <ele>408.0</ele>
        <time>2020-07-29T13:22:12Z</time>
      </trkpt>
      <trkpt lat="43.1799860" lon="-1.4178590">
        <ele>407.6</ele>
        <time>2020-07-29T13:22:13Z</time>
      </trkpt>
      <trkpt lat="43.1800080" lon="-1.4179830">
        <ele>406.8</ele>
        <time>2020-07-29T13:22:14Z</time>
      </trkpt>
      <trkpt lat="43.1800700" lon="-1.4182340">
        <ele>405.8</ele>
        <time>2020-07-29T13:22:16Z</time>
      </trkpt>
      <trkpt lat="43.1801300" lon="-1.4184940">
        <ele>404.8</ele>
        <time>2020-07-29T13:22:18Z</time>
      </trkpt>
      <trkpt lat="43.1801430" lon="-1.4186380">
        <ele>404.0</ele>
        <time>2020-07-29T13:22:19Z</time>
      </trkpt>
      <trkpt lat="43.1801390" lon="-1.4187880">
        <ele>403.4</ele>
        <time>2020-07-29T13:22:20Z</time>
      </trkpt>
      <trkpt lat="43.1801210" lon="-1.4189370">
        <ele>403.0</ele>
        <time>2020-07-29T13:22:21Z</time>
      </trkpt>
      <trkpt lat="43.1800960" lon="-1.4194120">
        <ele>401.8</ele>
        <time>2020-07-29T13:22:24Z</time>
      </trkpt>
      <trkpt lat="43.1800930" lon="-1.4197400">
        <ele>400.6</ele>
        <time>2020-07-29T13:22:26Z</time>
      </trkpt>
      <trkpt lat="43.1801020" lon="-1.4199030">
        <ele>399.8</ele>
        <time>2020-07-29T13:22:27Z</time>
      </trkpt>
      <trkpt lat="43.1801190" lon="-1.4200620">
        <ele>398.8</ele>
        <time>2020-07-29T13:22:28Z</time>
      </trkpt>
      <trkpt lat="43.1801360" lon="-1.4202240">
        <ele>397.8</ele>
        <time>2020-07-29T13:22:29Z</time>
      </trkpt>
      <trkpt lat="43.1801540" lon="-1.4203860">
        <ele>396.6</ele>
        <time>2020-07-29T13:22:30Z</time>
      </trkpt>
      <trkpt lat="43.1802050" lon="-1.4207180">
        <ele>395.2</ele>
        <time>2020-07-29T13:22:32Z</time>
      </trkpt>
      <trkpt lat="43.1802740" lon="-1.4210620">
        <ele>394.2</ele>
        <time>2020-07-29T13:22:34Z</time>
      </trkpt>
      <trkpt lat="43.1803750" lon="-1.4213790">
        <ele>392.0</ele>
        <time>2020-07-29T13:22:36Z</time>
      </trkpt>
      <trkpt lat="43.1804400" lon="-1.4215240">
        <ele>391.0</ele>
        <time>2020-07-29T13:22:37Z</time>
      </trkpt>
      <trkpt lat="43.1805110" lon="-1.4216640">
        <ele>390.6</ele>
        <time>2020-07-29T13:22:38Z</time>
      </trkpt>
      <trkpt lat="43.1806500" lon="-1.4219460">
        <ele>389.6</ele>
        <time>2020-07-29T13:22:40Z</time>
      </trkpt>
      <trkpt lat="43.1807210" lon="-1.4220800">
        <ele>389.2</ele>
        <time>2020-07-29T13:22:41Z</time>
      </trkpt>
      <trkpt lat="43.1807950" lon="-1.4222110">
        <ele>388.8</ele>
        <time>2020-07-29T13:22:42Z</time>
      </trkpt>
      <trkpt lat="43.1808690" lon="-1.4223460">
        <ele>388.0</ele>
        <time>2020-07-29T13:22:43Z</time>
      </trkpt>
      <trkpt lat="43.1810240" lon="-1.4226110">
        <ele>386.4</ele>
        <time>2020-07-29T13:22:45Z</time>
      </trkpt>
      <trkpt lat="43.1811800" lon="-1.4228670">
        <ele>384.6</ele>
        <time>2020-07-29T13:22:47Z</time>
      </trkpt>
      <trkpt lat="43.1812500" lon="-1.4229730">
        <ele>383.6</ele>
        <time>2020-07-29T13:22:48Z</time>
      </trkpt>
      <trkpt lat="43.1813130" lon="-1.4230610">
        <ele>382.2</ele>
        <time>2020-07-29T13:22:49Z</time>
      </trkpt>
      <trkpt lat="43.1813570" lon="-1.4231170">
        <ele>380.6</ele>
        <time>2020-07-29T13:22:50Z</time>
      </trkpt>
      <trkpt lat="43.1813800" lon="-1.4231890">
        <ele>379.2</ele>
        <time>2020-07-29T13:22:51Z</time>
      </trkpt>
      <trkpt lat="43.1813830" lon="-1.4233030">
        <ele>377.6</ele>
        <time>2020-07-29T13:22:53Z</time>
      </trkpt>
      <trkpt lat="43.1813530" lon="-1.4233030">
        <ele>376.8</ele>
        <time>2020-07-29T13:22:54Z</time>
      </trkpt>
      <trkpt lat="43.1812900" lon="-1.4232590">
        <ele>376.0</ele>
        <time>2020-07-29T13:22:55Z</time>
      </trkpt>
      <trkpt lat="43.1812500" lon="-1.4231960">
        <ele>375.4</ele>
        <time>2020-07-29T13:22:56Z</time>
      </trkpt>
      <trkpt lat="43.1811360" lon="-1.4230570">
        <ele>374.8</ele>
        <time>2020-07-29T13:22:58Z</time>
      </trkpt>
      <trkpt lat="43.1810100" lon="-1.4228880">
        <ele>374.8</ele>
        <time>2020-07-29T13:23:00Z</time>
      </trkpt>
      <trkpt lat="43.1808130" lon="-1.4225600">
        <ele>374.6</ele>
        <time>2020-07-29T13:23:04Z</time>
      </trkpt>
      <trkpt lat="43.1807200" lon="-1.4225930">
        <ele>373.2</ele>
        <time>2020-07-29T13:23:06Z</time>
      </trkpt>
      <trkpt lat="43.1807120" lon="-1.4227530">
        <ele>371.6</ele>
        <time>2020-07-29T13:23:08Z</time>
      </trkpt>
      <trkpt lat="43.1807730" lon="-1.4229170">
        <ele>370.2</ele>
        <time>2020-07-29T13:23:10Z</time>
      </trkpt>
      <trkpt lat="43.1808140" lon="-1.4229980">
        <ele>370.0</ele>
        <time>2020-07-29T13:23:11Z</time>
      </trkpt>
      <trkpt lat="43.1809530" lon="-1.4232750">
        <ele>369.2</ele>
        <time>2020-07-29T13:23:14Z</time>
      </trkpt>
      <trkpt lat="43.1810660" lon="-1.4234780">
        <ele>368.8</ele>
        <time>2020-07-29T13:23:16Z</time>
      </trkpt>
      <trkpt lat="43.1811840" lon="-1.4236920">
        <ele>367.6</ele>
        <time>2020-07-29T13:23:18Z</time>
      </trkpt>
      <trkpt lat="43.1813050" lon="-1.4239140">
        <ele>365.8</ele>
        <time>2020-07-29T13:23:20Z</time>
      </trkpt>
      <trkpt lat="43.1813670" lon="-1.4240320">
        <ele>365.4</ele>
        <time>2020-07-29T13:23:21Z</time>
      </trkpt>
      <trkpt lat="43.1814320" lon="-1.4241460">
        <ele>364.8</ele>
        <time>2020-07-29T13:23:22Z</time>
      </trkpt>
      <trkpt lat="43.1814950" lon="-1.4242630">
        <ele>364.4</ele>
        <time>2020-07-29T13:23:23Z</time>
      </trkpt>
      <trkpt lat="43.1816130" lon="-1.4245100">
        <ele>363.6</ele>
        <time>2020-07-29T13:23:25Z</time>
      </trkpt>
      <trkpt lat="43.1817870" lon="-1.4248840">
        <ele>362.2</ele>
        <time>2020-07-29T13:23:28Z</time>
      </trkpt>
      <trkpt lat="43.1818480" lon="-1.4250030">
        <ele>362.0</ele>
        <time>2020-07-29T13:23:29Z</time>
      </trkpt>
      <trkpt lat="43.1820880" lon="-1.4254600">
        <ele>361.2</ele>
        <time>2020-07-29T13:23:33Z</time>
      </trkpt>
      <trkpt lat="43.1822570" lon="-1.4258010">
        <ele>360.0</ele>
        <time>2020-07-29T13:23:36Z</time>
      </trkpt>
      <trkpt lat="43.1823130" lon="-1.4259100">
        <ele>359.6</ele>
        <time>2020-07-29T13:23:37Z</time>
      </trkpt>
      <trkpt lat="43.1824320" lon="-1.4261110">
        <ele>358.8</ele>
        <time>2020-07-29T13:23:39Z</time>
      </trkpt>
      <trkpt lat="43.1826830" lon="-1.4265280">
        <ele>357.8</ele>
        <time>2020-07-29T13:23:43Z</time>
      </trkpt>
      <trkpt lat="43.1828140" lon="-1.4267490">
        <ele>356.8</ele>
        <time>2020-07-29T13:23:45Z</time>
      </trkpt>
      <trkpt lat="43.1829110" lon="-1.4269890">
        <ele>356.0</ele>
        <time>2020-07-29T13:23:47Z</time>
      </trkpt>
      <trkpt lat="43.1829200" lon="-1.4271420">
        <ele>355.8</ele>
        <time>2020-07-29T13:23:48Z</time>
      </trkpt>
      <trkpt lat="43.1829180" lon="-1.4272870">
        <ele>355.4</ele>
        <time>2020-07-29T13:23:49Z</time>
      </trkpt>
      <trkpt lat="43.1828590" lon="-1.4275790">
        <ele>354.8</ele>
        <time>2020-07-29T13:23:51Z</time>
      </trkpt>
      <trkpt lat="43.1828140" lon="-1.4277110">
        <ele>354.6</ele>
        <time>2020-07-29T13:23:52Z</time>
      </trkpt>
      <trkpt lat="43.1827610" lon="-1.4278350">
        <ele>354.2</ele>
        <time>2020-07-29T13:23:53Z</time>
      </trkpt>
      <trkpt lat="43.1827020" lon="-1.4279470">
        <ele>353.8</ele>
        <time>2020-07-29T13:23:54Z</time>
      </trkpt>
      <trkpt lat="43.1826420" lon="-1.4280540">
        <ele>353.2</ele>
        <time>2020-07-29T13:23:55Z</time>
      </trkpt>
      <trkpt lat="43.1825140" lon="-1.4282550">
        <ele>351.8</ele>
        <time>2020-07-29T13:23:57Z</time>
      </trkpt>
      <trkpt lat="43.1823790" lon="-1.4284440">
        <ele>350.8</ele>
        <time>2020-07-29T13:23:59Z</time>
      </trkpt>
      <trkpt lat="43.1823050" lon="-1.4285300">
        <ele>350.6</ele>
        <time>2020-07-29T13:24:00Z</time>
      </trkpt>
      <trkpt lat="43.1819780" lon="-1.4288260">
        <ele>350.2</ele>
        <time>2020-07-29T13:24:04Z</time>
      </trkpt>
      <trkpt lat="43.1815850" lon="-1.4291550">
        <ele>349.6</ele>
        <time>2020-07-29T13:24:09Z</time>
      </trkpt>
      <trkpt lat="43.1815040" lon="-1.4292160">
        <ele>349.6</ele>
        <time>2020-07-29T13:24:10Z</time>
      </trkpt>
      <trkpt lat="43.1813610" lon="-1.4293610">
        <ele>349.4</ele>
        <time>2020-07-29T13:24:12Z</time>
      </trkpt>
      <trkpt lat="43.1813020" lon="-1.4294470">
        <ele>349.2</ele>
        <time>2020-07-29T13:24:13Z</time>
      </trkpt>
      <trkpt lat="43.1812520" lon="-1.4295420">
        <ele>349.2</ele>
        <time>2020-07-29T13:24:14Z</time>
      </trkpt>
      <trkpt lat="43.1812090" lon="-1.4296460">
        <ele>348.8</ele>
        <time>2020-07-29T13:24:15Z</time>
      </trkpt>
      <trkpt lat="43.1811740" lon="-1.4297560">
        <ele>348.4</ele>
        <time>2020-07-29T13:24:16Z</time>
      </trkpt>
      <trkpt lat="43.1811480" lon="-1.4298710">
        <ele>347.8</ele>
        <time>2020-07-29T13:24:17Z</time>
      </trkpt>
      <trkpt lat="43.1811300" lon="-1.4299890">
        <ele>347.4</ele>
        <time>2020-07-29T13:24:18Z</time>
      </trkpt>
      <trkpt lat="43.1811010" lon="-1.4303550">
        <ele>346.2</ele>
        <time>2020-07-29T13:24:21Z</time>
      </trkpt>
      <trkpt lat="43.1811030" lon="-1.4306020">
        <ele>345.4</ele>
        <time>2020-07-29T13:24:23Z</time>
      </trkpt>
      <trkpt lat="43.1811110" lon="-1.4307290">
        <ele>345.2</ele>
        <time>2020-07-29T13:24:24Z</time>
      </trkpt>
      <trkpt lat="43.1811390" lon="-1.4309760">
        <ele>344.6</ele>
        <time>2020-07-29T13:24:26Z</time>
      </trkpt>
      <trkpt lat="43.1811610" lon="-1.4310950">
        <ele>344.2</ele>
        <time>2020-07-29T13:24:27Z</time>
      </trkpt>
      <trkpt lat="43.1811870" lon="-1.4312150">
        <ele>343.6</ele>
        <time>2020-07-29T13:24:28Z</time>
      </trkpt>
      <trkpt lat="43.1812460" lon="-1.4314470">
        <ele>342.8</ele>
        <time>2020-07-29T13:24:30Z</time>
      </trkpt>
      <trkpt lat="43.1813510" lon="-1.4317850">
        <ele>341.8</ele>
        <time>2020-07-29T13:24:33Z</time>
      </trkpt>
      <trkpt lat="43.1813880" lon="-1.4318960">
        <ele>341.6</ele>
        <time>2020-07-29T13:24:34Z</time>
      </trkpt>
      <trkpt lat="43.1815080" lon="-1.4323400">
        <ele>340.4</ele>
        <time>2020-07-29T13:24:38Z</time>
      </trkpt>
      <trkpt lat="43.1815340" lon="-1.4325760">
        <ele>340.0</ele>
        <time>2020-07-29T13:24:40Z</time>
      </trkpt>
      <trkpt lat="43.1815400" lon="-1.4327000">
        <ele>339.8</ele>
        <time>2020-07-29T13:24:41Z</time>
      </trkpt>
      <trkpt lat="43.1815430" lon="-1.4328250">
        <ele>339.4</ele>
        <time>2020-07-29T13:24:42Z</time>
      </trkpt>
      <trkpt lat="43.1815420" lon="-1.4330790">
        <ele>338.4</ele>
        <time>2020-07-29T13:24:44Z</time>
      </trkpt>
      <trkpt lat="43.1815400" lon="-1.4332080">
        <ele>338.0</ele>
        <time>2020-07-29T13:24:45Z</time>
      </trkpt>
      <trkpt lat="43.1815380" lon="-1.4333350">
        <ele>337.6</ele>
        <time>2020-07-29T13:24:46Z</time>
      </trkpt>
      <trkpt lat="43.1815350" lon="-1.4334640">
        <ele>337.0</ele>
        <time>2020-07-29T13:24:47Z</time>
      </trkpt>
      <trkpt lat="43.1815240" lon="-1.4337290">
        <ele>336.2</ele>
        <time>2020-07-29T13:24:49Z</time>
      </trkpt>
      <trkpt lat="43.1815190" lon="-1.4338620">
        <ele>335.8</ele>
        <time>2020-07-29T13:24:50Z</time>
      </trkpt>
      <trkpt lat="43.1815090" lon="-1.4342630">
        <ele>334.8</ele>
        <time>2020-07-29T13:24:53Z</time>
      </trkpt>
      <trkpt lat="43.1815040" lon="-1.4343990">
        <ele>334.6</ele>
        <time>2020-07-29T13:24:54Z</time>
      </trkpt>
      <trkpt lat="43.1814800" lon="-1.4349630">
        <ele>333.4</ele>
        <time>2020-07-29T13:24:58Z</time>
      </trkpt>
      <trkpt lat="43.1814620" lon="-1.4355380">
        <ele>332.6</ele>
        <time>2020-07-29T13:25:02Z</time>
      </trkpt>
      <trkpt lat="43.1814580" lon="-1.4356800">
        <ele>332.4</ele>
        <time>2020-07-29T13:25:03Z</time>
      </trkpt>
      <trkpt lat="43.1813970" lon="-1.4363660">
        <ele>331.6</ele>
        <time>2020-07-29T13:25:08Z</time>
      </trkpt>
      <trkpt lat="43.1813550" lon="-1.4366260">
        <ele>331.4</ele>
        <time>2020-07-29T13:25:10Z</time>
      </trkpt>
      <trkpt lat="43.1812930" lon="-1.4370030">
        <ele>330.2</ele>
        <time>2020-07-29T13:25:13Z</time>
      </trkpt>
      <trkpt lat="43.1812300" lon="-1.4373590">
        <ele>329.0</ele>
        <time>2020-07-29T13:25:16Z</time>
      </trkpt>
      <trkpt lat="43.1811820" lon="-1.4379370">
        <ele>328.8</ele>
        <time>2020-07-29T13:25:21Z</time>
      </trkpt>
      <trkpt lat="43.1811750" lon="-1.4384150">
        <ele>328.4</ele>
        <time>2020-07-29T13:25:25Z</time>
      </trkpt>
      <trkpt lat="43.1811730" lon="-1.4386590">
        <ele>327.8</ele>
        <time>2020-07-29T13:25:27Z</time>
      </trkpt>
      <trkpt lat="43.1811900" lon="-1.4389080">
        <ele>327.4</ele>
        <time>2020-07-29T13:25:29Z</time>
      </trkpt>
      <trkpt lat="43.1812860" lon="-1.4392660">
        <ele>327.0</ele>
        <time>2020-07-29T13:25:32Z</time>
      </trkpt>
      <trkpt lat="43.1813310" lon="-1.4393790">
        <ele>326.6</ele>
        <time>2020-07-29T13:25:33Z</time>
      </trkpt>
      <trkpt lat="43.1813800" lon="-1.4394880">
        <ele>326.2</ele>
        <time>2020-07-29T13:25:34Z</time>
      </trkpt>
      <trkpt lat="43.1814820" lon="-1.4397050">
        <ele>325.6</ele>
        <time>2020-07-29T13:25:36Z</time>
      </trkpt>
      <trkpt lat="43.1816920" lon="-1.4401440">
        <ele>324.6</ele>
        <time>2020-07-29T13:25:40Z</time>
      </trkpt>
      <trkpt lat="43.1817420" lon="-1.4402580">
        <ele>324.4</ele>
        <time>2020-07-29T13:25:41Z</time>
      </trkpt>
      <trkpt lat="43.1817850" lon="-1.4403760">
        <ele>324.2</ele>
        <time>2020-07-29T13:25:42Z</time>
      </trkpt>
      <trkpt lat="43.1818400" lon="-1.4406260">
        <ele>323.8</ele>
        <time>2020-07-29T13:25:44Z</time>
      </trkpt>
      <trkpt lat="43.1818570" lon="-1.4408820">
        <ele>323.2</ele>
        <time>2020-07-29T13:25:46Z</time>
      </trkpt>
      <trkpt lat="43.1818530" lon="-1.4411360">
        <ele>322.6</ele>
        <time>2020-07-29T13:25:48Z</time>
      </trkpt>
      <trkpt lat="43.1818430" lon="-1.4413850">
        <ele>322.2</ele>
        <time>2020-07-29T13:25:50Z</time>
      </trkpt>
      <trkpt lat="43.1817930" lon="-1.4419900">
        <ele>321.0</ele>
        <time>2020-07-29T13:25:55Z</time>
      </trkpt>
      <trkpt lat="43.1817820" lon="-1.4421070">
        <ele>320.8</ele>
        <time>2020-07-29T13:25:56Z</time>
      </trkpt>
      <trkpt lat="43.1817330" lon="-1.4427780">
        <ele>320.4</ele>
        <time>2020-07-29T13:26:02Z</time>
      </trkpt>
      <trkpt lat="43.1817190" lon="-1.4429930">
        <ele>320.4</ele>
        <time>2020-07-29T13:26:04Z</time>
      </trkpt>
      <trkpt lat="43.1816300" lon="-1.4435810">
        <ele>321.0</ele>
        <time>2020-07-29T13:26:10Z</time>
      </trkpt>
      <trkpt lat="43.1815090" lon="-1.4438360">
        <ele>320.6</ele>
        <time>2020-07-29T13:26:13Z</time>
      </trkpt>
      <trkpt lat="43.1814540" lon="-1.4439160">
        <ele>320.4</ele>
        <time>2020-07-29T13:26:14Z</time>
      </trkpt>
      <trkpt lat="43.1813950" lon="-1.4439950">
        <ele>319.8</ele>
        <time>2020-07-29T13:26:15Z</time>
      </trkpt>
      <trkpt lat="43.1812120" lon="-1.4442450">
        <ele>318.6</ele>
        <time>2020-07-29T13:26:18Z</time>
      </trkpt>
      <trkpt lat="43.1810800" lon="-1.4444060">
        <ele>318.4</ele>
        <time>2020-07-29T13:26:20Z</time>
      </trkpt>
      <trkpt lat="43.1807340" lon="-1.4448710">
        <ele>317.4</ele>
        <time>2020-07-29T13:26:25Z</time>
      </trkpt>
      <trkpt lat="43.1805180" lon="-1.4451500">
        <ele>316.8</ele>
        <time>2020-07-29T13:26:28Z</time>
      </trkpt>
      <trkpt lat="43.1803760" lon="-1.4453320">
        <ele>316.4</ele>
        <time>2020-07-29T13:26:30Z</time>
      </trkpt>
      <trkpt lat="43.1803090" lon="-1.4454330">
        <ele>316.0</ele>
        <time>2020-07-29T13:26:31Z</time>
      </trkpt>
      <trkpt lat="43.1802470" lon="-1.4455440">
        <ele>315.6</ele>
        <time>2020-07-29T13:26:32Z</time>
      </trkpt>
      <trkpt lat="43.1802010" lon="-1.4456680">
        <ele>315.2</ele>
        <time>2020-07-29T13:26:33Z</time>
      </trkpt>
      <trkpt lat="43.1801720" lon="-1.4458000">
        <ele>314.6</ele>
        <time>2020-07-29T13:26:34Z</time>
      </trkpt>
      <trkpt lat="43.1801840" lon="-1.4460710">
        <ele>313.8</ele>
        <time>2020-07-29T13:26:36Z</time>
      </trkpt>
      <trkpt lat="43.1802100" lon="-1.4461970">
        <ele>313.4</ele>
        <time>2020-07-29T13:26:37Z</time>
      </trkpt>
      <trkpt lat="43.1802540" lon="-1.4463170">
        <ele>313.2</ele>
        <time>2020-07-29T13:26:38Z</time>
      </trkpt>
      <trkpt lat="43.1803750" lon="-1.4466630">
        <ele>312.6</ele>
        <time>2020-07-29T13:26:41Z</time>
      </trkpt>
      <trkpt lat="43.1804160" lon="-1.4467810">
        <ele>312.4</ele>
        <time>2020-07-29T13:26:42Z</time>
      </trkpt>
      <trkpt lat="43.1805220" lon="-1.4471290">
        <ele>312.0</ele>
        <time>2020-07-29T13:26:45Z</time>
      </trkpt>
      <trkpt lat="43.1805830" lon="-1.4473520">
        <ele>311.8</ele>
        <time>2020-07-29T13:26:47Z</time>
      </trkpt>
      <trkpt lat="43.1806430" lon="-1.4475460">
        <ele>311.6</ele>
        <time>2020-07-29T13:26:49Z</time>
      </trkpt>
      <trkpt lat="43.1807010" lon="-1.4477730">
        <ele>311.2</ele>
        <time>2020-07-29T13:26:51Z</time>
      </trkpt>
      <trkpt lat="43.1807320" lon="-1.4478840">
        <ele>311.0</ele>
        <time>2020-07-29T13:26:52Z</time>
      </trkpt>
      <trkpt lat="43.1807900" lon="-1.4480900">
        <ele>310.6</ele>
        <time>2020-07-29T13:26:54Z</time>
      </trkpt>
      <trkpt lat="43.1808620" lon="-1.4484130">
        <ele>309.4</ele>
        <time>2020-07-29T13:26:57Z</time>
      </trkpt>
      <trkpt lat="43.1808820" lon="-1.4485240">
        <ele>309.2</ele>
        <time>2020-07-29T13:26:58Z</time>
      </trkpt>
      <trkpt lat="43.1809090" lon="-1.4488660">
        <ele>308.4</ele>
        <time>2020-07-29T13:27:01Z</time>
      </trkpt>
      <trkpt lat="43.1809120" lon="-1.4490960">
        <ele>307.6</ele>
        <time>2020-07-29T13:27:03Z</time>
      </trkpt>
      <trkpt lat="43.1809130" lon="-1.4492070">
        <ele>307.4</ele>
        <time>2020-07-29T13:27:04Z</time>
      </trkpt>
      <trkpt lat="43.1809140" lon="-1.4495930">
        <ele>306.2</ele>
        <time>2020-07-29T13:27:07Z</time>
      </trkpt>
      <trkpt lat="43.1809170" lon="-1.4497240">
        <ele>306.0</ele>
        <time>2020-07-29T13:27:08Z</time>
      </trkpt>
      <trkpt lat="43.1809220" lon="-1.4498590">
        <ele>305.8</ele>
        <time>2020-07-29T13:27:09Z</time>
      </trkpt>
      <trkpt lat="43.1809300" lon="-1.4502590">
        <ele>305.4</ele>
        <time>2020-07-29T13:27:12Z</time>
      </trkpt>
      <trkpt lat="43.1809340" lon="-1.4503870">
        <ele>305.2</ele>
        <time>2020-07-29T13:27:13Z</time>
      </trkpt>
      <trkpt lat="43.1809360" lon="-1.4505100">
        <ele>305.2</ele>
        <time>2020-07-29T13:27:14Z</time>
      </trkpt>
      <trkpt lat="43.1809370" lon="-1.4507530">
        <ele>304.8</ele>
        <time>2020-07-29T13:27:16Z</time>
      </trkpt>
      <trkpt lat="43.1809060" lon="-1.4513260">
        <ele>303.8</ele>
        <time>2020-07-29T13:27:21Z</time>
      </trkpt>
      <trkpt lat="43.1808910" lon="-1.4514360">
        <ele>303.4</ele>
        <time>2020-07-29T13:27:22Z</time>
      </trkpt>
      <trkpt lat="43.1808420" lon="-1.4517540">
        <ele>302.6</ele>
        <time>2020-07-29T13:27:25Z</time>
      </trkpt>
      <trkpt lat="43.1808050" lon="-1.4519570">
        <ele>301.8</ele>
        <time>2020-07-29T13:27:27Z</time>
      </trkpt>
      <trkpt lat="43.1807660" lon="-1.4521480">
        <ele>301.4</ele>
        <time>2020-07-29T13:27:29Z</time>
      </trkpt>
      <trkpt lat="43.1806990" lon="-1.4524290">
        <ele>300.0</ele>
        <time>2020-07-29T13:27:32Z</time>
      </trkpt>
      <trkpt lat="43.1806510" lon="-1.4526210">
        <ele>298.8</ele>
        <time>2020-07-29T13:27:34Z</time>
      </trkpt>
      <trkpt lat="43.1805820" lon="-1.4529070">
        <ele>298.6</ele>
        <time>2020-07-29T13:27:37Z</time>
      </trkpt>
      <trkpt lat="43.1805270" lon="-1.4530900">
        <ele>297.8</ele>
        <time>2020-07-29T13:27:39Z</time>
      </trkpt>
      <trkpt lat="43.1804730" lon="-1.4532770">
        <ele>296.4</ele>
        <time>2020-07-29T13:27:41Z</time>
      </trkpt>
      <trkpt lat="43.1804450" lon="-1.4533720">
        <ele>295.4</ele>
        <time>2020-07-29T13:27:42Z</time>
      </trkpt>
      <trkpt lat="43.1803930" lon="-1.4535570">
        <ele>294.4</ele>
        <time>2020-07-29T13:27:44Z</time>
      </trkpt>
      <trkpt lat="43.1803690" lon="-1.4536450">
        <ele>294.2</ele>
        <time>2020-07-29T13:27:45Z</time>
      </trkpt>
      <trkpt lat="43.1803170" lon="-1.4539120">
        <ele>294.4</ele>
        <time>2020-07-29T13:27:48Z</time>
      </trkpt>
      <trkpt lat="43.1803180" lon="-1.4539990">
        <ele>294.4</ele>
        <time>2020-07-29T13:27:49Z</time>
      </trkpt>
      <trkpt lat="43.1803300" lon="-1.4540860">
        <ele>294.2</ele>
        <time>2020-07-29T13:27:50Z</time>
      </trkpt>
      <trkpt lat="43.1803860" lon="-1.4543090">
        <ele>293.2</ele>
        <time>2020-07-29T13:27:53Z</time>
      </trkpt>
      <trkpt lat="43.1804270" lon="-1.4544360">
        <ele>293.4</ele>
        <time>2020-07-29T13:27:55Z</time>
      </trkpt>
      <trkpt lat="43.1804740" lon="-1.4545550">
        <ele>293.8</ele>
        <time>2020-07-29T13:27:57Z</time>
      </trkpt>
      <trkpt lat="43.1805220" lon="-1.4546730">
        <ele>294.0</ele>
        <time>2020-07-29T13:27:59Z</time>
      </trkpt>
      <trkpt lat="43.1805810" lon="-1.4550320">
        <ele>293.2</ele>
        <time>2020-07-29T13:28:04Z</time>
      </trkpt>
      <trkpt lat="43.1805800" lon="-1.4551060">
        <ele>292.8</ele>
        <time>2020-07-29T13:28:05Z</time>
      </trkpt>
      <trkpt lat="43.1805730" lon="-1.4552380">
        <ele>292.4</ele>
        <time>2020-07-29T13:28:07Z</time>
      </trkpt>
      <trkpt lat="43.1805770" lon="-1.4553460">
        <ele>292.0</ele>
        <time>2020-07-29T13:28:09Z</time>
      </trkpt>
      <trkpt lat="43.1806390" lon="-1.4554710">
        <ele>292.0</ele>
        <time>2020-07-29T13:28:12Z</time>
      </trkpt>
      <trkpt lat="43.1807480" lon="-1.4555650">
        <ele>292.2</ele>
        <time>2020-07-29T13:28:16Z</time>
      </trkpt>
      <trkpt lat="43.1807800" lon="-1.4555700">
        <ele>292.2</ele>
        <time>2020-07-29T13:28:17Z</time>
      </trkpt>
      <trkpt lat="43.1808080" lon="-1.4555720">
        <ele>292.2</ele>
        <time>2020-07-29T13:28:18Z</time>
      </trkpt>
      <trkpt lat="43.1808880" lon="-1.4555990">
        <ele>292.2</ele>
        <time>2020-07-29T13:28:21Z</time>
      </trkpt>
      <trkpt lat="43.1809490" lon="-1.4556480">
        <ele>292.2</ele>
        <time>2020-07-29T13:28:24Z</time>
      </trkpt>
      <trkpt lat="43.1809600" lon="-1.4556800">
        <ele>292.2</ele>
        <time>2020-07-29T13:28:25Z</time>
      </trkpt>
      <trkpt lat="43.1809900" lon="-1.4557900">
        <ele>291.8</ele>
        <time>2020-07-29T13:28:28Z</time>
      </trkpt>
      <trkpt lat="43.1810000" lon="-1.4560070">
        <ele>291.4</ele>
        <time>2020-07-29T13:28:33Z</time>
      </trkpt>
      <trkpt lat="43.1810480" lon="-1.4561230">
        <ele>291.0</ele>
        <time>2020-07-29T13:28:35Z</time>
      </trkpt>
      <trkpt lat="43.1810770" lon="-1.4561830">
        <ele>291.0</ele>
        <time>2020-07-29T13:28:36Z</time>
      </trkpt>
      <trkpt lat="43.1812550" lon="-1.4565440">
        <ele>291.0</ele>
        <time>2020-07-29T13:28:42Z</time>
      </trkpt>
      <trkpt lat="43.1812820" lon="-1.4566050">
        <ele>291.0</ele>
        <time>2020-07-29T13:28:43Z</time>
      </trkpt>
      <trkpt lat="43.1813470" lon="-1.4567110">
        <ele>290.6</ele>
        <time>2020-07-29T13:28:45Z</time>
      </trkpt>
      <trkpt lat="43.1814730" lon="-1.4568590">
        <ele>290.0</ele>
        <time>2020-07-29T13:28:48Z</time>
      </trkpt>
      <trkpt lat="43.1815070" lon="-1.4569290">
        <ele>289.6</ele>
        <time>2020-07-29T13:28:49Z</time>
      </trkpt>
      <trkpt lat="43.1815450" lon="-1.4569960">
        <ele>289.4</ele>
        <time>2020-07-29T13:28:50Z</time>
      </trkpt>
      <trkpt lat="43.1816990" lon="-1.4573250">
        <ele>289.0</ele>
        <time>2020-07-29T13:28:54Z</time>
      </trkpt>
      <trkpt lat="43.1817820" lon="-1.4575000">
        <ele>288.6</ele>
        <time>2020-07-29T13:28:56Z</time>
      </trkpt>
      <trkpt lat="43.1819500" lon="-1.4577320">
        <ele>287.8</ele>
        <time>2020-07-29T13:28:59Z</time>
      </trkpt>
      <trkpt lat="43.1820120" lon="-1.4578020">
        <ele>287.6</ele>
        <time>2020-07-29T13:29:00Z</time>
      </trkpt>
      <trkpt lat="43.1820770" lon="-1.4578700">
        <ele>287.4</ele>
        <time>2020-07-29T13:29:01Z</time>
      </trkpt>
      <trkpt lat="43.1821480" lon="-1.4579250">
        <ele>287.2</ele>
        <time>2020-07-29T13:29:02Z</time>
      </trkpt>
      <trkpt lat="43.1822860" lon="-1.4580250">
        <ele>287.0</ele>
        <time>2020-07-29T13:29:04Z</time>
      </trkpt>
      <trkpt lat="43.1824210" lon="-1.4581140">
        <ele>286.8</ele>
        <time>2020-07-29T13:29:06Z</time>
      </trkpt>
      <trkpt lat="43.1826180" lon="-1.4582310">
        <ele>286.6</ele>
        <time>2020-07-29T13:29:09Z</time>
      </trkpt>
      <trkpt lat="43.1826820" lon="-1.4582690">
        <ele>286.6</ele>
        <time>2020-07-29T13:29:10Z</time>
      </trkpt>
      <trkpt lat="43.1829280" lon="-1.4584640">
        <ele>286.2</ele>
        <time>2020-07-29T13:29:14Z</time>
      </trkpt>
      <trkpt lat="43.1830450" lon="-1.4585820">
        <ele>286.0</ele>
        <time>2020-07-29T13:29:16Z</time>
      </trkpt>
      <trkpt lat="43.1831590" lon="-1.4587090">
        <ele>286.0</ele>
        <time>2020-07-29T13:29:18Z</time>
      </trkpt>
      <trkpt lat="43.1832750" lon="-1.4588350">
        <ele>286.2</ele>
        <time>2020-07-29T13:29:20Z</time>
      </trkpt>
      <trkpt lat="43.1833900" lon="-1.4589630">
        <ele>286.0</ele>
        <time>2020-07-29T13:29:22Z</time>
      </trkpt>
      <trkpt lat="43.1835020" lon="-1.4591030">
        <ele>285.8</ele>
        <time>2020-07-29T13:29:24Z</time>
      </trkpt>
      <trkpt lat="43.1835930" lon="-1.4592710">
        <ele>285.4</ele>
        <time>2020-07-29T13:29:26Z</time>
      </trkpt>
      <trkpt lat="43.1836450" lon="-1.4594630">
        <ele>285.4</ele>
        <time>2020-07-29T13:29:28Z</time>
      </trkpt>
      <trkpt lat="43.1836800" lon="-1.4599890">
        <ele>285.0</ele>
        <time>2020-07-29T13:29:33Z</time>
      </trkpt>
      <trkpt lat="43.1836820" lon="-1.4600930">
        <ele>284.6</ele>
        <time>2020-07-29T13:29:34Z</time>
      </trkpt>
      <trkpt lat="43.1836920" lon="-1.4607220">
        <ele>284.2</ele>
        <time>2020-07-29T13:29:40Z</time>
      </trkpt>
      <trkpt lat="43.1837540" lon="-1.4613100">
        <ele>284.0</ele>
        <time>2020-07-29T13:29:46Z</time>
      </trkpt>
      <trkpt lat="43.1838520" lon="-1.4618600">
        <ele>284.0</ele>
        <time>2020-07-29T13:29:52Z</time>
      </trkpt>
      <trkpt lat="43.1838680" lon="-1.4619510">
        <ele>283.6</ele>
        <time>2020-07-29T13:29:53Z</time>
      </trkpt>
      <trkpt lat="43.1838840" lon="-1.4620410">
        <ele>283.6</ele>
        <time>2020-07-29T13:29:54Z</time>
      </trkpt>
      <trkpt lat="43.1839960" lon="-1.4625510">
        <ele>283.6</ele>
        <time>2020-07-29T13:30:00Z</time>
      </trkpt>
      <trkpt lat="43.1840130" lon="-1.4627970">
        <ele>284.0</ele>
        <time>2020-07-29T13:30:03Z</time>
      </trkpt>
      <trkpt lat="43.1840020" lon="-1.4629560">
        <ele>284.0</ele>
        <time>2020-07-29T13:30:05Z</time>
      </trkpt>
      <trkpt lat="43.1839230" lon="-1.4634250">
        <ele>283.2</ele>
        <time>2020-07-29T13:30:11Z</time>
      </trkpt>
      <trkpt lat="43.1839160" lon="-1.4635000">
        <ele>282.8</ele>
        <time>2020-07-29T13:30:12Z</time>
      </trkpt>
      <trkpt lat="43.1839140" lon="-1.4637360">
        <ele>282.4</ele>
        <time>2020-07-29T13:30:15Z</time>
      </trkpt>
      <trkpt lat="43.1839200" lon="-1.4638180">
        <ele>281.8</ele>
        <time>2020-07-29T13:30:16Z</time>
      </trkpt>
      <trkpt lat="43.1839290" lon="-1.4639000">
        <ele>281.2</ele>
        <time>2020-07-29T13:30:17Z</time>
      </trkpt>
      <trkpt lat="43.1839850" lon="-1.4642160">
        <ele>280.8</ele>
        <time>2020-07-29T13:30:21Z</time>
      </trkpt>
      <trkpt lat="43.1839970" lon="-1.4642920">
        <ele>281.0</ele>
        <time>2020-07-29T13:30:22Z</time>
      </trkpt>
      <trkpt lat="43.1840420" lon="-1.4645840">
        <ele>282.4</ele>
        <time>2020-07-29T13:30:26Z</time>
      </trkpt>
      <trkpt lat="43.1840530" lon="-1.4646520">
        <ele>282.6</ele>
        <time>2020-07-29T13:30:27Z</time>
      </trkpt>
      <trkpt lat="43.1840710" lon="-1.4647750">
        <ele>282.8</ele>
        <time>2020-07-29T13:30:29Z</time>
      </trkpt>
      <trkpt lat="43.1841000" lon="-1.4649530">
        <ele>283.4</ele>
        <time>2020-07-29T13:30:32Z</time>
      </trkpt>
      <trkpt lat="43.1841090" lon="-1.4650040">
        <ele>283.6</ele>
        <time>2020-07-29T13:30:33Z</time>
      </trkpt>
      <trkpt lat="43.1841240" lon="-1.4651050">
        <ele>284.0</ele>
        <time>2020-07-29T13:30:35Z</time>
      </trkpt>
      <trkpt lat="43.1841400" lon="-1.4651970">
        <ele>284.6</ele>
        <time>2020-07-29T13:30:37Z</time>
      </trkpt>
      <trkpt lat="43.1841540" lon="-1.4652890">
        <ele>285.2</ele>
        <time>2020-07-29T13:30:39Z</time>
      </trkpt>
      <trkpt lat="43.1841740" lon="-1.4654370">
        <ele>285.8</ele>
        <time>2020-07-29T13:30:42Z</time>
      </trkpt>
      <trkpt lat="43.1842010" lon="-1.4656180">
        <ele>286.4</ele>
        <time>2020-07-29T13:30:46Z</time>
      </trkpt>
      <trkpt lat="43.1842330" lon="-1.4657970">
        <ele>286.4</ele>
        <time>2020-07-29T13:30:50Z</time>
      </trkpt>
      <trkpt lat="43.1842550" lon="-1.4659380">
        <ele>286.8</ele>
        <time>2020-07-29T13:30:53Z</time>
      </trkpt>
      <trkpt lat="43.1842660" lon="-1.4660790">
        <ele>287.4</ele>
        <time>2020-07-29T13:30:56Z</time>
      </trkpt>
      <trkpt lat="43.1842690" lon="-1.4662230">
        <ele>287.8</ele>
        <time>2020-07-29T13:30:59Z</time>
      </trkpt>
      <trkpt lat="43.1842330" lon="-1.4665020">
        <ele>288.2</ele>
        <time>2020-07-29T13:31:05Z</time>
      </trkpt>
      <trkpt lat="43.1841970" lon="-1.4666790">
        <ele>289.0</ele>
        <time>2020-07-29T13:31:09Z</time>
      </trkpt>
      <trkpt lat="43.1841890" lon="-1.4667260">
        <ele>289.0</ele>
        <time>2020-07-29T13:31:10Z</time>
      </trkpt>
      <trkpt lat="43.1841830" lon="-1.4667760">
        <ele>289.0</ele>
        <time>2020-07-29T13:31:11Z</time>
      </trkpt>
      <trkpt lat="43.1841430" lon="-1.4669850">
        <ele>288.8</ele>
        <time>2020-07-29T13:31:15Z</time>
      </trkpt>
      <trkpt lat="43.1840930" lon="-1.4671670">
        <ele>288.4</ele>
        <time>2020-07-29T13:31:18Z</time>
      </trkpt>
      <trkpt lat="43.1840510" lon="-1.4673020">
        <ele>287.6</ele>
        <time>2020-07-29T13:31:20Z</time>
      </trkpt>
      <trkpt lat="43.1839740" lon="-1.4675230">
        <ele>286.6</ele>
        <time>2020-07-29T13:31:23Z</time>
      </trkpt>
      <trkpt lat="43.1839140" lon="-1.4676930">
        <ele>285.2</ele>
        <time>2020-07-29T13:31:25Z</time>
      </trkpt>
      <trkpt lat="43.1838460" lon="-1.4678740">
        <ele>283.6</ele>
        <time>2020-07-29T13:31:27Z</time>
      </trkpt>
      <trkpt lat="43.1838080" lon="-1.4679700">
        <ele>283.2</ele>
        <time>2020-07-29T13:31:28Z</time>
      </trkpt>
      <trkpt lat="43.1837250" lon="-1.4681710">
        <ele>282.4</ele>
        <time>2020-07-29T13:31:30Z</time>
      </trkpt>
      <trkpt lat="43.1836440" lon="-1.4683900">
        <ele>281.4</ele>
        <time>2020-07-29T13:31:32Z</time>
      </trkpt>
      <trkpt lat="43.1835600" lon="-1.4686190">
        <ele>280.2</ele>
        <time>2020-07-29T13:31:34Z</time>
      </trkpt>
      <trkpt lat="43.1834680" lon="-1.4688530">
        <ele>279.0</ele>
        <time>2020-07-29T13:31:36Z</time>
      </trkpt>
      <trkpt lat="43.1833750" lon="-1.4690980">
        <ele>277.8</ele>
        <time>2020-07-29T13:31:38Z</time>
      </trkpt>
      <trkpt lat="43.1832340" lon="-1.4694790">
        <ele>277.2</ele>
        <time>2020-07-29T13:31:41Z</time>
      </trkpt>
      <trkpt lat="43.1830600" lon="-1.4698400">
        <ele>277.6</ele>
        <time>2020-07-29T13:31:44Z</time>
      </trkpt>
      <trkpt lat="43.1829000" lon="-1.4701740">
        <ele>277.2</ele>
        <time>2020-07-29T13:31:47Z</time>
      </trkpt>
      <trkpt lat="43.1828520" lon="-1.4702770">
        <ele>275.8</ele>
        <time>2020-07-29T13:31:48Z</time>
      </trkpt>
      <trkpt lat="43.1828100" lon="-1.4703740">
        <ele>274.6</ele>
        <time>2020-07-29T13:31:49Z</time>
      </trkpt>
      <trkpt lat="43.1827010" lon="-1.4706280">
        <ele>273.6</ele>
        <time>2020-07-29T13:31:52Z</time>
      </trkpt>
      <trkpt lat="43.1826450" lon="-1.4707730">
        <ele>274.8</ele>
        <time>2020-07-29T13:31:54Z</time>
      </trkpt>
      <trkpt lat="43.1825950" lon="-1.4709000">
        <ele>275.8</ele>
        <time>2020-07-29T13:31:56Z</time>
      </trkpt>
      <trkpt lat="43.1825690" lon="-1.4709570">
        <ele>276.0</ele>
        <time>2020-07-29T13:31:57Z</time>
      </trkpt>
      <trkpt lat="43.1825430" lon="-1.4710110">
        <ele>276.2</ele>
        <time>2020-07-29T13:31:58Z</time>
      </trkpt>
      <trkpt lat="43.1823360" lon="-1.4713720">
        <ele>274.4</ele>
        <time>2020-07-29T13:32:04Z</time>
      </trkpt>
      <trkpt lat="43.1823000" lon="-1.4714420">
        <ele>274.0</ele>
        <time>2020-07-29T13:32:05Z</time>
      </trkpt>
      <trkpt lat="43.1821950" lon="-1.4716680">
        <ele>273.2</ele>
        <time>2020-07-29T13:32:08Z</time>
      </trkpt>
      <trkpt lat="43.1820940" lon="-1.4719200">
        <ele>272.0</ele>
        <time>2020-07-29T13:32:11Z</time>
      </trkpt>
      <trkpt lat="43.1820580" lon="-1.4720100">
        <ele>271.6</ele>
        <time>2020-07-29T13:32:12Z</time>
      </trkpt>
      <trkpt lat="43.1819910" lon="-1.4721940">
        <ele>270.6</ele>
        <time>2020-07-29T13:32:14Z</time>
      </trkpt>
      <trkpt lat="43.1818800" lon="-1.4724750">
        <ele>269.6</ele>
        <time>2020-07-29T13:32:17Z</time>
      </trkpt>
      <trkpt lat="43.1818040" lon="-1.4726660">
        <ele>269.4</ele>
        <time>2020-07-29T13:32:19Z</time>
      </trkpt>
      <trkpt lat="43.1817320" lon="-1.4728610">
        <ele>269.6</ele>
        <time>2020-07-29T13:32:21Z</time>
      </trkpt>
      <trkpt lat="43.1816980" lon="-1.4729570">
        <ele>269.6</ele>
        <time>2020-07-29T13:32:22Z</time>
      </trkpt>
      <trkpt lat="43.1815330" lon="-1.4734400">
        <ele>269.2</ele>
        <time>2020-07-29T13:32:27Z</time>
      </trkpt>
      <trkpt lat="43.1814680" lon="-1.4736250">
        <ele>268.6</ele>
        <time>2020-07-29T13:32:29Z</time>
      </trkpt>
      <trkpt lat="43.1814370" lon="-1.4737200">
        <ele>268.4</ele>
        <time>2020-07-29T13:32:30Z</time>
      </trkpt>
      <trkpt lat="43.1813730" lon="-1.4739020">
        <ele>268.2</ele>
        <time>2020-07-29T13:32:32Z</time>
      </trkpt>
      <trkpt lat="43.1812760" lon="-1.4741670">
        <ele>267.6</ele>
        <time>2020-07-29T13:32:35Z</time>
      </trkpt>
      <trkpt lat="43.1812430" lon="-1.4742540">
        <ele>267.2</ele>
        <time>2020-07-29T13:32:36Z</time>
      </trkpt>
      <trkpt lat="43.1811440" lon="-1.4745180">
        <ele>266.8</ele>
        <time>2020-07-29T13:32:39Z</time>
      </trkpt>
      <trkpt lat="43.1810770" lon="-1.4746920">
        <ele>266.6</ele>
        <time>2020-07-29T13:32:41Z</time>
      </trkpt>
      <trkpt lat="43.1810460" lon="-1.4747810">
        <ele>266.6</ele>
        <time>2020-07-29T13:32:42Z</time>
      </trkpt>
      <trkpt lat="43.1809860" lon="-1.4749650">
        <ele>266.0</ele>
        <time>2020-07-29T13:32:44Z</time>
      </trkpt>
      <trkpt lat="43.1808130" lon="-1.4754900">
        <ele>265.4</ele>
        <time>2020-07-29T13:32:50Z</time>
      </trkpt>
      <trkpt lat="43.1807840" lon="-1.4755760">
        <ele>265.6</ele>
        <time>2020-07-29T13:32:51Z</time>
      </trkpt>
      <trkpt lat="43.1807550" lon="-1.4756600">
        <ele>265.8</ele>
        <time>2020-07-29T13:32:52Z</time>
      </trkpt>
      <trkpt lat="43.1806610" lon="-1.4759060">
        <ele>265.8</ele>
        <time>2020-07-29T13:32:55Z</time>
      </trkpt>
      <trkpt lat="43.1806310" lon="-1.4759870">
        <ele>265.8</ele>
        <time>2020-07-29T13:32:56Z</time>
      </trkpt>
      <trkpt lat="43.1805320" lon="-1.4762260">
        <ele>265.4</ele>
        <time>2020-07-29T13:32:59Z</time>
      </trkpt>
      <trkpt lat="43.1804580" lon="-1.4763790">
        <ele>265.0</ele>
        <time>2020-07-29T13:33:01Z</time>
      </trkpt>
      <trkpt lat="43.1804220" lon="-1.4764560">
        <ele>265.0</ele>
        <time>2020-07-29T13:33:02Z</time>
      </trkpt>
      <trkpt lat="43.1801900" lon="-1.4769210">
        <ele>264.0</ele>
        <time>2020-07-29T13:33:08Z</time>
      </trkpt>
      <trkpt lat="43.1801640" lon="-1.4770030">
        <ele>264.0</ele>
        <time>2020-07-29T13:33:09Z</time>
      </trkpt>
      <trkpt lat="43.1801400" lon="-1.4770870">
        <ele>264.0</ele>
        <time>2020-07-29T13:33:10Z</time>
      </trkpt>
      <trkpt lat="43.1800650" lon="-1.4773200">
        <ele>263.8</ele>
        <time>2020-07-29T13:33:13Z</time>
      </trkpt>
      <trkpt lat="43.1800380" lon="-1.4773780">
        <ele>263.8</ele>
        <time>2020-07-29T13:33:14Z</time>
      </trkpt>
      <trkpt lat="43.1799730" lon="-1.4774170">
        <ele>263.8</ele>
        <time>2020-07-29T13:33:16Z</time>
      </trkpt>
      <trkpt lat="43.1799480" lon="-1.4773990">
        <ele>263.8</ele>
        <time>2020-07-29T13:33:17Z</time>
      </trkpt>
      <trkpt lat="43.1798890" lon="-1.4772210">
        <ele>263.8</ele>
        <time>2020-07-29T13:33:21Z</time>
      </trkpt>
      <trkpt lat="43.1799240" lon="-1.4771310">
        <ele>263.6</ele>
        <time>2020-07-29T13:33:23Z</time>
      </trkpt>
      <trkpt lat="43.1799570" lon="-1.4771050">
        <ele>263.6</ele>
        <time>2020-07-29T13:33:24Z</time>
      </trkpt>
      <trkpt lat="43.1799970" lon="-1.4770970">
        <ele>263.4</ele>
        <time>2020-07-29T13:33:25Z</time>
      </trkpt>
      <trkpt lat="43.1800690" lon="-1.4771480">
        <ele>263.4</ele>
        <time>2020-07-29T13:33:27Z</time>
      </trkpt>
      <trkpt lat="43.1801090" lon="-1.4772370">
        <ele>263.6</ele>
        <time>2020-07-29T13:33:29Z</time>
      </trkpt>
      <trkpt lat="43.1801130" lon="-1.4772760">
        <ele>263.8</ele>
        <time>2020-07-29T13:33:30Z</time>
      </trkpt>
      <trkpt lat="43.1800780" lon="-1.4773550">
        <ele>264.0</ele>
        <time>2020-07-29T13:33:32Z</time>
      </trkpt>
      <trkpt lat="43.1800490" lon="-1.4773910">
        <ele>263.8</ele>
        <time>2020-07-29T13:33:53Z</time>
      </trkpt>
      <trkpt lat="43.1800200" lon="-1.4774280">
        <ele>263.8</ele>
        <time>2020-07-29T13:33:54Z</time>
      </trkpt>
      <trkpt lat="43.1799510" lon="-1.4775150">
        <ele>263.6</ele>
        <time>2020-07-29T13:33:56Z</time>
      </trkpt>
      <trkpt lat="43.1799150" lon="-1.4775700">
        <ele>263.6</ele>
        <time>2020-07-29T13:33:57Z</time>
      </trkpt>
      <trkpt lat="43.1798460" lon="-1.4777000">
        <ele>263.2</ele>
        <time>2020-07-29T13:33:59Z</time>
      </trkpt>
      <trkpt lat="43.1797870" lon="-1.4778550">
        <ele>263.0</ele>
        <time>2020-07-29T13:34:01Z</time>
      </trkpt>
      <trkpt lat="43.1797600" lon="-1.4779380">
        <ele>262.8</ele>
        <time>2020-07-29T13:34:02Z</time>
      </trkpt>
      <trkpt lat="43.1796510" lon="-1.4784730">
        <ele>262.0</ele>
        <time>2020-07-29T13:34:08Z</time>
      </trkpt>
      <trkpt lat="43.1796470" lon="-1.4785660">
        <ele>261.8</ele>
        <time>2020-07-29T13:34:09Z</time>
      </trkpt>
      <trkpt lat="43.1796590" lon="-1.4787550">
        <ele>261.2</ele>
        <time>2020-07-29T13:34:11Z</time>
      </trkpt>
      <trkpt lat="43.1796800" lon="-1.4788450">
        <ele>260.8</ele>
        <time>2020-07-29T13:34:12Z</time>
      </trkpt>
      <trkpt lat="43.1797060" lon="-1.4789320">
        <ele>260.6</ele>
        <time>2020-07-29T13:34:13Z</time>
      </trkpt>
      <trkpt lat="43.1798940" lon="-1.4794370">
        <ele>260.4</ele>
        <time>2020-07-29T13:34:19Z</time>
      </trkpt>
      <trkpt lat="43.1799860" lon="-1.4796880">
        <ele>260.2</ele>
        <time>2020-07-29T13:34:22Z</time>
      </trkpt>
      <trkpt lat="43.1800680" lon="-1.4799350">
        <ele>259.8</ele>
        <time>2020-07-29T13:34:25Z</time>
      </trkpt>
      <trkpt lat="43.1800900" lon="-1.4800180">
        <ele>259.8</ele>
        <time>2020-07-29T13:34:26Z</time>
      </trkpt>
      <trkpt lat="43.1801110" lon="-1.4801050">
        <ele>259.6</ele>
        <time>2020-07-29T13:34:27Z</time>
      </trkpt>
      <trkpt lat="43.1801980" lon="-1.4805440">
        <ele>259.0</ele>
        <time>2020-07-29T13:34:32Z</time>
      </trkpt>
      <trkpt lat="43.1802130" lon="-1.4806330">
        <ele>258.8</ele>
        <time>2020-07-29T13:34:33Z</time>
      </trkpt>
      <trkpt lat="43.1803020" lon="-1.4810760">
        <ele>258.6</ele>
        <time>2020-07-29T13:34:38Z</time>
      </trkpt>
      <trkpt lat="43.1803550" lon="-1.4813550">
        <ele>258.2</ele>
        <time>2020-07-29T13:34:41Z</time>
      </trkpt>
      <trkpt lat="43.1804560" lon="-1.4819340">
        <ele>258.6</ele>
        <time>2020-07-29T13:34:47Z</time>
      </trkpt>
      <trkpt lat="43.1804750" lon="-1.4820300">
        <ele>258.4</ele>
        <time>2020-07-29T13:34:48Z</time>
      </trkpt>
      <trkpt lat="43.1805300" lon="-1.4823110">
        <ele>257.2</ele>
        <time>2020-07-29T13:34:51Z</time>
      </trkpt>
      <trkpt lat="43.1805600" lon="-1.4825930">
        <ele>256.4</ele>
        <time>2020-07-29T13:34:54Z</time>
      </trkpt>
      <trkpt lat="43.1805600" lon="-1.4826850">
        <ele>256.2</ele>
        <time>2020-07-29T13:34:55Z</time>
      </trkpt>
      <trkpt lat="43.1805590" lon="-1.4827770">
        <ele>256.0</ele>
        <time>2020-07-29T13:34:56Z</time>
      </trkpt>
      <trkpt lat="43.1805510" lon="-1.4830500">
        <ele>255.8</ele>
        <time>2020-07-29T13:34:59Z</time>
      </trkpt>
      <trkpt lat="43.1805400" lon="-1.4835210">
        <ele>255.8</ele>
        <time>2020-07-29T13:35:04Z</time>
      </trkpt>
      <trkpt lat="43.1805240" lon="-1.4840100">
        <ele>256.0</ele>
        <time>2020-07-29T13:35:09Z</time>
      </trkpt>
      <trkpt lat="43.1805130" lon="-1.4842070">
        <ele>255.8</ele>
        <time>2020-07-29T13:35:11Z</time>
      </trkpt>
      <trkpt lat="43.1804760" lon="-1.4845090">
        <ele>254.8</ele>
        <time>2020-07-29T13:35:14Z</time>
      </trkpt>
      <trkpt lat="43.1804290" lon="-1.4848160">
        <ele>253.8</ele>
        <time>2020-07-29T13:35:17Z</time>
      </trkpt>
      <trkpt lat="43.1804100" lon="-1.4849150">
        <ele>253.2</ele>
        <time>2020-07-29T13:35:18Z</time>
      </trkpt>
      <trkpt lat="43.1803900" lon="-1.4850170">
        <ele>252.8</ele>
        <time>2020-07-29T13:35:19Z</time>
      </trkpt>
      <trkpt lat="43.1802580" lon="-1.4855960">
        <ele>252.6</ele>
        <time>2020-07-29T13:35:25Z</time>
      </trkpt>
      <trkpt lat="43.1802010" lon="-1.4857790">
        <ele>252.8</ele>
        <time>2020-07-29T13:35:27Z</time>
      </trkpt>
      <trkpt lat="43.1801410" lon="-1.4859590">
        <ele>252.6</ele>
        <time>2020-07-29T13:35:29Z</time>
      </trkpt>
      <trkpt lat="43.1800440" lon="-1.4864220">
        <ele>252.0</ele>
        <time>2020-07-29T13:35:34Z</time>
      </trkpt>
      <trkpt lat="43.1800400" lon="-1.4865180">
        <ele>251.8</ele>
        <time>2020-07-29T13:35:35Z</time>
      </trkpt>
      <trkpt lat="43.1800440" lon="-1.4867090">
        <ele>251.6</ele>
        <time>2020-07-29T13:35:37Z</time>
      </trkpt>
      <trkpt lat="43.1800600" lon="-1.4868990">
        <ele>251.2</ele>
        <time>2020-07-29T13:35:39Z</time>
      </trkpt>
      <trkpt lat="43.1800900" lon="-1.4871760">
        <ele>250.6</ele>
        <time>2020-07-29T13:35:42Z</time>
      </trkpt>
      <trkpt lat="43.1801240" lon="-1.4874470">
        <ele>250.2</ele>
        <time>2020-07-29T13:35:45Z</time>
      </trkpt>
      <trkpt lat="43.1801730" lon="-1.4877940">
        <ele>250.0</ele>
        <time>2020-07-29T13:35:49Z</time>
      </trkpt>
      <trkpt lat="43.1802250" lon="-1.4881310">
        <ele>249.8</ele>
        <time>2020-07-29T13:35:53Z</time>
      </trkpt>
      <trkpt lat="43.1802680" lon="-1.4884760">
        <ele>249.4</ele>
        <time>2020-07-29T13:35:57Z</time>
      </trkpt>
      <trkpt lat="43.1803060" lon="-1.4887420">
        <ele>249.4</ele>
        <time>2020-07-29T13:36:00Z</time>
      </trkpt>
      <trkpt lat="43.1803890" lon="-1.4892890">
        <ele>249.6</ele>
        <time>2020-07-29T13:36:06Z</time>
      </trkpt>
      <trkpt lat="43.1804200" lon="-1.4894730">
        <ele>248.8</ele>
        <time>2020-07-29T13:36:08Z</time>
      </trkpt>
      <trkpt lat="43.1804380" lon="-1.4895650">
        <ele>248.4</ele>
        <time>2020-07-29T13:36:09Z</time>
      </trkpt>
      <trkpt lat="43.1805170" lon="-1.4899360">
        <ele>247.8</ele>
        <time>2020-07-29T13:36:13Z</time>
      </trkpt>
      <trkpt lat="43.1805610" lon="-1.4901070">
        <ele>247.6</ele>
        <time>2020-07-29T13:36:15Z</time>
      </trkpt>
      <trkpt lat="43.1806030" lon="-1.4902470">
        <ele>247.4</ele>
        <time>2020-07-29T13:36:17Z</time>
      </trkpt>
      <trkpt lat="43.1806310" lon="-1.4903000">
        <ele>247.4</ele>
        <time>2020-07-29T13:36:18Z</time>
      </trkpt>
      <trkpt lat="43.1806650" lon="-1.4903400">
        <ele>247.4</ele>
        <time>2020-07-29T13:36:19Z</time>
      </trkpt>
      <trkpt lat="43.1807040" lon="-1.4903670">
        <ele>247.4</ele>
        <time>2020-07-29T13:36:20Z</time>
      </trkpt>
      <trkpt lat="43.1807950" lon="-1.4903750">
        <ele>247.6</ele>
        <time>2020-07-29T13:36:22Z</time>
      </trkpt>
      <trkpt lat="43.1810360" lon="-1.4902590">
        <ele>247.4</ele>
        <time>2020-07-29T13:36:27Z</time>
      </trkpt>
      <trkpt lat="43.1812790" lon="-1.4901290">
        <ele>248.2</ele>
        <time>2020-07-29T13:36:32Z</time>
      </trkpt>
      <trkpt lat="43.1813760" lon="-1.4900870">
        <ele>248.6</ele>
        <time>2020-07-29T13:36:34Z</time>
      </trkpt>
      <trkpt lat="43.1814250" lon="-1.4900660">
        <ele>248.8</ele>
        <time>2020-07-29T13:36:35Z</time>
      </trkpt>
      <trkpt lat="43.1816140" lon="-1.4899640">
        <ele>249.6</ele>
        <time>2020-07-29T13:36:39Z</time>
      </trkpt>
      <trkpt lat="43.1816630" lon="-1.4899380">
        <ele>249.6</ele>
        <time>2020-07-29T13:36:40Z</time>
      </trkpt>
      <trkpt lat="43.1817120" lon="-1.4899120">
        <ele>249.8</ele>
        <time>2020-07-29T13:36:41Z</time>
      </trkpt>
      <trkpt lat="43.1817610" lon="-1.4898870">
        <ele>249.8</ele>
        <time>2020-07-29T13:36:42Z</time>
      </trkpt>
      <trkpt lat="43.1819870" lon="-1.4897630">
        <ele>250.8</ele>
        <time>2020-07-29T13:36:47Z</time>
      </trkpt>
      <trkpt lat="43.1821150" lon="-1.4896980">
        <ele>251.8</ele>
        <time>2020-07-29T13:36:50Z</time>
      </trkpt>
      <trkpt lat="43.1823410" lon="-1.4895780">
        <ele>252.6</ele>
        <time>2020-07-29T13:36:56Z</time>
      </trkpt>
      <trkpt lat="43.1823780" lon="-1.4895570">
        <ele>253.0</ele>
        <time>2020-07-29T13:36:57Z</time>
      </trkpt>
      <trkpt lat="43.1826070" lon="-1.4894400">
        <ele>253.4</ele>
        <time>2020-07-29T13:37:03Z</time>
      </trkpt>
      <trkpt lat="43.1826820" lon="-1.4894020">
        <ele>254.2</ele>
        <time>2020-07-29T13:37:05Z</time>
      </trkpt>
      <trkpt lat="43.1827940" lon="-1.4893390">
        <ele>255.2</ele>
        <time>2020-07-29T13:37:08Z</time>
      </trkpt>
      <trkpt lat="43.1828290" lon="-1.4893160">
        <ele>255.4</ele>
        <time>2020-07-29T13:37:09Z</time>
      </trkpt>
      <trkpt lat="43.1830400" lon="-1.4891540">
        <ele>256.2</ele>
        <time>2020-07-29T13:37:15Z</time>
      </trkpt>
      <trkpt lat="43.1830720" lon="-1.4891200">
        <ele>256.4</ele>
        <time>2020-07-29T13:37:16Z</time>
      </trkpt>
      <trkpt lat="43.1831370" lon="-1.4890500">
        <ele>256.8</ele>
        <time>2020-07-29T13:37:18Z</time>
      </trkpt>
      <trkpt lat="43.1832240" lon="-1.4889400">
        <ele>257.8</ele>
        <time>2020-07-29T13:37:21Z</time>
      </trkpt>
      <trkpt lat="43.1833110" lon="-1.4888280">
        <ele>259.0</ele>
        <time>2020-07-29T13:37:24Z</time>
      </trkpt>
      <trkpt lat="43.1833850" lon="-1.4887020">
        <ele>259.2</ele>
        <time>2020-07-29T13:37:27Z</time>
      </trkpt>
      <trkpt lat="43.1834840" lon="-1.4884860">
        <ele>260.0</ele>
        <time>2020-07-29T13:37:32Z</time>
      </trkpt>
      <trkpt lat="43.1835610" lon="-1.4883130">
        <ele>261.2</ele>
        <time>2020-07-29T13:37:36Z</time>
      </trkpt>
      <trkpt lat="43.1836370" lon="-1.4881470">
        <ele>262.4</ele>
        <time>2020-07-29T13:37:40Z</time>
      </trkpt>
      <trkpt lat="43.1837500" lon="-1.4879020">
        <ele>263.6</ele>
        <time>2020-07-29T13:37:46Z</time>
      </trkpt>
      <trkpt lat="43.1838700" lon="-1.4876650">
        <ele>264.4</ele>
        <time>2020-07-29T13:37:52Z</time>
      </trkpt>
      <trkpt lat="43.1839130" lon="-1.4875880">
        <ele>264.8</ele>
        <time>2020-07-29T13:37:54Z</time>
      </trkpt>
      <trkpt lat="43.1839920" lon="-1.4874370">
        <ele>265.8</ele>
        <time>2020-07-29T13:37:58Z</time>
      </trkpt>
      <trkpt lat="43.1840640" lon="-1.4873310">
        <ele>266.8</ele>
        <time>2020-07-29T13:38:01Z</time>
      </trkpt>
      <trkpt lat="43.1840880" lon="-1.4872970">
        <ele>266.8</ele>
        <time>2020-07-29T13:38:02Z</time>
      </trkpt>
      <trkpt lat="43.1842470" lon="-1.4870970">
        <ele>268.0</ele>
        <time>2020-07-29T13:38:08Z</time>
      </trkpt>
      <trkpt lat="43.1842770" lon="-1.4870650">
        <ele>268.0</ele>
        <time>2020-07-29T13:38:09Z</time>
      </trkpt>
      <trkpt lat="43.1844850" lon="-1.4868360">
        <ele>268.4</ele>
        <time>2020-07-29T13:38:15Z</time>
      </trkpt>
      <trkpt lat="43.1845250" lon="-1.4867970">
        <ele>268.6</ele>
        <time>2020-07-29T13:38:16Z</time>
      </trkpt>
      <trkpt lat="43.1847830" lon="-1.4865760">
        <ele>268.4</ele>
        <time>2020-07-29T13:38:22Z</time>
      </trkpt>
      <trkpt lat="43.1848870" lon="-1.4865210">
        <ele>268.2</ele>
        <time>2020-07-29T13:38:24Z</time>
      </trkpt>
      <trkpt lat="43.1851690" lon="-1.4864130">
        <ele>268.0</ele>
        <time>2020-07-29T13:38:29Z</time>
      </trkpt>
      <trkpt lat="43.1852890" lon="-1.4863790">
        <ele>267.6</ele>
        <time>2020-07-29T13:38:31Z</time>
      </trkpt>
      <trkpt lat="43.1856910" lon="-1.4863120">
        <ele>267.4</ele>
        <time>2020-07-29T13:38:37Z</time>
      </trkpt>
      <trkpt lat="43.1857600" lon="-1.4863040">
        <ele>267.2</ele>
        <time>2020-07-29T13:38:38Z</time>
      </trkpt>
      <trkpt lat="43.1858300" lon="-1.4862960">
        <ele>267.0</ele>
        <time>2020-07-29T13:38:39Z</time>
      </trkpt>
      <trkpt lat="43.1862600" lon="-1.4862680">
        <ele>266.2</ele>
        <time>2020-07-29T13:38:45Z</time>
      </trkpt>
      <trkpt lat="43.1863970" lon="-1.4862610">
        <ele>266.2</ele>
        <time>2020-07-29T13:38:47Z</time>
      </trkpt>
      <trkpt lat="43.1867910" lon="-1.4862770">
        <ele>266.4</ele>
        <time>2020-07-29T13:38:53Z</time>
      </trkpt>
      <trkpt lat="43.1868550" lon="-1.4862810">
        <ele>266.6</ele>
        <time>2020-07-29T13:38:54Z</time>
      </trkpt>
      <trkpt lat="43.1872310" lon="-1.4863140">
        <ele>266.8</ele>
        <time>2020-07-29T13:39:00Z</time>
      </trkpt>
      <trkpt lat="43.1874730" lon="-1.4863370">
        <ele>267.0</ele>
        <time>2020-07-29T13:39:04Z</time>
      </trkpt>
      <trkpt lat="43.1875910" lon="-1.4863510">
        <ele>267.4</ele>
        <time>2020-07-29T13:39:06Z</time>
      </trkpt>
      <trkpt lat="43.1877630" lon="-1.4863720">
        <ele>267.8</ele>
        <time>2020-07-29T13:39:09Z</time>
      </trkpt>
      <trkpt lat="43.1878210" lon="-1.4863780">
        <ele>268.0</ele>
        <time>2020-07-29T13:39:10Z</time>
      </trkpt>
      <trkpt lat="43.1878780" lon="-1.4863840">
        <ele>268.2</ele>
        <time>2020-07-29T13:39:11Z</time>
      </trkpt>
      <trkpt lat="43.1879350" lon="-1.4863910">
        <ele>268.2</ele>
        <time>2020-07-29T13:39:12Z</time>
      </trkpt>
      <trkpt lat="43.1882190" lon="-1.4864220">
        <ele>268.4</ele>
        <time>2020-07-29T13:39:17Z</time>
      </trkpt>
      <trkpt lat="43.1885010" lon="-1.4864490">
        <ele>269.0</ele>
        <time>2020-07-29T13:39:22Z</time>
      </trkpt>
      <trkpt lat="43.1886170" lon="-1.4864620">
        <ele>269.6</ele>
        <time>2020-07-29T13:39:24Z</time>
      </trkpt>
      <trkpt lat="43.1889740" lon="-1.4865060">
        <ele>269.2</ele>
        <time>2020-07-29T13:39:30Z</time>
      </trkpt>
      <trkpt lat="43.1890320" lon="-1.4865120">
        <ele>269.2</ele>
        <time>2020-07-29T13:39:31Z</time>
      </trkpt>
      <trkpt lat="43.1893770" lon="-1.4865440">
        <ele>270.2</ele>
        <time>2020-07-29T13:39:37Z</time>
      </trkpt>
      <trkpt lat="43.1894350" lon="-1.4865490">
        <ele>270.8</ele>
        <time>2020-07-29T13:39:38Z</time>
      </trkpt>
      <trkpt lat="43.1894920" lon="-1.4865550">
        <ele>271.2</ele>
        <time>2020-07-29T13:39:39Z</time>
      </trkpt>
      <trkpt lat="43.1897900" lon="-1.4865890">
        <ele>270.8</ele>
        <time>2020-07-29T13:39:44Z</time>
      </trkpt>
      <trkpt lat="43.1900990" lon="-1.4866270">
        <ele>270.6</ele>
        <time>2020-07-29T13:39:49Z</time>
      </trkpt>
      <trkpt lat="43.1903560" lon="-1.4866550">
        <ele>270.2</ele>
        <time>2020-07-29T13:39:53Z</time>
      </trkpt>
      <trkpt lat="43.1904210" lon="-1.4866570">
        <ele>270.2</ele>
        <time>2020-07-29T13:39:54Z</time>
      </trkpt>
      <trkpt lat="43.1906120" lon="-1.4866630">
        <ele>270.2</ele>
        <time>2020-07-29T13:39:57Z</time>
      </trkpt>
      <trkpt lat="43.1906740" lon="-1.4866610">
        <ele>270.4</ele>
        <time>2020-07-29T13:39:58Z</time>
      </trkpt>
      <trkpt lat="43.1909130" lon="-1.4866440">
        <ele>271.2</ele>
        <time>2020-07-29T13:40:02Z</time>
      </trkpt>
      <trkpt lat="43.1912690" lon="-1.4865820">
        <ele>271.2</ele>
        <time>2020-07-29T13:40:08Z</time>
      </trkpt>
      <trkpt lat="43.1916210" lon="-1.4864880">
        <ele>271.0</ele>
        <time>2020-07-29T13:40:14Z</time>
      </trkpt>
      <trkpt lat="43.1918640" lon="-1.4864240">
        <ele>271.4</ele>
        <time>2020-07-29T13:40:18Z</time>
      </trkpt>
      <trkpt lat="43.1919860" lon="-1.4863910">
        <ele>271.6</ele>
        <time>2020-07-29T13:40:20Z</time>
      </trkpt>
      <trkpt lat="43.1922270" lon="-1.4863270">
        <ele>272.0</ele>
        <time>2020-07-29T13:40:24Z</time>
      </trkpt>
      <trkpt lat="43.1924110" lon="-1.4862790">
        <ele>272.4</ele>
        <time>2020-07-29T13:40:27Z</time>
      </trkpt>
      <trkpt lat="43.1927140" lon="-1.4861830">
        <ele>272.6</ele>
        <time>2020-07-29T13:40:32Z</time>
      </trkpt>
      <trkpt lat="43.1930060" lon="-1.4860100">
        <ele>272.8</ele>
        <time>2020-07-29T13:40:37Z</time>
      </trkpt>
      <trkpt lat="43.1930600" lon="-1.4859610">
        <ele>272.8</ele>
        <time>2020-07-29T13:40:38Z</time>
      </trkpt>
      <trkpt lat="43.1931620" lon="-1.4858550">
        <ele>272.8</ele>
        <time>2020-07-29T13:40:40Z</time>
      </trkpt>
      <trkpt lat="43.1932560" lon="-1.4857450">
        <ele>273.6</ele>
        <time>2020-07-29T13:40:42Z</time>
      </trkpt>
      <trkpt lat="43.1933350" lon="-1.4856300">
        <ele>274.4</ele>
        <time>2020-07-29T13:40:44Z</time>
      </trkpt>
      <trkpt lat="43.1933700" lon="-1.4855700">
        <ele>274.8</ele>
        <time>2020-07-29T13:40:45Z</time>
      </trkpt>
      <trkpt lat="43.1935440" lon="-1.4852090">
        <ele>275.8</ele>
        <time>2020-07-29T13:40:51Z</time>
      </trkpt>
      <trkpt lat="43.1936410" lon="-1.4849860">
        <ele>277.0</ele>
        <time>2020-07-29T13:40:55Z</time>
      </trkpt>
      <trkpt lat="43.1936880" lon="-1.4848800">
        <ele>277.4</ele>
        <time>2020-07-29T13:40:57Z</time>
      </trkpt>
      <trkpt lat="43.1937330" lon="-1.4847740">
        <ele>277.8</ele>
        <time>2020-07-29T13:40:59Z</time>
      </trkpt>
      <trkpt lat="43.1937550" lon="-1.4847230">
        <ele>278.2</ele>
        <time>2020-07-29T13:41:00Z</time>
      </trkpt>
      <trkpt lat="43.1937790" lon="-1.4846740">
        <ele>278.4</ele>
        <time>2020-07-29T13:41:01Z</time>
      </trkpt>
      <trkpt lat="43.1938760" lon="-1.4844850">
        <ele>279.2</ele>
        <time>2020-07-29T13:41:05Z</time>
      </trkpt>
      <trkpt lat="43.1940020" lon="-1.4842510">
        <ele>280.2</ele>
        <time>2020-07-29T13:41:10Z</time>
      </trkpt>
      <trkpt lat="43.1940260" lon="-1.4842040">
        <ele>280.4</ele>
        <time>2020-07-29T13:41:11Z</time>
      </trkpt>
      <trkpt lat="43.1941980" lon="-1.4839550">
        <ele>281.2</ele>
        <time>2020-07-29T13:41:17Z</time>
      </trkpt>
      <trkpt lat="43.1942630" lon="-1.4838840">
        <ele>281.4</ele>
        <time>2020-07-29T13:41:19Z</time>
      </trkpt>
      <trkpt lat="43.1944830" lon="-1.4837000">
        <ele>282.4</ele>
        <time>2020-07-29T13:41:25Z</time>
      </trkpt>
      <trkpt lat="43.1945270" lon="-1.4836760">
        <ele>282.6</ele>
        <time>2020-07-29T13:41:26Z</time>
      </trkpt>
      <trkpt lat="43.1945740" lon="-1.4836520">
        <ele>283.0</ele>
        <time>2020-07-29T13:41:27Z</time>
      </trkpt>
      <trkpt lat="43.1946220" lon="-1.4836350">
        <ele>283.0</ele>
        <time>2020-07-29T13:41:28Z</time>
      </trkpt>
      <trkpt lat="43.1948660" lon="-1.4835880">
        <ele>283.2</ele>
        <time>2020-07-29T13:41:33Z</time>
      </trkpt>
      <trkpt lat="43.1951760" lon="-1.4835950">
        <ele>283.6</ele>
        <time>2020-07-29T13:41:39Z</time>
      </trkpt>
      <trkpt lat="43.1952270" lon="-1.4836000">
        <ele>283.6</ele>
        <time>2020-07-29T13:41:40Z</time>
      </trkpt>
      <trkpt lat="43.1952790" lon="-1.4836040">
        <ele>283.8</ele>
        <time>2020-07-29T13:41:41Z</time>
      </trkpt>
      <trkpt lat="43.1955940" lon="-1.4836280">
        <ele>284.4</ele>
        <time>2020-07-29T13:41:47Z</time>
      </trkpt>
      <trkpt lat="43.1957540" lon="-1.4836400">
        <ele>284.6</ele>
        <time>2020-07-29T13:41:50Z</time>
      </trkpt>
      <trkpt lat="43.1958060" lon="-1.4836440">
        <ele>284.8</ele>
        <time>2020-07-29T13:41:51Z</time>
      </trkpt>
      <trkpt lat="43.1958570" lon="-1.4836460">
        <ele>285.0</ele>
        <time>2020-07-29T13:41:52Z</time>
      </trkpt>
      <trkpt lat="43.1959550" lon="-1.4836500">
        <ele>285.6</ele>
        <time>2020-07-29T13:41:54Z</time>
      </trkpt>
      <trkpt lat="43.1960020" lon="-1.4836520">
        <ele>285.6</ele>
        <time>2020-07-29T13:41:55Z</time>
      </trkpt>
      <trkpt lat="43.1961770" lon="-1.4836630">
        <ele>286.8</ele>
        <time>2020-07-29T13:41:59Z</time>
      </trkpt>
      <trkpt lat="43.1964290" lon="-1.4836760">
        <ele>287.8</ele>
        <time>2020-07-29T13:42:05Z</time>
      </trkpt>
      <trkpt lat="43.1965960" lon="-1.4836840">
        <ele>288.4</ele>
        <time>2020-07-29T13:42:09Z</time>
      </trkpt>
      <trkpt lat="43.1966850" lon="-1.4836870">
        <ele>289.0</ele>
        <time>2020-07-29T13:42:11Z</time>
      </trkpt>
      <trkpt lat="43.1969010" lon="-1.4836960">
        <ele>290.0</ele>
        <time>2020-07-29T13:42:16Z</time>
      </trkpt>
      <trkpt lat="43.1969420" lon="-1.4836970">
        <ele>290.0</ele>
        <time>2020-07-29T13:42:17Z</time>
      </trkpt>
      <trkpt lat="43.1971370" lon="-1.4837100">
        <ele>291.4</ele>
        <time>2020-07-29T13:42:22Z</time>
      </trkpt>
      <trkpt lat="43.1973150" lon="-1.4837180">
        <ele>292.6</ele>
        <time>2020-07-29T13:42:27Z</time>
      </trkpt>
      <trkpt lat="43.1974640" lon="-1.4837410">
        <ele>293.8</ele>
        <time>2020-07-29T13:42:32Z</time>
      </trkpt>
      <trkpt lat="43.1975240" lon="-1.4837510">
        <ele>294.2</ele>
        <time>2020-07-29T13:42:34Z</time>
      </trkpt>
      <trkpt lat="43.1975830" lon="-1.4837640">
        <ele>294.6</ele>
        <time>2020-07-29T13:42:36Z</time>
      </trkpt>
      <trkpt lat="43.1976410" lon="-1.4837810">
        <ele>294.8</ele>
        <time>2020-07-29T13:42:38Z</time>
      </trkpt>
      <trkpt lat="43.1977910" lon="-1.4838120">
        <ele>295.8</ele>
        <time>2020-07-29T13:42:43Z</time>
      </trkpt>
      <trkpt lat="43.1979240" lon="-1.4838440">
        <ele>296.8</ele>
        <time>2020-07-29T13:42:47Z</time>
      </trkpt>
      <trkpt lat="43.1980780" lon="-1.4838830">
        <ele>297.6</ele>
        <time>2020-07-29T13:42:52Z</time>
      </trkpt>
      <trkpt lat="43.1981380" lon="-1.4839040">
        <ele>298.0</ele>
        <time>2020-07-29T13:42:54Z</time>
      </trkpt>
      <trkpt lat="43.1982670" lon="-1.4839620">
        <ele>299.4</ele>
        <time>2020-07-29T13:42:58Z</time>
      </trkpt>
      <trkpt lat="43.1983620" lon="-1.4840050">
        <ele>300.4</ele>
        <time>2020-07-29T13:43:01Z</time>
      </trkpt>
      <trkpt lat="43.1985480" lon="-1.4840900">
        <ele>301.2</ele>
        <time>2020-07-29T13:43:07Z</time>
      </trkpt>
      <trkpt lat="43.1986120" lon="-1.4841240">
        <ele>301.4</ele>
        <time>2020-07-29T13:43:09Z</time>
      </trkpt>
      <trkpt lat="43.1986460" lon="-1.4841450">
        <ele>301.6</ele>
        <time>2020-07-29T13:43:10Z</time>
      </trkpt>
      <trkpt lat="43.1988780" lon="-1.4843040">
        <ele>301.6</ele>
        <time>2020-07-29T13:43:16Z</time>
      </trkpt>
      <trkpt lat="43.1991350" lon="-1.4844780">
        <ele>301.8</ele>
        <time>2020-07-29T13:43:22Z</time>
      </trkpt>
      <trkpt lat="43.1992300" lon="-1.4845410">
        <ele>302.2</ele>
        <time>2020-07-29T13:43:24Z</time>
      </trkpt>
      <trkpt lat="43.1995340" lon="-1.4847150">
        <ele>301.8</ele>
        <time>2020-07-29T13:43:30Z</time>
      </trkpt>
      <trkpt lat="43.1995850" lon="-1.4847390">
        <ele>301.8</ele>
        <time>2020-07-29T13:43:31Z</time>
      </trkpt>
      <trkpt lat="43.1998890" lon="-1.4848640">
        <ele>302.6</ele>
        <time>2020-07-29T13:43:37Z</time>
      </trkpt>
      <trkpt lat="43.2000410" lon="-1.4849250">
        <ele>303.0</ele>
        <time>2020-07-29T13:43:40Z</time>
      </trkpt>
      <trkpt lat="43.2000920" lon="-1.4849440">
        <ele>303.2</ele>
        <time>2020-07-29T13:43:41Z</time>
      </trkpt>
      <trkpt lat="43.2002860" lon="-1.4850140">
        <ele>303.6</ele>
        <time>2020-07-29T13:43:45Z</time>
      </trkpt>
      <trkpt lat="43.2003920" lon="-1.4850480">
        <ele>303.4</ele>
        <time>2020-07-29T13:43:47Z</time>
      </trkpt>
      <trkpt lat="43.2007280" lon="-1.4850840">
        <ele>303.8</ele>
        <time>2020-07-29T13:43:53Z</time>
      </trkpt>
      <trkpt lat="43.2007810" lon="-1.4850800">
        <ele>303.8</ele>
        <time>2020-07-29T13:43:54Z</time>
      </trkpt>
      <trkpt lat="43.2010990" lon="-1.4850690">
        <ele>304.6</ele>
        <time>2020-07-29T13:44:00Z</time>
      </trkpt>
      <trkpt lat="43.2011530" lon="-1.4850700">
        <ele>304.8</ele>
        <time>2020-07-29T13:44:01Z</time>
      </trkpt>
      <trkpt lat="43.2014760" lon="-1.4850710">
        <ele>305.4</ele>
        <time>2020-07-29T13:44:07Z</time>
      </trkpt>
      <trkpt lat="43.2015270" lon="-1.4850720">
        <ele>305.8</ele>
        <time>2020-07-29T13:44:08Z</time>
      </trkpt>
      <trkpt lat="43.2016860" lon="-1.4850740">
        <ele>306.4</ele>
        <time>2020-07-29T13:44:11Z</time>
      </trkpt>
      <trkpt lat="43.2018430" lon="-1.4850880">
        <ele>306.8</ele>
        <time>2020-07-29T13:44:14Z</time>
      </trkpt>
      <trkpt lat="43.2021000" lon="-1.4851460">
        <ele>307.8</ele>
        <time>2020-07-29T13:44:19Z</time>
      </trkpt>
      <trkpt lat="43.2023930" lon="-1.4852360">
        <ele>308.4</ele>
        <time>2020-07-29T13:44:25Z</time>
      </trkpt>
      <trkpt lat="43.2024900" lon="-1.4852560">
        <ele>308.6</ele>
        <time>2020-07-29T13:44:27Z</time>
      </trkpt>
      <trkpt lat="43.2027980" lon="-1.4853620">
        <ele>309.0</ele>
        <time>2020-07-29T13:44:33Z</time>
      </trkpt>
      <trkpt lat="43.2028970" lon="-1.4854020">
        <ele>309.6</ele>
        <time>2020-07-29T13:44:35Z</time>
      </trkpt>
      <trkpt lat="43.2030490" lon="-1.4854600">
        <ele>310.2</ele>
        <time>2020-07-29T13:44:38Z</time>
      </trkpt>
      <trkpt lat="43.2031970" lon="-1.4855140">
        <ele>311.2</ele>
        <time>2020-07-29T13:44:41Z</time>
      </trkpt>
      <trkpt lat="43.2033400" lon="-1.4855610">
        <ele>311.6</ele>
        <time>2020-07-29T13:44:44Z</time>
      </trkpt>
      <trkpt lat="43.2035940" lon="-1.4856440">
        <ele>312.2</ele>
        <time>2020-07-29T13:44:50Z</time>
      </trkpt>
      <trkpt lat="43.2036320" lon="-1.4856530">
        <ele>312.4</ele>
        <time>2020-07-29T13:44:51Z</time>
      </trkpt>
      <trkpt lat="43.2037780" lon="-1.4856950">
        <ele>313.4</ele>
        <time>2020-07-29T13:44:55Z</time>
      </trkpt>
      <trkpt lat="43.2038660" lon="-1.4857140">
        <ele>314.4</ele>
        <time>2020-07-29T13:44:58Z</time>
      </trkpt>
      <trkpt lat="43.2040390" lon="-1.4857670">
        <ele>315.4</ele>
        <time>2020-07-29T13:45:04Z</time>
      </trkpt>
      <trkpt lat="43.2040700" lon="-1.4857780">
        <ele>315.6</ele>
        <time>2020-07-29T13:45:05Z</time>
      </trkpt>
      <trkpt lat="43.2041970" lon="-1.4858100">
        <ele>316.6</ele>
        <time>2020-07-29T13:45:09Z</time>
      </trkpt>
      <trkpt lat="43.2042610" lon="-1.4858270">
        <ele>317.0</ele>
        <time>2020-07-29T13:45:11Z</time>
      </trkpt>
      <trkpt lat="43.2042910" lon="-1.4858350">
        <ele>317.2</ele>
        <time>2020-07-29T13:45:12Z</time>
      </trkpt>
      <trkpt lat="43.2043830" lon="-1.4858660">
        <ele>317.8</ele>
        <time>2020-07-29T13:45:15Z</time>
      </trkpt>
      <trkpt lat="43.2045030" lon="-1.4859190">
        <ele>319.0</ele>
        <time>2020-07-29T13:45:19Z</time>
      </trkpt>
      <trkpt lat="43.2045840" lon="-1.4859570">
        <ele>320.2</ele>
        <time>2020-07-29T13:45:22Z</time>
      </trkpt>
      <trkpt lat="43.2046110" lon="-1.4859700">
        <ele>320.4</ele>
        <time>2020-07-29T13:45:23Z</time>
      </trkpt>
      <trkpt lat="43.2047180" lon="-1.4860300">
        <ele>321.4</ele>
        <time>2020-07-29T13:45:27Z</time>
      </trkpt>
      <trkpt lat="43.2048310" lon="-1.4861010">
        <ele>322.2</ele>
        <time>2020-07-29T13:45:31Z</time>
      </trkpt>
      <trkpt lat="43.2049160" lon="-1.4861730">
        <ele>322.4</ele>
        <time>2020-07-29T13:45:34Z</time>
      </trkpt>
      <trkpt lat="43.2050320" lon="-1.4862770">
        <ele>323.0</ele>
        <time>2020-07-29T13:45:38Z</time>
      </trkpt>
      <trkpt lat="43.2051590" lon="-1.4863930">
        <ele>323.4</ele>
        <time>2020-07-29T13:45:42Z</time>
      </trkpt>
      <trkpt lat="43.2053250" lon="-1.4865170">
        <ele>324.4</ele>
        <time>2020-07-29T13:45:47Z</time>
      </trkpt>
      <trkpt lat="43.2053610" lon="-1.4865370">
        <ele>324.6</ele>
        <time>2020-07-29T13:45:48Z</time>
      </trkpt>
      <trkpt lat="43.2054950" lon="-1.4866080">
        <ele>325.6</ele>
        <time>2020-07-29T13:45:52Z</time>
      </trkpt>
      <trkpt lat="43.2056270" lon="-1.4866790">
        <ele>326.2</ele>
        <time>2020-07-29T13:45:56Z</time>
      </trkpt>
      <trkpt lat="43.2057240" lon="-1.4867300">
        <ele>326.8</ele>
        <time>2020-07-29T13:45:59Z</time>
      </trkpt>
      <trkpt lat="43.2059130" lon="-1.4868240">
        <ele>328.0</ele>
        <time>2020-07-29T13:46:05Z</time>
      </trkpt>
      <trkpt lat="43.2060680" lon="-1.4868990">
        <ele>329.0</ele>
        <time>2020-07-29T13:46:10Z</time>
      </trkpt>
      <trkpt lat="43.2062060" lon="-1.4869720">
        <ele>330.2</ele>
        <time>2020-07-29T13:46:15Z</time>
      </trkpt>
      <trkpt lat="43.2063140" lon="-1.4870310">
        <ele>331.4</ele>
        <time>2020-07-29T13:46:19Z</time>
      </trkpt>
      <trkpt lat="43.2064000" lon="-1.4870740">
        <ele>331.8</ele>
        <time>2020-07-29T13:46:22Z</time>
      </trkpt>
      <trkpt lat="43.2065100" lon="-1.4871300">
        <ele>332.6</ele>
        <time>2020-07-29T13:46:26Z</time>
      </trkpt>
      <trkpt lat="43.2066180" lon="-1.4871910">
        <ele>333.6</ele>
        <time>2020-07-29T13:46:30Z</time>
      </trkpt>
      <trkpt lat="43.2067780" lon="-1.4872750">
        <ele>334.8</ele>
        <time>2020-07-29T13:46:36Z</time>
      </trkpt>
      <trkpt lat="43.2068640" lon="-1.4873250">
        <ele>335.4</ele>
        <time>2020-07-29T13:46:39Z</time>
      </trkpt>
      <trkpt lat="43.2069220" lon="-1.4873630">
        <ele>336.0</ele>
        <time>2020-07-29T13:46:41Z</time>
      </trkpt>
      <trkpt lat="43.2070680" lon="-1.4874810">
        <ele>337.2</ele>
        <time>2020-07-29T13:46:46Z</time>
      </trkpt>
      <trkpt lat="43.2071260" lon="-1.4875350">
        <ele>337.4</ele>
        <time>2020-07-29T13:46:48Z</time>
      </trkpt>
      <trkpt lat="43.2073320" lon="-1.4877040">
        <ele>338.0</ele>
        <time>2020-07-29T13:46:54Z</time>
      </trkpt>
      <trkpt lat="43.2073660" lon="-1.4877270">
        <ele>338.2</ele>
        <time>2020-07-29T13:46:55Z</time>
      </trkpt>
      <trkpt lat="43.2075250" lon="-1.4878520">
        <ele>339.2</ele>
        <time>2020-07-29T13:47:00Z</time>
      </trkpt>
      <trkpt lat="43.2076230" lon="-1.4879240">
        <ele>340.2</ele>
        <time>2020-07-29T13:47:03Z</time>
      </trkpt>
      <trkpt lat="43.2076550" lon="-1.4879500">
        <ele>340.4</ele>
        <time>2020-07-29T13:47:04Z</time>
      </trkpt>
      <trkpt lat="43.2078340" lon="-1.4880980">
        <ele>341.6</ele>
        <time>2020-07-29T13:47:10Z</time>
      </trkpt>
      <trkpt lat="43.2078900" lon="-1.4881450">
        <ele>341.8</ele>
        <time>2020-07-29T13:47:12Z</time>
      </trkpt>
      <trkpt lat="43.2079490" lon="-1.4881870">
        <ele>342.0</ele>
        <time>2020-07-29T13:47:14Z</time>
      </trkpt>
      <trkpt lat="43.2081430" lon="-1.4883370">
        <ele>342.6</ele>
        <time>2020-07-29T13:47:20Z</time>
      </trkpt>
      <trkpt lat="43.2081760" lon="-1.4883630">
        <ele>342.8</ele>
        <time>2020-07-29T13:47:21Z</time>
      </trkpt>
      <trkpt lat="43.2083510" lon="-1.4885050">
        <ele>343.8</ele>
        <time>2020-07-29T13:47:26Z</time>
      </trkpt>
      <trkpt lat="43.2084850" lon="-1.4886170">
        <ele>344.2</ele>
        <time>2020-07-29T13:47:30Z</time>
      </trkpt>
      <trkpt lat="43.2085850" lon="-1.4887010">
        <ele>344.8</ele>
        <time>2020-07-29T13:47:33Z</time>
      </trkpt>
      <trkpt lat="43.2087880" lon="-1.4888630">
        <ele>345.6</ele>
        <time>2020-07-29T13:47:39Z</time>
      </trkpt>
      <trkpt lat="43.2088890" lon="-1.4889420">
        <ele>345.8</ele>
        <time>2020-07-29T13:47:42Z</time>
      </trkpt>
      <trkpt lat="43.2090210" lon="-1.4890550">
        <ele>347.0</ele>
        <time>2020-07-29T13:47:46Z</time>
      </trkpt>
      <trkpt lat="43.2091250" lon="-1.4891470">
        <ele>347.8</ele>
        <time>2020-07-29T13:47:49Z</time>
      </trkpt>
      <trkpt lat="43.2091590" lon="-1.4891770">
        <ele>348.0</ele>
        <time>2020-07-29T13:47:50Z</time>
      </trkpt>
      <trkpt lat="43.2093700" lon="-1.4893360">
        <ele>349.0</ele>
        <time>2020-07-29T13:47:56Z</time>
      </trkpt>
      <trkpt lat="43.2094750" lon="-1.4894200">
        <ele>349.4</ele>
        <time>2020-07-29T13:47:59Z</time>
      </trkpt>
      <trkpt lat="43.2096860" lon="-1.4895980">
        <ele>349.8</ele>
        <time>2020-07-29T13:48:05Z</time>
      </trkpt>
      <trkpt lat="43.2097590" lon="-1.4896470">
        <ele>350.0</ele>
        <time>2020-07-29T13:48:07Z</time>
      </trkpt>
      <trkpt lat="43.2099540" lon="-1.4897280">
        <ele>351.0</ele>
        <time>2020-07-29T13:48:12Z</time>
      </trkpt>
      <trkpt lat="43.2099910" lon="-1.4897340">
        <ele>351.2</ele>
        <time>2020-07-29T13:48:13Z</time>
      </trkpt>
      <trkpt lat="43.2101230" lon="-1.4897750">
        <ele>352.2</ele>
        <time>2020-07-29T13:48:17Z</time>
      </trkpt>
      <trkpt lat="43.2101550" lon="-1.4897880">
        <ele>352.4</ele>
        <time>2020-07-29T13:48:18Z</time>
      </trkpt>
      <trkpt lat="43.2103580" lon="-1.4898530">
        <ele>353.6</ele>
        <time>2020-07-29T13:48:24Z</time>
      </trkpt>
      <trkpt lat="43.2103920" lon="-1.4898630">
        <ele>353.8</ele>
        <time>2020-07-29T13:48:25Z</time>
      </trkpt>
      <trkpt lat="43.2105220" lon="-1.4898930">
        <ele>354.8</ele>
        <time>2020-07-29T13:48:29Z</time>
      </trkpt>
      <trkpt lat="43.2106610" lon="-1.4899220">
        <ele>356.0</ele>
        <time>2020-07-29T13:48:33Z</time>
      </trkpt>
      <trkpt lat="43.2108750" lon="-1.4899870">
        <ele>357.2</ele>
        <time>2020-07-29T13:48:39Z</time>
      </trkpt>
      <trkpt lat="43.2109120" lon="-1.4899870">
        <ele>357.4</ele>
        <time>2020-07-29T13:48:40Z</time>
      </trkpt>
      <trkpt lat="43.2110150" lon="-1.4899690">
        <ele>358.4</ele>
        <time>2020-07-29T13:48:43Z</time>
      </trkpt>
      <trkpt lat="43.2111090" lon="-1.4899690">
        <ele>359.2</ele>
        <time>2020-07-29T13:48:46Z</time>
      </trkpt>
      <trkpt lat="43.2112110" lon="-1.4899870">
        <ele>359.6</ele>
        <time>2020-07-29T13:48:49Z</time>
      </trkpt>
      <trkpt lat="43.2113570" lon="-1.4900000">
        <ele>360.6</ele>
        <time>2020-07-29T13:48:53Z</time>
      </trkpt>
      <trkpt lat="43.2113990" lon="-1.4900110">
        <ele>361.0</ele>
        <time>2020-07-29T13:48:54Z</time>
      </trkpt>
      <trkpt lat="43.2115150" lon="-1.4900330">
        <ele>361.8</ele>
        <time>2020-07-29T13:48:57Z</time>
      </trkpt>
      <trkpt lat="43.2116740" lon="-1.4900550">
        <ele>362.8</ele>
        <time>2020-07-29T13:49:02Z</time>
      </trkpt>
      <trkpt lat="43.2117000" lon="-1.4900560">
        <ele>362.8</ele>
        <time>2020-07-29T13:49:03Z</time>
      </trkpt>
      <trkpt lat="43.2118740" lon="-1.4900680">
        <ele>364.0</ele>
        <time>2020-07-29T13:49:08Z</time>
      </trkpt>
      <trkpt lat="43.2120270" lon="-1.4900850">
        <ele>364.8</ele>
        <time>2020-07-29T13:49:14Z</time>
      </trkpt>
      <trkpt lat="43.2120540" lon="-1.4900880">
        <ele>365.0</ele>
        <time>2020-07-29T13:49:15Z</time>
      </trkpt>
      <trkpt lat="43.2121290" lon="-1.4901090">
        <ele>365.4</ele>
        <time>2020-07-29T13:49:17Z</time>
      </trkpt>
      <trkpt lat="43.2122110" lon="-1.4901200">
        <ele>366.2</ele>
        <time>2020-07-29T13:49:19Z</time>
      </trkpt>
      <trkpt lat="43.2122520" lon="-1.4901240">
        <ele>366.4</ele>
        <time>2020-07-29T13:49:20Z</time>
      </trkpt>
      <trkpt lat="43.2124070" lon="-1.4901480">
        <ele>367.4</ele>
        <time>2020-07-29T13:49:24Z</time>
      </trkpt>
      <trkpt lat="43.2124810" lon="-1.4901540">
        <ele>367.8</ele>
        <time>2020-07-29T13:49:26Z</time>
      </trkpt>
      <trkpt lat="43.2125530" lon="-1.4901680">
        <ele>368.0</ele>
        <time>2020-07-29T13:49:28Z</time>
      </trkpt>
      <trkpt lat="43.2126160" lon="-1.4901780">
        <ele>368.4</ele>
        <time>2020-07-29T13:49:30Z</time>
      </trkpt>
      <trkpt lat="43.2127090" lon="-1.4901990">
        <ele>369.6</ele>
        <time>2020-07-29T13:49:33Z</time>
      </trkpt>
      <trkpt lat="43.2127390" lon="-1.4902060">
        <ele>369.8</ele>
        <time>2020-07-29T13:49:34Z</time>
      </trkpt>
      <trkpt lat="43.2128070" lon="-1.4902140">
        <ele>370.2</ele>
        <time>2020-07-29T13:49:36Z</time>
      </trkpt>
      <trkpt lat="43.2128700" lon="-1.4902130">
        <ele>370.6</ele>
        <time>2020-07-29T13:49:38Z</time>
      </trkpt>
      <trkpt lat="43.2129630" lon="-1.4902340">
        <ele>371.4</ele>
        <time>2020-07-29T13:49:41Z</time>
      </trkpt>
      <trkpt lat="43.2130350" lon="-1.4902490">
        <ele>372.0</ele>
        <time>2020-07-29T13:49:43Z</time>
      </trkpt>
      <trkpt lat="43.2131840" lon="-1.4902720">
        <ele>373.0</ele>
        <time>2020-07-29T13:49:47Z</time>
      </trkpt>
      <trkpt lat="43.2132560" lon="-1.4902880">
        <ele>373.2</ele>
        <time>2020-07-29T13:49:49Z</time>
      </trkpt>
      <trkpt lat="43.2133600" lon="-1.4903310">
        <ele>374.2</ele>
        <time>2020-07-29T13:49:52Z</time>
      </trkpt>
      <trkpt lat="43.2135400" lon="-1.4904070">
        <ele>375.0</ele>
        <time>2020-07-29T13:49:57Z</time>
      </trkpt>
      <trkpt lat="43.2136160" lon="-1.4904290">
        <ele>375.4</ele>
        <time>2020-07-29T13:49:59Z</time>
      </trkpt>
      <trkpt lat="43.2138470" lon="-1.4904720">
        <ele>376.2</ele>
        <time>2020-07-29T13:50:05Z</time>
      </trkpt>
      <trkpt lat="43.2138880" lon="-1.4904790">
        <ele>376.6</ele>
        <time>2020-07-29T13:50:06Z</time>
      </trkpt>
      <trkpt lat="43.2140660" lon="-1.4904970">
        <ele>377.6</ele>
        <time>2020-07-29T13:50:11Z</time>
      </trkpt>
      <trkpt lat="43.2141000" lon="-1.4905010">
        <ele>377.8</ele>
        <time>2020-07-29T13:50:12Z</time>
      </trkpt>
      <trkpt lat="43.2141670" lon="-1.4905070">
        <ele>378.6</ele>
        <time>2020-07-29T13:50:14Z</time>
      </trkpt>
      <trkpt lat="43.2142690" lon="-1.4905120">
        <ele>379.6</ele>
        <time>2020-07-29T13:50:17Z</time>
      </trkpt>
      <trkpt lat="43.2143030" lon="-1.4905180">
        <ele>379.8</ele>
        <time>2020-07-29T13:50:18Z</time>
      </trkpt>
      <trkpt lat="43.2143370" lon="-1.4905250">
        <ele>379.8</ele>
        <time>2020-07-29T13:50:19Z</time>
      </trkpt>
      <trkpt lat="43.2145460" lon="-1.4905880">
        <ele>380.8</ele>
        <time>2020-07-29T13:50:25Z</time>
      </trkpt>
      <trkpt lat="43.2146590" lon="-1.4906290">
        <ele>381.4</ele>
        <time>2020-07-29T13:50:28Z</time>
      </trkpt>
      <trkpt lat="43.2147310" lon="-1.4906690">
        <ele>382.0</ele>
        <time>2020-07-29T13:50:30Z</time>
      </trkpt>
      <trkpt lat="43.2148800" lon="-1.4907410">
        <ele>382.6</ele>
        <time>2020-07-29T13:50:34Z</time>
      </trkpt>
      <trkpt lat="43.2149530" lon="-1.4907720">
        <ele>383.2</ele>
        <time>2020-07-29T13:50:36Z</time>
      </trkpt>
      <trkpt lat="43.2151810" lon="-1.4908820">
        <ele>384.2</ele>
        <time>2020-07-29T13:50:42Z</time>
      </trkpt>
      <trkpt lat="43.2153900" lon="-1.4909160">
        <ele>385.2</ele>
        <time>2020-07-29T13:50:47Z</time>
      </trkpt>
      <trkpt lat="43.2154310" lon="-1.4909160">
        <ele>385.6</ele>
        <time>2020-07-29T13:50:48Z</time>
      </trkpt>
      <trkpt lat="43.2155080" lon="-1.4909170">
        <ele>386.2</ele>
        <time>2020-07-29T13:50:50Z</time>
      </trkpt>
      <trkpt lat="43.2157240" lon="-1.4909030">
        <ele>387.6</ele>
        <time>2020-07-29T13:50:56Z</time>
      </trkpt>
      <trkpt lat="43.2157600" lon="-1.4909010">
        <ele>388.0</ele>
        <time>2020-07-29T13:50:57Z</time>
      </trkpt>
      <trkpt lat="43.2158620" lon="-1.4909110">
        <ele>388.8</ele>
        <time>2020-07-29T13:51:00Z</time>
      </trkpt>
      <trkpt lat="43.2160360" lon="-1.4909680">
        <ele>389.6</ele>
        <time>2020-07-29T13:51:05Z</time>
      </trkpt>
      <trkpt lat="43.2160720" lon="-1.4909850">
        <ele>389.8</ele>
        <time>2020-07-29T13:51:06Z</time>
      </trkpt>
      <trkpt lat="43.2162780" lon="-1.4911110">
        <ele>390.8</ele>
        <time>2020-07-29T13:51:12Z</time>
      </trkpt>
      <trkpt lat="43.2163130" lon="-1.4911420">
        <ele>391.0</ele>
        <time>2020-07-29T13:51:13Z</time>
      </trkpt>
      <trkpt lat="43.2165280" lon="-1.4913060">
        <ele>391.2</ele>
        <time>2020-07-29T13:51:19Z</time>
      </trkpt>
      <trkpt lat="43.2165630" lon="-1.4913350">
        <ele>391.2</ele>
        <time>2020-07-29T13:51:20Z</time>
      </trkpt>
      <trkpt lat="43.2166740" lon="-1.4914250">
        <ele>391.4</ele>
        <time>2020-07-29T13:51:23Z</time>
      </trkpt>
      <trkpt lat="43.2167530" lon="-1.4914930">
        <ele>391.6</ele>
        <time>2020-07-29T13:51:25Z</time>
      </trkpt>
      <trkpt lat="43.2170180" lon="-1.4917300">
        <ele>391.2</ele>
        <time>2020-07-29T13:51:31Z</time>
      </trkpt>
      <trkpt lat="43.2170680" lon="-1.4917750">
        <ele>390.8</ele>
        <time>2020-07-29T13:51:32Z</time>
      </trkpt>
      <trkpt lat="43.2173750" lon="-1.4920810">
        <ele>390.0</ele>
        <time>2020-07-29T13:51:38Z</time>
      </trkpt>
      <trkpt lat="43.2174270" lon="-1.4921290">
        <ele>390.0</ele>
        <time>2020-07-29T13:51:39Z</time>
      </trkpt>
      <trkpt lat="43.2177310" lon="-1.4923560">
        <ele>391.0</ele>
        <time>2020-07-29T13:51:45Z</time>
      </trkpt>
      <trkpt lat="43.2177810" lon="-1.4923820">
        <ele>391.0</ele>
        <time>2020-07-29T13:51:46Z</time>
      </trkpt>
      <trkpt lat="43.2179300" lon="-1.4924280">
        <ele>392.2</ele>
        <time>2020-07-29T13:51:49Z</time>
      </trkpt>
      <trkpt lat="43.2179770" lon="-1.4924370">
        <ele>392.4</ele>
        <time>2020-07-29T13:51:50Z</time>
      </trkpt>
      <trkpt lat="43.2180220" lon="-1.4924330">
        <ele>392.6</ele>
        <time>2020-07-29T13:51:51Z</time>
      </trkpt>
      <trkpt lat="43.2181480" lon="-1.4924060">
        <ele>393.4</ele>
        <time>2020-07-29T13:51:54Z</time>
      </trkpt>
      <trkpt lat="43.2182990" lon="-1.4923320">
        <ele>394.4</ele>
        <time>2020-07-29T13:51:58Z</time>
      </trkpt>
      <trkpt lat="43.2183300" lon="-1.4923020">
        <ele>394.6</ele>
        <time>2020-07-29T13:51:59Z</time>
      </trkpt>
      <trkpt lat="43.2184160" lon="-1.4922110">
        <ele>395.6</ele>
        <time>2020-07-29T13:52:02Z</time>
      </trkpt>
      <trkpt lat="43.2185000" lon="-1.4920750">
        <ele>396.4</ele>
        <time>2020-07-29T13:52:06Z</time>
      </trkpt>
      <trkpt lat="43.2185410" lon="-1.4920050">
        <ele>396.8</ele>
        <time>2020-07-29T13:52:08Z</time>
      </trkpt>
      <trkpt lat="43.2186320" lon="-1.4918410">
        <ele>397.8</ele>
        <time>2020-07-29T13:52:13Z</time>
      </trkpt>
      <trkpt lat="43.2186610" lon="-1.4917810">
        <ele>398.4</ele>
        <time>2020-07-29T13:52:15Z</time>
      </trkpt>
      <trkpt lat="43.2186950" lon="-1.4917130">
        <ele>399.0</ele>
        <time>2020-07-29T13:52:17Z</time>
      </trkpt>
      <trkpt lat="43.2187330" lon="-1.4916470">
        <ele>399.2</ele>
        <time>2020-07-29T13:52:19Z</time>
      </trkpt>
      <trkpt lat="43.2187910" lon="-1.4915540">
        <ele>400.0</ele>
        <time>2020-07-29T13:52:22Z</time>
      </trkpt>
      <trkpt lat="43.2188110" lon="-1.4915250">
        <ele>400.6</ele>
        <time>2020-07-29T13:52:23Z</time>
      </trkpt>
      <trkpt lat="43.2188510" lon="-1.4914670">
        <ele>401.2</ele>
        <time>2020-07-29T13:52:25Z</time>
      </trkpt>
      <trkpt lat="43.2189750" lon="-1.4912900">
        <ele>402.2</ele>
        <time>2020-07-29T13:52:31Z</time>
      </trkpt>
      <trkpt lat="43.2189970" lon="-1.4912620">
        <ele>402.2</ele>
        <time>2020-07-29T13:52:32Z</time>
      </trkpt>
      <trkpt lat="43.2191280" lon="-1.4911250">
        <ele>403.6</ele>
        <time>2020-07-29T13:52:38Z</time>
      </trkpt>
      <trkpt lat="43.2191700" lon="-1.4910870">
        <ele>404.2</ele>
        <time>2020-07-29T13:52:40Z</time>
      </trkpt>
      <trkpt lat="43.2191910" lon="-1.4910700">
        <ele>404.6</ele>
        <time>2020-07-29T13:52:41Z</time>
      </trkpt>
      <trkpt lat="43.2193050" lon="-1.4909950">
        <ele>405.6</ele>
        <time>2020-07-29T13:52:46Z</time>
      </trkpt>
      <trkpt lat="43.2194480" lon="-1.4909500">
        <ele>406.6</ele>
        <time>2020-07-29T13:52:51Z</time>
      </trkpt>
      <trkpt lat="43.2195060" lon="-1.4909350">
        <ele>407.0</ele>
        <time>2020-07-29T13:52:53Z</time>
      </trkpt>
      <trkpt lat="43.2196260" lon="-1.4908920">
        <ele>407.8</ele>
        <time>2020-07-29T13:52:57Z</time>
      </trkpt>
      <trkpt lat="43.2197270" lon="-1.4908650">
        <ele>408.4</ele>
        <time>2020-07-29T13:53:00Z</time>
      </trkpt>
      <trkpt lat="43.2197970" lon="-1.4908600">
        <ele>408.8</ele>
        <time>2020-07-29T13:53:02Z</time>
      </trkpt>
      <trkpt lat="43.2199490" lon="-1.4908130">
        <ele>409.6</ele>
        <time>2020-07-29T13:53:07Z</time>
      </trkpt>
      <trkpt lat="43.2201010" lon="-1.4907020">
        <ele>409.8</ele>
        <time>2020-07-29T13:53:12Z</time>
      </trkpt>
      <trkpt lat="43.2201580" lon="-1.4906540">
        <ele>410.2</ele>
        <time>2020-07-29T13:53:14Z</time>
      </trkpt>
      <trkpt lat="43.2202230" lon="-1.4906080">
        <ele>411.0</ele>
        <time>2020-07-29T13:53:16Z</time>
      </trkpt>
      <trkpt lat="43.2203430" lon="-1.4905150">
        <ele>412.0</ele>
        <time>2020-07-29T13:53:20Z</time>
      </trkpt>
      <trkpt lat="43.2203980" lon="-1.4904580">
        <ele>412.6</ele>
        <time>2020-07-29T13:53:22Z</time>
      </trkpt>
      <trkpt lat="43.2204660" lon="-1.4903600">
        <ele>413.0</ele>
        <time>2020-07-29T13:53:25Z</time>
      </trkpt>
      <trkpt lat="43.2205700" lon="-1.4901910">
        <ele>414.2</ele>
        <time>2020-07-29T13:53:30Z</time>
      </trkpt>
      <trkpt lat="43.2205890" lon="-1.4901630">
        <ele>414.4</ele>
        <time>2020-07-29T13:53:31Z</time>
      </trkpt>
      <trkpt lat="43.2206680" lon="-1.4900340">
        <ele>415.2</ele>
        <time>2020-07-29T13:53:35Z</time>
      </trkpt>
      <trkpt lat="43.2207010" lon="-1.4899590">
        <ele>415.4</ele>
        <time>2020-07-29T13:53:37Z</time>
      </trkpt>
      <trkpt lat="43.2207650" lon="-1.4897640">
        <ele>416.6</ele>
        <time>2020-07-29T13:53:42Z</time>
      </trkpt>
      <trkpt lat="43.2208070" lon="-1.4896020">
        <ele>417.4</ele>
        <time>2020-07-29T13:53:46Z</time>
      </trkpt>
      <trkpt lat="43.2208720" lon="-1.4893650">
        <ele>417.6</ele>
        <time>2020-07-29T13:53:52Z</time>
      </trkpt>
      <trkpt lat="43.2208860" lon="-1.4892960">
        <ele>417.8</ele>
        <time>2020-07-29T13:53:54Z</time>
      </trkpt>
      <trkpt lat="43.2209150" lon="-1.4891580">
        <ele>418.4</ele>
        <time>2020-07-29T13:54:00Z</time>
      </trkpt>
      <trkpt lat="43.2209270" lon="-1.4891100">
        <ele>418.6</ele>
        <time>2020-07-29T13:54:02Z</time>
      </trkpt>
      <trkpt lat="43.2209650" lon="-1.4890120">
        <ele>419.8</ele>
        <time>2020-07-29T13:54:05Z</time>
      </trkpt>
      <trkpt lat="43.2209820" lon="-1.4889760">
        <ele>420.0</ele>
        <time>2020-07-29T13:54:06Z</time>
      </trkpt>
      <trkpt lat="43.2210320" lon="-1.4888680">
        <ele>420.8</ele>
        <time>2020-07-29T13:54:09Z</time>
      </trkpt>
      <trkpt lat="43.2211210" lon="-1.4887090">
        <ele>421.8</ele>
        <time>2020-07-29T13:54:14Z</time>
      </trkpt>
      <trkpt lat="43.2211420" lon="-1.4886840">
        <ele>422.0</ele>
        <time>2020-07-29T13:54:15Z</time>
      </trkpt>
      <trkpt lat="43.2212790" lon="-1.4885480">
        <ele>423.2</ele>
        <time>2020-07-29T13:54:21Z</time>
      </trkpt>
      <trkpt lat="43.2213050" lon="-1.4885290">
        <ele>423.4</ele>
        <time>2020-07-29T13:54:22Z</time>
      </trkpt>
      <trkpt lat="43.2214050" lon="-1.4884650">
        <ele>424.4</ele>
        <time>2020-07-29T13:54:26Z</time>
      </trkpt>
      <trkpt lat="43.2214600" lon="-1.4884460">
        <ele>425.0</ele>
        <time>2020-07-29T13:54:28Z</time>
      </trkpt>
      <trkpt lat="43.2215500" lon="-1.4884260">
        <ele>425.6</ele>
        <time>2020-07-29T13:54:31Z</time>
      </trkpt>
      <trkpt lat="43.2216890" lon="-1.4884420">
        <ele>426.6</ele>
        <time>2020-07-29T13:54:35Z</time>
      </trkpt>
      <trkpt lat="43.2217220" lon="-1.4884510">
        <ele>426.8</ele>
        <time>2020-07-29T13:54:36Z</time>
      </trkpt>
      <trkpt lat="43.2219000" lon="-1.4885600">
        <ele>427.8</ele>
        <time>2020-07-29T13:54:41Z</time>
      </trkpt>
      <trkpt lat="43.2219340" lon="-1.4885840">
        <ele>428.0</ele>
        <time>2020-07-29T13:54:42Z</time>
      </trkpt>
      <trkpt lat="43.2221350" lon="-1.4887570">
        <ele>428.8</ele>
        <time>2020-07-29T13:54:48Z</time>
      </trkpt>
      <trkpt lat="43.2221640" lon="-1.4887880">
        <ele>429.2</ele>
        <time>2020-07-29T13:54:49Z</time>
      </trkpt>
      <trkpt lat="43.2222170" lon="-1.4888500">
        <ele>430.2</ele>
        <time>2020-07-29T13:54:51Z</time>
      </trkpt>
      <trkpt lat="43.2222810" lon="-1.4889460">
        <ele>431.4</ele>
        <time>2020-07-29T13:54:54Z</time>
      </trkpt>
      <trkpt lat="43.2223090" lon="-1.4890090">
        <ele>431.8</ele>
        <time>2020-07-29T13:54:56Z</time>
      </trkpt>
      <trkpt lat="43.2223610" lon="-1.4891080">
        <ele>432.4</ele>
        <time>2020-07-29T13:54:59Z</time>
      </trkpt>
      <trkpt lat="43.2223970" lon="-1.4892140">
        <ele>433.4</ele>
        <time>2020-07-29T13:55:02Z</time>
      </trkpt>
      <trkpt lat="43.2224310" lon="-1.4894100">
        <ele>434.4</ele>
        <time>2020-07-29T13:55:08Z</time>
      </trkpt>
      <trkpt lat="43.2224310" lon="-1.4894480">
        <ele>434.6</ele>
        <time>2020-07-29T13:55:09Z</time>
      </trkpt>
      <trkpt lat="43.2224580" lon="-1.4896710">
        <ele>435.6</ele>
        <time>2020-07-29T13:55:15Z</time>
      </trkpt>
      <trkpt lat="43.2224650" lon="-1.4897130">
        <ele>435.8</ele>
        <time>2020-07-29T13:55:16Z</time>
      </trkpt>
      <trkpt lat="43.2224680" lon="-1.4897550">
        <ele>436.0</ele>
        <time>2020-07-29T13:55:17Z</time>
      </trkpt>
      <trkpt lat="43.2225000" lon="-1.4899900">
        <ele>437.0</ele>
        <time>2020-07-29T13:55:23Z</time>
      </trkpt>
      <trkpt lat="43.2225080" lon="-1.4900360">
        <ele>437.2</ele>
        <time>2020-07-29T13:55:24Z</time>
      </trkpt>
      <trkpt lat="43.2225250" lon="-1.4901750">
        <ele>438.2</ele>
        <time>2020-07-29T13:55:27Z</time>
      </trkpt>
      <trkpt lat="43.2225760" lon="-1.4903980">
        <ele>439.2</ele>
        <time>2020-07-29T13:55:32Z</time>
      </trkpt>
      <trkpt lat="43.2225890" lon="-1.4904350">
        <ele>439.4</ele>
        <time>2020-07-29T13:55:33Z</time>
      </trkpt>
      <trkpt lat="43.2226720" lon="-1.4905640">
        <ele>440.4</ele>
        <time>2020-07-29T13:55:37Z</time>
      </trkpt>
      <trkpt lat="43.2226930" lon="-1.4906040">
        <ele>440.8</ele>
        <time>2020-07-29T13:55:38Z</time>
      </trkpt>
      <trkpt lat="43.2227630" lon="-1.4906990">
        <ele>441.8</ele>
        <time>2020-07-29T13:55:41Z</time>
      </trkpt>
      <trkpt lat="43.2228400" lon="-1.4907710">
        <ele>443.0</ele>
        <time>2020-07-29T13:55:44Z</time>
      </trkpt>
      <trkpt lat="43.2229050" lon="-1.4907900">
        <ele>443.4</ele>
        <time>2020-07-29T13:55:46Z</time>
      </trkpt>
      <trkpt lat="43.2229990" lon="-1.4908260">
        <ele>444.0</ele>
        <time>2020-07-29T13:55:49Z</time>
      </trkpt>
      <trkpt lat="43.2230280" lon="-1.4908330">
        <ele>444.2</ele>
        <time>2020-07-29T13:55:50Z</time>
      </trkpt>
      <trkpt lat="43.2232150" lon="-1.4908690">
        <ele>445.0</ele>
        <time>2020-07-29T13:55:56Z</time>
      </trkpt>
      <trkpt lat="43.2232760" lon="-1.4908890">
        <ele>445.4</ele>
        <time>2020-07-29T13:55:58Z</time>
      </trkpt>
      <trkpt lat="43.2233660" lon="-1.4909170">
        <ele>446.8</ele>
        <time>2020-07-29T13:56:01Z</time>
      </trkpt>
      <trkpt lat="43.2234840" lon="-1.4909440">
        <ele>447.8</ele>
        <time>2020-07-29T13:56:05Z</time>
      </trkpt>
      <trkpt lat="43.2236620" lon="-1.4909480">
        <ele>448.6</ele>
        <time>2020-07-29T13:56:11Z</time>
      </trkpt>
      <trkpt lat="43.2236920" lon="-1.4909510">
        <ele>449.0</ele>
        <time>2020-07-29T13:56:12Z</time>
      </trkpt>
      <trkpt lat="43.2237500" lon="-1.4909560">
        <ele>449.8</ele>
        <time>2020-07-29T13:56:14Z</time>
      </trkpt>
      <trkpt lat="43.2238100" lon="-1.4909540">
        <ele>450.4</ele>
        <time>2020-07-29T13:56:16Z</time>
      </trkpt>
      <trkpt lat="43.2239710" lon="-1.4909710">
        <ele>451.4</ele>
        <time>2020-07-29T13:56:21Z</time>
      </trkpt>
      <trkpt lat="43.2241710" lon="-1.4909820">
        <ele>452.0</ele>
        <time>2020-07-29T13:56:27Z</time>
      </trkpt>
      <trkpt lat="43.2242390" lon="-1.4909940">
        <ele>452.6</ele>
        <time>2020-07-29T13:56:29Z</time>
      </trkpt>
      <trkpt lat="43.2243710" lon="-1.4910200">
        <ele>453.6</ele>
        <time>2020-07-29T13:56:33Z</time>
      </trkpt>
      <trkpt lat="43.2244650" lon="-1.4910450">
        <ele>454.4</ele>
        <time>2020-07-29T13:56:36Z</time>
      </trkpt>
      <trkpt lat="43.2244940" lon="-1.4910530">
        <ele>454.8</ele>
        <time>2020-07-29T13:56:37Z</time>
      </trkpt>
      <trkpt lat="43.2246570" lon="-1.4910790">
        <ele>456.0</ele>
        <time>2020-07-29T13:56:43Z</time>
      </trkpt>
      <trkpt lat="43.2248070" lon="-1.4911160">
        <ele>457.2</ele>
        <time>2020-07-29T13:56:48Z</time>
      </trkpt>
      <trkpt lat="43.2248950" lon="-1.4911590">
        <ele>458.0</ele>
        <time>2020-07-29T13:56:51Z</time>
      </trkpt>
      <trkpt lat="43.2249250" lon="-1.4911730">
        <ele>458.4</ele>
        <time>2020-07-29T13:56:52Z</time>
      </trkpt>
      <trkpt lat="43.2250720" lon="-1.4912630">
        <ele>459.6</ele>
        <time>2020-07-29T13:56:57Z</time>
      </trkpt>
      <trkpt lat="43.2251560" lon="-1.4913320">
        <ele>460.2</ele>
        <time>2020-07-29T13:57:00Z</time>
      </trkpt>
      <trkpt lat="43.2251810" lon="-1.4913570">
        <ele>460.6</ele>
        <time>2020-07-29T13:57:01Z</time>
      </trkpt>
      <trkpt lat="43.2252770" lon="-1.4914700">
        <ele>461.6</ele>
        <time>2020-07-29T13:57:05Z</time>
      </trkpt>
      <trkpt lat="43.2253450" lon="-1.4915590">
        <ele>462.2</ele>
        <time>2020-07-29T13:57:08Z</time>
      </trkpt>
      <trkpt lat="43.2253950" lon="-1.4916570">
        <ele>462.8</ele>
        <time>2020-07-29T13:57:11Z</time>
      </trkpt>
      <trkpt lat="43.2254640" lon="-1.4917980">
        <ele>463.8</ele>
        <time>2020-07-29T13:57:15Z</time>
      </trkpt>
      <trkpt lat="43.2255280" lon="-1.4919600">
        <ele>465.0</ele>
        <time>2020-07-29T13:57:20Z</time>
      </trkpt>
      <trkpt lat="43.2255400" lon="-1.4919960">
        <ele>465.4</ele>
        <time>2020-07-29T13:57:21Z</time>
      </trkpt>
      <trkpt lat="43.2255840" lon="-1.4921020">
        <ele>466.2</ele>
        <time>2020-07-29T13:57:24Z</time>
      </trkpt>
      <trkpt lat="43.2256350" lon="-1.4922460">
        <ele>467.2</ele>
        <time>2020-07-29T13:57:28Z</time>
      </trkpt>
      <trkpt lat="43.2256470" lon="-1.4922820">
        <ele>467.4</ele>
        <time>2020-07-29T13:57:29Z</time>
      </trkpt>
      <trkpt lat="43.2256910" lon="-1.4924310">
        <ele>468.4</ele>
        <time>2020-07-29T13:57:33Z</time>
      </trkpt>
      <trkpt lat="43.2257660" lon="-1.4926240">
        <ele>469.6</ele>
        <time>2020-07-29T13:57:38Z</time>
      </trkpt>
      <trkpt lat="43.2258340" lon="-1.4928510">
        <ele>470.8</ele>
        <time>2020-07-29T13:57:44Z</time>
      </trkpt>
      <trkpt lat="43.2258530" lon="-1.4929300">
        <ele>471.4</ele>
        <time>2020-07-29T13:57:46Z</time>
      </trkpt>
      <trkpt lat="43.2258730" lon="-1.4930450">
        <ele>472.0</ele>
        <time>2020-07-29T13:57:49Z</time>
      </trkpt>
      <trkpt lat="43.2258720" lon="-1.4931530">
        <ele>472.8</ele>
        <time>2020-07-29T13:57:52Z</time>
      </trkpt>
      <trkpt lat="43.2258730" lon="-1.4931910">
        <ele>473.2</ele>
        <time>2020-07-29T13:57:53Z</time>
      </trkpt>
      <trkpt lat="43.2258530" lon="-1.4934420">
        <ele>474.0</ele>
        <time>2020-07-29T13:57:59Z</time>
      </trkpt>
      <trkpt lat="43.2258490" lon="-1.4934830">
        <ele>474.2</ele>
        <time>2020-07-29T13:58:00Z</time>
      </trkpt>
      <trkpt lat="43.2258440" lon="-1.4935220">
        <ele>474.2</ele>
        <time>2020-07-29T13:58:01Z</time>
      </trkpt>
      <trkpt lat="43.2258280" lon="-1.4936390">
        <ele>474.2</ele>
        <time>2020-07-29T13:58:04Z</time>
      </trkpt>
      <trkpt lat="43.2258110" lon="-1.4938220">
        <ele>474.2</ele>
        <time>2020-07-29T13:58:08Z</time>
      </trkpt>
      <trkpt lat="43.2257680" lon="-1.4941310">
        <ele>474.2</ele>
        <time>2020-07-29T13:58:14Z</time>
      </trkpt>
      <trkpt lat="43.2257350" lon="-1.4942980">
        <ele>474.2</ele>
        <time>2020-07-29T13:58:17Z</time>
      </trkpt>
      <trkpt lat="43.2256830" lon="-1.4946340">
        <ele>475.2</ele>
        <time>2020-07-29T13:58:23Z</time>
      </trkpt>
      <trkpt lat="43.2256750" lon="-1.4946920">
        <ele>475.4</ele>
        <time>2020-07-29T13:58:24Z</time>
      </trkpt>
      <trkpt lat="43.2256330" lon="-1.4950940">
        <ele>475.4</ele>
        <time>2020-07-29T13:58:30Z</time>
      </trkpt>
      <trkpt lat="43.2256240" lon="-1.4951600">
        <ele>475.6</ele>
        <time>2020-07-29T13:58:31Z</time>
      </trkpt>
      <trkpt lat="43.2256160" lon="-1.4952280">
        <ele>475.6</ele>
        <time>2020-07-29T13:58:32Z</time>
      </trkpt>
      <trkpt lat="43.2255810" lon="-1.4954890">
        <ele>476.4</ele>
        <time>2020-07-29T13:58:36Z</time>
      </trkpt>
      <trkpt lat="43.2255630" lon="-1.4956180">
        <ele>476.8</ele>
        <time>2020-07-29T13:58:38Z</time>
      </trkpt>
      <trkpt lat="43.2255070" lon="-1.4959250">
        <ele>477.4</ele>
        <time>2020-07-29T13:58:43Z</time>
      </trkpt>
      <trkpt lat="43.2254890" lon="-1.4959890">
        <ele>477.4</ele>
        <time>2020-07-29T13:58:44Z</time>
      </trkpt>
      <trkpt lat="43.2253940" lon="-1.4963980">
        <ele>478.2</ele>
        <time>2020-07-29T13:58:50Z</time>
      </trkpt>
      <trkpt lat="43.2253820" lon="-1.4964580">
        <ele>478.4</ele>
        <time>2020-07-29T13:58:51Z</time>
      </trkpt>
      <trkpt lat="43.2253640" lon="-1.4965220">
        <ele>478.6</ele>
        <time>2020-07-29T13:58:52Z</time>
      </trkpt>
      <trkpt lat="43.2253260" lon="-1.4966530">
        <ele>478.8</ele>
        <time>2020-07-29T13:58:54Z</time>
      </trkpt>
      <trkpt lat="43.2252990" lon="-1.4967900">
        <ele>479.4</ele>
        <time>2020-07-29T13:58:56Z</time>
      </trkpt>
      <trkpt lat="43.2252830" lon="-1.4968580">
        <ele>479.6</ele>
        <time>2020-07-29T13:58:57Z</time>
      </trkpt>
      <trkpt lat="43.2252210" lon="-1.4971280">
        <ele>479.8</ele>
        <time>2020-07-29T13:59:01Z</time>
      </trkpt>
      <trkpt lat="43.2252110" lon="-1.4972700">
        <ele>479.8</ele>
        <time>2020-07-29T13:59:03Z</time>
      </trkpt>
      <trkpt lat="43.2252250" lon="-1.4974120">
        <ele>480.2</ele>
        <time>2020-07-29T13:59:05Z</time>
      </trkpt>
      <trkpt lat="43.2252510" lon="-1.4975470">
        <ele>480.6</ele>
        <time>2020-07-29T13:59:07Z</time>
      </trkpt>
      <trkpt lat="43.2252750" lon="-1.4976090">
        <ele>480.8</ele>
        <time>2020-07-29T13:59:08Z</time>
      </trkpt>
      <trkpt lat="43.2253020" lon="-1.4976680">
        <ele>481.2</ele>
        <time>2020-07-29T13:59:09Z</time>
      </trkpt>
      <trkpt lat="43.2253550" lon="-1.4977640">
        <ele>481.8</ele>
        <time>2020-07-29T13:59:11Z</time>
      </trkpt>
      <trkpt lat="43.2254120" lon="-1.4978430">
        <ele>482.2</ele>
        <time>2020-07-29T13:59:13Z</time>
      </trkpt>
      <trkpt lat="43.2254670" lon="-1.4979110">
        <ele>483.0</ele>
        <time>2020-07-29T13:59:15Z</time>
      </trkpt>
      <trkpt lat="43.2255740" lon="-1.4980300">
        <ele>484.0</ele>
        <time>2020-07-29T13:59:19Z</time>
      </trkpt>
      <trkpt lat="43.2256000" lon="-1.4980530">
        <ele>484.4</ele>
        <time>2020-07-29T13:59:20Z</time>
      </trkpt>
      <trkpt lat="43.2256860" lon="-1.4981310">
        <ele>485.4</ele>
        <time>2020-07-29T13:59:23Z</time>
      </trkpt>
      <trkpt lat="43.2257400" lon="-1.4981800">
        <ele>485.8</ele>
        <time>2020-07-29T13:59:25Z</time>
      </trkpt>
      <trkpt lat="43.2258200" lon="-1.4982410">
        <ele>486.2</ele>
        <time>2020-07-29T13:59:28Z</time>
      </trkpt>
      <trkpt lat="43.2258480" lon="-1.4982610">
        <ele>486.6</ele>
        <time>2020-07-29T13:59:29Z</time>
      </trkpt>
      <trkpt lat="43.2259570" lon="-1.4983440">
        <ele>487.6</ele>
        <time>2020-07-29T13:59:33Z</time>
      </trkpt>
      <trkpt lat="43.2260410" lon="-1.4983970">
        <ele>488.2</ele>
        <time>2020-07-29T13:59:36Z</time>
      </trkpt>
      <trkpt lat="43.2260930" lon="-1.4984320">
        <ele>488.8</ele>
        <time>2020-07-29T13:59:38Z</time>
      </trkpt>
      <trkpt lat="43.2262130" lon="-1.4985420">
        <ele>490.0</ele>
        <time>2020-07-29T13:59:43Z</time>
      </trkpt>
      <trkpt lat="43.2263810" lon="-1.4986520">
        <ele>490.6</ele>
        <time>2020-07-29T13:59:49Z</time>
      </trkpt>
      <trkpt lat="43.2264350" lon="-1.4986830">
        <ele>490.8</ele>
        <time>2020-07-29T13:59:51Z</time>
      </trkpt>
      <trkpt lat="43.2264610" lon="-1.4986960">
        <ele>491.0</ele>
        <time>2020-07-29T13:59:52Z</time>
      </trkpt>
      <trkpt lat="43.2265410" lon="-1.4987320">
        <ele>492.2</ele>
        <time>2020-07-29T13:59:55Z</time>
      </trkpt>
      <trkpt lat="43.2266470" lon="-1.4988100">
        <ele>493.0</ele>
        <time>2020-07-29T13:59:59Z</time>
      </trkpt>
      <trkpt lat="43.2267040" lon="-1.4988320">
        <ele>493.6</ele>
        <time>2020-07-29T14:00:01Z</time>
      </trkpt>
      <trkpt lat="43.2267850" lon="-1.4988460">
        <ele>494.8</ele>
        <time>2020-07-29T14:00:04Z</time>
      </trkpt>
      <trkpt lat="43.2268530" lon="-1.4988500">
        <ele>495.2</ele>
        <time>2020-07-29T14:00:07Z</time>
      </trkpt>
      <trkpt lat="43.2269560" lon="-1.4988440">
        <ele>496.0</ele>
        <time>2020-07-29T14:00:11Z</time>
      </trkpt>
      <trkpt lat="43.2270430" lon="-1.4988490">
        <ele>496.6</ele>
        <time>2020-07-29T14:00:14Z</time>
      </trkpt>
      <trkpt lat="43.2271670" lon="-1.4988510">
        <ele>497.0</ele>
        <time>2020-07-29T14:00:18Z</time>
      </trkpt>
      <trkpt lat="43.2273100" lon="-1.4988450">
        <ele>498.0</ele>
        <time>2020-07-29T14:00:23Z</time>
      </trkpt>
      <trkpt lat="43.2274650" lon="-1.4988430">
        <ele>498.8</ele>
        <time>2020-07-29T14:00:29Z</time>
      </trkpt>
      <trkpt lat="43.2274950" lon="-1.4988450">
        <ele>499.0</ele>
        <time>2020-07-29T14:00:30Z</time>
      </trkpt>
      <trkpt lat="43.2275280" lon="-1.4988490">
        <ele>499.0</ele>
        <time>2020-07-29T14:00:31Z</time>
      </trkpt>
      <trkpt lat="43.2275590" lon="-1.4988530">
        <ele>499.0</ele>
        <time>2020-07-29T14:00:32Z</time>
      </trkpt>
      <trkpt lat="43.2277020" lon="-1.4988530">
        <ele>499.8</ele>
        <time>2020-07-29T14:00:37Z</time>
      </trkpt>
      <trkpt lat="43.2277240" lon="-1.4988500">
        <ele>500.2</ele>
        <time>2020-07-29T14:00:38Z</time>
      </trkpt>
      <trkpt lat="43.2277730" lon="-1.4988540">
        <ele>500.6</ele>
        <time>2020-07-29T14:00:40Z</time>
      </trkpt>
      <trkpt lat="43.2278690" lon="-1.4988770">
        <ele>501.2</ele>
        <time>2020-07-29T14:00:43Z</time>
      </trkpt>
      <trkpt lat="43.2280510" lon="-1.4988870">
        <ele>502.0</ele>
        <time>2020-07-29T14:00:49Z</time>
      </trkpt>
      <trkpt lat="43.2280780" lon="-1.4988840">
        <ele>502.2</ele>
        <time>2020-07-29T14:00:50Z</time>
      </trkpt>
      <trkpt lat="43.2281680" lon="-1.4988780">
        <ele>502.2</ele>
        <time>2020-07-29T14:00:53Z</time>
      </trkpt>
      <trkpt lat="43.2283200" lon="-1.4988870">
        <ele>503.4</ele>
        <time>2020-07-29T14:00:58Z</time>
      </trkpt>
      <trkpt lat="43.2283520" lon="-1.4988830">
        <ele>503.8</ele>
        <time>2020-07-29T14:00:59Z</time>
      </trkpt>
      <trkpt lat="43.2284410" lon="-1.4988750">
        <ele>504.6</ele>
        <time>2020-07-29T14:01:02Z</time>
      </trkpt>
      <trkpt lat="43.2285900" lon="-1.4988230">
        <ele>505.4</ele>
        <time>2020-07-29T14:01:07Z</time>
      </trkpt>
      <trkpt lat="43.2286200" lon="-1.4988060">
        <ele>505.8</ele>
        <time>2020-07-29T14:01:08Z</time>
      </trkpt>
      <trkpt lat="43.2287360" lon="-1.4987170">
        <ele>506.8</ele>
        <time>2020-07-29T14:01:12Z</time>
      </trkpt>
      <trkpt lat="43.2288120" lon="-1.4986280">
        <ele>507.8</ele>
        <time>2020-07-29T14:01:15Z</time>
      </trkpt>
      <trkpt lat="43.2288570" lon="-1.4985610">
        <ele>508.0</ele>
        <time>2020-07-29T14:01:17Z</time>
      </trkpt>
      <trkpt lat="43.2289780" lon="-1.4983560">
        <ele>509.0</ele>
        <time>2020-07-29T14:01:23Z</time>
      </trkpt>
      <trkpt lat="43.2290630" lon="-1.4981820">
        <ele>510.4</ele>
        <time>2020-07-29T14:01:28Z</time>
      </trkpt>
      <trkpt lat="43.2291020" lon="-1.4980660">
        <ele>511.2</ele>
        <time>2020-07-29T14:01:31Z</time>
      </trkpt>
      <trkpt lat="43.2291270" lon="-1.4979900">
        <ele>511.6</ele>
        <time>2020-07-29T14:01:33Z</time>
      </trkpt>
      <trkpt lat="43.2292050" lon="-1.4977750">
        <ele>512.6</ele>
        <time>2020-07-29T14:01:39Z</time>
      </trkpt>
      <trkpt lat="43.2292190" lon="-1.4977390">
        <ele>512.8</ele>
        <time>2020-07-29T14:01:40Z</time>
      </trkpt>
      <trkpt lat="43.2292690" lon="-1.4975970">
        <ele>513.6</ele>
        <time>2020-07-29T14:01:44Z</time>
      </trkpt>
      <trkpt lat="43.2293230" lon="-1.4974560">
        <ele>514.6</ele>
        <time>2020-07-29T14:01:48Z</time>
      </trkpt>
      <trkpt lat="43.2293380" lon="-1.4974230">
        <ele>514.8</ele>
        <time>2020-07-29T14:01:49Z</time>
      </trkpt>
      <trkpt lat="43.2294400" lon="-1.4972470">
        <ele>515.6</ele>
        <time>2020-07-29T14:01:55Z</time>
      </trkpt>
      <trkpt lat="43.2294600" lon="-1.4972220">
        <ele>515.8</ele>
        <time>2020-07-29T14:01:56Z</time>
      </trkpt>
      <trkpt lat="43.2295450" lon="-1.4971360">
        <ele>516.8</ele>
        <time>2020-07-29T14:02:00Z</time>
      </trkpt>
      <trkpt lat="43.2296380" lon="-1.4970730">
        <ele>517.6</ele>
        <time>2020-07-29T14:02:04Z</time>
      </trkpt>
      <trkpt lat="43.2296830" lon="-1.4970490">
        <ele>518.0</ele>
        <time>2020-07-29T14:02:06Z</time>
      </trkpt>
      <trkpt lat="43.2298220" lon="-1.4970020">
        <ele>518.8</ele>
        <time>2020-07-29T14:02:11Z</time>
      </trkpt>
      <trkpt lat="43.2298510" lon="-1.4969930">
        <ele>519.0</ele>
        <time>2020-07-29T14:02:12Z</time>
      </trkpt>
      <trkpt lat="43.2300380" lon="-1.4969810">
        <ele>520.0</ele>
        <time>2020-07-29T14:02:18Z</time>
      </trkpt>
      <trkpt lat="43.2300670" lon="-1.4969800">
        <ele>520.2</ele>
        <time>2020-07-29T14:02:19Z</time>
      </trkpt>
      <trkpt lat="43.2301910" lon="-1.4969880">
        <ele>521.4</ele>
        <time>2020-07-29T14:02:23Z</time>
      </trkpt>
      <trkpt lat="43.2302880" lon="-1.4969940">
        <ele>521.8</ele>
        <time>2020-07-29T14:02:26Z</time>
      </trkpt>
      <trkpt lat="43.2303830" lon="-1.4969960">
        <ele>522.4</ele>
        <time>2020-07-29T14:02:29Z</time>
      </trkpt>
      <trkpt lat="43.2305340" lon="-1.4970000">
        <ele>523.2</ele>
        <time>2020-07-29T14:02:34Z</time>
      </trkpt>
      <trkpt lat="43.2305930" lon="-1.4970010">
        <ele>523.6</ele>
        <time>2020-07-29T14:02:36Z</time>
      </trkpt>
      <trkpt lat="43.2307100" lon="-1.4970070">
        <ele>524.8</ele>
        <time>2020-07-29T14:02:40Z</time>
      </trkpt>
      <trkpt lat="43.2307860" lon="-1.4970060">
        <ele>525.4</ele>
        <time>2020-07-29T14:02:43Z</time>
      </trkpt>
      <trkpt lat="43.2308460" lon="-1.4970120">
        <ele>525.8</ele>
        <time>2020-07-29T14:02:45Z</time>
      </trkpt>
      <trkpt lat="43.2309850" lon="-1.4970310">
        <ele>526.8</ele>
        <time>2020-07-29T14:02:50Z</time>
      </trkpt>
      <trkpt lat="43.2310670" lon="-1.4970520">
        <ele>527.0</ele>
        <time>2020-07-29T14:02:53Z</time>
      </trkpt>
      <trkpt lat="43.2311840" lon="-1.4970780">
        <ele>528.2</ele>
        <time>2020-07-29T14:02:57Z</time>
      </trkpt>
      <trkpt lat="43.2312920" lon="-1.4971110">
        <ele>529.2</ele>
        <time>2020-07-29T14:03:01Z</time>
      </trkpt>
      <trkpt lat="43.2313830" lon="-1.4971530">
        <ele>529.8</ele>
        <time>2020-07-29T14:03:04Z</time>
      </trkpt>
      <trkpt lat="43.2314690" lon="-1.4971940">
        <ele>530.2</ele>
        <time>2020-07-29T14:03:07Z</time>
      </trkpt>
      <trkpt lat="43.2316110" lon="-1.4972760">
        <ele>531.0</ele>
        <time>2020-07-29T14:03:12Z</time>
      </trkpt>
      <trkpt lat="43.2316900" lon="-1.4973390">
        <ele>531.4</ele>
        <time>2020-07-29T14:03:15Z</time>
      </trkpt>
      <trkpt lat="43.2317920" lon="-1.4974190">
        <ele>532.4</ele>
        <time>2020-07-29T14:03:19Z</time>
      </trkpt>
      <trkpt lat="43.2318400" lon="-1.4974630">
        <ele>532.8</ele>
        <time>2020-07-29T14:03:21Z</time>
      </trkpt>
      <trkpt lat="43.2318860" lon="-1.4975100">
        <ele>533.4</ele>
        <time>2020-07-29T14:03:23Z</time>
      </trkpt>
      <trkpt lat="43.2319830" lon="-1.4975960">
        <ele>534.4</ele>
        <time>2020-07-29T14:03:27Z</time>
      </trkpt>
      <trkpt lat="43.2320680" lon="-1.4976680">
        <ele>534.6</ele>
        <time>2020-07-29T14:03:30Z</time>
      </trkpt>
      <trkpt lat="43.2321900" lon="-1.4977710">
        <ele>535.6</ele>
        <time>2020-07-29T14:03:34Z</time>
      </trkpt>
      <trkpt lat="43.2322480" lon="-1.4978190">
        <ele>536.0</ele>
        <time>2020-07-29T14:03:36Z</time>
      </trkpt>
      <trkpt lat="43.2323580" lon="-1.4979050">
        <ele>536.8</ele>
        <time>2020-07-29T14:03:40Z</time>
      </trkpt>
      <trkpt lat="43.2324750" lon="-1.4979950">
        <ele>537.6</ele>
        <time>2020-07-29T14:03:44Z</time>
      </trkpt>
      <trkpt lat="43.2325550" lon="-1.4980510">
        <ele>538.0</ele>
        <time>2020-07-29T14:03:47Z</time>
      </trkpt>
      <trkpt lat="43.2327060" lon="-1.4981090">
        <ele>538.8</ele>
        <time>2020-07-29T14:03:52Z</time>
      </trkpt>
      <trkpt lat="43.2327900" lon="-1.4981220">
        <ele>539.2</ele>
        <time>2020-07-29T14:03:55Z</time>
      </trkpt>
      <trkpt lat="43.2329190" lon="-1.4981150">
        <ele>540.0</ele>
        <time>2020-07-29T14:03:59Z</time>
      </trkpt>
      <trkpt lat="43.2329520" lon="-1.4981110">
        <ele>540.4</ele>
        <time>2020-07-29T14:04:00Z</time>
      </trkpt>
      <trkpt lat="43.2331160" lon="-1.4980880">
        <ele>541.4</ele>
        <time>2020-07-29T14:04:05Z</time>
      </trkpt>
      <trkpt lat="43.2331510" lon="-1.4980820">
        <ele>541.6</ele>
        <time>2020-07-29T14:04:06Z</time>
      </trkpt>
      <trkpt lat="43.2333330" lon="-1.4980150">
        <ele>542.6</ele>
        <time>2020-07-29T14:04:12Z</time>
      </trkpt>
      <trkpt lat="43.2334590" lon="-1.4979750">
        <ele>543.6</ele>
        <time>2020-07-29T14:04:16Z</time>
      </trkpt>
      <trkpt lat="43.2335920" lon="-1.4979330">
        <ele>544.8</ele>
        <time>2020-07-29T14:04:20Z</time>
      </trkpt>
      <trkpt lat="43.2336250" lon="-1.4979210">
        <ele>545.0</ele>
        <time>2020-07-29T14:04:21Z</time>
      </trkpt>
      <trkpt lat="43.2337320" lon="-1.4978820">
        <ele>545.8</ele>
        <time>2020-07-29T14:04:24Z</time>
      </trkpt>
      <trkpt lat="43.2338400" lon="-1.4978610">
        <ele>546.4</ele>
        <time>2020-07-29T14:04:27Z</time>
      </trkpt>
      <trkpt lat="43.2339100" lon="-1.4978420">
        <ele>546.4</ele>
        <time>2020-07-29T14:04:29Z</time>
      </trkpt>
      <trkpt lat="43.2340100" lon="-1.4978220">
        <ele>546.8</ele>
        <time>2020-07-29T14:04:32Z</time>
      </trkpt>
      <trkpt lat="43.2341470" lon="-1.4977970">
        <ele>547.6</ele>
        <time>2020-07-29T14:04:36Z</time>
      </trkpt>
      <trkpt lat="43.2342530" lon="-1.4977800">
        <ele>548.0</ele>
        <time>2020-07-29T14:04:39Z</time>
      </trkpt>
      <trkpt lat="43.2343220" lon="-1.4977470">
        <ele>548.4</ele>
        <time>2020-07-29T14:04:41Z</time>
      </trkpt>
      <trkpt lat="43.2344970" lon="-1.4976680">
        <ele>549.0</ele>
        <time>2020-07-29T14:04:46Z</time>
      </trkpt>
      <trkpt lat="43.2345690" lon="-1.4976440">
        <ele>549.4</ele>
        <time>2020-07-29T14:04:48Z</time>
      </trkpt>
      <trkpt lat="43.2346800" lon="-1.4975970">
        <ele>550.2</ele>
        <time>2020-07-29T14:04:51Z</time>
      </trkpt>
      <trkpt lat="43.2348780" lon="-1.4975040">
        <ele>551.0</ele>
        <time>2020-07-29T14:04:56Z</time>
      </trkpt>
      <trkpt lat="43.2349230" lon="-1.4974840">
        <ele>551.2</ele>
        <time>2020-07-29T14:04:57Z</time>
      </trkpt>
      <trkpt lat="43.2350980" lon="-1.4973640">
        <ele>552.2</ele>
        <time>2020-07-29T14:05:02Z</time>
      </trkpt>
      <trkpt lat="43.2351250" lon="-1.4973370">
        <ele>552.6</ele>
        <time>2020-07-29T14:05:03Z</time>
      </trkpt>
      <trkpt lat="43.2352880" lon="-1.4971660">
        <ele>553.6</ele>
        <time>2020-07-29T14:05:08Z</time>
      </trkpt>
      <trkpt lat="43.2353490" lon="-1.4970710">
        <ele>554.0</ele>
        <time>2020-07-29T14:05:10Z</time>
      </trkpt>
      <trkpt lat="43.2354190" lon="-1.4969130">
        <ele>554.2</ele>
        <time>2020-07-29T14:05:13Z</time>
      </trkpt>
      <trkpt lat="43.2354380" lon="-1.4968700">
        <ele>554.6</ele>
        <time>2020-07-29T14:05:14Z</time>
      </trkpt>
      <trkpt lat="43.2354540" lon="-1.4968220">
        <ele>554.8</ele>
        <time>2020-07-29T14:05:15Z</time>
      </trkpt>
      <trkpt lat="43.2355060" lon="-1.4965450">
        <ele>556.0</ele>
        <time>2020-07-29T14:05:20Z</time>
      </trkpt>
      <trkpt lat="43.2355100" lon="-1.4964860">
        <ele>556.2</ele>
        <time>2020-07-29T14:05:21Z</time>
      </trkpt>
      <trkpt lat="43.2355300" lon="-1.4963020">
        <ele>557.2</ele>
        <time>2020-07-29T14:05:24Z</time>
      </trkpt>
      <trkpt lat="43.2355460" lon="-1.4960660">
        <ele>558.6</ele>
        <time>2020-07-29T14:05:28Z</time>
      </trkpt>
      <trkpt lat="43.2355710" lon="-1.4958380">
        <ele>559.6</ele>
        <time>2020-07-29T14:05:32Z</time>
      </trkpt>
      <trkpt lat="43.2356210" lon="-1.4955450">
        <ele>560.6</ele>
        <time>2020-07-29T14:05:37Z</time>
      </trkpt>
      <trkpt lat="43.2356350" lon="-1.4954870">
        <ele>560.8</ele>
        <time>2020-07-29T14:05:38Z</time>
      </trkpt>
      <trkpt lat="43.2357040" lon="-1.4952180">
        <ele>561.2</ele>
        <time>2020-07-29T14:05:43Z</time>
      </trkpt>
      <trkpt lat="43.2357270" lon="-1.4951270">
        <ele>561.2</ele>
        <time>2020-07-29T14:05:45Z</time>
      </trkpt>
      <trkpt lat="43.2357420" lon="-1.4950910">
        <ele>561.2</ele>
        <time>2020-07-29T14:05:46Z</time>
      </trkpt>
      <trkpt lat="43.2357810" lon="-1.4949860">
        <ele>561.8</ele>
        <time>2020-07-29T14:05:49Z</time>
      </trkpt>
      <trkpt lat="43.2358330" lon="-1.4948030">
        <ele>562.6</ele>
        <time>2020-07-29T14:05:53Z</time>
      </trkpt>
      <trkpt lat="43.2358470" lon="-1.4947590">
        <ele>562.8</ele>
        <time>2020-07-29T14:05:54Z</time>
      </trkpt>
      <trkpt lat="43.2359300" lon="-1.4945310">
        <ele>563.6</ele>
        <time>2020-07-29T14:06:00Z</time>
      </trkpt>
      <trkpt lat="43.2359670" lon="-1.4944610">
        <ele>564.0</ele>
        <time>2020-07-29T14:06:02Z</time>
      </trkpt>
      <trkpt lat="43.2360610" lon="-1.4943310">
        <ele>564.2</ele>
        <time>2020-07-29T14:06:06Z</time>
      </trkpt>
      <trkpt lat="43.2361160" lon="-1.4942730">
        <ele>564.2</ele>
        <time>2020-07-29T14:06:08Z</time>
      </trkpt>
      <trkpt lat="43.2362680" lon="-1.4941700">
        <ele>564.2</ele>
        <time>2020-07-29T14:06:13Z</time>
      </trkpt>
      <trkpt lat="43.2364440" lon="-1.4941230">
        <ele>564.0</ele>
        <time>2020-07-29T14:06:19Z</time>
      </trkpt>
      <trkpt lat="43.2364710" lon="-1.4941230">
        <ele>564.0</ele>
        <time>2020-07-29T14:06:20Z</time>
      </trkpt>
      <trkpt lat="43.2366620" lon="-1.4941400">
        <ele>563.0</ele>
        <time>2020-07-29T14:06:26Z</time>
      </trkpt>
      <trkpt lat="43.2367580" lon="-1.4941660">
        <ele>562.4</ele>
        <time>2020-07-29T14:06:30Z</time>
      </trkpt>
      <trkpt lat="43.2368470" lon="-1.4941700">
        <ele>561.8</ele>
        <time>2020-07-29T14:06:34Z</time>
      </trkpt>
      <trkpt lat="43.2368810" lon="-1.4941680">
        <ele>561.4</ele>
        <time>2020-07-29T14:06:35Z</time>
      </trkpt>
      <trkpt lat="43.2369210" lon="-1.4941580">
        <ele>561.2</ele>
        <time>2020-07-29T14:06:36Z</time>
      </trkpt>
      <trkpt lat="43.2370090" lon="-1.4941390">
        <ele>560.6</ele>
        <time>2020-07-29T14:06:38Z</time>
      </trkpt>
      <trkpt lat="43.2370850" lon="-1.4941580">
        <ele>560.4</ele>
        <time>2020-07-29T14:06:40Z</time>
      </trkpt>
      <trkpt lat="43.2371630" lon="-1.4941470">
        <ele>560.0</ele>
        <time>2020-07-29T14:06:44Z</time>
      </trkpt>
      <trkpt lat="43.2371650" lon="-1.4941490">
        <ele>559.6</ele>
        <time>2020-07-29T14:06:50Z</time>
      </trkpt>
      <trkpt lat="43.2371640" lon="-1.4941480">
        <ele>559.6</ele>
        <time>2020-07-29T14:06:53Z</time>
      </trkpt>
      <trkpt lat="43.2371650" lon="-1.4941460">
        <ele>559.4</ele>
        <time>2020-07-29T14:06:56Z</time>
      </trkpt>
      <trkpt lat="43.2371630" lon="-1.4941450">
        <ele>559.2</ele>
        <time>2020-07-29T14:06:57Z</time>
      </trkpt>
      <trkpt lat="43.2371620" lon="-1.4941440">
        <ele>559.2</ele>
        <time>2020-07-29T14:06:59Z</time>
      </trkpt>
      <trkpt lat="43.2371630" lon="-1.4941440">
        <ele>559.2</ele>
        <time>2020-07-29T14:07:05Z</time>
      </trkpt>
      <trkpt lat="43.2371630" lon="-1.4941460">
        <ele>559.2</ele>
        <time>2020-07-29T14:07:06Z</time>
      </trkpt>
      <trkpt lat="43.2371690" lon="-1.4941390">
        <ele>559.2</ele>
        <time>2020-07-29T14:07:10Z</time>
      </trkpt>
      <trkpt lat="43.2371670" lon="-1.4941360">
        <ele>559.2</ele>
        <time>2020-07-29T14:07:13Z</time>
      </trkpt>
      <trkpt lat="43.2371730" lon="-1.4941220">
        <ele>559.0</ele>
        <time>2020-07-29T14:07:19Z</time>
      </trkpt>
      <trkpt lat="43.2371760" lon="-1.4941160">
        <ele>558.8</ele>
        <time>2020-07-29T14:07:25Z</time>
      </trkpt>
      <trkpt lat="43.2371770" lon="-1.4941170">
        <ele>558.8</ele>
        <time>2020-07-29T14:07:31Z</time>
      </trkpt>
      <trkpt lat="43.2371830" lon="-1.4941250">
        <ele>559.0</ele>
        <time>2020-07-29T14:07:37Z</time>
      </trkpt>
      <trkpt lat="43.2371920" lon="-1.4941150">
        <ele>558.8</ele>
        <time>2020-07-29T14:07:41Z</time>
      </trkpt>
      <trkpt lat="43.2372050" lon="-1.4940890">
        <ele>558.6</ele>
        <time>2020-07-29T14:07:43Z</time>
      </trkpt>
      <trkpt lat="43.2372100" lon="-1.4940670">
        <ele>558.4</ele>
        <time>2020-07-29T14:07:44Z</time>
      </trkpt>
      <trkpt lat="43.2372360" lon="-1.4939240">
        <ele>558.4</ele>
        <time>2020-07-29T14:07:48Z</time>
      </trkpt>
      <trkpt lat="43.2372740" lon="-1.4938010">
        <ele>557.4</ele>
        <time>2020-07-29T14:07:50Z</time>
      </trkpt>
      <trkpt lat="43.2373040" lon="-1.4936430">
        <ele>556.2</ele>
        <time>2020-07-29T14:07:52Z</time>
      </trkpt>
      <trkpt lat="43.2373150" lon="-1.4933740">
        <ele>555.0</ele>
        <time>2020-07-29T14:07:55Z</time>
      </trkpt>
      <trkpt lat="43.2373200" lon="-1.4931830">
        <ele>554.4</ele>
        <time>2020-07-29T14:07:57Z</time>
      </trkpt>
      <trkpt lat="43.2373360" lon="-1.4930040">
        <ele>554.0</ele>
        <time>2020-07-29T14:07:59Z</time>
      </trkpt>
      <trkpt lat="43.2373970" lon="-1.4927200">
        <ele>553.0</ele>
        <time>2020-07-29T14:08:02Z</time>
      </trkpt>
      <trkpt lat="43.2374250" lon="-1.4926230">
        <ele>552.8</ele>
        <time>2020-07-29T14:08:03Z</time>
      </trkpt>
      <trkpt lat="43.2375330" lon="-1.4923190">
        <ele>551.2</ele>
        <time>2020-07-29T14:08:06Z</time>
      </trkpt>
      <trkpt lat="43.2375650" lon="-1.4922100">
        <ele>550.4</ele>
        <time>2020-07-29T14:08:07Z</time>
      </trkpt>
      <trkpt lat="43.2375910" lon="-1.4920970">
        <ele>549.8</ele>
        <time>2020-07-29T14:08:08Z</time>
      </trkpt>
      <trkpt lat="43.2376190" lon="-1.4918610">
        <ele>549.0</ele>
        <time>2020-07-29T14:08:10Z</time>
      </trkpt>
      <trkpt lat="43.2376160" lon="-1.4917450">
        <ele>548.6</ele>
        <time>2020-07-29T14:08:11Z</time>
      </trkpt>
      <trkpt lat="43.2375510" lon="-1.4913150">
        <ele>548.4</ele>
        <time>2020-07-29T14:08:15Z</time>
      </trkpt>
      <trkpt lat="43.2375030" lon="-1.4909010">
        <ele>547.6</ele>
        <time>2020-07-29T14:08:19Z</time>
      </trkpt>
      <trkpt lat="43.2374700" lon="-1.4905910">
        <ele>547.4</ele>
        <time>2020-07-29T14:08:22Z</time>
      </trkpt>
      <trkpt lat="43.2374340" lon="-1.4902730">
        <ele>547.2</ele>
        <time>2020-07-29T14:08:25Z</time>
      </trkpt>
      <trkpt lat="43.2374870" lon="-1.4900640">
        <ele>547.2</ele>
        <time>2020-07-29T14:08:27Z</time>
      </trkpt>
      <trkpt lat="43.2376140" lon="-1.4899020">
        <ele>547.0</ele>
        <time>2020-07-29T14:08:29Z</time>
      </trkpt>
      <trkpt lat="43.2377030" lon="-1.4898400">
        <ele>546.4</ele>
        <time>2020-07-29T14:08:30Z</time>
      </trkpt>
      <trkpt lat="43.2378830" lon="-1.4897370">
        <ele>544.6</ele>
        <time>2020-07-29T14:08:32Z</time>
      </trkpt>
      <trkpt lat="43.2379760" lon="-1.4896820">
        <ele>543.2</ele>
        <time>2020-07-29T14:08:33Z</time>
      </trkpt>
      <trkpt lat="43.2380740" lon="-1.4896180">
        <ele>542.0</ele>
        <time>2020-07-29T14:08:34Z</time>
      </trkpt>
      <trkpt lat="43.2381710" lon="-1.4895490">
        <ele>541.2</ele>
        <time>2020-07-29T14:08:35Z</time>
      </trkpt>
      <trkpt lat="43.2382640" lon="-1.4894710">
        <ele>540.6</ele>
        <time>2020-07-29T14:08:36Z</time>
      </trkpt>
      <trkpt lat="43.2384340" lon="-1.4892690">
        <ele>539.4</ele>
        <time>2020-07-29T14:08:38Z</time>
      </trkpt>
      <trkpt lat="43.2385020" lon="-1.4891560">
        <ele>538.6</ele>
        <time>2020-07-29T14:08:39Z</time>
      </trkpt>
      <trkpt lat="43.2385530" lon="-1.4890310">
        <ele>538.0</ele>
        <time>2020-07-29T14:08:40Z</time>
      </trkpt>
      <trkpt lat="43.2385250" lon="-1.4887070">
        <ele>536.8</ele>
        <time>2020-07-29T14:08:42Z</time>
      </trkpt>
      <trkpt lat="43.2384640" lon="-1.4884090">
        <ele>535.6</ele>
        <time>2020-07-29T14:08:44Z</time>
      </trkpt>
      <trkpt lat="43.2384480" lon="-1.4882500">
        <ele>535.2</ele>
        <time>2020-07-29T14:08:45Z</time>
      </trkpt>
      <trkpt lat="43.2384510" lon="-1.4879450">
        <ele>534.4</ele>
        <time>2020-07-29T14:08:47Z</time>
      </trkpt>
      <trkpt lat="43.2384620" lon="-1.4876400">
        <ele>534.0</ele>
        <time>2020-07-29T14:08:49Z</time>
      </trkpt>
      <trkpt lat="43.2385050" lon="-1.4870620">
        <ele>533.4</ele>
        <time>2020-07-29T14:08:53Z</time>
      </trkpt>
      <trkpt lat="43.2385460" lon="-1.4867710">
        <ele>532.4</ele>
        <time>2020-07-29T14:08:55Z</time>
      </trkpt>
      <trkpt lat="43.2385620" lon="-1.4866240">
        <ele>532.0</ele>
        <time>2020-07-29T14:08:56Z</time>
      </trkpt>
      <trkpt lat="43.2386200" lon="-1.4863390">
        <ele>531.4</ele>
        <time>2020-07-29T14:08:58Z</time>
      </trkpt>
      <trkpt lat="43.2386620" lon="-1.4862110">
        <ele>531.0</ele>
        <time>2020-07-29T14:08:59Z</time>
      </trkpt>
      <trkpt lat="43.2387330" lon="-1.4860970">
        <ele>530.4</ele>
        <time>2020-07-29T14:09:00Z</time>
      </trkpt>
      <trkpt lat="43.2388070" lon="-1.4859890">
        <ele>529.8</ele>
        <time>2020-07-29T14:09:01Z</time>
      </trkpt>
      <trkpt lat="43.2388900" lon="-1.4858940">
        <ele>529.0</ele>
        <time>2020-07-29T14:09:02Z</time>
      </trkpt>
      <trkpt lat="43.2389770" lon="-1.4858050">
        <ele>528.4</ele>
        <time>2020-07-29T14:09:03Z</time>
      </trkpt>
      <trkpt lat="43.2390460" lon="-1.4856990">
        <ele>528.0</ele>
        <time>2020-07-29T14:09:04Z</time>
      </trkpt>
      <trkpt lat="43.2390940" lon="-1.4855710">
        <ele>527.4</ele>
        <time>2020-07-29T14:09:05Z</time>
      </trkpt>
      <trkpt lat="43.2390960" lon="-1.4854170">
        <ele>526.8</ele>
        <time>2020-07-29T14:09:06Z</time>
      </trkpt>
      <trkpt lat="43.2390830" lon="-1.4852830">
        <ele>526.0</ele>
        <time>2020-07-29T14:09:07Z</time>
      </trkpt>
      <trkpt lat="43.2390500" lon="-1.4851570">
        <ele>525.2</ele>
        <time>2020-07-29T14:09:08Z</time>
      </trkpt>
      <trkpt lat="43.2390080" lon="-1.4850300">
        <ele>524.2</ele>
        <time>2020-07-29T14:09:09Z</time>
      </trkpt>
      <trkpt lat="43.2389850" lon="-1.4849030">
        <ele>523.4</ele>
        <time>2020-07-29T14:09:10Z</time>
      </trkpt>
      <trkpt lat="43.2389830" lon="-1.4847740">
        <ele>523.0</ele>
        <time>2020-07-29T14:09:11Z</time>
      </trkpt>
      <trkpt lat="43.2389850" lon="-1.4846520">
        <ele>522.6</ele>
        <time>2020-07-29T14:09:12Z</time>
      </trkpt>
      <trkpt lat="43.2390100" lon="-1.4845260">
        <ele>522.4</ele>
        <time>2020-07-29T14:09:13Z</time>
      </trkpt>
      <trkpt lat="43.2390810" lon="-1.4842780">
        <ele>521.8</ele>
        <time>2020-07-29T14:09:15Z</time>
      </trkpt>
      <trkpt lat="43.2391330" lon="-1.4841610">
        <ele>521.2</ele>
        <time>2020-07-29T14:09:16Z</time>
      </trkpt>
      <trkpt lat="43.2393730" lon="-1.4838710">
        <ele>520.6</ele>
        <time>2020-07-29T14:09:19Z</time>
      </trkpt>
      <trkpt lat="43.2395550" lon="-1.4837350">
        <ele>519.4</ele>
        <time>2020-07-29T14:09:21Z</time>
      </trkpt>
      <trkpt lat="43.2397490" lon="-1.4836180">
        <ele>518.6</ele>
        <time>2020-07-29T14:09:23Z</time>
      </trkpt>
      <trkpt lat="43.2398590" lon="-1.4836230">
        <ele>518.2</ele>
        <time>2020-07-29T14:09:24Z</time>
      </trkpt>
      <trkpt lat="43.2399690" lon="-1.4836580">
        <ele>517.6</ele>
        <time>2020-07-29T14:09:25Z</time>
      </trkpt>
      <trkpt lat="43.2400650" lon="-1.4837050">
        <ele>517.0</ele>
        <time>2020-07-29T14:09:26Z</time>
      </trkpt>
      <trkpt lat="43.2402650" lon="-1.4838060">
        <ele>516.2</ele>
        <time>2020-07-29T14:09:28Z</time>
      </trkpt>
      <trkpt lat="43.2403780" lon="-1.4838430">
        <ele>515.4</ele>
        <time>2020-07-29T14:09:29Z</time>
      </trkpt>
      <trkpt lat="43.2406180" lon="-1.4838840">
        <ele>513.6</ele>
        <time>2020-07-29T14:09:31Z</time>
      </trkpt>
      <trkpt lat="43.2407310" lon="-1.4838930">
        <ele>512.6</ele>
        <time>2020-07-29T14:09:32Z</time>
      </trkpt>
      <trkpt lat="43.2408510" lon="-1.4838940">
        <ele>511.8</ele>
        <time>2020-07-29T14:09:33Z</time>
      </trkpt>
      <trkpt lat="43.2411180" lon="-1.4838590">
        <ele>510.2</ele>
        <time>2020-07-29T14:09:35Z</time>
      </trkpt>
      <trkpt lat="43.2412520" lon="-1.4838130">
        <ele>509.4</ele>
        <time>2020-07-29T14:09:36Z</time>
      </trkpt>
      <trkpt lat="43.2413750" lon="-1.4837270">
        <ele>508.6</ele>
        <time>2020-07-29T14:09:37Z</time>
      </trkpt>
      <trkpt lat="43.2414930" lon="-1.4836330">
        <ele>507.8</ele>
        <time>2020-07-29T14:09:38Z</time>
      </trkpt>
      <trkpt lat="43.2415920" lon="-1.4835140">
        <ele>507.0</ele>
        <time>2020-07-29T14:09:39Z</time>
      </trkpt>
      <trkpt lat="43.2416670" lon="-1.4833760">
        <ele>506.4</ele>
        <time>2020-07-29T14:09:40Z</time>
      </trkpt>
      <trkpt lat="43.2417120" lon="-1.4832190">
        <ele>505.6</ele>
        <time>2020-07-29T14:09:41Z</time>
      </trkpt>
      <trkpt lat="43.2417090" lon="-1.4830170">
        <ele>504.8</ele>
        <time>2020-07-29T14:09:42Z</time>
      </trkpt>
      <trkpt lat="43.2417150" lon="-1.4828360">
        <ele>504.2</ele>
        <time>2020-07-29T14:09:43Z</time>
      </trkpt>
      <trkpt lat="43.2417280" lon="-1.4825400">
        <ele>503.2</ele>
        <time>2020-07-29T14:09:45Z</time>
      </trkpt>
      <trkpt lat="43.2417330" lon="-1.4823940">
        <ele>502.8</ele>
        <time>2020-07-29T14:09:46Z</time>
      </trkpt>
      <trkpt lat="43.2417550" lon="-1.4820900">
        <ele>502.0</ele>
        <time>2020-07-29T14:09:48Z</time>
      </trkpt>
      <trkpt lat="43.2417990" lon="-1.4819420">
        <ele>501.4</ele>
        <time>2020-07-29T14:09:49Z</time>
      </trkpt>
      <trkpt lat="43.2418430" lon="-1.4818080">
        <ele>501.0</ele>
        <time>2020-07-29T14:09:50Z</time>
      </trkpt>
      <trkpt lat="43.2419550" lon="-1.4816080">
        <ele>500.4</ele>
        <time>2020-07-29T14:09:52Z</time>
      </trkpt>
      <trkpt lat="43.2420580" lon="-1.4815740">
        <ele>499.8</ele>
        <time>2020-07-29T14:09:53Z</time>
      </trkpt>
      <trkpt lat="43.2421550" lon="-1.4815770">
        <ele>499.2</ele>
        <time>2020-07-29T14:09:54Z</time>
      </trkpt>
      <trkpt lat="43.2422750" lon="-1.4816240">
        <ele>498.6</ele>
        <time>2020-07-29T14:09:55Z</time>
      </trkpt>
      <trkpt lat="43.2423980" lon="-1.4816850">
        <ele>497.6</ele>
        <time>2020-07-29T14:09:56Z</time>
      </trkpt>
      <trkpt lat="43.2425400" lon="-1.4817550">
        <ele>496.6</ele>
        <time>2020-07-29T14:09:57Z</time>
      </trkpt>
      <trkpt lat="43.2426730" lon="-1.4818160">
        <ele>495.6</ele>
        <time>2020-07-29T14:09:58Z</time>
      </trkpt>
      <trkpt lat="43.2428080" lon="-1.4818650">
        <ele>494.6</ele>
        <time>2020-07-29T14:09:59Z</time>
      </trkpt>
      <trkpt lat="43.2429320" lon="-1.4818790">
        <ele>493.8</ele>
        <time>2020-07-29T14:10:00Z</time>
      </trkpt>
      <trkpt lat="43.2430530" lon="-1.4818670">
        <ele>493.2</ele>
        <time>2020-07-29T14:10:01Z</time>
      </trkpt>
      <trkpt lat="43.2431740" lon="-1.4818030">
        <ele>492.6</ele>
        <time>2020-07-29T14:10:02Z</time>
      </trkpt>
      <trkpt lat="43.2432830" lon="-1.4817220">
        <ele>492.0</ele>
        <time>2020-07-29T14:10:03Z</time>
      </trkpt>
      <trkpt lat="43.2433700" lon="-1.4815960">
        <ele>491.2</ele>
        <time>2020-07-29T14:10:04Z</time>
      </trkpt>
      <trkpt lat="43.2434480" lon="-1.4814640">
        <ele>490.6</ele>
        <time>2020-07-29T14:10:05Z</time>
      </trkpt>
      <trkpt lat="43.2434840" lon="-1.4813050">
        <ele>490.0</ele>
        <time>2020-07-29T14:10:06Z</time>
      </trkpt>
      <trkpt lat="43.2435130" lon="-1.4811440">
        <ele>489.4</ele>
        <time>2020-07-29T14:10:07Z</time>
      </trkpt>
      <trkpt lat="43.2435450" lon="-1.4808230">
        <ele>488.2</ele>
        <time>2020-07-29T14:10:09Z</time>
      </trkpt>
      <trkpt lat="43.2435610" lon="-1.4805170">
        <ele>487.4</ele>
        <time>2020-07-29T14:10:11Z</time>
      </trkpt>
      <trkpt lat="43.2435790" lon="-1.4803640">
        <ele>487.2</ele>
        <time>2020-07-29T14:10:12Z</time>
      </trkpt>
      <trkpt lat="43.2436470" lon="-1.4801120">
        <ele>486.8</ele>
        <time>2020-07-29T14:10:14Z</time>
      </trkpt>
      <trkpt lat="43.2436970" lon="-1.4800140">
        <ele>486.8</ele>
        <time>2020-07-29T14:10:15Z</time>
      </trkpt>
      <trkpt lat="43.2437580" lon="-1.4799270">
        <ele>486.4</ele>
        <time>2020-07-29T14:10:16Z</time>
      </trkpt>
      <trkpt lat="43.2438660" lon="-1.4799260">
        <ele>486.0</ele>
        <time>2020-07-29T14:10:17Z</time>
      </trkpt>
      <trkpt lat="43.2439420" lon="-1.4799550">
        <ele>485.8</ele>
        <time>2020-07-29T14:10:18Z</time>
      </trkpt>
      <trkpt lat="43.2441240" lon="-1.4802380">
        <ele>485.4</ele>
        <time>2020-07-29T14:10:20Z</time>
      </trkpt>
      <trkpt lat="43.2442470" lon="-1.4804590">
        <ele>484.8</ele>
        <time>2020-07-29T14:10:21Z</time>
      </trkpt>
      <trkpt lat="43.2443700" lon="-1.4806800">
        <ele>483.8</ele>
        <time>2020-07-29T14:10:22Z</time>
      </trkpt>
      <trkpt lat="43.2444510" lon="-1.4808520">
        <ele>482.4</ele>
        <time>2020-07-29T14:10:23Z</time>
      </trkpt>
      <trkpt lat="43.2446130" lon="-1.4811760">
        <ele>480.8</ele>
        <time>2020-07-29T14:10:25Z</time>
      </trkpt>
      <trkpt lat="43.2447480" lon="-1.4814680">
        <ele>479.6</ele>
        <time>2020-07-29T14:10:27Z</time>
      </trkpt>
      <trkpt lat="43.2448180" lon="-1.4816060">
        <ele>479.0</ele>
        <time>2020-07-29T14:10:28Z</time>
      </trkpt>
      <trkpt lat="43.2448990" lon="-1.4817390">
        <ele>478.8</ele>
        <time>2020-07-29T14:10:29Z</time>
      </trkpt>
      <trkpt lat="43.2449850" lon="-1.4818590">
        <ele>478.4</ele>
        <time>2020-07-29T14:10:30Z</time>
      </trkpt>
      <trkpt lat="43.2450810" lon="-1.4819610">
        <ele>478.0</ele>
        <time>2020-07-29T14:10:31Z</time>
      </trkpt>
      <trkpt lat="43.2452900" lon="-1.4821130">
        <ele>477.0</ele>
        <time>2020-07-29T14:10:33Z</time>
      </trkpt>
      <trkpt lat="43.2454010" lon="-1.4821780">
        <ele>476.4</ele>
        <time>2020-07-29T14:10:34Z</time>
      </trkpt>
      <trkpt lat="43.2455150" lon="-1.4822350">
        <ele>475.4</ele>
        <time>2020-07-29T14:10:35Z</time>
      </trkpt>
      <trkpt lat="43.2456310" lon="-1.4822860">
        <ele>474.0</ele>
        <time>2020-07-29T14:10:36Z</time>
      </trkpt>
      <trkpt lat="43.2457470" lon="-1.4823340">
        <ele>472.4</ele>
        <time>2020-07-29T14:10:37Z</time>
      </trkpt>
      <trkpt lat="43.2458650" lon="-1.4823770">
        <ele>471.2</ele>
        <time>2020-07-29T14:10:38Z</time>
      </trkpt>
      <trkpt lat="43.2459840" lon="-1.4824180">
        <ele>470.2</ele>
        <time>2020-07-29T14:10:39Z</time>
      </trkpt>
      <trkpt lat="43.2461020" lon="-1.4824590">
        <ele>469.2</ele>
        <time>2020-07-29T14:10:40Z</time>
      </trkpt>
      <trkpt lat="43.2464590" lon="-1.4825700">
        <ele>468.6</ele>
        <time>2020-07-29T14:10:43Z</time>
      </trkpt>
      <trkpt lat="43.2468170" lon="-1.4826810">
        <ele>469.4</ele>
        <time>2020-07-29T14:10:46Z</time>
      </trkpt>
      <trkpt lat="43.2474360" lon="-1.4829150">
        <ele>467.0</ele>
        <time>2020-07-29T14:10:51Z</time>
      </trkpt>
      <trkpt lat="43.2475560" lon="-1.4829740">
        <ele>464.6</ele>
        <time>2020-07-29T14:10:52Z</time>
      </trkpt>
      <trkpt lat="43.2476790" lon="-1.4830340">
        <ele>462.4</ele>
        <time>2020-07-29T14:10:53Z</time>
      </trkpt>
      <trkpt lat="43.2478030" lon="-1.4830870">
        <ele>460.8</ele>
        <time>2020-07-29T14:10:54Z</time>
      </trkpt>
      <trkpt lat="43.2479290" lon="-1.4831380">
        <ele>459.4</ele>
        <time>2020-07-29T14:10:55Z</time>
      </trkpt>
      <trkpt lat="43.2480570" lon="-1.4831900">
        <ele>458.0</ele>
        <time>2020-07-29T14:10:56Z</time>
      </trkpt>
      <trkpt lat="43.2481840" lon="-1.4832360">
        <ele>456.8</ele>
        <time>2020-07-29T14:10:57Z</time>
      </trkpt>
      <trkpt lat="43.2484440" lon="-1.4833230">
        <ele>455.0</ele>
        <time>2020-07-29T14:10:59Z</time>
      </trkpt>
      <trkpt lat="43.2485740" lon="-1.4833720">
        <ele>453.8</ele>
        <time>2020-07-29T14:11:00Z</time>
      </trkpt>
      <trkpt lat="43.2487060" lon="-1.4834150">
        <ele>452.8</ele>
        <time>2020-07-29T14:11:01Z</time>
      </trkpt>
      <trkpt lat="43.2489670" lon="-1.4834790">
        <ele>451.0</ele>
        <time>2020-07-29T14:11:03Z</time>
      </trkpt>
      <trkpt lat="43.2492240" lon="-1.4834300">
        <ele>449.2</ele>
        <time>2020-07-29T14:11:05Z</time>
      </trkpt>
      <trkpt lat="43.2493420" lon="-1.4833490">
        <ele>448.6</ele>
        <time>2020-07-29T14:11:06Z</time>
      </trkpt>
      <trkpt lat="43.2494470" lon="-1.4832490">
        <ele>448.0</ele>
        <time>2020-07-29T14:11:07Z</time>
      </trkpt>
      <trkpt lat="43.2496310" lon="-1.4830300">
        <ele>446.6</ele>
        <time>2020-07-29T14:11:09Z</time>
      </trkpt>
      <trkpt lat="43.2497280" lon="-1.4829450">
        <ele>446.0</ele>
        <time>2020-07-29T14:11:10Z</time>
      </trkpt>
      <trkpt lat="43.2498360" lon="-1.4829070">
        <ele>445.8</ele>
        <time>2020-07-29T14:11:11Z</time>
      </trkpt>
      <trkpt lat="43.2499530" lon="-1.4829100">
        <ele>445.4</ele>
        <time>2020-07-29T14:11:12Z</time>
      </trkpt>
      <trkpt lat="43.2501800" lon="-1.4830040">
        <ele>444.8</ele>
        <time>2020-07-29T14:11:14Z</time>
      </trkpt>
      <trkpt lat="43.2502900" lon="-1.4830680">
        <ele>444.6</ele>
        <time>2020-07-29T14:11:15Z</time>
      </trkpt>
      <trkpt lat="43.2503940" lon="-1.4831460">
        <ele>444.2</ele>
        <time>2020-07-29T14:11:16Z</time>
      </trkpt>
      <trkpt lat="43.2505950" lon="-1.4832860">
        <ele>442.4</ele>
        <time>2020-07-29T14:11:18Z</time>
      </trkpt>
      <trkpt lat="43.2507050" lon="-1.4833510">
        <ele>441.4</ele>
        <time>2020-07-29T14:11:19Z</time>
      </trkpt>
      <trkpt lat="43.2508210" lon="-1.4834020">
        <ele>440.0</ele>
        <time>2020-07-29T14:11:20Z</time>
      </trkpt>
      <trkpt lat="43.2509390" lon="-1.4834480">
        <ele>439.0</ele>
        <time>2020-07-29T14:11:21Z</time>
      </trkpt>
      <trkpt lat="43.2511780" lon="-1.4835090">
        <ele>437.4</ele>
        <time>2020-07-29T14:11:23Z</time>
      </trkpt>
      <trkpt lat="43.2514180" lon="-1.4835000">
        <ele>436.8</ele>
        <time>2020-07-29T14:11:25Z</time>
      </trkpt>
      <trkpt lat="43.2515380" lon="-1.4834700">
        <ele>436.4</ele>
        <time>2020-07-29T14:11:26Z</time>
      </trkpt>
      <trkpt lat="43.2518910" lon="-1.4833240">
        <ele>434.4</ele>
        <time>2020-07-29T14:11:29Z</time>
      </trkpt>
      <trkpt lat="43.2520110" lon="-1.4832750">
        <ele>432.8</ele>
        <time>2020-07-29T14:11:30Z</time>
      </trkpt>
      <trkpt lat="43.2521310" lon="-1.4832270">
        <ele>431.6</ele>
        <time>2020-07-29T14:11:31Z</time>
      </trkpt>
      <trkpt lat="43.2523810" lon="-1.4831600">
        <ele>429.8</ele>
        <time>2020-07-29T14:11:33Z</time>
      </trkpt>
      <trkpt lat="43.2526420" lon="-1.4831300">
        <ele>428.2</ele>
        <time>2020-07-29T14:11:35Z</time>
      </trkpt>
      <trkpt lat="43.2528950" lon="-1.4831390">
        <ele>427.0</ele>
        <time>2020-07-29T14:11:37Z</time>
      </trkpt>
      <trkpt lat="43.2531330" lon="-1.4832270">
        <ele>425.2</ele>
        <time>2020-07-29T14:11:39Z</time>
      </trkpt>
      <trkpt lat="43.2532500" lon="-1.4833110">
        <ele>424.0</ele>
        <time>2020-07-29T14:11:40Z</time>
      </trkpt>
      <trkpt lat="43.2533600" lon="-1.4834120">
        <ele>422.8</ele>
        <time>2020-07-29T14:11:41Z</time>
      </trkpt>
      <trkpt lat="43.2534670" lon="-1.4835260">
        <ele>421.8</ele>
        <time>2020-07-29T14:11:42Z</time>
      </trkpt>
      <trkpt lat="43.2535810" lon="-1.4836310">
        <ele>421.2</ele>
        <time>2020-07-29T14:11:43Z</time>
      </trkpt>
      <trkpt lat="43.2538290" lon="-1.4838140">
        <ele>419.2</ele>
        <time>2020-07-29T14:11:45Z</time>
      </trkpt>
      <trkpt lat="43.2539600" lon="-1.4838860">
        <ele>418.0</ele>
        <time>2020-07-29T14:11:46Z</time>
      </trkpt>
      <trkpt lat="43.2540890" lon="-1.4839480">
        <ele>417.0</ele>
        <time>2020-07-29T14:11:47Z</time>
      </trkpt>
      <trkpt lat="43.2543570" lon="-1.4840330">
        <ele>415.2</ele>
        <time>2020-07-29T14:11:49Z</time>
      </trkpt>
      <trkpt lat="43.2544900" lon="-1.4840720">
        <ele>413.8</ele>
        <time>2020-07-29T14:11:50Z</time>
      </trkpt>
      <trkpt lat="43.2546170" lon="-1.4841110">
        <ele>412.4</ele>
        <time>2020-07-29T14:11:51Z</time>
      </trkpt>
      <trkpt lat="43.2547390" lon="-1.4841530">
        <ele>411.2</ele>
        <time>2020-07-29T14:11:52Z</time>
      </trkpt>
      <trkpt lat="43.2548610" lon="-1.4841970">
        <ele>409.8</ele>
        <time>2020-07-29T14:11:53Z</time>
      </trkpt>
      <trkpt lat="43.2549820" lon="-1.4842440">
        <ele>408.8</ele>
        <time>2020-07-29T14:11:54Z</time>
      </trkpt>
      <trkpt lat="43.2551050" lon="-1.4842920">
        <ele>408.0</ele>
        <time>2020-07-29T14:11:55Z</time>
      </trkpt>
      <trkpt lat="43.2552250" lon="-1.4843520">
        <ele>407.6</ele>
        <time>2020-07-29T14:11:56Z</time>
      </trkpt>
      <trkpt lat="43.2556940" lon="-1.4846300">
        <ele>407.6</ele>
        <time>2020-07-29T14:12:00Z</time>
      </trkpt>
      <trkpt lat="43.2560370" lon="-1.4848250">
        <ele>406.2</ele>
        <time>2020-07-29T14:12:03Z</time>
      </trkpt>
      <trkpt lat="43.2561520" lon="-1.4848900">
        <ele>405.2</ele>
        <time>2020-07-29T14:12:04Z</time>
      </trkpt>
      <trkpt lat="43.2562660" lon="-1.4849610">
        <ele>404.0</ele>
        <time>2020-07-29T14:12:05Z</time>
      </trkpt>
      <trkpt lat="43.2563790" lon="-1.4850410">
        <ele>402.8</ele>
        <time>2020-07-29T14:12:06Z</time>
      </trkpt>
      <trkpt lat="43.2564880" lon="-1.4851330">
        <ele>401.8</ele>
        <time>2020-07-29T14:12:07Z</time>
      </trkpt>
      <trkpt lat="43.2565920" lon="-1.4852330">
        <ele>400.6</ele>
        <time>2020-07-29T14:12:08Z</time>
      </trkpt>
      <trkpt lat="43.2566950" lon="-1.4853390">
        <ele>399.4</ele>
        <time>2020-07-29T14:12:09Z</time>
      </trkpt>
      <trkpt lat="43.2567980" lon="-1.4854480">
        <ele>398.2</ele>
        <time>2020-07-29T14:12:10Z</time>
      </trkpt>
      <trkpt lat="43.2570140" lon="-1.4856600">
        <ele>396.4</ele>
        <time>2020-07-29T14:12:12Z</time>
      </trkpt>
      <trkpt lat="43.2572510" lon="-1.4858390">
        <ele>395.0</ele>
        <time>2020-07-29T14:12:14Z</time>
      </trkpt>
      <trkpt lat="43.2573770" lon="-1.4859140">
        <ele>394.0</ele>
        <time>2020-07-29T14:12:15Z</time>
      </trkpt>
      <trkpt lat="43.2575060" lon="-1.4859760">
        <ele>392.6</ele>
        <time>2020-07-29T14:12:16Z</time>
      </trkpt>
      <trkpt lat="43.2576360" lon="-1.4860310">
        <ele>391.4</ele>
        <time>2020-07-29T14:12:17Z</time>
      </trkpt>
      <trkpt lat="43.2577690" lon="-1.4860800">
        <ele>390.4</ele>
        <time>2020-07-29T14:12:18Z</time>
      </trkpt>
      <trkpt lat="43.2579050" lon="-1.4861200">
        <ele>389.6</ele>
        <time>2020-07-29T14:12:19Z</time>
      </trkpt>
      <trkpt lat="43.2580390" lon="-1.4861580">
        <ele>388.6</ele>
        <time>2020-07-29T14:12:20Z</time>
      </trkpt>
      <trkpt lat="43.2581760" lon="-1.4861930">
        <ele>387.6</ele>
        <time>2020-07-29T14:12:21Z</time>
      </trkpt>
      <trkpt lat="43.2584570" lon="-1.4862450">
        <ele>386.0</ele>
        <time>2020-07-29T14:12:23Z</time>
      </trkpt>
      <trkpt lat="43.2585940" lon="-1.4862690">
        <ele>384.8</ele>
        <time>2020-07-29T14:12:24Z</time>
      </trkpt>
      <trkpt lat="43.2587290" lon="-1.4863070">
        <ele>383.6</ele>
        <time>2020-07-29T14:12:25Z</time>
      </trkpt>
      <trkpt lat="43.2588610" lon="-1.4863710">
        <ele>382.2</ele>
        <time>2020-07-29T14:12:26Z</time>
      </trkpt>
      <trkpt lat="43.2589960" lon="-1.4864650">
        <ele>380.6</ele>
        <time>2020-07-29T14:12:27Z</time>
      </trkpt>
      <trkpt lat="43.2591070" lon="-1.4865850">
        <ele>379.2</ele>
        <time>2020-07-29T14:12:28Z</time>
      </trkpt>
      <trkpt lat="43.2591890" lon="-1.4867260">
        <ele>378.2</ele>
        <time>2020-07-29T14:12:29Z</time>
      </trkpt>
      <trkpt lat="43.2592380" lon="-1.4868890">
        <ele>377.8</ele>
        <time>2020-07-29T14:12:30Z</time>
      </trkpt>
      <trkpt lat="43.2592710" lon="-1.4870580">
        <ele>377.4</ele>
        <time>2020-07-29T14:12:31Z</time>
      </trkpt>
      <trkpt lat="43.2593740" lon="-1.4875720">
        <ele>376.6</ele>
        <time>2020-07-29T14:12:34Z</time>
      </trkpt>
      <trkpt lat="43.2594610" lon="-1.4879100">
        <ele>375.2</ele>
        <time>2020-07-29T14:12:36Z</time>
      </trkpt>
      <trkpt lat="43.2595070" lon="-1.4880790">
        <ele>373.6</ele>
        <time>2020-07-29T14:12:37Z</time>
      </trkpt>
      <trkpt lat="43.2595610" lon="-1.4882420">
        <ele>371.8</ele>
        <time>2020-07-29T14:12:38Z</time>
      </trkpt>
      <trkpt lat="43.2596300" lon="-1.4883940">
        <ele>370.2</ele>
        <time>2020-07-29T14:12:39Z</time>
      </trkpt>
      <trkpt lat="43.2597170" lon="-1.4885240">
        <ele>369.0</ele>
        <time>2020-07-29T14:12:40Z</time>
      </trkpt>
      <trkpt lat="43.2598230" lon="-1.4886290">
        <ele>368.0</ele>
        <time>2020-07-29T14:12:41Z</time>
      </trkpt>
      <trkpt lat="43.2599410" lon="-1.4887030">
        <ele>367.0</ele>
        <time>2020-07-29T14:12:42Z</time>
      </trkpt>
      <trkpt lat="43.2600670" lon="-1.4887460">
        <ele>366.0</ele>
        <time>2020-07-29T14:12:43Z</time>
      </trkpt>
      <trkpt lat="43.2602010" lon="-1.4887570">
        <ele>365.4</ele>
        <time>2020-07-29T14:12:44Z</time>
      </trkpt>
      <trkpt lat="43.2604710" lon="-1.4887460">
        <ele>363.8</ele>
        <time>2020-07-29T14:12:46Z</time>
      </trkpt>
      <trkpt lat="43.2606050" lon="-1.4887410">
        <ele>362.6</ele>
        <time>2020-07-29T14:12:47Z</time>
      </trkpt>
      <trkpt lat="43.2607420" lon="-1.4887350">
        <ele>361.4</ele>
        <time>2020-07-29T14:12:48Z</time>
      </trkpt>
      <trkpt lat="43.2608770" lon="-1.4887300">
        <ele>360.2</ele>
        <time>2020-07-29T14:12:49Z</time>
      </trkpt>
      <trkpt lat="43.2610150" lon="-1.4887240">
        <ele>359.4</ele>
        <time>2020-07-29T14:12:50Z</time>
      </trkpt>
      <trkpt lat="43.2611520" lon="-1.4887170">
        <ele>358.4</ele>
        <time>2020-07-29T14:12:51Z</time>
      </trkpt>
      <trkpt lat="43.2614300" lon="-1.4887030">
        <ele>356.8</ele>
        <time>2020-07-29T14:12:53Z</time>
      </trkpt>
      <trkpt lat="43.2616970" lon="-1.4886990">
        <ele>355.2</ele>
        <time>2020-07-29T14:12:55Z</time>
      </trkpt>
      <trkpt lat="43.2618270" lon="-1.4887110">
        <ele>354.0</ele>
        <time>2020-07-29T14:12:56Z</time>
      </trkpt>
      <trkpt lat="43.2619630" lon="-1.4887320">
        <ele>352.8</ele>
        <time>2020-07-29T14:12:57Z</time>
      </trkpt>
      <trkpt lat="43.2620990" lon="-1.4887750">
        <ele>351.4</ele>
        <time>2020-07-29T14:12:58Z</time>
      </trkpt>
      <trkpt lat="43.2622360" lon="-1.4888550">
        <ele>350.0</ele>
        <time>2020-07-29T14:12:59Z</time>
      </trkpt>
      <trkpt lat="43.2623640" lon="-1.4889500">
        <ele>348.6</ele>
        <time>2020-07-29T14:13:00Z</time>
      </trkpt>
      <trkpt lat="43.2624890" lon="-1.4890580">
        <ele>347.4</ele>
        <time>2020-07-29T14:13:01Z</time>
      </trkpt>
      <trkpt lat="43.2626080" lon="-1.4891740">
        <ele>346.2</ele>
        <time>2020-07-29T14:13:02Z</time>
      </trkpt>
      <trkpt lat="43.2627220" lon="-1.4892880">
        <ele>345.0</ele>
        <time>2020-07-29T14:13:03Z</time>
      </trkpt>
      <trkpt lat="43.2628260" lon="-1.4894010">
        <ele>344.0</ele>
        <time>2020-07-29T14:13:04Z</time>
      </trkpt>
      <trkpt lat="43.2629280" lon="-1.4895020">
        <ele>342.8</ele>
        <time>2020-07-29T14:13:05Z</time>
      </trkpt>
      <trkpt lat="43.2630360" lon="-1.4895800">
        <ele>342.0</ele>
        <time>2020-07-29T14:13:06Z</time>
      </trkpt>
      <trkpt lat="43.2631510" lon="-1.4896240">
        <ele>341.2</ele>
        <time>2020-07-29T14:13:07Z</time>
      </trkpt>
      <trkpt lat="43.2632670" lon="-1.4896360">
        <ele>340.4</ele>
        <time>2020-07-29T14:13:08Z</time>
      </trkpt>
      <trkpt lat="43.2633800" lon="-1.4896170">
        <ele>339.4</ele>
        <time>2020-07-29T14:13:09Z</time>
      </trkpt>
      <trkpt lat="43.2634920" lon="-1.4895690">
        <ele>338.6</ele>
        <time>2020-07-29T14:13:10Z</time>
      </trkpt>
      <trkpt lat="43.2636000" lon="-1.4894990">
        <ele>337.8</ele>
        <time>2020-07-29T14:13:11Z</time>
      </trkpt>
      <trkpt lat="43.2637010" lon="-1.4894090">
        <ele>337.0</ele>
        <time>2020-07-29T14:13:12Z</time>
      </trkpt>
      <trkpt lat="43.2637860" lon="-1.4892900">
        <ele>336.0</ele>
        <time>2020-07-29T14:13:13Z</time>
      </trkpt>
      <trkpt lat="43.2638560" lon="-1.4891500">
        <ele>335.0</ele>
        <time>2020-07-29T14:13:14Z</time>
      </trkpt>
      <trkpt lat="43.2639200" lon="-1.4890050">
        <ele>334.0</ele>
        <time>2020-07-29T14:13:15Z</time>
      </trkpt>
      <trkpt lat="43.2639710" lon="-1.4888490">
        <ele>333.0</ele>
        <time>2020-07-29T14:13:16Z</time>
      </trkpt>
      <trkpt lat="43.2640170" lon="-1.4886890">
        <ele>332.2</ele>
        <time>2020-07-29T14:13:17Z</time>
      </trkpt>
      <trkpt lat="43.2640630" lon="-1.4883610">
        <ele>330.6</ele>
        <time>2020-07-29T14:13:19Z</time>
      </trkpt>
      <trkpt lat="43.2640770" lon="-1.4882180">
        <ele>330.2</ele>
        <time>2020-07-29T14:13:20Z</time>
      </trkpt>
      <trkpt lat="43.2641020" lon="-1.4880950">
        <ele>330.0</ele>
        <time>2020-07-29T14:13:21Z</time>
      </trkpt>
      <trkpt lat="43.2641400" lon="-1.4879900">
        <ele>329.6</ele>
        <time>2020-07-29T14:13:22Z</time>
      </trkpt>
      <trkpt lat="43.2642000" lon="-1.4879260">
        <ele>329.2</ele>
        <time>2020-07-29T14:13:23Z</time>
      </trkpt>
      <trkpt lat="43.2643440" lon="-1.4880120">
        <ele>328.6</ele>
        <time>2020-07-29T14:13:25Z</time>
      </trkpt>
      <trkpt lat="43.2644040" lon="-1.4882150">
        <ele>327.6</ele>
        <time>2020-07-29T14:13:27Z</time>
      </trkpt>
      <trkpt lat="43.2644040" lon="-1.4883360">
        <ele>327.2</ele>
        <time>2020-07-29T14:13:28Z</time>
      </trkpt>
      <trkpt lat="43.2643960" lon="-1.4884660">
        <ele>327.0</ele>
        <time>2020-07-29T14:13:29Z</time>
      </trkpt>
      <trkpt lat="43.2643850" lon="-1.4885950">
        <ele>326.6</ele>
        <time>2020-07-29T14:13:30Z</time>
      </trkpt>
      <trkpt lat="43.2643680" lon="-1.4887320">
        <ele>326.0</ele>
        <time>2020-07-29T14:13:31Z</time>
      </trkpt>
      <trkpt lat="43.2643300" lon="-1.4890190">
        <ele>325.0</ele>
        <time>2020-07-29T14:13:33Z</time>
      </trkpt>
      <trkpt lat="43.2642860" lon="-1.4893170">
        <ele>322.6</ele>
        <time>2020-07-29T14:13:35Z</time>
      </trkpt>
      <trkpt lat="43.2642700" lon="-1.4894770">
        <ele>321.2</ele>
        <time>2020-07-29T14:13:36Z</time>
      </trkpt>
      <trkpt lat="43.2642560" lon="-1.4898020">
        <ele>320.0</ele>
        <time>2020-07-29T14:13:38Z</time>
      </trkpt>
      <trkpt lat="43.2642670" lon="-1.4899710">
        <ele>319.4</ele>
        <time>2020-07-29T14:13:39Z</time>
      </trkpt>
      <trkpt lat="43.2642900" lon="-1.4901400">
        <ele>318.8</ele>
        <time>2020-07-29T14:13:40Z</time>
      </trkpt>
      <trkpt lat="43.2643550" lon="-1.4904710">
        <ele>317.4</ele>
        <time>2020-07-29T14:13:42Z</time>
      </trkpt>
      <trkpt lat="43.2643870" lon="-1.4906370">
        <ele>317.0</ele>
        <time>2020-07-29T14:13:43Z</time>
      </trkpt>
      <trkpt lat="43.2644080" lon="-1.4908060">
        <ele>316.2</ele>
        <time>2020-07-29T14:13:44Z</time>
      </trkpt>
      <trkpt lat="43.2644160" lon="-1.4909750">
        <ele>315.2</ele>
        <time>2020-07-29T14:13:45Z</time>
      </trkpt>
      <trkpt lat="43.2644020" lon="-1.4911440">
        <ele>313.6</ele>
        <time>2020-07-29T14:13:46Z</time>
      </trkpt>
      <trkpt lat="43.2643610" lon="-1.4913090">
        <ele>311.8</ele>
        <time>2020-07-29T14:13:47Z</time>
      </trkpt>
      <trkpt lat="43.2642820" lon="-1.4914630">
        <ele>310.4</ele>
        <time>2020-07-29T14:13:48Z</time>
      </trkpt>
      <trkpt lat="43.2641900" lon="-1.4916010">
        <ele>309.4</ele>
        <time>2020-07-29T14:13:49Z</time>
      </trkpt>
      <trkpt lat="43.2640650" lon="-1.4917380">
        <ele>308.2</ele>
        <time>2020-07-29T14:13:50Z</time>
      </trkpt>
      <trkpt lat="43.2639320" lon="-1.4918550">
        <ele>307.2</ele>
        <time>2020-07-29T14:13:51Z</time>
      </trkpt>
      <trkpt lat="43.2638020" lon="-1.4919490">
        <ele>306.6</ele>
        <time>2020-07-29T14:13:52Z</time>
      </trkpt>
      <trkpt lat="43.2636680" lon="-1.4920160">
        <ele>306.0</ele>
        <time>2020-07-29T14:13:53Z</time>
      </trkpt>
      <trkpt lat="43.2635310" lon="-1.4920550">
        <ele>305.2</ele>
        <time>2020-07-29T14:13:54Z</time>
      </trkpt>
      <trkpt lat="43.2633950" lon="-1.4920700">
        <ele>304.2</ele>
        <time>2020-07-29T14:13:55Z</time>
      </trkpt>
      <trkpt lat="43.2631490" lon="-1.4920320">
        <ele>302.6</ele>
        <time>2020-07-29T14:13:57Z</time>
      </trkpt>
      <trkpt lat="43.2629550" lon="-1.4919830">
        <ele>302.0</ele>
        <time>2020-07-29T14:13:59Z</time>
      </trkpt>
      <trkpt lat="43.2628780" lon="-1.4919990">
        <ele>301.8</ele>
        <time>2020-07-29T14:14:00Z</time>
      </trkpt>
      <trkpt lat="43.2628210" lon="-1.4920560">
        <ele>301.6</ele>
        <time>2020-07-29T14:14:01Z</time>
      </trkpt>
      <trkpt lat="43.2628130" lon="-1.4921540">
        <ele>301.0</ele>
        <time>2020-07-29T14:14:02Z</time>
      </trkpt>
      <trkpt lat="43.2629070" lon="-1.4922840">
        <ele>300.2</ele>
        <time>2020-07-29T14:14:04Z</time>
      </trkpt>
      <trkpt lat="43.2630740" lon="-1.4923080">
        <ele>298.8</ele>
        <time>2020-07-29T14:14:06Z</time>
      </trkpt>
      <trkpt lat="43.2631620" lon="-1.4923220">
        <ele>298.0</ele>
        <time>2020-07-29T14:14:07Z</time>
      </trkpt>
      <trkpt lat="43.2632510" lon="-1.4923320">
        <ele>297.0</ele>
        <time>2020-07-29T14:14:08Z</time>
      </trkpt>
      <trkpt lat="43.2634470" lon="-1.4923630">
        <ele>295.6</ele>
        <time>2020-07-29T14:14:10Z</time>
      </trkpt>
      <trkpt lat="43.2636490" lon="-1.4924100">
        <ele>294.2</ele>
        <time>2020-07-29T14:14:12Z</time>
      </trkpt>
      <trkpt lat="43.2638610" lon="-1.4924690">
        <ele>292.6</ele>
        <time>2020-07-29T14:14:14Z</time>
      </trkpt>
      <trkpt lat="43.2640790" lon="-1.4925430">
        <ele>291.0</ele>
        <time>2020-07-29T14:14:16Z</time>
      </trkpt>
      <trkpt lat="43.2642970" lon="-1.4926100">
        <ele>289.4</ele>
        <time>2020-07-29T14:14:18Z</time>
      </trkpt>
      <trkpt lat="43.2645170" lon="-1.4926980">
        <ele>287.8</ele>
        <time>2020-07-29T14:14:20Z</time>
      </trkpt>
      <trkpt lat="43.2646320" lon="-1.4927680">
        <ele>287.4</ele>
        <time>2020-07-29T14:14:21Z</time>
      </trkpt>
      <trkpt lat="43.2647380" lon="-1.4928530">
        <ele>287.2</ele>
        <time>2020-07-29T14:14:22Z</time>
      </trkpt>
      <trkpt lat="43.2648310" lon="-1.4929490">
        <ele>286.8</ele>
        <time>2020-07-29T14:14:23Z</time>
      </trkpt>
      <trkpt lat="43.2649890" lon="-1.4931720">
        <ele>285.8</ele>
        <time>2020-07-29T14:14:25Z</time>
      </trkpt>
      <trkpt lat="43.2651230" lon="-1.4934100">
        <ele>284.8</ele>
        <time>2020-07-29T14:14:27Z</time>
      </trkpt>
      <trkpt lat="43.2652530" lon="-1.4936480">
        <ele>282.8</ele>
        <time>2020-07-29T14:14:29Z</time>
      </trkpt>
      <trkpt lat="43.2653950" lon="-1.4938700">
        <ele>281.4</ele>
        <time>2020-07-29T14:14:31Z</time>
      </trkpt>
      <trkpt lat="43.2656470" lon="-1.4941640">
        <ele>280.4</ele>
        <time>2020-07-29T14:14:34Z</time>
      </trkpt>
      <trkpt lat="43.2657390" lon="-1.4942560">
        <ele>280.0</ele>
        <time>2020-07-29T14:14:35Z</time>
      </trkpt>
      <trkpt lat="43.2659330" lon="-1.4944390">
        <ele>279.0</ele>
        <time>2020-07-29T14:14:37Z</time>
      </trkpt>
      <trkpt lat="43.2661500" lon="-1.4945850">
        <ele>277.4</ele>
        <time>2020-07-29T14:14:39Z</time>
      </trkpt>
      <trkpt lat="43.2662640" lon="-1.4946410">
        <ele>276.4</ele>
        <time>2020-07-29T14:14:40Z</time>
      </trkpt>
      <trkpt lat="43.2664970" lon="-1.4947280">
        <ele>274.8</ele>
        <time>2020-07-29T14:14:42Z</time>
      </trkpt>
      <trkpt lat="43.2666140" lon="-1.4947650">
        <ele>273.8</ele>
        <time>2020-07-29T14:14:43Z</time>
      </trkpt>
      <trkpt lat="43.2667330" lon="-1.4948020">
        <ele>272.6</ele>
        <time>2020-07-29T14:14:44Z</time>
      </trkpt>
      <trkpt lat="43.2669740" lon="-1.4948790">
        <ele>271.4</ele>
        <time>2020-07-29T14:14:46Z</time>
      </trkpt>
      <trkpt lat="43.2673370" lon="-1.4950180">
        <ele>270.0</ele>
        <time>2020-07-29T14:14:49Z</time>
      </trkpt>
      <trkpt lat="43.2674570" lon="-1.4950640">
        <ele>269.0</ele>
        <time>2020-07-29T14:14:50Z</time>
      </trkpt>
      <trkpt lat="43.2675740" lon="-1.4951060">
        <ele>267.8</ele>
        <time>2020-07-29T14:14:51Z</time>
      </trkpt>
      <trkpt lat="43.2676890" lon="-1.4951440">
        <ele>266.8</ele>
        <time>2020-07-29T14:14:52Z</time>
      </trkpt>
      <trkpt lat="43.2678060" lon="-1.4951730">
        <ele>265.6</ele>
        <time>2020-07-29T14:14:53Z</time>
      </trkpt>
      <trkpt lat="43.2679210" lon="-1.4951940">
        <ele>264.4</ele>
        <time>2020-07-29T14:14:54Z</time>
      </trkpt>
      <trkpt lat="43.2680290" lon="-1.4952140">
        <ele>263.4</ele>
        <time>2020-07-29T14:14:55Z</time>
      </trkpt>
      <trkpt lat="43.2681330" lon="-1.4952540">
        <ele>262.4</ele>
        <time>2020-07-29T14:14:56Z</time>
      </trkpt>
      <trkpt lat="43.2682300" lon="-1.4953310">
        <ele>261.2</ele>
        <time>2020-07-29T14:14:57Z</time>
      </trkpt>
      <trkpt lat="43.2683080" lon="-1.4954450">
        <ele>260.0</ele>
        <time>2020-07-29T14:14:58Z</time>
      </trkpt>
      <trkpt lat="43.2683570" lon="-1.4955830">
        <ele>259.0</ele>
        <time>2020-07-29T14:14:59Z</time>
      </trkpt>
      <trkpt lat="43.2683640" lon="-1.4957250">
        <ele>257.8</ele>
        <time>2020-07-29T14:15:00Z</time>
      </trkpt>
      <trkpt lat="43.2683470" lon="-1.4958740">
        <ele>256.6</ele>
        <time>2020-07-29T14:15:01Z</time>
      </trkpt>
      <trkpt lat="43.2683070" lon="-1.4960250">
        <ele>256.0</ele>
        <time>2020-07-29T14:15:02Z</time>
      </trkpt>
      <trkpt lat="43.2682320" lon="-1.4961700">
        <ele>255.4</ele>
        <time>2020-07-29T14:15:03Z</time>
      </trkpt>
      <trkpt lat="43.2681380" lon="-1.4963110">
        <ele>255.0</ele>
        <time>2020-07-29T14:15:04Z</time>
      </trkpt>
      <trkpt lat="43.2680470" lon="-1.4964540">
        <ele>254.0</ele>
        <time>2020-07-29T14:15:05Z</time>
      </trkpt>
      <trkpt lat="43.2679450" lon="-1.4965920">
        <ele>252.2</ele>
        <time>2020-07-29T14:15:06Z</time>
      </trkpt>
      <trkpt lat="43.2678400" lon="-1.4967290">
        <ele>250.0</ele>
        <time>2020-07-29T14:15:07Z</time>
      </trkpt>
      <trkpt lat="43.2677330" lon="-1.4968620">
        <ele>248.2</ele>
        <time>2020-07-29T14:15:08Z</time>
      </trkpt>
      <trkpt lat="43.2676250" lon="-1.4969940">
        <ele>246.8</ele>
        <time>2020-07-29T14:15:09Z</time>
      </trkpt>
      <trkpt lat="43.2675090" lon="-1.4971120">
        <ele>245.6</ele>
        <time>2020-07-29T14:15:10Z</time>
      </trkpt>
      <trkpt lat="43.2673900" lon="-1.4972250">
        <ele>244.2</ele>
        <time>2020-07-29T14:15:11Z</time>
      </trkpt>
      <trkpt lat="43.2672740" lon="-1.4973320">
        <ele>243.0</ele>
        <time>2020-07-29T14:15:12Z</time>
      </trkpt>
      <trkpt lat="43.2671650" lon="-1.4974320">
        <ele>242.0</ele>
        <time>2020-07-29T14:15:13Z</time>
      </trkpt>
      <trkpt lat="43.2670560" lon="-1.4975160">
        <ele>241.0</ele>
        <time>2020-07-29T14:15:14Z</time>
      </trkpt>
      <trkpt lat="43.2669400" lon="-1.4975680">
        <ele>240.4</ele>
        <time>2020-07-29T14:15:15Z</time>
      </trkpt>
      <trkpt lat="43.2668180" lon="-1.4975730">
        <ele>239.8</ele>
        <time>2020-07-29T14:15:16Z</time>
      </trkpt>
      <trkpt lat="43.2667000" lon="-1.4975450">
        <ele>239.0</ele>
        <time>2020-07-29T14:15:17Z</time>
      </trkpt>
      <trkpt lat="43.2665100" lon="-1.4974970">
        <ele>237.6</ele>
        <time>2020-07-29T14:15:19Z</time>
      </trkpt>
      <trkpt lat="43.2664380" lon="-1.4975140">
        <ele>237.2</ele>
        <time>2020-07-29T14:15:20Z</time>
      </trkpt>
      <trkpt lat="43.2663880" lon="-1.4975720">
        <ele>237.0</ele>
        <time>2020-07-29T14:15:21Z</time>
      </trkpt>
      <trkpt lat="43.2663730" lon="-1.4976560">
        <ele>236.6</ele>
        <time>2020-07-29T14:15:22Z</time>
      </trkpt>
      <trkpt lat="43.2664030" lon="-1.4977460">
        <ele>236.2</ele>
        <time>2020-07-29T14:15:23Z</time>
      </trkpt>
      <trkpt lat="43.2664560" lon="-1.4978170">
        <ele>235.6</ele>
        <time>2020-07-29T14:15:24Z</time>
      </trkpt>
      <trkpt lat="43.2665320" lon="-1.4978620">
        <ele>234.6</ele>
        <time>2020-07-29T14:15:25Z</time>
      </trkpt>
      <trkpt lat="43.2666190" lon="-1.4978960">
        <ele>233.6</ele>
        <time>2020-07-29T14:15:26Z</time>
      </trkpt>
      <trkpt lat="43.2667130" lon="-1.4979240">
        <ele>232.6</ele>
        <time>2020-07-29T14:15:27Z</time>
      </trkpt>
      <trkpt lat="43.2668090" lon="-1.4979460">
        <ele>231.6</ele>
        <time>2020-07-29T14:15:28Z</time>
      </trkpt>
      <trkpt lat="43.2669170" lon="-1.4979470">
        <ele>230.4</ele>
        <time>2020-07-29T14:15:29Z</time>
      </trkpt>
      <trkpt lat="43.2670300" lon="-1.4979300">
        <ele>229.0</ele>
        <time>2020-07-29T14:15:30Z</time>
      </trkpt>
      <trkpt lat="43.2671480" lon="-1.4978980">
        <ele>227.8</ele>
        <time>2020-07-29T14:15:31Z</time>
      </trkpt>
      <trkpt lat="43.2672690" lon="-1.4978620">
        <ele>226.6</ele>
        <time>2020-07-29T14:15:32Z</time>
      </trkpt>
      <trkpt lat="43.2673910" lon="-1.4978340">
        <ele>225.2</ele>
        <time>2020-07-29T14:15:33Z</time>
      </trkpt>
      <trkpt lat="43.2675160" lon="-1.4978080">
        <ele>223.6</ele>
        <time>2020-07-29T14:15:34Z</time>
      </trkpt>
      <trkpt lat="43.2676410" lon="-1.4977840">
        <ele>222.0</ele>
        <time>2020-07-29T14:15:35Z</time>
      </trkpt>
      <trkpt lat="43.2677690" lon="-1.4977610">
        <ele>220.0</ele>
        <time>2020-07-29T14:15:36Z</time>
      </trkpt>
      <trkpt lat="43.2679010" lon="-1.4977410">
        <ele>218.2</ele>
        <time>2020-07-29T14:15:37Z</time>
      </trkpt>
      <trkpt lat="43.2680340" lon="-1.4977110">
        <ele>216.6</ele>
        <time>2020-07-29T14:15:38Z</time>
      </trkpt>
      <trkpt lat="43.2681650" lon="-1.4976580">
        <ele>215.2</ele>
        <time>2020-07-29T14:15:39Z</time>
      </trkpt>
      <trkpt lat="43.2682910" lon="-1.4975750">
        <ele>214.0</ele>
        <time>2020-07-29T14:15:40Z</time>
      </trkpt>
      <trkpt lat="43.2684060" lon="-1.4974610">
        <ele>212.8</ele>
        <time>2020-07-29T14:15:41Z</time>
      </trkpt>
      <trkpt lat="43.2685100" lon="-1.4973300">
        <ele>212.0</ele>
        <time>2020-07-29T14:15:42Z</time>
      </trkpt>
      <trkpt lat="43.2686070" lon="-1.4971870">
        <ele>211.0</ele>
        <time>2020-07-29T14:15:43Z</time>
      </trkpt>
      <trkpt lat="43.2687120" lon="-1.4970530">
        <ele>209.6</ele>
        <time>2020-07-29T14:15:44Z</time>
      </trkpt>
      <trkpt lat="43.2688240" lon="-1.4969470">
        <ele>208.2</ele>
        <time>2020-07-29T14:15:45Z</time>
      </trkpt>
      <trkpt lat="43.2689430" lon="-1.4968550">
        <ele>206.8</ele>
        <time>2020-07-29T14:15:46Z</time>
      </trkpt>
      <trkpt lat="43.2690670" lon="-1.4967620">
        <ele>205.4</ele>
        <time>2020-07-29T14:15:47Z</time>
      </trkpt>
      <trkpt lat="43.2691860" lon="-1.4966550">
        <ele>204.2</ele>
        <time>2020-07-29T14:15:48Z</time>
      </trkpt>
      <trkpt lat="43.2693010" lon="-1.4965360">
        <ele>203.2</ele>
        <time>2020-07-29T14:15:49Z</time>
      </trkpt>
      <trkpt lat="43.2694040" lon="-1.4963950">
        <ele>202.0</ele>
        <time>2020-07-29T14:15:50Z</time>
      </trkpt>
      <trkpt lat="43.2694970" lon="-1.4962380">
        <ele>200.2</ele>
        <time>2020-07-29T14:15:51Z</time>
      </trkpt>
      <trkpt lat="43.2695860" lon="-1.4960760">
        <ele>198.4</ele>
        <time>2020-07-29T14:15:52Z</time>
      </trkpt>
      <trkpt lat="43.2696660" lon="-1.4959160">
        <ele>197.0</ele>
        <time>2020-07-29T14:15:53Z</time>
      </trkpt>
      <trkpt lat="43.2697390" lon="-1.4957640">
        <ele>195.6</ele>
        <time>2020-07-29T14:15:54Z</time>
      </trkpt>
      <trkpt lat="43.2698530" lon="-1.4954460">
        <ele>194.2</ele>
        <time>2020-07-29T14:15:56Z</time>
      </trkpt>
      <trkpt lat="43.2699080" lon="-1.4950880">
        <ele>193.2</ele>
        <time>2020-07-29T14:15:58Z</time>
      </trkpt>
      <trkpt lat="43.2699200" lon="-1.4948960">
        <ele>192.0</ele>
        <time>2020-07-29T14:15:59Z</time>
      </trkpt>
      <trkpt lat="43.2699320" lon="-1.4947020">
        <ele>190.2</ele>
        <time>2020-07-29T14:16:00Z</time>
      </trkpt>
      <trkpt lat="43.2699550" lon="-1.4945130">
        <ele>188.6</ele>
        <time>2020-07-29T14:16:01Z</time>
      </trkpt>
      <trkpt lat="43.2699950" lon="-1.4943330">
        <ele>187.0</ele>
        <time>2020-07-29T14:16:02Z</time>
      </trkpt>
      <trkpt lat="43.2700570" lon="-1.4941700">
        <ele>185.4</ele>
        <time>2020-07-29T14:16:03Z</time>
      </trkpt>
      <trkpt lat="43.2701380" lon="-1.4940230">
        <ele>184.0</ele>
        <time>2020-07-29T14:16:04Z</time>
      </trkpt>
      <trkpt lat="43.2702410" lon="-1.4939020">
        <ele>182.6</ele>
        <time>2020-07-29T14:16:05Z</time>
      </trkpt>
      <trkpt lat="43.2703590" lon="-1.4938090">
        <ele>181.0</ele>
        <time>2020-07-29T14:16:06Z</time>
      </trkpt>
      <trkpt lat="43.2704890" lon="-1.4937430">
        <ele>179.8</ele>
        <time>2020-07-29T14:16:07Z</time>
      </trkpt>
      <trkpt lat="43.2706250" lon="-1.4937020">
        <ele>178.6</ele>
        <time>2020-07-29T14:16:08Z</time>
      </trkpt>
      <trkpt lat="43.2707570" lon="-1.4936810">
        <ele>177.0</ele>
        <time>2020-07-29T14:16:09Z</time>
      </trkpt>
      <trkpt lat="43.2708900" lon="-1.4936880">
        <ele>175.6</ele>
        <time>2020-07-29T14:16:10Z</time>
      </trkpt>
      <trkpt lat="43.2710210" lon="-1.4937090">
        <ele>174.6</ele>
        <time>2020-07-29T14:16:11Z</time>
      </trkpt>
      <trkpt lat="43.2712710" lon="-1.4937780">
        <ele>173.6</ele>
        <time>2020-07-29T14:16:13Z</time>
      </trkpt>
      <trkpt lat="43.2713880" lon="-1.4938130">
        <ele>173.2</ele>
        <time>2020-07-29T14:16:14Z</time>
      </trkpt>
      <trkpt lat="43.2718410" lon="-1.4939710">
        <ele>172.2</ele>
        <time>2020-07-29T14:16:18Z</time>
      </trkpt>
      <trkpt lat="43.2719470" lon="-1.4940320">
        <ele>172.0</ele>
        <time>2020-07-29T14:16:19Z</time>
      </trkpt>
      <trkpt lat="43.2721230" lon="-1.4941880">
        <ele>172.4</ele>
        <time>2020-07-29T14:16:21Z</time>
      </trkpt>
      <trkpt lat="43.2721900" lon="-1.4942770">
        <ele>172.8</ele>
        <time>2020-07-29T14:16:22Z</time>
      </trkpt>
      <trkpt lat="43.2723110" lon="-1.4944510">
        <ele>173.6</ele>
        <time>2020-07-29T14:16:24Z</time>
      </trkpt>
      <trkpt lat="43.2724640" lon="-1.4946840">
        <ele>174.8</ele>
        <time>2020-07-29T14:16:27Z</time>
      </trkpt>
      <trkpt lat="43.2725400" lon="-1.4948190">
        <ele>175.4</ele>
        <time>2020-07-29T14:16:29Z</time>
      </trkpt>
      <trkpt lat="43.2726040" lon="-1.4949350">
        <ele>176.2</ele>
        <time>2020-07-29T14:16:31Z</time>
      </trkpt>
      <trkpt lat="43.2726340" lon="-1.4949840">
        <ele>176.8</ele>
        <time>2020-07-29T14:16:32Z</time>
      </trkpt>
      <trkpt lat="43.2726660" lon="-1.4950260">
        <ele>177.4</ele>
        <time>2020-07-29T14:16:33Z</time>
      </trkpt>
      <trkpt lat="43.2727300" lon="-1.4951100">
        <ele>178.6</ele>
        <time>2020-07-29T14:16:35Z</time>
      </trkpt>
      <trkpt lat="43.2727690" lon="-1.4951470">
        <ele>179.0</ele>
        <time>2020-07-29T14:16:36Z</time>
      </trkpt>
      <trkpt lat="43.2728540" lon="-1.4952090">
        <ele>179.6</ele>
        <time>2020-07-29T14:16:38Z</time>
      </trkpt>
      <trkpt lat="43.2728950" lon="-1.4952410">
        <ele>179.8</ele>
        <time>2020-07-29T14:16:39Z</time>
      </trkpt>
      <trkpt lat="43.2729780" lon="-1.4952950">
        <ele>180.2</ele>
        <time>2020-07-29T14:16:41Z</time>
      </trkpt>
      <trkpt lat="43.2730220" lon="-1.4953190">
        <ele>180.8</ele>
        <time>2020-07-29T14:16:42Z</time>
      </trkpt>
      <trkpt lat="43.2730650" lon="-1.4953460">
        <ele>181.2</ele>
        <time>2020-07-29T14:16:43Z</time>
      </trkpt>
      <trkpt lat="43.2731840" lon="-1.4954240">
        <ele>182.4</ele>
        <time>2020-07-29T14:16:46Z</time>
      </trkpt>
      <trkpt lat="43.2732250" lon="-1.4954530">
        <ele>183.0</ele>
        <time>2020-07-29T14:16:47Z</time>
      </trkpt>
      <trkpt lat="43.2732640" lon="-1.4954820">
        <ele>183.6</ele>
        <time>2020-07-29T14:16:48Z</time>
      </trkpt>
      <trkpt lat="43.2734100" lon="-1.4955950">
        <ele>184.8</ele>
        <time>2020-07-29T14:16:52Z</time>
      </trkpt>
      <trkpt lat="43.2735120" lon="-1.4956900">
        <ele>185.8</ele>
        <time>2020-07-29T14:16:55Z</time>
      </trkpt>
      <trkpt lat="43.2735420" lon="-1.4957190">
        <ele>186.0</ele>
        <time>2020-07-29T14:16:56Z</time>
      </trkpt>
      <trkpt lat="43.2737410" lon="-1.4958890">
        <ele>187.0</ele>
        <time>2020-07-29T14:17:02Z</time>
      </trkpt>
      <trkpt lat="43.2737760" lon="-1.4959190">
        <ele>187.0</ele>
        <time>2020-07-29T14:17:03Z</time>
      </trkpt>
      <trkpt lat="43.2740150" lon="-1.4961060">
        <ele>186.6</ele>
        <time>2020-07-29T14:17:09Z</time>
      </trkpt>
      <trkpt lat="43.2742750" lon="-1.4963140">
        <ele>185.8</ele>
        <time>2020-07-29T14:17:14Z</time>
      </trkpt>
      <trkpt lat="43.2743330" lon="-1.4963630">
        <ele>185.4</ele>
        <time>2020-07-29T14:17:15Z</time>
      </trkpt>
      <trkpt lat="43.2743920" lon="-1.4964160">
        <ele>185.0</ele>
        <time>2020-07-29T14:17:16Z</time>
      </trkpt>
      <trkpt lat="43.2745730" lon="-1.4965860">
        <ele>183.4</ele>
        <time>2020-07-29T14:17:19Z</time>
      </trkpt>
      <trkpt lat="43.2746300" lon="-1.4966510">
        <ele>182.8</ele>
        <time>2020-07-29T14:17:20Z</time>
      </trkpt>
      <trkpt lat="43.2746810" lon="-1.4967220">
        <ele>182.2</ele>
        <time>2020-07-29T14:17:21Z</time>
      </trkpt>
      <trkpt lat="43.2747280" lon="-1.4968000">
        <ele>181.8</ele>
        <time>2020-07-29T14:17:22Z</time>
      </trkpt>
      <trkpt lat="43.2747710" lon="-1.4968850">
        <ele>181.6</ele>
        <time>2020-07-29T14:17:23Z</time>
      </trkpt>
      <trkpt lat="43.2748700" lon="-1.4971620">
        <ele>181.4</ele>
        <time>2020-07-29T14:17:26Z</time>
      </trkpt>
      <trkpt lat="43.2749450" lon="-1.4974520">
        <ele>181.2</ele>
        <time>2020-07-29T14:17:29Z</time>
      </trkpt>
      <trkpt lat="43.2749680" lon="-1.4975520">
        <ele>181.2</ele>
        <time>2020-07-29T14:17:30Z</time>
      </trkpt>
      <trkpt lat="43.2750330" lon="-1.4978550">
        <ele>180.8</ele>
        <time>2020-07-29T14:17:33Z</time>
      </trkpt>
      <trkpt lat="43.2750540" lon="-1.4980640">
        <ele>180.0</ele>
        <time>2020-07-29T14:17:35Z</time>
      </trkpt>
      <trkpt lat="43.2750260" lon="-1.4982940">
        <ele>179.4</ele>
        <time>2020-07-29T14:17:37Z</time>
      </trkpt>
      <trkpt lat="43.2749990" lon="-1.4984110">
        <ele>178.8</ele>
        <time>2020-07-29T14:17:38Z</time>
      </trkpt>
      <trkpt lat="43.2749210" lon="-1.4986500">
        <ele>177.2</ele>
        <time>2020-07-29T14:17:40Z</time>
      </trkpt>
      <trkpt lat="43.2748810" lon="-1.4987740">
        <ele>176.2</ele>
        <time>2020-07-29T14:17:41Z</time>
      </trkpt>
      <trkpt lat="43.2748330" lon="-1.4988980">
        <ele>175.2</ele>
        <time>2020-07-29T14:17:42Z</time>
      </trkpt>
      <trkpt lat="43.2747800" lon="-1.4990160">
        <ele>174.6</ele>
        <time>2020-07-29T14:17:43Z</time>
      </trkpt>
      <trkpt lat="43.2747160" lon="-1.4991320">
        <ele>174.0</ele>
        <time>2020-07-29T14:17:44Z</time>
      </trkpt>
      <trkpt lat="43.2746470" lon="-1.4992440">
        <ele>173.4</ele>
        <time>2020-07-29T14:17:45Z</time>
      </trkpt>
      <trkpt lat="43.2745780" lon="-1.4993640">
        <ele>172.8</ele>
        <time>2020-07-29T14:17:46Z</time>
      </trkpt>
      <trkpt lat="43.2744420" lon="-1.4996060">
        <ele>171.6</ele>
        <time>2020-07-29T14:17:48Z</time>
      </trkpt>
      <trkpt lat="43.2743180" lon="-1.4998770">
        <ele>169.8</ele>
        <time>2020-07-29T14:17:50Z</time>
      </trkpt>
      <trkpt lat="43.2742650" lon="-1.5000200">
        <ele>169.0</ele>
        <time>2020-07-29T14:17:51Z</time>
      </trkpt>
      <trkpt lat="43.2742110" lon="-1.5001650">
        <ele>168.2</ele>
        <time>2020-07-29T14:17:52Z</time>
      </trkpt>
      <trkpt lat="43.2740970" lon="-1.5004740">
        <ele>166.2</ele>
        <time>2020-07-29T14:17:54Z</time>
      </trkpt>
      <trkpt lat="43.2740600" lon="-1.5006430">
        <ele>165.0</ele>
        <time>2020-07-29T14:17:55Z</time>
      </trkpt>
      <trkpt lat="43.2740420" lon="-1.5008160">
        <ele>164.0</ele>
        <time>2020-07-29T14:17:56Z</time>
      </trkpt>
      <trkpt lat="43.2740500" lon="-1.5009990">
        <ele>162.8</ele>
        <time>2020-07-29T14:17:57Z</time>
      </trkpt>
      <trkpt lat="43.2740850" lon="-1.5011790">
        <ele>161.6</ele>
        <time>2020-07-29T14:17:58Z</time>
      </trkpt>
      <trkpt lat="43.2741290" lon="-1.5013570">
        <ele>160.6</ele>
        <time>2020-07-29T14:17:59Z</time>
      </trkpt>
      <trkpt lat="43.2741870" lon="-1.5015310">
        <ele>159.8</ele>
        <time>2020-07-29T14:18:00Z</time>
      </trkpt>
      <trkpt lat="43.2743070" lon="-1.5018720">
        <ele>157.8</ele>
        <time>2020-07-29T14:18:02Z</time>
      </trkpt>
      <trkpt lat="43.2743400" lon="-1.5020520">
        <ele>156.6</ele>
        <time>2020-07-29T14:18:03Z</time>
      </trkpt>
      <trkpt lat="43.2743480" lon="-1.5022380">
        <ele>155.4</ele>
        <time>2020-07-29T14:18:04Z</time>
      </trkpt>
      <trkpt lat="43.2743360" lon="-1.5024200">
        <ele>154.2</ele>
        <time>2020-07-29T14:18:05Z</time>
      </trkpt>
      <trkpt lat="43.2743100" lon="-1.5027830">
        <ele>152.2</ele>
        <time>2020-07-29T14:18:07Z</time>
      </trkpt>
      <trkpt lat="43.2743180" lon="-1.5029720">
        <ele>151.0</ele>
        <time>2020-07-29T14:18:08Z</time>
      </trkpt>
      <trkpt lat="43.2743440" lon="-1.5031550">
        <ele>150.0</ele>
        <time>2020-07-29T14:18:09Z</time>
      </trkpt>
      <trkpt lat="43.2744200" lon="-1.5035120">
        <ele>148.4</ele>
        <time>2020-07-29T14:18:11Z</time>
      </trkpt>
      <trkpt lat="43.2745270" lon="-1.5038490">
        <ele>146.8</ele>
        <time>2020-07-29T14:18:13Z</time>
      </trkpt>
      <trkpt lat="43.2745980" lon="-1.5040060">
        <ele>145.8</ele>
        <time>2020-07-29T14:18:14Z</time>
      </trkpt>
      <trkpt lat="43.2746830" lon="-1.5041480">
        <ele>144.6</ele>
        <time>2020-07-29T14:18:15Z</time>
      </trkpt>
      <trkpt lat="43.2747810" lon="-1.5042740">
        <ele>143.8</ele>
        <time>2020-07-29T14:18:16Z</time>
      </trkpt>
      <trkpt lat="43.2748870" lon="-1.5043860">
        <ele>142.8</ele>
        <time>2020-07-29T14:18:17Z</time>
      </trkpt>
      <trkpt lat="43.2751190" lon="-1.5045410">
        <ele>141.0</ele>
        <time>2020-07-29T14:18:19Z</time>
      </trkpt>
      <trkpt lat="43.2753720" lon="-1.5046010">
        <ele>139.0</ele>
        <time>2020-07-29T14:18:21Z</time>
      </trkpt>
      <trkpt lat="43.2755000" lon="-1.5045990">
        <ele>138.0</ele>
        <time>2020-07-29T14:18:22Z</time>
      </trkpt>
      <trkpt lat="43.2756300" lon="-1.5045740">
        <ele>137.2</ele>
        <time>2020-07-29T14:18:23Z</time>
      </trkpt>
      <trkpt lat="43.2757460" lon="-1.5045390">
        <ele>136.6</ele>
        <time>2020-07-29T14:18:24Z</time>
      </trkpt>
      <trkpt lat="43.2758610" lon="-1.5045020">
        <ele>136.0</ele>
        <time>2020-07-29T14:18:25Z</time>
      </trkpt>
      <trkpt lat="43.2759790" lon="-1.5044570">
        <ele>135.4</ele>
        <time>2020-07-29T14:18:26Z</time>
      </trkpt>
      <trkpt lat="43.2763360" lon="-1.5042520">
        <ele>134.0</ele>
        <time>2020-07-29T14:18:29Z</time>
      </trkpt>
      <trkpt lat="43.2764470" lon="-1.5041410">
        <ele>133.6</ele>
        <time>2020-07-29T14:18:30Z</time>
      </trkpt>
      <trkpt lat="43.2765520" lon="-1.5039990">
        <ele>132.8</ele>
        <time>2020-07-29T14:18:31Z</time>
      </trkpt>
      <trkpt lat="43.2766500" lon="-1.5038640">
        <ele>132.2</ele>
        <time>2020-07-29T14:18:32Z</time>
      </trkpt>
      <trkpt lat="43.2767440" lon="-1.5037560">
        <ele>131.4</ele>
        <time>2020-07-29T14:18:33Z</time>
      </trkpt>
      <trkpt lat="43.2768430" lon="-1.5036580">
        <ele>130.4</ele>
        <time>2020-07-29T14:18:34Z</time>
      </trkpt>
      <trkpt lat="43.2769490" lon="-1.5035760">
        <ele>129.4</ele>
        <time>2020-07-29T14:18:35Z</time>
      </trkpt>
      <trkpt lat="43.2770580" lon="-1.5035160">
        <ele>128.2</ele>
        <time>2020-07-29T14:18:36Z</time>
      </trkpt>
      <trkpt lat="43.2771720" lon="-1.5034770">
        <ele>127.4</ele>
        <time>2020-07-29T14:18:37Z</time>
      </trkpt>
      <trkpt lat="43.2772900" lon="-1.5034630">
        <ele>126.4</ele>
        <time>2020-07-29T14:18:38Z</time>
      </trkpt>
      <trkpt lat="43.2774100" lon="-1.5034580">
        <ele>125.8</ele>
        <time>2020-07-29T14:18:39Z</time>
      </trkpt>
      <trkpt lat="43.2775320" lon="-1.5034490">
        <ele>125.4</ele>
        <time>2020-07-29T14:18:40Z</time>
      </trkpt>
      <trkpt lat="43.2776550" lon="-1.5034350">
        <ele>124.6</ele>
        <time>2020-07-29T14:18:41Z</time>
      </trkpt>
      <trkpt lat="43.2777760" lon="-1.5034170">
        <ele>123.8</ele>
        <time>2020-07-29T14:18:42Z</time>
      </trkpt>
      <trkpt lat="43.2780120" lon="-1.5034170">
        <ele>122.6</ele>
        <time>2020-07-29T14:18:44Z</time>
      </trkpt>
      <trkpt lat="43.2782630" lon="-1.5034860">
        <ele>121.4</ele>
        <time>2020-07-29T14:18:46Z</time>
      </trkpt>
      <trkpt lat="43.2785220" lon="-1.5035920">
        <ele>119.8</ele>
        <time>2020-07-29T14:18:48Z</time>
      </trkpt>
      <trkpt lat="43.2787740" lon="-1.5036730">
        <ele>118.0</ele>
        <time>2020-07-29T14:18:50Z</time>
      </trkpt>
      <trkpt lat="43.2790330" lon="-1.5037330">
        <ele>116.2</ele>
        <time>2020-07-29T14:18:52Z</time>
      </trkpt>
      <trkpt lat="43.2791670" lon="-1.5037620">
        <ele>115.4</ele>
        <time>2020-07-29T14:18:53Z</time>
      </trkpt>
      <trkpt lat="43.2792980" lon="-1.5037950">
        <ele>114.6</ele>
        <time>2020-07-29T14:18:54Z</time>
      </trkpt>
      <trkpt lat="43.2794250" lon="-1.5038430">
        <ele>113.4</ele>
        <time>2020-07-29T14:18:55Z</time>
      </trkpt>
      <trkpt lat="43.2795490" lon="-1.5039010">
        <ele>112.4</ele>
        <time>2020-07-29T14:18:56Z</time>
      </trkpt>
      <trkpt lat="43.2796730" lon="-1.5039750">
        <ele>111.6</ele>
        <time>2020-07-29T14:18:57Z</time>
      </trkpt>
      <trkpt lat="43.2797920" lon="-1.5040480">
        <ele>111.0</ele>
        <time>2020-07-29T14:18:58Z</time>
      </trkpt>
      <trkpt lat="43.2802350" lon="-1.5043050">
        <ele>110.0</ele>
        <time>2020-07-29T14:19:02Z</time>
      </trkpt>
      <trkpt lat="43.2806790" lon="-1.5046070">
        <ele>112.2</ele>
        <time>2020-07-29T14:19:07Z</time>
      </trkpt>
      <trkpt lat="43.2808300" lon="-1.5047210">
        <ele>113.2</ele>
        <time>2020-07-29T14:19:09Z</time>
      </trkpt>
      <trkpt lat="43.2810360" lon="-1.5048630">
        <ele>114.4</ele>
        <time>2020-07-29T14:19:12Z</time>
      </trkpt>
      <trkpt lat="43.2810990" lon="-1.5049030">
        <ele>114.6</ele>
        <time>2020-07-29T14:19:13Z</time>
      </trkpt>
      <trkpt lat="43.2813960" lon="-1.5050940">
        <ele>115.6</ele>
        <time>2020-07-29T14:19:18Z</time>
      </trkpt>
      <trkpt lat="43.2815240" lon="-1.5051490">
        <ele>115.6</ele>
        <time>2020-07-29T14:19:20Z</time>
      </trkpt>
      <trkpt lat="43.2819370" lon="-1.5052970">
        <ele>115.0</ele>
        <time>2020-07-29T14:19:26Z</time>
      </trkpt>
      <trkpt lat="43.2820120" lon="-1.5053100">
        <ele>114.8</ele>
        <time>2020-07-29T14:19:27Z</time>
      </trkpt>
      <trkpt lat="43.2821630" lon="-1.5053340">
        <ele>114.2</ele>
        <time>2020-07-29T14:19:29Z</time>
      </trkpt>
      <trkpt lat="43.2822400" lon="-1.5053440">
        <ele>113.8</ele>
        <time>2020-07-29T14:19:30Z</time>
      </trkpt>
      <trkpt lat="43.2823930" lon="-1.5053720">
        <ele>112.8</ele>
        <time>2020-07-29T14:19:32Z</time>
      </trkpt>
      <trkpt lat="43.2825510" lon="-1.5053900">
        <ele>111.6</ele>
        <time>2020-07-29T14:19:34Z</time>
      </trkpt>
      <trkpt lat="43.2827880" lon="-1.5054220">
        <ele>110.6</ele>
        <time>2020-07-29T14:19:37Z</time>
      </trkpt>
      <trkpt lat="43.2831770" lon="-1.5054750">
        <ele>109.4</ele>
        <time>2020-07-29T14:19:42Z</time>
      </trkpt>
      <trkpt lat="43.2834180" lon="-1.5055070">
        <ele>109.0</ele>
        <time>2020-07-29T14:19:45Z</time>
      </trkpt>
      <trkpt lat="43.2836640" lon="-1.5055490">
        <ele>108.4</ele>
        <time>2020-07-29T14:19:48Z</time>
      </trkpt>
      <trkpt lat="43.2839940" lon="-1.5056050">
        <ele>107.4</ele>
        <time>2020-07-29T14:19:52Z</time>
      </trkpt>
      <trkpt lat="43.2841450" lon="-1.5056290">
        <ele>107.2</ele>
        <time>2020-07-29T14:19:54Z</time>
      </trkpt>
      <trkpt lat="43.2844680" lon="-1.5056760">
        <ele>106.2</ele>
        <time>2020-07-29T14:19:59Z</time>
      </trkpt>
      <trkpt lat="43.2845240" lon="-1.5056830">
        <ele>105.8</ele>
        <time>2020-07-29T14:20:00Z</time>
      </trkpt>
      <trkpt lat="43.2846250" lon="-1.5056800">
        <ele>105.4</ele>
        <time>2020-07-29T14:20:02Z</time>
      </trkpt>
      <trkpt lat="43.2847310" lon="-1.5056530">
        <ele>105.2</ele>
        <time>2020-07-29T14:20:04Z</time>
      </trkpt>
      <trkpt lat="43.2847800" lon="-1.5056520">
        <ele>105.0</ele>
        <time>2020-07-29T14:20:05Z</time>
      </trkpt>
      <trkpt lat="43.2848820" lon="-1.5056840">
        <ele>104.8</ele>
        <time>2020-07-29T14:20:07Z</time>
      </trkpt>
      <trkpt lat="43.2849820" lon="-1.5057430">
        <ele>104.6</ele>
        <time>2020-07-29T14:20:09Z</time>
      </trkpt>
      <trkpt lat="43.2851560" lon="-1.5057950">
        <ele>104.6</ele>
        <time>2020-07-29T14:20:12Z</time>
      </trkpt>
      <trkpt lat="43.2853820" lon="-1.5058420">
        <ele>104.4</ele>
        <time>2020-07-29T14:20:16Z</time>
      </trkpt>
      <trkpt lat="43.2855670" lon="-1.5058700">
        <ele>103.6</ele>
        <time>2020-07-29T14:20:19Z</time>
      </trkpt>
      <trkpt lat="43.2858260" lon="-1.5059180">
        <ele>102.6</ele>
        <time>2020-07-29T14:20:23Z</time>
      </trkpt>
      <trkpt lat="43.2858940" lon="-1.5059290">
        <ele>102.6</ele>
        <time>2020-07-29T14:20:24Z</time>
      </trkpt>
      <trkpt lat="43.2861000" lon="-1.5059470">
        <ele>102.4</ele>
        <time>2020-07-29T14:20:27Z</time>
      </trkpt>
      <trkpt lat="43.2863950" lon="-1.5059310">
        <ele>101.4</ele>
        <time>2020-07-29T14:20:31Z</time>
      </trkpt>
      <trkpt lat="43.2864650" lon="-1.5059330">
        <ele>101.0</ele>
        <time>2020-07-29T14:20:32Z</time>
      </trkpt>
      <trkpt lat="43.2866600" lon="-1.5059300">
        <ele>100.2</ele>
        <time>2020-07-29T14:20:35Z</time>
      </trkpt>
      <trkpt lat="43.2867790" lon="-1.5059190">
        <ele>99.6</ele>
        <time>2020-07-29T14:20:37Z</time>
      </trkpt>
      <trkpt lat="43.2868390" lon="-1.5059010">
        <ele>99.2</ele>
        <time>2020-07-29T14:20:38Z</time>
      </trkpt>
      <trkpt lat="43.2868990" lon="-1.5058700">
        <ele>99.0</ele>
        <time>2020-07-29T14:20:39Z</time>
      </trkpt>
      <trkpt lat="43.2870220" lon="-1.5058170">
        <ele>98.4</ele>
        <time>2020-07-29T14:20:41Z</time>
      </trkpt>
      <trkpt lat="43.2870830" lon="-1.5058160">
        <ele>98.0</ele>
        <time>2020-07-29T14:20:42Z</time>
      </trkpt>
      <trkpt lat="43.2871400" lon="-1.5058380">
        <ele>97.8</ele>
        <time>2020-07-29T14:20:43Z</time>
      </trkpt>
      <trkpt lat="43.2872520" lon="-1.5059030">
        <ele>97.4</ele>
        <time>2020-07-29T14:20:45Z</time>
      </trkpt>
      <trkpt lat="43.2873790" lon="-1.5059220">
        <ele>96.8</ele>
        <time>2020-07-29T14:20:47Z</time>
      </trkpt>
      <trkpt lat="43.2874470" lon="-1.5059200">
        <ele>96.4</ele>
        <time>2020-07-29T14:20:48Z</time>
      </trkpt>
      <trkpt lat="43.2875150" lon="-1.5059160">
        <ele>96.2</ele>
        <time>2020-07-29T14:20:49Z</time>
      </trkpt>
      <trkpt lat="43.2876500" lon="-1.5059060">
        <ele>95.8</ele>
        <time>2020-07-29T14:20:51Z</time>
      </trkpt>
      <trkpt lat="43.2878060" lon="-1.5058980">
        <ele>95.6</ele>
        <time>2020-07-29T14:20:54Z</time>
      </trkpt>
      <trkpt lat="43.2878600" lon="-1.5058930">
        <ele>95.6</ele>
        <time>2020-07-29T14:20:56Z</time>
      </trkpt>
      <trkpt lat="43.2879190" lon="-1.5059020">
        <ele>95.4</ele>
        <time>2020-07-29T14:20:58Z</time>
      </trkpt>
      <trkpt lat="43.2879610" lon="-1.5059030">
        <ele>95.4</ele>
        <time>2020-07-29T14:20:59Z</time>
      </trkpt>
      <trkpt lat="43.2881180" lon="-1.5058830">
        <ele>94.4</ele>
        <time>2020-07-29T14:21:02Z</time>
      </trkpt>
      <trkpt lat="43.2882340" lon="-1.5058820">
        <ele>93.6</ele>
        <time>2020-07-29T14:21:04Z</time>
      </trkpt>
      <trkpt lat="43.2883550" lon="-1.5058710">
        <ele>93.4</ele>
        <time>2020-07-29T14:21:06Z</time>
      </trkpt>
      <trkpt lat="43.2884180" lon="-1.5058670">
        <ele>93.2</ele>
        <time>2020-07-29T14:21:07Z</time>
      </trkpt>
      <trkpt lat="43.2885470" lon="-1.5058550">
        <ele>93.2</ele>
        <time>2020-07-29T14:21:09Z</time>
      </trkpt>
      <trkpt lat="43.2888830" lon="-1.5058180">
        <ele>92.2</ele>
        <time>2020-07-29T14:21:14Z</time>
      </trkpt>
      <trkpt lat="43.2889520" lon="-1.5058050">
        <ele>92.2</ele>
        <time>2020-07-29T14:21:15Z</time>
      </trkpt>
      <trkpt lat="43.2890190" lon="-1.5057940">
        <ele>92.2</ele>
        <time>2020-07-29T14:21:16Z</time>
      </trkpt>
      <trkpt lat="43.2890850" lon="-1.5057830">
        <ele>92.2</ele>
        <time>2020-07-29T14:21:17Z</time>
      </trkpt>
      <trkpt lat="43.2892810" lon="-1.5057440">
        <ele>91.8</ele>
        <time>2020-07-29T14:21:20Z</time>
      </trkpt>
      <trkpt lat="43.2894040" lon="-1.5057080">
        <ele>91.0</ele>
        <time>2020-07-29T14:21:22Z</time>
      </trkpt>
      <trkpt lat="43.2895090" lon="-1.5056550">
        <ele>90.4</ele>
        <time>2020-07-29T14:21:24Z</time>
      </trkpt>
      <trkpt lat="43.2896040" lon="-1.5055790">
        <ele>90.0</ele>
        <time>2020-07-29T14:21:26Z</time>
      </trkpt>
      <trkpt lat="43.2896560" lon="-1.5055510">
        <ele>89.8</ele>
        <time>2020-07-29T14:21:27Z</time>
      </trkpt>
      <trkpt lat="43.2897690" lon="-1.5055400">
        <ele>89.6</ele>
        <time>2020-07-29T14:21:29Z</time>
      </trkpt>
      <trkpt lat="43.2900250" lon="-1.5055930">
        <ele>89.0</ele>
        <time>2020-07-29T14:21:33Z</time>
      </trkpt>
      <trkpt lat="43.2903020" lon="-1.5055790">
        <ele>87.6</ele>
        <time>2020-07-29T14:21:37Z</time>
      </trkpt>
      <trkpt lat="43.2905160" lon="-1.5055650">
        <ele>87.0</ele>
        <time>2020-07-29T14:21:40Z</time>
      </trkpt>
      <trkpt lat="43.2906630" lon="-1.5055620">
        <ele>86.4</ele>
        <time>2020-07-29T14:21:42Z</time>
      </trkpt>
      <trkpt lat="43.2909180" lon="-1.5055440">
        <ele>85.8</ele>
        <time>2020-07-29T14:21:46Z</time>
      </trkpt>
      <trkpt lat="43.2910350" lon="-1.5055040">
        <ele>85.6</ele>
        <time>2020-07-29T14:21:50Z</time>
      </trkpt>
      <trkpt lat="43.2910840" lon="-1.5054830">
        <ele>85.4</ele>
        <time>2020-07-29T14:21:52Z</time>
      </trkpt>
      <trkpt lat="43.2911190" lon="-1.5054770">
        <ele>85.2</ele>
        <time>2020-07-29T14:21:53Z</time>
      </trkpt>
      <trkpt lat="43.2911600" lon="-1.5054780">
        <ele>85.0</ele>
        <time>2020-07-29T14:21:54Z</time>
      </trkpt>
      <trkpt lat="43.2912040" lon="-1.5054880">
        <ele>84.6</ele>
        <time>2020-07-29T14:21:55Z</time>
      </trkpt>
      <trkpt lat="43.2912910" lon="-1.5055150">
        <ele>84.2</ele>
        <time>2020-07-29T14:21:57Z</time>
      </trkpt>
      <trkpt lat="43.2913760" lon="-1.5055360">
        <ele>83.8</ele>
        <time>2020-07-29T14:21:59Z</time>
      </trkpt>
      <trkpt lat="43.2914660" lon="-1.5055370">
        <ele>83.6</ele>
        <time>2020-07-29T14:22:01Z</time>
      </trkpt>
      <trkpt lat="43.2916510" lon="-1.5055210">
        <ele>83.0</ele>
        <time>2020-07-29T14:22:05Z</time>
      </trkpt>
      <trkpt lat="43.2917900" lon="-1.5055040">
        <ele>82.0</ele>
        <time>2020-07-29T14:22:08Z</time>
      </trkpt>
      <trkpt lat="43.2919330" lon="-1.5054890">
        <ele>81.4</ele>
        <time>2020-07-29T14:22:11Z</time>
      </trkpt>
      <trkpt lat="43.2921900" lon="-1.5054830">
        <ele>81.8</ele>
        <time>2020-07-29T14:22:16Z</time>
      </trkpt>
      <trkpt lat="43.2922540" lon="-1.5055140">
        <ele>81.8</ele>
        <time>2020-07-29T14:22:17Z</time>
      </trkpt>
      <trkpt lat="43.2923080" lon="-1.5055540">
        <ele>81.6</ele>
        <time>2020-07-29T14:22:18Z</time>
      </trkpt>
      <trkpt lat="43.2923630" lon="-1.5056120">
        <ele>81.4</ele>
        <time>2020-07-29T14:22:19Z</time>
      </trkpt>
      <trkpt lat="43.2924930" lon="-1.5058150">
        <ele>81.0</ele>
        <time>2020-07-29T14:22:22Z</time>
      </trkpt>
      <trkpt lat="43.2927340" lon="-1.5061580">
        <ele>81.0</ele>
        <time>2020-07-29T14:22:28Z</time>
      </trkpt>
      <trkpt lat="43.2927870" lon="-1.5061980">
        <ele>81.0</ele>
        <time>2020-07-29T14:22:29Z</time>
      </trkpt>
      <trkpt lat="43.2928470" lon="-1.5062250">
        <ele>80.8</ele>
        <time>2020-07-29T14:22:30Z</time>
      </trkpt>
      <trkpt lat="43.2929130" lon="-1.5062390">
        <ele>80.8</ele>
        <time>2020-07-29T14:22:31Z</time>
      </trkpt>
      <trkpt lat="43.2929840" lon="-1.5062370">
        <ele>80.4</ele>
        <time>2020-07-29T14:22:32Z</time>
      </trkpt>
      <trkpt lat="43.2930560" lon="-1.5062240">
        <ele>79.8</ele>
        <time>2020-07-29T14:22:33Z</time>
      </trkpt>
      <trkpt lat="43.2932030" lon="-1.5061840">
        <ele>78.6</ele>
        <time>2020-07-29T14:22:35Z</time>
      </trkpt>
      <trkpt lat="43.2934220" lon="-1.5061320">
        <ele>77.8</ele>
        <time>2020-07-29T14:22:38Z</time>
      </trkpt>
      <trkpt lat="43.2937720" lon="-1.5061290">
        <ele>77.6</ele>
        <time>2020-07-29T14:22:43Z</time>
      </trkpt>
      <trkpt lat="43.2938410" lon="-1.5061350">
        <ele>77.6</ele>
        <time>2020-07-29T14:22:44Z</time>
      </trkpt>
      <trkpt lat="43.2939780" lon="-1.5061370">
        <ele>77.8</ele>
        <time>2020-07-29T14:22:46Z</time>
      </trkpt>
      <trkpt lat="43.2940910" lon="-1.5060770">
        <ele>78.0</ele>
        <time>2020-07-29T14:22:48Z</time>
      </trkpt>
      <trkpt lat="43.2941440" lon="-1.5060480">
        <ele>78.2</ele>
        <time>2020-07-29T14:22:49Z</time>
      </trkpt>
      <trkpt lat="43.2942550" lon="-1.5060530">
        <ele>78.4</ele>
        <time>2020-07-29T14:22:51Z</time>
      </trkpt>
      <trkpt lat="43.2943070" lon="-1.5060920">
        <ele>78.6</ele>
        <time>2020-07-29T14:22:52Z</time>
      </trkpt>
      <trkpt lat="43.2943510" lon="-1.5061480">
        <ele>78.8</ele>
        <time>2020-07-29T14:22:53Z</time>
      </trkpt>
      <trkpt lat="43.2943930" lon="-1.5062050">
        <ele>79.0</ele>
        <time>2020-07-29T14:22:54Z</time>
      </trkpt>
      <trkpt lat="43.2944850" lon="-1.5063070">
        <ele>78.8</ele>
        <time>2020-07-29T14:22:56Z</time>
      </trkpt>
      <trkpt lat="43.2945950" lon="-1.5063550">
        <ele>78.6</ele>
        <time>2020-07-29T14:22:58Z</time>
      </trkpt>
      <trkpt lat="43.2947680" lon="-1.5063430">
        <ele>78.6</ele>
        <time>2020-07-29T14:23:01Z</time>
      </trkpt>
      <trkpt lat="43.2948230" lon="-1.5063240">
        <ele>78.6</ele>
        <time>2020-07-29T14:23:02Z</time>
      </trkpt>
      <trkpt lat="43.2949850" lon="-1.5062550">
        <ele>79.0</ele>
        <time>2020-07-29T14:23:05Z</time>
      </trkpt>
      <trkpt lat="43.2951370" lon="-1.5061820">
        <ele>80.0</ele>
        <time>2020-07-29T14:23:08Z</time>
      </trkpt>
      <trkpt lat="43.2952320" lon="-1.5061330">
        <ele>80.6</ele>
        <time>2020-07-29T14:23:10Z</time>
      </trkpt>
      <trkpt lat="43.2953240" lon="-1.5060920">
        <ele>80.8</ele>
        <time>2020-07-29T14:23:12Z</time>
      </trkpt>
      <trkpt lat="43.2953680" lon="-1.5060740">
        <ele>81.0</ele>
        <time>2020-07-29T14:23:13Z</time>
      </trkpt>
      <trkpt lat="43.2954930" lon="-1.5060380">
        <ele>81.4</ele>
        <time>2020-07-29T14:23:16Z</time>
      </trkpt>
      <trkpt lat="43.2955400" lon="-1.5060430">
        <ele>81.4</ele>
        <time>2020-07-29T14:23:17Z</time>
      </trkpt>
      <trkpt lat="43.2955860" lon="-1.5060550">
        <ele>81.4</ele>
        <time>2020-07-29T14:23:18Z</time>
      </trkpt>
      <trkpt lat="43.2958240" lon="-1.5061820">
        <ele>81.8</ele>
        <time>2020-07-29T14:23:23Z</time>
      </trkpt>
      <trkpt lat="43.2958710" lon="-1.5062180">
        <ele>82.0</ele>
        <time>2020-07-29T14:23:24Z</time>
      </trkpt>
      <trkpt lat="43.2959130" lon="-1.5062620">
        <ele>82.0</ele>
        <time>2020-07-29T14:23:25Z</time>
      </trkpt>
      <trkpt lat="43.2960670" lon="-1.5064620">
        <ele>82.6</ele>
        <time>2020-07-29T14:23:29Z</time>
      </trkpt>
      <trkpt lat="43.2961740" lon="-1.5066260">
        <ele>82.8</ele>
        <time>2020-07-29T14:23:32Z</time>
      </trkpt>
      <trkpt lat="43.2962500" lon="-1.5067380">
        <ele>83.0</ele>
        <time>2020-07-29T14:23:34Z</time>
      </trkpt>
      <trkpt lat="43.2963800" lon="-1.5068930">
        <ele>83.6</ele>
        <time>2020-07-29T14:23:37Z</time>
      </trkpt>
      <trkpt lat="43.2964800" lon="-1.5069830">
        <ele>83.8</ele>
        <time>2020-07-29T14:23:39Z</time>
      </trkpt>
      <trkpt lat="43.2966360" lon="-1.5070840">
        <ele>84.0</ele>
        <time>2020-07-29T14:23:42Z</time>
      </trkpt>
      <trkpt lat="43.2967400" lon="-1.5071430">
        <ele>83.8</ele>
        <time>2020-07-29T14:23:44Z</time>
      </trkpt>
      <trkpt lat="43.2970630" lon="-1.5073110">
        <ele>83.8</ele>
        <time>2020-07-29T14:23:50Z</time>
      </trkpt>
      <trkpt lat="43.2971720" lon="-1.5073720">
        <ele>84.0</ele>
        <time>2020-07-29T14:23:52Z</time>
      </trkpt>
      <trkpt lat="43.2972270" lon="-1.5074020">
        <ele>84.0</ele>
        <time>2020-07-29T14:23:53Z</time>
      </trkpt>
      <trkpt lat="43.2973940" lon="-1.5075060">
        <ele>84.2</ele>
        <time>2020-07-29T14:23:56Z</time>
      </trkpt>
      <trkpt lat="43.2975710" lon="-1.5076440">
        <ele>83.6</ele>
        <time>2020-07-29T14:23:59Z</time>
      </trkpt>
      <trkpt lat="43.2976890" lon="-1.5077480">
        <ele>82.6</ele>
        <time>2020-07-29T14:24:01Z</time>
      </trkpt>
      <trkpt lat="43.2978070" lon="-1.5078530">
        <ele>82.6</ele>
        <time>2020-07-29T14:24:03Z</time>
      </trkpt>
      <trkpt lat="43.2980310" lon="-1.5080430">
        <ele>82.8</ele>
        <time>2020-07-29T14:24:07Z</time>
      </trkpt>
      <trkpt lat="43.2983220" lon="-1.5083340">
        <ele>83.8</ele>
        <time>2020-07-29T14:24:13Z</time>
      </trkpt>
      <trkpt lat="43.2985010" lon="-1.5085320">
        <ele>84.2</ele>
        <time>2020-07-29T14:24:17Z</time>
      </trkpt>
      <trkpt lat="43.2985940" lon="-1.5086290">
        <ele>84.4</ele>
        <time>2020-07-29T14:24:19Z</time>
      </trkpt>
      <trkpt lat="43.2986420" lon="-1.5086760">
        <ele>84.2</ele>
        <time>2020-07-29T14:24:20Z</time>
      </trkpt>
      <trkpt lat="43.2986920" lon="-1.5087230">
        <ele>84.2</ele>
        <time>2020-07-29T14:24:21Z</time>
      </trkpt>
      <trkpt lat="43.2989030" lon="-1.5089140">
        <ele>82.6</ele>
        <time>2020-07-29T14:24:25Z</time>
      </trkpt>
      <trkpt lat="43.2990650" lon="-1.5090990">
        <ele>81.6</ele>
        <time>2020-07-29T14:24:28Z</time>
      </trkpt>
      <trkpt lat="43.2992200" lon="-1.5093340">
        <ele>80.4</ele>
        <time>2020-07-29T14:24:31Z</time>
      </trkpt>
      <trkpt lat="43.2993210" lon="-1.5095050">
        <ele>80.0</ele>
        <time>2020-07-29T14:24:33Z</time>
      </trkpt>
      <trkpt lat="43.2995260" lon="-1.5098470">
        <ele>79.2</ele>
        <time>2020-07-29T14:24:37Z</time>
      </trkpt>
      <trkpt lat="43.2997810" lon="-1.5102730">
        <ele>78.4</ele>
        <time>2020-07-29T14:24:42Z</time>
      </trkpt>
      <trkpt lat="43.2998330" lon="-1.5103600">
        <ele>78.2</ele>
        <time>2020-07-29T14:24:43Z</time>
      </trkpt>
      <trkpt lat="43.3001300" lon="-1.5108780">
        <ele>77.2</ele>
        <time>2020-07-29T14:24:49Z</time>
      </trkpt>
      <trkpt lat="43.3001710" lon="-1.5109670">
        <ele>77.0</ele>
        <time>2020-07-29T14:24:50Z</time>
      </trkpt>
      <trkpt lat="43.3002020" lon="-1.5110630">
        <ele>76.8</ele>
        <time>2020-07-29T14:24:51Z</time>
      </trkpt>
      <trkpt lat="43.3002330" lon="-1.5112600">
        <ele>76.8</ele>
        <time>2020-07-29T14:24:53Z</time>
      </trkpt>
      <trkpt lat="43.3002130" lon="-1.5114450">
        <ele>77.0</ele>
        <time>2020-07-29T14:24:55Z</time>
      </trkpt>
      <trkpt lat="43.3001900" lon="-1.5115290">
        <ele>77.2</ele>
        <time>2020-07-29T14:24:56Z</time>
      </trkpt>
      <trkpt lat="43.3001620" lon="-1.5116100">
        <ele>77.6</ele>
        <time>2020-07-29T14:24:57Z</time>
      </trkpt>
      <trkpt lat="43.3001310" lon="-1.5116850">
        <ele>78.0</ele>
        <time>2020-07-29T14:24:58Z</time>
      </trkpt>
      <trkpt lat="43.3000320" lon="-1.5118880">
        <ele>78.4</ele>
        <time>2020-07-29T14:25:01Z</time>
      </trkpt>
      <trkpt lat="43.2999620" lon="-1.5120110">
        <ele>78.2</ele>
        <time>2020-07-29T14:25:03Z</time>
      </trkpt>
      <trkpt lat="43.2998680" lon="-1.5121870">
        <ele>77.8</ele>
        <time>2020-07-29T14:25:06Z</time>
      </trkpt>
      <trkpt lat="43.2998350" lon="-1.5122560">
        <ele>77.4</ele>
        <time>2020-07-29T14:25:07Z</time>
      </trkpt>
      <trkpt lat="43.2998170" lon="-1.5123390">
        <ele>77.2</ele>
        <time>2020-07-29T14:25:08Z</time>
      </trkpt>
      <trkpt lat="43.2998490" lon="-1.5124840">
        <ele>77.0</ele>
        <time>2020-07-29T14:25:10Z</time>
      </trkpt>
      <trkpt lat="43.2999440" lon="-1.5125260">
        <ele>77.0</ele>
        <time>2020-07-29T14:25:12Z</time>
      </trkpt>
      <trkpt lat="43.3000010" lon="-1.5125020">
        <ele>77.0</ele>
        <time>2020-07-29T14:25:13Z</time>
      </trkpt>
      <trkpt lat="43.3000520" lon="-1.5124660">
        <ele>77.0</ele>
        <time>2020-07-29T14:25:14Z</time>
      </trkpt>
      <trkpt lat="43.3001020" lon="-1.5124270">
        <ele>77.2</ele>
        <time>2020-07-29T14:25:15Z</time>
      </trkpt>
      <trkpt lat="43.3001970" lon="-1.5123600">
        <ele>77.8</ele>
        <time>2020-07-29T14:25:17Z</time>
      </trkpt>
      <trkpt lat="43.3002420" lon="-1.5123330">
        <ele>78.2</ele>
        <time>2020-07-29T14:25:18Z</time>
      </trkpt>
      <trkpt lat="43.3002890" lon="-1.5123110">
        <ele>78.6</ele>
        <time>2020-07-29T14:25:19Z</time>
      </trkpt>
      <trkpt lat="43.3003780" lon="-1.5122920">
        <ele>79.2</ele>
        <time>2020-07-29T14:25:21Z</time>
      </trkpt>
      <trkpt lat="43.3004260" lon="-1.5122990">
        <ele>79.4</ele>
        <time>2020-07-29T14:25:22Z</time>
      </trkpt>
      <trkpt lat="43.3004700" lon="-1.5123170">
        <ele>79.4</ele>
        <time>2020-07-29T14:25:23Z</time>
      </trkpt>
      <trkpt lat="43.3005380" lon="-1.5123580">
        <ele>79.6</ele>
        <time>2020-07-29T14:25:24Z</time>
      </trkpt>
      <trkpt lat="43.3006000" lon="-1.5124030">
        <ele>79.6</ele>
        <time>2020-07-29T14:25:25Z</time>
      </trkpt>
      <trkpt lat="43.3006460" lon="-1.5124470">
        <ele>79.6</ele>
        <time>2020-07-29T14:25:26Z</time>
      </trkpt>
      <trkpt lat="43.3008760" lon="-1.5126870">
        <ele>80.4</ele>
        <time>2020-07-29T14:25:32Z</time>
      </trkpt>
      <trkpt lat="43.3009140" lon="-1.5127180">
        <ele>80.4</ele>
        <time>2020-07-29T14:25:33Z</time>
      </trkpt>
      <trkpt lat="43.3009570" lon="-1.5127440">
        <ele>80.6</ele>
        <time>2020-07-29T14:25:34Z</time>
      </trkpt>
      <trkpt lat="43.3010510" lon="-1.5127780">
        <ele>81.0</ele>
        <time>2020-07-29T14:25:36Z</time>
      </trkpt>
      <trkpt lat="43.3011020" lon="-1.5127860">
        <ele>81.4</ele>
        <time>2020-07-29T14:25:37Z</time>
      </trkpt>
      <trkpt lat="43.3011540" lon="-1.5127920">
        <ele>81.4</ele>
        <time>2020-07-29T14:25:38Z</time>
      </trkpt>
      <trkpt lat="43.3014760" lon="-1.5128090">
        <ele>81.6</ele>
        <time>2020-07-29T14:25:44Z</time>
      </trkpt>
      <trkpt lat="43.3015850" lon="-1.5128160">
        <ele>81.4</ele>
        <time>2020-07-29T14:25:46Z</time>
      </trkpt>
      <trkpt lat="43.3019090" lon="-1.5129230">
        <ele>81.0</ele>
        <time>2020-07-29T14:25:52Z</time>
      </trkpt>
      <trkpt lat="43.3022350" lon="-1.5131780">
        <ele>80.8</ele>
        <time>2020-07-29T14:25:58Z</time>
      </trkpt>
      <trkpt lat="43.3024410" lon="-1.5133850">
        <ele>80.6</ele>
        <time>2020-07-29T14:26:02Z</time>
      </trkpt>
      <trkpt lat="43.3025360" lon="-1.5134860">
        <ele>80.4</ele>
        <time>2020-07-29T14:26:04Z</time>
      </trkpt>
      <trkpt lat="43.3026270" lon="-1.5135770">
        <ele>80.6</ele>
        <time>2020-07-29T14:26:06Z</time>
      </trkpt>
      <trkpt lat="43.3026720" lon="-1.5136190">
        <ele>80.6</ele>
        <time>2020-07-29T14:26:07Z</time>
      </trkpt>
      <trkpt lat="43.3027180" lon="-1.5136590">
        <ele>80.6</ele>
        <time>2020-07-29T14:26:08Z</time>
      </trkpt>
      <trkpt lat="43.3027650" lon="-1.5137020">
        <ele>80.6</ele>
        <time>2020-07-29T14:26:09Z</time>
      </trkpt>
      <trkpt lat="43.3029080" lon="-1.5138450">
        <ele>80.6</ele>
        <time>2020-07-29T14:26:12Z</time>
      </trkpt>
      <trkpt lat="43.3030040" lon="-1.5139450">
        <ele>80.6</ele>
        <time>2020-07-29T14:26:14Z</time>
      </trkpt>
      <trkpt lat="43.3032780" lon="-1.5142540">
        <ele>81.6</ele>
        <time>2020-07-29T14:26:20Z</time>
      </trkpt>
      <trkpt lat="43.3033810" lon="-1.5143540">
        <ele>82.0</ele>
        <time>2020-07-29T14:26:22Z</time>
      </trkpt>
      <trkpt lat="43.3037070" lon="-1.5146880">
        <ele>80.2</ele>
        <time>2020-07-29T14:26:28Z</time>
      </trkpt>
      <trkpt lat="43.3037610" lon="-1.5147490">
        <ele>79.8</ele>
        <time>2020-07-29T14:26:29Z</time>
      </trkpt>
      <trkpt lat="43.3038720" lon="-1.5148680">
        <ele>79.4</ele>
        <time>2020-07-29T14:26:31Z</time>
      </trkpt>
      <trkpt lat="43.3042190" lon="-1.5152490">
        <ele>79.4</ele>
        <time>2020-07-29T14:26:37Z</time>
      </trkpt>
      <trkpt lat="43.3042780" lon="-1.5153130">
        <ele>79.2</ele>
        <time>2020-07-29T14:26:38Z</time>
      </trkpt>
      <trkpt lat="43.3045820" lon="-1.5156390">
        <ele>78.8</ele>
        <time>2020-07-29T14:26:43Z</time>
      </trkpt>
      <trkpt lat="43.3047560" lon="-1.5158530">
        <ele>78.4</ele>
        <time>2020-07-29T14:26:46Z</time>
      </trkpt>
      <trkpt lat="43.3048170" lon="-1.5159240">
        <ele>78.0</ele>
        <time>2020-07-29T14:26:47Z</time>
      </trkpt>
      <trkpt lat="43.3051840" lon="-1.5163560">
        <ele>77.2</ele>
        <time>2020-07-29T14:26:53Z</time>
      </trkpt>
      <trkpt lat="43.3052440" lon="-1.5164270">
        <ele>77.4</ele>
        <time>2020-07-29T14:26:54Z</time>
      </trkpt>
      <trkpt lat="43.3054860" lon="-1.5167180">
        <ele>76.8</ele>
        <time>2020-07-29T14:26:58Z</time>
      </trkpt>
      <trkpt lat="43.3057040" lon="-1.5170240">
        <ele>76.4</ele>
        <time>2020-07-29T14:27:02Z</time>
      </trkpt>
      <trkpt lat="43.3058830" lon="-1.5173650">
        <ele>75.6</ele>
        <time>2020-07-29T14:27:06Z</time>
      </trkpt>
      <trkpt lat="43.3060200" lon="-1.5176230">
        <ele>75.4</ele>
        <time>2020-07-29T14:27:09Z</time>
      </trkpt>
      <trkpt lat="43.3063610" lon="-1.5180780">
        <ele>75.0</ele>
        <time>2020-07-29T14:27:15Z</time>
      </trkpt>
      <trkpt lat="43.3065500" lon="-1.5182840">
        <ele>74.8</ele>
        <time>2020-07-29T14:27:18Z</time>
      </trkpt>
      <trkpt lat="43.3066110" lon="-1.5183530">
        <ele>74.8</ele>
        <time>2020-07-29T14:27:19Z</time>
      </trkpt>
      <trkpt lat="43.3067340" lon="-1.5185000">
        <ele>74.6</ele>
        <time>2020-07-29T14:27:21Z</time>
      </trkpt>
      <trkpt lat="43.3067920" lon="-1.5185790">
        <ele>74.6</ele>
        <time>2020-07-29T14:27:22Z</time>
      </trkpt>
      <trkpt lat="43.3068950" lon="-1.5187530">
        <ele>74.6</ele>
        <time>2020-07-29T14:27:24Z</time>
      </trkpt>
      <trkpt lat="43.3069700" lon="-1.5189600">
        <ele>74.6</ele>
        <time>2020-07-29T14:27:26Z</time>
      </trkpt>
      <trkpt lat="43.3071090" lon="-1.5195510">
        <ele>73.4</ele>
        <time>2020-07-29T14:27:31Z</time>
      </trkpt>
      <trkpt lat="43.3071620" lon="-1.5198000">
        <ele>72.2</ele>
        <time>2020-07-29T14:27:33Z</time>
      </trkpt>
      <trkpt lat="43.3072470" lon="-1.5201820">
        <ele>71.2</ele>
        <time>2020-07-29T14:27:36Z</time>
      </trkpt>
      <trkpt lat="43.3072610" lon="-1.5203170">
        <ele>70.6</ele>
        <time>2020-07-29T14:27:37Z</time>
      </trkpt>
      <trkpt lat="43.3072680" lon="-1.5204510">
        <ele>70.0</ele>
        <time>2020-07-29T14:27:38Z</time>
      </trkpt>
      <trkpt lat="43.3072640" lon="-1.5205840">
        <ele>69.4</ele>
        <time>2020-07-29T14:27:39Z</time>
      </trkpt>
      <trkpt lat="43.3072440" lon="-1.5207180">
        <ele>68.6</ele>
        <time>2020-07-29T14:27:40Z</time>
      </trkpt>
      <trkpt lat="43.3072130" lon="-1.5208490">
        <ele>67.8</ele>
        <time>2020-07-29T14:27:41Z</time>
      </trkpt>
      <trkpt lat="43.3071680" lon="-1.5209760">
        <ele>67.2</ele>
        <time>2020-07-29T14:27:42Z</time>
      </trkpt>
      <trkpt lat="43.3071120" lon="-1.5210960">
        <ele>66.8</ele>
        <time>2020-07-29T14:27:43Z</time>
      </trkpt>
      <trkpt lat="43.3070490" lon="-1.5212100">
        <ele>66.2</ele>
        <time>2020-07-29T14:27:44Z</time>
      </trkpt>
      <trkpt lat="43.3069780" lon="-1.5213180">
        <ele>65.8</ele>
        <time>2020-07-29T14:27:45Z</time>
      </trkpt>
      <trkpt lat="43.3068930" lon="-1.5214120">
        <ele>65.4</ele>
        <time>2020-07-29T14:27:46Z</time>
      </trkpt>
      <trkpt lat="43.3067270" lon="-1.5215810">
        <ele>65.0</ele>
        <time>2020-07-29T14:27:48Z</time>
      </trkpt>
      <trkpt lat="43.3066490" lon="-1.5216580">
        <ele>64.6</ele>
        <time>2020-07-29T14:27:49Z</time>
      </trkpt>
      <trkpt lat="43.3065010" lon="-1.5218170">
        <ele>64.2</ele>
        <time>2020-07-29T14:27:51Z</time>
      </trkpt>
      <trkpt lat="43.3063570" lon="-1.5219970">
        <ele>63.6</ele>
        <time>2020-07-29T14:27:53Z</time>
      </trkpt>
      <trkpt lat="43.3063020" lon="-1.5221070">
        <ele>63.6</ele>
        <time>2020-07-29T14:27:54Z</time>
      </trkpt>
      <trkpt lat="43.3062660" lon="-1.5222260">
        <ele>63.4</ele>
        <time>2020-07-29T14:27:55Z</time>
      </trkpt>
      <trkpt lat="43.3062530" lon="-1.5223450">
        <ele>63.4</ele>
        <time>2020-07-29T14:27:56Z</time>
      </trkpt>
      <trkpt lat="43.3062510" lon="-1.5224640">
        <ele>63.4</ele>
        <time>2020-07-29T14:27:57Z</time>
      </trkpt>
      <trkpt lat="43.3062670" lon="-1.5228340">
        <ele>63.2</ele>
        <time>2020-07-29T14:28:00Z</time>
      </trkpt>
      <trkpt lat="43.3062910" lon="-1.5232090">
        <ele>62.4</ele>
        <time>2020-07-29T14:28:03Z</time>
      </trkpt>
      <trkpt lat="43.3062980" lon="-1.5236690">
        <ele>62.4</ele>
        <time>2020-07-29T14:28:07Z</time>
      </trkpt>
      <trkpt lat="43.3062830" lon="-1.5242690">
        <ele>62.8</ele>
        <time>2020-07-29T14:28:13Z</time>
      </trkpt>
      <trkpt lat="43.3063570" lon="-1.5246620">
        <ele>62.8</ele>
        <time>2020-07-29T14:28:17Z</time>
      </trkpt>
      <trkpt lat="43.3064070" lon="-1.5248440">
        <ele>62.6</ele>
        <time>2020-07-29T14:28:19Z</time>
      </trkpt>
      <trkpt lat="43.3065310" lon="-1.5253900">
        <ele>63.0</ele>
        <time>2020-07-29T14:28:25Z</time>
      </trkpt>
      <trkpt lat="43.3065470" lon="-1.5254840">
        <ele>63.4</ele>
        <time>2020-07-29T14:28:26Z</time>
      </trkpt>
      <trkpt lat="43.3066360" lon="-1.5257410">
        <ele>63.8</ele>
        <time>2020-07-29T14:28:29Z</time>
      </trkpt>
      <trkpt lat="43.3066780" lon="-1.5258190">
        <ele>63.8</ele>
        <time>2020-07-29T14:28:30Z</time>
      </trkpt>
      <trkpt lat="43.3067260" lon="-1.5258930">
        <ele>64.0</ele>
        <time>2020-07-29T14:28:31Z</time>
      </trkpt>
      <trkpt lat="43.3069360" lon="-1.5261500">
        <ele>63.8</ele>
        <time>2020-07-29T14:28:35Z</time>
      </trkpt>
      <trkpt lat="43.3072260" lon="-1.5265000">
        <ele>63.2</ele>
        <time>2020-07-29T14:28:41Z</time>
      </trkpt>
      <trkpt lat="43.3072750" lon="-1.5265530">
        <ele>63.0</ele>
        <time>2020-07-29T14:28:42Z</time>
      </trkpt>
      <trkpt lat="43.3073270" lon="-1.5266060">
        <ele>62.8</ele>
        <time>2020-07-29T14:28:43Z</time>
      </trkpt>
      <trkpt lat="43.3076540" lon="-1.5269150">
        <ele>62.2</ele>
        <time>2020-07-29T14:28:49Z</time>
      </trkpt>
      <trkpt lat="43.3079910" lon="-1.5272240">
        <ele>62.0</ele>
        <time>2020-07-29T14:28:55Z</time>
      </trkpt>
      <trkpt lat="43.3081100" lon="-1.5273070">
        <ele>62.0</ele>
        <time>2020-07-29T14:28:57Z</time>
      </trkpt>
      <trkpt lat="43.3084190" lon="-1.5274350">
        <ele>62.0</ele>
        <time>2020-07-29T14:29:02Z</time>
      </trkpt>
      <trkpt lat="43.3087700" lon="-1.5275160">
        <ele>61.8</ele>
        <time>2020-07-29T14:29:08Z</time>
      </trkpt>
      <trkpt lat="43.3088250" lon="-1.5275370">
        <ele>61.8</ele>
        <time>2020-07-29T14:29:09Z</time>
      </trkpt>
      <trkpt lat="43.3090840" lon="-1.5277070">
        <ele>61.6</ele>
        <time>2020-07-29T14:29:14Z</time>
      </trkpt>
      <trkpt lat="43.3091340" lon="-1.5277530">
        <ele>61.6</ele>
        <time>2020-07-29T14:29:15Z</time>
      </trkpt>
      <trkpt lat="43.3094010" lon="-1.5280760">
        <ele>61.6</ele>
        <time>2020-07-29T14:29:21Z</time>
      </trkpt>
      <trkpt lat="43.3094420" lon="-1.5281390">
        <ele>61.6</ele>
        <time>2020-07-29T14:29:22Z</time>
      </trkpt>
      <trkpt lat="43.3095770" lon="-1.5284410">
        <ele>61.4</ele>
        <time>2020-07-29T14:29:26Z</time>
      </trkpt>
      <trkpt lat="43.3095990" lon="-1.5285260">
        <ele>61.2</ele>
        <time>2020-07-29T14:29:27Z</time>
      </trkpt>
      <trkpt lat="43.3097850" lon="-1.5289830">
        <ele>60.8</ele>
        <time>2020-07-29T14:29:33Z</time>
      </trkpt>
      <trkpt lat="43.3098260" lon="-1.5290510">
        <ele>60.8</ele>
        <time>2020-07-29T14:29:34Z</time>
      </trkpt>
      <trkpt lat="43.3098730" lon="-1.5291130">
        <ele>60.8</ele>
        <time>2020-07-29T14:29:35Z</time>
      </trkpt>
      <trkpt lat="43.3100790" lon="-1.5293280">
        <ele>60.6</ele>
        <time>2020-07-29T14:29:39Z</time>
      </trkpt>
      <trkpt lat="43.3103950" lon="-1.5295130">
        <ele>60.2</ele>
        <time>2020-07-29T14:29:45Z</time>
      </trkpt>
      <trkpt lat="43.3106190" lon="-1.5295720">
        <ele>60.0</ele>
        <time>2020-07-29T14:29:49Z</time>
      </trkpt>
      <trkpt lat="43.3106790" lon="-1.5295860">
        <ele>60.0</ele>
        <time>2020-07-29T14:29:50Z</time>
      </trkpt>
      <trkpt lat="43.3107440" lon="-1.5296020">
        <ele>60.0</ele>
        <time>2020-07-29T14:29:51Z</time>
      </trkpt>
      <trkpt lat="43.3108080" lon="-1.5296230">
        <ele>60.0</ele>
        <time>2020-07-29T14:29:52Z</time>
      </trkpt>
      <trkpt lat="43.3109360" lon="-1.5296850">
        <ele>60.0</ele>
        <time>2020-07-29T14:29:54Z</time>
      </trkpt>
      <trkpt lat="43.3110630" lon="-1.5297650">
        <ele>60.0</ele>
        <time>2020-07-29T14:29:56Z</time>
      </trkpt>
      <trkpt lat="43.3114250" lon="-1.5300020">
        <ele>60.0</ele>
        <time>2020-07-29T14:30:02Z</time>
      </trkpt>
      <trkpt lat="43.3114860" lon="-1.5300270">
        <ele>59.8</ele>
        <time>2020-07-29T14:30:03Z</time>
      </trkpt>
      <trkpt lat="43.3118410" lon="-1.5300950">
        <ele>60.8</ele>
        <time>2020-07-29T14:30:09Z</time>
      </trkpt>
      <trkpt lat="43.3119450" lon="-1.5300890">
        <ele>61.4</ele>
        <time>2020-07-29T14:30:11Z</time>
      </trkpt>
      <trkpt lat="43.3120720" lon="-1.5300570">
        <ele>61.8</ele>
        <time>2020-07-29T14:30:14Z</time>
      </trkpt>
      <trkpt lat="43.3121410" lon="-1.5300310">
        <ele>62.2</ele>
        <time>2020-07-29T14:30:16Z</time>
      </trkpt>
      <trkpt lat="43.3121740" lon="-1.5300150">
        <ele>62.4</ele>
        <time>2020-07-29T14:30:17Z</time>
      </trkpt>
      <trkpt lat="43.3122890" lon="-1.5299490">
        <ele>63.6</ele>
        <time>2020-07-29T14:30:21Z</time>
      </trkpt>
      <trkpt lat="43.3123630" lon="-1.5298880">
        <ele>64.6</ele>
        <time>2020-07-29T14:30:24Z</time>
      </trkpt>
      <trkpt lat="43.3124350" lon="-1.5298310">
        <ele>65.2</ele>
        <time>2020-07-29T14:30:27Z</time>
      </trkpt>
      <trkpt lat="43.3124790" lon="-1.5297870">
        <ele>65.6</ele>
        <time>2020-07-29T14:30:29Z</time>
      </trkpt>
      <trkpt lat="43.3125020" lon="-1.5297650">
        <ele>66.0</ele>
        <time>2020-07-29T14:30:30Z</time>
      </trkpt>
      <trkpt lat="43.3125250" lon="-1.5297430">
        <ele>66.2</ele>
        <time>2020-07-29T14:30:31Z</time>
      </trkpt>
      <trkpt lat="43.3125900" lon="-1.5296770">
        <ele>67.0</ele>
        <time>2020-07-29T14:30:34Z</time>
      </trkpt>
      <trkpt lat="43.3126840" lon="-1.5295930">
        <ele>68.4</ele>
        <time>2020-07-29T14:30:38Z</time>
      </trkpt>
      <trkpt lat="43.3127340" lon="-1.5295520">
        <ele>69.0</ele>
        <time>2020-07-29T14:30:40Z</time>
      </trkpt>
      <trkpt lat="43.3127810" lon="-1.5295180">
        <ele>69.4</ele>
        <time>2020-07-29T14:30:42Z</time>
      </trkpt>
      <trkpt lat="43.3129160" lon="-1.5294430">
        <ele>70.0</ele>
        <time>2020-07-29T14:30:47Z</time>
      </trkpt>
      <trkpt lat="43.3129730" lon="-1.5294190">
        <ele>70.4</ele>
        <time>2020-07-29T14:30:49Z</time>
      </trkpt>
      <trkpt lat="43.3131530" lon="-1.5293730">
        <ele>70.6</ele>
        <time>2020-07-29T14:30:55Z</time>
      </trkpt>
      <trkpt lat="43.3132200" lon="-1.5293610">
        <ele>70.8</ele>
        <time>2020-07-29T14:30:57Z</time>
      </trkpt>
      <trkpt lat="43.3133660" lon="-1.5293740">
        <ele>71.6</ele>
        <time>2020-07-29T14:31:01Z</time>
      </trkpt>
      <trkpt lat="43.3134040" lon="-1.5293810">
        <ele>71.8</ele>
        <time>2020-07-29T14:31:02Z</time>
      </trkpt>
      <trkpt lat="43.3135930" lon="-1.5294410">
        <ele>72.8</ele>
        <time>2020-07-29T14:31:07Z</time>
      </trkpt>
      <trkpt lat="43.3136700" lon="-1.5294810">
        <ele>73.2</ele>
        <time>2020-07-29T14:31:09Z</time>
      </trkpt>
      <trkpt lat="43.3137070" lon="-1.5295040">
        <ele>73.2</ele>
        <time>2020-07-29T14:31:10Z</time>
      </trkpt>
      <trkpt lat="43.3139380" lon="-1.5296670">
        <ele>72.2</ele>
        <time>2020-07-29T14:31:16Z</time>
      </trkpt>
      <trkpt lat="43.3139800" lon="-1.5296980">
        <ele>72.0</ele>
        <time>2020-07-29T14:31:17Z</time>
      </trkpt>
      <trkpt lat="43.3140230" lon="-1.5297260">
        <ele>71.8</ele>
        <time>2020-07-29T14:31:18Z</time>
      </trkpt>
      <trkpt lat="43.3140670" lon="-1.5297530">
        <ele>71.6</ele>
        <time>2020-07-29T14:31:19Z</time>
      </trkpt>
      <trkpt lat="43.3142480" lon="-1.5298440">
        <ele>71.0</ele>
        <time>2020-07-29T14:31:23Z</time>
      </trkpt>
      <trkpt lat="43.3143500" lon="-1.5298920">
        <ele>70.2</ele>
        <time>2020-07-29T14:31:25Z</time>
      </trkpt>
      <trkpt lat="43.3145930" lon="-1.5299720">
        <ele>69.0</ele>
        <time>2020-07-29T14:31:29Z</time>
      </trkpt>
      <trkpt lat="43.3147360" lon="-1.5300080">
        <ele>67.6</ele>
        <time>2020-07-29T14:31:31Z</time>
      </trkpt>
      <trkpt lat="43.3148950" lon="-1.5300300">
        <ele>65.8</ele>
        <time>2020-07-29T14:31:33Z</time>
      </trkpt>
      <trkpt lat="43.3149830" lon="-1.5300350">
        <ele>65.0</ele>
        <time>2020-07-29T14:31:34Z</time>
      </trkpt>
      <trkpt lat="43.3150730" lon="-1.5300370">
        <ele>64.4</ele>
        <time>2020-07-29T14:31:35Z</time>
      </trkpt>
      <trkpt lat="43.3153660" lon="-1.5300230">
        <ele>62.8</ele>
        <time>2020-07-29T14:31:38Z</time>
      </trkpt>
      <trkpt lat="43.3154710" lon="-1.5300220">
        <ele>62.0</ele>
        <time>2020-07-29T14:31:39Z</time>
      </trkpt>
      <trkpt lat="43.3155770" lon="-1.5300290">
        <ele>61.0</ele>
        <time>2020-07-29T14:31:40Z</time>
      </trkpt>
      <trkpt lat="43.3156850" lon="-1.5300470">
        <ele>60.0</ele>
        <time>2020-07-29T14:31:41Z</time>
      </trkpt>
      <trkpt lat="43.3157940" lon="-1.5300750">
        <ele>58.8</ele>
        <time>2020-07-29T14:31:42Z</time>
      </trkpt>
      <trkpt lat="43.3159030" lon="-1.5301100">
        <ele>57.4</ele>
        <time>2020-07-29T14:31:43Z</time>
      </trkpt>
      <trkpt lat="43.3161160" lon="-1.5302130">
        <ele>56.2</ele>
        <time>2020-07-29T14:31:45Z</time>
      </trkpt>
      <trkpt lat="43.3163130" lon="-1.5303560">
        <ele>55.8</ele>
        <time>2020-07-29T14:31:47Z</time>
      </trkpt>
      <trkpt lat="43.3164010" lon="-1.5304390">
        <ele>55.6</ele>
        <time>2020-07-29T14:31:48Z</time>
      </trkpt>
      <trkpt lat="43.3165500" lon="-1.5306220">
        <ele>56.0</ele>
        <time>2020-07-29T14:31:50Z</time>
      </trkpt>
      <trkpt lat="43.3169050" lon="-1.5311560">
        <ele>56.0</ele>
        <time>2020-07-29T14:31:56Z</time>
      </trkpt>
      <trkpt lat="43.3171990" lon="-1.5316230">
        <ele>56.2</ele>
        <time>2020-07-29T14:32:02Z</time>
      </trkpt>
      <trkpt lat="43.3172400" lon="-1.5317000">
        <ele>56.4</ele>
        <time>2020-07-29T14:32:03Z</time>
      </trkpt>
      <trkpt lat="43.3173300" lon="-1.5318460">
        <ele>56.8</ele>
        <time>2020-07-29T14:32:05Z</time>
      </trkpt>
      <trkpt lat="43.3175220" lon="-1.5321420">
        <ele>56.4</ele>
        <time>2020-07-29T14:32:09Z</time>
      </trkpt>
      <trkpt lat="43.3177250" lon="-1.5324540">
        <ele>55.2</ele>
        <time>2020-07-29T14:32:13Z</time>
      </trkpt>
      <trkpt lat="43.3177790" lon="-1.5325320">
        <ele>55.0</ele>
        <time>2020-07-29T14:32:14Z</time>
      </trkpt>
      <trkpt lat="43.3179380" lon="-1.5327740">
        <ele>54.6</ele>
        <time>2020-07-29T14:32:17Z</time>
      </trkpt>
      <trkpt lat="43.3180450" lon="-1.5329400">
        <ele>54.0</ele>
        <time>2020-07-29T14:32:19Z</time>
      </trkpt>
      <trkpt lat="43.3182090" lon="-1.5331890">
        <ele>52.8</ele>
        <time>2020-07-29T14:32:22Z</time>
      </trkpt>
      <trkpt lat="43.3183690" lon="-1.5334270">
        <ele>52.2</ele>
        <time>2020-07-29T14:32:25Z</time>
      </trkpt>
      <trkpt lat="43.3186660" lon="-1.5339000">
        <ele>51.8</ele>
        <time>2020-07-29T14:32:31Z</time>
      </trkpt>
      <trkpt lat="43.3187650" lon="-1.5340520">
        <ele>52.0</ele>
        <time>2020-07-29T14:32:33Z</time>
      </trkpt>
      <trkpt lat="43.3190580" lon="-1.5345050">
        <ele>52.2</ele>
        <time>2020-07-29T14:32:39Z</time>
      </trkpt>
      <trkpt lat="43.3193150" lon="-1.5348790">
        <ele>52.0</ele>
        <time>2020-07-29T14:32:44Z</time>
      </trkpt>
      <trkpt lat="43.3194130" lon="-1.5350310">
        <ele>51.6</ele>
        <time>2020-07-29T14:32:46Z</time>
      </trkpt>
      <trkpt lat="43.3195070" lon="-1.5351840">
        <ele>51.2</ele>
        <time>2020-07-29T14:32:48Z</time>
      </trkpt>
      <trkpt lat="43.3196950" lon="-1.5354880">
        <ele>50.8</ele>
        <time>2020-07-29T14:32:52Z</time>
      </trkpt>
      <trkpt lat="43.3197870" lon="-1.5356450">
        <ele>51.0</ele>
        <time>2020-07-29T14:32:54Z</time>
      </trkpt>
      <trkpt lat="43.3199390" lon="-1.5360010">
        <ele>50.6</ele>
        <time>2020-07-29T14:32:58Z</time>
      </trkpt>
      <trkpt lat="43.3199630" lon="-1.5361000">
        <ele>50.6</ele>
        <time>2020-07-29T14:32:59Z</time>
      </trkpt>
      <trkpt lat="43.3199810" lon="-1.5362020">
        <ele>50.6</ele>
        <time>2020-07-29T14:33:00Z</time>
      </trkpt>
      <trkpt lat="43.3199940" lon="-1.5363030">
        <ele>50.6</ele>
        <time>2020-07-29T14:33:01Z</time>
      </trkpt>
      <trkpt lat="43.3200030" lon="-1.5364050">
        <ele>50.4</ele>
        <time>2020-07-29T14:33:02Z</time>
      </trkpt>
      <trkpt lat="43.3200280" lon="-1.5368220">
        <ele>50.4</ele>
        <time>2020-07-29T14:33:06Z</time>
      </trkpt>
      <trkpt lat="43.3200320" lon="-1.5371310">
        <ele>50.4</ele>
        <time>2020-07-29T14:33:09Z</time>
      </trkpt>
      <trkpt lat="43.3200570" lon="-1.5377450">
        <ele>49.8</ele>
        <time>2020-07-29T14:33:15Z</time>
      </trkpt>
      <trkpt lat="43.3200620" lon="-1.5378470">
        <ele>49.8</ele>
        <time>2020-07-29T14:33:16Z</time>
      </trkpt>
      <trkpt lat="43.3200670" lon="-1.5379500">
        <ele>49.8</ele>
        <time>2020-07-29T14:33:17Z</time>
      </trkpt>
      <trkpt lat="43.3200770" lon="-1.5381550">
        <ele>49.8</ele>
        <time>2020-07-29T14:33:19Z</time>
      </trkpt>
      <trkpt lat="43.3200960" lon="-1.5385660">
        <ele>49.6</ele>
        <time>2020-07-29T14:33:23Z</time>
      </trkpt>
      <trkpt lat="43.3201060" lon="-1.5387710">
        <ele>49.4</ele>
        <time>2020-07-29T14:33:25Z</time>
      </trkpt>
      <trkpt lat="43.3201110" lon="-1.5388740">
        <ele>49.6</ele>
        <time>2020-07-29T14:33:26Z</time>
      </trkpt>
      <trkpt lat="43.3201290" lon="-1.5394750">
        <ele>50.2</ele>
        <time>2020-07-29T14:33:32Z</time>
      </trkpt>
      <trkpt lat="43.3201020" lon="-1.5396650">
        <ele>50.4</ele>
        <time>2020-07-29T14:33:34Z</time>
      </trkpt>
      <trkpt lat="43.3199630" lon="-1.5402260">
        <ele>50.2</ele>
        <time>2020-07-29T14:33:40Z</time>
      </trkpt>
      <trkpt lat="43.3198130" lon="-1.5407910">
        <ele>50.2</ele>
        <time>2020-07-29T14:33:46Z</time>
      </trkpt>
      <trkpt lat="43.3197580" lon="-1.5409800">
        <ele>50.4</ele>
        <time>2020-07-29T14:33:48Z</time>
      </trkpt>
      <trkpt lat="43.3196050" lon="-1.5415510">
        <ele>50.6</ele>
        <time>2020-07-29T14:33:54Z</time>
      </trkpt>
      <trkpt lat="43.3194950" lon="-1.5419330">
        <ele>50.4</ele>
        <time>2020-07-29T14:33:58Z</time>
      </trkpt>
      <trkpt lat="43.3194680" lon="-1.5420290">
        <ele>50.2</ele>
        <time>2020-07-29T14:33:59Z</time>
      </trkpt>
      <trkpt lat="43.3193360" lon="-1.5425110">
        <ele>49.6</ele>
        <time>2020-07-29T14:34:04Z</time>
      </trkpt>
      <trkpt lat="43.3191730" lon="-1.5430690">
        <ele>49.4</ele>
        <time>2020-07-29T14:34:10Z</time>
      </trkpt>
      <trkpt lat="43.3190140" lon="-1.5436310">
        <ele>48.8</ele>
        <time>2020-07-29T14:34:16Z</time>
      </trkpt>
      <trkpt lat="43.3189400" lon="-1.5439140">
        <ele>48.8</ele>
        <time>2020-07-29T14:34:19Z</time>
      </trkpt>
      <trkpt lat="43.3188920" lon="-1.5441030">
        <ele>48.8</ele>
        <time>2020-07-29T14:34:21Z</time>
      </trkpt>
      <trkpt lat="43.3188520" lon="-1.5442920">
        <ele>48.8</ele>
        <time>2020-07-29T14:34:23Z</time>
      </trkpt>
      <trkpt lat="43.3188200" lon="-1.5444810">
        <ele>48.4</ele>
        <time>2020-07-29T14:34:25Z</time>
      </trkpt>
      <trkpt lat="43.3187960" lon="-1.5446720">
        <ele>48.4</ele>
        <time>2020-07-29T14:34:27Z</time>
      </trkpt>
      <trkpt lat="43.3187910" lon="-1.5447670">
        <ele>48.2</ele>
        <time>2020-07-29T14:34:28Z</time>
      </trkpt>
      <trkpt lat="43.3188190" lon="-1.5453650">
        <ele>47.4</ele>
        <time>2020-07-29T14:34:34Z</time>
      </trkpt>
      <trkpt lat="43.3188520" lon="-1.5455630">
        <ele>47.2</ele>
        <time>2020-07-29T14:34:36Z</time>
      </trkpt>
      <trkpt lat="43.3189320" lon="-1.5458470">
        <ele>46.4</ele>
        <time>2020-07-29T14:34:39Z</time>
      </trkpt>
      <trkpt lat="43.3189610" lon="-1.5459370">
        <ele>46.4</ele>
        <time>2020-07-29T14:34:40Z</time>
      </trkpt>
      <trkpt lat="43.3191420" lon="-1.5463580">
        <ele>46.8</ele>
        <time>2020-07-29T14:34:45Z</time>
      </trkpt>
      <trkpt lat="43.3191830" lon="-1.5464370">
        <ele>46.8</ele>
        <time>2020-07-29T14:34:46Z</time>
      </trkpt>
      <trkpt lat="43.3194750" lon="-1.5468580">
        <ele>46.6</ele>
        <time>2020-07-29T14:34:52Z</time>
      </trkpt>
      <trkpt lat="43.3196810" lon="-1.5471220">
        <ele>46.4</ele>
        <time>2020-07-29T14:34:56Z</time>
      </trkpt>
      <trkpt lat="43.3198830" lon="-1.5473850">
        <ele>46.2</ele>
        <time>2020-07-29T14:35:00Z</time>
      </trkpt>
      <trkpt lat="43.3199350" lon="-1.5474480">
        <ele>46.2</ele>
        <time>2020-07-29T14:35:01Z</time>
      </trkpt>
      <trkpt lat="43.3202370" lon="-1.5478190">
        <ele>45.6</ele>
        <time>2020-07-29T14:35:07Z</time>
      </trkpt>
      <trkpt lat="43.3203350" lon="-1.5479430">
        <ele>45.4</ele>
        <time>2020-07-29T14:35:09Z</time>
      </trkpt>
      <trkpt lat="43.3204810" lon="-1.5481240">
        <ele>45.2</ele>
        <time>2020-07-29T14:35:12Z</time>
      </trkpt>
      <trkpt lat="43.3207180" lon="-1.5484170">
        <ele>45.2</ele>
        <time>2020-07-29T14:35:17Z</time>
      </trkpt>
      <trkpt lat="43.3207640" lon="-1.5484750">
        <ele>45.4</ele>
        <time>2020-07-29T14:35:18Z</time>
      </trkpt>
      <trkpt lat="43.3208600" lon="-1.5485900">
        <ele>45.4</ele>
        <time>2020-07-29T14:35:20Z</time>
      </trkpt>
      <trkpt lat="43.3210590" lon="-1.5488300">
        <ele>45.6</ele>
        <time>2020-07-29T14:35:24Z</time>
      </trkpt>
      <trkpt lat="43.3212130" lon="-1.5490300">
        <ele>45.8</ele>
        <time>2020-07-29T14:35:27Z</time>
      </trkpt>
      <trkpt lat="43.3213070" lon="-1.5491720">
        <ele>45.4</ele>
        <time>2020-07-29T14:35:29Z</time>
      </trkpt>
      <trkpt lat="43.3213680" lon="-1.5493330">
        <ele>45.2</ele>
        <time>2020-07-29T14:35:31Z</time>
      </trkpt>
      <trkpt lat="43.3213870" lon="-1.5494180">
        <ele>45.0</ele>
        <time>2020-07-29T14:35:32Z</time>
      </trkpt>
      <trkpt lat="43.3214570" lon="-1.5498830">
        <ele>45.6</ele>
        <time>2020-07-29T14:35:38Z</time>
      </trkpt>
      <trkpt lat="43.3214980" lon="-1.5502940">
        <ele>46.2</ele>
        <time>2020-07-29T14:35:44Z</time>
      </trkpt>
      <trkpt lat="43.3215150" lon="-1.5503430">
        <ele>46.4</ele>
        <time>2020-07-29T14:35:45Z</time>
      </trkpt>
      <trkpt lat="43.3215440" lon="-1.5504450">
        <ele>46.4</ele>
        <time>2020-07-29T14:35:47Z</time>
      </trkpt>
      <trkpt lat="43.3215410" lon="-1.5505750">
        <ele>46.2</ele>
        <time>2020-07-29T14:35:49Z</time>
      </trkpt>
      <trkpt lat="43.3214430" lon="-1.5509070">
        <ele>45.6</ele>
        <time>2020-07-29T14:35:53Z</time>
      </trkpt>
      <trkpt lat="43.3213990" lon="-1.5510750">
        <ele>45.6</ele>
        <time>2020-07-29T14:35:55Z</time>
      </trkpt>
      <trkpt lat="43.3213070" lon="-1.5514220">
        <ele>45.4</ele>
        <time>2020-07-29T14:35:59Z</time>
      </trkpt>
      <trkpt lat="43.3212410" lon="-1.5516940">
        <ele>45.2</ele>
        <time>2020-07-29T14:36:02Z</time>
      </trkpt>
      <trkpt lat="43.3211070" lon="-1.5522350">
        <ele>45.0</ele>
        <time>2020-07-29T14:36:08Z</time>
      </trkpt>
      <trkpt lat="43.3210830" lon="-1.5523250">
        <ele>45.0</ele>
        <time>2020-07-29T14:36:09Z</time>
      </trkpt>
      <trkpt lat="43.3209460" lon="-1.5528400">
        <ele>45.8</ele>
        <time>2020-07-29T14:36:15Z</time>
      </trkpt>
      <trkpt lat="43.3208980" lon="-1.5530010">
        <ele>46.0</ele>
        <time>2020-07-29T14:36:17Z</time>
      </trkpt>
      <trkpt lat="43.3206820" lon="-1.5534640">
        <ele>46.2</ele>
        <time>2020-07-29T14:36:23Z</time>
      </trkpt>
      <trkpt lat="43.3206330" lon="-1.5535260">
        <ele>46.2</ele>
        <time>2020-07-29T14:36:24Z</time>
      </trkpt>
      <trkpt lat="43.3204060" lon="-1.5537450">
        <ele>46.6</ele>
        <time>2020-07-29T14:36:28Z</time>
      </trkpt>
      <trkpt lat="43.3201130" lon="-1.5539790">
        <ele>47.0</ele>
        <time>2020-07-29T14:36:33Z</time>
      </trkpt>
      <trkpt lat="43.3200320" lon="-1.5541100">
        <ele>47.2</ele>
        <time>2020-07-29T14:36:35Z</time>
      </trkpt>
      <trkpt lat="43.3200000" lon="-1.5541840">
        <ele>47.2</ele>
        <time>2020-07-29T14:36:36Z</time>
      </trkpt>
      <trkpt lat="43.3199740" lon="-1.5542590">
        <ele>47.4</ele>
        <time>2020-07-29T14:36:37Z</time>
      </trkpt>
      <trkpt lat="43.3198880" lon="-1.5546290">
        <ele>48.2</ele>
        <time>2020-07-29T14:36:42Z</time>
      </trkpt>
      <trkpt lat="43.3198730" lon="-1.5546970">
        <ele>48.6</ele>
        <time>2020-07-29T14:36:43Z</time>
      </trkpt>
      <trkpt lat="43.3198200" lon="-1.5549680">
        <ele>49.6</ele>
        <time>2020-07-29T14:36:47Z</time>
      </trkpt>
      <trkpt lat="43.3197610" lon="-1.5552420">
        <ele>49.8</ele>
        <time>2020-07-29T14:36:51Z</time>
      </trkpt>
      <trkpt lat="43.3196750" lon="-1.5556320">
        <ele>50.8</ele>
        <time>2020-07-29T14:36:57Z</time>
      </trkpt>
      <trkpt lat="43.3196350" lon="-1.5558060">
        <ele>51.6</ele>
        <time>2020-07-29T14:37:00Z</time>
      </trkpt>
      <trkpt lat="43.3196200" lon="-1.5558640">
        <ele>52.0</ele>
        <time>2020-07-29T14:37:01Z</time>
      </trkpt>
      <trkpt lat="43.3195340" lon="-1.5562270">
        <ele>52.8</ele>
        <time>2020-07-29T14:37:07Z</time>
      </trkpt>
      <trkpt lat="43.3195180" lon="-1.5562900">
        <ele>53.0</ele>
        <time>2020-07-29T14:37:08Z</time>
      </trkpt>
      <trkpt lat="43.3193900" lon="-1.5566680">
        <ele>53.6</ele>
        <time>2020-07-29T14:37:14Z</time>
      </trkpt>
      <trkpt lat="43.3193580" lon="-1.5567260">
        <ele>53.6</ele>
        <time>2020-07-29T14:37:15Z</time>
      </trkpt>
      <trkpt lat="43.3191330" lon="-1.5570410">
        <ele>54.0</ele>
        <time>2020-07-29T14:37:21Z</time>
      </trkpt>
      <trkpt lat="43.3190970" lon="-1.5570900">
        <ele>54.0</ele>
        <time>2020-07-29T14:37:22Z</time>
      </trkpt>
      <trkpt lat="43.3190630" lon="-1.5571390">
        <ele>54.4</ele>
        <time>2020-07-29T14:37:23Z</time>
      </trkpt>
      <trkpt lat="43.3189960" lon="-1.5572310">
        <ele>55.2</ele>
        <time>2020-07-29T14:37:25Z</time>
      </trkpt>
      <trkpt lat="43.3188570" lon="-1.5574030">
        <ele>56.0</ele>
        <time>2020-07-29T14:37:29Z</time>
      </trkpt>
      <trkpt lat="43.3188230" lon="-1.5574500">
        <ele>56.4</ele>
        <time>2020-07-29T14:37:30Z</time>
      </trkpt>
      <trkpt lat="43.3186170" lon="-1.5577460">
        <ele>57.0</ele>
        <time>2020-07-29T14:37:36Z</time>
      </trkpt>
      <trkpt lat="43.3185810" lon="-1.5577990">
        <ele>57.2</ele>
        <time>2020-07-29T14:37:37Z</time>
      </trkpt>
      <trkpt lat="43.3184400" lon="-1.5580240">
        <ele>57.4</ele>
        <time>2020-07-29T14:37:41Z</time>
      </trkpt>
      <trkpt lat="43.3183170" lon="-1.5582550">
        <ele>57.8</ele>
        <time>2020-07-29T14:37:45Z</time>
      </trkpt>
      <trkpt lat="43.3182310" lon="-1.5584200">
        <ele>57.8</ele>
        <time>2020-07-29T14:37:48Z</time>
      </trkpt>
      <trkpt lat="43.3180620" lon="-1.5587220">
        <ele>58.2</ele>
        <time>2020-07-29T14:37:54Z</time>
      </trkpt>
      <trkpt lat="43.3180320" lon="-1.5587660">
        <ele>58.4</ele>
        <time>2020-07-29T14:37:55Z</time>
      </trkpt>
      <trkpt lat="43.3179370" lon="-1.5588900">
        <ele>59.6</ele>
        <time>2020-07-29T14:37:58Z</time>
      </trkpt>
      <trkpt lat="43.3178390" lon="-1.5590100">
        <ele>60.0</ele>
        <time>2020-07-29T14:38:01Z</time>
      </trkpt>
      <trkpt lat="43.3178070" lon="-1.5590520">
        <ele>60.2</ele>
        <time>2020-07-29T14:38:02Z</time>
      </trkpt>
      <trkpt lat="43.3177770" lon="-1.5590960">
        <ele>60.2</ele>
        <time>2020-07-29T14:38:03Z</time>
      </trkpt>
      <trkpt lat="43.3176970" lon="-1.5592420">
        <ele>60.6</ele>
        <time>2020-07-29T14:38:06Z</time>
      </trkpt>
      <trkpt lat="43.3176760" lon="-1.5592950">
        <ele>61.0</ele>
        <time>2020-07-29T14:38:07Z</time>
      </trkpt>
      <trkpt lat="43.3176580" lon="-1.5593480">
        <ele>61.2</ele>
        <time>2020-07-29T14:38:08Z</time>
      </trkpt>
      <trkpt lat="43.3176430" lon="-1.5594000">
        <ele>61.6</ele>
        <time>2020-07-29T14:38:09Z</time>
      </trkpt>
      <trkpt lat="43.3176310" lon="-1.5594500">
        <ele>62.0</ele>
        <time>2020-07-29T14:38:10Z</time>
      </trkpt>
      <trkpt lat="43.3176020" lon="-1.5596100">
        <ele>62.6</ele>
        <time>2020-07-29T14:38:13Z</time>
      </trkpt>
      <trkpt lat="43.3175910" lon="-1.5596670">
        <ele>62.6</ele>
        <time>2020-07-29T14:38:14Z</time>
      </trkpt>
      <trkpt lat="43.3175730" lon="-1.5597190">
        <ele>62.8</ele>
        <time>2020-07-29T14:38:15Z</time>
      </trkpt>
      <trkpt lat="43.3175320" lon="-1.5598310">
        <ele>63.2</ele>
        <time>2020-07-29T14:38:17Z</time>
      </trkpt>
      <trkpt lat="43.3175040" lon="-1.5598870">
        <ele>63.2</ele>
        <time>2020-07-29T14:38:18Z</time>
      </trkpt>
      <trkpt lat="43.3174710" lon="-1.5599450">
        <ele>63.2</ele>
        <time>2020-07-29T14:38:19Z</time>
      </trkpt>
      <trkpt lat="43.3172240" lon="-1.5602350">
        <ele>63.2</ele>
        <time>2020-07-29T14:38:25Z</time>
      </trkpt>
      <trkpt lat="43.3171820" lon="-1.5602760">
        <ele>63.2</ele>
        <time>2020-07-29T14:38:26Z</time>
      </trkpt>
      <trkpt lat="43.3170700" lon="-1.5603850">
        <ele>64.2</ele>
        <time>2020-07-29T14:38:29Z</time>
      </trkpt>
      <trkpt lat="43.3169720" lon="-1.5604870">
        <ele>65.4</ele>
        <time>2020-07-29T14:38:32Z</time>
      </trkpt>
      <trkpt lat="43.3169390" lon="-1.5605210">
        <ele>65.6</ele>
        <time>2020-07-29T14:38:33Z</time>
      </trkpt>
      <trkpt lat="43.3168380" lon="-1.5606210">
        <ele>66.4</ele>
        <time>2020-07-29T14:38:36Z</time>
      </trkpt>
      <trkpt lat="43.3167410" lon="-1.5607270">
        <ele>67.0</ele>
        <time>2020-07-29T14:38:39Z</time>
      </trkpt>
      <trkpt lat="43.3166720" lon="-1.5607960">
        <ele>67.2</ele>
        <time>2020-07-29T14:38:41Z</time>
      </trkpt>
      <trkpt lat="43.3166040" lon="-1.5608700">
        <ele>67.4</ele>
        <time>2020-07-29T14:38:43Z</time>
      </trkpt>
      <trkpt lat="43.3164170" lon="-1.5610800">
        <ele>67.2</ele>
        <time>2020-07-29T14:38:48Z</time>
      </trkpt>
      <trkpt lat="43.3162770" lon="-1.5612270">
        <ele>66.8</ele>
        <time>2020-07-29T14:38:51Z</time>
      </trkpt>
      <trkpt lat="43.3161730" lon="-1.5613340">
        <ele>66.2</ele>
        <time>2020-07-29T14:38:53Z</time>
      </trkpt>
      <trkpt lat="43.3161190" lon="-1.5613890">
        <ele>65.6</ele>
        <time>2020-07-29T14:38:54Z</time>
      </trkpt>
      <trkpt lat="43.3160090" lon="-1.5614920">
        <ele>65.0</ele>
        <time>2020-07-29T14:38:56Z</time>
      </trkpt>
      <trkpt lat="43.3159490" lon="-1.5615390">
        <ele>64.6</ele>
        <time>2020-07-29T14:38:57Z</time>
      </trkpt>
      <trkpt lat="43.3158180" lon="-1.5616100">
        <ele>64.2</ele>
        <time>2020-07-29T14:38:59Z</time>
      </trkpt>
      <trkpt lat="43.3156830" lon="-1.5616290">
        <ele>63.8</ele>
        <time>2020-07-29T14:39:01Z</time>
      </trkpt>
      <trkpt lat="43.3156120" lon="-1.5616180">
        <ele>63.6</ele>
        <time>2020-07-29T14:39:02Z</time>
      </trkpt>
      <trkpt lat="43.3155400" lon="-1.5615960">
        <ele>63.4</ele>
        <time>2020-07-29T14:39:03Z</time>
      </trkpt>
      <trkpt lat="43.3154710" lon="-1.5615610">
        <ele>63.0</ele>
        <time>2020-07-29T14:39:04Z</time>
      </trkpt>
      <trkpt lat="43.3154020" lon="-1.5615180">
        <ele>62.6</ele>
        <time>2020-07-29T14:39:05Z</time>
      </trkpt>
      <trkpt lat="43.3152690" lon="-1.5614210">
        <ele>62.0</ele>
        <time>2020-07-29T14:39:07Z</time>
      </trkpt>
      <trkpt lat="43.3151310" lon="-1.5613230">
        <ele>61.4</ele>
        <time>2020-07-29T14:39:09Z</time>
      </trkpt>
      <trkpt lat="43.3149130" lon="-1.5611730">
        <ele>60.6</ele>
        <time>2020-07-29T14:39:12Z</time>
      </trkpt>
      <trkpt lat="43.3148350" lon="-1.5611430">
        <ele>60.4</ele>
        <time>2020-07-29T14:39:13Z</time>
      </trkpt>
      <trkpt lat="43.3147510" lon="-1.5611440">
        <ele>60.2</ele>
        <time>2020-07-29T14:39:14Z</time>
      </trkpt>
      <trkpt lat="43.3146780" lon="-1.5611870">
        <ele>60.0</ele>
        <time>2020-07-29T14:39:15Z</time>
      </trkpt>
      <trkpt lat="43.3146220" lon="-1.5612610">
        <ele>59.8</ele>
        <time>2020-07-29T14:39:16Z</time>
      </trkpt>
      <trkpt lat="43.3145790" lon="-1.5613520">
        <ele>59.6</ele>
        <time>2020-07-29T14:39:17Z</time>
      </trkpt>
      <trkpt lat="43.3145510" lon="-1.5614550">
        <ele>59.2</ele>
        <time>2020-07-29T14:39:18Z</time>
      </trkpt>
      <trkpt lat="43.3145330" lon="-1.5615690">
        <ele>58.8</ele>
        <time>2020-07-29T14:39:19Z</time>
      </trkpt>
      <trkpt lat="43.3144840" lon="-1.5619050">
        <ele>58.2</ele>
        <time>2020-07-29T14:39:22Z</time>
      </trkpt>
      <trkpt lat="43.3144400" lon="-1.5621410">
        <ele>57.8</ele>
        <time>2020-07-29T14:39:24Z</time>
      </trkpt>
      <trkpt lat="43.3144090" lon="-1.5622540">
        <ele>57.6</ele>
        <time>2020-07-29T14:39:25Z</time>
      </trkpt>
      <trkpt lat="43.3141920" lon="-1.5627650">
        <ele>57.6</ele>
        <time>2020-07-29T14:39:30Z</time>
      </trkpt>
      <trkpt lat="43.3139460" lon="-1.5630920">
        <ele>56.2</ele>
        <time>2020-07-29T14:39:34Z</time>
      </trkpt>
      <trkpt lat="43.3138770" lon="-1.5631620">
        <ele>55.0</ele>
        <time>2020-07-29T14:39:35Z</time>
      </trkpt>
      <trkpt lat="43.3136680" lon="-1.5633400">
        <ele>53.8</ele>
        <time>2020-07-29T14:39:38Z</time>
      </trkpt>
      <trkpt lat="43.3134780" lon="-1.5634990">
        <ele>54.4</ele>
        <time>2020-07-29T14:39:41Z</time>
      </trkpt>
      <trkpt lat="43.3132950" lon="-1.5636530">
        <ele>54.8</ele>
        <time>2020-07-29T14:39:44Z</time>
      </trkpt>
      <trkpt lat="43.3131260" lon="-1.5638280">
        <ele>55.0</ele>
        <time>2020-07-29T14:39:47Z</time>
      </trkpt>
      <trkpt lat="43.3130750" lon="-1.5638940">
        <ele>55.0</ele>
        <time>2020-07-29T14:39:48Z</time>
      </trkpt>
      <trkpt lat="43.3128940" lon="-1.5641940">
        <ele>55.2</ele>
        <time>2020-07-29T14:39:52Z</time>
      </trkpt>
      <trkpt lat="43.3128070" lon="-1.5643510">
        <ele>55.0</ele>
        <time>2020-07-29T14:39:54Z</time>
      </trkpt>
      <trkpt lat="43.3126750" lon="-1.5645860">
        <ele>55.2</ele>
        <time>2020-07-29T14:39:57Z</time>
      </trkpt>
      <trkpt lat="43.3124860" lon="-1.5648660">
        <ele>55.4</ele>
        <time>2020-07-29T14:40:01Z</time>
      </trkpt>
      <trkpt lat="43.3124300" lon="-1.5649280">
        <ele>55.2</ele>
        <time>2020-07-29T14:40:02Z</time>
      </trkpt>
      <trkpt lat="43.3123680" lon="-1.5649820">
        <ele>55.4</ele>
        <time>2020-07-29T14:40:03Z</time>
      </trkpt>
      <trkpt lat="43.3120990" lon="-1.5651680">
        <ele>55.2</ele>
        <time>2020-07-29T14:40:07Z</time>
      </trkpt>
      <trkpt lat="43.3116870" lon="-1.5654030">
        <ele>54.6</ele>
        <time>2020-07-29T14:40:13Z</time>
      </trkpt>
      <trkpt lat="43.3114900" lon="-1.5655190">
        <ele>54.6</ele>
        <time>2020-07-29T14:40:16Z</time>
      </trkpt>
      <trkpt lat="43.3111700" lon="-1.5657000">
        <ele>54.6</ele>
        <time>2020-07-29T14:40:21Z</time>
      </trkpt>
      <trkpt lat="43.3108510" lon="-1.5658730">
        <ele>55.2</ele>
        <time>2020-07-29T14:40:26Z</time>
      </trkpt>
      <trkpt lat="43.3106640" lon="-1.5659800">
        <ele>55.6</ele>
        <time>2020-07-29T14:40:29Z</time>
      </trkpt>
      <trkpt lat="43.3105480" lon="-1.5660630">
        <ele>55.8</ele>
        <time>2020-07-29T14:40:31Z</time>
      </trkpt>
      <trkpt lat="43.3104920" lon="-1.5661110">
        <ele>56.0</ele>
        <time>2020-07-29T14:40:32Z</time>
      </trkpt>
      <trkpt lat="43.3102060" lon="-1.5664600">
        <ele>56.0</ele>
        <time>2020-07-29T14:40:38Z</time>
      </trkpt>
      <trkpt lat="43.3099770" lon="-1.5668790">
        <ele>57.0</ele>
        <time>2020-07-29T14:40:44Z</time>
      </trkpt>
      <trkpt lat="43.3099390" lon="-1.5669490">
        <ele>57.2</ele>
        <time>2020-07-29T14:40:45Z</time>
      </trkpt>
      <trkpt lat="43.3097190" lon="-1.5673330">
        <ele>57.0</ele>
        <time>2020-07-29T14:40:51Z</time>
      </trkpt>
      <trkpt lat="43.3096780" lon="-1.5673950">
        <ele>56.8</ele>
        <time>2020-07-29T14:40:52Z</time>
      </trkpt>
      <trkpt lat="43.3094610" lon="-1.5677570">
        <ele>57.2</ele>
        <time>2020-07-29T14:40:58Z</time>
      </trkpt>
      <trkpt lat="43.3094160" lon="-1.5678830">
        <ele>57.4</ele>
        <time>2020-07-29T14:41:00Z</time>
      </trkpt>
      <trkpt lat="43.3093970" lon="-1.5679540">
        <ele>57.6</ele>
        <time>2020-07-29T14:41:01Z</time>
      </trkpt>
      <trkpt lat="43.3093370" lon="-1.5682340">
        <ele>57.8</ele>
        <time>2020-07-29T14:41:05Z</time>
      </trkpt>
      <trkpt lat="43.3093180" lon="-1.5683040">
        <ele>58.0</ele>
        <time>2020-07-29T14:41:06Z</time>
      </trkpt>
      <trkpt lat="43.3093020" lon="-1.5683690">
        <ele>58.0</ele>
        <time>2020-07-29T14:41:07Z</time>
      </trkpt>
      <trkpt lat="43.3092340" lon="-1.5686340">
        <ele>59.0</ele>
        <time>2020-07-29T14:41:11Z</time>
      </trkpt>
      <trkpt lat="43.3092240" lon="-1.5687030">
        <ele>59.2</ele>
        <time>2020-07-29T14:41:12Z</time>
      </trkpt>
      <trkpt lat="43.3091900" lon="-1.5689930">
        <ele>59.4</ele>
        <time>2020-07-29T14:41:16Z</time>
      </trkpt>
      <trkpt lat="43.3091910" lon="-1.5691430">
        <ele>59.4</ele>
        <time>2020-07-29T14:41:18Z</time>
      </trkpt>
      <trkpt lat="43.3092250" lon="-1.5693580">
        <ele>60.2</ele>
        <time>2020-07-29T14:41:21Z</time>
      </trkpt>
      <trkpt lat="43.3092780" lon="-1.5695560">
        <ele>60.4</ele>
        <time>2020-07-29T14:41:24Z</time>
      </trkpt>
      <trkpt lat="43.3094300" lon="-1.5699410">
        <ele>60.8</ele>
        <time>2020-07-29T14:41:30Z</time>
      </trkpt>
      <trkpt lat="43.3094560" lon="-1.5700050">
        <ele>61.0</ele>
        <time>2020-07-29T14:41:31Z</time>
      </trkpt>
      <trkpt lat="43.3095140" lon="-1.5701280">
        <ele>61.2</ele>
        <time>2020-07-29T14:41:33Z</time>
      </trkpt>
      <trkpt lat="43.3096140" lon="-1.5703060">
        <ele>61.6</ele>
        <time>2020-07-29T14:41:36Z</time>
      </trkpt>
      <trkpt lat="43.3096470" lon="-1.5704380">
        <ele>61.8</ele>
        <time>2020-07-29T14:41:38Z</time>
      </trkpt>
      <trkpt lat="43.3098370" lon="-1.5707540">
        <ele>62.2</ele>
        <time>2020-07-29T14:41:44Z</time>
      </trkpt>
      <trkpt lat="43.3098640" lon="-1.5708070">
        <ele>62.4</ele>
        <time>2020-07-29T14:41:45Z</time>
      </trkpt>
      <trkpt lat="43.3098880" lon="-1.5708610">
        <ele>62.8</ele>
        <time>2020-07-29T14:41:46Z</time>
      </trkpt>
      <trkpt lat="43.3099190" lon="-1.5709820">
        <ele>63.2</ele>
        <time>2020-07-29T14:41:48Z</time>
      </trkpt>
      <trkpt lat="43.3099260" lon="-1.5710470">
        <ele>63.4</ele>
        <time>2020-07-29T14:41:49Z</time>
      </trkpt>
      <trkpt lat="43.3099270" lon="-1.5711160">
        <ele>63.4</ele>
        <time>2020-07-29T14:41:50Z</time>
      </trkpt>
      <trkpt lat="43.3099140" lon="-1.5713760">
        <ele>63.0</ele>
        <time>2020-07-29T14:41:54Z</time>
      </trkpt>
      <trkpt lat="43.3098920" lon="-1.5715080">
        <ele>62.8</ele>
        <time>2020-07-29T14:41:58Z</time>
      </trkpt>
      <trkpt lat="43.3098820" lon="-1.5715450">
        <ele>62.8</ele>
        <time>2020-07-29T14:42:01Z</time>
      </trkpt>
      <trkpt lat="43.3098050" lon="-1.5716220">
        <ele>61.6</ele>
        <time>2020-07-29T14:44:20Z</time>
      </trkpt>
      <trkpt lat="43.3098010" lon="-1.5716510">
        <ele>61.6</ele>
        <time>2020-07-29T14:44:21Z</time>
      </trkpt>
      <trkpt lat="43.3097890" lon="-1.5717200">
        <ele>61.4</ele>
        <time>2020-07-29T14:44:23Z</time>
      </trkpt>
      <trkpt lat="43.3097800" lon="-1.5717620">
        <ele>61.0</ele>
        <time>2020-07-29T14:44:24Z</time>
      </trkpt>
      <trkpt lat="43.3097710" lon="-1.5718030">
        <ele>60.8</ele>
        <time>2020-07-29T14:44:25Z</time>
      </trkpt>
      <trkpt lat="43.3097500" lon="-1.5719020">
        <ele>60.6</ele>
        <time>2020-07-29T14:44:27Z</time>
      </trkpt>
      <trkpt lat="43.3097380" lon="-1.5719710">
        <ele>60.8</ele>
        <time>2020-07-29T14:44:29Z</time>
      </trkpt>
      <trkpt lat="43.3097370" lon="-1.5719890">
        <ele>61.0</ele>
        <time>2020-07-29T14:44:30Z</time>
      </trkpt>
      <trkpt lat="43.3097220" lon="-1.5720490">
        <ele>61.4</ele>
        <time>2020-07-29T14:44:34Z</time>
      </trkpt>
      <trkpt lat="43.3097180" lon="-1.5720620">
        <ele>61.4</ele>
        <time>2020-07-29T14:44:35Z</time>
      </trkpt>
      <trkpt lat="43.3097150" lon="-1.5720740">
        <ele>61.4</ele>
        <time>2020-07-29T14:44:36Z</time>
      </trkpt>
      <trkpt lat="43.3096760" lon="-1.5722450">
        <ele>61.0</ele>
        <time>2020-07-29T14:44:41Z</time>
      </trkpt>
      <trkpt lat="43.3096520" lon="-1.5722900">
        <ele>60.8</ele>
        <time>2020-07-29T14:44:42Z</time>
      </trkpt>
      <trkpt lat="43.3095740" lon="-1.5723510">
        <ele>60.4</ele>
        <time>2020-07-29T14:44:44Z</time>
      </trkpt>
      <trkpt lat="43.3094800" lon="-1.5723970">
        <ele>60.2</ele>
        <time>2020-07-29T14:44:46Z</time>
      </trkpt>
      <trkpt lat="43.3093030" lon="-1.5724850">
        <ele>59.6</ele>
        <time>2020-07-29T14:44:49Z</time>
      </trkpt>
      <trkpt lat="43.3092390" lon="-1.5725100">
        <ele>59.2</ele>
        <time>2020-07-29T14:44:50Z</time>
      </trkpt>
      <trkpt lat="43.3090400" lon="-1.5725860">
        <ele>58.4</ele>
        <time>2020-07-29T14:44:53Z</time>
      </trkpt>
      <trkpt lat="43.3089730" lon="-1.5726100">
        <ele>58.2</ele>
        <time>2020-07-29T14:44:54Z</time>
      </trkpt>
      <trkpt lat="43.3089100" lon="-1.5726360">
        <ele>58.0</ele>
        <time>2020-07-29T14:44:55Z</time>
      </trkpt>
      <trkpt lat="43.3085530" lon="-1.5727270">
        <ele>57.4</ele>
        <time>2020-07-29T14:45:01Z</time>
      </trkpt>
      <trkpt lat="43.3084940" lon="-1.5727300">
        <ele>57.4</ele>
        <time>2020-07-29T14:45:02Z</time>
      </trkpt>
      <trkpt lat="43.3081440" lon="-1.5726900">
        <ele>58.4</ele>
        <time>2020-07-29T14:45:08Z</time>
      </trkpt>
      <trkpt lat="43.3078290" lon="-1.5726960">
        <ele>59.2</ele>
        <time>2020-07-29T14:45:14Z</time>
      </trkpt>
      <trkpt lat="43.3077760" lon="-1.5727000">
        <ele>59.2</ele>
        <time>2020-07-29T14:45:15Z</time>
      </trkpt>
      <trkpt lat="43.3077210" lon="-1.5727070">
        <ele>59.2</ele>
        <time>2020-07-29T14:45:16Z</time>
      </trkpt>
      <trkpt lat="43.3073710" lon="-1.5727390">
        <ele>58.8</ele>
        <time>2020-07-29T14:45:22Z</time>
      </trkpt>
      <trkpt lat="43.3072470" lon="-1.5727280">
        <ele>58.8</ele>
        <time>2020-07-29T14:45:24Z</time>
      </trkpt>
      <trkpt lat="43.3071260" lon="-1.5726850">
        <ele>58.8</ele>
        <time>2020-07-29T14:45:26Z</time>
      </trkpt>
      <trkpt lat="43.3070650" lon="-1.5726500">
        <ele>58.6</ele>
        <time>2020-07-29T14:45:27Z</time>
      </trkpt>
      <trkpt lat="43.3069410" lon="-1.5725890">
        <ele>58.2</ele>
        <time>2020-07-29T14:45:29Z</time>
      </trkpt>
      <trkpt lat="43.3067550" lon="-1.5724950">
        <ele>57.6</ele>
        <time>2020-07-29T14:45:32Z</time>
      </trkpt>
      <trkpt lat="43.3066280" lon="-1.5724490">
        <ele>57.4</ele>
        <time>2020-07-29T14:45:34Z</time>
      </trkpt>
      <trkpt lat="43.3063780" lon="-1.5724080">
        <ele>57.8</ele>
        <time>2020-07-29T14:45:38Z</time>
      </trkpt>
      <trkpt lat="43.3063210" lon="-1.5724030">
        <ele>58.0</ele>
        <time>2020-07-29T14:45:39Z</time>
      </trkpt>
      <trkpt lat="43.3062100" lon="-1.5724030">
        <ele>58.2</ele>
        <time>2020-07-29T14:45:41Z</time>
      </trkpt>
      <trkpt lat="43.3059890" lon="-1.5724310">
        <ele>58.4</ele>
        <time>2020-07-29T14:45:45Z</time>
      </trkpt>
      <trkpt lat="43.3056960" lon="-1.5725040">
        <ele>58.8</ele>
        <time>2020-07-29T14:45:51Z</time>
      </trkpt>
      <trkpt lat="43.3056660" lon="-1.5725300">
        <ele>58.8</ele>
        <time>2020-07-29T14:45:53Z</time>
      </trkpt>
      <trkpt lat="43.3056620" lon="-1.5725520">
        <ele>58.8</ele>
        <time>2020-07-29T14:45:54Z</time>
      </trkpt>
      <trkpt lat="43.3056630" lon="-1.5725740">
        <ele>59.0</ele>
        <time>2020-07-29T14:45:55Z</time>
      </trkpt>
      <trkpt lat="43.3056750" lon="-1.5726190">
        <ele>59.0</ele>
        <time>2020-07-29T14:45:57Z</time>
      </trkpt>
      <trkpt lat="43.3056790" lon="-1.5726370">
        <ele>59.2</ele>
        <time>2020-07-29T14:45:58Z</time>
      </trkpt>
      <trkpt lat="43.3056730" lon="-1.5726480">
        <ele>59.2</ele>
        <time>2020-07-29T14:46:00Z</time>
      </trkpt>
      <trkpt lat="43.3056690" lon="-1.5726380">
        <ele>59.2</ele>
        <time>2020-07-29T14:46:01Z</time>
      </trkpt>
      <trkpt lat="43.3056690" lon="-1.5726290">
        <ele>59.2</ele>
        <time>2020-07-29T14:46:02Z</time>
      </trkpt>
      <trkpt lat="43.3056680" lon="-1.5726270">
        <ele>59.2</ele>
        <time>2020-07-29T14:46:03Z</time>
      </trkpt>
      <trkpt lat="43.3056310" lon="-1.5725600">
        <ele>58.8</ele>
        <time>2020-07-29T14:46:33Z</time>
      </trkpt>
      <trkpt lat="43.3056130" lon="-1.5725700">
        <ele>58.8</ele>
        <time>2020-07-29T14:46:34Z</time>
      </trkpt>
      <trkpt lat="43.3055730" lon="-1.5725900">
        <ele>58.8</ele>
        <time>2020-07-29T14:46:36Z</time>
      </trkpt>
      <trkpt lat="43.3054990" lon="-1.5726350">
        <ele>58.8</ele>
        <time>2020-07-29T14:46:39Z</time>
      </trkpt>
      <trkpt lat="43.3052920" lon="-1.5727200">
        <ele>58.8</ele>
        <time>2020-07-29T14:46:45Z</time>
      </trkpt>
      <trkpt lat="43.3052500" lon="-1.5727440">
        <ele>59.0</ele>
        <time>2020-07-29T14:46:46Z</time>
      </trkpt>
      <trkpt lat="43.3051570" lon="-1.5728020">
        <ele>58.8</ele>
        <time>2020-07-29T14:46:48Z</time>
      </trkpt>
      <trkpt lat="43.3050650" lon="-1.5728720">
        <ele>59.0</ele>
        <time>2020-07-29T14:46:50Z</time>
      </trkpt>
      <trkpt lat="43.3050190" lon="-1.5729120">
        <ele>59.0</ele>
        <time>2020-07-29T14:46:51Z</time>
      </trkpt>
      <trkpt lat="43.3049720" lon="-1.5729540">
        <ele>59.0</ele>
        <time>2020-07-29T14:46:52Z</time>
      </trkpt>
      <trkpt lat="43.3048730" lon="-1.5730320">
        <ele>58.8</ele>
        <time>2020-07-29T14:46:54Z</time>
      </trkpt>
      <trkpt lat="43.3047170" lon="-1.5731370">
        <ele>58.8</ele>
        <time>2020-07-29T14:46:57Z</time>
      </trkpt>
      <trkpt lat="43.3045560" lon="-1.5732350">
        <ele>58.6</ele>
        <time>2020-07-29T14:47:00Z</time>
      </trkpt>
      <trkpt lat="43.3042350" lon="-1.5734200">
        <ele>58.2</ele>
        <time>2020-07-29T14:47:06Z</time>
      </trkpt>
      <trkpt lat="43.3041340" lon="-1.5734920">
        <ele>58.4</ele>
        <time>2020-07-29T14:47:08Z</time>
      </trkpt>
      <trkpt lat="43.3039340" lon="-1.5736530">
        <ele>58.4</ele>
        <time>2020-07-29T14:47:12Z</time>
      </trkpt>
      <trkpt lat="43.3038020" lon="-1.5737980">
        <ele>58.6</ele>
        <time>2020-07-29T14:47:15Z</time>
      </trkpt>
      <trkpt lat="43.3037580" lon="-1.5738460">
        <ele>58.8</ele>
        <time>2020-07-29T14:47:16Z</time>
      </trkpt>
      <trkpt lat="43.3035920" lon="-1.5740370">
        <ele>59.4</ele>
        <time>2020-07-29T14:47:20Z</time>
      </trkpt>
      <trkpt lat="43.3034760" lon="-1.5741810">
        <ele>60.0</ele>
        <time>2020-07-29T14:47:23Z</time>
      </trkpt>
      <trkpt lat="43.3033910" lon="-1.5742770">
        <ele>60.2</ele>
        <time>2020-07-29T14:47:25Z</time>
      </trkpt>
      <trkpt lat="43.3031650" lon="-1.5744800">
        <ele>60.0</ele>
        <time>2020-07-29T14:47:30Z</time>
      </trkpt>
      <trkpt lat="43.3030690" lon="-1.5745340">
        <ele>59.8</ele>
        <time>2020-07-29T14:47:32Z</time>
      </trkpt>
      <trkpt lat="43.3029080" lon="-1.5745830">
        <ele>60.0</ele>
        <time>2020-07-29T14:47:35Z</time>
      </trkpt>
      <trkpt lat="43.3026670" lon="-1.5745960">
        <ele>60.4</ele>
        <time>2020-07-29T14:47:40Z</time>
      </trkpt>
      <trkpt lat="43.3026330" lon="-1.5746270">
        <ele>60.4</ele>
        <time>2020-07-29T14:47:41Z</time>
      </trkpt>
      <trkpt lat="43.3026060" lon="-1.5746730">
        <ele>60.4</ele>
        <time>2020-07-29T14:47:42Z</time>
      </trkpt>
      <trkpt lat="43.3025770" lon="-1.5748010">
        <ele>60.6</ele>
        <time>2020-07-29T14:47:44Z</time>
      </trkpt>
      <trkpt lat="43.3025780" lon="-1.5749410">
        <ele>60.8</ele>
        <time>2020-07-29T14:47:46Z</time>
      </trkpt>
      <trkpt lat="43.3025980" lon="-1.5750740">
        <ele>61.0</ele>
        <time>2020-07-29T14:47:48Z</time>
      </trkpt>
      <trkpt lat="43.3026320" lon="-1.5753570">
        <ele>61.4</ele>
        <time>2020-07-29T14:47:52Z</time>
      </trkpt>
      <trkpt lat="43.3026400" lon="-1.5754270">
        <ele>61.4</ele>
        <time>2020-07-29T14:47:53Z</time>
      </trkpt>
      <trkpt lat="43.3026720" lon="-1.5756310">
        <ele>61.8</ele>
        <time>2020-07-29T14:47:56Z</time>
      </trkpt>
      <trkpt lat="43.3027290" lon="-1.5758210">
        <ele>62.6</ele>
        <time>2020-07-29T14:47:59Z</time>
      </trkpt>
      <trkpt lat="43.3027930" lon="-1.5760010">
        <ele>63.6</ele>
        <time>2020-07-29T14:48:02Z</time>
      </trkpt>
      <trkpt lat="43.3028410" lon="-1.5761140">
        <ele>63.8</ele>
        <time>2020-07-29T14:48:04Z</time>
      </trkpt>
      <trkpt lat="43.3029860" lon="-1.5764400">
        <ele>63.6</ele>
        <time>2020-07-29T14:48:10Z</time>
      </trkpt>
      <trkpt lat="43.3030500" lon="-1.5765280">
        <ele>63.8</ele>
        <time>2020-07-29T14:48:12Z</time>
      </trkpt>
      <trkpt lat="43.3030840" lon="-1.5765630">
        <ele>64.0</ele>
        <time>2020-07-29T14:48:13Z</time>
      </trkpt>
      <trkpt lat="43.3031190" lon="-1.5765930">
        <ele>64.6</ele>
        <time>2020-07-29T14:48:14Z</time>
      </trkpt>
      <trkpt lat="43.3031540" lon="-1.5766260">
        <ele>64.8</ele>
        <time>2020-07-29T14:48:15Z</time>
      </trkpt>
      <trkpt lat="43.3032440" lon="-1.5767240">
        <ele>65.6</ele>
        <time>2020-07-29T14:48:18Z</time>
      </trkpt>
      <trkpt lat="43.3033000" lon="-1.5767980">
        <ele>66.2</ele>
        <time>2020-07-29T14:48:20Z</time>
      </trkpt>
      <trkpt lat="43.3033740" lon="-1.5769200">
        <ele>67.2</ele>
        <time>2020-07-29T14:48:23Z</time>
      </trkpt>
      <trkpt lat="43.3034170" lon="-1.5769950">
        <ele>68.0</ele>
        <time>2020-07-29T14:48:25Z</time>
      </trkpt>
      <trkpt lat="43.3034320" lon="-1.5770330">
        <ele>68.2</ele>
        <time>2020-07-29T14:48:26Z</time>
      </trkpt>
      <trkpt lat="43.3034630" lon="-1.5771900">
        <ele>69.4</ele>
        <time>2020-07-29T14:48:30Z</time>
      </trkpt>
      <trkpt lat="43.3034670" lon="-1.5772250">
        <ele>69.6</ele>
        <time>2020-07-29T14:48:31Z</time>
      </trkpt>
      <trkpt lat="43.3034730" lon="-1.5773210">
        <ele>70.2</ele>
        <time>2020-07-29T14:48:34Z</time>
      </trkpt>
      <trkpt lat="43.3034720" lon="-1.5773530">
        <ele>70.4</ele>
        <time>2020-07-29T14:48:35Z</time>
      </trkpt>
      <trkpt lat="43.3034700" lon="-1.5773850">
        <ele>70.6</ele>
        <time>2020-07-29T14:48:36Z</time>
      </trkpt>
      <trkpt lat="43.3034730" lon="-1.5774770">
        <ele>71.4</ele>
        <time>2020-07-29T14:48:39Z</time>
      </trkpt>
      <trkpt lat="43.3034750" lon="-1.5775410">
        <ele>71.8</ele>
        <time>2020-07-29T14:48:41Z</time>
      </trkpt>
      <trkpt lat="43.3034940" lon="-1.5776740">
        <ele>73.0</ele>
        <time>2020-07-29T14:48:45Z</time>
      </trkpt>
      <trkpt lat="43.3034960" lon="-1.5777110">
        <ele>73.2</ele>
        <time>2020-07-29T14:48:46Z</time>
      </trkpt>
      <trkpt lat="43.3035000" lon="-1.5778220">
        <ele>74.0</ele>
        <time>2020-07-29T14:48:49Z</time>
      </trkpt>
      <trkpt lat="43.3035450" lon="-1.5780110">
        <ele>74.8</ele>
        <time>2020-07-29T14:48:54Z</time>
      </trkpt>
      <trkpt lat="43.3035560" lon="-1.5780520">
        <ele>75.0</ele>
        <time>2020-07-29T14:48:55Z</time>
      </trkpt>
      <trkpt lat="43.3035700" lon="-1.5780900">
        <ele>75.4</ele>
        <time>2020-07-29T14:48:56Z</time>
      </trkpt>
      <trkpt lat="43.3036650" lon="-1.5782510">
        <ele>76.4</ele>
        <time>2020-07-29T14:49:01Z</time>
      </trkpt>
      <trkpt lat="43.3037500" lon="-1.5784050">
        <ele>77.6</ele>
        <time>2020-07-29T14:49:06Z</time>
      </trkpt>
      <trkpt lat="43.3037990" lon="-1.5784970">
        <ele>78.0</ele>
        <time>2020-07-29T14:49:09Z</time>
      </trkpt>
      <trkpt lat="43.3038690" lon="-1.5786240">
        <ele>78.6</ele>
        <time>2020-07-29T14:49:13Z</time>
      </trkpt>
      <trkpt lat="43.3039580" lon="-1.5787190">
        <ele>79.6</ele>
        <time>2020-07-29T14:49:17Z</time>
      </trkpt>
      <trkpt lat="43.3040370" lon="-1.5787710">
        <ele>80.8</ele>
        <time>2020-07-29T14:49:20Z</time>
      </trkpt>
      <trkpt lat="43.3040620" lon="-1.5787850">
        <ele>81.0</ele>
        <time>2020-07-29T14:49:21Z</time>
      </trkpt>
      <trkpt lat="43.3041240" lon="-1.5788560">
        <ele>81.6</ele>
        <time>2020-07-29T14:49:24Z</time>
      </trkpt>
      <trkpt lat="43.3041500" lon="-1.5788710">
        <ele>81.8</ele>
        <time>2020-07-29T14:49:25Z</time>
      </trkpt>
      <trkpt lat="43.3042800" lon="-1.5789850">
        <ele>82.8</ele>
        <time>2020-07-29T14:49:30Z</time>
      </trkpt>
      <trkpt lat="43.3043070" lon="-1.5790110">
        <ele>83.0</ele>
        <time>2020-07-29T14:49:31Z</time>
      </trkpt>
      <trkpt lat="43.3044180" lon="-1.5791310">
        <ele>83.8</ele>
        <time>2020-07-29T14:49:35Z</time>
      </trkpt>
      <trkpt lat="43.3045520" lon="-1.5792900">
        <ele>85.0</ele>
        <time>2020-07-29T14:49:40Z</time>
      </trkpt>
      <trkpt lat="43.3045790" lon="-1.5793180">
        <ele>85.2</ele>
        <time>2020-07-29T14:49:41Z</time>
      </trkpt>
      <trkpt lat="43.3046540" lon="-1.5794020">
        <ele>86.0</ele>
        <time>2020-07-29T14:49:44Z</time>
      </trkpt>
      <trkpt lat="43.3047790" lon="-1.5795370">
        <ele>87.2</ele>
        <time>2020-07-29T14:49:49Z</time>
      </trkpt>
      <trkpt lat="43.3048520" lon="-1.5796220">
        <ele>88.0</ele>
        <time>2020-07-29T14:49:52Z</time>
      </trkpt>
      <trkpt lat="43.3048740" lon="-1.5796520">
        <ele>88.2</ele>
        <time>2020-07-29T14:49:53Z</time>
      </trkpt>
      <trkpt lat="43.3049710" lon="-1.5798140">
        <ele>89.4</ele>
        <time>2020-07-29T14:49:58Z</time>
      </trkpt>
      <trkpt lat="43.3050400" lon="-1.5799580">
        <ele>90.0</ele>
        <time>2020-07-29T14:50:02Z</time>
      </trkpt>
      <trkpt lat="43.3050770" lon="-1.5800290">
        <ele>90.4</ele>
        <time>2020-07-29T14:50:04Z</time>
      </trkpt>
      <trkpt lat="43.3051850" lon="-1.5802330">
        <ele>91.6</ele>
        <time>2020-07-29T14:50:10Z</time>
      </trkpt>
      <trkpt lat="43.3052240" lon="-1.5802950">
        <ele>92.0</ele>
        <time>2020-07-29T14:50:12Z</time>
      </trkpt>
      <trkpt lat="43.3052870" lon="-1.5803870">
        <ele>92.8</ele>
        <time>2020-07-29T14:50:15Z</time>
      </trkpt>
      <trkpt lat="43.3053770" lon="-1.5805000">
        <ele>94.0</ele>
        <time>2020-07-29T14:50:19Z</time>
      </trkpt>
      <trkpt lat="43.3053980" lon="-1.5805270">
        <ele>94.4</ele>
        <time>2020-07-29T14:50:20Z</time>
      </trkpt>
      <trkpt lat="43.3054990" lon="-1.5806540">
        <ele>95.2</ele>
        <time>2020-07-29T14:50:25Z</time>
      </trkpt>
      <trkpt lat="43.3055740" lon="-1.5807330">
        <ele>95.8</ele>
        <time>2020-07-29T14:50:29Z</time>
      </trkpt>
      <trkpt lat="43.3056100" lon="-1.5807720">
        <ele>96.4</ele>
        <time>2020-07-29T14:50:31Z</time>
      </trkpt>
      <trkpt lat="43.3056970" lon="-1.5808540">
        <ele>97.2</ele>
        <time>2020-07-29T14:50:36Z</time>
      </trkpt>
      <trkpt lat="43.3057110" lon="-1.5808760">
        <ele>97.4</ele>
        <time>2020-07-29T14:50:37Z</time>
      </trkpt>
      <trkpt lat="43.3057310" lon="-1.5809320">
        <ele>98.0</ele>
        <time>2020-07-29T14:50:39Z</time>
      </trkpt>
      <trkpt lat="43.3057380" lon="-1.5810040">
        <ele>98.4</ele>
        <time>2020-07-29T14:50:41Z</time>
      </trkpt>
      <trkpt lat="43.3057110" lon="-1.5811450">
        <ele>99.6</ele>
        <time>2020-07-29T14:50:45Z</time>
      </trkpt>
      <trkpt lat="43.3057040" lon="-1.5811790">
        <ele>99.8</ele>
        <time>2020-07-29T14:50:46Z</time>
      </trkpt>
      <trkpt lat="43.3056880" lon="-1.5812750">
        <ele>100.2</ele>
        <time>2020-07-29T14:50:49Z</time>
      </trkpt>
      <trkpt lat="43.3056760" lon="-1.5813020">
        <ele>100.4</ele>
        <time>2020-07-29T14:50:50Z</time>
      </trkpt>
      <trkpt lat="43.3056690" lon="-1.5813300">
        <ele>100.6</ele>
        <time>2020-07-29T14:50:51Z</time>
      </trkpt>
      <trkpt lat="43.3056570" lon="-1.5813990">
        <ele>101.0</ele>
        <time>2020-07-29T14:50:53Z</time>
      </trkpt>
      <trkpt lat="43.3056330" lon="-1.5815000">
        <ele>101.6</ele>
        <time>2020-07-29T14:50:56Z</time>
      </trkpt>
      <trkpt lat="43.3056060" lon="-1.5816060">
        <ele>102.0</ele>
        <time>2020-07-29T14:50:59Z</time>
      </trkpt>
      <trkpt lat="43.3055580" lon="-1.5817440">
        <ele>102.4</ele>
        <time>2020-07-29T14:51:03Z</time>
      </trkpt>
      <trkpt lat="43.3055440" lon="-1.5817830">
        <ele>102.8</ele>
        <time>2020-07-29T14:51:04Z</time>
      </trkpt>
      <trkpt lat="43.3055140" lon="-1.5818580">
        <ele>102.8</ele>
        <time>2020-07-29T14:51:06Z</time>
      </trkpt>
      <trkpt lat="43.3054150" lon="-1.5820790">
        <ele>102.8</ele>
        <time>2020-07-29T14:51:11Z</time>
      </trkpt>
      <trkpt lat="43.3053950" lon="-1.5821290">
        <ele>102.8</ele>
        <time>2020-07-29T14:51:12Z</time>
      </trkpt>
      <trkpt lat="43.3053730" lon="-1.5821810">
        <ele>102.8</ele>
        <time>2020-07-29T14:51:13Z</time>
      </trkpt>
      <trkpt lat="43.3052110" lon="-1.5824910">
        <ele>103.2</ele>
        <time>2020-07-29T14:51:19Z</time>
      </trkpt>
      <trkpt lat="43.3051820" lon="-1.5825400">
        <ele>103.2</ele>
        <time>2020-07-29T14:51:20Z</time>
      </trkpt>
      <trkpt lat="43.3050470" lon="-1.5827670">
        <ele>103.8</ele>
        <time>2020-07-29T14:51:25Z</time>
      </trkpt>
      <trkpt lat="43.3049990" lon="-1.5828540">
        <ele>103.8</ele>
        <time>2020-07-29T14:51:27Z</time>
      </trkpt>
      <trkpt lat="43.3049710" lon="-1.5829080">
        <ele>103.6</ele>
        <time>2020-07-29T14:51:28Z</time>
      </trkpt>
      <trkpt lat="43.3049240" lon="-1.5830120">
        <ele>103.6</ele>
        <time>2020-07-29T14:51:30Z</time>
      </trkpt>
      <trkpt lat="43.3048980" lon="-1.5830560">
        <ele>103.6</ele>
        <time>2020-07-29T14:51:31Z</time>
      </trkpt>
      <trkpt lat="43.3048720" lon="-1.5830950">
        <ele>103.6</ele>
        <time>2020-07-29T14:51:32Z</time>
      </trkpt>
      <trkpt lat="43.3047260" lon="-1.5833600">
        <ele>104.2</ele>
        <time>2020-07-29T14:51:38Z</time>
      </trkpt>
      <trkpt lat="43.3047050" lon="-1.5834100">
        <ele>104.2</ele>
        <time>2020-07-29T14:51:39Z</time>
      </trkpt>
      <trkpt lat="43.3046830" lon="-1.5834600">
        <ele>104.0</ele>
        <time>2020-07-29T14:51:40Z</time>
      </trkpt>
      <trkpt lat="43.3046600" lon="-1.5835120">
        <ele>104.0</ele>
        <time>2020-07-29T14:51:41Z</time>
      </trkpt>
      <trkpt lat="43.3045450" lon="-1.5837630">
        <ele>104.0</ele>
        <time>2020-07-29T14:51:46Z</time>
      </trkpt>
      <trkpt lat="43.3044800" lon="-1.5839210">
        <ele>104.0</ele>
        <time>2020-07-29T14:51:49Z</time>
      </trkpt>
      <trkpt lat="43.3044000" lon="-1.5841370">
        <ele>104.0</ele>
        <time>2020-07-29T14:51:53Z</time>
      </trkpt>
      <trkpt lat="43.3043500" lon="-1.5842930">
        <ele>104.6</ele>
        <time>2020-07-29T14:51:56Z</time>
      </trkpt>
      <trkpt lat="43.3043300" lon="-1.5843440">
        <ele>104.8</ele>
        <time>2020-07-29T14:51:57Z</time>
      </trkpt>
      <trkpt lat="43.3043140" lon="-1.5843930">
        <ele>104.8</ele>
        <time>2020-07-29T14:51:58Z</time>
      </trkpt>
      <trkpt lat="43.3042920" lon="-1.5844810">
        <ele>104.8</ele>
        <time>2020-07-29T14:52:00Z</time>
      </trkpt>
      <trkpt lat="43.3042680" lon="-1.5845710">
        <ele>104.8</ele>
        <time>2020-07-29T14:52:02Z</time>
      </trkpt>
      <trkpt lat="43.3042300" lon="-1.5846940">
        <ele>104.6</ele>
        <time>2020-07-29T14:52:05Z</time>
      </trkpt>
      <trkpt lat="43.3042080" lon="-1.5848210">
        <ele>104.4</ele>
        <time>2020-07-29T14:52:08Z</time>
      </trkpt>
      <trkpt lat="43.3042050" lon="-1.5848450">
        <ele>104.4</ele>
        <time>2020-07-29T14:52:09Z</time>
      </trkpt>
      <trkpt lat="43.3041780" lon="-1.5848730">
        <ele>104.0</ele>
        <time>2020-07-29T14:52:48Z</time>
      </trkpt>
      <trkpt lat="43.3041560" lon="-1.5849310">
        <ele>104.2</ele>
        <time>2020-07-29T14:52:53Z</time>
      </trkpt>
      <trkpt lat="43.3041410" lon="-1.5849830">
        <ele>104.0</ele>
        <time>2020-07-29T14:52:56Z</time>
      </trkpt>
      <trkpt lat="43.3041040" lon="-1.5851670">
        <ele>104.0</ele>
        <time>2020-07-29T14:53:02Z</time>
      </trkpt>
      <trkpt lat="43.3040720" lon="-1.5853790">
        <ele>103.8</ele>
        <time>2020-07-29T14:53:05Z</time>
      </trkpt>
      <trkpt lat="43.3040460" lon="-1.5855470">
        <ele>103.4</ele>
        <time>2020-07-29T14:53:07Z</time>
      </trkpt>
      <trkpt lat="43.3040270" lon="-1.5856340">
        <ele>103.6</ele>
        <time>2020-07-29T14:53:08Z</time>
      </trkpt>
      <trkpt lat="43.3039300" lon="-1.5859040">
        <ele>104.8</ele>
        <time>2020-07-29T14:53:12Z</time>
      </trkpt>
      <trkpt lat="43.3038970" lon="-1.5859610">
        <ele>105.2</ele>
        <time>2020-07-29T14:53:13Z</time>
      </trkpt>
      <trkpt lat="43.3037730" lon="-1.5861450">
        <ele>105.8</ele>
        <time>2020-07-29T14:53:17Z</time>
      </trkpt>
      <trkpt lat="43.3036810" lon="-1.5862540">
        <ele>106.4</ele>
        <time>2020-07-29T14:53:20Z</time>
      </trkpt>
      <trkpt lat="43.3036150" lon="-1.5863320">
        <ele>106.4</ele>
        <time>2020-07-29T14:53:22Z</time>
      </trkpt>
      <trkpt lat="43.3035260" lon="-1.5864450">
        <ele>106.8</ele>
        <time>2020-07-29T14:53:25Z</time>
      </trkpt>
      <trkpt lat="43.3034920" lon="-1.5864880">
        <ele>107.2</ele>
        <time>2020-07-29T14:53:26Z</time>
      </trkpt>
      <trkpt lat="43.3032950" lon="-1.5867290">
        <ele>107.4</ele>
        <time>2020-07-29T14:53:32Z</time>
      </trkpt>
      <trkpt lat="43.3031030" lon="-1.5868790">
        <ele>97.8</ele>
        <time>2020-07-30T07:44:38Z</time>
      </trkpt>
      <trkpt lat="43.3031210" lon="-1.5868530">
        <ele>97.8</ele>
        <time>2020-07-30T07:44:39Z</time>
      </trkpt>
      <trkpt lat="43.3031820" lon="-1.5867640">
        <ele>98.0</ele>
        <time>2020-07-30T07:44:42Z</time>
      </trkpt>
      <trkpt lat="43.3032190" lon="-1.5866900">
        <ele>97.6</ele>
        <time>2020-07-30T07:44:44Z</time>
      </trkpt>
      <trkpt lat="43.3033530" lon="-1.5865060">
        <ele>97.6</ele>
        <time>2020-07-30T07:44:49Z</time>
      </trkpt>
      <trkpt lat="43.3033860" lon="-1.5864640">
        <ele>97.8</ele>
        <time>2020-07-30T07:44:50Z</time>
      </trkpt>
      <trkpt lat="43.3035880" lon="-1.5862100">
        <ele>98.0</ele>
        <time>2020-07-30T07:44:56Z</time>
      </trkpt>
      <trkpt lat="43.3036260" lon="-1.5861670">
        <ele>98.0</ele>
        <time>2020-07-30T07:44:57Z</time>
      </trkpt>
      <trkpt lat="43.3037680" lon="-1.5859620">
        <ele>97.4</ele>
        <time>2020-07-30T07:45:01Z</time>
      </trkpt>
      <trkpt lat="43.3038450" lon="-1.5858250">
        <ele>96.8</ele>
        <time>2020-07-30T07:45:03Z</time>
      </trkpt>
      <trkpt lat="43.3039600" lon="-1.5855970">
        <ele>95.8</ele>
        <time>2020-07-30T07:45:06Z</time>
      </trkpt>
      <trkpt lat="43.3039810" lon="-1.5855130">
        <ele>95.4</ele>
        <time>2020-07-30T07:45:07Z</time>
      </trkpt>
      <trkpt lat="43.3039950" lon="-1.5854270">
        <ele>95.2</ele>
        <time>2020-07-30T07:45:08Z</time>
      </trkpt>
      <trkpt lat="43.3040450" lon="-1.5850970">
        <ele>94.8</ele>
        <time>2020-07-30T07:45:12Z</time>
      </trkpt>
      <trkpt lat="43.3040640" lon="-1.5850180">
        <ele>95.0</ele>
        <time>2020-07-30T07:45:13Z</time>
      </trkpt>
      <trkpt lat="43.3041570" lon="-1.5846300">
        <ele>96.0</ele>
        <time>2020-07-30T07:45:18Z</time>
      </trkpt>
      <trkpt lat="43.3041770" lon="-1.5845600">
        <ele>96.4</ele>
        <time>2020-07-30T07:45:19Z</time>
      </trkpt>
      <trkpt lat="43.3041950" lon="-1.5844880">
        <ele>96.6</ele>
        <time>2020-07-30T07:45:20Z</time>
      </trkpt>
      <trkpt lat="43.3043440" lon="-1.5840040">
        <ele>95.6</ele>
        <time>2020-07-30T07:45:26Z</time>
      </trkpt>
      <trkpt lat="43.3043820" lon="-1.5839200">
        <ele>95.4</ele>
        <time>2020-07-30T07:45:27Z</time>
      </trkpt>
      <trkpt lat="43.3046100" lon="-1.5834090">
        <ele>95.6</ele>
        <time>2020-07-30T07:45:33Z</time>
      </trkpt>
      <trkpt lat="43.3048280" lon="-1.5829400">
        <ele>95.8</ele>
        <time>2020-07-30T07:45:39Z</time>
      </trkpt>
      <trkpt lat="43.3050990" lon="-1.5825050">
        <ele>95.2</ele>
        <time>2020-07-30T07:45:45Z</time>
      </trkpt>
      <trkpt lat="43.3051440" lon="-1.5824330">
        <ele>95.0</ele>
        <time>2020-07-30T07:45:46Z</time>
      </trkpt>
      <trkpt lat="43.3051850" lon="-1.5823580">
        <ele>94.8</ele>
        <time>2020-07-30T07:45:47Z</time>
      </trkpt>
      <trkpt lat="43.3053050" lon="-1.5821330">
        <ele>94.8</ele>
        <time>2020-07-30T07:45:50Z</time>
      </trkpt>
      <trkpt lat="43.3053420" lon="-1.5820570">
        <ele>95.0</ele>
        <time>2020-07-30T07:45:51Z</time>
      </trkpt>
      <trkpt lat="43.3054080" lon="-1.5819090">
        <ele>95.0</ele>
        <time>2020-07-30T07:45:53Z</time>
      </trkpt>
      <trkpt lat="43.3054420" lon="-1.5818370">
        <ele>95.0</ele>
        <time>2020-07-30T07:45:54Z</time>
      </trkpt>
      <trkpt lat="43.3056140" lon="-1.5813810">
        <ele>94.6</ele>
        <time>2020-07-30T07:46:00Z</time>
      </trkpt>
      <trkpt lat="43.3056390" lon="-1.5812920">
        <ele>94.4</ele>
        <time>2020-07-30T07:46:01Z</time>
      </trkpt>
      <trkpt lat="43.3057120" lon="-1.5810320">
        <ele>93.0</ele>
        <time>2020-07-30T07:46:04Z</time>
      </trkpt>
      <trkpt lat="43.3057210" lon="-1.5809620">
        <ele>92.4</ele>
        <time>2020-07-30T07:46:05Z</time>
      </trkpt>
      <trkpt lat="43.3057030" lon="-1.5808320">
        <ele>91.8</ele>
        <time>2020-07-30T07:46:07Z</time>
      </trkpt>
      <trkpt lat="43.3056660" lon="-1.5807720">
        <ele>91.6</ele>
        <time>2020-07-30T07:46:08Z</time>
      </trkpt>
      <trkpt lat="43.3056180" lon="-1.5807150">
        <ele>91.2</ele>
        <time>2020-07-30T07:46:09Z</time>
      </trkpt>
      <trkpt lat="43.3054910" lon="-1.5806070">
        <ele>90.4</ele>
        <time>2020-07-30T07:46:11Z</time>
      </trkpt>
      <trkpt lat="43.3054290" lon="-1.5805490">
        <ele>89.8</ele>
        <time>2020-07-30T07:46:12Z</time>
      </trkpt>
      <trkpt lat="43.3053760" lon="-1.5804970">
        <ele>89.0</ele>
        <time>2020-07-30T07:46:13Z</time>
      </trkpt>
      <trkpt lat="43.3052940" lon="-1.5804210">
        <ele>88.0</ele>
        <time>2020-07-30T07:46:15Z</time>
      </trkpt>
      <trkpt lat="43.3052630" lon="-1.5803940">
        <ele>87.6</ele>
        <time>2020-07-30T07:46:16Z</time>
      </trkpt>
      <trkpt lat="43.3052310" lon="-1.5803780">
        <ele>87.0</ele>
        <time>2020-07-30T07:46:18Z</time>
      </trkpt>
      <trkpt lat="43.3051140" lon="-1.5801750">
        <ele>86.0</ele>
        <time>2020-07-30T07:46:41Z</time>
      </trkpt>
      <trkpt lat="43.3050130" lon="-1.5799900">
        <ele>85.6</ele>
        <time>2020-07-30T07:46:44Z</time>
      </trkpt>
      <trkpt lat="43.3049270" lon="-1.5798340">
        <ele>84.6</ele>
        <time>2020-07-30T07:46:46Z</time>
      </trkpt>
      <trkpt lat="43.3048780" lon="-1.5797510">
        <ele>83.4</ele>
        <time>2020-07-30T07:46:47Z</time>
      </trkpt>
      <trkpt lat="43.3047620" lon="-1.5795850">
        <ele>81.8</ele>
        <time>2020-07-30T07:46:49Z</time>
      </trkpt>
      <trkpt lat="43.3046950" lon="-1.5795000">
        <ele>81.2</ele>
        <time>2020-07-30T07:46:50Z</time>
      </trkpt>
      <trkpt lat="43.3046240" lon="-1.5794180">
        <ele>80.2</ele>
        <time>2020-07-30T07:46:51Z</time>
      </trkpt>
      <trkpt lat="43.3044750" lon="-1.5792410">
        <ele>78.6</ele>
        <time>2020-07-30T07:46:53Z</time>
      </trkpt>
      <trkpt lat="43.3043140" lon="-1.5790640">
        <ele>77.6</ele>
        <time>2020-07-30T07:46:55Z</time>
      </trkpt>
      <trkpt lat="43.3042330" lon="-1.5789730">
        <ele>77.2</ele>
        <time>2020-07-30T07:46:56Z</time>
      </trkpt>
      <trkpt lat="43.3040620" lon="-1.5788010">
        <ele>75.8</ele>
        <time>2020-07-30T07:46:58Z</time>
      </trkpt>
      <trkpt lat="43.3038870" lon="-1.5786290">
        <ele>74.2</ele>
        <time>2020-07-30T07:47:00Z</time>
      </trkpt>
      <trkpt lat="43.3037220" lon="-1.5784500">
        <ele>72.2</ele>
        <time>2020-07-30T07:47:02Z</time>
      </trkpt>
      <trkpt lat="43.3036500" lon="-1.5783710">
        <ele>71.2</ele>
        <time>2020-07-30T07:47:03Z</time>
      </trkpt>
      <trkpt lat="43.3035230" lon="-1.5782170">
        <ele>69.8</ele>
        <time>2020-07-30T07:47:05Z</time>
      </trkpt>
      <trkpt lat="43.3034690" lon="-1.5781330">
        <ele>69.6</ele>
        <time>2020-07-30T07:47:06Z</time>
      </trkpt>
      <trkpt lat="43.3033740" lon="-1.5779340">
        <ele>68.6</ele>
        <time>2020-07-30T07:47:08Z</time>
      </trkpt>
      <trkpt lat="43.3033070" lon="-1.5777010">
        <ele>67.2</ele>
        <time>2020-07-30T07:47:10Z</time>
      </trkpt>
      <trkpt lat="43.3032740" lon="-1.5774390">
        <ele>65.4</ele>
        <time>2020-07-30T07:47:12Z</time>
      </trkpt>
      <trkpt lat="43.3032600" lon="-1.5771740">
        <ele>63.4</ele>
        <time>2020-07-30T07:47:14Z</time>
      </trkpt>
      <trkpt lat="43.3032430" lon="-1.5770440">
        <ele>62.6</ele>
        <time>2020-07-30T07:47:15Z</time>
      </trkpt>
      <trkpt lat="43.3032130" lon="-1.5769130">
        <ele>62.0</ele>
        <time>2020-07-30T07:47:16Z</time>
      </trkpt>
      <trkpt lat="43.3031660" lon="-1.5767930">
        <ele>61.2</ele>
        <time>2020-07-30T07:47:17Z</time>
      </trkpt>
      <trkpt lat="43.3030860" lon="-1.5766950">
        <ele>60.6</ele>
        <time>2020-07-30T07:47:18Z</time>
      </trkpt>
      <trkpt lat="43.3030090" lon="-1.5766030">
        <ele>60.0</ele>
        <time>2020-07-30T07:47:19Z</time>
      </trkpt>
      <trkpt lat="43.3029350" lon="-1.5765090">
        <ele>59.2</ele>
        <time>2020-07-30T07:47:20Z</time>
      </trkpt>
      <trkpt lat="43.3028700" lon="-1.5764020">
        <ele>58.2</ele>
        <time>2020-07-30T07:47:21Z</time>
      </trkpt>
      <trkpt lat="43.3028130" lon="-1.5762920">
        <ele>57.4</ele>
        <time>2020-07-30T07:47:22Z</time>
      </trkpt>
      <trkpt lat="43.3027660" lon="-1.5761690">
        <ele>56.8</ele>
        <time>2020-07-30T07:47:23Z</time>
      </trkpt>
      <trkpt lat="43.3027180" lon="-1.5760460">
        <ele>56.2</ele>
        <time>2020-07-30T07:47:24Z</time>
      </trkpt>
      <trkpt lat="43.3025870" lon="-1.5756810">
        <ele>55.0</ele>
        <time>2020-07-30T07:47:27Z</time>
      </trkpt>
      <trkpt lat="43.3025250" lon="-1.5754290">
        <ele>54.4</ele>
        <time>2020-07-30T07:47:29Z</time>
      </trkpt>
      <trkpt lat="43.3024460" lon="-1.5750360">
        <ele>54.2</ele>
        <time>2020-07-30T07:47:33Z</time>
      </trkpt>
      <trkpt lat="43.3024090" lon="-1.5748260">
        <ele>54.4</ele>
        <time>2020-07-30T07:47:36Z</time>
      </trkpt>
      <trkpt lat="43.3023850" lon="-1.5747230">
        <ele>54.6</ele>
        <time>2020-07-30T07:47:38Z</time>
      </trkpt>
      <trkpt lat="43.3023570" lon="-1.5746520">
        <ele>55.4</ele>
        <time>2020-07-30T07:47:41Z</time>
      </trkpt>
      <trkpt lat="43.3023570" lon="-1.5746430">
        <ele>55.4</ele>
        <time>2020-07-30T07:47:42Z</time>
      </trkpt>
      <trkpt lat="43.3023880" lon="-1.5746330">
        <ele>55.4</ele>
        <time>2020-07-30T07:47:48Z</time>
      </trkpt>
      <trkpt lat="43.3023940" lon="-1.5746150">
        <ele>55.4</ele>
        <time>2020-07-30T07:47:49Z</time>
      </trkpt>
      <trkpt lat="43.3024450" lon="-1.5745620">
        <ele>55.2</ele>
        <time>2020-07-30T07:47:52Z</time>
      </trkpt>
      <trkpt lat="43.3024830" lon="-1.5745540">
        <ele>55.2</ele>
        <time>2020-07-30T07:47:53Z</time>
      </trkpt>
      <trkpt lat="43.3026660" lon="-1.5745440">
        <ele>54.6</ele>
        <time>2020-07-30T07:47:57Z</time>
      </trkpt>
      <trkpt lat="43.3027210" lon="-1.5745410">
        <ele>54.6</ele>
        <time>2020-07-30T07:47:58Z</time>
      </trkpt>
      <trkpt lat="43.3027770" lon="-1.5745370">
        <ele>54.4</ele>
        <time>2020-07-30T07:47:59Z</time>
      </trkpt>
      <trkpt lat="43.3028320" lon="-1.5745320">
        <ele>54.2</ele>
        <time>2020-07-30T07:48:00Z</time>
      </trkpt>
      <trkpt lat="43.3029420" lon="-1.5745170">
        <ele>54.0</ele>
        <time>2020-07-30T07:48:02Z</time>
      </trkpt>
      <trkpt lat="43.3029960" lon="-1.5744950">
        <ele>54.0</ele>
        <time>2020-07-30T07:48:03Z</time>
      </trkpt>
      <trkpt lat="43.3031020" lon="-1.5744340">
        <ele>54.0</ele>
        <time>2020-07-30T07:48:05Z</time>
      </trkpt>
      <trkpt lat="43.3032330" lon="-1.5743100">
        <ele>53.8</ele>
        <time>2020-07-30T07:48:08Z</time>
      </trkpt>
      <trkpt lat="43.3033010" lon="-1.5742220">
        <ele>53.8</ele>
        <time>2020-07-30T07:48:10Z</time>
      </trkpt>
      <trkpt lat="43.3034030" lon="-1.5740940">
        <ele>53.6</ele>
        <time>2020-07-30T07:48:13Z</time>
      </trkpt>
      <trkpt lat="43.3034770" lon="-1.5740030">
        <ele>53.8</ele>
        <time>2020-07-30T07:48:15Z</time>
      </trkpt>
      <trkpt lat="43.3035500" lon="-1.5739120">
        <ele>54.0</ele>
        <time>2020-07-30T07:48:17Z</time>
      </trkpt>
      <trkpt lat="43.3037290" lon="-1.5736680">
        <ele>53.6</ele>
        <time>2020-07-30T07:48:22Z</time>
      </trkpt>
      <trkpt lat="43.3038120" lon="-1.5735830">
        <ele>53.0</ele>
        <time>2020-07-30T07:48:24Z</time>
      </trkpt>
      <trkpt lat="43.3038530" lon="-1.5735420">
        <ele>52.8</ele>
        <time>2020-07-30T07:48:25Z</time>
      </trkpt>
      <trkpt lat="43.3041980" lon="-1.5732920">
        <ele>52.4</ele>
        <time>2020-07-30T07:48:31Z</time>
      </trkpt>
      <trkpt lat="43.3045720" lon="-1.5730980">
        <ele>52.4</ele>
        <time>2020-07-30T07:48:37Z</time>
      </trkpt>
      <trkpt lat="43.3047010" lon="-1.5730250">
        <ele>52.4</ele>
        <time>2020-07-30T07:48:39Z</time>
      </trkpt>
      <trkpt lat="43.3050510" lon="-1.5727500">
        <ele>52.6</ele>
        <time>2020-07-30T07:48:45Z</time>
      </trkpt>
      <trkpt lat="43.3051060" lon="-1.5727110">
        <ele>52.8</ele>
        <time>2020-07-30T07:48:46Z</time>
      </trkpt>
      <trkpt lat="43.3051650" lon="-1.5726780">
        <ele>52.8</ele>
        <time>2020-07-30T07:48:47Z</time>
      </trkpt>
      <trkpt lat="43.3052880" lon="-1.5726280">
        <ele>52.6</ele>
        <time>2020-07-30T07:48:49Z</time>
      </trkpt>
      <trkpt lat="43.3053490" lon="-1.5726040">
        <ele>52.6</ele>
        <time>2020-07-30T07:48:50Z</time>
      </trkpt>
      <trkpt lat="43.3054110" lon="-1.5725760">
        <ele>52.6</ele>
        <time>2020-07-30T07:48:51Z</time>
      </trkpt>
      <trkpt lat="43.3054720" lon="-1.5725450">
        <ele>52.4</ele>
        <time>2020-07-30T07:48:52Z</time>
      </trkpt>
      <trkpt lat="43.3056570" lon="-1.5724440">
        <ele>52.0</ele>
        <time>2020-07-30T07:48:55Z</time>
      </trkpt>
      <trkpt lat="43.3057790" lon="-1.5723760">
        <ele>51.6</ele>
        <time>2020-07-30T07:48:57Z</time>
      </trkpt>
      <trkpt lat="43.3059040" lon="-1.5723380">
        <ele>51.6</ele>
        <time>2020-07-30T07:48:59Z</time>
      </trkpt>
      <trkpt lat="43.3061020" lon="-1.5723150">
        <ele>51.8</ele>
        <time>2020-07-30T07:49:02Z</time>
      </trkpt>
      <trkpt lat="43.3065060" lon="-1.5723210">
        <ele>52.0</ele>
        <time>2020-07-30T07:49:08Z</time>
      </trkpt>
      <trkpt lat="43.3065750" lon="-1.5723320">
        <ele>52.0</ele>
        <time>2020-07-30T07:49:09Z</time>
      </trkpt>
      <trkpt lat="43.3067850" lon="-1.5723820">
        <ele>52.0</ele>
        <time>2020-07-30T07:49:12Z</time>
      </trkpt>
      <trkpt lat="43.3069730" lon="-1.5724980">
        <ele>51.6</ele>
        <time>2020-07-30T07:49:15Z</time>
      </trkpt>
      <trkpt lat="43.3072160" lon="-1.5726370">
        <ele>51.8</ele>
        <time>2020-07-30T07:49:19Z</time>
      </trkpt>
      <trkpt lat="43.3073430" lon="-1.5726730">
        <ele>52.0</ele>
        <time>2020-07-30T07:49:21Z</time>
      </trkpt>
      <trkpt lat="43.3074060" lon="-1.5726830">
        <ele>52.0</ele>
        <time>2020-07-30T07:49:22Z</time>
      </trkpt>
      <trkpt lat="43.3075960" lon="-1.5726690">
        <ele>52.2</ele>
        <time>2020-07-30T07:49:25Z</time>
      </trkpt>
      <trkpt lat="43.3077220" lon="-1.5726440">
        <ele>52.2</ele>
        <time>2020-07-30T07:49:27Z</time>
      </trkpt>
      <trkpt lat="43.3080280" lon="-1.5726270">
        <ele>52.6</ele>
        <time>2020-07-30T07:49:32Z</time>
      </trkpt>
      <trkpt lat="43.3082240" lon="-1.5726280">
        <ele>52.6</ele>
        <time>2020-07-30T07:49:35Z</time>
      </trkpt>
      <trkpt lat="43.3083580" lon="-1.5726390">
        <ele>52.6</ele>
        <time>2020-07-30T07:49:37Z</time>
      </trkpt>
      <trkpt lat="43.3085570" lon="-1.5726630">
        <ele>52.2</ele>
        <time>2020-07-30T07:49:40Z</time>
      </trkpt>
      <trkpt lat="43.3086780" lon="-1.5726600">
        <ele>52.4</ele>
        <time>2020-07-30T07:49:42Z</time>
      </trkpt>
      <trkpt lat="43.3088550" lon="-1.5726150">
        <ele>52.4</ele>
        <time>2020-07-30T07:49:45Z</time>
      </trkpt>
      <trkpt lat="43.3091980" lon="-1.5724640">
        <ele>52.2</ele>
        <time>2020-07-30T07:49:51Z</time>
      </trkpt>
      <trkpt lat="43.3092510" lon="-1.5724390">
        <ele>52.4</ele>
        <time>2020-07-30T07:49:52Z</time>
      </trkpt>
      <trkpt lat="43.3093880" lon="-1.5723700">
        <ele>53.0</ele>
        <time>2020-07-30T07:49:55Z</time>
      </trkpt>
      <trkpt lat="43.3094460" lon="-1.5723300">
        <ele>53.4</ele>
        <time>2020-07-30T07:49:57Z</time>
      </trkpt>
      <trkpt lat="43.3094940" lon="-1.5723050">
        <ele>54.2</ele>
        <time>2020-07-30T07:50:00Z</time>
      </trkpt>
      <trkpt lat="43.3095030" lon="-1.5722990">
        <ele>54.4</ele>
        <time>2020-07-30T07:50:01Z</time>
      </trkpt>
      <trkpt lat="43.3095230" lon="-1.5722780">
        <ele>55.0</ele>
        <time>2020-07-30T07:50:05Z</time>
      </trkpt>
      <trkpt lat="43.3095440" lon="-1.5722500">
        <ele>55.2</ele>
        <time>2020-07-30T07:50:07Z</time>
      </trkpt>
      <trkpt lat="43.3095790" lon="-1.5721860">
        <ele>55.2</ele>
        <time>2020-07-30T07:50:09Z</time>
      </trkpt>
      <trkpt lat="43.3096090" lon="-1.5721650">
        <ele>55.4</ele>
        <time>2020-07-30T07:50:10Z</time>
      </trkpt>
      <trkpt lat="43.3096380" lon="-1.5721550">
        <ele>55.4</ele>
        <time>2020-07-30T07:50:11Z</time>
      </trkpt>
      <trkpt lat="43.3097180" lon="-1.5721680">
        <ele>55.2</ele>
        <time>2020-07-30T07:50:15Z</time>
      </trkpt>
      <trkpt lat="43.3097190" lon="-1.5721920">
        <ele>55.0</ele>
        <time>2020-07-30T07:50:17Z</time>
      </trkpt>
      <trkpt lat="43.3097190" lon="-1.5722000">
        <ele>55.0</ele>
        <time>2020-07-30T07:50:18Z</time>
      </trkpt>
      <trkpt lat="43.3098850" lon="-1.5723100">
        <ele>55.0</ele>
        <time>2020-07-30T07:51:04Z</time>
      </trkpt>
      <trkpt lat="43.3100730" lon="-1.5723460">
        <ele>54.0</ele>
        <time>2020-07-30T07:51:08Z</time>
      </trkpt>
      <trkpt lat="43.3101860" lon="-1.5723690">
        <ele>52.8</ele>
        <time>2020-07-30T07:51:10Z</time>
      </trkpt>
      <trkpt lat="43.3105090" lon="-1.5724550">
        <ele>51.6</ele>
        <time>2020-07-30T07:51:15Z</time>
      </trkpt>
      <trkpt lat="43.3105750" lon="-1.5724810">
        <ele>51.6</ele>
        <time>2020-07-30T07:51:16Z</time>
      </trkpt>
      <trkpt lat="43.3106410" lon="-1.5725070">
        <ele>51.4</ele>
        <time>2020-07-30T07:51:17Z</time>
      </trkpt>
      <trkpt lat="43.3107690" lon="-1.5725700">
        <ele>51.4</ele>
        <time>2020-07-30T07:51:19Z</time>
      </trkpt>
      <trkpt lat="43.3109440" lon="-1.5726880">
        <ele>51.6</ele>
        <time>2020-07-30T07:51:22Z</time>
      </trkpt>
      <trkpt lat="43.3110580" lon="-1.5727730">
        <ele>51.8</ele>
        <time>2020-07-30T07:51:24Z</time>
      </trkpt>
      <trkpt lat="43.3112030" lon="-1.5729090">
        <ele>52.2</ele>
        <time>2020-07-30T07:51:27Z</time>
      </trkpt>
      <trkpt lat="43.3114410" lon="-1.5731530">
        <ele>52.6</ele>
        <time>2020-07-30T07:51:32Z</time>
      </trkpt>
      <trkpt lat="43.3115410" lon="-1.5732460">
        <ele>53.0</ele>
        <time>2020-07-30T07:51:34Z</time>
      </trkpt>
      <trkpt lat="43.3117890" lon="-1.5734650">
        <ele>53.8</ele>
        <time>2020-07-30T07:51:39Z</time>
      </trkpt>
      <trkpt lat="43.3120270" lon="-1.5736740">
        <ele>55.0</ele>
        <time>2020-07-30T07:51:44Z</time>
      </trkpt>
      <trkpt lat="43.3120740" lon="-1.5737130">
        <ele>55.0</ele>
        <time>2020-07-30T07:51:45Z</time>
      </trkpt>
      <trkpt lat="43.3122660" lon="-1.5738670">
        <ele>56.0</ele>
        <time>2020-07-30T07:51:49Z</time>
      </trkpt>
      <trkpt lat="43.3125530" lon="-1.5741060">
        <ele>56.8</ele>
        <time>2020-07-30T07:51:55Z</time>
      </trkpt>
      <trkpt lat="43.3126020" lon="-1.5741450">
        <ele>57.0</ele>
        <time>2020-07-30T07:51:56Z</time>
      </trkpt>
      <trkpt lat="43.3128440" lon="-1.5743310">
        <ele>58.0</ele>
        <time>2020-07-30T07:52:01Z</time>
      </trkpt>
      <trkpt lat="43.3130900" lon="-1.5745130">
        <ele>58.6</ele>
        <time>2020-07-30T07:52:06Z</time>
      </trkpt>
      <trkpt lat="43.3134110" lon="-1.5747730">
        <ele>58.8</ele>
        <time>2020-07-30T07:52:12Z</time>
      </trkpt>
      <trkpt lat="43.3135190" lon="-1.5748830">
        <ele>58.8</ele>
        <time>2020-07-30T07:52:14Z</time>
      </trkpt>
      <trkpt lat="43.3137450" lon="-1.5752300">
        <ele>58.2</ele>
        <time>2020-07-30T07:52:19Z</time>
      </trkpt>
      <trkpt lat="43.3137790" lon="-1.5753120">
        <ele>58.2</ele>
        <time>2020-07-30T07:52:20Z</time>
      </trkpt>
      <trkpt lat="43.3138660" lon="-1.5755850">
        <ele>57.8</ele>
        <time>2020-07-30T07:52:23Z</time>
      </trkpt>
      <trkpt lat="43.3139480" lon="-1.5758670">
        <ele>57.8</ele>
        <time>2020-07-30T07:52:26Z</time>
      </trkpt>
      <trkpt lat="43.3140220" lon="-1.5761210">
        <ele>57.6</ele>
        <time>2020-07-30T07:52:29Z</time>
      </trkpt>
      <trkpt lat="43.3141430" lon="-1.5765200">
        <ele>57.8</ele>
        <time>2020-07-30T07:52:34Z</time>
      </trkpt>
      <trkpt lat="43.3142840" lon="-1.5769980">
        <ele>58.2</ele>
        <time>2020-07-30T07:52:40Z</time>
      </trkpt>
      <trkpt lat="43.3143520" lon="-1.5772360">
        <ele>58.4</ele>
        <time>2020-07-30T07:52:43Z</time>
      </trkpt>
      <trkpt lat="43.3144330" lon="-1.5775330">
        <ele>59.2</ele>
        <time>2020-07-30T07:52:47Z</time>
      </trkpt>
      <trkpt lat="43.3145060" lon="-1.5777850">
        <ele>60.0</ele>
        <time>2020-07-30T07:52:51Z</time>
      </trkpt>
      <trkpt lat="43.3145220" lon="-1.5778440">
        <ele>60.2</ele>
        <time>2020-07-30T07:52:52Z</time>
      </trkpt>
      <trkpt lat="43.3145500" lon="-1.5779670">
        <ele>60.6</ele>
        <time>2020-07-30T07:52:54Z</time>
      </trkpt>
      <trkpt lat="43.3146420" lon="-1.5782850">
        <ele>61.2</ele>
        <time>2020-07-30T07:52:59Z</time>
      </trkpt>
      <trkpt lat="43.3146600" lon="-1.5783580">
        <ele>61.2</ele>
        <time>2020-07-30T07:53:00Z</time>
      </trkpt>
      <trkpt lat="43.3147810" lon="-1.5788030">
        <ele>61.2</ele>
        <time>2020-07-30T07:53:06Z</time>
      </trkpt>
      <trkpt lat="43.3148400" lon="-1.5790430">
        <ele>61.2</ele>
        <time>2020-07-30T07:53:09Z</time>
      </trkpt>
      <trkpt lat="43.3149670" lon="-1.5795130">
        <ele>61.6</ele>
        <time>2020-07-30T07:53:15Z</time>
      </trkpt>
      <trkpt lat="43.3150070" lon="-1.5796660">
        <ele>61.6</ele>
        <time>2020-07-30T07:53:17Z</time>
      </trkpt>
      <trkpt lat="43.3150620" lon="-1.5801510">
        <ele>61.6</ele>
        <time>2020-07-30T07:53:23Z</time>
      </trkpt>
      <trkpt lat="43.3150510" lon="-1.5803920">
        <ele>61.8</ele>
        <time>2020-07-30T07:53:26Z</time>
      </trkpt>
      <trkpt lat="43.3150260" lon="-1.5805440">
        <ele>62.2</ele>
        <time>2020-07-30T07:53:28Z</time>
      </trkpt>
      <trkpt lat="43.3150090" lon="-1.5806200">
        <ele>62.2</ele>
        <time>2020-07-30T07:53:29Z</time>
      </trkpt>
      <trkpt lat="43.3149040" lon="-1.5809160">
        <ele>62.6</ele>
        <time>2020-07-30T07:53:33Z</time>
      </trkpt>
      <trkpt lat="43.3147760" lon="-1.5812190">
        <ele>63.4</ele>
        <time>2020-07-30T07:53:37Z</time>
      </trkpt>
      <trkpt lat="43.3146230" lon="-1.5816410">
        <ele>64.2</ele>
        <time>2020-07-30T07:53:43Z</time>
      </trkpt>
      <trkpt lat="43.3146060" lon="-1.5817090">
        <ele>64.6</ele>
        <time>2020-07-30T07:53:44Z</time>
      </trkpt>
      <trkpt lat="43.3145690" lon="-1.5819840">
        <ele>65.8</ele>
        <time>2020-07-30T07:53:48Z</time>
      </trkpt>
      <trkpt lat="43.3145650" lon="-1.5820520">
        <ele>66.0</ele>
        <time>2020-07-30T07:53:49Z</time>
      </trkpt>
      <trkpt lat="43.3145720" lon="-1.5823700">
        <ele>67.0</ele>
        <time>2020-07-30T07:53:54Z</time>
      </trkpt>
      <trkpt lat="43.3145800" lon="-1.5824310">
        <ele>67.2</ele>
        <time>2020-07-30T07:53:55Z</time>
      </trkpt>
      <trkpt lat="43.3145890" lon="-1.5824920">
        <ele>67.4</ele>
        <time>2020-07-30T07:53:56Z</time>
      </trkpt>
      <trkpt lat="43.3146010" lon="-1.5825530">
        <ele>67.6</ele>
        <time>2020-07-30T07:53:57Z</time>
      </trkpt>
      <trkpt lat="43.3146210" lon="-1.5826090">
        <ele>68.0</ele>
        <time>2020-07-30T07:53:58Z</time>
      </trkpt>
      <trkpt lat="43.3146520" lon="-1.5826560">
        <ele>68.2</ele>
        <time>2020-07-30T07:53:59Z</time>
      </trkpt>
      <trkpt lat="43.3146860" lon="-1.5826950">
        <ele>68.4</ele>
        <time>2020-07-30T07:54:00Z</time>
      </trkpt>
      <trkpt lat="43.3147160" lon="-1.5827360">
        <ele>68.8</ele>
        <time>2020-07-30T07:54:01Z</time>
      </trkpt>
      <trkpt lat="43.3147520" lon="-1.5828380">
        <ele>69.2</ele>
        <time>2020-07-30T07:54:03Z</time>
      </trkpt>
      <trkpt lat="43.3147580" lon="-1.5828950">
        <ele>69.2</ele>
        <time>2020-07-30T07:54:04Z</time>
      </trkpt>
      <trkpt lat="43.3147740" lon="-1.5830180">
        <ele>69.6</ele>
        <time>2020-07-30T07:54:06Z</time>
      </trkpt>
      <trkpt lat="43.3148070" lon="-1.5831360">
        <ele>69.6</ele>
        <time>2020-07-30T07:54:08Z</time>
      </trkpt>
      <trkpt lat="43.3148330" lon="-1.5831830">
        <ele>69.8</ele>
        <time>2020-07-30T07:54:09Z</time>
      </trkpt>
      <trkpt lat="43.3149160" lon="-1.5832910">
        <ele>70.4</ele>
        <time>2020-07-30T07:54:12Z</time>
      </trkpt>
      <trkpt lat="43.3149950" lon="-1.5833840">
        <ele>71.4</ele>
        <time>2020-07-30T07:54:15Z</time>
      </trkpt>
      <trkpt lat="43.3151040" lon="-1.5834950">
        <ele>72.4</ele>
        <time>2020-07-30T07:54:19Z</time>
      </trkpt>
      <trkpt lat="43.3151810" lon="-1.5835760">
        <ele>73.0</ele>
        <time>2020-07-30T07:54:22Z</time>
      </trkpt>
      <trkpt lat="43.3152070" lon="-1.5836040">
        <ele>73.4</ele>
        <time>2020-07-30T07:54:23Z</time>
      </trkpt>
      <trkpt lat="43.3152320" lon="-1.5836310">
        <ele>73.8</ele>
        <time>2020-07-30T07:54:24Z</time>
      </trkpt>
      <trkpt lat="43.3153250" lon="-1.5837410">
        <ele>74.8</ele>
        <time>2020-07-30T07:54:28Z</time>
      </trkpt>
      <trkpt lat="43.3154010" lon="-1.5838270">
        <ele>75.8</ele>
        <time>2020-07-30T07:54:31Z</time>
      </trkpt>
      <trkpt lat="43.3155240" lon="-1.5839880">
        <ele>77.0</ele>
        <time>2020-07-30T07:54:36Z</time>
      </trkpt>
      <trkpt lat="43.3155470" lon="-1.5840230">
        <ele>77.4</ele>
        <time>2020-07-30T07:54:37Z</time>
      </trkpt>
      <trkpt lat="43.3156080" lon="-1.5841400">
        <ele>78.4</ele>
        <time>2020-07-30T07:54:40Z</time>
      </trkpt>
      <trkpt lat="43.3156260" lon="-1.5841830">
        <ele>78.6</ele>
        <time>2020-07-30T07:54:41Z</time>
      </trkpt>
      <trkpt lat="43.3156410" lon="-1.5842270">
        <ele>78.8</ele>
        <time>2020-07-30T07:54:42Z</time>
      </trkpt>
      <trkpt lat="43.3157210" lon="-1.5844790">
        <ele>79.6</ele>
        <time>2020-07-30T07:54:47Z</time>
      </trkpt>
      <trkpt lat="43.3157420" lon="-1.5845270">
        <ele>80.0</ele>
        <time>2020-07-30T07:54:48Z</time>
      </trkpt>
      <trkpt lat="43.3158410" lon="-1.5848300">
        <ele>80.6</ele>
        <time>2020-07-30T07:54:54Z</time>
      </trkpt>
      <trkpt lat="43.3158640" lon="-1.5849420">
        <ele>81.0</ele>
        <time>2020-07-30T07:54:56Z</time>
      </trkpt>
      <trkpt lat="43.3159320" lon="-1.5852760">
        <ele>81.6</ele>
        <time>2020-07-30T07:55:02Z</time>
      </trkpt>
      <trkpt lat="43.3159420" lon="-1.5853330">
        <ele>81.6</ele>
        <time>2020-07-30T07:55:03Z</time>
      </trkpt>
      <trkpt lat="43.3159650" lon="-1.5854380">
        <ele>82.0</ele>
        <time>2020-07-30T07:55:05Z</time>
      </trkpt>
      <trkpt lat="43.3160260" lon="-1.5857050">
        <ele>82.8</ele>
        <time>2020-07-30T07:55:10Z</time>
      </trkpt>
      <trkpt lat="43.3160400" lon="-1.5857560">
        <ele>82.8</ele>
        <time>2020-07-30T07:55:11Z</time>
      </trkpt>
      <trkpt lat="43.3160690" lon="-1.5858520">
        <ele>83.2</ele>
        <time>2020-07-30T07:55:13Z</time>
      </trkpt>
      <trkpt lat="43.3160910" lon="-1.5859470">
        <ele>83.8</ele>
        <time>2020-07-30T07:55:15Z</time>
      </trkpt>
      <trkpt lat="43.3161350" lon="-1.5861330">
        <ele>85.0</ele>
        <time>2020-07-30T07:55:19Z</time>
      </trkpt>
      <trkpt lat="43.3161680" lon="-1.5863260">
        <ele>86.0</ele>
        <time>2020-07-30T07:55:23Z</time>
      </trkpt>
      <trkpt lat="43.3161770" lon="-1.5863740">
        <ele>86.2</ele>
        <time>2020-07-30T07:55:24Z</time>
      </trkpt>
      <trkpt lat="43.3162230" lon="-1.5866230">
        <ele>87.2</ele>
        <time>2020-07-30T07:55:29Z</time>
      </trkpt>
      <trkpt lat="43.3162560" lon="-1.5867640">
        <ele>88.2</ele>
        <time>2020-07-30T07:55:32Z</time>
      </trkpt>
      <trkpt lat="43.3162710" lon="-1.5868120">
        <ele>88.4</ele>
        <time>2020-07-30T07:55:33Z</time>
      </trkpt>
      <trkpt lat="43.3164080" lon="-1.5870680">
        <ele>89.0</ele>
        <time>2020-07-30T07:55:39Z</time>
      </trkpt>
      <trkpt lat="43.3164650" lon="-1.5871360">
        <ele>89.6</ele>
        <time>2020-07-30T07:55:41Z</time>
      </trkpt>
      <trkpt lat="43.3165950" lon="-1.5872390">
        <ele>90.6</ele>
        <time>2020-07-30T07:55:45Z</time>
      </trkpt>
      <trkpt lat="43.3167310" lon="-1.5873120">
        <ele>92.0</ele>
        <time>2020-07-30T07:55:49Z</time>
      </trkpt>
      <trkpt lat="43.3168560" lon="-1.5873700">
        <ele>93.0</ele>
        <time>2020-07-30T07:55:53Z</time>
      </trkpt>
      <trkpt lat="43.3168890" lon="-1.5873880">
        <ele>93.2</ele>
        <time>2020-07-30T07:55:54Z</time>
      </trkpt>
      <trkpt lat="43.3170410" lon="-1.5875170">
        <ele>94.2</ele>
        <time>2020-07-30T07:55:59Z</time>
      </trkpt>
      <trkpt lat="43.3170760" lon="-1.5875560">
        <ele>94.4</ele>
        <time>2020-07-30T07:56:00Z</time>
      </trkpt>
      <trkpt lat="43.3171610" lon="-1.5876960">
        <ele>95.2</ele>
        <time>2020-07-30T07:56:04Z</time>
      </trkpt>
      <trkpt lat="43.3171650" lon="-1.5877470">
        <ele>95.6</ele>
        <time>2020-07-30T07:56:05Z</time>
      </trkpt>
      <trkpt lat="43.3171560" lon="-1.5877970">
        <ele>95.8</ele>
        <time>2020-07-30T07:56:06Z</time>
      </trkpt>
      <trkpt lat="43.3171100" lon="-1.5878760">
        <ele>96.4</ele>
        <time>2020-07-30T07:56:08Z</time>
      </trkpt>
      <trkpt lat="43.3170400" lon="-1.5879410">
        <ele>96.6</ele>
        <time>2020-07-30T07:56:10Z</time>
      </trkpt>
      <trkpt lat="43.3169580" lon="-1.5879610">
        <ele>97.4</ele>
        <time>2020-07-30T07:56:13Z</time>
      </trkpt>
      <trkpt lat="43.3169020" lon="-1.5879670">
        <ele>97.8</ele>
        <time>2020-07-30T07:56:15Z</time>
      </trkpt>
      <trkpt lat="43.3167410" lon="-1.5879530">
        <ele>98.8</ele>
        <time>2020-07-30T07:56:20Z</time>
      </trkpt>
      <trkpt lat="43.3167060" lon="-1.5879520">
        <ele>99.0</ele>
        <time>2020-07-30T07:56:21Z</time>
      </trkpt>
      <trkpt lat="43.3165450" lon="-1.5879770">
        <ele>100.0</ele>
        <time>2020-07-30T07:56:26Z</time>
      </trkpt>
      <trkpt lat="43.3164850" lon="-1.5879880">
        <ele>100.4</ele>
        <time>2020-07-30T07:56:28Z</time>
      </trkpt>
      <trkpt lat="43.3163950" lon="-1.5880190">
        <ele>101.2</ele>
        <time>2020-07-30T07:56:31Z</time>
      </trkpt>
      <trkpt lat="43.3162840" lon="-1.5880320">
        <ele>101.8</ele>
        <time>2020-07-30T07:56:34Z</time>
      </trkpt>
      <trkpt lat="43.3161560" lon="-1.5880340">
        <ele>102.4</ele>
        <time>2020-07-30T07:56:38Z</time>
      </trkpt>
      <trkpt lat="43.3160780" lon="-1.5880560">
        <ele>103.2</ele>
        <time>2020-07-30T07:56:41Z</time>
      </trkpt>
      <trkpt lat="43.3159980" lon="-1.5881050">
        <ele>103.6</ele>
        <time>2020-07-30T07:56:43Z</time>
      </trkpt>
      <trkpt lat="43.3158430" lon="-1.5882030">
        <ele>104.2</ele>
        <time>2020-07-30T07:56:47Z</time>
      </trkpt>
      <trkpt lat="43.3157350" lon="-1.5882480">
        <ele>105.0</ele>
        <time>2020-07-30T07:56:50Z</time>
      </trkpt>
      <trkpt lat="43.3155790" lon="-1.5882950">
        <ele>106.0</ele>
        <time>2020-07-30T07:56:55Z</time>
      </trkpt>
      <trkpt lat="43.3155480" lon="-1.5882990">
        <ele>106.2</ele>
        <time>2020-07-30T07:56:56Z</time>
      </trkpt>
      <trkpt lat="43.3153820" lon="-1.5883050">
        <ele>107.2</ele>
        <time>2020-07-30T07:57:01Z</time>
      </trkpt>
      <trkpt lat="43.3152840" lon="-1.5883300">
        <ele>107.8</ele>
        <time>2020-07-30T07:57:04Z</time>
      </trkpt>
      <trkpt lat="43.3152510" lon="-1.5883270">
        <ele>108.2</ele>
        <time>2020-07-30T07:57:05Z</time>
      </trkpt>
      <trkpt lat="43.3151170" lon="-1.5883510">
        <ele>109.0</ele>
        <time>2020-07-30T07:57:09Z</time>
      </trkpt>
      <trkpt lat="43.3150750" lon="-1.5883510">
        <ele>109.2</ele>
        <time>2020-07-30T07:57:10Z</time>
      </trkpt>
      <trkpt lat="43.3149830" lon="-1.5884340">
        <ele>109.6</ele>
        <time>2020-07-30T07:57:13Z</time>
      </trkpt>
      <trkpt lat="43.3149720" lon="-1.5884790">
        <ele>109.8</ele>
        <time>2020-07-30T07:57:14Z</time>
      </trkpt>
      <trkpt lat="43.3149840" lon="-1.5885620">
        <ele>110.2</ele>
        <time>2020-07-30T07:57:16Z</time>
      </trkpt>
      <trkpt lat="43.3150100" lon="-1.5885840">
        <ele>110.6</ele>
        <time>2020-07-30T07:57:17Z</time>
      </trkpt>
      <trkpt lat="43.3150430" lon="-1.5885890">
        <ele>111.0</ele>
        <time>2020-07-30T07:57:18Z</time>
      </trkpt>
      <trkpt lat="43.3150770" lon="-1.5885880">
        <ele>111.4</ele>
        <time>2020-07-30T07:57:19Z</time>
      </trkpt>
      <trkpt lat="43.3151100" lon="-1.5885850">
        <ele>112.0</ele>
        <time>2020-07-30T07:57:20Z</time>
      </trkpt>
      <trkpt lat="43.3152120" lon="-1.5885630">
        <ele>112.6</ele>
        <time>2020-07-30T07:57:23Z</time>
      </trkpt>
      <trkpt lat="43.3152450" lon="-1.5885550">
        <ele>112.6</ele>
        <time>2020-07-30T07:57:24Z</time>
      </trkpt>
      <trkpt lat="43.3153130" lon="-1.5885370">
        <ele>113.2</ele>
        <time>2020-07-30T07:57:26Z</time>
      </trkpt>
      <trkpt lat="43.3153780" lon="-1.5885300">
        <ele>113.4</ele>
        <time>2020-07-30T07:57:28Z</time>
      </trkpt>
      <trkpt lat="43.3154910" lon="-1.5885300">
        <ele>114.2</ele>
        <time>2020-07-30T07:57:32Z</time>
      </trkpt>
      <trkpt lat="43.3155920" lon="-1.5885230">
        <ele>115.0</ele>
        <time>2020-07-30T07:57:36Z</time>
      </trkpt>
      <trkpt lat="43.3156120" lon="-1.5885190">
        <ele>115.4</ele>
        <time>2020-07-30T07:57:37Z</time>
      </trkpt>
      <trkpt lat="43.3157180" lon="-1.5885230">
        <ele>116.4</ele>
        <time>2020-07-30T07:57:43Z</time>
      </trkpt>
      <trkpt lat="43.3158320" lon="-1.5885610">
        <ele>117.6</ele>
        <time>2020-07-30T07:57:48Z</time>
      </trkpt>
      <trkpt lat="43.3159230" lon="-1.5885460">
        <ele>118.0</ele>
        <time>2020-07-30T07:57:50Z</time>
      </trkpt>
      <trkpt lat="43.3160030" lon="-1.5885360">
        <ele>118.8</ele>
        <time>2020-07-30T07:57:52Z</time>
      </trkpt>
      <trkpt lat="43.3161430" lon="-1.5886140">
        <ele>119.8</ele>
        <time>2020-07-30T07:57:56Z</time>
      </trkpt>
      <trkpt lat="43.3161680" lon="-1.5886300">
        <ele>120.0</ele>
        <time>2020-07-30T07:57:57Z</time>
      </trkpt>
      <trkpt lat="43.3162430" lon="-1.5886780">
        <ele>121.0</ele>
        <time>2020-07-30T07:58:00Z</time>
      </trkpt>
      <trkpt lat="43.3164060" lon="-1.5887230">
        <ele>121.6</ele>
        <time>2020-07-30T07:58:04Z</time>
      </trkpt>
      <trkpt lat="43.3165640" lon="-1.5887190">
        <ele>122.2</ele>
        <time>2020-07-30T07:58:08Z</time>
      </trkpt>
      <trkpt lat="43.3166340" lon="-1.5887170">
        <ele>122.6</ele>
        <time>2020-07-30T07:58:10Z</time>
      </trkpt>
      <trkpt lat="43.3167120" lon="-1.5887160">
        <ele>123.2</ele>
        <time>2020-07-30T07:58:12Z</time>
      </trkpt>
      <trkpt lat="43.3168870" lon="-1.5887430">
        <ele>124.2</ele>
        <time>2020-07-30T07:58:16Z</time>
      </trkpt>
      <trkpt lat="43.3169250" lon="-1.5887530">
        <ele>124.2</ele>
        <time>2020-07-30T07:58:17Z</time>
      </trkpt>
      <trkpt lat="43.3171490" lon="-1.5888720">
        <ele>125.2</ele>
        <time>2020-07-30T07:58:23Z</time>
      </trkpt>
      <trkpt lat="43.3172130" lon="-1.5889120">
        <ele>125.4</ele>
        <time>2020-07-30T07:58:25Z</time>
      </trkpt>
      <trkpt lat="43.3173030" lon="-1.5889790">
        <ele>126.6</ele>
        <time>2020-07-30T07:58:28Z</time>
      </trkpt>
      <trkpt lat="43.3174210" lon="-1.5890850">
        <ele>127.4</ele>
        <time>2020-07-30T07:58:32Z</time>
      </trkpt>
      <trkpt lat="43.3174540" lon="-1.5891150">
        <ele>127.8</ele>
        <time>2020-07-30T07:58:33Z</time>
      </trkpt>
      <trkpt lat="43.3175590" lon="-1.5891940">
        <ele>128.4</ele>
        <time>2020-07-30T07:58:36Z</time>
      </trkpt>
      <trkpt lat="43.3176640" lon="-1.5892400">
        <ele>128.8</ele>
        <time>2020-07-30T07:58:39Z</time>
      </trkpt>
      <trkpt lat="43.3178660" lon="-1.5892690">
        <ele>130.0</ele>
        <time>2020-07-30T07:58:45Z</time>
      </trkpt>
      <trkpt lat="43.3179340" lon="-1.5892700">
        <ele>130.4</ele>
        <time>2020-07-30T07:58:47Z</time>
      </trkpt>
      <trkpt lat="43.3179990" lon="-1.5892990">
        <ele>131.2</ele>
        <time>2020-07-30T07:58:49Z</time>
      </trkpt>
      <trkpt lat="43.3180860" lon="-1.5893900">
        <ele>131.8</ele>
        <time>2020-07-30T07:58:52Z</time>
      </trkpt>
      <trkpt lat="43.3181340" lon="-1.5894730">
        <ele>132.2</ele>
        <time>2020-07-30T07:58:54Z</time>
      </trkpt>
      <trkpt lat="43.3181720" lon="-1.5896200">
        <ele>132.6</ele>
        <time>2020-07-30T07:58:57Z</time>
      </trkpt>
      <trkpt lat="43.3181530" lon="-1.5897320">
        <ele>132.8</ele>
        <time>2020-07-30T07:58:59Z</time>
      </trkpt>
      <trkpt lat="43.3181140" lon="-1.5898410">
        <ele>132.8</ele>
        <time>2020-07-30T07:59:01Z</time>
      </trkpt>
      <trkpt lat="43.3180880" lon="-1.5898950">
        <ele>133.0</ele>
        <time>2020-07-30T07:59:02Z</time>
      </trkpt>
      <trkpt lat="43.3179940" lon="-1.5900600">
        <ele>133.2</ele>
        <time>2020-07-30T07:59:05Z</time>
      </trkpt>
      <trkpt lat="43.3179280" lon="-1.5901640">
        <ele>133.4</ele>
        <time>2020-07-30T07:59:07Z</time>
      </trkpt>
      <trkpt lat="43.3177940" lon="-1.5903360">
        <ele>133.6</ele>
        <time>2020-07-30T07:59:11Z</time>
      </trkpt>
      <trkpt lat="43.3177150" lon="-1.5903790">
        <ele>133.8</ele>
        <time>2020-07-30T07:59:13Z</time>
      </trkpt>
      <trkpt lat="43.3176270" lon="-1.5903880">
        <ele>134.2</ele>
        <time>2020-07-30T07:59:15Z</time>
      </trkpt>
      <trkpt lat="43.3175810" lon="-1.5903840">
        <ele>134.4</ele>
        <time>2020-07-30T07:59:16Z</time>
      </trkpt>
      <trkpt lat="43.3174910" lon="-1.5903680">
        <ele>135.0</ele>
        <time>2020-07-30T07:59:18Z</time>
      </trkpt>
      <trkpt lat="43.3173490" lon="-1.5903290">
        <ele>135.2</ele>
        <time>2020-07-30T07:59:21Z</time>
      </trkpt>
      <trkpt lat="43.3172020" lon="-1.5903090">
        <ele>135.4</ele>
        <time>2020-07-30T07:59:24Z</time>
      </trkpt>
      <trkpt lat="43.3171510" lon="-1.5903130">
        <ele>135.6</ele>
        <time>2020-07-30T07:59:25Z</time>
      </trkpt>
      <trkpt lat="43.3169390" lon="-1.5904030">
        <ele>136.0</ele>
        <time>2020-07-30T07:59:29Z</time>
      </trkpt>
      <trkpt lat="43.3168910" lon="-1.5904470">
        <ele>136.0</ele>
        <time>2020-07-30T07:59:30Z</time>
      </trkpt>
      <trkpt lat="43.3168470" lon="-1.5904970">
        <ele>136.0</ele>
        <time>2020-07-30T07:59:31Z</time>
      </trkpt>
      <trkpt lat="43.3167030" lon="-1.5907340">
        <ele>136.4</ele>
        <time>2020-07-30T07:59:35Z</time>
      </trkpt>
      <trkpt lat="43.3166220" lon="-1.5908300">
        <ele>136.4</ele>
        <time>2020-07-30T07:59:37Z</time>
      </trkpt>
      <trkpt lat="43.3165300" lon="-1.5909030">
        <ele>136.8</ele>
        <time>2020-07-30T07:59:39Z</time>
      </trkpt>
      <trkpt lat="43.3164830" lon="-1.5909300">
        <ele>137.0</ele>
        <time>2020-07-30T07:59:40Z</time>
      </trkpt>
      <trkpt lat="43.3163870" lon="-1.5909710">
        <ele>137.4</ele>
        <time>2020-07-30T07:59:42Z</time>
      </trkpt>
      <trkpt lat="43.3161440" lon="-1.5910470">
        <ele>138.2</ele>
        <time>2020-07-30T07:59:47Z</time>
      </trkpt>
      <trkpt lat="43.3160950" lon="-1.5910680">
        <ele>138.4</ele>
        <time>2020-07-30T07:59:48Z</time>
      </trkpt>
      <trkpt lat="43.3160490" lon="-1.5911010">
        <ele>138.6</ele>
        <time>2020-07-30T07:59:49Z</time>
      </trkpt>
      <trkpt lat="43.3160090" lon="-1.5911440">
        <ele>138.8</ele>
        <time>2020-07-30T07:59:50Z</time>
      </trkpt>
      <trkpt lat="43.3159760" lon="-1.5911950">
        <ele>138.8</ele>
        <time>2020-07-30T07:59:51Z</time>
      </trkpt>
      <trkpt lat="43.3159520" lon="-1.5912520">
        <ele>139.0</ele>
        <time>2020-07-30T07:59:52Z</time>
      </trkpt>
      <trkpt lat="43.3159210" lon="-1.5914330">
        <ele>139.6</ele>
        <time>2020-07-30T07:59:55Z</time>
      </trkpt>
      <trkpt lat="43.3159110" lon="-1.5914940">
        <ele>139.8</ele>
        <time>2020-07-30T07:59:56Z</time>
      </trkpt>
      <trkpt lat="43.3158470" lon="-1.5917350">
        <ele>141.0</ele>
        <time>2020-07-30T08:00:00Z</time>
      </trkpt>
      <trkpt lat="43.3158010" lon="-1.5918530">
        <ele>141.2</ele>
        <time>2020-07-30T08:00:02Z</time>
      </trkpt>
      <trkpt lat="43.3157130" lon="-1.5920990">
        <ele>142.0</ele>
        <time>2020-07-30T08:00:06Z</time>
      </trkpt>
      <trkpt lat="43.3156030" lon="-1.5923960">
        <ele>143.0</ele>
        <time>2020-07-30T08:00:11Z</time>
      </trkpt>
      <trkpt lat="43.3155040" lon="-1.5927040">
        <ele>144.0</ele>
        <time>2020-07-30T08:00:16Z</time>
      </trkpt>
      <trkpt lat="43.3154390" lon="-1.5928760">
        <ele>145.2</ele>
        <time>2020-07-30T08:00:19Z</time>
      </trkpt>
      <trkpt lat="43.3153420" lon="-1.5930320">
        <ele>145.4</ele>
        <time>2020-07-30T08:00:22Z</time>
      </trkpt>
      <trkpt lat="43.3152340" lon="-1.5931700">
        <ele>145.8</ele>
        <time>2020-07-30T08:00:25Z</time>
      </trkpt>
      <trkpt lat="43.3152030" lon="-1.5932220">
        <ele>146.2</ele>
        <time>2020-07-30T08:00:26Z</time>
      </trkpt>
      <trkpt lat="43.3151780" lon="-1.5932790">
        <ele>146.4</ele>
        <time>2020-07-30T08:00:27Z</time>
      </trkpt>
      <trkpt lat="43.3151660" lon="-1.5933500">
        <ele>146.6</ele>
        <time>2020-07-30T08:00:28Z</time>
      </trkpt>
      <trkpt lat="43.3151640" lon="-1.5934190">
        <ele>146.8</ele>
        <time>2020-07-30T08:00:29Z</time>
      </trkpt>
      <trkpt lat="43.3151830" lon="-1.5934800">
        <ele>146.8</ele>
        <time>2020-07-30T08:00:30Z</time>
      </trkpt>
      <trkpt lat="43.3152510" lon="-1.5935890">
        <ele>147.0</ele>
        <time>2020-07-30T08:00:32Z</time>
      </trkpt>
      <trkpt lat="43.3153690" lon="-1.5937390">
        <ele>147.6</ele>
        <time>2020-07-30T08:00:35Z</time>
      </trkpt>
      <trkpt lat="43.3154660" lon="-1.5939030">
        <ele>148.0</ele>
        <time>2020-07-30T08:00:38Z</time>
      </trkpt>
      <trkpt lat="43.3154970" lon="-1.5939600">
        <ele>148.0</ele>
        <time>2020-07-30T08:00:39Z</time>
      </trkpt>
      <trkpt lat="43.3155800" lon="-1.5940470">
        <ele>148.2</ele>
        <time>2020-07-30T08:00:41Z</time>
      </trkpt>
      <trkpt lat="43.3156940" lon="-1.5940800">
        <ele>148.4</ele>
        <time>2020-07-30T08:00:43Z</time>
      </trkpt>
      <trkpt lat="43.3157490" lon="-1.5940910">
        <ele>148.8</ele>
        <time>2020-07-30T08:00:44Z</time>
      </trkpt>
      <trkpt lat="43.3159130" lon="-1.5941450">
        <ele>149.6</ele>
        <time>2020-07-30T08:00:47Z</time>
      </trkpt>
      <trkpt lat="43.3159610" lon="-1.5941880">
        <ele>149.8</ele>
        <time>2020-07-30T08:00:48Z</time>
      </trkpt>
      <trkpt lat="43.3160050" lon="-1.5942380">
        <ele>150.0</ele>
        <time>2020-07-30T08:00:49Z</time>
      </trkpt>
      <trkpt lat="43.3161110" lon="-1.5944190">
        <ele>150.2</ele>
        <time>2020-07-30T08:00:52Z</time>
      </trkpt>
      <trkpt lat="43.3161740" lon="-1.5945460">
        <ele>150.2</ele>
        <time>2020-07-30T08:00:54Z</time>
      </trkpt>
      <trkpt lat="43.3162420" lon="-1.5946630">
        <ele>150.8</ele>
        <time>2020-07-30T08:00:56Z</time>
      </trkpt>
      <trkpt lat="43.3162850" lon="-1.5947070">
        <ele>151.0</ele>
        <time>2020-07-30T08:00:57Z</time>
      </trkpt>
      <trkpt lat="43.3163330" lon="-1.5947400">
        <ele>151.2</ele>
        <time>2020-07-30T08:00:58Z</time>
      </trkpt>
      <trkpt lat="43.3163820" lon="-1.5947630">
        <ele>151.4</ele>
        <time>2020-07-30T08:00:59Z</time>
      </trkpt>
      <trkpt lat="43.3165190" lon="-1.5948250">
        <ele>152.2</ele>
        <time>2020-07-30T08:01:02Z</time>
      </trkpt>
      <trkpt lat="43.3166450" lon="-1.5949170">
        <ele>153.2</ele>
        <time>2020-07-30T08:01:05Z</time>
      </trkpt>
      <trkpt lat="43.3168710" lon="-1.5951480">
        <ele>154.4</ele>
        <time>2020-07-30T08:01:11Z</time>
      </trkpt>
      <trkpt lat="43.3169060" lon="-1.5951800">
        <ele>154.6</ele>
        <time>2020-07-30T08:01:12Z</time>
      </trkpt>
      <trkpt lat="43.3169860" lon="-1.5952350">
        <ele>155.4</ele>
        <time>2020-07-30T08:01:14Z</time>
      </trkpt>
      <trkpt lat="43.3170620" lon="-1.5953030">
        <ele>156.0</ele>
        <time>2020-07-30T08:01:16Z</time>
      </trkpt>
      <trkpt lat="43.3171020" lon="-1.5953430">
        <ele>156.2</ele>
        <time>2020-07-30T08:01:17Z</time>
      </trkpt>
      <trkpt lat="43.3171390" lon="-1.5953870">
        <ele>156.4</ele>
        <time>2020-07-30T08:01:18Z</time>
      </trkpt>
      <trkpt lat="43.3171710" lon="-1.5954390">
        <ele>156.6</ele>
        <time>2020-07-30T08:01:19Z</time>
      </trkpt>
      <trkpt lat="43.3173110" lon="-1.5956310">
        <ele>157.6</ele>
        <time>2020-07-30T08:01:23Z</time>
      </trkpt>
      <trkpt lat="43.3173690" lon="-1.5957290">
        <ele>157.8</ele>
        <time>2020-07-30T08:01:25Z</time>
      </trkpt>
      <trkpt lat="43.3174160" lon="-1.5958990">
        <ele>158.8</ele>
        <time>2020-07-30T08:01:28Z</time>
      </trkpt>
      <trkpt lat="43.3174210" lon="-1.5960270">
        <ele>159.2</ele>
        <time>2020-07-30T08:01:30Z</time>
      </trkpt>
      <trkpt lat="43.3174080" lon="-1.5961590">
        <ele>159.6</ele>
        <time>2020-07-30T08:01:32Z</time>
      </trkpt>
      <trkpt lat="43.3173970" lon="-1.5962210">
        <ele>159.8</ele>
        <time>2020-07-30T08:01:33Z</time>
      </trkpt>
      <trkpt lat="43.3173810" lon="-1.5962810">
        <ele>159.8</ele>
        <time>2020-07-30T08:01:34Z</time>
      </trkpt>
      <trkpt lat="43.3173390" lon="-1.5963920">
        <ele>160.2</ele>
        <time>2020-07-30T08:01:36Z</time>
      </trkpt>
      <trkpt lat="43.3172990" lon="-1.5965040">
        <ele>160.6</ele>
        <time>2020-07-30T08:01:38Z</time>
      </trkpt>
      <trkpt lat="43.3172870" lon="-1.5965650">
        <ele>160.8</ele>
        <time>2020-07-30T08:01:39Z</time>
      </trkpt>
      <trkpt lat="43.3172810" lon="-1.5966290">
        <ele>160.8</ele>
        <time>2020-07-30T08:01:40Z</time>
      </trkpt>
      <trkpt lat="43.3172830" lon="-1.5966930">
        <ele>161.0</ele>
        <time>2020-07-30T08:01:41Z</time>
      </trkpt>
      <trkpt lat="43.3172930" lon="-1.5967460">
        <ele>161.2</ele>
        <time>2020-07-30T08:01:42Z</time>
      </trkpt>
      <trkpt lat="43.3173500" lon="-1.5968260">
        <ele>161.8</ele>
        <time>2020-07-30T08:01:44Z</time>
      </trkpt>
      <trkpt lat="43.3173820" lon="-1.5968630">
        <ele>162.2</ele>
        <time>2020-07-30T08:01:45Z</time>
      </trkpt>
      <trkpt lat="43.3174890" lon="-1.5969990">
        <ele>163.0</ele>
        <time>2020-07-30T08:01:48Z</time>
      </trkpt>
      <trkpt lat="43.3175520" lon="-1.5971040">
        <ele>163.4</ele>
        <time>2020-07-30T08:01:50Z</time>
      </trkpt>
      <trkpt lat="43.3175950" lon="-1.5971470">
        <ele>163.6</ele>
        <time>2020-07-30T08:01:51Z</time>
      </trkpt>
      <trkpt lat="43.3176390" lon="-1.5971810">
        <ele>163.8</ele>
        <time>2020-07-30T08:01:52Z</time>
      </trkpt>
      <trkpt lat="43.3176840" lon="-1.5972000">
        <ele>164.0</ele>
        <time>2020-07-30T08:01:53Z</time>
      </trkpt>
      <trkpt lat="43.3177330" lon="-1.5972030">
        <ele>164.2</ele>
        <time>2020-07-30T08:01:54Z</time>
      </trkpt>
      <trkpt lat="43.3177810" lon="-1.5972050">
        <ele>164.4</ele>
        <time>2020-07-30T08:01:55Z</time>
      </trkpt>
      <trkpt lat="43.3179180" lon="-1.5972360">
        <ele>165.0</ele>
        <time>2020-07-30T08:01:58Z</time>
      </trkpt>
      <trkpt lat="43.3180010" lon="-1.5972870">
        <ele>165.4</ele>
        <time>2020-07-30T08:02:00Z</time>
      </trkpt>
      <trkpt lat="43.3180410" lon="-1.5973260">
        <ele>165.6</ele>
        <time>2020-07-30T08:02:01Z</time>
      </trkpt>
      <trkpt lat="43.3181540" lon="-1.5974550">
        <ele>166.0</ele>
        <time>2020-07-30T08:02:04Z</time>
      </trkpt>
      <trkpt lat="43.3182610" lon="-1.5975650">
        <ele>166.8</ele>
        <time>2020-07-30T08:02:07Z</time>
      </trkpt>
      <trkpt lat="43.3182990" lon="-1.5975940">
        <ele>167.0</ele>
        <time>2020-07-30T08:02:08Z</time>
      </trkpt>
      <trkpt lat="43.3183370" lon="-1.5976210">
        <ele>167.4</ele>
        <time>2020-07-30T08:02:09Z</time>
      </trkpt>
      <trkpt lat="43.3183740" lon="-1.5976430">
        <ele>167.8</ele>
        <time>2020-07-30T08:02:10Z</time>
      </trkpt>
      <trkpt lat="43.3185260" lon="-1.5977090">
        <ele>168.6</ele>
        <time>2020-07-30T08:02:14Z</time>
      </trkpt>
      <trkpt lat="43.3186060" lon="-1.5977530">
        <ele>169.0</ele>
        <time>2020-07-30T08:02:16Z</time>
      </trkpt>
      <trkpt lat="43.3186720" lon="-1.5978180">
        <ele>169.6</ele>
        <time>2020-07-30T08:02:18Z</time>
      </trkpt>
      <trkpt lat="43.3187020" lon="-1.5978580">
        <ele>170.0</ele>
        <time>2020-07-30T08:02:19Z</time>
      </trkpt>
      <trkpt lat="43.3187600" lon="-1.5979490">
        <ele>170.4</ele>
        <time>2020-07-30T08:02:21Z</time>
      </trkpt>
      <trkpt lat="43.3188410" lon="-1.5981070">
        <ele>170.6</ele>
        <time>2020-07-30T08:02:24Z</time>
      </trkpt>
      <trkpt lat="43.3188770" lon="-1.5981550">
        <ele>170.6</ele>
        <time>2020-07-30T08:02:25Z</time>
      </trkpt>
      <trkpt lat="43.3189190" lon="-1.5981920">
        <ele>170.6</ele>
        <time>2020-07-30T08:02:26Z</time>
      </trkpt>
      <trkpt lat="43.3190170" lon="-1.5982130">
        <ele>170.6</ele>
        <time>2020-07-30T08:02:28Z</time>
      </trkpt>
      <trkpt lat="43.3191650" lon="-1.5982110">
        <ele>170.8</ele>
        <time>2020-07-30T08:02:31Z</time>
      </trkpt>
      <trkpt lat="43.3192160" lon="-1.5982210">
        <ele>170.8</ele>
        <time>2020-07-30T08:02:32Z</time>
      </trkpt>
      <trkpt lat="43.3193090" lon="-1.5982580">
        <ele>171.0</ele>
        <time>2020-07-30T08:02:34Z</time>
      </trkpt>
      <trkpt lat="43.3193950" lon="-1.5983190">
        <ele>171.0</ele>
        <time>2020-07-30T08:02:36Z</time>
      </trkpt>
      <trkpt lat="43.3195730" lon="-1.5984750">
        <ele>171.4</ele>
        <time>2020-07-30T08:02:40Z</time>
      </trkpt>
      <trkpt lat="43.3196220" lon="-1.5985060">
        <ele>171.4</ele>
        <time>2020-07-30T08:02:41Z</time>
      </trkpt>
      <trkpt lat="43.3197320" lon="-1.5985330">
        <ele>171.4</ele>
        <time>2020-07-30T08:02:43Z</time>
      </trkpt>
      <trkpt lat="43.3197880" lon="-1.5985230">
        <ele>171.4</ele>
        <time>2020-07-30T08:02:44Z</time>
      </trkpt>
      <trkpt lat="43.3198400" lon="-1.5984970">
        <ele>171.4</ele>
        <time>2020-07-30T08:02:45Z</time>
      </trkpt>
      <trkpt lat="43.3199770" lon="-1.5983950">
        <ele>171.8</ele>
        <time>2020-07-30T08:02:48Z</time>
      </trkpt>
      <trkpt lat="43.3200690" lon="-1.5983190">
        <ele>172.0</ele>
        <time>2020-07-30T08:02:50Z</time>
      </trkpt>
      <trkpt lat="43.3202110" lon="-1.5981990">
        <ele>172.0</ele>
        <time>2020-07-30T08:02:53Z</time>
      </trkpt>
      <trkpt lat="43.3202540" lon="-1.5981540">
        <ele>172.0</ele>
        <time>2020-07-30T08:02:54Z</time>
      </trkpt>
      <trkpt lat="43.3202920" lon="-1.5981010">
        <ele>172.0</ele>
        <time>2020-07-30T08:02:55Z</time>
      </trkpt>
      <trkpt lat="43.3203910" lon="-1.5979290">
        <ele>173.0</ele>
        <time>2020-07-30T08:02:58Z</time>
      </trkpt>
      <trkpt lat="43.3204600" lon="-1.5978370">
        <ele>173.4</ele>
        <time>2020-07-30T08:03:00Z</time>
      </trkpt>
      <trkpt lat="43.3205040" lon="-1.5978050">
        <ele>173.6</ele>
        <time>2020-07-30T08:03:01Z</time>
      </trkpt>
      <trkpt lat="43.3205570" lon="-1.5977860">
        <ele>173.6</ele>
        <time>2020-07-30T08:03:02Z</time>
      </trkpt>
      <trkpt lat="43.3206600" lon="-1.5977860">
        <ele>174.0</ele>
        <time>2020-07-30T08:03:04Z</time>
      </trkpt>
      <trkpt lat="43.3208500" lon="-1.5978560">
        <ele>174.8</ele>
        <time>2020-07-30T08:03:08Z</time>
      </trkpt>
      <trkpt lat="43.3208960" lon="-1.5978710">
        <ele>175.2</ele>
        <time>2020-07-30T08:03:09Z</time>
      </trkpt>
      <trkpt lat="43.3209910" lon="-1.5979030">
        <ele>176.0</ele>
        <time>2020-07-30T08:03:11Z</time>
      </trkpt>
      <trkpt lat="43.3210840" lon="-1.5979270">
        <ele>176.4</ele>
        <time>2020-07-30T08:03:13Z</time>
      </trkpt>
      <trkpt lat="43.3213090" lon="-1.5979930">
        <ele>177.6</ele>
        <time>2020-07-30T08:03:18Z</time>
      </trkpt>
      <trkpt lat="43.3213550" lon="-1.5980080">
        <ele>177.8</ele>
        <time>2020-07-30T08:03:19Z</time>
      </trkpt>
      <trkpt lat="43.3215320" lon="-1.5980880">
        <ele>178.6</ele>
        <time>2020-07-30T08:03:23Z</time>
      </trkpt>
      <trkpt lat="43.3215750" lon="-1.5981190">
        <ele>178.8</ele>
        <time>2020-07-30T08:03:24Z</time>
      </trkpt>
      <trkpt lat="43.3216560" lon="-1.5981920">
        <ele>179.0</ele>
        <time>2020-07-30T08:03:26Z</time>
      </trkpt>
      <trkpt lat="43.3217670" lon="-1.5983250">
        <ele>179.4</ele>
        <time>2020-07-30T08:03:29Z</time>
      </trkpt>
      <trkpt lat="43.3217980" lon="-1.5983860">
        <ele>179.6</ele>
        <time>2020-07-30T08:03:30Z</time>
      </trkpt>
      <trkpt lat="43.3218250" lon="-1.5984570">
        <ele>179.6</ele>
        <time>2020-07-30T08:03:31Z</time>
      </trkpt>
      <trkpt lat="43.3218520" lon="-1.5985300">
        <ele>179.6</ele>
        <time>2020-07-30T08:03:32Z</time>
      </trkpt>
      <trkpt lat="43.3218740" lon="-1.5986080">
        <ele>179.6</ele>
        <time>2020-07-30T08:03:33Z</time>
      </trkpt>
      <trkpt lat="43.3219110" lon="-1.5988310">
        <ele>179.4</ele>
        <time>2020-07-30T08:03:36Z</time>
      </trkpt>
      <trkpt lat="43.3219270" lon="-1.5990450">
        <ele>179.8</ele>
        <time>2020-07-30T08:03:39Z</time>
      </trkpt>
      <trkpt lat="43.3219330" lon="-1.5991800">
        <ele>180.4</ele>
        <time>2020-07-30T08:03:41Z</time>
      </trkpt>
      <trkpt lat="43.3219280" lon="-1.5993100">
        <ele>180.8</ele>
        <time>2020-07-30T08:03:43Z</time>
      </trkpt>
      <trkpt lat="43.3219230" lon="-1.5993700">
        <ele>181.0</ele>
        <time>2020-07-30T08:03:44Z</time>
      </trkpt>
      <trkpt lat="43.3219170" lon="-1.5994270">
        <ele>181.2</ele>
        <time>2020-07-30T08:03:45Z</time>
      </trkpt>
      <trkpt lat="43.3219020" lon="-1.5995800">
        <ele>182.2</ele>
        <time>2020-07-30T08:03:48Z</time>
      </trkpt>
      <trkpt lat="43.3218950" lon="-1.5996290">
        <ele>182.6</ele>
        <time>2020-07-30T08:03:49Z</time>
      </trkpt>
      <trkpt lat="43.3218920" lon="-1.5997360">
        <ele>183.2</ele>
        <time>2020-07-30T08:03:51Z</time>
      </trkpt>
      <trkpt lat="43.3219120" lon="-1.5997850">
        <ele>183.4</ele>
        <time>2020-07-30T08:03:52Z</time>
      </trkpt>
      <trkpt lat="43.3219550" lon="-1.5998170">
        <ele>183.4</ele>
        <time>2020-07-30T08:03:53Z</time>
      </trkpt>
      <trkpt lat="43.3220450" lon="-1.5998280">
        <ele>183.8</ele>
        <time>2020-07-30T08:03:55Z</time>
      </trkpt>
      <trkpt lat="43.3220880" lon="-1.5998090">
        <ele>184.0</ele>
        <time>2020-07-30T08:03:56Z</time>
      </trkpt>
      <trkpt lat="43.3221290" lon="-1.5997780">
        <ele>184.2</ele>
        <time>2020-07-30T08:03:57Z</time>
      </trkpt>
      <trkpt lat="43.3222730" lon="-1.5996270">
        <ele>184.0</ele>
        <time>2020-07-30T08:04:01Z</time>
      </trkpt>
      <trkpt lat="43.3223980" lon="-1.5994360">
        <ele>183.6</ele>
        <time>2020-07-30T08:04:06Z</time>
      </trkpt>
      <trkpt lat="43.3224440" lon="-1.5994220">
        <ele>183.6</ele>
        <time>2020-07-30T08:04:07Z</time>
      </trkpt>
      <trkpt lat="43.3225560" lon="-1.5994300">
        <ele>183.4</ele>
        <time>2020-07-30T08:04:09Z</time>
      </trkpt>
      <trkpt lat="43.3226700" lon="-1.5994970">
        <ele>182.8</ele>
        <time>2020-07-30T08:04:11Z</time>
      </trkpt>
      <trkpt lat="43.3227290" lon="-1.5995490">
        <ele>182.6</ele>
        <time>2020-07-30T08:04:12Z</time>
      </trkpt>
      <trkpt lat="43.3228470" lon="-1.5996710">
        <ele>182.0</ele>
        <time>2020-07-30T08:04:14Z</time>
      </trkpt>
      <trkpt lat="43.3230470" lon="-1.5998700">
        <ele>181.6</ele>
        <time>2020-07-30T08:04:17Z</time>
      </trkpt>
      <trkpt lat="43.3232860" lon="-1.5999990">
        <ele>181.0</ele>
        <time>2020-07-30T08:04:20Z</time>
      </trkpt>
      <trkpt lat="43.3234520" lon="-1.6000560">
        <ele>180.4</ele>
        <time>2020-07-30T08:04:22Z</time>
      </trkpt>
      <trkpt lat="43.3235360" lon="-1.6000850">
        <ele>180.0</ele>
        <time>2020-07-30T08:04:23Z</time>
      </trkpt>
      <trkpt lat="43.3238530" lon="-1.6002550">
        <ele>178.8</ele>
        <time>2020-07-30T08:04:27Z</time>
      </trkpt>
      <trkpt lat="43.3239210" lon="-1.6003180">
        <ele>178.6</ele>
        <time>2020-07-30T08:04:28Z</time>
      </trkpt>
      <trkpt lat="43.3239780" lon="-1.6003910">
        <ele>178.4</ele>
        <time>2020-07-30T08:04:29Z</time>
      </trkpt>
      <trkpt lat="43.3240880" lon="-1.6005510">
        <ele>178.0</ele>
        <time>2020-07-30T08:04:31Z</time>
      </trkpt>
      <trkpt lat="43.3241380" lon="-1.6006380">
        <ele>178.0</ele>
        <time>2020-07-30T08:04:32Z</time>
      </trkpt>
      <trkpt lat="43.3242440" lon="-1.6008150">
        <ele>177.8</ele>
        <time>2020-07-30T08:04:34Z</time>
      </trkpt>
      <trkpt lat="43.3243640" lon="-1.6009460">
        <ele>177.0</ele>
        <time>2020-07-30T08:04:36Z</time>
      </trkpt>
      <trkpt lat="43.3244410" lon="-1.6009530">
        <ele>176.8</ele>
        <time>2020-07-30T08:04:37Z</time>
      </trkpt>
      <trkpt lat="43.3245130" lon="-1.6009280">
        <ele>176.6</ele>
        <time>2020-07-30T08:04:38Z</time>
      </trkpt>
      <trkpt lat="43.3246440" lon="-1.6008260">
        <ele>176.2</ele>
        <time>2020-07-30T08:04:40Z</time>
      </trkpt>
      <trkpt lat="43.3248490" lon="-1.6006260">
        <ele>175.6</ele>
        <time>2020-07-30T08:04:43Z</time>
      </trkpt>
      <trkpt lat="43.3249210" lon="-1.6005580">
        <ele>175.2</ele>
        <time>2020-07-30T08:04:44Z</time>
      </trkpt>
      <trkpt lat="43.3249990" lon="-1.6004990">
        <ele>174.8</ele>
        <time>2020-07-30T08:04:45Z</time>
      </trkpt>
      <trkpt lat="43.3250830" lon="-1.6004610">
        <ele>174.4</ele>
        <time>2020-07-30T08:04:46Z</time>
      </trkpt>
      <trkpt lat="43.3251650" lon="-1.6004510">
        <ele>174.0</ele>
        <time>2020-07-30T08:04:47Z</time>
      </trkpt>
      <trkpt lat="43.3253170" lon="-1.6004970">
        <ele>173.4</ele>
        <time>2020-07-30T08:04:49Z</time>
      </trkpt>
      <trkpt lat="43.3256780" lon="-1.6007060">
        <ele>172.8</ele>
        <time>2020-07-30T08:04:54Z</time>
      </trkpt>
      <trkpt lat="43.3257490" lon="-1.6007440">
        <ele>172.4</ele>
        <time>2020-07-30T08:04:55Z</time>
      </trkpt>
      <trkpt lat="43.3258180" lon="-1.6007770">
        <ele>171.8</ele>
        <time>2020-07-30T08:04:56Z</time>
      </trkpt>
      <trkpt lat="43.3259560" lon="-1.6008390">
        <ele>170.8</ele>
        <time>2020-07-30T08:04:58Z</time>
      </trkpt>
      <trkpt lat="43.3261540" lon="-1.6008920">
        <ele>170.0</ele>
        <time>2020-07-30T08:05:01Z</time>
      </trkpt>
      <trkpt lat="43.3262200" lon="-1.6009070">
        <ele>169.6</ele>
        <time>2020-07-30T08:05:02Z</time>
      </trkpt>
      <trkpt lat="43.3264180" lon="-1.6009430">
        <ele>168.8</ele>
        <time>2020-07-30T08:05:05Z</time>
      </trkpt>
      <trkpt lat="43.3264840" lon="-1.6009560">
        <ele>168.6</ele>
        <time>2020-07-30T08:05:06Z</time>
      </trkpt>
      <trkpt lat="43.3266740" lon="-1.6009930">
        <ele>168.6</ele>
        <time>2020-07-30T08:05:09Z</time>
      </trkpt>
      <trkpt lat="43.3270580" lon="-1.6011260">
        <ele>168.4</ele>
        <time>2020-07-30T08:05:15Z</time>
      </trkpt>
      <trkpt lat="43.3271180" lon="-1.6011530">
        <ele>168.6</ele>
        <time>2020-07-30T08:05:16Z</time>
      </trkpt>
      <trkpt lat="43.3273810" lon="-1.6013290">
        <ele>169.8</ele>
        <time>2020-07-30T08:05:21Z</time>
      </trkpt>
      <trkpt lat="43.3275410" lon="-1.6014270">
        <ele>170.2</ele>
        <time>2020-07-30T08:05:24Z</time>
      </trkpt>
      <trkpt lat="43.3277650" lon="-1.6015430">
        <ele>170.0</ele>
        <time>2020-07-30T08:05:28Z</time>
      </trkpt>
      <trkpt lat="43.3278900" lon="-1.6015940">
        <ele>169.6</ele>
        <time>2020-07-30T08:05:30Z</time>
      </trkpt>
      <trkpt lat="43.3281780" lon="-1.6016380">
        <ele>168.6</ele>
        <time>2020-07-30T08:05:34Z</time>
      </trkpt>
      <trkpt lat="43.3283240" lon="-1.6016680">
        <ele>168.0</ele>
        <time>2020-07-30T08:05:36Z</time>
      </trkpt>
      <trkpt lat="43.3284700" lon="-1.6017030">
        <ele>167.6</ele>
        <time>2020-07-30T08:05:38Z</time>
      </trkpt>
      <trkpt lat="43.3289200" lon="-1.6017690">
        <ele>167.0</ele>
        <time>2020-07-30T08:05:44Z</time>
      </trkpt>
      <trkpt lat="43.3289990" lon="-1.6017780">
        <ele>166.8</ele>
        <time>2020-07-30T08:05:45Z</time>
      </trkpt>
      <trkpt lat="43.3291580" lon="-1.6018090">
        <ele>166.4</ele>
        <time>2020-07-30T08:05:47Z</time>
      </trkpt>
      <trkpt lat="43.3294070" lon="-1.6018710">
        <ele>165.4</ele>
        <time>2020-07-30T08:05:50Z</time>
      </trkpt>
      <trkpt lat="43.3295800" lon="-1.6019040">
        <ele>164.4</ele>
        <time>2020-07-30T08:05:52Z</time>
      </trkpt>
      <trkpt lat="43.3296690" lon="-1.6019170">
        <ele>164.2</ele>
        <time>2020-07-30T08:05:53Z</time>
      </trkpt>
      <trkpt lat="43.3301720" lon="-1.6020500">
        <ele>165.2</ele>
        <time>2020-07-30T08:05:59Z</time>
      </trkpt>
      <trkpt lat="43.3304680" lon="-1.6021870">
        <ele>163.8</ele>
        <time>2020-07-30T08:06:03Z</time>
      </trkpt>
      <trkpt lat="43.3306860" lon="-1.6022830">
        <ele>163.0</ele>
        <time>2020-07-30T08:06:06Z</time>
      </trkpt>
      <trkpt lat="43.3308340" lon="-1.6023410">
        <ele>162.6</ele>
        <time>2020-07-30T08:06:08Z</time>
      </trkpt>
      <trkpt lat="43.3311340" lon="-1.6025240">
        <ele>161.2</ele>
        <time>2020-07-30T08:06:12Z</time>
      </trkpt>
      <trkpt lat="43.3313590" lon="-1.6027190">
        <ele>160.0</ele>
        <time>2020-07-30T08:06:15Z</time>
      </trkpt>
      <trkpt lat="43.3314220" lon="-1.6028190">
        <ele>159.8</ele>
        <time>2020-07-30T08:06:16Z</time>
      </trkpt>
      <trkpt lat="43.3314780" lon="-1.6029360">
        <ele>159.4</ele>
        <time>2020-07-30T08:06:17Z</time>
      </trkpt>
      <trkpt lat="43.3315210" lon="-1.6030830">
        <ele>159.0</ele>
        <time>2020-07-30T08:06:18Z</time>
      </trkpt>
      <trkpt lat="43.3315610" lon="-1.6032240">
        <ele>158.4</ele>
        <time>2020-07-30T08:06:19Z</time>
      </trkpt>
      <trkpt lat="43.3316030" lon="-1.6033480">
        <ele>157.6</ele>
        <time>2020-07-30T08:06:20Z</time>
      </trkpt>
      <trkpt lat="43.3316800" lon="-1.6036420">
        <ele>156.4</ele>
        <time>2020-07-30T08:06:22Z</time>
      </trkpt>
      <trkpt lat="43.3317720" lon="-1.6039190">
        <ele>155.4</ele>
        <time>2020-07-30T08:06:24Z</time>
      </trkpt>
      <trkpt lat="43.3318020" lon="-1.6040610">
        <ele>154.4</ele>
        <time>2020-07-30T08:06:25Z</time>
      </trkpt>
      <trkpt lat="43.3318480" lon="-1.6043580">
        <ele>153.0</ele>
        <time>2020-07-30T08:06:27Z</time>
      </trkpt>
      <trkpt lat="43.3319260" lon="-1.6046560">
        <ele>151.4</ele>
        <time>2020-07-30T08:06:29Z</time>
      </trkpt>
      <trkpt lat="43.3319990" lon="-1.6047780">
        <ele>150.4</ele>
        <time>2020-07-30T08:06:30Z</time>
      </trkpt>
      <trkpt lat="43.3320830" lon="-1.6048830">
        <ele>149.4</ele>
        <time>2020-07-30T08:06:31Z</time>
      </trkpt>
      <trkpt lat="43.3321780" lon="-1.6049520">
        <ele>148.4</ele>
        <time>2020-07-30T08:06:32Z</time>
      </trkpt>
      <trkpt lat="43.3322790" lon="-1.6049980">
        <ele>147.6</ele>
        <time>2020-07-30T08:06:33Z</time>
      </trkpt>
      <trkpt lat="43.3324530" lon="-1.6051180">
        <ele>146.0</ele>
        <time>2020-07-30T08:06:35Z</time>
      </trkpt>
      <trkpt lat="43.3325100" lon="-1.6052030">
        <ele>145.4</ele>
        <time>2020-07-30T08:06:36Z</time>
      </trkpt>
      <trkpt lat="43.3325190" lon="-1.6053330">
        <ele>145.0</ele>
        <time>2020-07-30T08:06:37Z</time>
      </trkpt>
      <trkpt lat="43.3325200" lon="-1.6054660">
        <ele>144.6</ele>
        <time>2020-07-30T08:06:38Z</time>
      </trkpt>
      <trkpt lat="43.3325230" lon="-1.6057410">
        <ele>143.8</ele>
        <time>2020-07-30T08:06:40Z</time>
      </trkpt>
      <trkpt lat="43.3325330" lon="-1.6058850">
        <ele>142.8</ele>
        <time>2020-07-30T08:06:41Z</time>
      </trkpt>
      <trkpt lat="43.3325550" lon="-1.6060290">
        <ele>142.0</ele>
        <time>2020-07-30T08:06:42Z</time>
      </trkpt>
      <trkpt lat="43.3325960" lon="-1.6061680">
        <ele>141.0</ele>
        <time>2020-07-30T08:06:43Z</time>
      </trkpt>
      <trkpt lat="43.3326470" lon="-1.6063020">
        <ele>140.0</ele>
        <time>2020-07-30T08:06:44Z</time>
      </trkpt>
      <trkpt lat="43.3327070" lon="-1.6064270">
        <ele>138.8</ele>
        <time>2020-07-30T08:06:45Z</time>
      </trkpt>
      <trkpt lat="43.3328430" lon="-1.6066670">
        <ele>137.4</ele>
        <time>2020-07-30T08:06:47Z</time>
      </trkpt>
      <trkpt lat="43.3330720" lon="-1.6070120">
        <ele>135.4</ele>
        <time>2020-07-30T08:06:50Z</time>
      </trkpt>
      <trkpt lat="43.3331550" lon="-1.6071250">
        <ele>134.4</ele>
        <time>2020-07-30T08:06:51Z</time>
      </trkpt>
      <trkpt lat="43.3332460" lon="-1.6072300">
        <ele>133.8</ele>
        <time>2020-07-30T08:06:52Z</time>
      </trkpt>
      <trkpt lat="43.3333430" lon="-1.6073140">
        <ele>133.2</ele>
        <time>2020-07-30T08:06:53Z</time>
      </trkpt>
      <trkpt lat="43.3334390" lon="-1.6073930">
        <ele>132.8</ele>
        <time>2020-07-30T08:06:54Z</time>
      </trkpt>
      <trkpt lat="43.3335140" lon="-1.6074980">
        <ele>132.2</ele>
        <time>2020-07-30T08:06:55Z</time>
      </trkpt>
      <trkpt lat="43.3335730" lon="-1.6076210">
        <ele>131.6</ele>
        <time>2020-07-30T08:06:56Z</time>
      </trkpt>
      <trkpt lat="43.3336150" lon="-1.6077620">
        <ele>131.2</ele>
        <time>2020-07-30T08:06:57Z</time>
      </trkpt>
      <trkpt lat="43.3337590" lon="-1.6081860">
        <ele>129.8</ele>
        <time>2020-07-30T08:07:00Z</time>
      </trkpt>
      <trkpt lat="43.3338330" lon="-1.6083050">
        <ele>129.0</ele>
        <time>2020-07-30T08:07:01Z</time>
      </trkpt>
      <trkpt lat="43.3339270" lon="-1.6084000">
        <ele>128.2</ele>
        <time>2020-07-30T08:07:02Z</time>
      </trkpt>
      <trkpt lat="43.3340220" lon="-1.6084640">
        <ele>127.6</ele>
        <time>2020-07-30T08:07:03Z</time>
      </trkpt>
      <trkpt lat="43.3341250" lon="-1.6084690">
        <ele>126.8</ele>
        <time>2020-07-30T08:07:04Z</time>
      </trkpt>
      <trkpt lat="43.3342200" lon="-1.6084470">
        <ele>126.0</ele>
        <time>2020-07-30T08:07:05Z</time>
      </trkpt>
      <trkpt lat="43.3343080" lon="-1.6084230">
        <ele>125.4</ele>
        <time>2020-07-30T08:07:06Z</time>
      </trkpt>
      <trkpt lat="43.3343900" lon="-1.6084260">
        <ele>125.0</ele>
        <time>2020-07-30T08:07:07Z</time>
      </trkpt>
      <trkpt lat="43.3344590" lon="-1.6084700">
        <ele>124.6</ele>
        <time>2020-07-30T08:07:08Z</time>
      </trkpt>
      <trkpt lat="43.3344980" lon="-1.6085510">
        <ele>124.2</ele>
        <time>2020-07-30T08:07:09Z</time>
      </trkpt>
      <trkpt lat="43.3345180" lon="-1.6086500">
        <ele>123.6</ele>
        <time>2020-07-30T08:07:10Z</time>
      </trkpt>
      <trkpt lat="43.3345180" lon="-1.6087590">
        <ele>123.0</ele>
        <time>2020-07-30T08:07:11Z</time>
      </trkpt>
      <trkpt lat="43.3344680" lon="-1.6090020">
        <ele>122.2</ele>
        <time>2020-07-30T08:07:13Z</time>
      </trkpt>
      <trkpt lat="43.3344490" lon="-1.6091240">
        <ele>121.8</ele>
        <time>2020-07-30T08:07:14Z</time>
      </trkpt>
      <trkpt lat="43.3344410" lon="-1.6092430">
        <ele>121.4</ele>
        <time>2020-07-30T08:07:15Z</time>
      </trkpt>
      <trkpt lat="43.3344530" lon="-1.6093580">
        <ele>120.8</ele>
        <time>2020-07-30T08:07:16Z</time>
      </trkpt>
      <trkpt lat="43.3344890" lon="-1.6094670">
        <ele>120.0</ele>
        <time>2020-07-30T08:07:17Z</time>
      </trkpt>
      <trkpt lat="43.3345360" lon="-1.6095630">
        <ele>119.4</ele>
        <time>2020-07-30T08:07:18Z</time>
      </trkpt>
      <trkpt lat="43.3345950" lon="-1.6096470">
        <ele>119.0</ele>
        <time>2020-07-30T08:07:19Z</time>
      </trkpt>
      <trkpt lat="43.3346410" lon="-1.6097450">
        <ele>118.4</ele>
        <time>2020-07-30T08:07:20Z</time>
      </trkpt>
      <trkpt lat="43.3346550" lon="-1.6098520">
        <ele>118.0</ele>
        <time>2020-07-30T08:07:21Z</time>
      </trkpt>
      <trkpt lat="43.3346340" lon="-1.6099590">
        <ele>117.6</ele>
        <time>2020-07-30T08:07:22Z</time>
      </trkpt>
      <trkpt lat="43.3345910" lon="-1.6100620">
        <ele>117.0</ele>
        <time>2020-07-30T08:07:23Z</time>
      </trkpt>
      <trkpt lat="43.3345050" lon="-1.6101210">
        <ele>116.4</ele>
        <time>2020-07-30T08:07:24Z</time>
      </trkpt>
      <trkpt lat="43.3344340" lon="-1.6102040">
        <ele>115.8</ele>
        <time>2020-07-30T08:07:25Z</time>
      </trkpt>
      <trkpt lat="43.3343500" lon="-1.6104410">
        <ele>114.2</ele>
        <time>2020-07-30T08:07:27Z</time>
      </trkpt>
      <trkpt lat="43.3343190" lon="-1.6107240">
        <ele>112.6</ele>
        <time>2020-07-30T08:07:29Z</time>
      </trkpt>
      <trkpt lat="43.3342760" lon="-1.6110050">
        <ele>111.0</ele>
        <time>2020-07-30T08:07:31Z</time>
      </trkpt>
      <trkpt lat="43.3342440" lon="-1.6112940">
        <ele>109.8</ele>
        <time>2020-07-30T08:07:33Z</time>
      </trkpt>
      <trkpt lat="43.3342520" lon="-1.6115900">
        <ele>108.4</ele>
        <time>2020-07-30T08:07:35Z</time>
      </trkpt>
      <trkpt lat="43.3342700" lon="-1.6117460">
        <ele>107.8</ele>
        <time>2020-07-30T08:07:36Z</time>
      </trkpt>
      <trkpt lat="43.3343050" lon="-1.6118860">
        <ele>106.8</ele>
        <time>2020-07-30T08:07:37Z</time>
      </trkpt>
      <trkpt lat="43.3343530" lon="-1.6120140">
        <ele>106.2</ele>
        <time>2020-07-30T08:07:38Z</time>
      </trkpt>
      <trkpt lat="43.3344150" lon="-1.6121200">
        <ele>105.6</ele>
        <time>2020-07-30T08:07:39Z</time>
      </trkpt>
      <trkpt lat="43.3345000" lon="-1.6121750">
        <ele>105.0</ele>
        <time>2020-07-30T08:07:40Z</time>
      </trkpt>
      <trkpt lat="43.3346740" lon="-1.6122370">
        <ele>104.2</ele>
        <time>2020-07-30T08:07:42Z</time>
      </trkpt>
      <trkpt lat="43.3347560" lon="-1.6122820">
        <ele>103.6</ele>
        <time>2020-07-30T08:07:43Z</time>
      </trkpt>
      <trkpt lat="43.3348230" lon="-1.6123600">
        <ele>103.0</ele>
        <time>2020-07-30T08:07:44Z</time>
      </trkpt>
      <trkpt lat="43.3348740" lon="-1.6124590">
        <ele>102.2</ele>
        <time>2020-07-30T08:07:45Z</time>
      </trkpt>
      <trkpt lat="43.3349250" lon="-1.6125650">
        <ele>101.6</ele>
        <time>2020-07-30T08:07:46Z</time>
      </trkpt>
      <trkpt lat="43.3350500" lon="-1.6127740">
        <ele>101.0</ele>
        <time>2020-07-30T08:07:48Z</time>
      </trkpt>
      <trkpt lat="43.3351320" lon="-1.6128550">
        <ele>100.6</ele>
        <time>2020-07-30T08:07:49Z</time>
      </trkpt>
      <trkpt lat="43.3353070" lon="-1.6130010">
        <ele>99.4</ele>
        <time>2020-07-30T08:07:51Z</time>
      </trkpt>
      <trkpt lat="43.3353780" lon="-1.6131010">
        <ele>99.0</ele>
        <time>2020-07-30T08:07:52Z</time>
      </trkpt>
      <trkpt lat="43.3354220" lon="-1.6132280">
        <ele>98.6</ele>
        <time>2020-07-30T08:07:53Z</time>
      </trkpt>
      <trkpt lat="43.3354370" lon="-1.6133620">
        <ele>98.2</ele>
        <time>2020-07-30T08:07:54Z</time>
      </trkpt>
      <trkpt lat="43.3354440" lon="-1.6135050">
        <ele>97.6</ele>
        <time>2020-07-30T08:07:55Z</time>
      </trkpt>
      <trkpt lat="43.3354660" lon="-1.6136490">
        <ele>97.0</ele>
        <time>2020-07-30T08:07:56Z</time>
      </trkpt>
      <trkpt lat="43.3355770" lon="-1.6139080">
        <ele>96.2</ele>
        <time>2020-07-30T08:07:58Z</time>
      </trkpt>
      <trkpt lat="43.3356550" lon="-1.6140160">
        <ele>95.0</ele>
        <time>2020-07-30T08:07:59Z</time>
      </trkpt>
      <trkpt lat="43.3357390" lon="-1.6141180">
        <ele>93.8</ele>
        <time>2020-07-30T08:08:00Z</time>
      </trkpt>
      <trkpt lat="43.3358140" lon="-1.6142370">
        <ele>93.0</ele>
        <time>2020-07-30T08:08:01Z</time>
      </trkpt>
      <trkpt lat="43.3358870" lon="-1.6143580">
        <ele>92.4</ele>
        <time>2020-07-30T08:08:02Z</time>
      </trkpt>
      <trkpt lat="43.3360490" lon="-1.6145980">
        <ele>91.4</ele>
        <time>2020-07-30T08:08:04Z</time>
      </trkpt>
      <trkpt lat="43.3361520" lon="-1.6146970">
        <ele>90.8</ele>
        <time>2020-07-30T08:08:05Z</time>
      </trkpt>
      <trkpt lat="43.3362590" lon="-1.6147790">
        <ele>90.2</ele>
        <time>2020-07-30T08:08:06Z</time>
      </trkpt>
      <trkpt lat="43.3363720" lon="-1.6148420">
        <ele>89.2</ele>
        <time>2020-07-30T08:08:07Z</time>
      </trkpt>
      <trkpt lat="43.3364900" lon="-1.6148940">
        <ele>88.0</ele>
        <time>2020-07-30T08:08:08Z</time>
      </trkpt>
      <trkpt lat="43.3366070" lon="-1.6149550">
        <ele>86.8</ele>
        <time>2020-07-30T08:08:09Z</time>
      </trkpt>
      <trkpt lat="43.3367110" lon="-1.6150490">
        <ele>86.0</ele>
        <time>2020-07-30T08:08:10Z</time>
      </trkpt>
      <trkpt lat="43.3368020" lon="-1.6151660">
        <ele>85.0</ele>
        <time>2020-07-30T08:08:11Z</time>
      </trkpt>
      <trkpt lat="43.3369010" lon="-1.6152600">
        <ele>84.4</ele>
        <time>2020-07-30T08:08:12Z</time>
      </trkpt>
      <trkpt lat="43.3370110" lon="-1.6153300">
        <ele>84.0</ele>
        <time>2020-07-30T08:08:13Z</time>
      </trkpt>
      <trkpt lat="43.3371290" lon="-1.6153850">
        <ele>83.2</ele>
        <time>2020-07-30T08:08:14Z</time>
      </trkpt>
      <trkpt lat="43.3372500" lon="-1.6154340">
        <ele>82.4</ele>
        <time>2020-07-30T08:08:15Z</time>
      </trkpt>
      <trkpt lat="43.3375050" lon="-1.6155040">
        <ele>81.2</ele>
        <time>2020-07-30T08:08:17Z</time>
      </trkpt>
      <trkpt lat="43.3376360" lon="-1.6155390">
        <ele>80.4</ele>
        <time>2020-07-30T08:08:18Z</time>
      </trkpt>
      <trkpt lat="43.3377690" lon="-1.6155770">
        <ele>79.0</ele>
        <time>2020-07-30T08:08:19Z</time>
      </trkpt>
      <trkpt lat="43.3378990" lon="-1.6156090">
        <ele>78.0</ele>
        <time>2020-07-30T08:08:20Z</time>
      </trkpt>
      <trkpt lat="43.3380200" lon="-1.6156370">
        <ele>77.0</ele>
        <time>2020-07-30T08:08:21Z</time>
      </trkpt>
      <trkpt lat="43.3381430" lon="-1.6156320">
        <ele>76.0</ele>
        <time>2020-07-30T08:08:22Z</time>
      </trkpt>
      <trkpt lat="43.3383890" lon="-1.6156020">
        <ele>74.2</ele>
        <time>2020-07-30T08:08:24Z</time>
      </trkpt>
      <trkpt lat="43.3385170" lon="-1.6156030">
        <ele>73.2</ele>
        <time>2020-07-30T08:08:25Z</time>
      </trkpt>
      <trkpt lat="43.3386480" lon="-1.6156060">
        <ele>72.0</ele>
        <time>2020-07-30T08:08:26Z</time>
      </trkpt>
      <trkpt lat="43.3387800" lon="-1.6155940">
        <ele>70.6</ele>
        <time>2020-07-30T08:08:27Z</time>
      </trkpt>
      <trkpt lat="43.3389110" lon="-1.6155710">
        <ele>69.6</ele>
        <time>2020-07-30T08:08:28Z</time>
      </trkpt>
      <trkpt lat="43.3390440" lon="-1.6155510">
        <ele>68.4</ele>
        <time>2020-07-30T08:08:29Z</time>
      </trkpt>
      <trkpt lat="43.3391770" lon="-1.6155380">
        <ele>67.0</ele>
        <time>2020-07-30T08:08:30Z</time>
      </trkpt>
      <trkpt lat="43.3393110" lon="-1.6155210">
        <ele>65.8</ele>
        <time>2020-07-30T08:08:31Z</time>
      </trkpt>
      <trkpt lat="43.3395800" lon="-1.6154770">
        <ele>64.0</ele>
        <time>2020-07-30T08:08:33Z</time>
      </trkpt>
      <trkpt lat="43.3397140" lon="-1.6154720">
        <ele>62.8</ele>
        <time>2020-07-30T08:08:34Z</time>
      </trkpt>
      <trkpt lat="43.3398480" lon="-1.6154870">
        <ele>61.8</ele>
        <time>2020-07-30T08:08:35Z</time>
      </trkpt>
      <trkpt lat="43.3401040" lon="-1.6155380">
        <ele>60.2</ele>
        <time>2020-07-30T08:08:37Z</time>
      </trkpt>
      <trkpt lat="43.3402260" lon="-1.6155780">
        <ele>59.0</ele>
        <time>2020-07-30T08:08:38Z</time>
      </trkpt>
      <trkpt lat="43.3403440" lon="-1.6156440">
        <ele>58.0</ele>
        <time>2020-07-30T08:08:39Z</time>
      </trkpt>
      <trkpt lat="43.3405650" lon="-1.6158310">
        <ele>56.6</ele>
        <time>2020-07-30T08:08:41Z</time>
      </trkpt>
      <trkpt lat="43.3407710" lon="-1.6160340">
        <ele>54.6</ele>
        <time>2020-07-30T08:08:43Z</time>
      </trkpt>
      <trkpt lat="43.3408760" lon="-1.6161030">
        <ele>53.8</ele>
        <time>2020-07-30T08:08:44Z</time>
      </trkpt>
      <trkpt lat="43.3409880" lon="-1.6161370">
        <ele>53.2</ele>
        <time>2020-07-30T08:08:45Z</time>
      </trkpt>
      <trkpt lat="43.3411040" lon="-1.6161360">
        <ele>52.6</ele>
        <time>2020-07-30T08:08:46Z</time>
      </trkpt>
      <trkpt lat="43.3412200" lon="-1.6161100">
        <ele>52.0</ele>
        <time>2020-07-30T08:08:47Z</time>
      </trkpt>
      <trkpt lat="43.3413370" lon="-1.6160760">
        <ele>50.8</ele>
        <time>2020-07-30T08:08:48Z</time>
      </trkpt>
      <trkpt lat="43.3414550" lon="-1.6160520">
        <ele>49.4</ele>
        <time>2020-07-30T08:08:49Z</time>
      </trkpt>
      <trkpt lat="43.3416960" lon="-1.6160330">
        <ele>47.8</ele>
        <time>2020-07-30T08:08:51Z</time>
      </trkpt>
      <trkpt lat="43.3419520" lon="-1.6160430">
        <ele>45.8</ele>
        <time>2020-07-30T08:08:53Z</time>
      </trkpt>
      <trkpt lat="43.3422080" lon="-1.6160930">
        <ele>44.6</ele>
        <time>2020-07-30T08:08:55Z</time>
      </trkpt>
      <trkpt lat="43.3424430" lon="-1.6162350">
        <ele>43.0</ele>
        <time>2020-07-30T08:08:57Z</time>
      </trkpt>
      <trkpt lat="43.3425720" lon="-1.6162550">
        <ele>42.4</ele>
        <time>2020-07-30T08:08:58Z</time>
      </trkpt>
      <trkpt lat="43.3427070" lon="-1.6162570">
        <ele>41.2</ele>
        <time>2020-07-30T08:08:59Z</time>
      </trkpt>
      <trkpt lat="43.3428420" lon="-1.6162490">
        <ele>40.0</ele>
        <time>2020-07-30T08:09:00Z</time>
      </trkpt>
      <trkpt lat="43.3429760" lon="-1.6162370">
        <ele>38.8</ele>
        <time>2020-07-30T08:09:01Z</time>
      </trkpt>
      <trkpt lat="43.3432280" lon="-1.6162360">
        <ele>37.4</ele>
        <time>2020-07-30T08:09:03Z</time>
      </trkpt>
      <trkpt lat="43.3434620" lon="-1.6162640">
        <ele>35.8</ele>
        <time>2020-07-30T08:09:05Z</time>
      </trkpt>
      <trkpt lat="43.3436630" lon="-1.6163440">
        <ele>34.0</ele>
        <time>2020-07-30T08:09:07Z</time>
      </trkpt>
      <trkpt lat="43.3437500" lon="-1.6164250">
        <ele>33.0</ele>
        <time>2020-07-30T08:09:08Z</time>
      </trkpt>
      <trkpt lat="43.3438210" lon="-1.6165500">
        <ele>32.4</ele>
        <time>2020-07-30T08:09:09Z</time>
      </trkpt>
      <trkpt lat="43.3438980" lon="-1.6168430">
        <ele>30.8</ele>
        <time>2020-07-30T08:09:11Z</time>
      </trkpt>
      <trkpt lat="43.3438920" lon="-1.6171310">
        <ele>30.0</ele>
        <time>2020-07-30T08:09:13Z</time>
      </trkpt>
      <trkpt lat="43.3438830" lon="-1.6172690">
        <ele>29.8</ele>
        <time>2020-07-30T08:09:14Z</time>
      </trkpt>
      <trkpt lat="43.3438680" lon="-1.6175560">
        <ele>30.2</ele>
        <time>2020-07-30T08:09:16Z</time>
      </trkpt>
      <trkpt lat="43.3438630" lon="-1.6178000">
        <ele>30.6</ele>
        <time>2020-07-30T08:09:18Z</time>
      </trkpt>
      <trkpt lat="43.3438560" lon="-1.6180290">
        <ele>31.0</ele>
        <time>2020-07-30T08:09:20Z</time>
      </trkpt>
      <trkpt lat="43.3438500" lon="-1.6183390">
        <ele>32.0</ele>
        <time>2020-07-30T08:09:23Z</time>
      </trkpt>
      <trkpt lat="43.3438470" lon="-1.6186220">
        <ele>32.6</ele>
        <time>2020-07-30T08:09:26Z</time>
      </trkpt>
      <trkpt lat="43.3438470" lon="-1.6188780">
        <ele>33.0</ele>
        <time>2020-07-30T08:09:29Z</time>
      </trkpt>
      <trkpt lat="43.3438470" lon="-1.6190370">
        <ele>33.8</ele>
        <time>2020-07-30T08:09:31Z</time>
      </trkpt>
      <trkpt lat="43.3438560" lon="-1.6191150">
        <ele>34.2</ele>
        <time>2020-07-30T08:09:32Z</time>
      </trkpt>
      <trkpt lat="43.3439110" lon="-1.6194170">
        <ele>35.0</ele>
        <time>2020-07-30T08:09:36Z</time>
      </trkpt>
      <trkpt lat="43.3439470" lon="-1.6195580">
        <ele>35.2</ele>
        <time>2020-07-30T08:09:38Z</time>
      </trkpt>
      <trkpt lat="43.3439690" lon="-1.6196220">
        <ele>35.2</ele>
        <time>2020-07-30T08:09:39Z</time>
      </trkpt>
      <trkpt lat="43.3439950" lon="-1.6196770">
        <ele>35.2</ele>
        <time>2020-07-30T08:09:40Z</time>
      </trkpt>
      <trkpt lat="43.3440190" lon="-1.6197210">
        <ele>35.2</ele>
        <time>2020-07-30T08:09:41Z</time>
      </trkpt>
      <trkpt lat="43.3442360" lon="-1.6200710">
        <ele>34.4</ele>
        <time>2020-07-30T08:10:30Z</time>
      </trkpt>
      <trkpt lat="43.3442490" lon="-1.6200930">
        <ele>34.6</ele>
        <time>2020-07-30T08:10:31Z</time>
      </trkpt>
      <trkpt lat="43.3442740" lon="-1.6201380">
        <ele>34.6</ele>
        <time>2020-07-30T08:10:32Z</time>
      </trkpt>
      <trkpt lat="43.3443880" lon="-1.6203160">
        <ele>34.6</ele>
        <time>2020-07-30T08:10:36Z</time>
      </trkpt>
      <trkpt lat="43.3444710" lon="-1.6204290">
        <ele>34.6</ele>
        <time>2020-07-30T08:10:39Z</time>
      </trkpt>
      <trkpt lat="43.3445950" lon="-1.6205840">
        <ele>35.0</ele>
        <time>2020-07-30T08:10:43Z</time>
      </trkpt>
      <trkpt lat="43.3446440" lon="-1.6206990">
        <ele>35.0</ele>
        <time>2020-07-30T08:10:45Z</time>
      </trkpt>
      <trkpt lat="43.3446900" lon="-1.6208300">
        <ele>35.0</ele>
        <time>2020-07-30T08:10:47Z</time>
      </trkpt>
      <trkpt lat="43.3447070" lon="-1.6209050">
        <ele>34.8</ele>
        <time>2020-07-30T08:10:48Z</time>
      </trkpt>
      <trkpt lat="43.3447270" lon="-1.6210440">
        <ele>34.6</ele>
        <time>2020-07-30T08:10:50Z</time>
      </trkpt>
      <trkpt lat="43.3447400" lon="-1.6211720">
        <ele>34.6</ele>
        <time>2020-07-30T08:10:52Z</time>
      </trkpt>
      <trkpt lat="43.3447540" lon="-1.6212850">
        <ele>34.8</ele>
        <time>2020-07-30T08:10:54Z</time>
      </trkpt>
      <trkpt lat="43.3447640" lon="-1.6214570">
        <ele>34.8</ele>
        <time>2020-07-30T08:10:57Z</time>
      </trkpt>
      <trkpt lat="43.3447540" lon="-1.6215750">
        <ele>34.6</ele>
        <time>2020-07-30T08:10:59Z</time>
      </trkpt>
      <trkpt lat="43.3447330" lon="-1.6217040">
        <ele>34.0</ele>
        <time>2020-07-30T08:11:01Z</time>
      </trkpt>
      <trkpt lat="43.3446880" lon="-1.6218440">
        <ele>33.6</ele>
        <time>2020-07-30T08:11:03Z</time>
      </trkpt>
      <trkpt lat="43.3446440" lon="-1.6219840">
        <ele>33.0</ele>
        <time>2020-07-30T08:11:05Z</time>
      </trkpt>
      <trkpt lat="43.3446320" lon="-1.6220530">
        <ele>32.8</ele>
        <time>2020-07-30T08:11:06Z</time>
      </trkpt>
      <trkpt lat="43.3445990" lon="-1.6222580">
        <ele>32.4</ele>
        <time>2020-07-30T08:11:09Z</time>
      </trkpt>
      <trkpt lat="43.3445310" lon="-1.6225300">
        <ele>32.0</ele>
        <time>2020-07-30T08:11:13Z</time>
      </trkpt>
      <trkpt lat="43.3444980" lon="-1.6226610">
        <ele>31.6</ele>
        <time>2020-07-30T08:11:15Z</time>
      </trkpt>
      <trkpt lat="43.3444750" lon="-1.6227780">
        <ele>31.4</ele>
        <time>2020-07-30T08:11:17Z</time>
      </trkpt>
      <trkpt lat="43.3444520" lon="-1.6229230">
        <ele>31.2</ele>
        <time>2020-07-30T08:11:20Z</time>
      </trkpt>
      <trkpt lat="43.3444760" lon="-1.6230060">
        <ele>31.2</ele>
        <time>2020-07-30T08:11:22Z</time>
      </trkpt>
      <trkpt lat="43.3445110" lon="-1.6230320">
        <ele>31.2</ele>
        <time>2020-07-30T08:11:23Z</time>
      </trkpt>
      <trkpt lat="43.3445590" lon="-1.6230490">
        <ele>31.2</ele>
        <time>2020-07-30T08:11:24Z</time>
      </trkpt>
      <trkpt lat="43.3446650" lon="-1.6230630">
        <ele>31.0</ele>
        <time>2020-07-30T08:11:26Z</time>
      </trkpt>
      <trkpt lat="43.3447230" lon="-1.6230640">
        <ele>30.8</ele>
        <time>2020-07-30T08:11:27Z</time>
      </trkpt>
      <trkpt lat="43.3450440" lon="-1.6230670">
        <ele>29.6</ele>
        <time>2020-07-30T08:11:32Z</time>
      </trkpt>
      <trkpt lat="43.3451120" lon="-1.6230700">
        <ele>29.4</ele>
        <time>2020-07-30T08:11:33Z</time>
      </trkpt>
      <trkpt lat="43.3451800" lon="-1.6230690">
        <ele>29.0</ele>
        <time>2020-07-30T08:11:34Z</time>
      </trkpt>
      <trkpt lat="43.3453120" lon="-1.6230680">
        <ele>28.6</ele>
        <time>2020-07-30T08:11:36Z</time>
      </trkpt>
      <trkpt lat="43.3454540" lon="-1.6230660">
        <ele>27.8</ele>
        <time>2020-07-30T08:11:38Z</time>
      </trkpt>
      <trkpt lat="43.3455290" lon="-1.6230690">
        <ele>27.2</ele>
        <time>2020-07-30T08:11:39Z</time>
      </trkpt>
      <trkpt lat="43.3456060" lon="-1.6230740">
        <ele>26.8</ele>
        <time>2020-07-30T08:11:40Z</time>
      </trkpt>
      <trkpt lat="43.3457620" lon="-1.6231050">
        <ele>25.8</ele>
        <time>2020-07-30T08:11:42Z</time>
      </trkpt>
      <trkpt lat="43.3459140" lon="-1.6231580">
        <ele>25.2</ele>
        <time>2020-07-30T08:11:44Z</time>
      </trkpt>
      <trkpt lat="43.3460420" lon="-1.6232140">
        <ele>24.6</ele>
        <time>2020-07-30T08:11:46Z</time>
      </trkpt>
      <trkpt lat="43.3461440" lon="-1.6232640">
        <ele>24.4</ele>
        <time>2020-07-30T08:11:48Z</time>
      </trkpt>
      <trkpt lat="43.3464740" lon="-1.6234340">
        <ele>23.8</ele>
        <time>2020-07-30T08:11:54Z</time>
      </trkpt>
      <trkpt lat="43.3465360" lon="-1.6234720">
        <ele>23.2</ele>
        <time>2020-07-30T08:11:55Z</time>
      </trkpt>
      <trkpt lat="43.3467320" lon="-1.6236060">
        <ele>21.6</ele>
        <time>2020-07-30T08:11:58Z</time>
      </trkpt>
      <trkpt lat="43.3468600" lon="-1.6237300">
        <ele>21.2</ele>
        <time>2020-07-30T08:12:00Z</time>
      </trkpt>
      <trkpt lat="43.3470440" lon="-1.6239310">
        <ele>20.6</ele>
        <time>2020-07-30T08:12:03Z</time>
      </trkpt>
      <trkpt lat="43.3473460" lon="-1.6242580">
        <ele>19.4</ele>
        <time>2020-07-30T08:12:08Z</time>
      </trkpt>
      <trkpt lat="43.3474060" lon="-1.6243230">
        <ele>19.0</ele>
        <time>2020-07-30T08:12:09Z</time>
      </trkpt>
      <trkpt lat="43.3475750" lon="-1.6245040">
        <ele>18.2</ele>
        <time>2020-07-30T08:12:12Z</time>
      </trkpt>
      <trkpt lat="43.3476880" lon="-1.6246200">
        <ele>18.0</ele>
        <time>2020-07-30T08:12:14Z</time>
      </trkpt>
      <trkpt lat="43.3477430" lon="-1.6246790">
        <ele>17.8</ele>
        <time>2020-07-30T08:12:15Z</time>
      </trkpt>
      <trkpt lat="43.3477990" lon="-1.6247380">
        <ele>17.6</ele>
        <time>2020-07-30T08:12:16Z</time>
      </trkpt>
      <trkpt lat="43.3478520" lon="-1.6248050">
        <ele>17.2</ele>
        <time>2020-07-30T08:12:17Z</time>
      </trkpt>
      <trkpt lat="43.3480590" lon="-1.6250640">
        <ele>16.6</ele>
        <time>2020-07-30T08:12:21Z</time>
      </trkpt>
      <trkpt lat="43.3481550" lon="-1.6251870">
        <ele>16.6</ele>
        <time>2020-07-30T08:12:23Z</time>
      </trkpt>
      <trkpt lat="43.3483490" lon="-1.6253950">
        <ele>16.8</ele>
        <time>2020-07-30T08:12:27Z</time>
      </trkpt>
      <trkpt lat="43.3484540" lon="-1.6254600">
        <ele>17.0</ele>
        <time>2020-07-30T08:12:29Z</time>
      </trkpt>
      <trkpt lat="43.3486990" lon="-1.6255390">
        <ele>17.2</ele>
        <time>2020-07-30T08:12:34Z</time>
      </trkpt>
      <trkpt lat="43.3487430" lon="-1.6255480">
        <ele>17.2</ele>
        <time>2020-07-30T08:12:35Z</time>
      </trkpt>
      <trkpt lat="43.3487840" lon="-1.6255450">
        <ele>17.2</ele>
        <time>2020-07-30T08:12:36Z</time>
      </trkpt>
      <trkpt lat="43.3488410" lon="-1.6255090">
        <ele>17.2</ele>
        <time>2020-07-30T08:12:38Z</time>
      </trkpt>
      <trkpt lat="43.3488610" lon="-1.6254830">
        <ele>17.2</ele>
        <time>2020-07-30T08:12:39Z</time>
      </trkpt>
      <trkpt lat="43.3488790" lon="-1.6254550">
        <ele>17.2</ele>
        <time>2020-07-30T08:12:40Z</time>
      </trkpt>
      <trkpt lat="43.3489600" lon="-1.6252990">
        <ele>17.6</ele>
        <time>2020-07-30T08:12:46Z</time>
      </trkpt>
      <trkpt lat="43.3489730" lon="-1.6252730">
        <ele>17.8</ele>
        <time>2020-07-30T08:12:47Z</time>
      </trkpt>
      <trkpt lat="43.3490950" lon="-1.6250990">
        <ele>17.8</ele>
        <time>2020-07-30T08:12:53Z</time>
      </trkpt>
      <trkpt lat="43.3491230" lon="-1.6250910">
        <ele>17.8</ele>
        <time>2020-07-30T08:12:54Z</time>
      </trkpt>
      <trkpt lat="43.3492210" lon="-1.6251140">
        <ele>17.6</ele>
        <time>2020-07-30T08:12:57Z</time>
      </trkpt>
      <trkpt lat="43.3494340" lon="-1.6251430">
        <ele>17.4</ele>
        <time>2020-07-30T08:13:02Z</time>
      </trkpt>
      <trkpt lat="43.3494770" lon="-1.6251570">
        <ele>17.4</ele>
        <time>2020-07-30T08:13:03Z</time>
      </trkpt>
      <trkpt lat="43.3496130" lon="-1.6251860">
        <ele>17.2</ele>
        <time>2020-07-30T08:13:06Z</time>
      </trkpt>
      <trkpt lat="43.3498170" lon="-1.6252160">
        <ele>17.0</ele>
        <time>2020-07-30T08:13:10Z</time>
      </trkpt>
      <trkpt lat="43.3498690" lon="-1.6252250">
        <ele>16.8</ele>
        <time>2020-07-30T08:13:11Z</time>
      </trkpt>
      <trkpt lat="43.3500800" lon="-1.6252530">
        <ele>17.4</ele>
        <time>2020-07-30T08:13:15Z</time>
      </trkpt>
      <trkpt lat="43.3501900" lon="-1.6252610">
        <ele>17.4</ele>
        <time>2020-07-30T08:13:17Z</time>
      </trkpt>
      <trkpt lat="43.3502990" lon="-1.6252720">
        <ele>17.6</ele>
        <time>2020-07-30T08:13:19Z</time>
      </trkpt>
      <trkpt lat="43.3503510" lon="-1.6252780">
        <ele>17.6</ele>
        <time>2020-07-30T08:13:20Z</time>
      </trkpt>
      <trkpt lat="43.3504850" lon="-1.6252920">
        <ele>18.0</ele>
        <time>2020-07-30T08:13:24Z</time>
      </trkpt>
      <trkpt lat="43.3505260" lon="-1.6252910">
        <ele>18.2</ele>
        <time>2020-07-30T08:13:26Z</time>
      </trkpt>
      <trkpt lat="43.3505870" lon="-1.6252890">
        <ele>18.6</ele>
        <time>2020-07-30T08:13:30Z</time>
      </trkpt>
      <trkpt lat="43.3506510" lon="-1.6252990">
        <ele>18.6</ele>
        <time>2020-07-30T08:13:34Z</time>
      </trkpt>
      <trkpt lat="43.3507110" lon="-1.6252860">
        <ele>18.6</ele>
        <time>2020-07-30T08:13:36Z</time>
      </trkpt>
      <trkpt lat="43.3509590" lon="-1.6252390">
        <ele>18.4</ele>
        <time>2020-07-30T08:13:42Z</time>
      </trkpt>
      <trkpt lat="43.3510050" lon="-1.6252330">
        <ele>18.4</ele>
        <time>2020-07-30T08:13:43Z</time>
      </trkpt>
      <trkpt lat="43.3511430" lon="-1.6252320">
        <ele>18.6</ele>
        <time>2020-07-30T08:13:46Z</time>
      </trkpt>
      <trkpt lat="43.3512300" lon="-1.6252830">
        <ele>18.8</ele>
        <time>2020-07-30T08:13:48Z</time>
      </trkpt>
      <trkpt lat="43.3513050" lon="-1.6253840">
        <ele>18.8</ele>
        <time>2020-07-30T08:13:50Z</time>
      </trkpt>
      <trkpt lat="43.3513340" lon="-1.6254570">
        <ele>18.8</ele>
        <time>2020-07-30T08:13:51Z</time>
      </trkpt>
      <trkpt lat="43.3514430" lon="-1.6257810">
        <ele>18.6</ele>
        <time>2020-07-30T08:13:55Z</time>
      </trkpt>
      <trkpt lat="43.3515010" lon="-1.6259590">
        <ele>18.4</ele>
        <time>2020-07-30T08:13:57Z</time>
      </trkpt>
      <trkpt lat="43.3515300" lon="-1.6260460">
        <ele>18.2</ele>
        <time>2020-07-30T08:13:58Z</time>
      </trkpt>
      <trkpt lat="43.3517060" lon="-1.6265170">
        <ele>18.4</ele>
        <time>2020-07-30T08:14:04Z</time>
      </trkpt>
      <trkpt lat="43.3518890" lon="-1.6269970">
        <ele>18.6</ele>
        <time>2020-07-30T08:14:10Z</time>
      </trkpt>
      <trkpt lat="43.3519870" lon="-1.6272420">
        <ele>18.6</ele>
        <time>2020-07-30T08:14:13Z</time>
      </trkpt>
      <trkpt lat="43.3520200" lon="-1.6273250">
        <ele>18.4</ele>
        <time>2020-07-30T08:14:14Z</time>
      </trkpt>
      <trkpt lat="43.3522010" lon="-1.6278350">
        <ele>18.6</ele>
        <time>2020-07-30T08:14:20Z</time>
      </trkpt>
      <trkpt lat="43.3522590" lon="-1.6280070">
        <ele>18.4</ele>
        <time>2020-07-30T08:14:22Z</time>
      </trkpt>
      <trkpt lat="43.3524370" lon="-1.6285100">
        <ele>18.2</ele>
        <time>2020-07-30T08:14:28Z</time>
      </trkpt>
      <trkpt lat="43.3525450" lon="-1.6288420">
        <ele>17.8</ele>
        <time>2020-07-30T08:14:32Z</time>
      </trkpt>
      <trkpt lat="43.3527440" lon="-1.6293270">
        <ele>17.6</ele>
        <time>2020-07-30T08:14:38Z</time>
      </trkpt>
      <trkpt lat="43.3528200" lon="-1.6294900">
        <ele>17.8</ele>
        <time>2020-07-30T08:14:40Z</time>
      </trkpt>
      <trkpt lat="43.3530890" lon="-1.6299300">
        <ele>17.6</ele>
        <time>2020-07-30T08:14:46Z</time>
      </trkpt>
      <trkpt lat="43.3533080" lon="-1.6301620">
        <ele>17.4</ele>
        <time>2020-07-30T08:14:50Z</time>
      </trkpt>
      <trkpt lat="43.3534200" lon="-1.6302620">
        <ele>17.4</ele>
        <time>2020-07-30T08:14:52Z</time>
      </trkpt>
      <trkpt lat="43.3536660" lon="-1.6304430">
        <ele>17.2</ele>
        <time>2020-07-30T08:14:56Z</time>
      </trkpt>
      <trkpt lat="43.3538660" lon="-1.6305600">
        <ele>17.0</ele>
        <time>2020-07-30T08:14:59Z</time>
      </trkpt>
      <trkpt lat="43.3541420" lon="-1.6306950">
        <ele>17.0</ele>
        <time>2020-07-30T08:15:03Z</time>
      </trkpt>
      <trkpt lat="43.3542820" lon="-1.6307400">
        <ele>17.0</ele>
        <time>2020-07-30T08:15:05Z</time>
      </trkpt>
      <trkpt lat="43.3544860" lon="-1.6308360">
        <ele>17.0</ele>
        <time>2020-07-30T08:15:08Z</time>
      </trkpt>
      <trkpt lat="43.3548340" lon="-1.6309570">
        <ele>16.6</ele>
        <time>2020-07-30T08:15:13Z</time>
      </trkpt>
      <trkpt lat="43.3549640" lon="-1.6310300">
        <ele>16.6</ele>
        <time>2020-07-30T08:15:15Z</time>
      </trkpt>
      <trkpt lat="43.3553780" lon="-1.6311930">
        <ele>17.2</ele>
        <time>2020-07-30T08:15:21Z</time>
      </trkpt>
      <trkpt lat="43.3555170" lon="-1.6312370">
        <ele>17.0</ele>
        <time>2020-07-30T08:15:23Z</time>
      </trkpt>
      <trkpt lat="43.3557930" lon="-1.6313240">
        <ele>16.2</ele>
        <time>2020-07-30T08:15:27Z</time>
      </trkpt>
      <trkpt lat="43.3561970" lon="-1.6314350">
        <ele>16.8</ele>
        <time>2020-07-30T08:15:33Z</time>
      </trkpt>
      <trkpt lat="43.3563250" lon="-1.6314450">
        <ele>16.8</ele>
        <time>2020-07-30T08:15:35Z</time>
      </trkpt>
      <trkpt lat="43.3564510" lon="-1.6314130">
        <ele>16.8</ele>
        <time>2020-07-30T08:15:37Z</time>
      </trkpt>
      <trkpt lat="43.3565730" lon="-1.6313460">
        <ele>16.6</ele>
        <time>2020-07-30T08:15:39Z</time>
      </trkpt>
      <trkpt lat="43.3566970" lon="-1.6313420">
        <ele>16.4</ele>
        <time>2020-07-30T08:15:41Z</time>
      </trkpt>
      <trkpt lat="43.3567970" lon="-1.6314320">
        <ele>16.4</ele>
        <time>2020-07-30T08:15:43Z</time>
      </trkpt>
      <trkpt lat="43.3568450" lon="-1.6314930">
        <ele>16.4</ele>
        <time>2020-07-30T08:15:44Z</time>
      </trkpt>
      <trkpt lat="43.3568990" lon="-1.6315440">
        <ele>16.4</ele>
        <time>2020-07-30T08:15:45Z</time>
      </trkpt>
      <trkpt lat="43.3570200" lon="-1.6316190">
        <ele>16.6</ele>
        <time>2020-07-30T08:15:47Z</time>
      </trkpt>
      <trkpt lat="43.3570840" lon="-1.6316430">
        <ele>16.6</ele>
        <time>2020-07-30T08:15:48Z</time>
      </trkpt>
      <trkpt lat="43.3574830" lon="-1.6317740">
        <ele>17.0</ele>
        <time>2020-07-30T08:15:54Z</time>
      </trkpt>
      <trkpt lat="43.3575480" lon="-1.6318050">
        <ele>17.0</ele>
        <time>2020-07-30T08:15:55Z</time>
      </trkpt>
      <trkpt lat="43.3579250" lon="-1.6320410">
        <ele>16.6</ele>
        <time>2020-07-30T08:16:01Z</time>
      </trkpt>
      <trkpt lat="43.3579860" lon="-1.6320880">
        <ele>16.6</ele>
        <time>2020-07-30T08:16:02Z</time>
      </trkpt>
      <trkpt lat="43.3583320" lon="-1.6324050">
        <ele>16.8</ele>
        <time>2020-07-30T08:16:08Z</time>
      </trkpt>
      <trkpt lat="43.3583850" lon="-1.6324650">
        <ele>17.0</ele>
        <time>2020-07-30T08:16:09Z</time>
      </trkpt>
      <trkpt lat="43.3584390" lon="-1.6325210">
        <ele>17.0</ele>
        <time>2020-07-30T08:16:10Z</time>
      </trkpt>
      <trkpt lat="43.3586540" lon="-1.6327140">
        <ele>17.2</ele>
        <time>2020-07-30T08:16:14Z</time>
      </trkpt>
      <trkpt lat="43.3589120" lon="-1.6329410">
        <ele>17.2</ele>
        <time>2020-07-30T08:16:19Z</time>
      </trkpt>
      <trkpt lat="43.3591080" lon="-1.6331140">
        <ele>18.4</ele>
        <time>2020-07-30T08:16:23Z</time>
      </trkpt>
      <trkpt lat="43.3592940" lon="-1.6333140">
        <ele>18.8</ele>
        <time>2020-07-30T08:16:27Z</time>
      </trkpt>
      <trkpt lat="43.3595100" lon="-1.6336380">
        <ele>18.8</ele>
        <time>2020-07-30T08:16:32Z</time>
      </trkpt>
      <trkpt lat="43.3596060" lon="-1.6337900">
        <ele>18.6</ele>
        <time>2020-07-30T08:16:34Z</time>
      </trkpt>
      <trkpt lat="43.3598130" lon="-1.6341180">
        <ele>17.4</ele>
        <time>2020-07-30T08:16:38Z</time>
      </trkpt>
      <trkpt lat="43.3598690" lon="-1.6341970">
        <ele>17.0</ele>
        <time>2020-07-30T08:16:39Z</time>
      </trkpt>
      <trkpt lat="43.3600140" lon="-1.6344670">
        <ele>16.2</ele>
        <time>2020-07-30T08:16:42Z</time>
      </trkpt>
      <trkpt lat="43.3601340" lon="-1.6347510">
        <ele>15.8</ele>
        <time>2020-07-30T08:16:45Z</time>
      </trkpt>
      <trkpt lat="43.3603610" lon="-1.6352780">
        <ele>16.2</ele>
        <time>2020-07-30T08:16:51Z</time>
      </trkpt>
      <trkpt lat="43.3604050" lon="-1.6353550">
        <ele>16.4</ele>
        <time>2020-07-30T08:16:52Z</time>
      </trkpt>
      <trkpt lat="43.3607200" lon="-1.6357540">
        <ele>17.0</ele>
        <time>2020-07-30T08:16:58Z</time>
      </trkpt>
      <trkpt lat="43.3610980" lon="-1.6360270">
        <ele>16.8</ele>
        <time>2020-07-30T08:17:04Z</time>
      </trkpt>
      <trkpt lat="43.3611690" lon="-1.6360470">
        <ele>16.6</ele>
        <time>2020-07-30T08:17:05Z</time>
      </trkpt>
      <trkpt lat="43.3613910" lon="-1.6361030">
        <ele>16.6</ele>
        <time>2020-07-30T08:17:08Z</time>
      </trkpt>
      <trkpt lat="43.3618170" lon="-1.6362400">
        <ele>16.8</ele>
        <time>2020-07-30T08:17:14Z</time>
      </trkpt>
      <trkpt lat="43.3620280" lon="-1.6363310">
        <ele>16.8</ele>
        <time>2020-07-30T08:17:17Z</time>
      </trkpt>
      <trkpt lat="43.3624550" lon="-1.6365200">
        <ele>16.8</ele>
        <time>2020-07-30T08:17:23Z</time>
      </trkpt>
      <trkpt lat="43.3625280" lon="-1.6365430">
        <ele>16.8</ele>
        <time>2020-07-30T08:17:24Z</time>
      </trkpt>
      <trkpt lat="43.3627470" lon="-1.6366040">
        <ele>16.8</ele>
        <time>2020-07-30T08:17:27Z</time>
      </trkpt>
      <trkpt lat="43.3630440" lon="-1.6366320">
        <ele>16.4</ele>
        <time>2020-07-30T08:17:31Z</time>
      </trkpt>
      <trkpt lat="43.3634710" lon="-1.6366080">
        <ele>16.0</ele>
        <time>2020-07-30T08:17:37Z</time>
      </trkpt>
      <trkpt lat="43.3635390" lon="-1.6365940">
        <ele>16.0</ele>
        <time>2020-07-30T08:17:38Z</time>
      </trkpt>
      <trkpt lat="43.3637400" lon="-1.6365400">
        <ele>16.0</ele>
        <time>2020-07-30T08:17:41Z</time>
      </trkpt>
      <trkpt lat="43.3638700" lon="-1.6364950">
        <ele>16.2</ele>
        <time>2020-07-30T08:17:43Z</time>
      </trkpt>
      <trkpt lat="43.3640670" lon="-1.6364290">
        <ele>16.2</ele>
        <time>2020-07-30T08:17:46Z</time>
      </trkpt>
      <trkpt lat="43.3642650" lon="-1.6363680">
        <ele>16.0</ele>
        <time>2020-07-30T08:17:49Z</time>
      </trkpt>
      <trkpt lat="43.3643330" lon="-1.6363460">
        <ele>16.2</ele>
        <time>2020-07-30T08:17:50Z</time>
      </trkpt>
      <trkpt lat="43.3643990" lon="-1.6363240">
        <ele>16.2</ele>
        <time>2020-07-30T08:17:51Z</time>
      </trkpt>
      <trkpt lat="43.3646760" lon="-1.6362320">
        <ele>16.2</ele>
        <time>2020-07-30T08:17:55Z</time>
      </trkpt>
      <trkpt lat="43.3650930" lon="-1.6360930">
        <ele>15.6</ele>
        <time>2020-07-30T08:18:01Z</time>
      </trkpt>
      <trkpt lat="43.3653000" lon="-1.6360300">
        <ele>15.6</ele>
        <time>2020-07-30T08:18:04Z</time>
      </trkpt>
      <trkpt lat="43.3655820" lon="-1.6359340">
        <ele>15.8</ele>
        <time>2020-07-30T08:18:08Z</time>
      </trkpt>
      <trkpt lat="43.3659350" lon="-1.6358150">
        <ele>16.0</ele>
        <time>2020-07-30T08:18:13Z</time>
      </trkpt>
      <trkpt lat="43.3663560" lon="-1.6357010">
        <ele>16.2</ele>
        <time>2020-07-30T08:18:19Z</time>
      </trkpt>
      <trkpt lat="43.3664960" lon="-1.6356850">
        <ele>15.8</ele>
        <time>2020-07-30T08:18:21Z</time>
      </trkpt>
      <trkpt lat="43.3667690" lon="-1.6356740">
        <ele>15.4</ele>
        <time>2020-07-30T08:18:25Z</time>
      </trkpt>
      <trkpt lat="43.3668360" lon="-1.6356770">
        <ele>15.6</ele>
        <time>2020-07-30T08:18:26Z</time>
      </trkpt>
      <trkpt lat="43.3669680" lon="-1.6356960">
        <ele>16.2</ele>
        <time>2020-07-30T08:18:28Z</time>
      </trkpt>
      <trkpt lat="43.3673540" lon="-1.6357950">
        <ele>17.0</ele>
        <time>2020-07-30T08:18:34Z</time>
      </trkpt>
      <trkpt lat="43.3677510" lon="-1.6359720">
        <ele>16.8</ele>
        <time>2020-07-30T08:18:40Z</time>
      </trkpt>
      <trkpt lat="43.3678800" lon="-1.6360490">
        <ele>16.6</ele>
        <time>2020-07-30T08:18:42Z</time>
      </trkpt>
      <trkpt lat="43.3682680" lon="-1.6363080">
        <ele>16.6</ele>
        <time>2020-07-30T08:18:48Z</time>
      </trkpt>
      <trkpt lat="43.3683930" lon="-1.6364060">
        <ele>16.6</ele>
        <time>2020-07-30T08:18:50Z</time>
      </trkpt>
      <trkpt lat="43.3686500" lon="-1.6365820">
        <ele>16.8</ele>
        <time>2020-07-30T08:18:54Z</time>
      </trkpt>
      <trkpt lat="43.3690330" lon="-1.6368480">
        <ele>16.8</ele>
        <time>2020-07-30T08:19:00Z</time>
      </trkpt>
      <trkpt lat="43.3690970" lon="-1.6368890">
        <ele>16.8</ele>
        <time>2020-07-30T08:19:01Z</time>
      </trkpt>
      <trkpt lat="43.3694800" lon="-1.6371260">
        <ele>17.2</ele>
        <time>2020-07-30T08:19:07Z</time>
      </trkpt>
      <trkpt lat="43.3696670" lon="-1.6372470">
        <ele>17.6</ele>
        <time>2020-07-30T08:19:10Z</time>
      </trkpt>
      <trkpt lat="43.3699750" lon="-1.6374400">
        <ele>18.0</ele>
        <time>2020-07-30T08:19:15Z</time>
      </trkpt>
      <trkpt lat="43.3701650" lon="-1.6375580">
        <ele>18.2</ele>
        <time>2020-07-30T08:19:18Z</time>
      </trkpt>
      <trkpt lat="43.3705440" lon="-1.6377960">
        <ele>17.6</ele>
        <time>2020-07-30T08:19:24Z</time>
      </trkpt>
      <trkpt lat="43.3706740" lon="-1.6378670">
        <ele>17.6</ele>
        <time>2020-07-30T08:19:26Z</time>
      </trkpt>
      <trkpt lat="43.3708110" lon="-1.6379240">
        <ele>17.6</ele>
        <time>2020-07-30T08:19:28Z</time>
      </trkpt>
      <trkpt lat="43.3710890" lon="-1.6379950">
        <ele>17.2</ele>
        <time>2020-07-30T08:19:32Z</time>
      </trkpt>
      <trkpt lat="43.3712330" lon="-1.6380020">
        <ele>17.2</ele>
        <time>2020-07-30T08:19:34Z</time>
      </trkpt>
      <trkpt lat="43.3715940" lon="-1.6379780">
        <ele>17.0</ele>
        <time>2020-07-30T08:19:39Z</time>
      </trkpt>
      <trkpt lat="43.3716640" lon="-1.6379730">
        <ele>16.8</ele>
        <time>2020-07-30T08:19:40Z</time>
      </trkpt>
      <trkpt lat="43.3720790" lon="-1.6379570">
        <ele>17.0</ele>
        <time>2020-07-30T08:19:46Z</time>
      </trkpt>
      <trkpt lat="43.3721500" lon="-1.6379540">
        <ele>16.8</ele>
        <time>2020-07-30T08:19:47Z</time>
      </trkpt>
      <trkpt lat="43.3725820" lon="-1.6379250">
        <ele>16.4</ele>
        <time>2020-07-30T08:19:53Z</time>
      </trkpt>
      <trkpt lat="43.3727220" lon="-1.6379270">
        <ele>16.4</ele>
        <time>2020-07-30T08:19:55Z</time>
      </trkpt>
      <trkpt lat="43.3727910" lon="-1.6379230">
        <ele>16.2</ele>
        <time>2020-07-30T08:19:56Z</time>
      </trkpt>
      <trkpt lat="43.3731300" lon="-1.6379030">
        <ele>16.0</ele>
        <time>2020-07-30T08:20:01Z</time>
      </trkpt>
      <trkpt lat="43.3731970" lon="-1.6378970">
        <ele>16.2</ele>
        <time>2020-07-30T08:20:02Z</time>
      </trkpt>
      <trkpt lat="43.3735840" lon="-1.6378700">
        <ele>16.6</ele>
        <time>2020-07-30T08:20:08Z</time>
      </trkpt>
      <trkpt lat="43.3737090" lon="-1.6378600">
        <ele>16.6</ele>
        <time>2020-07-30T08:20:10Z</time>
      </trkpt>
      <trkpt lat="43.3740770" lon="-1.6378290">
        <ele>17.0</ele>
        <time>2020-07-30T08:20:16Z</time>
      </trkpt>
      <trkpt lat="43.3741380" lon="-1.6378210">
        <ele>17.0</ele>
        <time>2020-07-30T08:20:17Z</time>
      </trkpt>
      <trkpt lat="43.3741980" lon="-1.6378130">
        <ele>17.0</ele>
        <time>2020-07-30T08:20:18Z</time>
      </trkpt>
      <trkpt lat="43.3743770" lon="-1.6377780">
        <ele>16.8</ele>
        <time>2020-07-30T08:20:21Z</time>
      </trkpt>
      <trkpt lat="43.3747300" lon="-1.6377370">
        <ele>17.4</ele>
        <time>2020-07-30T08:20:27Z</time>
      </trkpt>
      <trkpt lat="43.3747890" lon="-1.6377330">
        <ele>17.4</ele>
        <time>2020-07-30T08:20:28Z</time>
      </trkpt>
      <trkpt lat="43.3748470" lon="-1.6377310">
        <ele>17.6</ele>
        <time>2020-07-30T08:20:29Z</time>
      </trkpt>
      <trkpt lat="43.3750830" lon="-1.6377210">
        <ele>17.8</ele>
        <time>2020-07-30T08:20:33Z</time>
      </trkpt>
      <trkpt lat="43.3752660" lon="-1.6377090">
        <ele>17.6</ele>
        <time>2020-07-30T08:20:36Z</time>
      </trkpt>
      <trkpt lat="43.3754530" lon="-1.6376980">
        <ele>17.6</ele>
        <time>2020-07-30T08:20:39Z</time>
      </trkpt>
      <trkpt lat="43.3758530" lon="-1.6376710">
        <ele>17.6</ele>
        <time>2020-07-30T08:20:45Z</time>
      </trkpt>
      <trkpt lat="43.3762090" lon="-1.6376730">
        <ele>16.8</ele>
        <time>2020-07-30T08:20:50Z</time>
      </trkpt>
      <trkpt lat="43.3762820" lon="-1.6376770">
        <ele>16.6</ele>
        <time>2020-07-30T08:20:51Z</time>
      </trkpt>
      <trkpt lat="43.3763530" lon="-1.6376770">
        <ele>16.6</ele>
        <time>2020-07-30T08:20:52Z</time>
      </trkpt>
      <trkpt lat="43.3764240" lon="-1.6376730">
        <ele>16.4</ele>
        <time>2020-07-30T08:20:53Z</time>
      </trkpt>
      <trkpt lat="43.3768390" lon="-1.6376500">
        <ele>16.6</ele>
        <time>2020-07-30T08:20:59Z</time>
      </trkpt>
      <trkpt lat="43.3769070" lon="-1.6376400">
        <ele>16.8</ele>
        <time>2020-07-30T08:21:00Z</time>
      </trkpt>
      <trkpt lat="43.3769720" lon="-1.6376370">
        <ele>16.8</ele>
        <time>2020-07-30T08:21:01Z</time>
      </trkpt>
      <trkpt lat="43.3773450" lon="-1.6376240">
        <ele>17.8</ele>
        <time>2020-07-30T08:21:07Z</time>
      </trkpt>
      <trkpt lat="43.3774060" lon="-1.6376260">
        <ele>18.0</ele>
        <time>2020-07-30T08:21:08Z</time>
      </trkpt>
      <trkpt lat="43.3775900" lon="-1.6376510">
        <ele>18.0</ele>
        <time>2020-07-30T08:21:11Z</time>
      </trkpt>
      <trkpt lat="43.3776520" lon="-1.6376750">
        <ele>18.2</ele>
        <time>2020-07-30T08:21:12Z</time>
      </trkpt>
      <trkpt lat="43.3777140" lon="-1.6377050">
        <ele>18.2</ele>
        <time>2020-07-30T08:21:13Z</time>
      </trkpt>
      <trkpt lat="43.3777780" lon="-1.6377420">
        <ele>18.0</ele>
        <time>2020-07-30T08:21:14Z</time>
      </trkpt>
      <trkpt lat="43.3778990" lon="-1.6378260">
        <ele>18.0</ele>
        <time>2020-07-30T08:21:16Z</time>
      </trkpt>
      <trkpt lat="43.3781310" lon="-1.6380320">
        <ele>17.4</ele>
        <time>2020-07-30T08:21:20Z</time>
      </trkpt>
      <trkpt lat="43.3784620" lon="-1.6383670">
        <ele>17.4</ele>
        <time>2020-07-30T08:21:26Z</time>
      </trkpt>
      <trkpt lat="43.3786640" lon="-1.6385980">
        <ele>18.0</ele>
        <time>2020-07-30T08:21:30Z</time>
      </trkpt>
      <trkpt lat="43.3788970" lon="-1.6388480">
        <ele>18.4</ele>
        <time>2020-07-30T08:21:35Z</time>
      </trkpt>
      <trkpt lat="43.3789350" lon="-1.6388880">
        <ele>18.6</ele>
        <time>2020-07-30T08:21:36Z</time>
      </trkpt>
      <trkpt lat="43.3796140" lon="-1.6396680">
        <ele>19.2</ele>
        <time>2020-07-30T08:26:19Z</time>
      </trkpt>
      <trkpt lat="43.3796290" lon="-1.6396850">
        <ele>19.2</ele>
        <time>2020-07-30T08:26:20Z</time>
      </trkpt>
      <trkpt lat="43.3796990" lon="-1.6397610">
        <ele>18.8</ele>
        <time>2020-07-30T08:26:23Z</time>
      </trkpt>
      <trkpt lat="43.3797660" lon="-1.6398260">
        <ele>18.0</ele>
        <time>2020-07-30T08:26:25Z</time>
      </trkpt>
      <trkpt lat="43.3798910" lon="-1.6399440">
        <ele>17.4</ele>
        <time>2020-07-30T08:26:28Z</time>
      </trkpt>
      <trkpt lat="43.3799870" lon="-1.6400400">
        <ele>17.2</ele>
        <time>2020-07-30T08:26:30Z</time>
      </trkpt>
      <trkpt lat="43.3800390" lon="-1.6400910">
        <ele>17.0</ele>
        <time>2020-07-30T08:26:31Z</time>
      </trkpt>
      <trkpt lat="43.3802440" lon="-1.6402950">
        <ele>16.2</ele>
        <time>2020-07-30T08:26:35Z</time>
      </trkpt>
      <trkpt lat="43.3804320" lon="-1.6405000">
        <ele>15.6</ele>
        <time>2020-07-30T08:26:39Z</time>
      </trkpt>
      <trkpt lat="43.3805150" lon="-1.6406110">
        <ele>15.6</ele>
        <time>2020-07-30T08:26:41Z</time>
      </trkpt>
      <trkpt lat="43.3806490" lon="-1.6407950">
        <ele>15.6</ele>
        <time>2020-07-30T08:26:44Z</time>
      </trkpt>
      <trkpt lat="43.3806870" lon="-1.6408620">
        <ele>15.6</ele>
        <time>2020-07-30T08:26:45Z</time>
      </trkpt>
      <trkpt lat="43.3808230" lon="-1.6411510">
        <ele>15.8</ele>
        <time>2020-07-30T08:26:49Z</time>
      </trkpt>
      <trkpt lat="43.3810190" lon="-1.6415620">
        <ele>16.2</ele>
        <time>2020-07-30T08:26:55Z</time>
      </trkpt>
      <trkpt lat="43.3810800" lon="-1.6416840">
        <ele>16.6</ele>
        <time>2020-07-30T08:26:57Z</time>
      </trkpt>
      <trkpt lat="43.3811700" lon="-1.6418680">
        <ele>17.4</ele>
        <time>2020-07-30T08:27:00Z</time>
      </trkpt>
      <trkpt lat="43.3813140" lon="-1.6420840">
        <ele>18.0</ele>
        <time>2020-07-30T08:27:04Z</time>
      </trkpt>
      <trkpt lat="43.3816300" lon="-1.6423910">
        <ele>16.6</ele>
        <time>2020-07-30T08:27:10Z</time>
      </trkpt>
      <trkpt lat="43.3817480" lon="-1.6424980">
        <ele>16.2</ele>
        <time>2020-07-30T08:27:12Z</time>
      </trkpt>
      <trkpt lat="43.3818070" lon="-1.6425530">
        <ele>16.0</ele>
        <time>2020-07-30T08:27:13Z</time>
      </trkpt>
      <trkpt lat="43.3818670" lon="-1.6426070">
        <ele>15.8</ele>
        <time>2020-07-30T08:27:14Z</time>
      </trkpt>
      <trkpt lat="43.3821390" lon="-1.6428850">
        <ele>15.8</ele>
        <time>2020-07-30T08:27:19Z</time>
      </trkpt>
      <trkpt lat="43.3824100" lon="-1.6432790">
        <ele>16.0</ele>
        <time>2020-07-30T08:27:25Z</time>
      </trkpt>
      <trkpt lat="43.3824480" lon="-1.6433510">
        <ele>16.0</ele>
        <time>2020-07-30T08:27:26Z</time>
      </trkpt>
      <trkpt lat="43.3826230" lon="-1.6438320">
        <ele>15.6</ele>
        <time>2020-07-30T08:27:32Z</time>
      </trkpt>
      <trkpt lat="43.3826950" lon="-1.6441670">
        <ele>15.6</ele>
        <time>2020-07-30T08:27:36Z</time>
      </trkpt>
      <trkpt lat="43.3827080" lon="-1.6443480">
        <ele>16.0</ele>
        <time>2020-07-30T08:27:38Z</time>
      </trkpt>
      <trkpt lat="43.3827430" lon="-1.6449100">
        <ele>16.2</ele>
        <time>2020-07-30T08:27:44Z</time>
      </trkpt>
      <trkpt lat="43.3827640" lon="-1.6454520">
        <ele>16.0</ele>
        <time>2020-07-30T08:27:50Z</time>
      </trkpt>
      <trkpt lat="43.3827580" lon="-1.6457260">
        <ele>16.0</ele>
        <time>2020-07-30T08:27:53Z</time>
      </trkpt>
      <trkpt lat="43.3827520" lon="-1.6460860">
        <ele>16.0</ele>
        <time>2020-07-30T08:27:57Z</time>
      </trkpt>
      <trkpt lat="43.3827380" lon="-1.6463640">
        <ele>16.0</ele>
        <time>2020-07-30T08:28:00Z</time>
      </trkpt>
      <trkpt lat="43.3827080" lon="-1.6467360">
        <ele>15.8</ele>
        <time>2020-07-30T08:28:04Z</time>
      </trkpt>
      <trkpt lat="43.3826730" lon="-1.6470200">
        <ele>16.0</ele>
        <time>2020-07-30T08:28:07Z</time>
      </trkpt>
      <trkpt lat="43.3826650" lon="-1.6471090">
        <ele>16.6</ele>
        <time>2020-07-30T08:28:08Z</time>
      </trkpt>
      <trkpt lat="43.3826470" lon="-1.6473010">
        <ele>16.8</ele>
        <time>2020-07-30T08:28:10Z</time>
      </trkpt>
      <trkpt lat="43.3826070" lon="-1.6476630">
        <ele>15.8</ele>
        <time>2020-07-30T08:28:14Z</time>
      </trkpt>
      <trkpt lat="43.3825570" lon="-1.6482050">
        <ele>15.6</ele>
        <time>2020-07-30T08:28:20Z</time>
      </trkpt>
      <trkpt lat="43.3825490" lon="-1.6482960">
        <ele>15.6</ele>
        <time>2020-07-30T08:28:21Z</time>
      </trkpt>
      <trkpt lat="43.3825280" lon="-1.6484790">
        <ele>15.8</ele>
        <time>2020-07-30T08:28:23Z</time>
      </trkpt>
      <trkpt lat="43.3824790" lon="-1.6490120">
        <ele>15.6</ele>
        <time>2020-07-30T08:28:29Z</time>
      </trkpt>
      <trkpt lat="43.3824910" lon="-1.6494580">
        <ele>16.2</ele>
        <time>2020-07-30T08:28:34Z</time>
      </trkpt>
      <trkpt lat="43.3825270" lon="-1.6496360">
        <ele>16.2</ele>
        <time>2020-07-30T08:28:36Z</time>
      </trkpt>
      <trkpt lat="43.3826050" lon="-1.6498820">
        <ele>16.4</ele>
        <time>2020-07-30T08:28:39Z</time>
      </trkpt>
      <trkpt lat="43.3826470" lon="-1.6500380">
        <ele>16.6</ele>
        <time>2020-07-30T08:28:41Z</time>
      </trkpt>
      <trkpt lat="43.3826310" lon="-1.6501770">
        <ele>16.8</ele>
        <time>2020-07-30T08:28:43Z</time>
      </trkpt>
      <trkpt lat="43.3826270" lon="-1.6503110">
        <ele>17.2</ele>
        <time>2020-07-30T08:28:45Z</time>
      </trkpt>
      <trkpt lat="43.3826590" lon="-1.6503630">
        <ele>17.4</ele>
        <time>2020-07-30T08:28:46Z</time>
      </trkpt>
      <trkpt lat="43.3826970" lon="-1.6504030">
        <ele>17.4</ele>
        <time>2020-07-30T08:28:47Z</time>
      </trkpt>
      <trkpt lat="43.3827940" lon="-1.6504670">
        <ele>17.2</ele>
        <time>2020-07-30T08:28:49Z</time>
      </trkpt>
      <trkpt lat="43.3828640" lon="-1.6505840">
        <ele>16.8</ele>
        <time>2020-07-30T08:28:51Z</time>
      </trkpt>
      <trkpt lat="43.3828920" lon="-1.6506560">
        <ele>16.8</ele>
        <time>2020-07-30T08:28:52Z</time>
      </trkpt>
      <trkpt lat="43.3830570" lon="-1.6510920">
        <ele>17.0</ele>
        <time>2020-07-30T08:28:58Z</time>
      </trkpt>
      <trkpt lat="43.3830820" lon="-1.6511670">
        <ele>17.0</ele>
        <time>2020-07-30T08:28:59Z</time>
      </trkpt>
      <trkpt lat="43.3831100" lon="-1.6512390">
        <ele>17.0</ele>
        <time>2020-07-30T08:29:00Z</time>
      </trkpt>
      <trkpt lat="43.3831390" lon="-1.6513080">
        <ele>16.8</ele>
        <time>2020-07-30T08:29:01Z</time>
      </trkpt>
      <trkpt lat="43.3832590" lon="-1.6516730">
        <ele>17.0</ele>
        <time>2020-07-30T08:29:06Z</time>
      </trkpt>
      <trkpt lat="43.3832680" lon="-1.6517510">
        <ele>17.2</ele>
        <time>2020-07-30T08:29:07Z</time>
      </trkpt>
      <trkpt lat="43.3832790" lon="-1.6518270">
        <ele>17.2</ele>
        <time>2020-07-30T08:29:08Z</time>
      </trkpt>
      <trkpt lat="43.3833250" lon="-1.6519550">
        <ele>17.4</ele>
        <time>2020-07-30T08:29:10Z</time>
      </trkpt>
      <trkpt lat="43.3833550" lon="-1.6520090">
        <ele>17.6</ele>
        <time>2020-07-30T08:29:11Z</time>
      </trkpt>
      <trkpt lat="43.3834940" lon="-1.6522610">
        <ele>17.8</ele>
        <time>2020-07-30T08:29:15Z</time>
      </trkpt>
      <trkpt lat="43.3835280" lon="-1.6523260">
        <ele>17.8</ele>
        <time>2020-07-30T08:29:16Z</time>
      </trkpt>
      <trkpt lat="43.3836100" lon="-1.6524450">
        <ele>17.6</ele>
        <time>2020-07-30T08:29:18Z</time>
      </trkpt>
      <trkpt lat="43.3837490" lon="-1.6525950">
        <ele>17.4</ele>
        <time>2020-07-30T08:29:21Z</time>
      </trkpt>
      <trkpt lat="43.3838650" lon="-1.6527410">
        <ele>17.6</ele>
        <time>2020-07-30T08:29:24Z</time>
      </trkpt>
      <trkpt lat="43.3839130" lon="-1.6528560">
        <ele>18.0</ele>
        <time>2020-07-30T08:29:26Z</time>
      </trkpt>
      <trkpt lat="43.3839300" lon="-1.6529740">
        <ele>18.0</ele>
        <time>2020-07-30T08:29:28Z</time>
      </trkpt>
      <trkpt lat="43.3839320" lon="-1.6530410">
        <ele>18.0</ele>
        <time>2020-07-30T08:29:29Z</time>
      </trkpt>
      <trkpt lat="43.3839290" lon="-1.6531090">
        <ele>18.0</ele>
        <time>2020-07-30T08:29:30Z</time>
      </trkpt>
      <trkpt lat="43.3839030" lon="-1.6532410">
        <ele>18.0</ele>
        <time>2020-07-30T08:29:32Z</time>
      </trkpt>
      <trkpt lat="43.3838570" lon="-1.6533600">
        <ele>18.0</ele>
        <time>2020-07-30T08:29:34Z</time>
      </trkpt>
      <trkpt lat="43.3838290" lon="-1.6534130">
        <ele>18.0</ele>
        <time>2020-07-30T08:29:35Z</time>
      </trkpt>
      <trkpt lat="43.3837050" lon="-1.6536250">
        <ele>17.8</ele>
        <time>2020-07-30T08:29:40Z</time>
      </trkpt>
      <trkpt lat="43.3837300" lon="-1.6536630">
        <ele>18.2</ele>
        <time>2020-07-30T08:29:42Z</time>
      </trkpt>
      <trkpt lat="43.3837530" lon="-1.6536550">
        <ele>18.4</ele>
        <time>2020-07-30T08:29:43Z</time>
      </trkpt>
      <trkpt lat="43.3838010" lon="-1.6535770">
        <ele>18.4</ele>
        <time>2020-07-30T08:29:45Z</time>
      </trkpt>
      <trkpt lat="43.3838250" lon="-1.6535230">
        <ele>18.4</ele>
        <time>2020-07-30T08:29:46Z</time>
      </trkpt>
      <trkpt lat="43.3839720" lon="-1.6531730">
        <ele>17.8</ele>
        <time>2020-07-30T08:29:52Z</time>
      </trkpt>
      <trkpt lat="43.3839920" lon="-1.6531160">
        <ele>17.8</ele>
        <time>2020-07-30T08:29:53Z</time>
      </trkpt>
      <trkpt lat="43.3840710" lon="-1.6529190">
        <ele>18.4</ele>
        <time>2020-07-30T08:29:58Z</time>
      </trkpt>
      <trkpt lat="43.3842620" lon="-1.6529050">
        <ele>18.8</ele>
        <time>2020-07-30T08:30:02Z</time>
      </trkpt>
      <trkpt lat="43.3844430" lon="-1.6529060">
        <ele>17.8</ele>
        <time>2020-07-30T08:31:00Z</time>
      </trkpt>
      <trkpt lat="43.3846240" lon="-1.6529060">
        <ele>17.8</ele>
        <time>2020-07-30T08:31:01Z</time>
      </trkpt>
      <trkpt lat="43.3847630" lon="-1.6529050">
        <ele>17.8</ele>
        <time>2020-07-30T08:31:04Z</time>
      </trkpt>
      <trkpt lat="43.3848740" lon="-1.6529000">
        <ele>17.6</ele>
        <time>2020-07-30T08:31:06Z</time>
      </trkpt>
      <trkpt lat="43.3849350" lon="-1.6529060">
        <ele>17.6</ele>
        <time>2020-07-30T08:31:07Z</time>
      </trkpt>
      <trkpt lat="43.3851350" lon="-1.6529170">
        <ele>17.2</ele>
        <time>2020-07-30T08:31:10Z</time>
      </trkpt>
      <trkpt lat="43.3852050" lon="-1.6529190">
        <ele>17.2</ele>
        <time>2020-07-30T08:31:11Z</time>
      </trkpt>
      <trkpt lat="43.3852740" lon="-1.6529210">
        <ele>17.2</ele>
        <time>2020-07-30T08:31:12Z</time>
      </trkpt>
      <trkpt lat="43.3854880" lon="-1.6529240">
        <ele>17.2</ele>
        <time>2020-07-30T08:31:15Z</time>
      </trkpt>
      <trkpt lat="43.3858290" lon="-1.6529390">
        <ele>17.8</ele>
        <time>2020-07-30T08:31:20Z</time>
      </trkpt>
      <trkpt lat="43.3859530" lon="-1.6529460">
        <ele>18.2</ele>
        <time>2020-07-30T08:31:22Z</time>
      </trkpt>
      <trkpt lat="43.3861180" lon="-1.6529580">
        <ele>19.4</ele>
        <time>2020-07-30T08:31:25Z</time>
      </trkpt>
      <trkpt lat="43.3861700" lon="-1.6529610">
        <ele>19.8</ele>
        <time>2020-07-30T08:31:26Z</time>
      </trkpt>
      <trkpt lat="43.3863140" lon="-1.6529720">
        <ele>20.4</ele>
        <time>2020-07-30T08:31:29Z</time>
      </trkpt>
      <trkpt lat="43.3864850" lon="-1.6529960">
        <ele>21.0</ele>
        <time>2020-07-30T08:31:33Z</time>
      </trkpt>
      <trkpt lat="43.3865680" lon="-1.6530100">
        <ele>21.6</ele>
        <time>2020-07-30T08:31:35Z</time>
      </trkpt>
      <trkpt lat="43.3866850" lon="-1.6530450">
        <ele>22.4</ele>
        <time>2020-07-30T08:31:38Z</time>
      </trkpt>
      <trkpt lat="43.3867630" lon="-1.6530820">
        <ele>22.8</ele>
        <time>2020-07-30T08:31:40Z</time>
      </trkpt>
      <trkpt lat="43.3868040" lon="-1.6530930">
        <ele>23.0</ele>
        <time>2020-07-30T08:31:41Z</time>
      </trkpt>
      <trkpt lat="43.3868870" lon="-1.6530980">
        <ele>23.4</ele>
        <time>2020-07-30T08:31:43Z</time>
      </trkpt>
      <trkpt lat="43.3869700" lon="-1.6530980">
        <ele>23.8</ele>
        <time>2020-07-30T08:31:45Z</time>
      </trkpt>
      <trkpt lat="43.3870120" lon="-1.6531050">
        <ele>24.0</ele>
        <time>2020-07-30T08:31:46Z</time>
      </trkpt>
      <trkpt lat="43.3870530" lon="-1.6531140">
        <ele>24.2</ele>
        <time>2020-07-30T08:31:47Z</time>
      </trkpt>
      <trkpt lat="43.3872880" lon="-1.6531510">
        <ele>25.0</ele>
        <time>2020-07-30T08:31:53Z</time>
      </trkpt>
      <trkpt lat="43.3873590" lon="-1.6531680">
        <ele>25.4</ele>
        <time>2020-07-30T08:31:55Z</time>
      </trkpt>
      <trkpt lat="43.3874680" lon="-1.6531910">
        <ele>26.0</ele>
        <time>2020-07-30T08:31:58Z</time>
      </trkpt>
      <trkpt lat="43.3875780" lon="-1.6532390">
        <ele>26.6</ele>
        <time>2020-07-30T08:32:01Z</time>
      </trkpt>
      <trkpt lat="43.3876200" lon="-1.6532510">
        <ele>26.8</ele>
        <time>2020-07-30T08:32:02Z</time>
      </trkpt>
      <trkpt lat="43.3877910" lon="-1.6532850">
        <ele>27.2</ele>
        <time>2020-07-30T08:32:06Z</time>
      </trkpt>
      <trkpt lat="43.3879590" lon="-1.6533120">
        <ele>27.6</ele>
        <time>2020-07-30T08:32:10Z</time>
      </trkpt>
      <trkpt lat="43.3880380" lon="-1.6533240">
        <ele>28.2</ele>
        <time>2020-07-30T08:32:12Z</time>
      </trkpt>
      <trkpt lat="43.3882490" lon="-1.6533560">
        <ele>29.2</ele>
        <time>2020-07-30T08:32:18Z</time>
      </trkpt>
      <trkpt lat="43.3883570" lon="-1.6533960">
        <ele>30.4</ele>
        <time>2020-07-30T08:32:23Z</time>
      </trkpt>
      <trkpt lat="43.3884500" lon="-1.6534310">
        <ele>30.8</ele>
        <time>2020-07-30T08:32:29Z</time>
      </trkpt>
      <trkpt lat="43.3884890" lon="-1.6534470">
        <ele>30.8</ele>
        <time>2020-07-30T08:32:31Z</time>
      </trkpt>
      <trkpt lat="43.3885830" lon="-1.6534860">
        <ele>31.2</ele>
        <time>2020-07-30T08:32:35Z</time>
      </trkpt>
      <trkpt lat="43.3886500" lon="-1.6535040">
        <ele>31.4</ele>
        <time>2020-07-30T08:32:37Z</time>
      </trkpt>
      <trkpt lat="43.3887980" lon="-1.6535550">
        <ele>32.8</ele>
        <time>2020-07-30T08:32:41Z</time>
      </trkpt>
      <trkpt lat="43.3888800" lon="-1.6535940">
        <ele>33.4</ele>
        <time>2020-07-30T08:32:43Z</time>
      </trkpt>
      <trkpt lat="43.3889090" lon="-1.6536250">
        <ele>33.6</ele>
        <time>2020-07-30T08:32:44Z</time>
      </trkpt>
      <trkpt lat="43.3889230" lon="-1.6536680">
        <ele>33.8</ele>
        <time>2020-07-30T08:32:45Z</time>
      </trkpt>
      <trkpt lat="43.3889040" lon="-1.6537640">
        <ele>34.0</ele>
        <time>2020-07-30T08:32:47Z</time>
      </trkpt>
      <trkpt lat="43.3887320" lon="-1.6540900">
        <ele>33.2</ele>
        <time>2020-07-30T08:32:52Z</time>
      </trkpt>
      <trkpt lat="43.3886390" lon="-1.6542330">
        <ele>32.4</ele>
        <time>2020-07-30T08:32:54Z</time>
      </trkpt>
      <trkpt lat="43.3885390" lon="-1.6543890">
        <ele>31.4</ele>
        <time>2020-07-30T08:32:56Z</time>
      </trkpt>
      <trkpt lat="43.3884260" lon="-1.6545600">
        <ele>30.2</ele>
        <time>2020-07-30T08:32:58Z</time>
      </trkpt>
      <trkpt lat="43.3883030" lon="-1.6547490">
        <ele>29.0</ele>
        <time>2020-07-30T08:33:00Z</time>
      </trkpt>
      <trkpt lat="43.3881710" lon="-1.6549530">
        <ele>27.8</ele>
        <time>2020-07-30T08:33:02Z</time>
      </trkpt>
      <trkpt lat="43.3881010" lon="-1.6550600">
        <ele>27.2</ele>
        <time>2020-07-30T08:33:03Z</time>
      </trkpt>
      <trkpt lat="43.3880290" lon="-1.6551690">
        <ele>26.4</ele>
        <time>2020-07-30T08:33:04Z</time>
      </trkpt>
      <trkpt lat="43.3879540" lon="-1.6552820">
        <ele>25.4</ele>
        <time>2020-07-30T08:33:05Z</time>
      </trkpt>
      <trkpt lat="43.3878100" lon="-1.6555260">
        <ele>23.6</ele>
        <time>2020-07-30T08:33:07Z</time>
      </trkpt>
      <trkpt lat="43.3877450" lon="-1.6556590">
        <ele>22.6</ele>
        <time>2020-07-30T08:33:08Z</time>
      </trkpt>
      <trkpt lat="43.3876310" lon="-1.6559450">
        <ele>21.2</ele>
        <time>2020-07-30T08:33:10Z</time>
      </trkpt>
      <trkpt lat="43.3875470" lon="-1.6562460">
        <ele>19.8</ele>
        <time>2020-07-30T08:33:12Z</time>
      </trkpt>
      <trkpt lat="43.3874640" lon="-1.6565400">
        <ele>18.8</ele>
        <time>2020-07-30T08:33:14Z</time>
      </trkpt>
      <trkpt lat="43.3873210" lon="-1.6569360">
        <ele>18.2</ele>
        <time>2020-07-30T08:33:17Z</time>
      </trkpt>
      <trkpt lat="43.3871540" lon="-1.6574280">
        <ele>18.2</ele>
        <time>2020-07-30T08:33:21Z</time>
      </trkpt>
      <trkpt lat="43.3870360" lon="-1.6577700">
        <ele>18.4</ele>
        <time>2020-07-30T08:33:24Z</time>
      </trkpt>
      <trkpt lat="43.3869720" lon="-1.6579830">
        <ele>18.4</ele>
        <time>2020-07-30T08:33:26Z</time>
      </trkpt>
      <trkpt lat="43.3869540" lon="-1.6581450">
        <ele>18.8</ele>
        <time>2020-07-30T08:33:28Z</time>
      </trkpt>
      <trkpt lat="43.3869920" lon="-1.6582730">
        <ele>19.6</ele>
        <time>2020-07-30T08:33:31Z</time>
      </trkpt>
      <trkpt lat="43.3870170" lon="-1.6583030">
        <ele>19.8</ele>
        <time>2020-07-30T08:33:32Z</time>
      </trkpt>
      <trkpt lat="43.3871240" lon="-1.6585100">
        <ele>20.2</ele>
        <time>2020-07-30T08:33:37Z</time>
      </trkpt>
      <trkpt lat="43.3871510" lon="-1.6585570">
        <ele>20.2</ele>
        <time>2020-07-30T08:33:38Z</time>
      </trkpt>
      <trkpt lat="43.3872340" lon="-1.6586080">
        <ele>20.2</ele>
        <time>2020-07-30T08:33:40Z</time>
      </trkpt>
      <trkpt lat="43.3874730" lon="-1.6585660">
        <ele>19.8</ele>
        <time>2020-07-30T08:33:45Z</time>
      </trkpt>
      <trkpt lat="43.3877680" lon="-1.6584760">
        <ele>19.8</ele>
        <time>2020-07-30T08:33:51Z</time>
      </trkpt>
      <trkpt lat="43.3878170" lon="-1.6584640">
        <ele>19.8</ele>
        <time>2020-07-30T08:33:52Z</time>
      </trkpt>
      <trkpt lat="43.3878660" lon="-1.6584540">
        <ele>19.8</ele>
        <time>2020-07-30T08:33:53Z</time>
      </trkpt>
      <trkpt lat="43.3879560" lon="-1.6584080">
        <ele>19.8</ele>
        <time>2020-07-30T08:33:55Z</time>
      </trkpt>
      <trkpt lat="43.3881000" lon="-1.6583120">
        <ele>19.6</ele>
        <time>2020-07-30T08:33:58Z</time>
      </trkpt>
      <trkpt lat="43.3882030" lon="-1.6582540">
        <ele>19.6</ele>
        <time>2020-07-30T08:34:00Z</time>
      </trkpt>
      <trkpt lat="43.3883620" lon="-1.6581870">
        <ele>19.6</ele>
        <time>2020-07-30T08:34:03Z</time>
      </trkpt>
      <trkpt lat="43.3884680" lon="-1.6581420">
        <ele>19.4</ele>
        <time>2020-07-30T08:34:05Z</time>
      </trkpt>
      <trkpt lat="43.3886700" lon="-1.6580420">
        <ele>19.4</ele>
        <time>2020-07-30T08:34:10Z</time>
      </trkpt>
      <trkpt lat="43.3887270" lon="-1.6580270">
        <ele>19.6</ele>
        <time>2020-07-30T08:34:12Z</time>
      </trkpt>
      <trkpt lat="43.3888120" lon="-1.6580340">
        <ele>19.6</ele>
        <time>2020-07-30T08:34:15Z</time>
      </trkpt>
      <trkpt lat="43.3889070" lon="-1.6580450">
        <ele>19.6</ele>
        <time>2020-07-30T08:34:19Z</time>
      </trkpt>
      <trkpt lat="43.3889240" lon="-1.6580320">
        <ele>19.4</ele>
        <time>2020-07-30T08:34:20Z</time>
      </trkpt>
      <trkpt lat="43.3889420" lon="-1.6580470">
        <ele>19.4</ele>
        <time>2020-07-30T08:34:22Z</time>
      </trkpt>
      <trkpt lat="43.3910450" lon="-1.6592600">
        <ele>19.8</ele>
        <time>2020-07-30T08:36:26Z</time>
      </trkpt>
      <trkpt lat="43.3910910" lon="-1.6592650">
        <ele>19.8</ele>
        <time>2020-07-30T08:36:27Z</time>
      </trkpt>
      <trkpt lat="43.3912760" lon="-1.6593020">
        <ele>21.2</ele>
        <time>2020-07-30T08:36:31Z</time>
      </trkpt>
      <trkpt lat="43.3914050" lon="-1.6593050">
        <ele>22.0</ele>
        <time>2020-07-30T08:36:34Z</time>
      </trkpt>
      <trkpt lat="43.3916120" lon="-1.6593240">
        <ele>21.8</ele>
        <time>2020-07-30T08:36:40Z</time>
      </trkpt>
      <trkpt lat="43.3917520" lon="-1.6593170">
        <ele>21.8</ele>
        <time>2020-07-30T08:36:45Z</time>
      </trkpt>
      <trkpt lat="43.3917910" lon="-1.6593160">
        <ele>21.6</ele>
        <time>2020-07-30T08:36:46Z</time>
      </trkpt>
      <trkpt lat="43.3920380" lon="-1.6593960">
        <ele>21.8</ele>
        <time>2020-07-30T08:36:52Z</time>
      </trkpt>
      <trkpt lat="43.3920800" lon="-1.6594110">
        <ele>21.8</ele>
        <time>2020-07-30T08:36:53Z</time>
      </trkpt>
      <trkpt lat="43.3922540" lon="-1.6594710">
        <ele>21.6</ele>
        <time>2020-07-30T08:36:58Z</time>
      </trkpt>
      <trkpt lat="43.3923780" lon="-1.6594790">
        <ele>21.6</ele>
        <time>2020-07-30T08:37:01Z</time>
      </trkpt>
      <trkpt lat="43.3924660" lon="-1.6594990">
        <ele>21.4</ele>
        <time>2020-07-30T08:37:03Z</time>
      </trkpt>
      <trkpt lat="43.3925130" lon="-1.6595130">
        <ele>21.4</ele>
        <time>2020-07-30T08:37:04Z</time>
      </trkpt>
      <trkpt lat="43.3927030" lon="-1.6595540">
        <ele>21.0</ele>
        <time>2020-07-30T08:37:08Z</time>
      </trkpt>
      <trkpt lat="43.3927900" lon="-1.6595570">
        <ele>20.8</ele>
        <time>2020-07-30T08:37:10Z</time>
      </trkpt>
      <trkpt lat="43.3928720" lon="-1.6595730">
        <ele>20.8</ele>
        <time>2020-07-30T08:37:12Z</time>
      </trkpt>
      <trkpt lat="43.3929680" lon="-1.6595940">
        <ele>20.8</ele>
        <time>2020-07-30T08:37:15Z</time>
      </trkpt>
      <trkpt lat="43.3930570" lon="-1.6596140">
        <ele>21.0</ele>
        <time>2020-07-30T08:37:18Z</time>
      </trkpt>
      <trkpt lat="43.3932300" lon="-1.6596710">
        <ele>21.0</ele>
        <time>2020-07-30T08:37:23Z</time>
      </trkpt>
      <trkpt lat="43.3934330" lon="-1.6596950">
        <ele>20.2</ele>
        <time>2020-07-30T08:37:28Z</time>
      </trkpt>
      <trkpt lat="43.3935260" lon="-1.6597280">
        <ele>20.0</ele>
        <time>2020-07-30T08:37:30Z</time>
      </trkpt>
      <trkpt lat="43.3936410" lon="-1.6597930">
        <ele>20.0</ele>
        <time>2020-07-30T08:37:33Z</time>
      </trkpt>
      <trkpt lat="43.3936610" lon="-1.6598130">
        <ele>20.0</ele>
        <time>2020-07-30T08:37:34Z</time>
      </trkpt>
      <trkpt lat="43.3936900" lon="-1.6598600">
        <ele>20.2</ele>
        <time>2020-07-30T08:37:36Z</time>
      </trkpt>
      <trkpt lat="43.3937630" lon="-1.6599050">
        <ele>20.6</ele>
        <time>2020-07-30T08:37:39Z</time>
      </trkpt>
      <trkpt lat="43.3935670" lon="-1.6598340">
        <ele>19.4</ele>
        <time>2020-07-30T08:44:32Z</time>
      </trkpt>
      <trkpt lat="43.3933490" lon="-1.6597870">
        <ele>20.2</ele>
        <time>2020-07-30T08:44:38Z</time>
      </trkpt>
      <trkpt lat="43.3932860" lon="-1.6597720">
        <ele>20.2</ele>
        <time>2020-07-30T08:44:40Z</time>
      </trkpt>
      <trkpt lat="43.3932070" lon="-1.6597560">
        <ele>20.8</ele>
        <time>2020-07-30T08:44:43Z</time>
      </trkpt>
      <trkpt lat="43.3931930" lon="-1.6597520">
        <ele>21.0</ele>
        <time>2020-07-30T08:44:44Z</time>
      </trkpt>
      <trkpt lat="43.3926320" lon="-1.6596010">
        <ele>21.4</ele>
        <time>2020-07-30T08:48:02Z</time>
      </trkpt>
      <trkpt lat="43.3925540" lon="-1.6595860">
        <ele>21.4</ele>
        <time>2020-07-30T08:48:04Z</time>
      </trkpt>
      <trkpt lat="43.3923710" lon="-1.6595870">
        <ele>22.2</ele>
        <time>2020-07-30T08:48:09Z</time>
      </trkpt>
      <trkpt lat="43.3923300" lon="-1.6595790">
        <ele>22.4</ele>
        <time>2020-07-30T08:48:10Z</time>
      </trkpt>
      <trkpt lat="43.3922850" lon="-1.6595630">
        <ele>22.4</ele>
        <time>2020-07-30T08:48:11Z</time>
      </trkpt>
      <trkpt lat="43.3922360" lon="-1.6595470">
        <ele>22.4</ele>
        <time>2020-07-30T08:48:12Z</time>
      </trkpt>
      <trkpt lat="43.3921870" lon="-1.6595330">
        <ele>22.4</ele>
        <time>2020-07-30T08:48:13Z</time>
      </trkpt>
      <trkpt lat="43.3921410" lon="-1.6595260">
        <ele>22.4</ele>
        <time>2020-07-30T08:48:14Z</time>
      </trkpt>
      <trkpt lat="43.3920010" lon="-1.6595070">
        <ele>22.2</ele>
        <time>2020-07-30T08:48:17Z</time>
      </trkpt>
      <trkpt lat="43.3918950" lon="-1.6594930">
        <ele>22.2</ele>
        <time>2020-07-30T08:48:19Z</time>
      </trkpt>
      <trkpt lat="43.3918460" lon="-1.6594930">
        <ele>22.0</ele>
        <time>2020-07-30T08:48:20Z</time>
      </trkpt>
      <trkpt lat="43.3917960" lon="-1.6594930">
        <ele>22.0</ele>
        <time>2020-07-30T08:48:21Z</time>
      </trkpt>
      <trkpt lat="43.3917380" lon="-1.6594800">
        <ele>22.0</ele>
        <time>2020-07-30T08:48:22Z</time>
      </trkpt>
      <trkpt lat="43.3916380" lon="-1.6594570">
        <ele>22.2</ele>
        <time>2020-07-30T08:48:24Z</time>
      </trkpt>
      <trkpt lat="43.3915430" lon="-1.6594420">
        <ele>22.2</ele>
        <time>2020-07-30T08:48:26Z</time>
      </trkpt>
      <trkpt lat="43.3914430" lon="-1.6594150">
        <ele>22.4</ele>
        <time>2020-07-30T08:48:28Z</time>
      </trkpt>
      <trkpt lat="43.3911620" lon="-1.6593410">
        <ele>22.6</ele>
        <time>2020-07-30T08:48:34Z</time>
      </trkpt>
      <trkpt lat="43.3909300" lon="-1.6592810">
        <ele>22.8</ele>
        <time>2020-07-30T08:48:40Z</time>
      </trkpt>
      <trkpt lat="43.3908100" lon="-1.6592440">
        <ele>22.6</ele>
        <time>2020-07-30T08:48:43Z</time>
      </trkpt>
      <trkpt lat="43.3907640" lon="-1.6592360">
        <ele>22.6</ele>
        <time>2020-07-30T08:48:44Z</time>
      </trkpt>
      <trkpt lat="43.3905930" lon="-1.6591910">
        <ele>22.4</ele>
        <time>2020-07-30T08:48:48Z</time>
      </trkpt>
      <trkpt lat="43.3905120" lon="-1.6591560">
        <ele>22.4</ele>
        <time>2020-07-30T08:48:50Z</time>
      </trkpt>
      <trkpt lat="43.3904160" lon="-1.6591020">
        <ele>22.4</ele>
        <time>2020-07-30T08:48:52Z</time>
      </trkpt>
      <trkpt lat="43.3903260" lon="-1.6590450">
        <ele>22.4</ele>
        <time>2020-07-30T08:48:54Z</time>
      </trkpt>
      <trkpt lat="43.3900810" lon="-1.6589850">
        <ele>22.2</ele>
        <time>2020-07-30T08:49:00Z</time>
      </trkpt>
      <trkpt lat="43.3900380" lon="-1.6589560">
        <ele>22.0</ele>
        <time>2020-07-30T08:49:01Z</time>
      </trkpt>
      <trkpt lat="43.3899530" lon="-1.6589060">
        <ele>22.0</ele>
        <time>2020-07-30T08:49:03Z</time>
      </trkpt>
      <trkpt lat="43.3899170" lon="-1.6588750">
        <ele>21.8</ele>
        <time>2020-07-30T08:49:04Z</time>
      </trkpt>
      <trkpt lat="43.3898450" lon="-1.6587930">
        <ele>21.6</ele>
        <time>2020-07-30T08:49:06Z</time>
      </trkpt>
      <trkpt lat="43.3897430" lon="-1.6586590">
        <ele>21.2</ele>
        <time>2020-07-30T08:49:09Z</time>
      </trkpt>
      <trkpt lat="43.3896540" lon="-1.6584970">
        <ele>20.8</ele>
        <time>2020-07-30T08:49:12Z</time>
      </trkpt>
      <trkpt lat="43.3896210" lon="-1.6584520">
        <ele>20.6</ele>
        <time>2020-07-30T08:49:13Z</time>
      </trkpt>
      <trkpt lat="43.3895600" lon="-1.6583690">
        <ele>20.2</ele>
        <time>2020-07-30T08:49:15Z</time>
      </trkpt>
      <trkpt lat="43.3895010" lon="-1.6583090">
        <ele>20.0</ele>
        <time>2020-07-30T08:49:17Z</time>
      </trkpt>
      <trkpt lat="43.3893470" lon="-1.6581820">
        <ele>19.8</ele>
        <time>2020-07-30T08:49:23Z</time>
      </trkpt>
      <trkpt lat="43.3893160" lon="-1.6581610">
        <ele>20.0</ele>
        <time>2020-07-30T08:49:24Z</time>
      </trkpt>
      <trkpt lat="43.3892180" lon="-1.6581130">
        <ele>20.2</ele>
        <time>2020-07-30T08:49:27Z</time>
      </trkpt>
      <trkpt lat="43.3891290" lon="-1.6581060">
        <ele>20.4</ele>
        <time>2020-07-30T08:49:30Z</time>
      </trkpt>
      <trkpt lat="43.3890380" lon="-1.6581400">
        <ele>20.4</ele>
        <time>2020-07-30T08:49:33Z</time>
      </trkpt>
      <trkpt lat="43.3889730" lon="-1.6581820">
        <ele>20.4</ele>
        <time>2020-07-30T08:49:35Z</time>
      </trkpt>
      <trkpt lat="43.3889380" lon="-1.6582050">
        <ele>20.4</ele>
        <time>2020-07-30T08:49:36Z</time>
      </trkpt>
      <trkpt lat="43.3887570" lon="-1.6583830">
        <ele>20.0</ele>
        <time>2020-07-30T08:49:42Z</time>
      </trkpt>
      <trkpt lat="43.3886420" lon="-1.6585620">
        <ele>19.8</ele>
        <time>2020-07-30T08:49:48Z</time>
      </trkpt>
      <trkpt lat="43.3885410" lon="-1.6588500">
        <ele>19.4</ele>
        <time>2020-07-30T08:49:54Z</time>
      </trkpt>
      <trkpt lat="43.3885190" lon="-1.6589350">
        <ele>19.0</ele>
        <time>2020-07-30T08:49:57Z</time>
      </trkpt>
      <trkpt lat="43.3885160" lon="-1.6589450">
        <ele>19.0</ele>
        <time>2020-07-30T08:49:58Z</time>
      </trkpt>
      <trkpt lat="43.3885140" lon="-1.6589420">
        <ele>19.0</ele>
        <time>2020-07-30T08:50:00Z</time>
      </trkpt>
      <trkpt lat="43.3885690" lon="-1.6588490">
        <ele>18.4</ele>
        <time>2020-07-30T08:54:02Z</time>
      </trkpt>
      <trkpt lat="43.3885650" lon="-1.6588560">
        <ele>18.4</ele>
        <time>2020-07-30T08:54:03Z</time>
      </trkpt>
      <trkpt lat="43.3885650" lon="-1.6588570">
        <ele>18.4</ele>
        <time>2020-07-30T08:54:04Z</time>
      </trkpt>
      <trkpt lat="43.3885660" lon="-1.6588590">
        <ele>18.2</ele>
        <time>2020-07-30T08:54:08Z</time>
      </trkpt>
      <trkpt lat="43.3885650" lon="-1.6588540">
        <ele>18.2</ele>
        <time>2020-07-30T08:54:10Z</time>
      </trkpt>
      <trkpt lat="43.3885630" lon="-1.6588640">
        <ele>18.2</ele>
        <time>2020-07-30T08:54:13Z</time>
      </trkpt>
      <trkpt lat="43.3885480" lon="-1.6589230">
        <ele>18.2</ele>
        <time>2020-07-30T08:54:16Z</time>
      </trkpt>
      <trkpt lat="43.3885340" lon="-1.6589500">
        <ele>18.0</ele>
        <time>2020-07-30T08:54:17Z</time>
      </trkpt>
      <trkpt lat="43.3885050" lon="-1.6589890">
        <ele>18.0</ele>
        <time>2020-07-30T08:54:19Z</time>
      </trkpt>
      <trkpt lat="43.3884410" lon="-1.6590550">
        <ele>17.8</ele>
        <time>2020-07-30T08:54:22Z</time>
      </trkpt>
      <trkpt lat="43.3884050" lon="-1.6591740">
        <ele>18.0</ele>
        <time>2020-07-30T08:54:25Z</time>
      </trkpt>
      <trkpt lat="43.3883760" lon="-1.6592610">
        <ele>18.0</ele>
        <time>2020-07-30T08:54:27Z</time>
      </trkpt>
      <trkpt lat="43.3883610" lon="-1.6593040">
        <ele>18.0</ele>
        <time>2020-07-30T08:54:28Z</time>
      </trkpt>
      <trkpt lat="43.3882420" lon="-1.6595440">
        <ele>18.2</ele>
        <time>2020-07-30T08:54:34Z</time>
      </trkpt>
      <trkpt lat="43.3882050" lon="-1.6596170">
        <ele>18.2</ele>
        <time>2020-07-30T08:54:36Z</time>
      </trkpt>
      <trkpt lat="43.3881200" lon="-1.6598930">
        <ele>18.4</ele>
        <time>2020-07-30T08:54:42Z</time>
      </trkpt>
      <trkpt lat="43.3880920" lon="-1.6599210">
        <ele>18.4</ele>
        <time>2020-07-30T08:54:43Z</time>
      </trkpt>
      <trkpt lat="43.3880190" lon="-1.6601620">
        <ele>18.2</ele>
        <time>2020-07-30T08:54:48Z</time>
      </trkpt>
      <trkpt lat="43.3879800" lon="-1.6602510">
        <ele>18.4</ele>
        <time>2020-07-30T08:54:50Z</time>
      </trkpt>
      <trkpt lat="43.3879230" lon="-1.6603220">
        <ele>18.4</ele>
        <time>2020-07-30T08:54:52Z</time>
      </trkpt>
      <trkpt lat="43.3878720" lon="-1.6604010">
        <ele>18.6</ele>
        <time>2020-07-30T08:54:54Z</time>
      </trkpt>
      <trkpt lat="43.3877920" lon="-1.6606340">
        <ele>18.4</ele>
        <time>2020-07-30T08:55:00Z</time>
      </trkpt>
      <trkpt lat="43.3877390" lon="-1.6607500">
        <ele>18.4</ele>
        <time>2020-07-30T08:55:03Z</time>
      </trkpt>
      <trkpt lat="43.3877070" lon="-1.6608660">
        <ele>18.6</ele>
        <time>2020-07-30T08:55:06Z</time>
      </trkpt>
      <trkpt lat="43.3876960" lon="-1.6608990">
        <ele>18.6</ele>
        <time>2020-07-30T08:55:07Z</time>
      </trkpt>
      <trkpt lat="43.3876460" lon="-1.6610030">
        <ele>18.6</ele>
        <time>2020-07-30T08:55:10Z</time>
      </trkpt>
      <trkpt lat="43.3876030" lon="-1.6610980">
        <ele>18.6</ele>
        <time>2020-07-30T08:55:12Z</time>
      </trkpt>
      <trkpt lat="43.3875140" lon="-1.6613310">
        <ele>18.4</ele>
        <time>2020-07-30T08:55:16Z</time>
      </trkpt>
      <trkpt lat="43.3874990" lon="-1.6613780">
        <ele>18.4</ele>
        <time>2020-07-30T08:55:17Z</time>
      </trkpt>
      <trkpt lat="43.3874830" lon="-1.6614190">
        <ele>18.4</ele>
        <time>2020-07-30T08:55:18Z</time>
      </trkpt>
      <trkpt lat="43.3873850" lon="-1.6616780">
        <ele>18.6</ele>
        <time>2020-07-30T08:55:23Z</time>
      </trkpt>
      <trkpt lat="43.3873440" lon="-1.6618110">
        <ele>18.6</ele>
        <time>2020-07-30T08:55:25Z</time>
      </trkpt>
      <trkpt lat="43.3872310" lon="-1.6620830">
        <ele>18.2</ele>
        <time>2020-07-30T08:55:29Z</time>
      </trkpt>
      <trkpt lat="43.3872100" lon="-1.6621570">
        <ele>18.2</ele>
        <time>2020-07-30T08:55:30Z</time>
      </trkpt>
      <trkpt lat="43.3871530" lon="-1.6623760">
        <ele>18.4</ele>
        <time>2020-07-30T08:55:33Z</time>
      </trkpt>
      <trkpt lat="43.3871130" lon="-1.6625310">
        <ele>19.0</ele>
        <time>2020-07-30T08:55:36Z</time>
      </trkpt>
      <trkpt lat="43.3871020" lon="-1.6625720">
        <ele>19.2</ele>
        <time>2020-07-30T08:55:37Z</time>
      </trkpt>
      <trkpt lat="43.3870740" lon="-1.6626530">
        <ele>19.0</ele>
        <time>2020-07-30T08:55:39Z</time>
      </trkpt>
      <trkpt lat="43.3870140" lon="-1.6627900">
        <ele>19.0</ele>
        <time>2020-07-30T08:55:43Z</time>
      </trkpt>
      <trkpt lat="43.3870040" lon="-1.6628450">
        <ele>19.0</ele>
        <time>2020-07-30T08:55:46Z</time>
      </trkpt>
      <trkpt lat="43.3869950" lon="-1.6628890">
        <ele>19.2</ele>
        <time>2020-07-30T08:55:49Z</time>
      </trkpt>
      <trkpt lat="43.3869940" lon="-1.6629060">
        <ele>19.2</ele>
        <time>2020-07-30T08:55:52Z</time>
      </trkpt>
      <trkpt lat="43.3870000" lon="-1.6629170">
        <ele>19.2</ele>
        <time>2020-07-30T08:55:54Z</time>
      </trkpt>
      <trkpt lat="43.3869860" lon="-1.6629590">
        <ele>19.2</ele>
        <time>2020-07-30T08:55:56Z</time>
      </trkpt>
      <trkpt lat="43.3869490" lon="-1.6630570">
        <ele>19.0</ele>
        <time>2020-07-30T08:56:02Z</time>
      </trkpt>
      <trkpt lat="43.3869440" lon="-1.6630770">
        <ele>18.8</ele>
        <time>2020-07-30T08:56:03Z</time>
      </trkpt>
      <trkpt lat="43.3869090" lon="-1.6631600">
        <ele>19.0</ele>
        <time>2020-07-30T08:56:08Z</time>
      </trkpt>
      <trkpt lat="43.3868510" lon="-1.6632880">
        <ele>19.0</ele>
        <time>2020-07-30T08:56:12Z</time>
      </trkpt>
      <trkpt lat="43.3868200" lon="-1.6633060">
        <ele>19.0</ele>
        <time>2020-07-30T08:56:13Z</time>
      </trkpt>
      <trkpt lat="43.3867060" lon="-1.6632790">
        <ele>19.0</ele>
        <time>2020-07-30T08:56:16Z</time>
      </trkpt>
      <trkpt lat="43.3866670" lon="-1.6632450">
        <ele>19.2</ele>
        <time>2020-07-30T08:56:17Z</time>
      </trkpt>
      <trkpt lat="43.3866290" lon="-1.6632010">
        <ele>19.2</ele>
        <time>2020-07-30T08:56:18Z</time>
      </trkpt>
      <trkpt lat="43.3865960" lon="-1.6631470">
        <ele>19.4</ele>
        <time>2020-07-30T08:56:19Z</time>
      </trkpt>
      <trkpt lat="43.3865380" lon="-1.6630200">
        <ele>19.4</ele>
        <time>2020-07-30T08:56:21Z</time>
      </trkpt>
      <trkpt lat="43.3864120" lon="-1.6626620">
        <ele>19.8</ele>
        <time>2020-07-30T08:56:27Z</time>
      </trkpt>
      <trkpt lat="43.3863800" lon="-1.6625530">
        <ele>20.0</ele>
        <time>2020-07-30T08:56:30Z</time>
      </trkpt>
      <trkpt lat="43.3863350" lon="-1.6624710">
        <ele>20.2</ele>
        <time>2020-07-30T08:56:32Z</time>
      </trkpt>
      <trkpt lat="43.3862420" lon="-1.6623440">
        <ele>20.2</ele>
        <time>2020-07-30T08:56:35Z</time>
      </trkpt>
      <trkpt lat="43.3862040" lon="-1.6623080">
        <ele>20.4</ele>
        <time>2020-07-30T08:56:36Z</time>
      </trkpt>
      <trkpt lat="43.3861620" lon="-1.6622770">
        <ele>20.6</ele>
        <time>2020-07-30T08:56:37Z</time>
      </trkpt>
      <trkpt lat="43.3860170" lon="-1.6622370">
        <ele>20.8</ele>
        <time>2020-07-30T08:56:40Z</time>
      </trkpt>
      <trkpt lat="43.3859640" lon="-1.6622420">
        <ele>21.0</ele>
        <time>2020-07-30T08:56:41Z</time>
      </trkpt>
      <trkpt lat="43.3859130" lon="-1.6622560">
        <ele>21.0</ele>
        <time>2020-07-30T08:56:42Z</time>
      </trkpt>
      <trkpt lat="43.3858120" lon="-1.6623110">
        <ele>21.0</ele>
        <time>2020-07-30T08:56:44Z</time>
      </trkpt>
      <trkpt lat="43.3857650" lon="-1.6623490">
        <ele>21.0</ele>
        <time>2020-07-30T08:56:45Z</time>
      </trkpt>
      <trkpt lat="43.3857230" lon="-1.6623950">
        <ele>21.0</ele>
        <time>2020-07-30T08:56:46Z</time>
      </trkpt>
      <trkpt lat="43.3856500" lon="-1.6625090">
        <ele>21.0</ele>
        <time>2020-07-30T08:56:48Z</time>
      </trkpt>
      <trkpt lat="43.3856220" lon="-1.6625720">
        <ele>21.0</ele>
        <time>2020-07-30T08:56:49Z</time>
      </trkpt>
      <trkpt lat="43.3855960" lon="-1.6626370">
        <ele>21.0</ele>
        <time>2020-07-30T08:56:50Z</time>
      </trkpt>
      <trkpt lat="43.3855400" lon="-1.6627690">
        <ele>21.0</ele>
        <time>2020-07-30T08:56:52Z</time>
      </trkpt>
      <trkpt lat="43.3854850" lon="-1.6629060">
        <ele>21.2</ele>
        <time>2020-07-30T08:56:54Z</time>
      </trkpt>
      <trkpt lat="43.3853690" lon="-1.6631820">
        <ele>21.4</ele>
        <time>2020-07-30T08:56:58Z</time>
      </trkpt>
      <trkpt lat="43.3852020" lon="-1.6635870">
        <ele>21.8</ele>
        <time>2020-07-30T08:57:04Z</time>
      </trkpt>
      <trkpt lat="43.3850600" lon="-1.6639190">
        <ele>22.2</ele>
        <time>2020-07-30T08:57:09Z</time>
      </trkpt>
      <trkpt lat="43.3848880" lon="-1.6643310">
        <ele>22.6</ele>
        <time>2020-07-30T08:57:15Z</time>
      </trkpt>
      <trkpt lat="43.3847980" lon="-1.6645450">
        <ele>22.6</ele>
        <time>2020-07-30T08:57:18Z</time>
      </trkpt>
      <trkpt lat="43.3846710" lon="-1.6648330">
        <ele>22.0</ele>
        <time>2020-07-30T08:57:22Z</time>
      </trkpt>
      <trkpt lat="43.3845220" lon="-1.6651530">
        <ele>21.8</ele>
        <time>2020-07-30T08:57:27Z</time>
      </trkpt>
      <trkpt lat="43.3843860" lon="-1.6654620">
        <ele>21.6</ele>
        <time>2020-07-30T08:57:33Z</time>
      </trkpt>
      <trkpt lat="43.3843450" lon="-1.6656420">
        <ele>21.4</ele>
        <time>2020-07-30T08:57:36Z</time>
      </trkpt>
      <trkpt lat="43.3843510" lon="-1.6657710">
        <ele>21.4</ele>
        <time>2020-07-30T08:57:38Z</time>
      </trkpt>
      <trkpt lat="43.3843780" lon="-1.6658860">
        <ele>21.2</ele>
        <time>2020-07-30T08:57:40Z</time>
      </trkpt>
      <trkpt lat="43.3844180" lon="-1.6659670">
        <ele>21.2</ele>
        <time>2020-07-30T08:57:42Z</time>
      </trkpt>
      <trkpt lat="43.3845110" lon="-1.6661390">
        <ele>21.0</ele>
        <time>2020-07-30T08:57:48Z</time>
      </trkpt>
      <trkpt lat="43.3845920" lon="-1.6662390">
        <ele>20.6</ele>
        <time>2020-07-30T08:57:51Z</time>
      </trkpt>
      <trkpt lat="43.3846110" lon="-1.6662900">
        <ele>20.6</ele>
        <time>2020-07-30T08:57:52Z</time>
      </trkpt>
      <trkpt lat="43.3846080" lon="-1.6664120">
        <ele>20.4</ele>
        <time>2020-07-30T08:57:54Z</time>
      </trkpt>
      <trkpt lat="43.3845820" lon="-1.6664660">
        <ele>20.4</ele>
        <time>2020-07-30T08:57:55Z</time>
      </trkpt>
      <trkpt lat="43.3845470" lon="-1.6665060">
        <ele>20.4</ele>
        <time>2020-07-30T08:57:56Z</time>
      </trkpt>
      <trkpt lat="43.3844510" lon="-1.6665980">
        <ele>20.4</ele>
        <time>2020-07-30T08:57:59Z</time>
      </trkpt>
      <trkpt lat="43.3844230" lon="-1.6666220">
        <ele>20.4</ele>
        <time>2020-07-30T08:58:01Z</time>
      </trkpt>
      <trkpt lat="43.3844110" lon="-1.6666270">
        <ele>20.4</ele>
        <time>2020-07-30T08:58:03Z</time>
      </trkpt>
      <trkpt lat="43.3843860" lon="-1.6666570">
        <ele>20.6</ele>
        <time>2020-07-30T08:58:09Z</time>
      </trkpt>
      <trkpt lat="43.3843770" lon="-1.6666670">
        <ele>20.6</ele>
        <time>2020-07-30T08:58:10Z</time>
      </trkpt>
      <trkpt lat="43.3843520" lon="-1.6667010">
        <ele>20.6</ele>
        <time>2020-07-30T08:58:12Z</time>
      </trkpt>
      <trkpt lat="43.3842180" lon="-1.6668880">
        <ele>20.6</ele>
        <time>2020-07-30T08:58:17Z</time>
      </trkpt>
      <trkpt lat="43.3841510" lon="-1.6669890">
        <ele>20.6</ele>
        <time>2020-07-30T08:58:19Z</time>
      </trkpt>
      <trkpt lat="43.3841170" lon="-1.6670420">
        <ele>20.6</ele>
        <time>2020-07-30T08:58:20Z</time>
      </trkpt>
      <trkpt lat="43.3840500" lon="-1.6671470">
        <ele>20.4</ele>
        <time>2020-07-30T08:58:22Z</time>
      </trkpt>
      <trkpt lat="43.3839810" lon="-1.6672570">
        <ele>20.2</ele>
        <time>2020-07-30T08:58:24Z</time>
      </trkpt>
      <trkpt lat="43.3839440" lon="-1.6673120">
        <ele>20.2</ele>
        <time>2020-07-30T08:58:25Z</time>
      </trkpt>
      <trkpt lat="43.3838120" lon="-1.6674610">
        <ele>20.2</ele>
        <time>2020-07-30T08:58:28Z</time>
      </trkpt>
      <trkpt lat="43.3836580" lon="-1.6675710">
        <ele>20.2</ele>
        <time>2020-07-30T08:58:31Z</time>
      </trkpt>
      <trkpt lat="43.3833660" lon="-1.6676440">
        <ele>20.2</ele>
        <time>2020-07-30T08:58:36Z</time>
      </trkpt>
      <trkpt lat="43.3830150" lon="-1.6676750">
        <ele>20.0</ele>
        <time>2020-07-30T08:58:42Z</time>
      </trkpt>
      <trkpt lat="43.3828890" lon="-1.6676790">
        <ele>20.0</ele>
        <time>2020-07-30T08:58:44Z</time>
      </trkpt>
      <trkpt lat="43.3825240" lon="-1.6677040">
        <ele>20.6</ele>
        <time>2020-07-30T08:58:50Z</time>
      </trkpt>
      <trkpt lat="43.3821710" lon="-1.6677190">
        <ele>21.0</ele>
        <time>2020-07-30T08:58:56Z</time>
      </trkpt>
      <trkpt lat="43.3821140" lon="-1.6677260">
        <ele>21.0</ele>
        <time>2020-07-30T08:58:57Z</time>
      </trkpt>
      <trkpt lat="43.3820560" lon="-1.6677400">
        <ele>21.0</ele>
        <time>2020-07-30T08:58:58Z</time>
      </trkpt>
      <trkpt lat="43.3818280" lon="-1.6677710">
        <ele>21.0</ele>
        <time>2020-07-30T08:59:03Z</time>
      </trkpt>
      <trkpt lat="43.3816890" lon="-1.6677710">
        <ele>21.2</ele>
        <time>2020-07-30T08:59:07Z</time>
      </trkpt>
      <trkpt lat="43.3816460" lon="-1.6677860">
        <ele>21.4</ele>
        <time>2020-07-30T08:59:08Z</time>
      </trkpt>
      <trkpt lat="43.3815030" lon="-1.6678690">
        <ele>21.4</ele>
        <time>2020-07-30T08:59:11Z</time>
      </trkpt>
      <trkpt lat="43.3813990" lon="-1.6679360">
        <ele>21.4</ele>
        <time>2020-07-30T08:59:13Z</time>
      </trkpt>
      <trkpt lat="43.3811870" lon="-1.6680800">
        <ele>21.4</ele>
        <time>2020-07-30T08:59:17Z</time>
      </trkpt>
      <trkpt lat="43.3810290" lon="-1.6682040">
        <ele>21.4</ele>
        <time>2020-07-30T08:59:20Z</time>
      </trkpt>
      <trkpt lat="43.3809760" lon="-1.6682470">
        <ele>21.4</ele>
        <time>2020-07-30T08:59:21Z</time>
      </trkpt>
      <trkpt lat="43.3809250" lon="-1.6682920">
        <ele>21.4</ele>
        <time>2020-07-30T08:59:22Z</time>
      </trkpt>
      <trkpt lat="43.3806200" lon="-1.6685530">
        <ele>22.0</ele>
        <time>2020-07-30T08:59:28Z</time>
      </trkpt>
      <trkpt lat="43.3805730" lon="-1.6685970">
        <ele>22.0</ele>
        <time>2020-07-30T08:59:29Z</time>
      </trkpt>
      <trkpt lat="43.3803540" lon="-1.6687890">
        <ele>22.0</ele>
        <time>2020-07-30T08:59:34Z</time>
      </trkpt>
      <trkpt lat="43.3802700" lon="-1.6688650">
        <ele>22.0</ele>
        <time>2020-07-30T08:59:36Z</time>
      </trkpt>
      <trkpt lat="43.3799680" lon="-1.6691230">
        <ele>22.0</ele>
        <time>2020-07-30T08:59:42Z</time>
      </trkpt>
      <trkpt lat="43.3796340" lon="-1.6694200">
        <ele>21.8</ele>
        <time>2020-07-30T08:59:48Z</time>
      </trkpt>
      <trkpt lat="43.3794800" lon="-1.6695910">
        <ele>22.2</ele>
        <time>2020-07-30T08:59:51Z</time>
      </trkpt>
      <trkpt lat="43.3792830" lon="-1.6698330">
        <ele>22.4</ele>
        <time>2020-07-30T08:59:55Z</time>
      </trkpt>
      <trkpt lat="43.3789990" lon="-1.6702060">
        <ele>22.2</ele>
        <time>2020-07-30T09:00:01Z</time>
      </trkpt>
      <trkpt lat="43.3789040" lon="-1.6703300">
        <ele>22.2</ele>
        <time>2020-07-30T09:00:03Z</time>
      </trkpt>
      <trkpt lat="43.3787640" lon="-1.6705150">
        <ele>22.4</ele>
        <time>2020-07-30T09:00:06Z</time>
      </trkpt>
      <trkpt lat="43.3784930" lon="-1.6708860">
        <ele>22.8</ele>
        <time>2020-07-30T09:00:12Z</time>
      </trkpt>
      <trkpt lat="43.3784480" lon="-1.6709490">
        <ele>22.8</ele>
        <time>2020-07-30T09:00:13Z</time>
      </trkpt>
      <trkpt lat="43.3782700" lon="-1.6713010">
        <ele>23.2</ele>
        <time>2020-07-30T09:00:18Z</time>
      </trkpt>
      <trkpt lat="43.3782410" lon="-1.6713750">
        <ele>23.4</ele>
        <time>2020-07-30T09:00:19Z</time>
      </trkpt>
      <trkpt lat="43.3782180" lon="-1.6714540">
        <ele>23.4</ele>
        <time>2020-07-30T09:00:20Z</time>
      </trkpt>
      <trkpt lat="43.3781470" lon="-1.6716930">
        <ele>23.6</ele>
        <time>2020-07-30T09:00:23Z</time>
      </trkpt>
      <trkpt lat="43.3781220" lon="-1.6717730">
        <ele>23.8</ele>
        <time>2020-07-30T09:00:24Z</time>
      </trkpt>
      <trkpt lat="43.3780740" lon="-1.6719300">
        <ele>24.0</ele>
        <time>2020-07-30T09:00:26Z</time>
      </trkpt>
      <trkpt lat="43.3779860" lon="-1.6722540">
        <ele>24.8</ele>
        <time>2020-07-30T09:00:30Z</time>
      </trkpt>
      <trkpt lat="43.3778510" lon="-1.6727280">
        <ele>24.8</ele>
        <time>2020-07-30T09:00:36Z</time>
      </trkpt>
      <trkpt lat="43.3778080" lon="-1.6728820">
        <ele>24.8</ele>
        <time>2020-07-30T09:00:38Z</time>
      </trkpt>
      <trkpt lat="43.3777330" lon="-1.6731660">
        <ele>26.0</ele>
        <time>2020-07-30T09:00:42Z</time>
      </trkpt>
      <trkpt lat="43.3776930" lon="-1.6733000">
        <ele>27.0</ele>
        <time>2020-07-30T09:00:44Z</time>
      </trkpt>
      <trkpt lat="43.3776720" lon="-1.6733670">
        <ele>27.2</ele>
        <time>2020-07-30T09:00:45Z</time>
      </trkpt>
      <trkpt lat="43.3776310" lon="-1.6735010">
        <ele>27.8</ele>
        <time>2020-07-30T09:00:47Z</time>
      </trkpt>
      <trkpt lat="43.3775860" lon="-1.6736290">
        <ele>28.4</ele>
        <time>2020-07-30T09:00:49Z</time>
      </trkpt>
      <trkpt lat="43.3775360" lon="-1.6737530">
        <ele>29.0</ele>
        <time>2020-07-30T09:00:51Z</time>
      </trkpt>
      <trkpt lat="43.3774790" lon="-1.6738750">
        <ele>29.6</ele>
        <time>2020-07-30T09:00:53Z</time>
      </trkpt>
      <trkpt lat="43.3774490" lon="-1.6739350">
        <ele>29.6</ele>
        <time>2020-07-30T09:00:54Z</time>
      </trkpt>
      <trkpt lat="43.3773520" lon="-1.6741110">
        <ele>30.6</ele>
        <time>2020-07-30T09:00:57Z</time>
      </trkpt>
      <trkpt lat="43.3772150" lon="-1.6743300">
        <ele>31.2</ele>
        <time>2020-07-30T09:01:01Z</time>
      </trkpt>
      <trkpt lat="43.3771490" lon="-1.6744370">
        <ele>31.8</ele>
        <time>2020-07-30T09:01:03Z</time>
      </trkpt>
      <trkpt lat="43.3770820" lon="-1.6745480">
        <ele>32.2</ele>
        <time>2020-07-30T09:01:05Z</time>
      </trkpt>
      <trkpt lat="43.3769870" lon="-1.6747110">
        <ele>32.8</ele>
        <time>2020-07-30T09:01:08Z</time>
      </trkpt>
      <trkpt lat="43.3768880" lon="-1.6748760">
        <ele>33.6</ele>
        <time>2020-07-30T09:01:11Z</time>
      </trkpt>
      <trkpt lat="43.3768560" lon="-1.6749290">
        <ele>33.8</ele>
        <time>2020-07-30T09:01:12Z</time>
      </trkpt>
      <trkpt lat="43.3767880" lon="-1.6750350">
        <ele>34.2</ele>
        <time>2020-07-30T09:01:14Z</time>
      </trkpt>
      <trkpt lat="43.3766900" lon="-1.6751840">
        <ele>34.8</ele>
        <time>2020-07-30T09:01:17Z</time>
      </trkpt>
      <trkpt lat="43.3766340" lon="-1.6752750">
        <ele>35.4</ele>
        <time>2020-07-30T09:01:19Z</time>
      </trkpt>
      <trkpt lat="43.3766060" lon="-1.6753190">
        <ele>36.0</ele>
        <time>2020-07-30T09:01:20Z</time>
      </trkpt>
      <trkpt lat="43.3765500" lon="-1.6754080">
        <ele>36.4</ele>
        <time>2020-07-30T09:01:22Z</time>
      </trkpt>
      <trkpt lat="43.3765210" lon="-1.6754500">
        <ele>36.6</ele>
        <time>2020-07-30T09:01:23Z</time>
      </trkpt>
      <trkpt lat="43.3764690" lon="-1.6755410">
        <ele>37.0</ele>
        <time>2020-07-30T09:01:25Z</time>
      </trkpt>
      <trkpt lat="43.3764220" lon="-1.6756360">
        <ele>37.6</ele>
        <time>2020-07-30T09:01:27Z</time>
      </trkpt>
      <trkpt lat="43.3763380" lon="-1.6758560">
        <ele>38.2</ele>
        <time>2020-07-30T09:01:31Z</time>
      </trkpt>
      <trkpt lat="43.3762870" lon="-1.6760310">
        <ele>39.0</ele>
        <time>2020-07-30T09:01:34Z</time>
      </trkpt>
      <trkpt lat="43.3762680" lon="-1.6760920">
        <ele>39.2</ele>
        <time>2020-07-30T09:01:35Z</time>
      </trkpt>
      <trkpt lat="43.3761800" lon="-1.6764510">
        <ele>40.6</ele>
        <time>2020-07-30T09:01:41Z</time>
      </trkpt>
      <trkpt lat="43.3761450" lon="-1.6765730">
        <ele>41.2</ele>
        <time>2020-07-30T09:01:43Z</time>
      </trkpt>
      <trkpt lat="43.3761250" lon="-1.6766330">
        <ele>41.4</ele>
        <time>2020-07-30T09:01:44Z</time>
      </trkpt>
      <trkpt lat="43.3760850" lon="-1.6767520">
        <ele>41.6</ele>
        <time>2020-07-30T09:01:46Z</time>
      </trkpt>
      <trkpt lat="43.3760270" lon="-1.6769220">
        <ele>42.0</ele>
        <time>2020-07-30T09:01:49Z</time>
      </trkpt>
      <trkpt lat="43.3759420" lon="-1.6771260">
        <ele>42.6</ele>
        <time>2020-07-30T09:01:54Z</time>
      </trkpt>
      <trkpt lat="43.3759230" lon="-1.6771580">
        <ele>42.8</ele>
        <time>2020-07-30T09:01:55Z</time>
      </trkpt>
      <trkpt lat="43.3758510" lon="-1.6772920">
        <ele>42.8</ele>
        <time>2020-07-30T09:02:01Z</time>
      </trkpt>
      <trkpt lat="43.3758470" lon="-1.6772900">
        <ele>42.8</ele>
        <time>2020-07-30T09:02:07Z</time>
      </trkpt>
      <trkpt lat="43.3758480" lon="-1.6772940">
        <ele>42.8</ele>
        <time>2020-07-30T09:02:11Z</time>
      </trkpt>
      <trkpt lat="43.3758460" lon="-1.6772930">
        <ele>42.8</ele>
        <time>2020-07-30T09:02:16Z</time>
      </trkpt>
      <trkpt lat="43.3758460" lon="-1.6772910">
        <ele>42.8</ele>
        <time>2020-07-30T09:02:19Z</time>
      </trkpt>
      <trkpt lat="43.3758480" lon="-1.6772900">
        <ele>42.6</ele>
        <time>2020-07-30T09:02:23Z</time>
      </trkpt>
      <trkpt lat="43.3758520" lon="-1.6772850">
        <ele>42.6</ele>
        <time>2020-07-30T09:02:27Z</time>
      </trkpt>
      <trkpt lat="43.3758540" lon="-1.6772840">
        <ele>42.8</ele>
        <time>2020-07-30T09:02:32Z</time>
      </trkpt>
      <trkpt lat="43.3758590" lon="-1.6772820">
        <ele>43.2</ele>
        <time>2020-07-30T09:02:38Z</time>
      </trkpt>
      <trkpt lat="43.3758620" lon="-1.6772780">
        <ele>43.4</ele>
        <time>2020-07-30T09:02:40Z</time>
      </trkpt>
      <trkpt lat="43.3758620" lon="-1.6772790">
        <ele>43.4</ele>
        <time>2020-07-30T09:02:43Z</time>
      </trkpt>
      <trkpt lat="43.3758380" lon="-1.6773080">
        <ele>43.4</ele>
        <time>2020-07-30T09:02:45Z</time>
      </trkpt>
      <trkpt lat="43.3758170" lon="-1.6773400">
        <ele>43.2</ele>
        <time>2020-07-30T09:02:47Z</time>
      </trkpt>
      <trkpt lat="43.3757820" lon="-1.6773900">
        <ele>43.2</ele>
        <time>2020-07-30T09:02:49Z</time>
      </trkpt>
      <trkpt lat="43.3757580" lon="-1.6774250">
        <ele>43.2</ele>
        <time>2020-07-30T09:02:50Z</time>
      </trkpt>
      <trkpt lat="43.3756180" lon="-1.6776200">
        <ele>43.0</ele>
        <time>2020-07-30T09:02:54Z</time>
      </trkpt>
      <trkpt lat="43.3753470" lon="-1.6779870">
        <ele>41.6</ele>
        <time>2020-07-30T09:03:00Z</time>
      </trkpt>
      <trkpt lat="43.3752970" lon="-1.6780540">
        <ele>41.4</ele>
        <time>2020-07-30T09:03:01Z</time>
      </trkpt>
      <trkpt lat="43.3751450" lon="-1.6782610">
        <ele>41.0</ele>
        <time>2020-07-30T09:03:04Z</time>
      </trkpt>
      <trkpt lat="43.3749770" lon="-1.6784720">
        <ele>40.4</ele>
        <time>2020-07-30T09:03:07Z</time>
      </trkpt>
      <trkpt lat="43.3748560" lon="-1.6786260">
        <ele>40.0</ele>
        <time>2020-07-30T09:03:09Z</time>
      </trkpt>
      <trkpt lat="43.3747230" lon="-1.6787830">
        <ele>39.4</ele>
        <time>2020-07-30T09:03:11Z</time>
      </trkpt>
      <trkpt lat="43.3744310" lon="-1.6790880">
        <ele>38.2</ele>
        <time>2020-07-30T09:03:15Z</time>
      </trkpt>
      <trkpt lat="43.3743550" lon="-1.6791610">
        <ele>37.8</ele>
        <time>2020-07-30T09:03:16Z</time>
      </trkpt>
      <trkpt lat="43.3742030" lon="-1.6793050">
        <ele>37.0</ele>
        <time>2020-07-30T09:03:18Z</time>
      </trkpt>
      <trkpt lat="43.3738380" lon="-1.6796500">
        <ele>36.0</ele>
        <time>2020-07-30T09:03:23Z</time>
      </trkpt>
      <trkpt lat="43.3737020" lon="-1.6797870">
        <ele>36.0</ele>
        <time>2020-07-30T09:03:25Z</time>
      </trkpt>
      <trkpt lat="43.3733140" lon="-1.6801720">
        <ele>35.6</ele>
        <time>2020-07-30T09:03:31Z</time>
      </trkpt>
      <trkpt lat="43.3731890" lon="-1.6802900">
        <ele>35.8</ele>
        <time>2020-07-30T09:03:33Z</time>
      </trkpt>
      <trkpt lat="43.3730690" lon="-1.6804080">
        <ele>35.8</ele>
        <time>2020-07-30T09:03:35Z</time>
      </trkpt>
      <trkpt lat="43.3729490" lon="-1.6805230">
        <ele>35.8</ele>
        <time>2020-07-30T09:03:37Z</time>
      </trkpt>
      <trkpt lat="43.3728290" lon="-1.6806410">
        <ele>35.8</ele>
        <time>2020-07-30T09:03:39Z</time>
      </trkpt>
      <trkpt lat="43.3727740" lon="-1.6807070">
        <ele>35.6</ele>
        <time>2020-07-30T09:03:40Z</time>
      </trkpt>
      <trkpt lat="43.3727270" lon="-1.6807820">
        <ele>35.6</ele>
        <time>2020-07-30T09:03:41Z</time>
      </trkpt>
      <trkpt lat="43.3726880" lon="-1.6808650">
        <ele>35.8</ele>
        <time>2020-07-30T09:03:42Z</time>
      </trkpt>
      <trkpt lat="43.3726320" lon="-1.6810270">
        <ele>35.8</ele>
        <time>2020-07-30T09:03:44Z</time>
      </trkpt>
      <trkpt lat="43.3726180" lon="-1.6810840">
        <ele>36.0</ele>
        <time>2020-07-30T09:03:45Z</time>
      </trkpt>
      <trkpt lat="43.3726030" lon="-1.6811340">
        <ele>36.2</ele>
        <time>2020-07-30T09:03:48Z</time>
      </trkpt>
      <trkpt lat="43.3726040" lon="-1.6811330">
        <ele>36.6</ele>
        <time>2020-07-30T09:03:53Z</time>
      </trkpt>
      <trkpt lat="43.3726080" lon="-1.6811230">
        <ele>36.4</ele>
        <time>2020-07-30T09:03:59Z</time>
      </trkpt>
      <trkpt lat="43.3726120" lon="-1.6811180">
        <ele>36.2</ele>
        <time>2020-07-30T09:04:03Z</time>
      </trkpt>
      <trkpt lat="43.3725930" lon="-1.6811420">
        <ele>36.0</ele>
        <time>2020-07-30T09:04:05Z</time>
      </trkpt>
      <trkpt lat="43.3725620" lon="-1.6811800">
        <ele>35.6</ele>
        <time>2020-07-30T09:04:08Z</time>
      </trkpt>
      <trkpt lat="43.3725520" lon="-1.6812030">
        <ele>35.6</ele>
        <time>2020-07-30T09:04:09Z</time>
      </trkpt>
      <trkpt lat="43.3725030" lon="-1.6814050">
        <ele>35.6</ele>
        <time>2020-07-30T09:04:13Z</time>
      </trkpt>
      <trkpt lat="43.3724280" lon="-1.6815030">
        <ele>35.6</ele>
        <time>2020-07-30T09:04:15Z</time>
      </trkpt>
      <trkpt lat="43.3723810" lon="-1.6815320">
        <ele>35.6</ele>
        <time>2020-07-30T09:04:16Z</time>
      </trkpt>
      <trkpt lat="43.3723290" lon="-1.6815520">
        <ele>35.6</ele>
        <time>2020-07-30T09:04:17Z</time>
      </trkpt>
      <trkpt lat="43.3722260" lon="-1.6815670">
        <ele>35.6</ele>
        <time>2020-07-30T09:04:19Z</time>
      </trkpt>
      <trkpt lat="43.3721730" lon="-1.6815690">
        <ele>35.6</ele>
        <time>2020-07-30T09:04:20Z</time>
      </trkpt>
      <trkpt lat="43.3721220" lon="-1.6815750">
        <ele>35.6</ele>
        <time>2020-07-30T09:04:21Z</time>
      </trkpt>
      <trkpt lat="43.3720390" lon="-1.6816210">
        <ele>35.8</ele>
        <time>2020-07-30T09:04:23Z</time>
      </trkpt>
      <trkpt lat="43.3717970" lon="-1.6816600">
        <ele>35.8</ele>
        <time>2020-07-30T09:04:28Z</time>
      </trkpt>
      <trkpt lat="43.3717470" lon="-1.6816760">
        <ele>35.6</ele>
        <time>2020-07-30T09:04:29Z</time>
      </trkpt>
      <trkpt lat="43.3716960" lon="-1.6816960">
        <ele>35.4</ele>
        <time>2020-07-30T09:04:30Z</time>
      </trkpt>
      <trkpt lat="43.3716500" lon="-1.6817250">
        <ele>35.4</ele>
        <time>2020-07-30T09:04:31Z</time>
      </trkpt>
      <trkpt lat="43.3715220" lon="-1.6818090">
        <ele>35.0</ele>
        <time>2020-07-30T09:04:34Z</time>
      </trkpt>
      <trkpt lat="43.3713810" lon="-1.6819000">
        <ele>34.2</ele>
        <time>2020-07-30T09:04:38Z</time>
      </trkpt>
      <trkpt lat="43.3713030" lon="-1.6819570">
        <ele>34.0</ele>
        <time>2020-07-30T09:04:40Z</time>
      </trkpt>
      <trkpt lat="43.3710920" lon="-1.6821020">
        <ele>32.4</ele>
        <time>2020-07-30T09:04:44Z</time>
      </trkpt>
      <trkpt lat="43.3709650" lon="-1.6821900">
        <ele>31.4</ele>
        <time>2020-07-30T09:04:46Z</time>
      </trkpt>
      <trkpt lat="43.3707740" lon="-1.6823260">
        <ele>30.0</ele>
        <time>2020-07-30T09:04:49Z</time>
      </trkpt>
      <trkpt lat="43.3706470" lon="-1.6824160">
        <ele>28.8</ele>
        <time>2020-07-30T09:04:51Z</time>
      </trkpt>
      <trkpt lat="43.3704960" lon="-1.6825370">
        <ele>27.6</ele>
        <time>2020-07-30T09:04:54Z</time>
      </trkpt>
      <trkpt lat="43.3702940" lon="-1.6826720">
        <ele>26.6</ele>
        <time>2020-07-30T09:04:59Z</time>
      </trkpt>
      <trkpt lat="43.3702490" lon="-1.6826980">
        <ele>26.4</ele>
        <time>2020-07-30T09:05:00Z</time>
      </trkpt>
      <trkpt lat="43.3701070" lon="-1.6828000">
        <ele>25.4</ele>
        <time>2020-07-30T09:05:03Z</time>
      </trkpt>
      <trkpt lat="43.3700480" lon="-1.6828440">
        <ele>25.2</ele>
        <time>2020-07-30T09:05:04Z</time>
      </trkpt>
      <trkpt lat="43.3699240" lon="-1.6829350">
        <ele>25.0</ele>
        <time>2020-07-30T09:05:06Z</time>
      </trkpt>
      <trkpt lat="43.3698670" lon="-1.6829800">
        <ele>25.0</ele>
        <time>2020-07-30T09:05:07Z</time>
      </trkpt>
      <trkpt lat="43.3698140" lon="-1.6830240">
        <ele>24.8</ele>
        <time>2020-07-30T09:05:08Z</time>
      </trkpt>
      <trkpt lat="43.3697140" lon="-1.6831040">
        <ele>25.0</ele>
        <time>2020-07-30T09:05:10Z</time>
      </trkpt>
      <trkpt lat="43.3696130" lon="-1.6831850">
        <ele>25.2</ele>
        <time>2020-07-30T09:05:12Z</time>
      </trkpt>
      <trkpt lat="43.3693830" lon="-1.6834220">
        <ele>25.2</ele>
        <time>2020-07-30T09:05:17Z</time>
      </trkpt>
      <trkpt lat="43.3693030" lon="-1.6835250">
        <ele>25.8</ele>
        <time>2020-07-30T09:05:19Z</time>
      </trkpt>
      <trkpt lat="43.3692650" lon="-1.6835780">
        <ele>26.0</ele>
        <time>2020-07-30T09:05:20Z</time>
      </trkpt>
      <trkpt lat="43.3691620" lon="-1.6837510">
        <ele>26.4</ele>
        <time>2020-07-30T09:05:23Z</time>
      </trkpt>
      <trkpt lat="43.3691050" lon="-1.6838700">
        <ele>26.6</ele>
        <time>2020-07-30T09:05:25Z</time>
      </trkpt>
      <trkpt lat="43.3690540" lon="-1.6839950">
        <ele>26.8</ele>
        <time>2020-07-30T09:05:27Z</time>
      </trkpt>
      <trkpt lat="43.3689790" lon="-1.6842400">
        <ele>27.4</ele>
        <time>2020-07-30T09:05:31Z</time>
      </trkpt>
      <trkpt lat="43.3689610" lon="-1.6842970">
        <ele>27.6</ele>
        <time>2020-07-30T09:05:32Z</time>
      </trkpt>
      <trkpt lat="43.3689450" lon="-1.6845440">
        <ele>28.4</ele>
        <time>2020-07-30T09:05:37Z</time>
      </trkpt>
      <trkpt lat="43.3689340" lon="-1.6846340">
        <ele>28.8</ele>
        <time>2020-07-30T09:05:39Z</time>
      </trkpt>
      <trkpt lat="43.3689030" lon="-1.6847320">
        <ele>28.8</ele>
        <time>2020-07-30T09:05:41Z</time>
      </trkpt>
      <trkpt lat="43.3688660" lon="-1.6848210">
        <ele>28.8</ele>
        <time>2020-07-30T09:05:43Z</time>
      </trkpt>
      <trkpt lat="43.3688390" lon="-1.6848400">
        <ele>29.0</ele>
        <time>2020-07-30T09:05:44Z</time>
      </trkpt>
      <trkpt lat="43.3688030" lon="-1.6848490">
        <ele>29.0</ele>
        <time>2020-07-30T09:05:45Z</time>
      </trkpt>
      <trkpt lat="43.3687710" lon="-1.6848730">
        <ele>29.2</ele>
        <time>2020-07-30T09:05:46Z</time>
      </trkpt>
      <trkpt lat="43.3687250" lon="-1.6849750">
        <ele>29.4</ele>
        <time>2020-07-30T09:05:48Z</time>
      </trkpt>
      <trkpt lat="43.3687040" lon="-1.6850390">
        <ele>29.6</ele>
        <time>2020-07-30T09:05:49Z</time>
      </trkpt>
      <trkpt lat="43.3686350" lon="-1.6852440">
        <ele>29.6</ele>
        <time>2020-07-30T09:05:52Z</time>
      </trkpt>
      <trkpt lat="43.3685470" lon="-1.6854640">
        <ele>29.2</ele>
        <time>2020-07-30T09:05:55Z</time>
      </trkpt>
      <trkpt lat="43.3684350" lon="-1.6856820">
        <ele>28.6</ele>
        <time>2020-07-30T09:05:58Z</time>
      </trkpt>
      <trkpt lat="43.3682710" lon="-1.6859590">
        <ele>27.8</ele>
        <time>2020-07-30T09:06:02Z</time>
      </trkpt>
      <trkpt lat="43.3681270" lon="-1.6861630">
        <ele>27.4</ele>
        <time>2020-07-30T09:06:05Z</time>
      </trkpt>
      <trkpt lat="43.3680760" lon="-1.6862260">
        <ele>27.4</ele>
        <time>2020-07-30T09:06:06Z</time>
      </trkpt>
      <trkpt lat="43.3679650" lon="-1.6863400">
        <ele>27.2</ele>
        <time>2020-07-30T09:06:08Z</time>
      </trkpt>
      <trkpt lat="43.3678540" lon="-1.6864380">
        <ele>27.2</ele>
        <time>2020-07-30T09:06:10Z</time>
      </trkpt>
      <trkpt lat="43.3677470" lon="-1.6865180">
        <ele>27.2</ele>
        <time>2020-07-30T09:06:12Z</time>
      </trkpt>
      <trkpt lat="43.3676330" lon="-1.6865990">
        <ele>27.0</ele>
        <time>2020-07-30T09:06:14Z</time>
      </trkpt>
      <trkpt lat="43.3674180" lon="-1.6867430">
        <ele>26.8</ele>
        <time>2020-07-30T09:06:18Z</time>
      </trkpt>
      <trkpt lat="43.3672570" lon="-1.6868470">
        <ele>26.8</ele>
        <time>2020-07-30T09:06:21Z</time>
      </trkpt>
      <trkpt lat="43.3671990" lon="-1.6868830">
        <ele>26.8</ele>
        <time>2020-07-30T09:06:22Z</time>
      </trkpt>
      <trkpt lat="43.3669660" lon="-1.6870260">
        <ele>26.4</ele>
        <time>2020-07-30T09:06:26Z</time>
      </trkpt>
      <trkpt lat="43.3667760" lon="-1.6871560">
        <ele>26.2</ele>
        <time>2020-07-30T09:06:29Z</time>
      </trkpt>
      <trkpt lat="43.3664480" lon="-1.6873770">
        <ele>26.6</ele>
        <time>2020-07-30T09:06:34Z</time>
      </trkpt>
      <trkpt lat="43.3662620" lon="-1.6875370">
        <ele>26.6</ele>
        <time>2020-07-30T09:06:37Z</time>
      </trkpt>
      <trkpt lat="43.3661020" lon="-1.6877180">
        <ele>27.0</ele>
        <time>2020-07-30T09:06:40Z</time>
      </trkpt>
      <trkpt lat="43.3660170" lon="-1.6878540">
        <ele>27.4</ele>
        <time>2020-07-30T09:06:42Z</time>
      </trkpt>
      <trkpt lat="43.3659380" lon="-1.6879670">
        <ele>28.6</ele>
        <time>2020-07-30T09:06:44Z</time>
      </trkpt>
      <trkpt lat="43.3658360" lon="-1.6881040">
        <ele>29.8</ele>
        <time>2020-07-30T09:06:47Z</time>
      </trkpt>
      <trkpt lat="43.3657520" lon="-1.6882190">
        <ele>30.8</ele>
        <time>2020-07-30T09:06:50Z</time>
      </trkpt>
      <trkpt lat="43.3657010" lon="-1.6882950">
        <ele>31.6</ele>
        <time>2020-07-30T09:06:52Z</time>
      </trkpt>
      <trkpt lat="43.3656740" lon="-1.6883320">
        <ele>32.0</ele>
        <time>2020-07-30T09:06:53Z</time>
      </trkpt>
      <trkpt lat="43.3655490" lon="-1.6884910">
        <ele>33.2</ele>
        <time>2020-07-30T09:06:57Z</time>
      </trkpt>
      <trkpt lat="43.3654790" lon="-1.6885730">
        <ele>33.4</ele>
        <time>2020-07-30T09:06:59Z</time>
      </trkpt>
      <trkpt lat="43.3653120" lon="-1.6888030">
        <ele>34.4</ele>
        <time>2020-07-30T09:07:04Z</time>
      </trkpt>
      <trkpt lat="43.3652760" lon="-1.6888540">
        <ele>34.6</ele>
        <time>2020-07-30T09:07:05Z</time>
      </trkpt>
      <trkpt lat="43.3652430" lon="-1.6889080">
        <ele>34.8</ele>
        <time>2020-07-30T09:07:06Z</time>
      </trkpt>
      <trkpt lat="43.3651660" lon="-1.6890050">
        <ele>35.2</ele>
        <time>2020-07-30T09:07:08Z</time>
      </trkpt>
      <trkpt lat="43.3650880" lon="-1.6890990">
        <ele>35.4</ele>
        <time>2020-07-30T09:07:10Z</time>
      </trkpt>
      <trkpt lat="43.3650220" lon="-1.6891860">
        <ele>35.6</ele>
        <time>2020-07-30T09:07:12Z</time>
      </trkpt>
      <trkpt lat="43.3649730" lon="-1.6892750">
        <ele>36.0</ele>
        <time>2020-07-30T09:07:14Z</time>
      </trkpt>
      <trkpt lat="43.3649430" lon="-1.6893200">
        <ele>36.2</ele>
        <time>2020-07-30T09:07:15Z</time>
      </trkpt>
      <trkpt lat="43.3649100" lon="-1.6893660">
        <ele>36.2</ele>
        <time>2020-07-30T09:07:16Z</time>
      </trkpt>
      <trkpt lat="43.3648760" lon="-1.6894150">
        <ele>36.4</ele>
        <time>2020-07-30T09:07:17Z</time>
      </trkpt>
      <trkpt lat="43.3646270" lon="-1.6897380">
        <ele>36.6</ele>
        <time>2020-07-30T09:07:23Z</time>
      </trkpt>
      <trkpt lat="43.3644510" lon="-1.6899750">
        <ele>36.6</ele>
        <time>2020-07-30T09:07:27Z</time>
      </trkpt>
      <trkpt lat="43.3642550" lon="-1.6902200">
        <ele>36.0</ele>
        <time>2020-07-30T09:07:31Z</time>
      </trkpt>
      <trkpt lat="43.3641190" lon="-1.6904440">
        <ele>35.4</ele>
        <time>2020-07-30T09:07:34Z</time>
      </trkpt>
      <trkpt lat="43.3640340" lon="-1.6906060">
        <ele>34.6</ele>
        <time>2020-07-30T09:07:36Z</time>
      </trkpt>
      <trkpt lat="43.3639930" lon="-1.6906920">
        <ele>34.2</ele>
        <time>2020-07-30T09:07:37Z</time>
      </trkpt>
      <trkpt lat="43.3638430" lon="-1.6910470">
        <ele>32.8</ele>
        <time>2020-07-30T09:07:41Z</time>
      </trkpt>
      <trkpt lat="43.3637790" lon="-1.6912310">
        <ele>32.2</ele>
        <time>2020-07-30T09:07:43Z</time>
      </trkpt>
      <trkpt lat="43.3637230" lon="-1.6914220">
        <ele>31.6</ele>
        <time>2020-07-30T09:07:45Z</time>
      </trkpt>
      <trkpt lat="43.3636410" lon="-1.6917020">
        <ele>30.6</ele>
        <time>2020-07-30T09:07:48Z</time>
      </trkpt>
      <trkpt lat="43.3635870" lon="-1.6918910">
        <ele>29.8</ele>
        <time>2020-07-30T09:07:50Z</time>
      </trkpt>
      <trkpt lat="43.3635620" lon="-1.6919810">
        <ele>29.4</ele>
        <time>2020-07-30T09:07:51Z</time>
      </trkpt>
      <trkpt lat="43.3634370" lon="-1.6923840">
        <ele>28.4</ele>
        <time>2020-07-30T09:07:56Z</time>
      </trkpt>
      <trkpt lat="43.3633970" lon="-1.6925190">
        <ele>28.8</ele>
        <time>2020-07-30T09:07:59Z</time>
      </trkpt>
      <trkpt lat="43.3633830" lon="-1.6925690">
        <ele>29.2</ele>
        <time>2020-07-30T09:08:03Z</time>
      </trkpt>
      <trkpt lat="43.3633620" lon="-1.6925880">
        <ele>29.4</ele>
        <time>2020-07-30T09:08:05Z</time>
      </trkpt>
      <trkpt lat="43.3633300" lon="-1.6925900">
        <ele>29.6</ele>
        <time>2020-07-30T09:08:07Z</time>
      </trkpt>
      <trkpt lat="43.3633160" lon="-1.6925700">
        <ele>29.8</ele>
        <time>2020-07-30T09:08:08Z</time>
      </trkpt>
      <trkpt lat="43.3632210" lon="-1.6924500">
        <ele>30.2</ele>
        <time>2020-07-30T09:08:12Z</time>
      </trkpt>
      <trkpt lat="43.3632070" lon="-1.6924430">
        <ele>30.4</ele>
        <time>2020-07-30T09:08:13Z</time>
      </trkpt>
      <trkpt lat="43.3631510" lon="-1.6924380">
        <ele>30.6</ele>
        <time>2020-07-30T09:08:16Z</time>
      </trkpt>
      <trkpt lat="43.3630400" lon="-1.6924910">
        <ele>30.6</ele>
        <time>2020-07-30T09:08:19Z</time>
      </trkpt>
      <trkpt lat="43.3630020" lon="-1.6925280">
        <ele>30.4</ele>
        <time>2020-07-30T09:08:20Z</time>
      </trkpt>
      <trkpt lat="43.3629710" lon="-1.6925780">
        <ele>30.2</ele>
        <time>2020-07-30T09:08:21Z</time>
      </trkpt>
      <trkpt lat="43.3629320" lon="-1.6927190">
        <ele>30.2</ele>
        <time>2020-07-30T09:08:23Z</time>
      </trkpt>
      <trkpt lat="43.3629000" lon="-1.6931480">
        <ele>29.8</ele>
        <time>2020-07-30T09:08:28Z</time>
      </trkpt>
      <trkpt lat="43.3628610" lon="-1.6934110">
        <ele>29.8</ele>
        <time>2020-07-30T09:08:31Z</time>
      </trkpt>
      <trkpt lat="43.3628080" lon="-1.6935860">
        <ele>29.6</ele>
        <time>2020-07-30T09:08:33Z</time>
      </trkpt>
      <trkpt lat="43.3627450" lon="-1.6937510">
        <ele>29.6</ele>
        <time>2020-07-30T09:08:35Z</time>
      </trkpt>
      <trkpt lat="43.3625860" lon="-1.6941570">
        <ele>30.0</ele>
        <time>2020-07-30T09:08:40Z</time>
      </trkpt>
      <trkpt lat="43.3625510" lon="-1.6942390">
        <ele>30.2</ele>
        <time>2020-07-30T09:08:41Z</time>
      </trkpt>
      <trkpt lat="43.3623500" lon="-1.6947280">
        <ele>30.6</ele>
        <time>2020-07-30T09:08:47Z</time>
      </trkpt>
      <trkpt lat="43.3622800" lon="-1.6948960">
        <ele>30.2</ele>
        <time>2020-07-30T09:08:49Z</time>
      </trkpt>
      <trkpt lat="43.3620760" lon="-1.6954130">
        <ele>30.0</ele>
        <time>2020-07-30T09:08:55Z</time>
      </trkpt>
      <trkpt lat="43.3619750" lon="-1.6956760">
        <ele>30.0</ele>
        <time>2020-07-30T09:08:58Z</time>
      </trkpt>
      <trkpt lat="43.3618330" lon="-1.6960270">
        <ele>30.2</ele>
        <time>2020-07-30T09:09:02Z</time>
      </trkpt>
      <trkpt lat="43.3617250" lon="-1.6962920">
        <ele>30.4</ele>
        <time>2020-07-30T09:09:05Z</time>
      </trkpt>
      <trkpt lat="43.3615130" lon="-1.6968170">
        <ele>31.0</ele>
        <time>2020-07-30T09:09:11Z</time>
      </trkpt>
      <trkpt lat="43.3614170" lon="-1.6970750">
        <ele>31.2</ele>
        <time>2020-07-30T09:09:14Z</time>
      </trkpt>
      <trkpt lat="43.3612680" lon="-1.6975030">
        <ele>31.6</ele>
        <time>2020-07-30T09:09:19Z</time>
      </trkpt>
      <trkpt lat="43.3612270" lon="-1.6976550">
        <ele>32.4</ele>
        <time>2020-07-30T09:09:21Z</time>
      </trkpt>
      <trkpt lat="43.3611900" lon="-1.6978020">
        <ele>32.8</ele>
        <time>2020-07-30T09:09:23Z</time>
      </trkpt>
      <trkpt lat="43.3611180" lon="-1.6981510">
        <ele>33.4</ele>
        <time>2020-07-30T09:09:28Z</time>
      </trkpt>
      <trkpt lat="43.3611070" lon="-1.6982140">
        <ele>33.8</ele>
        <time>2020-07-30T09:09:29Z</time>
      </trkpt>
      <trkpt lat="43.3610690" lon="-1.6984650">
        <ele>34.8</ele>
        <time>2020-07-30T09:09:33Z</time>
      </trkpt>
      <trkpt lat="43.3610600" lon="-1.6985300">
        <ele>35.0</ele>
        <time>2020-07-30T09:09:34Z</time>
      </trkpt>
      <trkpt lat="43.3610570" lon="-1.6985910">
        <ele>35.2</ele>
        <time>2020-07-30T09:09:35Z</time>
      </trkpt>
      <trkpt lat="43.3610510" lon="-1.6987100">
        <ele>35.6</ele>
        <time>2020-07-30T09:09:37Z</time>
      </trkpt>
      <trkpt lat="43.3610350" lon="-1.6988240">
        <ele>35.8</ele>
        <time>2020-07-30T09:09:39Z</time>
      </trkpt>
      <trkpt lat="43.3610220" lon="-1.6989350">
        <ele>36.0</ele>
        <time>2020-07-30T09:09:41Z</time>
      </trkpt>
      <trkpt lat="43.3610180" lon="-1.6989920">
        <ele>36.2</ele>
        <time>2020-07-30T09:09:42Z</time>
      </trkpt>
      <trkpt lat="43.3610110" lon="-1.6990480">
        <ele>36.4</ele>
        <time>2020-07-30T09:09:43Z</time>
      </trkpt>
      <trkpt lat="43.3610030" lon="-1.6991040">
        <ele>36.6</ele>
        <time>2020-07-30T09:09:44Z</time>
      </trkpt>
      <trkpt lat="43.3609910" lon="-1.6991600">
        <ele>37.0</ele>
        <time>2020-07-30T09:09:45Z</time>
      </trkpt>
      <trkpt lat="43.3609780" lon="-1.6992130">
        <ele>37.2</ele>
        <time>2020-07-30T09:09:46Z</time>
      </trkpt>
      <trkpt lat="43.3609650" lon="-1.6992680">
        <ele>37.4</ele>
        <time>2020-07-30T09:09:47Z</time>
      </trkpt>
      <trkpt lat="43.3609480" lon="-1.6994340">
        <ele>38.2</ele>
        <time>2020-07-30T09:09:50Z</time>
      </trkpt>
      <trkpt lat="43.3609430" lon="-1.6994920">
        <ele>38.2</ele>
        <time>2020-07-30T09:09:51Z</time>
      </trkpt>
      <trkpt lat="43.3609310" lon="-1.6998210">
        <ele>39.0</ele>
        <time>2020-07-30T09:09:57Z</time>
      </trkpt>
      <trkpt lat="43.3609210" lon="-1.6999560">
        <ele>39.2</ele>
        <time>2020-07-30T09:10:01Z</time>
      </trkpt>
      <trkpt lat="43.3609220" lon="-1.7000080">
        <ele>39.2</ele>
        <time>2020-07-30T09:10:07Z</time>
      </trkpt>
      <trkpt lat="43.3609220" lon="-1.7000590">
        <ele>39.2</ele>
        <time>2020-07-30T09:10:09Z</time>
      </trkpt>
      <trkpt lat="43.3609230" lon="-1.7001110">
        <ele>39.2</ele>
        <time>2020-07-30T09:10:11Z</time>
      </trkpt>
      <trkpt lat="43.3609240" lon="-1.7001620">
        <ele>38.6</ele>
        <time>2020-07-30T09:10:17Z</time>
      </trkpt>
      <trkpt lat="43.3609250" lon="-1.7002140">
        <ele>38.6</ele>
        <time>2020-07-30T09:10:19Z</time>
      </trkpt>
      <trkpt lat="43.3609250" lon="-1.7002650">
        <ele>38.2</ele>
        <time>2020-07-30T09:10:33Z</time>
      </trkpt>
      <trkpt lat="43.3609260" lon="-1.7003170">
        <ele>38.2</ele>
        <time>2020-07-30T09:10:34Z</time>
      </trkpt>
      <trkpt lat="43.3609600" lon="-1.7007560">
        <ele>38.0</ele>
        <time>2020-07-30T09:10:40Z</time>
      </trkpt>
      <trkpt lat="43.3610080" lon="-1.7012610">
        <ele>37.2</ele>
        <time>2020-07-30T09:10:46Z</time>
      </trkpt>
      <trkpt lat="43.3610200" lon="-1.7013490">
        <ele>37.0</ele>
        <time>2020-07-30T09:10:47Z</time>
      </trkpt>
      <trkpt lat="43.3611320" lon="-1.7018810">
        <ele>36.6</ele>
        <time>2020-07-30T09:10:53Z</time>
      </trkpt>
      <trkpt lat="43.3611550" lon="-1.7019730">
        <ele>36.4</ele>
        <time>2020-07-30T09:10:54Z</time>
      </trkpt>
      <trkpt lat="43.3612480" lon="-1.7023440">
        <ele>36.0</ele>
        <time>2020-07-30T09:10:58Z</time>
      </trkpt>
      <trkpt lat="43.3613530" lon="-1.7027160">
        <ele>35.8</ele>
        <time>2020-07-30T09:11:02Z</time>
      </trkpt>
      <trkpt lat="43.3614020" lon="-1.7029080">
        <ele>35.8</ele>
        <time>2020-07-30T09:11:04Z</time>
      </trkpt>
      <trkpt lat="43.3615210" lon="-1.7033720">
        <ele>36.2</ele>
        <time>2020-07-30T09:11:09Z</time>
      </trkpt>
      <trkpt lat="43.3616360" lon="-1.7037710">
        <ele>37.0</ele>
        <time>2020-07-30T09:11:14Z</time>
      </trkpt>
      <trkpt lat="43.3616570" lon="-1.7038450">
        <ele>37.4</ele>
        <time>2020-07-30T09:11:15Z</time>
      </trkpt>
      <trkpt lat="43.3617050" lon="-1.7039830">
        <ele>38.2</ele>
        <time>2020-07-30T09:11:17Z</time>
      </trkpt>
      <trkpt lat="43.3618150" lon="-1.7042940">
        <ele>39.2</ele>
        <time>2020-07-30T09:11:22Z</time>
      </trkpt>
      <trkpt lat="43.3618640" lon="-1.7044620">
        <ele>40.4</ele>
        <time>2020-07-30T09:11:25Z</time>
      </trkpt>
      <trkpt lat="43.3619220" lon="-1.7047020">
        <ele>41.0</ele>
        <time>2020-07-30T09:11:29Z</time>
      </trkpt>
      <trkpt lat="43.3619450" lon="-1.7048350">
        <ele>41.6</ele>
        <time>2020-07-30T09:11:31Z</time>
      </trkpt>
      <trkpt lat="43.3619790" lon="-1.7051070">
        <ele>42.8</ele>
        <time>2020-07-30T09:11:35Z</time>
      </trkpt>
      <trkpt lat="43.3619820" lon="-1.7051790">
        <ele>42.8</ele>
        <time>2020-07-30T09:11:36Z</time>
      </trkpt>
      <trkpt lat="43.3619860" lon="-1.7053270">
        <ele>43.0</ele>
        <time>2020-07-30T09:11:38Z</time>
      </trkpt>
      <trkpt lat="43.3619950" lon="-1.7057770">
        <ele>43.8</ele>
        <time>2020-07-30T09:11:44Z</time>
      </trkpt>
      <trkpt lat="43.3619860" lon="-1.7060700">
        <ele>45.0</ele>
        <time>2020-07-30T09:11:48Z</time>
      </trkpt>
      <trkpt lat="43.3619770" lon="-1.7064320">
        <ele>45.0</ele>
        <time>2020-07-30T09:11:53Z</time>
      </trkpt>
      <trkpt lat="43.3619670" lon="-1.7068580">
        <ele>45.6</ele>
        <time>2020-07-30T09:11:59Z</time>
      </trkpt>
      <trkpt lat="43.3619670" lon="-1.7071440">
        <ele>46.0</ele>
        <time>2020-07-30T09:12:03Z</time>
      </trkpt>
      <trkpt lat="43.3619670" lon="-1.7072170">
        <ele>46.0</ele>
        <time>2020-07-30T09:12:04Z</time>
      </trkpt>
      <trkpt lat="43.3619600" lon="-1.7073630">
        <ele>46.6</ele>
        <time>2020-07-30T09:12:06Z</time>
      </trkpt>
      <trkpt lat="43.3619520" lon="-1.7075130">
        <ele>47.2</ele>
        <time>2020-07-30T09:12:08Z</time>
      </trkpt>
      <trkpt lat="43.3619540" lon="-1.7075900">
        <ele>47.4</ele>
        <time>2020-07-30T09:12:09Z</time>
      </trkpt>
      <trkpt lat="43.3619490" lon="-1.7078050">
        <ele>47.6</ele>
        <time>2020-07-30T09:12:12Z</time>
      </trkpt>
      <trkpt lat="43.3619510" lon="-1.7080220">
        <ele>47.8</ele>
        <time>2020-07-30T09:12:15Z</time>
      </trkpt>
      <trkpt lat="43.3619500" lon="-1.7081690">
        <ele>48.2</ele>
        <time>2020-07-30T09:12:17Z</time>
      </trkpt>
      <trkpt lat="43.3619630" lon="-1.7086220">
        <ele>49.0</ele>
        <time>2020-07-30T09:12:23Z</time>
      </trkpt>
      <trkpt lat="43.3619620" lon="-1.7086980">
        <ele>49.2</ele>
        <time>2020-07-30T09:12:24Z</time>
      </trkpt>
      <trkpt lat="43.3619690" lon="-1.7091400">
        <ele>50.2</ele>
        <time>2020-07-30T09:12:30Z</time>
      </trkpt>
      <trkpt lat="43.3619730" lon="-1.7092960">
        <ele>50.4</ele>
        <time>2020-07-30T09:12:32Z</time>
      </trkpt>
      <trkpt lat="43.3619770" lon="-1.7096690">
        <ele>51.4</ele>
        <time>2020-07-30T09:12:37Z</time>
      </trkpt>
      <trkpt lat="43.3619860" lon="-1.7099440">
        <ele>52.4</ele>
        <time>2020-07-30T09:12:41Z</time>
      </trkpt>
      <trkpt lat="43.3619870" lon="-1.7100130">
        <ele>52.6</ele>
        <time>2020-07-30T09:12:42Z</time>
      </trkpt>
      <trkpt lat="43.3619990" lon="-1.7103600">
        <ele>53.8</ele>
        <time>2020-07-30T09:12:47Z</time>
      </trkpt>
      <trkpt lat="43.3620000" lon="-1.7104290">
        <ele>54.0</ele>
        <time>2020-07-30T09:12:48Z</time>
      </trkpt>
      <trkpt lat="43.3620060" lon="-1.7106530">
        <ele>55.0</ele>
        <time>2020-07-30T09:12:51Z</time>
      </trkpt>
      <trkpt lat="43.3620130" lon="-1.7109650">
        <ele>56.2</ele>
        <time>2020-07-30T09:12:55Z</time>
      </trkpt>
      <trkpt lat="43.3620120" lon="-1.7110450">
        <ele>56.4</ele>
        <time>2020-07-30T09:12:56Z</time>
      </trkpt>
      <trkpt lat="43.3620030" lon="-1.7114350">
        <ele>57.2</ele>
        <time>2020-07-30T09:13:01Z</time>
      </trkpt>
      <trkpt lat="43.3620080" lon="-1.7116330">
        <ele>58.4</ele>
        <time>2020-07-30T09:13:04Z</time>
      </trkpt>
      <trkpt lat="43.3620040" lon="-1.7121050">
        <ele>59.4</ele>
        <time>2020-07-30T09:13:10Z</time>
      </trkpt>
      <trkpt lat="43.3620030" lon="-1.7121840">
        <ele>59.6</ele>
        <time>2020-07-30T09:13:11Z</time>
      </trkpt>
      <trkpt lat="43.3619970" lon="-1.7126020">
        <ele>60.8</ele>
        <time>2020-07-30T09:13:17Z</time>
      </trkpt>
      <trkpt lat="43.3619950" lon="-1.7126690">
        <ele>61.2</ele>
        <time>2020-07-30T09:13:18Z</time>
      </trkpt>
      <trkpt lat="43.3619880" lon="-1.7129360">
        <ele>62.0</ele>
        <time>2020-07-30T09:13:22Z</time>
      </trkpt>
      <trkpt lat="43.3619930" lon="-1.7132000">
        <ele>62.6</ele>
        <time>2020-07-30T09:13:26Z</time>
      </trkpt>
      <trkpt lat="43.3619930" lon="-1.7132650">
        <ele>63.2</ele>
        <time>2020-07-30T09:13:27Z</time>
      </trkpt>
      <trkpt lat="43.3619980" lon="-1.7135270">
        <ele>64.4</ele>
        <time>2020-07-30T09:13:31Z</time>
      </trkpt>
      <trkpt lat="43.3620040" lon="-1.7136570">
        <ele>65.2</ele>
        <time>2020-07-30T09:13:33Z</time>
      </trkpt>
      <trkpt lat="43.3620060" lon="-1.7137220">
        <ele>65.4</ele>
        <time>2020-07-30T09:13:34Z</time>
      </trkpt>
      <trkpt lat="43.3620160" lon="-1.7140450">
        <ele>66.4</ele>
        <time>2020-07-30T09:13:39Z</time>
      </trkpt>
      <trkpt lat="43.3620200" lon="-1.7141750">
        <ele>66.8</ele>
        <time>2020-07-30T09:13:41Z</time>
      </trkpt>
      <trkpt lat="43.3620280" lon="-1.7144820">
        <ele>67.6</ele>
        <time>2020-07-30T09:13:46Z</time>
      </trkpt>
      <trkpt lat="43.3620380" lon="-1.7146130">
        <ele>68.2</ele>
        <time>2020-07-30T09:13:48Z</time>
      </trkpt>
      <trkpt lat="43.3620330" lon="-1.7147480">
        <ele>68.8</ele>
        <time>2020-07-30T09:13:50Z</time>
      </trkpt>
      <trkpt lat="43.3620210" lon="-1.7150180">
        <ele>69.8</ele>
        <time>2020-07-30T09:13:54Z</time>
      </trkpt>
      <trkpt lat="43.3620110" lon="-1.7154630">
        <ele>70.6</ele>
        <time>2020-07-30T09:14:00Z</time>
      </trkpt>
      <trkpt lat="43.3620110" lon="-1.7155390">
        <ele>70.8</ele>
        <time>2020-07-30T09:14:01Z</time>
      </trkpt>
      <trkpt lat="43.3620100" lon="-1.7158260">
        <ele>72.0</ele>
        <time>2020-07-30T09:14:05Z</time>
      </trkpt>
      <trkpt lat="43.3620170" lon="-1.7160380">
        <ele>72.4</ele>
        <time>2020-07-30T09:14:08Z</time>
      </trkpt>
      <trkpt lat="43.3620270" lon="-1.7162500">
        <ele>73.0</ele>
        <time>2020-07-30T09:14:11Z</time>
      </trkpt>
      <trkpt lat="43.3620260" lon="-1.7166030">
        <ele>74.0</ele>
        <time>2020-07-30T09:14:16Z</time>
      </trkpt>
      <trkpt lat="43.3620170" lon="-1.7166740">
        <ele>74.2</ele>
        <time>2020-07-30T09:14:17Z</time>
      </trkpt>
      <trkpt lat="43.3620080" lon="-1.7168800">
        <ele>75.4</ele>
        <time>2020-07-30T09:14:20Z</time>
      </trkpt>
      <trkpt lat="43.3620090" lon="-1.7169460">
        <ele>76.0</ele>
        <time>2020-07-30T09:14:21Z</time>
      </trkpt>
      <trkpt lat="43.3620130" lon="-1.7170800">
        <ele>76.6</ele>
        <time>2020-07-30T09:14:23Z</time>
      </trkpt>
      <trkpt lat="43.3619790" lon="-1.7174920">
        <ele>77.4</ele>
        <time>2020-07-30T09:14:29Z</time>
      </trkpt>
      <trkpt lat="43.3619680" lon="-1.7175600">
        <ele>77.8</ele>
        <time>2020-07-30T09:14:30Z</time>
      </trkpt>
      <trkpt lat="43.3619120" lon="-1.7178390">
        <ele>78.8</ele>
        <time>2020-07-30T09:14:34Z</time>
      </trkpt>
      <trkpt lat="43.3618640" lon="-1.7180470">
        <ele>79.6</ele>
        <time>2020-07-30T09:14:37Z</time>
      </trkpt>
      <trkpt lat="43.3618340" lon="-1.7181820">
        <ele>79.8</ele>
        <time>2020-07-30T09:14:39Z</time>
      </trkpt>
      <trkpt lat="43.3617630" lon="-1.7185430">
        <ele>81.0</ele>
        <time>2020-07-30T09:14:44Z</time>
      </trkpt>
      <trkpt lat="43.3617270" lon="-1.7186930">
        <ele>81.6</ele>
        <time>2020-07-30T09:14:46Z</time>
      </trkpt>
      <trkpt lat="43.3616820" lon="-1.7189080">
        <ele>82.2</ele>
        <time>2020-07-30T09:14:49Z</time>
      </trkpt>
      <trkpt lat="43.3615920" lon="-1.7193280">
        <ele>83.4</ele>
        <time>2020-07-30T09:14:55Z</time>
      </trkpt>
      <trkpt lat="43.3615780" lon="-1.7193980">
        <ele>83.8</ele>
        <time>2020-07-30T09:14:56Z</time>
      </trkpt>
      <trkpt lat="43.3615390" lon="-1.7196040">
        <ele>84.6</ele>
        <time>2020-07-30T09:14:59Z</time>
      </trkpt>
      <trkpt lat="43.3614780" lon="-1.7198810">
        <ele>85.2</ele>
        <time>2020-07-30T09:15:03Z</time>
      </trkpt>
      <trkpt lat="43.3614420" lon="-1.7200870">
        <ele>85.6</ele>
        <time>2020-07-30T09:15:06Z</time>
      </trkpt>
      <trkpt lat="43.3613680" lon="-1.7204200">
        <ele>86.4</ele>
        <time>2020-07-30T09:15:11Z</time>
      </trkpt>
      <trkpt lat="43.3613580" lon="-1.7204830">
        <ele>86.6</ele>
        <time>2020-07-30T09:15:12Z</time>
      </trkpt>
      <trkpt lat="43.3612930" lon="-1.7207980">
        <ele>88.0</ele>
        <time>2020-07-30T09:15:17Z</time>
      </trkpt>
      <trkpt lat="43.3612880" lon="-1.7208550">
        <ele>88.2</ele>
        <time>2020-07-30T09:15:18Z</time>
      </trkpt>
      <trkpt lat="43.3612640" lon="-1.7209820">
        <ele>88.2</ele>
        <time>2020-07-30T09:15:20Z</time>
      </trkpt>
      <trkpt lat="43.3612270" lon="-1.7211810">
        <ele>89.0</ele>
        <time>2020-07-30T09:15:23Z</time>
      </trkpt>
      <trkpt lat="43.3611650" lon="-1.7214450">
        <ele>89.8</ele>
        <time>2020-07-30T09:15:27Z</time>
      </trkpt>
      <trkpt lat="43.3611490" lon="-1.7215110">
        <ele>90.0</ele>
        <time>2020-07-30T09:15:28Z</time>
      </trkpt>
      <trkpt lat="43.3611260" lon="-1.7216440">
        <ele>90.4</ele>
        <time>2020-07-30T09:15:30Z</time>
      </trkpt>
      <trkpt lat="43.3610900" lon="-1.7217810">
        <ele>90.6</ele>
        <time>2020-07-30T09:15:32Z</time>
      </trkpt>
      <trkpt lat="43.3610640" lon="-1.7219100">
        <ele>91.2</ele>
        <time>2020-07-30T09:15:34Z</time>
      </trkpt>
      <trkpt lat="43.3610550" lon="-1.7219750">
        <ele>91.4</ele>
        <time>2020-07-30T09:15:35Z</time>
      </trkpt>
      <trkpt lat="43.3609980" lon="-1.7221890">
        <ele>92.4</ele>
        <time>2020-07-30T09:15:38Z</time>
      </trkpt>
      <trkpt lat="43.3609400" lon="-1.7224650">
        <ele>93.0</ele>
        <time>2020-07-30T09:15:42Z</time>
      </trkpt>
      <trkpt lat="43.3608970" lon="-1.7226860">
        <ele>93.6</ele>
        <time>2020-07-30T09:15:45Z</time>
      </trkpt>
      <trkpt lat="43.3608010" lon="-1.7230730">
        <ele>94.2</ele>
        <time>2020-07-30T09:15:50Z</time>
      </trkpt>
      <trkpt lat="43.3607710" lon="-1.7232230">
        <ele>94.6</ele>
        <time>2020-07-30T09:15:52Z</time>
      </trkpt>
      <trkpt lat="43.3607270" lon="-1.7234430">
        <ele>95.2</ele>
        <time>2020-07-30T09:15:55Z</time>
      </trkpt>
      <trkpt lat="43.3606520" lon="-1.7238060">
        <ele>95.6</ele>
        <time>2020-07-30T09:16:00Z</time>
      </trkpt>
      <trkpt lat="43.3606220" lon="-1.7239520">
        <ele>96.2</ele>
        <time>2020-07-30T09:16:02Z</time>
      </trkpt>
      <trkpt lat="43.3605610" lon="-1.7242390">
        <ele>96.8</ele>
        <time>2020-07-30T09:16:06Z</time>
      </trkpt>
      <trkpt lat="43.3605010" lon="-1.7245370">
        <ele>97.8</ele>
        <time>2020-07-30T09:16:10Z</time>
      </trkpt>
      <trkpt lat="43.3604090" lon="-1.7249570">
        <ele>99.0</ele>
        <time>2020-07-30T09:16:16Z</time>
      </trkpt>
      <trkpt lat="43.3603780" lon="-1.7250890">
        <ele>100.2</ele>
        <time>2020-07-30T09:16:18Z</time>
      </trkpt>
      <trkpt lat="43.3603630" lon="-1.7251520">
        <ele>100.8</ele>
        <time>2020-07-30T09:16:19Z</time>
      </trkpt>
      <trkpt lat="43.3603350" lon="-1.7252770">
        <ele>101.4</ele>
        <time>2020-07-30T09:16:21Z</time>
      </trkpt>
      <trkpt lat="43.3602590" lon="-1.7255850">
        <ele>102.6</ele>
        <time>2020-07-30T09:16:26Z</time>
      </trkpt>
      <trkpt lat="43.3602350" lon="-1.7257050">
        <ele>103.0</ele>
        <time>2020-07-30T09:16:28Z</time>
      </trkpt>
      <trkpt lat="43.3601840" lon="-1.7259310">
        <ele>104.0</ele>
        <time>2020-07-30T09:16:32Z</time>
      </trkpt>
      <trkpt lat="43.3601390" lon="-1.7261200">
        <ele>105.2</ele>
        <time>2020-07-30T09:16:35Z</time>
      </trkpt>
      <trkpt lat="43.3601220" lon="-1.7261890">
        <ele>105.6</ele>
        <time>2020-07-30T09:16:36Z</time>
      </trkpt>
      <trkpt lat="43.3600660" lon="-1.7264530">
        <ele>106.6</ele>
        <time>2020-07-30T09:16:40Z</time>
      </trkpt>
      <trkpt lat="43.3600190" lon="-1.7266410">
        <ele>107.6</ele>
        <time>2020-07-30T09:16:43Z</time>
      </trkpt>
      <trkpt lat="43.3600060" lon="-1.7267040">
        <ele>108.0</ele>
        <time>2020-07-30T09:16:44Z</time>
      </trkpt>
      <trkpt lat="43.3599540" lon="-1.7269550">
        <ele>109.2</ele>
        <time>2020-07-30T09:16:48Z</time>
      </trkpt>
      <trkpt lat="43.3599060" lon="-1.7271650">
        <ele>110.0</ele>
        <time>2020-07-30T09:16:51Z</time>
      </trkpt>
      <trkpt lat="43.3598910" lon="-1.7272330">
        <ele>110.4</ele>
        <time>2020-07-30T09:16:52Z</time>
      </trkpt>
      <trkpt lat="43.3598070" lon="-1.7276130">
        <ele>111.6</ele>
        <time>2020-07-30T09:16:58Z</time>
      </trkpt>
      <trkpt lat="43.3597970" lon="-1.7276750">
        <ele>111.6</ele>
        <time>2020-07-30T09:16:59Z</time>
      </trkpt>
      <trkpt lat="43.3597620" lon="-1.7278780">
        <ele>112.2</ele>
        <time>2020-07-30T09:17:02Z</time>
      </trkpt>
      <trkpt lat="43.3597210" lon="-1.7280840">
        <ele>112.6</ele>
        <time>2020-07-30T09:17:05Z</time>
      </trkpt>
      <trkpt lat="43.3597040" lon="-1.7281510">
        <ele>113.0</ele>
        <time>2020-07-30T09:17:06Z</time>
      </trkpt>
      <trkpt lat="43.3596070" lon="-1.7285480">
        <ele>113.4</ele>
        <time>2020-07-30T09:17:12Z</time>
      </trkpt>
      <trkpt lat="43.3595700" lon="-1.7286870">
        <ele>113.6</ele>
        <time>2020-07-30T09:17:14Z</time>
      </trkpt>
      <trkpt lat="43.3595540" lon="-1.7287570">
        <ele>113.6</ele>
        <time>2020-07-30T09:17:15Z</time>
      </trkpt>
      <trkpt lat="43.3594470" lon="-1.7291820">
        <ele>114.6</ele>
        <time>2020-07-30T09:17:21Z</time>
      </trkpt>
      <trkpt lat="43.3594330" lon="-1.7292530">
        <ele>114.8</ele>
        <time>2020-07-30T09:17:22Z</time>
      </trkpt>
      <trkpt lat="43.3593710" lon="-1.7296020">
        <ele>115.0</ele>
        <time>2020-07-30T09:17:27Z</time>
      </trkpt>
      <trkpt lat="43.3592860" lon="-1.7300510">
        <ele>115.8</ele>
        <time>2020-07-30T09:17:33Z</time>
      </trkpt>
      <trkpt lat="43.3592680" lon="-1.7301250">
        <ele>116.0</ele>
        <time>2020-07-30T09:17:34Z</time>
      </trkpt>
      <trkpt lat="43.3592030" lon="-1.7303890">
        <ele>117.2</ele>
        <time>2020-07-30T09:17:38Z</time>
      </trkpt>
      <trkpt lat="43.3591570" lon="-1.7305920">
        <ele>118.4</ele>
        <time>2020-07-30T09:17:41Z</time>
      </trkpt>
      <trkpt lat="43.3590830" lon="-1.7309110">
        <ele>119.8</ele>
        <time>2020-07-30T09:17:46Z</time>
      </trkpt>
      <trkpt lat="43.3590410" lon="-1.7310860">
        <ele>121.0</ele>
        <time>2020-07-30T09:17:49Z</time>
      </trkpt>
      <trkpt lat="43.3589950" lon="-1.7313200">
        <ele>122.0</ele>
        <time>2020-07-30T09:17:53Z</time>
      </trkpt>
      <trkpt lat="43.3589240" lon="-1.7316210">
        <ele>123.0</ele>
        <time>2020-07-30T09:17:58Z</time>
      </trkpt>
      <trkpt lat="43.3589100" lon="-1.7316830">
        <ele>123.0</ele>
        <time>2020-07-30T09:17:59Z</time>
      </trkpt>
      <trkpt lat="43.3588230" lon="-1.7320730">
        <ele>123.6</ele>
        <time>2020-07-30T09:18:05Z</time>
      </trkpt>
      <trkpt lat="43.3587920" lon="-1.7322050">
        <ele>123.6</ele>
        <time>2020-07-30T09:18:07Z</time>
      </trkpt>
      <trkpt lat="43.3586950" lon="-1.7326120">
        <ele>124.0</ele>
        <time>2020-07-30T09:18:13Z</time>
      </trkpt>
      <trkpt lat="43.3586760" lon="-1.7326860">
        <ele>124.0</ele>
        <time>2020-07-30T09:18:14Z</time>
      </trkpt>
      <trkpt lat="43.3586590" lon="-1.7327580">
        <ele>124.2</ele>
        <time>2020-07-30T09:18:15Z</time>
      </trkpt>
      <trkpt lat="43.3585700" lon="-1.7331820">
        <ele>124.4</ele>
        <time>2020-07-30T09:18:21Z</time>
      </trkpt>
      <trkpt lat="43.3585320" lon="-1.7333310">
        <ele>124.2</ele>
        <time>2020-07-30T09:18:23Z</time>
      </trkpt>
      <trkpt lat="43.3583830" lon="-1.7337720">
        <ele>124.0</ele>
        <time>2020-07-30T09:18:29Z</time>
      </trkpt>
      <trkpt lat="43.3582560" lon="-1.7339880">
        <ele>123.8</ele>
        <time>2020-07-30T09:18:32Z</time>
      </trkpt>
      <trkpt lat="43.3581130" lon="-1.7341850">
        <ele>123.8</ele>
        <time>2020-07-30T09:18:35Z</time>
      </trkpt>
      <trkpt lat="43.3578590" lon="-1.7344770">
        <ele>124.2</ele>
        <time>2020-07-30T09:18:40Z</time>
      </trkpt>
      <trkpt lat="43.3576090" lon="-1.7347590">
        <ele>125.2</ele>
        <time>2020-07-30T09:18:45Z</time>
      </trkpt>
      <trkpt lat="43.3575570" lon="-1.7348130">
        <ele>125.4</ele>
        <time>2020-07-30T09:18:46Z</time>
      </trkpt>
      <trkpt lat="43.3575060" lon="-1.7348690">
        <ele>125.4</ele>
        <time>2020-07-30T09:18:47Z</time>
      </trkpt>
      <trkpt lat="43.3573630" lon="-1.7350340">
        <ele>125.4</ele>
        <time>2020-07-30T09:18:50Z</time>
      </trkpt>
      <trkpt lat="43.3572690" lon="-1.7351490">
        <ele>125.4</ele>
        <time>2020-07-30T09:18:52Z</time>
      </trkpt>
      <trkpt lat="43.3571310" lon="-1.7353120">
        <ele>125.6</ele>
        <time>2020-07-30T09:18:55Z</time>
      </trkpt>
      <trkpt lat="43.3569950" lon="-1.7354800">
        <ele>126.4</ele>
        <time>2020-07-30T09:18:58Z</time>
      </trkpt>
      <trkpt lat="43.3569110" lon="-1.7355840">
        <ele>127.0</ele>
        <time>2020-07-30T09:19:00Z</time>
      </trkpt>
      <trkpt lat="43.3568240" lon="-1.7356850">
        <ele>127.2</ele>
        <time>2020-07-30T09:19:02Z</time>
      </trkpt>
      <trkpt lat="43.3566910" lon="-1.7358480">
        <ele>127.6</ele>
        <time>2020-07-30T09:19:05Z</time>
      </trkpt>
      <trkpt lat="43.3565030" lon="-1.7360690">
        <ele>127.8</ele>
        <time>2020-07-30T09:19:09Z</time>
      </trkpt>
      <trkpt lat="43.3563120" lon="-1.7362610">
        <ele>128.6</ele>
        <time>2020-07-30T09:19:13Z</time>
      </trkpt>
      <trkpt lat="43.3561680" lon="-1.7363960">
        <ele>129.0</ele>
        <time>2020-07-30T09:19:16Z</time>
      </trkpt>
      <trkpt lat="43.3559220" lon="-1.7365780">
        <ele>129.6</ele>
        <time>2020-07-30T09:19:21Z</time>
      </trkpt>
      <trkpt lat="43.3558680" lon="-1.7366050">
        <ele>130.0</ele>
        <time>2020-07-30T09:19:22Z</time>
      </trkpt>
      <trkpt lat="43.3558170" lon="-1.7366290">
        <ele>130.2</ele>
        <time>2020-07-30T09:19:23Z</time>
      </trkpt>
      <trkpt lat="43.3557640" lon="-1.7366520">
        <ele>130.4</ele>
        <time>2020-07-30T09:19:24Z</time>
      </trkpt>
      <trkpt lat="43.3556610" lon="-1.7367040">
        <ele>130.8</ele>
        <time>2020-07-30T09:19:26Z</time>
      </trkpt>
      <trkpt lat="43.3556110" lon="-1.7367240">
        <ele>131.2</ele>
        <time>2020-07-30T09:19:27Z</time>
      </trkpt>
      <trkpt lat="43.3555100" lon="-1.7367540">
        <ele>131.6</ele>
        <time>2020-07-30T09:19:29Z</time>
      </trkpt>
      <trkpt lat="43.3554600" lon="-1.7367640">
        <ele>131.8</ele>
        <time>2020-07-30T09:19:30Z</time>
      </trkpt>
      <trkpt lat="43.3553520" lon="-1.7367770">
        <ele>132.2</ele>
        <time>2020-07-30T09:19:32Z</time>
      </trkpt>
      <trkpt lat="43.3551990" lon="-1.7367960">
        <ele>132.8</ele>
        <time>2020-07-30T09:19:35Z</time>
      </trkpt>
      <trkpt lat="43.3551460" lon="-1.7368070">
        <ele>133.0</ele>
        <time>2020-07-30T09:19:36Z</time>
      </trkpt>
      <trkpt lat="43.3550940" lon="-1.7368230">
        <ele>133.2</ele>
        <time>2020-07-30T09:19:37Z</time>
      </trkpt>
      <trkpt lat="43.3549390" lon="-1.7368630">
        <ele>133.8</ele>
        <time>2020-07-30T09:19:40Z</time>
      </trkpt>
      <trkpt lat="43.3548250" lon="-1.7368810">
        <ele>134.6</ele>
        <time>2020-07-30T09:19:42Z</time>
      </trkpt>
      <trkpt lat="43.3545620" lon="-1.7369210">
        <ele>135.6</ele>
        <time>2020-07-30T09:19:47Z</time>
      </trkpt>
      <trkpt lat="43.3545140" lon="-1.7369320">
        <ele>135.8</ele>
        <time>2020-07-30T09:19:48Z</time>
      </trkpt>
      <trkpt lat="43.3543850" lon="-1.7369520">
        <ele>136.4</ele>
        <time>2020-07-30T09:19:51Z</time>
      </trkpt>
      <trkpt lat="43.3543400" lon="-1.7369530">
        <ele>136.6</ele>
        <time>2020-07-30T09:19:52Z</time>
      </trkpt>
      <trkpt lat="43.3542480" lon="-1.7369590">
        <ele>136.8</ele>
        <time>2020-07-30T09:19:54Z</time>
      </trkpt>
      <trkpt lat="43.3539970" lon="-1.7370020">
        <ele>137.4</ele>
        <time>2020-07-30T09:20:00Z</time>
      </trkpt>
      <trkpt lat="43.3539480" lon="-1.7370040">
        <ele>137.8</ele>
        <time>2020-07-30T09:20:01Z</time>
      </trkpt>
      <trkpt lat="43.3537330" lon="-1.7370250">
        <ele>138.8</ele>
        <time>2020-07-30T09:20:05Z</time>
      </trkpt>
      <trkpt lat="43.3536780" lon="-1.7370270">
        <ele>138.8</ele>
        <time>2020-07-30T09:20:06Z</time>
      </trkpt>
      <trkpt lat="43.3535100" lon="-1.7370530">
        <ele>138.8</ele>
        <time>2020-07-30T09:20:09Z</time>
      </trkpt>
      <trkpt lat="43.3531480" lon="-1.7371180">
        <ele>139.8</ele>
        <time>2020-07-30T09:20:15Z</time>
      </trkpt>
      <trkpt lat="43.3530890" lon="-1.7371290">
        <ele>140.0</ele>
        <time>2020-07-30T09:20:16Z</time>
      </trkpt>
      <trkpt lat="43.3529630" lon="-1.7371770">
        <ele>140.0</ele>
        <time>2020-07-30T09:20:18Z</time>
      </trkpt>
      <trkpt lat="43.3527020" lon="-1.7373520">
        <ele>140.2</ele>
        <time>2020-07-30T09:20:23Z</time>
      </trkpt>
      <trkpt lat="43.3526180" lon="-1.7374470">
        <ele>140.6</ele>
        <time>2020-07-30T09:20:25Z</time>
      </trkpt>
      <trkpt lat="43.3525390" lon="-1.7375660">
        <ele>141.0</ele>
        <time>2020-07-30T09:20:27Z</time>
      </trkpt>
      <trkpt lat="43.3524680" lon="-1.7376960">
        <ele>141.4</ele>
        <time>2020-07-30T09:20:29Z</time>
      </trkpt>
      <trkpt lat="43.3523430" lon="-1.7380310">
        <ele>142.2</ele>
        <time>2020-07-30T09:20:34Z</time>
      </trkpt>
      <trkpt lat="43.3523250" lon="-1.7380940">
        <ele>142.4</ele>
        <time>2020-07-30T09:20:35Z</time>
      </trkpt>
      <trkpt lat="43.3522870" lon="-1.7382650">
        <ele>143.4</ele>
        <time>2020-07-30T09:20:38Z</time>
      </trkpt>
      <trkpt lat="43.3522590" lon="-1.7384170">
        <ele>143.6</ele>
        <time>2020-07-30T09:20:41Z</time>
      </trkpt>
      <trkpt lat="43.3522590" lon="-1.7385280">
        <ele>144.0</ele>
        <time>2020-07-30T09:20:43Z</time>
      </trkpt>
      <trkpt lat="43.3522700" lon="-1.7386490">
        <ele>144.2</ele>
        <time>2020-07-30T09:20:45Z</time>
      </trkpt>
      <trkpt lat="43.3522830" lon="-1.7387150">
        <ele>144.4</ele>
        <time>2020-07-30T09:20:46Z</time>
      </trkpt>
      <trkpt lat="43.3522940" lon="-1.7388490">
        <ele>144.6</ele>
        <time>2020-07-30T09:20:48Z</time>
      </trkpt>
      <trkpt lat="43.3522530" lon="-1.7389620">
        <ele>144.6</ele>
        <time>2020-07-30T09:20:50Z</time>
      </trkpt>
      <trkpt lat="43.3521470" lon="-1.7389930">
        <ele>144.2</ele>
        <time>2020-07-30T09:20:52Z</time>
      </trkpt>
      <trkpt lat="43.3520880" lon="-1.7389710">
        <ele>144.0</ele>
        <time>2020-07-30T09:20:53Z</time>
      </trkpt>
      <trkpt lat="43.3519590" lon="-1.7389310">
        <ele>143.6</ele>
        <time>2020-07-30T09:20:55Z</time>
      </trkpt>
      <trkpt lat="43.3517490" lon="-1.7388690">
        <ele>143.2</ele>
        <time>2020-07-30T09:20:58Z</time>
      </trkpt>
      <trkpt lat="43.3515960" lon="-1.7387950">
        <ele>142.0</ele>
        <time>2020-07-30T09:21:00Z</time>
      </trkpt>
      <trkpt lat="43.3515210" lon="-1.7387420">
        <ele>141.2</ele>
        <time>2020-07-30T09:21:01Z</time>
      </trkpt>
      <trkpt lat="43.3514430" lon="-1.7386860">
        <ele>140.6</ele>
        <time>2020-07-30T09:21:02Z</time>
      </trkpt>
      <trkpt lat="43.3513640" lon="-1.7386230">
        <ele>140.0</ele>
        <time>2020-07-30T09:21:03Z</time>
      </trkpt>
      <trkpt lat="43.3512840" lon="-1.7385610">
        <ele>139.2</ele>
        <time>2020-07-30T09:21:04Z</time>
      </trkpt>
      <trkpt lat="43.3512000" lon="-1.7384970">
        <ele>138.6</ele>
        <time>2020-07-30T09:21:05Z</time>
      </trkpt>
      <trkpt lat="43.3511130" lon="-1.7384350">
        <ele>138.0</ele>
        <time>2020-07-30T09:21:06Z</time>
      </trkpt>
      <trkpt lat="43.3509320" lon="-1.7382980">
        <ele>136.4</ele>
        <time>2020-07-30T09:21:08Z</time>
      </trkpt>
      <trkpt lat="43.3508380" lon="-1.7382240">
        <ele>135.8</ele>
        <time>2020-07-30T09:21:09Z</time>
      </trkpt>
      <trkpt lat="43.3507390" lon="-1.7381640">
        <ele>135.2</ele>
        <time>2020-07-30T09:21:10Z</time>
      </trkpt>
      <trkpt lat="43.3505320" lon="-1.7381180">
        <ele>134.6</ele>
        <time>2020-07-30T09:21:12Z</time>
      </trkpt>
      <trkpt lat="43.3504330" lon="-1.7381490">
        <ele>134.2</ele>
        <time>2020-07-30T09:21:13Z</time>
      </trkpt>
      <trkpt lat="43.3503440" lon="-1.7382200">
        <ele>134.0</ele>
        <time>2020-07-30T09:21:14Z</time>
      </trkpt>
      <trkpt lat="43.3502110" lon="-1.7384280">
        <ele>133.0</ele>
        <time>2020-07-30T09:21:16Z</time>
      </trkpt>
      <trkpt lat="43.3501710" lon="-1.7385670">
        <ele>132.6</ele>
        <time>2020-07-30T09:21:17Z</time>
      </trkpt>
      <trkpt lat="43.3501410" lon="-1.7387150">
        <ele>132.0</ele>
        <time>2020-07-30T09:21:18Z</time>
      </trkpt>
      <trkpt lat="43.3501050" lon="-1.7390260">
        <ele>130.8</ele>
        <time>2020-07-30T09:21:20Z</time>
      </trkpt>
      <trkpt lat="43.3500830" lon="-1.7393490">
        <ele>129.2</ele>
        <time>2020-07-30T09:21:22Z</time>
      </trkpt>
      <trkpt lat="43.3500540" lon="-1.7396730">
        <ele>127.6</ele>
        <time>2020-07-30T09:21:24Z</time>
      </trkpt>
      <trkpt lat="43.3500250" lon="-1.7400020">
        <ele>126.6</ele>
        <time>2020-07-30T09:21:26Z</time>
      </trkpt>
      <trkpt lat="43.3500070" lon="-1.7401690">
        <ele>125.8</ele>
        <time>2020-07-30T09:21:27Z</time>
      </trkpt>
      <trkpt lat="43.3499870" lon="-1.7403350">
        <ele>125.4</ele>
        <time>2020-07-30T09:21:28Z</time>
      </trkpt>
      <trkpt lat="43.3499180" lon="-1.7408380">
        <ele>124.0</ele>
        <time>2020-07-30T09:21:31Z</time>
      </trkpt>
      <trkpt lat="43.3498710" lon="-1.7411680">
        <ele>122.4</ele>
        <time>2020-07-30T09:21:33Z</time>
      </trkpt>
      <trkpt lat="43.3498510" lon="-1.7413310">
        <ele>121.4</ele>
        <time>2020-07-30T09:21:34Z</time>
      </trkpt>
      <trkpt lat="43.3498300" lon="-1.7414980">
        <ele>120.6</ele>
        <time>2020-07-30T09:21:35Z</time>
      </trkpt>
      <trkpt lat="43.3497790" lon="-1.7418490">
        <ele>119.6</ele>
        <time>2020-07-30T09:21:37Z</time>
      </trkpt>
      <trkpt lat="43.3497310" lon="-1.7421910">
        <ele>118.0</ele>
        <time>2020-07-30T09:21:39Z</time>
      </trkpt>
      <trkpt lat="43.3497150" lon="-1.7423530">
        <ele>117.0</ele>
        <time>2020-07-30T09:21:40Z</time>
      </trkpt>
      <trkpt lat="43.3497030" lon="-1.7425110">
        <ele>116.2</ele>
        <time>2020-07-30T09:21:41Z</time>
      </trkpt>
      <trkpt lat="43.3497040" lon="-1.7428290">
        <ele>115.0</ele>
        <time>2020-07-30T09:21:43Z</time>
      </trkpt>
      <trkpt lat="43.3496950" lon="-1.7431560">
        <ele>113.6</ele>
        <time>2020-07-30T09:21:45Z</time>
      </trkpt>
      <trkpt lat="43.3496960" lon="-1.7434830">
        <ele>112.0</ele>
        <time>2020-07-30T09:21:47Z</time>
      </trkpt>
      <trkpt lat="43.3497080" lon="-1.7439660">
        <ele>110.8</ele>
        <time>2020-07-30T09:21:50Z</time>
      </trkpt>
      <trkpt lat="43.3497160" lon="-1.7442760">
        <ele>110.4</ele>
        <time>2020-07-30T09:21:52Z</time>
      </trkpt>
      <trkpt lat="43.3497300" lon="-1.7445770">
        <ele>109.4</ele>
        <time>2020-07-30T09:21:54Z</time>
      </trkpt>
      <trkpt lat="43.3497550" lon="-1.7448720">
        <ele>108.2</ele>
        <time>2020-07-30T09:21:56Z</time>
      </trkpt>
      <trkpt lat="43.3497700" lon="-1.7450200">
        <ele>107.6</ele>
        <time>2020-07-30T09:21:57Z</time>
      </trkpt>
      <trkpt lat="43.3498010" lon="-1.7453140">
        <ele>107.0</ele>
        <time>2020-07-30T09:21:59Z</time>
      </trkpt>
      <trkpt lat="43.3498190" lon="-1.7454610">
        <ele>106.6</ele>
        <time>2020-07-30T09:22:00Z</time>
      </trkpt>
      <trkpt lat="43.3498420" lon="-1.7456070">
        <ele>106.0</ele>
        <time>2020-07-30T09:22:01Z</time>
      </trkpt>
      <trkpt lat="43.3498660" lon="-1.7457550">
        <ele>105.6</ele>
        <time>2020-07-30T09:22:02Z</time>
      </trkpt>
      <trkpt lat="43.3499160" lon="-1.7460490">
        <ele>104.6</ele>
        <time>2020-07-30T09:22:04Z</time>
      </trkpt>
      <trkpt lat="43.3499720" lon="-1.7463410">
        <ele>103.4</ele>
        <time>2020-07-30T09:22:06Z</time>
      </trkpt>
      <trkpt lat="43.3500370" lon="-1.7466310">
        <ele>102.2</ele>
        <time>2020-07-30T09:22:08Z</time>
      </trkpt>
      <trkpt lat="43.3501040" lon="-1.7469220">
        <ele>101.0</ele>
        <time>2020-07-30T09:22:10Z</time>
      </trkpt>
      <trkpt lat="43.3501370" lon="-1.7470680">
        <ele>100.4</ele>
        <time>2020-07-30T09:22:11Z</time>
      </trkpt>
      <trkpt lat="43.3501690" lon="-1.7472120">
        <ele>99.8</ele>
        <time>2020-07-30T09:22:12Z</time>
      </trkpt>
      <trkpt lat="43.3502520" lon="-1.7477780">
        <ele>98.4</ele>
        <time>2020-07-30T09:22:16Z</time>
      </trkpt>
      <trkpt lat="43.3502560" lon="-1.7479140">
        <ele>98.0</ele>
        <time>2020-07-30T09:22:17Z</time>
      </trkpt>
      <trkpt lat="43.3502310" lon="-1.7481810">
        <ele>97.2</ele>
        <time>2020-07-30T09:22:19Z</time>
      </trkpt>
      <trkpt lat="43.3501550" lon="-1.7484230">
        <ele>96.6</ele>
        <time>2020-07-30T09:22:21Z</time>
      </trkpt>
      <trkpt lat="43.3500130" lon="-1.7486380">
        <ele>96.0</ele>
        <time>2020-07-30T09:22:23Z</time>
      </trkpt>
      <trkpt lat="43.3499280" lon="-1.7487240">
        <ele>95.8</ele>
        <time>2020-07-30T09:22:24Z</time>
      </trkpt>
      <trkpt lat="43.3498410" lon="-1.7487950">
        <ele>95.4</ele>
        <time>2020-07-30T09:22:25Z</time>
      </trkpt>
      <trkpt lat="43.3496370" lon="-1.7488890">
        <ele>94.8</ele>
        <time>2020-07-30T09:22:27Z</time>
      </trkpt>
      <trkpt lat="43.3493050" lon="-1.7489470">
        <ele>93.2</ele>
        <time>2020-07-30T09:22:30Z</time>
      </trkpt>
      <trkpt lat="43.3491920" lon="-1.7489580">
        <ele>92.4</ele>
        <time>2020-07-30T09:22:31Z</time>
      </trkpt>
      <trkpt lat="43.3490810" lon="-1.7489630">
        <ele>91.6</ele>
        <time>2020-07-30T09:22:32Z</time>
      </trkpt>
      <trkpt lat="43.3488630" lon="-1.7489760">
        <ele>90.2</ele>
        <time>2020-07-30T09:22:34Z</time>
      </trkpt>
      <trkpt lat="43.3486480" lon="-1.7489960">
        <ele>89.0</ele>
        <time>2020-07-30T09:22:36Z</time>
      </trkpt>
      <trkpt lat="43.3484380" lon="-1.7490170">
        <ele>88.4</ele>
        <time>2020-07-30T09:22:38Z</time>
      </trkpt>
      <trkpt lat="43.3483350" lon="-1.7490230">
        <ele>88.0</ele>
        <time>2020-07-30T09:22:39Z</time>
      </trkpt>
      <trkpt lat="43.3480230" lon="-1.7490570">
        <ele>86.8</ele>
        <time>2020-07-30T09:22:42Z</time>
      </trkpt>
      <trkpt lat="43.3478250" lon="-1.7491270">
        <ele>86.2</ele>
        <time>2020-07-30T09:22:44Z</time>
      </trkpt>
      <trkpt lat="43.3477300" lon="-1.7491750">
        <ele>85.8</ele>
        <time>2020-07-30T09:22:45Z</time>
      </trkpt>
      <trkpt lat="43.3475510" lon="-1.7492960">
        <ele>84.6</ele>
        <time>2020-07-30T09:22:47Z</time>
      </trkpt>
      <trkpt lat="43.3473870" lon="-1.7494570">
        <ele>83.2</ele>
        <time>2020-07-30T09:22:49Z</time>
      </trkpt>
      <trkpt lat="43.3471640" lon="-1.7497480">
        <ele>81.8</ele>
        <time>2020-07-30T09:22:52Z</time>
      </trkpt>
      <trkpt lat="43.3470170" lon="-1.7499590">
        <ele>80.6</ele>
        <time>2020-07-30T09:22:54Z</time>
      </trkpt>
      <trkpt lat="43.3469440" lon="-1.7500750">
        <ele>80.0</ele>
        <time>2020-07-30T09:22:55Z</time>
      </trkpt>
      <trkpt lat="43.3468040" lon="-1.7503030">
        <ele>79.4</ele>
        <time>2020-07-30T09:22:57Z</time>
      </trkpt>
      <trkpt lat="43.3466750" lon="-1.7505280">
        <ele>78.8</ele>
        <time>2020-07-30T09:22:59Z</time>
      </trkpt>
      <trkpt lat="43.3464960" lon="-1.7508690">
        <ele>78.2</ele>
        <time>2020-07-30T09:23:02Z</time>
      </trkpt>
      <trkpt lat="43.3463880" lon="-1.7511230">
        <ele>77.2</ele>
        <time>2020-07-30T09:23:04Z</time>
      </trkpt>
      <trkpt lat="43.3462910" lon="-1.7513780">
        <ele>75.8</ele>
        <time>2020-07-30T09:23:06Z</time>
      </trkpt>
      <trkpt lat="43.3462090" lon="-1.7516410">
        <ele>74.6</ele>
        <time>2020-07-30T09:23:08Z</time>
      </trkpt>
      <trkpt lat="43.3461460" lon="-1.7519130">
        <ele>72.8</ele>
        <time>2020-07-30T09:23:10Z</time>
      </trkpt>
      <trkpt lat="43.3461290" lon="-1.7520570">
        <ele>72.0</ele>
        <time>2020-07-30T09:23:11Z</time>
      </trkpt>
      <trkpt lat="43.3461240" lon="-1.7522050">
        <ele>71.2</ele>
        <time>2020-07-30T09:23:12Z</time>
      </trkpt>
      <trkpt lat="43.3461320" lon="-1.7525020">
        <ele>69.8</ele>
        <time>2020-07-30T09:23:14Z</time>
      </trkpt>
      <trkpt lat="43.3461430" lon="-1.7526450">
        <ele>69.0</ele>
        <time>2020-07-30T09:23:15Z</time>
      </trkpt>
      <trkpt lat="43.3461530" lon="-1.7527840">
        <ele>68.2</ele>
        <time>2020-07-30T09:23:16Z</time>
      </trkpt>
      <trkpt lat="43.3461790" lon="-1.7530590">
        <ele>67.0</ele>
        <time>2020-07-30T09:23:18Z</time>
      </trkpt>
      <trkpt lat="43.3462480" lon="-1.7534760">
        <ele>65.6</ele>
        <time>2020-07-30T09:23:21Z</time>
      </trkpt>
      <trkpt lat="43.3462890" lon="-1.7537700">
        <ele>64.2</ele>
        <time>2020-07-30T09:23:23Z</time>
      </trkpt>
      <trkpt lat="43.3463330" lon="-1.7540680">
        <ele>62.2</ele>
        <time>2020-07-30T09:23:25Z</time>
      </trkpt>
      <trkpt lat="43.3463750" lon="-1.7543610">
        <ele>60.8</ele>
        <time>2020-07-30T09:23:27Z</time>
      </trkpt>
      <trkpt lat="43.3464060" lon="-1.7546610">
        <ele>59.8</ele>
        <time>2020-07-30T09:23:29Z</time>
      </trkpt>
      <trkpt lat="43.3464380" lon="-1.7549420">
        <ele>58.6</ele>
        <time>2020-07-30T09:23:31Z</time>
      </trkpt>
      <trkpt lat="43.3464680" lon="-1.7552250">
        <ele>56.8</ele>
        <time>2020-07-30T09:23:33Z</time>
      </trkpt>
      <trkpt lat="43.3465070" lon="-1.7555140">
        <ele>56.0</ele>
        <time>2020-07-30T09:23:35Z</time>
      </trkpt>
      <trkpt lat="43.3465260" lon="-1.7556570">
        <ele>55.4</ele>
        <time>2020-07-30T09:23:36Z</time>
      </trkpt>
      <trkpt lat="43.3465640" lon="-1.7559440">
        <ele>54.4</ele>
        <time>2020-07-30T09:23:38Z</time>
      </trkpt>
      <trkpt lat="43.3465970" lon="-1.7562180">
        <ele>52.8</ele>
        <time>2020-07-30T09:23:40Z</time>
      </trkpt>
      <trkpt lat="43.3466230" lon="-1.7564980">
        <ele>51.0</ele>
        <time>2020-07-30T09:23:42Z</time>
      </trkpt>
      <trkpt lat="43.3466510" lon="-1.7567790">
        <ele>49.6</ele>
        <time>2020-07-30T09:23:44Z</time>
      </trkpt>
      <trkpt lat="43.3466720" lon="-1.7570510">
        <ele>48.2</ele>
        <time>2020-07-30T09:23:46Z</time>
      </trkpt>
      <trkpt lat="43.3467070" lon="-1.7572990">
        <ele>47.0</ele>
        <time>2020-07-30T09:23:48Z</time>
      </trkpt>
      <trkpt lat="43.3467470" lon="-1.7575390">
        <ele>46.0</ele>
        <time>2020-07-30T09:23:50Z</time>
      </trkpt>
      <trkpt lat="43.3467670" lon="-1.7577700">
        <ele>44.4</ele>
        <time>2020-07-30T09:23:52Z</time>
      </trkpt>
      <trkpt lat="43.3467870" lon="-1.7579810">
        <ele>42.6</ele>
        <time>2020-07-30T09:23:54Z</time>
      </trkpt>
      <trkpt lat="43.3468070" lon="-1.7581920">
        <ele>41.6</ele>
        <time>2020-07-30T09:23:56Z</time>
      </trkpt>
      <trkpt lat="43.3468080" lon="-1.7584210">
        <ele>40.2</ele>
        <time>2020-07-30T09:23:58Z</time>
      </trkpt>
      <trkpt lat="43.3468290" lon="-1.7586560">
        <ele>38.8</ele>
        <time>2020-07-30T09:24:00Z</time>
      </trkpt>
      <trkpt lat="43.3468460" lon="-1.7587730">
        <ele>38.2</ele>
        <time>2020-07-30T09:24:01Z</time>
      </trkpt>
      <trkpt lat="43.3468670" lon="-1.7588930">
        <ele>37.6</ele>
        <time>2020-07-30T09:24:02Z</time>
      </trkpt>
      <trkpt lat="43.3468790" lon="-1.7591530">
        <ele>36.4</ele>
        <time>2020-07-30T09:24:04Z</time>
      </trkpt>
      <trkpt lat="43.3468900" lon="-1.7592740">
        <ele>35.4</ele>
        <time>2020-07-30T09:24:05Z</time>
      </trkpt>
      <trkpt lat="43.3469050" lon="-1.7595060">
        <ele>33.6</ele>
        <time>2020-07-30T09:24:07Z</time>
      </trkpt>
      <trkpt lat="43.3469170" lon="-1.7596250">
        <ele>33.0</ele>
        <time>2020-07-30T09:24:08Z</time>
      </trkpt>
      <trkpt lat="43.3469260" lon="-1.7597480">
        <ele>32.6</ele>
        <time>2020-07-30T09:24:09Z</time>
      </trkpt>
      <trkpt lat="43.3469480" lon="-1.7600040">
        <ele>31.2</ele>
        <time>2020-07-30T09:24:11Z</time>
      </trkpt>
      <trkpt lat="43.3469680" lon="-1.7602830">
        <ele>29.8</ele>
        <time>2020-07-30T09:24:13Z</time>
      </trkpt>
      <trkpt lat="43.3469670" lon="-1.7604240">
        <ele>29.2</ele>
        <time>2020-07-30T09:24:14Z</time>
      </trkpt>
      <trkpt lat="43.3469580" lon="-1.7605550">
        <ele>28.2</ele>
        <time>2020-07-30T09:24:15Z</time>
      </trkpt>
      <trkpt lat="43.3468970" lon="-1.7607860">
        <ele>26.8</ele>
        <time>2020-07-30T09:24:17Z</time>
      </trkpt>
      <trkpt lat="43.3467890" lon="-1.7610390">
        <ele>26.2</ele>
        <time>2020-07-30T09:24:20Z</time>
      </trkpt>
      <trkpt lat="43.3467510" lon="-1.7611090">
        <ele>26.0</ele>
        <time>2020-07-30T09:24:21Z</time>
      </trkpt>
      <trkpt lat="43.3466930" lon="-1.7612120">
        <ele>26.0</ele>
        <time>2020-07-30T09:24:23Z</time>
      </trkpt>
      <trkpt lat="43.3466780" lon="-1.7612320">
        <ele>26.0</ele>
        <time>2020-07-30T09:24:24Z</time>
      </trkpt>
      <trkpt lat="43.3466380" lon="-1.7612650">
        <ele>26.0</ele>
        <time>2020-07-30T09:24:25Z</time>
      </trkpt>
      <trkpt lat="43.3466020" lon="-1.7612960">
        <ele>25.6</ele>
        <time>2020-07-30T09:25:24Z</time>
      </trkpt>
      <trkpt lat="43.3465660" lon="-1.7613270">
        <ele>25.6</ele>
        <time>2020-07-30T09:25:25Z</time>
      </trkpt>
      <trkpt lat="43.3465040" lon="-1.7614070">
        <ele>25.6</ele>
        <time>2020-07-30T09:25:27Z</time>
      </trkpt>
      <trkpt lat="43.3463990" lon="-1.7615590">
        <ele>26.2</ele>
        <time>2020-07-30T09:25:30Z</time>
      </trkpt>
      <trkpt lat="43.3463560" lon="-1.7616070">
        <ele>26.4</ele>
        <time>2020-07-30T09:25:31Z</time>
      </trkpt>
      <trkpt lat="43.3462190" lon="-1.7617810">
        <ele>26.6</ele>
        <time>2020-07-30T09:25:34Z</time>
      </trkpt>
      <trkpt lat="43.3461710" lon="-1.7618430">
        <ele>26.2</ele>
        <time>2020-07-30T09:25:35Z</time>
      </trkpt>
      <trkpt lat="43.3461210" lon="-1.7619010">
        <ele>25.6</ele>
        <time>2020-07-30T09:25:36Z</time>
      </trkpt>
      <trkpt lat="43.3459770" lon="-1.7620570">
        <ele>24.4</ele>
        <time>2020-07-30T09:25:39Z</time>
      </trkpt>
      <trkpt lat="43.3458430" lon="-1.7621990">
        <ele>24.2</ele>
        <time>2020-07-30T09:25:42Z</time>
      </trkpt>
      <trkpt lat="43.3457420" lon="-1.7623820">
        <ele>24.4</ele>
        <time>2020-07-30T09:25:46Z</time>
      </trkpt>
      <trkpt lat="43.3457070" lon="-1.7624950">
        <ele>24.4</ele>
        <time>2020-07-30T09:25:48Z</time>
      </trkpt>
      <trkpt lat="43.3456460" lon="-1.7625590">
        <ele>24.4</ele>
        <time>2020-07-30T09:25:50Z</time>
      </trkpt>
      <trkpt lat="43.3456080" lon="-1.7625600">
        <ele>24.4</ele>
        <time>2020-07-30T09:25:51Z</time>
      </trkpt>
      <trkpt lat="43.3455670" lon="-1.7625410">
        <ele>24.4</ele>
        <time>2020-07-30T09:25:52Z</time>
      </trkpt>
      <trkpt lat="43.3455230" lon="-1.7625090">
        <ele>24.6</ele>
        <time>2020-07-30T09:25:53Z</time>
      </trkpt>
      <trkpt lat="43.3453870" lon="-1.7623810">
        <ele>24.6</ele>
        <time>2020-07-30T09:25:56Z</time>
      </trkpt>
      <trkpt lat="43.3452970" lon="-1.7622780">
        <ele>24.6</ele>
        <time>2020-07-30T09:25:58Z</time>
      </trkpt>
      <trkpt lat="43.3452510" lon="-1.7622240">
        <ele>24.6</ele>
        <time>2020-07-30T09:25:59Z</time>
      </trkpt>
      <trkpt lat="43.3451070" lon="-1.7620640">
        <ele>24.4</ele>
        <time>2020-07-30T09:26:02Z</time>
      </trkpt>
      <trkpt lat="43.3450120" lon="-1.7619510">
        <ele>24.2</ele>
        <time>2020-07-30T09:26:04Z</time>
      </trkpt>
      <trkpt lat="43.3448620" lon="-1.7617860">
        <ele>24.0</ele>
        <time>2020-07-30T09:26:07Z</time>
      </trkpt>
      <trkpt lat="43.3445750" lon="-1.7615190">
        <ele>24.6</ele>
        <time>2020-07-30T09:26:13Z</time>
      </trkpt>
      <trkpt lat="43.3445290" lon="-1.7614880">
        <ele>24.6</ele>
        <time>2020-07-30T09:26:14Z</time>
      </trkpt>
      <trkpt lat="43.3443830" lon="-1.7613820">
        <ele>24.8</ele>
        <time>2020-07-30T09:26:17Z</time>
      </trkpt>
      <trkpt lat="43.3442900" lon="-1.7612870">
        <ele>24.8</ele>
        <time>2020-07-30T09:26:19Z</time>
      </trkpt>
      <trkpt lat="43.3440120" lon="-1.7609920">
        <ele>25.0</ele>
        <time>2020-07-30T09:26:25Z</time>
      </trkpt>
      <trkpt lat="43.3438650" lon="-1.7608360">
        <ele>25.2</ele>
        <time>2020-07-30T09:26:28Z</time>
      </trkpt>
      <trkpt lat="43.3435840" lon="-1.7605930">
        <ele>24.2</ele>
        <time>2020-07-30T09:26:34Z</time>
      </trkpt>
      <trkpt lat="43.3435230" lon="-1.7605920">
        <ele>24.2</ele>
        <time>2020-07-30T09:26:36Z</time>
      </trkpt>
      <trkpt lat="43.3435050" lon="-1.7606020">
        <ele>24.2</ele>
        <time>2020-07-30T09:26:37Z</time>
      </trkpt>
      <trkpt lat="43.3434870" lon="-1.7606020">
        <ele>24.2</ele>
        <time>2020-07-30T09:26:38Z</time>
      </trkpt>
      <trkpt lat="43.3434280" lon="-1.7605580">
        <ele>24.2</ele>
        <time>2020-07-30T09:26:42Z</time>
      </trkpt>
      <trkpt lat="43.3433770" lon="-1.7605130">
        <ele>24.0</ele>
        <time>2020-07-30T09:26:46Z</time>
      </trkpt>
      <trkpt lat="43.3433180" lon="-1.7604570">
        <ele>23.6</ele>
        <time>2020-07-30T09:26:52Z</time>
      </trkpt>
      <trkpt lat="43.3433170" lon="-1.7604430">
        <ele>23.6</ele>
        <time>2020-07-30T09:26:53Z</time>
      </trkpt>
      <trkpt lat="43.3433240" lon="-1.7604370">
        <ele>23.4</ele>
        <time>2020-07-30T09:26:54Z</time>
      </trkpt>
      <trkpt lat="43.3433470" lon="-1.7604540">
        <ele>23.4</ele>
        <time>2020-07-30T09:26:56Z</time>
      </trkpt>
      <trkpt lat="43.3433590" lon="-1.7604780">
        <ele>23.2</ele>
        <time>2020-07-30T09:26:57Z</time>
      </trkpt>
      <trkpt lat="43.3434280" lon="-1.7605550">
        <ele>23.2</ele>
        <time>2020-07-30T09:27:01Z</time>
      </trkpt>
      <trkpt lat="43.3434500" lon="-1.7605390">
        <ele>23.2</ele>
        <time>2020-07-30T09:27:02Z</time>
      </trkpt>
      <trkpt lat="43.3434310" lon="-1.7604810">
        <ele>23.4</ele>
        <time>2020-07-30T09:27:05Z</time>
      </trkpt>
      <trkpt lat="43.3433260" lon="-1.7603930">
        <ele>23.2</ele>
        <time>2020-07-30T09:27:11Z</time>
      </trkpt>
      <trkpt lat="43.3433120" lon="-1.7603710">
        <ele>23.2</ele>
        <time>2020-07-30T09:27:12Z</time>
      </trkpt>
      <trkpt lat="43.3432190" lon="-1.7602930">
        <ele>23.4</ele>
        <time>2020-07-30T09:27:15Z</time>
      </trkpt>
      <trkpt lat="43.3429480" lon="-1.7601680">
        <ele>22.8</ele>
        <time>2020-07-30T09:27:21Z</time>
      </trkpt>
      <trkpt lat="43.3428960" lon="-1.7601610">
        <ele>22.8</ele>
        <time>2020-07-30T09:27:22Z</time>
      </trkpt>
      <trkpt lat="43.3427930" lon="-1.7601890">
        <ele>22.6</ele>
        <time>2020-07-30T09:27:24Z</time>
      </trkpt>
      <trkpt lat="43.3427460" lon="-1.7602320">
        <ele>22.6</ele>
        <time>2020-07-30T09:27:25Z</time>
      </trkpt>
      <trkpt lat="43.3425330" lon="-1.7604820">
        <ele>22.8</ele>
        <time>2020-07-30T09:27:30Z</time>
      </trkpt>
      <trkpt lat="43.3425020" lon="-1.7605460">
        <ele>23.0</ele>
        <time>2020-07-30T09:27:31Z</time>
      </trkpt>
      <trkpt lat="43.3424500" lon="-1.7606820">
        <ele>23.0</ele>
        <time>2020-07-30T09:27:33Z</time>
      </trkpt>
      <trkpt lat="43.3424030" lon="-1.7609030">
        <ele>22.8</ele>
        <time>2020-07-30T09:27:36Z</time>
      </trkpt>
      <trkpt lat="43.3423920" lon="-1.7611200">
        <ele>22.8</ele>
        <time>2020-07-30T09:27:39Z</time>
      </trkpt>
      <trkpt lat="43.3424010" lon="-1.7612170">
        <ele>22.8</ele>
        <time>2020-07-30T09:27:41Z</time>
      </trkpt>
      <trkpt lat="43.3424100" lon="-1.7612690">
        <ele>23.0</ele>
        <time>2020-07-30T09:27:45Z</time>
      </trkpt>
      <trkpt lat="43.3424060" lon="-1.7612630">
        <ele>23.2</ele>
        <time>2020-07-30T09:27:50Z</time>
      </trkpt>
      <trkpt lat="43.3424070" lon="-1.7612700">
        <ele>23.0</ele>
        <time>2020-07-30T09:27:56Z</time>
      </trkpt>
      <trkpt lat="43.3424060" lon="-1.7612730">
        <ele>22.8</ele>
        <time>2020-07-30T09:27:58Z</time>
      </trkpt>
      <trkpt lat="43.3424060" lon="-1.7613010">
        <ele>22.8</ele>
        <time>2020-07-30T09:28:03Z</time>
      </trkpt>
      <trkpt lat="43.3424140" lon="-1.7613640">
        <ele>22.8</ele>
        <time>2020-07-30T09:28:05Z</time>
      </trkpt>
      <trkpt lat="43.3424740" lon="-1.7615840">
        <ele>22.6</ele>
        <time>2020-07-30T09:28:09Z</time>
      </trkpt>
      <trkpt lat="43.3425100" lon="-1.7617310">
        <ele>22.0</ele>
        <time>2020-07-30T09:28:11Z</time>
      </trkpt>
      <trkpt lat="43.3425900" lon="-1.7620570">
        <ele>21.4</ele>
        <time>2020-07-30T09:28:15Z</time>
      </trkpt>
      <trkpt lat="43.3426290" lon="-1.7622300">
        <ele>21.2</ele>
        <time>2020-07-30T09:28:17Z</time>
      </trkpt>
      <trkpt lat="43.3426470" lon="-1.7623190">
        <ele>21.2</ele>
        <time>2020-07-30T09:28:18Z</time>
      </trkpt>
      <trkpt lat="43.3426890" lon="-1.7625970">
        <ele>20.8</ele>
        <time>2020-07-30T09:28:21Z</time>
      </trkpt>
      <trkpt lat="43.3426970" lon="-1.7626900">
        <ele>20.6</ele>
        <time>2020-07-30T09:28:22Z</time>
      </trkpt>
      <trkpt lat="43.3427000" lon="-1.7629690">
        <ele>20.4</ele>
        <time>2020-07-30T09:28:25Z</time>
      </trkpt>
      <trkpt lat="43.3426880" lon="-1.7631470">
        <ele>20.6</ele>
        <time>2020-07-30T09:28:27Z</time>
      </trkpt>
      <trkpt lat="43.3426150" lon="-1.7637000">
        <ele>20.6</ele>
        <time>2020-07-30T09:28:33Z</time>
      </trkpt>
      <trkpt lat="43.3425990" lon="-1.7637930">
        <ele>20.8</ele>
        <time>2020-07-30T09:28:34Z</time>
      </trkpt>
      <trkpt lat="43.3425510" lon="-1.7640830">
        <ele>21.0</ele>
        <time>2020-07-30T09:28:37Z</time>
      </trkpt>
      <trkpt lat="43.3424870" lon="-1.7644790">
        <ele>20.8</ele>
        <time>2020-07-30T09:28:41Z</time>
      </trkpt>
      <trkpt lat="43.3423920" lon="-1.7650910">
        <ele>21.4</ele>
        <time>2020-07-30T09:28:47Z</time>
      </trkpt>
      <trkpt lat="43.3423460" lon="-1.7654080">
        <ele>21.6</ele>
        <time>2020-07-30T09:28:50Z</time>
      </trkpt>
      <trkpt lat="43.3423290" lon="-1.7655150">
        <ele>21.6</ele>
        <time>2020-07-30T09:28:51Z</time>
      </trkpt>
      <trkpt lat="43.3422270" lon="-1.7661550">
        <ele>21.0</ele>
        <time>2020-07-30T09:28:57Z</time>
      </trkpt>
      <trkpt lat="43.3421850" lon="-1.7664660">
        <ele>21.2</ele>
        <time>2020-07-30T09:29:00Z</time>
      </trkpt>
      <trkpt lat="43.3420880" lon="-1.7670920">
        <ele>22.0</ele>
        <time>2020-07-30T09:29:06Z</time>
      </trkpt>
      <trkpt lat="43.3420450" lon="-1.7674050">
        <ele>22.8</ele>
        <time>2020-07-30T09:29:09Z</time>
      </trkpt>
      <trkpt lat="43.3420300" lon="-1.7675110">
        <ele>23.2</ele>
        <time>2020-07-30T09:29:10Z</time>
      </trkpt>
      <trkpt lat="43.3419960" lon="-1.7677280">
        <ele>23.0</ele>
        <time>2020-07-30T09:29:12Z</time>
      </trkpt>
      <trkpt lat="43.3419530" lon="-1.7681800">
        <ele>22.8</ele>
        <time>2020-07-30T09:29:16Z</time>
      </trkpt>
      <trkpt lat="43.3419420" lon="-1.7682950">
        <ele>22.8</ele>
        <time>2020-07-30T09:29:17Z</time>
      </trkpt>
      <trkpt lat="43.3419280" lon="-1.7684090">
        <ele>22.8</ele>
        <time>2020-07-30T09:29:18Z</time>
      </trkpt>
      <trkpt lat="43.3419000" lon="-1.7687550">
        <ele>22.6</ele>
        <time>2020-07-30T09:29:21Z</time>
      </trkpt>
      <trkpt lat="43.3418750" lon="-1.7689830">
        <ele>21.8</ele>
        <time>2020-07-30T09:29:23Z</time>
      </trkpt>
      <trkpt lat="43.3418630" lon="-1.7690970">
        <ele>21.6</ele>
        <time>2020-07-30T09:29:24Z</time>
      </trkpt>
      <trkpt lat="43.3418540" lon="-1.7692090">
        <ele>21.4</ele>
        <time>2020-07-30T09:29:25Z</time>
      </trkpt>
      <trkpt lat="43.3418100" lon="-1.7698670">
        <ele>21.4</ele>
        <time>2020-07-30T09:29:31Z</time>
      </trkpt>
      <trkpt lat="43.3417950" lon="-1.7700680">
        <ele>21.4</ele>
        <time>2020-07-30T09:29:33Z</time>
      </trkpt>
      <trkpt lat="43.3417820" lon="-1.7702590">
        <ele>21.4</ele>
        <time>2020-07-30T09:29:35Z</time>
      </trkpt>
      <trkpt lat="43.3417680" lon="-1.7704420">
        <ele>21.6</ele>
        <time>2020-07-30T09:29:37Z</time>
      </trkpt>
      <trkpt lat="43.3417520" lon="-1.7706160">
        <ele>21.8</ele>
        <time>2020-07-30T09:29:39Z</time>
      </trkpt>
      <trkpt lat="43.3417420" lon="-1.7709370">
        <ele>22.2</ele>
        <time>2020-07-30T09:29:44Z</time>
      </trkpt>
      <trkpt lat="43.3417410" lon="-1.7711450">
        <ele>22.4</ele>
        <time>2020-07-30T09:29:48Z</time>
      </trkpt>
      <trkpt lat="43.3417320" lon="-1.7713300">
        <ele>22.4</ele>
        <time>2020-07-30T09:29:51Z</time>
      </trkpt>
      <trkpt lat="43.3417290" lon="-1.7713990">
        <ele>22.4</ele>
        <time>2020-07-30T09:29:52Z</time>
      </trkpt>
      <trkpt lat="43.3417180" lon="-1.7716760">
        <ele>22.2</ele>
        <time>2020-07-30T09:29:56Z</time>
      </trkpt>
      <trkpt lat="43.3417240" lon="-1.7717980">
        <ele>22.4</ele>
        <time>2020-07-30T09:29:58Z</time>
      </trkpt>
      <trkpt lat="43.3417160" lon="-1.7720800">
        <ele>22.6</ele>
        <time>2020-07-30T09:30:02Z</time>
      </trkpt>
      <trkpt lat="43.3417320" lon="-1.7721500">
        <ele>22.4</ele>
        <time>2020-07-30T09:30:03Z</time>
      </trkpt>
      <trkpt lat="43.3417620" lon="-1.7722850">
        <ele>22.4</ele>
        <time>2020-07-30T09:30:05Z</time>
      </trkpt>
      <trkpt lat="43.3417430" lon="-1.7724190">
        <ele>22.4</ele>
        <time>2020-07-30T09:30:07Z</time>
      </trkpt>
      <trkpt lat="43.3417170" lon="-1.7726340">
        <ele>22.6</ele>
        <time>2020-07-30T09:30:10Z</time>
      </trkpt>
      <trkpt lat="43.3417120" lon="-1.7727950">
        <ele>22.8</ele>
        <time>2020-07-30T09:30:12Z</time>
      </trkpt>
      <trkpt lat="43.3417140" lon="-1.7730510">
        <ele>22.8</ele>
        <time>2020-07-30T09:30:15Z</time>
      </trkpt>
      <trkpt lat="43.3417380" lon="-1.7735860">
        <ele>22.6</ele>
        <time>2020-07-30T09:30:21Z</time>
      </trkpt>
      <trkpt lat="43.3417480" lon="-1.7738580">
        <ele>22.6</ele>
        <time>2020-07-30T09:30:24Z</time>
      </trkpt>
      <trkpt lat="43.3417490" lon="-1.7742270">
        <ele>22.2</ele>
        <time>2020-07-30T09:30:28Z</time>
      </trkpt>
      <trkpt lat="43.3417190" lon="-1.7747840">
        <ele>22.6</ele>
        <time>2020-07-30T09:30:34Z</time>
      </trkpt>
      <trkpt lat="43.3417090" lon="-1.7748750">
        <ele>22.6</ele>
        <time>2020-07-30T09:30:35Z</time>
      </trkpt>
      <trkpt lat="43.3416120" lon="-1.7753890">
        <ele>22.4</ele>
        <time>2020-07-30T09:30:41Z</time>
      </trkpt>
      <trkpt lat="43.3415870" lon="-1.7754680">
        <ele>22.6</ele>
        <time>2020-07-30T09:30:42Z</time>
      </trkpt>
      <trkpt lat="43.3414950" lon="-1.7757750">
        <ele>23.4</ele>
        <time>2020-07-30T09:30:47Z</time>
      </trkpt>
      <trkpt lat="43.3413970" lon="-1.7760620">
        <ele>23.8</ele>
        <time>2020-07-30T09:30:53Z</time>
      </trkpt>
      <trkpt lat="43.3413810" lon="-1.7761070">
        <ele>23.8</ele>
        <time>2020-07-30T09:30:54Z</time>
      </trkpt>
      <trkpt lat="43.3412320" lon="-1.7763770">
        <ele>24.0</ele>
        <time>2020-07-30T09:31:00Z</time>
      </trkpt>
      <trkpt lat="43.3411780" lon="-1.7765020">
        <ele>24.0</ele>
        <time>2020-07-30T09:31:02Z</time>
      </trkpt>
      <trkpt lat="43.3410710" lon="-1.7767770">
        <ele>23.8</ele>
        <time>2020-07-30T09:31:06Z</time>
      </trkpt>
      <trkpt lat="43.3409670" lon="-1.7770800">
        <ele>23.8</ele>
        <time>2020-07-30T09:31:10Z</time>
      </trkpt>
      <trkpt lat="43.3409480" lon="-1.7772520">
        <ele>23.8</ele>
        <time>2020-07-30T09:31:12Z</time>
      </trkpt>
      <trkpt lat="43.3409440" lon="-1.7773390">
        <ele>23.8</ele>
        <time>2020-07-30T09:31:13Z</time>
      </trkpt>
      <trkpt lat="43.3409300" lon="-1.7775170">
        <ele>23.6</ele>
        <time>2020-07-30T09:31:15Z</time>
      </trkpt>
      <trkpt lat="43.3409070" lon="-1.7778830">
        <ele>23.4</ele>
        <time>2020-07-30T09:31:19Z</time>
      </trkpt>
      <trkpt lat="43.3408850" lon="-1.7781700">
        <ele>22.8</ele>
        <time>2020-07-30T09:31:22Z</time>
      </trkpt>
      <trkpt lat="43.3408710" lon="-1.7784490">
        <ele>22.4</ele>
        <time>2020-07-30T09:31:25Z</time>
      </trkpt>
      <trkpt lat="43.3408560" lon="-1.7787250">
        <ele>22.4</ele>
        <time>2020-07-30T09:31:28Z</time>
      </trkpt>
      <trkpt lat="43.3408280" lon="-1.7791610">
        <ele>22.2</ele>
        <time>2020-07-30T09:31:33Z</time>
      </trkpt>
      <trkpt lat="43.3407960" lon="-1.7796560">
        <ele>22.0</ele>
        <time>2020-07-30T09:31:39Z</time>
      </trkpt>
      <trkpt lat="43.3407930" lon="-1.7797350">
        <ele>21.8</ele>
        <time>2020-07-30T09:31:40Z</time>
      </trkpt>
      <trkpt lat="43.3408000" lon="-1.7798890">
        <ele>21.6</ele>
        <time>2020-07-30T09:31:42Z</time>
      </trkpt>
      <trkpt lat="43.3408210" lon="-1.7800420">
        <ele>21.4</ele>
        <time>2020-07-30T09:31:44Z</time>
      </trkpt>
      <trkpt lat="43.3408930" lon="-1.7802580">
        <ele>22.0</ele>
        <time>2020-07-30T09:31:47Z</time>
      </trkpt>
      <trkpt lat="43.3409680" lon="-1.7804820">
        <ele>22.4</ele>
        <time>2020-07-30T09:31:50Z</time>
      </trkpt>
      <trkpt lat="43.3409720" lon="-1.7805730">
        <ele>22.2</ele>
        <time>2020-07-30T09:31:51Z</time>
      </trkpt>
      <trkpt lat="43.3409740" lon="-1.7806640">
        <ele>22.0</ele>
        <time>2020-07-30T09:31:52Z</time>
      </trkpt>
      <trkpt lat="43.3409780" lon="-1.7808520">
        <ele>22.2</ele>
        <time>2020-07-30T09:31:54Z</time>
      </trkpt>
      <trkpt lat="43.3410200" lon="-1.7812240">
        <ele>22.4</ele>
        <time>2020-07-30T09:31:58Z</time>
      </trkpt>
      <trkpt lat="43.3410680" lon="-1.7813970">
        <ele>22.8</ele>
        <time>2020-07-30T09:32:00Z</time>
      </trkpt>
      <trkpt lat="43.3411630" lon="-1.7816390">
        <ele>23.0</ele>
        <time>2020-07-30T09:32:03Z</time>
      </trkpt>
      <trkpt lat="43.3412660" lon="-1.7818730">
        <ele>23.0</ele>
        <time>2020-07-30T09:32:06Z</time>
      </trkpt>
      <trkpt lat="43.3414770" lon="-1.7823370">
        <ele>23.8</ele>
        <time>2020-07-30T09:32:12Z</time>
      </trkpt>
      <trkpt lat="43.3415120" lon="-1.7824150">
        <ele>24.2</ele>
        <time>2020-07-30T09:32:13Z</time>
      </trkpt>
      <trkpt lat="43.3415480" lon="-1.7824910">
        <ele>24.6</ele>
        <time>2020-07-30T09:32:14Z</time>
      </trkpt>
      <trkpt lat="43.3415840" lon="-1.7825690">
        <ele>25.0</ele>
        <time>2020-07-30T09:32:15Z</time>
      </trkpt>
      <trkpt lat="43.3416200" lon="-1.7826500">
        <ele>25.2</ele>
        <time>2020-07-30T09:32:16Z</time>
      </trkpt>
      <trkpt lat="43.3416960" lon="-1.7828150">
        <ele>25.4</ele>
        <time>2020-07-30T09:32:18Z</time>
      </trkpt>
      <trkpt lat="43.3417350" lon="-1.7828980">
        <ele>25.4</ele>
        <time>2020-07-30T09:32:19Z</time>
      </trkpt>
      <trkpt lat="43.3419930" lon="-1.7834130">
        <ele>24.8</ele>
        <time>2020-07-30T09:32:25Z</time>
      </trkpt>
      <trkpt lat="43.3420830" lon="-1.7835830">
        <ele>24.6</ele>
        <time>2020-07-30T09:32:27Z</time>
      </trkpt>
      <trkpt lat="43.3421760" lon="-1.7837560">
        <ele>24.6</ele>
        <time>2020-07-30T09:32:29Z</time>
      </trkpt>
      <trkpt lat="43.3424590" lon="-1.7842600">
        <ele>24.6</ele>
        <time>2020-07-30T09:32:35Z</time>
      </trkpt>
      <trkpt lat="43.3425030" lon="-1.7843450">
        <ele>24.6</ele>
        <time>2020-07-30T09:32:36Z</time>
      </trkpt>
      <trkpt lat="43.3427540" lon="-1.7848410">
        <ele>25.8</ele>
        <time>2020-07-30T09:32:42Z</time>
      </trkpt>
      <trkpt lat="43.3428720" lon="-1.7850920">
        <ele>25.6</ele>
        <time>2020-07-30T09:32:45Z</time>
      </trkpt>
      <trkpt lat="43.3430980" lon="-1.7856000">
        <ele>25.8</ele>
        <time>2020-07-30T09:32:51Z</time>
      </trkpt>
      <trkpt lat="43.3432510" lon="-1.7859320">
        <ele>26.4</ele>
        <time>2020-07-30T09:32:55Z</time>
      </trkpt>
      <trkpt lat="43.3433280" lon="-1.7860980">
        <ele>26.2</ele>
        <time>2020-07-30T09:32:57Z</time>
      </trkpt>
      <trkpt lat="43.3435470" lon="-1.7865890">
        <ele>26.8</ele>
        <time>2020-07-30T09:33:03Z</time>
      </trkpt>
      <trkpt lat="43.3436490" lon="-1.7868230">
        <ele>27.6</ele>
        <time>2020-07-30T09:33:06Z</time>
      </trkpt>
      <trkpt lat="43.3436800" lon="-1.7868990">
        <ele>27.6</ele>
        <time>2020-07-30T09:33:07Z</time>
      </trkpt>
      <trkpt lat="43.3437920" lon="-1.7872020">
        <ele>28.6</ele>
        <time>2020-07-30T09:33:11Z</time>
      </trkpt>
      <trkpt lat="43.3439030" lon="-1.7875830">
        <ele>29.6</ele>
        <time>2020-07-30T09:33:16Z</time>
      </trkpt>
      <trkpt lat="43.3439810" lon="-1.7879940">
        <ele>30.6</ele>
        <time>2020-07-30T09:33:22Z</time>
      </trkpt>
      <trkpt lat="43.3440350" lon="-1.7884940">
        <ele>30.6</ele>
        <time>2020-07-30T09:33:28Z</time>
      </trkpt>
      <trkpt lat="43.3440450" lon="-1.7885830">
        <ele>30.6</ele>
        <time>2020-07-30T09:33:29Z</time>
      </trkpt>
      <trkpt lat="43.3440720" lon="-1.7888570">
        <ele>30.6</ele>
        <time>2020-07-30T09:33:32Z</time>
      </trkpt>
      <trkpt lat="43.3441080" lon="-1.7894390">
        <ele>30.2</ele>
        <time>2020-07-30T09:33:38Z</time>
      </trkpt>
      <trkpt lat="43.3441110" lon="-1.7895400">
        <ele>30.2</ele>
        <time>2020-07-30T09:33:39Z</time>
      </trkpt>
      <trkpt lat="43.3441380" lon="-1.7901540">
        <ele>29.6</ele>
        <time>2020-07-30T09:33:45Z</time>
      </trkpt>
      <trkpt lat="43.3441620" lon="-1.7904660">
        <ele>29.2</ele>
        <time>2020-07-30T09:33:48Z</time>
      </trkpt>
      <trkpt lat="43.3441810" lon="-1.7910860">
        <ele>29.8</ele>
        <time>2020-07-30T09:33:54Z</time>
      </trkpt>
      <trkpt lat="43.3441860" lon="-1.7914610">
        <ele>30.6</ele>
        <time>2020-07-30T09:33:58Z</time>
      </trkpt>
      <trkpt lat="43.3441870" lon="-1.7915500">
        <ele>30.8</ele>
        <time>2020-07-30T09:33:59Z</time>
      </trkpt>
      <trkpt lat="43.3442060" lon="-1.7918990">
        <ele>32.0</ele>
        <time>2020-07-30T09:34:03Z</time>
      </trkpt>
      <trkpt lat="43.3442300" lon="-1.7920660">
        <ele>32.4</ele>
        <time>2020-07-30T09:34:05Z</time>
      </trkpt>
      <trkpt lat="43.3442870" lon="-1.7922970">
        <ele>32.8</ele>
        <time>2020-07-30T09:34:08Z</time>
      </trkpt>
      <trkpt lat="43.3443100" lon="-1.7923710">
        <ele>33.2</ele>
        <time>2020-07-30T09:34:09Z</time>
      </trkpt>
      <trkpt lat="43.3443880" lon="-1.7925860">
        <ele>34.0</ele>
        <time>2020-07-30T09:34:12Z</time>
      </trkpt>
      <trkpt lat="43.3444460" lon="-1.7927210">
        <ele>34.2</ele>
        <time>2020-07-30T09:34:14Z</time>
      </trkpt>
      <trkpt lat="43.3445910" lon="-1.7929550">
        <ele>35.4</ele>
        <time>2020-07-30T09:34:18Z</time>
      </trkpt>
      <trkpt lat="43.3448570" lon="-1.7932690">
        <ele>36.4</ele>
        <time>2020-07-30T09:34:24Z</time>
      </trkpt>
      <trkpt lat="43.3449020" lon="-1.7933250">
        <ele>36.4</ele>
        <time>2020-07-30T09:34:25Z</time>
      </trkpt>
      <trkpt lat="43.3451130" lon="-1.7936670">
        <ele>35.6</ele>
        <time>2020-07-30T09:34:30Z</time>
      </trkpt>
      <trkpt lat="43.3451470" lon="-1.7937510">
        <ele>35.4</ele>
        <time>2020-07-30T09:34:31Z</time>
      </trkpt>
      <trkpt lat="43.3452010" lon="-1.7939350">
        <ele>35.0</ele>
        <time>2020-07-30T09:34:33Z</time>
      </trkpt>
      <trkpt lat="43.3452190" lon="-1.7940340">
        <ele>34.6</ele>
        <time>2020-07-30T09:34:34Z</time>
      </trkpt>
      <trkpt lat="43.3452310" lon="-1.7941360">
        <ele>34.4</ele>
        <time>2020-07-30T09:34:35Z</time>
      </trkpt>
      <trkpt lat="43.3452320" lon="-1.7945790">
        <ele>33.2</ele>
        <time>2020-07-30T09:34:39Z</time>
      </trkpt>
      <trkpt lat="43.3451980" lon="-1.7949420">
        <ele>32.0</ele>
        <time>2020-07-30T09:34:42Z</time>
      </trkpt>
      <trkpt lat="43.3451840" lon="-1.7950670">
        <ele>31.6</ele>
        <time>2020-07-30T09:34:43Z</time>
      </trkpt>
      <trkpt lat="43.3451540" lon="-1.7953160">
        <ele>30.8</ele>
        <time>2020-07-30T09:34:45Z</time>
      </trkpt>
      <trkpt lat="43.3451220" lon="-1.7955660">
        <ele>29.4</ele>
        <time>2020-07-30T09:34:47Z</time>
      </trkpt>
      <trkpt lat="43.3450720" lon="-1.7959400">
        <ele>28.2</ele>
        <time>2020-07-30T09:34:50Z</time>
      </trkpt>
      <trkpt lat="43.3450230" lon="-1.7963160">
        <ele>27.2</ele>
        <time>2020-07-30T09:34:53Z</time>
      </trkpt>
      <trkpt lat="43.3449830" lon="-1.7967080">
        <ele>26.0</ele>
        <time>2020-07-30T09:34:56Z</time>
      </trkpt>
      <trkpt lat="43.3449690" lon="-1.7969870">
        <ele>24.8</ele>
        <time>2020-07-30T09:34:58Z</time>
      </trkpt>
      <trkpt lat="43.3449670" lon="-1.7971310">
        <ele>24.2</ele>
        <time>2020-07-30T09:34:59Z</time>
      </trkpt>
      <trkpt lat="43.3449740" lon="-1.7972750">
        <ele>23.6</ele>
        <time>2020-07-30T09:35:00Z</time>
      </trkpt>
      <trkpt lat="43.3449970" lon="-1.7975660">
        <ele>22.8</ele>
        <time>2020-07-30T09:35:02Z</time>
      </trkpt>
      <trkpt lat="43.3450120" lon="-1.7977100">
        <ele>22.6</ele>
        <time>2020-07-30T09:35:03Z</time>
      </trkpt>
      <trkpt lat="43.3450360" lon="-1.7978440">
        <ele>22.6</ele>
        <time>2020-07-30T09:35:04Z</time>
      </trkpt>
      <trkpt lat="43.3450640" lon="-1.7979730">
        <ele>22.6</ele>
        <time>2020-07-30T09:35:05Z</time>
      </trkpt>
      <trkpt lat="43.3450960" lon="-1.7980940">
        <ele>22.6</ele>
        <time>2020-07-30T09:35:06Z</time>
      </trkpt>
      <trkpt lat="43.3451310" lon="-1.7982060">
        <ele>22.8</ele>
        <time>2020-07-30T09:35:07Z</time>
      </trkpt>
      <trkpt lat="43.3451640" lon="-1.7983170">
        <ele>23.2</ele>
        <time>2020-07-30T09:35:08Z</time>
      </trkpt>
      <trkpt lat="43.3453480" lon="-1.7988120">
        <ele>23.8</ele>
        <time>2020-07-30T09:35:13Z</time>
      </trkpt>
      <trkpt lat="43.3455520" lon="-1.7993670">
        <ele>24.6</ele>
        <time>2020-07-30T09:35:19Z</time>
      </trkpt>
      <trkpt lat="43.3455810" lon="-1.7994580">
        <ele>25.0</ele>
        <time>2020-07-30T09:35:20Z</time>
      </trkpt>
      <trkpt lat="43.3456800" lon="-1.7998220">
        <ele>25.6</ele>
        <time>2020-07-30T09:35:24Z</time>
      </trkpt>
      <trkpt lat="43.3457020" lon="-1.7999140">
        <ele>26.0</ele>
        <time>2020-07-30T09:35:25Z</time>
      </trkpt>
      <trkpt lat="43.3457240" lon="-1.8000060">
        <ele>26.0</ele>
        <time>2020-07-30T09:35:26Z</time>
      </trkpt>
      <trkpt lat="43.3457450" lon="-1.8000990">
        <ele>26.0</ele>
        <time>2020-07-30T09:35:27Z</time>
      </trkpt>
      <trkpt lat="43.3457660" lon="-1.8001900">
        <ele>26.2</ele>
        <time>2020-07-30T09:35:28Z</time>
      </trkpt>
      <trkpt lat="43.3457860" lon="-1.8002810">
        <ele>26.4</ele>
        <time>2020-07-30T09:35:29Z</time>
      </trkpt>
      <trkpt lat="43.3458070" lon="-1.8003740">
        <ele>26.2</ele>
        <time>2020-07-30T09:35:30Z</time>
      </trkpt>
      <trkpt lat="43.3458270" lon="-1.8004670">
        <ele>26.2</ele>
        <time>2020-07-30T09:35:31Z</time>
      </trkpt>
      <trkpt lat="43.3458450" lon="-1.8005640">
        <ele>26.2</ele>
        <time>2020-07-30T09:35:32Z</time>
      </trkpt>
      <trkpt lat="43.3459490" lon="-1.8011260">
        <ele>26.6</ele>
        <time>2020-07-30T09:35:38Z</time>
      </trkpt>
      <trkpt lat="43.3460410" lon="-1.8015660">
        <ele>27.2</ele>
        <time>2020-07-30T09:35:43Z</time>
      </trkpt>
      <trkpt lat="43.3461070" lon="-1.8019370">
        <ele>27.2</ele>
        <time>2020-07-30T09:35:47Z</time>
      </trkpt>
      <trkpt lat="43.3462260" lon="-1.8025210">
        <ele>26.4</ele>
        <time>2020-07-30T09:35:53Z</time>
      </trkpt>
      <trkpt lat="43.3462470" lon="-1.8026250">
        <ele>26.0</ele>
        <time>2020-07-30T09:35:54Z</time>
      </trkpt>
      <trkpt lat="43.3463240" lon="-1.8029400">
        <ele>24.6</ele>
        <time>2020-07-30T09:35:57Z</time>
      </trkpt>
      <trkpt lat="43.3464390" lon="-1.8032560">
        <ele>23.4</ele>
        <time>2020-07-30T09:36:00Z</time>
      </trkpt>
      <trkpt lat="43.3465440" lon="-1.8034500">
        <ele>23.0</ele>
        <time>2020-07-30T09:36:02Z</time>
      </trkpt>
      <trkpt lat="43.3466590" lon="-1.8036250">
        <ele>22.6</ele>
        <time>2020-07-30T09:36:04Z</time>
      </trkpt>
      <trkpt lat="43.3468750" lon="-1.8039600">
        <ele>22.4</ele>
        <time>2020-07-30T09:36:08Z</time>
      </trkpt>
      <trkpt lat="43.3469980" lon="-1.8042300">
        <ele>22.6</ele>
        <time>2020-07-30T09:36:11Z</time>
      </trkpt>
      <trkpt lat="43.3471100" lon="-1.8047180">
        <ele>23.4</ele>
        <time>2020-07-30T09:36:16Z</time>
      </trkpt>
      <trkpt lat="43.3471450" lon="-1.8050260">
        <ele>23.8</ele>
        <time>2020-07-30T09:36:19Z</time>
      </trkpt>
      <trkpt lat="43.3471670" lon="-1.8052340">
        <ele>24.0</ele>
        <time>2020-07-30T09:36:21Z</time>
      </trkpt>
      <trkpt lat="43.3472240" lon="-1.8057610">
        <ele>23.6</ele>
        <time>2020-07-30T09:36:26Z</time>
      </trkpt>
      <trkpt lat="43.3472600" lon="-1.8060900">
        <ele>23.4</ele>
        <time>2020-07-30T09:36:29Z</time>
      </trkpt>
      <trkpt lat="43.3473180" lon="-1.8066470">
        <ele>22.4</ele>
        <time>2020-07-30T09:36:34Z</time>
      </trkpt>
      <trkpt lat="43.3473300" lon="-1.8067590">
        <ele>22.4</ele>
        <time>2020-07-30T09:36:35Z</time>
      </trkpt>
      <trkpt lat="43.3474030" lon="-1.8074380">
        <ele>21.8</ele>
        <time>2020-07-30T09:36:41Z</time>
      </trkpt>
      <trkpt lat="43.3474790" lon="-1.8081110">
        <ele>22.0</ele>
        <time>2020-07-30T09:36:47Z</time>
      </trkpt>
      <trkpt lat="43.3475020" lon="-1.8083280">
        <ele>21.8</ele>
        <time>2020-07-30T09:36:49Z</time>
      </trkpt>
      <trkpt lat="43.3475660" lon="-1.8089490">
        <ele>21.6</ele>
        <time>2020-07-30T09:36:55Z</time>
      </trkpt>
      <trkpt lat="43.3475970" lon="-1.8092440">
        <ele>22.2</ele>
        <time>2020-07-30T09:36:58Z</time>
      </trkpt>
      <trkpt lat="43.3476530" lon="-1.8097920">
        <ele>23.2</ele>
        <time>2020-07-30T09:37:04Z</time>
      </trkpt>
      <trkpt lat="43.3476610" lon="-1.8098740">
        <ele>23.6</ele>
        <time>2020-07-30T09:37:05Z</time>
      </trkpt>
      <trkpt lat="43.3476760" lon="-1.8101070">
        <ele>24.6</ele>
        <time>2020-07-30T09:37:08Z</time>
      </trkpt>
      <trkpt lat="43.3476820" lon="-1.8103320">
        <ele>25.6</ele>
        <time>2020-07-30T09:37:11Z</time>
      </trkpt>
      <trkpt lat="43.3476830" lon="-1.8104080">
        <ele>26.2</ele>
        <time>2020-07-30T09:37:12Z</time>
      </trkpt>
      <trkpt lat="43.3476820" lon="-1.8104830">
        <ele>26.4</ele>
        <time>2020-07-30T09:37:13Z</time>
      </trkpt>
      <trkpt lat="43.3476800" lon="-1.8105580">
        <ele>26.8</ele>
        <time>2020-07-30T09:37:14Z</time>
      </trkpt>
      <trkpt lat="43.3476660" lon="-1.8108560">
        <ele>27.8</ele>
        <time>2020-07-30T09:37:18Z</time>
      </trkpt>
      <trkpt lat="43.3476390" lon="-1.8112090">
        <ele>28.8</ele>
        <time>2020-07-30T09:37:23Z</time>
      </trkpt>
      <trkpt lat="43.3476240" lon="-1.8114660">
        <ele>30.0</ele>
        <time>2020-07-30T09:37:27Z</time>
      </trkpt>
      <trkpt lat="43.3475980" lon="-1.8117810">
        <ele>30.8</ele>
        <time>2020-07-30T09:37:32Z</time>
      </trkpt>
      <trkpt lat="43.3475940" lon="-1.8118430">
        <ele>31.0</ele>
        <time>2020-07-30T09:37:33Z</time>
      </trkpt>
      <trkpt lat="43.3475620" lon="-1.8121790">
        <ele>31.8</ele>
        <time>2020-07-30T09:37:38Z</time>
      </trkpt>
      <trkpt lat="43.3475470" lon="-1.8122500">
        <ele>31.8</ele>
        <time>2020-07-30T09:37:39Z</time>
      </trkpt>
      <trkpt lat="43.3474050" lon="-1.8126090">
        <ele>31.2</ele>
        <time>2020-07-30T09:37:44Z</time>
      </trkpt>
      <trkpt lat="43.3472540" lon="-1.8128280">
        <ele>29.8</ele>
        <time>2020-07-30T09:37:47Z</time>
      </trkpt>
      <trkpt lat="43.3471240" lon="-1.8129810">
        <ele>28.4</ele>
        <time>2020-07-30T09:37:49Z</time>
      </trkpt>
      <trkpt lat="43.3469800" lon="-1.8131420">
        <ele>27.2</ele>
        <time>2020-07-30T09:37:51Z</time>
      </trkpt>
      <trkpt lat="43.3469040" lon="-1.8132250">
        <ele>26.6</ele>
        <time>2020-07-30T09:37:52Z</time>
      </trkpt>
      <trkpt lat="43.3468270" lon="-1.8133120">
        <ele>25.6</ele>
        <time>2020-07-30T09:37:53Z</time>
      </trkpt>
      <trkpt lat="43.3466720" lon="-1.8134890">
        <ele>24.2</ele>
        <time>2020-07-30T09:37:55Z</time>
      </trkpt>
      <trkpt lat="43.3463860" lon="-1.8138220">
        <ele>23.2</ele>
        <time>2020-07-30T09:37:59Z</time>
      </trkpt>
      <trkpt lat="43.3462630" lon="-1.8139610">
        <ele>23.2</ele>
        <time>2020-07-30T09:38:01Z</time>
      </trkpt>
      <trkpt lat="43.3459160" lon="-1.8143570">
        <ele>23.4</ele>
        <time>2020-07-30T09:38:07Z</time>
      </trkpt>
      <trkpt lat="43.3457370" lon="-1.8145700">
        <ele>23.2</ele>
        <time>2020-07-30T09:38:10Z</time>
      </trkpt>
      <trkpt lat="43.3456170" lon="-1.8147210">
        <ele>23.2</ele>
        <time>2020-07-30T09:38:12Z</time>
      </trkpt>
      <trkpt lat="43.3454400" lon="-1.8149580">
        <ele>23.0</ele>
        <time>2020-07-30T09:38:15Z</time>
      </trkpt>
      <trkpt lat="43.3453250" lon="-1.8151210">
        <ele>23.0</ele>
        <time>2020-07-30T09:38:17Z</time>
      </trkpt>
      <trkpt lat="43.3452090" lon="-1.8152880">
        <ele>22.8</ele>
        <time>2020-07-30T09:38:19Z</time>
      </trkpt>
      <trkpt lat="43.3449730" lon="-1.8156230">
        <ele>22.4</ele>
        <time>2020-07-30T09:38:23Z</time>
      </trkpt>
      <trkpt lat="43.3448560" lon="-1.8157930">
        <ele>22.2</ele>
        <time>2020-07-30T09:38:25Z</time>
      </trkpt>
      <trkpt lat="43.3446780" lon="-1.8160450">
        <ele>21.8</ele>
        <time>2020-07-30T09:38:28Z</time>
      </trkpt>
      <trkpt lat="43.3443320" lon="-1.8165440">
        <ele>21.8</ele>
        <time>2020-07-30T09:38:34Z</time>
      </trkpt>
      <trkpt lat="43.3442180" lon="-1.8167060">
        <ele>21.8</ele>
        <time>2020-07-30T09:38:36Z</time>
      </trkpt>
      <trkpt lat="43.3440990" lon="-1.8168590">
        <ele>21.6</ele>
        <time>2020-07-30T09:38:38Z</time>
      </trkpt>
      <trkpt lat="43.3440370" lon="-1.8169260">
        <ele>21.8</ele>
        <time>2020-07-30T09:38:39Z</time>
      </trkpt>
      <trkpt lat="43.3438450" lon="-1.8170940">
        <ele>21.8</ele>
        <time>2020-07-30T09:38:42Z</time>
      </trkpt>
      <trkpt lat="43.3437860" lon="-1.8171500">
        <ele>22.0</ele>
        <time>2020-07-30T09:38:43Z</time>
      </trkpt>
      <trkpt lat="43.3437340" lon="-1.8172180">
        <ele>22.0</ele>
        <time>2020-07-30T09:38:44Z</time>
      </trkpt>
      <trkpt lat="43.3436580" lon="-1.8173710">
        <ele>22.4</ele>
        <time>2020-07-30T09:38:46Z</time>
      </trkpt>
      <trkpt lat="43.3435880" lon="-1.8175150">
        <ele>22.6</ele>
        <time>2020-07-30T09:38:48Z</time>
      </trkpt>
      <trkpt lat="43.3434940" lon="-1.8176030">
        <ele>22.6</ele>
        <time>2020-07-30T09:38:50Z</time>
      </trkpt>
      <trkpt lat="43.3434380" lon="-1.8176550">
        <ele>23.0</ele>
        <time>2020-07-30T09:38:53Z</time>
      </trkpt>
      <trkpt lat="43.3433880" lon="-1.8177310">
        <ele>23.2</ele>
        <time>2020-07-30T09:38:54Z</time>
      </trkpt>
      <trkpt lat="43.3433340" lon="-1.8178070">
        <ele>24.0</ele>
        <time>2020-07-30T09:38:55Z</time>
      </trkpt>
      <trkpt lat="43.3432810" lon="-1.8178820">
        <ele>22.2</ele>
        <time>2020-07-30T09:41:35Z</time>
      </trkpt>
      <trkpt lat="43.3432270" lon="-1.8179580">
        <ele>22.2</ele>
        <time>2020-07-30T09:41:36Z</time>
      </trkpt>
      <trkpt lat="43.3431280" lon="-1.8181310">
        <ele>22.4</ele>
        <time>2020-07-30T09:41:39Z</time>
      </trkpt>
      <trkpt lat="43.3429990" lon="-1.8183070">
        <ele>22.2</ele>
        <time>2020-07-30T09:41:42Z</time>
      </trkpt>
      <trkpt lat="43.3429530" lon="-1.8183690">
        <ele>22.0</ele>
        <time>2020-07-30T09:41:43Z</time>
      </trkpt>
      <trkpt lat="43.3428020" lon="-1.8185610">
        <ele>21.8</ele>
        <time>2020-07-30T09:41:46Z</time>
      </trkpt>
      <trkpt lat="43.3426880" lon="-1.8186820">
        <ele>21.4</ele>
        <time>2020-07-30T09:41:48Z</time>
      </trkpt>
      <trkpt lat="43.3425690" lon="-1.8188080">
        <ele>21.4</ele>
        <time>2020-07-30T09:41:50Z</time>
      </trkpt>
      <trkpt lat="43.3424480" lon="-1.8189420">
        <ele>21.4</ele>
        <time>2020-07-30T09:41:52Z</time>
      </trkpt>
      <trkpt lat="43.3422640" lon="-1.8191460">
        <ele>21.6</ele>
        <time>2020-07-30T09:41:55Z</time>
      </trkpt>
      <trkpt lat="43.3422040" lon="-1.8192190">
        <ele>21.6</ele>
        <time>2020-07-30T09:41:56Z</time>
      </trkpt>
      <trkpt lat="43.3420870" lon="-1.8193660">
        <ele>21.8</ele>
        <time>2020-07-30T09:41:58Z</time>
      </trkpt>
      <trkpt lat="43.3417600" lon="-1.8198040">
        <ele>21.6</ele>
        <time>2020-07-30T09:42:04Z</time>
      </trkpt>
      <trkpt lat="43.3414460" lon="-1.8202420">
        <ele>22.2</ele>
        <time>2020-07-30T09:42:10Z</time>
      </trkpt>
      <trkpt lat="43.3413260" lon="-1.8203910">
        <ele>22.4</ele>
        <time>2020-07-30T09:42:12Z</time>
      </trkpt>
      <trkpt lat="43.3411410" lon="-1.8206000">
        <ele>22.4</ele>
        <time>2020-07-30T09:42:15Z</time>
      </trkpt>
      <trkpt lat="43.3409570" lon="-1.8207970">
        <ele>22.4</ele>
        <time>2020-07-30T09:42:18Z</time>
      </trkpt>
      <trkpt lat="43.3408300" lon="-1.8209170">
        <ele>22.6</ele>
        <time>2020-07-30T09:42:20Z</time>
      </trkpt>
      <trkpt lat="43.3405580" lon="-1.8211190">
        <ele>23.0</ele>
        <time>2020-07-30T09:42:24Z</time>
      </trkpt>
      <trkpt lat="43.3404880" lon="-1.8211630">
        <ele>23.0</ele>
        <time>2020-07-30T09:42:25Z</time>
      </trkpt>
      <trkpt lat="43.3404170" lon="-1.8212060">
        <ele>23.0</ele>
        <time>2020-07-30T09:42:26Z</time>
      </trkpt>
      <trkpt lat="43.3400340" lon="-1.8214330">
        <ele>23.2</ele>
        <time>2020-07-30T09:42:31Z</time>
      </trkpt>
      <trkpt lat="43.3399570" lon="-1.8214690">
        <ele>23.2</ele>
        <time>2020-07-30T09:42:32Z</time>
      </trkpt>
      <trkpt lat="43.3394880" lon="-1.8216290">
        <ele>23.2</ele>
        <time>2020-07-30T09:42:38Z</time>
      </trkpt>
      <trkpt lat="43.3389880" lon="-1.8216900">
        <ele>23.0</ele>
        <time>2020-07-30T09:42:44Z</time>
      </trkpt>
      <trkpt lat="43.3384740" lon="-1.8216750">
        <ele>23.2</ele>
        <time>2020-07-30T09:42:50Z</time>
      </trkpt>
      <trkpt lat="43.3382920" lon="-1.8216570">
        <ele>23.2</ele>
        <time>2020-07-30T09:42:52Z</time>
      </trkpt>
      <trkpt lat="43.3377630" lon="-1.8216170">
        <ele>23.0</ele>
        <time>2020-07-30T09:42:58Z</time>
      </trkpt>
      <trkpt lat="43.3375910" lon="-1.8215960">
        <ele>23.0</ele>
        <time>2020-07-30T09:43:00Z</time>
      </trkpt>
      <trkpt lat="43.3370860" lon="-1.8215300">
        <ele>23.6</ele>
        <time>2020-07-30T09:43:06Z</time>
      </trkpt>
      <trkpt lat="43.3369230" lon="-1.8214980">
        <ele>23.6</ele>
        <time>2020-07-30T09:43:08Z</time>
      </trkpt>
      <trkpt lat="43.3365960" lon="-1.8214470">
        <ele>23.8</ele>
        <time>2020-07-30T09:43:12Z</time>
      </trkpt>
      <trkpt lat="43.3363490" lon="-1.8214100">
        <ele>23.8</ele>
        <time>2020-07-30T09:43:15Z</time>
      </trkpt>
      <trkpt lat="43.3358400" lon="-1.8213660">
        <ele>23.8</ele>
        <time>2020-07-30T09:43:21Z</time>
      </trkpt>
      <trkpt lat="43.3355970" lon="-1.8213710">
        <ele>24.0</ele>
        <time>2020-07-30T09:43:24Z</time>
      </trkpt>
      <trkpt lat="43.3355130" lon="-1.8213830">
        <ele>24.2</ele>
        <time>2020-07-30T09:43:25Z</time>
      </trkpt>
      <trkpt lat="43.3350000" lon="-1.8214650">
        <ele>25.0</ele>
        <time>2020-07-30T09:43:31Z</time>
      </trkpt>
      <trkpt lat="43.3344910" lon="-1.8216220">
        <ele>25.0</ele>
        <time>2020-07-30T09:43:37Z</time>
      </trkpt>
      <trkpt lat="43.3341580" lon="-1.8217480">
        <ele>25.2</ele>
        <time>2020-07-30T09:43:41Z</time>
      </trkpt>
      <trkpt lat="43.3339150" lon="-1.8218690">
        <ele>25.4</ele>
        <time>2020-07-30T09:43:44Z</time>
      </trkpt>
      <trkpt lat="43.3335260" lon="-1.8220980">
        <ele>25.8</ele>
        <time>2020-07-30T09:43:49Z</time>
      </trkpt>
      <trkpt lat="43.3333780" lon="-1.8222140">
        <ele>26.0</ele>
        <time>2020-07-30T09:43:51Z</time>
      </trkpt>
      <trkpt lat="43.3332330" lon="-1.8223300">
        <ele>26.0</ele>
        <time>2020-07-30T09:43:53Z</time>
      </trkpt>
      <trkpt lat="43.3331650" lon="-1.8223920">
        <ele>26.0</ele>
        <time>2020-07-30T09:43:54Z</time>
      </trkpt>
      <trkpt lat="43.3329500" lon="-1.8226110">
        <ele>25.8</ele>
        <time>2020-07-30T09:43:57Z</time>
      </trkpt>
      <trkpt lat="43.3325420" lon="-1.8231050">
        <ele>26.0</ele>
        <time>2020-07-30T09:44:03Z</time>
      </trkpt>
      <trkpt lat="43.3324780" lon="-1.8231970">
        <ele>26.0</ele>
        <time>2020-07-30T09:44:04Z</time>
      </trkpt>
      <trkpt lat="43.3324150" lon="-1.8232810">
        <ele>26.4</ele>
        <time>2020-07-30T09:44:05Z</time>
      </trkpt>
      <trkpt lat="43.3320500" lon="-1.8237920">
        <ele>26.8</ele>
        <time>2020-07-30T09:44:11Z</time>
      </trkpt>
      <trkpt lat="43.3319910" lon="-1.8238720">
        <ele>26.6</ele>
        <time>2020-07-30T09:44:12Z</time>
      </trkpt>
      <trkpt lat="43.3318730" lon="-1.8240350">
        <ele>26.2</ele>
        <time>2020-07-30T09:44:14Z</time>
      </trkpt>
      <trkpt lat="43.3315300" lon="-1.8245130">
        <ele>26.6</ele>
        <time>2020-07-30T09:44:20Z</time>
      </trkpt>
      <trkpt lat="43.3314730" lon="-1.8245910">
        <ele>26.6</ele>
        <time>2020-07-30T09:44:21Z</time>
      </trkpt>
      <trkpt lat="43.3311280" lon="-1.8250410">
        <ele>27.0</ele>
        <time>2020-07-30T09:44:27Z</time>
      </trkpt>
      <trkpt lat="43.3310130" lon="-1.8251900">
        <ele>27.4</ele>
        <time>2020-07-30T09:44:29Z</time>
      </trkpt>
      <trkpt lat="43.3308990" lon="-1.8253420">
        <ele>27.8</ele>
        <time>2020-07-30T09:44:31Z</time>
      </trkpt>
      <trkpt lat="43.3308420" lon="-1.8254210">
        <ele>27.8</ele>
        <time>2020-07-30T09:44:32Z</time>
      </trkpt>
      <trkpt lat="43.3307280" lon="-1.8255830">
        <ele>28.0</ele>
        <time>2020-07-30T09:44:34Z</time>
      </trkpt>
      <trkpt lat="43.3304610" lon="-1.8259820">
        <ele>28.8</ele>
        <time>2020-07-30T09:44:39Z</time>
      </trkpt>
      <trkpt lat="43.3304160" lon="-1.8260540">
        <ele>29.4</ele>
        <time>2020-07-30T09:44:40Z</time>
      </trkpt>
      <trkpt lat="43.3303370" lon="-1.8261990">
        <ele>30.0</ele>
        <time>2020-07-30T09:44:42Z</time>
      </trkpt>
      <trkpt lat="43.3302080" lon="-1.8264870">
        <ele>30.8</ele>
        <time>2020-07-30T09:44:46Z</time>
      </trkpt>
      <trkpt lat="43.3301570" lon="-1.8266280">
        <ele>31.0</ele>
        <time>2020-07-30T09:44:48Z</time>
      </trkpt>
      <trkpt lat="43.3300960" lon="-1.8268470">
        <ele>32.2</ele>
        <time>2020-07-30T09:44:51Z</time>
      </trkpt>
      <trkpt lat="43.3300790" lon="-1.8269200">
        <ele>32.4</ele>
        <time>2020-07-30T09:44:52Z</time>
      </trkpt>
      <trkpt lat="43.3300330" lon="-1.8271280">
        <ele>33.2</ele>
        <time>2020-07-30T09:44:55Z</time>
      </trkpt>
      <trkpt lat="43.3300000" lon="-1.8273310">
        <ele>34.4</ele>
        <time>2020-07-30T09:44:58Z</time>
      </trkpt>
      <trkpt lat="43.3299830" lon="-1.8274680">
        <ele>35.0</ele>
        <time>2020-07-30T09:45:00Z</time>
      </trkpt>
      <trkpt lat="43.3299620" lon="-1.8276050">
        <ele>35.6</ele>
        <time>2020-07-30T09:45:02Z</time>
      </trkpt>
      <trkpt lat="43.3299340" lon="-1.8278090">
        <ele>36.6</ele>
        <time>2020-07-30T09:45:05Z</time>
      </trkpt>
      <trkpt lat="43.3299250" lon="-1.8278760">
        <ele>36.8</ele>
        <time>2020-07-30T09:45:06Z</time>
      </trkpt>
      <trkpt lat="43.3299060" lon="-1.8280780">
        <ele>37.6</ele>
        <time>2020-07-30T09:45:09Z</time>
      </trkpt>
      <trkpt lat="43.3298980" lon="-1.8281460">
        <ele>38.0</ele>
        <time>2020-07-30T09:45:10Z</time>
      </trkpt>
      <trkpt lat="43.3298610" lon="-1.8284140">
        <ele>39.2</ele>
        <time>2020-07-30T09:45:14Z</time>
      </trkpt>
      <trkpt lat="43.3298150" lon="-1.8286710">
        <ele>40.0</ele>
        <time>2020-07-30T09:45:18Z</time>
      </trkpt>
      <trkpt lat="43.3298000" lon="-1.8287330">
        <ele>40.2</ele>
        <time>2020-07-30T09:45:19Z</time>
      </trkpt>
      <trkpt lat="43.3297660" lon="-1.8288560">
        <ele>40.8</ele>
        <time>2020-07-30T09:45:21Z</time>
      </trkpt>
      <trkpt lat="43.3297270" lon="-1.8289710">
        <ele>40.8</ele>
        <time>2020-07-30T09:45:23Z</time>
      </trkpt>
      <trkpt lat="43.3296800" lon="-1.8290830">
        <ele>41.4</ele>
        <time>2020-07-30T09:45:25Z</time>
      </trkpt>
      <trkpt lat="43.3295660" lon="-1.8293000">
        <ele>42.6</ele>
        <time>2020-07-30T09:45:29Z</time>
      </trkpt>
      <trkpt lat="43.3294430" lon="-1.8295120">
        <ele>43.0</ele>
        <time>2020-07-30T09:45:33Z</time>
      </trkpt>
      <trkpt lat="43.3292440" lon="-1.8298730">
        <ele>43.4</ele>
        <time>2020-07-30T09:45:39Z</time>
      </trkpt>
      <trkpt lat="43.3291600" lon="-1.8300780">
        <ele>43.4</ele>
        <time>2020-07-30T09:45:42Z</time>
      </trkpt>
      <trkpt lat="43.3290200" lon="-1.8305870">
        <ele>43.4</ele>
        <time>2020-07-30T09:45:48Z</time>
      </trkpt>
      <trkpt lat="43.3290050" lon="-1.8306850">
        <ele>43.4</ele>
        <time>2020-07-30T09:45:49Z</time>
      </trkpt>
      <trkpt lat="43.3289420" lon="-1.8311740">
        <ele>41.6</ele>
        <time>2020-07-30T09:45:54Z</time>
      </trkpt>
      <trkpt lat="43.3289330" lon="-1.8312760">
        <ele>41.2</ele>
        <time>2020-07-30T09:45:55Z</time>
      </trkpt>
      <trkpt lat="43.3289150" lon="-1.8314860">
        <ele>40.4</ele>
        <time>2020-07-30T09:45:57Z</time>
      </trkpt>
      <trkpt lat="43.3289030" lon="-1.8320330">
        <ele>39.6</ele>
        <time>2020-07-30T09:46:02Z</time>
      </trkpt>
      <trkpt lat="43.3289140" lon="-1.8322560">
        <ele>39.4</ele>
        <time>2020-07-30T09:46:04Z</time>
      </trkpt>
      <trkpt lat="43.3289510" lon="-1.8325890">
        <ele>38.0</ele>
        <time>2020-07-30T09:46:07Z</time>
      </trkpt>
      <trkpt lat="43.3289790" lon="-1.8328120">
        <ele>37.6</ele>
        <time>2020-07-30T09:46:09Z</time>
      </trkpt>
      <trkpt lat="43.3290400" lon="-1.8331750">
        <ele>37.2</ele>
        <time>2020-07-30T09:46:13Z</time>
      </trkpt>
      <trkpt lat="43.3290890" lon="-1.8333550">
        <ele>37.2</ele>
        <time>2020-07-30T09:46:15Z</time>
      </trkpt>
      <trkpt lat="43.3291100" lon="-1.8334530">
        <ele>36.8</ele>
        <time>2020-07-30T09:46:16Z</time>
      </trkpt>
      <trkpt lat="43.3291310" lon="-1.8335540">
        <ele>36.8</ele>
        <time>2020-07-30T09:46:17Z</time>
      </trkpt>
      <trkpt lat="43.3291830" lon="-1.8338750">
        <ele>36.6</ele>
        <time>2020-07-30T09:46:20Z</time>
      </trkpt>
      <trkpt lat="43.3292580" lon="-1.8343190">
        <ele>36.4</ele>
        <time>2020-07-30T09:46:24Z</time>
      </trkpt>
      <trkpt lat="43.3293080" lon="-1.8346550">
        <ele>36.2</ele>
        <time>2020-07-30T09:46:27Z</time>
      </trkpt>
      <trkpt lat="43.3293440" lon="-1.8348710">
        <ele>36.2</ele>
        <time>2020-07-30T09:46:29Z</time>
      </trkpt>
      <trkpt lat="43.3293810" lon="-1.8350830">
        <ele>36.4</ele>
        <time>2020-07-30T09:46:31Z</time>
      </trkpt>
      <trkpt lat="43.3294160" lon="-1.8352910">
        <ele>36.6</ele>
        <time>2020-07-30T09:46:33Z</time>
      </trkpt>
      <trkpt lat="43.3295310" lon="-1.8358730">
        <ele>37.8</ele>
        <time>2020-07-30T09:46:39Z</time>
      </trkpt>
      <trkpt lat="43.3295750" lon="-1.8360460">
        <ele>38.2</ele>
        <time>2020-07-30T09:46:41Z</time>
      </trkpt>
      <trkpt lat="43.3296370" lon="-1.8362830">
        <ele>39.0</ele>
        <time>2020-07-30T09:46:44Z</time>
      </trkpt>
      <trkpt lat="43.3296990" lon="-1.8364940">
        <ele>40.2</ele>
        <time>2020-07-30T09:46:47Z</time>
      </trkpt>
      <trkpt lat="43.3297210" lon="-1.8365600">
        <ele>40.6</ele>
        <time>2020-07-30T09:46:48Z</time>
      </trkpt>
      <trkpt lat="43.3297670" lon="-1.8366880">
        <ele>41.2</ele>
        <time>2020-07-30T09:46:50Z</time>
      </trkpt>
      <trkpt lat="43.3298580" lon="-1.8369270">
        <ele>42.4</ele>
        <time>2020-07-30T09:46:54Z</time>
      </trkpt>
      <trkpt lat="43.3299240" lon="-1.8370870">
        <ele>43.2</ele>
        <time>2020-07-30T09:46:57Z</time>
      </trkpt>
      <trkpt lat="43.3299460" lon="-1.8371390">
        <ele>43.4</ele>
        <time>2020-07-30T09:46:58Z</time>
      </trkpt>
      <trkpt lat="43.3299670" lon="-1.8371900">
        <ele>43.6</ele>
        <time>2020-07-30T09:46:59Z</time>
      </trkpt>
      <trkpt lat="43.3299890" lon="-1.8372410">
        <ele>44.0</ele>
        <time>2020-07-30T09:47:00Z</time>
      </trkpt>
      <trkpt lat="43.3300110" lon="-1.8372910">
        <ele>44.4</ele>
        <time>2020-07-30T09:47:01Z</time>
      </trkpt>
      <trkpt lat="43.3300340" lon="-1.8373430">
        <ele>44.8</ele>
        <time>2020-07-30T09:47:02Z</time>
      </trkpt>
      <trkpt lat="43.3300560" lon="-1.8373950">
        <ele>45.2</ele>
        <time>2020-07-30T09:47:03Z</time>
      </trkpt>
      <trkpt lat="43.3301060" lon="-1.8374940">
        <ele>45.6</ele>
        <time>2020-07-30T09:47:05Z</time>
      </trkpt>
      <trkpt lat="43.3301510" lon="-1.8375930">
        <ele>46.0</ele>
        <time>2020-07-30T09:47:07Z</time>
      </trkpt>
      <trkpt lat="43.3302400" lon="-1.8377870">
        <ele>47.0</ele>
        <time>2020-07-30T09:47:11Z</time>
      </trkpt>
      <trkpt lat="43.3302630" lon="-1.8378340">
        <ele>47.2</ele>
        <time>2020-07-30T09:47:12Z</time>
      </trkpt>
      <trkpt lat="43.3303450" lon="-1.8380300">
        <ele>48.0</ele>
        <time>2020-07-30T09:47:16Z</time>
      </trkpt>
      <trkpt lat="43.3303670" lon="-1.8380780">
        <ele>48.4</ele>
        <time>2020-07-30T09:47:17Z</time>
      </trkpt>
      <trkpt lat="43.3304750" lon="-1.8383210">
        <ele>49.6</ele>
        <time>2020-07-30T09:47:22Z</time>
      </trkpt>
      <trkpt lat="43.3305540" lon="-1.8384960">
        <ele>50.4</ele>
        <time>2020-07-30T09:47:26Z</time>
      </trkpt>
      <trkpt lat="43.3305920" lon="-1.8385710">
        <ele>50.6</ele>
        <time>2020-07-30T09:47:28Z</time>
      </trkpt>
      <trkpt lat="43.3307050" lon="-1.8387720">
        <ele>51.6</ele>
        <time>2020-07-30T09:47:33Z</time>
      </trkpt>
      <trkpt lat="43.3307300" lon="-1.8388160">
        <ele>51.8</ele>
        <time>2020-07-30T09:47:34Z</time>
      </trkpt>
      <trkpt lat="43.3309070" lon="-1.8390700">
        <ele>52.2</ele>
        <time>2020-07-30T09:47:40Z</time>
      </trkpt>
      <trkpt lat="43.3309700" lon="-1.8391540">
        <ele>52.2</ele>
        <time>2020-07-30T09:47:42Z</time>
      </trkpt>
      <trkpt lat="43.3311150" lon="-1.8393070">
        <ele>52.6</ele>
        <time>2020-07-30T09:47:46Z</time>
      </trkpt>
      <trkpt lat="43.3311970" lon="-1.8393780">
        <ele>52.8</ele>
        <time>2020-07-30T09:47:48Z</time>
      </trkpt>
      <trkpt lat="43.3312390" lon="-1.8394130">
        <ele>52.8</ele>
        <time>2020-07-30T09:47:49Z</time>
      </trkpt>
      <trkpt lat="43.3314570" lon="-1.8395800">
        <ele>53.0</ele>
        <time>2020-07-30T09:47:54Z</time>
      </trkpt>
      <trkpt lat="43.3315900" lon="-1.8396730">
        <ele>52.8</ele>
        <time>2020-07-30T09:47:57Z</time>
      </trkpt>
      <trkpt lat="43.3317300" lon="-1.8397480">
        <ele>52.8</ele>
        <time>2020-07-30T09:48:00Z</time>
      </trkpt>
      <trkpt lat="43.3318280" lon="-1.8397650">
        <ele>53.2</ele>
        <time>2020-07-30T09:48:02Z</time>
      </trkpt>
      <trkpt lat="43.3318790" lon="-1.8397650">
        <ele>53.4</ele>
        <time>2020-07-30T09:48:03Z</time>
      </trkpt>
      <trkpt lat="43.3319290" lon="-1.8397710">
        <ele>53.6</ele>
        <time>2020-07-30T09:48:04Z</time>
      </trkpt>
      <trkpt lat="43.3320220" lon="-1.8398140">
        <ele>53.6</ele>
        <time>2020-07-30T09:48:06Z</time>
      </trkpt>
      <trkpt lat="43.3320610" lon="-1.8398530">
        <ele>53.8</ele>
        <time>2020-07-30T09:48:07Z</time>
      </trkpt>
      <trkpt lat="43.3320900" lon="-1.8399060">
        <ele>53.8</ele>
        <time>2020-07-30T09:48:08Z</time>
      </trkpt>
      <trkpt lat="43.3321210" lon="-1.8400300">
        <ele>54.0</ele>
        <time>2020-07-30T09:48:10Z</time>
      </trkpt>
      <trkpt lat="43.3321140" lon="-1.8401670">
        <ele>54.2</ele>
        <time>2020-07-30T09:48:12Z</time>
      </trkpt>
      <trkpt lat="43.3320980" lon="-1.8403130">
        <ele>54.2</ele>
        <time>2020-07-30T09:48:14Z</time>
      </trkpt>
      <trkpt lat="43.3321230" lon="-1.8406600">
        <ele>55.0</ele>
        <time>2020-07-30T09:48:19Z</time>
      </trkpt>
      <trkpt lat="43.3321330" lon="-1.8408450">
        <ele>55.8</ele>
        <time>2020-07-30T09:48:22Z</time>
      </trkpt>
      <trkpt lat="43.3321340" lon="-1.8409020">
        <ele>56.2</ele>
        <time>2020-07-30T09:48:23Z</time>
      </trkpt>
      <trkpt lat="43.3321260" lon="-1.8410710">
        <ele>57.6</ele>
        <time>2020-07-30T09:48:26Z</time>
      </trkpt>
      <trkpt lat="43.3321230" lon="-1.8411250">
        <ele>57.8</ele>
        <time>2020-07-30T09:48:27Z</time>
      </trkpt>
      <trkpt lat="43.3321050" lon="-1.8412790">
        <ele>58.4</ele>
        <time>2020-07-30T09:48:30Z</time>
      </trkpt>
      <trkpt lat="43.3320960" lon="-1.8413300">
        <ele>58.6</ele>
        <time>2020-07-30T09:48:31Z</time>
      </trkpt>
      <trkpt lat="43.3320750" lon="-1.8414300">
        <ele>59.4</ele>
        <time>2020-07-30T09:48:33Z</time>
      </trkpt>
      <trkpt lat="43.3320640" lon="-1.8414810">
        <ele>59.8</ele>
        <time>2020-07-30T09:48:34Z</time>
      </trkpt>
      <trkpt lat="43.3320290" lon="-1.8416330">
        <ele>61.0</ele>
        <time>2020-07-30T09:48:37Z</time>
      </trkpt>
      <trkpt lat="43.3319920" lon="-1.8417740">
        <ele>62.4</ele>
        <time>2020-07-30T09:48:40Z</time>
      </trkpt>
      <trkpt lat="43.3319670" lon="-1.8418620">
        <ele>62.8</ele>
        <time>2020-07-30T09:48:42Z</time>
      </trkpt>
      <trkpt lat="43.3319280" lon="-1.8419960">
        <ele>63.4</ele>
        <time>2020-07-30T09:48:45Z</time>
      </trkpt>
      <trkpt lat="43.3318750" lon="-1.8421720">
        <ele>64.6</ele>
        <time>2020-07-30T09:48:49Z</time>
      </trkpt>
      <trkpt lat="43.3318520" lon="-1.8422600">
        <ele>65.0</ele>
        <time>2020-07-30T09:48:51Z</time>
      </trkpt>
      <trkpt lat="43.3318160" lon="-1.8423890">
        <ele>65.8</ele>
        <time>2020-07-30T09:48:54Z</time>
      </trkpt>
      <trkpt lat="43.3317740" lon="-1.8425780">
        <ele>67.0</ele>
        <time>2020-07-30T09:48:58Z</time>
      </trkpt>
      <trkpt lat="43.3317650" lon="-1.8426280">
        <ele>67.4</ele>
        <time>2020-07-30T09:48:59Z</time>
      </trkpt>
      <trkpt lat="43.3317330" lon="-1.8428410">
        <ele>68.2</ele>
        <time>2020-07-30T09:49:03Z</time>
      </trkpt>
      <trkpt lat="43.3317160" lon="-1.8430630">
        <ele>68.8</ele>
        <time>2020-07-30T09:49:07Z</time>
      </trkpt>
      <trkpt lat="43.3317150" lon="-1.8431720">
        <ele>69.4</ele>
        <time>2020-07-30T09:49:09Z</time>
      </trkpt>
      <trkpt lat="43.3317420" lon="-1.8434920">
        <ele>70.4</ele>
        <time>2020-07-30T09:49:15Z</time>
      </trkpt>
      <trkpt lat="43.3317880" lon="-1.8437580">
        <ele>71.8</ele>
        <time>2020-07-30T09:49:20Z</time>
      </trkpt>
      <trkpt lat="43.3318110" lon="-1.8438670">
        <ele>72.4</ele>
        <time>2020-07-30T09:49:22Z</time>
      </trkpt>
      <trkpt lat="43.3318350" lon="-1.8439730">
        <ele>72.8</ele>
        <time>2020-07-30T09:49:24Z</time>
      </trkpt>
      <trkpt lat="43.3318820" lon="-1.8441830">
        <ele>73.8</ele>
        <time>2020-07-30T09:49:28Z</time>
      </trkpt>
      <trkpt lat="43.3319140" lon="-1.8443970">
        <ele>75.0</ele>
        <time>2020-07-30T09:49:32Z</time>
      </trkpt>
      <trkpt lat="43.3319440" lon="-1.8446110">
        <ele>76.0</ele>
        <time>2020-07-30T09:49:36Z</time>
      </trkpt>
      <trkpt lat="43.3319750" lon="-1.8448810">
        <ele>77.2</ele>
        <time>2020-07-30T09:49:41Z</time>
      </trkpt>
      <trkpt lat="43.3319980" lon="-1.8450470">
        <ele>77.8</ele>
        <time>2020-07-30T09:49:44Z</time>
      </trkpt>
      <trkpt lat="43.3320170" lon="-1.8451570">
        <ele>78.4</ele>
        <time>2020-07-30T09:49:46Z</time>
      </trkpt>
      <trkpt lat="43.3320520" lon="-1.8454410">
        <ele>79.6</ele>
        <time>2020-07-30T09:49:51Z</time>
      </trkpt>
      <trkpt lat="43.3320660" lon="-1.8455580">
        <ele>80.2</ele>
        <time>2020-07-30T09:49:53Z</time>
      </trkpt>
      <trkpt lat="43.3320790" lon="-1.8456750">
        <ele>80.8</ele>
        <time>2020-07-30T09:49:55Z</time>
      </trkpt>
      <trkpt lat="43.3321020" lon="-1.8459710">
        <ele>81.8</ele>
        <time>2020-07-30T09:50:00Z</time>
      </trkpt>
      <trkpt lat="43.3321020" lon="-1.8460890">
        <ele>82.0</ele>
        <time>2020-07-30T09:50:02Z</time>
      </trkpt>
      <trkpt lat="43.3320860" lon="-1.8463950">
        <ele>83.0</ele>
        <time>2020-07-30T09:50:07Z</time>
      </trkpt>
      <trkpt lat="43.3320490" lon="-1.8466400">
        <ele>84.0</ele>
        <time>2020-07-30T09:50:11Z</time>
      </trkpt>
      <trkpt lat="43.3320370" lon="-1.8467000">
        <ele>84.2</ele>
        <time>2020-07-30T09:50:12Z</time>
      </trkpt>
      <trkpt lat="43.3319760" lon="-1.8469380">
        <ele>85.2</ele>
        <time>2020-07-30T09:50:16Z</time>
      </trkpt>
      <trkpt lat="43.3319160" lon="-1.8471110">
        <ele>85.8</ele>
        <time>2020-07-30T09:50:19Z</time>
      </trkpt>
      <trkpt lat="43.3318680" lon="-1.8472210">
        <ele>86.2</ele>
        <time>2020-07-30T09:50:21Z</time>
      </trkpt>
      <trkpt lat="43.3317280" lon="-1.8474810">
        <ele>87.2</ele>
        <time>2020-07-30T09:50:26Z</time>
      </trkpt>
      <trkpt lat="43.3316630" lon="-1.8475750">
        <ele>87.4</ele>
        <time>2020-07-30T09:50:28Z</time>
      </trkpt>
      <trkpt lat="43.3315580" lon="-1.8477080">
        <ele>88.6</ele>
        <time>2020-07-30T09:50:31Z</time>
      </trkpt>
      <trkpt lat="43.3314430" lon="-1.8478290">
        <ele>89.2</ele>
        <time>2020-07-30T09:50:34Z</time>
      </trkpt>
      <trkpt lat="43.3313210" lon="-1.8479360">
        <ele>89.6</ele>
        <time>2020-07-30T09:50:37Z</time>
      </trkpt>
      <trkpt lat="43.3310630" lon="-1.8481250">
        <ele>90.6</ele>
        <time>2020-07-30T09:50:43Z</time>
      </trkpt>
      <trkpt lat="43.3307960" lon="-1.8483130">
        <ele>91.4</ele>
        <time>2020-07-30T09:50:49Z</time>
      </trkpt>
      <trkpt lat="43.3307060" lon="-1.8483820">
        <ele>91.6</ele>
        <time>2020-07-30T09:50:51Z</time>
      </trkpt>
      <trkpt lat="43.3304430" lon="-1.8486440">
        <ele>92.6</ele>
        <time>2020-07-30T09:50:57Z</time>
      </trkpt>
      <trkpt lat="43.3304040" lon="-1.8486940">
        <ele>93.0</ele>
        <time>2020-07-30T09:50:58Z</time>
      </trkpt>
      <trkpt lat="43.3302110" lon="-1.8490380">
        <ele>94.0</ele>
        <time>2020-07-30T09:51:04Z</time>
      </trkpt>
      <trkpt lat="43.3301160" lon="-1.8493170">
        <ele>94.2</ele>
        <time>2020-07-30T09:51:08Z</time>
      </trkpt>
      <trkpt lat="43.3300960" lon="-1.8493960">
        <ele>94.2</ele>
        <time>2020-07-30T09:51:09Z</time>
      </trkpt>
      <trkpt lat="43.3300290" lon="-1.8498730">
        <ele>94.2</ele>
        <time>2020-07-30T09:51:15Z</time>
      </trkpt>
      <trkpt lat="43.3300240" lon="-1.8499500">
        <ele>94.2</ele>
        <time>2020-07-30T09:51:16Z</time>
      </trkpt>
      <trkpt lat="43.3300060" lon="-1.8504220">
        <ele>94.2</ele>
        <time>2020-07-30T09:51:22Z</time>
      </trkpt>
      <trkpt lat="43.3299950" lon="-1.8505870">
        <ele>94.0</ele>
        <time>2020-07-30T09:51:24Z</time>
      </trkpt>
      <trkpt lat="43.3299850" lon="-1.8508530">
        <ele>94.0</ele>
        <time>2020-07-30T09:51:27Z</time>
      </trkpt>
      <trkpt lat="43.3300250" lon="-1.8510360">
        <ele>93.6</ele>
        <time>2020-07-30T09:51:29Z</time>
      </trkpt>
      <trkpt lat="43.3301780" lon="-1.8513990">
        <ele>93.0</ele>
        <time>2020-07-30T09:51:33Z</time>
      </trkpt>
      <trkpt lat="43.3301990" lon="-1.8515050">
        <ele>92.6</ele>
        <time>2020-07-30T09:51:34Z</time>
      </trkpt>
      <trkpt lat="43.3301920" lon="-1.8517300">
        <ele>92.0</ele>
        <time>2020-07-30T09:51:36Z</time>
      </trkpt>
      <trkpt lat="43.3301570" lon="-1.8518390">
        <ele>91.8</ele>
        <time>2020-07-30T09:51:37Z</time>
      </trkpt>
      <trkpt lat="43.3301050" lon="-1.8519360">
        <ele>91.6</ele>
        <time>2020-07-30T09:51:38Z</time>
      </trkpt>
      <trkpt lat="43.3300360" lon="-1.8520150">
        <ele>91.0</ele>
        <time>2020-07-30T09:51:39Z</time>
      </trkpt>
      <trkpt lat="43.3299580" lon="-1.8520710">
        <ele>90.4</ele>
        <time>2020-07-30T09:51:40Z</time>
      </trkpt>
      <trkpt lat="43.3297860" lon="-1.8521080">
        <ele>89.8</ele>
        <time>2020-07-30T09:51:42Z</time>
      </trkpt>
      <trkpt lat="43.3297010" lon="-1.8520900">
        <ele>89.4</ele>
        <time>2020-07-30T09:51:43Z</time>
      </trkpt>
      <trkpt lat="43.3295340" lon="-1.8520350">
        <ele>89.2</ele>
        <time>2020-07-30T09:51:45Z</time>
      </trkpt>
      <trkpt lat="43.3294500" lon="-1.8520210">
        <ele>89.2</ele>
        <time>2020-07-30T09:51:46Z</time>
      </trkpt>
      <trkpt lat="43.3292890" lon="-1.8520560">
        <ele>89.6</ele>
        <time>2020-07-30T09:51:48Z</time>
      </trkpt>
      <trkpt lat="43.3291600" lon="-1.8521710">
        <ele>90.8</ele>
        <time>2020-07-30T09:51:50Z</time>
      </trkpt>
      <trkpt lat="43.3291090" lon="-1.8522490">
        <ele>91.4</ele>
        <time>2020-07-30T09:51:51Z</time>
      </trkpt>
      <trkpt lat="43.3290170" lon="-1.8524120">
        <ele>92.0</ele>
        <time>2020-07-30T09:51:53Z</time>
      </trkpt>
      <trkpt lat="43.3288760" lon="-1.8526790">
        <ele>91.8</ele>
        <time>2020-07-30T09:51:56Z</time>
      </trkpt>
      <trkpt lat="43.3288260" lon="-1.8527730">
        <ele>91.6</ele>
        <time>2020-07-30T09:51:57Z</time>
      </trkpt>
      <trkpt lat="43.3287180" lon="-1.8529680">
        <ele>91.0</ele>
        <time>2020-07-30T09:51:59Z</time>
      </trkpt>
      <trkpt lat="43.3286130" lon="-1.8531590">
        <ele>89.4</ele>
        <time>2020-07-30T09:52:01Z</time>
      </trkpt>
      <trkpt lat="43.3285010" lon="-1.8533530">
        <ele>87.6</ele>
        <time>2020-07-30T09:52:03Z</time>
      </trkpt>
      <trkpt lat="43.3283860" lon="-1.8535620">
        <ele>86.4</ele>
        <time>2020-07-30T09:52:05Z</time>
      </trkpt>
      <trkpt lat="43.3281570" lon="-1.8539890">
        <ele>85.0</ele>
        <time>2020-07-30T09:52:09Z</time>
      </trkpt>
      <trkpt lat="43.3280950" lon="-1.8541060">
        <ele>84.4</ele>
        <time>2020-07-30T09:52:10Z</time>
      </trkpt>
      <trkpt lat="43.3280350" lon="-1.8542240">
        <ele>84.0</ele>
        <time>2020-07-30T09:52:11Z</time>
      </trkpt>
      <trkpt lat="43.3278490" lon="-1.8546030">
        <ele>82.6</ele>
        <time>2020-07-30T09:52:15Z</time>
      </trkpt>
      <trkpt lat="43.3278090" lon="-1.8547420">
        <ele>81.8</ele>
        <time>2020-07-30T09:52:18Z</time>
      </trkpt>
      <trkpt lat="43.3278000" lon="-1.8547980">
        <ele>81.6</ele>
        <time>2020-07-30T09:52:20Z</time>
      </trkpt>
      <trkpt lat="43.3277890" lon="-1.8548150">
        <ele>81.6</ele>
        <time>2020-07-30T09:52:21Z</time>
      </trkpt>
      <trkpt lat="43.3277740" lon="-1.8548240">
        <ele>81.4</ele>
        <time>2020-07-30T09:52:22Z</time>
      </trkpt>
      <trkpt lat="43.3277420" lon="-1.8548590">
        <ele>81.2</ele>
        <time>2020-07-30T09:52:24Z</time>
      </trkpt>
      <trkpt lat="43.3277310" lon="-1.8549350">
        <ele>81.2</ele>
        <time>2020-07-30T09:52:26Z</time>
      </trkpt>
      <trkpt lat="43.3277180" lon="-1.8549750">
        <ele>81.0</ele>
        <time>2020-07-30T09:52:27Z</time>
      </trkpt>
      <trkpt lat="43.3276830" lon="-1.8550310">
        <ele>80.6</ele>
        <time>2020-07-30T09:52:29Z</time>
      </trkpt>
      <trkpt lat="43.3276660" lon="-1.8550620">
        <ele>80.4</ele>
        <time>2020-07-30T09:52:30Z</time>
      </trkpt>
      <trkpt lat="43.3275830" lon="-1.8552820">
        <ele>79.4</ele>
        <time>2020-07-30T09:52:35Z</time>
      </trkpt>
      <trkpt lat="43.3275140" lon="-1.8554610">
        <ele>78.4</ele>
        <time>2020-07-30T09:52:40Z</time>
      </trkpt>
      <trkpt lat="43.3275040" lon="-1.8554780">
        <ele>78.2</ele>
        <time>2020-07-30T09:52:41Z</time>
      </trkpt>
      <trkpt lat="43.3274370" lon="-1.8555410">
        <ele>77.6</ele>
        <time>2020-07-30T09:52:47Z</time>
      </trkpt>
      <trkpt lat="43.3274250" lon="-1.8555430">
        <ele>77.6</ele>
        <time>2020-07-30T09:52:48Z</time>
      </trkpt>
      <trkpt lat="43.3274130" lon="-1.8555250">
        <ele>77.4</ele>
        <time>2020-07-30T09:52:50Z</time>
      </trkpt>
      <trkpt lat="43.3274190" lon="-1.8554900">
        <ele>77.4</ele>
        <time>2020-07-30T09:52:52Z</time>
      </trkpt>
      <trkpt lat="43.3274680" lon="-1.8554160">
        <ele>77.6</ele>
        <time>2020-07-30T09:52:58Z</time>
      </trkpt>
      <trkpt lat="43.3274850" lon="-1.8553870">
        <ele>77.8</ele>
        <time>2020-07-30T09:53:00Z</time>
      </trkpt>
      <trkpt lat="43.3275130" lon="-1.8553040">
        <ele>78.2</ele>
        <time>2020-07-30T09:53:05Z</time>
      </trkpt>
      <trkpt lat="43.3275400" lon="-1.8552260">
        <ele>78.2</ele>
        <time>2020-07-30T09:53:11Z</time>
      </trkpt>
      <trkpt lat="43.3275310" lon="-1.8551920">
        <ele>78.6</ele>
        <time>2020-07-30T09:53:17Z</time>
      </trkpt>
      <trkpt lat="43.3275320" lon="-1.8552090">
        <ele>78.8</ele>
        <time>2020-07-30T09:53:18Z</time>
      </trkpt>
      <trkpt lat="43.3275370" lon="-1.8552310">
        <ele>78.8</ele>
        <time>2020-07-30T09:53:19Z</time>
      </trkpt>
      <trkpt lat="43.3275410" lon="-1.8553160">
        <ele>78.2</ele>
        <time>2020-07-30T09:53:23Z</time>
      </trkpt>
      <trkpt lat="43.3275330" lon="-1.8553250">
        <ele>78.2</ele>
        <time>2020-07-30T09:53:24Z</time>
      </trkpt>
      <trkpt lat="43.3275160" lon="-1.8553240">
        <ele>78.0</ele>
        <time>2020-07-30T09:53:26Z</time>
      </trkpt>
      <trkpt lat="43.3274680" lon="-1.8552840">
        <ele>77.8</ele>
        <time>2020-07-30T09:53:29Z</time>
      </trkpt>
      <trkpt lat="43.3274510" lon="-1.8551790">
        <ele>78.0</ele>
        <time>2020-07-30T09:53:31Z</time>
      </trkpt>
      <trkpt lat="43.3274640" lon="-1.8551180">
        <ele>78.0</ele>
        <time>2020-07-30T09:53:32Z</time>
      </trkpt>
      <trkpt lat="43.3274870" lon="-1.8550590">
        <ele>78.4</ele>
        <time>2020-07-30T09:53:33Z</time>
      </trkpt>
      <trkpt lat="43.3276000" lon="-1.8548290">
        <ele>79.2</ele>
        <time>2020-07-30T09:53:37Z</time>
      </trkpt>
      <trkpt lat="43.3276570" lon="-1.8547200">
        <ele>79.6</ele>
        <time>2020-07-30T09:53:39Z</time>
      </trkpt>
      <trkpt lat="43.3276830" lon="-1.8546670">
        <ele>80.0</ele>
        <time>2020-07-30T09:53:40Z</time>
      </trkpt>
      <trkpt lat="43.3277100" lon="-1.8546130">
        <ele>80.2</ele>
        <time>2020-07-30T09:53:41Z</time>
      </trkpt>
      <trkpt lat="43.3277370" lon="-1.8545600">
        <ele>80.4</ele>
        <time>2020-07-30T09:53:42Z</time>
      </trkpt>
      <trkpt lat="43.3277610" lon="-1.8545040">
        <ele>80.8</ele>
        <time>2020-07-30T09:53:43Z</time>
      </trkpt>
      <trkpt lat="43.3278100" lon="-1.8543970">
        <ele>81.0</ele>
        <time>2020-07-30T09:53:45Z</time>
      </trkpt>
      <trkpt lat="43.3279100" lon="-1.8541920">
        <ele>81.8</ele>
        <time>2020-07-30T09:53:49Z</time>
      </trkpt>
      <trkpt lat="43.3279910" lon="-1.8540480">
        <ele>83.0</ele>
        <time>2020-07-30T09:53:52Z</time>
      </trkpt>
      <trkpt lat="43.3280420" lon="-1.8539500">
        <ele>83.6</ele>
        <time>2020-07-30T09:53:54Z</time>
      </trkpt>
      <trkpt lat="43.3281440" lon="-1.8537570">
        <ele>84.2</ele>
        <time>2020-07-30T09:53:58Z</time>
      </trkpt>
      <trkpt lat="43.3282520" lon="-1.8535730">
        <ele>85.0</ele>
        <time>2020-07-30T09:54:02Z</time>
      </trkpt>
      <trkpt lat="43.3283130" lon="-1.8534890">
        <ele>85.4</ele>
        <time>2020-07-30T09:54:04Z</time>
      </trkpt>
      <trkpt lat="43.3284320" lon="-1.8532650">
        <ele>86.6</ele>
        <time>2020-07-30T09:54:09Z</time>
      </trkpt>
      <trkpt lat="43.3285620" lon="-1.8530480">
        <ele>87.4</ele>
        <time>2020-07-30T09:54:14Z</time>
      </trkpt>
      <trkpt lat="43.3286120" lon="-1.8529530">
        <ele>87.8</ele>
        <time>2020-07-30T09:54:16Z</time>
      </trkpt>
      <trkpt lat="43.3286670" lon="-1.8528680">
        <ele>88.6</ele>
        <time>2020-07-30T09:54:18Z</time>
      </trkpt>
      <trkpt lat="43.3286930" lon="-1.8528240">
        <ele>89.0</ele>
        <time>2020-07-30T09:54:19Z</time>
      </trkpt>
      <trkpt lat="43.3288200" lon="-1.8525870">
        <ele>90.0</ele>
        <time>2020-07-30T09:54:24Z</time>
      </trkpt>
      <trkpt lat="43.3288740" lon="-1.8524920">
        <ele>90.4</ele>
        <time>2020-07-30T09:54:26Z</time>
      </trkpt>
      <trkpt lat="43.3288960" lon="-1.8524400">
        <ele>90.4</ele>
        <time>2020-07-30T09:54:27Z</time>
      </trkpt>
      <trkpt lat="43.3289700" lon="-1.8522960">
        <ele>91.0</ele>
        <time>2020-07-30T09:54:30Z</time>
      </trkpt>
      <trkpt lat="43.3290120" lon="-1.8522070">
        <ele>91.6</ele>
        <time>2020-07-30T09:54:32Z</time>
      </trkpt>
      <trkpt lat="43.3291240" lon="-1.8519860">
        <ele>92.2</ele>
        <time>2020-07-30T09:54:37Z</time>
      </trkpt>
      <trkpt lat="43.3291960" lon="-1.8518460">
        <ele>92.0</ele>
        <time>2020-07-30T09:54:40Z</time>
      </trkpt>
      <trkpt lat="43.3292590" lon="-1.8517540">
        <ele>91.6</ele>
        <time>2020-07-30T09:54:42Z</time>
      </trkpt>
      <trkpt lat="43.3293250" lon="-1.8516750">
        <ele>91.2</ele>
        <time>2020-07-30T09:54:44Z</time>
      </trkpt>
      <trkpt lat="43.3294270" lon="-1.8515480">
        <ele>91.2</ele>
        <time>2020-07-30T09:54:48Z</time>
      </trkpt>
      <trkpt lat="43.3294750" lon="-1.8514570">
        <ele>91.6</ele>
        <time>2020-07-30T09:54:50Z</time>
      </trkpt>
      <trkpt lat="43.3294980" lon="-1.8513970">
        <ele>91.8</ele>
        <time>2020-07-30T09:54:51Z</time>
      </trkpt>
      <trkpt lat="43.3295220" lon="-1.8513310">
        <ele>92.0</ele>
        <time>2020-07-30T09:54:52Z</time>
      </trkpt>
      <trkpt lat="43.3295470" lon="-1.8512700">
        <ele>92.2</ele>
        <time>2020-07-30T09:54:53Z</time>
      </trkpt>
      <trkpt lat="43.3296590" lon="-1.8511040">
        <ele>92.4</ele>
        <time>2020-07-30T09:54:56Z</time>
      </trkpt>
      <trkpt lat="43.3297630" lon="-1.8510400">
        <ele>92.8</ele>
        <time>2020-07-30T09:54:58Z</time>
      </trkpt>
      <trkpt lat="43.3298220" lon="-1.8510270">
        <ele>93.0</ele>
        <time>2020-07-30T09:54:59Z</time>
      </trkpt>
      <trkpt lat="43.3298810" lon="-1.8510230">
        <ele>93.2</ele>
        <time>2020-07-30T09:55:00Z</time>
      </trkpt>
      <trkpt lat="43.3300010" lon="-1.8510620">
        <ele>93.4</ele>
        <time>2020-07-30T09:55:02Z</time>
      </trkpt>
      <trkpt lat="43.3300610" lon="-1.8511020">
        <ele>93.4</ele>
        <time>2020-07-30T09:55:03Z</time>
      </trkpt>
      <trkpt lat="43.3301190" lon="-1.8511550">
        <ele>93.4</ele>
        <time>2020-07-30T09:55:04Z</time>
      </trkpt>
      <trkpt lat="43.3302160" lon="-1.8512980">
        <ele>93.2</ele>
        <time>2020-07-30T09:55:06Z</time>
      </trkpt>
      <trkpt lat="43.3302670" lon="-1.8514790">
        <ele>92.6</ele>
        <time>2020-07-30T09:55:08Z</time>
      </trkpt>
      <trkpt lat="43.3302710" lon="-1.8515790">
        <ele>92.2</ele>
        <time>2020-07-30T09:55:09Z</time>
      </trkpt>
      <trkpt lat="43.3302630" lon="-1.8516770">
        <ele>91.8</ele>
        <time>2020-07-30T09:55:10Z</time>
      </trkpt>
      <trkpt lat="43.3302010" lon="-1.8518690">
        <ele>91.4</ele>
        <time>2020-07-30T09:55:12Z</time>
      </trkpt>
      <trkpt lat="43.3300460" lon="-1.8521020">
        <ele>90.8</ele>
        <time>2020-07-30T09:55:15Z</time>
      </trkpt>
      <trkpt lat="43.3299990" lon="-1.8521780">
        <ele>90.8</ele>
        <time>2020-07-30T09:55:16Z</time>
      </trkpt>
      <trkpt lat="43.3299280" lon="-1.8523460">
        <ele>90.6</ele>
        <time>2020-07-30T09:55:18Z</time>
      </trkpt>
      <trkpt lat="43.3298910" lon="-1.8525370">
        <ele>90.4</ele>
        <time>2020-07-30T09:55:20Z</time>
      </trkpt>
      <trkpt lat="43.3298750" lon="-1.8529800">
        <ele>89.4</ele>
        <time>2020-07-30T09:55:24Z</time>
      </trkpt>
      <trkpt lat="43.3298560" lon="-1.8532350">
        <ele>88.2</ele>
        <time>2020-07-30T09:55:26Z</time>
      </trkpt>
      <trkpt lat="43.3298380" lon="-1.8533630">
        <ele>87.4</ele>
        <time>2020-07-30T09:55:27Z</time>
      </trkpt>
      <trkpt lat="43.3298100" lon="-1.8534900">
        <ele>86.4</ele>
        <time>2020-07-30T09:55:28Z</time>
      </trkpt>
      <trkpt lat="43.3297720" lon="-1.8536160">
        <ele>85.4</ele>
        <time>2020-07-30T09:55:29Z</time>
      </trkpt>
      <trkpt lat="43.3297200" lon="-1.8537460">
        <ele>84.2</ele>
        <time>2020-07-30T09:55:30Z</time>
      </trkpt>
      <trkpt lat="43.3296590" lon="-1.8538720">
        <ele>83.0</ele>
        <time>2020-07-30T09:55:31Z</time>
      </trkpt>
      <trkpt lat="43.3295870" lon="-1.8539930">
        <ele>81.6</ele>
        <time>2020-07-30T09:55:32Z</time>
      </trkpt>
      <trkpt lat="43.3295080" lon="-1.8541150">
        <ele>80.0</ele>
        <time>2020-07-30T09:55:33Z</time>
      </trkpt>
      <trkpt lat="43.3294230" lon="-1.8542410">
        <ele>78.2</ele>
        <time>2020-07-30T09:55:34Z</time>
      </trkpt>
      <trkpt lat="43.3293310" lon="-1.8543730">
        <ele>76.4</ele>
        <time>2020-07-30T09:55:35Z</time>
      </trkpt>
      <trkpt lat="43.3292390" lon="-1.8545050">
        <ele>75.2</ele>
        <time>2020-07-30T09:55:36Z</time>
      </trkpt>
      <trkpt lat="43.3291490" lon="-1.8546390">
        <ele>74.2</ele>
        <time>2020-07-30T09:55:37Z</time>
      </trkpt>
      <trkpt lat="43.3289930" lon="-1.8549040">
        <ele>73.4</ele>
        <time>2020-07-30T09:55:39Z</time>
      </trkpt>
      <trkpt lat="43.3289310" lon="-1.8550390">
        <ele>73.6</ele>
        <time>2020-07-30T09:55:40Z</time>
      </trkpt>
      <trkpt lat="43.3287770" lon="-1.8554140">
        <ele>74.8</ele>
        <time>2020-07-30T09:55:43Z</time>
      </trkpt>
      <trkpt lat="43.3287420" lon="-1.8555270">
        <ele>75.4</ele>
        <time>2020-07-30T09:55:44Z</time>
      </trkpt>
      <trkpt lat="43.3286930" lon="-1.8557360">
        <ele>76.6</ele>
        <time>2020-07-30T09:55:46Z</time>
      </trkpt>
      <trkpt lat="43.3286590" lon="-1.8559320">
        <ele>77.6</ele>
        <time>2020-07-30T09:55:48Z</time>
      </trkpt>
      <trkpt lat="43.3286280" lon="-1.8562180">
        <ele>78.8</ele>
        <time>2020-07-30T09:55:51Z</time>
      </trkpt>
      <trkpt lat="43.3286210" lon="-1.8563100">
        <ele>79.2</ele>
        <time>2020-07-30T09:55:52Z</time>
      </trkpt>
      <trkpt lat="43.3286150" lon="-1.8564040">
        <ele>79.6</ele>
        <time>2020-07-30T09:55:53Z</time>
      </trkpt>
      <trkpt lat="43.3286110" lon="-1.8564980">
        <ele>79.8</ele>
        <time>2020-07-30T09:55:54Z</time>
      </trkpt>
      <trkpt lat="43.3286050" lon="-1.8565920">
        <ele>80.2</ele>
        <time>2020-07-30T09:55:55Z</time>
      </trkpt>
      <trkpt lat="43.3285870" lon="-1.8568710">
        <ele>80.8</ele>
        <time>2020-07-30T09:55:58Z</time>
      </trkpt>
      <trkpt lat="43.3285900" lon="-1.8572580">
        <ele>81.0</ele>
        <time>2020-07-30T09:56:02Z</time>
      </trkpt>
      <trkpt lat="43.3285950" lon="-1.8573580">
        <ele>81.0</ele>
        <time>2020-07-30T09:56:03Z</time>
      </trkpt>
      <trkpt lat="43.3285980" lon="-1.8574620">
        <ele>81.0</ele>
        <time>2020-07-30T09:56:04Z</time>
      </trkpt>
      <trkpt lat="43.3286010" lon="-1.8575680">
        <ele>80.8</ele>
        <time>2020-07-30T09:56:05Z</time>
      </trkpt>
      <trkpt lat="43.3286060" lon="-1.8576740">
        <ele>80.8</ele>
        <time>2020-07-30T09:56:06Z</time>
      </trkpt>
      <trkpt lat="43.3286140" lon="-1.8578890">
        <ele>80.6</ele>
        <time>2020-07-30T09:56:08Z</time>
      </trkpt>
      <trkpt lat="43.3286220" lon="-1.8581110">
        <ele>80.4</ele>
        <time>2020-07-30T09:56:10Z</time>
      </trkpt>
      <trkpt lat="43.3286370" lon="-1.8586780">
        <ele>79.8</ele>
        <time>2020-07-30T09:56:15Z</time>
      </trkpt>
      <trkpt lat="43.3286390" lon="-1.8590070">
        <ele>79.8</ele>
        <time>2020-07-30T09:56:18Z</time>
      </trkpt>
      <trkpt lat="43.3286420" lon="-1.8595230">
        <ele>81.0</ele>
        <time>2020-07-30T09:56:23Z</time>
      </trkpt>
      <trkpt lat="43.3286310" lon="-1.8597080">
        <ele>81.6</ele>
        <time>2020-07-30T09:56:25Z</time>
      </trkpt>
      <trkpt lat="43.3286190" lon="-1.8598900">
        <ele>82.2</ele>
        <time>2020-07-30T09:56:27Z</time>
      </trkpt>
      <trkpt lat="43.3285740" lon="-1.8603230">
        <ele>83.4</ele>
        <time>2020-07-30T09:56:32Z</time>
      </trkpt>
      <trkpt lat="43.3285660" lon="-1.8604070">
        <ele>83.6</ele>
        <time>2020-07-30T09:56:33Z</time>
      </trkpt>
      <trkpt lat="43.3285220" lon="-1.8609130">
        <ele>84.2</ele>
        <time>2020-07-30T09:56:39Z</time>
      </trkpt>
      <trkpt lat="43.3284990" lon="-1.8611020">
        <ele>84.4</ele>
        <time>2020-07-30T09:56:41Z</time>
      </trkpt>
      <trkpt lat="43.3284200" lon="-1.8617430">
        <ele>83.4</ele>
        <time>2020-07-30T09:56:47Z</time>
      </trkpt>
      <trkpt lat="43.3283620" lon="-1.8622290">
        <ele>82.4</ele>
        <time>2020-07-30T09:56:51Z</time>
      </trkpt>
      <trkpt lat="43.3283230" lon="-1.8625980">
        <ele>80.8</ele>
        <time>2020-07-30T09:56:54Z</time>
      </trkpt>
      <trkpt lat="43.3282880" lon="-1.8629720">
        <ele>79.6</ele>
        <time>2020-07-30T09:56:57Z</time>
      </trkpt>
      <trkpt lat="43.3282450" lon="-1.8633560">
        <ele>78.6</ele>
        <time>2020-07-30T09:57:00Z</time>
      </trkpt>
      <trkpt lat="43.3282200" lon="-1.8636140">
        <ele>77.6</ele>
        <time>2020-07-30T09:57:02Z</time>
      </trkpt>
      <trkpt lat="43.3282120" lon="-1.8637430">
        <ele>77.4</ele>
        <time>2020-07-30T09:57:03Z</time>
      </trkpt>
      <trkpt lat="43.3281400" lon="-1.8644140">
        <ele>76.0</ele>
        <time>2020-07-30T09:57:08Z</time>
      </trkpt>
      <trkpt lat="43.3281180" lon="-1.8645510">
        <ele>75.4</ele>
        <time>2020-07-30T09:57:09Z</time>
      </trkpt>
      <trkpt lat="43.3280620" lon="-1.8648200">
        <ele>74.6</ele>
        <time>2020-07-30T09:57:11Z</time>
      </trkpt>
      <trkpt lat="43.3280020" lon="-1.8650790">
        <ele>73.6</ele>
        <time>2020-07-30T09:57:13Z</time>
      </trkpt>
      <trkpt lat="43.3279320" lon="-1.8653320">
        <ele>72.8</ele>
        <time>2020-07-30T09:57:15Z</time>
      </trkpt>
      <trkpt lat="43.3278950" lon="-1.8654590">
        <ele>72.6</ele>
        <time>2020-07-30T09:57:16Z</time>
      </trkpt>
      <trkpt lat="43.3276890" lon="-1.8660610">
        <ele>71.4</ele>
        <time>2020-07-30T09:57:21Z</time>
      </trkpt>
      <trkpt lat="43.3276440" lon="-1.8661770">
        <ele>71.2</ele>
        <time>2020-07-30T09:57:22Z</time>
      </trkpt>
      <trkpt lat="43.3275550" lon="-1.8664130">
        <ele>70.2</ele>
        <time>2020-07-30T09:57:24Z</time>
      </trkpt>
      <trkpt lat="43.3274140" lon="-1.8669050">
        <ele>68.8</ele>
        <time>2020-07-30T09:57:28Z</time>
      </trkpt>
      <trkpt lat="43.3273910" lon="-1.8670340">
        <ele>68.2</ele>
        <time>2020-07-30T09:57:29Z</time>
      </trkpt>
      <trkpt lat="43.3273740" lon="-1.8671650">
        <ele>67.6</ele>
        <time>2020-07-30T09:57:30Z</time>
      </trkpt>
      <trkpt lat="43.3273530" lon="-1.8676910">
        <ele>66.4</ele>
        <time>2020-07-30T09:57:34Z</time>
      </trkpt>
      <trkpt lat="43.3273520" lon="-1.8679540">
        <ele>65.8</ele>
        <time>2020-07-30T09:57:36Z</time>
      </trkpt>
      <trkpt lat="43.3273480" lon="-1.8682130">
        <ele>65.4</ele>
        <time>2020-07-30T09:57:38Z</time>
      </trkpt>
      <trkpt lat="43.3273420" lon="-1.8684640">
        <ele>65.0</ele>
        <time>2020-07-30T09:57:40Z</time>
      </trkpt>
      <trkpt lat="43.3273350" lon="-1.8687030">
        <ele>65.2</ele>
        <time>2020-07-30T09:57:42Z</time>
      </trkpt>
      <trkpt lat="43.3273060" lon="-1.8693020">
        <ele>66.4</ele>
        <time>2020-07-30T09:57:47Z</time>
      </trkpt>
      <trkpt lat="43.3272870" lon="-1.8696650">
        <ele>66.4</ele>
        <time>2020-07-30T09:57:50Z</time>
      </trkpt>
      <trkpt lat="43.3272720" lon="-1.8700360">
        <ele>66.2</ele>
        <time>2020-07-30T09:57:53Z</time>
      </trkpt>
      <trkpt lat="43.3272210" lon="-1.8707780">
        <ele>65.6</ele>
        <time>2020-07-30T09:57:59Z</time>
      </trkpt>
      <trkpt lat="43.3271420" lon="-1.8714580">
        <ele>65.8</ele>
        <time>2020-07-30T09:58:05Z</time>
      </trkpt>
      <trkpt lat="43.3271200" lon="-1.8715620">
        <ele>66.2</ele>
        <time>2020-07-30T09:58:06Z</time>
      </trkpt>
      <trkpt lat="43.3270580" lon="-1.8718340">
        <ele>67.6</ele>
        <time>2020-07-30T09:58:09Z</time>
      </trkpt>
      <trkpt lat="43.3270170" lon="-1.8719900">
        <ele>68.2</ele>
        <time>2020-07-30T09:58:11Z</time>
      </trkpt>
      <trkpt lat="43.3269970" lon="-1.8720630">
        <ele>68.6</ele>
        <time>2020-07-30T09:58:12Z</time>
      </trkpt>
      <trkpt lat="43.3269770" lon="-1.8721320">
        <ele>69.2</ele>
        <time>2020-07-30T09:58:13Z</time>
      </trkpt>
      <trkpt lat="43.3269590" lon="-1.8721990">
        <ele>69.8</ele>
        <time>2020-07-30T09:58:14Z</time>
      </trkpt>
      <trkpt lat="43.3268960" lon="-1.8723820">
        <ele>71.0</ele>
        <time>2020-07-30T09:58:17Z</time>
      </trkpt>
      <trkpt lat="43.3268760" lon="-1.8724420">
        <ele>71.4</ele>
        <time>2020-07-30T09:58:18Z</time>
      </trkpt>
      <trkpt lat="43.3268140" lon="-1.8726250">
        <ele>72.0</ele>
        <time>2020-07-30T09:58:21Z</time>
      </trkpt>
      <trkpt lat="43.3266870" lon="-1.8730230">
        <ele>72.6</ele>
        <time>2020-07-30T09:58:27Z</time>
      </trkpt>
      <trkpt lat="43.3265490" lon="-1.8734700">
        <ele>72.6</ele>
        <time>2020-07-30T09:58:33Z</time>
      </trkpt>
      <trkpt lat="43.3264930" lon="-1.8736380">
        <ele>72.0</ele>
        <time>2020-07-30T09:58:35Z</time>
      </trkpt>
      <trkpt lat="43.3264000" lon="-1.8739190">
        <ele>70.8</ele>
        <time>2020-07-30T09:58:38Z</time>
      </trkpt>
      <trkpt lat="43.3263300" lon="-1.8741380">
        <ele>69.8</ele>
        <time>2020-07-30T09:58:40Z</time>
      </trkpt>
      <trkpt lat="43.3262930" lon="-1.8742550">
        <ele>69.4</ele>
        <time>2020-07-30T09:58:41Z</time>
      </trkpt>
      <trkpt lat="43.3262170" lon="-1.8744960">
        <ele>67.8</ele>
        <time>2020-07-30T09:58:43Z</time>
      </trkpt>
      <trkpt lat="43.3261410" lon="-1.8747450">
        <ele>65.8</ele>
        <time>2020-07-30T09:58:45Z</time>
      </trkpt>
      <trkpt lat="43.3261050" lon="-1.8748670">
        <ele>65.0</ele>
        <time>2020-07-30T09:58:46Z</time>
      </trkpt>
      <trkpt lat="43.3260730" lon="-1.8749820">
        <ele>64.4</ele>
        <time>2020-07-30T09:58:47Z</time>
      </trkpt>
      <trkpt lat="43.3259880" lon="-1.8753010">
        <ele>64.0</ele>
        <time>2020-07-30T09:58:50Z</time>
      </trkpt>
      <trkpt lat="43.3259750" lon="-1.8754070">
        <ele>64.0</ele>
        <time>2020-07-30T09:58:51Z</time>
      </trkpt>
      <trkpt lat="43.3259760" lon="-1.8755130">
        <ele>63.8</ele>
        <time>2020-07-30T09:58:52Z</time>
      </trkpt>
      <trkpt lat="43.3259670" lon="-1.8757090">
        <ele>64.0</ele>
        <time>2020-07-30T09:58:54Z</time>
      </trkpt>
      <trkpt lat="43.3259430" lon="-1.8757950">
        <ele>64.0</ele>
        <time>2020-07-30T09:58:55Z</time>
      </trkpt>
      <trkpt lat="43.3259030" lon="-1.8758700">
        <ele>64.0</ele>
        <time>2020-07-30T09:58:56Z</time>
      </trkpt>
      <trkpt lat="43.3257900" lon="-1.8759940">
        <ele>64.0</ele>
        <time>2020-07-30T09:58:58Z</time>
      </trkpt>
      <trkpt lat="43.3257370" lon="-1.8760620">
        <ele>64.0</ele>
        <time>2020-07-30T09:58:59Z</time>
      </trkpt>
      <trkpt lat="43.3256570" lon="-1.8762210">
        <ele>64.0</ele>
        <time>2020-07-30T09:59:01Z</time>
      </trkpt>
      <trkpt lat="43.3255140" lon="-1.8767100">
        <ele>65.4</ele>
        <time>2020-07-30T09:59:07Z</time>
      </trkpt>
      <trkpt lat="43.3254970" lon="-1.8767810">
        <ele>65.8</ele>
        <time>2020-07-30T09:59:08Z</time>
      </trkpt>
      <trkpt lat="43.3254500" lon="-1.8769680">
        <ele>66.8</ele>
        <time>2020-07-30T09:59:11Z</time>
      </trkpt>
      <trkpt lat="43.3254360" lon="-1.8770240">
        <ele>67.0</ele>
        <time>2020-07-30T09:59:12Z</time>
      </trkpt>
      <trkpt lat="43.3254210" lon="-1.8770780">
        <ele>67.4</ele>
        <time>2020-07-30T09:59:13Z</time>
      </trkpt>
      <trkpt lat="43.3253760" lon="-1.8772390">
        <ele>68.4</ele>
        <time>2020-07-30T09:59:16Z</time>
      </trkpt>
      <trkpt lat="43.3253380" lon="-1.8773990">
        <ele>69.4</ele>
        <time>2020-07-30T09:59:19Z</time>
      </trkpt>
      <trkpt lat="43.3252970" lon="-1.8775530">
        <ele>70.4</ele>
        <time>2020-07-30T09:59:22Z</time>
      </trkpt>
      <trkpt lat="43.3252830" lon="-1.8776060">
        <ele>70.8</ele>
        <time>2020-07-30T09:59:23Z</time>
      </trkpt>
      <trkpt lat="43.3252230" lon="-1.8778270">
        <ele>71.8</ele>
        <time>2020-07-30T09:59:27Z</time>
      </trkpt>
      <trkpt lat="43.3252100" lon="-1.8778840">
        <ele>72.2</ele>
        <time>2020-07-30T09:59:28Z</time>
      </trkpt>
      <trkpt lat="43.3251800" lon="-1.8779950">
        <ele>72.8</ele>
        <time>2020-07-30T09:59:30Z</time>
      </trkpt>
      <trkpt lat="43.3251660" lon="-1.8780520">
        <ele>73.0</ele>
        <time>2020-07-30T09:59:31Z</time>
      </trkpt>
      <trkpt lat="43.3250980" lon="-1.8783530">
        <ele>74.0</ele>
        <time>2020-07-30T09:59:36Z</time>
      </trkpt>
      <trkpt lat="43.3250820" lon="-1.8784160">
        <ele>74.2</ele>
        <time>2020-07-30T09:59:37Z</time>
      </trkpt>
      <trkpt lat="43.3250520" lon="-1.8785450">
        <ele>74.4</ele>
        <time>2020-07-30T09:59:39Z</time>
      </trkpt>
      <trkpt lat="43.3249690" lon="-1.8789650">
        <ele>74.4</ele>
        <time>2020-07-30T09:59:45Z</time>
      </trkpt>
      <trkpt lat="43.3249540" lon="-1.8790440">
        <ele>74.2</ele>
        <time>2020-07-30T09:59:46Z</time>
      </trkpt>
      <trkpt lat="43.3248560" lon="-1.8795630">
        <ele>72.8</ele>
        <time>2020-07-30T09:59:52Z</time>
      </trkpt>
      <trkpt lat="43.3248340" lon="-1.8796620">
        <ele>72.2</ele>
        <time>2020-07-30T09:59:53Z</time>
      </trkpt>
      <trkpt lat="43.3248100" lon="-1.8797660">
        <ele>71.8</ele>
        <time>2020-07-30T09:59:54Z</time>
      </trkpt>
      <trkpt lat="43.3247610" lon="-1.8799840">
        <ele>70.4</ele>
        <time>2020-07-30T09:59:56Z</time>
      </trkpt>
      <trkpt lat="43.3247160" lon="-1.8802170">
        <ele>69.0</ele>
        <time>2020-07-30T09:59:58Z</time>
      </trkpt>
      <trkpt lat="43.3246900" lon="-1.8803380">
        <ele>68.2</ele>
        <time>2020-07-30T09:59:59Z</time>
      </trkpt>
      <trkpt lat="43.3246640" lon="-1.8804590">
        <ele>67.4</ele>
        <time>2020-07-30T10:00:00Z</time>
      </trkpt>
      <trkpt lat="43.3246010" lon="-1.8807120">
        <ele>66.0</ele>
        <time>2020-07-30T10:00:02Z</time>
      </trkpt>
      <trkpt lat="43.3245250" lon="-1.8809640">
        <ele>64.8</ele>
        <time>2020-07-30T10:00:04Z</time>
      </trkpt>
      <trkpt lat="43.3244800" lon="-1.8810880">
        <ele>64.0</ele>
        <time>2020-07-30T10:00:05Z</time>
      </trkpt>
      <trkpt lat="43.3244290" lon="-1.8812100">
        <ele>63.4</ele>
        <time>2020-07-30T10:00:06Z</time>
      </trkpt>
      <trkpt lat="43.3243710" lon="-1.8813270">
        <ele>63.0</ele>
        <time>2020-07-30T10:00:07Z</time>
      </trkpt>
      <trkpt lat="43.3242400" lon="-1.8815340">
        <ele>62.6</ele>
        <time>2020-07-30T10:00:09Z</time>
      </trkpt>
      <trkpt lat="43.3241710" lon="-1.8816270">
        <ele>62.2</ele>
        <time>2020-07-30T10:00:10Z</time>
      </trkpt>
      <trkpt lat="43.3238400" lon="-1.8820550">
        <ele>62.6</ele>
        <time>2020-07-30T10:00:15Z</time>
      </trkpt>
      <trkpt lat="43.3237740" lon="-1.8821360">
        <ele>62.8</ele>
        <time>2020-07-30T10:00:16Z</time>
      </trkpt>
      <trkpt lat="43.3235830" lon="-1.8823670">
        <ele>63.2</ele>
        <time>2020-07-30T10:00:19Z</time>
      </trkpt>
      <trkpt lat="43.3232850" lon="-1.8827390">
        <ele>63.8</ele>
        <time>2020-07-30T10:00:24Z</time>
      </trkpt>
      <trkpt lat="43.3230260" lon="-1.8831340">
        <ele>64.4</ele>
        <time>2020-07-30T10:00:29Z</time>
      </trkpt>
      <trkpt lat="43.3229330" lon="-1.8833060">
        <ele>64.4</ele>
        <time>2020-07-30T10:00:31Z</time>
      </trkpt>
      <trkpt lat="43.3226650" lon="-1.8838290">
        <ele>64.8</ele>
        <time>2020-07-30T10:00:37Z</time>
      </trkpt>
      <trkpt lat="43.3225320" lon="-1.8840840">
        <ele>64.6</ele>
        <time>2020-07-30T10:00:40Z</time>
      </trkpt>
      <trkpt lat="43.3222890" lon="-1.8845840">
        <ele>65.4</ele>
        <time>2020-07-30T10:00:46Z</time>
      </trkpt>
      <trkpt lat="43.3222520" lon="-1.8846640">
        <ele>65.4</ele>
        <time>2020-07-30T10:00:47Z</time>
      </trkpt>
      <trkpt lat="43.3222130" lon="-1.8847460">
        <ele>65.6</ele>
        <time>2020-07-30T10:00:48Z</time>
      </trkpt>
      <trkpt lat="43.3219820" lon="-1.8853110">
        <ele>64.6</ele>
        <time>2020-07-30T10:00:54Z</time>
      </trkpt>
      <trkpt lat="43.3219400" lon="-1.8854210">
        <ele>64.2</ele>
        <time>2020-07-30T10:00:55Z</time>
      </trkpt>
      <trkpt lat="43.3218530" lon="-1.8856560">
        <ele>62.8</ele>
        <time>2020-07-30T10:00:57Z</time>
      </trkpt>
      <trkpt lat="43.3217580" lon="-1.8859110">
        <ele>61.4</ele>
        <time>2020-07-30T10:00:59Z</time>
      </trkpt>
      <trkpt lat="43.3216580" lon="-1.8861830">
        <ele>59.6</ele>
        <time>2020-07-30T10:01:01Z</time>
      </trkpt>
      <trkpt lat="43.3215650" lon="-1.8864710">
        <ele>58.4</ele>
        <time>2020-07-30T10:01:03Z</time>
      </trkpt>
      <trkpt lat="43.3215250" lon="-1.8866270">
        <ele>57.4</ele>
        <time>2020-07-30T10:01:04Z</time>
      </trkpt>
      <trkpt lat="43.3214900" lon="-1.8867880">
        <ele>56.2</ele>
        <time>2020-07-30T10:01:05Z</time>
      </trkpt>
      <trkpt lat="43.3214620" lon="-1.8869550">
        <ele>55.0</ele>
        <time>2020-07-30T10:01:06Z</time>
      </trkpt>
      <trkpt lat="43.3214410" lon="-1.8871230">
        <ele>54.0</ele>
        <time>2020-07-30T10:01:07Z</time>
      </trkpt>
      <trkpt lat="43.3214240" lon="-1.8872930">
        <ele>53.4</ele>
        <time>2020-07-30T10:01:08Z</time>
      </trkpt>
      <trkpt lat="43.3214070" lon="-1.8874640">
        <ele>53.0</ele>
        <time>2020-07-30T10:01:09Z</time>
      </trkpt>
      <trkpt lat="43.3213780" lon="-1.8878070">
        <ele>51.4</ele>
        <time>2020-07-30T10:01:11Z</time>
      </trkpt>
      <trkpt lat="43.3213470" lon="-1.8881460">
        <ele>50.0</ele>
        <time>2020-07-30T10:01:13Z</time>
      </trkpt>
      <trkpt lat="43.3213100" lon="-1.8884760">
        <ele>49.2</ele>
        <time>2020-07-30T10:01:15Z</time>
      </trkpt>
      <trkpt lat="43.3212770" lon="-1.8887920">
        <ele>48.8</ele>
        <time>2020-07-30T10:01:17Z</time>
      </trkpt>
      <trkpt lat="43.3212600" lon="-1.8889460">
        <ele>48.4</ele>
        <time>2020-07-30T10:01:18Z</time>
      </trkpt>
      <trkpt lat="43.3212060" lon="-1.8895370">
        <ele>47.6</ele>
        <time>2020-07-30T10:01:22Z</time>
      </trkpt>
      <trkpt lat="43.3211490" lon="-1.8903800">
        <ele>45.8</ele>
        <time>2020-07-30T10:01:28Z</time>
      </trkpt>
      <trkpt lat="43.3211440" lon="-1.8905170">
        <ele>44.8</ele>
        <time>2020-07-30T10:01:29Z</time>
      </trkpt>
      <trkpt lat="43.3211340" lon="-1.8907910">
        <ele>43.2</ele>
        <time>2020-07-30T10:01:31Z</time>
      </trkpt>
      <trkpt lat="43.3211180" lon="-1.8910680">
        <ele>41.6</ele>
        <time>2020-07-30T10:01:33Z</time>
      </trkpt>
      <trkpt lat="43.3211090" lon="-1.8912080">
        <ele>40.6</ele>
        <time>2020-07-30T10:01:34Z</time>
      </trkpt>
      <trkpt lat="43.3210920" lon="-1.8914900">
        <ele>39.0</ele>
        <time>2020-07-30T10:01:36Z</time>
      </trkpt>
      <trkpt lat="43.3210840" lon="-1.8916360">
        <ele>37.8</ele>
        <time>2020-07-30T10:01:37Z</time>
      </trkpt>
      <trkpt lat="43.3210790" lon="-1.8917830">
        <ele>36.2</ele>
        <time>2020-07-30T10:01:38Z</time>
      </trkpt>
      <trkpt lat="43.3210760" lon="-1.8919350">
        <ele>34.8</ele>
        <time>2020-07-30T10:01:39Z</time>
      </trkpt>
      <trkpt lat="43.3210710" lon="-1.8922420">
        <ele>33.2</ele>
        <time>2020-07-30T10:01:41Z</time>
      </trkpt>
      <trkpt lat="43.3210680" lon="-1.8923940">
        <ele>32.2</ele>
        <time>2020-07-30T10:01:42Z</time>
      </trkpt>
      <trkpt lat="43.3210660" lon="-1.8925410">
        <ele>31.2</ele>
        <time>2020-07-30T10:01:43Z</time>
      </trkpt>
      <trkpt lat="43.3210610" lon="-1.8926890">
        <ele>30.4</ele>
        <time>2020-07-30T10:01:44Z</time>
      </trkpt>
      <trkpt lat="43.3210580" lon="-1.8929740">
        <ele>29.2</ele>
        <time>2020-07-30T10:01:46Z</time>
      </trkpt>
      <trkpt lat="43.3210570" lon="-1.8932350">
        <ele>28.0</ele>
        <time>2020-07-30T10:01:48Z</time>
      </trkpt>
      <trkpt lat="43.3210550" lon="-1.8933560">
        <ele>27.8</ele>
        <time>2020-07-30T10:01:49Z</time>
      </trkpt>
      <trkpt lat="43.3210540" lon="-1.8934740">
        <ele>27.6</ele>
        <time>2020-07-30T10:01:50Z</time>
      </trkpt>
      <trkpt lat="43.3210470" lon="-1.8937090">
        <ele>27.4</ele>
        <time>2020-07-30T10:01:52Z</time>
      </trkpt>
      <trkpt lat="43.3210430" lon="-1.8941650">
        <ele>26.8</ele>
        <time>2020-07-30T10:01:56Z</time>
      </trkpt>
      <trkpt lat="43.3210420" lon="-1.8942760">
        <ele>26.6</ele>
        <time>2020-07-30T10:01:57Z</time>
      </trkpt>
      <trkpt lat="43.3210370" lon="-1.8944950">
        <ele>26.4</ele>
        <time>2020-07-30T10:01:59Z</time>
      </trkpt>
      <trkpt lat="43.3210170" lon="-1.8950250">
        <ele>26.2</ele>
        <time>2020-07-30T10:02:04Z</time>
      </trkpt>
      <trkpt lat="43.3210080" lon="-1.8952340">
        <ele>26.2</ele>
        <time>2020-07-30T10:02:06Z</time>
      </trkpt>
      <trkpt lat="43.3209180" lon="-1.8958320">
        <ele>26.2</ele>
        <time>2020-07-30T10:02:12Z</time>
      </trkpt>
      <trkpt lat="43.3208630" lon="-1.8960090">
        <ele>26.0</ele>
        <time>2020-07-30T10:02:14Z</time>
      </trkpt>
      <trkpt lat="43.3208340" lon="-1.8960940">
        <ele>25.8</ele>
        <time>2020-07-30T10:02:15Z</time>
      </trkpt>
      <trkpt lat="43.3207490" lon="-1.8963230">
        <ele>26.0</ele>
        <time>2020-07-30T10:02:18Z</time>
      </trkpt>
      <trkpt lat="43.3206830" lon="-1.8964830">
        <ele>26.6</ele>
        <time>2020-07-30T10:02:22Z</time>
      </trkpt>
      <trkpt lat="43.3206790" lon="-1.8965020">
        <ele>26.8</ele>
        <time>2020-07-30T10:02:23Z</time>
      </trkpt>
      <trkpt lat="43.3206800" lon="-1.8965010">
        <ele>27.2</ele>
        <time>2020-07-30T10:02:26Z</time>
      </trkpt>
      <trkpt lat="43.3206820" lon="-1.8964780">
        <ele>27.6</ele>
        <time>2020-07-30T10:02:32Z</time>
      </trkpt>
      <trkpt lat="43.3206890" lon="-1.8964740">
        <ele>27.6</ele>
        <time>2020-07-30T10:02:35Z</time>
      </trkpt>
      <trkpt lat="43.3206900" lon="-1.8964740">
        <ele>27.6</ele>
        <time>2020-07-30T10:02:36Z</time>
      </trkpt>
      <trkpt lat="43.3206910" lon="-1.8964740">
        <ele>27.6</ele>
        <time>2020-07-30T10:02:37Z</time>
      </trkpt>
      <trkpt lat="43.3206910" lon="-1.8964760">
        <ele>27.6</ele>
        <time>2020-07-30T10:02:38Z</time>
      </trkpt>
      <trkpt lat="43.3206910" lon="-1.8964760">
        <ele>27.6</ele>
        <time>2020-07-30T10:02:39Z</time>
      </trkpt>
      <trkpt lat="43.3206900" lon="-1.8964770">
        <ele>27.6</ele>
        <time>2020-07-30T10:02:40Z</time>
      </trkpt>
      <trkpt lat="43.3206900" lon="-1.8964800">
        <ele>27.6</ele>
        <time>2020-07-30T10:02:41Z</time>
      </trkpt>
      <trkpt lat="43.3206660" lon="-1.8964630">
        <ele>27.6</ele>
        <time>2020-07-30T10:02:47Z</time>
      </trkpt>
      <trkpt lat="43.3206660" lon="-1.8964580">
        <ele>27.6</ele>
        <time>2020-07-30T10:02:50Z</time>
      </trkpt>
      <trkpt lat="43.3206640" lon="-1.8964600">
        <ele>27.6</ele>
        <time>2020-07-30T10:02:55Z</time>
      </trkpt>
      <trkpt lat="43.3206510" lon="-1.8964870">
        <ele>27.6</ele>
        <time>2020-07-30T10:02:57Z</time>
      </trkpt>
      <trkpt lat="43.3206240" lon="-1.8966230">
        <ele>27.4</ele>
        <time>2020-07-30T10:03:01Z</time>
      </trkpt>
      <trkpt lat="43.3206150" lon="-1.8967500">
        <ele>27.4</ele>
        <time>2020-07-30T10:03:03Z</time>
      </trkpt>
      <trkpt lat="43.3206020" lon="-1.8968840">
        <ele>27.2</ele>
        <time>2020-07-30T10:03:05Z</time>
      </trkpt>
      <trkpt lat="43.3205840" lon="-1.8969490">
        <ele>27.2</ele>
        <time>2020-07-30T10:03:06Z</time>
      </trkpt>
      <trkpt lat="43.3205540" lon="-1.8970110">
        <ele>27.0</ele>
        <time>2020-07-30T10:03:07Z</time>
      </trkpt>
      <trkpt lat="43.3204660" lon="-1.8971090">
        <ele>27.0</ele>
        <time>2020-07-30T10:03:09Z</time>
      </trkpt>
      <trkpt lat="43.3201700" lon="-1.8972730">
        <ele>26.6</ele>
        <time>2020-07-30T10:03:14Z</time>
      </trkpt>
      <trkpt lat="43.3197730" lon="-1.8974510">
        <ele>26.2</ele>
        <time>2020-07-30T10:03:20Z</time>
      </trkpt>
      <trkpt lat="43.3196400" lon="-1.8975160">
        <ele>25.8</ele>
        <time>2020-07-30T10:03:22Z</time>
      </trkpt>
      <trkpt lat="43.3193860" lon="-1.8976890">
        <ele>25.4</ele>
        <time>2020-07-30T10:03:26Z</time>
      </trkpt>
      <trkpt lat="43.3193310" lon="-1.8977480">
        <ele>25.4</ele>
        <time>2020-07-30T10:03:27Z</time>
      </trkpt>
      <trkpt lat="43.3192840" lon="-1.8978280">
        <ele>25.2</ele>
        <time>2020-07-30T10:03:28Z</time>
      </trkpt>
      <trkpt lat="43.3192030" lon="-1.8979910">
        <ele>25.0</ele>
        <time>2020-07-30T10:03:30Z</time>
      </trkpt>
      <trkpt lat="43.3191730" lon="-1.8980800">
        <ele>25.0</ele>
        <time>2020-07-30T10:03:31Z</time>
      </trkpt>
      <trkpt lat="43.3191510" lon="-1.8981730">
        <ele>25.0</ele>
        <time>2020-07-30T10:03:32Z</time>
      </trkpt>
      <trkpt lat="43.3191180" lon="-1.8984590">
        <ele>25.2</ele>
        <time>2020-07-30T10:03:35Z</time>
      </trkpt>
      <trkpt lat="43.3191170" lon="-1.8985520">
        <ele>25.2</ele>
        <time>2020-07-30T10:03:36Z</time>
      </trkpt>
      <trkpt lat="43.3191360" lon="-1.8988980">
        <ele>25.6</ele>
        <time>2020-07-30T10:03:40Z</time>
      </trkpt>
      <trkpt lat="43.3191290" lon="-1.8992080">
        <ele>26.2</ele>
        <time>2020-07-30T10:03:44Z</time>
      </trkpt>
      <trkpt lat="43.3191010" lon="-1.8993540">
        <ele>26.4</ele>
        <time>2020-07-30T10:03:46Z</time>
      </trkpt>
      <trkpt lat="43.3190720" lon="-1.8994910">
        <ele>27.0</ele>
        <time>2020-07-30T10:03:48Z</time>
      </trkpt>
      <trkpt lat="43.3190410" lon="-1.8996250">
        <ele>27.6</ele>
        <time>2020-07-30T10:03:50Z</time>
      </trkpt>
      <trkpt lat="43.3190320" lon="-1.8996920">
        <ele>27.8</ele>
        <time>2020-07-30T10:03:51Z</time>
      </trkpt>
      <trkpt lat="43.3190340" lon="-1.8998090">
        <ele>28.0</ele>
        <time>2020-07-30T10:03:53Z</time>
      </trkpt>
      <trkpt lat="43.3190410" lon="-1.8998910">
        <ele>28.0</ele>
        <time>2020-07-30T10:03:55Z</time>
      </trkpt>
      <trkpt lat="43.3190270" lon="-1.8999310">
        <ele>28.0</ele>
        <time>2020-07-30T10:03:56Z</time>
      </trkpt>
      <trkpt lat="43.3189470" lon="-1.9001670">
        <ele>28.8</ele>
        <time>2020-07-30T10:04:01Z</time>
      </trkpt>
      <trkpt lat="43.3189310" lon="-1.9002270">
        <ele>28.8</ele>
        <time>2020-07-30T10:04:02Z</time>
      </trkpt>
      <trkpt lat="43.3189170" lon="-1.9002880">
        <ele>29.0</ele>
        <time>2020-07-30T10:04:03Z</time>
      </trkpt>
      <trkpt lat="43.3188360" lon="-1.9005840">
        <ele>29.2</ele>
        <time>2020-07-30T10:04:08Z</time>
      </trkpt>
      <trkpt lat="43.3188070" lon="-1.9007000">
        <ele>29.6</ele>
        <time>2020-07-30T10:04:10Z</time>
      </trkpt>
      <trkpt lat="43.3187840" lon="-1.9008100">
        <ele>30.2</ele>
        <time>2020-07-30T10:04:12Z</time>
      </trkpt>
      <trkpt lat="43.3187580" lon="-1.9009060">
        <ele>30.8</ele>
        <time>2020-07-30T10:04:14Z</time>
      </trkpt>
      <trkpt lat="43.3187450" lon="-1.9009520">
        <ele>31.2</ele>
        <time>2020-07-30T10:04:15Z</time>
      </trkpt>
      <trkpt lat="43.3186860" lon="-1.9012100">
        <ele>32.2</ele>
        <time>2020-07-30T10:04:21Z</time>
      </trkpt>
      <trkpt lat="43.3186650" lon="-1.9013320">
        <ele>33.2</ele>
        <time>2020-07-30T10:04:24Z</time>
      </trkpt>
      <trkpt lat="43.3186890" lon="-1.9014420">
        <ele>33.6</ele>
        <time>2020-07-30T10:04:27Z</time>
      </trkpt>
      <trkpt lat="43.3187130" lon="-1.9014830">
        <ele>33.4</ele>
        <time>2020-07-30T10:04:30Z</time>
      </trkpt>
      <trkpt lat="43.3187190" lon="-1.9014960">
        <ele>33.4</ele>
        <time>2020-07-30T10:04:31Z</time>
      </trkpt>
      <trkpt lat="43.3187610" lon="-1.9016660">
        <ele>33.4</ele>
        <time>2020-07-30T10:04:36Z</time>
      </trkpt>
      <trkpt lat="43.3187700" lon="-1.9018820">
        <ele>33.2</ele>
        <time>2020-07-30T10:04:40Z</time>
      </trkpt>
      <trkpt lat="43.3187590" lon="-1.9019350">
        <ele>33.2</ele>
        <time>2020-07-30T10:04:41Z</time>
      </trkpt>
      <trkpt lat="43.3187050" lon="-1.9021510">
        <ele>33.2</ele>
        <time>2020-07-30T10:04:45Z</time>
      </trkpt>
      <trkpt lat="43.3186980" lon="-1.9022630">
        <ele>33.4</ele>
        <time>2020-07-30T10:04:47Z</time>
      </trkpt>
      <trkpt lat="43.3187080" lon="-1.9023090">
        <ele>33.6</ele>
        <time>2020-07-30T10:04:48Z</time>
      </trkpt>
      <trkpt lat="43.3187620" lon="-1.9024440">
        <ele>33.8</ele>
        <time>2020-07-30T10:04:51Z</time>
      </trkpt>
      <trkpt lat="43.3188790" lon="-1.9028060">
        <ele>34.0</ele>
        <time>2020-07-30T10:04:57Z</time>
      </trkpt>
      <trkpt lat="43.3189710" lon="-1.9030810">
        <ele>33.0</ele>
        <time>2020-07-30T10:05:01Z</time>
      </trkpt>
      <trkpt lat="43.3190620" lon="-1.9033730">
        <ele>32.6</ele>
        <time>2020-07-30T10:05:05Z</time>
      </trkpt>
      <trkpt lat="43.3191820" lon="-1.9038080">
        <ele>32.4</ele>
        <time>2020-07-30T10:05:11Z</time>
      </trkpt>
      <trkpt lat="43.3192140" lon="-1.9039450">
        <ele>32.4</ele>
        <time>2020-07-30T10:05:13Z</time>
      </trkpt>
      <trkpt lat="43.3192560" lon="-1.9042020">
        <ele>33.4</ele>
        <time>2020-07-30T10:05:17Z</time>
      </trkpt>
      <trkpt lat="43.3192810" lon="-1.9043730">
        <ele>34.0</ele>
        <time>2020-07-30T10:05:20Z</time>
      </trkpt>
      <trkpt lat="43.3192870" lon="-1.9044290">
        <ele>34.2</ele>
        <time>2020-07-30T10:05:21Z</time>
      </trkpt>
      <trkpt lat="43.3193170" lon="-1.9046520">
        <ele>35.2</ele>
        <time>2020-07-30T10:05:25Z</time>
      </trkpt>
      <trkpt lat="43.3193460" lon="-1.9048700">
        <ele>35.6</ele>
        <time>2020-07-30T10:05:29Z</time>
      </trkpt>
      <trkpt lat="43.3193680" lon="-1.9051440">
        <ele>36.2</ele>
        <time>2020-07-30T10:05:34Z</time>
      </trkpt>
      <trkpt lat="43.3193820" lon="-1.9054140">
        <ele>37.6</ele>
        <time>2020-07-30T10:05:39Z</time>
      </trkpt>
      <trkpt lat="43.3193810" lon="-1.9054690">
        <ele>37.8</ele>
        <time>2020-07-30T10:05:40Z</time>
      </trkpt>
      <trkpt lat="43.3193760" lon="-1.9058140">
        <ele>38.2</ele>
        <time>2020-07-30T10:05:46Z</time>
      </trkpt>
      <trkpt lat="43.3193680" lon="-1.9059350">
        <ele>38.6</ele>
        <time>2020-07-30T10:05:48Z</time>
      </trkpt>
      <trkpt lat="43.3193360" lon="-1.9062420">
        <ele>39.4</ele>
        <time>2020-07-30T10:05:53Z</time>
      </trkpt>
      <trkpt lat="43.3193090" lon="-1.9064230">
        <ele>39.4</ele>
        <time>2020-07-30T10:05:56Z</time>
      </trkpt>
      <trkpt lat="43.3192900" lon="-1.9065480">
        <ele>39.8</ele>
        <time>2020-07-30T10:05:58Z</time>
      </trkpt>
      <trkpt lat="43.3192230" lon="-1.9068780">
        <ele>39.4</ele>
        <time>2020-07-30T10:06:04Z</time>
      </trkpt>
      <trkpt lat="43.3191480" lon="-1.9071710">
        <ele>39.6</ele>
        <time>2020-07-30T10:06:10Z</time>
      </trkpt>
      <trkpt lat="43.3191500" lon="-1.9072240">
        <ele>39.6</ele>
        <time>2020-07-30T10:06:11Z</time>
      </trkpt>
      <trkpt lat="43.3191910" lon="-1.9073150">
        <ele>39.8</ele>
        <time>2020-07-30T10:06:13Z</time>
      </trkpt>
      <trkpt lat="43.3192230" lon="-1.9073500">
        <ele>39.8</ele>
        <time>2020-07-30T10:06:14Z</time>
      </trkpt>
      <trkpt lat="43.3193150" lon="-1.9074390">
        <ele>40.0</ele>
        <time>2020-07-30T10:06:18Z</time>
      </trkpt>
      <trkpt lat="43.3192780" lon="-1.9075240">
        <ele>39.8</ele>
        <time>2020-07-30T10:06:21Z</time>
      </trkpt>
      <trkpt lat="43.3192620" lon="-1.9075490">
        <ele>39.8</ele>
        <time>2020-07-30T10:06:22Z</time>
      </trkpt>
      <trkpt lat="43.3191490" lon="-1.9076900">
        <ele>39.6</ele>
        <time>2020-07-30T10:06:28Z</time>
      </trkpt>
      <trkpt lat="43.3190650" lon="-1.9078080">
        <ele>39.6</ele>
        <time>2020-07-30T10:06:32Z</time>
      </trkpt>
      <trkpt lat="43.3190230" lon="-1.9078850">
        <ele>39.6</ele>
        <time>2020-07-30T10:06:35Z</time>
      </trkpt>
      <trkpt lat="43.3190110" lon="-1.9079170">
        <ele>39.8</ele>
        <time>2020-07-30T10:06:36Z</time>
      </trkpt>
      <trkpt lat="43.3189840" lon="-1.9079690">
        <ele>39.8</ele>
        <time>2020-07-30T10:06:38Z</time>
      </trkpt>
      <trkpt lat="43.3189660" lon="-1.9079860">
        <ele>39.8</ele>
        <time>2020-07-30T10:06:39Z</time>
      </trkpt>
      <trkpt lat="43.3189360" lon="-1.9080500">
        <ele>39.4</ele>
        <time>2020-07-30T10:06:41Z</time>
      </trkpt>
      <trkpt lat="43.3188640" lon="-1.9083360">
        <ele>38.8</ele>
        <time>2020-07-30T10:06:47Z</time>
      </trkpt>
      <trkpt lat="43.3188490" lon="-1.9083890">
        <ele>38.6</ele>
        <time>2020-07-30T10:06:48Z</time>
      </trkpt>
      <trkpt lat="43.3188310" lon="-1.9084430">
        <ele>38.6</ele>
        <time>2020-07-30T10:06:49Z</time>
      </trkpt>
      <trkpt lat="43.3188130" lon="-1.9085000">
        <ele>38.6</ele>
        <time>2020-07-30T10:06:50Z</time>
      </trkpt>
      <trkpt lat="43.3187920" lon="-1.9085580">
        <ele>38.4</ele>
        <time>2020-07-30T10:06:51Z</time>
      </trkpt>
      <trkpt lat="43.3187670" lon="-1.9086170">
        <ele>38.4</ele>
        <time>2020-07-30T10:06:52Z</time>
      </trkpt>
      <trkpt lat="43.3187410" lon="-1.9086740">
        <ele>38.4</ele>
        <time>2020-07-30T10:06:53Z</time>
      </trkpt>
      <trkpt lat="43.3186860" lon="-1.9087960">
        <ele>38.2</ele>
        <time>2020-07-30T10:06:55Z</time>
      </trkpt>
      <trkpt lat="43.3186630" lon="-1.9088620">
        <ele>38.0</ele>
        <time>2020-07-30T10:06:56Z</time>
      </trkpt>
      <trkpt lat="43.3186210" lon="-1.9089980">
        <ele>37.8</ele>
        <time>2020-07-30T10:06:58Z</time>
      </trkpt>
      <trkpt lat="43.3185740" lon="-1.9091450">
        <ele>37.6</ele>
        <time>2020-07-30T10:07:00Z</time>
      </trkpt>
      <trkpt lat="43.3184410" lon="-1.9095390">
        <ele>36.6</ele>
        <time>2020-07-30T10:07:05Z</time>
      </trkpt>
      <trkpt lat="43.3184120" lon="-1.9096250">
        <ele>36.2</ele>
        <time>2020-07-30T10:07:06Z</time>
      </trkpt>
      <trkpt lat="43.3183260" lon="-1.9098790">
        <ele>34.8</ele>
        <time>2020-07-30T10:07:09Z</time>
      </trkpt>
      <trkpt lat="43.3182740" lon="-1.9100400">
        <ele>33.8</ele>
        <time>2020-07-30T10:07:11Z</time>
      </trkpt>
      <trkpt lat="43.3181900" lon="-1.9102900">
        <ele>33.2</ele>
        <time>2020-07-30T10:07:14Z</time>
      </trkpt>
      <trkpt lat="43.3181390" lon="-1.9104480">
        <ele>32.6</ele>
        <time>2020-07-30T10:07:16Z</time>
      </trkpt>
      <trkpt lat="43.3180100" lon="-1.9108060">
        <ele>31.2</ele>
        <time>2020-07-30T10:07:21Z</time>
      </trkpt>
      <trkpt lat="43.3179880" lon="-1.9108650">
        <ele>31.0</ele>
        <time>2020-07-30T10:07:22Z</time>
      </trkpt>
      <trkpt lat="43.3179220" lon="-1.9110640">
        <ele>30.2</ele>
        <time>2020-07-30T10:07:25Z</time>
      </trkpt>
      <trkpt lat="43.3178810" lon="-1.9112120">
        <ele>30.0</ele>
        <time>2020-07-30T10:07:27Z</time>
      </trkpt>
      <trkpt lat="43.3178050" lon="-1.9114900">
        <ele>30.0</ele>
        <time>2020-07-30T10:07:31Z</time>
      </trkpt>
      <trkpt lat="43.3177580" lon="-1.9116790">
        <ele>30.4</ele>
        <time>2020-07-30T10:07:34Z</time>
      </trkpt>
      <trkpt lat="43.3177440" lon="-1.9117350">
        <ele>30.4</ele>
        <time>2020-07-30T10:07:35Z</time>
      </trkpt>
      <trkpt lat="43.3177130" lon="-1.9118860">
        <ele>31.0</ele>
        <time>2020-07-30T10:07:38Z</time>
      </trkpt>
      <trkpt lat="43.3177000" lon="-1.9119360">
        <ele>31.2</ele>
        <time>2020-07-30T10:07:39Z</time>
      </trkpt>
      <trkpt lat="43.3176880" lon="-1.9119830">
        <ele>31.4</ele>
        <time>2020-07-30T10:07:40Z</time>
      </trkpt>
      <trkpt lat="43.3176580" lon="-1.9122390">
        <ele>32.4</ele>
        <time>2020-07-30T10:07:46Z</time>
      </trkpt>
      <trkpt lat="43.3176670" lon="-1.9123300">
        <ele>32.6</ele>
        <time>2020-07-30T10:07:49Z</time>
      </trkpt>
      <trkpt lat="43.3176690" lon="-1.9123480">
        <ele>32.8</ele>
        <time>2020-07-30T10:07:50Z</time>
      </trkpt>
      <trkpt lat="43.3176680" lon="-1.9123690">
        <ele>33.0</ele>
        <time>2020-07-30T10:07:51Z</time>
      </trkpt>
      <trkpt lat="43.3176620" lon="-1.9124820">
        <ele>33.0</ele>
        <time>2020-07-30T10:07:54Z</time>
      </trkpt>
      <trkpt lat="43.3176630" lon="-1.9125280">
        <ele>33.0</ele>
        <time>2020-07-30T10:07:55Z</time>
      </trkpt>
      <trkpt lat="43.3176340" lon="-1.9128140">
        <ele>32.0</ele>
        <time>2020-07-30T10:08:00Z</time>
      </trkpt>
      <trkpt lat="43.3176170" lon="-1.9129540">
        <ele>32.0</ele>
        <time>2020-07-30T10:08:02Z</time>
      </trkpt>
      <trkpt lat="43.3176010" lon="-1.9131750">
        <ele>31.2</ele>
        <time>2020-07-30T10:08:05Z</time>
      </trkpt>
      <trkpt lat="43.3176040" lon="-1.9133400">
        <ele>31.0</ele>
        <time>2020-07-30T10:08:07Z</time>
      </trkpt>
      <trkpt lat="43.3176290" lon="-1.9136170">
        <ele>30.0</ele>
        <time>2020-07-30T10:08:10Z</time>
      </trkpt>
      <trkpt lat="43.3176640" lon="-1.9138240">
        <ele>29.0</ele>
        <time>2020-07-30T10:08:12Z</time>
      </trkpt>
      <trkpt lat="43.3176870" lon="-1.9139320">
        <ele>28.4</ele>
        <time>2020-07-30T10:08:13Z</time>
      </trkpt>
      <trkpt lat="43.3177470" lon="-1.9141450">
        <ele>26.6</ele>
        <time>2020-07-30T10:08:15Z</time>
      </trkpt>
      <trkpt lat="43.3178140" lon="-1.9143560">
        <ele>24.8</ele>
        <time>2020-07-30T10:08:17Z</time>
      </trkpt>
      <trkpt lat="43.3179310" lon="-1.9146930">
        <ele>24.2</ele>
        <time>2020-07-30T10:08:21Z</time>
      </trkpt>
      <trkpt lat="43.3180150" lon="-1.9148780">
        <ele>24.0</ele>
        <time>2020-07-30T10:08:24Z</time>
      </trkpt>
      <trkpt lat="43.3180730" lon="-1.9150170">
        <ele>24.0</ele>
        <time>2020-07-30T10:08:26Z</time>
      </trkpt>
      <trkpt lat="43.3181320" lon="-1.9151650">
        <ele>23.8</ele>
        <time>2020-07-30T10:08:28Z</time>
      </trkpt>
      <trkpt lat="43.3182100" lon="-1.9153930">
        <ele>23.6</ele>
        <time>2020-07-30T10:08:31Z</time>
      </trkpt>
      <trkpt lat="43.3183090" lon="-1.9156980">
        <ele>23.2</ele>
        <time>2020-07-30T10:08:35Z</time>
      </trkpt>
      <trkpt lat="43.3184950" lon="-1.9161340">
        <ele>24.6</ele>
        <time>2020-07-30T10:08:41Z</time>
      </trkpt>
      <trkpt lat="43.3185230" lon="-1.9162120">
        <ele>24.6</ele>
        <time>2020-07-30T10:08:42Z</time>
      </trkpt>
      <trkpt lat="43.3186680" lon="-1.9165860">
        <ele>22.8</ele>
        <time>2020-07-30T10:08:47Z</time>
      </trkpt>
      <trkpt lat="43.3187230" lon="-1.9167310">
        <ele>22.8</ele>
        <time>2020-07-30T10:08:49Z</time>
      </trkpt>
      <trkpt lat="43.3188650" lon="-1.9171790">
        <ele>22.8</ele>
        <time>2020-07-30T10:08:55Z</time>
      </trkpt>
      <trkpt lat="43.3189120" lon="-1.9173110">
        <ele>22.6</ele>
        <time>2020-07-30T10:08:57Z</time>
      </trkpt>
      <trkpt lat="43.3189770" lon="-1.9175100">
        <ele>22.8</ele>
        <time>2020-07-30T10:09:01Z</time>
      </trkpt>
      <trkpt lat="43.3190280" lon="-1.9176510">
        <ele>23.2</ele>
        <time>2020-07-30T10:09:04Z</time>
      </trkpt>
      <trkpt lat="43.3190900" lon="-1.9178300">
        <ele>23.2</ele>
        <time>2020-07-30T10:09:07Z</time>
      </trkpt>
      <trkpt lat="43.3192030" lon="-1.9181570">
        <ele>22.8</ele>
        <time>2020-07-30T10:09:12Z</time>
      </trkpt>
      <trkpt lat="43.3192770" lon="-1.9183630">
        <ele>22.6</ele>
        <time>2020-07-30T10:09:15Z</time>
      </trkpt>
      <trkpt lat="43.3193970" lon="-1.9187130">
        <ele>22.8</ele>
        <time>2020-07-30T10:09:20Z</time>
      </trkpt>
      <trkpt lat="43.3195150" lon="-1.9190500">
        <ele>23.6</ele>
        <time>2020-07-30T10:09:25Z</time>
      </trkpt>
      <trkpt lat="43.3195660" lon="-1.9191830">
        <ele>23.8</ele>
        <time>2020-07-30T10:09:27Z</time>
      </trkpt>
      <trkpt lat="43.3197250" lon="-1.9195070">
        <ele>24.8</ele>
        <time>2020-07-30T10:09:32Z</time>
      </trkpt>
      <trkpt lat="43.3197850" lon="-1.9196400">
        <ele>25.0</ele>
        <time>2020-07-30T10:09:34Z</time>
      </trkpt>
      <trkpt lat="43.3198540" lon="-1.9197660">
        <ele>25.0</ele>
        <time>2020-07-30T10:09:36Z</time>
      </trkpt>
      <trkpt lat="43.3200480" lon="-1.9201400">
        <ele>25.8</ele>
        <time>2020-07-30T10:09:42Z</time>
      </trkpt>
      <trkpt lat="43.3200770" lon="-1.9202030">
        <ele>26.0</ele>
        <time>2020-07-30T10:09:43Z</time>
      </trkpt>
      <trkpt lat="43.3201080" lon="-1.9202670">
        <ele>26.0</ele>
        <time>2020-07-30T10:09:44Z</time>
      </trkpt>
      <trkpt lat="43.3202010" lon="-1.9204540">
        <ele>27.0</ele>
        <time>2020-07-30T10:09:47Z</time>
      </trkpt>
      <trkpt lat="43.3203820" lon="-1.9208140">
        <ele>28.2</ele>
        <time>2020-07-30T10:09:53Z</time>
      </trkpt>
      <trkpt lat="43.3204390" lon="-1.9209320">
        <ele>28.8</ele>
        <time>2020-07-30T10:09:55Z</time>
      </trkpt>
      <trkpt lat="43.3204690" lon="-1.9209880">
        <ele>29.0</ele>
        <time>2020-07-30T10:09:56Z</time>
      </trkpt>
      <trkpt lat="43.3204970" lon="-1.9210440">
        <ele>29.2</ele>
        <time>2020-07-30T10:09:57Z</time>
      </trkpt>
      <trkpt lat="43.3206030" lon="-1.9212630">
        <ele>30.0</ele>
        <time>2020-07-30T10:10:01Z</time>
      </trkpt>
      <trkpt lat="43.3206550" lon="-1.9213640">
        <ele>30.4</ele>
        <time>2020-07-30T10:10:03Z</time>
      </trkpt>
      <trkpt lat="43.3207720" lon="-1.9216200">
        <ele>31.6</ele>
        <time>2020-07-30T10:10:08Z</time>
      </trkpt>
      <trkpt lat="43.3208160" lon="-1.9217100">
        <ele>31.8</ele>
        <time>2020-07-30T10:10:10Z</time>
      </trkpt>
      <trkpt lat="43.3209030" lon="-1.9218620">
        <ele>32.6</ele>
        <time>2020-07-30T10:10:14Z</time>
      </trkpt>
      <trkpt lat="43.3209730" lon="-1.9219550">
        <ele>33.4</ele>
        <time>2020-07-30T10:10:17Z</time>
      </trkpt>
      <trkpt lat="43.3210500" lon="-1.9220640">
        <ele>33.8</ele>
        <time>2020-07-30T10:10:20Z</time>
      </trkpt>
      <trkpt lat="43.3211700" lon="-1.9222080">
        <ele>34.4</ele>
        <time>2020-07-30T10:10:24Z</time>
      </trkpt>
      <trkpt lat="43.3212300" lon="-1.9222820">
        <ele>34.6</ele>
        <time>2020-07-30T10:10:26Z</time>
      </trkpt>
      <trkpt lat="43.3213210" lon="-1.9224610">
        <ele>34.2</ele>
        <time>2020-07-30T10:10:30Z</time>
      </trkpt>
      <trkpt lat="43.3212930" lon="-1.9226010">
        <ele>33.8</ele>
        <time>2020-07-30T10:10:33Z</time>
      </trkpt>
      <trkpt lat="43.3212860" lon="-1.9226600">
        <ele>33.8</ele>
        <time>2020-07-30T10:10:34Z</time>
      </trkpt>
      <trkpt lat="43.3213150" lon="-1.9227910">
        <ele>33.4</ele>
        <time>2020-07-30T10:10:36Z</time>
      </trkpt>
      <trkpt lat="43.3213520" lon="-1.9229500">
        <ele>32.8</ele>
        <time>2020-07-30T10:10:38Z</time>
      </trkpt>
      <trkpt lat="43.3213670" lon="-1.9230400">
        <ele>32.4</ele>
        <time>2020-07-30T10:10:39Z</time>
      </trkpt>
      <trkpt lat="43.3213860" lon="-1.9232370">
        <ele>31.8</ele>
        <time>2020-07-30T10:10:41Z</time>
      </trkpt>
      <trkpt lat="43.3213940" lon="-1.9233400">
        <ele>31.4</ele>
        <time>2020-07-30T10:10:42Z</time>
      </trkpt>
      <trkpt lat="43.3214260" lon="-1.9236770">
        <ele>30.0</ele>
        <time>2020-07-30T10:10:45Z</time>
      </trkpt>
      <trkpt lat="43.3214440" lon="-1.9239150">
        <ele>29.0</ele>
        <time>2020-07-30T10:10:47Z</time>
      </trkpt>
      <trkpt lat="43.3214510" lon="-1.9240340">
        <ele>28.6</ele>
        <time>2020-07-30T10:10:48Z</time>
      </trkpt>
      <trkpt lat="43.3214530" lon="-1.9246290">
        <ele>27.6</ele>
        <time>2020-07-30T10:10:53Z</time>
      </trkpt>
      <trkpt lat="43.3214500" lon="-1.9247450">
        <ele>27.6</ele>
        <time>2020-07-30T10:10:54Z</time>
      </trkpt>
      <trkpt lat="43.3213990" lon="-1.9254110">
        <ele>28.4</ele>
        <time>2020-07-30T10:11:00Z</time>
      </trkpt>
      <trkpt lat="43.3213880" lon="-1.9255180">
        <ele>28.4</ele>
        <time>2020-07-30T10:11:01Z</time>
      </trkpt>
      <trkpt lat="43.3213770" lon="-1.9256220">
        <ele>28.4</ele>
        <time>2020-07-30T10:11:02Z</time>
      </trkpt>
      <trkpt lat="43.3213550" lon="-1.9258270">
        <ele>28.6</ele>
        <time>2020-07-30T10:11:04Z</time>
      </trkpt>
      <trkpt lat="43.3213060" lon="-1.9262310">
        <ele>28.8</ele>
        <time>2020-07-30T10:11:08Z</time>
      </trkpt>
      <trkpt lat="43.3212860" lon="-1.9264240">
        <ele>29.0</ele>
        <time>2020-07-30T10:11:10Z</time>
      </trkpt>
      <trkpt lat="43.3212300" lon="-1.9269830">
        <ele>29.6</ele>
        <time>2020-07-30T10:11:16Z</time>
      </trkpt>
      <trkpt lat="43.3212240" lon="-1.9270760">
        <ele>29.6</ele>
        <time>2020-07-30T10:11:17Z</time>
      </trkpt>
      <trkpt lat="43.3211950" lon="-1.9275430">
        <ele>29.8</ele>
        <time>2020-07-30T10:11:22Z</time>
      </trkpt>
      <trkpt lat="43.3211920" lon="-1.9276350">
        <ele>29.8</ele>
        <time>2020-07-30T10:11:23Z</time>
      </trkpt>
      <trkpt lat="43.3211860" lon="-1.9279070">
        <ele>30.0</ele>
        <time>2020-07-30T10:11:26Z</time>
      </trkpt>
      <trkpt lat="43.3211840" lon="-1.9284490">
        <ele>30.8</ele>
        <time>2020-07-30T10:11:32Z</time>
      </trkpt>
      <trkpt lat="43.3211900" lon="-1.9286360">
        <ele>30.8</ele>
        <time>2020-07-30T10:11:34Z</time>
      </trkpt>
      <trkpt lat="43.3212090" lon="-1.9291950">
        <ele>30.6</ele>
        <time>2020-07-30T10:11:40Z</time>
      </trkpt>
      <trkpt lat="43.3212180" lon="-1.9293790">
        <ele>30.2</ele>
        <time>2020-07-30T10:11:42Z</time>
      </trkpt>
      <trkpt lat="43.3212310" lon="-1.9295700">
        <ele>29.6</ele>
        <time>2020-07-30T10:11:44Z</time>
      </trkpt>
      <trkpt lat="43.3212420" lon="-1.9298700">
        <ele>28.8</ele>
        <time>2020-07-30T10:11:47Z</time>
      </trkpt>
      <trkpt lat="43.3212570" lon="-1.9302790">
        <ele>27.8</ele>
        <time>2020-07-30T10:11:51Z</time>
      </trkpt>
      <trkpt lat="43.3212580" lon="-1.9304950">
        <ele>27.6</ele>
        <time>2020-07-30T10:11:53Z</time>
      </trkpt>
      <trkpt lat="43.3212580" lon="-1.9309040">
        <ele>27.6</ele>
        <time>2020-07-30T10:11:57Z</time>
      </trkpt>
      <trkpt lat="43.3212610" lon="-1.9314670">
        <ele>28.6</ele>
        <time>2020-07-30T10:12:03Z</time>
      </trkpt>
      <trkpt lat="43.3212660" lon="-1.9315560">
        <ele>28.8</ele>
        <time>2020-07-30T10:12:04Z</time>
      </trkpt>
      <trkpt lat="43.3212660" lon="-1.9317340">
        <ele>29.2</ele>
        <time>2020-07-30T10:12:06Z</time>
      </trkpt>
      <trkpt lat="43.3212580" lon="-1.9319100">
        <ele>29.2</ele>
        <time>2020-07-30T10:12:08Z</time>
      </trkpt>
      <trkpt lat="43.3212430" lon="-1.9320800">
        <ele>29.6</ele>
        <time>2020-07-30T10:12:10Z</time>
      </trkpt>
      <trkpt lat="43.3212350" lon="-1.9321630">
        <ele>30.0</ele>
        <time>2020-07-30T10:12:11Z</time>
      </trkpt>
      <trkpt lat="43.3212000" lon="-1.9324990">
        <ele>30.8</ele>
        <time>2020-07-30T10:12:15Z</time>
      </trkpt>
      <trkpt lat="43.3211780" lon="-1.9326620">
        <ele>31.0</ele>
        <time>2020-07-30T10:12:17Z</time>
      </trkpt>
      <trkpt lat="43.3211660" lon="-1.9327420">
        <ele>31.2</ele>
        <time>2020-07-30T10:12:18Z</time>
      </trkpt>
      <trkpt lat="43.3211110" lon="-1.9332110">
        <ele>31.8</ele>
        <time>2020-07-30T10:12:24Z</time>
      </trkpt>
      <trkpt lat="43.3210870" lon="-1.9333630">
        <ele>32.2</ele>
        <time>2020-07-30T10:12:26Z</time>
      </trkpt>
      <trkpt lat="43.3209920" lon="-1.9338080">
        <ele>32.8</ele>
        <time>2020-07-30T10:12:32Z</time>
      </trkpt>
      <trkpt lat="43.3209210" lon="-1.9340280">
        <ele>33.0</ele>
        <time>2020-07-30T10:12:35Z</time>
      </trkpt>
      <trkpt lat="43.3207760" lon="-1.9344870">
        <ele>33.0</ele>
        <time>2020-07-30T10:12:41Z</time>
      </trkpt>
      <trkpt lat="43.3206760" lon="-1.9347960">
        <ele>32.2</ele>
        <time>2020-07-30T10:12:45Z</time>
      </trkpt>
      <trkpt lat="43.3205130" lon="-1.9352550">
        <ele>32.2</ele>
        <time>2020-07-30T10:12:51Z</time>
      </trkpt>
      <trkpt lat="43.3204540" lon="-1.9354070">
        <ele>32.2</ele>
        <time>2020-07-30T10:12:53Z</time>
      </trkpt>
      <trkpt lat="43.3203170" lon="-1.9358100">
        <ele>32.2</ele>
        <time>2020-07-30T10:12:58Z</time>
      </trkpt>
      <trkpt lat="43.3202320" lon="-1.9360630">
        <ele>31.8</ele>
        <time>2020-07-30T10:13:01Z</time>
      </trkpt>
      <trkpt lat="43.3200740" lon="-1.9365580">
        <ele>31.4</ele>
        <time>2020-07-30T10:13:07Z</time>
      </trkpt>
      <trkpt lat="43.3200240" lon="-1.9367150">
        <ele>31.2</ele>
        <time>2020-07-30T10:13:09Z</time>
      </trkpt>
      <trkpt lat="43.3199740" lon="-1.9368690">
        <ele>31.0</ele>
        <time>2020-07-30T10:13:11Z</time>
      </trkpt>
      <trkpt lat="43.3198320" lon="-1.9372780">
        <ele>31.0</ele>
        <time>2020-07-30T10:13:17Z</time>
      </trkpt>
      <trkpt lat="43.3197700" lon="-1.9374400">
        <ele>31.0</ele>
        <time>2020-07-30T10:13:20Z</time>
      </trkpt>
      <trkpt lat="43.3197500" lon="-1.9374980">
        <ele>31.4</ele>
        <time>2020-07-30T10:13:22Z</time>
      </trkpt>
      <trkpt lat="43.3197370" lon="-1.9375230">
        <ele>31.8</ele>
        <time>2020-07-30T10:13:27Z</time>
      </trkpt>
      <trkpt lat="43.3197300" lon="-1.9375480">
        <ele>31.8</ele>
        <time>2020-07-30T10:13:28Z</time>
      </trkpt>
      <trkpt lat="43.3197230" lon="-1.9375810">
        <ele>32.0</ele>
        <time>2020-07-30T10:13:29Z</time>
      </trkpt>
      <trkpt lat="43.3197100" lon="-1.9376410">
        <ele>32.0</ele>
        <time>2020-07-30T10:13:31Z</time>
      </trkpt>
      <trkpt lat="43.3196700" lon="-1.9378380">
        <ele>31.6</ele>
        <time>2020-07-30T10:13:35Z</time>
      </trkpt>
      <trkpt lat="43.3196430" lon="-1.9382150">
        <ele>32.0</ele>
        <time>2020-07-30T10:13:41Z</time>
      </trkpt>
      <trkpt lat="43.3196420" lon="-1.9382780">
        <ele>32.2</ele>
        <time>2020-07-30T10:13:42Z</time>
      </trkpt>
      <trkpt lat="43.3196530" lon="-1.9385880">
        <ele>32.8</ele>
        <time>2020-07-30T10:13:47Z</time>
      </trkpt>
      <trkpt lat="43.3196660" lon="-1.9387630">
        <ele>33.2</ele>
        <time>2020-07-30T10:13:50Z</time>
      </trkpt>
      <trkpt lat="43.3196700" lon="-1.9388180">
        <ele>33.4</ele>
        <time>2020-07-30T10:13:51Z</time>
      </trkpt>
      <trkpt lat="43.3196740" lon="-1.9390330">
        <ele>34.4</ele>
        <time>2020-07-30T10:13:55Z</time>
      </trkpt>
      <trkpt lat="43.3196580" lon="-1.9390740">
        <ele>34.4</ele>
        <time>2020-07-30T10:13:56Z</time>
      </trkpt>
      <trkpt lat="43.3195890" lon="-1.9391130">
        <ele>34.6</ele>
        <time>2020-07-30T10:13:58Z</time>
      </trkpt>
      <trkpt lat="43.3195480" lon="-1.9391250">
        <ele>34.8</ele>
        <time>2020-07-30T10:13:59Z</time>
      </trkpt>
      <trkpt lat="43.3195060" lon="-1.9391410">
        <ele>34.8</ele>
        <time>2020-07-30T10:14:00Z</time>
      </trkpt>
      <trkpt lat="43.3194290" lon="-1.9392080">
        <ele>35.2</ele>
        <time>2020-07-30T10:14:02Z</time>
      </trkpt>
      <trkpt lat="43.3193950" lon="-1.9392480">
        <ele>35.4</ele>
        <time>2020-07-30T10:14:03Z</time>
      </trkpt>
      <trkpt lat="43.3191900" lon="-1.9395050">
        <ele>36.2</ele>
        <time>2020-07-30T10:14:09Z</time>
      </trkpt>
      <trkpt lat="43.3191550" lon="-1.9395480">
        <ele>36.4</ele>
        <time>2020-07-30T10:14:10Z</time>
      </trkpt>
      <trkpt lat="43.3191200" lon="-1.9395920">
        <ele>36.6</ele>
        <time>2020-07-30T10:14:11Z</time>
      </trkpt>
      <trkpt lat="43.3189240" lon="-1.9398100">
        <ele>37.6</ele>
        <time>2020-07-30T10:14:17Z</time>
      </trkpt>
      <trkpt lat="43.3188920" lon="-1.9398470">
        <ele>38.0</ele>
        <time>2020-07-30T10:14:18Z</time>
      </trkpt>
      <trkpt lat="43.3188370" lon="-1.9399230">
        <ele>38.6</ele>
        <time>2020-07-30T10:14:20Z</time>
      </trkpt>
      <trkpt lat="43.3188160" lon="-1.9399690">
        <ele>38.8</ele>
        <time>2020-07-30T10:14:21Z</time>
      </trkpt>
      <trkpt lat="43.3188010" lon="-1.9400220">
        <ele>39.2</ele>
        <time>2020-07-30T10:14:22Z</time>
      </trkpt>
      <trkpt lat="43.3187890" lon="-1.9400780">
        <ele>39.4</ele>
        <time>2020-07-30T10:14:23Z</time>
      </trkpt>
      <trkpt lat="43.3187810" lon="-1.9401360">
        <ele>39.6</ele>
        <time>2020-07-30T10:14:24Z</time>
      </trkpt>
      <trkpt lat="43.3187720" lon="-1.9402550">
        <ele>40.0</ele>
        <time>2020-07-30T10:14:26Z</time>
      </trkpt>
      <trkpt lat="43.3187670" lon="-1.9404310">
        <ele>40.6</ele>
        <time>2020-07-30T10:14:29Z</time>
      </trkpt>
      <trkpt lat="43.3187630" lon="-1.9405490">
        <ele>41.0</ele>
        <time>2020-07-30T10:14:31Z</time>
      </trkpt>
      <trkpt lat="43.3187670" lon="-1.9406040">
        <ele>41.0</ele>
        <time>2020-07-30T10:14:32Z</time>
      </trkpt>
      <trkpt lat="43.3187710" lon="-1.9408390">
        <ele>41.4</ele>
        <time>2020-07-30T10:14:36Z</time>
      </trkpt>
      <trkpt lat="43.3187580" lon="-1.9410770">
        <ele>42.0</ele>
        <time>2020-07-30T10:14:40Z</time>
      </trkpt>
      <trkpt lat="43.3187450" lon="-1.9411360">
        <ele>42.2</ele>
        <time>2020-07-30T10:14:41Z</time>
      </trkpt>
      <trkpt lat="43.3187240" lon="-1.9411900">
        <ele>42.2</ele>
        <time>2020-07-30T10:14:42Z</time>
      </trkpt>
      <trkpt lat="43.3186890" lon="-1.9412350">
        <ele>42.2</ele>
        <time>2020-07-30T10:14:43Z</time>
      </trkpt>
      <trkpt lat="43.3186480" lon="-1.9412730">
        <ele>42.2</ele>
        <time>2020-07-30T10:14:44Z</time>
      </trkpt>
      <trkpt lat="43.3185070" lon="-1.9413420">
        <ele>42.2</ele>
        <time>2020-07-30T10:14:47Z</time>
      </trkpt>
      <trkpt lat="43.3182120" lon="-1.9414740">
        <ele>42.8</ele>
        <time>2020-07-30T10:14:53Z</time>
      </trkpt>
      <trkpt lat="43.3181660" lon="-1.9415090">
        <ele>43.0</ele>
        <time>2020-07-30T10:14:54Z</time>
      </trkpt>
      <trkpt lat="43.3181250" lon="-1.9415540">
        <ele>43.0</ele>
        <time>2020-07-30T10:14:55Z</time>
      </trkpt>
      <trkpt lat="43.3180930" lon="-1.9416100">
        <ele>43.2</ele>
        <time>2020-07-30T10:14:56Z</time>
      </trkpt>
      <trkpt lat="43.3180730" lon="-1.9416730">
        <ele>43.4</ele>
        <time>2020-07-30T10:14:57Z</time>
      </trkpt>
      <trkpt lat="43.3180530" lon="-1.9420220">
        <ele>43.8</ele>
        <time>2020-07-30T10:15:02Z</time>
      </trkpt>
      <trkpt lat="43.3180490" lon="-1.9422350">
        <ele>44.4</ele>
        <time>2020-07-30T10:15:05Z</time>
      </trkpt>
      <trkpt lat="43.3180420" lon="-1.9426690">
        <ele>45.2</ele>
        <time>2020-07-30T10:15:11Z</time>
      </trkpt>
      <trkpt lat="43.3180390" lon="-1.9428180">
        <ele>45.4</ele>
        <time>2020-07-30T10:15:13Z</time>
      </trkpt>
      <trkpt lat="43.3180240" lon="-1.9432530">
        <ele>46.0</ele>
        <time>2020-07-30T10:15:19Z</time>
      </trkpt>
      <trkpt lat="43.3180220" lon="-1.9433270">
        <ele>46.0</ele>
        <time>2020-07-30T10:15:20Z</time>
      </trkpt>
      <trkpt lat="43.3180200" lon="-1.9436190">
        <ele>46.4</ele>
        <time>2020-07-30T10:15:24Z</time>
      </trkpt>
      <trkpt lat="43.3180420" lon="-1.9439050">
        <ele>46.8</ele>
        <time>2020-07-30T10:15:28Z</time>
      </trkpt>
      <trkpt lat="43.3181280" lon="-1.9443100">
        <ele>47.4</ele>
        <time>2020-07-30T10:15:34Z</time>
      </trkpt>
      <trkpt lat="43.3181440" lon="-1.9443770">
        <ele>47.6</ele>
        <time>2020-07-30T10:15:35Z</time>
      </trkpt>
      <trkpt lat="43.3181900" lon="-1.9445770">
        <ele>48.0</ele>
        <time>2020-07-30T10:15:38Z</time>
      </trkpt>
      <trkpt lat="43.3181900" lon="-1.9445770">
        <ele>48.4</ele>
        <time>2020-07-30T10:15:44Z</time>
      </trkpt>
      <trkpt lat="43.3182340" lon="-1.9447840">
        <ele>48.6</ele>
        <time>2020-07-30T10:15:48Z</time>
      </trkpt>
      <trkpt lat="43.3182770" lon="-1.9449900">
        <ele>49.0</ele>
        <time>2020-07-30T10:15:54Z</time>
      </trkpt>
      <trkpt lat="43.3183210" lon="-1.9451970">
        <ele>49.6</ele>
        <time>2020-07-30T10:15:57Z</time>
      </trkpt>
      <trkpt lat="43.3183640" lon="-1.9454040">
        <ele>50.6</ele>
        <time>2020-07-30T10:15:59Z</time>
      </trkpt>
      <trkpt lat="43.3184080" lon="-1.9456110">
        <ele>50.8</ele>
        <time>2020-07-30T10:16:00Z</time>
      </trkpt>
      <trkpt lat="43.3184510" lon="-1.9458170">
        <ele>51.0</ele>
        <time>2020-07-30T10:16:03Z</time>
      </trkpt>
      <trkpt lat="43.3184950" lon="-1.9460240">
        <ele>50.8</ele>
        <time>2020-07-30T10:16:06Z</time>
      </trkpt>
      <trkpt lat="43.3185960" lon="-1.9465060">
        <ele>51.0</ele>
        <time>2020-07-30T10:16:07Z</time>
      </trkpt>
      <trkpt lat="43.3186270" lon="-1.9467120">
        <ele>51.0</ele>
        <time>2020-07-30T10:16:10Z</time>
      </trkpt>
      <trkpt lat="43.3186670" lon="-1.9468650">
        <ele>51.0</ele>
        <time>2020-07-30T10:16:12Z</time>
      </trkpt>
      <trkpt lat="43.3187180" lon="-1.9470030">
        <ele>50.8</ele>
        <time>2020-07-30T10:16:14Z</time>
      </trkpt>
      <trkpt lat="43.3187760" lon="-1.9471380">
        <ele>50.8</ele>
        <time>2020-07-30T10:16:16Z</time>
      </trkpt>
      <trkpt lat="43.3189410" lon="-1.9475370">
        <ele>50.8</ele>
        <time>2020-07-30T10:16:22Z</time>
      </trkpt>
      <trkpt lat="43.3189630" lon="-1.9476060">
        <ele>50.8</ele>
        <time>2020-07-30T10:16:23Z</time>
      </trkpt>
      <trkpt lat="43.3190370" lon="-1.9478130">
        <ele>50.8</ele>
        <time>2020-07-30T10:16:26Z</time>
      </trkpt>
      <trkpt lat="43.3191450" lon="-1.9481440">
        <ele>51.4</ele>
        <time>2020-07-30T10:16:31Z</time>
      </trkpt>
      <trkpt lat="43.3192830" lon="-1.9485080">
        <ele>51.2</ele>
        <time>2020-07-30T10:16:37Z</time>
      </trkpt>
      <trkpt lat="43.3194050" lon="-1.9488340">
        <ele>52.0</ele>
        <time>2020-07-30T10:16:42Z</time>
      </trkpt>
      <trkpt lat="43.3194430" lon="-1.9489680">
        <ele>52.0</ele>
        <time>2020-07-30T10:16:44Z</time>
      </trkpt>
      <trkpt lat="43.3195340" lon="-1.9492290">
        <ele>52.4</ele>
        <time>2020-07-30T10:16:48Z</time>
      </trkpt>
      <trkpt lat="43.3195850" lon="-1.9493490">
        <ele>52.6</ele>
        <time>2020-07-30T10:16:50Z</time>
      </trkpt>
      <trkpt lat="43.3196330" lon="-1.9494720">
        <ele>53.0</ele>
        <time>2020-07-30T10:16:52Z</time>
      </trkpt>
      <trkpt lat="43.3196800" lon="-1.9495990">
        <ele>53.2</ele>
        <time>2020-07-30T10:16:54Z</time>
      </trkpt>
      <trkpt lat="43.3197300" lon="-1.9497920">
        <ele>53.4</ele>
        <time>2020-07-30T10:16:57Z</time>
      </trkpt>
      <trkpt lat="43.3198580" lon="-1.9501730">
        <ele>54.0</ele>
        <time>2020-07-30T10:17:03Z</time>
      </trkpt>
      <trkpt lat="43.3198790" lon="-1.9502410">
        <ele>54.0</ele>
        <time>2020-07-30T10:17:04Z</time>
      </trkpt>
      <trkpt lat="43.3200060" lon="-1.9506290">
        <ele>54.2</ele>
        <time>2020-07-30T10:17:10Z</time>
      </trkpt>
      <trkpt lat="43.3200520" lon="-1.9507480">
        <ele>54.4</ele>
        <time>2020-07-30T10:17:12Z</time>
      </trkpt>
      <trkpt lat="43.3201350" lon="-1.9510490">
        <ele>55.0</ele>
        <time>2020-07-30T10:17:17Z</time>
      </trkpt>
      <trkpt lat="43.3201600" lon="-1.9511740">
        <ele>55.2</ele>
        <time>2020-07-30T10:17:19Z</time>
      </trkpt>
      <trkpt lat="43.3202090" lon="-1.9515450">
        <ele>55.0</ele>
        <time>2020-07-30T10:17:25Z</time>
      </trkpt>
      <trkpt lat="43.3202420" lon="-1.9516990">
        <ele>55.6</ele>
        <time>2020-07-30T10:17:29Z</time>
      </trkpt>
      <trkpt lat="43.3202550" lon="-1.9519430">
        <ele>55.6</ele>
        <time>2020-07-30T10:17:34Z</time>
      </trkpt>
      <trkpt lat="43.3202950" lon="-1.9523280">
        <ele>54.6</ele>
        <time>2020-07-30T10:17:40Z</time>
      </trkpt>
      <trkpt lat="43.3203020" lon="-1.9524020">
        <ele>54.4</ele>
        <time>2020-07-30T10:17:41Z</time>
      </trkpt>
      <trkpt lat="43.3203150" lon="-1.9525530">
        <ele>54.0</ele>
        <time>2020-07-30T10:17:43Z</time>
      </trkpt>
      <trkpt lat="43.3203240" lon="-1.9527100">
        <ele>54.0</ele>
        <time>2020-07-30T10:17:45Z</time>
      </trkpt>
      <trkpt lat="43.3203530" lon="-1.9530320">
        <ele>53.4</ele>
        <time>2020-07-30T10:17:49Z</time>
      </trkpt>
      <trkpt lat="43.3203750" lon="-1.9531780">
        <ele>52.8</ele>
        <time>2020-07-30T10:17:51Z</time>
      </trkpt>
      <trkpt lat="43.3204070" lon="-1.9534790">
        <ele>51.6</ele>
        <time>2020-07-30T10:17:55Z</time>
      </trkpt>
      <trkpt lat="43.3204250" lon="-1.9538850">
        <ele>50.4</ele>
        <time>2020-07-30T10:18:00Z</time>
      </trkpt>
      <trkpt lat="43.3204270" lon="-1.9540500">
        <ele>50.0</ele>
        <time>2020-07-30T10:18:02Z</time>
      </trkpt>
      <trkpt lat="43.3204110" lon="-1.9545800">
        <ele>49.8</ele>
        <time>2020-07-30T10:18:08Z</time>
      </trkpt>
      <trkpt lat="43.3204130" lon="-1.9546710">
        <ele>49.8</ele>
        <time>2020-07-30T10:18:09Z</time>
      </trkpt>
      <trkpt lat="43.3204170" lon="-1.9548560">
        <ele>49.8</ele>
        <time>2020-07-30T10:18:11Z</time>
      </trkpt>
      <trkpt lat="43.3204230" lon="-1.9550380">
        <ele>49.2</ele>
        <time>2020-07-30T10:18:13Z</time>
      </trkpt>
      <trkpt lat="43.3204310" lon="-1.9554650">
        <ele>48.4</ele>
        <time>2020-07-30T10:18:18Z</time>
      </trkpt>
      <trkpt lat="43.3204430" lon="-1.9557000">
        <ele>48.2</ele>
        <time>2020-07-30T10:18:21Z</time>
      </trkpt>
      <trkpt lat="43.3204460" lon="-1.9559530">
        <ele>47.6</ele>
        <time>2020-07-30T10:18:24Z</time>
      </trkpt>
      <trkpt lat="43.3204550" lon="-1.9561250">
        <ele>47.2</ele>
        <time>2020-07-30T10:18:26Z</time>
      </trkpt>
      <trkpt lat="43.3204540" lon="-1.9563800">
        <ele>46.2</ele>
        <time>2020-07-30T10:18:29Z</time>
      </trkpt>
      <trkpt lat="43.3204460" lon="-1.9564750">
        <ele>46.0</ele>
        <time>2020-07-30T10:18:30Z</time>
      </trkpt>
      <trkpt lat="43.3204590" lon="-1.9569320">
        <ele>45.0</ele>
        <time>2020-07-30T10:18:35Z</time>
      </trkpt>
      <trkpt lat="43.3204640" lon="-1.9574470">
        <ele>44.2</ele>
        <time>2020-07-30T10:18:41Z</time>
      </trkpt>
      <trkpt lat="43.3204740" lon="-1.9576290">
        <ele>44.0</ele>
        <time>2020-07-30T10:18:43Z</time>
      </trkpt>
      <trkpt lat="43.3204770" lon="-1.9580000">
        <ele>43.2</ele>
        <time>2020-07-30T10:18:47Z</time>
      </trkpt>
      <trkpt lat="43.3204790" lon="-1.9580890">
        <ele>43.0</ele>
        <time>2020-07-30T10:18:48Z</time>
      </trkpt>
      <trkpt lat="43.3204820" lon="-1.9585560">
        <ele>42.0</ele>
        <time>2020-07-30T10:18:53Z</time>
      </trkpt>
      <trkpt lat="43.3204810" lon="-1.9586490">
        <ele>41.6</ele>
        <time>2020-07-30T10:18:54Z</time>
      </trkpt>
      <trkpt lat="43.3204760" lon="-1.9589340">
        <ele>41.2</ele>
        <time>2020-07-30T10:18:57Z</time>
      </trkpt>
      <trkpt lat="43.3204800" lon="-1.9592040">
        <ele>40.6</ele>
        <time>2020-07-30T10:19:00Z</time>
      </trkpt>
      <trkpt lat="43.3204820" lon="-1.9592870">
        <ele>40.2</ele>
        <time>2020-07-30T10:19:01Z</time>
      </trkpt>
      <trkpt lat="43.3204920" lon="-1.9595430">
        <ele>39.8</ele>
        <time>2020-07-30T10:19:04Z</time>
      </trkpt>
      <trkpt lat="43.3204940" lon="-1.9597100">
        <ele>39.4</ele>
        <time>2020-07-30T10:19:06Z</time>
      </trkpt>
      <trkpt lat="43.3205000" lon="-1.9597760">
        <ele>39.4</ele>
        <time>2020-07-30T10:19:07Z</time>
      </trkpt>
      <trkpt lat="43.3205150" lon="-1.9598310">
        <ele>39.4</ele>
        <time>2020-07-30T10:19:08Z</time>
      </trkpt>
      <trkpt lat="43.3205590" lon="-1.9599310">
        <ele>39.2</ele>
        <time>2020-07-30T10:19:10Z</time>
      </trkpt>
      <trkpt lat="43.3205890" lon="-1.9599720">
        <ele>39.0</ele>
        <time>2020-07-30T10:19:11Z</time>
      </trkpt>
      <trkpt lat="43.3206680" lon="-1.9599950">
        <ele>39.0</ele>
        <time>2020-07-30T10:19:13Z</time>
      </trkpt>
      <trkpt lat="43.3207050" lon="-1.9599840">
        <ele>39.0</ele>
        <time>2020-07-30T10:19:14Z</time>
      </trkpt>
      <trkpt lat="43.3209030" lon="-1.9599130">
        <ele>40.0</ele>
        <time>2020-07-30T10:19:20Z</time>
      </trkpt>
      <trkpt lat="43.3209370" lon="-1.9599090">
        <ele>40.2</ele>
        <time>2020-07-30T10:19:21Z</time>
      </trkpt>
      <trkpt lat="43.3211530" lon="-1.9599300">
        <ele>40.0</ele>
        <time>2020-07-30T10:19:27Z</time>
      </trkpt>
      <trkpt lat="43.3211700" lon="-1.9600490">
        <ele>39.8</ele>
        <time>2020-07-30T10:19:29Z</time>
      </trkpt>
      <trkpt lat="43.3211850" lon="-1.9601850">
        <ele>39.4</ele>
        <time>2020-07-30T10:19:31Z</time>
      </trkpt>
      <trkpt lat="43.3211950" lon="-1.9602570">
        <ele>39.2</ele>
        <time>2020-07-30T10:19:32Z</time>
      </trkpt>
      <trkpt lat="43.3212080" lon="-1.9603370">
        <ele>38.8</ele>
        <time>2020-07-30T10:19:33Z</time>
      </trkpt>
      <trkpt lat="43.3212100" lon="-1.9604230">
        <ele>38.4</ele>
        <time>2020-07-30T10:19:34Z</time>
      </trkpt>
      <trkpt lat="43.3212080" lon="-1.9605800">
        <ele>37.8</ele>
        <time>2020-07-30T10:19:36Z</time>
      </trkpt>
      <trkpt lat="43.3211970" lon="-1.9607300">
        <ele>37.4</ele>
        <time>2020-07-30T10:19:39Z</time>
      </trkpt>
      <trkpt lat="43.3212290" lon="-1.9608320">
        <ele>37.2</ele>
        <time>2020-07-30T10:19:41Z</time>
      </trkpt>
      <trkpt lat="43.3212680" lon="-1.9608980">
        <ele>37.2</ele>
        <time>2020-07-30T10:19:43Z</time>
      </trkpt>
      <trkpt lat="43.3213080" lon="-1.9609380">
        <ele>37.2</ele>
        <time>2020-07-30T10:19:45Z</time>
      </trkpt>
      <trkpt lat="43.3213770" lon="-1.9609240">
        <ele>37.6</ele>
        <time>2020-07-30T10:19:48Z</time>
      </trkpt>
      <trkpt lat="43.3214340" lon="-1.9608500">
        <ele>37.8</ele>
        <time>2020-07-30T10:19:51Z</time>
      </trkpt>
      <trkpt lat="43.3214610" lon="-1.9608480">
        <ele>37.8</ele>
        <time>2020-07-30T10:19:52Z</time>
      </trkpt>
      <trkpt lat="43.3216150" lon="-1.9608600">
        <ele>38.0</ele>
        <time>2020-07-30T10:19:58Z</time>
      </trkpt>
      <trkpt lat="43.3216530" lon="-1.9608570">
        <ele>38.4</ele>
        <time>2020-07-30T10:20:00Z</time>
      </trkpt>
      <trkpt lat="43.3217150" lon="-1.9608540">
        <ele>38.6</ele>
        <time>2020-07-30T10:20:05Z</time>
      </trkpt>
      <trkpt lat="43.3218140" lon="-1.9608670">
        <ele>38.4</ele>
        <time>2020-07-30T10:20:10Z</time>
      </trkpt>
      <trkpt lat="43.3218330" lon="-1.9608900">
        <ele>38.4</ele>
        <time>2020-07-30T10:20:11Z</time>
      </trkpt>
      <trkpt lat="43.3218590" lon="-1.9610030">
        <ele>38.4</ele>
        <time>2020-07-30T10:20:14Z</time>
      </trkpt>
      <trkpt lat="43.3218610" lon="-1.9610490">
        <ele>38.4</ele>
        <time>2020-07-30T10:20:15Z</time>
      </trkpt>
      <trkpt lat="43.3218610" lon="-1.9612010">
        <ele>38.2</ele>
        <time>2020-07-30T10:20:18Z</time>
      </trkpt>
      <trkpt lat="43.3218580" lon="-1.9613160">
        <ele>37.8</ele>
        <time>2020-07-30T10:20:21Z</time>
      </trkpt>
      <trkpt lat="43.3218570" lon="-1.9613800">
        <ele>37.6</ele>
        <time>2020-07-30T10:20:26Z</time>
      </trkpt>
      <trkpt lat="43.3218540" lon="-1.9613880">
        <ele>37.2</ele>
        <time>2020-07-30T10:20:29Z</time>
      </trkpt>
      <trkpt lat="43.3218560" lon="-1.9613910">
        <ele>37.0</ele>
        <time>2020-07-30T10:20:35Z</time>
      </trkpt>
      <trkpt lat="43.3218570" lon="-1.9614170">
        <ele>37.0</ele>
        <time>2020-07-30T10:20:37Z</time>
      </trkpt>
      <trkpt lat="43.3218580" lon="-1.9614460">
        <ele>37.0</ele>
        <time>2020-07-30T10:20:38Z</time>
      </trkpt>
      <trkpt lat="43.3218870" lon="-1.9615360">
        <ele>36.8</ele>
        <time>2020-07-30T10:20:42Z</time>
      </trkpt>
      <trkpt lat="43.3219000" lon="-1.9615260">
        <ele>36.8</ele>
        <time>2020-07-30T10:20:48Z</time>
      </trkpt>
      <trkpt lat="43.3219000" lon="-1.9615260">
        <ele>36.8</ele>
        <time>2020-07-30T10:20:49Z</time>
      </trkpt>
      <trkpt lat="43.3219240" lon="-1.9615380">
        <ele>36.6</ele>
        <time>2020-07-30T10:20:54Z</time>
      </trkpt>
      <trkpt lat="43.3219790" lon="-1.9615620">
        <ele>36.2</ele>
        <time>2020-07-30T10:20:57Z</time>
      </trkpt>
      <trkpt lat="43.3220010" lon="-1.9615570">
        <ele>36.2</ele>
        <time>2020-07-30T10:20:58Z</time>
      </trkpt>
      <trkpt lat="43.3220560" lon="-1.9615160">
        <ele>36.6</ele>
        <time>2020-07-30T10:21:01Z</time>
      </trkpt>
      <trkpt lat="43.3221020" lon="-1.9615270">
        <ele>36.8</ele>
        <time>2020-07-30T10:21:03Z</time>
      </trkpt>
      <trkpt lat="43.3221440" lon="-1.9615660">
        <ele>36.8</ele>
        <time>2020-07-30T10:21:05Z</time>
      </trkpt>
      <trkpt lat="43.3221740" lon="-1.9615890">
        <ele>36.6</ele>
        <time>2020-07-30T10:21:07Z</time>
      </trkpt>
      <trkpt lat="43.3222300" lon="-1.9616760">
        <ele>36.2</ele>
        <time>2020-07-30T10:21:10Z</time>
      </trkpt>
      <trkpt lat="43.3222560" lon="-1.9617970">
        <ele>35.8</ele>
        <time>2020-07-30T10:21:12Z</time>
      </trkpt>
      <trkpt lat="43.3222720" lon="-1.9619360">
        <ele>35.2</ele>
        <time>2020-07-30T10:21:14Z</time>
      </trkpt>
      <trkpt lat="43.3222900" lon="-1.9620780">
        <ele>35.2</ele>
        <time>2020-07-30T10:21:16Z</time>
      </trkpt>
      <trkpt lat="43.3223260" lon="-1.9622790">
        <ele>35.6</ele>
        <time>2020-07-30T10:21:19Z</time>
      </trkpt>
      <trkpt lat="43.3223710" lon="-1.9624520">
        <ele>36.4</ele>
        <time>2020-07-30T10:21:22Z</time>
      </trkpt>
      <trkpt lat="43.3224440" lon="-1.9627030">
        <ele>37.4</ele>
        <time>2020-07-30T10:21:27Z</time>
      </trkpt>
      <trkpt lat="43.3224770" lon="-1.9628000">
        <ele>38.2</ele>
        <time>2020-07-30T10:21:29Z</time>
      </trkpt>
      <trkpt lat="43.3224980" lon="-1.9628460">
        <ele>38.6</ele>
        <time>2020-07-30T10:21:30Z</time>
      </trkpt>
      <trkpt lat="43.3225810" lon="-1.9630310">
        <ele>39.8</ele>
        <time>2020-07-30T10:21:34Z</time>
      </trkpt>
      <trkpt lat="43.3226290" lon="-1.9631270">
        <ele>40.2</ele>
        <time>2020-07-30T10:21:36Z</time>
      </trkpt>
      <trkpt lat="43.3227080" lon="-1.9632740">
        <ele>40.4</ele>
        <time>2020-07-30T10:21:39Z</time>
      </trkpt>
      <trkpt lat="43.3227940" lon="-1.9634370">
        <ele>40.8</ele>
        <time>2020-07-30T10:21:42Z</time>
      </trkpt>
      <trkpt lat="43.3228850" lon="-1.9636310">
        <ele>40.0</ele>
        <time>2020-07-30T10:21:45Z</time>
      </trkpt>
      <trkpt lat="43.3229170" lon="-1.9637010">
        <ele>39.6</ele>
        <time>2020-07-30T10:21:46Z</time>
      </trkpt>
      <trkpt lat="43.3229830" lon="-1.9638470">
        <ele>39.2</ele>
        <time>2020-07-30T10:21:48Z</time>
      </trkpt>
      <trkpt lat="43.3230670" lon="-1.9640880">
        <ele>38.8</ele>
        <time>2020-07-30T10:21:51Z</time>
      </trkpt>
      <trkpt lat="43.3230960" lon="-1.9641660">
        <ele>38.6</ele>
        <time>2020-07-30T10:21:52Z</time>
      </trkpt>
      <trkpt lat="43.3231530" lon="-1.9643090">
        <ele>38.8</ele>
        <time>2020-07-30T10:21:54Z</time>
      </trkpt>
      <trkpt lat="43.3232620" lon="-1.9645670">
        <ele>40.0</ele>
        <time>2020-07-30T10:21:58Z</time>
      </trkpt>
      <trkpt lat="43.3232970" lon="-1.9646570">
        <ele>40.4</ele>
        <time>2020-07-30T10:22:00Z</time>
      </trkpt>
      <trkpt lat="43.3232940" lon="-1.9646850">
        <ele>40.6</ele>
        <time>2020-07-30T10:22:01Z</time>
      </trkpt>
      <trkpt lat="43.3232920" lon="-1.9647570">
        <ele>40.6</ele>
        <time>2020-07-30T10:22:03Z</time>
      </trkpt>
      <trkpt lat="43.3233250" lon="-1.9648440">
        <ele>41.0</ele>
        <time>2020-07-30T10:22:05Z</time>
      </trkpt>
      <trkpt lat="43.3234430" lon="-1.9651570">
        <ele>41.4</ele>
        <time>2020-07-30T10:22:11Z</time>
      </trkpt>
      <trkpt lat="43.3234580" lon="-1.9652140">
        <ele>41.6</ele>
        <time>2020-07-30T10:22:12Z</time>
      </trkpt>
      <trkpt lat="43.3234890" lon="-1.9653340">
        <ele>41.8</ele>
        <time>2020-07-30T10:22:14Z</time>
      </trkpt>
      <trkpt lat="43.3235770" lon="-1.9655570">
        <ele>41.8</ele>
        <time>2020-07-30T10:22:18Z</time>
      </trkpt>
      <trkpt lat="43.3236960" lon="-1.9659070">
        <ele>41.2</ele>
        <time>2020-07-30T10:22:24Z</time>
      </trkpt>
      <trkpt lat="43.3237210" lon="-1.9659670">
        <ele>41.2</ele>
        <time>2020-07-30T10:22:25Z</time>
      </trkpt>
      <trkpt lat="43.3238240" lon="-1.9661900">
        <ele>40.6</ele>
        <time>2020-07-30T10:22:29Z</time>
      </trkpt>
      <trkpt lat="43.3238770" lon="-1.9663130">
        <ele>40.4</ele>
        <time>2020-07-30T10:22:31Z</time>
      </trkpt>
      <trkpt lat="43.3240010" lon="-1.9666060">
        <ele>39.4</ele>
        <time>2020-07-30T10:22:35Z</time>
      </trkpt>
      <trkpt lat="43.3240340" lon="-1.9666940">
        <ele>38.6</ele>
        <time>2020-07-30T10:22:36Z</time>
      </trkpt>
      <trkpt lat="43.3240590" lon="-1.9667910">
        <ele>37.8</ele>
        <time>2020-07-30T10:22:37Z</time>
      </trkpt>
      <trkpt lat="43.3241090" lon="-1.9669930">
        <ele>36.6</ele>
        <time>2020-07-30T10:22:39Z</time>
      </trkpt>
      <trkpt lat="43.3241340" lon="-1.9670910">
        <ele>36.2</ele>
        <time>2020-07-30T10:22:40Z</time>
      </trkpt>
      <trkpt lat="43.3241780" lon="-1.9672830">
        <ele>35.6</ele>
        <time>2020-07-30T10:22:42Z</time>
      </trkpt>
      <trkpt lat="43.3242530" lon="-1.9676370">
        <ele>34.6</ele>
        <time>2020-07-30T10:22:46Z</time>
      </trkpt>
      <trkpt lat="43.3242880" lon="-1.9677900">
        <ele>34.6</ele>
        <time>2020-07-30T10:22:48Z</time>
      </trkpt>
      <trkpt lat="43.3243340" lon="-1.9680010">
        <ele>34.8</ele>
        <time>2020-07-30T10:22:51Z</time>
      </trkpt>
      <trkpt lat="43.3243480" lon="-1.9680680">
        <ele>34.8</ele>
        <time>2020-07-30T10:22:52Z</time>
      </trkpt>
      <trkpt lat="43.3243570" lon="-1.9681320">
        <ele>34.8</ele>
        <time>2020-07-30T10:22:53Z</time>
      </trkpt>
      <trkpt lat="43.3243490" lon="-1.9683660">
        <ele>34.8</ele>
        <time>2020-07-30T10:22:57Z</time>
      </trkpt>
      <trkpt lat="43.3243800" lon="-1.9685770">
        <ele>34.8</ele>
        <time>2020-07-30T10:23:01Z</time>
      </trkpt>
      <trkpt lat="43.3244340" lon="-1.9687220">
        <ele>34.8</ele>
        <time>2020-07-30T10:23:04Z</time>
      </trkpt>
      <trkpt lat="43.3244940" lon="-1.9688810">
        <ele>34.8</ele>
        <time>2020-07-30T10:23:07Z</time>
      </trkpt>
      <trkpt lat="43.3245180" lon="-1.9689320">
        <ele>34.8</ele>
        <time>2020-07-30T10:23:08Z</time>
      </trkpt>
      <trkpt lat="43.3246180" lon="-1.9690600">
        <ele>34.4</ele>
        <time>2020-07-30T10:23:11Z</time>
      </trkpt>
      <trkpt lat="43.3246830" lon="-1.9691680">
        <ele>34.8</ele>
        <time>2020-07-30T10:23:15Z</time>
      </trkpt>
      <trkpt lat="43.3246460" lon="-1.9692210">
        <ele>34.8</ele>
        <time>2020-07-30T10:23:21Z</time>
      </trkpt>
      <trkpt lat="43.3246340" lon="-1.9692400">
        <ele>34.8</ele>
        <time>2020-07-30T10:23:22Z</time>
      </trkpt>
      <trkpt lat="43.3246330" lon="-1.9692430">
        <ele>34.8</ele>
        <time>2020-07-30T10:23:24Z</time>
      </trkpt>
      <trkpt lat="43.3246270" lon="-1.9692520">
        <ele>34.8</ele>
        <time>2020-07-30T10:23:30Z</time>
      </trkpt>
      <trkpt lat="43.3246220" lon="-1.9692680">
        <ele>34.6</ele>
        <time>2020-07-30T10:23:36Z</time>
      </trkpt>
      <trkpt lat="43.3246140" lon="-1.9692810">
        <ele>34.6</ele>
        <time>2020-07-30T10:23:38Z</time>
      </trkpt>
      <trkpt lat="43.3246120" lon="-1.9692860">
        <ele>34.6</ele>
        <time>2020-07-30T10:23:39Z</time>
      </trkpt>
      <trkpt lat="43.3246100" lon="-1.9693270">
        <ele>34.8</ele>
        <time>2020-07-30T10:23:44Z</time>
      </trkpt>
      <trkpt lat="43.3246030" lon="-1.9693790">
        <ele>34.6</ele>
        <time>2020-07-30T10:23:49Z</time>
      </trkpt>
      <trkpt lat="43.3245980" lon="-1.9693900">
        <ele>34.6</ele>
        <time>2020-07-30T10:23:50Z</time>
      </trkpt>
      <trkpt lat="43.3246090" lon="-1.9694180">
        <ele>34.6</ele>
        <time>2020-07-30T10:23:52Z</time>
      </trkpt>
      <trkpt lat="43.3246310" lon="-1.9694410">
        <ele>34.4</ele>
        <time>2020-07-30T10:23:53Z</time>
      </trkpt>
      <trkpt lat="43.3246570" lon="-1.9694720">
        <ele>34.2</ele>
        <time>2020-07-30T10:23:54Z</time>
      </trkpt>
      <trkpt lat="43.3248420" lon="-1.9697050">
        <ele>33.4</ele>
        <time>2020-07-30T10:24:00Z</time>
      </trkpt>
      <trkpt lat="43.3248780" lon="-1.9697440">
        <ele>33.4</ele>
        <time>2020-07-30T10:24:01Z</time>
      </trkpt>
      <trkpt lat="43.3250950" lon="-1.9700180">
        <ele>33.2</ele>
        <time>2020-07-30T10:24:07Z</time>
      </trkpt>
      <trkpt lat="43.3251340" lon="-1.9700660">
        <ele>33.4</ele>
        <time>2020-07-30T10:24:08Z</time>
      </trkpt>
      <trkpt lat="43.3253710" lon="-1.9703590">
        <ele>32.8</ele>
        <time>2020-07-30T10:24:14Z</time>
      </trkpt>
      <trkpt lat="43.3254520" lon="-1.9704500">
        <ele>32.4</ele>
        <time>2020-07-30T10:24:16Z</time>
      </trkpt>
      <trkpt lat="43.3256540" lon="-1.9706920">
        <ele>32.0</ele>
        <time>2020-07-30T10:24:21Z</time>
      </trkpt>
      <trkpt lat="43.3257690" lon="-1.9708510">
        <ele>32.2</ele>
        <time>2020-07-30T10:24:24Z</time>
      </trkpt>
      <trkpt lat="43.3259100" lon="-1.9710560">
        <ele>32.0</ele>
        <time>2020-07-30T10:24:28Z</time>
      </trkpt>
      <trkpt lat="43.3259470" lon="-1.9711070">
        <ele>32.0</ele>
        <time>2020-07-30T10:24:29Z</time>
      </trkpt>
      <trkpt lat="43.3260290" lon="-1.9712090">
        <ele>32.0</ele>
        <time>2020-07-30T10:24:31Z</time>
      </trkpt>
      <trkpt lat="43.3260700" lon="-1.9712620">
        <ele>31.8</ele>
        <time>2020-07-30T10:24:32Z</time>
      </trkpt>
      <trkpt lat="43.3261090" lon="-1.9713110">
        <ele>31.6</ele>
        <time>2020-07-30T10:24:33Z</time>
      </trkpt>
      <trkpt lat="43.3262700" lon="-1.9715330">
        <ele>31.4</ele>
        <time>2020-07-30T10:24:38Z</time>
      </trkpt>
      <trkpt lat="43.3263530" lon="-1.9716800">
        <ele>31.2</ele>
        <time>2020-07-30T10:24:41Z</time>
      </trkpt>
      <trkpt lat="43.3264120" lon="-1.9718660">
        <ele>31.0</ele>
        <time>2020-07-30T10:24:44Z</time>
      </trkpt>
      <trkpt lat="43.3264220" lon="-1.9719990">
        <ele>30.8</ele>
        <time>2020-07-30T10:24:46Z</time>
      </trkpt>
      <trkpt lat="43.3264210" lon="-1.9720620">
        <ele>30.6</ele>
        <time>2020-07-30T10:24:47Z</time>
      </trkpt>
      <trkpt lat="43.3264130" lon="-1.9721230">
        <ele>30.6</ele>
        <time>2020-07-30T10:24:48Z</time>
      </trkpt>
      <trkpt lat="43.3263770" lon="-1.9722500">
        <ele>30.2</ele>
        <time>2020-07-30T10:24:50Z</time>
      </trkpt>
      <trkpt lat="43.3263370" lon="-1.9723610">
        <ele>30.0</ele>
        <time>2020-07-30T10:24:52Z</time>
      </trkpt>
      <trkpt lat="43.3263160" lon="-1.9724080">
        <ele>30.0</ele>
        <time>2020-07-30T10:24:53Z</time>
      </trkpt>
      <trkpt lat="43.3262330" lon="-1.9726060">
        <ele>29.8</ele>
        <time>2020-07-30T10:24:59Z</time>
      </trkpt>
      <trkpt lat="43.3261920" lon="-1.9726490">
        <ele>30.0</ele>
        <time>2020-07-30T10:25:05Z</time>
      </trkpt>
      <trkpt lat="43.3261900" lon="-1.9726190">
        <ele>30.4</ele>
        <time>2020-07-30T10:25:10Z</time>
      </trkpt>
      <trkpt lat="43.3261850" lon="-1.9726140">
        <ele>30.4</ele>
        <time>2020-07-30T10:25:16Z</time>
      </trkpt>
      <trkpt lat="43.3261870" lon="-1.9726180">
        <ele>30.4</ele>
        <time>2020-07-30T10:25:17Z</time>
      </trkpt>
      <trkpt lat="43.3261920" lon="-1.9726320">
        <ele>30.2</ele>
        <time>2020-07-30T10:25:18Z</time>
      </trkpt>
      <trkpt lat="43.3262070" lon="-1.9726440">
        <ele>30.2</ele>
        <time>2020-07-30T10:25:19Z</time>
      </trkpt>
      <trkpt lat="43.3262540" lon="-1.9727150">
        <ele>30.2</ele>
        <time>2020-07-30T10:25:23Z</time>
      </trkpt>
      <trkpt lat="43.3262120" lon="-1.9728800">
        <ele>30.2</ele>
        <time>2020-07-30T10:25:27Z</time>
      </trkpt>
      <trkpt lat="43.3261550" lon="-1.9730390">
        <ele>30.0</ele>
        <time>2020-07-30T10:25:30Z</time>
      </trkpt>
      <trkpt lat="43.3261100" lon="-1.9732080">
        <ele>29.8</ele>
        <time>2020-07-30T10:25:33Z</time>
      </trkpt>
      <trkpt lat="43.3260740" lon="-1.9733180">
        <ele>29.6</ele>
        <time>2020-07-30T10:25:35Z</time>
      </trkpt>
      <trkpt lat="43.3260400" lon="-1.9734300">
        <ele>29.6</ele>
        <time>2020-07-30T10:25:37Z</time>
      </trkpt>
      <trkpt lat="43.3259570" lon="-1.9736650">
        <ele>29.6</ele>
        <time>2020-07-30T10:25:41Z</time>
      </trkpt>
      <trkpt lat="43.3259110" lon="-1.9737970">
        <ele>29.2</ele>
        <time>2020-07-30T10:25:43Z</time>
      </trkpt>
      <trkpt lat="43.3258700" lon="-1.9739370">
        <ele>29.0</ele>
        <time>2020-07-30T10:25:45Z</time>
      </trkpt>
      <trkpt lat="43.3258350" lon="-1.9740740">
        <ele>28.8</ele>
        <time>2020-07-30T10:25:47Z</time>
      </trkpt>
      <trkpt lat="43.3258110" lon="-1.9741390">
        <ele>28.8</ele>
        <time>2020-07-30T10:25:48Z</time>
      </trkpt>
      <trkpt lat="43.3257870" lon="-1.9742020">
        <ele>28.8</ele>
        <time>2020-07-30T10:25:49Z</time>
      </trkpt>
      <trkpt lat="43.3257380" lon="-1.9743230">
        <ele>28.8</ele>
        <time>2020-07-30T10:25:51Z</time>
      </trkpt>
      <trkpt lat="43.3256670" lon="-1.9744840">
        <ele>28.8</ele>
        <time>2020-07-30T10:25:54Z</time>
      </trkpt>
      <trkpt lat="43.3255970" lon="-1.9746690">
        <ele>29.0</ele>
        <time>2020-07-30T10:25:58Z</time>
      </trkpt>
      <trkpt lat="43.3255240" lon="-1.9748510">
        <ele>29.0</ele>
        <time>2020-07-30T10:26:02Z</time>
      </trkpt>
      <trkpt lat="43.3254790" lon="-1.9749570">
        <ele>29.0</ele>
        <time>2020-07-30T10:26:04Z</time>
      </trkpt>
      <trkpt lat="43.3254350" lon="-1.9750620">
        <ele>29.0</ele>
        <time>2020-07-30T10:26:06Z</time>
      </trkpt>
      <trkpt lat="43.3253980" lon="-1.9751670">
        <ele>28.8</ele>
        <time>2020-07-30T10:26:08Z</time>
      </trkpt>
      <trkpt lat="43.3253750" lon="-1.9752180">
        <ele>29.0</ele>
        <time>2020-07-30T10:26:09Z</time>
      </trkpt>
      <trkpt lat="43.3252920" lon="-1.9754330">
        <ele>28.6</ele>
        <time>2020-07-30T10:26:12Z</time>
      </trkpt>
      <trkpt lat="43.3252400" lon="-1.9755870">
        <ele>28.8</ele>
        <time>2020-07-30T10:26:14Z</time>
      </trkpt>
      <trkpt lat="43.3250970" lon="-1.9760130">
        <ele>28.4</ele>
        <time>2020-07-30T10:26:20Z</time>
      </trkpt>
      <trkpt lat="43.3250110" lon="-1.9763040">
        <ele>28.4</ele>
        <time>2020-07-30T10:26:26Z</time>
      </trkpt>
      <trkpt lat="43.3249610" lon="-1.9764730">
        <ele>28.4</ele>
        <time>2020-07-30T10:26:30Z</time>
      </trkpt>
      <trkpt lat="43.3249180" lon="-1.9765640">
        <ele>28.6</ele>
        <time>2020-07-30T10:26:33Z</time>
      </trkpt>
      <trkpt lat="43.3248510" lon="-1.9766760">
        <ele>29.0</ele>
        <time>2020-07-30T10:26:37Z</time>
      </trkpt>
      <trkpt lat="43.3248430" lon="-1.9767150">
        <ele>29.0</ele>
        <time>2020-07-30T10:26:38Z</time>
      </trkpt>
      <trkpt lat="43.3247660" lon="-1.9769790">
        <ele>29.0</ele>
        <time>2020-07-30T10:26:44Z</time>
      </trkpt>
      <trkpt lat="43.3247540" lon="-1.9770210">
        <ele>29.0</ele>
        <time>2020-07-30T10:26:45Z</time>
      </trkpt>
      <trkpt lat="43.3246570" lon="-1.9772580">
        <ele>29.0</ele>
        <time>2020-07-30T10:26:51Z</time>
      </trkpt>
      <trkpt lat="43.3245840" lon="-1.9773600">
        <ele>28.8</ele>
        <time>2020-07-30T10:26:54Z</time>
      </trkpt>
      <trkpt lat="43.3245500" lon="-1.9774440">
        <ele>28.8</ele>
        <time>2020-07-30T10:26:56Z</time>
      </trkpt>
      <trkpt lat="43.3244600" lon="-1.9776860">
        <ele>28.6</ele>
        <time>2020-07-30T10:27:02Z</time>
      </trkpt>
      <trkpt lat="43.3244160" lon="-1.9777770">
        <ele>28.4</ele>
        <time>2020-07-30T10:27:04Z</time>
      </trkpt>
      <trkpt lat="43.3243550" lon="-1.9779290">
        <ele>28.2</ele>
        <time>2020-07-30T10:27:07Z</time>
      </trkpt>
      <trkpt lat="43.3242890" lon="-1.9781080">
        <ele>28.6</ele>
        <time>2020-07-30T10:27:12Z</time>
      </trkpt>
      <trkpt lat="43.3242750" lon="-1.9781230">
        <ele>29.0</ele>
        <time>2020-07-30T10:27:16Z</time>
      </trkpt>
      <trkpt lat="43.3242750" lon="-1.9781230">
        <ele>29.0</ele>
        <time>2020-07-30T10:27:17Z</time>
      </trkpt>
      <trkpt lat="43.3242740" lon="-1.9781240">
        <ele>29.0</ele>
        <time>2020-07-30T10:27:19Z</time>
      </trkpt>
      <trkpt lat="43.3242630" lon="-1.9781140">
        <ele>28.8</ele>
        <time>2020-07-30T10:27:25Z</time>
      </trkpt>
      <trkpt lat="43.3242540" lon="-1.9781100">
        <ele>28.8</ele>
        <time>2020-07-30T10:27:31Z</time>
      </trkpt>
      <trkpt lat="43.3242370" lon="-1.9781420">
        <ele>28.8</ele>
        <time>2020-07-30T10:27:36Z</time>
      </trkpt>
      <trkpt lat="43.3242300" lon="-1.9781610">
        <ele>28.6</ele>
        <time>2020-07-30T10:27:37Z</time>
      </trkpt>
      <trkpt lat="43.3242130" lon="-1.9782060">
        <ele>28.4</ele>
        <time>2020-07-30T10:27:39Z</time>
      </trkpt>
      <trkpt lat="43.3241560" lon="-1.9782620">
        <ele>28.4</ele>
        <time>2020-07-30T10:27:42Z</time>
      </trkpt>
      <trkpt lat="43.3241330" lon="-1.9782820">
        <ele>28.4</ele>
        <time>2020-07-30T10:27:43Z</time>
      </trkpt>
      <trkpt lat="43.3240520" lon="-1.9784640">
        <ele>28.4</ele>
        <time>2020-07-30T10:27:47Z</time>
      </trkpt>
      <trkpt lat="43.3240030" lon="-1.9785730">
        <ele>28.4</ele>
        <time>2020-07-30T10:27:49Z</time>
      </trkpt>
      <trkpt lat="43.3239770" lon="-1.9786260">
        <ele>28.4</ele>
        <time>2020-07-30T10:27:50Z</time>
      </trkpt>
      <trkpt lat="43.3238800" lon="-1.9788370">
        <ele>28.6</ele>
        <time>2020-07-30T10:27:54Z</time>
      </trkpt>
      <trkpt lat="43.3238290" lon="-1.9789570">
        <ele>28.8</ele>
        <time>2020-07-30T10:27:57Z</time>
      </trkpt>
      <trkpt lat="43.3238020" lon="-1.9790140">
        <ele>28.8</ele>
        <time>2020-07-30T10:27:59Z</time>
      </trkpt>
      <trkpt lat="43.3237740" lon="-1.9790560">
        <ele>29.0</ele>
        <time>2020-07-30T10:28:04Z</time>
      </trkpt>
      <trkpt lat="43.3237730" lon="-1.9790450">
        <ele>29.2</ele>
        <time>2020-07-30T10:28:10Z</time>
      </trkpt>
      <trkpt lat="43.3237720" lon="-1.9790410">
        <ele>29.0</ele>
        <time>2020-07-30T10:28:12Z</time>
      </trkpt>
      <trkpt lat="43.3237730" lon="-1.9790380">
        <ele>28.8</ele>
        <time>2020-07-30T10:28:17Z</time>
      </trkpt>
      <trkpt lat="43.3237730" lon="-1.9790380">
        <ele>28.8</ele>
        <time>2020-07-30T10:28:23Z</time>
      </trkpt>
      <trkpt lat="43.3237690" lon="-1.9790430">
        <ele>28.8</ele>
        <time>2020-07-30T10:28:26Z</time>
      </trkpt>
      <trkpt lat="43.3237630" lon="-1.9790470">
        <ele>28.8</ele>
        <time>2020-07-30T10:28:30Z</time>
      </trkpt>
      <trkpt lat="43.3237570" lon="-1.9790620">
        <ele>28.8</ele>
        <time>2020-07-30T10:28:34Z</time>
      </trkpt>
      <trkpt lat="43.3237360" lon="-1.9791150">
        <ele>28.8</ele>
        <time>2020-07-30T10:28:36Z</time>
      </trkpt>
      <trkpt lat="43.3237300" lon="-1.9792060">
        <ele>28.8</ele>
        <time>2020-07-30T10:28:38Z</time>
      </trkpt>
      <trkpt lat="43.3237280" lon="-1.9793210">
        <ele>28.8</ele>
        <time>2020-07-30T10:28:40Z</time>
      </trkpt>
      <trkpt lat="43.3236730" lon="-1.9795880">
        <ele>29.0</ele>
        <time>2020-07-30T10:28:44Z</time>
      </trkpt>
      <trkpt lat="43.3236300" lon="-1.9797280">
        <ele>29.0</ele>
        <time>2020-07-30T10:28:46Z</time>
      </trkpt>
      <trkpt lat="43.3235350" lon="-1.9800080">
        <ele>28.8</ele>
        <time>2020-07-30T10:28:50Z</time>
      </trkpt>
      <trkpt lat="43.3234440" lon="-1.9802740">
        <ele>28.8</ele>
        <time>2020-07-30T10:28:54Z</time>
      </trkpt>
      <trkpt lat="43.3234030" lon="-1.9803950">
        <ele>29.0</ele>
        <time>2020-07-30T10:28:56Z</time>
      </trkpt>
      <trkpt lat="43.3233560" lon="-1.9805350">
        <ele>29.2</ele>
        <time>2020-07-30T10:28:59Z</time>
      </trkpt>
      <trkpt lat="43.3233390" lon="-1.9805910">
        <ele>29.2</ele>
        <time>2020-07-30T10:29:01Z</time>
      </trkpt>
      <trkpt lat="43.3233350" lon="-1.9806110">
        <ele>29.4</ele>
        <time>2020-07-30T10:29:03Z</time>
      </trkpt>
      <trkpt lat="43.3233360" lon="-1.9806100">
        <ele>29.4</ele>
        <time>2020-07-30T10:29:05Z</time>
      </trkpt>
      <trkpt lat="43.3233390" lon="-1.9806070">
        <ele>29.4</ele>
        <time>2020-07-30T10:29:07Z</time>
      </trkpt>
      <trkpt lat="43.3233470" lon="-1.9806000">
        <ele>29.4</ele>
        <time>2020-07-30T10:29:13Z</time>
      </trkpt>
      <trkpt lat="43.3233480" lon="-1.9806000">
        <ele>29.2</ele>
        <time>2020-07-30T10:29:17Z</time>
      </trkpt>
      <trkpt lat="43.3233500" lon="-1.9805980">
        <ele>29.2</ele>
        <time>2020-07-30T10:29:23Z</time>
      </trkpt>
      <trkpt lat="43.3233540" lon="-1.9805930">
        <ele>29.0</ele>
        <time>2020-07-30T10:29:29Z</time>
      </trkpt>
      <trkpt lat="43.3233550" lon="-1.9805930">
        <ele>29.0</ele>
        <time>2020-07-30T10:29:32Z</time>
      </trkpt>
      <trkpt lat="43.3233510" lon="-1.9806030">
        <ele>29.0</ele>
        <time>2020-07-30T10:29:36Z</time>
      </trkpt>
      <trkpt lat="43.3233240" lon="-1.9806760">
        <ele>28.8</ele>
        <time>2020-07-30T10:29:39Z</time>
      </trkpt>
      <trkpt lat="43.3232570" lon="-1.9808590">
        <ele>29.2</ele>
        <time>2020-07-30T10:29:44Z</time>
      </trkpt>
      <trkpt lat="43.3232420" lon="-1.9809060">
        <ele>29.2</ele>
        <time>2020-07-30T10:29:45Z</time>
      </trkpt>
      <trkpt lat="43.3231650" lon="-1.9812040">
        <ele>28.4</ele>
        <time>2020-07-30T10:29:50Z</time>
      </trkpt>
      <trkpt lat="43.3231260" lon="-1.9813340">
        <ele>28.2</ele>
        <time>2020-07-30T10:29:52Z</time>
      </trkpt>
      <trkpt lat="43.3231070" lon="-1.9814000">
        <ele>28.2</ele>
        <time>2020-07-30T10:29:53Z</time>
      </trkpt>
      <trkpt lat="43.3230870" lon="-1.9814700">
        <ele>28.0</ele>
        <time>2020-07-30T10:29:54Z</time>
      </trkpt>
      <trkpt lat="43.3230220" lon="-1.9818210">
        <ele>27.6</ele>
        <time>2020-07-30T10:29:58Z</time>
      </trkpt>
      <trkpt lat="43.3230030" lon="-1.9818900">
        <ele>27.6</ele>
        <time>2020-07-30T10:29:59Z</time>
      </trkpt>
      <trkpt lat="43.3229870" lon="-1.9819490">
        <ele>27.6</ele>
        <time>2020-07-30T10:30:00Z</time>
      </trkpt>
      <trkpt lat="43.3229580" lon="-1.9820320">
        <ele>27.8</ele>
        <time>2020-07-30T10:30:02Z</time>
      </trkpt>
      <trkpt lat="43.3229050" lon="-1.9821940">
        <ele>27.8</ele>
        <time>2020-07-30T10:30:07Z</time>
      </trkpt>
      <trkpt lat="43.3228420" lon="-1.9823700">
        <ele>27.8</ele>
        <time>2020-07-30T10:30:11Z</time>
      </trkpt>
      <trkpt lat="43.3227920" lon="-1.9825180">
        <ele>27.6</ele>
        <time>2020-07-30T10:30:14Z</time>
      </trkpt>
      <trkpt lat="43.3227480" lon="-1.9827240">
        <ele>27.6</ele>
        <time>2020-07-30T10:30:19Z</time>
      </trkpt>
      <trkpt lat="43.3227410" lon="-1.9827590">
        <ele>27.6</ele>
        <time>2020-07-30T10:30:20Z</time>
      </trkpt>
      <trkpt lat="43.3226820" lon="-1.9828040">
        <ele>27.6</ele>
        <time>2020-07-30T10:30:23Z</time>
      </trkpt>
      <trkpt lat="43.3226220" lon="-1.9828060">
        <ele>27.6</ele>
        <time>2020-07-30T10:30:28Z</time>
      </trkpt>
      <trkpt lat="43.3226140" lon="-1.9828020">
        <ele>27.8</ele>
        <time>2020-07-30T10:30:34Z</time>
      </trkpt>
      <trkpt lat="43.3225830" lon="-1.9827930">
        <ele>27.6</ele>
        <time>2020-07-30T10:30:38Z</time>
      </trkpt>
      <trkpt lat="43.3225250" lon="-1.9827390">
        <ele>27.8</ele>
        <time>2020-07-30T10:30:43Z</time>
      </trkpt>
      <trkpt lat="43.3225100" lon="-1.9827250">
        <ele>27.8</ele>
        <time>2020-07-30T10:30:45Z</time>
      </trkpt>
      <trkpt lat="43.3225100" lon="-1.9827230">
        <ele>27.8</ele>
        <time>2020-07-30T10:30:46Z</time>
      </trkpt>
      <trkpt lat="43.3224950" lon="-1.9827360">
        <ele>27.4</ele>
        <time>2020-07-30T10:30:50Z</time>
      </trkpt>
      <trkpt lat="43.3224620" lon="-1.9827980">
        <ele>27.4</ele>
        <time>2020-07-30T10:30:53Z</time>
      </trkpt>
      <trkpt lat="43.3223770" lon="-1.9829930">
        <ele>27.4</ele>
        <time>2020-07-30T10:30:58Z</time>
      </trkpt>
      <trkpt lat="43.3223560" lon="-1.9830370">
        <ele>27.4</ele>
        <time>2020-07-30T10:30:59Z</time>
      </trkpt>
      <trkpt lat="43.3223370" lon="-1.9830810">
        <ele>27.4</ele>
        <time>2020-07-30T10:31:00Z</time>
      </trkpt>
      <trkpt lat="43.3223170" lon="-1.9831220">
        <ele>27.4</ele>
        <time>2020-07-30T10:31:01Z</time>
      </trkpt>
      <trkpt lat="43.3222690" lon="-1.9831960">
        <ele>27.4</ele>
        <time>2020-07-30T10:31:03Z</time>
      </trkpt>
      <trkpt lat="43.3222300" lon="-1.9832600">
        <ele>27.4</ele>
        <time>2020-07-30T10:31:05Z</time>
      </trkpt>
      <trkpt lat="43.3222430" lon="-1.9833930">
        <ele>27.6</ele>
        <time>2020-07-30T10:31:10Z</time>
      </trkpt>
      <trkpt lat="43.3222290" lon="-1.9834410">
        <ele>27.6</ele>
        <time>2020-07-30T10:31:13Z</time>
      </trkpt>
      <trkpt lat="43.3222200" lon="-1.9834870">
        <ele>27.8</ele>
        <time>2020-07-30T10:31:15Z</time>
      </trkpt>
      <trkpt lat="43.3221930" lon="-1.9835650">
        <ele>27.6</ele>
        <time>2020-07-30T10:31:17Z</time>
      </trkpt>
      <trkpt lat="43.3220860" lon="-1.9837770">
        <ele>27.2</ele>
        <time>2020-07-30T10:31:21Z</time>
      </trkpt>
      <trkpt lat="43.3220540" lon="-1.9838290">
        <ele>27.2</ele>
        <time>2020-07-30T10:31:22Z</time>
      </trkpt>
      <trkpt lat="43.3219100" lon="-1.9842050">
        <ele>27.4</ele>
        <time>2020-07-30T10:31:28Z</time>
      </trkpt>
      <trkpt lat="43.3217840" lon="-1.9845920">
        <ele>28.0</ele>
        <time>2020-07-30T10:31:34Z</time>
      </trkpt>
      <trkpt lat="43.3217020" lon="-1.9847590">
        <ele>28.2</ele>
        <time>2020-07-30T10:31:37Z</time>
      </trkpt>
      <trkpt lat="43.3216780" lon="-1.9848020">
        <ele>28.2</ele>
        <time>2020-07-30T10:31:38Z</time>
      </trkpt>
      <trkpt lat="43.3216580" lon="-1.9848380">
        <ele>28.2</ele>
        <time>2020-07-30T10:31:39Z</time>
      </trkpt>
      <trkpt lat="43.3216290" lon="-1.9849090">
        <ele>28.4</ele>
        <time>2020-07-30T10:31:43Z</time>
      </trkpt>
      <trkpt lat="43.3216300" lon="-1.9848990">
        <ele>28.4</ele>
        <time>2020-07-30T10:31:49Z</time>
      </trkpt>
      <trkpt lat="43.3216320" lon="-1.9848890">
        <ele>28.4</ele>
        <time>2020-07-30T10:31:50Z</time>
      </trkpt>
      <trkpt lat="43.3216170" lon="-1.9848700">
        <ele>28.4</ele>
        <time>2020-07-30T10:31:56Z</time>
      </trkpt>
      <trkpt lat="43.3216160" lon="-1.9848760">
        <ele>28.6</ele>
        <time>2020-07-30T10:32:00Z</time>
      </trkpt>
      <trkpt lat="43.3216160" lon="-1.9848770">
        <ele>28.8</ele>
        <time>2020-07-30T10:32:02Z</time>
      </trkpt>
      <trkpt lat="43.3216130" lon="-1.9848830">
        <ele>28.6</ele>
        <time>2020-07-30T10:32:05Z</time>
      </trkpt>
      <trkpt lat="43.3216130" lon="-1.9848850">
        <ele>28.8</ele>
        <time>2020-07-30T10:32:11Z</time>
      </trkpt>
      <trkpt lat="43.3216100" lon="-1.9848820">
        <ele>28.6</ele>
        <time>2020-07-30T10:32:15Z</time>
      </trkpt>
      <trkpt lat="43.3215970" lon="-1.9848830">
        <ele>28.2</ele>
        <time>2020-07-30T10:32:20Z</time>
      </trkpt>
      <trkpt lat="43.3215680" lon="-1.9849010">
        <ele>28.2</ele>
        <time>2020-07-30T10:32:23Z</time>
      </trkpt>
      <trkpt lat="43.3214810" lon="-1.9848980">
        <ele>28.2</ele>
        <time>2020-07-30T10:32:26Z</time>
      </trkpt>
      <trkpt lat="43.3213980" lon="-1.9848730">
        <ele>28.2</ele>
        <time>2020-07-30T10:32:28Z</time>
      </trkpt>
      <trkpt lat="43.3213210" lon="-1.9849270">
        <ele>28.2</ele>
        <time>2020-07-30T10:32:30Z</time>
      </trkpt>
      <trkpt lat="43.3212450" lon="-1.9851550">
        <ele>28.4</ele>
        <time>2020-07-30T10:32:34Z</time>
      </trkpt>
      <trkpt lat="43.3211340" lon="-1.9854710">
        <ele>28.6</ele>
        <time>2020-07-30T10:32:40Z</time>
      </trkpt>
      <trkpt lat="43.3211150" lon="-1.9855210">
        <ele>28.6</ele>
        <time>2020-07-30T10:32:41Z</time>
      </trkpt>
      <trkpt lat="43.3210170" lon="-1.9858040">
        <ele>29.0</ele>
        <time>2020-07-30T10:32:47Z</time>
      </trkpt>
      <trkpt lat="43.3210060" lon="-1.9858450">
        <ele>29.0</ele>
        <time>2020-07-30T10:32:48Z</time>
      </trkpt>
      <trkpt lat="43.3209430" lon="-1.9859480">
        <ele>29.2</ele>
        <time>2020-07-30T10:32:51Z</time>
      </trkpt>
      <trkpt lat="43.3209150" lon="-1.9859540">
        <ele>29.4</ele>
        <time>2020-07-30T10:32:52Z</time>
      </trkpt>
      <trkpt lat="43.3207780" lon="-1.9858740">
        <ele>29.2</ele>
        <time>2020-07-30T10:32:57Z</time>
      </trkpt>
      <trkpt lat="43.3206800" lon="-1.9856770">
        <ele>29.4</ele>
        <time>2020-07-30T10:33:02Z</time>
      </trkpt>
      <trkpt lat="43.3205580" lon="-1.9854570">
        <ele>29.2</ele>
        <time>2020-07-30T10:33:08Z</time>
      </trkpt>
      <trkpt lat="43.3205390" lon="-1.9854250">
        <ele>29.4</ele>
        <time>2020-07-30T10:33:09Z</time>
      </trkpt>
      <trkpt lat="43.3204390" lon="-1.9852440">
        <ele>29.8</ele>
        <time>2020-07-30T10:33:15Z</time>
      </trkpt>
      <trkpt lat="43.3204070" lon="-1.9851930">
        <ele>29.8</ele>
        <time>2020-07-30T10:33:17Z</time>
      </trkpt>
      <trkpt lat="43.3202490" lon="-1.9850860">
        <ele>29.6</ele>
        <time>2020-07-30T10:33:23Z</time>
      </trkpt>
      <trkpt lat="43.3202180" lon="-1.9850680">
        <ele>29.6</ele>
        <time>2020-07-30T10:33:24Z</time>
      </trkpt>
      <trkpt lat="43.3201850" lon="-1.9850500">
        <ele>29.6</ele>
        <time>2020-07-30T10:33:25Z</time>
      </trkpt>
      <trkpt lat="43.3201150" lon="-1.9850310">
        <ele>29.6</ele>
        <time>2020-07-30T10:33:27Z</time>
      </trkpt>
      <trkpt lat="43.3200410" lon="-1.9850330">
        <ele>29.6</ele>
        <time>2020-07-30T10:33:29Z</time>
      </trkpt>
      <trkpt lat="43.3198210" lon="-1.9850000">
        <ele>29.6</ele>
        <time>2020-07-30T10:33:35Z</time>
      </trkpt>
      <trkpt lat="43.3197150" lon="-1.9849800">
        <ele>29.6</ele>
        <time>2020-07-30T10:33:38Z</time>
      </trkpt>
      <trkpt lat="43.3196820" lon="-1.9849690">
        <ele>29.6</ele>
        <time>2020-07-30T10:33:39Z</time>
      </trkpt>
      <trkpt lat="43.3195550" lon="-1.9849240">
        <ele>30.2</ele>
        <time>2020-07-30T10:33:43Z</time>
      </trkpt>
      <trkpt lat="43.3194290" lon="-1.9848030">
        <ele>29.6</ele>
        <time>2020-07-30T10:33:48Z</time>
      </trkpt>
      <trkpt lat="43.3194220" lon="-1.9847770">
        <ele>29.4</ele>
        <time>2020-07-30T10:33:49Z</time>
      </trkpt>
      <trkpt lat="43.3193730" lon="-1.9847080">
        <ele>29.4</ele>
        <time>2020-07-30T10:33:52Z</time>
      </trkpt>
      <trkpt lat="43.3191800" lon="-1.9845590">
        <ele>29.8</ele>
        <time>2020-07-30T10:33:58Z</time>
      </trkpt>
      <trkpt lat="43.3189630" lon="-1.9844320">
        <ele>29.8</ele>
        <time>2020-07-30T10:34:04Z</time>
      </trkpt>
      <trkpt lat="43.3189260" lon="-1.9844420">
        <ele>29.8</ele>
        <time>2020-07-30T10:34:05Z</time>
      </trkpt>
      <trkpt lat="43.3188270" lon="-1.9845320">
        <ele>29.6</ele>
        <time>2020-07-30T10:34:08Z</time>
      </trkpt>
      <trkpt lat="43.3188030" lon="-1.9845780">
        <ele>29.6</ele>
        <time>2020-07-30T10:34:09Z</time>
      </trkpt>
      <trkpt lat="43.3186960" lon="-1.9848230">
        <ele>30.0</ele>
        <time>2020-07-30T10:34:14Z</time>
      </trkpt>
      <trkpt lat="43.3186510" lon="-1.9849070">
        <ele>30.0</ele>
        <time>2020-07-30T10:34:16Z</time>
      </trkpt>
      <trkpt lat="43.3184780" lon="-1.9850780">
        <ele>29.8</ele>
        <time>2020-07-30T10:34:22Z</time>
      </trkpt>
    </trkseg>
  </trk>
</gpx>
